<?xml version="1.0" encoding="UTF-8" standalone="no" ?>
<gpx xmlns="http://www.topografix.com/GPX/1/1" creator="MapSource 6.16.3" version="1.1" xmlns:xsi="http://www.w3.org/2001/XMLSchema-instance" xsi:schemaLocation="http://www.topografix.com/GPX/1/1 http://www.topografix.com/GPX/1/1/gpx.xsd">

  <metadata>
    <link href="http://www.garmin.com">
      <text>Garmin International</text>
    </link>
    <time>2012-01-22T22:36:31Z</time>
    <bounds maxlat="40.415123021230102" maxlon="-2.415122017264366" minlat="30.46439697034657" minlon="-5.632746974006295"/>
  </metadata>

  <trk>
    <name>030412_España</name>
    <extensions>
      <gpxx:TrackExtension xmlns:gpxx="http://www.garmin.com/xmlschemas/GpxExtensions/v3">
        <gpxx:DisplayColor>Red</gpxx:DisplayColor>
      </gpxx:TrackExtension>
    </extensions>
    <trkseg>
      <trkpt lat="40.411872016265988" lon="-3.730020001530647">
        <ele>621.60000000000002</ele>
        <time>2003-04-12T12:28:38Z</time>
      </trkpt>
      <trkpt lat="40.411817030981183" lon="-3.729907013475895">
        <ele>631.20000000000005</ele>
        <time>2003-04-12T12:29:48Z</time>
      </trkpt>
      <trkpt lat="40.411664983257651" lon="-3.729971973225474">
        <ele>634.29999999999995</ele>
        <time>2003-04-12T12:30:32Z</time>
      </trkpt>
      <trkpt lat="40.411798004060984" lon="-3.729838030412793">
        <ele>637.29999999999995</ele>
        <time>2003-04-12T12:31:17Z</time>
      </trkpt>
      <trkpt lat="40.411873022094369" lon="-3.729771981015801">
        <ele>643.5</ele>
        <time>2003-04-12T12:31:34Z</time>
      </trkpt>
      <trkpt lat="40.414139991626143" lon="-3.726417040452361">
        <ele>639</ele>
        <time>2003-04-12T12:41:38Z</time>
      </trkpt>
      <trkpt lat="40.414252979680896" lon="-3.726353002712131">
        <ele>639</ele>
        <time>2003-04-12T12:41:38Z</time>
      </trkpt>
      <trkpt lat="40.414066985249519" lon="-3.726325007155538">
        <ele>639</ele>
        <time>2003-04-12T12:41:45Z</time>
      </trkpt>
      <trkpt lat="40.414162036031485" lon="-3.726253006607294">
        <ele>639</ele>
        <time>2003-04-12T12:41:52Z</time>
      </trkpt>
      <trkpt lat="40.414249962195754" lon="-3.726216964423657">
        <ele>639</ele>
        <time>2003-04-12T12:41:57Z</time>
      </trkpt>
      <trkpt lat="40.415123021230102" lon="-3.725931979715824">
        <ele>632.29999999999995</ele>
        <time>2003-04-12T12:43:32Z</time>
      </trkpt>
      <trkpt lat="40.41421802714467" lon="-3.726231968030334">
        <ele>634.79999999999995</ele>
        <time>2003-04-12T12:43:33Z</time>
      </trkpt>
      <trkpt lat="40.414097998291254" lon="-3.726282007992268">
        <ele>634.89999999999998</ele>
        <time>2003-04-12T12:43:36Z</time>
      </trkpt>
      <trkpt lat="40.414185002446175" lon="-3.726195003837347">
        <ele>633.70000000000005</ele>
        <time>2003-04-12T12:45:16Z</time>
      </trkpt>
      <trkpt lat="40.41421802714467" lon="-3.726017978042364">
        <ele>633.79999999999995</ele>
        <time>2003-04-12T12:45:20Z</time>
      </trkpt>
      <trkpt lat="40.414297990500927" lon="-3.725592009723187">
        <ele>633.79999999999995</ele>
        <time>2003-04-12T12:45:31Z</time>
      </trkpt>
      <trkpt lat="40.414339983835816" lon="-3.725439961999655">
        <ele>633.79999999999995</ele>
        <time>2003-04-12T12:45:36Z</time>
      </trkpt>
      <trkpt lat="40.414363034069538" lon="-3.725201999768615">
        <ele>633.79999999999995</ele>
        <time>2003-04-12T12:45:40Z</time>
      </trkpt>
      <trkpt lat="40.414311988279223" lon="-3.725020028650761">
        <ele>630.70000000000005</ele>
        <time>2003-04-12T12:45:44Z</time>
      </trkpt>
      <trkpt lat="40.414252979680896" lon="-3.724858006462455">
        <ele>627.70000000000005</ele>
        <time>2003-04-12T12:45:45Z</time>
      </trkpt>
      <trkpt lat="40.414191959425807" lon="-3.72471802867949">
        <ele>624.70000000000005</ele>
        <time>2003-04-12T12:45:48Z</time>
      </trkpt>
      <trkpt lat="40.414134962484241" lon="-3.724622977897525">
        <ele>618.39999999999998</ele>
        <time>2003-04-12T12:45:52Z</time>
      </trkpt>
      <trkpt lat="40.41408802382648" lon="-3.724476965144277">
        <ele>613.5</ele>
        <time>2003-04-12T12:45:56Z</time>
      </trkpt>
      <trkpt lat="40.414019962772727" lon="-3.72437302954495">
        <ele>611.20000000000005</ele>
        <time>2003-04-12T12:45:59Z</time>
      </trkpt>
      <trkpt lat="40.413918038830161" lon="-3.724325001239777">
        <ele>609.29999999999995</ele>
        <time>2003-04-12T12:46:00Z</time>
      </trkpt>
      <trkpt lat="40.413794992491603" lon="-3.724321983754635">
        <ele>608.10000000000002</ele>
        <time>2003-04-12T12:46:03Z</time>
      </trkpt>
      <trkpt lat="40.413655014708638" lon="-3.724303040653467">
        <ele>606.89999999999998</ele>
        <time>2003-04-12T12:46:04Z</time>
      </trkpt>
      <trkpt lat="40.413482012227178" lon="-3.724272027611733">
        <ele>607.10000000000002</ele>
        <time>2003-04-12T12:46:07Z</time>
      </trkpt>
      <trkpt lat="40.413172971457243" lon="-3.724216958507896">
        <ele>604.5</ele>
        <time>2003-04-12T12:46:10Z</time>
      </trkpt>
      <trkpt lat="40.412817997857928" lon="-3.724064994603396">
        <ele>601.5</ele>
        <time>2003-04-12T12:46:12Z</time>
      </trkpt>
      <trkpt lat="40.412605013698339" lon="-3.723942032083869">
        <ele>600.39999999999998</ele>
        <time>2003-04-12T12:46:15Z</time>
      </trkpt>
      <trkpt lat="40.411775037646294" lon="-3.72338798828423">
        <ele>596.79999999999995</ele>
        <time>2003-04-12T12:46:22Z</time>
      </trkpt>
      <trkpt lat="40.41116701439023" lon="-3.723163018003106">
        <ele>593.89999999999998</ele>
        <time>2003-04-12T12:46:29Z</time>
      </trkpt>
      <trkpt lat="40.411010021343827" lon="-3.723205011337996">
        <ele>593</ele>
        <time>2003-04-12T12:46:30Z</time>
      </trkpt>
      <trkpt lat="40.410886975005269" lon="-3.723239963874221">
        <ele>592.10000000000002</ele>
        <time>2003-04-12T12:46:33Z</time>
      </trkpt>
      <trkpt lat="40.409992039203644" lon="-3.723437022417784">
        <ele>591.10000000000002</ele>
        <time>2003-04-12T12:46:46Z</time>
      </trkpt>
      <trkpt lat="40.409067012369633" lon="-3.723662998527288">
        <ele>591.10000000000002</ele>
        <time>2003-04-12T12:46:57Z</time>
      </trkpt>
      <trkpt lat="40.408908007666469" lon="-3.723693005740643">
        <ele>597.5</ele>
        <time>2003-04-12T12:47:28Z</time>
      </trkpt>
      <trkpt lat="40.408772975206375" lon="-3.723740028217435">
        <ele>597.5</ele>
        <time>2003-04-12T12:47:32Z</time>
      </trkpt>
      <trkpt lat="40.408190013840795" lon="-3.723949994891882">
        <ele>597.5</ele>
        <time>2003-04-12T12:47:42Z</time>
      </trkpt>
      <trkpt lat="40.408079959452152" lon="-3.723983019590378">
        <ele>596.79999999999995</ele>
        <time>2003-04-12T12:47:43Z</time>
      </trkpt>
      <trkpt lat="40.407204972580075" lon="-3.724361965432763">
        <ele>596.79999999999995</ele>
        <time>2003-04-12T12:47:44Z</time>
      </trkpt>
      <trkpt lat="40.406917976215482" lon="-3.724458022043109">
        <ele>595.5</ele>
        <time>2003-04-12T12:47:51Z</time>
      </trkpt>
      <trkpt lat="40.406770035624504" lon="-3.724452992901206">
        <ele>594.79999999999995</ele>
        <time>2003-04-12T12:47:55Z</time>
      </trkpt>
      <trkpt lat="40.406625028699636" lon="-3.724467996507883">
        <ele>594</ele>
        <time>2003-04-12T12:47:56Z</time>
      </trkpt>
      <trkpt lat="40.406493013724685" lon="-3.7244619615376">
        <ele>594</ele>
        <time>2003-04-12T12:47:59Z</time>
      </trkpt>
      <trkpt lat="40.406377008184791" lon="-3.72450202703476">
        <ele>593.89999999999998</ele>
        <time>2003-04-12T12:47:59Z</time>
      </trkpt>
      <trkpt lat="40.405476959422231" lon="-3.724706964567304">
        <ele>594.39999999999998</ele>
        <time>2003-04-12T12:48:10Z</time>
      </trkpt>
      <trkpt lat="40.405336981639266" lon="-3.7247399892658">
        <ele>594.5</ele>
        <time>2003-04-12T12:48:11Z</time>
      </trkpt>
      <trkpt lat="40.404976978898048" lon="-3.724788017570972">
        <ele>594.29999999999995</ele>
        <time>2003-04-12T12:48:14Z</time>
      </trkpt>
      <trkpt lat="40.404795007780194" lon="-3.724787011742592">
        <ele>594.39999999999998</ele>
        <time>2003-04-12T12:48:17Z</time>
      </trkpt>
      <trkpt lat="40.404601972550154" lon="-3.72471802867949">
        <ele>594.39999999999998</ele>
        <time>2003-04-12T12:48:19Z</time>
      </trkpt>
      <trkpt lat="40.404561990872025" lon="-3.724562963470817">
        <ele>594.20000000000005</ele>
        <time>2003-04-12T12:48:22Z</time>
      </trkpt>
      <trkpt lat="40.404546987265348" lon="-3.724347967654467">
        <ele>594</ele>
        <time>2003-04-12T12:48:23Z</time>
      </trkpt>
      <trkpt lat="40.404542963951826" lon="-3.723961981013417">
        <ele>592.89999999999998</ele>
        <time>2003-04-12T12:48:26Z</time>
      </trkpt>
      <trkpt lat="40.404527960345149" lon="-3.723584963008761">
        <ele>592.20000000000005</ele>
        <time>2003-04-12T12:48:30Z</time>
      </trkpt>
      <trkpt lat="40.404456965625286" lon="-3.723416989669204">
        <ele>591.70000000000005</ele>
        <time>2003-04-12T12:48:32Z</time>
      </trkpt>
      <trkpt lat="40.404316987842321" lon="-3.72334498912096">
        <ele>591.10000000000002</ele>
        <time>2003-04-12T12:48:34Z</time>
      </trkpt>
      <trkpt lat="40.4041419737041" lon="-3.723311964422464">
        <ele>590.89999999999998</ele>
        <time>2003-04-12T12:48:36Z</time>
      </trkpt>
      <trkpt lat="40.404014987871051" lon="-3.723299978300929">
        <ele>590.29999999999995</ele>
        <time>2003-04-12T12:48:37Z</time>
      </trkpt>
      <trkpt lat="40.403439989313483" lon="-3.72317299246788">
        <ele>589.20000000000005</ele>
        <time>2003-04-12T12:48:41Z</time>
      </trkpt>
      <trkpt lat="40.40304696187377" lon="-3.723037037998438">
        <ele>590.10000000000002</ele>
        <time>2003-04-12T12:48:45Z</time>
      </trkpt>
      <trkpt lat="40.402071978896856" lon="-3.722712993621826">
        <ele>590</ele>
        <time>2003-04-12T12:48:52Z</time>
      </trkpt>
      <trkpt lat="40.401098001748323" lon="-3.722402025014162">
        <ele>589.89999999999998</ele>
        <time>2003-04-12T12:48:59Z</time>
      </trkpt>
      <trkpt lat="40.400408003479242" lon="-3.722049985080957">
        <ele>589.89999999999998</ele>
        <time>2003-04-12T12:49:04Z</time>
      </trkpt>
      <trkpt lat="40.400050012394786" lon="-3.721455037593842">
        <ele>589.89999999999998</ele>
        <time>2003-04-12T12:49:07Z</time>
      </trkpt>
      <trkpt lat="40.399699984118342" lon="-3.72055197134614">
        <ele>589.89999999999998</ele>
        <time>2003-04-12T12:49:12Z</time>
      </trkpt>
      <trkpt lat="40.399537039920688" lon="-3.719787038862705">
        <ele>589.89999999999998</ele>
        <time>2003-04-12T12:49:13Z</time>
      </trkpt>
      <trkpt lat="40.399524969980121" lon="-3.719238024204969">
        <ele>589.89999999999998</ele>
        <time>2003-04-12T12:49:16Z</time>
      </trkpt>
      <trkpt lat="40.399635024368763" lon="-3.717927010729909">
        <ele>589.89999999999998</ele>
        <time>2003-04-12T12:49:20Z</time>
      </trkpt>
      <trkpt lat="40.399675006046891" lon="-3.716838033869863">
        <ele>589.89999999999998</ele>
        <time>2003-04-12T12:49:24Z</time>
      </trkpt>
      <trkpt lat="40.399596970528364" lon="-3.71627502143383">
        <ele>589.89999999999998</ele>
        <time>2003-04-12T12:49:27Z</time>
      </trkpt>
      <trkpt lat="40.399269992485642" lon="-3.714923020452261">
        <ele>589.29999999999995</ele>
        <time>2003-04-12T12:49:31Z</time>
      </trkpt>
      <trkpt lat="40.399077963083982" lon="-3.714417004957795">
        <ele>589.20000000000005</ele>
        <time>2003-04-12T12:49:34Z</time>
      </trkpt>
      <trkpt lat="40.398679990321398" lon="-3.713745027780533">
        <ele>589.20000000000005</ele>
        <time>2003-04-12T12:49:36Z</time>
      </trkpt>
      <trkpt lat="40.398515034466982" lon="-3.713564984500408">
        <ele>589.20000000000005</ele>
        <time>2003-04-12T12:49:38Z</time>
      </trkpt>
      <trkpt lat="40.398040032014251" lon="-3.712927959859371">
        <ele>589</ele>
        <time>2003-04-12T12:49:40Z</time>
      </trkpt>
      <trkpt lat="40.397399989888072" lon="-3.71202296577394">
        <ele>588.60000000000002</ele>
        <time>2003-04-12T12:49:44Z</time>
      </trkpt>
      <trkpt lat="40.396776963025331" lon="-3.710897024720907">
        <ele>588.60000000000002</ele>
        <time>2003-04-12T12:49:48Z</time>
      </trkpt>
      <trkpt lat="40.39623498916626" lon="-3.709652982652187">
        <ele>588.60000000000002</ele>
        <time>2003-04-12T12:49:53Z</time>
      </trkpt>
      <trkpt lat="40.395807009190321" lon="-3.708302993327379">
        <ele>588.60000000000002</ele>
        <time>2003-04-12T12:49:57Z</time>
      </trkpt>
      <trkpt lat="40.395426973700523" lon="-3.706834986805916">
        <ele>588.60000000000002</ele>
        <time>2003-04-12T12:50:01Z</time>
      </trkpt>
      <trkpt lat="40.395092032849789" lon="-3.705692030489445">
        <ele>588.60000000000002</ele>
        <time>2003-04-12T12:50:03Z</time>
      </trkpt>
      <trkpt lat="40.394697999581695" lon="-3.704577991738915">
        <ele>588.60000000000002</ele>
        <time>2003-04-12T12:50:06Z</time>
      </trkpt>
      <trkpt lat="40.394355012103915" lon="-3.703893022611737">
        <ele>588.60000000000002</ele>
        <time>2003-04-12T12:50:09Z</time>
      </trkpt>
      <trkpt lat="40.393742965534329" lon="-3.702987022697926">
        <ele>588.60000000000002</ele>
        <time>2003-04-12T12:50:11Z</time>
      </trkpt>
      <trkpt lat="40.393050033599138" lon="-3.70222301222384">
        <ele>588.60000000000002</ele>
        <time>2003-04-12T12:50:14Z</time>
      </trkpt>
      <trkpt lat="40.392097011208534" lon="-3.701345007866621">
        <ele>588.60000000000002</ele>
        <time>2003-04-12T12:50:18Z</time>
      </trkpt>
      <trkpt lat="40.391141977161169" lon="-3.700487958267331">
        <ele>588.60000000000002</ele>
        <time>2003-04-12T12:50:22Z</time>
      </trkpt>
      <trkpt lat="40.390228014439344" lon="-3.699654964730144">
        <ele>588.60000000000002</ele>
        <time>2003-04-12T12:50:26Z</time>
      </trkpt>
      <trkpt lat="40.389325032010674" lon="-3.698832029476762">
        <ele>588.60000000000002</ele>
        <time>2003-04-12T12:50:30Z</time>
      </trkpt>
      <trkpt lat="40.388448033481836" lon="-3.698004987090826">
        <ele>588.60000000000002</ele>
        <time>2003-04-12T12:50:34Z</time>
      </trkpt>
      <trkpt lat="40.387628031894565" lon="-3.697148021310568">
        <ele>587.70000000000005</ele>
        <time>2003-04-12T12:50:38Z</time>
      </trkpt>
      <trkpt lat="40.387280015274882" lon="-3.696690034121275">
        <ele>587.29999999999995</ele>
        <time>2003-04-12T12:50:41Z</time>
      </trkpt>
      <trkpt lat="40.386605020612478" lon="-3.695838013663888">
        <ele>586.29999999999995</ele>
        <time>2003-04-12T12:50:45Z</time>
      </trkpt>
      <trkpt lat="40.385891972109675" lon="-3.694966966286302">
        <ele>585.79999999999995</ele>
        <time>2003-04-12T12:50:49Z</time>
      </trkpt>
      <trkpt lat="40.385197028517723" lon="-3.694182001054287">
        <ele>585.29999999999995</ele>
        <time>2003-04-12T12:50:52Z</time>
      </trkpt>
      <trkpt lat="40.384469982236624" lon="-3.693331992253661">
        <ele>585.20000000000005</ele>
        <time>2003-04-12T12:50:56Z</time>
      </trkpt>
      <trkpt lat="40.383698008954525" lon="-3.692420041188598">
        <ele>584.60000000000002</ele>
        <time>2003-04-12T12:51:00Z</time>
      </trkpt>
      <trkpt lat="40.382853029295802" lon="-3.691516974940896">
        <ele>585.60000000000002</ele>
        <time>2003-04-12T12:51:04Z</time>
      </trkpt>
      <trkpt lat="40.382006959989667" lon="-3.690603012219071">
        <ele>588.79999999999995</ele>
        <time>2003-04-12T12:51:08Z</time>
      </trkpt>
      <trkpt lat="40.38164502941072" lon="-3.690076963976026">
        <ele>591</ele>
        <time>2003-04-12T12:51:11Z</time>
      </trkpt>
      <trkpt lat="40.381191987544298" lon="-3.689198037609458">
        <ele>592.29999999999995</ele>
        <time>2003-04-12T12:51:14Z</time>
      </trkpt>
      <trkpt lat="40.380731988698244" lon="-3.687930023297668">
        <ele>590.20000000000005</ele>
        <time>2003-04-12T12:51:18Z</time>
      </trkpt>
      <trkpt lat="40.380151960998774" lon="-3.686816990375519">
        <ele>584.79999999999995</ele>
        <time>2003-04-12T12:51:22Z</time>
      </trkpt>
      <trkpt lat="40.379762034863234" lon="-3.686336958780885">
        <ele>583.10000000000002</ele>
        <time>2003-04-12T12:51:23Z</time>
      </trkpt>
      <trkpt lat="40.379306981340051" lon="-3.685932029038668">
        <ele>581.70000000000005</ele>
        <time>2003-04-12T12:51:26Z</time>
      </trkpt>
      <trkpt lat="40.378284975886345" lon="-3.685237001627684">
        <ele>580.20000000000005</ele>
        <time>2003-04-12T12:51:30Z</time>
      </trkpt>
      <trkpt lat="40.377490036189556" lon="-3.684662003070116">
        <ele>578.79999999999995</ele>
        <time>2003-04-12T12:51:34Z</time>
      </trkpt>
      <trkpt lat="40.376700041815639" lon="-3.683990025892854">
        <ele>577.79999999999995</ele>
        <time>2003-04-12T12:51:36Z</time>
      </trkpt>
      <trkpt lat="40.375903006643057" lon="-3.683302961289883">
        <ele>577.10000000000002</ele>
        <time>2003-04-12T12:51:39Z</time>
      </trkpt>
      <trkpt lat="40.3751150239259" lon="-3.682610029354692">
        <ele>579.70000000000005</ele>
        <time>2003-04-12T12:51:43Z</time>
      </trkpt>
      <trkpt lat="40.374329974874854" lon="-3.68192296475172">
        <ele>581.29999999999995</ele>
        <time>2003-04-12T12:51:46Z</time>
      </trkpt>
      <trkpt lat="40.373537968844175" lon="-3.681240007281303">
        <ele>581.29999999999995</ele>
        <time>2003-04-12T12:51:49Z</time>
      </trkpt>
      <trkpt lat="40.372755015268922" lon="-3.680580016225576">
        <ele>581.89999999999998</ele>
        <time>2003-04-12T12:51:51Z</time>
      </trkpt>
      <trkpt lat="40.371902994811535" lon="-3.680011974647641">
        <ele>581.10000000000002</ele>
        <time>2003-04-12T12:51:54Z</time>
      </trkpt>
      <trkpt lat="40.371018033474684" lon="-3.679511994123459">
        <ele>580.60000000000002</ele>
        <time>2003-04-12T12:51:58Z</time>
      </trkpt>
      <trkpt lat="40.370137011632323" lon="-3.679092982783914">
        <ele>580.10000000000002</ele>
        <time>2003-04-12T12:52:01Z</time>
      </trkpt>
      <trkpt lat="40.369247021153569" lon="-3.678772039711475">
        <ele>579.79999999999995</ele>
        <time>2003-04-12T12:52:03Z</time>
      </trkpt>
      <trkpt lat="40.368358036503196" lon="-3.678542040288448">
        <ele>580.79999999999995</ele>
        <time>2003-04-12T12:52:06Z</time>
      </trkpt>
      <trkpt lat="40.367220025509596" lon="-3.678361997008324">
        <ele>585.20000000000005</ele>
        <time>2003-04-12T12:52:10Z</time>
      </trkpt>
      <trkpt lat="40.36613498814404" lon="-3.6782699637115">
        <ele>586.5</ele>
        <time>2003-04-12T12:52:14Z</time>
      </trkpt>
      <trkpt lat="40.36501700989902" lon="-3.678229982033372">
        <ele>585.60000000000002</ele>
        <time>2003-04-12T12:52:18Z</time>
      </trkpt>
      <trkpt lat="40.363931972533464" lon="-3.678231993690133">
        <ele>584.89999999999998</ele>
        <time>2003-04-12T12:52:22Z</time>
      </trkpt>
      <trkpt lat="40.36291197873652" lon="-3.678293013945222">
        <ele>580.79999999999995</ele>
        <time>2003-04-12T12:52:26Z</time>
      </trkpt>
      <trkpt lat="40.362166995182633" lon="-3.678489988669753">
        <ele>576.79999999999995</ele>
        <time>2003-04-12T12:52:29Z</time>
      </trkpt>
      <trkpt lat="40.361182959750295" lon="-3.6789970099926">
        <ele>573.79999999999995</ele>
        <time>2003-04-12T12:52:33Z</time>
      </trkpt>
      <trkpt lat="40.360194984823465" lon="-3.679528003558517">
        <ele>573.20000000000005</ele>
        <time>2003-04-12T12:52:37Z</time>
      </trkpt>
      <trkpt lat="40.359397027641535" lon="-3.679793039336801">
        <ele>573</ele>
        <time>2003-04-12T12:52:40Z</time>
      </trkpt>
      <trkpt lat="40.358264967799187" lon="-3.679954977706075">
        <ele>571.70000000000005</ele>
        <time>2003-04-12T12:52:44Z</time>
      </trkpt>
      <trkpt lat="40.357093010097742" lon="-3.679977022111416">
        <ele>571.20000000000005</ele>
        <time>2003-04-12T12:52:48Z</time>
      </trkpt>
      <trkpt lat="40.355958016589284" lon="-3.679818017408252">
        <ele>571.29999999999995</ele>
        <time>2003-04-12T12:52:52Z</time>
      </trkpt>
      <trkpt lat="40.355138015002012" lon="-3.679451979696751">
        <ele>571</ele>
        <time>2003-04-12T12:52:56Z</time>
      </trkpt>
      <trkpt lat="40.354626970365644" lon="-3.679073033854365">
        <ele>570.70000000000005</ele>
        <time>2003-04-12T12:52:57Z</time>
      </trkpt>
      <trkpt lat="40.353937977924943" lon="-3.678337018936873">
        <ele>569.89999999999998</ele>
        <time>2003-04-12T12:53:00Z</time>
      </trkpt>
      <trkpt lat="40.353327021002769" lon="-3.677466977387667">
        <ele>569.20000000000005</ele>
        <time>2003-04-12T12:53:04Z</time>
      </trkpt>
      <trkpt lat="40.352501990273595" lon="-3.676382023841143">
        <ele>568.10000000000002</ele>
        <time>2003-04-12T12:53:07Z</time>
      </trkpt>
      <trkpt lat="40.352020030841231" lon="-3.67594700306654">
        <ele>567.60000000000002</ele>
        <time>2003-04-12T12:53:10Z</time>
      </trkpt>
      <trkpt lat="40.351013028994203" lon="-3.675273014232516">
        <ele>567.5</ele>
        <time>2003-04-12T12:53:14Z</time>
      </trkpt>
      <trkpt lat="40.350060006603599" lon="-3.674674965441227">
        <ele>569.79999999999995</ele>
        <time>2003-04-12T12:53:18Z</time>
      </trkpt>
      <trkpt lat="40.349134979769588" lon="-3.674150006845594">
        <ele>573.20000000000005</ele>
        <time>2003-04-12T12:53:22Z</time>
      </trkpt>
      <trkpt lat="40.348190004006028" lon="-3.673682967200875">
        <ele>576.39999999999998</ele>
        <time>2003-04-12T12:53:26Z</time>
      </trkpt>
      <trkpt lat="40.347221978008747" lon="-3.673305027186871">
        <ele>580.5</ele>
        <time>2003-04-12T12:53:30Z</time>
      </trkpt>
      <trkpt lat="40.34623802639544" lon="-3.673028005287051">
        <ele>584.10000000000002</ele>
        <time>2003-04-12T12:53:34Z</time>
      </trkpt>
      <trkpt lat="40.34527201205492" lon="-3.672851985320449">
        <ele>586.29999999999995</ele>
        <time>2003-04-12T12:53:38Z</time>
      </trkpt>
      <trkpt lat="40.344257969409227" lon="-3.672764981165528">
        <ele>586.70000000000005</ele>
        <time>2003-04-12T12:53:42Z</time>
      </trkpt>
      <trkpt lat="40.343203023076057" lon="-3.672775039449334">
        <ele>586.10000000000002</ele>
        <time>2003-04-12T12:53:46Z</time>
      </trkpt>
      <trkpt lat="40.34211304038763" lon="-3.672903031110764">
        <ele>583.20000000000005</ele>
        <time>2003-04-12T12:53:50Z</time>
      </trkpt>
      <trkpt lat="40.341073013842106" lon="-3.673133030533791">
        <ele>580.10000000000002</ele>
        <time>2003-04-12T12:53:54Z</time>
      </trkpt>
      <trkpt lat="40.340027958154678" lon="-3.673482974991202">
        <ele>577.89999999999998</ele>
        <time>2003-04-12T12:53:58Z</time>
      </trkpt>
      <trkpt lat="40.338952979072928" lon="-3.673948002979159">
        <ele>576.89999999999998</ele>
        <time>2003-04-12T12:54:01Z</time>
      </trkpt>
      <trkpt lat="40.337877999991179" lon="-3.674564994871616">
        <ele>577.29999999999995</ele>
        <time>2003-04-12T12:54:05Z</time>
      </trkpt>
      <trkpt lat="40.337082976475358" lon="-3.675132030621171">
        <ele>578.29999999999995</ele>
        <time>2003-04-12T12:54:09Z</time>
      </trkpt>
      <trkpt lat="40.336307985708117" lon="-3.675780035555363">
        <ele>578.89999999999998</ele>
        <time>2003-04-12T12:54:12Z</time>
      </trkpt>
      <trkpt lat="40.335541963577271" lon="-3.676472967490554">
        <ele>579.5</ele>
        <time>2003-04-12T12:54:14Z</time>
      </trkpt>
      <trkpt lat="40.334817012771964" lon="-3.677291963249445">
        <ele>580.29999999999995</ele>
        <time>2003-04-12T12:54:17Z</time>
      </trkpt>
      <trkpt lat="40.334134977310896" lon="-3.67815999314189">
        <ele>581.5</ele>
        <time>2003-04-12T12:54:21Z</time>
      </trkpt>
      <trkpt lat="40.333502981811762" lon="-3.679091976955533">
        <ele>582.89999999999998</ele>
        <time>2003-04-12T12:54:24Z</time>
      </trkpt>
      <trkpt lat="40.332932006567717" lon="-3.680066959932447">
        <ele>584.39999999999998</ele>
        <time>2003-04-12T12:54:27Z</time>
      </trkpt>
      <trkpt lat="40.332418028265238" lon="-3.681073039770126">
        <ele>585.60000000000002</ele>
        <time>2003-04-12T12:54:29Z</time>
      </trkpt>
      <trkpt lat="40.331853004172444" lon="-3.682365026324987">
        <ele>586.39999999999998</ele>
        <time>2003-04-12T12:54:33Z</time>
      </trkpt>
      <trkpt lat="40.331359980627894" lon="-3.683675033971667">
        <ele>587.89999999999998</ele>
        <time>2003-04-12T12:54:37Z</time>
      </trkpt>
      <trkpt lat="40.330775007605553" lon="-3.684985041618347">
        <ele>589.89999999999998</ele>
        <time>2003-04-12T12:54:41Z</time>
      </trkpt>
      <trkpt lat="40.330249965190887" lon="-3.685949966311455">
        <ele>591.10000000000002</ele>
        <time>2003-04-12T12:54:44Z</time>
      </trkpt>
      <trkpt lat="40.32965200021863" lon="-3.68688203394413">
        <ele>591.79999999999995</ele>
        <time>2003-04-12T12:54:48Z</time>
      </trkpt>
      <trkpt lat="40.329016987234354" lon="-3.687740005552769">
        <ele>593.79999999999995</ele>
        <time>2003-04-12T12:54:51Z</time>
      </trkpt>
      <trkpt lat="40.328317014500499" lon="-3.68853997439146">
        <ele>595.70000000000005</ele>
        <time>2003-04-12T12:54:54Z</time>
      </trkpt>
      <trkpt lat="40.32756800763309" lon="-3.689280012622476">
        <ele>598.10000000000002</ele>
        <time>2003-04-12T12:54:56Z</time>
      </trkpt>
      <trkpt lat="40.326793016865849" lon="-3.689937992021442">
        <ele>600.5</ele>
        <time>2003-04-12T12:54:59Z</time>
      </trkpt>
      <trkpt lat="40.325747961178422" lon="-3.690677024424076">
        <ele>603.39999999999998</ele>
        <time>2003-04-12T12:55:03Z</time>
      </trkpt>
      <trkpt lat="40.32473299652338" lon="-3.691322011873126">
        <ele>604.5</ele>
        <time>2003-04-12T12:55:07Z</time>
      </trkpt>
      <trkpt lat="40.323747033253312" lon="-3.691851999610663">
        <ele>607.60000000000002</ele>
        <time>2003-04-12T12:55:11Z</time>
      </trkpt>
      <trkpt lat="40.322998026385903" lon="-3.692170009016991">
        <ele>609.20000000000005</ele>
        <time>2003-04-12T12:55:15Z</time>
      </trkpt>
      <trkpt lat="40.32178801484406" lon="-3.692328007891774">
        <ele>611</ele>
        <time>2003-04-12T12:55:19Z</time>
      </trkpt>
      <trkpt lat="40.321558015421033" lon="-3.692321972921491">
        <ele>610.89999999999998</ele>
        <time>2003-04-12T12:55:21Z</time>
      </trkpt>
      <trkpt lat="40.320578003302217" lon="-3.692273022606969">
        <ele>611.60000000000002</ele>
        <time>2003-04-12T12:55:25Z</time>
      </trkpt>
      <trkpt lat="40.319530013948679" lon="-3.69223203510046">
        <ele>612.89999999999998</ele>
        <time>2003-04-12T12:55:29Z</time>
      </trkpt>
      <trkpt lat="40.318423015996814" lon="-3.6921919696033">
        <ele>613.79999999999995</ele>
        <time>2003-04-12T12:55:33Z</time>
      </trkpt>
      <trkpt lat="40.317262960597873" lon="-3.692149976268411">
        <ele>615.39999999999998</ele>
        <time>2003-04-12T12:55:37Z</time>
      </trkpt>
      <trkpt lat="40.31611698679626" lon="-3.692106977105141">
        <ele>616.60000000000002</ele>
        <time>2003-04-12T12:55:41Z</time>
      </trkpt>
      <trkpt lat="40.315006971359253" lon="-3.692068001255393">
        <ele>617.29999999999995</ele>
        <time>2003-04-12T12:55:45Z</time>
      </trkpt>
      <trkpt lat="40.313867032527924" lon="-3.692021984606981">
        <ele>617.79999999999995</ele>
        <time>2003-04-12T12:55:49Z</time>
      </trkpt>
      <trkpt lat="40.312964972108603" lon="-3.691989965736866">
        <ele>618.39999999999998</ele>
        <time>2003-04-12T12:55:52Z</time>
      </trkpt>
      <trkpt lat="40.312059978023171" lon="-3.691961970180273">
        <ele>619.39999999999998</ele>
        <time>2003-04-12T12:55:54Z</time>
      </trkpt>
      <trkpt lat="40.310881985351443" lon="-3.691907990723848">
        <ele>619.20000000000005</ele>
        <time>2003-04-12T12:55:58Z</time>
      </trkpt>
      <trkpt lat="40.309747997671366" lon="-3.691861974075437">
        <ele>619.39999999999998</ele>
        <time>2003-04-12T12:56:02Z</time>
      </trkpt>
      <trkpt lat="40.308658014982939" lon="-3.691834984347224">
        <ele>619.5</ele>
        <time>2003-04-12T12:56:06Z</time>
      </trkpt>
      <trkpt lat="40.30758798122406" lon="-3.691800031810999">
        <ele>620.39999999999998</ele>
        <time>2003-04-12T12:56:11Z</time>
      </trkpt>
      <trkpt lat="40.306460028514266" lon="-3.691772958263755">
        <ele>621.79999999999995</ele>
        <time>2003-04-12T12:56:15Z</time>
      </trkpt>
      <trkpt lat="40.305277006700635" lon="-3.691736999899149">
        <ele>620.39999999999998</ele>
        <time>2003-04-12T12:56:19Z</time>
      </trkpt>
      <trkpt lat="40.304349968209863" lon="-3.691702969372273">
        <ele>618.70000000000005</ele>
        <time>2003-04-12T12:56:21Z</time>
      </trkpt>
      <trkpt lat="40.303408009931445" lon="-3.691677991300821">
        <ele>616.29999999999995</ele>
        <time>2003-04-12T12:56:24Z</time>
      </trkpt>
      <trkpt lat="40.302454987540841" lon="-3.691640021279454">
        <ele>614.10000000000002</ele>
        <time>2003-04-12T12:56:28Z</time>
      </trkpt>
      <trkpt lat="40.301491990685463" lon="-3.691612025722861">
        <ele>611.79999999999995</ele>
        <time>2003-04-12T12:56:31Z</time>
      </trkpt>
      <trkpt lat="40.300551960244775" lon="-3.691568020731211">
        <ele>610.10000000000002</ele>
        <time>2003-04-12T12:56:33Z</time>
      </trkpt>
      <trkpt lat="40.299592986702919" lon="-3.691519992426038">
        <ele>609.39999999999998</ele>
        <time>2003-04-12T12:56:36Z</time>
      </trkpt>
      <trkpt lat="40.298647005110979" lon="-3.691477999091148">
        <ele>609.5</ele>
        <time>2003-04-12T12:56:40Z</time>
      </trkpt>
      <trkpt lat="40.297691971063614" lon="-3.691452015191317">
        <ele>609.60000000000002</ele>
        <time>2003-04-12T12:56:43Z</time>
      </trkpt>
      <trkpt lat="40.296725034713745" lon="-3.691422007977963">
        <ele>607.70000000000005</ele>
        <time>2003-04-12T12:56:46Z</time>
      </trkpt>
      <trkpt lat="40.295764971524477" lon="-3.69139501824975">
        <ele>605.89999999999998</ele>
        <time>2003-04-12T12:56:48Z</time>
      </trkpt>
      <trkpt lat="40.294814966619015" lon="-3.691368028521538">
        <ele>603.70000000000005</ele>
        <time>2003-04-12T12:56:51Z</time>
      </trkpt>
      <trkpt lat="40.293848030269146" lon="-3.691340032964945">
        <ele>603.70000000000005</ele>
        <time>2003-04-12T12:56:55Z</time>
      </trkpt>
      <trkpt lat="40.292877992615104" lon="-3.69130801409483">
        <ele>602.10000000000002</ele>
        <time>2003-04-12T12:56:58Z</time>
      </trkpt>
      <trkpt lat="40.291893035173416" lon="-3.691274989396334">
        <ele>601.70000000000005</ele>
        <time>2003-04-12T12:57:00Z</time>
      </trkpt>
      <trkpt lat="40.290889972820878" lon="-3.691237019374967">
        <ele>601.29999999999995</ele>
        <time>2003-04-12T12:57:03Z</time>
      </trkpt>
      <trkpt lat="40.289890011772513" lon="-3.691210029646754">
        <ele>601.60000000000002</ele>
        <time>2003-04-12T12:57:07Z</time>
      </trkpt>
      <trkpt lat="40.288902036845684" lon="-3.691189996898174">
        <ele>601.79999999999995</ele>
        <time>2003-04-12T12:57:10Z</time>
      </trkpt>
      <trkpt lat="40.287895034998655" lon="-3.691168036311865">
        <ele>602</ele>
        <time>2003-04-12T12:57:13Z</time>
      </trkpt>
      <trkpt lat="40.286868000403047" lon="-3.691144986078143">
        <ele>602</ele>
        <time>2003-04-12T12:57:15Z</time>
      </trkpt>
      <trkpt lat="40.285837026312947" lon="-3.691111961379647">
        <ele>602.10000000000002</ele>
        <time>2003-04-12T12:57:18Z</time>
      </trkpt>
      <trkpt lat="40.284788031131029" lon="-3.691087989136577">
        <ele>602.60000000000002</ele>
        <time>2003-04-12T12:57:22Z</time>
      </trkpt>
      <trkpt lat="40.283735012635589" lon="-3.691062005236745">
        <ele>602.79999999999995</ele>
        <time>2003-04-12T12:57:25Z</time>
      </trkpt>
      <trkpt lat="40.282676964998245" lon="-3.691023029386997">
        <ele>604.29999999999995</ele>
        <time>2003-04-12T12:57:27Z</time>
      </trkpt>
      <trkpt lat="40.281623024493456" lon="-3.690995033830404">
        <ele>604.89999999999998</ele>
        <time>2003-04-12T12:57:30Z</time>
      </trkpt>
      <trkpt lat="40.280560031533241" lon="-3.690957985818386">
        <ele>603.39999999999998</ele>
        <time>2003-04-12T12:57:34Z</time>
      </trkpt>
      <trkpt lat="40.27948304079473" lon="-3.69092496111989">
        <ele>600.10000000000002</ele>
        <time>2003-04-12T12:57:37Z</time>
      </trkpt>
      <trkpt lat="40.278402026742697" lon="-3.690895037725568">
        <ele>599.5</ele>
        <time>2003-04-12T12:57:40Z</time>
      </trkpt>
      <trkpt lat="40.277344984933734" lon="-3.690863018855453">
        <ele>602.89999999999998</ele>
        <time>2003-04-12T12:57:42Z</time>
      </trkpt>
      <trkpt lat="40.276313005015254" lon="-3.690827982500196">
        <ele>607.5</ele>
        <time>2003-04-12T12:57:45Z</time>
      </trkpt>
      <trkpt lat="40.275287982076406" lon="-3.690795041620731">
        <ele>608.60000000000002</ele>
        <time>2003-04-12T12:57:49Z</time>
      </trkpt>
      <trkpt lat="40.274236975237727" lon="-3.690765034407377">
        <ele>606.10000000000002</ele>
        <time>2003-04-12T12:57:52Z</time>
      </trkpt>
      <trkpt lat="40.273144980892539" lon="-3.690733015537262">
        <ele>600.70000000000005</ele>
        <time>2003-04-12T12:57:54Z</time>
      </trkpt>
      <trkpt lat="40.272015016525984" lon="-3.690696973353624">
        <ele>596.10000000000002</ele>
        <time>2003-04-12T12:57:57Z</time>
      </trkpt>
      <trkpt lat="40.270880023017526" lon="-3.69066302664578">
        <ele>596</ele>
        <time>2003-04-12T12:58:01Z</time>
      </trkpt>
      <trkpt lat="40.269747041165829" lon="-3.6906429938972">
        <ele>596.5</ele>
        <time>2003-04-12T12:58:04Z</time>
      </trkpt>
      <trkpt lat="40.268641971051693" lon="-3.690630001947284">
        <ele>600.79999999999995</ele>
        <time>2003-04-12T12:58:07Z</time>
      </trkpt>
      <trkpt lat="40.267552994191647" lon="-3.690594965592027">
        <ele>605.29999999999995</ele>
        <time>2003-04-12T12:58:09Z</time>
      </trkpt>
      <trkpt lat="40.266472985967994" lon="-3.690554983913899">
        <ele>607.60000000000002</ele>
        <time>2003-04-12T12:58:12Z</time>
      </trkpt>
      <trkpt lat="40.265381997451186" lon="-3.69053503498435">
        <ele>605.89999999999998</ele>
        <time>2003-04-12T12:58:16Z</time>
      </trkpt>
      <trkpt lat="40.264267958700657" lon="-3.690520031377673">
        <ele>604.70000000000005</ele>
        <time>2003-04-12T12:58:19Z</time>
      </trkpt>
      <trkpt lat="40.263143023476005" lon="-3.690475020557642">
        <ele>604.10000000000002</ele>
        <time>2003-04-12T12:58:21Z</time>
      </trkpt>
      <trkpt lat="40.262005012482405" lon="-3.690417017787695">
        <ele>602.5</ele>
        <time>2003-04-12T12:58:24Z</time>
      </trkpt>
      <trkpt lat="40.260885022580624" lon="-3.690394973382354">
        <ele>600.39999999999998</ele>
        <time>2003-04-12T12:58:28Z</time>
      </trkpt>
      <trkpt lat="40.25986704044044" lon="-3.690345017239451">
        <ele>600.20000000000005</ele>
        <time>2003-04-12T12:58:31Z</time>
      </trkpt>
      <trkpt lat="40.258847968652844" lon="-3.690290031954646">
        <ele>601.89999999999998</ele>
        <time>2003-04-12T12:58:34Z</time>
      </trkpt>
      <trkpt lat="40.257810037583113" lon="-3.690258013084531">
        <ele>602.29999999999995</ele>
        <time>2003-04-12T12:58:36Z</time>
      </trkpt>
      <trkpt lat="40.25675299577415" lon="-3.690224988386035">
        <ele>602.10000000000002</ele>
        <time>2003-04-12T12:58:39Z</time>
      </trkpt>
      <trkpt lat="40.255687991157174" lon="-3.69019296951592">
        <ele>603.20000000000005</ele>
        <time>2003-04-12T12:58:43Z</time>
      </trkpt>
      <trkpt lat="40.254612006247044" lon="-3.690162040293217">
        <ele>603.20000000000005</ele>
        <time>2003-04-12T12:58:46Z</time>
      </trkpt>
      <trkpt lat="40.253526968881488" lon="-3.69012700393796">
        <ele>604</ele>
        <time>2003-04-12T12:58:48Z</time>
      </trkpt>
      <trkpt lat="40.252440003678203" lon="-3.690090039744973">
        <ele>605.29999999999995</ele>
        <time>2003-04-12T12:58:51Z</time>
      </trkpt>
      <trkpt lat="40.251378016546369" lon="-3.690055003389716">
        <ele>606.70000000000005</ele>
        <time>2003-04-12T12:58:55Z</time>
      </trkpt>
      <trkpt lat="40.250324998050928" lon="-3.690024996176362">
        <ele>606.70000000000005</ele>
        <time>2003-04-12T12:58:58Z</time>
      </trkpt>
      <trkpt lat="40.249269967898726" lon="-3.689991971477866">
        <ele>607.20000000000005</ele>
        <time>2003-04-12T12:59:01Z</time>
      </trkpt>
      <trkpt lat="40.248224996030331" lon="-3.689962970092893">
        <ele>609.60000000000002</ele>
        <time>2003-04-12T12:59:03Z</time>
      </trkpt>
      <trkpt lat="40.247205002233386" lon="-3.689940003678203">
        <ele>614.60000000000002</ele>
        <time>2003-04-12T12:59:06Z</time>
      </trkpt>
      <trkpt lat="40.246218033134937" lon="-3.689900022000074">
        <ele>617.70000000000005</ele>
        <time>2003-04-12T12:59:10Z</time>
      </trkpt>
      <trkpt lat="40.245238021016121" lon="-3.689873032271862">
        <ele>617.70000000000005</ele>
        <time>2003-04-12T12:59:13Z</time>
      </trkpt>
      <trkpt lat="40.24426999501884" lon="-3.689847970381379">
        <ele>618.20000000000005</ele>
        <time>2003-04-12T12:59:15Z</time>
      </trkpt>
      <trkpt lat="40.243357960134745" lon="-3.689822992309928">
        <ele>619.60000000000002</ele>
        <time>2003-04-12T12:59:18Z</time>
      </trkpt>
      <trkpt lat="40.242450032383204" lon="-3.689791979268193">
        <ele>622.10000000000002</ele>
        <time>2003-04-12T12:59:22Z</time>
      </trkpt>
      <trkpt lat="40.241536991670728" lon="-3.689773036167026">
        <ele>624.29999999999995</ele>
        <time>2003-04-12T12:59:25Z</time>
      </trkpt>
      <trkpt lat="40.240611964836717" lon="-3.689746968448162">
        <ele>624.29999999999995</ele>
        <time>2003-04-12T12:59:28Z</time>
      </trkpt>
      <trkpt lat="40.23965198546648" lon="-3.689706986770034">
        <ele>623</ele>
        <time>2003-04-12T12:59:30Z</time>
      </trkpt>
      <trkpt lat="40.238669961690903" lon="-3.689682008698583">
        <ele>623.70000000000005</ele>
        <time>2003-04-12T12:59:33Z</time>
      </trkpt>
      <trkpt lat="40.237681986764073" lon="-3.689644960686564">
        <ele>627.20000000000005</ele>
        <time>2003-04-12T12:59:37Z</time>
      </trkpt>
      <trkpt lat="40.236687976866961" lon="-3.689616965129972">
        <ele>629</ele>
        <time>2003-04-12T12:59:40Z</time>
      </trkpt>
      <trkpt lat="40.235677035525441" lon="-3.689589975401759">
        <ele>629.89999999999998</ele>
        <time>2003-04-12T12:59:42Z</time>
      </trkpt>
      <trkpt lat="40.234657041728497" lon="-3.68956801481545">
        <ele>631.5</ele>
        <time>2003-04-12T12:59:45Z</time>
      </trkpt>
      <trkpt lat="40.233627995476127" lon="-3.689561979845166">
        <ele>633.5</ele>
        <time>2003-04-12T12:59:49Z</time>
      </trkpt>
      <trkpt lat="40.232601966708899" lon="-3.689538007602096">
        <ele>636.39999999999998</ele>
        <time>2003-04-12T12:59:52Z</time>
      </trkpt>
      <trkpt lat="40.23157300427556" lon="-3.689510012045503">
        <ele>638</ele>
        <time>2003-04-12T12:59:55Z</time>
      </trkpt>
      <trkpt lat="40.230552004650235" lon="-3.689465001225472">
        <ele>639.10000000000002</ele>
        <time>2003-04-12T12:59:57Z</time>
      </trkpt>
      <trkpt lat="40.229529999196529" lon="-3.689342038705945">
        <ele>640.70000000000005</ele>
        <time>2003-04-12T13:00:00Z</time>
      </trkpt>
      <trkpt lat="40.228506987914443" lon="-3.689080020412803">
        <ele>640.60000000000002</ele>
        <time>2003-04-12T13:00:04Z</time>
      </trkpt>
      <trkpt lat="40.227524964138865" lon="-3.688695039600134">
        <ele>639.89999999999998</ele>
        <time>2003-04-12T13:00:07Z</time>
      </trkpt>
      <trkpt lat="40.226579988375306" lon="-3.688311986625195">
        <ele>638.20000000000005</ele>
        <time>2003-04-12T13:00:09Z</time>
      </trkpt>
      <trkpt lat="40.225631995126605" lon="-3.687922982499003">
        <ele>638</ele>
        <time>2003-04-12T13:00:12Z</time>
      </trkpt>
      <trkpt lat="40.22467796690762" lon="-3.687534984201193">
        <ele>638.70000000000005</ele>
        <time>2003-04-12T13:00:16Z</time>
      </trkpt>
      <trkpt lat="40.22370801307261" lon="-3.687131982296705">
        <ele>637</ele>
        <time>2003-04-12T13:00:19Z</time>
      </trkpt>
      <trkpt lat="40.222749961540103" lon="-3.686726968735457">
        <ele>633.79999999999995</ele>
        <time>2003-04-12T13:00:22Z</time>
      </trkpt>
      <trkpt lat="40.221801968291402" lon="-3.686336958780885">
        <ele>632.29999999999995</ele>
        <time>2003-04-12T13:00:24Z</time>
      </trkpt>
      <trkpt lat="40.220865039154887" lon="-3.68593798018992">
        <ele>631.70000000000005</ele>
        <time>2003-04-12T13:00:27Z</time>
      </trkpt>
      <trkpt lat="40.219915034249425" lon="-3.685534978285432">
        <ele>631.39999999999998</ele>
        <time>2003-04-12T13:00:31Z</time>
      </trkpt>
      <trkpt lat="40.218952037394047" lon="-3.685153014957905">
        <ele>631.20000000000005</ele>
        <time>2003-04-12T13:00:34Z</time>
      </trkpt>
      <trkpt lat="40.218000020831823" lon="-3.684771973639727">
        <ele>630.79999999999995</ele>
        <time>2003-04-12T13:00:36Z</time>
      </trkpt>
      <trkpt lat="40.217037023976445" lon="-3.684381963685155">
        <ele>630.29999999999995</ele>
        <time>2003-04-12T13:00:39Z</time>
      </trkpt>
      <trkpt lat="40.216111997142434" lon="-3.684011986479163">
        <ele>630</ele>
        <time>2003-04-12T13:00:43Z</time>
      </trkpt>
      <trkpt lat="40.215225024148822" lon="-3.683657012879849">
        <ele>629.5</ele>
        <time>2003-04-12T13:00:46Z</time>
      </trkpt>
      <trkpt lat="40.214312989264727" lon="-3.683287035673857">
        <ele>629</ele>
        <time>2003-04-12T13:00:49Z</time>
      </trkpt>
      <trkpt lat="40.213421992957592" lon="-3.682925021275878">
        <ele>628.79999999999995</ele>
        <time>2003-04-12T13:00:51Z</time>
      </trkpt>
      <trkpt lat="40.212524961680174" lon="-3.68256501853466">
        <ele>628.5</ele>
        <time>2003-04-12T13:00:54Z</time>
      </trkpt>
      <trkpt lat="40.211647963151336" lon="-3.682208033278585">
        <ele>628.29999999999995</ele>
        <time>2003-04-12T13:00:58Z</time>
      </trkpt>
      <trkpt lat="40.210750009864569" lon="-3.681845013052225">
        <ele>628.10000000000002</ele>
        <time>2003-04-12T13:01:01Z</time>
      </trkpt>
      <trkpt lat="40.209837974980474" lon="-3.681477969512343">
        <ele>628.79999999999995</ele>
        <time>2003-04-12T13:01:03Z</time>
      </trkpt>
      <trkpt lat="40.208901967853308" lon="-3.681098017841578">
        <ele>627.39999999999998</ele>
        <time>2003-04-12T13:01:06Z</time>
      </trkpt>
      <trkpt lat="40.207937965169549" lon="-3.680707002058625">
        <ele>624.39999999999998</ele>
        <time>2003-04-12T13:01:10Z</time>
      </trkpt>
      <trkpt lat="40.206953007727861" lon="-3.68030802346766">
        <ele>619.20000000000005</ele>
        <time>2003-04-12T13:01:13Z</time>
      </trkpt>
      <trkpt lat="40.205954974517226" lon="-3.679899992421269">
        <ele>615.89999999999998</ele>
        <time>2003-04-12T13:01:16Z</time>
      </trkpt>
      <trkpt lat="40.20499499514699" lon="-3.679500008001924">
        <ele>617</ele>
        <time>2003-04-12T13:01:18Z</time>
      </trkpt>
      <trkpt lat="40.204063011333346" lon="-3.679117038846016">
        <ele>620.39999999999998</ele>
        <time>2003-04-12T13:01:21Z</time>
      </trkpt>
      <trkpt lat="40.203115018084645" lon="-3.678731974214315">
        <ele>621.79999999999995</ele>
        <time>2003-04-12T13:01:25Z</time>
      </trkpt>
      <trkpt lat="40.202140035107732" lon="-3.678340036422014">
        <ele>621.39999999999998</ele>
        <time>2003-04-12T13:01:28Z</time>
      </trkpt>
      <trkpt lat="40.201134961098433" lon="-3.677933011204004">
        <ele>619.20000000000005</ele>
        <time>2003-04-12T13:01:30Z</time>
      </trkpt>
      <trkpt lat="40.200098035857081" lon="-3.677517017349601">
        <ele>615.60000000000002</ele>
        <time>2003-04-12T13:01:33Z</time>
      </trkpt>
      <trkpt lat="40.199052980169654" lon="-3.677100017666817">
        <ele>613.39999999999998</ele>
        <time>2003-04-12T13:01:37Z</time>
      </trkpt>
      <trkpt lat="40.198022006079555" lon="-3.676691986620426">
        <ele>613.5</ele>
        <time>2003-04-12T13:01:40Z</time>
      </trkpt>
      <trkpt lat="40.197011986747384" lon="-3.67631203494966">
        <ele>614.89999999999998</ele>
        <time>2003-04-12T13:01:43Z</time>
      </trkpt>
      <trkpt lat="40.196032980456948" lon="-3.675892017781735">
        <ele>615</ele>
        <time>2003-04-12T13:01:45Z</time>
      </trkpt>
      <trkpt lat="40.195126980543137" lon="-3.675292963162065">
        <ele>614.29999999999995</ele>
        <time>2003-04-12T13:01:48Z</time>
      </trkpt>
      <trkpt lat="40.19431795924902" lon="-3.674519984051585">
        <ele>612.60000000000002</ele>
        <time>2003-04-12T13:01:52Z</time>
      </trkpt>
      <trkpt lat="40.193589990958571" lon="-3.673722026869655">
        <ele>609.89999999999998</ele>
        <time>2003-04-12T13:01:55Z</time>
      </trkpt>
      <trkpt lat="40.192862022668123" lon="-3.673002021387219">
        <ele>606.5</ele>
        <time>2003-04-12T13:01:59Z</time>
      </trkpt>
      <trkpt lat="40.19231703132391" lon="-3.672636989504099">
        <ele>604.39999999999998</ele>
        <time>2003-04-12T13:02:00Z</time>
      </trkpt>
      <trkpt lat="40.191446989774704" lon="-3.672268018126488">
        <ele>602.10000000000002</ele>
        <time>2003-04-12T13:02:03Z</time>
      </trkpt>
      <trkpt lat="40.190296992659569" lon="-3.67212301120162">
        <ele>599.79999999999995</ele>
        <time>2003-04-12T13:02:07Z</time>
      </trkpt>
      <trkpt lat="40.18969701603055" lon="-3.672186965122819">
        <ele>598.70000000000005</ele>
        <time>2003-04-12T13:02:08Z</time>
      </trkpt>
      <trkpt lat="40.188536960631609" lon="-3.672328032553196">
        <ele>597.70000000000005</ele>
        <time>2003-04-12T13:02:12Z</time>
      </trkpt>
      <trkpt lat="40.18739802762866" lon="-3.672247985377908">
        <ele>598.70000000000005</ele>
        <time>2003-04-12T13:02:16Z</time>
      </trkpt>
      <trkpt lat="40.18660300411284" lon="-3.672031983733177">
        <ele>601.20000000000005</ele>
        <time>2003-04-12T13:02:19Z</time>
      </trkpt>
      <trkpt lat="40.185549985617399" lon="-3.671610038727522">
        <ele>606.79999999999995</ele>
        <time>2003-04-12T13:02:23Z</time>
      </trkpt>
      <trkpt lat="40.184511970728636" lon="-3.671188009902835">
        <ele>613.39999999999998</ele>
        <time>2003-04-12T13:02:27Z</time>
      </trkpt>
      <trkpt lat="40.183451995253563" lon="-3.67077000439167">
        <ele>615.10000000000002</ele>
        <time>2003-04-12T13:02:33Z</time>
      </trkpt>
      <trkpt lat="40.182335022836924" lon="-3.670322997495532">
        <ele>614</ele>
        <time>2003-04-12T13:02:35Z</time>
      </trkpt>
      <trkpt lat="40.181449977681041" lon="-3.669972969219089">
        <ele>612.39999999999998</ele>
        <time>2003-04-12T13:02:38Z</time>
      </trkpt>
      <trkpt lat="40.180537020787597" lon="-3.66961196064949">
        <ele>611.5</ele>
        <time>2003-04-12T13:02:42Z</time>
      </trkpt>
      <trkpt lat="40.179611993953586" lon="-3.669239971786737">
        <ele>612.70000000000005</ele>
        <time>2003-04-12T13:02:46Z</time>
      </trkpt>
      <trkpt lat="40.178693002089858" lon="-3.668873012065888">
        <ele>614.20000000000005</ele>
        <time>2003-04-12T13:02:49Z</time>
      </trkpt>
      <trkpt lat="40.177788008004427" lon="-3.668517032638192">
        <ele>616.89999999999998</ele>
        <time>2003-04-12T13:02:51Z</time>
      </trkpt>
      <trkpt lat="40.176910003647208" lon="-3.668157029896975">
        <ele>622.10000000000002</ele>
        <time>2003-04-12T13:02:54Z</time>
      </trkpt>
      <trkpt lat="40.176038034260273" lon="-3.667799960821867">
        <ele>625.29999999999995</ele>
        <time>2003-04-12T13:02:58Z</time>
      </trkpt>
      <trkpt lat="40.175149971619248" lon="-3.667469965294004">
        <ele>627.20000000000005</ele>
        <time>2003-04-12T13:03:01Z</time>
      </trkpt>
      <trkpt lat="40.174256963655353" lon="-3.667118009179831">
        <ele>627.60000000000002</ele>
        <time>2003-04-12T13:03:04Z</time>
      </trkpt>
      <trkpt lat="40.173341995105147" lon="-3.666741997003555">
        <ele>626.60000000000002</ele>
        <time>2003-04-12T13:03:06Z</time>
      </trkpt>
      <trkpt lat="40.172415040433407" lon="-3.666347041726112">
        <ele>624</ele>
        <time>2003-04-12T13:03:09Z</time>
      </trkpt>
      <trkpt lat="40.171462018042803" lon="-3.66597798652947">
        <ele>620.60000000000002</ele>
        <time>2003-04-12T13:03:13Z</time>
      </trkpt>
      <trkpt lat="40.170512013137341" lon="-3.665589988231659">
        <ele>620.70000000000005</ele>
        <time>2003-04-12T13:03:16Z</time>
      </trkpt>
      <trkpt lat="40.169582962989807" lon="-3.665217999368906">
        <ele>622.5</ele>
        <time>2003-04-12T13:03:18Z</time>
      </trkpt>
      <trkpt lat="40.168645028024912" lon="-3.66483704186976">
        <ele>621.60000000000002</ele>
        <time>2003-04-12T13:03:21Z</time>
      </trkpt>
      <trkpt lat="40.167699968442321" lon="-3.66445298306644">
        <ele>622.60000000000002</ele>
        <time>2003-04-12T13:03:25Z</time>
      </trkpt>
      <trkpt lat="40.166737977415323" lon="-3.664061967283487">
        <ele>623</ele>
        <time>2003-04-12T13:03:28Z</time>
      </trkpt>
      <trkpt lat="40.165759976953268" lon="-3.663668017834425">
        <ele>621.39999999999998</ele>
        <time>2003-04-12T13:03:31Z</time>
      </trkpt>
      <trkpt lat="40.164787005633116" lon="-3.663265015929937">
        <ele>622.20000000000005</ele>
        <time>2003-04-12T13:03:33Z</time>
      </trkpt>
      <trkpt lat="40.163804981857538" lon="-3.662865031510592">
        <ele>622.70000000000005</ele>
        <time>2003-04-12T13:03:36Z</time>
      </trkpt>
      <trkpt lat="40.162814995273948" lon="-3.662464963272214">
        <ele>621.70000000000005</ele>
        <time>2003-04-12T13:03:40Z</time>
      </trkpt>
      <trkpt lat="40.161828026175499" lon="-3.662049975246191">
        <ele>621.60000000000002</ele>
        <time>2003-04-12T13:03:43Z</time>
      </trkpt>
      <trkpt lat="40.160865029320121" lon="-3.661630041897297">
        <ele>623.5</ele>
        <time>2003-04-12T13:03:45Z</time>
      </trkpt>
      <trkpt lat="40.159946959465742" lon="-3.661253023892641">
        <ele>627.60000000000002</ele>
        <time>2003-04-12T13:03:48Z</time>
      </trkpt>
      <trkpt lat="40.15903802588582" lon="-3.660882962867618">
        <ele>631.70000000000005</ele>
        <time>2003-04-12T13:03:52Z</time>
      </trkpt>
      <trkpt lat="40.158130014315248" lon="-3.660511979833245">
        <ele>630.20000000000005</ele>
        <time>2003-04-12T13:03:55Z</time>
      </trkpt>
      <trkpt lat="40.157228037714958" lon="-3.660145020112395">
        <ele>628.60000000000002</ele>
        <time>2003-04-12T13:03:58Z</time>
      </trkpt>
      <trkpt lat="40.156339975073934" lon="-3.659860035404563">
        <ele>630.79999999999995</ele>
        <time>2003-04-12T13:04:00Z</time>
      </trkpt>
      <trkpt lat="40.155419977381825" lon="-3.659713016822934">
        <ele>632</ele>
        <time>2003-04-12T13:04:03Z</time>
      </trkpt>
      <trkpt lat="40.154477013275027" lon="-3.659615032374859">
        <ele>632.70000000000005</ele>
        <time>2003-04-12T13:04:07Z</time>
      </trkpt>
      <trkpt lat="40.153512004762888" lon="-3.659513024613261">
        <ele>632.5</ele>
        <time>2003-04-12T13:04:10Z</time>
      </trkpt>
      <trkpt lat="40.152523024007678" lon="-3.65940498188138">
        <ele>631.29999999999995</ele>
        <time>2003-04-12T13:04:12Z</time>
      </trkpt>
      <trkpt lat="40.151509987190366" lon="-3.659300040453672">
        <ele>629.79999999999995</ele>
        <time>2003-04-12T13:04:15Z</time>
      </trkpt>
      <trkpt lat="40.150471972301602" lon="-3.659208007156849">
        <ele>628.5</ele>
        <time>2003-04-12T13:04:19Z</time>
      </trkpt>
      <trkpt lat="40.149428006261587" lon="-3.659098036587238">
        <ele>628.89999999999998</ele>
        <time>2003-04-12T13:04:22Z</time>
      </trkpt>
      <trkpt lat="40.148374987766147" lon="-3.658983036875725">
        <ele>626</ele>
        <time>2003-04-12T13:04:25Z</time>
      </trkpt>
      <trkpt lat="40.147318029776216" lon="-3.658856973052025">
        <ele>627</ele>
        <time>2003-04-12T13:04:27Z</time>
      </trkpt>
      <trkpt lat="40.146250007674098" lon="-3.658741973340511">
        <ele>626.79999999999995</ele>
        <time>2003-04-12T13:04:30Z</time>
      </trkpt>
      <trkpt lat="40.145175028592348" lon="-3.658626973628998">
        <ele>627.39999999999998</ele>
        <time>2003-04-12T13:04:34Z</time>
      </trkpt>
      <trkpt lat="40.144099965691566" lon="-3.658511973917484">
        <ele>630</ele>
        <time>2003-04-12T13:04:37Z</time>
      </trkpt>
      <trkpt lat="40.143015012145042" lon="-3.6583920288831">
        <ele>627.60000000000002</ele>
        <time>2003-04-12T13:04:39Z</time>
      </trkpt>
      <trkpt lat="40.141922011971474" lon="-3.658275017514825">
        <ele>626.70000000000005</ele>
        <time>2003-04-12T13:04:42Z</time>
      </trkpt>
      <trkpt lat="40.140842003747821" lon="-3.658130010589957">
        <ele>628.89999999999998</ele>
        <time>2003-04-12T13:04:46Z</time>
      </trkpt>
      <trkpt lat="40.139768030494452" lon="-3.658002018928528">
        <ele>631.29999999999995</ele>
        <time>2003-04-12T13:04:49Z</time>
      </trkpt>
      <trkpt lat="40.138681987300515" lon="-3.657876960933209">
        <ele>630.29999999999995</ele>
        <time>2003-04-12T13:04:52Z</time>
      </trkpt>
      <trkpt lat="40.137577001005411" lon="-3.657755004242063">
        <ele>626.70000000000005</ele>
        <time>2003-04-12T13:04:54Z</time>
      </trkpt>
      <trkpt lat="40.136491963639855" lon="-3.657640004530549">
        <ele>625.10000000000002</ele>
        <time>2003-04-12T13:04:57Z</time>
      </trkpt>
      <trkpt lat="40.135437017306685" lon="-3.657519975677133">
        <ele>629.39999999999998</ele>
        <time>2003-04-12T13:05:01Z</time>
      </trkpt>
      <trkpt lat="40.134390033781528" lon="-3.657392989844084">
        <ele>629.10000000000002</ele>
        <time>2003-04-12T13:05:04Z</time>
      </trkpt>
      <trkpt lat="40.133335003629327" lon="-3.657243037596345">
        <ele>628.60000000000002</ele>
        <time>2003-04-12T13:05:06Z</time>
      </trkpt>
      <trkpt lat="40.132249966263771" lon="-3.657116973772645">
        <ele>624.89999999999998</ele>
        <time>2003-04-12T13:05:09Z</time>
      </trkpt>
      <trkpt lat="40.131161995232105" lon="-3.656984958797693">
        <ele>625.60000000000002</ele>
        <time>2003-04-12T13:05:13Z</time>
      </trkpt>
      <trkpt lat="40.13007796369493" lon="-3.656840035691857">
        <ele>624.39999999999998</ele>
        <time>2003-04-12T13:05:16Z</time>
      </trkpt>
      <trkpt lat="40.128982029855251" lon="-3.6566979624331">
        <ele>621.79999999999995</ele>
        <time>2003-04-12T13:05:19Z</time>
      </trkpt>
      <trkpt lat="40.127892969176173" lon="-3.65654700435698">
        <ele>622.60000000000002</ele>
        <time>2003-04-12T13:05:21Z</time>
      </trkpt>
      <trkpt lat="40.126808015629649" lon="-3.656393028795719">
        <ele>622.20000000000005</ele>
        <time>2003-04-12T13:05:24Z</time>
      </trkpt>
      <trkpt lat="40.125719960778952" lon="-3.656250033527613">
        <ele>621.39999999999998</ele>
        <time>2003-04-12T13:05:28Z</time>
      </trkpt>
      <trkpt lat="40.124631989747286" lon="-3.656097985804081">
        <ele>620.39999999999998</ele>
        <time>2003-04-12T13:05:31Z</time>
      </trkpt>
      <trkpt lat="40.123528009280562" lon="-3.655949961394072">
        <ele>616</ele>
        <time>2003-04-12T13:05:33Z</time>
      </trkpt>
      <trkpt lat="40.122508015483618" lon="-3.655767990276218">
        <ele>618.20000000000005</ele>
        <time>2003-04-12T13:05:36Z</time>
      </trkpt>
      <trkpt lat="40.121557004749775" lon="-3.655457021668553">
        <ele>619.10000000000002</ele>
        <time>2003-04-12T13:05:40Z</time>
      </trkpt>
      <trkpt lat="40.120629966259003" lon="-3.654968021437526">
        <ele>619</ele>
        <time>2003-04-12T13:05:43Z</time>
      </trkpt>
      <trkpt lat="40.119692031294107" lon="-3.654412971809506">
        <ele>616.60000000000002</ele>
        <time>2003-04-12T13:05:46Z</time>
      </trkpt>
      <trkpt lat="40.118755018338561" lon="-3.653847025707364">
        <ele>614.20000000000005</ele>
        <time>2003-04-12T13:05:48Z</time>
      </trkpt>
      <trkpt lat="40.117837032303214" lon="-3.653294993564487">
        <ele>608.89999999999998</ele>
        <time>2003-04-12T13:05:51Z</time>
      </trkpt>
      <trkpt lat="40.116897001862526" lon="-3.652756959199905">
        <ele>609.20000000000005</ele>
        <time>2003-04-12T13:05:55Z</time>
      </trkpt>
      <trkpt lat="40.115965018048882" lon="-3.652216996997595">
        <ele>610.10000000000002</ele>
        <time>2003-04-12T13:05:58Z</time>
      </trkpt>
      <trkpt lat="40.115028005093336" lon="-3.65166999399662">
        <ele>609.10000000000002</ele>
        <time>2003-04-12T13:06:00Z</time>
      </trkpt>
      <trkpt lat="40.114072971045971" lon="-3.651125002652407">
        <ele>606.60000000000002</ele>
        <time>2003-04-12T13:06:03Z</time>
      </trkpt>
      <trkpt lat="40.113111985847354" lon="-3.650568025186658">
        <ele>604.60000000000002</ele>
        <time>2003-04-12T13:06:07Z</time>
      </trkpt>
      <trkpt lat="40.112174972891808" lon="-3.65003501996398">
        <ele>605.89999999999998</ele>
        <time>2003-04-12T13:06:10Z</time>
      </trkpt>
      <trkpt lat="40.111260004341602" lon="-3.64950000308454">
        <ele>607.89999999999998</ele>
        <time>2003-04-12T13:06:13Z</time>
      </trkpt>
      <trkpt lat="40.110345035791397" lon="-3.648964986205101">
        <ele>608.39999999999998</ele>
        <time>2003-04-12T13:06:15Z</time>
      </trkpt>
      <trkpt lat="40.109416991472244" lon="-3.648444972932339">
        <ele>607.79999999999995</ele>
        <time>2003-04-12T13:06:18Z</time>
      </trkpt>
      <trkpt lat="40.108481990173459" lon="-3.647907022386789">
        <ele>607</ele>
        <time>2003-04-12T13:06:22Z</time>
      </trkpt>
      <trkpt lat="40.107555035501719" lon="-3.647364964708686">
        <ele>607.39999999999998</ele>
        <time>2003-04-12T13:06:25Z</time>
      </trkpt>
      <trkpt lat="40.106687005609274" lon="-3.646857021376491">
        <ele>608.5</ele>
        <time>2003-04-12T13:06:27Z</time>
      </trkpt>
      <trkpt lat="40.105628035962582" lon="-3.646116983145475">
        <ele>609.5</ele>
        <time>2003-04-12T13:06:32Z</time>
      </trkpt>
      <trkpt lat="40.104908030480146" lon="-3.645409969612956">
        <ele>608.89999999999998</ele>
        <time>2003-04-12T13:06:34Z</time>
      </trkpt>
      <trkpt lat="40.104237981140614" lon="-3.644592985510826">
        <ele>607.89999999999998</ele>
        <time>2003-04-12T13:06:37Z</time>
      </trkpt>
      <trkpt lat="40.103621995076537" lon="-3.643671981990337">
        <ele>605.70000000000005</ele>
        <time>2003-04-12T13:06:41Z</time>
      </trkpt>
      <trkpt lat="40.103093013167381" lon="-3.642612006515265">
        <ele>603.79999999999995</ele>
        <time>2003-04-12T13:06:44Z</time>
      </trkpt>
      <trkpt lat="40.102605018764734" lon="-3.641511965543032">
        <ele>600.79999999999995</ele>
        <time>2003-04-12T13:06:46Z</time>
      </trkpt>
      <trkpt lat="40.102047035470605" lon="-3.640234982594848">
        <ele>594.5</ele>
        <time>2003-04-12T13:06:50Z</time>
      </trkpt>
      <trkpt lat="40.101777976378798" lon="-3.639337029308081">
        <ele>589</ele>
        <time>2003-04-12T13:06:53Z</time>
      </trkpt>
      <trkpt lat="40.101553006097674" lon="-3.638083012774587">
        <ele>582.10000000000002</ele>
        <time>2003-04-12T13:06:57Z</time>
      </trkpt>
      <trkpt lat="40.10130800306797" lon="-3.636869983747602">
        <ele>575.10000000000002</ele>
        <time>2003-04-12T13:07:01Z</time>
      </trkpt>
      <trkpt lat="40.101032992824912" lon="-3.636017041280866">
        <ele>569.89999999999998</ele>
        <time>2003-04-12T13:07:04Z</time>
      </trkpt>
      <trkpt lat="40.100650023669004" lon="-3.635201985016465">
        <ele>564.39999999999998</ele>
        <time>2003-04-12T13:07:08Z</time>
      </trkpt>
      <trkpt lat="40.100336959585547" lon="-3.634712984785438">
        <ele>560.79999999999995</ele>
        <time>2003-04-12T13:07:09Z</time>
      </trkpt>
      <trkpt lat="40.09978299960494" lon="-3.634091969579458">
        <ele>555.60000000000002</ele>
        <time>2003-04-12T13:07:12Z</time>
      </trkpt>
      <trkpt lat="40.099165001884103" lon="-3.633613027632237">
        <ele>550.70000000000005</ele>
        <time>2003-04-12T13:07:16Z</time>
      </trkpt>
      <trkpt lat="40.098493024706841" lon="-3.633292000740767">
        <ele>545.70000000000005</ele>
        <time>2003-04-12T13:07:19Z</time>
      </trkpt>
      <trkpt lat="40.098033025860786" lon="-3.63316803239286">
        <ele>542.5</ele>
        <time>2003-04-12T13:07:20Z</time>
      </trkpt>
      <trkpt lat="40.097312014549971" lon="-3.63310500048101">
        <ele>537.89999999999998</ele>
        <time>2003-04-12T13:07:24Z</time>
      </trkpt>
      <trkpt lat="40.096260001882911" lon="-3.63325797021389">
        <ele>531</ele>
        <time>2003-04-12T13:07:28Z</time>
      </trkpt>
      <trkpt lat="40.095185022801161" lon="-3.633667007088661">
        <ele>523.60000000000002</ele>
        <time>2003-04-12T13:07:31Z</time>
      </trkpt>
      <trkpt lat="40.094124963507056" lon="-3.633985016494989">
        <ele>519.79999999999995</ele>
        <time>2003-04-12T13:07:35Z</time>
      </trkpt>
      <trkpt lat="40.093309991061687" lon="-3.634037990123034">
        <ele>517.89999999999998</ele>
        <time>2003-04-12T13:07:39Z</time>
      </trkpt>
      <trkpt lat="40.092169968411326" lon="-3.634019969031215">
        <ele>514.89999999999998</ele>
        <time>2003-04-12T13:07:43Z</time>
      </trkpt>
      <trkpt lat="40.091057019308209" lon="-3.634018041193485">
        <ele>511.89999999999998</ele>
        <time>2003-04-12T13:07:47Z</time>
      </trkpt>
      <trkpt lat="40.090528037399054" lon="-3.634103033691645">
        <ele>511.5</ele>
        <time>2003-04-12T13:07:48Z</time>
      </trkpt>
      <trkpt lat="40.09000500664115" lon="-3.634281987324357">
        <ele>511.39999999999998</ele>
        <time>2003-04-12T13:07:51Z</time>
      </trkpt>
      <trkpt lat="40.089239990338683" lon="-3.634699992835522">
        <ele>511.39999999999998</ele>
        <time>2003-04-12T13:07:54Z</time>
      </trkpt>
      <trkpt lat="40.088216979056597" lon="-3.635401977226138">
        <ele>510.80000000000001</ele>
        <time>2003-04-12T13:07:58Z</time>
      </trkpt>
      <trkpt lat="40.087424973025918" lon="-3.635989967733622">
        <ele>510.30000000000001</ele>
        <time>2003-04-12T13:08:01Z</time>
      </trkpt>
      <trkpt lat="40.086604971438646" lon="-3.636551974341273">
        <ele>510.30000000000001</ele>
        <time>2003-04-12T13:08:03Z</time>
      </trkpt>
      <trkpt lat="40.085789998993278" lon="-3.637107023969293">
        <ele>511</ele>
        <time>2003-04-12T13:08:06Z</time>
      </trkpt>
      <trkpt lat="40.085233021527529" lon="-3.637367030605674">
        <ele>511</ele>
        <time>2003-04-12T13:08:09Z</time>
      </trkpt>
      <trkpt lat="40.084646958857775" lon="-3.637535003945231">
        <ele>510</ele>
        <time>2003-04-12T13:08:10Z</time>
      </trkpt>
      <trkpt lat="40.083723021671176" lon="-3.637627037242055">
        <ele>508.19999999999999</ele>
        <time>2003-04-12T13:08:14Z</time>
      </trkpt>
      <trkpt lat="40.082802018150687" lon="-3.637670036405325">
        <ele>506.39999999999998</ele>
        <time>2003-04-12T13:08:17Z</time>
      </trkpt>
      <trkpt lat="40.081871962174773" lon="-3.637707000598311">
        <ele>504.80000000000001</ele>
        <time>2003-04-12T13:08:20Z</time>
      </trkpt>
      <trkpt lat="40.080948024988174" lon="-3.637765003368259">
        <ele>503.89999999999998</ele>
        <time>2003-04-12T13:08:22Z</time>
      </trkpt>
      <trkpt lat="40.079768020659685" lon="-3.638007994741201">
        <ele>503.39999999999998</ele>
        <time>2003-04-12T13:08:26Z</time>
      </trkpt>
      <trkpt lat="40.078907031565905" lon="-3.638376966118813">
        <ele>503.39999999999998</ele>
        <time>2003-04-12T13:08:29Z</time>
      </trkpt>
      <trkpt lat="40.078058028593659" lon="-3.638893039897084">
        <ele>503.39999999999998</ele>
        <time>2003-04-12T13:08:33Z</time>
      </trkpt>
      <trkpt lat="40.077205002307892" lon="-3.639471977949143">
        <ele>503.60000000000002</ele>
        <time>2003-04-12T13:08:36Z</time>
      </trkpt>
      <trkpt lat="40.076354993507266" lon="-3.640038007870317">
        <ele>504.30000000000001</ele>
        <time>2003-04-12T13:08:38Z</time>
      </trkpt>
      <trkpt lat="40.075523005798459" lon="-3.640585010871291">
        <ele>505</ele>
        <time>2003-04-12T13:08:41Z</time>
      </trkpt>
      <trkpt lat="40.074684983119369" lon="-3.641126984730363">
        <ele>504.89999999999998</ele>
        <time>2003-04-12T13:08:45Z</time>
      </trkpt>
      <trkpt lat="40.073830028995872" lon="-3.641671976074576">
        <ele>504.5</ele>
        <time>2003-04-12T13:08:48Z</time>
      </trkpt>
      <trkpt lat="40.072957975789905" lon="-3.642223002389073">
        <ele>504.19999999999999</ele>
        <time>2003-04-12T13:08:51Z</time>
      </trkpt>
      <trkpt lat="40.072034960612655" lon="-3.642703033983707">
        <ele>503.89999999999998</ele>
        <time>2003-04-12T13:08:53Z</time>
      </trkpt>
      <trkpt lat="40.071072969585657" lon="-3.64313998259604">
        <ele>503.60000000000002</ele>
        <time>2003-04-12T13:08:56Z</time>
      </trkpt>
      <trkpt lat="40.070165041834116" lon="-3.643587995320559">
        <ele>503.10000000000002</ele>
        <time>2003-04-12T13:09:00Z</time>
      </trkpt>
      <trkpt lat="40.069345040246844" lon="-3.644134998321533">
        <ele>502.60000000000002</ele>
        <time>2003-04-12T13:09:03Z</time>
      </trkpt>
      <trkpt lat="40.068602990359068" lon="-3.644870007410646">
        <ele>502.80000000000001</ele>
        <time>2003-04-12T13:09:05Z</time>
      </trkpt>
      <trkpt lat="40.067888014018536" lon="-3.645593030378223">
        <ele>502.80000000000001</ele>
        <time>2003-04-12T13:09:08Z</time>
      </trkpt>
      <trkpt lat="40.067106988281012" lon="-3.64623298868537">
        <ele>502.60000000000002</ele>
        <time>2003-04-12T13:09:12Z</time>
      </trkpt>
      <trkpt lat="40.066267037764192" lon="-3.646809998899698">
        <ele>502.80000000000001</ele>
        <time>2003-04-12T13:09:15Z</time>
      </trkpt>
      <trkpt lat="40.065464973449707" lon="-3.647381979972124">
        <ele>503</ele>
        <time>2003-04-12T13:09:18Z</time>
      </trkpt>
      <trkpt lat="40.064422013238072" lon="-3.648131992667913">
        <ele>502.69999999999999</ele>
        <time>2003-04-12T13:09:22Z</time>
      </trkpt>
      <trkpt lat="40.06336497142911" lon="-3.648800030350685">
        <ele>502.5</ele>
        <time>2003-04-12T13:09:26Z</time>
      </trkpt>
      <trkpt lat="40.062817968428135" lon="-3.648968003690243">
        <ele>502.39999999999998</ele>
        <time>2003-04-12T13:09:27Z</time>
      </trkpt>
      <trkpt lat="40.061742989346385" lon="-3.649137988686562">
        <ele>502.69999999999999</ele>
        <time>2003-04-12T13:09:31Z</time>
      </trkpt>
      <trkpt lat="40.061024995520711" lon="-3.64934996701777">
        <ele>502.80000000000001</ele>
        <time>2003-04-12T13:09:35Z</time>
      </trkpt>
      <trkpt lat="40.060338014736772" lon="-3.649722961708903">
        <ele>503.10000000000002</ele>
        <time>2003-04-12T13:09:38Z</time>
      </trkpt>
      <trkpt lat="40.059901988133788" lon="-3.650090005248785">
        <ele>503.30000000000001</ele>
        <time>2003-04-12T13:09:39Z</time>
      </trkpt>
      <trkpt lat="40.059215007349849" lon="-3.65061697550118">
        <ele>503.80000000000001</ele>
        <time>2003-04-12T13:09:43Z</time>
      </trkpt>
      <trkpt lat="40.058755008503795" lon="-3.650823002681136">
        <ele>504.30000000000001</ele>
        <time>2003-04-12T13:09:45Z</time>
      </trkpt>
      <trkpt lat="40.057763010263443" lon="-3.651174958795309">
        <ele>505.10000000000002</ele>
        <time>2003-04-12T13:09:49Z</time>
      </trkpt>
      <trkpt lat="40.056737987324595" lon="-3.65164702758193">
        <ele>506</ele>
        <time>2003-04-12T13:09:53Z</time>
      </trkpt>
      <trkpt lat="40.055738026276231" lon="-3.652353035286069">
        <ele>506.89999999999998</ele>
        <time>2003-04-12T13:09:57Z</time>
      </trkpt>
      <trkpt lat="40.05470504052937" lon="-3.653110004961491">
        <ele>506.80000000000001</ele>
        <time>2003-04-12T13:10:01Z</time>
      </trkpt>
      <trkpt lat="40.053887972608209" lon="-3.653682991862297">
        <ele>505.80000000000001</ele>
        <time>2003-04-12T13:10:03Z</time>
      </trkpt>
      <trkpt lat="40.053048022091389" lon="-3.654278023168445">
        <ele>504.89999999999998</ele>
        <time>2003-04-12T13:10:06Z</time>
      </trkpt>
      <trkpt lat="40.052189966663718" lon="-3.654874982312322">
        <ele>503.80000000000001</ele>
        <time>2003-04-12T13:10:10Z</time>
      </trkpt>
      <trkpt lat="40.05133300088346" lon="-3.655503038316965">
        <ele>502.60000000000002</ele>
        <time>2003-04-12T13:10:13Z</time>
      </trkpt>
      <trkpt lat="40.050520040094852" lon="-3.656235029920936">
        <ele>502.30000000000001</ele>
        <time>2003-04-12T13:10:16Z</time>
      </trkpt>
      <trkpt lat="40.049740020185709" lon="-3.657027035951614">
        <ele>503.19999999999999</ele>
        <time>2003-04-12T13:10:18Z</time>
      </trkpt>
      <trkpt lat="40.048963017761707" lon="-3.657819963991642">
        <ele>504.60000000000002</ele>
        <time>2003-04-12T13:10:21Z</time>
      </trkpt>
      <trkpt lat="40.048188026994467" lon="-3.658611970022321">
        <ele>506.19999999999999</ele>
        <time>2003-04-12T13:10:25Z</time>
      </trkpt>
      <trkpt lat="40.04742200486362" lon="-3.659359971061349">
        <ele>506.5</ele>
        <time>2003-04-12T13:10:28Z</time>
      </trkpt>
      <trkpt lat="40.046614995226264" lon="-3.660019962117076">
        <ele>507.80000000000001</ele>
        <time>2003-04-12T13:10:30Z</time>
      </trkpt>
      <trkpt lat="40.046033039689064" lon="-3.660379964858294">
        <ele>508.10000000000002</ele>
        <time>2003-04-12T13:10:33Z</time>
      </trkpt>
      <trkpt lat="40.045114969834685" lon="-3.660872988402844">
        <ele>506.69999999999999</ele>
        <time>2003-04-12T13:10:36Z</time>
      </trkpt>
      <trkpt lat="40.044203018769622" lon="-3.661374980583787">
        <ele>505.30000000000001</ele>
        <time>2003-04-12T13:10:39Z</time>
      </trkpt>
      <trkpt lat="40.043298024684191" lon="-3.661870015785098">
        <ele>504.10000000000002</ele>
        <time>2003-04-12T13:10:41Z</time>
      </trkpt>
      <trkpt lat="40.04239697009325" lon="-3.662367984652519">
        <ele>503</ele>
        <time>2003-04-12T13:10:44Z</time>
      </trkpt>
      <trkpt lat="40.041519971564412" lon="-3.662796970456839">
        <ele>502</ele>
        <time>2003-04-12T13:10:48Z</time>
      </trkpt>
      <trkpt lat="40.040614977478981" lon="-3.663042979314923">
        <ele>498.69999999999999</ele>
        <time>2003-04-12T13:10:51Z</time>
      </trkpt>
      <trkpt lat="40.04001198336482" lon="-3.663063012063503">
        <ele>496.69999999999999</ele>
        <time>2003-04-12T13:10:52Z</time>
      </trkpt>
      <trkpt lat="40.039412006735802" lon="-3.662967039272189">
        <ele>494.80000000000001</ele>
        <time>2003-04-12T13:10:55Z</time>
      </trkpt>
      <trkpt lat="40.038502989336848" lon="-3.662677025422454">
        <ele>493.19999999999999</ele>
        <time>2003-04-12T13:10:57Z</time>
      </trkpt>
      <trkpt lat="40.037573017179966" lon="-3.662364967167378">
        <ele>492.89999999999998</ele>
        <time>2003-04-12T13:11:00Z</time>
      </trkpt>
      <trkpt lat="40.036619994789362" lon="-3.662047041580081">
        <ele>492.19999999999999</ele>
        <time>2003-04-12T13:11:04Z</time>
      </trkpt>
      <trkpt lat="40.035673007369041" lon="-3.661702964454889">
        <ele>491.5</ele>
        <time>2003-04-12T13:11:07Z</time>
      </trkpt>
      <trkpt lat="40.034772036597133" lon="-3.661267021670938">
        <ele>490.89999999999998</ele>
        <time>2003-04-12T13:11:10Z</time>
      </trkpt>
      <trkpt lat="40.03390803001821" lon="-3.660657992586494">
        <ele>490</ele>
        <time>2003-04-12T13:11:12Z</time>
      </trkpt>
      <trkpt lat="40.033076964318752" lon="-3.659928012639284">
        <ele>489</ele>
        <time>2003-04-12T13:11:15Z</time>
      </trkpt>
      <trkpt lat="40.032235002145171" lon="-3.659207001328468">
        <ele>488.10000000000002</ele>
        <time>2003-04-12T13:11:19Z</time>
      </trkpt>
      <trkpt lat="40.031356997787952" lon="-3.658556984737515">
        <ele>487.80000000000001</ele>
        <time>2003-04-12T13:11:22Z</time>
      </trkpt>
      <trkpt lat="40.030472036451101" lon="-3.657927000895143">
        <ele>488</ele>
        <time>2003-04-12T13:11:24Z</time>
      </trkpt>
      <trkpt lat="40.029575005173683" lon="-3.65727698430419">
        <ele>488.89999999999998</ele>
        <time>2003-04-12T13:11:27Z</time>
      </trkpt>
      <trkpt lat="40.028675040230155" lon="-3.656635014340282">
        <ele>489.10000000000002</ele>
        <time>2003-04-12T13:11:31Z</time>
      </trkpt>
      <trkpt lat="40.027777003124356" lon="-3.65598801523447">
        <ele>489.10000000000002</ele>
        <time>2003-04-12T13:11:34Z</time>
      </trkpt>
      <trkpt lat="40.026896987110376" lon="-3.655294999480248">
        <ele>489.10000000000002</ele>
        <time>2003-04-12T13:11:37Z</time>
      </trkpt>
      <trkpt lat="40.026080003008246" lon="-3.654541969299316">
        <ele>488.60000000000002</ele>
        <time>2003-04-12T13:11:39Z</time>
      </trkpt>
      <trkpt lat="40.025599971413612" lon="-3.653917014598846">
        <ele>488.60000000000002</ele>
        <time>2003-04-12T13:11:42Z</time>
      </trkpt>
      <trkpt lat="40.024979962036014" lon="-3.652880005538464">
        <ele>488.39999999999998</ele>
        <time>2003-04-12T13:11:45Z</time>
      </trkpt>
      <trkpt lat="40.024449974298477" lon="-3.651748029515147">
        <ele>487.89999999999998</ele>
        <time>2003-04-12T13:11:47Z</time>
      </trkpt>
      <trkpt lat="40.02391797490418" lon="-3.650598032400012">
        <ele>487</ele>
        <time>2003-04-12T13:11:50Z</time>
      </trkpt>
      <trkpt lat="40.023378012701869" lon="-3.649463038891554">
        <ele>486.19999999999999</ele>
        <time>2003-04-12T13:11:54Z</time>
      </trkpt>
      <trkpt lat="40.022794967517257" lon="-3.648425024002791">
        <ele>485.30000000000001</ele>
        <time>2003-04-12T13:11:57Z</time>
      </trkpt>
      <trkpt lat="40.022183004766703" lon="-3.647426990792155">
        <ele>484.89999999999998</ele>
        <time>2003-04-12T13:12:00Z</time>
      </trkpt>
      <trkpt lat="40.021591996774077" lon="-3.646431975066662">
        <ele>485.10000000000002</ele>
        <time>2003-04-12T13:12:02Z</time>
      </trkpt>
      <trkpt lat="40.021093022078276" lon="-3.645364958792925">
        <ele>485.80000000000001</ele>
        <time>2003-04-12T13:12:05Z</time>
      </trkpt>
      <trkpt lat="40.020750034600496" lon="-3.644206998869777">
        <ele>489.10000000000002</ele>
        <time>2003-04-12T13:12:09Z</time>
      </trkpt>
      <trkpt lat="40.020388020202518" lon="-3.64307502284646">
        <ele>494.80000000000001</ele>
        <time>2003-04-12T13:12:12Z</time>
      </trkpt>
      <trkpt lat="40.020024999976158" lon="-3.641956960782409">
        <ele>499.19999999999999</ele>
        <time>2003-04-12T13:12:14Z</time>
      </trkpt>
      <trkpt lat="40.019674971699715" lon="-3.640822973102331">
        <ele>500.60000000000002</ele>
        <time>2003-04-12T13:12:17Z</time>
      </trkpt>
      <trkpt lat="40.019313041120768" lon="-3.639661995694041">
        <ele>499.60000000000002</ele>
        <time>2003-04-12T13:12:21Z</time>
      </trkpt>
      <trkpt lat="40.018935017287731" lon="-3.638527002185583">
        <ele>498.5</ele>
        <time>2003-04-12T13:12:24Z</time>
      </trkpt>
      <trkpt lat="40.018452974036336" lon="-3.637417992576957">
        <ele>497.60000000000002</ele>
        <time>2003-04-12T13:12:27Z</time>
      </trkpt>
      <trkpt lat="40.017866995185614" lon="-3.636373020708561">
        <ele>499.19999999999999</ele>
        <time>2003-04-12T13:12:29Z</time>
      </trkpt>
      <trkpt lat="40.017187977209687" lon="-3.635427039116621">
        <ele>502.19999999999999</ele>
        <time>2003-04-12T13:12:32Z</time>
      </trkpt>
      <trkpt lat="40.01648498699069" lon="-3.634507041424513">
        <ele>505</ele>
        <time>2003-04-12T13:12:36Z</time>
      </trkpt>
      <trkpt lat="40.015789959579706" lon="-3.633585032075644">
        <ele>507.80000000000001</ele>
        <time>2003-04-12T13:12:39Z</time>
      </trkpt>
      <trkpt lat="40.015110019594431" lon="-3.632739968597889">
        <ele>510.69999999999999</ele>
        <time>2003-04-12T13:12:41Z</time>
      </trkpt>
      <trkpt lat="40.014605009928346" lon="-3.632263038307428">
        <ele>512.5</ele>
        <time>2003-04-12T13:12:44Z</time>
      </trkpt>
      <trkpt lat="40.013790037482977" lon="-3.631655015051365">
        <ele>515.39999999999998</ele>
        <time>2003-04-12T13:12:47Z</time>
      </trkpt>
      <trkpt lat="40.013010017573833" lon="-3.631046991795301">
        <ele>518.39999999999998</ele>
        <time>2003-04-12T13:12:50Z</time>
      </trkpt>
      <trkpt lat="40.012554964050651" lon="-3.630563020706177">
        <ele>519.70000000000005</ele>
        <time>2003-04-12T13:12:52Z</time>
      </trkpt>
      <trkpt lat="40.012162020429969" lon="-3.629982993006706">
        <ele>520.60000000000002</ele>
        <time>2003-04-12T13:12:54Z</time>
      </trkpt>
      <trkpt lat="40.011836970224977" lon="-3.629332976415753">
        <ele>521</ele>
        <time>2003-04-12T13:12:55Z</time>
      </trkpt>
      <trkpt lat="40.011592973023653" lon="-3.628635015338659">
        <ele>521.10000000000002</ele>
        <time>2003-04-12T13:12:58Z</time>
      </trkpt>
      <trkpt lat="40.011357022449374" lon="-3.627502033486962">
        <ele>521.10000000000002</ele>
        <time>2003-04-12T13:13:00Z</time>
      </trkpt>
      <trkpt lat="40.011246968060732" lon="-3.626307025551796">
        <ele>522.10000000000002</ele>
        <time>2003-04-12T13:13:03Z</time>
      </trkpt>
      <trkpt lat="40.011157030239701" lon="-3.62511201761663">
        <ele>526.79999999999995</ele>
        <time>2003-04-12T13:13:07Z</time>
      </trkpt>
      <trkpt lat="40.01104798167944" lon="-3.623922960832715">
        <ele>532.20000000000005</ele>
        <time>2003-04-12T13:13:11Z</time>
      </trkpt>
      <trkpt lat="40.010946979746222" lon="-3.622744968160987">
        <ele>537.60000000000002</ele>
        <time>2003-04-12T13:13:14Z</time>
      </trkpt>
      <trkpt lat="40.010857963934541" lon="-3.621569992974401">
        <ele>542.20000000000005</ele>
        <time>2003-04-12T13:13:17Z</time>
      </trkpt>
      <trkpt lat="40.010757967829704" lon="-3.620374985039234">
        <ele>545.10000000000002</ele>
        <time>2003-04-12T13:13:19Z</time>
      </trkpt>
      <trkpt lat="40.010571973398328" lon="-3.619196992367506">
        <ele>547.60000000000002</ele>
        <time>2003-04-12T13:13:22Z</time>
      </trkpt>
      <trkpt lat="40.010239966213703" lon="-3.618084965273738">
        <ele>551.29999999999995</ele>
        <time>2003-04-12T13:13:26Z</time>
      </trkpt>
      <trkpt lat="40.009784996509552" lon="-3.617072012275457">
        <ele>557.20000000000005</ele>
        <time>2003-04-12T13:13:29Z</time>
      </trkpt>
      <trkpt lat="40.009227013215423" lon="-3.616172969341278">
        <ele>562.89999999999998</ele>
        <time>2003-04-12T13:13:31Z</time>
      </trkpt>
      <trkpt lat="40.008584959432483" lon="-3.615399990230799">
        <ele>568.79999999999995</ele>
        <time>2003-04-12T13:13:34Z</time>
      </trkpt>
      <trkpt lat="40.007649958133698" lon="-3.614536989480257">
        <ele>576.60000000000002</ele>
        <time>2003-04-12T13:13:38Z</time>
      </trkpt>
      <trkpt lat="40.006719985976815" lon="-3.613693015649915">
        <ele>583.89999999999998</ele>
        <time>2003-04-12T13:13:42Z</time>
      </trkpt>
      <trkpt lat="40.005782973021269" lon="-3.612849963828921">
        <ele>588.29999999999995</ele>
        <time>2003-04-12T13:13:46Z</time>
      </trkpt>
      <trkpt lat="40.004815030843019" lon="-3.611995009705424">
        <ele>590</ele>
        <time>2003-04-12T13:13:50Z</time>
      </trkpt>
      <trkpt lat="40.004068035632372" lon="-3.611314985901117">
        <ele>589.89999999999998</ele>
        <time>2003-04-12T13:13:53Z</time>
      </trkpt>
      <trkpt lat="40.003302013501525" lon="-3.610624987632036">
        <ele>589.89999999999998</ele>
        <time>2003-04-12T13:13:57Z</time>
      </trkpt>
      <trkpt lat="40.00251998193562" lon="-3.609904982149601">
        <ele>590</ele>
        <time>2003-04-12T13:14:00Z</time>
      </trkpt>
      <trkpt lat="40.001737028360367" lon="-3.609144994989038">
        <ele>590.29999999999995</ele>
        <time>2003-04-12T13:14:02Z</time>
      </trkpt>
      <trkpt lat="40.000988021492958" lon="-3.608317030593753">
        <ele>591.29999999999995</ele>
        <time>2003-04-12T13:14:05Z</time>
      </trkpt>
      <trkpt lat="40.000258041545749" lon="-3.607482025399804">
        <ele>593.20000000000005</ele>
        <time>2003-04-12T13:14:09Z</time>
      </trkpt>
      <trkpt lat="39.999514985829592" lon="-3.606682978570461">
        <ele>595.20000000000005</ele>
        <time>2003-04-12T13:14:12Z</time>
      </trkpt>
      <trkpt lat="39.998734965920448" lon="-3.605934977531433">
        <ele>596.39999999999998</ele>
        <time>2003-04-12T13:14:15Z</time>
      </trkpt>
      <trkpt lat="39.997928040102124" lon="-3.605244979262352">
        <ele>597.10000000000002</ele>
        <time>2003-04-12T13:14:17Z</time>
      </trkpt>
      <trkpt lat="39.997114995494485" lon="-3.604551963508129">
        <ele>597.79999999999995</ele>
        <time>2003-04-12T13:14:20Z</time>
      </trkpt>
      <trkpt lat="39.996306980028749" lon="-3.603861965239048">
        <ele>598.70000000000005</ele>
        <time>2003-04-12T13:14:24Z</time>
      </trkpt>
      <trkpt lat="39.995552022010088" lon="-3.603162998333573">
        <ele>599.89999999999998</ele>
        <time>2003-04-12T13:14:27Z</time>
      </trkpt>
      <trkpt lat="39.99486998654902" lon="-3.602363029494882">
        <ele>601.10000000000002</ele>
        <time>2003-04-12T13:14:29Z</time>
      </trkpt>
      <trkpt lat="39.994673011824489" lon="-3.602052982896566">
        <ele>601.29999999999995</ele>
        <time>2003-04-12T13:14:31Z</time>
      </trkpt>
      <trkpt lat="39.9941629730165" lon="-3.601027959957719">
        <ele>601.29999999999995</ele>
        <time>2003-04-12T13:14:33Z</time>
      </trkpt>
      <trkpt lat="39.99366701580584" lon="-3.599981982260943">
        <ele>601.70000000000005</ele>
        <time>2003-04-12T13:14:36Z</time>
      </trkpt>
      <trkpt lat="39.993144990876317" lon="-3.598925024271011">
        <ele>601.39999999999998</ele>
        <time>2003-04-12T13:14:40Z</time>
      </trkpt>
      <trkpt lat="39.992622965946794" lon="-3.597843004390597">
        <ele>601.60000000000002</ele>
        <time>2003-04-12T13:14:43Z</time>
      </trkpt>
      <trkpt lat="39.992091972380877" lon="-3.596744975075126">
        <ele>601.5</ele>
        <time>2003-04-12T13:14:46Z</time>
      </trkpt>
      <trkpt lat="39.991540024057031" lon="-3.595658009871841">
        <ele>601.5</ele>
        <time>2003-04-12T13:14:48Z</time>
      </trkpt>
      <trkpt lat="39.990996960550547" lon="-3.594568027183414">
        <ele>601.79999999999995</ele>
        <time>2003-04-12T13:14:51Z</time>
      </trkpt>
      <trkpt lat="39.990447023883462" lon="-3.593482989817858">
        <ele>602</ele>
        <time>2003-04-12T13:14:55Z</time>
      </trkpt>
      <trkpt lat="39.989900020882487" lon="-3.592386972159147">
        <ele>601.70000000000005</ele>
        <time>2003-04-12T13:14:58Z</time>
      </trkpt>
      <trkpt lat="39.989342037588358" lon="-3.591275028884411">
        <ele>601.5</ele>
        <time>2003-04-12T13:15:00Z</time>
      </trkpt>
      <trkpt lat="39.988777013495564" lon="-3.590153027325869">
        <ele>601.20000000000005</ele>
        <time>2003-04-12T13:15:03Z</time>
      </trkpt>
      <trkpt lat="39.988218024373055" lon="-3.589037982746959">
        <ele>601</ele>
        <time>2003-04-12T13:15:07Z</time>
      </trkpt>
      <trkpt lat="39.987653000280261" lon="-3.58790198341012">
        <ele>600.89999999999998</ele>
        <time>2003-04-12T13:15:10Z</time>
      </trkpt>
      <trkpt lat="39.987083030864596" lon="-3.58676003292203">
        <ele>603.20000000000005</ele>
        <time>2003-04-12T13:15:13Z</time>
      </trkpt>
      <trkpt lat="39.986495040357113" lon="-3.585639959201217">
        <ele>606.39999999999998</ele>
        <time>2003-04-12T13:15:15Z</time>
      </trkpt>
      <trkpt lat="39.985926998779178" lon="-3.584502032026649">
        <ele>608.10000000000002</ele>
        <time>2003-04-12T13:15:18Z</time>
      </trkpt>
      <trkpt lat="39.985346971079707" lon="-3.583348011597991">
        <ele>607.70000000000005</ele>
        <time>2003-04-12T13:15:22Z</time>
      </trkpt>
      <trkpt lat="39.984761998057365" lon="-3.582187034189701">
        <ele>605.60000000000002</ele>
        <time>2003-04-12T13:15:25Z</time>
      </trkpt>
      <trkpt lat="39.984179958701134" lon="-3.581018010154367">
        <ele>604.5</ele>
        <time>2003-04-12T13:15:27Z</time>
      </trkpt>
      <trkpt lat="39.983592974022031" lon="-3.579858038574457">
        <ele>604.79999999999995</ele>
        <time>2003-04-12T13:15:30Z</time>
      </trkpt>
      <trkpt lat="39.983015041798353" lon="-3.578702006489039">
        <ele>605</ele>
        <time>2003-04-12T13:15:34Z</time>
      </trkpt>
      <trkpt lat="39.982441971078515" lon="-3.577559972181916">
        <ele>605.89999999999998</ele>
        <time>2003-04-12T13:15:37Z</time>
      </trkpt>
      <trkpt lat="39.981869990006089" lon="-3.576436964794993">
        <ele>607.20000000000005</ele>
        <time>2003-04-12T13:15:40Z</time>
      </trkpt>
      <trkpt lat="39.981315024197102" lon="-3.575317980721593">
        <ele>608.89999999999998</ele>
        <time>2003-04-12T13:15:42Z</time>
      </trkpt>
      <trkpt lat="39.980761986225843" lon="-3.574212994426489">
        <ele>610.79999999999995</ele>
        <time>2003-04-12T13:15:45Z</time>
      </trkpt>
      <trkpt lat="39.980211965739727" lon="-3.57311999425292">
        <ele>613.10000000000002</ele>
        <time>2003-04-12T13:15:49Z</time>
      </trkpt>
      <trkpt lat="39.979673009365797" lon="-3.572035040706396">
        <ele>615.79999999999995</ele>
        <time>2003-04-12T13:15:52Z</time>
      </trkpt>
      <trkpt lat="39.979162970557809" lon="-3.570940028876066">
        <ele>618.60000000000002</ele>
        <time>2003-04-12T13:15:54Z</time>
      </trkpt>
      <trkpt lat="39.978676987811923" lon="-3.569803023710847">
        <ele>619.29999999999995</ele>
        <time>2003-04-12T13:15:57Z</time>
      </trkpt>
      <trkpt lat="39.978187987580895" lon="-3.568638022989035">
        <ele>618.29999999999995</ele>
        <time>2003-04-12T13:16:01Z</time>
      </trkpt>
      <trkpt lat="39.977694964036345" lon="-3.567481990903616">
        <ele>619.20000000000005</ele>
        <time>2003-04-12T13:16:04Z</time>
      </trkpt>
      <trkpt lat="39.977200012654066" lon="-3.566342974081636">
        <ele>620.20000000000005</ele>
        <time>2003-04-12T13:16:07Z</time>
      </trkpt>
      <trkpt lat="39.976700032129884" lon="-3.565206974744797">
        <ele>621.29999999999995</ele>
        <time>2003-04-12T13:16:09Z</time>
      </trkpt>
      <trkpt lat="39.976214971393347" lon="-3.564063012599945">
        <ele>621</ele>
        <time>2003-04-12T13:16:12Z</time>
      </trkpt>
      <trkpt lat="39.97572798281908" lon="-3.562922989949584">
        <ele>619.70000000000005</ele>
        <time>2003-04-12T13:16:16Z</time>
      </trkpt>
      <trkpt lat="39.975237976759672" lon="-3.561778021976352">
        <ele>620.20000000000005</ele>
        <time>2003-04-12T13:16:19Z</time>
      </trkpt>
      <trkpt lat="39.974751994013786" lon="-3.56063699349761">
        <ele>621.29999999999995</ele>
        <time>2003-04-12T13:16:21Z</time>
      </trkpt>
      <trkpt lat="39.97426500543952" lon="-3.559492025524378">
        <ele>621.89999999999998</ele>
        <time>2003-04-12T13:16:24Z</time>
      </trkpt>
      <trkpt lat="39.973780028522015" lon="-3.55833699926734">
        <ele>621.29999999999995</ele>
        <time>2003-04-12T13:16:28Z</time>
      </trkpt>
      <trkpt lat="39.973293039947748" lon="-3.557169986888766">
        <ele>620.60000000000002</ele>
        <time>2003-04-12T13:16:31Z</time>
      </trkpt>
      <trkpt lat="39.972804961726069" lon="-3.55599501170218">
        <ele>619.79999999999995</ele>
        <time>2003-04-12T13:16:34Z</time>
      </trkpt>
      <trkpt lat="39.972301963716745" lon="-3.554821964353323">
        <ele>619.5</ele>
        <time>2003-04-12T13:16:36Z</time>
      </trkpt>
      <trkpt lat="39.971802989020944" lon="-3.553638020530343">
        <ele>618.60000000000002</ele>
        <time>2003-04-12T13:16:39Z</time>
      </trkpt>
      <trkpt lat="39.97129999101162" lon="-3.552442006766796">
        <ele>616.79999999999995</ele>
        <time>2003-04-12T13:16:43Z</time>
      </trkpt>
      <trkpt lat="39.970800010487437" lon="-3.551233001053333">
        <ele>615.70000000000005</ele>
        <time>2003-04-12T13:16:46Z</time>
      </trkpt>
      <trkpt lat="39.970302041620016" lon="-3.550031958147883">
        <ele>616.60000000000002</ele>
        <time>2003-04-12T13:16:48Z</time>
      </trkpt>
      <trkpt lat="39.969802983105183" lon="-3.548844996839762">
        <ele>618.29999999999995</ele>
        <time>2003-04-12T13:16:51Z</time>
      </trkpt>
      <trkpt lat="39.969295039772987" lon="-3.547652000561357">
        <ele>618</ele>
        <time>2003-04-12T13:16:55Z</time>
      </trkpt>
      <trkpt lat="39.968792963773012" lon="-3.546441989019513">
        <ele>618</ele>
        <time>2003-04-12T13:16:58Z</time>
      </trkpt>
      <trkpt lat="39.968282002955675" lon="-3.545240024104714">
        <ele>618.29999999999995</ele>
        <time>2003-04-12T13:17:01Z</time>
      </trkpt>
      <trkpt lat="39.96777799911797" lon="-3.544033030048013">
        <ele>618.79999999999995</ele>
        <time>2003-04-12T13:17:03Z</time>
      </trkpt>
      <trkpt lat="39.967272989451885" lon="-3.542820001021028">
        <ele>619.20000000000005</ele>
        <time>2003-04-12T13:17:06Z</time>
      </trkpt>
      <trkpt lat="39.9667679797858" lon="-3.541607977822423">
        <ele>621.29999999999995</ele>
        <time>2003-04-12T13:17:10Z</time>
      </trkpt>
      <trkpt lat="39.966283002868295" lon="-3.540401989594102">
        <ele>623.20000000000005</ele>
        <time>2003-04-12T13:17:13Z</time>
      </trkpt>
      <trkpt lat="39.965798025950789" lon="-3.539230031892657">
        <ele>626.10000000000002</ele>
        <time>2003-04-12T13:17:15Z</time>
      </trkpt>
      <trkpt lat="39.965323023498058" lon="-3.538087997585535">
        <ele>628.20000000000005</ele>
        <time>2003-04-12T13:17:18Z</time>
      </trkpt>
      <trkpt lat="39.964839974418283" lon="-3.537007989361882">
        <ele>627.70000000000005</ele>
        <time>2003-04-12T13:17:22Z</time>
      </trkpt>
      <trkpt lat="39.964466979727149" lon="-3.536372976377606">
        <ele>628.89999999999998</ele>
        <time>2003-04-12T13:17:24Z</time>
      </trkpt>
      <trkpt lat="39.963815035298467" lon="-3.535488015040755">
        <ele>631.10000000000002</ele>
        <time>2003-04-12T13:17:26Z</time>
      </trkpt>
      <trkpt lat="39.963162001222372" lon="-3.534598024562001">
        <ele>633.79999999999995</ele>
        <time>2003-04-12T13:17:29Z</time>
      </trkpt>
      <trkpt lat="39.962499998509884" lon="-3.533712979406118">
        <ele>637.60000000000002</ele>
        <time>2003-04-12T13:17:33Z</time>
      </trkpt>
      <trkpt lat="39.961832966655493" lon="-3.532809996977449">
        <ele>639.20000000000005</ele>
        <time>2003-04-12T13:17:36Z</time>
      </trkpt>
      <trkpt lat="39.961152020841837" lon="-3.531886981800199">
        <ele>640</ele>
        <time>2003-04-12T13:17:38Z</time>
      </trkpt>
      <trkpt lat="39.960466967895627" lon="-3.530947035178542">
        <ele>640.89999999999998</ele>
        <time>2003-04-12T13:17:41Z</time>
      </trkpt>
      <trkpt lat="39.959776969626546" lon="-3.530017985031009">
        <ele>642.79999999999995</ele>
        <time>2003-04-12T13:17:45Z</time>
      </trkpt>
      <trkpt lat="39.959089988842607" lon="-3.529094969853759">
        <ele>645.89999999999998</ele>
        <time>2003-04-12T13:17:48Z</time>
      </trkpt>
      <trkpt lat="39.958420023322105" lon="-3.528159968554974">
        <ele>650.5</ele>
        <time>2003-04-12T13:17:51Z</time>
      </trkpt>
      <trkpt lat="39.957782998681068" lon="-3.527222033590078">
        <ele>656.5</ele>
        <time>2003-04-12T13:17:53Z</time>
      </trkpt>
      <trkpt lat="39.957165000960231" lon="-3.526292983442545">
        <ele>662.29999999999995</ele>
        <time>2003-04-12T13:17:56Z</time>
      </trkpt>
      <trkpt lat="39.956550020724535" lon="-3.525380026549101">
        <ele>669.70000000000005</ele>
        <time>2003-04-12T13:18:00Z</time>
      </trkpt>
      <trkpt lat="39.955952977761626" lon="-3.524472014978528">
        <ele>673.20000000000005</ele>
        <time>2003-04-12T13:18:03Z</time>
      </trkpt>
      <trkpt lat="39.95516499504447" lon="-3.523299973458052">
        <ele>680.70000000000005</ele>
        <time>2003-04-12T13:18:07Z</time>
      </trkpt>
      <trkpt lat="39.954390004277229" lon="-3.522145031020045">
        <ele>687.20000000000005</ele>
        <time>2003-04-12T13:18:11Z</time>
      </trkpt>
      <trkpt lat="39.953622976318002" lon="-3.520987993106246">
        <ele>694.10000000000002</ele>
        <time>2003-04-12T13:18:15Z</time>
      </trkpt>
      <trkpt lat="39.952880004420877" lon="-3.51985702291131">
        <ele>699.89999999999998</ele>
        <time>2003-04-12T13:18:19Z</time>
      </trkpt>
      <trkpt lat="39.9521569814533" lon="-3.518727980554104">
        <ele>702.60000000000002</ele>
        <time>2003-04-12T13:18:23Z</time>
      </trkpt>
      <trkpt lat="39.951832015067339" lon="-3.518094979226589">
        <ele>703.79999999999995</ele>
        <time>2003-04-12T13:18:24Z</time>
      </trkpt>
      <trkpt lat="39.951445022597909" lon="-3.516707019880414">
        <ele>709.10000000000002</ele>
        <time>2003-04-12T13:18:28Z</time>
      </trkpt>
      <trkpt lat="39.95133999735117" lon="-3.515981985256076">
        <ele>712</ele>
        <time>2003-04-12T13:18:31Z</time>
      </trkpt>
      <trkpt lat="39.951330022886395" lon="-3.514857972040772">
        <ele>716.5</ele>
        <time>2003-04-12T13:18:34Z</time>
      </trkpt>
      <trkpt lat="39.951345026493073" lon="-3.513327017426491">
        <ele>720.89999999999998</ele>
        <time>2003-04-12T13:18:38Z</time>
      </trkpt>
      <trkpt lat="39.951355000957847" lon="-3.512137038633227">
        <ele>722.29999999999995</ele>
        <time>2003-04-12T13:18:41Z</time>
      </trkpt>
      <trkpt lat="39.951366987079382" lon="-3.51091998629272">
        <ele>723.10000000000002</ele>
        <time>2003-04-12T13:18:43Z</time>
      </trkpt>
      <trkpt lat="39.951372016221285" lon="-3.509727995842695">
        <ele>724.10000000000002</ele>
        <time>2003-04-12T13:18:46Z</time>
      </trkpt>
      <trkpt lat="39.951053000986576" lon="-3.507227003574371">
        <ele>725.89999999999998</ele>
        <time>2003-04-12T13:18:54Z</time>
      </trkpt>
      <trkpt lat="39.950831970199943" lon="-3.506555026397109">
        <ele>726</ele>
        <time>2003-04-12T13:18:55Z</time>
      </trkpt>
      <trkpt lat="39.950340036302805" lon="-3.505164971575141">
        <ele>726</ele>
        <time>2003-04-12T13:18:59Z</time>
      </trkpt>
      <trkpt lat="39.949952960014343" lon="-3.504089992493391">
        <ele>726.5</ele>
        <time>2003-04-12T13:19:02Z</time>
      </trkpt>
      <trkpt lat="39.94955699890852" lon="-3.502987017855048">
        <ele>726.79999999999995</ele>
        <time>2003-04-12T13:19:06Z</time>
      </trkpt>
      <trkpt lat="39.949160031974316" lon="-3.501856969669461">
        <ele>727.20000000000005</ele>
        <time>2003-04-12T13:19:09Z</time>
      </trkpt>
      <trkpt lat="39.948776978999376" lon="-3.500787019729614">
        <ele>727.20000000000005</ele>
        <time>2003-04-12T13:19:12Z</time>
      </trkpt>
      <trkpt lat="39.948169961571693" lon="-3.499442981556058">
        <ele>727.29999999999995</ele>
        <time>2003-04-12T13:19:16Z</time>
      </trkpt>
      <trkpt lat="39.947554981335998" lon="-3.498549973592162">
        <ele>727.39999999999998</ele>
        <time>2003-04-12T13:19:18Z</time>
      </trkpt>
      <trkpt lat="39.946919968351722" lon="-3.497656965628266">
        <ele>727.70000000000005</ele>
        <time>2003-04-12T13:19:21Z</time>
      </trkpt>
      <trkpt lat="39.946274980902672" lon="-3.496751971542835">
        <ele>728</ele>
        <time>2003-04-12T13:19:25Z</time>
      </trkpt>
      <trkpt lat="39.945642985403538" lon="-3.495872039347887">
        <ele>728.29999999999995</ele>
        <time>2003-04-12T13:19:28Z</time>
      </trkpt>
      <trkpt lat="39.944817032665014" lon="-3.494787001982331">
        <ele>728.5</ele>
        <time>2003-04-12T13:19:32Z</time>
      </trkpt>
      <trkpt lat="39.944353010505438" lon="-3.494313005357981">
        <ele>728.5</ele>
        <time>2003-04-12T13:19:33Z</time>
      </trkpt>
      <trkpt lat="39.943556981161237" lon="-3.493740018457174">
        <ele>728.79999999999995</ele>
        <time>2003-04-12T13:19:37Z</time>
      </trkpt>
      <trkpt lat="39.942730022594333" lon="-3.493225034326315">
        <ele>728.70000000000005</ele>
        <time>2003-04-12T13:19:40Z</time>
      </trkpt>
      <trkpt lat="39.941923012956977" lon="-3.49267995916307">
        <ele>728.39999999999998</ele>
        <time>2003-04-12T13:19:43Z</time>
      </trkpt>
      <trkpt lat="39.941087001934648" lon="-3.492115018889308">
        <ele>728.89999999999998</ele>
        <time>2003-04-12T13:19:45Z</time>
      </trkpt>
      <trkpt lat="39.940249985083938" lon="-3.491527028381825">
        <ele>730.29999999999995</ele>
        <time>2003-04-12T13:19:48Z</time>
      </trkpt>
      <trkpt lat="39.939435012638569" lon="-3.490914981812239">
        <ele>732</ele>
        <time>2003-04-12T13:19:52Z</time>
      </trkpt>
      <trkpt lat="39.938602019101381" lon="-3.490336965769529">
        <ele>733.39999999999998</ele>
        <time>2003-04-12T13:19:55Z</time>
      </trkpt>
      <trkpt lat="39.937749998643994" lon="-3.489791974425316">
        <ele>734.29999999999995</ele>
        <time>2003-04-12T13:19:57Z</time>
      </trkpt>
      <trkpt lat="39.936884986236691" lon="-3.489250000566244">
        <ele>734.60000000000002</ele>
        <time>2003-04-12T13:20:00Z</time>
      </trkpt>
      <trkpt lat="39.936019973829389" lon="-3.488705009222031">
        <ele>734.60000000000002</ele>
        <time>2003-04-12T13:20:04Z</time>
      </trkpt>
      <trkpt lat="39.93514004163444" lon="-3.488148031756282">
        <ele>733.70000000000005</ele>
        <time>2003-04-12T13:20:07Z</time>
      </trkpt>
      <trkpt lat="39.934243010357022" lon="-3.487579990178347">
        <ele>733.20000000000005</ele>
        <time>2003-04-12T13:20:10Z</time>
      </trkpt>
      <trkpt lat="39.933342961594462" lon="-3.48700700327754">
        <ele>733.5</ele>
        <time>2003-04-12T13:20:12Z</time>
      </trkpt>
      <trkpt lat="39.93243302218616" lon="-3.486441979184747">
        <ele>734.20000000000005</ele>
        <time>2003-04-12T13:20:15Z</time>
      </trkpt>
      <trkpt lat="39.931525010615587" lon="-3.485864968970418">
        <ele>734.29999999999995</ele>
        <time>2003-04-12T13:20:19Z</time>
      </trkpt>
      <trkpt lat="39.930608030408621" lon="-3.485287958756089">
        <ele>734.20000000000005</ele>
        <time>2003-04-12T13:20:22Z</time>
      </trkpt>
      <trkpt lat="39.929719967767596" lon="-3.484735004603863">
        <ele>734.29999999999995</ele>
        <time>2003-04-12T13:20:24Z</time>
      </trkpt>
      <trkpt lat="39.928816985338926" lon="-3.484212979674339">
        <ele>734.10000000000002</ele>
        <time>2003-04-12T13:20:27Z</time>
      </trkpt>
      <trkpt lat="39.927872009575367" lon="-3.483736971393228">
        <ele>733.10000000000002</ele>
        <time>2003-04-12T13:20:31Z</time>
      </trkpt>
      <trkpt lat="39.926907001063228" lon="-3.483249982818961">
        <ele>732.89999999999998</ele>
        <time>2003-04-12T13:20:34Z</time>
      </trkpt>
      <trkpt lat="39.925926988944411" lon="-3.482753019779921">
        <ele>732.79999999999995</ele>
        <time>2003-04-12T13:20:37Z</time>
      </trkpt>
      <trkpt lat="39.924937002360821" lon="-3.482248010113835">
        <ele>732</ele>
        <time>2003-04-12T13:20:39Z</time>
      </trkpt>
      <trkpt lat="39.923962019383907" lon="-3.481724979355931">
        <ele>731.39999999999998</ele>
        <time>2003-04-12T13:20:42Z</time>
      </trkpt>
      <trkpt lat="39.923031963407993" lon="-3.48107798025012">
        <ele>731.60000000000002</ele>
        <time>2003-04-12T13:20:46Z</time>
      </trkpt>
      <trkpt lat="39.922102997079492" lon="-3.480457970872521">
        <ele>731.89999999999998</ele>
        <time>2003-04-12T13:20:49Z</time>
      </trkpt>
      <trkpt lat="39.921191968023777" lon="-3.479837039485574">
        <ele>732.29999999999995</ele>
        <time>2003-04-12T13:20:51Z</time>
      </trkpt>
      <trkpt lat="39.920323016121984" lon="-3.479306967929006">
        <ele>733.10000000000002</ele>
        <time>2003-04-12T13:20:54Z</time>
      </trkpt>
      <trkpt lat="39.919407041743398" lon="-3.478921987116337">
        <ele>733.79999999999995</ele>
        <time>2003-04-12T13:20:58Z</time>
      </trkpt>
      <trkpt lat="39.918474974110723" lon="-3.478543041273952">
        <ele>733.70000000000005</ele>
        <time>2003-04-12T13:21:01Z</time>
      </trkpt>
      <trkpt lat="39.91752496920526" lon="-3.47815697081387">
        <ele>733.60000000000002</ele>
        <time>2003-04-12T13:21:04Z</time>
      </trkpt>
      <trkpt lat="39.916574964299798" lon="-3.477765033021569">
        <ele>734.29999999999995</ele>
        <time>2003-04-12T13:21:06Z</time>
      </trkpt>
      <trkpt lat="39.915620014071465" lon="-3.477373011410236">
        <ele>734.39999999999998</ele>
        <time>2003-04-12T13:21:09Z</time>
      </trkpt>
      <trkpt lat="39.914649976417422" lon="-3.476967997848988">
        <ele>733.70000000000005</ele>
        <time>2003-04-12T13:21:13Z</time>
      </trkpt>
      <trkpt lat="39.913684967905283" lon="-3.47658502869308">
        <ele>733.10000000000002</ele>
        <time>2003-04-12T13:21:16Z</time>
      </trkpt>
      <trkpt lat="39.912703027948737" lon="-3.476272970438004">
        <ele>732</ele>
        <time>2003-04-12T13:21:18Z</time>
      </trkpt>
      <trkpt lat="39.911687979474664" lon="-3.476014975458384">
        <ele>729.60000000000002</ele>
        <time>2003-04-12T13:21:21Z</time>
      </trkpt>
      <trkpt lat="39.910663040354848" lon="-3.475765027105808">
        <ele>729.20000000000005</ele>
        <time>2003-04-12T13:21:25Z</time>
      </trkpt>
      <trkpt lat="39.909652015194297" lon="-3.475505020469427">
        <ele>730.20000000000005</ele>
        <time>2003-04-12T13:21:28Z</time>
      </trkpt>
      <trkpt lat="39.908652976155281" lon="-3.475251970812678">
        <ele>730.10000000000002</ele>
        <time>2003-04-12T13:21:31Z</time>
      </trkpt>
      <trkpt lat="39.907665001228452" lon="-3.475002022460103">
        <ele>730.29999999999995</ele>
        <time>2003-04-12T13:21:33Z</time>
      </trkpt>
      <trkpt lat="39.906663028523326" lon="-3.474747966974974">
        <ele>729</ele>
        <time>2003-04-12T13:21:36Z</time>
      </trkpt>
      <trkpt lat="39.905652003362775" lon="-3.474504975602031">
        <ele>726.89999999999998</ele>
        <time>2003-04-12T13:21:40Z</time>
      </trkpt>
      <trkpt lat="39.904641984030604" lon="-3.474249998107553">
        <ele>727</ele>
        <time>2003-04-12T13:21:43Z</time>
      </trkpt>
      <trkpt lat="39.903631964698434" lon="-3.473995020613074">
        <ele>726.70000000000005</ele>
        <time>2003-04-12T13:21:45Z</time>
      </trkpt>
      <trkpt lat="39.90263300947845" lon="-3.473748005926609">
        <ele>726.39999999999998</ele>
        <time>2003-04-12T13:21:48Z</time>
      </trkpt>
      <trkpt lat="39.901649979874492" lon="-3.473497973755002">
        <ele>724.89999999999998</ele>
        <time>2003-04-12T13:21:52Z</time>
      </trkpt>
      <trkpt lat="39.90067801438272" lon="-3.473251964896917">
        <ele>722.29999999999995</ele>
        <time>2003-04-12T13:21:55Z</time>
      </trkpt>
      <trkpt lat="39.899758016690612" lon="-3.473032023757696">
        <ele>721.70000000000005</ele>
        <time>2003-04-12T13:21:58Z</time>
      </trkpt>
      <trkpt lat="39.898885041475296" lon="-3.47293496131897">
        <ele>725</ele>
        <time>2003-04-12T13:22:00Z</time>
      </trkpt>
      <trkpt lat="39.897702019661665" lon="-3.472943007946014">
        <ele>728.79999999999995</ele>
        <time>2003-04-12T13:22:04Z</time>
      </trkpt>
      <trkpt lat="39.896801970899105" lon="-3.472943007946014">
        <ele>729.79999999999995</ele>
        <time>2003-04-12T13:22:07Z</time>
      </trkpt>
      <trkpt lat="39.895877027884126" lon="-3.472922975197434">
        <ele>730</ele>
        <time>2003-04-12T13:22:11Z</time>
      </trkpt>
      <trkpt lat="39.894930040463805" lon="-3.472905037924647">
        <ele>729.5</ele>
        <time>2003-04-12T13:22:14Z</time>
      </trkpt>
      <trkpt lat="39.893963020294905" lon="-3.472881987690926">
        <ele>729.39999999999998</ele>
        <time>2003-04-12T13:22:17Z</time>
      </trkpt>
      <trkpt lat="39.893000023439527" lon="-3.472864972427487">
        <ele>729.10000000000002</ele>
        <time>2003-04-12T13:22:19Z</time>
      </trkpt>
      <trkpt lat="39.891838040202856" lon="-3.472809987142682">
        <ele>728.39999999999998</ele>
        <time>2003-04-12T13:22:23Z</time>
      </trkpt>
      <trkpt lat="39.890985013917089" lon="-3.472628016024828">
        <ele>726.79999999999995</ele>
        <time>2003-04-12T13:22:26Z</time>
      </trkpt>
      <trkpt lat="39.890146991237998" lon="-3.472229959443212">
        <ele>724.39999999999998</ele>
        <time>2003-04-12T13:22:30Z</time>
      </trkpt>
      <trkpt lat="39.889309974387288" lon="-3.471755040809512">
        <ele>721.60000000000002</ele>
        <time>2003-04-12T13:22:33Z</time>
      </trkpt>
      <trkpt lat="39.888208005577326" lon="-3.471188005059958">
        <ele>719.20000000000005</ele>
        <time>2003-04-12T13:22:37Z</time>
      </trkpt>
      <trkpt lat="39.887350033968687" lon="-3.470905032008886">
        <ele>718.5</ele>
        <time>2003-04-12T13:22:39Z</time>
      </trkpt>
      <trkpt lat="39.886449985206127" lon="-3.470781985670328">
        <ele>717.70000000000005</ele>
        <time>2003-04-12T13:22:42Z</time>
      </trkpt>
      <trkpt lat="39.885524958372116" lon="-3.47080796957016">
        <ele>716.79999999999995</ele>
        <time>2003-04-12T13:22:46Z</time>
      </trkpt>
      <trkpt lat="39.884604960680008" lon="-3.471018020063639">
        <ele>715.89999999999998</ele>
        <time>2003-04-12T13:22:49Z</time>
      </trkpt>
      <trkpt lat="39.883702984079719" lon="-3.471384979784489">
        <ele>715.10000000000002</ele>
        <time>2003-04-12T13:22:52Z</time>
      </trkpt>
      <trkpt lat="39.882826991379261" lon="-3.471876997500658">
        <ele>714.5</ele>
        <time>2003-04-12T13:22:54Z</time>
      </trkpt>
      <trkpt lat="39.88194303587079" lon="-3.47237697802484">
        <ele>713.89999999999998</ele>
        <time>2003-04-12T13:22:57Z</time>
      </trkpt>
      <trkpt lat="39.88106201402843" lon="-3.472866984084249">
        <ele>714.39999999999998</ele>
        <time>2003-04-12T13:23:01Z</time>
      </trkpt>
      <trkpt lat="39.880176968872547" lon="-3.473352966830134">
        <ele>714.89999999999998</ele>
        <time>2003-04-12T13:23:04Z</time>
      </trkpt>
      <trkpt lat="39.879283038899302" lon="-3.473832998424768">
        <ele>715.60000000000002</ele>
        <time>2003-04-12T13:23:06Z</time>
      </trkpt>
      <trkpt lat="39.878390030935407" lon="-3.474310012534261">
        <ele>716</ele>
        <time>2003-04-12T13:23:09Z</time>
      </trkpt>
      <trkpt lat="39.877501968294382" lon="-3.474783003330231">
        <ele>716.70000000000005</ele>
        <time>2003-04-12T13:23:13Z</time>
      </trkpt>
      <trkpt lat="39.876617006957531" lon="-3.4752750210464">
        <ele>716.89999999999998</ele>
        <time>2003-04-12T13:23:16Z</time>
      </trkpt>
      <trkpt lat="39.875728022307158" lon="-3.475771984085441">
        <ele>718.70000000000005</ele>
        <time>2003-04-12T13:23:19Z</time>
      </trkpt>
      <trkpt lat="39.87485496327281" lon="-3.476238017901778">
        <ele>721.89999999999998</ele>
        <time>2003-04-12T13:23:21Z</time>
      </trkpt>
      <trkpt lat="39.874258004128933" lon="-3.476442033424974">
        <ele>723.79999999999995</ele>
        <time>2003-04-12T13:23:24Z</time>
      </trkpt>
      <trkpt lat="39.873342029750347" lon="-3.476625010371208">
        <ele>725.60000000000002</ele>
        <time>2003-04-12T13:23:27Z</time>
      </trkpt>
      <trkpt lat="39.872417002916336" lon="-3.476797007024288">
        <ele>726.39999999999998</ele>
        <time>2003-04-12T13:23:29Z</time>
      </trkpt>
      <trkpt lat="39.871489964425564" lon="-3.476985013112426">
        <ele>727.29999999999995</ele>
        <time>2003-04-12T13:23:32Z</time>
      </trkpt>
      <trkpt lat="39.870565021410584" lon="-3.47716698423028">
        <ele>727.60000000000002</ele>
        <time>2003-04-12T13:23:36Z</time>
      </trkpt>
      <trkpt lat="39.869402032345533" lon="-3.477390026673675">
        <ele>727</ele>
        <time>2003-04-12T13:23:40Z</time>
      </trkpt>
      <trkpt lat="39.868510030210018" lon="-3.477552970871329">
        <ele>726.5</ele>
        <time>2003-04-12T13:23:43Z</time>
      </trkpt>
      <trkpt lat="39.867587015032768" lon="-3.477565040811896">
        <ele>724.89999999999998</ele>
        <time>2003-04-12T13:23:46Z</time>
      </trkpt>
      <trkpt lat="39.866627035662532" lon="-3.477499997243285">
        <ele>723.39999999999998</ele>
        <time>2003-04-12T13:23:48Z</time>
      </trkpt>
      <trkpt lat="39.865669989958405" lon="-3.477437971159816">
        <ele>723.89999999999998</ele>
        <time>2003-04-12T13:23:51Z</time>
      </trkpt>
      <trkpt lat="39.864744963124394" lon="-3.477302016690373">
        <ele>723.5</ele>
        <time>2003-04-12T13:23:55Z</time>
      </trkpt>
      <trkpt lat="39.863818008452654" lon="-3.477022983133793">
        <ele>721.29999999999995</ele>
        <time>2003-04-12T13:23:58Z</time>
      </trkpt>
      <trkpt lat="39.862868003547192" lon="-3.476679995656014">
        <ele>718.39999999999998</ele>
        <time>2003-04-12T13:24:00Z</time>
      </trkpt>
      <trkpt lat="39.861895032227039" lon="-3.476334996521473">
        <ele>715.79999999999995</ele>
        <time>2003-04-12T13:24:03Z</time>
      </trkpt>
      <trkpt lat="39.860904961824417" lon="-3.475982034578919">
        <ele>714</ele>
        <time>2003-04-12T13:24:07Z</time>
      </trkpt>
      <trkpt lat="39.859908018261194" lon="-3.475620020180941">
        <ele>712.39999999999998</ele>
        <time>2003-04-12T13:24:10Z</time>
      </trkpt>
      <trkpt lat="39.858930017799139" lon="-3.475277032703161">
        <ele>712.10000000000002</ele>
        <time>2003-04-12T13:24:13Z</time>
      </trkpt>
      <trkpt lat="39.857980012893677" lon="-3.474972015246749">
        <ele>713.29999999999995</ele>
        <time>2003-04-12T13:24:15Z</time>
      </trkpt>
      <trkpt lat="39.857048029080033" lon="-3.47463196143508">
        <ele>714.39999999999998</ele>
        <time>2003-04-12T13:24:18Z</time>
      </trkpt>
      <trkpt lat="39.856167007237673" lon="-3.474177997559309">
        <ele>715.29999999999995</ele>
        <time>2003-04-12T13:24:22Z</time>
      </trkpt>
      <trkpt lat="39.855332002043724" lon="-3.473641974851489">
        <ele>715.60000000000002</ele>
        <time>2003-04-12T13:24:25Z</time>
      </trkpt>
      <trkpt lat="39.854515017941594" lon="-3.47312699072063">
        <ele>715.39999999999998</ele>
        <time>2003-04-12T13:24:27Z</time>
      </trkpt>
      <trkpt lat="39.853641958907247" lon="-3.472689958289266">
        <ele>713.79999999999995</ele>
        <time>2003-04-12T13:24:30Z</time>
      </trkpt>
      <trkpt lat="39.852742999792099" lon="-3.472374966368079">
        <ele>710.89999999999998</ele>
        <time>2003-04-12T13:24:34Z</time>
      </trkpt>
      <trkpt lat="39.851561989635229" lon="-3.472131974995136">
        <ele>709.10000000000002</ele>
        <time>2003-04-12T13:24:37Z</time>
      </trkpt>
      <trkpt lat="39.850637968629599" lon="-3.472106996923685">
        <ele>708.70000000000005</ele>
        <time>2003-04-12T13:24:41Z</time>
      </trkpt>
      <trkpt lat="39.849697016179562" lon="-3.472157036885619">
        <ele>708</ele>
        <time>2003-04-12T13:24:45Z</time>
      </trkpt>
      <trkpt lat="39.848762014880776" lon="-3.472272036597133">
        <ele>706.5</ele>
        <time>2003-04-12T13:24:48Z</time>
      </trkpt>
      <trkpt lat="39.847813015803695" lon="-3.472479991614819">
        <ele>705.20000000000005</ele>
        <time>2003-04-12T13:24:50Z</time>
      </trkpt>
      <trkpt lat="39.846848007291555" lon="-3.472706973552704">
        <ele>705.29999999999995</ele>
        <time>2003-04-12T13:24:53Z</time>
      </trkpt>
      <trkpt lat="39.845876963809133" lon="-3.472936972975731">
        <ele>705.5</ele>
        <time>2003-04-12T13:24:57Z</time>
      </trkpt>
      <trkpt lat="39.844914972782135" lon="-3.47314702346921">
        <ele>706.60000000000002</ele>
        <time>2003-04-12T13:25:00Z</time>
      </trkpt>
      <trkpt lat="39.843951975926757" lon="-3.473360007628799">
        <ele>708.20000000000005</ele>
        <time>2003-04-12T13:25:03Z</time>
      </trkpt>
      <trkpt lat="39.8430120293051" lon="-3.47357701510191">
        <ele>708.39999999999998</ele>
        <time>2003-04-12T13:25:05Z</time>
      </trkpt>
      <trkpt lat="39.842079961672425" lon="-3.473787987604737">
        <ele>707.5</ele>
        <time>2003-04-12T13:25:08Z</time>
      </trkpt>
      <trkpt lat="39.841192988678813" lon="-3.473997032269836">
        <ele>705.79999999999995</ele>
        <time>2003-04-12T13:25:12Z</time>
      </trkpt>
      <trkpt lat="39.840062018483877" lon="-3.47428796812892">
        <ele>703.60000000000002</ele>
        <time>2003-04-12T13:25:16Z</time>
      </trkpt>
      <trkpt lat="39.839228019118309" lon="-3.474683007225394">
        <ele>702</ele>
        <time>2003-04-12T13:25:19Z</time>
      </trkpt>
      <trkpt lat="39.838442970067263" lon="-3.475281978026032">
        <ele>700.20000000000005</ele>
        <time>2003-04-12T13:25:21Z</time>
      </trkpt>
      <trkpt lat="39.837751965969801" lon="-3.476048000156879">
        <ele>698.89999999999998</ele>
        <time>2003-04-12T13:25:24Z</time>
      </trkpt>
      <trkpt lat="39.837166992947459" lon="-3.476952994242311">
        <ele>696.60000000000002</ele>
        <time>2003-04-12T13:25:28Z</time>
      </trkpt>
      <trkpt lat="39.836683021858335" lon="-3.477996960282326">
        <ele>694.39999999999998</ele>
        <time>2003-04-12T13:25:31Z</time>
      </trkpt>
      <trkpt lat="39.836183041334152" lon="-3.479066994041205">
        <ele>690.60000000000002</ele>
        <time>2003-04-12T13:25:34Z</time>
      </trkpt>
      <trkpt lat="39.835697980597615" lon="-3.480116995051503">
        <ele>685.89999999999998</ele>
        <time>2003-04-12T13:25:36Z</time>
      </trkpt>
      <trkpt lat="39.835060033947229" lon="-3.481407975777984">
        <ele>680.60000000000002</ele>
        <time>2003-04-12T13:25:40Z</time>
      </trkpt>
      <trkpt lat="39.834465002641082" lon="-3.482238035649061">
        <ele>676.70000000000005</ele>
        <time>2003-04-12T13:25:43Z</time>
      </trkpt>
      <trkpt lat="39.833705015480518" lon="-3.482959968969226">
        <ele>673.89999999999998</ele>
        <time>2003-04-12T13:25:47Z</time>
      </trkpt>
      <trkpt lat="39.833119958639145" lon="-3.483351990580559">
        <ele>672.79999999999995</ele>
        <time>2003-04-12T13:25:48Z</time>
      </trkpt>
      <trkpt lat="39.832532973960042" lon="-3.483607973903418">
        <ele>672</ele>
        <time>2003-04-12T13:25:51Z</time>
      </trkpt>
      <trkpt lat="39.831608030945063" lon="-3.483803020790219">
        <ele>666</ele>
        <time>2003-04-12T13:25:54Z</time>
      </trkpt>
      <trkpt lat="39.83063799329102" lon="-3.483954984694719">
        <ele>661.60000000000002</ele>
        <time>2003-04-12T13:25:57Z</time>
      </trkpt>
      <trkpt lat="39.829650018364191" lon="-3.484117006883025">
        <ele>658.79999999999995</ele>
        <time>2003-04-12T13:25:59Z</time>
      </trkpt>
      <trkpt lat="39.82866195961833" lon="-3.484293026849628">
        <ele>656.5</ele>
        <time>2003-04-12T13:26:02Z</time>
      </trkpt>
      <trkpt lat="39.827704997733235" lon="-3.484447002410889">
        <ele>654</ele>
        <time>2003-04-12T13:26:06Z</time>
      </trkpt>
      <trkpt lat="39.826736971735954" lon="-3.484577005729079">
        <ele>651.60000000000002</ele>
        <time>2003-04-12T13:26:09Z</time>
      </trkpt>
      <trkpt lat="39.825761988759041" lon="-3.484717989340425">
        <ele>649.29999999999995</ele>
        <time>2003-04-12T13:26:11Z</time>
      </trkpt>
      <trkpt lat="39.824839979410172" lon="-3.484776997938752">
        <ele>647.10000000000002</ele>
        <time>2003-04-12T13:26:14Z</time>
      </trkpt>
      <trkpt lat="39.82423497363925" lon="-3.484674990177155">
        <ele>645.60000000000002</ele>
        <time>2003-04-12T13:26:17Z</time>
      </trkpt>
      <trkpt lat="39.823642037808895" lon="-3.484467035159469">
        <ele>644.20000000000005</ele>
        <time>2003-04-12T13:26:18Z</time>
      </trkpt>
      <trkpt lat="39.823071984574199" lon="-3.484147014096379">
        <ele>642.70000000000005</ele>
        <time>2003-04-12T13:26:21Z</time>
      </trkpt>
      <trkpt lat="39.822532022371888" lon="-3.483730014413595">
        <ele>641.20000000000005</ele>
        <time>2003-04-12T13:26:22Z</time>
      </trkpt>
      <trkpt lat="39.821728030219674" lon="-3.483058037236333">
        <ele>638.70000000000005</ele>
        <time>2003-04-12T13:26:25Z</time>
      </trkpt>
      <trkpt lat="39.820924960076809" lon="-3.482392011210322">
        <ele>635.79999999999995</ele>
        <time>2003-04-12T13:26:29Z</time>
      </trkpt>
      <trkpt lat="39.819942014291883" lon="-3.481563040986657">
        <ele>631.5</ele>
        <time>2003-04-12T13:26:33Z</time>
      </trkpt>
      <trkpt lat="39.819225026294589" lon="-3.481083009392023">
        <ele>627.5</ele>
        <time>2003-04-12T13:26:36Z</time>
      </trkpt>
      <trkpt lat="39.81843302026391" lon="-3.480747984722257">
        <ele>623.89999999999998</ele>
        <time>2003-04-12T13:26:38Z</time>
      </trkpt>
      <trkpt lat="39.817257961258292" lon="-3.480514967814088">
        <ele>618.79999999999995</ele>
        <time>2003-04-12T13:26:42Z</time>
      </trkpt>
      <trkpt lat="39.816332012414932" lon="-3.480329979211092">
        <ele>614.89999999999998</ele>
        <time>2003-04-12T13:26:45Z</time>
      </trkpt>
      <trkpt lat="39.81538200750947" lon="-3.480141973122954">
        <ele>612</ele>
        <time>2003-04-12T13:26:49Z</time>
      </trkpt>
      <trkpt lat="39.814444994553924" lon="-3.479957990348339">
        <ele>610.10000000000002</ele>
        <time>2003-04-12T13:26:52Z</time>
      </trkpt>
      <trkpt lat="39.813502030447125" lon="-3.479762021452189">
        <ele>608.89999999999998</ele>
        <time>2003-04-12T13:26:55Z</time>
      </trkpt>
      <trkpt lat="39.812548002228141" lon="-3.479563035070896">
        <ele>607.10000000000002</ele>
        <time>2003-04-12T13:26:57Z</time>
      </trkpt>
      <trkpt lat="39.811606965959072" lon="-3.479367988184094">
        <ele>606.20000000000005</ele>
        <time>2003-04-12T13:27:00Z</time>
      </trkpt>
      <trkpt lat="39.810653021559119" lon="-3.479182999581099">
        <ele>605.29999999999995</ele>
        <time>2003-04-12T13:27:04Z</time>
      </trkpt>
      <trkpt lat="39.80968801304698" lon="-3.479006979614496">
        <ele>604.70000000000005</ele>
        <time>2003-04-12T13:27:07Z</time>
      </trkpt>
      <trkpt lat="39.808716969564557" lon="-3.478843029588461">
        <ele>604.39999999999998</ele>
        <time>2003-04-12T13:27:09Z</time>
      </trkpt>
      <trkpt lat="39.807741986587644" lon="-3.478728029876947">
        <ele>605.20000000000005</ele>
        <time>2003-04-12T13:27:12Z</time>
      </trkpt>
      <trkpt lat="39.806779995560646" lon="-3.478761976584792">
        <ele>608.39999999999998</ele>
        <time>2003-04-12T13:27:16Z</time>
      </trkpt>
      <trkpt lat="39.805841976776719" lon="-3.478847974911332">
        <ele>612.5</ele>
        <time>2003-04-12T13:27:19Z</time>
      </trkpt>
      <trkpt lat="39.80491703376174" lon="-3.478930033743382">
        <ele>616.20000000000005</ele>
        <time>2003-04-12T13:27:22Z</time>
      </trkpt>
      <trkpt lat="39.804004998877645" lon="-3.479017959907651">
        <ele>618.79999999999995</ele>
        <time>2003-04-12T13:27:24Z</time>
      </trkpt>
      <trkpt lat="39.802855001762509" lon="-3.479115022346377">
        <ele>620.29999999999995</ele>
        <time>2003-04-12T13:27:28Z</time>
      </trkpt>
      <trkpt lat="39.801722019910812" lon="-3.479187022894621">
        <ele>622.39999999999998</ele>
        <time>2003-04-12T13:27:32Z</time>
      </trkpt>
      <trkpt lat="39.800640000030398" lon="-3.479273021221161">
        <ele>624.70000000000005</ele>
        <time>2003-04-12T13:27:36Z</time>
      </trkpt>
      <trkpt lat="39.799587987363338" lon="-3.479406964033842">
        <ele>627.89999999999998</ele>
        <time>2003-04-12T13:27:41Z</time>
      </trkpt>
      <trkpt lat="39.798524994403124" lon="-3.479675017297268">
        <ele>632.10000000000002</ele>
        <time>2003-04-12T13:27:45Z</time>
      </trkpt>
      <trkpt lat="39.79746300727129" lon="-3.480054968968034">
        <ele>635.39999999999998</ele>
        <time>2003-04-12T13:27:49Z</time>
      </trkpt>
      <trkpt lat="39.796387022361159" lon="-3.480472974479199">
        <ele>639</ele>
        <time>2003-04-12T13:27:53Z</time>
      </trkpt>
      <trkpt lat="39.795301984995604" lon="-3.48088301718235">
        <ele>643.10000000000002</ele>
        <time>2003-04-12T13:27:57Z</time>
      </trkpt>
      <trkpt lat="39.7941779717803" lon="-3.481309991329908">
        <ele>643.79999999999995</ele>
        <time>2003-04-12T13:28:01Z</time>
      </trkpt>
      <trkpt lat="39.793047001585364" lon="-3.481739982962608">
        <ele>648.10000000000002</ele>
        <time>2003-04-12T13:28:05Z</time>
      </trkpt>
      <trkpt lat="39.791936986148357" lon="-3.482199981808662">
        <ele>651.39999999999998</ele>
        <time>2003-04-12T13:28:09Z</time>
      </trkpt>
      <trkpt lat="39.790822025388479" lon="-3.482638020068407">
        <ele>655.10000000000002</ele>
        <time>2003-04-12T13:28:13Z</time>
      </trkpt>
      <trkpt lat="39.789702035486698" lon="-3.483059965074062">
        <ele>658.39999999999998</ele>
        <time>2003-04-12T13:28:17Z</time>
      </trkpt>
      <trkpt lat="39.788566958159208" lon="-3.483436983078718">
        <ele>662.89999999999998</ele>
        <time>2003-04-12T13:28:21Z</time>
      </trkpt>
      <trkpt lat="39.787413021549582" lon="-3.483606968075037">
        <ele>669.60000000000002</ele>
        <time>2003-04-12T13:28:25Z</time>
      </trkpt>
      <trkpt lat="39.786265036091208" lon="-3.483587019145489">
        <ele>676.5</ele>
        <time>2003-04-12T13:28:29Z</time>
      </trkpt>
      <trkpt lat="39.785140017047524" lon="-3.483392978087068">
        <ele>682.79999999999995</ele>
        <time>2003-04-12T13:28:33Z</time>
      </trkpt>
      <trkpt lat="39.784048022702336" lon="-3.48301000893116">
        <ele>688.79999999999995</ele>
        <time>2003-04-12T13:28:37Z</time>
      </trkpt>
      <trkpt lat="39.782995004206896" lon="-3.482453031465411">
        <ele>692.89999999999998</ele>
        <time>2003-04-12T13:28:40Z</time>
      </trkpt>
      <trkpt lat="39.78197299875319" lon="-3.481745012104511">
        <ele>695.70000000000005</ele>
        <time>2003-04-12T13:28:44Z</time>
      </trkpt>
      <trkpt lat="39.780964991077781" lon="-3.480919981375337">
        <ele>697</ele>
        <time>2003-04-12T13:28:48Z</time>
      </trkpt>
      <trkpt lat="39.780182037502527" lon="-3.480316987261176">
        <ele>696.89999999999998</ele>
        <time>2003-04-12T13:28:52Z</time>
      </trkpt>
      <trkpt lat="39.779360024258494" lon="-3.479822035878897">
        <ele>696.39999999999998</ele>
        <time>2003-04-12T13:28:55Z</time>
      </trkpt>
      <trkpt lat="39.778374982997775" lon="-3.479411993175745">
        <ele>696.29999999999995</ele>
        <time>2003-04-12T13:28:59Z</time>
      </trkpt>
      <trkpt lat="39.777394970878959" lon="-3.479145029559732">
        <ele>696.10000000000002</ele>
        <time>2003-04-12T13:29:03Z</time>
      </trkpt>
      <trkpt lat="39.776587961241603" lon="-3.479058025404811">
        <ele>696.10000000000002</ele>
        <time>2003-04-12T13:29:06Z</time>
      </trkpt>
      <trkpt lat="39.775450034067035" lon="-3.479119967669249">
        <ele>696</ele>
        <time>2003-04-12T13:29:10Z</time>
      </trkpt>
      <trkpt lat="39.774265000596642" lon="-3.479332029819489">
        <ele>695.79999999999995</ele>
        <time>2003-04-12T13:29:14Z</time>
      </trkpt>
      <trkpt lat="39.773339973762631" lon="-3.479503020644188">
        <ele>694.70000000000005</ele>
        <time>2003-04-12T13:29:16Z</time>
      </trkpt>
      <trkpt lat="39.772387035191059" lon="-3.479663031175733">
        <ele>694.20000000000005</ele>
        <time>2003-04-12T13:29:19Z</time>
      </trkpt>
      <trkpt lat="39.771411968395114" lon="-3.479827987030149">
        <ele>694.10000000000002</ele>
        <time>2003-04-12T13:29:23Z</time>
      </trkpt>
      <trkpt lat="39.770422987639904" lon="-3.479997972026467">
        <ele>694.79999999999995</ele>
        <time>2003-04-12T13:29:26Z</time>
      </trkpt>
      <trkpt lat="39.76942696608603" lon="-3.480159994214773">
        <ele>693.60000000000002</ele>
        <time>2003-04-12T13:29:29Z</time>
      </trkpt>
      <trkpt lat="39.768427005037665" lon="-3.480327967554331">
        <ele>694.5</ele>
        <time>2003-04-12T13:29:31Z</time>
      </trkpt>
      <trkpt lat="39.76742503233254" lon="-3.480497030541301">
        <ele>694.29999999999995</ele>
        <time>2003-04-12T13:29:34Z</time>
      </trkpt>
      <trkpt lat="39.766418030485511" lon="-3.48066701553762">
        <ele>693.60000000000002</ele>
        <time>2003-04-12T13:29:38Z</time>
      </trkpt>
      <trkpt lat="39.765410022810102" lon="-3.480838006362319">
        <ele>693.70000000000005</ele>
        <time>2003-04-12T13:29:41Z</time>
      </trkpt>
      <trkpt lat="39.764406960457563" lon="-3.481004973873496">
        <ele>694.29999999999995</ele>
        <time>2003-04-12T13:29:43Z</time>
      </trkpt>
      <trkpt lat="39.763416973873973" lon="-3.481173031032085">
        <ele>694.20000000000005</ele>
        <time>2003-04-12T13:29:46Z</time>
      </trkpt>
      <trkpt lat="39.762421958148479" lon="-3.48133304156363">
        <ele>691.79999999999995</ele>
        <time>2003-04-12T13:29:50Z</time>
      </trkpt>
      <trkpt lat="39.761447980999947" lon="-3.481502020731568">
        <ele>687.60000000000002</ele>
        <time>2003-04-12T13:29:53Z</time>
      </trkpt>
      <trkpt lat="39.76050702854991" lon="-3.481675023213029">
        <ele>683.79999999999995</ele>
        <time>2003-04-12T13:29:56Z</time>
      </trkpt>
      <trkpt lat="39.759568003937602" lon="-3.481967970728874">
        <ele>681.29999999999995</ele>
        <time>2003-04-12T13:29:58Z</time>
      </trkpt>
      <trkpt lat="39.758608024567366" lon="-3.482305007055402">
        <ele>680.29999999999995</ele>
        <time>2003-04-12T13:30:01Z</time>
      </trkpt>
      <trkpt lat="39.757633041590452" lon="-3.482642965391278">
        <ele>679.60000000000002</ele>
        <time>2003-04-12T13:30:05Z</time>
      </trkpt>
      <trkpt lat="39.756644982844591" lon="-3.482985030859709">
        <ele>678.29999999999995</ele>
        <time>2003-04-12T13:30:08Z</time>
      </trkpt>
      <trkpt lat="39.755649967119098" lon="-3.483330029994249">
        <ele>676.70000000000005</ele>
        <time>2003-04-12T13:30:10Z</time>
      </trkpt>
      <trkpt lat="39.754647994413972" lon="-3.483672011643648">
        <ele>676.60000000000002</ele>
        <time>2003-04-12T13:30:13Z</time>
      </trkpt>
      <trkpt lat="39.753637975081801" lon="-3.484020028263331">
        <ele>674.79999999999995</ele>
        <time>2003-04-12T13:30:17Z</time>
      </trkpt>
      <trkpt lat="39.752607000991702" lon="-3.484365027397871">
        <ele>671.10000000000002</ele>
        <time>2003-04-12T13:30:20Z</time>
      </trkpt>
      <trkpt lat="39.751554988324642" lon="-3.484723018482328">
        <ele>667.5</ele>
        <time>2003-04-12T13:30:23Z</time>
      </trkpt>
      <trkpt lat="39.75049702450633" lon="-3.485087966546416">
        <ele>665.70000000000005</ele>
        <time>2003-04-12T13:30:25Z</time>
      </trkpt>
      <trkpt lat="39.749435037374496" lon="-3.485451992601156">
        <ele>663.70000000000005</ele>
        <time>2003-04-12T13:30:28Z</time>
      </trkpt>
      <trkpt lat="39.748374978080392" lon="-3.485815012827516">
        <ele>662</ele>
        <time>2003-04-12T13:30:32Z</time>
      </trkpt>
      <trkpt lat="39.747322965413332" lon="-3.486182978376746">
        <ele>662.10000000000002</ele>
        <time>2003-04-12T13:30:35Z</time>
      </trkpt>
      <trkpt lat="39.7462850343436" lon="-3.486547004431486">
        <ele>663.79999999999995</ele>
        <time>2003-04-12T13:30:37Z</time>
      </trkpt>
      <trkpt lat="39.74525498226285" lon="-3.48689703270793">
        <ele>665.60000000000002</ele>
        <time>2003-04-12T13:30:40Z</time>
      </trkpt>
      <trkpt lat="39.744237000122666" lon="-3.487247982993722">
        <ele>667.39999999999998</ele>
        <time>2003-04-12T13:30:44Z</time>
      </trkpt>
      <trkpt lat="39.743222035467625" lon="-3.487597005441785">
        <ele>667.5</ele>
        <time>2003-04-12T13:30:47Z</time>
      </trkpt>
      <trkpt lat="39.742198018357158" lon="-3.4879519790411">
        <ele>665.70000000000005</ele>
        <time>2003-04-12T13:30:50Z</time>
      </trkpt>
      <trkpt lat="39.741190010681748" lon="-3.488299995660782">
        <ele>667.89999999999998</ele>
        <time>2003-04-12T13:30:52Z</time>
      </trkpt>
      <trkpt lat="39.740187032148242" lon="-3.488641977310181">
        <ele>670.29999999999995</ele>
        <time>2003-04-12T13:30:55Z</time>
      </trkpt>
      <trkpt lat="39.739177012816072" lon="-3.488952023908496">
        <ele>670</ele>
        <time>2003-04-12T13:30:59Z</time>
      </trkpt>
      <trkpt lat="39.738128017634153" lon="-3.489228039979935">
        <ele>667.29999999999995</ele>
        <time>2003-04-12T13:31:02Z</time>
      </trkpt>
      <trkpt lat="39.737056978046894" lon="-3.489517970010638">
        <ele>664.39999999999998</ele>
        <time>2003-04-12T13:31:04Z</time>
      </trkpt>
      <trkpt lat="39.735977975651622" lon="-3.489803038537502">
        <ele>661.39999999999998</ele>
        <time>2003-04-12T13:31:07Z</time>
      </trkpt>
      <trkpt lat="39.734911965206265" lon="-3.490075031295419">
        <ele>659</ele>
        <time>2003-04-12T13:31:11Z</time>
      </trkpt>
      <trkpt lat="39.733872022479773" lon="-3.490347024053335">
        <ele>657.10000000000002</ele>
        <time>2003-04-12T13:31:14Z</time>
      </trkpt>
      <trkpt lat="39.732850017026067" lon="-3.490605019032955">
        <ele>655.89999999999998</ele>
        <time>2003-04-12T13:31:17Z</time>
      </trkpt>
      <trkpt lat="39.731834968551993" lon="-3.490863014012575">
        <ele>655</ele>
        <time>2003-04-12T13:31:19Z</time>
      </trkpt>
      <trkpt lat="39.730827966704965" lon="-3.491117991507053">
        <ele>654</ele>
        <time>2003-04-12T13:31:22Z</time>
      </trkpt>
      <trkpt lat="39.729826999828219" lon="-3.491372969001532">
        <ele>653.20000000000005</ele>
        <time>2003-04-12T13:31:26Z</time>
      </trkpt>
      <trkpt lat="39.728825027123094" lon="-3.491636998951435">
        <ele>652.39999999999998</ele>
        <time>2003-04-12T13:31:29Z</time>
      </trkpt>
      <trkpt lat="39.727818025276065" lon="-3.491888036951423">
        <ele>651.79999999999995</ele>
        <time>2003-04-12T13:31:31Z</time>
      </trkpt>
      <trkpt lat="39.726810017600656" lon="-3.492133039981127">
        <ele>651</ele>
        <time>2003-04-12T13:31:34Z</time>
      </trkpt>
      <trkpt lat="39.725799998268485" lon="-3.49237997084856">
        <ele>650.10000000000002</ele>
        <time>2003-04-12T13:31:38Z</time>
      </trkpt>
      <trkpt lat="39.724789978936315" lon="-3.492632014676929">
        <ele>649.60000000000002</ele>
        <time>2003-04-12T13:31:41Z</time>
      </trkpt>
      <trkpt lat="39.723779959604144" lon="-3.49287299439311">
        <ele>649.5</ele>
        <time>2003-04-12T13:31:44Z</time>
      </trkpt>
      <trkpt lat="39.722785027697682" lon="-3.49312998354435">
        <ele>650.20000000000005</ele>
        <time>2003-04-12T13:31:46Z</time>
      </trkpt>
      <trkpt lat="39.721850026398897" lon="-3.493367023766041">
        <ele>651.5</ele>
        <time>2003-04-12T13:31:49Z</time>
      </trkpt>
      <trkpt lat="39.720904966816306" lon="-3.49360004067421">
        <ele>653.39999999999998</ele>
        <time>2003-04-12T13:31:53Z</time>
      </trkpt>
      <trkpt lat="39.719962002709508" lon="-3.493844959884882">
        <ele>656.10000000000002</ele>
        <time>2003-04-12T13:31:56Z</time>
      </trkpt>
      <trkpt lat="39.7190229780972" lon="-3.49409700371325">
        <ele>658.5</ele>
        <time>2003-04-12T13:31:58Z</time>
      </trkpt>
      <trkpt lat="39.718092000111938" lon="-3.494358016178012">
        <ele>659.10000000000002</ele>
        <time>2003-04-12T13:32:01Z</time>
      </trkpt>
      <trkpt lat="39.717135038226843" lon="-3.494605030864477">
        <ele>657.79999999999995</ele>
        <time>2003-04-12T13:32:05Z</time>
      </trkpt>
      <trkpt lat="39.716146979480982" lon="-3.494860008358955">
        <ele>654.5</ele>
        <time>2003-04-12T13:32:08Z</time>
      </trkpt>
      <trkpt lat="39.715137965977192" lon="-3.495118003338575">
        <ele>652.5</ele>
        <time>2003-04-12T13:32:11Z</time>
      </trkpt>
      <trkpt lat="39.714136999100447" lon="-3.495374992489815">
        <ele>652.29999999999995</ele>
        <time>2003-04-12T13:32:13Z</time>
      </trkpt>
      <trkpt lat="39.713139971718192" lon="-3.495629969984293">
        <ele>651.79999999999995</ele>
        <time>2003-04-12T13:32:16Z</time>
      </trkpt>
      <trkpt lat="39.712143028154969" lon="-3.495883019641042">
        <ele>651.39999999999998</ele>
        <time>2003-04-12T13:32:20Z</time>
      </trkpt>
      <trkpt lat="39.711150024086237" lon="-3.496136991307139">
        <ele>650.79999999999995</ele>
        <time>2003-04-12T13:32:23Z</time>
      </trkpt>
      <trkpt lat="39.710149979218841" lon="-3.496385011821985">
        <ele>649.60000000000002</ele>
        <time>2003-04-12T13:32:25Z</time>
      </trkpt>
      <trkpt lat="39.709135014563799" lon="-3.496647030115128">
        <ele>646.10000000000002</ele>
        <time>2003-04-12T13:32:28Z</time>
      </trkpt>
      <trkpt lat="39.70810797996819" lon="-3.496897984296084">
        <ele>643.39999999999998</ele>
        <time>2003-04-12T13:32:32Z</time>
      </trkpt>
      <trkpt lat="39.707082035019994" lon="-3.497157990932465">
        <ele>641.29999999999995</ele>
        <time>2003-04-12T13:32:35Z</time>
      </trkpt>
      <trkpt lat="39.706060029566288" lon="-3.497426966205239">
        <ele>640</ele>
        <time>2003-04-12T13:32:38Z</time>
      </trkpt>
      <trkpt lat="39.705044981092215" lon="-3.497680015861988">
        <ele>639.29999999999995</ele>
        <time>2003-04-12T13:32:40Z</time>
      </trkpt>
      <trkpt lat="39.704047031700611" lon="-3.497937005013228">
        <ele>639.29999999999995</ele>
        <time>2003-04-12T13:32:43Z</time>
      </trkpt>
      <trkpt lat="39.703052015975118" lon="-3.498185025528073">
        <ele>639.20000000000005</ele>
        <time>2003-04-12T13:32:47Z</time>
      </trkpt>
      <trkpt lat="39.702058006078005" lon="-3.498432040214539">
        <ele>639</ele>
        <time>2003-04-12T13:32:50Z</time>
      </trkpt>
      <trkpt lat="39.701067013666034" lon="-3.498642006888986">
        <ele>639.10000000000002</ele>
        <time>2003-04-12T13:32:52Z</time>
      </trkpt>
      <trkpt lat="39.700065040960908" lon="-3.498745020478964">
        <ele>639.10000000000002</ele>
        <time>2003-04-12T13:32:55Z</time>
      </trkpt>
      <trkpt lat="39.69908201135695" lon="-3.498690035194159">
        <ele>639</ele>
        <time>2003-04-12T13:32:59Z</time>
      </trkpt>
      <trkpt lat="39.698086995631456" lon="-3.498491970822215">
        <ele>639</ele>
        <time>2003-04-12T13:33:02Z</time>
      </trkpt>
      <trkpt lat="39.697102038189769" lon="-3.498177984729409">
        <ele>639.20000000000005</ele>
        <time>2003-04-12T13:33:05Z</time>
      </trkpt>
      <trkpt lat="39.696157984435558" lon="-3.497761990875006">
        <ele>639.5</ele>
        <time>2003-04-12T13:33:07Z</time>
      </trkpt>
      <trkpt lat="39.695252990350127" lon="-3.497408023104072">
        <ele>639.60000000000002</ele>
        <time>2003-04-12T13:33:10Z</time>
      </trkpt>
      <trkpt lat="39.694325029850006" lon="-3.497171988710761">
        <ele>639.60000000000002</ele>
        <time>2003-04-12T13:33:14Z</time>
      </trkpt>
      <trkpt lat="39.693384999409318" lon="-3.497129995375872">
        <ele>639.89999999999998</ele>
        <time>2003-04-12T13:33:17Z</time>
      </trkpt>
      <trkpt lat="39.69246500171721" lon="-3.497252035886049">
        <ele>640.29999999999995</ele>
        <time>2003-04-12T13:33:19Z</time>
      </trkpt>
      <trkpt lat="39.691580040380359" lon="-3.497508019208908">
        <ele>640.70000000000005</ele>
        <time>2003-04-12T13:33:22Z</time>
      </trkpt>
      <trkpt lat="39.691018033772707" lon="-3.497765008360148">
        <ele>641</ele>
        <time>2003-04-12T13:33:25Z</time>
      </trkpt>
      <trkpt lat="39.689942970871925" lon="-3.498440003022552">
        <ele>642</ele>
        <time>2003-04-12T13:33:29Z</time>
      </trkpt>
      <trkpt lat="39.689207961782813" lon="-3.499093037098646">
        <ele>643</ele>
        <time>2003-04-12T13:33:32Z</time>
      </trkpt>
      <trkpt lat="39.688330041244626" lon="-3.500010017305613">
        <ele>644.20000000000005</ele>
        <time>2003-04-12T13:33:36Z</time>
      </trkpt>
      <trkpt lat="39.687426974996924" lon="-3.500903025269508">
        <ele>645.89999999999998</ele>
        <time>2003-04-12T13:33:40Z</time>
      </trkpt>
      <trkpt lat="39.686502031981945" lon="-3.501810031011701">
        <ele>647.10000000000002</ele>
        <time>2003-04-12T13:33:44Z</time>
      </trkpt>
      <trkpt lat="39.685614975169301" lon="-3.502702033147216">
        <ele>648.39999999999998</ele>
        <time>2003-04-12T13:33:48Z</time>
      </trkpt>
      <trkpt lat="39.68473001383245" lon="-3.503588000312448">
        <ele>649.10000000000002</ele>
        <time>2003-04-12T13:33:52Z</time>
      </trkpt>
      <trkpt lat="39.683880005031824" lon="-3.504438009113073">
        <ele>650.89999999999998</ele>
        <time>2003-04-12T13:33:56Z</time>
      </trkpt>
      <trkpt lat="39.683023039251566" lon="-3.505230015143752">
        <ele>653.20000000000005</ele>
        <time>2003-04-12T13:34:00Z</time>
      </trkpt>
      <trkpt lat="39.682082002982497" lon="-3.505835020914674">
        <ele>655</ele>
        <time>2003-04-12T13:34:04Z</time>
      </trkpt>
      <trkpt lat="39.681038036942482" lon="-3.506280016154051">
        <ele>656.60000000000002</ele>
        <time>2003-04-12T13:34:08Z</time>
      </trkpt>
      <trkpt lat="39.67994000762701" lon="-3.50670799612999">
        <ele>657.89999999999998</ele>
        <time>2003-04-12T13:34:12Z</time>
      </trkpt>
      <trkpt lat="39.67880199663341" lon="-3.507139999419451">
        <ele>659.20000000000005</ele>
        <time>2003-04-12T13:34:16Z</time>
      </trkpt>
      <trkpt lat="39.677647976204753" lon="-3.507577031850815">
        <ele>662.10000000000002</ele>
        <time>2003-04-12T13:34:20Z</time>
      </trkpt>
      <trkpt lat="39.676765026524663" lon="-3.50791197270155">
        <ele>663.39999999999998</ele>
        <time>2003-04-12T13:34:23Z</time>
      </trkpt>
      <trkpt lat="39.675877969712019" lon="-3.508250014856458">
        <ele>666.29999999999995</ele>
        <time>2003-04-12T13:34:26Z</time>
      </trkpt>
      <trkpt lat="39.674998037517071" lon="-3.508593002334237">
        <ele>669.89999999999998</ele>
        <time>2003-04-12T13:34:28Z</time>
      </trkpt>
      <trkpt lat="39.674112992361188" lon="-3.508936995640397">
        <ele>673</ele>
        <time>2003-04-12T13:34:31Z</time>
      </trkpt>
      <trkpt lat="39.673234988003969" lon="-3.509277971461415">
        <ele>677.10000000000002</ele>
        <time>2003-04-12T13:34:35Z</time>
      </trkpt>
      <trkpt lat="39.672363018617034" lon="-3.509621964767575">
        <ele>681.5</ele>
        <time>2003-04-12T13:34:38Z</time>
      </trkpt>
      <trkpt lat="39.671219978481531" lon="-3.510052962228656">
        <ele>688.89999999999998</ele>
        <time>2003-04-12T13:34:42Z</time>
      </trkpt>
      <trkpt lat="39.670107029378414" lon="-3.510474991053343">
        <ele>696.5</ele>
        <time>2003-04-12T13:34:46Z</time>
      </trkpt>
      <trkpt lat="39.669015035033226" lon="-3.510880004614592">
        <ele>703.10000000000002</ele>
        <time>2003-04-12T13:34:50Z</time>
      </trkpt>
      <trkpt lat="39.667905019596219" lon="-3.511292980983853">
        <ele>705</ele>
        <time>2003-04-12T13:34:54Z</time>
      </trkpt>
      <trkpt lat="39.666728032752872" lon="-3.511602021753788">
        <ele>703.79999999999995</ele>
        <time>2003-04-12T13:34:58Z</time>
      </trkpt>
      <trkpt lat="39.665805017575622" lon="-3.511803019791842">
        <ele>703.70000000000005</ele>
        <time>2003-04-12T13:35:01Z</time>
      </trkpt>
      <trkpt lat="39.664864987134933" lon="-3.512022038921714">
        <ele>704.29999999999995</ele>
        <time>2003-04-12T13:35:03Z</time>
      </trkpt>
      <trkpt lat="39.663914982229471" lon="-3.5122299939394">
        <ele>705.20000000000005</ele>
        <time>2003-04-12T13:35:06Z</time>
      </trkpt>
      <trkpt lat="39.662961959838867" lon="-3.51244498975575">
        <ele>705.20000000000005</ele>
        <time>2003-04-12T13:35:10Z</time>
      </trkpt>
      <trkpt lat="39.661992006003857" lon="-3.512665014714003">
        <ele>705.10000000000002</ele>
        <time>2003-04-12T13:35:13Z</time>
      </trkpt>
      <trkpt lat="39.661018028855324" lon="-3.512880010530353">
        <ele>705.10000000000002</ele>
        <time>2003-04-12T13:35:15Z</time>
      </trkpt>
      <trkpt lat="39.66004497371614" lon="-3.513091988861561">
        <ele>705</ele>
        <time>2003-04-12T13:35:18Z</time>
      </trkpt>
      <trkpt lat="39.659075019881129" lon="-3.513316959142685">
        <ele>705</ele>
        <time>2003-04-12T13:35:22Z</time>
      </trkpt>
      <trkpt lat="39.658106993883848" lon="-3.51354000158608">
        <ele>705.29999999999995</ele>
        <time>2003-04-12T13:35:25Z</time>
      </trkpt>
      <trkpt lat="39.657135028392076" lon="-3.513752985745668">
        <ele>705.5</ele>
        <time>2003-04-12T13:35:28Z</time>
      </trkpt>
      <trkpt lat="39.656161973252892" lon="-3.513972004875541">
        <ele>705.60000000000002</ele>
        <time>2003-04-12T13:35:30Z</time>
      </trkpt>
      <trkpt lat="39.65518799610436" lon="-3.514188006520271">
        <ele>705.70000000000005</ele>
        <time>2003-04-12T13:35:33Z</time>
      </trkpt>
      <trkpt lat="39.65422198176384" lon="-3.514405013993383">
        <ele>705.70000000000005</ele>
        <time>2003-04-12T13:35:37Z</time>
      </trkpt>
      <trkpt lat="39.6532569732517" lon="-3.514622021466494">
        <ele>705.79999999999995</ele>
        <time>2003-04-12T13:35:40Z</time>
      </trkpt>
      <trkpt lat="39.652272015810013" lon="-3.514822013676167">
        <ele>705.89999999999998</ele>
        <time>2003-04-12T13:35:42Z</time>
      </trkpt>
      <trkpt lat="39.651271970942616" lon="-3.51504497230053">
        <ele>705.70000000000005</ele>
        <time>2003-04-12T13:35:45Z</time>
      </trkpt>
      <trkpt lat="39.650252982974052" lon="-3.515262985602021">
        <ele>705.70000000000005</ele>
        <time>2003-04-12T13:35:49Z</time>
      </trkpt>
      <trkpt lat="39.649238018319011" lon="-3.515483010560274">
        <ele>705.70000000000005</ele>
        <time>2003-04-12T13:35:52Z</time>
      </trkpt>
      <trkpt lat="39.648232022300363" lon="-3.515713009983301">
        <ele>705.60000000000002</ele>
        <time>2003-04-12T13:35:55Z</time>
      </trkpt>
      <trkpt lat="39.647219991311431" lon="-3.515936974436045">
        <ele>705.60000000000002</ele>
        <time>2003-04-12T13:35:57Z</time>
      </trkpt>
      <trkpt lat="39.64620703831315" lon="-3.516164962202311">
        <ele>705.39999999999998</ele>
        <time>2003-04-12T13:36:00Z</time>
      </trkpt>
      <trkpt lat="39.645189978182316" lon="-3.516396973282099">
        <ele>705</ele>
        <time>2003-04-12T13:36:04Z</time>
      </trkpt>
      <trkpt lat="39.644169984385371" lon="-3.516632001847029">
        <ele>704.79999999999995</ele>
        <time>2003-04-12T13:36:08Z</time>
      </trkpt>
      <trkpt lat="39.643152002245188" lon="-3.516856972128153">
        <ele>704.5</ele>
        <time>2003-04-12T13:36:11Z</time>
      </trkpt>
      <trkpt lat="39.642135025933385" lon="-3.517084959894419">
        <ele>704.29999999999995</ele>
        <time>2003-04-12T13:36:14Z</time>
      </trkpt>
      <trkpt lat="39.641122994944453" lon="-3.517314959317446">
        <ele>704</ele>
        <time>2003-04-12T13:36:16Z</time>
      </trkpt>
      <trkpt lat="39.640109958127141" lon="-3.517543030902743">
        <ele>704.10000000000002</ele>
        <time>2003-04-12T13:36:19Z</time>
      </trkpt>
      <trkpt lat="39.639098010957241" lon="-3.51777202449739">
        <ele>704</ele>
        <time>2003-04-12T13:36:23Z</time>
      </trkpt>
      <trkpt lat="39.638082962483168" lon="-3.517996994778514">
        <ele>704</ele>
        <time>2003-04-12T13:36:26Z</time>
      </trkpt>
      <trkpt lat="39.637060035020113" lon="-3.51822498254478">
        <ele>704.10000000000002</ele>
        <time>2003-04-12T13:36:28Z</time>
      </trkpt>
      <trkpt lat="39.636069964617491" lon="-3.518456993624568">
        <ele>704.10000000000002</ele>
        <time>2003-04-12T13:36:31Z</time>
      </trkpt>
      <trkpt lat="39.635070003569126" lon="-3.51867500692606">
        <ele>704.20000000000005</ele>
        <time>2003-04-12T13:36:35Z</time>
      </trkpt>
      <trkpt lat="39.634061995893717" lon="-3.518905006349087">
        <ele>704.20000000000005</ele>
        <time>2003-04-12T13:36:38Z</time>
      </trkpt>
      <trkpt lat="39.633043007925153" lon="-3.51912796497345">
        <ele>704.10000000000002</ele>
        <time>2003-04-12T13:36:41Z</time>
      </trkpt>
      <trkpt lat="39.632029971107841" lon="-3.519371962174773">
        <ele>703.29999999999995</ele>
        <time>2003-04-12T13:36:43Z</time>
      </trkpt>
      <trkpt lat="39.631035039201379" lon="-3.519613025709987">
        <ele>703</ele>
        <time>2003-04-12T13:36:46Z</time>
      </trkpt>
      <trkpt lat="39.630038011819124" lon="-3.519837995991111">
        <ele>703.5</ele>
        <time>2003-04-12T13:36:50Z</time>
      </trkpt>
      <trkpt lat="39.629036961123347" lon="-3.520067995414138">
        <ele>703.89999999999998</ele>
        <time>2003-04-12T13:36:53Z</time>
      </trkpt>
      <trkpt lat="39.62803297676146" lon="-3.520297994837165">
        <ele>704.10000000000002</ele>
        <time>2003-04-12T13:36:55Z</time>
      </trkpt>
      <trkpt lat="39.627037039026618" lon="-3.520526988431811">
        <ele>704.20000000000005</ele>
        <time>2003-04-12T13:36:58Z</time>
      </trkpt>
      <trkpt lat="39.626070018857718" lon="-3.520747013390064">
        <ele>704.20000000000005</ele>
        <time>2003-04-12T13:37:02Z</time>
      </trkpt>
      <trkpt lat="39.625141974538565" lon="-3.520953040570021">
        <ele>704</ele>
        <time>2003-04-12T13:37:05Z</time>
      </trkpt>
      <trkpt lat="39.624237986281514" lon="-3.521159989759326">
        <ele>703.70000000000005</ele>
        <time>2003-04-12T13:37:08Z</time>
      </trkpt>
      <trkpt lat="39.623344978317618" lon="-3.521359981968999">
        <ele>703.39999999999998</ele>
        <time>2003-04-12T13:37:10Z</time>
      </trkpt>
      <trkpt lat="39.622439984232187" lon="-3.521567014977336">
        <ele>703.20000000000005</ele>
        <time>2003-04-12T13:37:13Z</time>
      </trkpt>
      <trkpt lat="39.621274983510375" lon="-3.521810006350279">
        <ele>703</ele>
        <time>2003-04-12T13:37:17Z</time>
      </trkpt>
      <trkpt lat="39.620369989424944" lon="-3.521992983296514">
        <ele>703.10000000000002</ele>
        <time>2003-04-12T13:37:21Z</time>
      </trkpt>
      <trkpt lat="39.619440017268062" lon="-3.522202027961612">
        <ele>703.10000000000002</ele>
        <time>2003-04-12T13:37:24Z</time>
      </trkpt>
      <trkpt lat="39.618490012362599" lon="-3.522426998242736">
        <ele>703.10000000000002</ele>
        <time>2003-04-12T13:37:26Z</time>
      </trkpt>
      <trkpt lat="39.617527015507221" lon="-3.522658003494144">
        <ele>703.10000000000002</ele>
        <time>2003-04-12T13:37:29Z</time>
      </trkpt>
      <trkpt lat="39.616550020873547" lon="-3.522890014573932">
        <ele>703.10000000000002</ele>
        <time>2003-04-12T13:37:33Z</time>
      </trkpt>
      <trkpt lat="39.615562967956066" lon="-3.523112973198295">
        <ele>703.20000000000005</ele>
        <time>2003-04-12T13:37:36Z</time>
      </trkpt>
      <trkpt lat="39.614572981372476" lon="-3.52333702147007">
        <ele>703.29999999999995</ele>
        <time>2003-04-12T13:37:39Z</time>
      </trkpt>
      <trkpt lat="39.613582994788885" lon="-3.523561991751194">
        <ele>703.29999999999995</ele>
        <time>2003-04-12T13:37:41Z</time>
      </trkpt>
      <trkpt lat="39.612599965184927" lon="-3.523783022537828">
        <ele>703.39999999999998</ele>
        <time>2003-04-12T13:37:44Z</time>
      </trkpt>
      <trkpt lat="39.611630011349916" lon="-3.524006986990571">
        <ele>703.70000000000005</ele>
        <time>2003-04-12T13:37:48Z</time>
      </trkpt>
      <trkpt lat="39.61069299839437" lon="-3.524212008342147">
        <ele>703.89999999999998</ele>
        <time>2003-04-12T13:37:51Z</time>
      </trkpt>
      <trkpt lat="39.609773000702262" lon="-3.524421975016594">
        <ele>704.20000000000005</ele>
        <time>2003-04-12T13:37:53Z</time>
      </trkpt>
      <trkpt lat="39.608879992738366" lon="-3.52462699636817">
        <ele>704.39999999999998</ele>
        <time>2003-04-12T13:37:56Z</time>
      </trkpt>
      <trkpt lat="39.607967035844922" lon="-3.524835035204887">
        <ele>704.70000000000005</ele>
        <time>2003-04-12T13:38:00Z</time>
      </trkpt>
      <trkpt lat="39.607047960162163" lon="-3.525042990222573">
        <ele>705</ele>
        <time>2003-04-12T13:38:03Z</time>
      </trkpt>
      <trkpt lat="39.606152018532157" lon="-3.525241976603866">
        <ele>705.29999999999995</ele>
        <time>2003-04-12T13:38:06Z</time>
      </trkpt>
      <trkpt lat="39.605263033881783" lon="-3.525433000177145">
        <ele>705.79999999999995</ele>
        <time>2003-04-12T13:38:08Z</time>
      </trkpt>
      <trkpt lat="39.604364996775985" lon="-3.525492008775473">
        <ele>706.79999999999995</ele>
        <time>2003-04-12T13:38:11Z</time>
      </trkpt>
      <trkpt lat="39.603480035439134" lon="-3.525369968265295">
        <ele>709.20000000000005</ele>
        <time>2003-04-12T13:38:15Z</time>
      </trkpt>
      <trkpt lat="39.602906964719296" lon="-3.525203000754118">
        <ele>711.29999999999995</ele>
        <time>2003-04-12T13:38:16Z</time>
      </trkpt>
      <trkpt lat="39.601780017837882" lon="-3.524732021614909">
        <ele>715.79999999999995</ele>
        <time>2003-04-12T13:38:20Z</time>
      </trkpt>
      <trkpt lat="39.600911987945437" lon="-3.524382999166846">
        <ele>716.29999999999995</ele>
        <time>2003-04-12T13:38:23Z</time>
      </trkpt>
      <trkpt lat="39.600028032436967" lon="-3.524027019739151">
        <ele>715.70000000000005</ele>
        <time>2003-04-12T13:38:27Z</time>
      </trkpt>
      <trkpt lat="39.599126977846026" lon="-3.523672968149185">
        <ele>714.79999999999995</ele>
        <time>2003-04-12T13:38:30Z</time>
      </trkpt>
      <trkpt lat="39.598249979317188" lon="-3.523320006206632">
        <ele>713.70000000000005</ele>
        <time>2003-04-12T13:38:33Z</time>
      </trkpt>
      <trkpt lat="39.597138036042452" lon="-3.522884985432029">
        <ele>712.5</ele>
        <time>2003-04-12T13:38:37Z</time>
      </trkpt>
      <trkpt lat="39.596021985635161" lon="-3.522430015727878">
        <ele>713.60000000000002</ele>
        <time>2003-04-12T13:38:41Z</time>
      </trkpt>
      <trkpt lat="39.59490199573338" lon="-3.521994994953275">
        <ele>716.79999999999995</ele>
        <time>2003-04-12T13:38:45Z</time>
      </trkpt>
      <trkpt lat="39.593774965032935" lon="-3.521602973341942">
        <ele>719.60000000000002</ele>
        <time>2003-04-12T13:38:49Z</time>
      </trkpt>
      <trkpt lat="39.592608036473393" lon="-3.521208018064499">
        <ele>717.89999999999998</ele>
        <time>2003-04-12T13:38:53Z</time>
      </trkpt>
      <trkpt lat="39.591706981882453" lon="-3.520907023921609">
        <ele>716.89999999999998</ele>
        <time>2003-04-12T13:38:56Z</time>
      </trkpt>
      <trkpt lat="39.590812968090177" lon="-3.520605023950338">
        <ele>715.39999999999998</ele>
        <time>2003-04-12T13:38:58Z</time>
      </trkpt>
      <trkpt lat="39.589661965146661" lon="-3.520215013995767">
        <ele>713.29999999999995</ele>
        <time>2003-04-12T13:39:02Z</time>
      </trkpt>
      <trkpt lat="39.588782032951713" lon="-3.519925000146031">
        <ele>712.5</ele>
        <time>2003-04-12T13:39:05Z</time>
      </trkpt>
      <trkpt lat="39.58787796087563" lon="-3.51962199434638">
        <ele>712.10000000000002</ele>
        <time>2003-04-12T13:39:09Z</time>
      </trkpt>
      <trkpt lat="39.586953017860651" lon="-3.519304990768433">
        <ele>711.79999999999995</ele>
        <time>2003-04-12T13:39:12Z</time>
      </trkpt>
      <trkpt lat="39.586003012955189" lon="-3.518982036039233">
        <ele>711.5</ele>
        <time>2003-04-12T13:39:14Z</time>
      </trkpt>
      <trkpt lat="39.585046973079443" lon="-3.518652962520719">
        <ele>711.20000000000005</ele>
        <time>2003-04-12T13:39:17Z</time>
      </trkpt>
      <trkpt lat="39.584080036729574" lon="-3.518327996134758">
        <ele>710.79999999999995</ele>
        <time>2003-04-12T13:39:21Z</time>
      </trkpt>
      <trkpt lat="39.583112010732293" lon="-3.518005041405559">
        <ele>710.39999999999998</ele>
        <time>2003-04-12T13:39:24Z</time>
      </trkpt>
      <trkpt lat="39.582150019705296" lon="-3.517682002857328">
        <ele>709</ele>
        <time>2003-04-12T13:39:27Z</time>
      </trkpt>
      <trkpt lat="39.581181993708014" lon="-3.5173449665308">
        <ele>706.79999999999995</ele>
        <time>2003-04-12T13:39:29Z</time>
      </trkpt>
      <trkpt lat="39.580197036266327" lon="-3.517022011801601">
        <ele>704.5</ele>
        <time>2003-04-12T13:39:32Z</time>
      </trkpt>
      <trkpt lat="39.579209983348846" lon="-3.516682963818312">
        <ele>702.10000000000002</ele>
        <time>2003-04-12T13:39:36Z</time>
      </trkpt>
      <trkpt lat="39.578227959573269" lon="-3.516354979947209">
        <ele>699.89999999999998</ele>
        <time>2003-04-12T13:39:39Z</time>
      </trkpt>
      <trkpt lat="39.577247025445104" lon="-3.516030013561249">
        <ele>697.60000000000002</ele>
        <time>2003-04-12T13:39:41Z</time>
      </trkpt>
      <trkpt lat="39.576247986406088" lon="-3.515689959749579">
        <ele>696.79999999999995</ele>
        <time>2003-04-12T13:39:44Z</time>
      </trkpt>
      <trkpt lat="39.575251964852214" lon="-3.515347978100181">
        <ele>698.5</ele>
        <time>2003-04-12T13:39:48Z</time>
      </trkpt>
      <trkpt lat="39.574262984097004" lon="-3.515019994229078">
        <ele>700</ele>
        <time>2003-04-12T13:39:51Z</time>
      </trkpt>
      <trkpt lat="39.573296969756484" lon="-3.514699973165989">
        <ele>701.60000000000002</ele>
        <time>2003-04-12T13:39:54Z</time>
      </trkpt>
      <trkpt lat="39.572334978729486" lon="-3.514375006780028">
        <ele>703.29999999999995</ele>
        <time>2003-04-12T13:39:56Z</time>
      </trkpt>
      <trkpt lat="39.571386985480785" lon="-3.514160010963678">
        <ele>704</ele>
        <time>2003-04-12T13:39:59Z</time>
      </trkpt>
      <trkpt lat="39.570427006110549" lon="-3.51409999653697">
        <ele>704.29999999999995</ele>
        <time>2003-04-12T13:40:03Z</time>
      </trkpt>
      <trkpt lat="39.569455040618777" lon="-3.514167973771691">
        <ele>704.39999999999998</ele>
        <time>2003-04-12T13:40:06Z</time>
      </trkpt>
      <trkpt lat="39.568488020449877" lon="-3.514339970424771">
        <ele>704.39999999999998</ele>
        <time>2003-04-12T13:40:08Z</time>
      </trkpt>
      <trkpt lat="39.567514965310693" lon="-3.514520013704896">
        <ele>704.29999999999995</ele>
        <time>2003-04-12T13:40:11Z</time>
      </trkpt>
      <trkpt lat="39.566542999818921" lon="-3.514699973165989">
        <ele>703.89999999999998</ele>
        <time>2003-04-12T13:40:15Z</time>
      </trkpt>
      <trkpt lat="39.565568016842008" lon="-3.514892002567649">
        <ele>703.70000000000005</ele>
        <time>2003-04-12T13:40:18Z</time>
      </trkpt>
      <trkpt lat="39.56458498723805" lon="-3.515076991170645">
        <ele>703.60000000000002</ele>
        <time>2003-04-12T13:40:21Z</time>
      </trkpt>
      <trkpt lat="39.56359701231122" lon="-3.515253011137247">
        <ele>703.5</ele>
        <time>2003-04-12T13:40:23Z</time>
      </trkpt>
      <trkpt lat="39.562603002414107" lon="-3.515434982255101">
        <ele>703.29999999999995</ele>
        <time>2003-04-12T13:40:26Z</time>
      </trkpt>
      <trkpt lat="39.561609998345375" lon="-3.515619970858097">
        <ele>703.39999999999998</ele>
        <time>2003-04-12T13:40:30Z</time>
      </trkpt>
      <trkpt lat="39.560616994276643" lon="-3.515800014138222">
        <ele>703.5</ele>
        <time>2003-04-12T13:40:33Z</time>
      </trkpt>
      <trkpt lat="39.559613009914756" lon="-3.515977039933205">
        <ele>703.70000000000005</ele>
        <time>2003-04-12T13:40:35Z</time>
      </trkpt>
      <trkpt lat="39.558607013896108" lon="-3.516167979687452">
        <ele>703.60000000000002</ele>
        <time>2003-04-12T13:40:38Z</time>
      </trkpt>
      <trkpt lat="39.557598000392318" lon="-3.516351962462068">
        <ele>703.39999999999998</ele>
        <time>2003-04-12T13:40:42Z</time>
      </trkpt>
      <trkpt lat="39.556589992716908" lon="-3.516533011570573">
        <ele>703.5</ele>
        <time>2003-04-12T13:40:45Z</time>
      </trkpt>
      <trkpt lat="39.555579973384738" lon="-3.516712971031666">
        <ele>703.29999999999995</ele>
        <time>2003-04-12T13:40:48Z</time>
      </trkpt>
      <trkpt lat="39.554568026214838" lon="-3.516897959634662">
        <ele>703.29999999999995</ele>
        <time>2003-04-12T13:40:50Z</time>
      </trkpt>
      <trkpt lat="39.553557001054287" lon="-3.517080014571548">
        <ele>703</ele>
        <time>2003-04-12T13:40:53Z</time>
      </trkpt>
      <trkpt lat="39.552546981722116" lon="-3.517265003174543">
        <ele>702.5</ele>
        <time>2003-04-12T13:40:57Z</time>
      </trkpt>
      <trkpt lat="39.551533022895455" lon="-3.517449991777539">
        <ele>702</ele>
        <time>2003-04-12T13:41:00Z</time>
      </trkpt>
      <trkpt lat="39.550515040755272" lon="-3.517647972330451">
        <ele>699.79999999999995</ele>
        <time>2003-04-12T13:41:02Z</time>
      </trkpt>
      <trkpt lat="39.549490017816424" lon="-3.517851987853646">
        <ele>699.20000000000005</ele>
        <time>2003-04-12T13:41:05Z</time>
      </trkpt>
      <trkpt lat="39.548476980999112" lon="-3.518051980063319">
        <ele>700.79999999999995</ele>
        <time>2003-04-12T13:41:09Z</time>
      </trkpt>
      <trkpt lat="39.547471990808845" lon="-3.51824501529336">
        <ele>701.70000000000005</ele>
        <time>2003-04-12T13:41:12Z</time>
      </trkpt>
      <trkpt lat="39.546468006446958" lon="-3.518422963097692">
        <ele>701.70000000000005</ele>
        <time>2003-04-12T13:41:15Z</time>
      </trkpt>
      <trkpt lat="39.545467961579561" lon="-3.518599988892674">
        <ele>701.70000000000005</ele>
        <time>2003-04-12T13:41:17Z</time>
      </trkpt>
      <trkpt lat="39.544470012187958" lon="-3.518782965838909">
        <ele>701.20000000000005</ele>
        <time>2003-04-12T13:41:20Z</time>
      </trkpt>
      <trkpt lat="39.543495029211044" lon="-3.518957979977131">
        <ele>700.29999999999995</ele>
        <time>2003-04-12T13:41:24Z</time>
      </trkpt>
      <trkpt lat="39.54251803457737" lon="-3.519138023257256">
        <ele>698.29999999999995</ele>
        <time>2003-04-12T13:41:27Z</time>
      </trkpt>
      <trkpt lat="39.541561994701624" lon="-3.519313037395477">
        <ele>695.39999999999998</ele>
        <time>2003-04-12T13:41:29Z</time>
      </trkpt>
      <trkpt lat="39.540624981746078" lon="-3.519482016563416">
        <ele>692.39999999999998</ele>
        <time>2003-04-12T13:41:32Z</time>
      </trkpt>
      <trkpt lat="39.539731973782182" lon="-3.519640015438199">
        <ele>692.79999999999995</ele>
        <time>2003-04-12T13:41:36Z</time>
      </trkpt>
      <trkpt lat="39.538562027737498" lon="-3.519822992384434">
        <ele>695.39999999999998</ele>
        <time>2003-04-12T13:41:40Z</time>
      </trkpt>
      <trkpt lat="39.537422005087137" lon="-3.520027007907629">
        <ele>698.60000000000002</ele>
        <time>2003-04-12T13:41:43Z</time>
      </trkpt>
      <trkpt lat="39.536248035728931" lon="-3.520234962925315">
        <ele>702.39999999999998</ele>
        <time>2003-04-12T13:41:47Z</time>
      </trkpt>
      <trkpt lat="39.535349998623133" lon="-3.520396985113621">
        <ele>705.10000000000002</ele>
        <time>2003-04-12T13:41:51Z</time>
      </trkpt>
      <trkpt lat="39.534448022022843" lon="-3.52056697010994">
        <ele>708</ele>
        <time>2003-04-12T13:41:54Z</time>
      </trkpt>
      <trkpt lat="39.533540010452271" lon="-3.520727986469865">
        <ele>710.70000000000005</ele>
        <time>2003-04-12T13:41:56Z</time>
      </trkpt>
      <trkpt lat="39.532616995275021" lon="-3.520895037800074">
        <ele>711.5</ele>
        <time>2003-04-12T13:41:59Z</time>
      </trkpt>
      <trkpt lat="39.53171200118959" lon="-3.521054964512587">
        <ele>712.60000000000002</ele>
        <time>2003-04-12T13:42:03Z</time>
      </trkpt>
      <trkpt lat="39.530817987397313" lon="-3.521220004186034">
        <ele>713.70000000000005</ele>
        <time>2003-04-12T13:42:06Z</time>
      </trkpt>
      <trkpt lat="39.529664972797036" lon="-3.521438017487526">
        <ele>713</ele>
        <time>2003-04-12T13:42:10Z</time>
      </trkpt>
      <trkpt lat="39.52848999761045" lon="-3.521674973890185">
        <ele>710.20000000000005</ele>
        <time>2003-04-12T13:42:14Z</time>
      </trkpt>
      <trkpt lat="39.527582991868258" lon="-3.521853005513549">
        <ele>709</ele>
        <time>2003-04-12T13:42:17Z</time>
      </trkpt>
      <trkpt lat="39.526656959205866" lon="-3.52204998023808">
        <ele>707.39999999999998</ele>
        <time>2003-04-12T13:42:19Z</time>
      </trkpt>
      <trkpt lat="39.525711983442307" lon="-3.522252989932895">
        <ele>705.5</ele>
        <time>2003-04-12T13:42:22Z</time>
      </trkpt>
      <trkpt lat="39.52475200407207" lon="-3.522454993799329">
        <ele>704.29999999999995</ele>
        <time>2003-04-12T13:42:26Z</time>
      </trkpt>
      <trkpt lat="39.52378498390317" lon="-3.522675018757582">
        <ele>702.79999999999995</ele>
        <time>2003-04-12T13:42:29Z</time>
      </trkpt>
      <trkpt lat="39.522813018411398" lon="-3.52290702983737">
        <ele>701.79999999999995</ele>
        <time>2003-04-12T13:42:32Z</time>
      </trkpt>
      <trkpt lat="39.521841974928975" lon="-3.52312202565372">
        <ele>700.60000000000002</ele>
        <time>2003-04-12T13:42:34Z</time>
      </trkpt>
      <trkpt lat="39.520866991952062" lon="-3.52331698872149">
        <ele>700.29999999999995</ele>
        <time>2003-04-12T13:42:37Z</time>
      </trkpt>
      <trkpt lat="39.519893014803529" lon="-3.523514969274402">
        <ele>700</ele>
        <time>2003-04-12T13:42:41Z</time>
      </trkpt>
      <trkpt lat="39.518915014341474" lon="-3.523708004504442">
        <ele>699.70000000000005</ele>
        <time>2003-04-12T13:42:44Z</time>
      </trkpt>
      <trkpt lat="39.517931984737515" lon="-3.523902967572212">
        <ele>699.5</ele>
        <time>2003-04-12T13:42:46Z</time>
      </trkpt>
      <trkpt lat="39.516947027295828" lon="-3.524098014459014">
        <ele>699.29999999999995</ele>
        <time>2003-04-12T13:42:49Z</time>
      </trkpt>
      <trkpt lat="39.515959974378347" lon="-3.524294989183545">
        <ele>699.10000000000002</ele>
        <time>2003-04-12T13:42:53Z</time>
      </trkpt>
      <trkpt lat="39.514973005279899" lon="-3.524506967514753">
        <ele>698.89999999999998</ele>
        <time>2003-04-12T13:42:56Z</time>
      </trkpt>
      <trkpt lat="39.513992993161082" lon="-3.524717018008232">
        <ele>698.89999999999998</ele>
        <time>2003-04-12T13:42:59Z</time>
      </trkpt>
      <trkpt lat="39.513017004355788" lon="-3.524918016046286">
        <ele>699</ele>
        <time>2003-04-12T13:43:01Z</time>
      </trkpt>
      <trkpt lat="39.512058030813932" lon="-3.525088001042604">
        <ele>698.89999999999998</ele>
        <time>2003-04-12T13:43:04Z</time>
      </trkpt>
      <trkpt lat="39.511102996766567" lon="-3.525263015180826">
        <ele>698.79999999999995</ele>
        <time>2003-04-12T13:43:08Z</time>
      </trkpt>
      <trkpt lat="39.510162966325879" lon="-3.525442974641919">
        <ele>699.10000000000002</ele>
        <time>2003-04-12T13:43:11Z</time>
      </trkpt>
      <trkpt lat="39.509214973077178" lon="-3.525627041235566">
        <ele>699.10000000000002</ele>
        <time>2003-04-12T13:43:13Z</time>
      </trkpt>
      <trkpt lat="39.508257005363703" lon="-3.525812029838562">
        <ele>699.29999999999995</ele>
        <time>2003-04-12T13:43:16Z</time>
      </trkpt>
      <trkpt lat="39.507291996851563" lon="-3.525998024269939">
        <ele>699.29999999999995</ele>
        <time>2003-04-12T13:43:20Z</time>
      </trkpt>
      <trkpt lat="39.506336962804198" lon="-3.526187036186457">
        <ele>699.29999999999995</ele>
        <time>2003-04-12T13:43:23Z</time>
      </trkpt>
      <trkpt lat="39.505395004525781" lon="-3.52636699564755">
        <ele>699.29999999999995</ele>
        <time>2003-04-12T13:43:26Z</time>
      </trkpt>
      <trkpt lat="39.504466960206628" lon="-3.526542009785771">
        <ele>699.29999999999995</ele>
        <time>2003-04-12T13:43:28Z</time>
      </trkpt>
      <trkpt lat="39.503555009141564" lon="-3.526720041409135">
        <ele>699.79999999999995</ele>
        <time>2003-04-12T13:43:31Z</time>
      </trkpt>
      <trkpt lat="39.502646997570992" lon="-3.526897989213467">
        <ele>699.79999999999995</ele>
        <time>2003-04-12T13:43:35Z</time>
      </trkpt>
      <trkpt lat="39.501728005707264" lon="-3.527082977816463">
        <ele>699.5</ele>
        <time>2003-04-12T13:43:38Z</time>
      </trkpt>
      <trkpt lat="39.500798033550382" lon="-3.527266960591078">
        <ele>699.29999999999995</ele>
        <time>2003-04-12T13:43:40Z</time>
      </trkpt>
      <trkpt lat="39.499854985624552" lon="-3.527450021356344">
        <ele>699.39999999999998</ele>
        <time>2003-04-12T13:43:43Z</time>
      </trkpt>
      <trkpt lat="39.498916966840625" lon="-3.527622018009424">
        <ele>700.10000000000002</ele>
        <time>2003-04-12T13:43:47Z</time>
      </trkpt>
      <trkpt lat="39.497977020218968" lon="-3.527712039649487">
        <ele>700.10000000000002</ele>
        <time>2003-04-12T13:43:50Z</time>
      </trkpt>
      <trkpt lat="39.497028021141887" lon="-3.527650013566017">
        <ele>700.10000000000002</ele>
        <time>2003-04-12T13:43:53Z</time>
      </trkpt>
      <trkpt lat="39.496086984872818" lon="-3.527439963072538">
        <ele>700.29999999999995</ele>
        <time>2003-04-12T13:43:55Z</time>
      </trkpt>
      <trkpt lat="39.495143014937639" lon="-3.527193032205105">
        <ele>700.60000000000002</ele>
        <time>2003-04-12T13:43:58Z</time>
      </trkpt>
      <trkpt lat="39.494189992547035" lon="-3.526948029175401">
        <ele>700.79999999999995</ele>
        <time>2003-04-12T13:44:02Z</time>
      </trkpt>
      <trkpt lat="39.493237975984812" lon="-3.526706965640187">
        <ele>701</ele>
        <time>2003-04-12T13:44:05Z</time>
      </trkpt>
      <trkpt lat="39.492276990786195" lon="-3.526477972045541">
        <ele>700.70000000000005</ele>
        <time>2003-04-12T13:44:07Z</time>
      </trkpt>
      <trkpt lat="39.49132296256721" lon="-3.526312010362744">
        <ele>700.39999999999998</ele>
        <time>2003-04-12T13:44:10Z</time>
      </trkpt>
      <trkpt lat="39.490387039259076" lon="-3.526183012872934">
        <ele>700.10000000000002</ele>
        <time>2003-04-12T13:44:14Z</time>
      </trkpt>
      <trkpt lat="39.489217009395361" lon="-3.526034988462925">
        <ele>700.10000000000002</ele>
        <time>2003-04-12T13:44:18Z</time>
      </trkpt>
      <trkpt lat="39.488068018108606" lon="-3.525882018730044">
        <ele>700.5</ele>
        <time>2003-04-12T13:44:22Z</time>
      </trkpt>
      <trkpt lat="39.487156989052892" lon="-3.525756960734725">
        <ele>700.20000000000005</ele>
        <time>2003-04-12T13:44:25Z</time>
      </trkpt>
      <trkpt lat="39.486216958612204" lon="-3.525638021528721">
        <ele>699.70000000000005</ele>
        <time>2003-04-12T13:44:28Z</time>
      </trkpt>
      <trkpt lat="39.485254967585206" lon="-3.525510029867292">
        <ele>699.60000000000002</ele>
        <time>2003-04-12T13:44:30Z</time>
      </trkpt>
      <trkpt lat="39.484288031235337" lon="-3.525382960215211">
        <ele>699.20000000000005</ele>
        <time>2003-04-12T13:44:33Z</time>
      </trkpt>
      <trkpt lat="39.483317993581295" lon="-3.525253040716052">
        <ele>698.89999999999998</ele>
        <time>2003-04-12T13:44:37Z</time>
      </trkpt>
      <trkpt lat="39.482358014211059" lon="-3.525069979950786">
        <ele>698.60000000000002</ele>
        <time>2003-04-12T13:44:40Z</time>
      </trkpt>
      <trkpt lat="39.48141798377037" lon="-3.524758005514741">
        <ele>698.39999999999998</ele>
        <time>2003-04-12T13:44:42Z</time>
      </trkpt>
      <trkpt lat="39.480507960543036" lon="-3.524275040253997">
        <ele>698.10000000000002</ele>
        <time>2003-04-12T13:44:45Z</time>
      </trkpt>
      <trkpt lat="39.479613024741411" lon="-3.523765001446009">
        <ele>697.79999999999995</ele>
        <time>2003-04-12T13:44:49Z</time>
      </trkpt>
      <trkpt lat="39.478780031204224" lon="-3.523293016478419">
        <ele>697.5</ele>
        <time>2003-04-12T13:44:52Z</time>
      </trkpt>
      <trkpt lat="39.477683007717133" lon="-3.522666972130537">
        <ele>697.29999999999995</ele>
        <time>2003-04-12T13:44:56Z</time>
      </trkpt>
      <trkpt lat="39.476826963946223" lon="-3.522177971899509">
        <ele>697</ele>
        <time>2003-04-12T13:44:59Z</time>
      </trkpt>
      <trkpt lat="39.475942002609372" lon="-3.521676985546947">
        <ele>696.60000000000002</ele>
        <time>2003-04-12T13:45:01Z</time>
      </trkpt>
      <trkpt lat="39.47503499686718" lon="-3.521163007244468">
        <ele>694.70000000000005</ele>
        <time>2003-04-12T13:45:04Z</time>
      </trkpt>
      <trkpt lat="39.474122961983085" lon="-3.52065296843648">
        <ele>692.60000000000002</ele>
        <time>2003-04-12T13:45:08Z</time>
      </trkpt>
      <trkpt lat="39.473204975947738" lon="-3.520134966820478">
        <ele>691</ele>
        <time>2003-04-12T13:45:11Z</time>
      </trkpt>
      <trkpt lat="39.472281960770488" lon="-3.519638003781438">
        <ele>690.29999999999995</ele>
        <time>2003-04-12T13:45:14Z</time>
      </trkpt>
      <trkpt lat="39.471364980563521" lon="-3.519138023257256">
        <ele>689.5</ele>
        <time>2003-04-12T13:45:16Z</time>
      </trkpt>
      <trkpt lat="39.470472978428006" lon="-3.518622033298016">
        <ele>688.79999999999995</ele>
        <time>2003-04-12T13:45:19Z</time>
      </trkpt>
      <trkpt lat="39.469584999606013" lon="-3.518115011975169">
        <ele>688.20000000000005</ele>
        <time>2003-04-12T13:45:23Z</time>
      </trkpt>
      <trkpt lat="39.468706995248795" lon="-3.517649983987212">
        <ele>687.5</ele>
        <time>2003-04-12T13:45:26Z</time>
      </trkpt>
      <trkpt lat="39.467820022255182" lon="-3.517317976802588">
        <ele>686.70000000000005</ele>
        <time>2003-04-12T13:45:28Z</time>
      </trkpt>
      <trkpt lat="39.466915028169751" lon="-3.517137011513114">
        <ele>685.79999999999995</ele>
        <time>2003-04-12T13:45:31Z</time>
      </trkpt>
      <trkpt lat="39.465996958315372" lon="-3.517114967107773">
        <ele>685</ele>
        <time>2003-04-12T13:45:35Z</time>
      </trkpt>
      <trkpt lat="39.46508701890707" lon="-3.517277995124459">
        <ele>684.10000000000002</ele>
        <time>2003-04-12T13:45:38Z</time>
      </trkpt>
      <trkpt lat="39.464201973751187" lon="-3.517570020630956">
        <ele>683.10000000000002</ele>
        <time>2003-04-12T13:45:41Z</time>
      </trkpt>
      <trkpt lat="39.463333021849394" lon="-3.51798802614212">
        <ele>682.29999999999995</ele>
        <time>2003-04-12T13:45:45Z</time>
      </trkpt>
      <trkpt lat="39.462485024705529" lon="-3.518502004444599">
        <ele>681.79999999999995</ele>
        <time>2003-04-12T13:45:46Z</time>
      </trkpt>
      <trkpt lat="39.461665023118258" lon="-3.519120002165437">
        <ele>682.5</ele>
        <time>2003-04-12T13:45:50Z</time>
      </trkpt>
      <trkpt lat="39.460843009874225" lon="-3.519740011543036">
        <ele>682.39999999999998</ele>
        <time>2003-04-12T13:45:53Z</time>
      </trkpt>
      <trkpt lat="39.460014961659908" lon="-3.520360020920634">
        <ele>682.20000000000005</ele>
        <time>2003-04-12T13:45:55Z</time>
      </trkpt>
      <trkpt lat="39.459186997264624" lon="-3.520980030298233">
        <ele>681.89999999999998</ele>
        <time>2003-04-12T13:45:58Z</time>
      </trkpt>
      <trkpt lat="39.458364984020591" lon="-3.521598028019071">
        <ele>681.89999999999998</ele>
        <time>2003-04-12T13:46:02Z</time>
      </trkpt>
      <trkpt lat="39.457322023808956" lon="-3.522360026836395">
        <ele>682.20000000000005</ele>
        <time>2003-04-12T13:46:06Z</time>
      </trkpt>
      <trkpt lat="39.456519959494472" lon="-3.522937959060073">
        <ele>682</ele>
        <time>2003-04-12T13:46:09Z</time>
      </trkpt>
      <trkpt lat="39.455706998705864" lon="-3.523535002022982">
        <ele>681.70000000000005</ele>
        <time>2003-04-12T13:46:12Z</time>
      </trkpt>
      <trkpt lat="39.454890014603734" lon="-3.524152999743819">
        <ele>682.20000000000005</ele>
        <time>2003-04-12T13:46:14Z</time>
      </trkpt>
      <trkpt lat="39.454064983874559" lon="-3.524772003293037">
        <ele>682.10000000000002</ele>
        <time>2003-04-12T13:46:17Z</time>
      </trkpt>
      <trkpt lat="39.453253028914332" lon="-3.525380026549101">
        <ele>683.20000000000005</ele>
        <time>2003-04-12T13:46:21Z</time>
      </trkpt>
      <trkpt lat="39.452433027327061" lon="-3.525949995964766">
        <ele>684.5</ele>
        <time>2003-04-12T13:46:24Z</time>
      </trkpt>
      <trkpt lat="39.451572960242629" lon="-3.526385016739368">
        <ele>686.60000000000002</ele>
        <time>2003-04-12T13:46:26Z</time>
      </trkpt>
      <trkpt lat="39.450665032491088" lon="-3.52668802253902">
        <ele>687.39999999999998</ele>
        <time>2003-04-12T13:46:29Z</time>
      </trkpt>
      <trkpt lat="39.449731959030032" lon="-3.526821965351701">
        <ele>687.60000000000002</ele>
        <time>2003-04-12T13:46:33Z</time>
      </trkpt>
      <trkpt lat="39.44880198687315" lon="-3.526803022250533">
        <ele>687.10000000000002</ele>
        <time>2003-04-12T13:46:37Z</time>
      </trkpt>
      <trkpt lat="39.447873020544648" lon="-3.52662499062717">
        <ele>686.10000000000002</ele>
        <time>2003-04-12T13:46:39Z</time>
      </trkpt>
      <trkpt lat="39.44695302285254" lon="-3.526297006756067">
        <ele>684.20000000000005</ele>
        <time>2003-04-12T13:46:43Z</time>
      </trkpt>
      <trkpt lat="39.446048028767109" lon="-3.525823010131717">
        <ele>684.10000000000002</ele>
        <time>2003-04-12T13:46:44Z</time>
      </trkpt>
      <trkpt lat="39.445138005539775" lon="-3.52529302239418">
        <ele>684.10000000000002</ele>
        <time>2003-04-12T13:46:48Z</time>
      </trkpt>
      <trkpt lat="39.444217002019286" lon="-3.524760017171502">
        <ele>685.5</ele>
        <time>2003-04-12T13:46:52Z</time>
      </trkpt>
      <trkpt lat="39.443291975185275" lon="-3.524242015555501">
        <ele>688.5</ele>
        <time>2003-04-12T13:46:55Z</time>
      </trkpt>
      <trkpt lat="39.442365020513535" lon="-3.523719990625978">
        <ele>691.29999999999995</ele>
        <time>2003-04-12T13:46:57Z</time>
      </trkpt>
      <trkpt lat="39.441443011164665" lon="-3.523190002888441">
        <ele>694.10000000000002</ele>
        <time>2003-04-12T13:47:00Z</time>
      </trkpt>
      <trkpt lat="39.440519995987415" lon="-3.522666972130537">
        <ele>696.89999999999998</ele>
        <time>2003-04-12T13:47:04Z</time>
      </trkpt>
      <trkpt lat="39.439597986638546" lon="-3.522137990221381">
        <ele>698.70000000000005</ele>
        <time>2003-04-12T13:47:07Z</time>
      </trkpt>
      <trkpt lat="39.438680000603199" lon="-3.521617976948619">
        <ele>698.89999999999998</ele>
        <time>2003-04-12T13:47:10Z</time>
      </trkpt>
      <trkpt lat="39.437775006517768" lon="-3.521105004474521">
        <ele>698.20000000000005</ele>
        <time>2003-04-12T13:47:12Z</time>
      </trkpt>
      <trkpt lat="39.43689800798893" lon="-3.520614998415113">
        <ele>697.60000000000002</ele>
        <time>2003-04-12T13:47:15Z</time>
      </trkpt>
      <trkpt lat="39.436002988368273" lon="-3.520162040367723">
        <ele>696.79999999999995</ele>
        <time>2003-04-12T13:47:19Z</time>
      </trkpt>
      <trkpt lat="39.435077961534262" lon="-3.519745040684938">
        <ele>694</ele>
        <time>2003-04-12T13:47:22Z</time>
      </trkpt>
      <trkpt lat="39.434144971892238" lon="-3.519314965233207">
        <ele>689.20000000000005</ele>
        <time>2003-04-12T13:47:24Z</time>
      </trkpt>
      <trkpt lat="39.433207036927342" lon="-3.518920009955764">
        <ele>689.70000000000005</ele>
        <time>2003-04-12T13:47:27Z</time>
      </trkpt>
      <trkpt lat="39.43227999843657" lon="-3.518533017486334">
        <ele>690</ele>
        <time>2003-04-12T13:47:31Z</time>
      </trkpt>
      <trkpt lat="39.431342985481024" lon="-3.518163040280342">
        <ele>689.70000000000005</ele>
        <time>2003-04-12T13:47:34Z</time>
      </trkpt>
      <trkpt lat="39.430404966697097" lon="-3.517785016447306">
        <ele>689.29999999999995</ele>
        <time>2003-04-12T13:47:37Z</time>
      </trkpt>
      <trkpt lat="39.429471977055073" lon="-3.517398023977876">
        <ele>689.39999999999998</ele>
        <time>2003-04-12T13:47:39Z</time>
      </trkpt>
      <trkpt lat="39.428537981584668" lon="-3.517023017629981">
        <ele>689.29999999999995</ele>
        <time>2003-04-12T13:47:42Z</time>
      </trkpt>
      <trkpt lat="39.427602980285883" lon="-3.516641976311803">
        <ele>688.89999999999998</ele>
        <time>2003-04-12T13:47:46Z</time>
      </trkpt>
      <trkpt lat="39.42667200230062" lon="-3.516264958307147">
        <ele>689.29999999999995</ele>
        <time>2003-04-12T13:47:49Z</time>
      </trkpt>
      <trkpt lat="39.425746975466609" lon="-3.515888024121523">
        <ele>691.20000000000005</ele>
        <time>2003-04-12T13:47:51Z</time>
      </trkpt>
      <trkpt lat="39.424827983602881" lon="-3.515517963096499">
        <ele>691.70000000000005</ele>
        <time>2003-04-12T13:47:54Z</time>
      </trkpt>
      <trkpt lat="39.423906980082393" lon="-3.515146980062127">
        <ele>692</ele>
        <time>2003-04-12T13:47:58Z</time>
      </trkpt>
      <trkpt lat="39.422984970733523" lon="-3.514772979542613">
        <ele>692.39999999999998</ele>
        <time>2003-04-12T13:48:01Z</time>
      </trkpt>
      <trkpt lat="39.422062039375305" lon="-3.514401996508241">
        <ele>692.70000000000005</ele>
        <time>2003-04-12T13:48:04Z</time>
      </trkpt>
      <trkpt lat="39.421132989227772" lon="-3.514021961018443">
        <ele>692</ele>
        <time>2003-04-12T13:48:06Z</time>
      </trkpt>
      <trkpt lat="39.420192958787084" lon="-3.51364997215569">
        <ele>691.5</ele>
        <time>2003-04-12T13:48:09Z</time>
      </trkpt>
      <trkpt lat="39.419253012165427" lon="-3.513258034363389">
        <ele>690.89999999999998</ele>
        <time>2003-04-12T13:48:13Z</time>
      </trkpt>
      <trkpt lat="39.418312981724739" lon="-3.512882022187114">
        <ele>692.5</ele>
        <time>2003-04-12T13:48:16Z</time>
      </trkpt>
      <trkpt lat="39.417370017617941" lon="-3.512497041374445">
        <ele>692.20000000000005</ele>
        <time>2003-04-12T13:48:18Z</time>
      </trkpt>
      <trkpt lat="39.41640299744904" lon="-3.512099990621209">
        <ele>690.39999999999998</ele>
        <time>2003-04-12T13:48:21Z</time>
      </trkpt>
      <trkpt lat="39.415436983108521" lon="-3.511711992323399">
        <ele>690.29999999999995</ele>
        <time>2003-04-12T13:48:25Z</time>
      </trkpt>
      <trkpt lat="39.414492007344961" lon="-3.511322988197208">
        <ele>692.20000000000005</ele>
        <time>2003-04-12T13:48:28Z</time>
      </trkpt>
      <trkpt lat="39.413551976904273" lon="-3.510944964364171">
        <ele>692.60000000000002</ele>
        <time>2003-04-12T13:48:31Z</time>
      </trkpt>
      <trkpt lat="39.412616975605488" lon="-3.510568030178547">
        <ele>692.70000000000005</ele>
        <time>2003-04-12T13:48:33Z</time>
      </trkpt>
      <trkpt lat="39.411677028983831" lon="-3.510186988860369">
        <ele>692.79999999999995</ele>
        <time>2003-04-12T13:48:36Z</time>
      </trkpt>
      <trkpt lat="39.410746973007917" lon="-3.509803013876081">
        <ele>691.29999999999995</ele>
        <time>2003-04-12T13:48:40Z</time>
      </trkpt>
      <trkpt lat="39.409841978922486" lon="-3.509436976164579">
        <ele>692.89999999999998</ele>
        <time>2003-04-12T13:48:43Z</time>
      </trkpt>
      <trkpt lat="39.408930027857423" lon="-3.509070016443729">
        <ele>693.20000000000005</ele>
        <time>2003-04-12T13:48:45Z</time>
      </trkpt>
      <trkpt lat="39.408002989366651" lon="-3.508697021752596">
        <ele>692.79999999999995</ele>
        <time>2003-04-12T13:48:48Z</time>
      </trkpt>
      <trkpt lat="39.407058013603091" lon="-3.508302988484502">
        <ele>692.10000000000002</ele>
        <time>2003-04-12T13:48:52Z</time>
      </trkpt>
      <trkpt lat="39.406108008697629" lon="-3.507914990186691">
        <ele>692.10000000000002</ele>
        <time>2003-04-12T13:48:55Z</time>
      </trkpt>
      <trkpt lat="39.405145011842251" lon="-3.507539983838797">
        <ele>692.39999999999998</ele>
        <time>2003-04-12T13:48:58Z</time>
      </trkpt>
      <trkpt lat="39.404164999723434" lon="-3.507134970277548">
        <ele>691.70000000000005</ele>
        <time>2003-04-12T13:49:00Z</time>
      </trkpt>
      <trkpt lat="39.403177024796605" lon="-3.50673196837306">
        <ele>691.5</ele>
        <time>2003-04-12T13:49:03Z</time>
      </trkpt>
      <trkpt lat="39.402189971879125" lon="-3.506331983953714">
        <ele>691.29999999999995</ele>
        <time>2003-04-12T13:49:07Z</time>
      </trkpt>
      <trkpt lat="39.401218006387353" lon="-3.505937028676271">
        <ele>691.70000000000005</ele>
        <time>2003-04-12T13:49:10Z</time>
      </trkpt>
      <trkpt lat="39.400240005925298" lon="-3.505545007064939">
        <ele>691.10000000000002</ele>
        <time>2003-04-12T13:49:12Z</time>
      </trkpt>
      <trkpt lat="39.399271979928017" lon="-3.50513999350369">
        <ele>691.89999999999998</ele>
        <time>2003-04-12T13:49:15Z</time>
      </trkpt>
      <trkpt lat="39.398319963365793" lon="-3.504760041832924">
        <ele>693.29999999999995</ele>
        <time>2003-04-12T13:49:19Z</time>
      </trkpt>
      <trkpt lat="39.397378005087376" lon="-3.504372965544462">
        <ele>694.70000000000005</ele>
        <time>2003-04-12T13:49:22Z</time>
      </trkpt>
      <trkpt lat="39.39642196521163" lon="-3.503982033580542">
        <ele>695.5</ele>
        <time>2003-04-12T13:49:25Z</time>
      </trkpt>
      <trkpt lat="39.395452011376619" lon="-3.503588000312448">
        <ele>695.20000000000005</ele>
        <time>2003-04-12T13:49:27Z</time>
      </trkpt>
      <trkpt lat="39.394477028399706" lon="-3.503182986751199">
        <ele>694.79999999999995</ele>
        <time>2003-04-12T13:49:30Z</time>
      </trkpt>
      <trkpt lat="39.393506990745664" lon="-3.502762969583273">
        <ele>694.70000000000005</ele>
        <time>2003-04-12T13:49:34Z</time>
      </trkpt>
      <trkpt lat="39.39253200776875" lon="-3.502364996820688">
        <ele>694.5</ele>
        <time>2003-04-12T13:49:37Z</time>
      </trkpt>
      <trkpt lat="39.391547972336411" lon="-3.501970041543245">
        <ele>693.89999999999998</ele>
        <time>2003-04-12T13:49:39Z</time>
      </trkpt>
      <trkpt lat="39.390557985752821" lon="-3.501565027981997">
        <ele>693</ele>
        <time>2003-04-12T13:49:42Z</time>
      </trkpt>
      <trkpt lat="39.389549978077412" lon="-3.501148028299213">
        <ele>693</ele>
        <time>2003-04-12T13:49:46Z</time>
      </trkpt>
      <trkpt lat="39.388548005372286" lon="-3.500742008909583">
        <ele>693.89999999999998</ele>
        <time>2003-04-12T13:49:49Z</time>
      </trkpt>
      <trkpt lat="39.387549972161651" lon="-3.500338001176715">
        <ele>694.89999999999998</ele>
        <time>2003-04-12T13:49:52Z</time>
      </trkpt>
      <trkpt lat="39.386552022770047" lon="-3.499931981787086">
        <ele>693.89999999999998</ele>
        <time>2003-04-12T13:49:54Z</time>
      </trkpt>
      <trkpt lat="39.385545020923018" lon="-3.499525040388107">
        <ele>694.10000000000002</ele>
        <time>2003-04-12T13:49:57Z</time>
      </trkpt>
      <trkpt lat="39.384532989934087" lon="-3.499111980199814">
        <ele>695.10000000000002</ele>
        <time>2003-04-12T13:50:01Z</time>
      </trkpt>
      <trkpt lat="39.383522970601916" lon="-3.498705038800836">
        <ele>694.39999999999998</ele>
        <time>2003-04-12T13:50:04Z</time>
      </trkpt>
      <trkpt lat="39.382517980411649" lon="-3.498297007754445">
        <ele>695.10000000000002</ele>
        <time>2003-04-12T13:50:06Z</time>
      </trkpt>
      <trkpt lat="39.381515001878142" lon="-3.497897023335099">
        <ele>695</ele>
        <time>2003-04-12T13:50:09Z</time>
      </trkpt>
      <trkpt lat="39.380515040829778" lon="-3.497484968975186">
        <ele>694.89999999999998</ele>
        <time>2003-04-12T13:50:13Z</time>
      </trkpt>
      <trkpt lat="39.379508038982749" lon="-3.497084984555841">
        <ele>695</ele>
        <time>2003-04-12T13:50:16Z</time>
      </trkpt>
      <trkpt lat="39.378492990508676" lon="-3.496673014014959">
        <ele>695.20000000000005</ele>
        <time>2003-04-12T13:50:19Z</time>
      </trkpt>
      <trkpt lat="39.377481965348125" lon="-3.496261965483427">
        <ele>695.60000000000002</ele>
        <time>2003-04-12T13:50:21Z</time>
      </trkpt>
      <trkpt lat="39.376474963501096" lon="-3.495858041569591">
        <ele>697</ele>
        <time>2003-04-12T13:50:24Z</time>
      </trkpt>
      <trkpt lat="39.375481959432364" lon="-3.4954500105232">
        <ele>698.5</ele>
        <time>2003-04-12T13:50:28Z</time>
      </trkpt>
      <trkpt lat="39.374498007819057" lon="-3.495057988911867">
        <ele>699.79999999999995</ele>
        <time>2003-04-12T13:50:31Z</time>
      </trkpt>
      <trkpt lat="39.37351799570024" lon="-3.494664961472154">
        <ele>700</ele>
        <time>2003-04-12T13:50:33Z</time>
      </trkpt>
      <trkpt lat="39.372543012723327" lon="-3.494272017851472">
        <ele>701.70000000000005</ele>
        <time>2003-04-12T13:50:36Z</time>
      </trkpt>
      <trkpt lat="39.371574986726046" lon="-3.493879996240139">
        <ele>702.20000000000005</ele>
        <time>2003-04-12T13:50:40Z</time>
      </trkpt>
      <trkpt lat="39.370609978213906" lon="-3.49349501542747">
        <ele>704.5</ele>
        <time>2003-04-12T13:50:43Z</time>
      </trkpt>
      <trkpt lat="39.369647987186909" lon="-3.493110034614801">
        <ele>704.79999999999995</ele>
        <time>2003-04-12T13:50:46Z</time>
      </trkpt>
      <trkpt lat="39.368693036958575" lon="-3.492718013003469">
        <ele>705.70000000000005</ele>
        <time>2003-04-12T13:50:48Z</time>
      </trkpt>
      <trkpt lat="39.36773800291121" lon="-3.492337977513671">
        <ele>706.70000000000005</ele>
        <time>2003-04-12T13:50:51Z</time>
      </trkpt>
      <trkpt lat="39.366784980520606" lon="-3.491955008357763">
        <ele>708.20000000000005</ele>
        <time>2003-04-12T13:50:55Z</time>
      </trkpt>
      <trkpt lat="39.365837993100286" lon="-3.491585031151772">
        <ele>708.60000000000002</ele>
        <time>2003-04-12T13:50:58Z</time>
      </trkpt>
      <trkpt lat="39.364877007901669" lon="-3.491265010088682">
        <ele>708.70000000000005</ele>
        <time>2003-04-12T13:51:00Z</time>
      </trkpt>
      <trkpt lat="39.363896995782852" lon="-3.490999974310398">
        <ele>707.70000000000005</ele>
        <time>2003-04-12T13:51:03Z</time>
      </trkpt>
      <trkpt lat="39.362922012805939" lon="-3.490756982937455">
        <ele>704.89999999999998</ele>
        <time>2003-04-12T13:51:07Z</time>
      </trkpt>
      <trkpt lat="39.361947029829025" lon="-3.490518014878035">
        <ele>701.79999999999995</ele>
        <time>2003-04-12T13:51:10Z</time>
      </trkpt>
      <trkpt lat="39.361008005216718" lon="-3.490282986313105">
        <ele>698.79999999999995</ele>
        <time>2003-04-12T13:51:13Z</time>
      </trkpt>
      <trkpt lat="39.36004500836134" lon="-3.490048041567206">
        <ele>696.5</ele>
        <time>2003-04-12T13:51:15Z</time>
      </trkpt>
      <trkpt lat="39.359076982364058" lon="-3.489798009395599">
        <ele>694.70000000000005</ele>
        <time>2003-04-12T13:51:18Z</time>
      </trkpt>
      <trkpt lat="39.358094958588481" lon="-3.489557029679418">
        <ele>694.60000000000002</ele>
        <time>2003-04-12T13:51:22Z</time>
      </trkpt>
      <trkpt lat="39.357106983661652" lon="-3.489316971972585">
        <ele>695.70000000000005</ele>
        <time>2003-04-12T13:51:25Z</time>
      </trkpt>
      <trkpt lat="39.356110040098429" lon="-3.489072974771261">
        <ele>694.70000000000005</ele>
        <time>2003-04-12T13:51:27Z</time>
      </trkpt>
      <trkpt lat="39.355112006887794" lon="-3.488825038075447">
        <ele>693.70000000000005</ele>
        <time>2003-04-12T13:51:30Z</time>
      </trkpt>
      <trkpt lat="39.354102993384004" lon="-3.488599983975291">
        <ele>693.29999999999995</ele>
        <time>2003-04-12T13:51:34Z</time>
      </trkpt>
      <trkpt lat="39.353088028728962" lon="-3.488405020907521">
        <ele>692.5</ele>
        <time>2003-04-12T13:51:37Z</time>
      </trkpt>
      <trkpt lat="39.352072980254889" lon="-3.488239981234074">
        <ele>693</ele>
        <time>2003-04-12T13:51:40Z</time>
      </trkpt>
      <trkpt lat="39.351079976186156" lon="-3.488030014559627">
        <ele>694.10000000000002</ele>
        <time>2003-04-12T13:51:42Z</time>
      </trkpt>
      <trkpt lat="39.350086972117424" lon="-3.487792974337935">
        <ele>693.29999999999995</ele>
        <time>2003-04-12T13:51:45Z</time>
      </trkpt>
      <trkpt lat="39.349082987755537" lon="-3.48754302598536">
        <ele>691.79999999999995</ele>
        <time>2003-04-12T13:51:49Z</time>
      </trkpt>
      <trkpt lat="39.348077997565269" lon="-3.487289976328611">
        <ele>691.39999999999998</ele>
        <time>2003-04-12T13:51:52Z</time>
      </trkpt>
      <trkpt lat="39.347075019031763" lon="-3.487042961642146">
        <ele>690.79999999999995</ele>
        <time>2003-04-12T13:51:54Z</time>
      </trkpt>
      <trkpt lat="39.346072962507606" lon="-3.486793013289571">
        <ele>690.39999999999998</ele>
        <time>2003-04-12T13:51:57Z</time>
      </trkpt>
      <trkpt lat="39.345073001459241" lon="-3.486538035795093">
        <ele>689.79999999999995</ele>
        <time>2003-04-12T13:52:01Z</time>
      </trkpt>
      <trkpt lat="39.344074968248606" lon="-3.486290015280247">
        <ele>689.29999999999995</ele>
        <time>2003-04-12T13:52:04Z</time>
      </trkpt>
      <trkpt lat="39.343077018857002" lon="-3.48603998310864">
        <ele>688.79999999999995</ele>
        <time>2003-04-12T13:52:07Z</time>
      </trkpt>
      <trkpt lat="39.342085020616651" lon="-3.485800009220839">
        <ele>688.39999999999998</ele>
        <time>2003-04-12T13:52:09Z</time>
      </trkpt>
      <trkpt lat="39.341082964092493" lon="-3.485585013404489">
        <ele>688.20000000000005</ele>
        <time>2003-04-12T13:52:12Z</time>
      </trkpt>
      <trkpt lat="39.340073028579354" lon="-3.485402036458254">
        <ele>687.79999999999995</ele>
        <time>2003-04-12T13:52:16Z</time>
      </trkpt>
      <trkpt lat="39.339059991762042" lon="-3.485261974856257">
        <ele>687.70000000000005</ele>
        <time>2003-04-12T13:52:19Z</time>
      </trkpt>
      <trkpt lat="39.338079979643226" lon="-3.485097019001842">
        <ele>687.5</ele>
        <time>2003-04-12T13:52:21Z</time>
      </trkpt>
      <trkpt lat="39.337138021364808" lon="-3.484782027080655">
        <ele>687.29999999999995</ele>
        <time>2003-04-12T13:52:24Z</time>
      </trkpt>
      <trkpt lat="39.336236966773868" lon="-3.484314987435937">
        <ele>687.5</ele>
        <time>2003-04-12T13:52:28Z</time>
      </trkpt>
      <trkpt lat="39.335387041792274" lon="-3.483692966401577">
        <ele>687.20000000000005</ele>
        <time>2003-04-12T13:52:31Z</time>
      </trkpt>
      <trkpt lat="39.334605010226369" lon="-3.482938008382917">
        <ele>685.5</ele>
        <time>2003-04-12T13:52:34Z</time>
      </trkpt>
      <trkpt lat="39.333915011957288" lon="-3.482052041217685">
        <ele>685.20000000000005</ele>
        <time>2003-04-12T13:52:36Z</time>
      </trkpt>
      <trkpt lat="39.333328027278185" lon="-3.481089966371656">
        <ele>684.70000000000005</ele>
        <time>2003-04-12T13:52:39Z</time>
      </trkpt>
      <trkpt lat="39.332620007917285" lon="-3.479881966486573">
        <ele>683.20000000000005</ele>
        <time>2003-04-12T13:52:43Z</time>
      </trkpt>
      <trkpt lat="39.332223040983081" lon="-3.479394977912307">
        <ele>683</ele>
        <time>2003-04-12T13:52:46Z</time>
      </trkpt>
      <trkpt lat="39.33177201077342" lon="-3.4789929818362">
        <ele>682.70000000000005</ele>
        <time>2003-04-12T13:52:47Z</time>
      </trkpt>
      <trkpt lat="39.33106298558414" lon="-3.478529965505004">
        <ele>684.70000000000005</ele>
        <time>2003-04-12T13:52:51Z</time>
      </trkpt>
      <trkpt lat="39.330572979524732" lon="-3.478317987173796">
        <ele>685.60000000000002</ele>
        <time>2003-04-12T13:52:53Z</time>
      </trkpt>
      <trkpt lat="39.329792037606239" lon="-3.478152025490999">
        <ele>685</ele>
        <time>2003-04-12T13:52:55Z</time>
      </trkpt>
      <trkpt lat="39.328973041847348" lon="-3.478165017440915">
        <ele>682.10000000000002</ele>
        <time>2003-04-12T13:52:58Z</time>
      </trkpt>
      <trkpt lat="39.327851962298155" lon="-3.478380013257265">
        <ele>678.5</ele>
        <time>2003-04-12T13:53:02Z</time>
      </trkpt>
      <trkpt lat="39.32676499709487" lon="-3.478486966341734">
        <ele>677.20000000000005</ele>
        <time>2003-04-12T13:53:06Z</time>
      </trkpt>
      <trkpt lat="39.325938038527966" lon="-3.478384958580136">
        <ele>676.70000000000005</ele>
        <time>2003-04-12T13:53:10Z</time>
      </trkpt>
      <trkpt lat="39.325113007798791" lon="-3.478108020499349">
        <ele>676</ele>
        <time>2003-04-12T13:53:13Z</time>
      </trkpt>
      <trkpt lat="39.324314966797829" lon="-3.477657996118069">
        <ele>675.20000000000005</ele>
        <time>2003-04-12T13:53:15Z</time>
      </trkpt>
      <trkpt lat="39.323569983243942" lon="-3.477034969255328">
        <ele>674.5</ele>
        <time>2003-04-12T13:53:18Z</time>
      </trkpt>
      <trkpt lat="39.322861963883042" lon="-3.476304989308119">
        <ele>673.5</ele>
        <time>2003-04-12T13:53:22Z</time>
      </trkpt>
      <trkpt lat="39.322131983935833" lon="-3.475577021017671">
        <ele>672.5</ele>
        <time>2003-04-12T13:53:25Z</time>
      </trkpt>
      <trkpt lat="39.321335032582283" lon="-3.474924992769957">
        <ele>671.70000000000005</ele>
        <time>2003-04-12T13:53:28Z</time>
      </trkpt>
      <trkpt lat="39.320498015731573" lon="-3.47433197312057">
        <ele>671.10000000000002</ele>
        <time>2003-04-12T13:53:30Z</time>
      </trkpt>
      <trkpt lat="39.31969796307385" lon="-3.473678017035127">
        <ele>670.39999999999998</ele>
        <time>2003-04-12T13:53:33Z</time>
      </trkpt>
      <trkpt lat="39.319021962583065" lon="-3.472873019054532">
        <ele>669.5</ele>
        <time>2003-04-12T13:53:37Z</time>
      </trkpt>
      <trkpt lat="39.318312015384436" lon="-3.471684968098998">
        <ele>668.39999999999998</ele>
        <time>2003-04-12T13:53:41Z</time>
      </trkpt>
      <trkpt lat="39.317686976864934" lon="-3.470604959875345">
        <ele>667</ele>
        <time>2003-04-12T13:53:45Z</time>
      </trkpt>
      <trkpt lat="39.317148020491004" lon="-3.469908004626632">
        <ele>666.39999999999998</ele>
        <time>2003-04-12T13:53:48Z</time>
      </trkpt>
      <trkpt lat="39.316937969997525" lon="-3.469713041558862">
        <ele>667.10000000000002</ele>
        <time>2003-04-12T13:53:49Z</time>
      </trkpt>
      <trkpt lat="39.316273033618927" lon="-3.469238039106131">
        <ele>667.10000000000002</ele>
        <time>2003-04-12T13:53:52Z</time>
      </trkpt>
      <trkpt lat="39.315535007044673" lon="-3.468903014436364">
        <ele>666.60000000000002</ele>
        <time>2003-04-12T13:53:55Z</time>
      </trkpt>
      <trkpt lat="39.315009964630008" lon="-3.468788014724851">
        <ele>666.29999999999995</ele>
        <time>2003-04-12T13:53:56Z</time>
      </trkpt>
      <trkpt lat="39.314200021326542" lon="-3.468748033046722">
        <ele>665.79999999999995</ele>
        <time>2003-04-12T13:54:00Z</time>
      </trkpt>
      <trkpt lat="39.313655029982328" lon="-3.468848029151559">
        <ele>665.60000000000002</ele>
        <time>2003-04-12T13:54:01Z</time>
      </trkpt>
      <trkpt lat="39.312860006466508" lon="-3.469133013859391">
        <ele>665.5</ele>
        <time>2003-04-12T13:54:04Z</time>
      </trkpt>
      <trkpt lat="39.311822997406125" lon="-3.469661995768547">
        <ele>666</ele>
        <time>2003-04-12T13:54:08Z</time>
      </trkpt>
      <trkpt lat="39.311027973890305" lon="-3.469908004626632">
        <ele>666.70000000000005</ele>
        <time>2003-04-12T13:54:12Z</time>
      </trkpt>
      <trkpt lat="39.310492035001516" lon="-3.469953015446663">
        <ele>666.79999999999995</ele>
        <time>2003-04-12T13:54:14Z</time>
      </trkpt>
      <trkpt lat="39.309700028970838" lon="-3.469871962442994">
        <ele>667.10000000000002</ele>
        <time>2003-04-12T13:54:16Z</time>
      </trkpt>
      <trkpt lat="39.309180015698075" lon="-3.469687979668379">
        <ele>667.5</ele>
        <time>2003-04-12T13:54:19Z</time>
      </trkpt>
      <trkpt lat="39.308411981910467" lon="-3.469271985813975">
        <ele>667.10000000000002</ele>
        <time>2003-04-12T13:54:22Z</time>
      </trkpt>
      <trkpt lat="39.307376984506845" lon="-3.46857201308012">
        <ele>665.60000000000002</ele>
        <time>2003-04-12T13:54:26Z</time>
      </trkpt>
      <trkpt lat="39.306307034566998" lon="-3.467861982062459">
        <ele>664.29999999999995</ele>
        <time>2003-04-12T13:54:30Z</time>
      </trkpt>
      <trkpt lat="39.305489966645837" lon="-3.467320008203387">
        <ele>663.89999999999998</ele>
        <time>2003-04-12T13:54:32Z</time>
      </trkpt>
      <trkpt lat="39.304665019735694" lon="-3.466777028515935">
        <ele>663.5</ele>
        <time>2003-04-12T13:54:35Z</time>
      </trkpt>
      <trkpt lat="39.303836971521378" lon="-3.46623002551496">
        <ele>663.60000000000002</ele>
        <time>2003-04-12T13:54:39Z</time>
      </trkpt>
      <trkpt lat="39.302998026832938" lon="-3.465671958401799">
        <ele>662.39999999999998</ele>
        <time>2003-04-12T13:54:42Z</time>
      </trkpt>
      <trkpt lat="39.302148018032312" lon="-3.465105006471276">
        <ele>661.20000000000005</ele>
        <time>2003-04-12T13:54:45Z</time>
      </trkpt>
      <trkpt lat="39.301288034766912" lon="-3.464537970721722">
        <ele>660.39999999999998</ele>
        <time>2003-04-12T13:54:47Z</time>
      </trkpt>
      <trkpt lat="39.300422016531229" lon="-3.463961966335774">
        <ele>659.70000000000005</ele>
        <time>2003-04-12T13:54:50Z</time>
      </trkpt>
      <trkpt lat="39.299551974982023" lon="-3.463377999141812">
        <ele>659.10000000000002</ele>
        <time>2003-04-12T13:54:54Z</time>
      </trkpt>
      <trkpt lat="39.298680005595088" lon="-3.462811969220638">
        <ele>659</ele>
        <time>2003-04-12T13:54:57Z</time>
      </trkpt>
      <trkpt lat="39.297809964045882" lon="-3.46223495900631">
        <ele>658.29999999999995</ele>
        <time>2003-04-12T13:54:59Z</time>
      </trkpt>
      <trkpt lat="39.296925002709031" lon="-3.461646968498826">
        <ele>656.39999999999998</ele>
        <time>2003-04-12T13:55:02Z</time>
      </trkpt>
      <trkpt lat="39.296031994745135" lon="-3.461055038496852">
        <ele>656</ele>
        <time>2003-04-12T13:55:06Z</time>
      </trkpt>
      <trkpt lat="39.295136975124478" lon="-3.460457995533943">
        <ele>655.39999999999998</ele>
        <time>2003-04-12T13:55:09Z</time>
      </trkpt>
      <trkpt lat="39.294240027666092" lon="-3.459860030561686">
        <ele>655.29999999999995</ele>
        <time>2003-04-12T13:55:12Z</time>
      </trkpt>
      <trkpt lat="39.293342996388674" lon="-3.459267010912299">
        <ele>654.79999999999995</ele>
        <time>2003-04-12T13:55:14Z</time>
      </trkpt>
      <trkpt lat="39.292452000081539" lon="-3.458680026233196">
        <ele>654.39999999999998</ele>
        <time>2003-04-12T13:55:17Z</time>
      </trkpt>
      <trkpt lat="39.291552035138011" lon="-3.45808801241219">
        <ele>652.70000000000005</ele>
        <time>2003-04-12T13:55:21Z</time>
      </trkpt>
      <trkpt lat="39.290657015517354" lon="-3.457497004419565">
        <ele>652.60000000000002</ele>
        <time>2003-04-12T13:55:24Z</time>
      </trkpt>
      <trkpt lat="39.289772976189852" lon="-3.456913037225604">
        <ele>652.89999999999998</ele>
        <time>2003-04-12T13:55:26Z</time>
      </trkpt>
      <trkpt lat="39.28888700902462" lon="-3.456337032839656">
        <ele>652.20000000000005</ele>
        <time>2003-04-12T13:55:29Z</time>
      </trkpt>
      <trkpt lat="39.288013027980924" lon="-3.455773014575243">
        <ele>654.60000000000002</ele>
        <time>2003-04-12T13:55:33Z</time>
      </trkpt>
      <trkpt lat="39.287135023623705" lon="-3.455204972997308">
        <ele>655.5</ele>
        <time>2003-04-12T13:55:36Z</time>
      </trkpt>
      <trkpt lat="39.28624302148819" lon="-3.454614970833063">
        <ele>651.79999999999995</ele>
        <time>2003-04-12T13:55:39Z</time>
      </trkpt>
      <trkpt lat="39.285352025181055" lon="-3.454011976718903">
        <ele>648.20000000000005</ele>
        <time>2003-04-12T13:55:41Z</time>
      </trkpt>
      <trkpt lat="39.284488018602133" lon="-3.45344502478838">
        <ele>646.29999999999995</ele>
        <time>2003-04-12T13:55:44Z</time>
      </trkpt>
      <trkpt lat="39.283601967617869" lon="-3.452872959896922">
        <ele>645</ele>
        <time>2003-04-12T13:55:48Z</time>
      </trkpt>
      <trkpt lat="39.282709965482354" lon="-3.45230801962316">
        <ele>644</ele>
        <time>2003-04-12T13:55:52Z</time>
      </trkpt>
      <trkpt lat="39.281806983053684" lon="-3.451756993308663">
        <ele>644.20000000000005</ele>
        <time>2003-04-12T13:55:53Z</time>
      </trkpt>
      <trkpt lat="39.280899977311492" lon="-3.451181994751096">
        <ele>643.29999999999995</ele>
        <time>2003-04-12T13:55:56Z</time>
      </trkpt>
      <trkpt lat="39.27999003790319" lon="-3.450606996193528">
        <ele>642.5</ele>
        <time>2003-04-12T13:56:00Z</time>
      </trkpt>
      <trkpt lat="39.279082026332617" lon="-3.450017999857664">
        <ele>641.70000000000005</ele>
        <time>2003-04-12T13:56:03Z</time>
      </trkpt>
      <trkpt lat="39.27818700671196" lon="-3.449437972158194">
        <ele>641.10000000000002</ele>
        <time>2003-04-12T13:56:06Z</time>
      </trkpt>
      <trkpt lat="39.277355019003153" lon="-3.448904966935515">
        <ele>642.20000000000005</ele>
        <time>2003-04-12T13:56:08Z</time>
      </trkpt>
      <trkpt lat="39.276305017992854" lon="-3.448212035000324">
        <ele>643.29999999999995</ele>
        <time>2003-04-12T13:56:12Z</time>
      </trkpt>
      <trkpt lat="39.275497002527118" lon="-3.447680035606027">
        <ele>644.20000000000005</ele>
        <time>2003-04-12T13:56:15Z</time>
      </trkpt>
      <trkpt lat="39.274669960141182" lon="-3.44713001511991">
        <ele>644.89999999999998</ele>
        <time>2003-04-12T13:56:19Z</time>
      </trkpt>
      <trkpt lat="39.273832021281123" lon="-3.446589969098568">
        <ele>645.60000000000002</ele>
        <time>2003-04-12T13:56:22Z</time>
      </trkpt>
      <trkpt lat="39.272972038015723" lon="-3.446059981361032">
        <ele>643</ele>
        <time>2003-04-12T13:56:24Z</time>
      </trkpt>
      <trkpt lat="39.272105013951659" lon="-3.445526976138353">
        <ele>643.20000000000005</ele>
        <time>2003-04-12T13:56:27Z</time>
      </trkpt>
      <trkpt lat="39.271245030686259" lon="-3.444973016157746">
        <ele>643.39999999999998</ele>
        <time>2003-04-12T13:56:31Z</time>
      </trkpt>
      <trkpt lat="39.270369959995151" lon="-3.444413021206856">
        <ele>640.70000000000005</ele>
        <time>2003-04-12T13:56:34Z</time>
      </trkpt>
      <trkpt lat="39.269492039456964" lon="-3.443850008770824">
        <ele>641.39999999999998</ele>
        <time>2003-04-12T13:56:37Z</time>
      </trkpt>
      <trkpt lat="39.268610011786222" lon="-3.443281967192888">
        <ele>640.70000000000005</ele>
        <time>2003-04-12T13:56:39Z</time>
      </trkpt>
      <trkpt lat="39.267727984115481" lon="-3.442722978070378">
        <ele>640.70000000000005</ele>
        <time>2003-04-12T13:56:42Z</time>
      </trkpt>
      <trkpt lat="39.266847968101501" lon="-3.442152002826333">
        <ele>639.5</ele>
        <time>2003-04-12T13:56:46Z</time>
      </trkpt>
      <trkpt lat="39.265971975401044" lon="-3.441582033410668">
        <ele>640.20000000000005</ele>
        <time>2003-04-12T13:56:49Z</time>
      </trkpt>
      <trkpt lat="39.265087014064193" lon="-3.441020026803017">
        <ele>639</ele>
        <time>2003-04-12T13:56:51Z</time>
      </trkpt>
      <trkpt lat="39.264198029413819" lon="-3.44044997356832">
        <ele>638.10000000000002</ele>
        <time>2003-04-12T13:56:54Z</time>
      </trkpt>
      <trkpt lat="39.263311978429556" lon="-3.439876986667514">
        <ele>638.5</ele>
        <time>2003-04-12T13:56:58Z</time>
      </trkpt>
      <trkpt lat="39.262419976294041" lon="-3.439305005595088">
        <ele>637.20000000000005</ele>
        <time>2003-04-12T13:57:01Z</time>
      </trkpt>
      <trkpt lat="39.26151498220861" lon="-3.438732018694282">
        <ele>635.5</ele>
        <time>2003-04-12T13:57:04Z</time>
      </trkpt>
      <trkpt lat="39.260606970638037" lon="-3.438152996823192">
        <ele>634.5</ele>
        <time>2003-04-12T13:57:06Z</time>
      </trkpt>
      <trkpt lat="39.259692002087831" lon="-3.437570035457611">
        <ele>632.79999999999995</ele>
        <time>2003-04-12T13:57:09Z</time>
      </trkpt>
      <trkpt lat="39.25876303575933" lon="-3.436980033293366">
        <ele>629.70000000000005</ele>
        <time>2003-04-12T13:57:13Z</time>
      </trkpt>
      <trkpt lat="39.25784002058208" lon="-3.436391958966851">
        <ele>628.5</ele>
        <time>2003-04-12T13:57:16Z</time>
      </trkpt>
      <trkpt lat="39.256926979869604" lon="-3.435815032571554">
        <ele>626.5</ele>
        <time>2003-04-12T13:57:18Z</time>
      </trkpt>
      <trkpt lat="39.256022991612554" lon="-3.435241961851716">
        <ele>625.29999999999995</ele>
        <time>2003-04-12T13:57:21Z</time>
      </trkpt>
      <trkpt lat="39.255123026669025" lon="-3.434667969122529">
        <ele>624.10000000000002</ele>
        <time>2003-04-12T13:57:25Z</time>
      </trkpt>
      <trkpt lat="39.254221972078085" lon="-3.434096993878484">
        <ele>623.70000000000005</ele>
        <time>2003-04-12T13:57:28Z</time>
      </trkpt>
      <trkpt lat="39.253316977992654" lon="-3.433527024462819">
        <ele>623</ele>
        <time>2003-04-12T13:57:32Z</time>
      </trkpt>
      <trkpt lat="39.2524079605937" lon="-3.432953031733632">
        <ele>622.29999999999995</ele>
        <time>2003-04-12T13:57:35Z</time>
      </trkpt>
      <trkpt lat="39.251498021185398" lon="-3.432375015690923">
        <ele>622.29999999999995</ele>
        <time>2003-04-12T13:57:36Z</time>
      </trkpt>
      <trkpt lat="39.250599984079599" lon="-3.431785013526678">
        <ele>622.70000000000005</ele>
        <time>2003-04-12T13:57:40Z</time>
      </trkpt>
      <trkpt lat="39.249722985550761" lon="-3.431134996935725">
        <ele>623.10000000000002</ele>
        <time>2003-04-12T13:57:43Z</time>
      </trkpt>
      <trkpt lat="39.248883035033941" lon="-3.430423038080335">
        <ele>623.39999999999998</ele>
        <time>2003-04-12T13:57:45Z</time>
      </trkpt>
      <trkpt lat="39.248124975711107" lon="-3.429583003744483">
        <ele>623.60000000000002</ele>
        <time>2003-04-12T13:57:48Z</time>
      </trkpt>
      <trkpt lat="39.247452998533845" lon="-3.428625036031008">
        <ele>623.89999999999998</ele>
        <time>2003-04-12T13:57:52Z</time>
      </trkpt>
      <trkpt lat="39.246868025511503" lon="-3.427558019757271">
        <ele>624.29999999999995</ele>
        <time>2003-04-12T13:57:55Z</time>
      </trkpt>
      <trkpt lat="39.246396962553263" lon="-3.426405005156994">
        <ele>624.5</ele>
        <time>2003-04-12T13:57:58Z</time>
      </trkpt>
      <trkpt lat="39.246030002832413" lon="-3.425191976130009">
        <ele>624.60000000000002</ele>
        <time>2003-04-12T13:58:00Z</time>
      </trkpt>
      <trkpt lat="39.24576798453927" lon="-3.423920022323728">
        <ele>624.60000000000002</ele>
        <time>2003-04-12T13:58:03Z</time>
      </trkpt>
      <trkpt lat="39.245564974844456" lon="-3.422614959999919">
        <ele>624.70000000000005</ele>
        <time>2003-04-12T13:58:07Z</time>
      </trkpt>
      <trkpt lat="39.245375040918589" lon="-3.421305036172271">
        <ele>624.89999999999998</ele>
        <time>2003-04-12T13:58:11Z</time>
      </trkpt>
      <trkpt lat="39.245167002081871" lon="-3.420023024082184">
        <ele>623.79999999999995</ele>
        <time>2003-04-12T13:58:14Z</time>
      </trkpt>
      <trkpt lat="39.244882017374039" lon="-3.418807983398438">
        <ele>623.20000000000005</ele>
        <time>2003-04-12T13:58:17Z</time>
      </trkpt>
      <trkpt lat="39.244489995762706" lon="-3.417652035132051">
        <ele>622.60000000000002</ele>
        <time>2003-04-12T13:58:19Z</time>
      </trkpt>
      <trkpt lat="39.244005018845201" lon="-3.416594993323088">
        <ele>622.79999999999995</ele>
        <time>2003-04-12T13:58:22Z</time>
      </trkpt>
      <trkpt lat="39.243439994752407" lon="-3.415656974539161">
        <ele>623.89999999999998</ele>
        <time>2003-04-12T13:58:26Z</time>
      </trkpt>
      <trkpt lat="39.242810010910034" lon="-3.414797997102141">
        <ele>624.70000000000005</ele>
        <time>2003-04-12T13:58:29Z</time>
      </trkpt>
      <trkpt lat="39.242122024297714" lon="-3.414029963314533">
        <ele>625.5</ele>
        <time>2003-04-12T13:58:31Z</time>
      </trkpt>
      <trkpt lat="39.241327000781894" lon="-3.413375001400709">
        <ele>625.79999999999995</ele>
        <time>2003-04-12T13:58:34Z</time>
      </trkpt>
      <trkpt lat="39.240455031394958" lon="-3.412827998399735">
        <ele>626.20000000000005</ele>
        <time>2003-04-12T13:58:38Z</time>
      </trkpt>
      <trkpt lat="39.239522041752934" lon="-3.412419967353344">
        <ele>627.70000000000005</ele>
        <time>2003-04-12T13:58:41Z</time>
      </trkpt>
      <trkpt lat="39.238558039069176" lon="-3.412158032879233">
        <ele>630.20000000000005</ele>
        <time>2003-04-12T13:58:44Z</time>
      </trkpt>
      <trkpt lat="39.23758196644485" lon="-3.411997016519308">
        <ele>632.20000000000005</ele>
        <time>2003-04-12T13:58:46Z</time>
      </trkpt>
      <trkpt lat="39.236642019823194" lon="-3.411870030686259">
        <ele>633.20000000000005</ele>
        <time>2003-04-12T13:58:49Z</time>
      </trkpt>
      <trkpt lat="39.23571296967566" lon="-3.411752013489604">
        <ele>633.89999999999998</ele>
        <time>2003-04-12T13:58:53Z</time>
      </trkpt>
      <trkpt lat="39.234785009175539" lon="-3.411610024049878">
        <ele>633.89999999999998</ele>
        <time>2003-04-12T13:58:56Z</time>
      </trkpt>
      <trkpt lat="39.233880015090108" lon="-3.41148697771132">
        <ele>634.79999999999995</ele>
        <time>2003-04-12T13:58:58Z</time>
      </trkpt>
      <trkpt lat="39.232979966327548" lon="-3.411368038505316">
        <ele>635.39999999999998</ele>
        <time>2003-04-12T13:59:01Z</time>
      </trkpt>
      <trkpt lat="39.232070026919246" lon="-3.411257984116674">
        <ele>635.79999999999995</ele>
        <time>2003-04-12T13:59:05Z</time>
      </trkpt>
      <trkpt lat="39.231162015348673" lon="-3.411138039082289">
        <ele>636.39999999999998</ele>
        <time>2003-04-12T13:59:08Z</time>
      </trkpt>
      <trkpt lat="39.230006989091635" lon="-3.411009963601828">
        <ele>637.70000000000005</ele>
        <time>2003-04-12T13:59:12Z</time>
      </trkpt>
      <trkpt lat="39.228863026946783" lon="-3.411005018278956">
        <ele>638.10000000000002</ele>
        <time>2003-04-12T13:59:16Z</time>
      </trkpt>
      <trkpt lat="39.227689979597926" lon="-3.411207022145391">
        <ele>638.29999999999995</ele>
        <time>2003-04-12T13:59:20Z</time>
      </trkpt>
      <trkpt lat="39.226802000775933" lon="-3.411483038216829">
        <ele>638.39999999999998</ele>
        <time>2003-04-12T13:59:23Z</time>
      </trkpt>
      <trkpt lat="39.225942017510533" lon="-3.411865001544356">
        <ele>638.39999999999998</ele>
        <time>2003-04-12T13:59:25Z</time>
      </trkpt>
      <trkpt lat="39.224859997630119" lon="-3.412427008152008">
        <ele>638.60000000000002</ele>
        <time>2003-04-12T13:59:29Z</time>
      </trkpt>
      <trkpt lat="39.223758028820157" lon="-3.41299002058804">
        <ele>639.20000000000005</ele>
        <time>2003-04-12T13:59:33Z</time>
      </trkpt>
      <trkpt lat="39.222622029483318" lon="-3.41346301138401">
        <ele>639.60000000000002</ele>
        <time>2003-04-12T13:59:38Z</time>
      </trkpt>
      <trkpt lat="39.221444958820939" lon="-3.413725029677153">
        <ele>640.20000000000005</ele>
        <time>2003-04-12T13:59:42Z</time>
      </trkpt>
      <trkpt lat="39.220529990270734" lon="-3.413819996640086">
        <ele>640.5</ele>
        <time>2003-04-12T13:59:44Z</time>
      </trkpt>
      <trkpt lat="39.219588031992316" lon="-3.413787977769971">
        <ele>640.60000000000002</ele>
        <time>2003-04-12T13:59:47Z</time>
      </trkpt>
      <trkpt lat="39.218627968803048" lon="-3.413616986945272">
        <ele>640.5</ele>
        <time>2003-04-12T13:59:51Z</time>
      </trkpt>
      <trkpt lat="39.217672012746334" lon="-3.413311969488859">
        <ele>640.5</ele>
        <time>2003-04-12T13:59:54Z</time>
      </trkpt>
      <trkpt lat="39.216722007840872" lon="-3.412911985069513">
        <ele>640.29999999999995</ele>
        <time>2003-04-12T13:59:56Z</time>
      </trkpt>
      <trkpt lat="39.215779965743423" lon="-3.412498002871871">
        <ele>641.10000000000002</ele>
        <time>2003-04-12T13:59:59Z</time>
      </trkpt>
      <trkpt lat="39.214838007465005" lon="-3.412091983482242">
        <ele>643.20000000000005</ele>
        <time>2003-04-12T14:00:03Z</time>
      </trkpt>
      <trkpt lat="39.21388003975153" lon="-3.411674983799458">
        <ele>642.60000000000002</ele>
        <time>2003-04-12T14:00:06Z</time>
      </trkpt>
      <trkpt lat="39.212921988219023" lon="-3.411254966631532">
        <ele>642.29999999999995</ele>
        <time>2003-04-12T14:00:09Z</time>
      </trkpt>
      <trkpt lat="39.211967037990689" lon="-3.410852970555425">
        <ele>643.5</ele>
        <time>2003-04-12T14:00:11Z</time>
      </trkpt>
      <trkpt lat="39.209747007116675" lon="-3.409891985356808">
        <ele>644.5</ele>
        <time>2003-04-12T14:00:18Z</time>
      </trkpt>
      <trkpt lat="39.208789961412549" lon="-3.409484960138798">
        <ele>644.89999999999998</ele>
        <time>2003-04-12T14:00:22Z</time>
      </trkpt>
      <trkpt lat="39.207838028669357" lon="-3.409071983769536">
        <ele>645</ele>
        <time>2003-04-12T14:00:25Z</time>
      </trkpt>
      <trkpt lat="39.206882994621992" lon="-3.408666970208287">
        <ele>645.29999999999995</ele>
        <time>2003-04-12T14:00:27Z</time>
      </trkpt>
      <trkpt lat="39.205927038565278" lon="-3.408257011324167">
        <ele>645.29999999999995</ele>
        <time>2003-04-12T14:00:30Z</time>
      </trkpt>
      <trkpt lat="39.204973010346293" lon="-3.407845040783286">
        <ele>646</ele>
        <time>2003-04-12T14:00:34Z</time>
      </trkpt>
      <trkpt lat="39.204029962420464" lon="-3.407442038878799">
        <ele>646.29999999999995</ele>
        <time>2003-04-12T14:00:37Z</time>
      </trkpt>
      <trkpt lat="39.203082975000143" lon="-3.407035013660789">
        <ele>645.70000000000005</ele>
        <time>2003-04-12T14:00:40Z</time>
      </trkpt>
      <trkpt lat="39.202130036428571" lon="-3.406627988442779">
        <ele>645.70000000000005</ele>
        <time>2003-04-12T14:00:42Z</time>
      </trkpt>
      <trkpt lat="39.201153041794896" lon="-3.406207971274853">
        <ele>642.60000000000002</ele>
        <time>2003-04-12T14:00:45Z</time>
      </trkpt>
      <trkpt lat="39.20017302967608" lon="-3.40579298324883">
        <ele>642.89999999999998</ele>
        <time>2003-04-12T14:00:49Z</time>
      </trkpt>
      <trkpt lat="39.199210032820702" lon="-3.405372966080904">
        <ele>644.79999999999995</ele>
        <time>2003-04-12T14:00:52Z</time>
      </trkpt>
      <trkpt lat="39.198260027915239" lon="-3.404962001368403">
        <ele>647.20000000000005</ele>
        <time>2003-04-12T14:00:54Z</time>
      </trkpt>
      <trkpt lat="39.197312034666538" lon="-3.404562016949058">
        <ele>647.89999999999998</ele>
        <time>2003-04-12T14:00:57Z</time>
      </trkpt>
      <trkpt lat="39.196347026154399" lon="-3.404182987287641">
        <ele>648.89999999999998</ele>
        <time>2003-04-12T14:01:01Z</time>
      </trkpt>
      <trkpt lat="39.195368019863963" lon="-3.403802029788494">
        <ele>648.5</ele>
        <time>2003-04-12T14:01:04Z</time>
      </trkpt>
      <trkpt lat="39.194379961118102" lon="-3.403438003733754">
        <ele>646.70000000000005</ele>
        <time>2003-04-12T14:01:07Z</time>
      </trkpt>
      <trkpt lat="39.193397015333176" lon="-3.403095016255975">
        <ele>648.39999999999998</ele>
        <time>2003-04-12T14:01:09Z</time>
      </trkpt>
      <trkpt lat="39.192420020699501" lon="-3.402729984372854">
        <ele>647</ele>
        <time>2003-04-12T14:01:12Z</time>
      </trkpt>
      <trkpt lat="39.191449983045459" lon="-3.402367969974876">
        <ele>649.39999999999998</ele>
        <time>2003-04-12T14:01:16Z</time>
      </trkpt>
      <trkpt lat="39.190484974533319" lon="-3.401992963626981">
        <ele>648.5</ele>
        <time>2003-04-12T14:01:19Z</time>
      </trkpt>
      <trkpt lat="39.18951996602118" lon="-3.401632960885763">
        <ele>648.79999999999995</ele>
        <time>2003-04-12T14:01:21Z</time>
      </trkpt>
      <trkpt lat="39.188552023842931" lon="-3.401272036135197">
        <ele>648.29999999999995</ele>
        <time>2003-04-12T14:01:24Z</time>
      </trkpt>
      <trkpt lat="39.187582992017269" lon="-3.400907004252076">
        <ele>648.5</ele>
        <time>2003-04-12T14:01:28Z</time>
      </trkpt>
      <trkpt lat="39.186616977676749" lon="-3.400533003732562">
        <ele>647.60000000000002</ele>
        <time>2003-04-12T14:01:31Z</time>
      </trkpt>
      <trkpt lat="39.185641994699836" lon="-3.400177024304867">
        <ele>648</ele>
        <time>2003-04-12T14:01:34Z</time>
      </trkpt>
      <trkpt lat="39.184659970924258" lon="-3.399806963279843">
        <ele>646.60000000000002</ele>
        <time>2003-04-12T14:01:36Z</time>
      </trkpt>
      <trkpt lat="39.183684987947345" lon="-3.39943497441709">
        <ele>647.5</ele>
        <time>2003-04-12T14:01:39Z</time>
      </trkpt>
      <trkpt lat="39.182716961950064" lon="-3.39906801469624">
        <ele>648.60000000000002</ele>
        <time>2003-04-12T14:01:43Z</time>
      </trkpt>
      <trkpt lat="39.181744996458292" lon="-3.398699965327978">
        <ele>648.60000000000002</ele>
        <time>2003-04-12T14:01:46Z</time>
      </trkpt>
      <trkpt lat="39.18077495880425" lon="-3.398323031142354">
        <ele>648</ele>
        <time>2003-04-12T14:01:48Z</time>
      </trkpt>
      <trkpt lat="39.179811961948872" lon="-3.397945007309318">
        <ele>649</ele>
        <time>2003-04-12T14:01:51Z</time>
      </trkpt>
      <trkpt lat="39.178845025599003" lon="-3.397581987082958">
        <ele>648.60000000000002</ele>
        <time>2003-04-12T14:01:55Z</time>
      </trkpt>
      <trkpt lat="39.177868030965328" lon="-3.397212009876967">
        <ele>647.5</ele>
        <time>2003-04-12T14:01:58Z</time>
      </trkpt>
      <trkpt lat="39.176888018846512" lon="-3.396837003529072">
        <ele>647.89999999999998</ele>
        <time>2003-04-12T14:02:01Z</time>
      </trkpt>
      <trkpt lat="39.175908006727695" lon="-3.396463003009558">
        <ele>648.79999999999995</ele>
        <time>2003-04-12T14:02:03Z</time>
      </trkpt>
      <trkpt lat="39.174933023750782" lon="-3.396095037460327">
        <ele>648.79999999999995</ele>
        <time>2003-04-12T14:02:06Z</time>
      </trkpt>
      <trkpt lat="39.173949994146824" lon="-3.395722964778543">
        <ele>646.39999999999998</ele>
        <time>2003-04-12T14:02:10Z</time>
      </trkpt>
      <trkpt lat="39.17295497842133" lon="-3.395354999229312">
        <ele>645.89999999999998</ele>
        <time>2003-04-12T14:02:13Z</time>
      </trkpt>
      <trkpt lat="39.171973038464785" lon="-3.394982004538178">
        <ele>648</ele>
        <time>2003-04-12T14:02:15Z</time>
      </trkpt>
      <trkpt lat="39.170999983325601" lon="-3.394616972655058">
        <ele>646.79999999999995</ele>
        <time>2003-04-12T14:02:18Z</time>
      </trkpt>
      <trkpt lat="39.170040003955364" lon="-3.394252024590969">
        <ele>648.60000000000002</ele>
        <time>2003-04-12T14:02:22Z</time>
      </trkpt>
      <trkpt lat="39.169080024585128" lon="-3.393887998536229">
        <ele>648.79999999999995</ele>
        <time>2003-04-12T14:02:25Z</time>
      </trkpt>
      <trkpt lat="39.168109986931086" lon="-3.393526989966631">
        <ele>649.60000000000002</ele>
        <time>2003-04-12T14:02:28Z</time>
      </trkpt>
      <trkpt lat="39.167127041146159" lon="-3.393160030245781">
        <ele>649.60000000000002</ele>
        <time>2003-04-12T14:02:30Z</time>
      </trkpt>
      <trkpt lat="39.166139988228679" lon="-3.392785023897886">
        <ele>649.79999999999995</ele>
        <time>2003-04-12T14:02:33Z</time>
      </trkpt>
      <trkpt lat="39.165142038837075" lon="-3.392410017549992">
        <ele>649.5</ele>
        <time>2003-04-12T14:02:37Z</time>
      </trkpt>
      <trkpt lat="39.164136964827776" lon="-3.392031993716955">
        <ele>649.5</ele>
        <time>2003-04-12T14:02:40Z</time>
      </trkpt>
      <trkpt lat="39.163137003779411" lon="-3.391665033996105">
        <ele>651</ele>
        <time>2003-04-12T14:02:42Z</time>
      </trkpt>
      <trkpt lat="39.162147017195821" lon="-3.391292039304972">
        <ele>649.5</ele>
        <time>2003-04-12T14:02:45Z</time>
      </trkpt>
      <trkpt lat="39.161155018955469" lon="-3.390949973836541">
        <ele>649.20000000000005</ele>
        <time>2003-04-12T14:02:49Z</time>
      </trkpt>
      <trkpt lat="39.160178024321795" lon="-3.390587959438562">
        <ele>650.29999999999995</ele>
        <time>2003-04-12T14:02:52Z</time>
      </trkpt>
      <trkpt lat="39.159187031909823" lon="-3.390228040516377">
        <ele>649.20000000000005</ele>
        <time>2003-04-12T14:02:55Z</time>
      </trkpt>
      <trkpt lat="39.15819201618433" lon="-3.389853034168482">
        <ele>649.89999999999998</ele>
        <time>2003-04-12T14:02:57Z</time>
      </trkpt>
      <trkpt lat="39.157185014337301" lon="-3.389467969536781">
        <ele>648.5</ele>
        <time>2003-04-12T14:03:00Z</time>
      </trkpt>
      <trkpt lat="39.156168038025498" lon="-3.389090029522777">
        <ele>647.79999999999995</ele>
        <time>2003-04-12T14:03:04Z</time>
      </trkpt>
      <trkpt lat="39.15516497567296" lon="-3.38871200568974">
        <ele>648.89999999999998</ele>
        <time>2003-04-12T14:03:07Z</time>
      </trkpt>
      <trkpt lat="39.154167026281357" lon="-3.388336999341846">
        <ele>648.29999999999995</ele>
        <time>2003-04-12T14:03:09Z</time>
      </trkpt>
      <trkpt lat="39.153162036091089" lon="-3.387957969680429">
        <ele>649.29999999999995</ele>
        <time>2003-04-12T14:03:12Z</time>
      </trkpt>
      <trkpt lat="39.152216976508498" lon="-3.387601990252733">
        <ele>649.89999999999998</ele>
        <time>2003-04-12T14:03:16Z</time>
      </trkpt>
      <trkpt lat="39.151341989636421" lon="-3.387248022481799">
        <ele>648.70000000000005</ele>
        <time>2003-04-12T14:03:19Z</time>
      </trkpt>
      <trkpt lat="39.150189980864525" lon="-3.386817025020719">
        <ele>648.70000000000005</ele>
        <time>2003-04-12T14:03:23Z</time>
      </trkpt>
      <trkpt lat="39.149312982335687" lon="-3.386515025049448">
        <ele>650</ele>
        <time>2003-04-12T14:03:26Z</time>
      </trkpt>
      <trkpt lat="39.148430032655597" lon="-3.386182012036443">
        <ele>649.39999999999998</ele>
        <time>2003-04-12T14:03:28Z</time>
      </trkpt>
      <trkpt lat="39.14753501303494" lon="-3.385844975709915">
        <ele>648.70000000000005</ele>
        <time>2003-04-12T14:03:31Z</time>
      </trkpt>
      <trkpt lat="39.146627001464367" lon="-3.385501988232136">
        <ele>649.5</ele>
        <time>2003-04-12T14:03:35Z</time>
      </trkpt>
      <trkpt lat="39.145701974630356" lon="-3.385151959955692">
        <ele>648.89999999999998</ele>
        <time>2003-04-12T14:03:38Z</time>
      </trkpt>
      <trkpt lat="39.144790023565292" lon="-3.384803021326661">
        <ele>649.29999999999995</ele>
        <time>2003-04-12T14:03:41Z</time>
      </trkpt>
      <trkpt lat="39.143891986459494" lon="-3.384452993050218">
        <ele>649.29999999999995</ele>
        <time>2003-04-12T14:03:43Z</time>
      </trkpt>
      <trkpt lat="39.143005013465881" lon="-3.384095001965761">
        <ele>649.79999999999995</ele>
        <time>2003-04-12T14:03:46Z</time>
      </trkpt>
      <trkpt lat="39.142109993845224" lon="-3.383756959810853">
        <ele>649.20000000000005</ele>
        <time>2003-04-12T14:03:50Z</time>
      </trkpt>
      <trkpt lat="39.141212040558457" lon="-3.38342503644526">
        <ele>650.20000000000005</ele>
        <time>2003-04-12T14:03:53Z</time>
      </trkpt>
      <trkpt lat="39.140309980139136" lon="-3.383084982633591">
        <ele>649.10000000000002</ele>
        <time>2003-04-12T14:03:55Z</time>
      </trkpt>
      <trkpt lat="39.139398029074073" lon="-3.382748030126095">
        <ele>647.70000000000005</ele>
        <time>2003-04-12T14:03:58Z</time>
      </trkpt>
      <trkpt lat="39.138505021110177" lon="-3.382418034598231">
        <ele>647.39999999999998</ele>
        <time>2003-04-12T14:04:02Z</time>
      </trkpt>
      <trkpt lat="39.13761000148952" lon="-3.382082004100084">
        <ele>647.29999999999995</ele>
        <time>2003-04-12T14:04:05Z</time>
      </trkpt>
      <trkpt lat="39.136701989918947" lon="-3.381746979430318">
        <ele>648.10000000000002</ele>
        <time>2003-04-12T14:04:08Z</time>
      </trkpt>
      <trkpt lat="39.135791966691613" lon="-3.381399968639016">
        <ele>649.10000000000002</ele>
        <time>2003-04-12T14:04:10Z</time>
      </trkpt>
      <trkpt lat="39.134876998141408" lon="-3.381065027788281">
        <ele>651.5</ele>
        <time>2003-04-12T14:04:13Z</time>
      </trkpt>
      <trkpt lat="39.133941996842623" lon="-3.380714999511838">
        <ele>651</ele>
        <time>2003-04-12T14:04:17Z</time>
      </trkpt>
      <trkpt lat="39.132986962795258" lon="-3.380362959578633">
        <ele>650.79999999999995</ele>
        <time>2003-04-12T14:04:20Z</time>
      </trkpt>
      <trkpt lat="39.132027989253402" lon="-3.380003040656447">
        <ele>649.79999999999995</ele>
        <time>2003-04-12T14:04:22Z</time>
      </trkpt>
      <trkpt lat="39.131085025146604" lon="-3.379647983238101">
        <ele>650</ele>
        <time>2003-04-12T14:04:25Z</time>
      </trkpt>
      <trkpt lat="39.130162009969354" lon="-3.379299966618419">
        <ele>649.70000000000005</ele>
        <time>2003-04-12T14:04:29Z</time>
      </trkpt>
      <trkpt lat="39.129232037812471" lon="-3.378954967483878">
        <ele>649.79999999999995</ele>
        <time>2003-04-12T14:04:32Z</time>
      </trkpt>
      <trkpt lat="39.128287984058261" lon="-3.378626983612776">
        <ele>648.79999999999995</ele>
        <time>2003-04-12T14:04:35Z</time>
      </trkpt>
      <trkpt lat="39.127322975546122" lon="-3.378349961712956">
        <ele>647.20000000000005</ele>
        <time>2003-04-12T14:04:37Z</time>
      </trkpt>
      <trkpt lat="39.126346986740828" lon="-3.378133038058877">
        <ele>648.5</ele>
        <time>2003-04-12T14:04:40Z</time>
      </trkpt>
      <trkpt lat="39.125369992107153" lon="-3.377998005598784">
        <ele>650.39999999999998</ele>
        <time>2003-04-12T14:04:44Z</time>
      </trkpt>
      <trkpt lat="39.124376988038421" lon="-3.377917036414146">
        <ele>649.70000000000005</ele>
        <time>2003-04-12T14:04:47Z</time>
      </trkpt>
      <trkpt lat="39.123371997848153" lon="-3.377872025594115">
        <ele>649.70000000000005</ele>
        <time>2003-04-12T14:04:49Z</time>
      </trkpt>
      <trkpt lat="39.122358039021492" lon="-3.377840006724">
        <ele>650.10000000000002</ele>
        <time>2003-04-12T14:04:52Z</time>
      </trkpt>
      <trkpt lat="39.121333016082644" lon="-3.377794995903969">
        <ele>650.70000000000005</ele>
        <time>2003-04-12T14:04:56Z</time>
      </trkpt>
      <trkpt lat="39.120315033942461" lon="-3.377753002569079">
        <ele>651.60000000000002</ele>
        <time>2003-04-12T14:04:59Z</time>
      </trkpt>
      <trkpt lat="39.119292022660375" lon="-3.377715032547712">
        <ele>651.29999999999995</ele>
        <time>2003-04-12T14:05:02Z</time>
      </trkpt>
      <trkpt lat="39.118261970579624" lon="-3.377672033384442">
        <ele>651.20000000000005</ele>
        <time>2003-04-12T14:05:04Z</time>
      </trkpt>
      <trkpt lat="39.117227979004383" lon="-3.377632973715663">
        <ele>651.79999999999995</ele>
        <time>2003-04-12T14:05:07Z</time>
      </trkpt>
      <trkpt lat="39.116182001307607" lon="-3.377587040886283">
        <ele>651.20000000000005</ele>
        <time>2003-04-12T14:05:11Z</time>
      </trkpt>
      <trkpt lat="39.115137029439211" lon="-3.377546975389123">
        <ele>651</ele>
        <time>2003-04-12T14:05:14Z</time>
      </trkpt>
      <trkpt lat="39.114094991236925" lon="-3.377506993710995">
        <ele>651.29999999999995</ele>
        <time>2003-04-12T14:05:16Z</time>
      </trkpt>
      <trkpt lat="39.113053036853671" lon="-3.377467012032867">
        <ele>651.70000000000005</ele>
        <time>2003-04-12T14:05:19Z</time>
      </trkpt>
      <trkpt lat="39.112012004479766" lon="-3.377416972070932">
        <ele>652</ele>
        <time>2003-04-12T14:05:23Z</time>
      </trkpt>
      <trkpt lat="39.110972983762622" lon="-3.377374978736043">
        <ele>652.60000000000002</ele>
        <time>2003-04-12T14:05:26Z</time>
      </trkpt>
      <trkpt lat="39.109933041036129" lon="-3.377337008714676">
        <ele>652.70000000000005</ele>
        <time>2003-04-12T14:05:29Z</time>
      </trkpt>
      <trkpt lat="39.108892008662224" lon="-3.377293003723025">
        <ele>652.5</ele>
        <time>2003-04-12T14:05:31Z</time>
      </trkpt>
      <trkpt lat="39.107847036793828" lon="-3.377253022044897">
        <ele>652.29999999999995</ele>
        <time>2003-04-12T14:05:34Z</time>
      </trkpt>
      <trkpt lat="39.106792006641626" lon="-3.377202982082963">
        <ele>652.20000000000005</ele>
        <time>2003-04-12T14:05:38Z</time>
      </trkpt>
      <trkpt lat="39.105724990367889" lon="-3.377178004011512">
        <ele>652.29999999999995</ele>
        <time>2003-04-12T14:05:41Z</time>
      </trkpt>
      <trkpt lat="39.104652022942901" lon="-3.37715202011168">
        <ele>652.10000000000002</ele>
        <time>2003-04-12T14:05:43Z</time>
      </trkpt>
      <trkpt lat="39.1035779658705" lon="-3.377123018726707">
        <ele>651.29999999999995</ele>
        <time>2003-04-12T14:05:46Z</time>
      </trkpt>
      <trkpt lat="39.102517990395427" lon="-3.377072978764772">
        <ele>651.29999999999995</ele>
        <time>2003-04-12T14:05:50Z</time>
      </trkpt>
      <trkpt lat="39.101470001041889" lon="-3.377041965723038">
        <ele>651.5</ele>
        <time>2003-04-12T14:05:53Z</time>
      </trkpt>
      <trkpt lat="39.100432991981506" lon="-3.37700198404491">
        <ele>651.70000000000005</ele>
        <time>2003-04-12T14:05:56Z</time>
      </trkpt>
      <trkpt lat="39.099379973486066" lon="-3.376953033730388">
        <ele>651.70000000000005</ele>
        <time>2003-04-12T14:05:58Z</time>
      </trkpt>
      <trkpt lat="39.098337013274431" lon="-3.376912968233228">
        <ele>651.60000000000002</ele>
        <time>2003-04-12T14:06:01Z</time>
      </trkpt>
      <trkpt lat="39.097296986728907" lon="-3.376868041232228">
        <ele>651</ele>
        <time>2003-04-12T14:06:05Z</time>
      </trkpt>
      <trkpt lat="39.096255032345653" lon="-3.376823030412197">
        <ele>650.70000000000005</ele>
        <time>2003-04-12T14:06:08Z</time>
      </trkpt>
      <trkpt lat="39.095212994143367" lon="-3.376782964915037">
        <ele>650.5</ele>
        <time>2003-04-12T14:06:10Z</time>
      </trkpt>
      <trkpt lat="39.094168022274971" lon="-3.376747006550431">
        <ele>650</ele>
        <time>2003-04-12T14:06:13Z</time>
      </trkpt>
      <trkpt lat="39.093124978244305" lon="-3.376703001558781">
        <ele>650.29999999999995</ele>
        <time>2003-04-12T14:06:17Z</time>
      </trkpt>
      <trkpt lat="39.092086963355541" lon="-3.376663019880652">
        <ele>650.39999999999998</ele>
        <time>2003-04-12T14:06:20Z</time>
      </trkpt>
      <trkpt lat="39.091054983437061" lon="-3.376620020717382">
        <ele>651</ele>
        <time>2003-04-12T14:06:23Z</time>
      </trkpt>
      <trkpt lat="39.090021997690201" lon="-3.376577021554112">
        <ele>649.79999999999995</ele>
        <time>2003-04-12T14:06:25Z</time>
      </trkpt>
      <trkpt lat="39.088979959487915" lon="-3.376533016562462">
        <ele>649</ele>
        <time>2003-04-12T14:06:28Z</time>
      </trkpt>
      <trkpt lat="39.087942028418183" lon="-3.376496974378824">
        <ele>649.29999999999995</ele>
        <time>2003-04-12T14:06:32Z</time>
      </trkpt>
      <trkpt lat="39.0869050193578" lon="-3.376451963558793">
        <ele>649.89999999999998</ele>
        <time>2003-04-12T14:06:35Z</time>
      </trkpt>
      <trkpt lat="39.085870021954179" lon="-3.376407958567143">
        <ele>649.79999999999995</ele>
        <time>2003-04-12T14:06:37Z</time>
      </trkpt>
      <trkpt lat="39.084835024550557" lon="-3.376362025737763">
        <ele>649.89999999999998</ele>
        <time>2003-04-12T14:06:40Z</time>
      </trkpt>
      <trkpt lat="39.083797009661794" lon="-3.376322966068983">
        <ele>650.20000000000005</ele>
        <time>2003-04-12T14:06:44Z</time>
      </trkpt>
      <trkpt lat="39.08275798894465" lon="-3.376284996047616">
        <ele>649.70000000000005</ele>
        <time>2003-04-12T14:06:47Z</time>
      </trkpt>
      <trkpt lat="39.081719974055886" lon="-3.376239985227585">
        <ele>649.89999999999998</ele>
        <time>2003-04-12T14:06:50Z</time>
      </trkpt>
      <trkpt lat="39.080682964995503" lon="-3.376200003549457">
        <ele>650.29999999999995</ele>
        <time>2003-04-12T14:06:52Z</time>
      </trkpt>
      <trkpt lat="39.079651990905404" lon="-3.37616303935647">
        <ele>650.79999999999995</ele>
        <time>2003-04-12T14:06:55Z</time>
      </trkpt>
      <trkpt lat="39.078625040128827" lon="-3.376111993566155">
        <ele>650.79999999999995</ele>
        <time>2003-04-12T14:06:59Z</time>
      </trkpt>
      <trkpt lat="39.077603034675121" lon="-3.376075029373169">
        <ele>651.10000000000002</ele>
        <time>2003-04-12T14:07:02Z</time>
      </trkpt>
      <trkpt lat="39.076572982594371" lon="-3.376034963876009">
        <ele>651.20000000000005</ele>
        <time>2003-04-12T14:07:04Z</time>
      </trkpt>
      <trkpt lat="39.075533039867878" lon="-3.375996993854642">
        <ele>651.60000000000002</ele>
        <time>2003-04-12T14:07:07Z</time>
      </trkpt>
      <trkpt lat="39.074483038857579" lon="-3.375958018004894">
        <ele>651.10000000000002</ele>
        <time>2003-04-12T14:07:11Z</time>
      </trkpt>
      <trkpt lat="39.073427002876997" lon="-3.375909989699721">
        <ele>651.29999999999995</ele>
        <time>2003-04-12T14:07:14Z</time>
      </trkpt>
      <trkpt lat="39.072365015745163" lon="-3.37586497887969">
        <ele>651.5</ele>
        <time>2003-04-12T14:07:17Z</time>
      </trkpt>
      <trkpt lat="39.071297999471426" lon="-3.375828014686704">
        <ele>651.79999999999995</ele>
        <time>2003-04-12T14:07:19Z</time>
      </trkpt>
      <trkpt lat="39.070257972925901" lon="-3.375783003866673">
        <ele>652.20000000000005</ele>
        <time>2003-04-12T14:07:22Z</time>
      </trkpt>
      <trkpt lat="39.069262035191059" lon="-3.375740004703403">
        <ele>652.79999999999995</ele>
        <time>2003-04-12T14:07:26Z</time>
      </trkpt>
      <trkpt lat="39.068252015858889" lon="-3.37569298222661">
        <ele>652.79999999999995</ele>
        <time>2003-04-12T14:07:29Z</time>
      </trkpt>
      <trkpt lat="39.067241996526718" lon="-3.375634979456663">
        <ele>653</ele>
        <time>2003-04-12T14:07:31Z</time>
      </trkpt>
      <trkpt lat="39.066229965537786" lon="-3.375574965029955">
        <ele>653</ele>
        <time>2003-04-12T14:07:34Z</time>
      </trkpt>
      <trkpt lat="39.065218018367887" lon="-3.375536995008588">
        <ele>653.20000000000005</ele>
        <time>2003-04-12T14:07:38Z</time>
      </trkpt>
      <trkpt lat="39.064206993207335" lon="-3.375500030815601">
        <ele>653.5</ele>
        <time>2003-04-12T14:07:41Z</time>
      </trkpt>
      <trkpt lat="39.063193034380674" lon="-3.37549801915884">
        <ele>653.89999999999998</ele>
        <time>2003-04-12T14:07:44Z</time>
      </trkpt>
      <trkpt lat="39.062182009220123" lon="-3.375452002510428">
        <ele>654.20000000000005</ele>
        <time>2003-04-12T14:07:46Z</time>
      </trkpt>
      <trkpt lat="39.061171989887953" lon="-3.375416966155171">
        <ele>654.60000000000002</ele>
        <time>2003-04-12T14:07:49Z</time>
      </trkpt>
      <trkpt lat="39.060166999697685" lon="-3.375376984477043">
        <ele>654.89999999999998</ele>
        <time>2003-04-12T14:07:53Z</time>
      </trkpt>
      <trkpt lat="39.059165026992559" lon="-3.375342031940818">
        <ele>654.89999999999998</ele>
        <time>2003-04-12T14:07:56Z</time>
      </trkpt>
      <trkpt lat="39.058173028752208" lon="-3.375287968665361">
        <ele>655.29999999999995</ele>
        <time>2003-04-12T14:07:58Z</time>
      </trkpt>
      <trkpt lat="39.057184970006347" lon="-3.375243041664362">
        <ele>654.60000000000002</ele>
        <time>2003-04-12T14:08:01Z</time>
      </trkpt>
      <trkpt lat="39.056190038099885" lon="-3.37517699226737">
        <ele>654</ele>
        <time>2003-04-12T14:08:05Z</time>
      </trkpt>
      <trkpt lat="39.055187981575727" lon="-3.375137010589242">
        <ele>654.39999999999998</ele>
        <time>2003-04-12T14:08:08Z</time>
      </trkpt>
      <trkpt lat="39.054188020527363" lon="-3.375097028911114">
        <ele>656.29999999999995</ele>
        <time>2003-04-12T14:08:11Z</time>
      </trkpt>
      <trkpt lat="39.053184958174825" lon="-3.375056963413954">
        <ele>656.89999999999998</ele>
        <time>2003-04-12T14:08:13Z</time>
      </trkpt>
      <trkpt lat="39.052160019055009" lon="-3.375023016706109">
        <ele>656.89999999999998</ele>
        <time>2003-04-12T14:08:16Z</time>
      </trkpt>
      <trkpt lat="39.051119992509484" lon="-3.37500499561429">
        <ele>656.60000000000002</ele>
        <time>2003-04-12T14:08:20Z</time>
      </trkpt>
      <trkpt lat="39.05007996596396" lon="-3.374968031421304">
        <ele>656.89999999999998</ele>
        <time>2003-04-12T14:08:23Z</time>
      </trkpt>
      <trkpt lat="39.049049997702241" lon="-3.374932995066047">
        <ele>657.29999999999995</ele>
        <time>2003-04-12T14:08:25Z</time>
      </trkpt>
      <trkpt lat="39.048032015562057" lon="-3.374897036701441">
        <ele>658</ele>
        <time>2003-04-12T14:08:28Z</time>
      </trkpt>
      <trkpt lat="39.047007998451591" lon="-3.374838028103113">
        <ele>658.29999999999995</ele>
        <time>2003-04-12T14:08:32Z</time>
      </trkpt>
      <trkpt lat="39.045967971906066" lon="-3.374774996191263">
        <ele>658.60000000000002</ele>
        <time>2003-04-12T14:08:35Z</time>
      </trkpt>
      <trkpt lat="39.044915037229657" lon="-3.37472696788609">
        <ele>659.20000000000005</ele>
        <time>2003-04-12T14:08:38Z</time>
      </trkpt>
      <trkpt lat="39.043852966278791" lon="-3.374690003693104">
        <ele>660.10000000000002</ele>
        <time>2003-04-12T14:08:40Z</time>
      </trkpt>
      <trkpt lat="39.042782010510564" lon="-3.374656978994608">
        <ele>660</ele>
        <time>2003-04-12T14:08:43Z</time>
      </trkpt>
      <trkpt lat="39.04169999063015" lon="-3.37463703006506">
        <ele>659.70000000000005</ele>
        <time>2003-04-12T14:08:47Z</time>
      </trkpt>
      <trkpt lat="39.040612019598484" lon="-3.374590007588267">
        <ele>659.29999999999995</ele>
        <time>2003-04-12T14:08:50Z</time>
      </trkpt>
      <trkpt lat="39.039533017203212" lon="-3.374556982889772">
        <ele>659.39999999999998</ele>
        <time>2003-04-12T14:08:52Z</time>
      </trkpt>
      <trkpt lat="39.038464995101094" lon="-3.374505015090108">
        <ele>659.39999999999998</ele>
        <time>2003-04-12T14:08:55Z</time>
      </trkpt>
      <trkpt lat="39.03740200214088" lon="-3.374457992613316">
        <ele>659.29999999999995</ele>
        <time>2003-04-12T14:08:59Z</time>
      </trkpt>
      <trkpt lat="39.036342026665807" lon="-3.374418010935187">
        <ele>659.5</ele>
        <time>2003-04-12T14:09:03Z</time>
      </trkpt>
      <trkpt lat="39.035284984856844" lon="-3.374371994286776">
        <ele>659.39999999999998</ele>
        <time>2003-04-12T14:09:06Z</time>
      </trkpt>
      <trkpt lat="39.034228026866913" lon="-3.374333018437028">
        <ele>659.39999999999998</ele>
        <time>2003-04-12T14:09:09Z</time>
      </trkpt>
      <trkpt lat="39.033160004764795" lon="-3.374282978475094">
        <ele>659</ele>
        <time>2003-04-12T14:09:11Z</time>
      </trkpt>
      <trkpt lat="39.032091982662678" lon="-3.374237967655063">
        <ele>660</ele>
        <time>2003-04-12T14:09:14Z</time>
      </trkpt>
      <trkpt lat="39.031026978045702" lon="-3.374196980148554">
        <ele>660.10000000000002</ele>
        <time>2003-04-12T14:09:18Z</time>
      </trkpt>
      <trkpt lat="39.029970020055771" lon="-3.374154986813664">
        <ele>660.5</ele>
        <time>2003-04-12T14:09:21Z</time>
      </trkpt>
      <trkpt lat="39.028911972418427" lon="-3.374105030670762">
        <ele>660.79999999999995</ele>
        <time>2003-04-12T14:09:23Z</time>
      </trkpt>
      <trkpt lat="39.02784202247858" lon="-3.374043004587293">
        <ele>660.79999999999995</ele>
        <time>2003-04-12T14:09:26Z</time>
      </trkpt>
      <trkpt lat="39.026766959577799" lon="-3.373982990160584">
        <ele>661.20000000000005</ele>
        <time>2003-04-12T14:09:30Z</time>
      </trkpt>
      <trkpt lat="39.025766998529434" lon="-3.373936973512173">
        <ele>662.20000000000005</ele>
        <time>2003-04-12T14:09:33Z</time>
      </trkpt>
      <trkpt lat="39.024808024987578" lon="-3.373900009319186">
        <ele>663.39999999999998</ele>
        <time>2003-04-12T14:09:36Z</time>
      </trkpt>
      <trkpt lat="39.023830024525523" lon="-3.373864972963929">
        <ele>663.39999999999998</ele>
        <time>2003-04-12T14:09:38Z</time>
      </trkpt>
      <trkpt lat="39.022825034335256" lon="-3.373830020427704">
        <ele>662.79999999999995</ele>
        <time>2003-04-12T14:09:41Z</time>
      </trkpt>
      <trkpt lat="39.021802023053169" lon="-3.373796995729208">
        <ele>662.5</ele>
        <time>2003-04-12T14:09:45Z</time>
      </trkpt>
      <trkpt lat="39.020763002336025" lon="-3.373773023486137">
        <ele>662.60000000000002</ele>
        <time>2003-04-12T14:09:48Z</time>
      </trkpt>
      <trkpt lat="39.019730016589165" lon="-3.3737369813025">
        <ele>662.60000000000002</ele>
        <time>2003-04-12T14:09:50Z</time>
      </trkpt>
      <trkpt lat="39.018701976165175" lon="-3.373692976310849">
        <ele>663.10000000000002</ele>
        <time>2003-04-12T14:09:53Z</time>
      </trkpt>
      <trkpt lat="39.017697991803288" lon="-3.373660035431385">
        <ele>663.70000000000005</ele>
        <time>2003-04-12T14:09:57Z</time>
      </trkpt>
      <trkpt lat="39.016723008826375" lon="-3.373652994632721">
        <ele>663.29999999999995</ele>
        <time>2003-04-12T14:10:00Z</time>
      </trkpt>
      <trkpt lat="39.015762023627758" lon="-3.373818034306169">
        <ele>663.10000000000002</ele>
        <time>2003-04-12T14:10:03Z</time>
      </trkpt>
      <trkpt lat="39.014812018722296" lon="-3.374162027612329">
        <ele>663.60000000000002</ele>
        <time>2003-04-12T14:10:05Z</time>
      </trkpt>
      <trkpt lat="39.013882968574762" lon="-3.374648010358214">
        <ele>663.60000000000002</ele>
        <time>2003-04-12T14:10:08Z</time>
      </trkpt>
      <trkpt lat="39.013042012229562" lon="-3.375253016129136">
        <ele>663.5</ele>
        <time>2003-04-12T14:10:12Z</time>
      </trkpt>
      <trkpt lat="39.01226500980556" lon="-3.375997999683023">
        <ele>664.20000000000005</ele>
        <time>2003-04-12T14:10:15Z</time>
      </trkpt>
      <trkpt lat="39.011522959917784" lon="-3.376823030412197">
        <ele>664.5</ele>
        <time>2003-04-12T14:10:17Z</time>
      </trkpt>
      <trkpt lat="39.010764984413981" lon="-3.377661975100637">
        <ele>664.29999999999995</ele>
        <time>2003-04-12T14:10:20Z</time>
      </trkpt>
      <trkpt lat="39.00998798198998" lon="-3.378515001386404">
        <ele>662.5</ele>
        <time>2003-04-12T14:10:24Z</time>
      </trkpt>
      <trkpt lat="39.009205028414726" lon="-3.379372972995043">
        <ele>661.10000000000002</ele>
        <time>2003-04-12T14:10:27Z</time>
      </trkpt>
      <trkpt lat="39.00841997936368" lon="-3.380233040079474">
        <ele>660.20000000000005</ele>
        <time>2003-04-12T14:10:30Z</time>
      </trkpt>
      <trkpt lat="39.007639959454536" lon="-3.381090005859733">
        <ele>659.20000000000005</ele>
        <time>2003-04-12T14:10:32Z</time>
      </trkpt>
      <trkpt lat="39.00687200948596" lon="-3.381934985518456">
        <ele>660.10000000000002</ele>
        <time>2003-04-12T14:10:35Z</time>
      </trkpt>
      <trkpt lat="39.006112022325397" lon="-3.382769990712404">
        <ele>660.60000000000002</ele>
        <time>2003-04-12T14:10:39Z</time>
      </trkpt>
      <trkpt lat="39.005348011851311" lon="-3.383610025048256">
        <ele>660.39999999999998</ele>
        <time>2003-04-12T14:10:42Z</time>
      </trkpt>
      <trkpt lat="39.004577966406941" lon="-3.384443018585444">
        <ele>660.5</ele>
        <time>2003-04-12T14:10:44Z</time>
      </trkpt>
      <trkpt lat="39.003810016438365" lon="-3.385284980759025">
        <ele>663.20000000000005</ele>
        <time>2003-04-12T14:10:47Z</time>
      </trkpt>
      <trkpt lat="39.003045000135899" lon="-3.386131972074509">
        <ele>665.70000000000005</ele>
        <time>2003-04-12T14:10:51Z</time>
      </trkpt>
      <trkpt lat="39.002283001318574" lon="-3.386979969218373">
        <ele>668.29999999999995</ele>
        <time>2003-04-12T14:10:54Z</time>
      </trkpt>
      <trkpt lat="39.001492001116276" lon="-3.387782033532858">
        <ele>668.29999999999995</ele>
        <time>2003-04-12T14:10:57Z</time>
      </trkpt>
      <trkpt lat="39.000622965395451" lon="-3.388474965468049">
        <ele>666.10000000000002</ele>
        <time>2003-04-12T14:10:59Z</time>
      </trkpt>
      <trkpt lat="38.999689975753427" lon="-3.389048036187887">
        <ele>664.39999999999998</ele>
        <time>2003-04-12T14:11:02Z</time>
      </trkpt>
      <trkpt lat="38.998699989169836" lon="-3.389478027820587">
        <ele>662</ele>
        <time>2003-04-12T14:11:06Z</time>
      </trkpt>
      <trkpt lat="38.997672032564878" lon="-3.389756977558136">
        <ele>659.5</ele>
        <time>2003-04-12T14:11:09Z</time>
      </trkpt>
      <trkpt lat="38.99662496522069" lon="-3.389884969219565">
        <ele>659.89999999999998</ele>
        <time>2003-04-12T14:11:11Z</time>
      </trkpt>
      <trkpt lat="38.995576975867152" lon="-3.389846999198198">
        <ele>660</ele>
        <time>2003-04-12T14:11:14Z</time>
      </trkpt>
      <trkpt lat="38.994539966806769" lon="-3.389682965353131">
        <ele>659.70000000000005</ele>
        <time>2003-04-12T14:11:18Z</time>
      </trkpt>
      <trkpt lat="38.993519973009825" lon="-3.389345007017255">
        <ele>659.20000000000005</ele>
        <time>2003-04-12T14:11:21Z</time>
      </trkpt>
      <trkpt lat="38.992538033053279" lon="-3.388837985694408">
        <ele>659.20000000000005</ele>
        <time>2003-04-12T14:11:24Z</time>
      </trkpt>
      <trkpt lat="38.991592973470688" lon="-3.388200039044023">
        <ele>659.10000000000002</ele>
        <time>2003-04-12T14:11:26Z</time>
      </trkpt>
      <trkpt lat="38.990735001862049" lon="-3.38742203079164">
        <ele>662.89999999999998</ele>
        <time>2003-04-12T14:11:29Z</time>
      </trkpt>
      <trkpt lat="38.989937966689467" lon="-3.386573027819395">
        <ele>666.29999999999995</ele>
        <time>2003-04-12T14:11:33Z</time>
      </trkpt>
      <trkpt lat="38.98914503864944" lon="-3.385732993483543">
        <ele>670.20000000000005</ele>
        <time>2003-04-12T14:11:36Z</time>
      </trkpt>
      <trkpt lat="38.988357977941632" lon="-3.384903017431498">
        <ele>671.20000000000005</ele>
        <time>2003-04-12T14:11:38Z</time>
      </trkpt>
      <trkpt lat="38.987564966082573" lon="-3.384073041379452">
        <ele>669.60000000000002</ele>
        <time>2003-04-12T14:11:41Z</time>
      </trkpt>
      <trkpt lat="38.986774971708655" lon="-3.383284974843264">
        <ele>667.60000000000002</ele>
        <time>2003-04-12T14:11:45Z</time>
      </trkpt>
      <trkpt lat="38.985914988443255" lon="-3.38260998018086">
        <ele>666.79999999999995</ele>
        <time>2003-04-12T14:11:48Z</time>
      </trkpt>
      <trkpt lat="38.984989961609244" lon="-3.382068006321788">
        <ele>667.10000000000002</ele>
        <time>2003-04-12T14:11:51Z</time>
      </trkpt>
      <trkpt lat="38.984005004167557" lon="-3.38168696500361">
        <ele>666.79999999999995</ele>
        <time>2003-04-12T14:11:53Z</time>
      </trkpt>
      <trkpt lat="38.983015017583966" lon="-3.381486972793937">
        <ele>666.20000000000005</ele>
        <time>2003-04-12T14:11:56Z</time>
      </trkpt>
      <trkpt lat="38.982025031000376" lon="-3.381412038579583">
        <ele>665.39999999999998</ele>
        <time>2003-04-12T14:12:00Z</time>
      </trkpt>
      <trkpt lat="38.981042001396418" lon="-3.381497031077743">
        <ele>667.39999999999998</ele>
        <time>2003-04-12T14:12:03Z</time>
      </trkpt>
      <trkpt lat="38.980047991499305" lon="-3.38162200525403">
        <ele>668.39999999999998</ele>
        <time>2003-04-12T14:12:05Z</time>
      </trkpt>
      <trkpt lat="38.97904803045094" lon="-3.381742034107447">
        <ele>669.70000000000005</ele>
        <time>2003-04-12T14:12:08Z</time>
      </trkpt>
      <trkpt lat="38.978037005290389" lon="-3.381872959434986">
        <ele>669.79999999999995</ele>
        <time>2003-04-12T14:12:12Z</time>
      </trkpt>
      <trkpt lat="38.977014999836683" lon="-3.382021989673376">
        <ele>670.10000000000002</ele>
        <time>2003-04-12T14:12:15Z</time>
      </trkpt>
      <trkpt lat="38.975982014089823" lon="-3.382140006870031">
        <ele>670.20000000000005</ele>
        <time>2003-04-12T14:12:18Z</time>
      </trkpt>
      <trkpt lat="38.974941987544298" lon="-3.382262969389558">
        <ele>670.29999999999995</ele>
        <time>2003-04-12T14:12:20Z</time>
      </trkpt>
      <trkpt lat="38.973891986533999" lon="-3.382382998242974">
        <ele>670.60000000000002</ele>
        <time>2003-04-12T14:12:23Z</time>
      </trkpt>
      <trkpt lat="38.97283704020083" lon="-3.382503027096391">
        <ele>671</ele>
        <time>2003-04-12T14:12:27Z</time>
      </trkpt>
      <trkpt lat="38.971779998391867" lon="-3.382626995444298">
        <ele>671.70000000000005</ele>
        <time>2003-04-12T14:12:30Z</time>
      </trkpt>
      <trkpt lat="38.970726979896426" lon="-3.382750041782856">
        <ele>672.60000000000002</ele>
        <time>2003-04-12T14:12:32Z</time>
      </trkpt>
      <trkpt lat="38.969687959179282" lon="-3.38286797516048">
        <ele>674</ele>
        <time>2003-04-12T14:12:35Z</time>
      </trkpt>
      <trkpt lat="38.968666959553957" lon="-3.382984986528754">
        <ele>676.10000000000002</ele>
        <time>2003-04-12T14:12:39Z</time>
      </trkpt>
      <trkpt lat="38.967643026262522" lon="-3.383109960705042">
        <ele>678.20000000000005</ele>
        <time>2003-04-12T14:12:42Z</time>
      </trkpt>
      <trkpt lat="38.966614985838532" lon="-3.3832330070436">
        <ele>679</ele>
        <time>2003-04-12T14:12:45Z</time>
      </trkpt>
      <trkpt lat="38.965589962899685" lon="-3.383352030068636">
        <ele>679.60000000000002</ele>
        <time>2003-04-12T14:12:47Z</time>
      </trkpt>
      <trkpt lat="38.964574998244643" lon="-3.38346996344626">
        <ele>681.29999999999995</ele>
        <time>2003-04-12T14:12:50Z</time>
      </trkpt>
      <trkpt lat="38.963547041639686" lon="-3.383587980642915">
        <ele>681.10000000000002</ele>
        <time>2003-04-12T14:12:54Z</time>
      </trkpt>
      <trkpt lat="38.962516989558935" lon="-3.383707003667951">
        <ele>682</ele>
        <time>2003-04-12T14:12:57Z</time>
      </trkpt>
      <trkpt lat="38.961485009640455" lon="-3.383828038349748">
        <ele>684</ele>
        <time>2003-04-12T14:12:59Z</time>
      </trkpt>
      <trkpt lat="38.960444983094931" lon="-3.383952006697655">
        <ele>683</ele>
        <time>2003-04-12T14:13:02Z</time>
      </trkpt>
      <trkpt lat="38.95939196459949" lon="-3.384073041379452">
        <ele>682.5</ele>
        <time>2003-04-12T14:13:06Z</time>
      </trkpt>
      <trkpt lat="38.95833701826632" lon="-3.384179994463921">
        <ele>683.70000000000005</ele>
        <time>2003-04-12T14:13:09Z</time>
      </trkpt>
      <trkpt lat="38.957292968407273" lon="-3.384288037195802">
        <ele>684.60000000000002</ele>
        <time>2003-04-12T14:13:12Z</time>
      </trkpt>
      <trkpt lat="38.956247996538877" lon="-3.384407982230187">
        <ele>684.70000000000005</ele>
        <time>2003-04-12T14:13:14Z</time>
      </trkpt>
      <trkpt lat="38.955196989700198" lon="-3.384562963619828">
        <ele>683</ele>
        <time>2003-04-12T14:13:17Z</time>
      </trkpt>
      <trkpt lat="38.954131985083222" lon="-3.384691961109638">
        <ele>680.39999999999998</ele>
        <time>2003-04-12T14:13:21Z</time>
      </trkpt>
      <trkpt lat="38.953054994344711" lon="-3.384818024933338">
        <ele>677.60000000000002</ele>
        <time>2003-04-12T14:13:24Z</time>
      </trkpt>
      <trkpt lat="38.951980015262961" lon="-3.384939981624484">
        <ele>677.5</ele>
        <time>2003-04-12T14:13:26Z</time>
      </trkpt>
      <trkpt lat="38.950909981504083" lon="-3.385066967457533">
        <ele>677</ele>
        <time>2003-04-12T14:13:29Z</time>
      </trkpt>
      <trkpt lat="38.949842965230346" lon="-3.385192025452852">
        <ele>677.60000000000002</ele>
        <time>2003-04-12T14:13:33Z</time>
      </trkpt>
      <trkpt lat="38.948805034160614" lon="-3.38531699962914">
        <ele>678.89999999999998</ele>
        <time>2003-04-12T14:13:36Z</time>
      </trkpt>
      <trkpt lat="38.947834996506572" lon="-3.385426970198751">
        <ele>678.20000000000005</ele>
        <time>2003-04-12T14:13:39Z</time>
      </trkpt>
      <trkpt lat="38.946911981329322" lon="-3.385537024587393">
        <ele>677.89999999999998</ele>
        <time>2003-04-12T14:13:41Z</time>
      </trkpt>
      <trkpt lat="38.945997012779117" lon="-3.385641966015101">
        <ele>677.79999999999995</ele>
        <time>2003-04-12T14:13:44Z</time>
      </trkpt>
      <trkpt lat="38.945084977895021" lon="-3.385753026232123">
        <ele>677.79999999999995</ele>
        <time>2003-04-12T14:13:48Z</time>
      </trkpt>
      <trkpt lat="38.944146959111094" lon="-3.385857967659831">
        <ele>678</ele>
        <time>2003-04-12T14:13:51Z</time>
      </trkpt>
      <trkpt lat="38.943184968084097" lon="-3.385938014835119">
        <ele>678.10000000000002</ele>
        <time>2003-04-12T14:13:53Z</time>
      </trkpt>
      <trkpt lat="38.942249966785312" lon="-3.386052008718252">
        <ele>677.79999999999995</ele>
        <time>2003-04-12T14:13:56Z</time>
      </trkpt>
      <trkpt lat="38.941342039033771" lon="-3.38615502230823">
        <ele>678.29999999999995</ele>
        <time>2003-04-12T14:14:00Z</time>
      </trkpt>
      <trkpt lat="38.940424975007772" lon="-3.386259963735938">
        <ele>678.5</ele>
        <time>2003-04-12T14:14:03Z</time>
      </trkpt>
      <trkpt lat="38.939255028963089" lon="-3.386394996196032">
        <ele>678.60000000000002</ele>
        <time>2003-04-12T14:14:07Z</time>
      </trkpt>
      <trkpt lat="38.938057003542781" lon="-3.386537991464138">
        <ele>678.89999999999998</ele>
        <time>2003-04-12T14:14:11Z</time>
      </trkpt>
      <trkpt lat="38.936889991164207" lon="-3.386675035580993">
        <ele>679.10000000000002</ele>
        <time>2003-04-12T14:14:15Z</time>
      </trkpt>
      <trkpt lat="38.935807971283793" lon="-3.386805038899183">
        <ele>679.60000000000002</ele>
        <time>2003-04-12T14:14:19Z</time>
      </trkpt>
      <trkpt lat="38.934740033000708" lon="-3.386933030560613">
        <ele>680</ele>
        <time>2003-04-12T14:14:23Z</time>
      </trkpt>
      <trkpt lat="38.933722972869873" lon="-3.387047024443746">
        <ele>680</ele>
        <time>2003-04-12T14:14:27Z</time>
      </trkpt>
      <trkpt lat="38.932699961587787" lon="-3.38716696947813">
        <ele>680.10000000000002</ele>
        <time>2003-04-12T14:14:31Z</time>
      </trkpt>
      <trkpt lat="38.9318030141294" lon="-3.387269983068109">
        <ele>680.20000000000005</ele>
        <time>2003-04-12T14:14:34Z</time>
      </trkpt>
      <trkpt lat="38.930829958990216" lon="-3.38738196529448">
        <ele>680.39999999999998</ele>
        <time>2003-04-12T14:14:38Z</time>
      </trkpt>
      <trkpt lat="38.929822035133839" lon="-3.387497970834374">
        <ele>680.70000000000005</ele>
        <time>2003-04-12T14:14:42Z</time>
      </trkpt>
      <trkpt lat="38.928887033835053" lon="-3.387611964717507">
        <ele>681</ele>
        <time>2003-04-12T14:14:46Z</time>
      </trkpt>
      <trkpt lat="38.927944991737604" lon="-3.387714978307486">
        <ele>681.29999999999995</ele>
        <time>2003-04-12T14:14:50Z</time>
      </trkpt>
      <trkpt lat="38.926949976012111" lon="-3.387807011604309">
        <ele>681.5</ele>
        <time>2003-04-12T14:14:54Z</time>
      </trkpt>
      <trkpt lat="38.925908021628857" lon="-3.387902984395623">
        <ele>681.89999999999998</ele>
        <time>2003-04-12T14:14:58Z</time>
      </trkpt>
      <trkpt lat="38.924890039488673" lon="-3.388001974672079">
        <ele>682.10000000000002</ele>
        <time>2003-04-12T14:15:02Z</time>
      </trkpt>
      <trkpt lat="38.923869961872697" lon="-3.388106999918819">
        <ele>682.29999999999995</ele>
        <time>2003-04-12T14:15:06Z</time>
      </trkpt>
      <trkpt lat="38.922870000824332" lon="-3.388227028772235">
        <ele>682.5</ele>
        <time>2003-04-12T14:15:10Z</time>
      </trkpt>
      <trkpt lat="38.921844977885485" lon="-3.388343034312129">
        <ele>682.79999999999995</ele>
        <time>2003-04-12T14:15:14Z</time>
      </trkpt>
      <trkpt lat="38.920852979645133" lon="-3.38845300488174">
        <ele>682.70000000000005</ele>
        <time>2003-04-12T14:15:18Z</time>
      </trkpt>
      <trkpt lat="38.919937005266547" lon="-3.388557024300098">
        <ele>682.70000000000005</ele>
        <time>2003-04-12T14:15:23Z</time>
      </trkpt>
      <trkpt lat="38.918988006189466" lon="-3.388662971556187">
        <ele>682.89999999999998</ele>
        <time>2003-04-12T14:15:27Z</time>
      </trkpt>
      <trkpt lat="38.918034983798862" lon="-3.388773025944829">
        <ele>683.10000000000002</ele>
        <time>2003-04-12T14:15:31Z</time>
      </trkpt>
      <trkpt lat="38.917039968073368" lon="-3.388885008171201">
        <ele>683.20000000000005</ele>
        <time>2003-04-12T14:15:35Z</time>
      </trkpt>
      <trkpt lat="38.916017962619662" lon="-3.389006964862347">
        <ele>682.79999999999995</ele>
        <time>2003-04-12T14:15:39Z</time>
      </trkpt>
      <trkpt lat="38.914952035993338" lon="-3.389124982059002">
        <ele>682.39999999999998</ele>
        <time>2003-04-12T14:15:43Z</time>
      </trkpt>
      <trkpt lat="38.91386297531426" lon="-3.389254985377193">
        <ele>682.29999999999995</ele>
        <time>2003-04-12T14:15:47Z</time>
      </trkpt>
      <trkpt lat="38.912738040089607" lon="-3.389390017837286">
        <ele>682.20000000000005</ele>
        <time>2003-04-12T14:15:51Z</time>
      </trkpt>
      <trkpt lat="38.911602962762117" lon="-3.389518009498715">
        <ele>682.20000000000005</ele>
        <time>2003-04-12T14:15:55Z</time>
      </trkpt>
      <trkpt lat="38.910405021160841" lon="-3.389659998938441">
        <ele>682.20000000000005</ele>
        <time>2003-04-12T14:15:59Z</time>
      </trkpt>
      <trkpt lat="38.909473037347198" lon="-3.389772986993194">
        <ele>682</ele>
        <time>2003-04-12T14:16:02Z</time>
      </trkpt>
      <trkpt lat="38.908520014956594" lon="-3.389883041381836">
        <ele>681.79999999999995</ele>
        <time>2003-04-12T14:16:04Z</time>
      </trkpt>
      <trkpt lat="38.907536985352635" lon="-3.390002986416221">
        <ele>681.39999999999998</ele>
        <time>2003-04-12T14:16:07Z</time>
      </trkpt>
      <trkpt lat="38.906538030132651" lon="-3.390114968642592">
        <ele>681.79999999999995</ele>
        <time>2003-04-12T14:16:11Z</time>
      </trkpt>
      <trkpt lat="38.905562041327357" lon="-3.390222005546093">
        <ele>682</ele>
        <time>2003-04-12T14:16:14Z</time>
      </trkpt>
      <trkpt lat="38.904642965644598" lon="-3.390331976115704">
        <ele>682.20000000000005</ele>
        <time>2003-04-12T14:16:17Z</time>
      </trkpt>
      <trkpt lat="38.903454998508096" lon="-3.390462985262275">
        <ele>682.70000000000005</ele>
        <time>2003-04-12T14:16:21Z</time>
      </trkpt>
      <trkpt lat="38.902529971674085" lon="-3.390574967488647">
        <ele>682.79999999999995</ele>
        <time>2003-04-12T14:16:23Z</time>
      </trkpt>
      <trkpt lat="38.901579966768622" lon="-3.390677981078625">
        <ele>683</ele>
        <time>2003-04-12T14:16:26Z</time>
      </trkpt>
      <trkpt lat="38.900614958256483" lon="-3.390794992446899">
        <ele>682.89999999999998</ele>
        <time>2003-04-12T14:16:30Z</time>
      </trkpt>
      <trkpt lat="38.899635029956698" lon="-3.390906974673271">
        <ele>682.60000000000002</ele>
        <time>2003-04-12T14:16:33Z</time>
      </trkpt>
      <trkpt lat="38.898646971210837" lon="-3.391018034890294">
        <ele>682.29999999999995</ele>
        <time>2003-04-12T14:16:35Z</time>
      </trkpt>
      <trkpt lat="38.897639969363809" lon="-3.391136974096298">
        <ele>682.5</ele>
        <time>2003-04-12T14:16:38Z</time>
      </trkpt>
      <trkpt lat="38.896617963910103" lon="-3.391258008778095">
        <ele>682</ele>
        <time>2003-04-12T14:16:42Z</time>
      </trkpt>
      <trkpt lat="38.895582966506481" lon="-3.391378037631512">
        <ele>682.29999999999995</ele>
        <time>2003-04-12T14:16:45Z</time>
      </trkpt>
      <trkpt lat="38.894537994638085" lon="-3.391497982665896">
        <ele>682.60000000000002</ele>
        <time>2003-04-12T14:16:48Z</time>
      </trkpt>
      <trkpt lat="38.893486987799406" lon="-3.391620023176074">
        <ele>682.70000000000005</ele>
        <time>2003-04-12T14:16:50Z</time>
      </trkpt>
      <trkpt lat="38.892427012324333" lon="-3.391742985695601">
        <ele>682.70000000000005</ele>
        <time>2003-04-12T14:16:53Z</time>
      </trkpt>
      <trkpt lat="38.891365025192499" lon="-3.391877012327313">
        <ele>681.5</ele>
        <time>2003-04-12T14:16:57Z</time>
      </trkpt>
      <trkpt lat="38.890332039445639" lon="-3.391993017867208">
        <ele>683.60000000000002</ele>
        <time>2003-04-12T14:17:00Z</time>
      </trkpt>
      <trkpt lat="38.889293018728495" lon="-3.392116986215115">
        <ele>683.29999999999995</ele>
        <time>2003-04-12T14:17:02Z</time>
      </trkpt>
      <trkpt lat="38.888240000233054" lon="-3.392222011461854">
        <ele>683.5</ele>
        <time>2003-04-12T14:17:05Z</time>
      </trkpt>
      <trkpt lat="38.887169966474175" lon="-3.392292000353336">
        <ele>682.89999999999998</ele>
        <time>2003-04-12T14:17:09Z</time>
      </trkpt>
      <trkpt lat="38.886085012927651" lon="-3.39234204031527">
        <ele>681.5</ele>
        <time>2003-04-12T14:17:12Z</time>
      </trkpt>
      <trkpt lat="38.884992012754083" lon="-3.392410017549992">
        <ele>681</ele>
        <time>2003-04-12T14:17:15Z</time>
      </trkpt>
      <trkpt lat="38.883889960125089" lon="-3.392461985349655">
        <ele>680.89999999999998</ele>
        <time>2003-04-12T14:17:17Z</time>
      </trkpt>
      <trkpt lat="38.882782962173223" lon="-3.392517976462841">
        <ele>680.89999999999998</ele>
        <time>2003-04-12T14:17:20Z</time>
      </trkpt>
      <trkpt lat="38.881674958392978" lon="-3.392572039738298">
        <ele>680.89999999999998</ele>
        <time>2003-04-12T14:17:24Z</time>
      </trkpt>
      <trkpt lat="38.880581958219409" lon="-3.39262300170958">
        <ele>680.89999999999998</ele>
        <time>2003-04-12T14:17:27Z</time>
      </trkpt>
      <trkpt lat="38.879515025764704" lon="-3.392679998651147">
        <ele>681.20000000000005</ele>
        <time>2003-04-12T14:17:29Z</time>
      </trkpt>
      <trkpt lat="38.878459995612502" lon="-3.39273196645081">
        <ele>682.5</ele>
        <time>2003-04-12T14:17:32Z</time>
      </trkpt>
      <trkpt lat="38.877417035400867" lon="-3.392788041383028">
        <ele>684</ele>
        <time>2003-04-12T14:17:36Z</time>
      </trkpt>
      <trkpt lat="38.876387989148498" lon="-3.392843026667833">
        <ele>686</ele>
        <time>2003-04-12T14:17:39Z</time>
      </trkpt>
      <trkpt lat="38.875433038920164" lon="-3.392888037487865">
        <ele>686.20000000000005</ele>
        <time>2003-04-12T14:17:42Z</time>
      </trkpt>
      <trkpt lat="38.874248005449772" lon="-3.392951991409063">
        <ele>686.10000000000002</ele>
        <time>2003-04-12T14:17:46Z</time>
      </trkpt>
      <trkpt lat="38.873064983636141" lon="-3.393013011664152">
        <ele>686.29999999999995</ele>
        <time>2003-04-12T14:17:50Z</time>
      </trkpt>
      <trkpt lat="38.872157977893949" lon="-3.393062967807055">
        <ele>686.29999999999995</ele>
        <time>2003-04-12T14:17:52Z</time>
      </trkpt>
      <trkpt lat="38.871243009343743" lon="-3.393104961141944">
        <ele>686.29999999999995</ele>
        <time>2003-04-12T14:17:55Z</time>
      </trkpt>
      <trkpt lat="38.870317982509732" lon="-3.393152989447117">
        <ele>686.60000000000002</ele>
        <time>2003-04-12T14:17:59Z</time>
      </trkpt>
      <trkpt lat="38.869405025616288" lon="-3.393206968903542">
        <ele>686.79999999999995</ele>
        <time>2003-04-12T14:18:02Z</time>
      </trkpt>
      <trkpt lat="38.86848796159029" lon="-3.393249968066812">
        <ele>687.29999999999995</ele>
        <time>2003-04-12T14:18:05Z</time>
      </trkpt>
      <trkpt lat="38.867567041888833" lon="-3.393294978886843">
        <ele>687.60000000000002</ele>
        <time>2003-04-12T14:18:07Z</time>
      </trkpt>
      <trkpt lat="38.866645032539964" lon="-3.393345018848777">
        <ele>687.79999999999995</ele>
        <time>2003-04-12T14:18:10Z</time>
      </trkpt>
      <trkpt lat="38.865705002099276" lon="-3.393400004133582">
        <ele>688.10000000000002</ele>
        <time>2003-04-12T14:18:14Z</time>
      </trkpt>
      <trkpt lat="38.864752985537052" lon="-3.393447026610375">
        <ele>688</ele>
        <time>2003-04-12T14:18:17Z</time>
      </trkpt>
      <trkpt lat="38.863793006166816" lon="-3.393492037430406">
        <ele>688.29999999999995</ele>
        <time>2003-04-12T14:18:19Z</time>
      </trkpt>
      <trkpt lat="38.86283696629107" lon="-3.393536964431405">
        <ele>688.39999999999998</ele>
        <time>2003-04-12T14:18:22Z</time>
      </trkpt>
      <trkpt lat="38.861876986920834" lon="-3.393594967201352">
        <ele>688.89999999999998</ele>
        <time>2003-04-12T14:18:26Z</time>
      </trkpt>
      <trkpt lat="38.860909966751933" lon="-3.393647018820047">
        <ele>689.29999999999995</ele>
        <time>2003-04-12T14:18:29Z</time>
      </trkpt>
      <trkpt lat="38.859797017648816" lon="-3.393694963306189">
        <ele>689.20000000000005</ele>
        <time>2003-04-12T14:18:33Z</time>
      </trkpt>
      <trkpt lat="38.858780041337013" lon="-3.393750032410026">
        <ele>689.60000000000002</ele>
        <time>2003-04-12T14:18:37Z</time>
      </trkpt>
      <trkpt lat="38.857755018398166" lon="-3.393799988552928">
        <ele>690</ele>
        <time>2003-04-12T14:18:41Z</time>
      </trkpt>
      <trkpt lat="38.856720020994544" lon="-3.393862014636397">
        <ele>689.70000000000005</ele>
        <time>2003-04-12T14:18:45Z</time>
      </trkpt>
      <trkpt lat="38.855613023042679" lon="-3.393916999921203">
        <ele>690</ele>
        <time>2003-04-12T14:18:49Z</time>
      </trkpt>
      <trkpt lat="38.854537038132548" lon="-3.393972991034389">
        <ele>690.89999999999998</ele>
        <time>2003-04-12T14:18:53Z</time>
      </trkpt>
      <trkpt lat="38.853474967181683" lon="-3.394038034603">
        <ele>690.79999999999995</ele>
        <time>2003-04-12T14:18:57Z</time>
      </trkpt>
      <trkpt lat="38.852365035563707" lon="-3.394078016281128">
        <ele>691.39999999999998</ele>
        <time>2003-04-12T14:19:01Z</time>
      </trkpt>
      <trkpt lat="38.851217972114682" lon="-3.394138030707836">
        <ele>691.70000000000005</ele>
        <time>2003-04-12T14:19:04Z</time>
      </trkpt>
      <trkpt lat="38.850054983049631" lon="-3.394201984629035">
        <ele>691.79999999999995</ele>
        <time>2003-04-12T14:19:08Z</time>
      </trkpt>
      <trkpt lat="38.848929964005947" lon="-3.394265016540885">
        <ele>692</ele>
        <time>2003-04-12T14:19:12Z</time>
      </trkpt>
      <trkpt lat="38.847815003246069" lon="-3.394312039017677">
        <ele>692.29999999999995</ele>
        <time>2003-04-12T14:19:16Z</time>
      </trkpt>
      <trkpt lat="38.846650002524257" lon="-3.394371969625354">
        <ele>692.29999999999995</ele>
        <time>2003-04-12T14:19:20Z</time>
      </trkpt>
      <trkpt lat="38.845736961811781" lon="-3.394419997930527">
        <ele>692.29999999999995</ele>
        <time>2003-04-12T14:19:24Z</time>
      </trkpt>
      <trkpt lat="38.844813024625182" lon="-3.394465008750558">
        <ele>692.39999999999998</ele>
        <time>2003-04-12T14:19:27Z</time>
      </trkpt>
      <trkpt lat="38.843871988356113" lon="-3.39451203122735">
        <ele>692.10000000000002</ele>
        <time>2003-04-12T14:19:31Z</time>
      </trkpt>
      <trkpt lat="38.842921983450651" lon="-3.39455503039062">
        <ele>692.5</ele>
        <time>2003-04-12T14:19:34Z</time>
      </trkpt>
      <trkpt lat="38.841963009908795" lon="-3.394602974876761">
        <ele>692.79999999999995</ele>
        <time>2003-04-12T14:19:35Z</time>
      </trkpt>
      <trkpt lat="38.84100797586143" lon="-3.394655026495457">
        <ele>691.79999999999995</ele>
        <time>2003-04-12T14:19:39Z</time>
      </trkpt>
      <trkpt lat="38.840065011754632" lon="-3.394710011780262">
        <ele>690.79999999999995</ele>
        <time>2003-04-12T14:19:42Z</time>
      </trkpt>
      <trkpt lat="38.839100003242493" lon="-3.394767008721829">
        <ele>690.20000000000005</ele>
        <time>2003-04-12T14:19:46Z</time>
      </trkpt>
      <trkpt lat="38.838113034144044" lon="-3.394815037027001">
        <ele>690.39999999999998</ele>
        <time>2003-04-12T14:19:48Z</time>
      </trkpt>
      <trkpt lat="38.837112989276648" lon="-3.394870022311807">
        <ele>691.10000000000002</ele>
        <time>2003-04-12T14:19:51Z</time>
      </trkpt>
      <trkpt lat="38.836125014349818" lon="-3.394928025081754">
        <ele>692.89999999999998</ele>
        <time>2003-04-12T14:19:55Z</time>
      </trkpt>
      <trkpt lat="38.835154976695776" lon="-3.394977981224656">
        <ele>695.10000000000002</ele>
        <time>2003-04-12T14:19:58Z</time>
      </trkpt>
      <trkpt lat="38.834189968183637" lon="-3.395030032843351">
        <ele>695.79999999999995</ele>
        <time>2003-04-12T14:20:01Z</time>
      </trkpt>
      <trkpt lat="38.833214985206723" lon="-3.395088035613298">
        <ele>696.10000000000002</ele>
        <time>2003-04-12T14:20:03Z</time>
      </trkpt>
      <trkpt lat="38.83221703581512" lon="-3.395142015069723">
        <ele>693.20000000000005</ele>
        <time>2003-04-12T14:20:06Z</time>
      </trkpt>
      <trkpt lat="38.83120802231133" lon="-3.39520001783967">
        <ele>693.39999999999998</ele>
        <time>2003-04-12T14:20:10Z</time>
      </trkpt>
      <trkpt lat="38.830194985494018" lon="-3.395252991467714">
        <ele>694</ele>
        <time>2003-04-12T14:20:13Z</time>
      </trkpt>
      <trkpt lat="38.829186977818608" lon="-3.39530797675252">
        <ele>695.60000000000002</ele>
        <time>2003-04-12T14:20:15Z</time>
      </trkpt>
      <trkpt lat="38.828176958486438" lon="-3.395360028371215">
        <ele>697.79999999999995</ele>
        <time>2003-04-12T14:20:18Z</time>
      </trkpt>
      <trkpt lat="38.827161993831396" lon="-3.395417025312781">
        <ele>698.39999999999998</ele>
        <time>2003-04-12T14:20:22Z</time>
      </trkpt>
      <trkpt lat="38.826148035004735" lon="-3.395473016425967">
        <ele>699</ele>
        <time>2003-04-12T14:20:25Z</time>
      </trkpt>
      <trkpt lat="38.825137009844184" lon="-3.395528001710773">
        <ele>699.5</ele>
        <time>2003-04-12T14:20:28Z</time>
      </trkpt>
      <trkpt lat="38.824117016047239" lon="-3.395579969510436">
        <ele>699.89999999999998</ele>
        <time>2003-04-12T14:20:30Z</time>
      </trkpt>
      <trkpt lat="38.823083024471998" lon="-3.395632021129131">
        <ele>700.60000000000002</ele>
        <time>2003-04-12T14:20:33Z</time>
      </trkpt>
      <trkpt lat="38.822045009583235" lon="-3.395687006413937">
        <ele>698.89999999999998</ele>
        <time>2003-04-12T14:20:37Z</time>
      </trkpt>
      <trkpt lat="38.821006994694471" lon="-3.39573796838522">
        <ele>699.79999999999995</ele>
        <time>2003-04-12T14:20:40Z</time>
      </trkpt>
      <trkpt lat="38.819978032261133" lon="-3.395792031660676">
        <ele>701.10000000000002</ele>
        <time>2003-04-12T14:20:42Z</time>
      </trkpt>
      <trkpt lat="38.818947980180383" lon="-3.395841987803578">
        <ele>700.60000000000002</ele>
        <time>2003-04-12T14:20:45Z</time>
      </trkpt>
      <trkpt lat="38.817929998040199" lon="-3.395896973088384">
        <ele>701.39999999999998</ele>
        <time>2003-04-12T14:20:49Z</time>
      </trkpt>
      <trkpt lat="38.816946968436241" lon="-3.39595003053546">
        <ele>703</ele>
        <time>2003-04-12T14:20:52Z</time>
      </trkpt>
      <trkpt lat="38.816047003492713" lon="-3.395995041355491">
        <ele>703.60000000000002</ele>
        <time>2003-04-12T14:20:55Z</time>
      </trkpt>
      <trkpt lat="38.814962971955538" lon="-3.396056983619928">
        <ele>704.20000000000005</ele>
        <time>2003-04-12T14:20:59Z</time>
      </trkpt>
      <trkpt lat="38.813893022015691" lon="-3.396107023581862">
        <ele>704.70000000000005</ele>
        <time>2003-04-12T14:21:03Z</time>
      </trkpt>
      <trkpt lat="38.812867999076843" lon="-3.396162008866668">
        <ele>705</ele>
        <time>2003-04-12T14:21:07Z</time>
      </trkpt>
      <trkpt lat="38.811825038865209" lon="-3.396217999979854">
        <ele>704.79999999999995</ele>
        <time>2003-04-12T14:21:11Z</time>
      </trkpt>
      <trkpt lat="38.810787023976445" lon="-3.396278014406562">
        <ele>704.89999999999998</ele>
        <time>2003-04-12T14:21:15Z</time>
      </trkpt>
      <trkpt lat="38.809699974954128" lon="-3.39633802883327">
        <ele>704.5</ele>
        <time>2003-04-12T14:21:19Z</time>
      </trkpt>
      <trkpt lat="38.808589959517121" lon="-3.396383039653301">
        <ele>704.70000000000005</ele>
        <time>2003-04-12T14:21:23Z</time>
      </trkpt>
      <trkpt lat="38.807523027062416" lon="-3.396440036594868">
        <ele>704.89999999999998</ele>
        <time>2003-04-12T14:21:27Z</time>
      </trkpt>
      <trkpt lat="38.806421980261803" lon="-3.396352026611567">
        <ele>705.20000000000005</ele>
        <time>2003-04-12T14:21:31Z</time>
      </trkpt>
      <trkpt lat="38.805307019501925" lon="-3.396078022196889">
        <ele>705.39999999999998</ele>
        <time>2003-04-12T14:21:35Z</time>
      </trkpt>
      <trkpt lat="38.804185017943382" lon="-3.395827990025282">
        <ele>706.10000000000002</ele>
        <time>2003-04-12T14:21:39Z</time>
      </trkpt>
      <trkpt lat="38.803035020828247" lon="-3.395564965903759">
        <ele>707.70000000000005</ele>
        <time>2003-04-12T14:21:43Z</time>
      </trkpt>
      <trkpt lat="38.80186197347939" lon="-3.395296996459365">
        <ele>709.70000000000005</ele>
        <time>2003-04-12T14:21:46Z</time>
      </trkpt>
      <trkpt lat="38.800962008535862" lon="-3.39509298093617">
        <ele>712</ele>
        <time>2003-04-12T14:21:50Z</time>
      </trkpt>
      <trkpt lat="38.800060031935573" lon="-3.394887037575245">
        <ele>715.60000000000002</ele>
        <time>2003-04-12T14:21:53Z</time>
      </trkpt>
      <trkpt lat="38.798922020941973" lon="-3.394629964604974">
        <ele>721.5</ele>
        <time>2003-04-12T14:21:57Z</time>
      </trkpt>
      <trkpt lat="38.797809993848205" lon="-3.394386973232031">
        <ele>725.89999999999998</ele>
        <time>2003-04-12T14:22:01Z</time>
      </trkpt>
      <trkpt lat="38.796682041138411" lon="-3.394120009616017">
        <ele>728</ele>
        <time>2003-04-12T14:22:05Z</time>
      </trkpt>
      <trkpt lat="38.79552299156785" lon="-3.393850028514862">
        <ele>730</ele>
        <time>2003-04-12T14:22:09Z</time>
      </trkpt>
      <trkpt lat="38.794635012745857" lon="-3.393650036305189">
        <ele>732.5</ele>
        <time>2003-04-12T14:22:12Z</time>
      </trkpt>
      <trkpt lat="38.793742004781961" lon="-3.393448032438755">
        <ele>736.29999999999995</ele>
        <time>2003-04-12T14:22:14Z</time>
      </trkpt>
      <trkpt lat="38.792597036808729" lon="-3.393198000267148">
        <ele>735.5</ele>
        <time>2003-04-12T14:22:18Z</time>
      </trkpt>
      <trkpt lat="38.791700005531311" lon="-3.393017034977675">
        <ele>734.29999999999995</ele>
        <time>2003-04-12T14:22:21Z</time>
      </trkpt>
      <trkpt lat="38.790757041424513" lon="-3.392819976434112">
        <ele>731.60000000000002</ele>
        <time>2003-04-12T14:22:25Z</time>
      </trkpt>
      <trkpt lat="38.789799995720387" lon="-3.3926219958812">
        <ele>729.70000000000005</ele>
        <time>2003-04-12T14:22:28Z</time>
      </trkpt>
      <trkpt lat="38.788877986371517" lon="-3.392431978136301">
        <ele>726.60000000000002</ele>
        <time>2003-04-12T14:22:30Z</time>
      </trkpt>
      <trkpt lat="38.787732012569904" lon="-3.392199967056513">
        <ele>723.39999999999998</ele>
        <time>2003-04-12T14:22:35Z</time>
      </trkpt>
      <trkpt lat="38.786610011011362" lon="-3.392093013972044">
        <ele>720.29999999999995</ele>
        <time>2003-04-12T14:22:39Z</time>
      </trkpt>
      <trkpt lat="38.785754973068833" lon="-3.392207007855177">
        <ele>718</ele>
        <time>2003-04-12T14:22:41Z</time>
      </trkpt>
      <trkpt lat="38.785211993381381" lon="-3.392416974529624">
        <ele>716.29999999999995</ele>
        <time>2003-04-12T14:22:44Z</time>
      </trkpt>
      <trkpt lat="38.784414958208799" lon="-3.392874961718917">
        <ele>713.79999999999995</ele>
        <time>2003-04-12T14:22:47Z</time>
      </trkpt>
      <trkpt lat="38.783647008240223" lon="-3.3934819791466">
        <ele>711.79999999999995</ele>
        <time>2003-04-12T14:22:49Z</time>
      </trkpt>
      <trkpt lat="38.782862965017557" lon="-3.39412797242403">
        <ele>711.29999999999995</ele>
        <time>2003-04-12T14:22:52Z</time>
      </trkpt>
      <trkpt lat="38.782059978693724" lon="-3.394776983186603">
        <ele>710.70000000000005</ele>
        <time>2003-04-12T14:22:56Z</time>
      </trkpt>
      <trkpt lat="38.781247017905116" lon="-3.395439991727471">
        <ele>710.20000000000005</ele>
        <time>2003-04-12T14:22:59Z</time>
      </trkpt>
      <trkpt lat="38.780417963862419" lon="-3.396137030795217">
        <ele>709.60000000000002</ele>
        <time>2003-04-12T14:23:02Z</time>
      </trkpt>
      <trkpt lat="38.779568038880825" lon="-3.396837003529072">
        <ele>708.70000000000005</ele>
        <time>2003-04-12T14:23:04Z</time>
      </trkpt>
      <trkpt lat="38.778733033686876" lon="-3.397532030940056">
        <ele>708.20000000000005</ele>
        <time>2003-04-12T14:23:07Z</time>
      </trkpt>
      <trkpt lat="38.777943039312959" lon="-3.398226974532008">
        <ele>708</ele>
        <time>2003-04-12T14:23:11Z</time>
      </trkpt>
      <trkpt lat="38.777167964726686" lon="-3.398901969194412">
        <ele>709.70000000000005</ele>
        <time>2003-04-12T14:23:14Z</time>
      </trkpt>
      <trkpt lat="38.776392973959446" lon="-3.399558020755649">
        <ele>713.70000000000005</ele>
        <time>2003-04-12T14:23:16Z</time>
      </trkpt>
      <trkpt lat="38.77560499124229" lon="-3.400218011811376">
        <ele>716.29999999999995</ele>
        <time>2003-04-12T14:23:19Z</time>
      </trkpt>
      <trkpt lat="38.774790018796921" lon="-3.400878002867103">
        <ele>716.60000000000002</ele>
        <time>2003-04-12T14:23:23Z</time>
      </trkpt>
      <trkpt lat="38.77395199611783" lon="-3.401570012792945">
        <ele>715.10000000000002</ele>
        <time>2003-04-12T14:23:26Z</time>
      </trkpt>
      <trkpt lat="38.773086983710527" lon="-3.402273003011942">
        <ele>711.70000000000005</ele>
        <time>2003-04-12T14:23:29Z</time>
      </trkpt>
      <trkpt lat="38.772200010716915" lon="-3.402995020151138">
        <ele>708.29999999999995</ele>
        <time>2003-04-12T14:23:31Z</time>
      </trkpt>
      <trkpt lat="38.771297028288245" lon="-3.403740003705025">
        <ele>705</ele>
        <time>2003-04-12T14:23:34Z</time>
      </trkpt>
      <trkpt lat="38.770387005060911" lon="-3.404481969773769">
        <ele>704.5</ele>
        <time>2003-04-12T14:23:38Z</time>
      </trkpt>
      <trkpt lat="38.769492991268635" lon="-3.405213039368391">
        <ele>705.20000000000005</ele>
        <time>2003-04-12T14:23:41Z</time>
      </trkpt>
      <trkpt lat="38.768638037145138" lon="-3.405919969081879">
        <ele>708.20000000000005</ele>
        <time>2003-04-12T14:23:43Z</time>
      </trkpt>
      <trkpt lat="38.767815018072724" lon="-3.406599992886186">
        <ele>710.39999999999998</ele>
        <time>2003-04-12T14:23:46Z</time>
      </trkpt>
      <trkpt lat="38.766972972080112" lon="-3.407289991155267">
        <ele>710.29999999999995</ele>
        <time>2003-04-12T14:23:50Z</time>
      </trkpt>
      <trkpt lat="38.766122041270137" lon="-3.407977977767587">
        <ele>708.20000000000005</ele>
        <time>2003-04-12T14:23:53Z</time>
      </trkpt>
      <trkpt lat="38.765244958922267" lon="-3.40869203209877">
        <ele>704.39999999999998</ele>
        <time>2003-04-12T14:23:56Z</time>
      </trkpt>
      <trkpt lat="38.764341976493597" lon="-3.409447995945811">
        <ele>700.5</ele>
        <time>2003-04-12T14:23:58Z</time>
      </trkpt>
      <trkpt lat="38.763427007943392" lon="-3.410224998369813">
        <ele>697.5</ele>
        <time>2003-04-12T14:24:01Z</time>
      </trkpt>
      <trkpt lat="38.762508016079664" lon="-3.410982973873615">
        <ele>697.89999999999998</ele>
        <time>2003-04-12T14:24:05Z</time>
      </trkpt>
      <trkpt lat="38.76159799285233" lon="-3.411731980741024">
        <ele>699.20000000000005</ele>
        <time>2003-04-12T14:24:08Z</time>
      </trkpt>
      <trkpt lat="38.760697022080421" lon="-3.41247302480042">
        <ele>700.39999999999998</ele>
        <time>2003-04-12T14:24:10Z</time>
      </trkpt>
      <trkpt lat="38.759803008288145" lon="-3.413201998919249">
        <ele>700.89999999999998</ele>
        <time>2003-04-12T14:24:13Z</time>
      </trkpt>
      <trkpt lat="38.758910000324249" lon="-3.41391496360302">
        <ele>700</ele>
        <time>2003-04-12T14:24:17Z</time>
      </trkpt>
      <trkpt lat="38.758023027330637" lon="-3.414613008499146">
        <ele>699.20000000000005</ele>
        <time>2003-04-12T14:24:20Z</time>
      </trkpt>
      <trkpt lat="38.757145022973418" lon="-3.415339970961213">
        <ele>698.29999999999995</ele>
        <time>2003-04-12T14:24:23Z</time>
      </trkpt>
      <trkpt lat="38.756257966160774" lon="-3.416072968393564">
        <ele>697.39999999999998</ele>
        <time>2003-04-12T14:24:25Z</time>
      </trkpt>
      <trkpt lat="38.75536696985364" lon="-3.416804959997535">
        <ele>696.60000000000002</ele>
        <time>2003-04-12T14:24:28Z</time>
      </trkpt>
      <trkpt lat="38.75446499325335" lon="-3.417535023763776">
        <ele>695.79999999999995</ele>
        <time>2003-04-12T14:24:32Z</time>
      </trkpt>
      <trkpt lat="38.753563016653061" lon="-3.418257962912321">
        <ele>695.10000000000002</ele>
        <time>2003-04-12T14:24:35Z</time>
      </trkpt>
      <trkpt lat="38.75270496122539" lon="-3.418951984494925">
        <ele>695</ele>
        <time>2003-04-12T14:24:37Z</time>
      </trkpt>
      <trkpt lat="38.751846989616752" lon="-3.419590014964342">
        <ele>695.89999999999998</ele>
        <time>2003-04-12T14:24:40Z</time>
      </trkpt>
      <trkpt lat="38.750954987481236" lon="-3.42005998827517">
        <ele>696.10000000000002</ele>
        <time>2003-04-12T14:24:44Z</time>
      </trkpt>
      <trkpt lat="38.750042030587792" lon="-3.420340027660132">
        <ele>696.70000000000005</ele>
        <time>2003-04-12T14:24:47Z</time>
      </trkpt>
      <trkpt lat="38.749122032895684" lon="-3.420440023764968">
        <ele>697</ele>
        <time>2003-04-12T14:24:50Z</time>
      </trkpt>
      <trkpt lat="38.747972035780549" lon="-3.420332986861467">
        <ele>697.10000000000002</ele>
        <time>2003-04-12T14:24:54Z</time>
      </trkpt>
      <trkpt lat="38.746899990364909" lon="-3.420147998258472">
        <ele>696.79999999999995</ele>
        <time>2003-04-12T14:24:58Z</time>
      </trkpt>
      <trkpt lat="38.745897011831403" lon="-3.419971978291869">
        <ele>697.10000000000002</ele>
        <time>2003-04-12T14:25:02Z</time>
      </trkpt>
      <trkpt lat="38.744965028017759" lon="-3.419814985245466">
        <ele>697.29999999999995</ele>
        <time>2003-04-12T14:25:06Z</time>
      </trkpt>
      <trkpt lat="38.744070008397102" lon="-3.419665032997727">
        <ele>697.5</ele>
        <time>2003-04-12T14:25:10Z</time>
      </trkpt>
      <trkpt lat="38.742993017658591" lon="-3.41947702690959">
        <ele>697.79999999999995</ele>
        <time>2003-04-12T14:25:15Z</time>
      </trkpt>
      <trkpt lat="38.742092968896031" lon="-3.419326990842819">
        <ele>698</ele>
        <time>2003-04-12T14:25:19Z</time>
      </trkpt>
      <trkpt lat="38.741059983149171" lon="-3.419152982532978">
        <ele>698.5</ele>
        <time>2003-04-12T14:25:23Z</time>
      </trkpt>
      <trkpt lat="38.74004703015089" lon="-3.418982997536659">
        <ele>698.70000000000005</ele>
        <time>2003-04-12T14:25:29Z</time>
      </trkpt>
      <trkpt lat="38.738923016935587" lon="-3.418787028640509">
        <ele>699</ele>
        <time>2003-04-12T14:25:34Z</time>
      </trkpt>
      <trkpt lat="38.738009976223111" lon="-3.418634980916977">
        <ele>699.10000000000002</ele>
        <time>2003-04-12T14:25:38Z</time>
      </trkpt>
      <trkpt lat="38.737076986581087" lon="-3.418485028669238">
        <ele>699.60000000000002</ele>
        <time>2003-04-12T14:25:42Z</time>
      </trkpt>
      <trkpt lat="38.736172998324037" lon="-3.418327029794455">
        <ele>699.89999999999998</ele>
        <time>2003-04-12T14:25:46Z</time>
      </trkpt>
      <trkpt lat="38.735264986753464" lon="-3.418171964585781">
        <ele>700.29999999999995</ele>
        <time>2003-04-12T14:25:49Z</time>
      </trkpt>
      <trkpt lat="38.734308024868369" lon="-3.418020000681281">
        <ele>700.39999999999998</ele>
        <time>2003-04-12T14:25:53Z</time>
      </trkpt>
      <trkpt lat="38.733364976942539" lon="-3.417846998199821">
        <ele>701</ele>
        <time>2003-04-12T14:25:57Z</time>
      </trkpt>
      <trkpt lat="38.732467023655772" lon="-3.417693022638559">
        <ele>702</ele>
        <time>2003-04-12T14:26:01Z</time>
      </trkpt>
      <trkpt lat="38.731526993215084" lon="-3.417541980743408">
        <ele>703.29999999999995</ele>
        <time>2003-04-12T14:26:05Z</time>
      </trkpt>
      <trkpt lat="38.730517979711294" lon="-3.417366966605187">
        <ele>704.20000000000005</ele>
        <time>2003-04-12T14:26:09Z</time>
      </trkpt>
      <trkpt lat="38.729463033378124" lon="-3.417197987437248">
        <ele>706</ele>
        <time>2003-04-12T14:26:13Z</time>
      </trkpt>
      <trkpt lat="38.728365004062653" lon="-3.417118024080992">
        <ele>705.70000000000005</ele>
        <time>2003-04-12T14:26:17Z</time>
      </trkpt>
      <trkpt lat="38.727232022210956" lon="-3.417202010750771">
        <ele>704.39999999999998</ele>
        <time>2003-04-12T14:26:21Z</time>
      </trkpt>
      <trkpt lat="38.726074984297156" lon="-3.417288009077311">
        <ele>704</ele>
        <time>2003-04-12T14:26:25Z</time>
      </trkpt>
      <trkpt lat="38.724885005503893" lon="-3.417375013232231">
        <ele>704</ele>
        <time>2003-04-12T14:26:29Z</time>
      </trkpt>
      <trkpt lat="38.723974982276559" lon="-3.417439972981811">
        <ele>703.79999999999995</ele>
        <time>2003-04-12T14:26:32Z</time>
      </trkpt>
      <trkpt lat="38.723045010119677" lon="-3.417509961873293">
        <ele>703.29999999999995</ele>
        <time>2003-04-12T14:26:36Z</time>
      </trkpt>
      <trkpt lat="38.722101962193847" lon="-3.417581962421536">
        <ele>703</ele>
        <time>2003-04-12T14:26:39Z</time>
      </trkpt>
      <trkpt lat="38.721148017793894" lon="-3.417638037353754">
        <ele>702.89999999999998</ele>
        <time>2003-04-12T14:26:42Z</time>
      </trkpt>
      <trkpt lat="38.720202036201954" lon="-3.417712971568108">
        <ele>703.10000000000002</ele>
        <time>2003-04-12T14:26:44Z</time>
      </trkpt>
      <trkpt lat="38.719254964962602" lon="-3.417778015136719">
        <ele>703.20000000000005</ele>
        <time>2003-04-12T14:26:47Z</time>
      </trkpt>
      <trkpt lat="38.718302026391029" lon="-3.417842974886298">
        <ele>703.39999999999998</ele>
        <time>2003-04-12T14:26:51Z</time>
      </trkpt>
      <trkpt lat="38.717372976243496" lon="-3.417912963777781">
        <ele>703.39999999999998</ele>
        <time>2003-04-12T14:26:54Z</time>
      </trkpt>
      <trkpt lat="38.716176962479949" lon="-3.417993010953069">
        <ele>703.5</ele>
        <time>2003-04-12T14:26:58Z</time>
      </trkpt>
      <trkpt lat="38.715270040556788" lon="-3.418061994016171">
        <ele>703.70000000000005</ele>
        <time>2003-04-12T14:27:00Z</time>
      </trkpt>
      <trkpt lat="38.714335039258003" lon="-3.418127959594131">
        <ele>703.89999999999998</ele>
        <time>2003-04-12T14:27:03Z</time>
      </trkpt>
      <trkpt lat="38.713372964411974" lon="-3.418198032304645">
        <ele>704.10000000000002</ele>
        <time>2003-04-12T14:27:07Z</time>
      </trkpt>
      <trkpt lat="38.712407033890486" lon="-3.418270032852888">
        <ele>704</ele>
        <time>2003-04-12T14:27:10Z</time>
      </trkpt>
      <trkpt lat="38.711451999843121" lon="-3.418392995372415">
        <ele>705</ele>
        <time>2003-04-12T14:27:13Z</time>
      </trkpt>
      <trkpt lat="38.710520016029477" lon="-3.418647972866893">
        <ele>706.20000000000005</ele>
        <time>2003-04-12T14:27:15Z</time>
      </trkpt>
      <trkpt lat="38.709630025550723" lon="-3.419022979214788">
        <ele>707.60000000000002</ele>
        <time>2003-04-12T14:27:18Z</time>
      </trkpt>
      <trkpt lat="38.708759984001517" lon="-3.419526983052492">
        <ele>709.39999999999998</ele>
        <time>2003-04-12T14:27:22Z</time>
      </trkpt>
      <trkpt lat="38.707915004342794" lon="-3.420146992430091">
        <ele>709.89999999999998</ele>
        <time>2003-04-12T14:27:25Z</time>
      </trkpt>
      <trkpt lat="38.707085028290749" lon="-3.420777982100844">
        <ele>711.20000000000005</ele>
        <time>2003-04-12T14:27:27Z</time>
      </trkpt>
      <trkpt lat="38.706265026703477" lon="-3.421400003135204">
        <ele>712.39999999999998</ele>
        <time>2003-04-12T14:27:30Z</time>
      </trkpt>
      <trkpt lat="38.705445025116205" lon="-3.422023029997945">
        <ele>711.39999999999998</ele>
        <time>2003-04-12T14:27:34Z</time>
      </trkpt>
      <trkpt lat="38.704619994387031" lon="-3.422647984698415">
        <ele>709.60000000000002</ele>
        <time>2003-04-12T14:27:37Z</time>
      </trkpt>
      <trkpt lat="38.703779960051179" lon="-3.423287020996213">
        <ele>708.79999999999995</ele>
        <time>2003-04-12T14:27:40Z</time>
      </trkpt>
      <trkpt lat="38.702943027019501" lon="-3.423952041193843">
        <ele>707.79999999999995</ele>
        <time>2003-04-12T14:27:42Z</time>
      </trkpt>
      <trkpt lat="38.702117996290326" lon="-3.424661988392472">
        <ele>707.29999999999995</ele>
        <time>2003-04-12T14:27:45Z</time>
      </trkpt>
      <trkpt lat="38.70128802023828" lon="-3.425373025238514">
        <ele>707.39999999999998</ele>
        <time>2003-04-12T14:27:49Z</time>
      </trkpt>
      <trkpt lat="38.70042803697288" lon="-3.42605497688055">
        <ele>708</ele>
        <time>2003-04-12T14:27:52Z</time>
      </trkpt>
      <trkpt lat="38.699541985988617" lon="-3.426723014563322">
        <ele>708.20000000000005</ele>
        <time>2003-04-12T14:27:54Z</time>
      </trkpt>
      <trkpt lat="38.698642021045089" lon="-3.427402032539249">
        <ele>708.5</ele>
        <time>2003-04-12T14:27:57Z</time>
      </trkpt>
      <trkpt lat="38.697738032788038" lon="-3.428088007494807">
        <ele>708.89999999999998</ele>
        <time>2003-04-12T14:28:01Z</time>
      </trkpt>
      <trkpt lat="38.696830021217465" lon="-3.428776999935508">
        <ele>709.39999999999998</ele>
        <time>2003-04-12T14:28:04Z</time>
      </trkpt>
      <trkpt lat="38.695946987718344" lon="-3.429476972669363">
        <ele>709.89999999999998</ele>
        <time>2003-04-12T14:28:07Z</time>
      </trkpt>
      <trkpt lat="38.69505800306797" lon="-3.430151967331767">
        <ele>710.29999999999995</ele>
        <time>2003-04-12T14:28:09Z</time>
      </trkpt>
      <trkpt lat="38.694168012589216" lon="-3.4308220166713">
        <ele>712.39999999999998</ele>
        <time>2003-04-12T14:28:12Z</time>
      </trkpt>
      <trkpt lat="38.693265030160546" lon="-3.431479996070266">
        <ele>713.89999999999998</ele>
        <time>2003-04-12T14:28:16Z</time>
      </trkpt>
      <trkpt lat="38.692355006933212" lon="-3.432152979075909">
        <ele>714.29999999999995</ele>
        <time>2003-04-12T14:28:19Z</time>
      </trkpt>
      <trkpt lat="38.691442972049117" lon="-3.43284297734499">
        <ele>714.89999999999998</ele>
        <time>2003-04-12T14:28:21Z</time>
      </trkpt>
      <trkpt lat="38.690522974357009" lon="-3.433536998927593">
        <ele>715.5</ele>
        <time>2003-04-12T14:28:24Z</time>
      </trkpt>
      <trkpt lat="38.689599959179759" lon="-3.434228003025055">
        <ele>716.89999999999998</ele>
        <time>2003-04-12T14:28:28Z</time>
      </trkpt>
      <trkpt lat="38.688678033649921" lon="-3.43492696993053">
        <ele>718</ele>
        <time>2003-04-12T14:28:31Z</time>
      </trkpt>
      <trkpt lat="38.687749989330769" lon="-3.435632977634668">
        <ele>717.70000000000005</ele>
        <time>2003-04-12T14:28:34Z</time>
      </trkpt>
      <trkpt lat="38.68680995889008" lon="-3.436337979510427">
        <ele>717.5</ele>
        <time>2003-04-12T14:28:36Z</time>
      </trkpt>
      <trkpt lat="38.685873029753566" lon="-3.437042981386185">
        <ele>717.60000000000002</ele>
        <time>2003-04-12T14:28:39Z</time>
      </trkpt>
      <trkpt lat="38.684942973777652" lon="-3.437753012403846">
        <ele>719.89999999999998</ele>
        <time>2003-04-12T14:28:43Z</time>
      </trkpt>
      <trkpt lat="38.68401300162077" lon="-3.43845197930932">
        <ele>722</ele>
        <time>2003-04-12T14:28:46Z</time>
      </trkpt>
      <trkpt lat="38.683083029463887" lon="-3.439153041690588">
        <ele>722.5</ele>
        <time>2003-04-12T14:28:48Z</time>
      </trkpt>
      <trkpt lat="38.682147022336721" lon="-3.439857959747315">
        <ele>721.60000000000002</ele>
        <time>2003-04-12T14:28:51Z</time>
      </trkpt>
      <trkpt lat="38.681204980239272" lon="-3.440585006028414">
        <ele>720.29999999999995</ele>
        <time>2003-04-12T14:28:55Z</time>
      </trkpt>
      <trkpt lat="38.680265033617616" lon="-3.441322026774287">
        <ele>721.10000000000002</ele>
        <time>2003-04-12T14:28:58Z</time>
      </trkpt>
      <trkpt lat="38.679325003176928" lon="-3.442032979801297">
        <ele>723.60000000000002</ele>
        <time>2003-04-12T14:29:01Z</time>
      </trkpt>
      <trkpt lat="38.678392013534904" lon="-3.442739993333817">
        <ele>725.89999999999998</ele>
        <time>2003-04-12T14:29:03Z</time>
      </trkpt>
      <trkpt lat="38.677462041378021" lon="-3.443438038229942">
        <ele>727.79999999999995</ele>
        <time>2003-04-12T14:29:06Z</time>
      </trkpt>
      <trkpt lat="38.676531985402107" lon="-3.444129964336753">
        <ele>729.39999999999998</ele>
        <time>2003-04-12T14:29:10Z</time>
      </trkpt>
      <trkpt lat="38.67561299353838" lon="-3.444806970655918">
        <ele>732.29999999999995</ele>
        <time>2003-04-12T14:29:13Z</time>
      </trkpt>
      <trkpt lat="38.674715040251613" lon="-3.445472996681929">
        <ele>733.89999999999998</ele>
        <time>2003-04-12T14:29:15Z</time>
      </trkpt>
      <trkpt lat="38.67385296151042" lon="-3.446127036586404">
        <ele>734.39999999999998</ele>
        <time>2003-04-12T14:29:18Z</time>
      </trkpt>
      <trkpt lat="38.6730130109936" lon="-3.446758026257157">
        <ele>735.10000000000002</ele>
        <time>2003-04-12T14:29:22Z</time>
      </trkpt>
      <trkpt lat="38.672163002192974" lon="-3.447397984564304">
        <ele>735.70000000000005</ele>
        <time>2003-04-12T14:29:25Z</time>
      </trkpt>
      <trkpt lat="38.671309975907207" lon="-3.448071973398328">
        <ele>736.29999999999995</ele>
        <time>2003-04-12T14:29:28Z</time>
      </trkpt>
      <trkpt lat="38.670440018177032" lon="-3.448736993595958">
        <ele>736.89999999999998</ele>
        <time>2003-04-12T14:29:30Z</time>
      </trkpt>
      <trkpt lat="38.669560002163053" lon="-3.449403019621968">
        <ele>737.60000000000002</ele>
        <time>2003-04-12T14:29:33Z</time>
      </trkpt>
      <trkpt lat="38.668668000027537" lon="-3.450082037597895">
        <ele>737.29999999999995</ele>
        <time>2003-04-12T14:29:37Z</time>
      </trkpt>
      <trkpt lat="38.667756970971823" lon="-3.450772035866976">
        <ele>735.70000000000005</ele>
        <time>2003-04-12T14:29:40Z</time>
      </trkpt>
      <trkpt lat="38.66682699881494" lon="-3.451466979458928">
        <ele>734.89999999999998</ele>
        <time>2003-04-12T14:29:42Z</time>
      </trkpt>
      <trkpt lat="38.665897026658058" lon="-3.452169969677925">
        <ele>736.10000000000002</ele>
        <time>2003-04-12T14:29:45Z</time>
      </trkpt>
      <trkpt lat="38.664969988167286" lon="-3.452872959896922">
        <ele>737.10000000000002</ele>
        <time>2003-04-12T14:29:49Z</time>
      </trkpt>
      <trkpt lat="38.664038004353642" lon="-3.453572010621429">
        <ele>738</ele>
        <time>2003-04-12T14:29:52Z</time>
      </trkpt>
      <trkpt lat="38.66310996003449" lon="-3.454271983355284">
        <ele>739</ele>
        <time>2003-04-12T14:29:55Z</time>
      </trkpt>
      <trkpt lat="38.66218501701951" lon="-3.45497002825141">
        <ele>739.29999999999995</ele>
        <time>2003-04-12T14:29:57Z</time>
      </trkpt>
      <trkpt lat="38.661252027377486" lon="-3.455677041783929">
        <ele>739.20000000000005</ele>
        <time>2003-04-12T14:30:00Z</time>
      </trkpt>
      <trkpt lat="38.660309985280037" lon="-3.456380032002926">
        <ele>739.20000000000005</ele>
        <time>2003-04-12T14:30:04Z</time>
      </trkpt>
      <trkpt lat="38.659362997859716" lon="-3.457095008343458">
        <ele>739.10000000000002</ele>
        <time>2003-04-12T14:30:07Z</time>
      </trkpt>
      <trkpt lat="38.658411987125874" lon="-3.457815013825893">
        <ele>739.10000000000002</ele>
        <time>2003-04-12T14:30:09Z</time>
      </trkpt>
      <trkpt lat="38.657464999705553" lon="-3.458522027358413">
        <ele>739.60000000000002</ele>
        <time>2003-04-12T14:30:12Z</time>
      </trkpt>
      <trkpt lat="38.656537961214781" lon="-3.459227029234171">
        <ele>741.60000000000002</ele>
        <time>2003-04-12T14:30:16Z</time>
      </trkpt>
      <trkpt lat="38.655642019584775" lon="-3.459911998361349">
        <ele>743.60000000000002</ele>
        <time>2003-04-12T14:30:19Z</time>
      </trkpt>
      <trkpt lat="38.654795028269291" lon="-3.460607025772333">
        <ele>743.79999999999995</ele>
        <time>2003-04-12T14:30:22Z</time>
      </trkpt>
      <trkpt lat="38.65402196533978" lon="-3.461406994611025">
        <ele>742.10000000000002</ele>
        <time>2003-04-12T14:30:24Z</time>
      </trkpt>
      <trkpt lat="38.653338002040982" lon="-3.462377032265067">
        <ele>739.10000000000002</ele>
        <time>2003-04-12T14:30:27Z</time>
      </trkpt>
      <trkpt lat="38.652744982391596" lon="-3.463474977761507">
        <ele>735.10000000000002</ele>
        <time>2003-04-12T14:30:31Z</time>
      </trkpt>
      <trkpt lat="38.652260005474091" lon="-3.464688006788492">
        <ele>731.79999999999995</ele>
        <time>2003-04-12T14:30:34Z</time>
      </trkpt>
      <trkpt lat="38.651811992749572" lon="-3.465962978079915">
        <ele>728.89999999999998</ele>
        <time>2003-04-12T14:30:36Z</time>
      </trkpt>
      <trkpt lat="38.651346964761615" lon="-3.467256976291537">
        <ele>726.60000000000002</ele>
        <time>2003-04-12T14:30:39Z</time>
      </trkpt>
      <trkpt lat="38.650867016986012" lon="-3.468554997816682">
        <ele>725</ele>
        <time>2003-04-12T14:30:43Z</time>
      </trkpt>
      <trkpt lat="38.650405006483197" lon="-3.469831980764866">
        <ele>723.89999999999998</ele>
        <time>2003-04-12T14:30:46Z</time>
      </trkpt>
      <trkpt lat="38.64996001124382" lon="-3.471058001741767">
        <ele>722.79999999999995</ele>
        <time>2003-04-12T14:30:50Z</time>
      </trkpt>
      <trkpt lat="38.649527002125978" lon="-3.472237000241876">
        <ele>721.70000000000005</ele>
        <time>2003-04-12T14:30:53Z</time>
      </trkpt>
      <trkpt lat="38.649102039635181" lon="-3.473429996520281">
        <ele>720.60000000000002</ele>
        <time>2003-04-12T14:30:55Z</time>
      </trkpt>
      <trkpt lat="38.64867196418345" lon="-3.47463003359735">
        <ele>720</ele>
        <time>2003-04-12T14:30:58Z</time>
      </trkpt>
      <trkpt lat="38.648175001144409" lon="-3.475763015449047">
        <ele>719.60000000000002</ele>
        <time>2003-04-12T14:31:02Z</time>
      </trkpt>
      <trkpt lat="38.647754983976483" lon="-3.476437004283071">
        <ele>719.79999999999995</ele>
        <time>2003-04-12T14:31:02Z</time>
      </trkpt>
      <trkpt lat="38.647260032594204" lon="-3.477022983133793">
        <ele>719.79999999999995</ele>
        <time>2003-04-12T14:31:06Z</time>
      </trkpt>
      <trkpt lat="38.646438019350171" lon="-3.477762015536428">
        <ele>720.39999999999998</ele>
        <time>2003-04-12T14:31:08Z</time>
      </trkpt>
      <trkpt lat="38.645832007750869" lon="-3.478101985529065">
        <ele>721</ele>
        <time>2003-04-12T14:31:10Z</time>
      </trkpt>
      <trkpt lat="38.644873034209013" lon="-3.478423012420535">
        <ele>722.29999999999995</ele>
        <time>2003-04-12T14:31:13Z</time>
      </trkpt>
      <trkpt lat="38.643893022090197" lon="-3.478512028232217">
        <ele>723.79999999999995</ele>
        <time>2003-04-12T14:31:17Z</time>
      </trkpt>
      <trkpt lat="38.642928013578057" lon="-3.478353023529053">
        <ele>725.10000000000002</ele>
        <time>2003-04-12T14:31:20Z</time>
      </trkpt>
      <trkpt lat="38.64231001585722" lon="-3.478116989135742">
        <ele>726.20000000000005</ele>
        <time>2003-04-12T14:31:21Z</time>
      </trkpt>
      <trkpt lat="38.641437962651253" lon="-3.477590018883348">
        <ele>727.29999999999995</ele>
        <time>2003-04-12T14:31:25Z</time>
      </trkpt>
      <trkpt lat="38.640922978520393" lon="-3.477133037522435">
        <ele>728.10000000000002</ele>
        <time>2003-04-12T14:31:26Z</time>
      </trkpt>
      <trkpt lat="38.640195010229945" lon="-3.476347988471389">
        <ele>729</ele>
        <time>2003-04-12T14:31:29Z</time>
      </trkpt>
      <trkpt lat="38.639456983655691" lon="-3.475526981055737">
        <ele>729</ele>
        <time>2003-04-12T14:31:33Z</time>
      </trkpt>
      <trkpt lat="38.638700013980269" lon="-3.474700022488833">
        <ele>728.60000000000002</ele>
        <time>2003-04-12T14:31:36Z</time>
      </trkpt>
      <trkpt lat="38.6379299685359" lon="-3.473880020901561">
        <ele>728</ele>
        <time>2003-04-12T14:31:39Z</time>
      </trkpt>
      <trkpt lat="38.637145003303885" lon="-3.473049961030483">
        <ele>727.39999999999998</ele>
        <time>2003-04-12T14:31:41Z</time>
      </trkpt>
      <trkpt lat="38.636347968131304" lon="-3.472200036048889">
        <ele>727</ele>
        <time>2003-04-12T14:31:44Z</time>
      </trkpt>
      <trkpt lat="38.635553028434515" lon="-3.471352960914373">
        <ele>726.79999999999995</ele>
        <time>2003-04-12T14:31:48Z</time>
      </trkpt>
      <trkpt lat="38.634760016575456" lon="-3.470515022054315">
        <ele>728.10000000000002</ele>
        <time>2003-04-12T14:31:51Z</time>
      </trkpt>
      <trkpt lat="38.633977985009551" lon="-3.469682028517127">
        <ele>729.5</ele>
        <time>2003-04-12T14:31:53Z</time>
      </trkpt>
      <trkpt lat="38.633225038647652" lon="-3.468869989737868">
        <ele>730.89999999999998</ele>
        <time>2003-04-12T14:31:56Z</time>
      </trkpt>
      <trkpt lat="38.632506961002946" lon="-3.468107990920544">
        <ele>732.39999999999998</ele>
        <time>2003-04-12T14:32:00Z</time>
      </trkpt>
      <trkpt lat="38.631779998540878" lon="-3.467342974618077">
        <ele>733.89999999999998</ele>
        <time>2003-04-12T14:32:03Z</time>
      </trkpt>
      <trkpt lat="38.631035014986992" lon="-3.466563038527966">
        <ele>735.5</ele>
        <time>2003-04-12T14:32:06Z</time>
      </trkpt>
      <trkpt lat="38.630263041704893" lon="-3.46580003388226">
        <ele>737.10000000000002</ele>
        <time>2003-04-12T14:32:08Z</time>
      </trkpt>
      <trkpt lat="38.629470029845834" lon="-3.46509201452136">
        <ele>738.39999999999998</ele>
        <time>2003-04-12T14:32:11Z</time>
      </trkpt>
      <trkpt lat="38.628609962761402" lon="-3.464564960449934">
        <ele>740</ele>
        <time>2003-04-12T14:32:15Z</time>
      </trkpt>
      <trkpt lat="38.627727013081312" lon="-3.464227002114058">
        <ele>741.5</ele>
        <time>2003-04-12T14:32:18Z</time>
      </trkpt>
      <trkpt lat="38.626797962933779" lon="-3.464067997410893">
        <ele>742.10000000000002</ele>
        <time>2003-04-12T14:32:20Z</time>
      </trkpt>
      <trkpt lat="38.625836977735162" lon="-3.463989961892366">
        <ele>741.5</ele>
        <time>2003-04-12T14:32:23Z</time>
      </trkpt>
      <trkpt lat="38.624842967838049" lon="-3.463917039334774">
        <ele>739.29999999999995</ele>
        <time>2003-04-12T14:32:27Z</time>
      </trkpt>
      <trkpt lat="38.62381299957633" lon="-3.463827017694712">
        <ele>736.79999999999995</ele>
        <time>2003-04-12T14:32:30Z</time>
      </trkpt>
      <trkpt lat="38.622768027707934" lon="-3.463736996054649">
        <ele>736.20000000000005</ele>
        <time>2003-04-12T14:32:33Z</time>
      </trkpt>
      <trkpt lat="38.621737975627184" lon="-3.463647980242968">
        <ele>737.60000000000002</ele>
        <time>2003-04-12T14:32:35Z</time>
      </trkpt>
      <trkpt lat="38.620738014578819" lon="-3.463568016886711">
        <ele>740.79999999999995</ele>
        <time>2003-04-12T14:32:38Z</time>
      </trkpt>
      <trkpt lat="38.619756996631622" lon="-3.463513031601906">
        <ele>743.70000000000005</ele>
        <time>2003-04-12T14:32:42Z</time>
      </trkpt>
      <trkpt lat="38.618802968412638" lon="-3.463495010510087">
        <ele>746.29999999999995</ele>
        <time>2003-04-12T14:32:45Z</time>
      </trkpt>
      <trkpt lat="38.618193017318845" lon="-3.463606992736459">
        <ele>748.10000000000002</ele>
        <time>2003-04-12T14:32:46Z</time>
      </trkpt>
      <trkpt lat="38.617337979376316" lon="-3.463917039334774">
        <ele>749.5</ele>
        <time>2003-04-12T14:32:50Z</time>
      </trkpt>
      <trkpt lat="38.616517977789044" lon="-3.464433029294014">
        <ele>750.89999999999998</ele>
        <time>2003-04-12T14:32:53Z</time>
      </trkpt>
      <trkpt lat="38.61573301255703" lon="-3.465035017579794">
        <ele>753.10000000000002</ele>
        <time>2003-04-12T14:32:56Z</time>
      </trkpt>
      <trkpt lat="38.614698015153408" lon="-3.465743036940694">
        <ele>757.5</ele>
        <time>2003-04-12T14:33:00Z</time>
      </trkpt>
      <trkpt lat="38.613897040486336" lon="-3.46612298861146">
        <ele>761.5</ele>
        <time>2003-04-12T14:33:02Z</time>
      </trkpt>
      <trkpt lat="38.613339979201555" lon="-3.466247962787747">
        <ele>764.79999999999995</ele>
        <time>2003-04-12T14:33:05Z</time>
      </trkpt>
      <trkpt lat="38.612787025049329" lon="-3.466247962787747">
        <ele>768</ele>
        <time>2003-04-12T14:33:06Z</time>
      </trkpt>
      <trkpt lat="38.611690001562238" lon="-3.46607998944819">
        <ele>774</ele>
        <time>2003-04-12T14:33:10Z</time>
      </trkpt>
      <trkpt lat="38.61059800721705" lon="-3.465887038037181">
        <ele>779.20000000000005</ele>
        <time>2003-04-12T14:33:14Z</time>
      </trkpt>
      <trkpt lat="38.609565021470189" lon="-3.465682016685605">
        <ele>781.79999999999995</ele>
        <time>2003-04-12T14:33:18Z</time>
      </trkpt>
      <trkpt lat="38.608791958540678" lon="-3.465580008924007">
        <ele>782</ele>
        <time>2003-04-12T14:33:21Z</time>
      </trkpt>
      <trkpt lat="38.608029959723353" lon="-3.46564999781549">
        <ele>781.70000000000005</ele>
        <time>2003-04-12T14:33:25Z</time>
      </trkpt>
      <trkpt lat="38.607507012784481" lon="-3.465831968933344">
        <ele>780.60000000000002</ele>
        <time>2003-04-12T14:33:27Z</time>
      </trkpt>
      <trkpt lat="38.606988005340099" lon="-3.466121982783079">
        <ele>779.70000000000005</ele>
        <time>2003-04-12T14:33:28Z</time>
      </trkpt>
      <trkpt lat="38.605962982401252" lon="-3.466884987428784">
        <ele>778.20000000000005</ele>
        <time>2003-04-12T14:33:32Z</time>
      </trkpt>
      <trkpt lat="38.605152033269405" lon="-3.467452023178339">
        <ele>776.79999999999995</ele>
        <time>2003-04-12T14:33:36Z</time>
      </trkpt>
      <trkpt lat="38.604285009205341" lon="-3.46792702563107">
        <ele>775.5</ele>
        <time>2003-04-12T14:33:39Z</time>
      </trkpt>
      <trkpt lat="38.603344978764653" lon="-3.468276970088482">
        <ele>773.79999999999995</ele>
        <time>2003-04-12T14:33:41Z</time>
      </trkpt>
      <trkpt lat="38.602367984130979" lon="-3.468617023900151">
        <ele>772.10000000000002</ele>
        <time>2003-04-12T14:33:44Z</time>
      </trkpt>
      <trkpt lat="38.60136198811233" lon="-3.468969985842705">
        <ele>769.79999999999995</ele>
        <time>2003-04-12T14:33:48Z</time>
      </trkpt>
      <trkpt lat="38.600332019850612" lon="-3.469337029382587">
        <ele>766.70000000000005</ele>
        <time>2003-04-12T14:33:51Z</time>
      </trkpt>
      <trkpt lat="38.599298028275371" lon="-3.469698037952185">
        <ele>765.20000000000005</ele>
        <time>2003-04-12T14:33:54Z</time>
      </trkpt>
      <trkpt lat="38.598263030871749" lon="-3.470064997673035">
        <ele>765.20000000000005</ele>
        <time>2003-04-12T14:33:56Z</time>
      </trkpt>
      <trkpt lat="38.597232978790998" lon="-3.470432041212916">
        <ele>766.29999999999995</ele>
        <time>2003-04-12T14:33:59Z</time>
      </trkpt>
      <trkpt lat="38.596202004700899" lon="-3.470790032297373">
        <ele>767.20000000000005</ele>
        <time>2003-04-12T14:34:03Z</time>
      </trkpt>
      <trkpt lat="38.595185028389096" lon="-3.471152968704701">
        <ele>769.29999999999995</ele>
        <time>2003-04-12T14:34:06Z</time>
      </trkpt>
      <trkpt lat="38.594188001006842" lon="-3.471508026123047">
        <ele>772.10000000000002</ele>
        <time>2003-04-12T14:34:08Z</time>
      </trkpt>
      <trkpt lat="38.593212012201548" lon="-3.471856964752078">
        <ele>774.70000000000005</ele>
        <time>2003-04-12T14:34:11Z</time>
      </trkpt>
      <trkpt lat="38.592263013124466" lon="-3.472101967781782">
        <ele>777.29999999999995</ele>
        <time>2003-04-12T14:34:15Z</time>
      </trkpt>
      <trkpt lat="38.5913270059973" lon="-3.47213800996542">
        <ele>779.79999999999995</ele>
        <time>2003-04-12T14:34:18Z</time>
      </trkpt>
      <trkpt lat="38.590192012488842" lon="-3.472149996086955">
        <ele>781.70000000000005</ele>
        <time>2003-04-12T14:34:22Z</time>
      </trkpt>
      <trkpt lat="38.589635035023093" lon="-3.472300032153726">
        <ele>782.10000000000002</ele>
        <time>2003-04-12T14:34:23Z</time>
      </trkpt>
      <trkpt lat="38.589098006486893" lon="-3.472549980506301">
        <ele>782.60000000000002</ele>
        <time>2003-04-12T14:34:26Z</time>
      </trkpt>
      <trkpt lat="38.58834195882082" lon="-3.473103018477559">
        <ele>783.79999999999995</ele>
        <time>2003-04-12T14:34:29Z</time>
      </trkpt>
      <trkpt lat="38.587699988856912" lon="-3.473820006474853">
        <ele>786.29999999999995</ele>
        <time>2003-04-12T14:34:31Z</time>
      </trkpt>
      <trkpt lat="38.58735297806561" lon="-3.474402967840433">
        <ele>788.79999999999995</ele>
        <time>2003-04-12T14:34:34Z</time>
      </trkpt>
      <trkpt lat="38.586742021143436" lon="-3.475635023787618">
        <ele>793.29999999999995</ele>
        <time>2003-04-12T14:34:38Z</time>
      </trkpt>
      <trkpt lat="38.586116982623935" lon="-3.476877976208925">
        <ele>796.39999999999998</ele>
        <time>2003-04-12T14:34:42Z</time>
      </trkpt>
      <trkpt lat="38.585460009053349" lon="-3.478131992742419">
        <ele>798.89999999999998</ele>
        <time>2003-04-12T14:34:46Z</time>
      </trkpt>
      <trkpt lat="38.584958016872406" lon="-3.479091972112656">
        <ele>800.79999999999995</ele>
        <time>2003-04-12T14:34:49Z</time>
      </trkpt>
      <trkpt lat="38.584447978064418" lon="-3.480063015595079">
        <ele>802.39999999999998</ele>
        <time>2003-04-12T14:34:52Z</time>
      </trkpt>
      <trkpt lat="38.583882031962276" lon="-3.480952000245452">
        <ele>805.39999999999998</ele>
        <time>2003-04-12T14:34:54Z</time>
      </trkpt>
      <trkpt lat="38.583251964300871" lon="-3.481687009334564">
        <ele>809.20000000000005</ele>
        <time>2003-04-12T14:34:57Z</time>
      </trkpt>
      <trkpt lat="38.582762964069843" lon="-3.482050029560924">
        <ele>811.39999999999998</ele>
        <time>2003-04-12T14:35:00Z</time>
      </trkpt>
      <trkpt lat="38.582232976332307" lon="-3.482320010662079">
        <ele>812.70000000000005</ele>
        <time>2003-04-12T14:35:01Z</time>
      </trkpt>
      <trkpt lat="38.581668036058545" lon="-3.482484966516495">
        <ele>813.29999999999995</ele>
        <time>2003-04-12T14:35:04Z</time>
      </trkpt>
      <trkpt lat="38.5810780338943" lon="-3.482540035620332">
        <ele>813.10000000000002</ele>
        <time>2003-04-12T14:35:05Z</time>
      </trkpt>
      <trkpt lat="38.579932982102036" lon="-3.482512962073088">
        <ele>810</ele>
        <time>2003-04-12T14:35:09Z</time>
      </trkpt>
      <trkpt lat="38.579374998807907" lon="-3.482578005641699">
        <ele>805.39999999999998</ele>
        <time>2003-04-12T14:35:12Z</time>
      </trkpt>
      <trkpt lat="38.578509986400604" lon="-3.482812028378248">
        <ele>802.89999999999998</ele>
        <time>2003-04-12T14:35:15Z</time>
      </trkpt>
      <trkpt lat="38.577589988708496" lon="-3.483162978664041">
        <ele>797.60000000000002</ele>
        <time>2003-04-12T14:35:17Z</time>
      </trkpt>
      <trkpt lat="38.576664961874485" lon="-3.483472019433975">
        <ele>792.70000000000005</ele>
        <time>2003-04-12T14:35:20Z</time>
      </trkpt>
      <trkpt lat="38.575692996382713" lon="-3.483673017472029">
        <ele>787.39999999999998</ele>
        <time>2003-04-12T14:35:24Z</time>
      </trkpt>
      <trkpt lat="38.574690017849207" lon="-3.483875021338463">
        <ele>782.29999999999995</ele>
        <time>2003-04-12T14:35:27Z</time>
      </trkpt>
      <trkpt lat="38.573676981031895" lon="-3.484107032418251">
        <ele>778.79999999999995</ele>
        <time>2003-04-12T14:35:29Z</time>
      </trkpt>
      <trkpt lat="38.572712978348136" lon="-3.484408026561141">
        <ele>776.70000000000005</ele>
        <time>2003-04-12T14:35:32Z</time>
      </trkpt>
      <trkpt lat="38.571761967614293" lon="-3.484693011268973">
        <ele>774.60000000000002</ele>
        <time>2003-04-12T14:35:36Z</time>
      </trkpt>
      <trkpt lat="38.570841969922185" lon="-3.484982019290328">
        <ele>772.89999999999998</ele>
        <time>2003-04-12T14:35:39Z</time>
      </trkpt>
      <trkpt lat="38.569958014413714" lon="-3.485285025089979">
        <ele>772.39999999999998</ele>
        <time>2003-04-12T14:35:42Z</time>
      </trkpt>
      <trkpt lat="38.568822015076876" lon="-3.485762039199472">
        <ele>773.70000000000005</ele>
        <time>2003-04-12T14:35:46Z</time>
      </trkpt>
      <trkpt lat="38.56799497269094" lon="-3.486252967268229">
        <ele>775.70000000000005</ele>
        <time>2003-04-12T14:35:48Z</time>
      </trkpt>
      <trkpt lat="38.567187041044235" lon="-3.486795024946332">
        <ele>776.79999999999995</ele>
        <time>2003-04-12T14:35:51Z</time>
      </trkpt>
      <trkpt lat="38.566372990608215" lon="-3.487377986311913">
        <ele>776.20000000000005</ele>
        <time>2003-04-12T14:35:55Z</time>
      </trkpt>
      <trkpt lat="38.565517030656338" lon="-3.487945022061467">
        <ele>773.89999999999998</ele>
        <time>2003-04-12T14:35:58Z</time>
      </trkpt>
      <trkpt lat="38.564699962735176" lon="-3.488475009799004">
        <ele>772.39999999999998</ele>
        <time>2003-04-12T14:36:00Z</time>
      </trkpt>
      <trkpt lat="38.563628001138568" lon="-3.488977001979947">
        <ele>772.10000000000002</ele>
        <time>2003-04-12T14:36:05Z</time>
      </trkpt>
      <trkpt lat="38.562442967668176" lon="-3.48919996060431">
        <ele>771.39999999999998</ele>
        <time>2003-04-12T14:36:09Z</time>
      </trkpt>
      <trkpt lat="38.561530010774732" lon="-3.489389978349209">
        <ele>771.10000000000002</ele>
        <time>2003-04-12T14:36:11Z</time>
      </trkpt>
      <trkpt lat="38.560598026961088" lon="-3.489585025236011">
        <ele>771.89999999999998</ele>
        <time>2003-04-12T14:36:14Z</time>
      </trkpt>
      <trkpt lat="38.559648022055626" lon="-3.489766996353865">
        <ele>772.39999999999998</ele>
        <time>2003-04-12T14:36:18Z</time>
      </trkpt>
      <trkpt lat="38.558674966916442" lon="-3.489921977743506">
        <ele>772.70000000000005</ele>
        <time>2003-04-12T14:36:21Z</time>
      </trkpt>
      <trkpt lat="38.557687997817993" lon="-3.490062039345503">
        <ele>773</ele>
        <time>2003-04-12T14:36:23Z</time>
      </trkpt>
      <trkpt lat="38.556698011234403" lon="-3.490220038220286">
        <ele>773.20000000000005</ele>
        <time>2003-04-12T14:36:26Z</time>
      </trkpt>
      <trkpt lat="38.555710036307573" lon="-3.490387005731463">
        <ele>773.60000000000002</ele>
        <time>2003-04-12T14:36:30Z</time>
      </trkpt>
      <trkpt lat="38.554728012531996" lon="-3.490571994334459">
        <ele>774</ele>
        <time>2003-04-12T14:36:33Z</time>
      </trkpt>
      <trkpt lat="38.553731990978122" lon="-3.49074499681592">
        <ele>774.29999999999995</ele>
        <time>2003-04-12T14:36:36Z</time>
      </trkpt>
      <trkpt lat="38.552724989131093" lon="-3.490907019004226">
        <ele>774.70000000000005</ele>
        <time>2003-04-12T14:36:38Z</time>
      </trkpt>
      <trkpt lat="38.551712036132813" lon="-3.491056971251965">
        <ele>775.20000000000005</ele>
        <time>2003-04-12T14:36:41Z</time>
      </trkpt>
      <trkpt lat="38.550691958516836" lon="-3.491219999268651">
        <ele>775.5</ele>
        <time>2003-04-12T14:36:45Z</time>
      </trkpt>
      <trkpt lat="38.549661990255117" lon="-3.491391995921731">
        <ele>775.20000000000005</ele>
        <time>2003-04-12T14:36:48Z</time>
      </trkpt>
      <trkpt lat="38.548618024215102" lon="-3.491557035595179">
        <ele>774.70000000000005</ele>
        <time>2003-04-12T14:36:50Z</time>
      </trkpt>
      <trkpt lat="38.547565005719662" lon="-3.491728026419878">
        <ele>774.20000000000005</ele>
        <time>2003-04-12T14:36:53Z</time>
      </trkpt>
      <trkpt lat="38.546511987224221" lon="-3.491904968395829">
        <ele>775.70000000000005</ele>
        <time>2003-04-12T14:36:57Z</time>
      </trkpt>
      <trkpt lat="38.545468021184206" lon="-3.49207797087729">
        <ele>778.70000000000005</ele>
        <time>2003-04-12T14:37:00Z</time>
      </trkpt>
      <trkpt lat="38.544430006295443" lon="-3.49224996753037">
        <ele>780</ele>
        <time>2003-04-12T14:37:03Z</time>
      </trkpt>
      <trkpt lat="38.543385034427047" lon="-3.492424981668592">
        <ele>779.70000000000005</ele>
        <time>2003-04-12T14:37:05Z</time>
      </trkpt>
      <trkpt lat="38.542326986789703" lon="-3.492609970271587">
        <ele>777.60000000000002</ele>
        <time>2003-04-12T14:37:08Z</time>
      </trkpt>
      <trkpt lat="38.541249996051192" lon="-3.492792025208473">
        <ele>775.10000000000002</ele>
        <time>2003-04-12T14:37:12Z</time>
      </trkpt>
      <trkpt lat="38.540164958685637" lon="-3.492975002154708">
        <ele>773.5</ele>
        <time>2003-04-12T14:37:15Z</time>
      </trkpt>
      <trkpt lat="38.539087967947125" lon="-3.493157979100943">
        <ele>772.70000000000005</ele>
        <time>2003-04-12T14:37:17Z</time>
      </trkpt>
      <trkpt lat="38.538030004128814" lon="-3.493335004895926">
        <ele>772.60000000000002</ele>
        <time>2003-04-12T14:37:20Z</time>
      </trkpt>
      <trkpt lat="38.536985032260418" lon="-3.493508007377386">
        <ele>773.29999999999995</ele>
        <time>2003-04-12T14:37:24Z</time>
      </trkpt>
      <trkpt lat="38.535956991836429" lon="-3.493676986545324">
        <ele>774.70000000000005</ele>
        <time>2003-04-12T14:37:27Z</time>
      </trkpt>
      <trkpt lat="38.534946972504258" lon="-3.493847977370024">
        <ele>775.89999999999998</ele>
        <time>2003-04-12T14:37:30Z</time>
      </trkpt>
      <trkpt lat="38.533948017284274" lon="-3.494021985679865">
        <ele>777.29999999999995</ele>
        <time>2003-04-12T14:37:32Z</time>
      </trkpt>
      <trkpt lat="38.532961970195174" lon="-3.494188031181693">
        <ele>778.60000000000002</ele>
        <time>2003-04-12T14:37:35Z</time>
      </trkpt>
      <trkpt lat="38.532052030786872" lon="-3.494348041713238">
        <ele>779.79999999999995</ele>
        <time>2003-04-12T14:37:39Z</time>
      </trkpt>
      <trkpt lat="38.530904967337847" lon="-3.494572006165981">
        <ele>781.29999999999995</ele>
        <time>2003-04-12T14:37:43Z</time>
      </trkpt>
      <trkpt lat="38.529818002134562" lon="-3.494792031124234">
        <ele>782.89999999999998</ele>
        <time>2003-04-12T14:37:47Z</time>
      </trkpt>
      <trkpt lat="38.52874000556767" lon="-3.494896972551942">
        <ele>784.5</ele>
        <time>2003-04-12T14:37:51Z</time>
      </trkpt>
      <trkpt lat="38.528199959546328" lon="-3.494787001982331">
        <ele>785.20000000000005</ele>
        <time>2003-04-12T14:37:53Z</time>
      </trkpt>
      <trkpt lat="38.527408037334681" lon="-3.494436973705888">
        <ele>786</ele>
        <time>2003-04-12T14:37:55Z</time>
      </trkpt>
      <trkpt lat="38.526655007153749" lon="-3.493906985968351">
        <ele>786.79999999999995</ele>
        <time>2003-04-12T14:37:58Z</time>
      </trkpt>
      <trkpt lat="38.525631995871663" lon="-3.493163008242846">
        <ele>787</ele>
        <time>2003-04-12T14:38:02Z</time>
      </trkpt>
      <trkpt lat="38.524805037304759" lon="-3.492702003568411">
        <ele>788.10000000000002</ele>
        <time>2003-04-12T14:38:06Z</time>
      </trkpt>
      <trkpt lat="38.523928038775921" lon="-3.49235700443387">
        <ele>789.5</ele>
        <time>2003-04-12T14:38:09Z</time>
      </trkpt>
      <trkpt lat="38.523033019155264" lon="-3.492036983370781">
        <ele>790.79999999999995</ele>
        <time>2003-04-12T14:38:11Z</time>
      </trkpt>
      <trkpt lat="38.522131964564323" lon="-3.491707993671298">
        <ele>792.10000000000002</ele>
        <time>2003-04-12T14:38:14Z</time>
      </trkpt>
      <trkpt lat="38.521211966872215" lon="-3.49141001701355">
        <ele>793.70000000000005</ele>
        <time>2003-04-12T14:38:18Z</time>
      </trkpt>
      <trkpt lat="38.520272020250559" lon="-3.491157973185182">
        <ele>795</ele>
        <time>2003-04-12T14:38:21Z</time>
      </trkpt>
      <trkpt lat="38.519312962889671" lon="-3.490997040644288">
        <ele>796.79999999999995</ele>
        <time>2003-04-12T14:38:24Z</time>
      </trkpt>
      <trkpt lat="38.518349966034293" lon="-3.490952029824257">
        <ele>799.29999999999995</ele>
        <time>2003-04-12T14:38:26Z</time>
      </trkpt>
      <trkpt lat="38.517385041341186" lon="-3.491029981523752">
        <ele>802.29999999999995</ele>
        <time>2003-04-12T14:38:29Z</time>
      </trkpt>
      <trkpt lat="38.516441993415356" lon="-3.491208013147116">
        <ele>805.60000000000002</ele>
        <time>2003-04-12T14:38:33Z</time>
      </trkpt>
      <trkpt lat="38.515521995723248" lon="-3.491495009511709">
        <ele>809</ele>
        <time>2003-04-12T14:38:36Z</time>
      </trkpt>
      <trkpt lat="38.514411980286241" lon="-3.491961965337396">
        <ele>812.79999999999995</ele>
        <time>2003-04-12T14:38:40Z</time>
      </trkpt>
      <trkpt lat="38.513422999531031" lon="-3.492547022178769">
        <ele>817.70000000000005</ele>
        <time>2003-04-12T14:38:44Z</time>
      </trkpt>
      <trkpt lat="38.512472994625568" lon="-3.493263004347682">
        <ele>822</ele>
        <time>2003-04-12T14:38:48Z</time>
      </trkpt>
      <trkpt lat="38.511527013033628" lon="-3.494060039520264">
        <ele>824.10000000000002</ele>
        <time>2003-04-12T14:38:52Z</time>
      </trkpt>
      <trkpt lat="38.510547000914812" lon="-3.494912981987">
        <ele>824.39999999999998</ele>
        <time>2003-04-12T14:38:56Z</time>
      </trkpt>
      <trkpt lat="38.509777039289474" lon="-3.495580013841391">
        <ele>823</ele>
        <time>2003-04-12T14:38:59Z</time>
      </trkpt>
      <trkpt lat="38.508982015773654" lon="-3.496262971311808">
        <ele>820.60000000000002</ele>
        <time>2003-04-12T14:39:01Z</time>
      </trkpt>
      <trkpt lat="38.508162014186382" lon="-3.496977025642991">
        <ele>818</ele>
        <time>2003-04-12T14:39:04Z</time>
      </trkpt>
      <trkpt lat="38.507321979850531" lon="-3.497708011418581">
        <ele>815.20000000000005</ele>
        <time>2003-04-12T14:39:08Z</time>
      </trkpt>
      <trkpt lat="38.506447998806834" lon="-3.498422987759113">
        <ele>812.29999999999995</ele>
        <time>2003-04-12T14:39:11Z</time>
      </trkpt>
      <trkpt lat="38.505552979186177" lon="-3.499078033491969">
        <ele>808.20000000000005</ele>
        <time>2003-04-12T14:39:14Z</time>
      </trkpt>
      <trkpt lat="38.504644967615604" lon="-3.499646997079253">
        <ele>803.70000000000005</ele>
        <time>2003-04-12T14:39:16Z</time>
      </trkpt>
      <trkpt lat="38.503697980195284" lon="-3.500221995636821">
        <ele>799.20000000000005</ele>
        <time>2003-04-12T14:39:19Z</time>
      </trkpt>
      <trkpt lat="38.502732971683145" lon="-3.500819960609078">
        <ele>794.10000000000002</ele>
        <time>2003-04-12T14:39:23Z</time>
      </trkpt>
      <trkpt lat="38.501795036718249" lon="-3.501377021893859">
        <ele>790</ele>
        <time>2003-04-12T14:39:26Z</time>
      </trkpt>
      <trkpt lat="38.500877972692251" lon="-3.50193701684475">
        <ele>786.10000000000002</ele>
        <time>2003-04-12T14:39:28Z</time>
      </trkpt>
      <trkpt lat="38.499955041334033" lon="-3.502502040937543">
        <ele>783.60000000000002</ele>
        <time>2003-04-12T14:39:31Z</time>
      </trkpt>
      <trkpt lat="38.499054992571473" lon="-3.503052983433008">
        <ele>782.79999999999995</ele>
        <time>2003-04-12T14:39:35Z</time>
      </trkpt>
      <trkpt lat="38.498198026791215" lon="-3.503582971170545">
        <ele>783</ele>
        <time>2003-04-12T14:39:38Z</time>
      </trkpt>
      <trkpt lat="38.49760802462697" lon="-3.503838032484055">
        <ele>782.79999999999995</ele>
        <time>2003-04-12T14:39:39Z</time>
      </trkpt>
      <trkpt lat="38.496982986107469" lon="-3.503957977518439">
        <ele>782.70000000000005</ele>
        <time>2003-04-12T14:39:42Z</time>
      </trkpt>
      <trkpt lat="38.496031975373626" lon="-3.503950014710426">
        <ele>782.39999999999998</ele>
        <time>2003-04-12T14:39:45Z</time>
      </trkpt>
      <trkpt lat="38.495084987953305" lon="-3.503732001408935">
        <ele>780.60000000000002</ele>
        <time>2003-04-12T14:39:47Z</time>
      </trkpt>
      <trkpt lat="38.494131965562701" lon="-3.503405023366213">
        <ele>777.70000000000005</ele>
        <time>2003-04-12T14:39:50Z</time>
      </trkpt>
      <trkpt lat="38.493148013949394" lon="-3.503075027838349">
        <ele>774.89999999999998</ele>
        <time>2003-04-12T14:39:54Z</time>
      </trkpt>
      <trkpt lat="38.492147969081998" lon="-3.502746960148215">
        <ele>772.39999999999998</ele>
        <time>2003-04-12T14:39:57Z</time>
      </trkpt>
      <trkpt lat="38.49114297889173" lon="-3.502413025125861">
        <ele>771.5</ele>
        <time>2003-04-12T14:39:59Z</time>
      </trkpt>
      <trkpt lat="38.490140000358224" lon="-3.502065008506179">
        <ele>772</ele>
        <time>2003-04-12T14:40:02Z</time>
      </trkpt>
      <trkpt lat="38.489171974360943" lon="-3.501725038513541">
        <ele>771.79999999999995</ele>
        <time>2003-04-12T14:40:06Z</time>
      </trkpt>
      <trkpt lat="38.488203026354313" lon="-3.501403005793691">
        <ele>772.20000000000005</ele>
        <time>2003-04-12T14:40:09Z</time>
      </trkpt>
      <trkpt lat="38.487242963165045" lon="-3.501127995550633">
        <ele>772.20000000000005</ele>
        <time>2003-04-12T14:40:12Z</time>
      </trkpt>
      <trkpt lat="38.486315002664924" lon="-3.500937977805734">
        <ele>773</ele>
        <time>2003-04-12T14:40:14Z</time>
      </trkpt>
      <trkpt lat="38.485368015244603" lon="-3.500917023047805">
        <ele>773.39999999999998</ele>
        <time>2003-04-12T14:40:17Z</time>
      </trkpt>
      <trkpt lat="38.484426978975534" lon="-3.501088013872504">
        <ele>774.20000000000005</ele>
        <time>2003-04-12T14:40:21Z</time>
      </trkpt>
      <trkpt lat="38.483507987111807" lon="-3.50146796554327">
        <ele>772.89999999999998</ele>
        <time>2003-04-12T14:40:24Z</time>
      </trkpt>
      <trkpt lat="38.482607016339898" lon="-3.502022009342909">
        <ele>769.79999999999995</ele>
        <time>2003-04-12T14:40:26Z</time>
      </trkpt>
      <trkpt lat="38.481705039739609" lon="-3.502655010670424">
        <ele>765.20000000000005</ele>
        <time>2003-04-12T14:40:29Z</time>
      </trkpt>
      <trkpt lat="38.480802979320288" lon="-3.50324803031981">
        <ele>763.10000000000002</ele>
        <time>2003-04-12T14:40:33Z</time>
      </trkpt>
      <trkpt lat="38.479888010770082" lon="-3.503777012228966">
        <ele>764</ele>
        <time>2003-04-12T14:40:36Z</time>
      </trkpt>
      <trkpt lat="38.47895703278482" lon="-3.504153024405241">
        <ele>767.5</ele>
        <time>2003-04-12T14:40:39Z</time>
      </trkpt>
      <trkpt lat="38.478018008172512" lon="-3.504347987473011">
        <ele>771.70000000000005</ele>
        <time>2003-04-12T14:40:41Z</time>
      </trkpt>
      <trkpt lat="38.477077977731824" lon="-3.504397021606565">
        <ele>775.79999999999995</ele>
        <time>2003-04-12T14:40:44Z</time>
      </trkpt>
      <trkpt lat="38.476148005574942" lon="-3.504293002188206">
        <ele>779.60000000000002</ele>
        <time>2003-04-12T14:40:48Z</time>
      </trkpt>
      <trkpt lat="38.475230019539595" lon="-3.504092004150152">
        <ele>782.29999999999995</ele>
        <time>2003-04-12T14:40:51Z</time>
      </trkpt>
      <trkpt lat="38.474307004362345" lon="-3.503841971978545">
        <ele>783.20000000000005</ele>
        <time>2003-04-12T14:40:53Z</time>
      </trkpt>
      <trkpt lat="38.473360016942024" lon="-3.503601998090744">
        <ele>782.39999999999998</ele>
        <time>2003-04-12T14:40:57Z</time>
      </trkpt>
      <trkpt lat="38.472415041178465" lon="-3.503351965919137">
        <ele>779.79999999999995</ele>
        <time>2003-04-12T14:41:00Z</time>
      </trkpt>
      <trkpt lat="38.471462018787861" lon="-3.503087013959885">
        <ele>776.79999999999995</ele>
        <time>2003-04-12T14:41:04Z</time>
      </trkpt>
      <trkpt lat="38.470489969477057" lon="-3.502832958474755">
        <ele>774.10000000000002</ele>
        <time>2003-04-12T14:41:07Z</time>
      </trkpt>
      <trkpt lat="38.46957198344171" lon="-3.502591978758574">
        <ele>772.29999999999995</ele>
        <time>2003-04-12T14:41:08Z</time>
      </trkpt>
      <trkpt lat="38.468619966879487" lon="-3.502387041226029">
        <ele>771.10000000000002</ele>
        <time>2003-04-12T14:41:12Z</time>
      </trkpt>
      <trkpt lat="38.467646995559335" lon="-3.502257037907839">
        <ele>769.70000000000005</ele>
        <time>2003-04-12T14:41:15Z</time>
      </trkpt>
      <trkpt lat="38.466654997318983" lon="-3.502255026251078">
        <ele>768.5</ele>
        <time>2003-04-12T14:41:18Z</time>
      </trkpt>
      <trkpt lat="38.465682025998831" lon="-3.502332977950573">
        <ele>767.29999999999995</ele>
        <time>2003-04-12T14:41:20Z</time>
      </trkpt>
      <trkpt lat="38.46473503857851" lon="-3.502391986548901">
        <ele>766.5</ele>
        <time>2003-04-12T14:41:23Z</time>
      </trkpt>
      <trkpt lat="38.463823003694415" lon="-3.502289978787303">
        <ele>765.39999999999998</ele>
        <time>2003-04-12T14:41:27Z</time>
      </trkpt>
      <trkpt lat="38.46323199570179" lon="-3.50208998657763">
        <ele>764.20000000000005</ele>
        <time>2003-04-12T14:41:29Z</time>
      </trkpt>
      <trkpt lat="38.462336976081133" lon="-3.501695031300187">
        <ele>761</ele>
        <time>2003-04-12T14:41:33Z</time>
      </trkpt>
      <trkpt lat="38.461395017802715" lon="-3.501263028010726">
        <ele>756.39999999999998</ele>
        <time>2003-04-12T14:41:35Z</time>
      </trkpt>
      <trkpt lat="38.460443001240492" lon="-3.500792970880866">
        <ele>751.10000000000002</ele>
        <time>2003-04-12T14:41:38Z</time>
      </trkpt>
      <trkpt lat="38.459486961364746" lon="-3.500340012833476">
        <ele>745.89999999999998</ele>
        <time>2003-04-12T14:41:42Z</time>
      </trkpt>
      <trkpt lat="38.458552965894341" lon="-3.499892000108957">
        <ele>741.89999999999998</ele>
        <time>2003-04-12T14:41:45Z</time>
      </trkpt>
      <trkpt lat="38.457674961537123" lon="-3.499482041224837">
        <ele>740.29999999999995</ele>
        <time>2003-04-12T14:41:47Z</time>
      </trkpt>
      <trkpt lat="38.45659201964736" lon="-3.498969990760088">
        <ele>737</ele>
        <time>2003-04-12T14:41:51Z</time>
      </trkpt>
      <trkpt lat="38.455564985051751" lon="-3.498481996357441">
        <ele>732.29999999999995</ele>
        <time>2003-04-12T14:41:56Z</time>
      </trkpt>
      <trkpt lat="38.454552032053471" lon="-3.498010011389852">
        <ele>726.20000000000005</ele>
        <time>2003-04-12T14:42:00Z</time>
      </trkpt>
      <trkpt lat="38.453534971922636" lon="-3.497586976736784">
        <ele>720.20000000000005</ele>
        <time>2003-04-12T14:42:04Z</time>
      </trkpt>
      <trkpt lat="38.452465021982789" lon="-3.497265027835965">
        <ele>713.89999999999998</ele>
        <time>2003-04-12T14:42:08Z</time>
      </trkpt>
      <trkpt lat="38.45132801681757" lon="-3.497093031182885">
        <ele>707.39999999999998</ele>
        <time>2003-04-12T14:42:12Z</time>
      </trkpt>
      <trkpt lat="38.450177013874054" lon="-3.497045002877712">
        <ele>702.39999999999998</ele>
        <time>2003-04-12T14:42:16Z</time>
      </trkpt>
      <trkpt lat="38.449057023972273" lon="-3.497060006484389">
        <ele>700.29999999999995</ele>
        <time>2003-04-12T14:42:20Z</time>
      </trkpt>
      <trkpt lat="38.447997970506549" lon="-3.497093031182885">
        <ele>699.70000000000005</ele>
        <time>2003-04-12T14:42:24Z</time>
      </trkpt>
      <trkpt lat="38.446955010294914" lon="-3.497120020911098">
        <ele>699.29999999999995</ele>
        <time>2003-04-12T14:42:28Z</time>
      </trkpt>
      <trkpt lat="38.445853041484952" lon="-3.497148016467691">
        <ele>697.79999999999995</ele>
        <time>2003-04-12T14:42:32Z</time>
      </trkpt>
      <trkpt lat="38.445018036291003" lon="-3.497056988999248">
        <ele>696.89999999999998</ele>
        <time>2003-04-12T14:42:35Z</time>
      </trkpt>
      <trkpt lat="38.443908020853996" lon="-3.496741997078061">
        <ele>695.20000000000005</ele>
        <time>2003-04-12T14:42:39Z</time>
      </trkpt>
      <trkpt lat="38.44286497682333" lon="-3.496430022642016">
        <ele>694.20000000000005</ele>
        <time>2003-04-12T14:42:43Z</time>
      </trkpt>
      <trkpt lat="38.442053021863103" lon="-3.496334971860051">
        <ele>692.89999999999998</ele>
        <time>2003-04-12T14:42:45Z</time>
      </trkpt>
      <trkpt lat="38.441224973648787" lon="-3.496422981843352">
        <ele>692</ele>
        <time>2003-04-12T14:42:48Z</time>
      </trkpt>
      <trkpt lat="38.44011202454567" lon="-3.496735040098429">
        <ele>691.20000000000005</ele>
        <time>2003-04-12T14:42:52Z</time>
      </trkpt>
      <trkpt lat="38.43899697996676" lon="-3.496981970965862">
        <ele>690.60000000000002</ele>
        <time>2003-04-12T14:42:56Z</time>
      </trkpt>
      <trkpt lat="38.438436985015869" lon="-3.496981970965862">
        <ele>691</ele>
        <time>2003-04-12T14:42:59Z</time>
      </trkpt>
      <trkpt lat="38.437307020649314" lon="-3.496841993182898">
        <ele>692.39999999999998</ele>
        <time>2003-04-12T14:43:03Z</time>
      </trkpt>
      <trkpt lat="38.436185019090772" lon="-3.496721964329481">
        <ele>696.89999999999998</ele>
        <time>2003-04-12T14:43:07Z</time>
      </trkpt>
      <trkpt lat="38.435063017532229" lon="-3.496624985709786">
        <ele>699.20000000000005</ele>
        <time>2003-04-12T14:43:11Z</time>
      </trkpt>
      <trkpt lat="38.433976974338293" lon="-3.496652981266379">
        <ele>700</ele>
        <time>2003-04-12T14:43:15Z</time>
      </trkpt>
      <trkpt lat="38.433429971337318" lon="-3.496779967099428">
        <ele>700.29999999999995</ele>
        <time>2003-04-12T14:43:17Z</time>
      </trkpt>
      <trkpt lat="38.432372007519007" lon="-3.497123038396239">
        <ele>699.39999999999998</ele>
        <time>2003-04-12T14:43:21Z</time>
      </trkpt>
      <trkpt lat="38.431337010115385" lon="-3.497441969811916">
        <ele>701.29999999999995</ele>
        <time>2003-04-12T14:43:25Z</time>
      </trkpt>
      <trkpt lat="38.430336965247989" lon="-3.497740030288696">
        <ele>703.60000000000002</ele>
        <time>2003-04-12T14:43:29Z</time>
      </trkpt>
      <trkpt lat="38.429337004199624" lon="-3.498040018603206">
        <ele>705.5</ele>
        <time>2003-04-12T14:43:33Z</time>
      </trkpt>
      <trkpt lat="38.428320027887821" lon="-3.498330032452941">
        <ele>706.89999999999998</ele>
        <time>2003-04-12T14:43:37Z</time>
      </trkpt>
      <trkpt lat="38.427336998283863" lon="-3.498592972755432">
        <ele>706.70000000000005</ele>
        <time>2003-04-12T14:43:41Z</time>
      </trkpt>
      <trkpt lat="38.426347011700273" lon="-3.498743008822203">
        <ele>703.89999999999998</ele>
        <time>2003-04-12T14:43:45Z</time>
      </trkpt>
      <trkpt lat="38.425302961841226" lon="-3.498721970245242">
        <ele>697.89999999999998</ele>
        <time>2003-04-12T14:43:49Z</time>
      </trkpt>
      <trkpt lat="38.42432202771306" lon="-3.498702021315694">
        <ele>694</ele>
        <time>2003-04-12T14:43:53Z</time>
      </trkpt>
      <trkpt lat="38.423658013343811" lon="-3.498772010207176">
        <ele>689.5</ele>
        <time>2003-04-12T14:43:56Z</time>
      </trkpt>
      <trkpt lat="38.422352029010653" lon="-3.499401994049549">
        <ele>682.5</ele>
        <time>2003-04-12T14:44:01Z</time>
      </trkpt>
      <trkpt lat="38.421966964378953" lon="-3.499731989577413">
        <ele>680.29999999999995</ele>
        <time>2003-04-12T14:44:04Z</time>
      </trkpt>
      <trkpt lat="38.421215023845434" lon="-3.500374965369701">
        <ele>677</ele>
        <time>2003-04-12T14:44:08Z</time>
      </trkpt>
      <trkpt lat="38.420657962560654" lon="-3.500782996416092">
        <ele>677.10000000000002</ele>
        <time>2003-04-12T14:44:11Z</time>
      </trkpt>
      <trkpt lat="38.420248003676534" lon="-3.500960022211075">
        <ele>677.29999999999995</ele>
        <time>2003-04-12T14:44:13Z</time>
      </trkpt>
      <trkpt lat="38.41980803757906" lon="-3.501049960032105">
        <ele>677.29999999999995</ele>
        <time>2003-04-12T14:44:15Z</time>
      </trkpt>
      <trkpt lat="38.419379973784089" lon="-3.50105700083077">
        <ele>676.79999999999995</ele>
        <time>2003-04-12T14:44:16Z</time>
      </trkpt>
      <trkpt lat="38.418937996029854" lon="-3.500945018604398">
        <ele>676.60000000000002</ele>
        <time>2003-04-12T14:44:19Z</time>
      </trkpt>
      <trkpt lat="38.418502975255251" lon="-3.500703033059835">
        <ele>675.79999999999995</ele>
        <time>2003-04-12T14:44:20Z</time>
      </trkpt>
      <trkpt lat="38.417622959241271" lon="-3.500140020623803">
        <ele>676.5</ele>
        <time>2003-04-12T14:44:24Z</time>
      </trkpt>
      <trkpt lat="38.416812010109425" lon="-3.499602992087603">
        <ele>677.29999999999995</ele>
        <time>2003-04-12T14:44:28Z</time>
      </trkpt>
      <trkpt lat="38.415842978283763" lon="-3.498987006023526">
        <ele>678.70000000000005</ele>
        <time>2003-04-12T14:44:33Z</time>
      </trkpt>
      <trkpt lat="38.415045021101832" lon="-3.49858702160418">
        <ele>679.5</ele>
        <time>2003-04-12T14:44:38Z</time>
      </trkpt>
      <trkpt lat="38.413955038413405" lon="-3.498279992491007">
        <ele>680.89999999999998</ele>
        <time>2003-04-12T14:44:43Z</time>
      </trkpt>
      <trkpt lat="38.413051972165704" lon="-3.498212015256286">
        <ele>680.5</ele>
        <time>2003-04-12T14:44:47Z</time>
      </trkpt>
      <trkpt lat="38.412077995017171" lon="-3.498317962512374">
        <ele>678.79999999999995</ele>
        <time>2003-04-12T14:44:51Z</time>
      </trkpt>
      <trkpt lat="38.411184987053275" lon="-3.498579980805516">
        <ele>676.5</ele>
        <time>2003-04-12T14:44:55Z</time>
      </trkpt>
      <trkpt lat="38.410328021273017" lon="-3.498935038223863">
        <ele>673.79999999999995</ele>
        <time>2003-04-12T14:44:59Z</time>
      </trkpt>
      <trkpt lat="38.409296963363886" lon="-3.49933804012835">
        <ele>671.60000000000002</ele>
        <time>2003-04-12T14:45:03Z</time>
      </trkpt>
      <trkpt lat="38.408355005085468" lon="-3.499714974313974">
        <ele>671.29999999999995</ele>
        <time>2003-04-12T14:45:09Z</time>
      </trkpt>
      <trkpt lat="38.407828034833074" lon="-3.499880013987422">
        <ele>671.20000000000005</ele>
        <time>2003-04-12T14:45:11Z</time>
      </trkpt>
      <trkpt lat="38.407447999343276" lon="-3.499892000108957">
        <ele>671.29999999999995</ele>
        <time>2003-04-12T14:45:14Z</time>
      </trkpt>
      <trkpt lat="38.406547028571367" lon="-3.499997025355697">
        <ele>671.5</ele>
        <time>2003-04-12T14:45:18Z</time>
      </trkpt>
      <trkpt lat="38.4063829947263" lon="-3.500067014247179">
        <ele>671.5</ele>
        <time>2003-04-12T14:45:19Z</time>
      </trkpt>
      <trkpt lat="38.406089963391423" lon="-3.500276980921626">
        <ele>671.5</ele>
        <time>2003-04-12T14:45:22Z</time>
      </trkpt>
      <trkpt lat="38.405298041179776" lon="-3.501051971688867">
        <ele>670.10000000000002</ele>
        <time>2003-04-12T14:45:27Z</time>
      </trkpt>
      <trkpt lat="38.405041974037886" lon="-3.501211982220411">
        <ele>670.10000000000002</ele>
        <time>2003-04-12T14:45:30Z</time>
      </trkpt>
      <trkpt lat="38.404802000150084" lon="-3.501277025789022">
        <ele>669.89999999999998</ele>
        <time>2003-04-12T14:45:32Z</time>
      </trkpt>
      <trkpt lat="38.404537970200181" lon="-3.501262022182345">
        <ele>669.89999999999998</ele>
        <time>2003-04-12T14:45:34Z</time>
      </trkpt>
      <trkpt lat="38.404402015730739" lon="-3.501199996098876">
        <ele>669.89999999999998</ele>
        <time>2003-04-12T14:45:34Z</time>
      </trkpt>
      <trkpt lat="38.403489980846643" lon="-3.500664979219437">
        <ele>669.20000000000005</ele>
        <time>2003-04-12T14:45:41Z</time>
      </trkpt>
      <trkpt lat="38.403067030012608" lon="-3.500512009486556">
        <ele>671.39999999999998</ele>
        <time>2003-04-12T14:45:45Z</time>
      </trkpt>
      <trkpt lat="38.402039995416999" lon="-3.500336995348334">
        <ele>674.29999999999995</ele>
        <time>2003-04-12T14:45:52Z</time>
      </trkpt>
      <trkpt lat="38.401881996542215" lon="-3.500364990904927">
        <ele>674.60000000000002</ele>
        <time>2003-04-12T14:45:53Z</time>
      </trkpt>
      <trkpt lat="38.401722991839051" lon="-3.500431962311268">
        <ele>674.89999999999998</ele>
        <time>2003-04-12T14:45:53Z</time>
      </trkpt>
      <trkpt lat="38.401572033762932" lon="-3.500527013093233">
        <ele>675</ele>
        <time>2003-04-12T14:45:54Z</time>
      </trkpt>
      <trkpt lat="38.401437001302838" lon="-3.500646958127618">
        <ele>675.39999999999998</ele>
        <time>2003-04-12T14:45:56Z</time>
      </trkpt>
      <trkpt lat="38.401316972449422" lon="-3.500790037214756">
        <ele>675.39999999999998</ele>
        <time>2003-04-12T14:45:57Z</time>
      </trkpt>
      <trkpt lat="38.401214964687824" lon="-3.500960022211075">
        <ele>675.39999999999998</ele>
        <time>2003-04-12T14:45:57Z</time>
      </trkpt>
      <trkpt lat="38.401132989674807" lon="-3.501151967793703">
        <ele>675.5</ele>
        <time>2003-04-12T14:45:59Z</time>
      </trkpt>
      <trkpt lat="38.401020001620054" lon="-3.501565027981997">
        <ele>675.20000000000005</ele>
        <time>2003-04-12T14:46:01Z</time>
      </trkpt>
      <trkpt lat="38.400738034397364" lon="-3.502821978181601">
        <ele>674.70000000000005</ele>
        <time>2003-04-12T14:46:07Z</time>
      </trkpt>
      <trkpt lat="38.400460006669164" lon="-3.50402302108705">
        <ele>673.20000000000005</ele>
        <time>2003-04-12T14:46:12Z</time>
      </trkpt>
      <trkpt lat="38.400432011112571" lon="-3.504653004929423">
        <ele>673</ele>
        <time>2003-04-12T14:46:16Z</time>
      </trkpt>
      <trkpt lat="38.400680031627417" lon="-3.505777018144727">
        <ele>673.79999999999995</ele>
        <time>2003-04-12T14:46:20Z</time>
      </trkpt>
      <trkpt lat="38.400680031627417" lon="-3.505952032282949">
        <ele>674.20000000000005</ele>
        <time>2003-04-12T14:46:21Z</time>
      </trkpt>
      <trkpt lat="38.400650024414063" lon="-3.506105002015829">
        <ele>674.79999999999995</ele>
        <time>2003-04-12T14:46:23Z</time>
      </trkpt>
      <trkpt lat="38.400595039129257" lon="-3.50625797174871">
        <ele>675.29999999999995</ele>
        <time>2003-04-12T14:46:24Z</time>
      </trkpt>
      <trkpt lat="38.400426981970668" lon="-3.506512027233839">
        <ele>675.5</ele>
        <time>2003-04-12T14:46:26Z</time>
      </trkpt>
      <trkpt lat="38.400297984480858" lon="-3.506574975326657">
        <ele>675.89999999999998</ele>
        <time>2003-04-12T14:46:27Z</time>
      </trkpt>
      <trkpt lat="38.400163035839796" lon="-3.506606994196773">
        <ele>676.29999999999995</ele>
        <time>2003-04-12T14:46:28Z</time>
      </trkpt>
      <trkpt lat="38.400030015036464" lon="-3.506604982540011">
        <ele>676.39999999999998</ele>
        <time>2003-04-12T14:46:28Z</time>
      </trkpt>
      <trkpt lat="38.399900011718273" lon="-3.50655703805387">
        <ele>676.70000000000005</ele>
        <time>2003-04-12T14:46:30Z</time>
      </trkpt>
      <trkpt lat="38.39976497925818" lon="-3.506453018635511">
        <ele>677</ele>
        <time>2003-04-12T14:46:31Z</time>
      </trkpt>
      <trkpt lat="38.399668000638485" lon="-3.506317986175418">
        <ele>677.29999999999995</ele>
        <time>2003-04-12T14:46:31Z</time>
      </trkpt>
      <trkpt lat="38.399422997608781" lon="-3.505905009806156">
        <ele>679.79999999999995</ele>
        <time>2003-04-12T14:46:35Z</time>
      </trkpt>
      <trkpt lat="38.39914295822382" lon="-3.505503013730049">
        <ele>681.20000000000005</ele>
        <time>2003-04-12T14:46:38Z</time>
      </trkpt>
      <trkpt lat="38.398889992386103" lon="-3.505378039553762">
        <ele>683.5</ele>
        <time>2003-04-12T14:46:39Z</time>
      </trkpt>
      <trkpt lat="38.398750014603138" lon="-3.50539798848331">
        <ele>684.39999999999998</ele>
        <time>2003-04-12T14:46:40Z</time>
      </trkpt>
      <trkpt lat="38.398607019335032" lon="-3.505451967939735">
        <ele>685.20000000000005</ele>
        <time>2003-04-12T14:46:42Z</time>
      </trkpt>
      <trkpt lat="38.39798298664391" lon="-3.505707029253244">
        <ele>687.70000000000005</ele>
        <time>2003-04-12T14:46:46Z</time>
      </trkpt>
      <trkpt lat="38.39766195975244" lon="-3.505890006199479">
        <ele>688.5</ele>
        <time>2003-04-12T14:46:47Z</time>
      </trkpt>
      <trkpt lat="38.397512007504702" lon="-3.506025038659573">
        <ele>688.79999999999995</ele>
        <time>2003-04-12T14:46:48Z</time>
      </trkpt>
      <trkpt lat="38.396717989817262" lon="-3.506888039410114">
        <ele>694.79999999999995</ele>
        <time>2003-04-12T14:46:55Z</time>
      </trkpt>
      <trkpt lat="38.396597038954496" lon="-3.506974959746003">
        <ele>695.79999999999995</ele>
        <time>2003-04-12T14:46:55Z</time>
      </trkpt>
      <trkpt lat="38.396463012322783" lon="-3.507027011364698">
        <ele>696.5</ele>
        <time>2003-04-12T14:46:57Z</time>
      </trkpt>
      <trkpt lat="38.396312976256013" lon="-3.507040003314614">
        <ele>697.79999999999995</ele>
        <time>2003-04-12T14:46:58Z</time>
      </trkpt>
      <trkpt lat="38.395688021555543" lon="-3.507155003026128">
        <ele>700.5</ele>
        <time>2003-04-12T14:47:02Z</time>
      </trkpt>
      <trkpt lat="38.395407982170582" lon="-3.507364969700575">
        <ele>701.5</ele>
        <time>2003-04-12T14:47:03Z</time>
      </trkpt>
      <trkpt lat="38.394578006118536" lon="-3.50793200545013">
        <ele>706.89999999999998</ele>
        <time>2003-04-12T14:47:10Z</time>
      </trkpt>
      <trkpt lat="38.39370796456933" lon="-3.50857799872756">
        <ele>704.79999999999995</ele>
        <time>2003-04-12T14:47:17Z</time>
      </trkpt>
      <trkpt lat="38.393581984564662" lon="-3.508634995669127">
        <ele>704.10000000000002</ele>
        <time>2003-04-12T14:47:18Z</time>
      </trkpt>
      <trkpt lat="38.393439995124936" lon="-3.508657962083817">
        <ele>704.10000000000002</ele>
        <time>2003-04-12T14:47:18Z</time>
      </trkpt>
      <trkpt lat="38.393281996250153" lon="-3.508629966527224">
        <ele>703.79999999999995</ele>
        <time>2003-04-12T14:47:20Z</time>
      </trkpt>
      <trkpt lat="38.393117040395737" lon="-3.5085569601506">
        <ele>703.70000000000005</ele>
        <time>2003-04-12T14:47:21Z</time>
      </trkpt>
      <trkpt lat="38.39295300655067" lon="-3.508446989580989">
        <ele>703.60000000000002</ele>
        <time>2003-04-12T14:47:22Z</time>
      </trkpt>
      <trkpt lat="38.392035020515323" lon="-3.507875008508563">
        <ele>703.10000000000002</ele>
        <time>2003-04-12T14:47:28Z</time>
      </trkpt>
      <trkpt lat="38.391938041895628" lon="-3.507708040997386">
        <ele>703</ele>
        <time>2003-04-12T14:47:29Z</time>
      </trkpt>
      <trkpt lat="38.39134301058948" lon="-3.50681503303349">
        <ele>702.89999999999998</ele>
        <time>2003-04-12T14:47:34Z</time>
      </trkpt>
      <trkpt lat="38.391221975907683" lon="-3.506715036928654">
        <ele>702.89999999999998</ele>
        <time>2003-04-12T14:47:36Z</time>
      </trkpt>
      <trkpt lat="38.390957023948431" lon="-3.506576986983419">
        <ele>702.79999999999995</ele>
        <time>2003-04-12T14:47:37Z</time>
      </trkpt>
      <trkpt lat="38.390800030902028" lon="-3.506572041660547">
        <ele>702</ele>
        <time>2003-04-12T14:47:38Z</time>
      </trkpt>
      <trkpt lat="38.390628034248948" lon="-3.506604982540011">
        <ele>701.60000000000002</ele>
        <time>2003-04-12T14:47:40Z</time>
      </trkpt>
      <trkpt lat="38.390057981014252" lon="-3.506755018606782">
        <ele>701</ele>
        <time>2003-04-12T14:47:42Z</time>
      </trkpt>
      <trkpt lat="38.389079980552197" lon="-3.506973031908274">
        <ele>700.60000000000002</ele>
        <time>2003-04-12T14:47:48Z</time>
      </trkpt>
      <trkpt lat="38.388762976974249" lon="-3.507119966670871">
        <ele>700.5</ele>
        <time>2003-04-12T14:47:49Z</time>
      </trkpt>
      <trkpt lat="38.388653006404638" lon="-3.50726799108088">
        <ele>700.5</ele>
        <time>2003-04-12T14:47:51Z</time>
      </trkpt>
      <trkpt lat="38.388555021956563" lon="-3.507448034361005">
        <ele>700</ele>
        <time>2003-04-12T14:47:52Z</time>
      </trkpt>
      <trkpt lat="38.38848696090281" lon="-3.50765498355031">
        <ele>700</ele>
        <time>2003-04-12T14:47:52Z</time>
      </trkpt>
      <trkpt lat="38.388235000893474" lon="-3.50842796266079">
        <ele>698.70000000000005</ele>
        <time>2003-04-12T14:47:56Z</time>
      </trkpt>
      <trkpt lat="38.388122012838721" lon="-3.508591996505857">
        <ele>698.70000000000005</ele>
        <time>2003-04-12T14:47:57Z</time>
      </trkpt>
      <trkpt lat="38.387767961248755" lon="-3.509058030322194">
        <ele>698.70000000000005</ele>
        <time>2003-04-12T14:48:00Z</time>
      </trkpt>
      <trkpt lat="38.386987019330263" lon="-3.509941985830665">
        <ele>698.70000000000005</ele>
        <time>2003-04-12T14:48:07Z</time>
      </trkpt>
      <trkpt lat="38.386602038517594" lon="-3.510292014107108">
        <ele>698.70000000000005</ele>
        <time>2003-04-12T14:48:09Z</time>
      </trkpt>
      <trkpt lat="38.386462982743979" lon="-3.510287990793586">
        <ele>698.70000000000005</ele>
        <time>2003-04-12T14:48:11Z</time>
      </trkpt>
      <trkpt lat="38.386319987475872" lon="-3.510238034650683">
        <ele>698.70000000000005</ele>
        <time>2003-04-12T14:48:12Z</time>
      </trkpt>
      <trkpt lat="38.38618503883481" lon="-3.510152958333492">
        <ele>698.60000000000002</ele>
        <time>2003-04-12T14:48:12Z</time>
      </trkpt>
      <trkpt lat="38.386047994717956" lon="-3.510109959170222">
        <ele>698.60000000000002</ele>
        <time>2003-04-12T14:48:14Z</time>
      </trkpt>
      <trkpt lat="38.385550025850534" lon="-3.509812988340855">
        <ele>698.60000000000002</ele>
        <time>2003-04-12T14:48:18Z</time>
      </trkpt>
      <trkpt lat="38.385396972298622" lon="-3.508744966238737">
        <ele>698.60000000000002</ele>
        <time>2003-04-12T14:48:22Z</time>
      </trkpt>
      <trkpt lat="38.385251965373755" lon="-3.508701967075467">
        <ele>697</ele>
        <time>2003-04-12T14:48:23Z</time>
      </trkpt>
      <trkpt lat="38.384806970134377" lon="-3.508627032861114">
        <ele>695.39999999999998</ele>
        <time>2003-04-12T14:48:24Z</time>
      </trkpt>
      <trkpt lat="38.384667998179793" lon="-3.508670032024384">
        <ele>695.29999999999995</ele>
        <time>2003-04-12T14:48:26Z</time>
      </trkpt>
      <trkpt lat="38.384551992639899" lon="-3.50874999538064">
        <ele>695.20000000000005</ele>
        <time>2003-04-12T14:48:27Z</time>
      </trkpt>
      <trkpt lat="38.384287962689996" lon="-3.509040009230375">
        <ele>695</ele>
        <time>2003-04-12T14:48:30Z</time>
      </trkpt>
      <trkpt lat="38.384157037362456" lon="-3.50913698785007">
        <ele>693.89999999999998</ele>
        <time>2003-04-12T14:48:31Z</time>
      </trkpt>
      <trkpt lat="38.384052012115717" lon="-3.509247964248061">
        <ele>693.79999999999995</ele>
        <time>2003-04-12T14:48:31Z</time>
      </trkpt>
      <trkpt lat="38.383535016328096" lon="-3.509690025821328">
        <ele>689.10000000000002</ele>
        <time>2003-04-12T14:48:35Z</time>
      </trkpt>
      <trkpt lat="38.383235028013587" lon="-3.509830003604293">
        <ele>689.10000000000002</ele>
        <time>2003-04-12T14:48:38Z</time>
      </trkpt>
      <trkpt lat="38.382667992264032" lon="-3.51006000302732">
        <ele>686</ele>
        <time>2003-04-12T14:48:42Z</time>
      </trkpt>
      <trkpt lat="38.382532959803939" lon="-3.510178020223975">
        <ele>684.60000000000002</ele>
        <time>2003-04-12T14:48:43Z</time>
      </trkpt>
      <trkpt lat="38.382417038083076" lon="-3.51031799800694">
        <ele>683.20000000000005</ele>
        <time>2003-04-12T14:48:43Z</time>
      </trkpt>
      <trkpt lat="38.382216962054372" lon="-3.510656962171197">
        <ele>680.5</ele>
        <time>2003-04-12T14:48:46Z</time>
      </trkpt>
      <trkpt lat="38.382144961506128" lon="-3.510847985744476">
        <ele>679.29999999999995</ele>
        <time>2003-04-12T14:48:46Z</time>
      </trkpt>
      <trkpt lat="38.382098022848368" lon="-3.511058036237955">
        <ele>678.10000000000002</ele>
        <time>2003-04-12T14:48:47Z</time>
      </trkpt>
      <trkpt lat="38.382076984271407" lon="-3.511274959892035">
        <ele>673.79999999999995</ele>
        <time>2003-04-12T14:48:49Z</time>
      </trkpt>
      <trkpt lat="38.382092993706465" lon="-3.511720038950443">
        <ele>671.70000000000005</ele>
        <time>2003-04-12T14:48:50Z</time>
      </trkpt>
      <trkpt lat="38.382144961506128" lon="-3.5119519662112">
        <ele>669.70000000000005</ele>
        <time>2003-04-12T14:48:51Z</time>
      </trkpt>
      <trkpt lat="38.382428018376231" lon="-3.513121996074915">
        <ele>659.10000000000002</ele>
        <time>2003-04-12T14:48:57Z</time>
      </trkpt>
      <trkpt lat="38.382432963699102" lon="-3.513806965202093">
        <ele>655.20000000000005</ele>
        <time>2003-04-12T14:48:59Z</time>
      </trkpt>
      <trkpt lat="38.382351994514465" lon="-3.514433009549975">
        <ele>652.79999999999995</ele>
        <time>2003-04-12T14:49:02Z</time>
      </trkpt>
      <trkpt lat="38.382279993966222" lon="-3.514580028131604">
        <ele>651.60000000000002</ele>
        <time>2003-04-12T14:49:03Z</time>
      </trkpt>
      <trkpt lat="38.382195001468062" lon="-3.514686981216073">
        <ele>651.29999999999995</ele>
        <time>2003-04-12T14:49:05Z</time>
      </trkpt>
      <trkpt lat="38.382077990099788" lon="-3.514742972329259">
        <ele>651</ele>
        <time>2003-04-12T14:49:06Z</time>
      </trkpt>
      <trkpt lat="38.381957961246371" lon="-3.514757975935936">
        <ele>650.20000000000005</ele>
        <time>2003-04-12T14:49:06Z</time>
      </trkpt>
      <trkpt lat="38.381831981241703" lon="-3.514731992036104">
        <ele>648.29999999999995</ele>
        <time>2003-04-12T14:49:08Z</time>
      </trkpt>
      <trkpt lat="38.381708012893796" lon="-3.5146579798311">
        <ele>646.89999999999998</ele>
        <time>2003-04-12T14:49:09Z</time>
      </trkpt>
      <trkpt lat="38.381601981818676" lon="-3.514538034796715">
        <ele>645.60000000000002</ele>
        <time>2003-04-12T14:49:10Z</time>
      </trkpt>
      <trkpt lat="38.381527969613671" lon="-3.51437802426517">
        <ele>644.20000000000005</ele>
        <time>2003-04-12T14:49:10Z</time>
      </trkpt>
      <trkpt lat="38.381435014307499" lon="-3.514265036210418">
        <ele>642.60000000000002</ele>
        <time>2003-04-12T14:49:12Z</time>
      </trkpt>
      <trkpt lat="38.381405007094145" lon="-3.514092033728957">
        <ele>641.89999999999998</ele>
        <time>2003-04-12T14:49:13Z</time>
      </trkpt>
      <trkpt lat="38.381363013759255" lon="-3.513736976310611">
        <ele>640.10000000000002</ele>
        <time>2003-04-12T14:49:16Z</time>
      </trkpt>
      <trkpt lat="38.381316997110844" lon="-3.513362975791097">
        <ele>638.79999999999995</ele>
        <time>2003-04-12T14:49:17Z</time>
      </trkpt>
      <trkpt lat="38.381122034043074" lon="-3.512819996103644">
        <ele>637.20000000000005</ele>
        <time>2003-04-12T14:49:20Z</time>
      </trkpt>
      <trkpt lat="38.380979960784316" lon="-3.512653028592467">
        <ele>637.10000000000002</ele>
        <time>2003-04-12T14:49:21Z</time>
      </trkpt>
      <trkpt lat="38.38055700995028" lon="-3.512238040566444">
        <ele>635.70000000000005</ele>
        <time>2003-04-12T14:49:24Z</time>
      </trkpt>
      <trkpt lat="38.380221985280514" lon="-3.512067971751094">
        <ele>633.5</ele>
        <time>2003-04-12T14:49:25Z</time>
      </trkpt>
      <trkpt lat="38.379877991974354" lon="-3.512008041143417">
        <ele>631.70000000000005</ele>
        <time>2003-04-12T14:49:28Z</time>
      </trkpt>
      <trkpt lat="38.379689985886216" lon="-3.512032013386488">
        <ele>630.89999999999998</ele>
        <time>2003-04-12T14:49:29Z</time>
      </trkpt>
      <trkpt lat="38.379495022818446" lon="-3.512099990621209">
        <ele>630.20000000000005</ele>
        <time>2003-04-12T14:49:29Z</time>
      </trkpt>
      <trkpt lat="38.378477040678263" lon="-3.512453036382794">
        <ele>630.10000000000002</ele>
        <time>2003-04-12T14:49:35Z</time>
      </trkpt>
      <trkpt lat="38.378031961619854" lon="-3.512437026947737">
        <ele>630.10000000000002</ele>
        <time>2003-04-12T14:49:37Z</time>
      </trkpt>
      <trkpt lat="38.376960000023246" lon="-3.512352034449577">
        <ele>629.39999999999998</ele>
        <time>2003-04-12T14:49:41Z</time>
      </trkpt>
      <trkpt lat="38.376760007813573" lon="-3.51240199059248">
        <ele>628.29999999999995</ele>
        <time>2003-04-12T14:49:43Z</time>
      </trkpt>
      <trkpt lat="38.376556998118758" lon="-3.512492012232542">
        <ele>627.39999999999998</ele>
        <time>2003-04-12T14:49:44Z</time>
      </trkpt>
      <trkpt lat="38.375689974054694" lon="-3.512882022187114">
        <ele>625.20000000000005</ele>
        <time>2003-04-12T14:49:48Z</time>
      </trkpt>
      <trkpt lat="38.374795038253069" lon="-3.513251999393106">
        <ele>623.70000000000005</ele>
        <time>2003-04-12T14:49:52Z</time>
      </trkpt>
      <trkpt lat="38.374052988365293" lon="-3.513561962172389">
        <ele>622.89999999999998</ele>
        <time>2003-04-12T14:49:56Z</time>
      </trkpt>
      <trkpt lat="38.373802034184337" lon="-3.513745022937655">
        <ele>621.79999999999995</ele>
        <time>2003-04-12T14:49:57Z</time>
      </trkpt>
      <trkpt lat="38.373712012544274" lon="-3.513887012377381">
        <ele>621.79999999999995</ele>
        <time>2003-04-12T14:49:59Z</time>
      </trkpt>
      <trkpt lat="38.373642023652792" lon="-3.514060014858842">
        <ele>621.20000000000005</ele>
        <time>2003-04-12T14:50:00Z</time>
      </trkpt>
      <trkpt lat="38.373601958155632" lon="-3.514254977926612">
        <ele>620.60000000000002</ele>
        <time>2003-04-12T14:50:00Z</time>
      </trkpt>
      <trkpt lat="38.373589972034097" lon="-3.514454970136285">
        <ele>620.20000000000005</ele>
        <time>2003-04-12T14:50:02Z</time>
      </trkpt>
      <trkpt lat="38.373622996732593" lon="-3.514671977609396">
        <ele>619.70000000000005</ele>
        <time>2003-04-12T14:50:03Z</time>
      </trkpt>
      <trkpt lat="38.373888032510877" lon="-3.515981985256076">
        <ele>612.29999999999995</ele>
        <time>2003-04-12T14:50:08Z</time>
      </trkpt>
      <trkpt lat="38.373902030289173" lon="-3.516181977465749">
        <ele>611</ele>
        <time>2003-04-12T14:50:10Z</time>
      </trkpt>
      <trkpt lat="38.373857019469142" lon="-3.516367971897125">
        <ele>610</ele>
        <time>2003-04-12T14:50:11Z</time>
      </trkpt>
      <trkpt lat="38.373774960637093" lon="-3.516541980206966">
        <ele>608.79999999999995</ele>
        <time>2003-04-12T14:50:11Z</time>
      </trkpt>
      <trkpt lat="38.373662978410721" lon="-3.516692016273737">
        <ele>607.70000000000005</ele>
        <time>2003-04-12T14:50:12Z</time>
      </trkpt>
      <trkpt lat="38.373525012284517" lon="-3.516811961308122">
        <ele>606.89999999999998</ele>
        <time>2003-04-12T14:50:14Z</time>
      </trkpt>
      <trkpt lat="38.373362990096211" lon="-3.516895025968552">
        <ele>606.10000000000002</ele>
        <time>2003-04-12T14:50:15Z</time>
      </trkpt>
      <trkpt lat="38.373182024806738" lon="-3.516937019303441">
        <ele>605.29999999999995</ele>
        <time>2003-04-12T14:50:15Z</time>
      </trkpt>
      <trkpt lat="38.372581964358687" lon="-3.517040032893419">
        <ele>603.29999999999995</ele>
        <time>2003-04-12T14:50:19Z</time>
      </trkpt>
      <trkpt lat="38.371532969176769" lon="-3.517289981245995">
        <ele>598.79999999999995</ele>
        <time>2003-04-12T14:50:23Z</time>
      </trkpt>
      <trkpt lat="38.370669968426228" lon="-3.517576977610588">
        <ele>597.79999999999995</ele>
        <time>2003-04-12T14:50:27Z</time>
      </trkpt>
      <trkpt lat="38.370299991220236" lon="-3.517800020053983">
        <ele>597.39999999999998</ele>
        <time>2003-04-12T14:50:30Z</time>
      </trkpt>
      <trkpt lat="38.369781989604235" lon="-3.518222970888019">
        <ele>597.5</ele>
        <time>2003-04-12T14:50:33Z</time>
      </trkpt>
      <trkpt lat="38.369325008243322" lon="-3.5187419783324">
        <ele>596.20000000000005</ele>
        <time>2003-04-12T14:50:35Z</time>
      </trkpt>
      <trkpt lat="38.368916977196932" lon="-3.519387971609831">
        <ele>596.5</ele>
        <time>2003-04-12T14:50:38Z</time>
      </trkpt>
      <trkpt lat="38.368296967819333" lon="-3.52048197761178">
        <ele>597</ele>
        <time>2003-04-12T14:50:43Z</time>
      </trkpt>
      <trkpt lat="38.36783504113555" lon="-3.521029986441135">
        <ele>596.79999999999995</ele>
        <time>2003-04-12T14:50:46Z</time>
      </trkpt>
      <trkpt lat="38.367317039519548" lon="-3.521482022479177">
        <ele>597.5</ele>
        <time>2003-04-12T14:50:50Z</time>
      </trkpt>
      <trkpt lat="38.36674296297133" lon="-3.521783016622067">
        <ele>598.39999999999998</ele>
        <time>2003-04-12T14:50:53Z</time>
      </trkpt>
      <trkpt lat="38.365792036056519" lon="-3.522124998271465">
        <ele>599.60000000000002</ele>
        <time>2003-04-12T14:50:58Z</time>
      </trkpt>
      <trkpt lat="38.364810012280941" lon="-3.522452982142568">
        <ele>600.10000000000002</ele>
        <time>2003-04-12T14:51:02Z</time>
      </trkpt>
      <trkpt lat="38.363805022090673" lon="-3.522808039560914">
        <ele>600.70000000000005</ele>
        <time>2003-04-12T14:51:08Z</time>
      </trkpt>
      <trkpt lat="38.362891981378198" lon="-3.523235013708472">
        <ele>601.29999999999995</ele>
        <time>2003-04-12T14:51:13Z</time>
      </trkpt>
      <trkpt lat="38.362401975318789" lon="-3.523576995357871">
        <ele>601.39999999999998</ele>
        <time>2003-04-12T14:51:16Z</time>
      </trkpt>
      <trkpt lat="38.361801998689771" lon="-3.524179989472032">
        <ele>602.10000000000002</ele>
        <time>2003-04-12T14:51:20Z</time>
      </trkpt>
      <trkpt lat="38.361394973471761" lon="-3.524739984422922">
        <ele>602.5</ele>
        <time>2003-04-12T14:51:23Z</time>
      </trkpt>
      <trkpt lat="38.361037988215685" lon="-3.525395030155778">
        <ele>603</ele>
        <time>2003-04-12T14:51:25Z</time>
      </trkpt>
      <trkpt lat="38.360772030428052" lon="-3.526097014546394">
        <ele>603.60000000000002</ele>
        <time>2003-04-12T14:51:28Z</time>
      </trkpt>
      <trkpt lat="38.360515041276813" lon="-3.527087001129985">
        <ele>604</ele>
        <time>2003-04-12T14:51:32Z</time>
      </trkpt>
      <trkpt lat="38.360178004950285" lon="-3.528349986299872">
        <ele>606.70000000000005</ele>
        <time>2003-04-12T14:51:37Z</time>
      </trkpt>
      <trkpt lat="38.359959991648793" lon="-3.528779977932572">
        <ele>608</ele>
        <time>2003-04-12T14:51:40Z</time>
      </trkpt>
      <trkpt lat="38.359711971133947" lon="-3.5291170142591">
        <ele>609.70000000000005</ele>
        <time>2003-04-12T14:51:41Z</time>
      </trkpt>
      <trkpt lat="38.359433021396399" lon="-3.529393030330539">
        <ele>611.5</ele>
        <time>2003-04-12T14:51:44Z</time>
      </trkpt>
      <trkpt lat="38.359105037525296" lon="-3.529614983126521">
        <ele>613.70000000000005</ele>
        <time>2003-04-12T14:51:45Z</time>
      </trkpt>
      <trkpt lat="38.358742017298937" lon="-3.529780022799969">
        <ele>615.70000000000005</ele>
        <time>2003-04-12T14:51:48Z</time>
      </trkpt>
      <trkpt lat="38.358368016779423" lon="-3.529857974499464">
        <ele>619</ele>
        <time>2003-04-12T14:51:51Z</time>
      </trkpt>
      <trkpt lat="38.357810033485293" lon="-3.529867026954889">
        <ele>621.20000000000005</ele>
        <time>2003-04-12T14:51:52Z</time>
      </trkpt>
      <trkpt lat="38.35703001357615" lon="-3.529922012239695">
        <ele>625.60000000000002</ele>
        <time>2003-04-12T14:51:56Z</time>
      </trkpt>
      <trkpt lat="38.356651989743114" lon="-3.530087973922491">
        <ele>627.60000000000002</ele>
        <time>2003-04-12T14:51:59Z</time>
      </trkpt>
      <trkpt lat="38.356304978951812" lon="-3.530355021357536">
        <ele>629.79999999999995</ele>
        <time>2003-04-12T14:52:00Z</time>
      </trkpt>
      <trkpt lat="38.356016976758838" lon="-3.530717035755515">
        <ele>632</ele>
        <time>2003-04-12T14:52:03Z</time>
      </trkpt>
      <trkpt lat="38.355910023674369" lon="-3.530936976894736">
        <ele>633</ele>
        <time>2003-04-12T14:52:03Z</time>
      </trkpt>
      <trkpt lat="38.355744984000921" lon="-3.531427988782525">
        <ele>634.10000000000002</ele>
        <time>2003-04-12T14:52:06Z</time>
      </trkpt>
      <trkpt lat="38.35569703951478" lon="-3.53169796988368">
        <ele>635.70000000000005</ele>
        <time>2003-04-12T14:52:07Z</time>
      </trkpt>
      <trkpt lat="38.355409959331155" lon="-3.533036978915334">
        <ele>642.89999999999998</ele>
        <time>2003-04-12T14:52:11Z</time>
      </trkpt>
      <trkpt lat="38.355156993493438" lon="-3.533490020781755">
        <ele>644.70000000000005</ele>
        <time>2003-04-12T14:52:14Z</time>
      </trkpt>
      <trkpt lat="38.354781987145543" lon="-3.534184964373708">
        <ele>646.70000000000005</ele>
        <time>2003-04-12T14:52:17Z</time>
      </trkpt>
      <trkpt lat="38.354427013546228" lon="-3.535396987572312">
        <ele>648.5</ele>
        <time>2003-04-12T14:52:22Z</time>
      </trkpt>
      <trkpt lat="38.354468001052737" lon="-3.535637967288494">
        <ele>649</ele>
        <time>2003-04-12T14:52:22Z</time>
      </trkpt>
      <trkpt lat="38.354615019634366" lon="-3.536095032468438">
        <ele>651.79999999999995</ele>
        <time>2003-04-12T14:52:25Z</time>
      </trkpt>
      <trkpt lat="38.354722978547215" lon="-3.536308016628027">
        <ele>652.70000000000005</ele>
        <time>2003-04-12T14:52:26Z</time>
      </trkpt>
      <trkpt lat="38.354969993233681" lon="-3.536706995218992">
        <ele>654.70000000000005</ele>
        <time>2003-04-12T14:52:27Z</time>
      </trkpt>
      <trkpt lat="38.355137966573238" lon="-3.536870023235679">
        <ele>655.79999999999995</ele>
        <time>2003-04-12T14:52:30Z</time>
      </trkpt>
      <trkpt lat="38.355518002063036" lon="-3.537134975194931">
        <ele>658</ele>
        <time>2003-04-12T14:52:30Z</time>
      </trkpt>
      <trkpt lat="38.356370022520423" lon="-3.537549963220954">
        <ele>662.39999999999998</ele>
        <time>2003-04-12T14:52:34Z</time>
      </trkpt>
      <trkpt lat="38.357248026877642" lon="-3.538066959008575">
        <ele>666.79999999999995</ele>
        <time>2003-04-12T14:52:38Z</time>
      </trkpt>
      <trkpt lat="38.357650022953749" lon="-3.538427967578173">
        <ele>669.20000000000005</ele>
        <time>2003-04-12T14:52:41Z</time>
      </trkpt>
      <trkpt lat="38.357984963804483" lon="-3.538883021101356">
        <ele>671.60000000000002</ele>
        <time>2003-04-12T14:52:44Z</time>
      </trkpt>
      <trkpt lat="38.358247987926006" lon="-3.53940999135375">
        <ele>673.79999999999995</ele>
        <time>2003-04-12T14:52:46Z</time>
      </trkpt>
      <trkpt lat="38.358434988185763" lon="-3.539984989911318">
        <ele>676.29999999999995</ele>
        <time>2003-04-12T14:52:48Z</time>
      </trkpt>
      <trkpt lat="38.358540013432503" lon="-3.540586978197098">
        <ele>678.5</ele>
        <time>2003-04-12T14:52:49Z</time>
      </trkpt>
      <trkpt lat="38.358570020645857" lon="-3.541201958432794">
        <ele>680.70000000000005</ele>
        <time>2003-04-12T14:52:50Z</time>
      </trkpt>
      <trkpt lat="38.358506988734007" lon="-3.54181501083076">
        <ele>683.10000000000002</ele>
        <time>2003-04-12T14:52:53Z</time>
      </trkpt>
      <trkpt lat="38.358342032879591" lon="-3.542403001338244">
        <ele>685.39999999999998</ele>
        <time>2003-04-12T14:52:54Z</time>
      </trkpt>
      <trkpt lat="38.358098035678267" lon="-3.542956961318851">
        <ele>687.70000000000005</ele>
        <time>2003-04-12T14:52:57Z</time>
      </trkpt>
      <trkpt lat="38.3577820379287" lon="-3.543458031490445">
        <ele>689.89999999999998</ele>
        <time>2003-04-12T14:53:00Z</time>
      </trkpt>
      <trkpt lat="38.357396973297" lon="-3.543897997587919">
        <ele>691.79999999999995</ele>
        <time>2003-04-12T14:53:01Z</time>
      </trkpt>
      <trkpt lat="38.356957007199526" lon="-3.544269986450672">
        <ele>693.70000000000005</ele>
        <time>2003-04-12T14:53:04Z</time>
      </trkpt>
      <trkpt lat="38.356483010575175" lon="-3.544571986421943">
        <ele>694.79999999999995</ele>
        <time>2003-04-12T14:53:05Z</time>
      </trkpt>
      <trkpt lat="38.355723023414612" lon="-3.544878009706736">
        <ele>695.79999999999995</ele>
        <time>2003-04-12T14:53:09Z</time>
      </trkpt>
      <trkpt lat="38.35518297739327" lon="-3.544893013313413">
        <ele>696.10000000000002</ele>
        <time>2003-04-12T14:53:11Z</time>
      </trkpt>
      <trkpt lat="38.354639997705817" lon="-3.54480198584497">
        <ele>696.60000000000002</ele>
        <time>2003-04-12T14:53:13Z</time>
      </trkpt>
      <trkpt lat="38.354125013574958" lon="-3.544599981978536">
        <ele>698.29999999999995</ele>
        <time>2003-04-12T14:53:15Z</time>
      </trkpt>
      <trkpt lat="38.353641964495182" lon="-3.544297982007265">
        <ele>698.70000000000005</ele>
        <time>2003-04-12T14:53:16Z</time>
      </trkpt>
      <trkpt lat="38.353197975084186" lon="-3.543909983709455">
        <ele>702</ele>
        <time>2003-04-12T14:53:19Z</time>
      </trkpt>
      <trkpt lat="38.352415021508932" lon="-3.543016975745559">
        <ele>708.20000000000005</ele>
        <time>2003-04-12T14:53:23Z</time>
      </trkpt>
      <trkpt lat="38.351599965244532" lon="-3.54220200330019">
        <ele>713.89999999999998</ele>
        <time>2003-04-12T14:53:27Z</time>
      </trkpt>
      <trkpt lat="38.351159999147058" lon="-3.541869996115565">
        <ele>716.29999999999995</ele>
        <time>2003-04-12T14:53:28Z</time>
      </trkpt>
      <trkpt lat="38.350209994241595" lon="-3.541372027248144">
        <ele>721.5</ele>
        <time>2003-04-12T14:53:32Z</time>
      </trkpt>
      <trkpt lat="38.34946702234447" lon="-3.541131969541311">
        <ele>723.60000000000002</ele>
        <time>2003-04-12T14:53:36Z</time>
      </trkpt>
      <trkpt lat="38.349220007658005" lon="-3.541131969541311">
        <ele>724.10000000000002</ele>
        <time>2003-04-12T14:53:36Z</time>
      </trkpt>
      <trkpt lat="38.348215017467737" lon="-3.541247975081205">
        <ele>729.5</ele>
        <time>2003-04-12T14:53:40Z</time>
      </trkpt>
      <trkpt lat="38.347732974216342" lon="-3.541421983391047">
        <ele>732.10000000000002</ele>
        <time>2003-04-12T14:53:43Z</time>
      </trkpt>
      <trkpt lat="38.34704197011888" lon="-3.54179497808218">
        <ele>737.39999999999998</ele>
        <time>2003-04-12T14:53:46Z</time>
      </trkpt>
      <trkpt lat="38.346194978803396" lon="-3.54248003102839">
        <ele>743.20000000000005</ele>
        <time>2003-04-12T14:53:50Z</time>
      </trkpt>
      <trkpt lat="38.345383023843169" lon="-3.543246975168586">
        <ele>749.39999999999998</ele>
        <time>2003-04-12T14:53:54Z</time>
      </trkpt>
      <trkpt lat="38.344556987285614" lon="-3.54398500174284">
        <ele>753.70000000000005</ele>
        <time>2003-04-12T14:53:58Z</time>
      </trkpt>
      <trkpt lat="38.343649981543422" lon="-3.54460802860558">
        <ele>756.5</ele>
        <time>2003-04-12T14:54:02Z</time>
      </trkpt>
      <trkpt lat="38.342622024938464" lon="-3.545082025229931">
        <ele>757.60000000000002</ele>
        <time>2003-04-12T14:54:06Z</time>
      </trkpt>
      <trkpt lat="38.341513015329838" lon="-3.545372961089015">
        <ele>757.70000000000005</ele>
        <time>2003-04-12T14:54:10Z</time>
      </trkpt>
      <trkpt lat="38.340418003499508" lon="-3.54544697329402">
        <ele>755.20000000000005</ele>
        <time>2003-04-12T14:54:14Z</time>
      </trkpt>
      <trkpt lat="38.339321985840797" lon="-3.545292997732759">
        <ele>753.5</ele>
        <time>2003-04-12T14:54:18Z</time>
      </trkpt>
      <trkpt lat="38.338229991495609" lon="-3.544950010254979">
        <ele>751</ele>
        <time>2003-04-12T14:54:22Z</time>
      </trkpt>
      <trkpt lat="38.337145037949085" lon="-3.544450029730797">
        <ele>749.29999999999995</ele>
        <time>2003-04-12T14:54:26Z</time>
      </trkpt>
      <trkpt lat="38.336041979491711" lon="-3.543877964839339">
        <ele>747.5</ele>
        <time>2003-04-12T14:54:30Z</time>
      </trkpt>
      <trkpt lat="38.335206974297762" lon="-3.543437998741865">
        <ele>746.39999999999998</ele>
        <time>2003-04-12T14:54:33Z</time>
      </trkpt>
      <trkpt lat="38.334189997985959" lon="-3.542919997125864">
        <ele>745.70000000000005</ele>
        <time>2003-04-12T14:54:37Z</time>
      </trkpt>
      <trkpt lat="38.333424981683493" lon="-3.542677005752921">
        <ele>745.10000000000002</ele>
        <time>2003-04-12T14:54:40Z</time>
      </trkpt>
      <trkpt lat="38.332887031137943" lon="-3.542642975226045">
        <ele>744.5</ele>
        <time>2003-04-12T14:54:41Z</time>
      </trkpt>
      <trkpt lat="38.33234203979373" lon="-3.542710030451417">
        <ele>743.39999999999998</ele>
        <time>2003-04-12T14:54:44Z</time>
      </trkpt>
      <trkpt lat="38.331811968237162" lon="-3.542914967983961">
        <ele>742.39999999999998</ele>
        <time>2003-04-12T14:54:45Z</time>
      </trkpt>
      <trkpt lat="38.331062961369753" lon="-3.543391982093453">
        <ele>740</ele>
        <time>2003-04-12T14:54:49Z</time>
      </trkpt>
      <trkpt lat="38.330607991665602" lon="-3.543832032009959">
        <ele>738.5</ele>
        <time>2003-04-12T14:54:50Z</time>
      </trkpt>
      <trkpt lat="38.330202978104353" lon="-3.544365037232637">
        <ele>736.89999999999998</ele>
        <time>2003-04-12T14:54:53Z</time>
      </trkpt>
      <trkpt lat="38.329624962061644" lon="-3.545265002176166">
        <ele>735</ele>
        <time>2003-04-12T14:54:56Z</time>
      </trkpt>
      <trkpt lat="38.329030014574528" lon="-3.546192962676287">
        <ele>733.20000000000005</ele>
        <time>2003-04-12T14:54:59Z</time>
      </trkpt>
      <trkpt lat="38.328428026288748" lon="-3.547126958146691">
        <ele>732.79999999999995</ele>
        <time>2003-04-12T14:55:01Z</time>
      </trkpt>
      <trkpt lat="38.327826960012317" lon="-3.548064976930618">
        <ele>733.5</ele>
        <time>2003-04-12T14:55:04Z</time>
      </trkpt>
      <trkpt lat="38.327235030010343" lon="-3.549023028463125">
        <ele>734.29999999999995</ele>
        <time>2003-04-12T14:55:08Z</time>
      </trkpt>
      <trkpt lat="38.326636981219053" lon="-3.549970015883446">
        <ele>736</ele>
        <time>2003-04-12T14:55:11Z</time>
      </trkpt>
      <trkpt lat="38.326043039560318" lon="-3.550897976383567">
        <ele>738.79999999999995</ele>
        <time>2003-04-12T14:55:13Z</time>
      </trkpt>
      <trkpt lat="38.32546703517437" lon="-3.551798025146127">
        <ele>742.5</ele>
        <time>2003-04-12T14:55:16Z</time>
      </trkpt>
      <trkpt lat="38.324711993336678" lon="-3.552977023646236">
        <ele>747.29999999999995</ele>
        <time>2003-04-12T14:55:20Z</time>
      </trkpt>
      <trkpt lat="38.323959968984127" lon="-3.554146969690919">
        <ele>749.29999999999995</ele>
        <time>2003-04-12T14:55:24Z</time>
      </trkpt>
      <trkpt lat="38.323210040107369" lon="-3.555272994562984">
        <ele>748.70000000000005</ele>
        <time>2003-04-12T14:55:28Z</time>
      </trkpt>
      <trkpt lat="38.322545019909739" lon="-3.556006997823715">
        <ele>746.79999999999995</ele>
        <time>2003-04-12T14:55:31Z</time>
      </trkpt>
      <trkpt lat="38.321783021092415" lon="-3.55661803856492">
        <ele>745.10000000000002</ele>
        <time>2003-04-12T14:55:35Z</time>
      </trkpt>
      <trkpt lat="38.320841984823346" lon="-3.557450026273727">
        <ele>742.20000000000005</ele>
        <time>2003-04-12T14:55:39Z</time>
      </trkpt>
      <trkpt lat="38.320434959605336" lon="-3.557978002354503">
        <ele>741.20000000000005</ele>
        <time>2003-04-12T14:55:40Z</time>
      </trkpt>
      <trkpt lat="38.319683019071817" lon="-3.559141997247934">
        <ele>739.20000000000005</ele>
        <time>2003-04-12T14:55:44Z</time>
      </trkpt>
      <trkpt lat="38.318944992497563" lon="-3.560276990756393">
        <ele>735.29999999999995</ele>
        <time>2003-04-12T14:55:48Z</time>
      </trkpt>
      <trkpt lat="38.318262035027146" lon="-3.561494965106249">
        <ele>729.79999999999995</ele>
        <time>2003-04-12T14:55:53Z</time>
      </trkpt>
      <trkpt lat="38.317819973453879" lon="-3.562514958903194">
        <ele>727.5</ele>
        <time>2003-04-12T14:55:55Z</time>
      </trkpt>
      <trkpt lat="38.317383024841547" lon="-3.563522966578603">
        <ele>726.39999999999998</ele>
        <time>2003-04-12T14:55:58Z</time>
      </trkpt>
      <trkpt lat="38.31681196577847" lon="-3.564828028902412">
        <ele>728.39999999999998</ele>
        <time>2003-04-12T14:56:02Z</time>
      </trkpt>
      <trkpt lat="38.316275021061301" lon="-3.565703015774488">
        <ele>730.79999999999995</ele>
        <time>2003-04-12T14:56:06Z</time>
      </trkpt>
      <trkpt lat="38.315845029428601" lon="-3.566208025440574">
        <ele>732.20000000000005</ele>
        <time>2003-04-12T14:56:07Z</time>
      </trkpt>
      <trkpt lat="38.314972976222634" lon="-3.567117964848876">
        <ele>734.79999999999995</ele>
        <time>2003-04-12T14:56:11Z</time>
      </trkpt>
      <trkpt lat="38.314422033727169" lon="-3.567897984758019">
        <ele>736.39999999999998</ele>
        <time>2003-04-12T14:56:14Z</time>
      </trkpt>
      <trkpt lat="38.314117016270757" lon="-3.568487986922264">
        <ele>737.39999999999998</ele>
        <time>2003-04-12T14:56:17Z</time>
      </trkpt>
      <trkpt lat="38.313896991312504" lon="-3.569176979362965">
        <ele>737.70000000000005</ele>
        <time>2003-04-12T14:56:18Z</time>
      </trkpt>
      <trkpt lat="38.313577976077795" lon="-3.570592012256384">
        <ele>736.60000000000002</ele>
        <time>2003-04-12T14:56:22Z</time>
      </trkpt>
      <trkpt lat="38.313277987763286" lon="-3.571609994396567">
        <ele>734.29999999999995</ele>
        <time>2003-04-12T14:56:25Z</time>
      </trkpt>
      <trkpt lat="38.312822012230754" lon="-3.572586989030242">
        <ele>731.5</ele>
        <time>2003-04-12T14:56:29Z</time>
      </trkpt>
      <trkpt lat="38.312422027811408" lon="-3.573176991194487">
        <ele>729.70000000000005</ele>
        <time>2003-04-12T14:56:30Z</time>
      </trkpt>
      <trkpt lat="38.311730017885566" lon="-3.573990035802126">
        <ele>726.29999999999995</ele>
        <time>2003-04-12T14:56:33Z</time>
      </trkpt>
      <trkpt lat="38.311006994917989" lon="-3.574818000197411">
        <ele>722.39999999999998</ele>
        <time>2003-04-12T14:56:37Z</time>
      </trkpt>
      <trkpt lat="38.310281960293651" lon="-3.575657028704882">
        <ele>718.70000000000005</ele>
        <time>2003-04-12T14:56:40Z</time>
      </trkpt>
      <trkpt lat="38.309594979509711" lon="-3.576445011422038">
        <ele>715</ele>
        <time>2003-04-12T14:56:42Z</time>
      </trkpt>
      <trkpt lat="38.308683028444648" lon="-3.577319998294115">
        <ele>711.39999999999998</ele>
        <time>2003-04-12T14:56:47Z</time>
      </trkpt>
      <trkpt lat="38.308169972151518" lon="-3.577615041285753">
        <ele>709.29999999999995</ele>
        <time>2003-04-12T14:56:49Z</time>
      </trkpt>
      <trkpt lat="38.307612994685769" lon="-3.57780497521162">
        <ele>707.20000000000005</ele>
        <time>2003-04-12T14:56:51Z</time>
      </trkpt>
      <trkpt lat="38.306450005620718" lon="-3.578085014596582">
        <ele>702.10000000000002</ele>
        <time>2003-04-12T14:56:55Z</time>
      </trkpt>
      <trkpt lat="38.305560015141964" lon="-3.578302022069693">
        <ele>698.60000000000002</ele>
        <time>2003-04-12T14:56:57Z</time>
      </trkpt>
      <trkpt lat="38.304413035511971" lon="-3.578582983464003">
        <ele>692.39999999999998</ele>
        <time>2003-04-12T14:57:01Z</time>
      </trkpt>
      <trkpt lat="38.303277958184481" lon="-3.578866962343454">
        <ele>686.29999999999995</ele>
        <time>2003-04-12T14:57:05Z</time>
      </trkpt>
      <trkpt lat="38.302161991596222" lon="-3.579168040305376">
        <ele>679.29999999999995</ele>
        <time>2003-04-12T14:57:09Z</time>
      </trkpt>
      <trkpt lat="38.301657987758517" lon="-3.579407008364797">
        <ele>676.10000000000002</ele>
        <time>2003-04-12T14:57:12Z</time>
      </trkpt>
      <trkpt lat="38.300964972004294" lon="-3.579916963353753">
        <ele>671.39999999999998</ele>
        <time>2003-04-12T14:57:15Z</time>
      </trkpt>
      <trkpt lat="38.300329959020019" lon="-3.580624982714653">
        <ele>666.89999999999998</ele>
        <time>2003-04-12T14:57:18Z</time>
      </trkpt>
      <trkpt lat="38.29953501932323" lon="-3.581787971779704">
        <ele>660.79999999999995</ele>
        <time>2003-04-12T14:57:22Z</time>
      </trkpt>
      <trkpt lat="38.29889296554029" lon="-3.582733031362295">
        <ele>655.70000000000005</ele>
        <time>2003-04-12T14:57:24Z</time>
      </trkpt>
      <trkpt lat="38.298213025555015" lon="-3.58371002599597">
        <ele>649.89999999999998</ele>
        <time>2003-04-12T14:57:27Z</time>
      </trkpt>
      <trkpt lat="38.297538030892611" lon="-3.584696995094419">
        <ele>645.39999999999998</ele>
        <time>2003-04-12T14:57:31Z</time>
      </trkpt>
      <trkpt lat="38.296873010694981" lon="-3.585682036355138">
        <ele>643.60000000000002</ele>
        <time>2003-04-12T14:57:34Z</time>
      </trkpt>
      <trkpt lat="38.29622701741755" lon="-3.58663497492671">
        <ele>642.79999999999995</ele>
        <time>2003-04-12T14:57:36Z</time>
      </trkpt>
      <trkpt lat="38.295612959191203" lon="-3.587524965405464">
        <ele>641.79999999999995</ele>
        <time>2003-04-12T14:57:39Z</time>
      </trkpt>
      <trkpt lat="38.294773008674383" lon="-3.588598016649485">
        <ele>639.60000000000002</ele>
        <time>2003-04-12T14:57:43Z</time>
      </trkpt>
      <trkpt lat="38.294067000970244" lon="-3.589215008541942">
        <ele>635.89999999999998</ele>
        <time>2003-04-12T14:57:46Z</time>
      </trkpt>
      <trkpt lat="38.293556962162256" lon="-3.589514996856451">
        <ele>633.10000000000002</ele>
        <time>2003-04-12T14:57:49Z</time>
      </trkpt>
      <trkpt lat="38.293012976646423" lon="-3.589720018208027">
        <ele>629.70000000000005</ele>
        <time>2003-04-12T14:57:50Z</time>
      </trkpt>
      <trkpt lat="38.292151987552643" lon="-3.589867036789656">
        <ele>624.79999999999995</ele>
        <time>2003-04-12T14:57:54Z</time>
      </trkpt>
      <trkpt lat="38.291240036487579" lon="-3.589874999597669">
        <ele>620.29999999999995</ele>
        <time>2003-04-12T14:57:57Z</time>
      </trkpt>
      <trkpt lat="38.290272010490298" lon="-3.589759999886155">
        <ele>614.20000000000005</ele>
        <time>2003-04-12T14:57:59Z</time>
      </trkpt>
      <trkpt lat="38.289271965622902" lon="-3.589633014053106">
        <ele>608.29999999999995</ele>
        <time>2003-04-12T14:58:02Z</time>
      </trkpt>
      <trkpt lat="38.288287008181214" lon="-3.58951298519969">
        <ele>602.5</ele>
        <time>2003-04-12T14:58:06Z</time>
      </trkpt>
      <trkpt lat="38.287344966083765" lon="-3.589399997144938">
        <ele>599.10000000000002</ele>
        <time>2003-04-12T14:58:09Z</time>
      </trkpt>
      <trkpt lat="38.286158004775643" lon="-3.589311987161636">
        <ele>598.29999999999995</ele>
        <time>2003-04-12T14:58:13Z</time>
      </trkpt>
      <trkpt lat="38.285289974883199" lon="-3.589396979659796">
        <ele>599.5</ele>
        <time>2003-04-12T14:58:16Z</time>
      </trkpt>
      <trkpt lat="38.284731991589069" lon="-3.589566964656115">
        <ele>600.79999999999995</ele>
        <time>2003-04-12T14:58:17Z</time>
      </trkpt>
      <trkpt lat="38.284214995801449" lon="-3.589827977120876">
        <ele>602</ele>
        <time>2003-04-12T14:58:20Z</time>
      </trkpt>
      <trkpt lat="38.283739993348718" lon="-3.590169958770275">
        <ele>602.89999999999998</ele>
        <time>2003-04-12T14:58:21Z</time>
      </trkpt>
      <trkpt lat="38.283304972574115" lon="-3.590595005080104">
        <ele>604</ele>
        <time>2003-04-12T14:58:24Z</time>
      </trkpt>
      <trkpt lat="38.282916974276304" lon="-3.591098003089428">
        <ele>605</ele>
        <time>2003-04-12T14:58:25Z</time>
      </trkpt>
      <trkpt lat="38.282601982355118" lon="-3.591679958626628">
        <ele>605.89999999999998</ele>
        <time>2003-04-12T14:58:28Z</time>
      </trkpt>
      <trkpt lat="38.282092027366161" lon="-3.592930035665631">
        <ele>608.10000000000002</ele>
        <time>2003-04-12T14:58:32Z</time>
      </trkpt>
      <trkpt lat="38.281705034896731" lon="-3.594202995300293">
        <ele>610.20000000000005</ele>
        <time>2003-04-12T14:58:36Z</time>
      </trkpt>
      <trkpt lat="38.281322987750173" lon="-3.595458017662168">
        <ele>610.79999999999995</ele>
        <time>2003-04-12T14:58:40Z</time>
      </trkpt>
      <trkpt lat="38.280883021652699" lon="-3.596776993945241">
        <ele>609.79999999999995</ele>
        <time>2003-04-12T14:58:44Z</time>
      </trkpt>
      <trkpt lat="38.280311962589622" lon="-3.598099993541837">
        <ele>609.39999999999998</ele>
        <time>2003-04-12T14:58:48Z</time>
      </trkpt>
      <trkpt lat="38.279793038964272" lon="-3.599061984568834">
        <ele>610.29999999999995</ele>
        <time>2003-04-12T14:58:51Z</time>
      </trkpt>
      <trkpt lat="38.27923497185111" lon="-3.600011989474297">
        <ele>611.89999999999998</ele>
        <time>2003-04-12T14:58:53Z</time>
      </trkpt>
      <trkpt lat="38.278661984950304" lon="-3.600976997986436">
        <ele>612.5</ele>
        <time>2003-04-12T14:58:56Z</time>
      </trkpt>
      <trkpt lat="38.278067037463188" lon="-3.601962039247155">
        <ele>611.10000000000002</ele>
        <time>2003-04-12T14:59:00Z</time>
      </trkpt>
      <trkpt lat="38.277487009763718" lon="-3.602935010567308">
        <ele>608.60000000000002</ele>
        <time>2003-04-12T14:59:03Z</time>
      </trkpt>
      <trkpt lat="38.276928020641208" lon="-3.603868000209332">
        <ele>604.79999999999995</ele>
        <time>2003-04-12T14:59:06Z</time>
      </trkpt>
      <trkpt lat="38.276327038183808" lon="-3.604781962931156">
        <ele>601.39999999999998</ele>
        <time>2003-04-12T14:59:08Z</time>
      </trkpt>
      <trkpt lat="38.275608038529754" lon="-3.605567011982203">
        <ele>597.89999999999998</ele>
        <time>2003-04-12T14:59:11Z</time>
      </trkpt>
      <trkpt lat="38.274776972830296" lon="-3.606190038844943">
        <ele>594.20000000000005</ele>
        <time>2003-04-12T14:59:15Z</time>
      </trkpt>
      <trkpt lat="38.273869967088103" lon="-3.606632016599178">
        <ele>590.29999999999995</ele>
        <time>2003-04-12T14:59:18Z</time>
      </trkpt>
      <trkpt lat="38.272903030738235" lon="-3.60700199380517">
        <ele>586.29999999999995</ele>
        <time>2003-04-12T14:59:20Z</time>
      </trkpt>
      <trkpt lat="38.271923018619418" lon="-3.607382029294968">
        <ele>582.39999999999998</ele>
        <time>2003-04-12T14:59:23Z</time>
      </trkpt>
      <trkpt lat="38.270948035642505" lon="-3.607764998450875">
        <ele>582.10000000000002</ele>
        <time>2003-04-12T14:59:27Z</time>
      </trkpt>
      <trkpt lat="38.270047986879945" lon="-3.608179986476898">
        <ele>583.29999999999995</ele>
        <time>2003-04-12T14:59:30Z</time>
      </trkpt>
      <trkpt lat="38.269218010827899" lon="-3.608688013628125">
        <ele>585</ele>
        <time>2003-04-12T14:59:33Z</time>
      </trkpt>
      <trkpt lat="38.268975019454956" lon="-3.608907032757998">
        <ele>585.5</ele>
        <time>2003-04-12T14:59:34Z</time>
      </trkpt>
      <trkpt lat="38.268306981772184" lon="-3.60964204184711">
        <ele>588.39999999999998</ele>
        <time>2003-04-12T14:59:37Z</time>
      </trkpt>
      <trkpt lat="38.267742963507771" lon="-3.610496995970607">
        <ele>591</ele>
        <time>2003-04-12T14:59:39Z</time>
      </trkpt>
      <trkpt lat="38.267166959121823" lon="-3.611786970868707">
        <ele>592</ele>
        <time>2003-04-12T14:59:43Z</time>
      </trkpt>
      <trkpt lat="38.266677036881447" lon="-3.613166967406869">
        <ele>590.5</ele>
        <time>2003-04-12T14:59:47Z</time>
      </trkpt>
      <trkpt lat="38.26619298197329" lon="-3.614506982266903">
        <ele>589</ele>
        <time>2003-04-12T14:59:51Z</time>
      </trkpt>
      <trkpt lat="38.265727031975985" lon="-3.615859989076853">
        <ele>586</ele>
        <time>2003-04-12T14:59:56Z</time>
      </trkpt>
      <trkpt lat="38.265241971239448" lon="-3.617262030020356">
        <ele>581.29999999999995</ele>
        <time>2003-04-12T15:00:00Z</time>
      </trkpt>
      <trkpt lat="38.264860007911921" lon="-3.618361987173557">
        <ele>577.70000000000005</ele>
        <time>2003-04-12T15:00:02Z</time>
      </trkpt>
      <trkpt lat="38.264479972422123" lon="-3.6194649618119">
        <ele>574.10000000000002</ele>
        <time>2003-04-12T15:00:05Z</time>
      </trkpt>
      <trkpt lat="38.264000024646521" lon="-3.620842024683952">
        <ele>570.70000000000005</ele>
        <time>2003-04-12T15:00:09Z</time>
      </trkpt>
      <trkpt lat="38.26346299611032" lon="-3.622072990983725">
        <ele>568.60000000000002</ele>
        <time>2003-04-12T15:00:13Z</time>
      </trkpt>
      <trkpt lat="38.2629269734025" lon="-3.62290196120739">
        <ele>566.60000000000002</ele>
        <time>2003-04-12T15:00:17Z</time>
      </trkpt>
      <trkpt lat="38.262464962899685" lon="-3.623318038880825">
        <ele>564.89999999999998</ele>
        <time>2003-04-12T15:00:18Z</time>
      </trkpt>
      <trkpt lat="38.26195802539587" lon="-3.623636970296502">
        <ele>563.20000000000005</ele>
        <time>2003-04-12T15:00:21Z</time>
      </trkpt>
      <trkpt lat="38.261414961889386" lon="-3.623850038275123">
        <ele>560.79999999999995</ele>
        <time>2003-04-12T15:00:23Z</time>
      </trkpt>
      <trkpt lat="38.260232023894787" lon="-3.624135022982955">
        <ele>554.89999999999998</ele>
        <time>2003-04-12T15:00:27Z</time>
      </trkpt>
      <trkpt lat="38.259304985404015" lon="-3.624344989657402">
        <ele>549.39999999999998</ele>
        <time>2003-04-12T15:00:29Z</time>
      </trkpt>
      <trkpt lat="38.258367972448468" lon="-3.624572977423668">
        <ele>543.5</ele>
        <time>2003-04-12T15:00:32Z</time>
      </trkpt>
      <trkpt lat="38.257401958107948" lon="-3.624810017645359">
        <ele>537.29999999999995</ele>
        <time>2003-04-12T15:00:36Z</time>
      </trkpt>
      <trkpt lat="38.256454970687628" lon="-3.625042028725147">
        <ele>531.10000000000002</ele>
        <time>2003-04-12T15:00:39Z</time>
      </trkpt>
      <trkpt lat="38.255549976602197" lon="-3.625276973471046">
        <ele>524.79999999999995</ele>
        <time>2003-04-12T15:00:41Z</time>
      </trkpt>
      <trkpt lat="38.254680018872023" lon="-3.62565197981894">
        <ele>518.20000000000005</ele>
        <time>2003-04-12T15:00:44Z</time>
      </trkpt>
      <trkpt lat="38.253849959000945" lon="-3.626142991706729">
        <ele>512.89999999999998</ele>
        <time>2003-04-12T15:00:48Z</time>
      </trkpt>
      <trkpt lat="38.252992993220687" lon="-3.626493019983172">
        <ele>507.30000000000001</ele>
        <time>2003-04-12T15:00:51Z</time>
      </trkpt>
      <trkpt lat="38.25205497443676" lon="-3.626646995544434">
        <ele>499.30000000000001</ele>
        <time>2003-04-12T15:00:54Z</time>
      </trkpt>
      <trkpt lat="38.251089965924621" lon="-3.626663004979491">
        <ele>495.10000000000002</ele>
        <time>2003-04-12T15:00:56Z</time>
      </trkpt>
      <trkpt lat="38.250159993767738" lon="-3.626750009134412">
        <ele>490.10000000000002</ele>
        <time>2003-04-12T15:00:59Z</time>
      </trkpt>
      <trkpt lat="38.249575020745397" lon="-3.626955030485988">
        <ele>487.80000000000001</ele>
        <time>2003-04-12T15:01:02Z</time>
      </trkpt>
      <trkpt lat="38.24878703802824" lon="-3.627436989918351">
        <ele>485.39999999999998</ele>
        <time>2003-04-12T15:01:04Z</time>
      </trkpt>
      <trkpt lat="38.247827980667353" lon="-3.628222038969398">
        <ele>481.69999999999999</ele>
        <time>2003-04-12T15:01:08Z</time>
      </trkpt>
      <trkpt lat="38.247052989900112" lon="-3.628711961209774">
        <ele>478.60000000000002</ele>
        <time>2003-04-12T15:01:11Z</time>
      </trkpt>
      <trkpt lat="38.246470028534532" lon="-3.628912037238479">
        <ele>475.69999999999999</ele>
        <time>2003-04-12T15:01:14Z</time>
      </trkpt>
      <trkpt lat="38.245537038892508" lon="-3.629042040556669">
        <ele>470.10000000000002</ele>
        <time>2003-04-12T15:01:17Z</time>
      </trkpt>
      <trkpt lat="38.244622992351651" lon="-3.629134995862842">
        <ele>464</ele>
        <time>2003-04-12T15:01:19Z</time>
      </trkpt>
      <trkpt lat="38.243705006316304" lon="-3.62930498085916">
        <ele>458</ele>
        <time>2003-04-12T15:01:22Z</time>
      </trkpt>
      <trkpt lat="38.242788026109338" lon="-3.629592983052135">
        <ele>452</ele>
        <time>2003-04-12T15:01:26Z</time>
      </trkpt>
      <trkpt lat="38.241870040073991" lon="-3.629898000508547">
        <ele>446.10000000000002</ele>
        <time>2003-04-12T15:01:29Z</time>
      </trkpt>
      <trkpt lat="38.240948030725121" lon="-3.630087012425065">
        <ele>440.30000000000001</ele>
        <time>2003-04-12T15:01:31Z</time>
      </trkpt>
      <trkpt lat="38.239972963929176" lon="-3.630124982446432">
        <ele>434.39999999999998</ele>
        <time>2003-04-12T15:01:34Z</time>
      </trkpt>
      <trkpt lat="38.238977026194334" lon="-3.630069997161627">
        <ele>429.69999999999999</ele>
        <time>2003-04-12T15:01:38Z</time>
      </trkpt>
      <trkpt lat="38.237952003255486" lon="-3.629987016320229">
        <ele>426.39999999999998</ele>
        <time>2003-04-12T15:01:41Z</time>
      </trkpt>
      <trkpt lat="38.236911976709962" lon="-3.629887020215392">
        <ele>422.60000000000002</ele>
        <time>2003-04-12T15:01:44Z</time>
      </trkpt>
      <trkpt lat="38.235932970419526" lon="-3.629790041595697">
        <ele>419.30000000000001</ele>
        <time>2003-04-12T15:01:46Z</time>
      </trkpt>
      <trkpt lat="38.23503702878952" lon="-3.629685016348958">
        <ele>417.19999999999999</ele>
        <time>2003-04-12T15:01:49Z</time>
      </trkpt>
      <trkpt lat="38.234100015833974" lon="-3.629566999152303">
        <ele>415.60000000000002</ele>
        <time>2003-04-12T15:01:53Z</time>
      </trkpt>
      <trkpt lat="38.233141964301467" lon="-3.629468008875847">
        <ele>413.39999999999998</ele>
        <time>2003-04-12T15:01:56Z</time>
      </trkpt>
      <trkpt lat="38.232160024344921" lon="-3.629385028034449">
        <ele>411.5</ele>
        <time>2003-04-12T15:02:00Z</time>
      </trkpt>
      <trkpt lat="38.231167020276189" lon="-3.629295006394386">
        <ele>409.60000000000002</ele>
        <time>2003-04-12T15:02:01Z</time>
      </trkpt>
      <trkpt lat="38.230205029249191" lon="-3.629201967269182">
        <ele>406.89999999999998</ele>
        <time>2003-04-12T15:02:05Z</time>
      </trkpt>
      <trkpt lat="38.229289976879954" lon="-3.629165003076196">
        <ele>404.5</ele>
        <time>2003-04-12T15:02:08Z</time>
      </trkpt>
      <trkpt lat="38.228397974744439" lon="-3.629272039979696">
        <ele>402.5</ele>
        <time>2003-04-12T15:02:11Z</time>
      </trkpt>
      <trkpt lat="38.227828005328774" lon="-3.629462979733944">
        <ele>401.19999999999999</ele>
        <time>2003-04-12T15:02:13Z</time>
      </trkpt>
      <trkpt lat="38.227289970964193" lon="-3.629762968048453">
        <ele>400.60000000000002</ele>
        <time>2003-04-12T15:02:15Z</time>
      </trkpt>
      <trkpt lat="38.226780015975237" lon="-3.630166975781322">
        <ele>399.60000000000002</ele>
        <time>2003-04-12T15:02:16Z</time>
      </trkpt>
      <trkpt lat="38.226308031007648" lon="-3.630647007375956">
        <ele>398.80000000000001</ele>
        <time>2003-04-12T15:02:19Z</time>
      </trkpt>
      <trkpt lat="38.225912991911173" lon="-3.631250001490116">
        <ele>398.19999999999999</ele>
        <time>2003-04-12T15:02:20Z</time>
      </trkpt>
      <trkpt lat="38.225587019696832" lon="-3.631928013637662">
        <ele>397.69999999999999</ele>
        <time>2003-04-12T15:02:23Z</time>
      </trkpt>
      <trkpt lat="38.225188041105866" lon="-3.633001986891031">
        <ele>397</ele>
        <time>2003-04-12T15:02:25Z</time>
      </trkpt>
      <trkpt lat="38.224877994507551" lon="-3.634100016206503">
        <ele>396.5</ele>
        <time>2003-04-12T15:02:28Z</time>
      </trkpt>
      <trkpt lat="38.224584963172674" lon="-3.635207014158368">
        <ele>395.89999999999998</ele>
        <time>2003-04-12T15:02:32Z</time>
      </trkpt>
      <trkpt lat="38.224262008443475" lon="-3.636294985190034">
        <ele>394.89999999999998</ele>
        <time>2003-04-12T15:02:35Z</time>
      </trkpt>
      <trkpt lat="38.223862024024129" lon="-3.637362001463771">
        <ele>394</ele>
        <time>2003-04-12T15:02:38Z</time>
      </trkpt>
      <trkpt lat="38.223337987437844" lon="-3.638373026624322">
        <ele>392.60000000000002</ele>
        <time>2003-04-12T15:02:40Z</time>
      </trkpt>
      <trkpt lat="38.222713032737374" lon="-3.639295035973191">
        <ele>391</ele>
        <time>2003-04-12T15:02:43Z</time>
      </trkpt>
      <trkpt lat="38.22197500616312" lon="-3.640121994540095">
        <ele>389.30000000000001</ele>
        <time>2003-04-12T15:02:47Z</time>
      </trkpt>
      <trkpt lat="38.22113698348403" lon="-3.640862032771111">
        <ele>387.60000000000002</ele>
        <time>2003-04-12T15:02:50Z</time>
      </trkpt>
      <trkpt lat="38.220272976905107" lon="-3.641587989404798">
        <ele>386</ele>
        <time>2003-04-12T15:02:52Z</time>
      </trkpt>
      <trkpt lat="38.219430008903146" lon="-3.642382007092238">
        <ele>384.60000000000002</ele>
        <time>2003-04-12T15:02:55Z</time>
      </trkpt>
      <trkpt lat="38.218601960688829" lon="-3.643239978700876">
        <ele>383.19999999999999</ele>
        <time>2003-04-12T15:02:59Z</time>
      </trkpt>
      <trkpt lat="38.21776301600039" lon="-3.644122006371617">
        <ele>382</ele>
        <time>2003-04-12T15:03:02Z</time>
      </trkpt>
      <trkpt lat="38.216919964179397" lon="-3.644992969930172">
        <ele>381</ele>
        <time>2003-04-12T15:03:05Z</time>
      </trkpt>
      <trkpt lat="38.216093005612493" lon="-3.645778018981218">
        <ele>379.69999999999999</ele>
        <time>2003-04-12T15:03:07Z</time>
      </trkpt>
      <trkpt lat="38.215265041217208" lon="-3.646444967016578">
        <ele>378.10000000000002</ele>
        <time>2003-04-12T15:03:10Z</time>
      </trkpt>
      <trkpt lat="38.214436993002892" lon="-3.647085009142757">
        <ele>376.19999999999999</ele>
        <time>2003-04-12T15:03:14Z</time>
      </trkpt>
      <trkpt lat="38.213644986972213" lon="-3.647808032110333">
        <ele>374</ele>
        <time>2003-04-12T15:03:17Z</time>
      </trkpt>
      <trkpt lat="38.213178031146526" lon="-3.648395016789436">
        <ele>373.19999999999999</ele>
        <time>2003-04-12T15:03:18Z</time>
      </trkpt>
      <trkpt lat="38.212506975978613" lon="-3.649319959804416">
        <ele>372.89999999999998</ele>
        <time>2003-04-12T15:03:22Z</time>
      </trkpt>
      <trkpt lat="38.211772972717881" lon="-3.650150019675493">
        <ele>372.19999999999999</ele>
        <time>2003-04-12T15:03:25Z</time>
      </trkpt>
      <trkpt lat="38.210969986394048" lon="-3.650879999622703">
        <ele>371.5</ele>
        <time>2003-04-12T15:03:27Z</time>
      </trkpt>
      <trkpt lat="38.21017999202013" lon="-3.651648033410311">
        <ele>370.5</ele>
        <time>2003-04-12T15:03:30Z</time>
      </trkpt>
      <trkpt lat="38.209480019286275" lon="-3.652542969211936">
        <ele>369.69999999999999</ele>
        <time>2003-04-12T15:03:34Z</time>
      </trkpt>
      <trkpt lat="38.20891197770834" lon="-3.653590036556125">
        <ele>369.30000000000001</ele>
        <time>2003-04-12T15:03:37Z</time>
      </trkpt>
      <trkpt lat="38.20850201882422" lon="-3.654704997316003">
        <ele>368.80000000000001</ele>
        <time>2003-04-12T15:03:40Z</time>
      </trkpt>
      <trkpt lat="38.20815802551806" lon="-3.655843008309603">
        <ele>368.69999999999999</ele>
        <time>2003-04-12T15:03:42Z</time>
      </trkpt>
      <trkpt lat="38.207807997241616" lon="-3.65697699598968">
        <ele>368.10000000000002</ele>
        <time>2003-04-12T15:03:45Z</time>
      </trkpt>
      <trkpt lat="38.207456963136792" lon="-3.658073013648391">
        <ele>367.69999999999999</ele>
        <time>2003-04-12T15:03:49Z</time>
      </trkpt>
      <trkpt lat="38.207108024507761" lon="-3.659176994115114">
        <ele>367.30000000000001</ele>
        <time>2003-04-12T15:03:52Z</time>
      </trkpt>
      <trkpt lat="38.206756990402937" lon="-3.660297989845276">
        <ele>366.89999999999998</ele>
        <time>2003-04-12T15:03:54Z</time>
      </trkpt>
      <trkpt lat="38.206369997933507" lon="-3.661419991403818">
        <ele>366.5</ele>
        <time>2003-04-12T15:03:57Z</time>
      </trkpt>
      <trkpt lat="38.205874962732196" lon="-3.662507962435484">
        <ele>365.89999999999998</ele>
        <time>2003-04-12T15:04:01Z</time>
      </trkpt>
      <trkpt lat="38.205262999981642" lon="-3.663514964282513">
        <ele>365.30000000000001</ele>
        <time>2003-04-12T15:04:04Z</time>
      </trkpt>
      <trkpt lat="38.204537965357304" lon="-3.66438701748848">
        <ele>364.60000000000002</ele>
        <time>2003-04-12T15:04:07Z</time>
      </trkpt>
      <trkpt lat="38.20373497903347" lon="-3.665087996050715">
        <ele>363.19999999999999</ele>
        <time>2003-04-12T15:04:09Z</time>
      </trkpt>
      <trkpt lat="38.202893016859889" lon="-3.665625024586916">
        <ele>361.39999999999998</ele>
        <time>2003-04-12T15:04:13Z</time>
      </trkpt>
      <trkpt lat="38.202003026381135" lon="-3.666073037311435">
        <ele>359</ele>
        <time>2003-04-12T15:04:16Z</time>
      </trkpt>
      <trkpt lat="38.201082022860646" lon="-3.666492970660329">
        <ele>356.30000000000001</ele>
        <time>2003-04-12T15:04:20Z</time>
      </trkpt>
      <trkpt lat="38.200173005461693" lon="-3.666950035840273">
        <ele>353.80000000000001</ele>
        <time>2003-04-12T15:04:23Z</time>
      </trkpt>
      <trkpt lat="38.199342023581266" lon="-3.667483041062951">
        <ele>351.89999999999998</ele>
        <time>2003-04-12T15:04:26Z</time>
      </trkpt>
      <trkpt lat="38.198607014492154" lon="-3.668131968006492">
        <ele>350.5</ele>
        <time>2003-04-12T15:04:28Z</time>
      </trkpt>
      <trkpt lat="38.197767985984683" lon="-3.669220022857189">
        <ele>349.39999999999998</ele>
        <time>2003-04-12T15:04:32Z</time>
      </trkpt>
      <trkpt lat="38.197197010740638" lon="-3.670159969478846">
        <ele>349.5</ele>
        <time>2003-04-12T15:04:35Z</time>
      </trkpt>
      <trkpt lat="38.196614971384406" lon="-3.67113696411252">
        <ele>349.60000000000002</ele>
        <time>2003-04-12T15:04:39Z</time>
      </trkpt>
      <trkpt lat="38.195926984772086" lon="-3.671997031196952">
        <ele>349.89999999999998</ele>
        <time>2003-04-12T15:04:42Z</time>
      </trkpt>
      <trkpt lat="38.195189964026213" lon="-3.672758024185896">
        <ele>350.39999999999998</ele>
        <time>2003-04-12T15:04:44Z</time>
      </trkpt>
      <trkpt lat="38.194401981309056" lon="-3.673447016626597">
        <ele>351.5</ele>
        <time>2003-04-12T15:04:47Z</time>
      </trkpt>
      <trkpt lat="38.193622967228293" lon="-3.674131985753775">
        <ele>352.89999999999998</ele>
        <time>2003-04-12T15:04:51Z</time>
      </trkpt>
      <trkpt lat="38.192849988117814" lon="-3.674800023436546">
        <ele>353.89999999999998</ele>
        <time>2003-04-12T15:04:54Z</time>
      </trkpt>
      <trkpt lat="38.191881962120533" lon="-3.675652965903282">
        <ele>355.10000000000002</ele>
        <time>2003-04-12T15:04:58Z</time>
      </trkpt>
      <trkpt lat="38.191152988001704" lon="-3.676341958343983">
        <ele>355</ele>
        <time>2003-04-12T15:05:01Z</time>
      </trkpt>
      <trkpt lat="38.190443040803075" lon="-3.677104962989688">
        <ele>353.89999999999998</ele>
        <time>2003-04-12T15:05:03Z</time>
      </trkpt>
      <trkpt lat="38.189807021990418" lon="-3.677957989275456">
        <ele>352.69999999999999</ele>
        <time>2003-04-12T15:05:06Z</time>
      </trkpt>
      <trkpt lat="38.189278040081263" lon="-3.678947975859046">
        <ele>352.10000000000002</ele>
        <time>2003-04-12T15:05:10Z</time>
      </trkpt>
      <trkpt lat="38.189011998474598" lon="-3.67966303601861">
        <ele>352.19999999999999</ele>
        <time>2003-04-12T15:05:11Z</time>
      </trkpt>
      <trkpt lat="38.188734976574779" lon="-3.680797023698688">
        <ele>352.80000000000001</ele>
        <time>2003-04-12T15:05:14Z</time>
      </trkpt>
      <trkpt lat="38.188610002398491" lon="-3.681977028027177">
        <ele>354.19999999999999</ele>
        <time>2003-04-12T15:05:18Z</time>
      </trkpt>
      <trkpt lat="38.188632968813181" lon="-3.683173041790724">
        <ele>355.80000000000001</ele>
        <time>2003-04-12T15:05:21Z</time>
      </trkpt>
      <trkpt lat="38.188713015988469" lon="-3.68434801697731">
        <ele>357.30000000000001</ele>
        <time>2003-04-12T15:05:24Z</time>
      </trkpt>
      <trkpt lat="38.188792979344726" lon="-3.685491979122162">
        <ele>358.19999999999999</ele>
        <time>2003-04-12T15:05:26Z</time>
      </trkpt>
      <trkpt lat="38.188847964629531" lon="-3.686656979843974">
        <ele>358.10000000000002</ele>
        <time>2003-04-12T15:05:29Z</time>
      </trkpt>
      <trkpt lat="38.188773030415177" lon="-3.687855005264282">
        <ele>356.80000000000001</ele>
        <time>2003-04-12T15:05:33Z</time>
      </trkpt>
      <trkpt lat="38.188549987971783" lon="-3.689037021249533">
        <ele>355.39999999999998</ele>
        <time>2003-04-12T15:05:36Z</time>
      </trkpt>
      <trkpt lat="38.188187973573804" lon="-3.690137984231114">
        <ele>354.39999999999998</ele>
        <time>2003-04-12T15:05:38Z</time>
      </trkpt>
      <trkpt lat="38.187850015237927" lon="-3.690820019692183">
        <ele>353.60000000000002</ele>
        <time>2003-04-12T15:05:41Z</time>
      </trkpt>
      <trkpt lat="38.187224976718426" lon="-3.691749991849065">
        <ele>353.19999999999999</ele>
        <time>2003-04-12T15:05:44Z</time>
      </trkpt>
      <trkpt lat="38.186474964022636" lon="-3.692528000101447">
        <ele>353.5</ele>
        <time>2003-04-12T15:05:47Z</time>
      </trkpt>
      <trkpt lat="38.185633001849055" lon="-3.693129988387227">
        <ele>354</ele>
        <time>2003-04-12T15:05:49Z</time>
      </trkpt>
      <trkpt lat="38.184732031077147" lon="-3.693532990291715">
        <ele>354.5</ele>
        <time>2003-04-12T15:05:52Z</time>
      </trkpt>
      <trkpt lat="38.1837950181216" lon="-3.69380003772676">
        <ele>354.80000000000001</ele>
        <time>2003-04-12T15:05:56Z</time>
      </trkpt>
      <trkpt lat="38.182856999337673" lon="-3.694012016057968">
        <ele>355</ele>
        <time>2003-04-12T15:05:59Z</time>
      </trkpt>
      <trkpt lat="38.181976983323693" lon="-3.694251989945769">
        <ele>355.30000000000001</ele>
        <time>2003-04-12T15:06:01Z</time>
      </trkpt>
      <trkpt lat="38.18089697510004" lon="-3.694741996005178">
        <ele>355.80000000000001</ele>
        <time>2003-04-12T15:06:05Z</time>
      </trkpt>
      <trkpt lat="38.180202031508088" lon="-3.695280030369759">
        <ele>356</ele>
        <time>2003-04-12T15:06:08Z</time>
      </trkpt>
      <trkpt lat="38.179329978302121" lon="-3.696189969778061">
        <ele>356.89999999999998</ele>
        <time>2003-04-12T15:06:12Z</time>
      </trkpt>
      <trkpt lat="38.178527997806668" lon="-3.697290010750294">
        <ele>357.80000000000001</ele>
        <time>2003-04-12T15:06:16Z</time>
      </trkpt>
      <trkpt lat="38.177930032834411" lon="-3.698149994015694">
        <ele>358.5</ele>
        <time>2003-04-12T15:06:19Z</time>
      </trkpt>
      <trkpt lat="38.1771569699049" lon="-3.699273001402617">
        <ele>359.30000000000001</ele>
        <time>2003-04-12T15:06:23Z</time>
      </trkpt>
      <trkpt lat="38.17642698995769" lon="-3.700432972982526">
        <ele>360.19999999999999</ele>
        <time>2003-04-12T15:06:27Z</time>
      </trkpt>
      <trkpt lat="38.175807986408472" lon="-3.701614988967776">
        <ele>361.69999999999999</ele>
        <time>2003-04-12T15:06:31Z</time>
      </trkpt>
      <trkpt lat="38.175259977579117" lon="-3.702855007722974">
        <ele>360.10000000000002</ele>
        <time>2003-04-12T15:06:35Z</time>
      </trkpt>
      <trkpt lat="38.174656983464956" lon="-3.704054960981011">
        <ele>359.10000000000002</ele>
        <time>2003-04-12T15:06:39Z</time>
      </trkpt>
      <trkpt lat="38.174092965200543" lon="-3.70488996617496">
        <ele>356.80000000000001</ele>
        <time>2003-04-12T15:06:43Z</time>
      </trkpt>
      <trkpt lat="38.173392992466688" lon="-3.70561701245606">
        <ele>355.30000000000001</ele>
        <time>2003-04-12T15:06:46Z</time>
      </trkpt>
      <trkpt lat="38.172590006142855" lon="-3.706241967156529">
        <ele>352.69999999999999</ele>
        <time>2003-04-12T15:06:49Z</time>
      </trkpt>
      <trkpt lat="38.171703033149242" lon="-3.706761980429292">
        <ele>350.89999999999998</ele>
        <time>2003-04-12T15:06:51Z</time>
      </trkpt>
      <trkpt lat="38.170787980780005" lon="-3.707200018689036">
        <ele>349.30000000000001</ele>
        <time>2003-04-12T15:06:54Z</time>
      </trkpt>
      <trkpt lat="38.169666985049844" lon="-3.707648031413555">
        <ele>348</ele>
        <time>2003-04-12T15:06:58Z</time>
      </trkpt>
      <trkpt lat="38.168507013469934" lon="-3.707941984757781">
        <ele>346.39999999999998</ele>
        <time>2003-04-12T15:07:02Z</time>
      </trkpt>
      <trkpt lat="38.167412001639605" lon="-3.708362001925707">
        <ele>346.19999999999999</ele>
        <time>2003-04-12T15:07:06Z</time>
      </trkpt>
      <trkpt lat="38.166917972266674" lon="-3.708744971081615">
        <ele>346</ele>
        <time>2003-04-12T15:07:09Z</time>
      </trkpt>
      <trkpt lat="38.166205007582903" lon="-3.70944301597774">
        <ele>345.39999999999998</ele>
        <time>2003-04-12T15:07:12Z</time>
      </trkpt>
      <trkpt lat="38.165451977401972" lon="-3.710162015631795">
        <ele>342.39999999999998</ele>
        <time>2003-04-12T15:07:14Z</time>
      </trkpt>
      <trkpt lat="38.164467019960284" lon="-3.710987968370318">
        <ele>338.30000000000001</ele>
        <time>2003-04-12T15:07:18Z</time>
      </trkpt>
      <trkpt lat="38.16349295899272" lon="-3.711772011592984">
        <ele>334.69999999999999</ele>
        <time>2003-04-12T15:07:22Z</time>
      </trkpt>
      <trkpt lat="38.162638004869223" lon="-3.712381962686777">
        <ele>336.5</ele>
        <time>2003-04-12T15:07:26Z</time>
      </trkpt>
      <trkpt lat="38.162104999646544" lon="-3.712742971256375">
        <ele>338.19999999999999</ele>
        <time>2003-04-12T15:07:29Z</time>
      </trkpt>
      <trkpt lat="38.161218026652932" lon="-3.713355017825961">
        <ele>341</ele>
        <time>2003-04-12T15:07:35Z</time>
      </trkpt>
      <trkpt lat="38.160285037010908" lon="-3.714005034416914">
        <ele>343.5</ele>
        <time>2003-04-12T15:07:40Z</time>
      </trkpt>
      <trkpt lat="38.159472998231649" lon="-3.714563017711043">
        <ele>345.60000000000002</ele>
        <time>2003-04-12T15:07:44Z</time>
      </trkpt>
      <trkpt lat="38.158627012744546" lon="-3.715147990733385">
        <ele>347.69999999999999</ele>
        <time>2003-04-12T15:07:48Z</time>
      </trkpt>
      <trkpt lat="38.15775303170085" lon="-3.7157619651407">
        <ele>349.80000000000001</ele>
        <time>2003-04-12T15:07:52Z</time>
      </trkpt>
      <trkpt lat="38.156915009021759" lon="-3.716347021982074">
        <ele>353.89999999999998</ele>
        <time>2003-04-12T15:07:56Z</time>
      </trkpt>
      <trkpt lat="38.156057959422469" lon="-3.716935012489557">
        <ele>357.5</ele>
        <time>2003-04-12T15:08:00Z</time>
      </trkpt>
      <trkpt lat="38.155152965337038" lon="-3.717559967190027">
        <ele>361</ele>
        <time>2003-04-12T15:08:04Z</time>
      </trkpt>
      <trkpt lat="38.154192985966802" lon="-3.718228004872799">
        <ele>362.60000000000002</ele>
        <time>2003-04-12T15:08:07Z</time>
      </trkpt>
      <trkpt lat="38.153226971626282" lon="-3.718972988426685">
        <ele>362.10000000000002</ele>
        <time>2003-04-12T15:08:11Z</time>
      </trkpt>
      <trkpt lat="38.152302028611302" lon="-3.719774968922138">
        <ele>361.60000000000002</ele>
        <time>2003-04-12T15:08:15Z</time>
      </trkpt>
      <trkpt lat="38.151368033140898" lon="-3.720564963296056">
        <ele>361.39999999999998</ele>
        <time>2003-04-12T15:08:19Z</time>
      </trkpt>
      <trkpt lat="38.150397995486856" lon="-3.721271976828575">
        <ele>362.60000000000002</ele>
        <time>2003-04-12T15:08:23Z</time>
      </trkpt>
      <trkpt lat="38.149401973932981" lon="-3.721825014799833">
        <ele>365</ele>
        <time>2003-04-12T15:08:27Z</time>
      </trkpt>
      <trkpt lat="38.14838700927794" lon="-3.722404958680272">
        <ele>367.80000000000001</ele>
        <time>2003-04-12T15:08:31Z</time>
      </trkpt>
      <trkpt lat="38.147367015480995" lon="-3.722990015521646">
        <ele>369.5</ele>
        <time>2003-04-12T15:08:35Z</time>
      </trkpt>
      <trkpt lat="38.14669000916183" lon="-3.723372984677553">
        <ele>370.19999999999999</ele>
        <time>2003-04-12T15:08:38Z</time>
      </trkpt>
      <trkpt lat="38.145732041448355" lon="-3.723942032083869">
        <ele>370.5</ele>
        <time>2003-04-12T15:08:43Z</time>
      </trkpt>
      <trkpt lat="38.144908016547561" lon="-3.72454795986414">
        <ele>370</ele>
        <time>2003-04-12T15:08:47Z</time>
      </trkpt>
      <trkpt lat="38.144317008554935" lon="-3.725132010877132">
        <ele>369.60000000000002</ele>
        <time>2003-04-12T15:08:50Z</time>
      </trkpt>
      <trkpt lat="38.143813004717231" lon="-3.725823014974594">
        <ele>369.10000000000002</ele>
        <time>2003-04-12T15:08:54Z</time>
      </trkpt>
      <trkpt lat="38.143464988097548" lon="-3.726466996595264">
        <ele>368.5</ele>
        <time>2003-04-12T15:08:57Z</time>
      </trkpt>
      <trkpt lat="38.143108002841473" lon="-3.727356987074018">
        <ele>367.80000000000001</ele>
        <time>2003-04-12T15:09:01Z</time>
      </trkpt>
      <trkpt lat="38.142880015075207" lon="-3.728162990882993">
        <ele>367.10000000000002</ele>
        <time>2003-04-12T15:09:05Z</time>
      </trkpt>
      <trkpt lat="38.142610033974051" lon="-3.729327991604805">
        <ele>366.39999999999998</ele>
        <time>2003-04-12T15:09:09Z</time>
      </trkpt>
      <trkpt lat="38.142362013459206" lon="-3.730449993163347">
        <ele>365.5</ele>
        <time>2003-04-12T15:09:13Z</time>
      </trkpt>
      <trkpt lat="38.142088009044528" lon="-3.731682971119881">
        <ele>365.60000000000002</ele>
        <time>2003-04-12T15:09:17Z</time>
      </trkpt>
      <trkpt lat="38.141809981316328" lon="-3.732968000695109">
        <ele>367.69999999999999</ele>
        <time>2003-04-12T15:09:21Z</time>
      </trkpt>
      <trkpt lat="38.141466993838549" lon="-3.734292006120086">
        <ele>370.19999999999999</ele>
        <time>2003-04-12T15:09:25Z</time>
      </trkpt>
      <trkpt lat="38.141101961955428" lon="-3.735172022134066">
        <ele>371.69999999999999</ele>
        <time>2003-04-12T15:09:28Z</time>
      </trkpt>
      <trkpt lat="38.140584966167808" lon="-3.736239960417152">
        <ele>371.80000000000001</ele>
        <time>2003-04-12T15:09:32Z</time>
      </trkpt>
      <trkpt lat="38.14007299952209" lon="-3.7373529933393">
        <ele>369.5</ele>
        <time>2003-04-12T15:09:36Z</time>
      </trkpt>
      <trkpt lat="38.139632027596235" lon="-3.73842797242105">
        <ele>366.5</ele>
        <time>2003-04-12T15:09:40Z</time>
      </trkpt>
      <trkpt lat="38.139202035963535" lon="-3.739519966766238">
        <ele>363.80000000000001</ele>
        <time>2003-04-12T15:09:44Z</time>
      </trkpt>
      <trkpt lat="38.138757040724158" lon="-3.740644985809922">
        <ele>361</ele>
        <time>2003-04-12T15:09:48Z</time>
      </trkpt>
      <trkpt lat="38.138368036597967" lon="-3.741613011807203">
        <ele>358.39999999999998</ele>
        <time>2003-04-12T15:09:52Z</time>
      </trkpt>
      <trkpt lat="38.137875013053417" lon="-3.742712968960404">
        <ele>355.5</ele>
        <time>2003-04-12T15:09:58Z</time>
      </trkpt>
      <trkpt lat="38.137351982295513" lon="-3.74364503659308">
        <ele>353.30000000000001</ele>
        <time>2003-04-12T15:10:02Z</time>
      </trkpt>
      <trkpt lat="38.136692997068167" lon="-3.744523040950298">
        <ele>352.5</ele>
        <time>2003-04-12T15:10:06Z</time>
      </trkpt>
      <trkpt lat="38.135972991585732" lon="-3.745312029495835">
        <ele>353.5</ele>
        <time>2003-04-12T15:10:10Z</time>
      </trkpt>
      <trkpt lat="38.1352199614048" lon="-3.746149968355894">
        <ele>356</ele>
        <time>2003-04-12T15:10:14Z</time>
      </trkpt>
      <trkpt lat="38.134532980620861" lon="-3.747062003239989">
        <ele>358</ele>
        <time>2003-04-12T15:10:18Z</time>
      </trkpt>
      <trkpt lat="38.13395001925528" lon="-3.747937995940447">
        <ele>359</ele>
        <time>2003-04-12T15:10:22Z</time>
      </trkpt>
      <trkpt lat="38.133850023150444" lon="-3.74809498898685">
        <ele>358.89999999999998</ele>
        <time>2003-04-12T15:10:22Z</time>
      </trkpt>
      <trkpt lat="38.133762013167143" lon="-3.748227003961802">
        <ele>358.69999999999999</ele>
        <time>2003-04-12T15:10:23Z</time>
      </trkpt>
      <trkpt lat="38.133121971040964" lon="-3.749142978340387">
        <ele>358.39999999999998</ele>
        <time>2003-04-12T15:10:30Z</time>
      </trkpt>
      <trkpt lat="38.132455023005605" lon="-3.749987035989761">
        <ele>359.80000000000001</ele>
        <time>2003-04-12T15:10:34Z</time>
      </trkpt>
      <trkpt lat="38.131635021418333" lon="-3.750890018418431">
        <ele>361</ele>
        <time>2003-04-12T15:10:39Z</time>
      </trkpt>
      <trkpt lat="38.130809990689158" lon="-3.751689987257123">
        <ele>362.19999999999999</ele>
        <time>2003-04-12T15:10:45Z</time>
      </trkpt>
      <trkpt lat="38.129955036565661" lon="-3.752412004396319">
        <ele>363.69999999999999</ele>
        <time>2003-04-12T15:10:49Z</time>
      </trkpt>
      <trkpt lat="38.129193037748337" lon="-3.753048023208976">
        <ele>365</ele>
        <time>2003-04-12T15:10:53Z</time>
      </trkpt>
      <trkpt lat="38.128367001190782" lon="-3.753757970407605">
        <ele>366.10000000000002</ele>
        <time>2003-04-12T15:10:57Z</time>
      </trkpt>
      <trkpt lat="38.127554962411523" lon="-3.754431959241629">
        <ele>367.60000000000002</ele>
        <time>2003-04-12T15:11:01Z</time>
      </trkpt>
      <trkpt lat="38.126691961660981" lon="-3.75516302883625">
        <ele>368.89999999999998</ele>
        <time>2003-04-12T15:11:05Z</time>
      </trkpt>
      <trkpt lat="38.125947983935475" lon="-3.755883034318686">
        <ele>369.89999999999998</ele>
        <time>2003-04-12T15:11:09Z</time>
      </trkpt>
      <trkpt lat="38.125632992014289" lon="-3.756334986537695">
        <ele>370.5</ele>
        <time>2003-04-12T15:11:12Z</time>
      </trkpt>
      <trkpt lat="38.125372985377908" lon="-3.756864974275231">
        <ele>371.39999999999998</ele>
        <time>2003-04-12T15:11:13Z</time>
      </trkpt>
      <trkpt lat="38.125077020376921" lon="-3.757739961147308">
        <ele>373.30000000000001</ele>
        <time>2003-04-12T15:11:16Z</time>
      </trkpt>
      <trkpt lat="38.124899994581938" lon="-3.758703041821718">
        <ele>376.10000000000002</ele>
        <time>2003-04-12T15:11:20Z</time>
      </trkpt>
      <trkpt lat="38.124736966565251" lon="-3.759938031435013">
        <ele>379.5</ele>
        <time>2003-04-12T15:11:24Z</time>
      </trkpt>
      <trkpt lat="38.124543009325862" lon="-3.760510012507439">
        <ele>381</ele>
        <time>2003-04-12T15:11:25Z</time>
      </trkpt>
      <trkpt lat="38.124243021011353" lon="-3.761017033830285">
        <ele>382.5</ele>
        <time>2003-04-12T15:11:28Z</time>
      </trkpt>
      <trkpt lat="38.124055014923215" lon="-3.761233035475016">
        <ele>382.80000000000001</ele>
        <time>2003-04-12T15:11:28Z</time>
      </trkpt>
      <trkpt lat="38.123631980270147" lon="-3.761605024337769">
        <ele>382.69999999999999</ele>
        <time>2003-04-12T15:11:31Z</time>
      </trkpt>
      <trkpt lat="38.123393012210727" lon="-3.76173997297883">
        <ele>382.80000000000001</ele>
        <time>2003-04-12T15:11:32Z</time>
      </trkpt>
      <trkpt lat="38.122882973402739" lon="-3.761896966025233">
        <ele>382.89999999999998</ele>
        <time>2003-04-12T15:11:33Z</time>
      </trkpt>
      <trkpt lat="38.122364971786737" lon="-3.761895038187504">
        <ele>383</ele>
        <time>2003-04-12T15:11:36Z</time>
      </trkpt>
      <trkpt lat="38.121862979605794" lon="-3.761750031262636">
        <ele>383</ele>
        <time>2003-04-12T15:11:38Z</time>
      </trkpt>
      <trkpt lat="38.121395017951727" lon="-3.761490024626255">
        <ele>383.10000000000002</ele>
        <time>2003-04-12T15:11:40Z</time>
      </trkpt>
      <trkpt lat="38.121186979115009" lon="-3.761296989396215">
        <ele>383.19999999999999</ele>
        <time>2003-04-12T15:11:40Z</time>
      </trkpt>
      <trkpt lat="38.120602006092668" lon="-3.76062199473381">
        <ele>384</ele>
        <time>2003-04-12T15:11:43Z</time>
      </trkpt>
      <trkpt lat="38.119797008112073" lon="-3.759637037292123">
        <ele>383.19999999999999</ele>
        <time>2003-04-12T15:11:47Z</time>
      </trkpt>
      <trkpt lat="38.118917997926474" lon="-3.758585024625063">
        <ele>380.30000000000001</ele>
        <time>2003-04-12T15:11:51Z</time>
      </trkpt>
      <trkpt lat="38.118233028799295" lon="-3.757765023037791">
        <ele>376.69999999999999</ele>
        <time>2003-04-12T15:11:55Z</time>
      </trkpt>
      <trkpt lat="38.117547975853086" lon="-3.756934963166714">
        <ele>372.39999999999998</ele>
        <time>2003-04-12T15:11:58Z</time>
      </trkpt>
      <trkpt lat="38.116814978420734" lon="-3.75606500543654">
        <ele>368.30000000000001</ele>
        <time>2003-04-12T15:12:00Z</time>
      </trkpt>
      <trkpt lat="38.116039987653494" lon="-3.755167974159122">
        <ele>363.60000000000002</ele>
        <time>2003-04-12T15:12:03Z</time>
      </trkpt>
      <trkpt lat="38.115249993279576" lon="-3.754230039194226">
        <ele>358.80000000000001</ele>
        <time>2003-04-12T15:12:07Z</time>
      </trkpt>
      <trkpt lat="38.114439966157079" lon="-3.753281962126494">
        <ele>354.10000000000002</ele>
        <time>2003-04-12T15:12:10Z</time>
      </trkpt>
      <trkpt lat="38.113598003983498" lon="-3.752322988584638">
        <ele>349.80000000000001</ele>
        <time>2003-04-12T15:12:13Z</time>
      </trkpt>
      <trkpt lat="38.112741960212588" lon="-3.751369966194034">
        <ele>347.19999999999999</ele>
        <time>2003-04-12T15:12:15Z</time>
      </trkpt>
      <trkpt lat="38.111892035230994" lon="-3.750470001250505">
        <ele>346</ele>
        <time>2003-04-12T15:12:18Z</time>
      </trkpt>
      <trkpt lat="38.111055018380284" lon="-3.74961999244988">
        <ele>346.69999999999999</ele>
        <time>2003-04-12T15:12:22Z</time>
      </trkpt>
      <trkpt lat="38.110223030671477" lon="-3.748817006126046">
        <ele>348</ele>
        <time>2003-04-12T15:12:25Z</time>
      </trkpt>
      <trkpt lat="38.109355000779033" lon="-3.748047966510057">
        <ele>348.10000000000002</ele>
        <time>2003-04-12T15:12:27Z</time>
      </trkpt>
      <trkpt lat="38.108444977551699" lon="-3.747329972684383">
        <ele>347.5</ele>
        <time>2003-04-12T15:12:30Z</time>
      </trkpt>
      <trkpt lat="38.107521962374449" lon="-3.746632011607289">
        <ele>345.69999999999999</ele>
        <time>2003-04-12T15:12:34Z</time>
      </trkpt>
      <trkpt lat="38.106583021581173" lon="-3.745942013338208">
        <ele>343.10000000000002</ele>
        <time>2003-04-12T15:12:37Z</time>
      </trkpt>
      <trkpt lat="38.105641985312104" lon="-3.745282022282481">
        <ele>339.60000000000002</ele>
        <time>2003-04-12T15:12:40Z</time>
      </trkpt>
      <trkpt lat="38.104683011770248" lon="-3.744633011519909">
        <ele>335.80000000000001</ele>
        <time>2003-04-12T15:12:42Z</time>
      </trkpt>
      <trkpt lat="38.103711968287826" lon="-3.744000010192394">
        <ele>333.19999999999999</ele>
        <time>2003-04-12T15:12:45Z</time>
      </trkpt>
      <trkpt lat="38.10273296199739" lon="-3.743380000814796">
        <ele>331.30000000000001</ele>
        <time>2003-04-12T15:12:49Z</time>
      </trkpt>
      <trkpt lat="38.101757979020476" lon="-3.74274498783052">
        <ele>330.19999999999999</ele>
        <time>2003-04-12T15:12:52Z</time>
      </trkpt>
      <trkpt lat="38.100791964679956" lon="-3.742109974846244">
        <ele>330.30000000000001</ele>
        <time>2003-04-12T15:12:54Z</time>
      </trkpt>
      <trkpt lat="38.099827961996198" lon="-3.741512009873986">
        <ele>331.19999999999999</ele>
        <time>2003-04-12T15:12:57Z</time>
      </trkpt>
      <trkpt lat="38.098852979019284" lon="-3.740956960245967">
        <ele>332.5</ele>
        <time>2003-04-12T15:13:01Z</time>
      </trkpt>
      <trkpt lat="38.097847988829017" lon="-3.740477012470365">
        <ele>334.10000000000002</ele>
        <time>2003-04-12T15:13:04Z</time>
      </trkpt>
      <trkpt lat="38.096833024173975" lon="-3.740042997524142">
        <ele>335.10000000000002</ele>
        <time>2003-04-12T15:13:07Z</time>
      </trkpt>
      <trkpt lat="38.095804983749986" lon="-3.739677965641022">
        <ele>335.69999999999999</ele>
        <time>2003-04-12T15:13:09Z</time>
      </trkpt>
      <trkpt lat="38.094752971082926" lon="-3.739392980933189">
        <ele>336.19999999999999</ele>
        <time>2003-04-12T15:13:12Z</time>
      </trkpt>
      <trkpt lat="38.093698024749756" lon="-3.739143032580614">
        <ele>336.80000000000001</ele>
        <time>2003-04-12T15:13:16Z</time>
      </trkpt>
      <trkpt lat="38.092641988769174" lon="-3.738914960995317">
        <ele>337.39999999999998</ele>
        <time>2003-04-12T15:13:19Z</time>
      </trkpt>
      <trkpt lat="38.091597016900778" lon="-3.73868303373456">
        <ele>338.10000000000002</ele>
        <time>2003-04-12T15:13:21Z</time>
      </trkpt>
      <trkpt lat="38.090545004233718" lon="-3.73842797242105">
        <ele>338.60000000000002</ele>
        <time>2003-04-12T15:13:24Z</time>
      </trkpt>
      <trkpt lat="38.089477987959981" lon="-3.738187998533249">
        <ele>338.89999999999998</ele>
        <time>2003-04-12T15:13:28Z</time>
      </trkpt>
      <trkpt lat="38.08840200304985" lon="-3.737963028252125">
        <ele>339.39999999999998</ele>
        <time>2003-04-12T15:13:31Z</time>
      </trkpt>
      <trkpt lat="38.087327023968101" lon="-3.737703021615744">
        <ele>339.80000000000001</ele>
        <time>2003-04-12T15:13:34Z</time>
      </trkpt>
      <trkpt lat="38.086248021572828" lon="-3.737406972795725">
        <ele>339.5</ele>
        <time>2003-04-12T15:13:36Z</time>
      </trkpt>
      <trkpt lat="38.085161978378892" lon="-3.737087035551667">
        <ele>338.60000000000002</ele>
        <time>2003-04-12T15:13:39Z</time>
      </trkpt>
      <trkpt lat="38.084067972376943" lon="-3.736744970083237">
        <ele>337.19999999999999</ele>
        <time>2003-04-12T15:13:43Z</time>
      </trkpt>
      <trkpt lat="38.082961980253458" lon="-3.736446993425489">
        <ele>335.10000000000002</ele>
        <time>2003-04-12T15:13:46Z</time>
      </trkpt>
      <trkpt lat="38.081873003393412" lon="-3.736216994002461">
        <ele>332.30000000000001</ele>
        <time>2003-04-12T15:13:48Z</time>
      </trkpt>
      <trkpt lat="38.080782014876604" lon="-3.736060000956059">
        <ele>329.39999999999998</ele>
        <time>2003-04-12T15:13:51Z</time>
      </trkpt>
      <trkpt lat="38.0796770285815" lon="-3.736008033156395">
        <ele>326.30000000000001</ele>
        <time>2003-04-12T15:13:55Z</time>
      </trkpt>
      <trkpt lat="38.078577993437648" lon="-3.73606201261282">
        <ele>323.39999999999998</ele>
        <time>2003-04-12T15:13:58Z</time>
      </trkpt>
      <trkpt lat="38.077499996870756" lon="-3.736208025366068">
        <ele>320.39999999999998</ele>
        <time>2003-04-12T15:14:01Z</time>
      </trkpt>
      <trkpt lat="38.076425017789006" lon="-3.736455040052533">
        <ele>317.30000000000001</ele>
        <time>2003-04-12T15:14:03Z</time>
      </trkpt>
      <trkpt lat="38.075354984030128" lon="-3.736795010045171">
        <ele>314.5</ele>
        <time>2003-04-12T15:14:06Z</time>
      </trkpt>
      <trkpt lat="38.074302971363068" lon="-3.737242016941309">
        <ele>311.39999999999998</ele>
        <time>2003-04-12T15:14:10Z</time>
      </trkpt>
      <trkpt lat="38.073284989222884" lon="-3.737784996628761">
        <ele>308.60000000000002</ele>
        <time>2003-04-12T15:14:13Z</time>
      </trkpt>
      <trkpt lat="38.072297014296055" lon="-3.73840500600636">
        <ele>307.80000000000001</ele>
        <time>2003-04-12T15:14:15Z</time>
      </trkpt>
      <trkpt lat="38.071347009390593" lon="-3.739089975133538">
        <ele>309.10000000000002</ele>
        <time>2003-04-12T15:14:18Z</time>
      </trkpt>
      <trkpt lat="38.070422988384962" lon="-3.739806963130832">
        <ele>311.5</ele>
        <time>2003-04-12T15:14:22Z</time>
      </trkpt>
      <trkpt lat="38.069507014006376" lon="-3.740525040775538">
        <ele>313.89999999999998</ele>
        <time>2003-04-12T15:14:25Z</time>
      </trkpt>
      <trkpt lat="38.068591961637139" lon="-3.741232976317406">
        <ele>316.39999999999998</ele>
        <time>2003-04-12T15:14:28Z</time>
      </trkpt>
      <trkpt lat="38.067668024450541" lon="-3.741930015385151">
        <ele>317.69999999999999</ele>
        <time>2003-04-12T15:14:32Z</time>
      </trkpt>
      <trkpt lat="38.066735034808517" lon="-3.742626970633864">
        <ele>317.60000000000002</ele>
        <time>2003-04-12T15:14:33Z</time>
      </trkpt>
      <trkpt lat="38.065789975225925" lon="-3.743334989994764">
        <ele>316.39999999999998</ele>
        <time>2003-04-12T15:14:37Z</time>
      </trkpt>
      <trkpt lat="38.064818009734154" lon="-3.744037980213761">
        <ele>314</ele>
        <time>2003-04-12T15:14:40Z</time>
      </trkpt>
      <trkpt lat="38.06382198818028" lon="-3.744722027331591">
        <ele>310.39999999999998</ele>
        <time>2003-04-12T15:14:42Z</time>
      </trkpt>
      <trkpt lat="38.062857985496521" lon="-3.745383024215698">
        <ele>305.60000000000002</ele>
        <time>2003-04-12T15:14:45Z</time>
      </trkpt>
      <trkpt lat="38.061942011117935" lon="-3.746058018878102">
        <ele>301.10000000000002</ele>
        <time>2003-04-12T15:14:49Z</time>
      </trkpt>
      <trkpt lat="38.061025030910969" lon="-3.746767966076732">
        <ele>296.60000000000002</ele>
        <time>2003-04-12T15:14:52Z</time>
      </trkpt>
      <trkpt lat="38.060121964663267" lon="-3.747591990977526">
        <ele>292.30000000000001</ele>
        <time>2003-04-12T15:14:55Z</time>
      </trkpt>
      <trkpt lat="38.059231974184513" lon="-3.748479969799519">
        <ele>287.80000000000001</ele>
        <time>2003-04-12T15:14:57Z</time>
      </trkpt>
      <trkpt lat="38.058360004797578" lon="-3.749435003846884">
        <ele>283.19999999999999</ele>
        <time>2003-04-12T15:15:00Z</time>
      </trkpt>
      <trkpt lat="38.057519970461726" lon="-3.750445023179054">
        <ele>278.5</ele>
        <time>2003-04-12T15:15:04Z</time>
      </trkpt>
      <trkpt lat="38.056692006066442" lon="-3.751456970348954">
        <ele>274.19999999999999</ele>
        <time>2003-04-12T15:15:08Z</time>
      </trkpt>
      <trkpt lat="38.055887008085847" lon="-3.752457015216351">
        <ele>271.69999999999999</ele>
        <time>2003-04-12T15:15:11Z</time>
      </trkpt>
      <trkpt lat="38.055073041468859" lon="-3.753462005406618">
        <ele>270.30000000000001</ele>
        <time>2003-04-12T15:15:12Z</time>
      </trkpt>
      <trkpt lat="38.054256979376078" lon="-3.754473030567169">
        <ele>270.19999999999999</ele>
        <time>2003-04-12T15:15:16Z</time>
      </trkpt>
      <trkpt lat="38.053439995273948" lon="-3.755478020757437">
        <ele>271</ele>
        <time>2003-04-12T15:15:19Z</time>
      </trkpt>
      <trkpt lat="38.052623011171818" lon="-3.756483010947704">
        <ele>271.89999999999998</ele>
        <time>2003-04-12T15:15:23Z</time>
      </trkpt>
      <trkpt lat="38.051808038726449" lon="-3.757488001137972">
        <ele>272.60000000000002</ele>
        <time>2003-04-12T15:15:26Z</time>
      </trkpt>
      <trkpt lat="38.050997005775571" lon="-3.758483016863465">
        <ele>273.30000000000001</ele>
        <time>2003-04-12T15:15:27Z</time>
      </trkpt>
      <trkpt lat="38.050182033330202" lon="-3.759466968476772">
        <ele>274.30000000000001</ele>
        <time>2003-04-12T15:15:31Z</time>
      </trkpt>
      <trkpt lat="38.049375023692846" lon="-3.760443041101098">
        <ele>274.89999999999998</ele>
        <time>2003-04-12T15:15:35Z</time>
      </trkpt>
      <trkpt lat="38.04856700822711" lon="-3.761407965794206">
        <ele>275.39999999999998</ele>
        <time>2003-04-12T15:15:38Z</time>
      </trkpt>
      <trkpt lat="38.047763016074896" lon="-3.76238202676177">
        <ele>276.10000000000002</ele>
        <time>2003-04-12T15:15:41Z</time>
      </trkpt>
      <trkpt lat="38.046932034194469" lon="-3.763315016403794">
        <ele>276.69999999999999</ele>
        <time>2003-04-12T15:15:43Z</time>
      </trkpt>
      <trkpt lat="38.046080013737082" lon="-3.764223027974367">
        <ele>277.30000000000001</ele>
        <time>2003-04-12T15:15:46Z</time>
      </trkpt>
      <trkpt lat="38.045209972187877" lon="-3.765106983482838">
        <ele>277.89999999999998</ele>
        <time>2003-04-12T15:15:50Z</time>
      </trkpt>
      <trkpt lat="38.04431302472949" lon="-3.765951963141561">
        <ele>278.19999999999999</ele>
        <time>2003-04-12T15:15:53Z</time>
      </trkpt>
      <trkpt lat="38.043397972360253" lon="-3.766770036891103">
        <ele>279.10000000000002</ele>
        <time>2003-04-12T15:15:54Z</time>
      </trkpt>
      <trkpt lat="38.042470011860132" lon="-3.767570005729795">
        <ele>279</ele>
        <time>2003-04-12T15:15:58Z</time>
      </trkpt>
      <trkpt lat="38.041517995297909" lon="-3.768342984840274">
        <ele>278.5</ele>
        <time>2003-04-12T15:16:01Z</time>
      </trkpt>
      <trkpt lat="38.040542006492615" lon="-3.769091991707683">
        <ele>277.39999999999998</ele>
        <time>2003-04-12T15:16:05Z</time>
      </trkpt>
      <trkpt lat="38.039552019909024" lon="-3.769833035767078">
        <ele>275.5</ele>
        <time>2003-04-12T15:16:08Z</time>
      </trkpt>
      <trkpt lat="38.03853202611208" lon="-3.770533008500934">
        <ele>273.80000000000001</ele>
        <time>2003-04-12T15:16:10Z</time>
      </trkpt>
      <trkpt lat="38.037491999566555" lon="-3.771187970414758">
        <ele>271.69999999999999</ele>
        <time>2003-04-12T15:16:13Z</time>
      </trkpt>
      <trkpt lat="38.03645197302103" lon="-3.771817032247782">
        <ele>269.60000000000002</ele>
        <time>2003-04-12T15:16:17Z</time>
      </trkpt>
      <trkpt lat="38.035401972010732" lon="-3.772412985563278">
        <ele>267.69999999999999</ele>
        <time>2003-04-12T15:16:20Z</time>
      </trkpt>
      <trkpt lat="38.034362029284239" lon="-3.772969963029027">
        <ele>265.80000000000001</ele>
        <time>2003-04-12T15:16:22Z</time>
      </trkpt>
      <trkpt lat="38.033361984416842" lon="-3.773500034585595">
        <ele>264</ele>
        <time>2003-04-12T15:16:25Z</time>
      </trkpt>
      <trkpt lat="38.032394964247942" lon="-3.774000015109778">
        <ele>262.39999999999998</ele>
        <time>2003-04-12T15:16:29Z</time>
      </trkpt>
      <trkpt lat="38.03144495934248" lon="-3.77449999563396">
        <ele>260.39999999999998</ele>
        <time>2003-04-12T15:16:32Z</time>
      </trkpt>
      <trkpt lat="38.030469976365566" lon="-3.774992013350129">
        <ele>259.5</ele>
        <time>2003-04-12T15:16:35Z</time>
      </trkpt>
      <trkpt lat="38.02948703058064" lon="-3.775470033288002">
        <ele>259.60000000000002</ele>
        <time>2003-04-12T15:16:37Z</time>
      </trkpt>
      <trkpt lat="38.028511963784695" lon="-3.775966996327043">
        <ele>260.30000000000001</ele>
        <time>2003-04-12T15:16:40Z</time>
      </trkpt>
      <trkpt lat="38.027542009949684" lon="-3.776492038741708">
        <ele>261.89999999999998</ele>
        <time>2003-04-12T15:16:44Z</time>
      </trkpt>
      <trkpt lat="38.026567026972771" lon="-3.777002999559045">
        <ele>264.19999999999999</ele>
        <time>2003-04-12T15:16:47Z</time>
      </trkpt>
      <trkpt lat="38.025597995147109" lon="-3.777516977861524">
        <ele>267.60000000000002</ele>
        <time>2003-04-12T15:16:49Z</time>
      </trkpt>
      <trkpt lat="38.024637009948492" lon="-3.778016958385706">
        <ele>271</ele>
        <time>2003-04-12T15:16:52Z</time>
      </trkpt>
      <trkpt lat="38.023693040013313" lon="-3.778548035770655">
        <ele>274.69999999999999</ele>
        <time>2003-04-12T15:16:56Z</time>
      </trkpt>
      <trkpt lat="38.022753009572625" lon="-3.779087997972965">
        <ele>278.39999999999998</ele>
        <time>2003-04-12T15:16:59Z</time>
      </trkpt>
      <trkpt lat="38.021827982738614" lon="-3.779629971832037">
        <ele>281.80000000000001</ele>
        <time>2003-04-12T15:17:02Z</time>
      </trkpt>
      <trkpt lat="38.020913014188409" lon="-3.780183009803295">
        <ele>285.19999999999999</ele>
        <time>2003-04-12T15:17:04Z</time>
      </trkpt>
      <trkpt lat="38.020007014274597" lon="-3.780745016410947">
        <ele>288.69999999999999</ele>
        <time>2003-04-12T15:17:07Z</time>
      </trkpt>
      <trkpt lat="38.019106965512037" lon="-3.781318003311753">
        <ele>292.10000000000002</ele>
        <time>2003-04-12T15:17:11Z</time>
      </trkpt>
      <trkpt lat="38.018214963376522" lon="-3.781906999647617">
        <ele>295.69999999999999</ele>
        <time>2003-04-12T15:17:14Z</time>
      </trkpt>
      <trkpt lat="38.017330002039671" lon="-3.782502030953765">
        <ele>299</ele>
        <time>2003-04-12T15:17:16Z</time>
      </trkpt>
      <trkpt lat="38.016453003510833" lon="-3.78309496678412">
        <ele>302.80000000000001</ele>
        <time>2003-04-12T15:17:19Z</time>
      </trkpt>
      <trkpt lat="38.015586985275149" lon="-3.783669965341687">
        <ele>305.89999999999998</ele>
        <time>2003-04-12T15:17:23Z</time>
      </trkpt>
      <trkpt lat="38.014718033373356" lon="-3.784238006919622">
        <ele>308</ele>
        <time>2003-04-12T15:17:26Z</time>
      </trkpt>
      <trkpt lat="38.013842040672898" lon="-3.784822979941964">
        <ele>309.10000000000002</ele>
        <time>2003-04-12T15:17:29Z</time>
      </trkpt>
      <trkpt lat="38.012941991910338" lon="-3.785365037620068">
        <ele>309.39999999999998</ele>
        <time>2003-04-12T15:17:31Z</time>
      </trkpt>
      <trkpt lat="38.01199802197516" lon="-3.785812966525555">
        <ele>308.69999999999999</ele>
        <time>2003-04-12T15:17:34Z</time>
      </trkpt>
      <trkpt lat="38.010997977107763" lon="-3.786113038659096">
        <ele>306.89999999999998</ele>
        <time>2003-04-12T15:17:38Z</time>
      </trkpt>
      <trkpt lat="38.009989969432354" lon="-3.786280006170273">
        <ele>304.10000000000002</ele>
        <time>2003-04-12T15:17:41Z</time>
      </trkpt>
      <trkpt lat="38.009039964526892" lon="-3.786432975903153">
        <ele>300.10000000000002</ele>
        <time>2003-04-12T15:17:43Z</time>
      </trkpt>
      <trkpt lat="38.008092977106571" lon="-3.786631962284446">
        <ele>295.19999999999999</ele>
        <time>2003-04-12T15:17:46Z</time>
      </trkpt>
      <trkpt lat="38.007138026878238" lon="-3.786955000832677">
        <ele>290.30000000000001</ele>
        <time>2003-04-12T15:17:50Z</time>
      </trkpt>
      <trkpt lat="38.006205037236214" lon="-3.787411982193589">
        <ele>285.60000000000002</ele>
        <time>2003-04-12T15:17:53Z</time>
      </trkpt>
      <trkpt lat="38.005319992080331" lon="-3.788010030984879">
        <ele>282.39999999999998</ele>
        <time>2003-04-12T15:17:56Z</time>
      </trkpt>
      <trkpt lat="38.004473000764847" lon="-3.788732970133424">
        <ele>280.30000000000001</ele>
        <time>2003-04-12T15:17:58Z</time>
      </trkpt>
      <trkpt lat="38.003702033311129" lon="-3.789567975327373">
        <ele>279.5</ele>
        <time>2003-04-12T15:18:01Z</time>
      </trkpt>
      <trkpt lat="38.002983033657074" lon="-3.790453020483255">
        <ele>278.60000000000002</ele>
        <time>2003-04-12T15:18:05Z</time>
      </trkpt>
      <trkpt lat="38.00224500708282" lon="-3.791372012346983">
        <ele>277.80000000000001</ele>
        <time>2003-04-12T15:18:08Z</time>
      </trkpt>
      <trkpt lat="38.001488037407398" lon="-3.792307013645768">
        <ele>276.89999999999998</ele>
        <time>2003-04-12T15:18:10Z</time>
      </trkpt>
      <trkpt lat="38.000693013891578" lon="-3.793228017166257">
        <ele>275.69999999999999</ele>
        <time>2003-04-12T15:18:13Z</time>
      </trkpt>
      <trkpt lat="37.999858008697629" lon="-3.794081965461373">
        <ele>274.89999999999998</ele>
        <time>2003-04-12T15:18:17Z</time>
      </trkpt>
      <trkpt lat="37.998952008783817" lon="-3.794808005914092">
        <ele>273.89999999999998</ele>
        <time>2003-04-12T15:18:20Z</time>
      </trkpt>
      <trkpt lat="37.998002003878355" lon="-3.795402031391859">
        <ele>272</ele>
        <time>2003-04-12T15:18:23Z</time>
      </trkpt>
      <trkpt lat="37.997001959010959" lon="-3.795864963904023">
        <ele>268.89999999999998</ele>
        <time>2003-04-12T15:18:25Z</time>
      </trkpt>
      <trkpt lat="37.995972996577621" lon="-3.796181967481971">
        <ele>264.69999999999999</ele>
        <time>2003-04-12T15:18:28Z</time>
      </trkpt>
      <trkpt lat="37.994898017495871" lon="-3.796378020197153">
        <ele>260.10000000000002</ele>
        <time>2003-04-12T15:18:32Z</time>
      </trkpt>
      <trkpt lat="37.993788002058864" lon="-3.796423031017184">
        <ele>257.5</ele>
        <time>2003-04-12T15:18:35Z</time>
      </trkpt>
      <trkpt lat="37.992667006328702" lon="-3.79630702547729">
        <ele>256.80000000000001</ele>
        <time>2003-04-12T15:18:37Z</time>
      </trkpt>
      <trkpt lat="37.991563025861979" lon="-3.796047018840909">
        <ele>258</ele>
        <time>2003-04-12T15:18:40Z</time>
      </trkpt>
      <trkpt lat="37.990487040951848" lon="-3.795682992786169">
        <ele>260.19999999999999</ele>
        <time>2003-04-12T15:18:44Z</time>
      </trkpt>
      <trkpt lat="37.989426981657743" lon="-3.795274961739779">
        <ele>262.69999999999999</ele>
        <time>2003-04-12T15:18:47Z</time>
      </trkpt>
      <trkpt lat="37.988391984254122" lon="-3.794842036440969">
        <ele>262.80000000000001</ele>
        <time>2003-04-12T15:18:50Z</time>
      </trkpt>
      <trkpt lat="37.987390011548996" lon="-3.794410033151507">
        <ele>262.60000000000002</ele>
        <time>2003-04-12T15:18:52Z</time>
      </trkpt>
      <trkpt lat="37.986422991380095" lon="-3.793992027640343">
        <ele>261.5</ele>
        <time>2003-04-12T15:18:55Z</time>
      </trkpt>
      <trkpt lat="37.985454965382814" lon="-3.793573016300798">
        <ele>259.30000000000001</ele>
        <time>2003-04-12T15:18:59Z</time>
      </trkpt>
      <trkpt lat="37.984473025426269" lon="-3.793161967769265">
        <ele>257.60000000000002</ele>
        <time>2003-04-12T15:19:02Z</time>
      </trkpt>
      <trkpt lat="37.983527965843678" lon="-3.792732981964946">
        <ele>255.69999999999999</ele>
        <time>2003-04-12T15:19:04Z</time>
      </trkpt>
      <trkpt lat="37.982581984251738" lon="-3.792392006143928">
        <ele>255.19999999999999</ele>
        <time>2003-04-12T15:19:07Z</time>
      </trkpt>
      <trkpt lat="37.981595015153289" lon="-3.792195031419396">
        <ele>255.09999999999999</ele>
        <time>2003-04-12T15:19:11Z</time>
      </trkpt>
      <trkpt lat="37.98058700747788" lon="-3.792147003114224">
        <ele>256.30000000000001</ele>
        <time>2003-04-12T15:19:14Z</time>
      </trkpt>
      <trkpt lat="37.979574976488948" lon="-3.792135016992688">
        <ele>258.39999999999998</ele>
        <time>2003-04-12T15:19:17Z</time>
      </trkpt>
      <trkpt lat="37.978565040975809" lon="-3.792108027264476">
        <ele>261.10000000000002</ele>
        <time>2003-04-12T15:19:19Z</time>
      </trkpt>
      <trkpt lat="37.977564996108413" lon="-3.792080031707883">
        <ele>265</ele>
        <time>2003-04-12T15:19:22Z</time>
      </trkpt>
      <trkpt lat="37.976586995646358" lon="-3.79205203615129">
        <ele>269.80000000000001</ele>
        <time>2003-04-12T15:19:26Z</time>
      </trkpt>
      <trkpt lat="37.975622992962599" lon="-3.791984980925918">
        <ele>274.89999999999998</ele>
        <time>2003-04-12T15:19:29Z</time>
      </trkpt>
      <trkpt lat="37.974678017199039" lon="-3.791881967335939">
        <ele>280.5</ele>
        <time>2003-04-12T15:19:31Z</time>
      </trkpt>
      <trkpt lat="37.973747961223125" lon="-3.791696978732944">
        <ele>286</ele>
        <time>2003-04-12T15:19:34Z</time>
      </trkpt>
      <trkpt lat="37.97283198684454" lon="-3.791475025936961">
        <ele>290.39999999999998</ele>
        <time>2003-04-12T15:19:38Z</time>
      </trkpt>
      <trkpt lat="37.971915006637573" lon="-3.791257012635469">
        <ele>294.60000000000002</ele>
        <time>2003-04-12T15:19:41Z</time>
      </trkpt>
      <trkpt lat="37.971001965925097" lon="-3.791004968807101">
        <ele>298</ele>
        <time>2003-04-12T15:19:44Z</time>
      </trkpt>
      <trkpt lat="37.970081968232989" lon="-3.790736999362707">
        <ele>300.19999999999999</ele>
        <time>2003-04-12T15:19:46Z</time>
      </trkpt>
      <trkpt lat="37.969149984419346" lon="-3.790468024089932">
        <ele>302</ele>
        <time>2003-04-12T15:19:49Z</time>
      </trkpt>
      <trkpt lat="37.968205008655787" lon="-3.790217991918325">
        <ele>303.5</ele>
        <time>2003-04-12T15:19:53Z</time>
      </trkpt>
      <trkpt lat="37.96724502928555" lon="-3.789996961131692">
        <ele>305</ele>
        <time>2003-04-12T15:19:56Z</time>
      </trkpt>
      <trkpt lat="37.966272979974747" lon="-3.789822030812502">
        <ele>306.89999999999998</ele>
        <time>2003-04-12T15:19:58Z</time>
      </trkpt>
      <trkpt lat="37.965288022533059" lon="-3.78971298225224">
        <ele>308.89999999999998</ele>
        <time>2003-04-12T15:20:01Z</time>
      </trkpt>
      <trkpt lat="37.964295018464327" lon="-3.789665037766099">
        <ele>311.19999999999999</ele>
        <time>2003-04-12T15:20:05Z</time>
      </trkpt>
      <trkpt lat="37.963296985253692" lon="-3.789675012230873">
        <ele>313.30000000000001</ele>
        <time>2003-04-12T15:20:08Z</time>
      </trkpt>
      <trkpt lat="37.962295012548566" lon="-3.789747012779117">
        <ele>315.60000000000002</ele>
        <time>2003-04-12T15:20:11Z</time>
      </trkpt>
      <trkpt lat="37.96129496768117" lon="-3.789914986118674">
        <ele>317.69999999999999</ele>
        <time>2003-04-12T15:20:13Z</time>
      </trkpt>
      <trkpt lat="37.960301963612437" lon="-3.790168035775423">
        <ele>318.89999999999998</ele>
        <time>2003-04-12T15:20:16Z</time>
      </trkpt>
      <trkpt lat="37.959303008392453" lon="-3.790453020483255">
        <ele>319.39999999999998</ele>
        <time>2003-04-12T15:20:20Z</time>
      </trkpt>
      <trkpt lat="37.958292989060283" lon="-3.790768012404442">
        <ele>318.69999999999999</ele>
        <time>2003-04-12T15:20:23Z</time>
      </trkpt>
      <trkpt lat="37.957262014970183" lon="-3.791097002103925">
        <ele>317.30000000000001</ele>
        <time>2003-04-12T15:20:25Z</time>
      </trkpt>
      <trkpt lat="37.956210002303123" lon="-3.79143001511693">
        <ele>315.39999999999998</ele>
        <time>2003-04-12T15:20:28Z</time>
      </trkpt>
      <trkpt lat="37.955165030434728" lon="-3.791756993159652">
        <ele>312.30000000000001</ele>
        <time>2003-04-12T15:20:32Z</time>
      </trkpt>
      <trkpt lat="37.954130033031106" lon="-3.792047007009387">
        <ele>306.39999999999998</ele>
        <time>2003-04-12T15:20:35Z</time>
      </trkpt>
      <trkpt lat="37.953147003427148" lon="-3.792268037796021">
        <ele>303.10000000000002</ele>
        <time>2003-04-12T15:20:38Z</time>
      </trkpt>
      <trkpt lat="37.952296994626522" lon="-3.792420001700521">
        <ele>298.10000000000002</ele>
        <time>2003-04-12T15:20:40Z</time>
      </trkpt>
      <trkpt lat="37.951123025268316" lon="-3.792513040825725">
        <ele>291.5</ele>
        <time>2003-04-12T15:20:44Z</time>
      </trkpt>
      <trkpt lat="37.95020998455584" lon="-3.792556961998344">
        <ele>286.19999999999999</ele>
        <time>2003-04-12T15:20:47Z</time>
      </trkpt>
      <trkpt lat="37.948999973013997" lon="-3.792501976713538">
        <ele>280</ele>
        <time>2003-04-12T15:20:51Z</time>
      </trkpt>
      <trkpt lat="37.948037981987" lon="-3.792369961738586">
        <ele>276.30000000000001</ele>
        <time>2003-04-12T15:20:55Z</time>
      </trkpt>
      <trkpt lat="37.947056964039803" lon="-3.792169969528914">
        <ele>274</ele>
        <time>2003-04-12T15:20:58Z</time>
      </trkpt>
      <trkpt lat="37.946058008819818" lon="-3.791908035054803">
        <ele>273</ele>
        <time>2003-04-12T15:21:00Z</time>
      </trkpt>
      <trkpt lat="37.945065004751086" lon="-3.791541997343302">
        <ele>274</ele>
        <time>2003-04-12T15:21:03Z</time>
      </trkpt>
      <trkpt lat="37.944093039259315" lon="-3.791079986840487">
        <ele>276.60000000000002</ele>
        <time>2003-04-12T15:21:07Z</time>
      </trkpt>
      <trkpt lat="37.943144962191582" lon="-3.79057003185153">
        <ele>280.69999999999999</ele>
        <time>2003-04-12T15:21:10Z</time>
      </trkpt>
      <trkpt lat="37.942229993641376" lon="-3.79001003690064">
        <ele>285.69999999999999</ele>
        <time>2003-04-12T15:21:13Z</time>
      </trkpt>
      <trkpt lat="37.941332962363958" lon="-3.789421962574124">
        <ele>290.10000000000002</ele>
        <time>2003-04-12T15:21:15Z</time>
      </trkpt>
      <trkpt lat="37.940459987148643" lon="-3.788794996216893">
        <ele>293.5</ele>
        <time>2003-04-12T15:21:18Z</time>
      </trkpt>
      <trkpt lat="37.939585000276566" lon="-3.788167024031282">
        <ele>296.19999999999999</ele>
        <time>2003-04-12T15:21:22Z</time>
      </trkpt>
      <trkpt lat="37.938704984262586" lon="-3.787527987733483">
        <ele>298</ele>
        <time>2003-04-12T15:21:25Z</time>
      </trkpt>
      <trkpt lat="37.937818011268973" lon="-3.786873025819659">
        <ele>298.89999999999998</ele>
        <time>2003-04-12T15:21:27Z</time>
      </trkpt>
      <trkpt lat="37.936915028840303" lon="-3.786214962601662">
        <ele>299.39999999999998</ele>
        <time>2003-04-12T15:21:30Z</time>
      </trkpt>
      <trkpt lat="37.936007017269731" lon="-3.785552959889174">
        <ele>299.80000000000001</ele>
        <time>2003-04-12T15:21:34Z</time>
      </trkpt>
      <trkpt lat="37.935115015134215" lon="-3.784936973825097">
        <ele>300.19999999999999</ele>
        <time>2003-04-12T15:21:37Z</time>
      </trkpt>
      <trkpt lat="37.934213038533926" lon="-3.784358035773039">
        <ele>300.60000000000002</ele>
        <time>2003-04-12T15:21:40Z</time>
      </trkpt>
      <trkpt lat="37.933290023356676" lon="-3.783855037763715">
        <ele>301</ele>
        <time>2003-04-12T15:21:42Z</time>
      </trkpt>
      <trkpt lat="37.932358039543033" lon="-3.78345999866724">
        <ele>301.80000000000001</ele>
        <time>2003-04-12T15:21:45Z</time>
      </trkpt>
      <trkpt lat="37.931418009102345" lon="-3.783166967332363">
        <ele>303.19999999999999</ele>
        <time>2003-04-12T15:21:49Z</time>
      </trkpt>
      <trkpt lat="37.930502034723759" lon="-3.783021960407496">
        <ele>305.69999999999999</ele>
        <time>2003-04-12T15:21:52Z</time>
      </trkpt>
      <trkpt lat="37.929589999839664" lon="-3.782964963465929">
        <ele>309.19999999999999</ele>
        <time>2003-04-12T15:21:54Z</time>
      </trkpt>
      <trkpt lat="37.928675031289458" lon="-3.782994970679283">
        <ele>312.69999999999999</ele>
        <time>2003-04-12T15:21:57Z</time>
      </trkpt>
      <trkpt lat="37.92775696143508" lon="-3.783162022009492">
        <ele>315.60000000000002</ele>
        <time>2003-04-12T15:22:01Z</time>
      </trkpt>
      <trkpt lat="37.926837969571352" lon="-3.783453041687608">
        <ele>317.19999999999999</ele>
        <time>2003-04-12T15:22:04Z</time>
      </trkpt>
      <trkpt lat="37.92593196965754" lon="-3.783884961158037">
        <ele>317.69999999999999</ele>
        <time>2003-04-12T15:22:07Z</time>
      </trkpt>
      <trkpt lat="37.925022030249238" lon="-3.784387037158012">
        <ele>317.30000000000001</ele>
        <time>2003-04-12T15:22:09Z</time>
      </trkpt>
      <trkpt lat="37.924109995365143" lon="-3.78496496938169">
        <ele>316.10000000000002</ele>
        <time>2003-04-12T15:22:12Z</time>
      </trkpt>
      <trkpt lat="37.923195026814938" lon="-3.785612974315882">
        <ele>313.60000000000002</ele>
        <time>2003-04-12T15:22:16Z</time>
      </trkpt>
      <trkpt lat="37.922266982495785" lon="-3.786291992291808">
        <ele>310.39999999999998</ele>
        <time>2003-04-12T15:22:19Z</time>
      </trkpt>
      <trkpt lat="37.921334998682141" lon="-3.786947038024664">
        <ele>307.39999999999998</ele>
        <time>2003-04-12T15:22:21Z</time>
      </trkpt>
      <trkpt lat="37.92036697268486" lon="-3.787557994946837">
        <ele>304.30000000000001</ele>
        <time>2003-04-12T15:22:24Z</time>
      </trkpt>
      <trkpt lat="37.919364999979734" lon="-3.788063004612923">
        <ele>303</ele>
        <time>2003-04-12T15:22:28Z</time>
      </trkpt>
      <trkpt lat="37.918332014232874" lon="-3.788404986262322">
        <ele>303.30000000000001</ele>
        <time>2003-04-12T15:22:31Z</time>
      </trkpt>
      <trkpt lat="37.917283019050956" lon="-3.788591986522079">
        <ele>305.10000000000002</ele>
        <time>2003-04-12T15:22:34Z</time>
      </trkpt>
      <trkpt lat="37.916233018040657" lon="-3.788627022877336">
        <ele>308.60000000000002</ele>
        <time>2003-04-12T15:22:36Z</time>
      </trkpt>
      <trkpt lat="37.915202965959907" lon="-3.78855200484395">
        <ele>311.69999999999999</ele>
        <time>2003-04-12T15:22:39Z</time>
      </trkpt>
      <trkpt lat="37.914212979376316" lon="-3.788267020136118">
        <ele>313.10000000000002</ele>
        <time>2003-04-12T15:22:43Z</time>
      </trkpt>
      <trkpt lat="37.913242019712925" lon="-3.787859994918108">
        <ele>313.69999999999999</ele>
        <time>2003-04-12T15:22:46Z</time>
      </trkpt>
      <trkpt lat="37.912295032292604" lon="-3.787321960553527">
        <ele>313.19999999999999</ele>
        <time>2003-04-12T15:22:48Z</time>
      </trkpt>
      <trkpt lat="37.911361958831549" lon="-3.786691976711154">
        <ele>311.80000000000001</ele>
        <time>2003-04-12T15:22:51Z</time>
      </trkpt>
      <trkpt lat="37.910432992503047" lon="-3.785999966785312">
        <ele>309.10000000000002</ele>
        <time>2003-04-12T15:22:55Z</time>
      </trkpt>
      <trkpt lat="37.909507965669036" lon="-3.785317009314895">
        <ele>305.89999999999998</ele>
        <time>2003-04-12T15:22:58Z</time>
      </trkpt>
      <trkpt lat="37.908586962148547" lon="-3.784655006602407">
        <ele>303.19999999999999</ele>
        <time>2003-04-12T15:23:01Z</time>
      </trkpt>
      <trkpt lat="37.907611979171634" lon="-3.784074978902936">
        <ele>300.69999999999999</ele>
        <time>2003-04-12T15:23:03Z</time>
      </trkpt>
      <trkpt lat="37.906591985374689" lon="-3.783605005592108">
        <ele>298.5</ele>
        <time>2003-04-12T15:23:06Z</time>
      </trkpt>
      <trkpt lat="37.905556987971067" lon="-3.783233016729355">
        <ele>297.60000000000002</ele>
        <time>2003-04-12T15:23:10Z</time>
      </trkpt>
      <trkpt lat="37.90453196503222" lon="-3.78292003646493">
        <ele>297.5</ele>
        <time>2003-04-12T15:23:13Z</time>
      </trkpt>
      <trkpt lat="37.903495039790869" lon="-3.782639997079969">
        <ele>298.19999999999999</ele>
        <time>2003-04-12T15:23:15Z</time>
      </trkpt>
      <trkpt lat="37.902458030730486" lon="-3.782372027635574">
        <ele>299.39999999999998</ele>
        <time>2003-04-12T15:23:18Z</time>
      </trkpt>
      <trkpt lat="37.901442982256413" lon="-3.782089976593852">
        <ele>300.19999999999999</ele>
        <time>2003-04-12T15:23:22Z</time>
      </trkpt>
      <trkpt lat="37.900458024814725" lon="-3.78182795830071">
        <ele>300.69999999999999</ele>
        <time>2003-04-12T15:23:25Z</time>
      </trkpt>
      <trkpt lat="37.899511959403753" lon="-3.781559988856316">
        <ele>301.30000000000001</ele>
        <time>2003-04-12T15:23:28Z</time>
      </trkpt>
      <trkpt lat="37.898547034710646" lon="-3.781301993876696">
        <ele>301.89999999999998</ele>
        <time>2003-04-12T15:23:30Z</time>
      </trkpt>
      <trkpt lat="37.897567022591829" lon="-3.781039975583553">
        <ele>302.39999999999998</ele>
        <time>2003-04-12T15:23:33Z</time>
      </trkpt>
      <trkpt lat="37.896566977724433" lon="-3.780769994482398">
        <ele>303</ele>
        <time>2003-04-12T15:23:37Z</time>
      </trkpt>
      <trkpt lat="37.895547989755869" lon="-3.780490038916469">
        <ele>303.69999999999999</ele>
        <time>2003-04-12T15:23:40Z</time>
      </trkpt>
      <trkpt lat="37.894515004009008" lon="-3.780209999531508">
        <ele>304.60000000000002</ele>
        <time>2003-04-12T15:23:42Z</time>
      </trkpt>
      <trkpt lat="37.893467014655471" lon="-3.779932977631688">
        <ele>305.30000000000001</ele>
        <time>2003-04-12T15:23:45Z</time>
      </trkpt>
      <trkpt lat="37.892407039180398" lon="-3.779662996530533">
        <ele>305.89999999999998</ele>
        <time>2003-04-12T15:23:49Z</time>
      </trkpt>
      <trkpt lat="37.8913380112499" lon="-3.779382035136223">
        <ele>306.5</ele>
        <time>2003-04-12T15:23:52Z</time>
      </trkpt>
      <trkpt lat="37.890273006632924" lon="-3.779082968831062">
        <ele>308.80000000000001</ele>
        <time>2003-04-12T15:23:55Z</time>
      </trkpt>
      <trkpt lat="37.889240020886064" lon="-3.778697988018394">
        <ele>312.39999999999998</ele>
        <time>2003-04-12T15:23:57Z</time>
      </trkpt>
      <trkpt lat="37.888250034302473" lon="-3.778183003887534">
        <ele>315.39999999999998</ele>
        <time>2003-04-12T15:24:00Z</time>
      </trkpt>
      <trkpt lat="37.887316960841417" lon="-3.77750700339675">
        <ele>317.10000000000002</ele>
        <time>2003-04-12T15:24:04Z</time>
      </trkpt>
      <trkpt lat="37.886447003111243" lon="-3.776699993759394">
        <ele>317.80000000000001</ele>
        <time>2003-04-12T15:24:07Z</time>
      </trkpt>
      <trkpt lat="37.885643010959029" lon="-3.77578703686595">
        <ele>317.10000000000002</ele>
        <time>2003-04-12T15:24:09Z</time>
      </trkpt>
      <trkpt lat="37.884880006313324" lon="-3.774809958413243">
        <ele>316</ele>
        <time>2003-04-12T15:24:12Z</time>
      </trkpt>
      <trkpt lat="37.884107027202845" lon="-3.773830030113459">
        <ele>313.30000000000001</ele>
        <time>2003-04-12T15:24:16Z</time>
      </trkpt>
      <trkpt lat="37.883294988423586" lon="-3.772935010492802">
        <ele>311.39999999999998</ele>
        <time>2003-04-12T15:24:19Z</time>
      </trkpt>
      <trkpt lat="37.882412038743496" lon="-3.772172005847096">
        <ele>311.60000000000002</ele>
        <time>2003-04-12T15:24:22Z</time>
      </trkpt>
      <trkpt lat="37.881462033838034" lon="-3.771555013954639">
        <ele>312.30000000000001</ele>
        <time>2003-04-12T15:24:24Z</time>
      </trkpt>
      <trkpt lat="37.880472969263792" lon="-3.771047992631793">
        <ele>313.10000000000002</ele>
        <time>2003-04-12T15:24:27Z</time>
      </trkpt>
      <trkpt lat="37.879475019872189" lon="-3.77056997269392">
        <ele>313.89999999999998</ele>
        <time>2003-04-12T15:24:31Z</time>
      </trkpt>
      <trkpt lat="37.878472041338682" lon="-3.770062029361725">
        <ele>314.39999999999998</ele>
        <time>2003-04-12T15:24:34Z</time>
      </trkpt>
      <trkpt lat="37.877463027834892" lon="-3.769528018310666">
        <ele>315</ele>
        <time>2003-04-12T15:24:36Z</time>
      </trkpt>
      <trkpt lat="37.876443034037948" lon="-3.76899803057313">
        <ele>315.69999999999999</ele>
        <time>2003-04-12T15:24:39Z</time>
      </trkpt>
      <trkpt lat="37.875475008040667" lon="-3.768496960401535">
        <ele>317</ele>
        <time>2003-04-12T15:24:43Z</time>
      </trkpt>
      <trkpt lat="37.874564984813333" lon="-3.768045008182526">
        <ele>319.60000000000002</ele>
        <time>2003-04-12T15:24:46Z</time>
      </trkpt>
      <trkpt lat="37.87369997240603" lon="-3.7676249910146">
        <ele>322.69999999999999</ele>
        <time>2003-04-12T15:24:49Z</time>
      </trkpt>
      <trkpt lat="37.872836971655488" lon="-3.767213020473719">
        <ele>324.69999999999999</ele>
        <time>2003-04-12T15:24:51Z</time>
      </trkpt>
      <trkpt lat="37.871952010318637" lon="-3.766797026619315">
        <ele>326.10000000000002</ele>
        <time>2003-04-12T15:24:54Z</time>
      </trkpt>
      <trkpt lat="37.871042992919683" lon="-3.766371980309486">
        <ele>326.89999999999998</ele>
        <time>2003-04-12T15:24:58Z</time>
      </trkpt>
      <trkpt lat="37.870127018541098" lon="-3.765894966199994">
        <ele>326.19999999999999</ele>
        <time>2003-04-12T15:25:01Z</time>
      </trkpt>
      <trkpt lat="37.869202997535467" lon="-3.765400014817715">
        <ele>325</ele>
        <time>2003-04-12T15:25:03Z</time>
      </trkpt>
      <trkpt lat="37.868273025378585" lon="-3.764910008758307">
        <ele>326.10000000000002</ele>
        <time>2003-04-12T15:25:08Z</time>
      </trkpt>
      <trkpt lat="37.867327965795994" lon="-3.764482028782368">
        <ele>327.69999999999999</ele>
        <time>2003-04-12T15:25:10Z</time>
      </trkpt>
      <trkpt lat="37.86635298281908" lon="-3.76416502520442">
        <ele>331.39999999999998</ele>
        <time>2003-04-12T15:25:13Z</time>
      </trkpt>
      <trkpt lat="37.865377999842167" lon="-3.76395002938807">
        <ele>336.39999999999998</ele>
        <time>2003-04-12T15:25:16Z</time>
      </trkpt>
      <trkpt lat="37.864402011036873" lon="-3.763862019404769">
        <ele>340.19999999999999</ele>
        <time>2003-04-12T15:25:18Z</time>
      </trkpt>
      <trkpt lat="37.863416969776154" lon="-3.763852966949344">
        <ele>343.10000000000002</ele>
        <time>2003-04-12T15:25:21Z</time>
      </trkpt>
      <trkpt lat="37.862432012334466" lon="-3.763963021337986">
        <ele>345.5</ele>
        <time>2003-04-12T15:25:25Z</time>
      </trkpt>
      <trkpt lat="37.861442025750875" lon="-3.764169970527291">
        <ele>346.5</ele>
        <time>2003-04-12T15:25:28Z</time>
      </trkpt>
      <trkpt lat="37.860439969226718" lon="-3.764425031840801">
        <ele>346.69999999999999</ele>
        <time>2003-04-12T15:25:30Z</time>
      </trkpt>
      <trkpt lat="37.859437996521592" lon="-3.764699958264828">
        <ele>345.80000000000001</ele>
        <time>2003-04-12T15:25:33Z</time>
      </trkpt>
      <trkpt lat="37.858438035473228" lon="-3.764959964901209">
        <ele>344.10000000000002</ele>
        <time>2003-04-12T15:25:37Z</time>
      </trkpt>
      <trkpt lat="37.857412006705999" lon="-3.765185019001365">
        <ele>342.39999999999998</ele>
        <time>2003-04-12T15:25:40Z</time>
      </trkpt>
      <trkpt lat="37.856354964897037" lon="-3.765347963199019">
        <ele>342.30000000000001</ele>
        <time>2003-04-12T15:25:43Z</time>
      </trkpt>
      <trkpt lat="37.855283003300428" lon="-3.765421975404024">
        <ele>343.80000000000001</ele>
        <time>2003-04-12T15:25:45Z</time>
      </trkpt>
      <trkpt lat="37.854208024218678" lon="-3.765427004545927">
        <ele>346.69999999999999</ele>
        <time>2003-04-12T15:25:48Z</time>
      </trkpt>
      <trkpt lat="37.853136984631419" lon="-3.765347963199019">
        <ele>349.60000000000002</ele>
        <time>2003-04-12T15:25:52Z</time>
      </trkpt>
      <trkpt lat="37.852082960307598" lon="-3.765188036486507">
        <ele>352.19999999999999</ele>
        <time>2003-04-12T15:25:55Z</time>
      </trkpt>
      <trkpt lat="37.851040000095963" lon="-3.764973040670157">
        <ele>354.89999999999998</ele>
        <time>2003-04-12T15:25:57Z</time>
      </trkpt>
      <trkpt lat="37.850040039047599" lon="-3.764738012105227">
        <ele>357.39999999999998</ele>
        <time>2003-04-12T15:26:00Z</time>
      </trkpt>
      <trkpt lat="37.849039994180202" lon="-3.764498038217425">
        <ele>359.60000000000002</ele>
        <time>2003-04-12T15:26:04Z</time>
      </trkpt>
      <trkpt lat="37.848040033131838" lon="-3.764267032966018">
        <ele>362.10000000000002</ele>
        <time>2003-04-12T15:26:07Z</time>
      </trkpt>
      <trkpt lat="37.847033031284809" lon="-3.764047008007765">
        <ele>364.30000000000001</ele>
        <time>2003-04-12T15:26:11Z</time>
      </trkpt>
      <trkpt lat="37.846010020002723" lon="-3.763854978606105">
        <ele>366.10000000000002</ele>
        <time>2003-04-12T15:26:12Z</time>
      </trkpt>
      <trkpt lat="37.844969993457198" lon="-3.763707960024476">
        <ele>367.30000000000001</ele>
        <time>2003-04-12T15:26:15Z</time>
      </trkpt>
      <trkpt lat="37.843917980790138" lon="-3.763606958091259">
        <ele>368.19999999999999</ele>
        <time>2003-04-12T15:26:19Z</time>
      </trkpt>
      <trkpt lat="37.84286797977984" lon="-3.76356303691864">
        <ele>369.5</ele>
        <time>2003-04-12T15:26:22Z</time>
      </trkpt>
      <trkpt lat="37.841817978769541" lon="-3.763577034696937">
        <ele>370.60000000000002</ele>
        <time>2003-04-12T15:26:24Z</time>
      </trkpt>
      <trkpt lat="37.840773006901145" lon="-3.763630008324981">
        <ele>371.69999999999999</ele>
        <time>2003-04-12T15:26:27Z</time>
      </trkpt>
      <trkpt lat="37.839719988405704" lon="-3.76373696140945">
        <ele>372.89999999999998</ele>
        <time>2003-04-12T15:26:31Z</time>
      </trkpt>
      <trkpt lat="37.838662024587393" lon="-3.763899989426136">
        <ele>374</ele>
        <time>2003-04-12T15:26:34Z</time>
      </trkpt>
      <trkpt lat="37.837597019970417" lon="-3.764114985242486">
        <ele>374.69999999999999</ele>
        <time>2003-04-12T15:26:38Z</time>
      </trkpt>
      <trkpt lat="37.836526986211538" lon="-3.764378009364009">
        <ele>375.39999999999998</ele>
        <time>2003-04-12T15:26:39Z</time>
      </trkpt>
      <trkpt lat="37.835468016564846" lon="-3.764671962708235">
        <ele>374.60000000000002</ele>
        <time>2003-04-12T15:26:42Z</time>
      </trkpt>
      <trkpt lat="37.834412986412644" lon="-3.764977985993028">
        <ele>373.80000000000001</ele>
        <time>2003-04-12T15:26:46Z</time>
      </trkpt>
      <trkpt lat="37.833361979573965" lon="-3.765281997621059">
        <ele>373.69999999999999</ele>
        <time>2003-04-12T15:26:49Z</time>
      </trkpt>
      <trkpt lat="37.832322036847472" lon="-3.765603024512529">
        <ele>374.39999999999998</ele>
        <time>2003-04-12T15:26:51Z</time>
      </trkpt>
      <trkpt lat="37.831268012523651" lon="-3.765866970643401">
        <ele>375.5</ele>
        <time>2003-04-12T15:26:54Z</time>
      </trkpt>
      <trkpt lat="37.830202002078295" lon="-3.766063023358584">
        <ele>377.10000000000002</ele>
        <time>2003-04-12T15:26:58Z</time>
      </trkpt>
      <trkpt lat="37.829131968319416" lon="-3.766192020848393">
        <ele>379.10000000000002</ele>
        <time>2003-04-12T15:27:01Z</time>
      </trkpt>
      <trkpt lat="37.828057995066047" lon="-3.766293022781611">
        <ele>380.69999999999999</ele>
        <time>2003-04-12T15:27:04Z</time>
      </trkpt>
      <trkpt lat="37.826979998499155" lon="-3.766284976154566">
        <ele>382.30000000000001</ele>
        <time>2003-04-12T15:27:06Z</time>
      </trkpt>
      <trkpt lat="37.825908036902547" lon="-3.766226973384619">
        <ele>383.80000000000001</ele>
        <time>2003-04-12T15:27:09Z</time>
      </trkpt>
      <trkpt lat="37.824834985658526" lon="-3.766147010028362">
        <ele>385.19999999999999</ele>
        <time>2003-04-12T15:27:13Z</time>
      </trkpt>
      <trkpt lat="37.823760006576777" lon="-3.766062017530203">
        <ele>386.39999999999998</ele>
        <time>2003-04-12T15:27:17Z</time>
      </trkpt>
      <trkpt lat="37.822679998353124" lon="-3.765993034467101">
        <ele>386.5</ele>
        <time>2003-04-12T15:27:18Z</time>
      </trkpt>
      <trkpt lat="37.821602001786232" lon="-3.765935031697154">
        <ele>385.89999999999998</ele>
        <time>2003-04-12T15:27:23Z</time>
      </trkpt>
      <trkpt lat="37.820519981905818" lon="-3.765896977856755">
        <ele>384.19999999999999</ele>
        <time>2003-04-12T15:27:25Z</time>
      </trkpt>
      <trkpt lat="37.819424970075488" lon="-3.765869988128543">
        <ele>382.5</ele>
        <time>2003-04-12T15:27:28Z</time>
      </trkpt>
      <trkpt lat="37.8183329757303" lon="-3.765875017270446">
        <ele>381.80000000000001</ele>
        <time>2003-04-12T15:27:32Z</time>
      </trkpt>
      <trkpt lat="37.817260008305311" lon="-3.765879962593317">
        <ele>383.10000000000002</ele>
        <time>2003-04-12T15:27:35Z</time>
      </trkpt>
      <trkpt lat="37.816195003688335" lon="-3.765854984521866">
        <ele>384.5</ele>
        <time>2003-04-12T15:27:37Z</time>
      </trkpt>
      <trkpt lat="37.815135028213263" lon="-3.765769992023706">
        <ele>386.5</ele>
        <time>2003-04-12T15:27:40Z</time>
      </trkpt>
      <trkpt lat="37.814073041081429" lon="-3.765590032562614">
        <ele>387.5</ele>
        <time>2003-04-12T15:27:44Z</time>
      </trkpt>
      <trkpt lat="37.813012981787324" lon="-3.765327008441091">
        <ele>387.60000000000002</ele>
        <time>2003-04-12T15:27:47Z</time>
      </trkpt>
      <trkpt lat="37.811962980777025" lon="-3.76498200930655">
        <ele>386.60000000000002</ele>
        <time>2003-04-12T15:27:50Z</time>
      </trkpt>
      <trkpt lat="37.810922032222152" lon="-3.764604991301894">
        <ele>385.60000000000002</ele>
        <time>2003-04-12T15:27:52Z</time>
      </trkpt>
      <trkpt lat="37.809915030375123" lon="-3.764084978029132">
        <ele>384.80000000000001</ele>
        <time>2003-04-12T15:27:55Z</time>
      </trkpt>
      <trkpt lat="37.808927977457643" lon="-3.763512996956706">
        <ele>383.80000000000001</ele>
        <time>2003-04-12T15:27:59Z</time>
      </trkpt>
      <trkpt lat="37.807972021400928" lon="-3.762867003679276">
        <ele>383.19999999999999</ele>
        <time>2003-04-12T15:28:02Z</time>
      </trkpt>
      <trkpt lat="37.807038025930524" lon="-3.762174993753433">
        <ele>382.89999999999998</ele>
        <time>2003-04-12T15:28:04Z</time>
      </trkpt>
      <trkpt lat="37.806133031845093" lon="-3.761443002149463">
        <ele>383.19999999999999</ele>
        <time>2003-04-12T15:28:07Z</time>
      </trkpt>
      <trkpt lat="37.805244969204068" lon="-3.760734982788563">
        <ele>383.89999999999998</ele>
        <time>2003-04-12T15:28:11Z</time>
      </trkpt>
      <trkpt lat="37.804375011473894" lon="-3.760095024481416">
        <ele>385.10000000000002</ele>
        <time>2003-04-12T15:28:14Z</time>
      </trkpt>
      <trkpt lat="37.803470017388463" lon="-3.759522959589958">
        <ele>386.39999999999998</ele>
        <time>2003-04-12T15:28:17Z</time>
      </trkpt>
      <trkpt lat="37.802523029968143" lon="-3.759036976844072">
        <ele>387.60000000000002</ele>
        <time>2003-04-12T15:28:19Z</time>
      </trkpt>
      <trkpt lat="37.801532037556171" lon="-3.758685020729899">
        <ele>389</ele>
        <time>2003-04-12T15:28:22Z</time>
      </trkpt>
      <trkpt lat="37.800523024052382" lon="-3.758380003273487">
        <ele>390.30000000000001</ele>
        <time>2003-04-12T15:28:26Z</time>
      </trkpt>
      <trkpt lat="37.79948802664876" lon="-3.75817003659904">
        <ele>391.60000000000002</ele>
        <time>2003-04-12T15:28:29Z</time>
      </trkpt>
      <trkpt lat="37.798453029245138" lon="-3.758055036887527">
        <ele>392.80000000000001</ele>
        <time>2003-04-12T15:28:31Z</time>
      </trkpt>
      <trkpt lat="37.797422977164388" lon="-3.758035004138947">
        <ele>393.69999999999999</ele>
        <time>2003-04-12T15:28:34Z</time>
      </trkpt>
      <trkpt lat="37.796401977539063" lon="-3.758074985817075">
        <ele>394.60000000000002</ele>
        <time>2003-04-12T15:28:38Z</time>
      </trkpt>
      <trkpt lat="37.795382989570498" lon="-3.758185040205717">
        <ele>396</ele>
        <time>2003-04-12T15:28:41Z</time>
      </trkpt>
      <trkpt lat="37.794387973845005" lon="-3.758259974420071">
        <ele>397</ele>
        <time>2003-04-12T15:28:44Z</time>
      </trkpt>
      <trkpt lat="37.793394969776273" lon="-3.758298028260469">
        <ele>398.10000000000002</ele>
        <time>2003-04-12T15:28:46Z</time>
      </trkpt>
      <trkpt lat="37.792412023991346" lon="-3.758271960541606">
        <ele>399.39999999999998</ele>
        <time>2003-04-12T15:28:49Z</time>
      </trkpt>
      <trkpt lat="37.79143201187253" lon="-3.758202977478504">
        <ele>400.80000000000001</ele>
        <time>2003-04-12T15:28:53Z</time>
      </trkpt>
      <trkpt lat="37.790430039167404" lon="-3.758027963340282">
        <ele>401.89999999999998</ele>
        <time>2003-04-12T15:28:56Z</time>
      </trkpt>
      <trkpt lat="37.789427982643247" lon="-3.75778203830123">
        <ele>403.30000000000001</ele>
        <time>2003-04-12T15:28:58Z</time>
      </trkpt>
      <trkpt lat="37.788427015766501" lon="-3.757467968389392">
        <ele>404.39999999999998</ele>
        <time>2003-04-12T15:29:01Z</time>
      </trkpt>
      <trkpt lat="37.787429988384247" lon="-3.75707502476871">
        <ele>405.19999999999999</ele>
        <time>2003-04-12T15:29:05Z</time>
      </trkpt>
      <trkpt lat="37.786432961001992" lon="-3.756612008437514">
        <ele>405.60000000000002</ele>
        <time>2003-04-12T15:29:08Z</time>
      </trkpt>
      <trkpt lat="37.785467030480504" lon="-3.756031980738044">
        <ele>404.80000000000001</ele>
        <time>2003-04-12T15:29:11Z</time>
      </trkpt>
      <trkpt lat="37.784513002261519" lon="-3.755409959703684">
        <ele>403.60000000000002</ele>
        <time>2003-04-12T15:29:13Z</time>
      </trkpt>
      <trkpt lat="37.783587975427508" lon="-3.754728008061647">
        <ele>401.60000000000002</ele>
        <time>2003-04-12T15:29:16Z</time>
      </trkpt>
      <trkpt lat="37.782681975513697" lon="-3.753998028114438">
        <ele>400.39999999999998</ele>
        <time>2003-04-12T15:29:20Z</time>
      </trkpt>
      <trkpt lat="37.781791985034943" lon="-3.753222031518817">
        <ele>398.69999999999999</ele>
        <time>2003-04-12T15:29:23Z</time>
      </trkpt>
      <trkpt lat="37.780918003991246" lon="-3.752404963597655">
        <ele>397</ele>
        <time>2003-04-12T15:29:25Z</time>
      </trkpt>
      <trkpt lat="37.780060032382607" lon="-3.751557972282171">
        <ele>395.60000000000002</ele>
        <time>2003-04-12T15:29:28Z</time>
      </trkpt>
      <trkpt lat="37.779225027188659" lon="-3.750669993460178">
        <ele>394</ele>
        <time>2003-04-12T15:29:32Z</time>
      </trkpt>
      <trkpt lat="37.7784129884094" lon="-3.74972702935338">
        <ele>392.39999999999998</ele>
        <time>2003-04-12T15:29:35Z</time>
      </trkpt>
      <trkpt lat="37.777621988207102" lon="-3.748727990314364">
        <ele>390.80000000000001</ele>
        <time>2003-04-12T15:29:38Z</time>
      </trkpt>
      <trkpt lat="37.776857977733016" lon="-3.747698022052646">
        <ele>389.10000000000002</ele>
        <time>2003-04-12T15:29:40Z</time>
      </trkpt>
      <trkpt lat="37.776132021099329" lon="-3.746608039364219">
        <ele>388</ele>
        <time>2003-04-12T15:29:43Z</time>
      </trkpt>
      <trkpt lat="37.775437999516726" lon="-3.74551797285676">
        <ele>389</ele>
        <time>2003-04-12T15:29:47Z</time>
      </trkpt>
      <trkpt lat="37.774792006239295" lon="-3.744422039017081">
        <ele>391.30000000000001</ele>
        <time>2003-04-12T15:29:50Z</time>
      </trkpt>
      <trkpt lat="37.774184988811612" lon="-3.743327027186751">
        <ele>395.5</ele>
        <time>2003-04-12T15:29:52Z</time>
      </trkpt>
      <trkpt lat="37.773617031052709" lon="-3.74223000369966">
        <ele>400.19999999999999</ele>
        <time>2003-04-12T15:29:55Z</time>
      </trkpt>
      <trkpt lat="37.773072961717844" lon="-3.741132980212569">
        <ele>404.89999999999998</ele>
        <time>2003-04-12T15:29:59Z</time>
      </trkpt>
      <trkpt lat="37.772582033649087" lon="-3.740015001967549">
        <ele>409.69999999999999</ele>
        <time>2003-04-12T15:30:02Z</time>
      </trkpt>
      <trkpt lat="37.772126980125904" lon="-3.738893000409007">
        <ele>414.5</ele>
        <time>2003-04-12T15:30:05Z</time>
      </trkpt>
      <trkpt lat="37.771702017635107" lon="-3.737757001072168">
        <ele>418.30000000000001</ele>
        <time>2003-04-12T15:30:07Z</time>
      </trkpt>
      <trkpt lat="37.771309996023774" lon="-3.73659803532064">
        <ele>421.19999999999999</ele>
        <time>2003-04-12T15:30:10Z</time>
      </trkpt>
      <trkpt lat="37.770972959697247" lon="-3.735407972708345">
        <ele>423.69999999999999</ele>
        <time>2003-04-12T15:30:14Z</time>
      </trkpt>
      <trkpt lat="37.77069803327322" lon="-3.734182035550475">
        <ele>425.60000000000002</ele>
        <time>2003-04-12T15:30:17Z</time>
      </trkpt>
      <trkpt lat="37.770498041063547" lon="-3.732917960733175">
        <ele>427.10000000000002</ele>
        <time>2003-04-12T15:30:19Z</time>
      </trkpt>
      <trkpt lat="37.77031296864152" lon="-3.731647012755275">
        <ele>429</ele>
        <time>2003-04-12T15:30:22Z</time>
      </trkpt>
      <trkpt lat="37.770092021673918" lon="-3.730389978736639">
        <ele>431.19999999999999</ele>
        <time>2003-04-12T15:30:26Z</time>
      </trkpt>
      <trkpt lat="37.769830003380775" lon="-3.729157000780106">
        <ele>433.39999999999998</ele>
        <time>2003-04-12T15:30:29Z</time>
      </trkpt>
      <trkpt lat="37.769507970660925" lon="-3.728027958422899">
        <ele>435.30000000000001</ele>
        <time>2003-04-12T15:30:32Z</time>
      </trkpt>
      <trkpt lat="37.76913195848465" lon="-3.726948034018278">
        <ele>437.39999999999998</ele>
        <time>2003-04-12T15:30:34Z</time>
      </trkpt>
      <trkpt lat="37.768687969073653" lon="-3.725899960845709">
        <ele>439.30000000000001</ele>
        <time>2003-04-12T15:30:37Z</time>
      </trkpt>
      <trkpt lat="37.768184971064329" lon="-3.724887007847428">
        <ele>441.69999999999999</ele>
        <time>2003-04-12T15:30:41Z</time>
      </trkpt>
      <trkpt lat="37.767633022740483" lon="-3.723906995728612">
        <ele>445.89999999999998</ele>
        <time>2003-04-12T15:30:44Z</time>
      </trkpt>
      <trkpt lat="37.767019970342517" lon="-3.722990015521646">
        <ele>451.69999999999999</ele>
        <time>2003-04-12T15:30:46Z</time>
      </trkpt>
      <trkpt lat="37.766361990943551" lon="-3.722136989235878">
        <ele>457.30000000000001</ele>
        <time>2003-04-12T15:30:49Z</time>
      </trkpt>
      <trkpt lat="37.765662018209696" lon="-3.721353029832244">
        <ele>462.19999999999999</ele>
        <time>2003-04-12T15:30:53Z</time>
      </trkpt>
      <trkpt lat="37.764927009120584" lon="-3.720636963844299">
        <ele>466.69999999999999</ele>
        <time>2003-04-12T15:30:56Z</time>
      </trkpt>
      <trkpt lat="37.76418998837471" lon="-3.719942020252347">
        <ele>472.60000000000002</ele>
        <time>2003-04-12T15:30:59Z</time>
      </trkpt>
      <trkpt lat="37.76347802951932" lon="-3.719216985628009">
        <ele>477.60000000000002</ele>
        <time>2003-04-12T15:31:01Z</time>
      </trkpt>
      <trkpt lat="37.762818038463593" lon="-3.718427997082472">
        <ele>482.5</ele>
        <time>2003-04-12T15:31:04Z</time>
      </trkpt>
      <trkpt lat="37.762232981622219" lon="-3.717557033523917">
        <ele>487.19999999999999</ele>
        <time>2003-04-12T15:31:08Z</time>
      </trkpt>
      <trkpt lat="37.761742975562811" lon="-3.716601999476552">
        <ele>491.80000000000001</ele>
        <time>2003-04-12T15:31:11Z</time>
      </trkpt>
      <trkpt lat="37.761154985055327" lon="-3.715291991829872">
        <ele>498.5</ele>
        <time>2003-04-12T15:31:15Z</time>
      </trkpt>
      <trkpt lat="37.760827001184225" lon="-3.714250037446618">
        <ele>503.80000000000001</ele>
        <time>2003-04-12T15:31:17Z</time>
      </trkpt>
      <trkpt lat="37.760522989556193" lon="-3.712829975411296">
        <ele>510.69999999999999</ele>
        <time>2003-04-12T15:31:21Z</time>
      </trkpt>
      <trkpt lat="37.760307993739843" lon="-3.711388036608696">
        <ele>517.29999999999995</ele>
        <time>2003-04-12T15:31:26Z</time>
      </trkpt>
      <trkpt lat="37.760074976831675" lon="-3.709954982623458">
        <ele>523.70000000000005</ele>
        <time>2003-04-12T15:31:30Z</time>
      </trkpt>
      <trkpt lat="37.759744981303811" lon="-3.708559982478619">
        <ele>529.29999999999995</ele>
        <time>2003-04-12T15:31:34Z</time>
      </trkpt>
      <trkpt lat="37.759303003549576" lon="-3.707198007032275">
        <ele>533.60000000000002</ele>
        <time>2003-04-12T15:31:38Z</time>
      </trkpt>
      <trkpt lat="37.758767986670136" lon="-3.705857992172241">
        <ele>537.10000000000002</ele>
        <time>2003-04-12T15:31:42Z</time>
      </trkpt>
      <trkpt lat="37.758315028622746" lon="-3.704872028902173">
        <ele>539.29999999999995</ele>
        <time>2003-04-12T15:31:44Z</time>
      </trkpt>
      <trkpt lat="37.757623018696904" lon="-3.703639972954989">
        <ele>540.39999999999998</ele>
        <time>2003-04-12T15:31:48Z</time>
      </trkpt>
      <trkpt lat="37.757022036239505" lon="-3.702755011618137">
        <ele>540.39999999999998</ele>
        <time>2003-04-12T15:31:51Z</time>
      </trkpt>
      <trkpt lat="37.756342012435198" lon="-3.70190198533237">
        <ele>539.79999999999995</ele>
        <time>2003-04-12T15:31:55Z</time>
      </trkpt>
      <trkpt lat="37.755614966154099" lon="-3.701069997623563">
        <ele>539</ele>
        <time>2003-04-12T15:31:58Z</time>
      </trkpt>
      <trkpt lat="37.754881968721747" lon="-3.70026801712811">
        <ele>538.5</ele>
        <time>2003-04-12T15:32:01Z</time>
      </trkpt>
      <trkpt lat="37.754200017079711" lon="-3.699469976127148">
        <ele>537.89999999999998</ele>
        <time>2003-04-12T15:32:03Z</time>
      </trkpt>
      <trkpt lat="37.75342795997858" lon="-3.698413018137217">
        <ele>537.20000000000005</ele>
        <time>2003-04-12T15:32:07Z</time>
      </trkpt>
      <trkpt lat="37.752711977809668" lon="-3.697272995486856">
        <ele>536.60000000000002</ele>
        <time>2003-04-12T15:32:11Z</time>
      </trkpt>
      <trkpt lat="37.752045029774308" lon="-3.696019984781742">
        <ele>535.89999999999998</ele>
        <time>2003-04-12T15:32:15Z</time>
      </trkpt>
      <trkpt lat="37.751487968489528" lon="-3.694707965478301">
        <ele>534.89999999999998</ele>
        <time>2003-04-12T15:32:20Z</time>
      </trkpt>
      <trkpt lat="37.751035010442138" lon="-3.693423019722104">
        <ele>533.79999999999995</ele>
        <time>2003-04-12T15:32:24Z</time>
      </trkpt>
      <trkpt lat="37.750596972182393" lon="-3.69210303761065">
        <ele>532.39999999999998</ele>
        <time>2003-04-12T15:32:28Z</time>
      </trkpt>
      <trkpt lat="37.750121969729662" lon="-3.690829994156957">
        <ele>530.79999999999995</ele>
        <time>2003-04-12T15:32:32Z</time>
      </trkpt>
      <trkpt lat="37.74951696395874" lon="-3.689580000936985">
        <ele>529.5</ele>
        <time>2003-04-12T15:32:36Z</time>
      </trkpt>
      <trkpt lat="37.748774997889996" lon="-3.688415000215173">
        <ele>528</ele>
        <time>2003-04-12T15:32:40Z</time>
      </trkpt>
      <trkpt lat="37.747921971604228" lon="-3.687359970062971">
        <ele>527</ele>
        <time>2003-04-12T15:32:44Z</time>
      </trkpt>
      <trkpt lat="37.746974984183908" lon="-3.686445001512766">
        <ele>526.20000000000005</ele>
        <time>2003-04-12T15:32:48Z</time>
      </trkpt>
      <trkpt lat="37.74599002674222" lon="-3.685702029615641">
        <ele>525.39999999999998</ele>
        <time>2003-04-12T15:32:52Z</time>
      </trkpt>
      <trkpt lat="37.744942959398031" lon="-3.685113033279777">
        <ele>524.89999999999998</ele>
        <time>2003-04-12T15:32:56Z</time>
      </trkpt>
      <trkpt lat="37.743826992809772" lon="-3.684672983363271">
        <ele>524.10000000000002</ele>
        <time>2003-04-12T15:33:00Z</time>
      </trkpt>
      <trkpt lat="37.742937002331018" lon="-3.684452958405018">
        <ele>522.5</ele>
        <time>2003-04-12T15:33:03Z</time>
      </trkpt>
      <trkpt lat="37.742003006860614" lon="-3.684332007542253">
        <ele>519.70000000000005</ele>
        <time>2003-04-12T15:33:05Z</time>
      </trkpt>
      <trkpt lat="37.741042021661997" lon="-3.684320021420717">
        <ele>516</ele>
        <time>2003-04-12T15:33:08Z</time>
      </trkpt>
      <trkpt lat="37.740053040906787" lon="-3.684435021132231">
        <ele>510.80000000000001</ele>
        <time>2003-04-12T15:33:12Z</time>
      </trkpt>
      <trkpt lat="37.739043021574616" lon="-3.684708019718528">
        <ele>505.10000000000002</ele>
        <time>2003-04-12T15:33:15Z</time>
      </trkpt>
      <trkpt lat="37.738037025555968" lon="-3.685083026066423">
        <ele>499.89999999999998</ele>
        <time>2003-04-12T15:33:18Z</time>
      </trkpt>
      <trkpt lat="37.737047960981727" lon="-3.685372034087777">
        <ele>495.69999999999999</ele>
        <time>2003-04-12T15:33:20Z</time>
      </trkpt>
      <trkpt lat="37.736027967184782" lon="-3.685488039627671">
        <ele>492</ele>
        <time>2003-04-12T15:33:23Z</time>
      </trkpt>
      <trkpt lat="37.734996993094683" lon="-3.68544202297926">
        <ele>489.80000000000001</ele>
        <time>2003-04-12T15:33:27Z</time>
      </trkpt>
      <trkpt lat="37.733969958499074" lon="-3.685202971100807">
        <ele>488.69999999999999</ele>
        <time>2003-04-12T15:33:30Z</time>
      </trkpt>
      <trkpt lat="37.732985001057386" lon="-3.684772979468107">
        <ele>488.69999999999999</ele>
        <time>2003-04-12T15:33:32Z</time>
      </trkpt>
      <trkpt lat="37.73204798810184" lon="-3.684208039194346">
        <ele>489.80000000000001</ele>
        <time>2003-04-12T15:33:35Z</time>
      </trkpt>
      <trkpt lat="37.731137964874506" lon="-3.683583000674844">
        <ele>490.39999999999998</ele>
        <time>2003-04-12T15:33:39Z</time>
      </trkpt>
      <trkpt lat="37.730222996324301" lon="-3.682976989075542">
        <ele>491.5</ele>
        <time>2003-04-12T15:33:42Z</time>
      </trkpt>
      <trkpt lat="37.729314984753728" lon="-3.682365026324987">
        <ele>492.60000000000002</ele>
        <time>2003-04-12T15:33:45Z</time>
      </trkpt>
      <trkpt lat="37.728407979011536" lon="-3.681758008897305">
        <ele>493.30000000000001</ele>
        <time>2003-04-12T15:33:47Z</time>
      </trkpt>
      <trkpt lat="37.727508014068007" lon="-3.68114504031837">
        <ele>494.39999999999998</ele>
        <time>2003-04-12T15:33:50Z</time>
      </trkpt>
      <trkpt lat="37.726605031639338" lon="-3.680544979870319">
        <ele>495.89999999999998</ele>
        <time>2003-04-12T15:33:54Z</time>
      </trkpt>
      <trkpt lat="37.725701965391636" lon="-3.679950032383204">
        <ele>497.19999999999999</ele>
        <time>2003-04-12T15:33:57Z</time>
      </trkpt>
      <trkpt lat="37.724803006276488" lon="-3.679357012733817">
        <ele>499.39999999999998</ele>
        <time>2003-04-12T15:33:59Z</time>
      </trkpt>
      <trkpt lat="37.723919972777367" lon="-3.67876198142767">
        <ele>502.30000000000001</ele>
        <time>2003-04-12T15:34:02Z</time>
      </trkpt>
      <trkpt lat="37.723053032532334" lon="-3.67818002589047">
        <ele>505.60000000000002</ele>
        <time>2003-04-12T15:34:06Z</time>
      </trkpt>
      <trkpt lat="37.722194977104664" lon="-3.67760200984776">
        <ele>508.69999999999999</ele>
        <time>2003-04-12T15:34:09Z</time>
      </trkpt>
      <trkpt lat="37.721334993839264" lon="-3.676991974934936">
        <ele>511</ele>
        <time>2003-04-12T15:34:12Z</time>
      </trkpt>
      <trkpt lat="37.720454977825284" lon="-3.676391998305917">
        <ele>512.5</ele>
        <time>2003-04-12T15:34:14Z</time>
      </trkpt>
      <trkpt lat="37.719568004831672" lon="-3.675780035555363">
        <ele>513.60000000000002</ele>
        <time>2003-04-12T15:34:17Z</time>
      </trkpt>
      <trkpt lat="37.718744985759258" lon="-3.675070004537702">
        <ele>515.29999999999995</ele>
        <time>2003-04-12T15:34:21Z</time>
      </trkpt>
      <trkpt lat="37.718037972226739" lon="-3.674187976866961">
        <ele>517.60000000000002</ele>
        <time>2003-04-12T15:34:24Z</time>
      </trkpt>
      <trkpt lat="37.717472026124597" lon="-3.67317502386868">
        <ele>521.5</ele>
        <time>2003-04-12T15:34:26Z</time>
      </trkpt>
      <trkpt lat="37.717076987028122" lon="-3.672067020088434">
        <ele>527.39999999999998</ele>
        <time>2003-04-12T15:34:29Z</time>
      </trkpt>
      <trkpt lat="37.716842964291573" lon="-3.670903025195003">
        <ele>532.70000000000005</ele>
        <time>2003-04-12T15:34:33Z</time>
      </trkpt>
      <trkpt lat="37.716753026470542" lon="-3.669722015038133">
        <ele>537.60000000000002</ele>
        <time>2003-04-12T15:34:36Z</time>
      </trkpt>
      <trkpt lat="37.716701980680227" lon="-3.668545028194785">
        <ele>542.60000000000002</ele>
        <time>2003-04-12T15:34:39Z</time>
      </trkpt>
      <trkpt lat="37.716635009273887" lon="-3.667387990280986">
        <ele>547.60000000000002</ele>
        <time>2003-04-12T15:34:41Z</time>
      </trkpt>
      <trkpt lat="37.716571977362037" lon="-3.666231958195567">
        <ele>551.10000000000002</ele>
        <time>2003-04-12T15:34:44Z</time>
      </trkpt>
      <trkpt lat="37.716517997905612" lon="-3.664721958339214">
        <ele>556.20000000000005</ele>
        <time>2003-04-12T15:34:48Z</time>
      </trkpt>
      <trkpt lat="37.71657700650394" lon="-3.663235008716583">
        <ele>560.20000000000005</ele>
        <time>2003-04-12T15:34:52Z</time>
      </trkpt>
      <trkpt lat="37.716756965965033" lon="-3.661732971668243">
        <ele>562.29999999999995</ele>
        <time>2003-04-12T15:34:56Z</time>
      </trkpt>
      <trkpt lat="37.716982020065188" lon="-3.660607030615211">
        <ele>563.20000000000005</ele>
        <time>2003-04-12T15:35:00Z</time>
      </trkpt>
      <trkpt lat="37.717306986451149" lon="-3.659485029056668">
        <ele>562.79999999999995</ele>
        <time>2003-04-12T15:35:03Z</time>
      </trkpt>
      <trkpt lat="37.717712000012398" lon="-3.658367972820997">
        <ele>561.89999999999998</ele>
        <time>2003-04-12T15:35:06Z</time>
      </trkpt>
      <trkpt lat="37.718182979151607" lon="-3.657285030931234">
        <ele>564</ele>
        <time>2003-04-12T15:35:08Z</time>
      </trkpt>
      <trkpt lat="37.718597967177629" lon="-3.656205022707582">
        <ele>568.29999999999995</ele>
        <time>2003-04-12T15:35:11Z</time>
      </trkpt>
      <trkpt lat="37.718880018219352" lon="-3.655097018927336">
        <ele>574.29999999999995</ele>
        <time>2003-04-12T15:35:15Z</time>
      </trkpt>
      <trkpt lat="37.718987977132201" lon="-3.653969988226891">
        <ele>579.60000000000002</ele>
        <time>2003-04-12T15:35:18Z</time>
      </trkpt>
      <trkpt lat="37.718950007110834" lon="-3.652847986668348">
        <ele>584.5</ele>
        <time>2003-04-12T15:35:20Z</time>
      </trkpt>
      <trkpt lat="37.718767030164599" lon="-3.651752974838018">
        <ele>588.70000000000005</ele>
        <time>2003-04-12T15:35:23Z</time>
      </trkpt>
      <trkpt lat="37.71849000826478" lon="-3.650697022676468">
        <ele>591.60000000000002</ele>
        <time>2003-04-12T15:35:27Z</time>
      </trkpt>
      <trkpt lat="37.718005031347275" lon="-3.649722961708903">
        <ele>592.20000000000005</ele>
        <time>2003-04-12T15:35:30Z</time>
      </trkpt>
      <trkpt lat="37.717376975342631" lon="-3.648836994543672">
        <ele>590.70000000000005</ele>
        <time>2003-04-12T15:35:33Z</time>
      </trkpt>
      <trkpt lat="37.716625034809113" lon="-3.648062003776431">
        <ele>587.70000000000005</ele>
        <time>2003-04-12T15:35:35Z</time>
      </trkpt>
      <trkpt lat="37.715820036828518" lon="-3.647302016615868">
        <ele>582.20000000000005</ele>
        <time>2003-04-12T15:35:38Z</time>
      </trkpt>
      <trkpt lat="37.715019984170794" lon="-3.646485032513738">
        <ele>576.39999999999998</ele>
        <time>2003-04-12T15:35:42Z</time>
      </trkpt>
      <trkpt lat="37.714233007282019" lon="-3.645612979307771">
        <ele>570</ele>
        <time>2003-04-12T15:35:45Z</time>
      </trkpt>
      <trkpt lat="37.713458016514778" lon="-3.644700022414327">
        <ele>563.89999999999998</ele>
        <time>2003-04-12T15:35:47Z</time>
      </trkpt>
      <trkpt lat="37.712708003818989" lon="-3.643752029165626">
        <ele>558.5</ele>
        <time>2003-04-12T15:35:50Z</time>
      </trkpt>
      <trkpt lat="37.712005013599992" lon="-3.642775034531951">
        <ele>552.60000000000002</ele>
        <time>2003-04-12T15:35:54Z</time>
      </trkpt>
      <trkpt lat="37.711317026987672" lon="-3.641820000484586">
        <ele>547.79999999999995</ele>
        <time>2003-04-12T15:35:57Z</time>
      </trkpt>
      <trkpt lat="37.710571959614754" lon="-3.640948031097651">
        <ele>544.89999999999998</ele>
        <time>2003-04-12T15:36:00Z</time>
      </trkpt>
      <trkpt lat="37.709762016311288" lon="-3.640158036723733">
        <ele>545</ele>
        <time>2003-04-12T15:36:02Z</time>
      </trkpt>
      <trkpt lat="37.708900021389127" lon="-3.639462003484368">
        <ele>547.70000000000005</ele>
        <time>2003-04-12T15:36:05Z</time>
      </trkpt>
      <trkpt lat="37.708007013425231" lon="-3.638896979391575">
        <ele>552.89999999999998</ele>
        <time>2003-04-12T15:36:09Z</time>
      </trkpt>
      <trkpt lat="37.707106964662671" lon="-3.638404961675406">
        <ele>559.60000000000002</ele>
        <time>2003-04-12T15:36:12Z</time>
      </trkpt>
      <trkpt lat="37.706216974183917" lon="-3.637929959222674">
        <ele>565</ele>
        <time>2003-04-12T15:36:14Z</time>
      </trkpt>
      <trkpt lat="37.70534198731184" lon="-3.637457974255085">
        <ele>570.79999999999995</ele>
        <time>2003-04-12T15:36:17Z</time>
      </trkpt>
      <trkpt lat="37.704506982117891" lon="-3.636990012601018">
        <ele>575.60000000000002</ele>
        <time>2003-04-12T15:36:21Z</time>
      </trkpt>
      <trkpt lat="37.703438038006425" lon="-3.636376960203052">
        <ele>579.39999999999998</ele>
        <time>2003-04-12T15:36:25Z</time>
      </trkpt>
      <trkpt lat="37.70235501229763" lon="-3.635764997452498">
        <ele>581.70000000000005</ele>
        <time>2003-04-12T15:36:28Z</time>
      </trkpt>
      <trkpt lat="37.701510032638907" lon="-3.635352021083236">
        <ele>583.10000000000002</ele>
        <time>2003-04-12T15:36:32Z</time>
      </trkpt>
      <trkpt lat="37.700632028281689" lon="-3.634967962279916">
        <ele>584.5</ele>
        <time>2003-04-12T15:36:35Z</time>
      </trkpt>
      <trkpt lat="37.699734997004271" lon="-3.634630003944039">
        <ele>587.20000000000005</ele>
        <time>2003-04-12T15:36:37Z</time>
      </trkpt>
      <trkpt lat="37.698833020403981" lon="-3.634326998144388">
        <ele>591.70000000000005</ele>
        <time>2003-04-12T15:36:40Z</time>
      </trkpt>
      <trkpt lat="37.697934983298182" lon="-3.634019969031215">
        <ele>595.10000000000002</ele>
        <time>2003-04-12T15:36:44Z</time>
      </trkpt>
      <trkpt lat="37.697063013911247" lon="-3.633640017360449">
        <ele>597.60000000000002</ele>
        <time>2003-04-12T15:36:47Z</time>
      </trkpt>
      <trkpt lat="37.696217028424144" lon="-3.633142970502377">
        <ele>598.89999999999998</ele>
        <time>2003-04-12T15:36:50Z</time>
      </trkpt>
      <trkpt lat="37.69539300352335" lon="-3.632594961673021">
        <ele>598.29999999999995</ele>
        <time>2003-04-12T15:36:52Z</time>
      </trkpt>
      <trkpt lat="37.694305032491684" lon="-3.632006971165538">
        <ele>595.79999999999995</ele>
        <time>2003-04-12T15:36:56Z</time>
      </trkpt>
      <trkpt lat="37.693419987335801" lon="-3.63173296675086">
        <ele>594</ele>
        <time>2003-04-12T15:36:59Z</time>
      </trkpt>
      <trkpt lat="37.692511975765228" lon="-3.631553007289767">
        <ele>592.5</ele>
        <time>2003-04-12T15:37:03Z</time>
      </trkpt>
      <trkpt lat="37.691604970023036" lon="-3.631401965394616">
        <ele>591</ele>
        <time>2003-04-12T15:37:06Z</time>
      </trkpt>
      <trkpt lat="37.690696958452463" lon="-3.631250001490116">
        <ele>590.39999999999998</ele>
        <time>2003-04-12T15:37:08Z</time>
      </trkpt>
      <trkpt lat="37.689788024872541" lon="-3.631097031757236">
        <ele>590</ele>
        <time>2003-04-12T15:37:11Z</time>
      </trkpt>
      <trkpt lat="37.689525000751019" lon="-3.630944984033704">
        <ele>590</ele>
        <time>2003-04-12T15:37:12Z</time>
      </trkpt>
      <trkpt lat="37.688448010012507" lon="-3.630332015454769">
        <ele>590.29999999999995</ele>
        <time>2003-04-12T15:37:17Z</time>
      </trkpt>
      <trkpt lat="37.68789698369801" lon="-3.630112996324897">
        <ele>590.5</ele>
        <time>2003-04-12T15:37:19Z</time>
      </trkpt>
      <trkpt lat="37.687012022361159" lon="-3.62999003380537">
        <ele>591.10000000000002</ele>
        <time>2003-04-12T15:37:22Z</time>
      </trkpt>
      <trkpt lat="37.686109961941838" lon="-3.629985004663467">
        <ele>591.39999999999998</ele>
        <time>2003-04-12T15:37:25Z</time>
      </trkpt>
      <trkpt lat="37.685537980869412" lon="-3.629891965538263">
        <ele>592.10000000000002</ele>
        <time>2003-04-12T15:37:26Z</time>
      </trkpt>
      <trkpt lat="37.684998018667102" lon="-3.629692979156971">
        <ele>592.29999999999995</ele>
        <time>2003-04-12T15:37:29Z</time>
      </trkpt>
      <trkpt lat="37.684471970424056" lon="-3.629400031641126">
        <ele>592.39999999999998</ele>
        <time>2003-04-12T15:37:30Z</time>
      </trkpt>
      <trkpt lat="37.683720029890537" lon="-3.628801982849836">
        <ele>591.89999999999998</ele>
        <time>2003-04-12T15:37:34Z</time>
      </trkpt>
      <trkpt lat="37.682757033035159" lon="-3.628051970154047">
        <ele>589.89999999999998</ele>
        <time>2003-04-12T15:37:38Z</time>
      </trkpt>
      <trkpt lat="37.681777020916343" lon="-3.627479989081621">
        <ele>589.39999999999998</ele>
        <time>2003-04-12T15:37:42Z</time>
      </trkpt>
      <trkpt lat="37.680919971317053" lon="-3.627095008268952">
        <ele>588.70000000000005</ele>
        <time>2003-04-12T15:37:46Z</time>
      </trkpt>
      <trkpt lat="37.680600034072995" lon="-3.626970034092665">
        <ele>589</ele>
        <time>2003-04-12T15:37:48Z</time>
      </trkpt>
      <trkpt lat="37.680010031908751" lon="-3.626783033832908">
        <ele>589.89999999999998</ele>
        <time>2003-04-12T15:37:52Z</time>
      </trkpt>
      <trkpt lat="37.679656986147165" lon="-3.626608019694686">
        <ele>590.20000000000005</ele>
        <time>2003-04-12T15:37:54Z</time>
      </trkpt>
      <trkpt lat="37.679460011422634" lon="-3.626525038853288">
        <ele>590.89999999999998</ele>
        <time>2003-04-12T15:37:57Z</time>
      </trkpt>
      <trkpt lat="37.679322967305779" lon="-3.626527972519398">
        <ele>591.70000000000005</ele>
        <time>2003-04-12T15:37:58Z</time>
      </trkpt>
      <trkpt lat="37.679248033091426" lon="-3.626607013866305">
        <ele>591.89999999999998</ele>
        <time>2003-04-12T15:38:01Z</time>
      </trkpt>
      <trkpt lat="37.679130015894771" lon="-3.626732993870974">
        <ele>591.89999999999998</ele>
        <time>2003-04-12T15:38:04Z</time>
      </trkpt>
      <trkpt lat="37.67900001257658" lon="-3.626720001921058">
        <ele>592.10000000000002</ele>
        <time>2003-04-12T15:38:05Z</time>
      </trkpt>
      <trkpt lat="37.678625006228685" lon="-3.62657499499619">
        <ele>592.79999999999995</ele>
        <time>2003-04-12T15:38:13Z</time>
      </trkpt>
      <trkpt lat="37.678538002073765" lon="-3.626525038853288">
        <ele>593.20000000000005</ele>
        <time>2003-04-12T15:38:16Z</time>
      </trkpt>
      <trkpt lat="37.678446974605322" lon="-3.626539958640933">
        <ele>593.79999999999995</ele>
        <time>2003-04-12T15:38:20Z</time>
      </trkpt>
      <trkpt lat="37.677899971604347" lon="-3.626012988388538">
        <ele>589.20000000000005</ele>
        <time>2003-04-12T15:51:55Z</time>
      </trkpt>
      <trkpt lat="37.678127037361264" lon="-3.625809978693724">
        <ele>589.20000000000005</ele>
        <time>2003-04-12T15:51:57Z</time>
      </trkpt>
      <trkpt lat="37.677840040996671" lon="-3.626147015020251">
        <ele>589.20000000000005</ele>
        <time>2003-04-12T15:52:01Z</time>
      </trkpt>
      <trkpt lat="37.677652034908533" lon="-3.62603503279388">
        <ele>590.89999999999998</ele>
        <time>2003-04-12T15:52:25Z</time>
      </trkpt>
      <trkpt lat="37.677375013008714" lon="-3.625941993668675">
        <ele>592</ele>
        <time>2003-04-12T15:52:30Z</time>
      </trkpt>
      <trkpt lat="37.677245009690523" lon="-3.625832023099065">
        <ele>592.39999999999998</ele>
        <time>2003-04-12T15:52:33Z</time>
      </trkpt>
      <trkpt lat="37.677092961966991" lon="-3.625691961497068">
        <ele>592.79999999999995</ele>
        <time>2003-04-12T15:52:36Z</time>
      </trkpt>
      <trkpt lat="37.677003024145961" lon="-3.625622978433967">
        <ele>593.10000000000002</ele>
        <time>2003-04-12T15:52:39Z</time>
      </trkpt>
      <trkpt lat="37.676900010555983" lon="-3.625591965392232">
        <ele>593.60000000000002</ele>
        <time>2003-04-12T15:52:40Z</time>
      </trkpt>
      <trkpt lat="37.676762966439128" lon="-3.625557012856007">
        <ele>595.5</ele>
        <time>2003-04-12T15:52:48Z</time>
      </trkpt>
      <trkpt lat="37.67657202668488" lon="-3.625555001199246">
        <ele>596.5</ele>
        <time>2003-04-12T15:52:52Z</time>
      </trkpt>
      <trkpt lat="37.676404975354671" lon="-3.625547960400581">
        <ele>597.20000000000005</ele>
        <time>2003-04-12T15:52:53Z</time>
      </trkpt>
      <trkpt lat="37.675852021202445" lon="-3.625547038391233">
        <ele>599.10000000000002</ele>
        <time>2003-04-12T15:53:00Z</time>
      </trkpt>
      <trkpt lat="37.675582962110639" lon="-3.625534968450666">
        <ele>599.70000000000005</ele>
        <time>2003-04-12T15:53:03Z</time>
      </trkpt>
      <trkpt lat="37.675495035946369" lon="-3.625488029792905">
        <ele>600.20000000000005</ele>
        <time>2003-04-12T15:53:04Z</time>
      </trkpt>
      <trkpt lat="37.675442984327674" lon="-3.625385016202927">
        <ele>600.5</ele>
        <time>2003-04-12T15:53:07Z</time>
      </trkpt>
      <trkpt lat="37.675457987934351" lon="-3.625232968479395">
        <ele>600.29999999999995</ele>
        <time>2003-04-12T15:53:08Z</time>
      </trkpt>
      <trkpt lat="37.675422029569745" lon="-3.625089973211289">
        <ele>600</ele>
        <time>2003-04-12T15:53:11Z</time>
      </trkpt>
      <trkpt lat="37.675293032079935" lon="-3.625013027340174">
        <ele>600.20000000000005</ele>
        <time>2003-04-12T15:53:12Z</time>
      </trkpt>
      <trkpt lat="37.675056997686625" lon="-3.624913031235337">
        <ele>600.10000000000002</ele>
        <time>2003-04-12T15:53:15Z</time>
      </trkpt>
      <trkpt lat="37.674872009083629" lon="-3.624804988503456">
        <ele>599.79999999999995</ele>
        <time>2003-04-12T15:53:18Z</time>
      </trkpt>
      <trkpt lat="37.674655001610518" lon="-3.624657969921827">
        <ele>598.79999999999995</ele>
        <time>2003-04-12T15:53:19Z</time>
      </trkpt>
      <trkpt lat="37.674330035224557" lon="-3.624357981607318">
        <ele>596.89999999999998</ele>
        <time>2003-04-12T15:53:23Z</time>
      </trkpt>
      <trkpt lat="37.673533000051975" lon="-3.623605035245419">
        <ele>595.60000000000002</ele>
        <time>2003-04-12T15:53:30Z</time>
      </trkpt>
      <trkpt lat="37.67279296182096" lon="-3.622843036428094">
        <ele>596.5</ele>
        <time>2003-04-12T15:53:35Z</time>
      </trkpt>
      <trkpt lat="37.672015037387609" lon="-3.621894959360361">
        <ele>597.10000000000002</ele>
        <time>2003-04-12T15:53:42Z</time>
      </trkpt>
      <trkpt lat="37.67124499194324" lon="-3.621092978864908">
        <ele>598.60000000000002</ele>
        <time>2003-04-12T15:53:46Z</time>
      </trkpt>
      <trkpt lat="37.670424990355968" lon="-3.620498031377792">
        <ele>600.89999999999998</ele>
        <time>2003-04-12T15:53:51Z</time>
      </trkpt>
      <trkpt lat="37.669642958790064" lon="-3.620127970352769">
        <ele>603.10000000000002</ele>
        <time>2003-04-12T15:53:56Z</time>
      </trkpt>
      <trkpt lat="37.668767971917987" lon="-3.619760004803538">
        <ele>605</ele>
        <time>2003-04-12T15:54:00Z</time>
      </trkpt>
      <trkpt lat="37.666842984035611" lon="-3.618928017094731">
        <ele>609</ele>
        <time>2003-04-12T15:54:08Z</time>
      </trkpt>
      <trkpt lat="37.665832964703441" lon="-3.618486961349845">
        <ele>611.10000000000002</ele>
        <time>2003-04-12T15:54:12Z</time>
      </trkpt>
      <trkpt lat="37.664844989776611" lon="-3.618041966110468">
        <ele>613.29999999999995</ele>
        <time>2003-04-12T15:54:16Z</time>
      </trkpt>
      <trkpt lat="37.664006967097521" lon="-3.617541985586286">
        <ele>615.20000000000005</ele>
        <time>2003-04-12T15:54:20Z</time>
      </trkpt>
      <trkpt lat="37.66368200071156" lon="-3.617239985615015">
        <ele>616.10000000000002</ele>
        <time>2003-04-12T15:54:21Z</time>
      </trkpt>
      <trkpt lat="37.662997031584382" lon="-3.616401962935925">
        <ele>617.89999999999998</ele>
        <time>2003-04-12T15:54:27Z</time>
      </trkpt>
      <trkpt lat="37.662654966115952" lon="-3.615840040147305">
        <ele>619.39999999999998</ele>
        <time>2003-04-12T15:54:29Z</time>
      </trkpt>
      <trkpt lat="37.662141993641853" lon="-3.614870002493262">
        <ele>620.89999999999998</ele>
        <time>2003-04-12T15:54:35Z</time>
      </trkpt>
      <trkpt lat="37.66200796701014" lon="-3.614703034982085">
        <ele>621.20000000000005</ele>
        <time>2003-04-12T15:54:36Z</time>
      </trkpt>
      <trkpt lat="37.661332972347736" lon="-3.613908011466265">
        <ele>623.10000000000002</ele>
        <time>2003-04-12T15:54:40Z</time>
      </trkpt>
      <trkpt lat="37.660597963258624" lon="-3.613190017640591">
        <ele>624.39999999999998</ele>
        <time>2003-04-12T15:54:45Z</time>
      </trkpt>
      <trkpt lat="37.659790031611919" lon="-3.612273037433624">
        <ele>624.39999999999998</ele>
        <time>2003-04-12T15:54:51Z</time>
      </trkpt>
      <trkpt lat="37.659152001142502" lon="-3.611326972022653">
        <ele>624.29999999999995</ele>
        <time>2003-04-12T15:54:55Z</time>
      </trkpt>
      <trkpt lat="37.658747993409634" lon="-3.61046296544373">
        <ele>625.20000000000005</ele>
        <time>2003-04-12T15:54:58Z</time>
      </trkpt>
      <trkpt lat="37.658314984291792" lon="-3.609154969453812">
        <ele>626.29999999999995</ele>
        <time>2003-04-12T15:55:02Z</time>
      </trkpt>
      <trkpt lat="37.657884992659092" lon="-3.607862982898951">
        <ele>627.70000000000005</ele>
        <time>2003-04-12T15:55:06Z</time>
      </trkpt>
      <trkpt lat="37.657462963834405" lon="-3.607002999633551">
        <ele>628.5</ele>
        <time>2003-04-12T15:55:08Z</time>
      </trkpt>
      <trkpt lat="37.65689198859036" lon="-3.606262961402535">
        <ele>629.79999999999995</ele>
        <time>2003-04-12T15:55:11Z</time>
      </trkpt>
      <trkpt lat="37.65622797422111" lon="-3.605697015300393">
        <ele>630.60000000000002</ele>
        <time>2003-04-12T15:55:15Z</time>
      </trkpt>
      <trkpt lat="37.655736962333322" lon="-3.6054100189358">
        <ele>631.29999999999995</ele>
        <time>2003-04-12T15:55:17Z</time>
      </trkpt>
      <trkpt lat="37.654953002929688" lon="-3.605138026177883">
        <ele>632.70000000000005</ele>
        <time>2003-04-12T15:55:19Z</time>
      </trkpt>
      <trkpt lat="37.654410023242235" lon="-3.605071976780891">
        <ele>633.29999999999995</ele>
        <time>2003-04-12T15:55:22Z</time>
      </trkpt>
      <trkpt lat="37.653854973614216" lon="-3.60511195845902">
        <ele>633.39999999999998</ele>
        <time>2003-04-12T15:55:23Z</time>
      </trkpt>
      <trkpt lat="37.653291961178184" lon="-3.605240033939481">
        <ele>633.70000000000005</ele>
        <time>2003-04-12T15:55:26Z</time>
      </trkpt>
      <trkpt lat="37.652152022346854" lon="-3.605627026408911">
        <ele>635.89999999999998</ele>
        <time>2003-04-12T15:55:30Z</time>
      </trkpt>
      <trkpt lat="37.6512620318681" lon="-3.605917040258646">
        <ele>637</ele>
        <time>2003-04-12T15:55:33Z</time>
      </trkpt>
      <trkpt lat="37.650355026125908" lon="-3.606222979724407">
        <ele>638.39999999999998</ele>
        <time>2003-04-12T15:55:35Z</time>
      </trkpt>
      <trkpt lat="37.649442991241813" lon="-3.606522968038917">
        <ele>639.79999999999995</ele>
        <time>2003-04-12T15:55:38Z</time>
      </trkpt>
      <trkpt lat="37.64853497967124" lon="-3.606767971068621">
        <ele>641.39999999999998</ele>
        <time>2003-04-12T15:55:42Z</time>
      </trkpt>
      <trkpt lat="37.647626968100667" lon="-3.606956982985139">
        <ele>642.79999999999995</ele>
        <time>2003-04-12T15:55:45Z</time>
      </trkpt>
      <trkpt lat="37.646691966801882" lon="-3.607090003788471">
        <ele>643.79999999999995</ele>
        <time>2003-04-12T15:55:48Z</time>
      </trkpt>
      <trkpt lat="37.64574003405869" lon="-3.607165021821857">
        <ele>646</ele>
        <time>2003-04-12T15:55:50Z</time>
      </trkpt>
      <trkpt lat="37.644788017496467" lon="-3.607205003499985">
        <ele>649.70000000000005</ele>
        <time>2003-04-12T15:55:53Z</time>
      </trkpt>
      <trkpt lat="37.643838012591004" lon="-3.607197962701321">
        <ele>653.5</ele>
        <time>2003-04-12T15:55:57Z</time>
      </trkpt>
      <trkpt lat="37.642893036827445" lon="-3.607154963538051">
        <ele>657.89999999999998</ele>
        <time>2003-04-12T15:56:00Z</time>
      </trkpt>
      <trkpt lat="37.641946971416473" lon="-3.607069971039891">
        <ele>662.39999999999998</ele>
        <time>2003-04-12T15:56:02Z</time>
      </trkpt>
      <trkpt lat="37.641009958460927" lon="-3.606942985206842">
        <ele>666.10000000000002</ele>
        <time>2003-04-12T15:56:05Z</time>
      </trkpt>
      <trkpt lat="37.640073029324412" lon="-3.606762019917369">
        <ele>670</ele>
        <time>2003-04-12T15:56:09Z</time>
      </trkpt>
      <trkpt lat="37.639137022197247" lon="-3.606496984139085">
        <ele>672.10000000000002</ele>
        <time>2003-04-12T15:56:12Z</time>
      </trkpt>
      <trkpt lat="37.638197997584939" lon="-3.606172017753124">
        <ele>672.5</ele>
        <time>2003-04-12T15:56:15Z</time>
      </trkpt>
      <trkpt lat="37.637255033478141" lon="-3.60586297698319">
        <ele>671.89999999999998</ele>
        <time>2003-04-12T15:56:17Z</time>
      </trkpt>
      <trkpt lat="37.63630997389555" lon="-3.605727022513747">
        <ele>672.39999999999998</ele>
        <time>2003-04-12T15:56:20Z</time>
      </trkpt>
      <trkpt lat="37.635128041729331" lon="-3.605649992823601">
        <ele>673.70000000000005</ele>
        <time>2003-04-12T15:56:24Z</time>
      </trkpt>
      <trkpt lat="37.633972009643912" lon="-3.605359978973866">
        <ele>675</ele>
        <time>2003-04-12T15:56:28Z</time>
      </trkpt>
      <trkpt lat="37.633132981136441" lon="-3.604927975684404">
        <ele>676.89999999999998</ele>
        <time>2003-04-12T15:56:32Z</time>
      </trkpt>
      <trkpt lat="37.632308034226298" lon="-3.604403017088771">
        <ele>678.39999999999998</ele>
        <time>2003-04-12T15:56:35Z</time>
      </trkpt>
      <trkpt lat="37.631449978798628" lon="-3.603937989100814">
        <ele>680.39999999999998</ele>
        <time>2003-04-12T15:56:38Z</time>
      </trkpt>
      <trkpt lat="37.630847990512848" lon="-3.603745037689805">
        <ele>683.39999999999998</ele>
        <time>2003-04-12T15:56:40Z</time>
      </trkpt>
      <trkpt lat="37.629939978942275" lon="-3.603617968037725">
        <ele>687.70000000000005</ele>
        <time>2003-04-12T15:56:43Z</time>
      </trkpt>
      <trkpt lat="37.62902501039207" lon="-3.603579998016357">
        <ele>691</ele>
        <time>2003-04-12T15:56:46Z</time>
      </trkpt>
      <trkpt lat="37.628090009093285" lon="-3.603543033823371">
        <ele>692.39999999999998</ele>
        <time>2003-04-12T15:56:48Z</time>
      </trkpt>
      <trkpt lat="37.627140004187822" lon="-3.60349802300334">
        <ele>693.89999999999998</ele>
        <time>2003-04-12T15:56:51Z</time>
      </trkpt>
      <trkpt lat="37.626172984018922" lon="-3.603452006354928">
        <ele>695.5</ele>
        <time>2003-04-12T15:56:55Z</time>
      </trkpt>
      <trkpt lat="37.625188026577234" lon="-3.60339199192822">
        <ele>696.79999999999995</ele>
        <time>2003-04-12T15:56:58Z</time>
      </trkpt>
      <trkpt lat="37.624189993366599" lon="-3.603338012471795">
        <ele>697.60000000000002</ele>
        <time>2003-04-12T15:57:00Z</time>
      </trkpt>
      <trkpt lat="37.623177962377667" lon="-3.603297024965286">
        <ele>698.39999999999998</ele>
        <time>2003-04-12T15:57:03Z</time>
      </trkpt>
      <trkpt lat="37.622174983844161" lon="-3.603255031630397">
        <ele>701.20000000000005</ele>
        <time>2003-04-12T15:57:07Z</time>
      </trkpt>
      <trkpt lat="37.621203018352389" lon="-3.603123016655445">
        <ele>704.5</ele>
        <time>2003-04-12T15:57:10Z</time>
      </trkpt>
      <trkpt lat="37.620276985689998" lon="-3.602782962843776">
        <ele>707.39999999999998</ele>
        <time>2003-04-12T15:57:13Z</time>
      </trkpt>
      <trkpt lat="37.619426976889372" lon="-3.602236965671182">
        <ele>710.29999999999995</ele>
        <time>2003-04-12T15:57:15Z</time>
      </trkpt>
      <trkpt lat="37.618660032749176" lon="-3.601531963795424">
        <ele>712.89999999999998</ele>
        <time>2003-04-12T15:57:18Z</time>
      </trkpt>
      <trkpt lat="37.617872972041368" lon="-3.600882031023502">
        <ele>714.29999999999995</ele>
        <time>2003-04-12T15:57:22Z</time>
      </trkpt>
      <trkpt lat="37.617317000404" lon="-3.600586988031864">
        <ele>715.79999999999995</ele>
        <time>2003-04-12T15:57:23Z</time>
      </trkpt>
      <trkpt lat="37.616742001846433" lon="-3.600407028570771">
        <ele>717.5</ele>
        <time>2003-04-12T15:57:26Z</time>
      </trkpt>
      <trkpt lat="37.616151999682188" lon="-3.600320024415851">
        <ele>718.89999999999998</ele>
        <time>2003-04-12T15:57:27Z</time>
      </trkpt>
      <trkpt lat="37.61555696837604" lon="-3.600354976952076">
        <ele>720.20000000000005</ele>
        <time>2003-04-12T15:57:30Z</time>
      </trkpt>
      <trkpt lat="37.61497501283884" lon="-3.600524961948395">
        <ele>721.39999999999998</ele>
        <time>2003-04-12T15:57:32Z</time>
      </trkpt>
      <trkpt lat="37.613849993795156" lon="-3.601055033504963">
        <ele>724.5</ele>
        <time>2003-04-12T15:57:36Z</time>
      </trkpt>
      <trkpt lat="37.612995039671659" lon="-3.601474966853857">
        <ele>726.60000000000002</ele>
        <time>2003-04-12T15:57:38Z</time>
      </trkpt>
      <trkpt lat="37.612132038921118" lon="-3.601913005113602">
        <ele>728.60000000000002</ele>
        <time>2003-04-12T15:57:41Z</time>
      </trkpt>
      <trkpt lat="37.611263003200293" lon="-3.602341990917921">
        <ele>730.89999999999998</ele>
        <time>2003-04-12T15:57:45Z</time>
      </trkpt>
      <trkpt lat="37.610667971894145" lon="-3.602522034198046">
        <ele>733.20000000000005</ele>
        <time>2003-04-12T15:57:46Z</time>
      </trkpt>
      <trkpt lat="37.609755015000701" lon="-3.602593028917909">
        <ele>736.20000000000005</ele>
        <time>2003-04-12T15:57:49Z</time>
      </trkpt>
      <trkpt lat="37.608852032572031" lon="-3.602509964257479">
        <ele>738.10000000000002</ele>
        <time>2003-04-12T15:57:53Z</time>
      </trkpt>
      <trkpt lat="37.607991965487599" lon="-3.60214501619339">
        <ele>738.79999999999995</ele>
        <time>2003-04-12T15:57:56Z</time>
      </trkpt>
      <trkpt lat="37.607170036062598" lon="-3.601652998477221">
        <ele>738.79999999999995</ele>
        <time>2003-04-12T15:57:59Z</time>
      </trkpt>
      <trkpt lat="37.606318015605211" lon="-3.601229963824153">
        <ele>739.79999999999995</ele>
        <time>2003-04-12T15:58:01Z</time>
      </trkpt>
      <trkpt lat="37.605172963812947" lon="-3.600826961919665">
        <ele>742.79999999999995</ele>
        <time>2003-04-12T15:58:05Z</time>
      </trkpt>
      <trkpt lat="37.604058003053069" lon="-3.600452961400151">
        <ele>744.39999999999998</ele>
        <time>2003-04-12T15:58:09Z</time>
      </trkpt>
      <trkpt lat="37.60322299785912" lon="-3.600314995273948">
        <ele>746.10000000000002</ele>
        <time>2003-04-12T15:58:12Z</time>
      </trkpt>
      <trkpt lat="37.602371983230114" lon="-3.600342990830541">
        <ele>749</ele>
        <time>2003-04-12T15:58:16Z</time>
      </trkpt>
      <trkpt lat="37.601815005764365" lon="-3.600487997755408">
        <ele>751</ele>
        <time>2003-04-12T15:58:17Z</time>
      </trkpt>
      <trkpt lat="37.601004978641868" lon="-3.6008579749614">
        <ele>753.89999999999998</ele>
        <time>2003-04-12T15:58:20Z</time>
      </trkpt>
      <trkpt lat="37.599920025095344" lon="-3.601402966305614">
        <ele>757.79999999999995</ele>
        <time>2003-04-12T15:58:24Z</time>
      </trkpt>
      <trkpt lat="37.599087031558156" lon="-3.601839998736978">
        <ele>758.39999999999998</ele>
        <time>2003-04-12T15:58:28Z</time>
      </trkpt>
      <trkpt lat="37.598242973908782" lon="-3.602247023954988">
        <ele>759.60000000000002</ele>
        <time>2003-04-12T15:58:31Z</time>
      </trkpt>
      <trkpt lat="37.597137987613678" lon="-3.602727977558971">
        <ele>761.20000000000005</ele>
        <time>2003-04-12T15:58:35Z</time>
      </trkpt>
      <trkpt lat="37.596557037904859" lon="-3.602854963392019">
        <ele>762.10000000000002</ele>
        <time>2003-04-12T15:58:36Z</time>
      </trkpt>
      <trkpt lat="37.595952032133937" lon="-3.602872984483838">
        <ele>762.29999999999995</ele>
        <time>2003-04-12T15:58:39Z</time>
      </trkpt>
      <trkpt lat="37.595021976158023" lon="-3.602782040834427">
        <ele>762.20000000000005</ele>
        <time>2003-04-12T15:58:42Z</time>
      </trkpt>
      <trkpt lat="37.59406803175807" lon="-3.602677015587688">
        <ele>762.60000000000002</ele>
        <time>2003-04-12T15:58:44Z</time>
      </trkpt>
      <trkpt lat="37.592962961643934" lon="-3.602560004219413">
        <ele>765.89999999999998</ele>
        <time>2003-04-12T15:58:48Z</time>
      </trkpt>
      <trkpt lat="37.591925030574203" lon="-3.602454978972673">
        <ele>770</ele>
        <time>2003-04-12T15:58:53Z</time>
      </trkpt>
      <trkpt lat="37.59084502235055" lon="-3.602456990629435">
        <ele>773.39999999999998</ele>
        <time>2003-04-12T15:58:57Z</time>
      </trkpt>
      <trkpt lat="37.589726960286498" lon="-3.602502001449466">
        <ele>775.79999999999995</ele>
        <time>2003-04-12T15:59:01Z</time>
      </trkpt>
      <trkpt lat="37.588567994534969" lon="-3.602437041699886">
        <ele>777.29999999999995</ele>
        <time>2003-04-12T15:59:05Z</time>
      </trkpt>
      <trkpt lat="37.587382039055228" lon="-3.602235037833452">
        <ele>778.10000000000002</ele>
        <time>2003-04-12T15:59:09Z</time>
      </trkpt>
      <trkpt lat="37.586272023618221" lon="-3.602022975683212">
        <ele>779.20000000000005</ele>
        <time>2003-04-12T15:59:13Z</time>
      </trkpt>
      <trkpt lat="37.585723008960485" lon="-3.602005038410425">
        <ele>780.10000000000002</ele>
        <time>2003-04-12T15:59:14Z</time>
      </trkpt>
      <trkpt lat="37.585177011787891" lon="-3.602097993716598">
        <ele>781.5</ele>
        <time>2003-04-12T15:59:17Z</time>
      </trkpt>
      <trkpt lat="37.584385005757213" lon="-3.602412985637784">
        <ele>783.39999999999998</ele>
        <time>2003-04-12T15:59:20Z</time>
      </trkpt>
      <trkpt lat="37.583897011354566" lon="-3.602741975337267">
        <ele>784.60000000000002</ele>
        <time>2003-04-12T15:59:22Z</time>
      </trkpt>
      <trkpt lat="37.583237020298839" lon="-3.603380005806685">
        <ele>786.79999999999995</ele>
        <time>2003-04-12T15:59:25Z</time>
      </trkpt>
      <trkpt lat="37.582449959591031" lon="-3.604409974068403">
        <ele>791.5</ele>
        <time>2003-04-12T15:59:29Z</time>
      </trkpt>
      <trkpt lat="37.581819975748658" lon="-3.605140037834644">
        <ele>793.29999999999995</ele>
        <time>2003-04-12T15:59:32Z</time>
      </trkpt>
      <trkpt lat="37.581083038821816" lon="-3.605717970058322">
        <ele>795.20000000000005</ele>
        <time>2003-04-12T15:59:34Z</time>
      </trkpt>
      <trkpt lat="37.580257002264261" lon="-3.606109991669655">
        <ele>797.5</ele>
        <time>2003-04-12T15:59:37Z</time>
      </trkpt>
      <trkpt lat="37.579385032877326" lon="-3.606354994699359">
        <ele>800</ele>
        <time>2003-04-12T15:59:41Z</time>
      </trkpt>
      <trkpt lat="37.578778015449643" lon="-3.60637997277081">
        <ele>802.10000000000002</ele>
        <time>2003-04-12T15:59:42Z</time>
      </trkpt>
      <trkpt lat="37.577877966687083" lon="-3.606409979984164">
        <ele>805.10000000000002</ele>
        <time>2003-04-12T15:59:45Z</time>
      </trkpt>
      <trkpt lat="37.577306991443038" lon="-3.606515005230904">
        <ele>806.70000000000005</ele>
        <time>2003-04-12T15:59:48Z</time>
      </trkpt>
      <trkpt lat="37.576487995684147" lon="-3.60685296356678">
        <ele>810</ele>
        <time>2003-04-12T15:59:51Z</time>
      </trkpt>
      <trkpt lat="37.57597996853292" lon="-3.607193017378449">
        <ele>811.79999999999995</ele>
        <time>2003-04-12T15:59:52Z</time>
      </trkpt>
      <trkpt lat="37.575287958607078" lon="-3.607857031747699">
        <ele>813.70000000000005</ele>
        <time>2003-04-12T15:59:56Z</time>
      </trkpt>
      <trkpt lat="37.574453037232161" lon="-3.608922958374023">
        <ele>816.29999999999995</ele>
        <time>2003-04-12T16:00:00Z</time>
      </trkpt>
      <trkpt lat="37.573878038674593" lon="-3.609808003529906">
        <ele>818.29999999999995</ele>
        <time>2003-04-12T16:00:04Z</time>
      </trkpt>
      <trkpt lat="37.573351990431547" lon="-3.61076002009213">
        <ele>820.29999999999995</ele>
        <time>2003-04-12T16:00:07Z</time>
      </trkpt>
      <trkpt lat="37.572892997413874" lon="-3.611795017495751">
        <ele>822.39999999999998</ele>
        <time>2003-04-12T16:00:09Z</time>
      </trkpt>
      <trkpt lat="37.572489995509386" lon="-3.612873014062643">
        <ele>825.29999999999995</ele>
        <time>2003-04-12T16:00:12Z</time>
      </trkpt>
      <trkpt lat="37.572087999433279" lon="-3.613937012851238">
        <ele>828.70000000000005</ele>
        <time>2003-04-12T16:00:16Z</time>
      </trkpt>
      <trkpt lat="37.571566980332136" lon="-3.614905038848519">
        <ele>831.39999999999998</ele>
        <time>2003-04-12T16:00:19Z</time>
      </trkpt>
      <trkpt lat="37.571121985092759" lon="-3.615463022142649">
        <ele>833</ele>
        <time>2003-04-12T16:00:20Z</time>
      </trkpt>
      <trkpt lat="37.570361997932196" lon="-3.616191996261478">
        <ele>833.79999999999995</ele>
        <time>2003-04-12T16:00:23Z</time>
      </trkpt>
      <trkpt lat="37.569612991064787" lon="-3.616962963715196">
        <ele>834.60000000000002</ele>
        <time>2003-04-12T16:00:27Z</time>
      </trkpt>
      <trkpt lat="37.569182999432087" lon="-3.61757299862802">
        <ele>835.39999999999998</ele>
        <time>2003-04-12T16:00:28Z</time>
      </trkpt>
      <trkpt lat="37.568623004481196" lon="-3.618572037667036">
        <ele>837.39999999999998</ele>
        <time>2003-04-12T16:00:31Z</time>
      </trkpt>
      <trkpt lat="37.568026967346668" lon="-3.619532017037273">
        <ele>839</ele>
        <time>2003-04-12T16:00:35Z</time>
      </trkpt>
      <trkpt lat="37.567349961027503" lon="-3.620407003909349">
        <ele>840.70000000000005</ele>
        <time>2003-04-12T16:00:38Z</time>
      </trkpt>
      <trkpt lat="37.566607994958758" lon="-3.621196998283267">
        <ele>843.79999999999995</ele>
        <time>2003-04-12T16:00:41Z</time>
      </trkpt>
      <trkpt lat="37.56583996117115" lon="-3.621937958523631">
        <ele>847.89999999999998</ele>
        <time>2003-04-12T16:00:43Z</time>
      </trkpt>
      <trkpt lat="37.56508500315249" lon="-3.622677996754646">
        <ele>853.60000000000002</ele>
        <time>2003-04-12T16:00:46Z</time>
      </trkpt>
      <trkpt lat="37.564337002113461" lon="-3.623407976701856">
        <ele>858.89999999999998</ele>
        <time>2003-04-12T16:00:50Z</time>
      </trkpt>
      <trkpt lat="37.563592018559575" lon="-3.624120019376278">
        <ele>864.20000000000005</ele>
        <time>2003-04-12T16:00:53Z</time>
      </trkpt>
      <trkpt lat="37.562833037227392" lon="-3.624777998775244">
        <ele>869.79999999999995</ele>
        <time>2003-04-12T16:00:55Z</time>
      </trkpt>
      <trkpt lat="37.562032984569669" lon="-3.625325001776218">
        <ele>875.29999999999995</ele>
        <time>2003-04-12T16:00:58Z</time>
      </trkpt>
      <trkpt lat="37.561178030446172" lon="-3.625688022002578">
        <ele>880.79999999999995</ele>
        <time>2003-04-12T16:01:02Z</time>
      </trkpt>
      <trkpt lat="37.560298014432192" lon="-3.625860018655658">
        <ele>886.10000000000002</ele>
        <time>2003-04-12T16:01:05Z</time>
      </trkpt>
      <trkpt lat="37.5591129809618" lon="-3.625882985070348">
        <ele>892.5</ele>
        <time>2003-04-12T16:01:09Z</time>
      </trkpt>
      <trkpt lat="37.557936999946833" lon="-3.625969989225268">
        <ele>898.5</ele>
        <time>2003-04-12T16:01:13Z</time>
      </trkpt>
      <trkpt lat="37.557087996974587" lon="-3.626239970326424">
        <ele>903.70000000000005</ele>
        <time>2003-04-12T16:01:16Z</time>
      </trkpt>
      <trkpt lat="37.556296996772289" lon="-3.626684965565801">
        <ele>908.60000000000002</ele>
        <time>2003-04-12T16:01:18Z</time>
      </trkpt>
      <trkpt lat="37.555574979633093" lon="-3.627274967730045">
        <ele>913.70000000000005</ele>
        <time>2003-04-12T16:01:21Z</time>
      </trkpt>
      <trkpt lat="37.554694963619113" lon="-3.628164958208799">
        <ele>920.79999999999995</ele>
        <time>2003-04-12T16:01:25Z</time>
      </trkpt>
      <trkpt lat="37.553755016997457" lon="-3.628922011703253">
        <ele>927.39999999999998</ele>
        <time>2003-04-12T16:01:29Z</time>
      </trkpt>
      <trkpt lat="37.552744997665286" lon="-3.629513019695878">
        <ele>933</ele>
        <time>2003-04-12T16:01:33Z</time>
      </trkpt>
      <trkpt lat="37.551766997203231" lon="-3.630172004923224">
        <ele>938.89999999999998</ele>
        <time>2003-04-12T16:01:37Z</time>
      </trkpt>
      <trkpt lat="37.550877006724477" lon="-3.631004998460412">
        <ele>945</ele>
        <time>2003-04-12T16:01:41Z</time>
      </trkpt>
      <trkpt lat="37.550077959895134" lon="-3.631960032507777">
        <ele>952.29999999999995</ele>
        <time>2003-04-12T16:01:45Z</time>
      </trkpt>
      <trkpt lat="37.549287965521216" lon="-3.63291003741324">
        <ele>959</ele>
        <time>2003-04-12T16:01:49Z</time>
      </trkpt>
      <trkpt lat="37.548408033326268" lon="-3.633722998201847">
        <ele>964.89999999999998</ele>
        <time>2003-04-12T16:01:53Z</time>
      </trkpt>
      <trkpt lat="37.547437995672226" lon="-3.634357005357742">
        <ele>971</ele>
        <time>2003-04-12T16:01:57Z</time>
      </trkpt>
      <trkpt lat="37.54639302380383" lon="-3.634772999212146">
        <ele>977.5</ele>
        <time>2003-04-12T16:02:02Z</time>
      </trkpt>
      <trkpt lat="37.545588025823236" lon="-3.634942984208465">
        <ele>982.5</ele>
        <time>2003-04-12T16:02:04Z</time>
      </trkpt>
      <trkpt lat="37.544501982629299" lon="-3.634992018342018">
        <ele>988.70000000000005</ele>
        <time>2003-04-12T16:02:08Z</time>
      </trkpt>
      <trkpt lat="37.54340797662735" lon="-3.634948013350368">
        <ele>994.5</ele>
        <time>2003-04-12T16:02:12Z</time>
      </trkpt>
      <trkpt lat="37.542317993938923" lon="-3.635022025555372">
        <ele>1000.8</ele>
        <time>2003-04-12T16:02:16Z</time>
      </trkpt>
      <trkpt lat="37.541255000978708" lon="-3.635301981121302">
        <ele>1007.5</ele>
        <time>2003-04-12T16:02:20Z</time>
      </trkpt>
      <trkpt lat="37.540222015231848" lon="-3.6356629896909">
        <ele>1014.9</ele>
        <time>2003-04-12T16:02:24Z</time>
      </trkpt>
      <trkpt lat="37.539181988686323" lon="-3.635937999933958">
        <ele>1021.2</ele>
        <time>2003-04-12T16:02:29Z</time>
      </trkpt>
      <trkpt lat="37.538117989897728" lon="-3.636017963290215">
        <ele>1026.9000000000001</ele>
        <time>2003-04-12T16:02:33Z</time>
      </trkpt>
      <trkpt lat="37.537045022472739" lon="-3.635987034067512">
        <ele>1032.3</ele>
        <time>2003-04-12T16:02:37Z</time>
      </trkpt>
      <trkpt lat="37.535980017855763" lon="-3.63596498966217">
        <ele>1038.3</ele>
        <time>2003-04-12T16:02:41Z</time>
      </trkpt>
      <trkpt lat="37.53492197021842" lon="-3.635983010753989">
        <ele>1044</ele>
        <time>2003-04-12T16:02:45Z</time>
      </trkpt>
      <trkpt lat="37.533857971429825" lon="-3.636034978553653">
        <ele>1049.0999999999999</ele>
        <time>2003-04-12T16:02:49Z</time>
      </trkpt>
      <trkpt lat="37.532764971256256" lon="-3.636117959395051">
        <ele>1051.8</ele>
        <time>2003-04-12T16:02:53Z</time>
      </trkpt>
      <trkpt lat="37.531631989404559" lon="-3.63624301739037">
        <ele>1051.8</ele>
        <time>2003-04-12T16:02:57Z</time>
      </trkpt>
      <trkpt lat="37.530726995319128" lon="-3.636381989344955">
        <ele>1050.7</ele>
        <time>2003-04-12T16:03:00Z</time>
      </trkpt>
      <trkpt lat="37.529791994020343" lon="-3.63656303845346">
        <ele>1046.9000000000001</ele>
        <time>2003-04-12T16:03:02Z</time>
      </trkpt>
      <trkpt lat="37.528835032135248" lon="-3.636760013177991">
        <ele>1041.5</ele>
        <time>2003-04-12T16:03:05Z</time>
      </trkpt>
      <trkpt lat="37.527840016409755" lon="-3.636908037588">
        <ele>1036.0999999999999</ele>
        <time>2003-04-12T16:03:09Z</time>
      </trkpt>
      <trkpt lat="37.526832008734345" lon="-3.637024965137243">
        <ele>1030.5</ele>
        <time>2003-04-12T16:03:12Z</time>
      </trkpt>
      <trkpt lat="37.525825006887317" lon="-3.637137031182647">
        <ele>1024.9000000000001</ele>
        <time>2003-04-12T16:03:14Z</time>
      </trkpt>
      <trkpt lat="37.524832002818584" lon="-3.637248007580638">
        <ele>1019.2</ele>
        <time>2003-04-12T16:03:17Z</time>
      </trkpt>
      <trkpt lat="37.52381301485002" lon="-3.637327970936894">
        <ele>1014.7</ele>
        <time>2003-04-12T16:03:21Z</time>
      </trkpt>
      <trkpt lat="37.522793021053076" lon="-3.637437019497156">
        <ele>1011.4</ele>
        <time>2003-04-12T16:03:24Z</time>
      </trkpt>
      <trkpt lat="37.521773027256131" lon="-3.637556964531541">
        <ele>1008.5</ele>
        <time>2003-04-12T16:03:27Z</time>
      </trkpt>
      <trkpt lat="37.520738029852509" lon="-3.637691996991634">
        <ele>1005.3</ele>
        <time>2003-04-12T16:03:29Z</time>
      </trkpt>
      <trkpt lat="37.519692974165082" lon="-3.637816971167922">
        <ele>1002.5</ele>
        <time>2003-04-12T16:03:32Z</time>
      </trkpt>
      <trkpt lat="37.518669962882996" lon="-3.637937000021339">
        <ele>1000.2</ele>
        <time>2003-04-12T16:03:36Z</time>
      </trkpt>
      <trkpt lat="37.517664972692728" lon="-3.638040013611317">
        <ele>998.20000000000005</ele>
        <time>2003-04-12T16:03:39Z</time>
      </trkpt>
      <trkpt lat="37.516695018857718" lon="-3.63806800916791">
        <ele>996.60000000000002</ele>
        <time>2003-04-12T16:03:41Z</time>
      </trkpt>
      <trkpt lat="37.515721963718534" lon="-3.637887965887785">
        <ele>994.10000000000002</ele>
        <time>2003-04-12T16:03:44Z</time>
      </trkpt>
      <trkpt lat="37.514772964641452" lon="-3.637508014217019">
        <ele>991.39999999999998</ele>
        <time>2003-04-12T16:03:48Z</time>
      </trkpt>
      <trkpt lat="37.513845004141331" lon="-3.637014990672469">
        <ele>989.39999999999998</ele>
        <time>2003-04-12T16:03:51Z</time>
      </trkpt>
      <trkpt lat="37.512925006449223" lon="-3.636473016813397">
        <ele>988</ele>
        <time>2003-04-12T16:03:54Z</time>
      </trkpt>
      <trkpt lat="37.512022024020553" lon="-3.635879997164011">
        <ele>986.39999999999998</ele>
        <time>2003-04-12T16:03:56Z</time>
      </trkpt>
      <trkpt lat="37.511130021885037" lon="-3.635248001664877">
        <ele>985</ele>
        <time>2003-04-12T16:03:59Z</time>
      </trkpt>
      <trkpt lat="37.51025503501296" lon="-3.634563032537699">
        <ele>983.5</ele>
        <time>2003-04-12T16:04:03Z</time>
      </trkpt>
      <trkpt lat="37.509388010948896" lon="-3.633843027055264">
        <ele>981.89999999999998</ele>
        <time>2003-04-12T16:04:06Z</time>
      </trkpt>
      <trkpt lat="37.508501959964633" lon="-3.633142970502377">
        <ele>979.39999999999998</ele>
        <time>2003-04-12T16:04:08Z</time>
      </trkpt>
      <trkpt lat="37.507605012506247" lon="-3.632463030517101">
        <ele>977</ele>
        <time>2003-04-12T16:04:11Z</time>
      </trkpt>
      <trkpt lat="37.506713010370731" lon="-3.631822988390923">
        <ele>975</ele>
        <time>2003-04-12T16:04:15Z</time>
      </trkpt>
      <trkpt lat="37.505792006850243" lon="-3.631201973184943">
        <ele>971.89999999999998</ele>
        <time>2003-04-12T16:04:18Z</time>
      </trkpt>
      <trkpt lat="37.504867985844612" lon="-3.630605014041066">
        <ele>968.29999999999995</ele>
        <time>2003-04-12T16:04:21Z</time>
      </trkpt>
      <trkpt lat="37.503919992595911" lon="-3.630020041018724">
        <ele>963.79999999999995</ele>
        <time>2003-04-12T16:04:23Z</time>
      </trkpt>
      <trkpt lat="37.502975016832352" lon="-3.629479994997382">
        <ele>959.39999999999998</ele>
        <time>2003-04-12T16:04:26Z</time>
      </trkpt>
      <trkpt lat="37.502038003876805" lon="-3.628932991996408">
        <ele>956.79999999999995</ele>
        <time>2003-04-12T16:04:30Z</time>
      </trkpt>
      <trkpt lat="37.501117000356317" lon="-3.628380037844181">
        <ele>955.60000000000002</ele>
        <time>2003-04-12T16:04:33Z</time>
      </trkpt>
      <trkpt lat="37.50020002014935" lon="-3.627811996266246">
        <ele>955.29999999999995</ele>
        <time>2003-04-12T16:04:35Z</time>
      </trkpt>
      <trkpt lat="37.499268036335707" lon="-3.627261975780129">
        <ele>954.5</ele>
        <time>2003-04-12T16:04:38Z</time>
      </trkpt>
      <trkpt lat="37.498337980359793" lon="-3.626712039113045">
        <ele>953.89999999999998</ele>
        <time>2003-04-12T16:04:42Z</time>
      </trkpt>
      <trkpt lat="37.497401973232627" lon="-3.6261669639498">
        <ele>953.20000000000005</ele>
        <time>2003-04-12T16:04:45Z</time>
      </trkpt>
      <trkpt lat="37.496463032439351" lon="-3.625618033111095">
        <ele>952.60000000000002</ele>
        <time>2003-04-12T16:04:48Z</time>
      </trkpt>
      <trkpt lat="37.495527025312185" lon="-3.625067006796598">
        <ele>951.70000000000005</ele>
        <time>2003-04-12T16:04:50Z</time>
      </trkpt>
      <trkpt lat="37.494597975164652" lon="-3.624522015452385">
        <ele>951.29999999999995</ele>
        <time>2003-04-12T16:04:53Z</time>
      </trkpt>
      <trkpt lat="37.493697004392743" lon="-3.623984986916184">
        <ele>950.29999999999995</ele>
        <time>2003-04-12T16:04:57Z</time>
      </trkpt>
      <trkpt lat="37.492792010307312" lon="-3.623452987521887">
        <ele>950.10000000000002</ele>
        <time>2003-04-12T16:05:00Z</time>
      </trkpt>
      <trkpt lat="37.491892967373133" lon="-3.622885029762983">
        <ele>949.70000000000005</ele>
        <time>2003-04-12T16:05:02Z</time>
      </trkpt>
      <trkpt lat="37.491059973835945" lon="-3.622177010402083">
        <ele>950.10000000000002</ele>
        <time>2003-04-12T16:05:05Z</time>
      </trkpt>
      <trkpt lat="37.490335023030639" lon="-3.621307974681258">
        <ele>950.60000000000002</ele>
        <time>2003-04-12T16:05:09Z</time>
      </trkpt>
      <trkpt lat="37.489752983674407" lon="-3.620293010026217">
        <ele>951.29999999999995</ele>
        <time>2003-04-12T16:05:12Z</time>
      </trkpt>
      <trkpt lat="37.489310000091791" lon="-3.619175031781197">
        <ele>952</ele>
        <time>2003-04-12T16:05:15Z</time>
      </trkpt>
      <trkpt lat="37.489110007882118" lon="-3.618377996608615">
        <ele>952.60000000000002</ele>
        <time>2003-04-12T16:05:16Z</time>
      </trkpt>
      <trkpt lat="37.488947985693812" lon="-3.617139989510179">
        <ele>953</ele>
        <time>2003-04-12T16:05:20Z</time>
      </trkpt>
      <trkpt lat="37.488949997350574" lon="-3.615877004340291">
        <ele>953.5</ele>
        <time>2003-04-12T16:05:23Z</time>
      </trkpt>
      <trkpt lat="37.489046975970268" lon="-3.614615024998784">
        <ele>953.79999999999995</ele>
        <time>2003-04-12T16:05:25Z</time>
      </trkpt>
      <trkpt lat="37.489192988723516" lon="-3.613362014293671">
        <ele>954.10000000000002</ele>
        <time>2003-04-12T16:05:28Z</time>
      </trkpt>
      <trkpt lat="37.489317040890455" lon="-3.612117972224951">
        <ele>954.20000000000005</ele>
        <time>2003-04-12T16:05:32Z</time>
      </trkpt>
      <trkpt lat="37.48932802118361" lon="-3.610875019803643">
        <ele>954.5</ele>
        <time>2003-04-12T16:05:35Z</time>
      </trkpt>
      <trkpt lat="37.489189971238375" lon="-3.609638018533588">
        <ele>955.10000000000002</ele>
        <time>2003-04-12T16:05:38Z</time>
      </trkpt>
      <trkpt lat="37.488923007622361" lon="-3.608417026698589">
        <ele>955.79999999999995</ele>
        <time>2003-04-12T16:05:40Z</time>
      </trkpt>
      <trkpt lat="37.488511959090829" lon="-3.607244985178113">
        <ele>956.5</ele>
        <time>2003-04-12T16:05:43Z</time>
      </trkpt>
      <trkpt lat="37.487977026030421" lon="-3.606160031631589">
        <ele>957.39999999999998</ele>
        <time>2003-04-12T16:05:47Z</time>
      </trkpt>
      <trkpt lat="37.487364979460835" lon="-3.60519502311945">
        <ele>958.20000000000005</ele>
        <time>2003-04-12T16:05:50Z</time>
      </trkpt>
      <trkpt lat="37.48681303113699" lon="-3.604222973808646">
        <ele>959.10000000000002</ele>
        <time>2003-04-12T16:05:52Z</time>
      </trkpt>
      <trkpt lat="37.48640701174736" lon="-3.603116981685162">
        <ele>960.20000000000005</ele>
        <time>2003-04-12T16:05:55Z</time>
      </trkpt>
      <trkpt lat="37.486150022596121" lon="-3.601913005113602">
        <ele>961</ele>
        <time>2003-04-12T16:05:59Z</time>
      </trkpt>
      <trkpt lat="37.486075004562736" lon="-3.601085040718317">
        <ele>962.20000000000005</ele>
        <time>2003-04-12T16:06:00Z</time>
      </trkpt>
      <trkpt lat="37.486108029261231" lon="-3.599832030013204">
        <ele>964.5</ele>
        <time>2003-04-12T16:06:03Z</time>
      </trkpt>
      <trkpt lat="37.486314978450537" lon="-3.598599974066019">
        <ele>966.60000000000002</ele>
        <time>2003-04-12T16:06:07Z</time>
      </trkpt>
      <trkpt lat="37.486697025597095" lon="-3.597434973344207">
        <ele>969.60000000000002</ele>
        <time>2003-04-12T16:06:10Z</time>
      </trkpt>
      <trkpt lat="37.487183008342981" lon="-3.596333004534245">
        <ele>972.29999999999995</ele>
        <time>2003-04-12T16:06:13Z</time>
      </trkpt>
      <trkpt lat="37.487669996917248" lon="-3.595236986875534">
        <ele>975.70000000000005</ele>
        <time>2003-04-12T16:06:15Z</time>
      </trkpt>
      <trkpt lat="37.488160002976656" lon="-3.594153039157391">
        <ele>979.79999999999995</ele>
        <time>2003-04-12T16:06:18Z</time>
      </trkpt>
      <trkpt lat="37.488653026521206" lon="-3.593070013448596">
        <ele>983.60000000000002</ele>
        <time>2003-04-12T16:06:22Z</time>
      </trkpt>
      <trkpt lat="37.489152001217008" lon="-3.591992016881704">
        <ele>987.10000000000002</ele>
        <time>2003-04-12T16:06:25Z</time>
      </trkpt>
      <trkpt lat="37.489642007276416" lon="-3.590907985344529">
        <ele>990.89999999999998</ele>
        <time>2003-04-12T16:06:27Z</time>
      </trkpt>
      <trkpt lat="37.490099994465709" lon="-3.58981498517096">
        <ele>994.70000000000005</ele>
        <time>2003-04-12T16:06:30Z</time>
      </trkpt>
      <trkpt lat="37.490457985550165" lon="-3.588703041896224">
        <ele>998.60000000000002</ele>
        <time>2003-04-12T16:06:34Z</time>
      </trkpt>
      <trkpt lat="37.490683039650321" lon="-3.587552960962057">
        <ele>1002.3</ele>
        <time>2003-04-12T16:06:37Z</time>
      </trkpt>
      <trkpt lat="37.490765014663339" lon="-3.586391983553767">
        <ele>1006.1</ele>
        <time>2003-04-12T16:06:40Z</time>
      </trkpt>
      <trkpt lat="37.490740036591887" lon="-3.585220025852323">
        <ele>1009.6</ele>
        <time>2003-04-12T16:06:42Z</time>
      </trkpt>
      <trkpt lat="37.490631993860006" lon="-3.584447968751192">
        <ele>1012.4</ele>
        <time>2003-04-12T16:06:45Z</time>
      </trkpt>
      <trkpt lat="37.490371987223625" lon="-3.58332303352654">
        <ele>1016</ele>
        <time>2003-04-12T16:06:48Z</time>
      </trkpt>
      <trkpt lat="37.490033023059368" lon="-3.582240007817745">
        <ele>1019.7</ele>
        <time>2003-04-12T16:06:50Z</time>
      </trkpt>
      <trkpt lat="37.489579981192946" lon="-3.581226971000433">
        <ele>1023.7</ele>
        <time>2003-04-12T16:06:53Z</time>
      </trkpt>
      <trkpt lat="37.489025015383959" lon="-3.580298004671931">
        <ele>1027.4000000000001</ele>
        <time>2003-04-12T16:06:57Z</time>
      </trkpt>
      <trkpt lat="37.48838203959167" lon="-3.579468028619885">
        <ele>1031.3</ele>
        <time>2003-04-12T16:07:00Z</time>
      </trkpt>
      <trkpt lat="37.487718025222421" lon="-3.578667975962162">
        <ele>1036.3</ele>
        <time>2003-04-12T16:07:03Z</time>
      </trkpt>
      <trkpt lat="37.487064991146326" lon="-3.577843029052019">
        <ele>1038</ele>
        <time>2003-04-12T16:07:05Z</time>
      </trkpt>
      <trkpt lat="37.486438024789095" lon="-3.576972987502813">
        <ele>1039.5</ele>
        <time>2003-04-12T16:07:08Z</time>
      </trkpt>
      <trkpt lat="37.485865037888288" lon="-3.576032035052776">
        <ele>1039.7</ele>
        <time>2003-04-12T16:07:12Z</time>
      </trkpt>
      <trkpt lat="37.48533203266561" lon="-3.575072977691889">
        <ele>1039.2</ele>
        <time>2003-04-12T16:07:15Z</time>
      </trkpt>
      <trkpt lat="37.484772959724069" lon="-3.574134958907962">
        <ele>1037.5999999999999</ele>
        <time>2003-04-12T16:07:17Z</time>
      </trkpt>
      <trkpt lat="37.484146999195218" lon="-3.573231976479292">
        <ele>1035.3</ele>
        <time>2003-04-12T16:07:20Z</time>
      </trkpt>
      <trkpt lat="37.483411990106106" lon="-3.572423039004207">
        <ele>1032.5</ele>
        <time>2003-04-12T16:07:24Z</time>
      </trkpt>
      <trkpt lat="37.482597017660737" lon="-3.571702027693391">
        <ele>1029.4000000000001</ele>
        <time>2003-04-12T16:07:27Z</time>
      </trkpt>
      <trkpt lat="37.481763018295169" lon="-3.571091992780566">
        <ele>1026.5</ele>
        <time>2003-04-12T16:07:30Z</time>
      </trkpt>
      <trkpt lat="37.480889959260821" lon="-3.570616990327835">
        <ele>1023.8</ele>
        <time>2003-04-12T16:07:32Z</time>
      </trkpt>
      <trkpt lat="37.48002503067255" lon="-3.570250030606985">
        <ele>1021.2</ele>
        <time>2003-04-12T16:07:35Z</time>
      </trkpt>
      <trkpt lat="37.479120036587119" lon="-3.569978037849069">
        <ele>1018.9</ele>
        <time>2003-04-12T16:07:39Z</time>
      </trkpt>
      <trkpt lat="37.478165002539754" lon="-3.569866977632046">
        <ele>1016.6</ele>
        <time>2003-04-12T16:07:42Z</time>
      </trkpt>
      <trkpt lat="37.477184990420938" lon="-3.569902013987303">
        <ele>1013.9</ele>
        <time>2003-04-12T16:07:44Z</time>
      </trkpt>
      <trkpt lat="37.476191986352205" lon="-3.570056995376945">
        <ele>1011.1</ele>
        <time>2003-04-12T16:07:47Z</time>
      </trkpt>
      <trkpt lat="37.475205017253757" lon="-3.5703269764781">
        <ele>1008.3</ele>
        <time>2003-04-12T16:07:51Z</time>
      </trkpt>
      <trkpt lat="37.47422500513494" lon="-3.570623025298119">
        <ele>1006.8</ele>
        <time>2003-04-12T16:07:54Z</time>
      </trkpt>
      <trkpt lat="37.473244993016124" lon="-3.570927958935499">
        <ele>1006.1</ele>
        <time>2003-04-12T16:07:57Z</time>
      </trkpt>
      <trkpt lat="37.47227001003921" lon="-3.571201963350177">
        <ele>1006.8</ele>
        <time>2003-04-12T16:07:59Z</time>
      </trkpt>
      <trkpt lat="37.471613036468625" lon="-3.571282010525465">
        <ele>1008.2</ele>
        <time>2003-04-12T16:08:02Z</time>
      </trkpt>
      <trkpt lat="37.470642998814583" lon="-3.571189977228642">
        <ele>1010.6</ele>
        <time>2003-04-12T16:08:05Z</time>
      </trkpt>
      <trkpt lat="37.469702968373895" lon="-3.570916978642345">
        <ele>1012.8</ele>
        <time>2003-04-12T16:08:07Z</time>
      </trkpt>
      <trkpt lat="37.468797974288464" lon="-3.570482041686773">
        <ele>1014.4</ele>
        <time>2003-04-12T16:08:10Z</time>
      </trkpt>
      <trkpt lat="37.467962969094515" lon="-3.569805035367608">
        <ele>1014.8</ele>
        <time>2003-04-12T16:08:14Z</time>
      </trkpt>
      <trkpt lat="37.46745795942843" lon="-3.569249985739589">
        <ele>1014.6</ele>
        <time>2003-04-12T16:08:15Z</time>
      </trkpt>
      <trkpt lat="37.466820012778044" lon="-3.568267039954662">
        <ele>1013.8</ele>
        <time>2003-04-12T16:08:18Z</time>
      </trkpt>
      <trkpt lat="37.46629698202014" lon="-3.56718996539712">
        <ele>1010.6</ele>
        <time>2003-04-12T16:08:22Z</time>
      </trkpt>
      <trkpt lat="37.465773029252887" lon="-3.566099982708693">
        <ele>1007.5</ele>
        <time>2003-04-12T16:08:25Z</time>
      </trkpt>
      <trkpt lat="37.465225020423532" lon="-3.565102033317089">
        <ele>1003</ele>
        <time>2003-04-12T16:08:28Z</time>
      </trkpt>
      <trkpt lat="37.464569974690676" lon="-3.56426702812314">
        <ele>998.79999999999995</ele>
        <time>2003-04-12T16:08:30Z</time>
      </trkpt>
      <trkpt lat="37.463830020278692" lon="-3.563575018197298">
        <ele>993.5</ele>
        <time>2003-04-12T16:08:33Z</time>
      </trkpt>
      <trkpt lat="37.462961990386248" lon="-3.563058022409678">
        <ele>990.60000000000002</ele>
        <time>2003-04-12T16:08:37Z</time>
      </trkpt>
      <trkpt lat="37.46202195994556" lon="-3.562734983861446">
        <ele>986.29999999999995</ele>
        <time>2003-04-12T16:08:40Z</time>
      </trkpt>
      <trkpt lat="37.461028033867478" lon="-3.562629958614707">
        <ele>981.79999999999995</ele>
        <time>2003-04-12T16:08:42Z</time>
      </trkpt>
      <trkpt lat="37.460353039205074" lon="-3.562697013840079">
        <ele>978.79999999999995</ele>
        <time>2003-04-12T16:08:45Z</time>
      </trkpt>
      <trkpt lat="37.459330027922988" lon="-3.562915027141571">
        <ele>974.79999999999995</ele>
        <time>2003-04-12T16:08:48Z</time>
      </trkpt>
      <trkpt lat="37.458293018862605" lon="-3.563121976330876">
        <ele>971</ele>
        <time>2003-04-12T16:08:51Z</time>
      </trkpt>
      <trkpt lat="37.457237988710403" lon="-3.563288021832705">
        <ele>967.10000000000002</ele>
        <time>2003-04-12T16:08:53Z</time>
      </trkpt>
      <trkpt lat="37.456174995750189" lon="-3.563397992402315">
        <ele>963.29999999999995</ele>
        <time>2003-04-12T16:08:56Z</time>
      </trkpt>
      <trkpt lat="37.455091970041394" lon="-3.563390029594302">
        <ele>959.79999999999995</ele>
        <time>2003-04-12T16:09:00Z</time>
      </trkpt>
      <trkpt lat="37.453992012888193" lon="-3.563273018226028">
        <ele>956.60000000000002</ele>
        <time>2003-04-12T16:09:03Z</time>
      </trkpt>
      <trkpt lat="37.452879985794425" lon="-3.563043018803001">
        <ele>954.29999999999995</ele>
        <time>2003-04-12T16:09:05Z</time>
      </trkpt>
      <trkpt lat="37.451780028641224" lon="-3.562668012455106">
        <ele>952.70000000000005</ele>
        <time>2003-04-12T16:09:08Z</time>
      </trkpt>
      <trkpt lat="37.450703037902713" lon="-3.562171971425414">
        <ele>952.20000000000005</ele>
        <time>2003-04-12T16:09:12Z</time>
      </trkpt>
      <trkpt lat="37.449665023013949" lon="-3.56156000867486">
        <ele>952.20000000000005</ele>
        <time>2003-04-12T16:09:15Z</time>
      </trkpt>
      <trkpt lat="37.448652992025018" lon="-3.560917032882571">
        <ele>953.29999999999995</ele>
        <time>2003-04-12T16:09:18Z</time>
      </trkpt>
      <trkpt lat="37.447695024311543" lon="-3.56029300019145">
        <ele>955.79999999999995</ele>
        <time>2003-04-12T16:09:20Z</time>
      </trkpt>
      <trkpt lat="37.446752982214093" lon="-3.559697968885303">
        <ele>958.70000000000005</ele>
        <time>2003-04-12T16:09:23Z</time>
      </trkpt>
      <trkpt lat="37.445795014500618" lon="-3.559251967817545">
        <ele>962.20000000000005</ele>
        <time>2003-04-12T16:09:27Z</time>
      </trkpt>
      <trkpt lat="37.444807039573789" lon="-3.558975029736757">
        <ele>967.10000000000002</ele>
        <time>2003-04-12T16:09:30Z</time>
      </trkpt>
      <trkpt lat="37.443808000534773" lon="-3.558851983398199">
        <ele>971.70000000000005</ele>
        <time>2003-04-12T16:09:32Z</time>
      </trkpt>
      <trkpt lat="37.442812984809279" lon="-3.558890037238598">
        <ele>976</ele>
        <time>2003-04-12T16:09:35Z</time>
      </trkpt>
      <trkpt lat="37.441836996003985" lon="-3.559073014184833">
        <ele>980.29999999999995</ele>
        <time>2003-04-12T16:09:39Z</time>
      </trkpt>
      <trkpt lat="37.440890008583665" lon="-3.559408038854599">
        <ele>984.5</ele>
        <time>2003-04-12T16:09:42Z</time>
      </trkpt>
      <trkpt lat="37.439985014498234" lon="-3.55988496914506">
        <ele>987.5</ele>
        <time>2003-04-12T16:09:45Z</time>
      </trkpt>
      <trkpt lat="37.439125031232834" lon="-3.560487041249871">
        <ele>989.60000000000002</ele>
        <time>2003-04-12T16:09:47Z</time>
      </trkpt>
      <trkpt lat="37.438336964696646" lon="-3.561236970126629">
        <ele>990.89999999999998</ele>
        <time>2003-04-12T16:09:50Z</time>
      </trkpt>
      <trkpt lat="37.437617965042591" lon="-3.56201296672225">
        <ele>992.20000000000005</ele>
        <time>2003-04-12T16:09:54Z</time>
      </trkpt>
      <trkpt lat="37.436892008408904" lon="-3.562757028266788">
        <ele>993.10000000000002</ele>
        <time>2003-04-12T16:09:57Z</time>
      </trkpt>
      <trkpt lat="37.436133027076721" lon="-3.563443003222346">
        <ele>992.70000000000005</ele>
        <time>2003-04-12T16:09:59Z</time>
      </trkpt>
      <trkpt lat="37.435577977448702" lon="-3.563786996528506">
        <ele>992</ele>
        <time>2003-04-12T16:10:02Z</time>
      </trkpt>
      <trkpt lat="37.434686981141567" lon="-3.564142975956202">
        <ele>989.39999999999998</ele>
        <time>2003-04-12T16:10:06Z</time>
      </trkpt>
      <trkpt lat="37.433718033134937" lon="-3.564295023679733">
        <ele>987.5</ele>
        <time>2003-04-12T16:10:08Z</time>
      </trkpt>
      <trkpt lat="37.432719999924302" lon="-3.564274990931153">
        <ele>984.79999999999995</ele>
        <time>2003-04-12T16:10:10Z</time>
      </trkpt>
      <trkpt lat="37.431721966713667" lon="-3.563997969031334">
        <ele>981.79999999999995</ele>
        <time>2003-04-12T16:10:13Z</time>
      </trkpt>
      <trkpt lat="37.430756958201528" lon="-3.563497988507152">
        <ele>978.70000000000005</ele>
        <time>2003-04-12T16:10:17Z</time>
      </trkpt>
      <trkpt lat="37.429848024621606" lon="-3.562797009944916">
        <ele>976</ele>
        <time>2003-04-12T16:10:20Z</time>
      </trkpt>
      <trkpt lat="37.428989969193935" lon="-3.561948006972671">
        <ele>973.39999999999998</ele>
        <time>2003-04-12T16:10:22Z</time>
      </trkpt>
      <trkpt lat="37.428182037547231" lon="-3.561004959046841">
        <ele>970.5</ele>
        <time>2003-04-12T16:10:25Z</time>
      </trkpt>
      <trkpt lat="37.42743001319468" lon="-3.560022013261914">
        <ele>967.20000000000005</ele>
        <time>2003-04-12T16:10:29Z</time>
      </trkpt>
      <trkpt lat="37.426680000498891" lon="-3.559047030285001">
        <ele>963.70000000000005</ele>
        <time>2003-04-12T16:10:32Z</time>
      </trkpt>
      <trkpt lat="37.425901992246509" lon="-3.558116974309087">
        <ele>959.60000000000002</ele>
        <time>2003-04-12T16:10:35Z</time>
      </trkpt>
      <trkpt lat="37.425128007307649" lon="-3.557254979386926">
        <ele>956.5</ele>
        <time>2003-04-12T16:10:37Z</time>
      </trkpt>
      <trkpt lat="37.424319991841912" lon="-3.556491974741221">
        <ele>952.89999999999998</ele>
        <time>2003-04-12T16:10:40Z</time>
      </trkpt>
      <trkpt lat="37.423432013019919" lon="-3.555840030312538">
        <ele>949.39999999999998</ele>
        <time>2003-04-12T16:10:44Z</time>
      </trkpt>
      <trkpt lat="37.422458035871387" lon="-3.555387994274497">
        <ele>945.89999999999998</ele>
        <time>2003-04-12T16:10:47Z</time>
      </trkpt>
      <trkpt lat="37.421450028195977" lon="-3.555137040093541">
        <ele>942.29999999999995</ele>
        <time>2003-04-12T16:10:49Z</time>
      </trkpt>
      <trkpt lat="37.420430034399033" lon="-3.555107032880187">
        <ele>939.10000000000002</ele>
        <time>2003-04-12T16:10:52Z</time>
      </trkpt>
      <trkpt lat="37.419462008401752" lon="-3.555260002613068">
        <ele>936.10000000000002</ele>
        <time>2003-04-12T16:10:56Z</time>
      </trkpt>
      <trkpt lat="37.418518038466573" lon="-3.555605001747608">
        <ele>932.89999999999998</ele>
        <time>2003-04-12T16:10:59Z</time>
      </trkpt>
      <trkpt lat="37.417644979432225" lon="-3.556129960343242">
        <ele>929.79999999999995</ele>
        <time>2003-04-12T16:11:02Z</time>
      </trkpt>
      <trkpt lat="37.416862025856972" lon="-3.556802021339536">
        <ele>926.79999999999995</ele>
        <time>2003-04-12T16:11:04Z</time>
      </trkpt>
      <trkpt lat="37.416166998445988" lon="-3.557620011270046">
        <ele>923.5</ele>
        <time>2003-04-12T16:11:07Z</time>
      </trkpt>
      <trkpt lat="37.415578002110124" lon="-3.558561969548464">
        <ele>920.60000000000002</ele>
        <time>2003-04-12T16:11:11Z</time>
      </trkpt>
      <trkpt lat="37.415096964687109" lon="-3.559592021629214">
        <ele>918</ele>
        <time>2003-04-12T16:11:14Z</time>
      </trkpt>
      <trkpt lat="37.414678037166595" lon="-3.56063699349761">
        <ele>915.20000000000005</ele>
        <time>2003-04-12T16:11:16Z</time>
      </trkpt>
      <trkpt lat="37.414236981421709" lon="-3.561642989516258">
        <ele>912.60000000000002</ele>
        <time>2003-04-12T16:11:19Z</time>
      </trkpt>
      <trkpt lat="37.413707999512553" lon="-3.562517976388335">
        <ele>909.89999999999998</ele>
        <time>2003-04-12T16:11:23Z</time>
      </trkpt>
      <trkpt lat="37.41329301148653" lon="-3.563012005761266">
        <ele>908.39999999999998</ele>
        <time>2003-04-12T16:11:24Z</time>
      </trkpt>
      <trkpt lat="37.41260795854032" lon="-3.563630003482103">
        <ele>905.70000000000005</ele>
        <time>2003-04-12T16:11:27Z</time>
      </trkpt>
      <trkpt lat="37.411868004128337" lon="-3.564126966521144">
        <ele>903.20000000000005</ele>
        <time>2003-04-12T16:11:31Z</time>
      </trkpt>
      <trkpt lat="37.411102987825871" lon="-3.564498033374548">
        <ele>900.60000000000002</ele>
        <time>2003-04-12T16:11:34Z</time>
      </trkpt>
      <trkpt lat="37.410273011773825" lon="-3.564689978957176">
        <ele>898</ele>
        <time>2003-04-12T16:11:37Z</time>
      </trkpt>
      <trkpt lat="37.409302974119782" lon="-3.564737001433969">
        <ele>894.70000000000005</ele>
        <time>2003-04-12T16:11:41Z</time>
      </trkpt>
      <trkpt lat="37.408910030499101" lon="-3.564821993932128">
        <ele>892.60000000000002</ele>
        <time>2003-04-12T16:11:42Z</time>
      </trkpt>
      <trkpt lat="37.408547010272741" lon="-3.565002959221602">
        <ele>891.29999999999995</ele>
        <time>2003-04-12T16:11:45Z</time>
      </trkpt>
      <trkpt lat="37.408202011138201" lon="-3.565239999443293">
        <ele>888.20000000000005</ele>
        <time>2003-04-12T16:11:46Z</time>
      </trkpt>
      <trkpt lat="37.407630030065775" lon="-3.565721958875656">
        <ele>884.60000000000002</ele>
        <time>2003-04-12T16:11:51Z</time>
      </trkpt>
      <trkpt lat="37.407368011772633" lon="-3.56585799716413">
        <ele>884.39999999999998</ele>
        <time>2003-04-12T16:11:54Z</time>
      </trkpt>
      <trkpt lat="37.407232979312539" lon="-3.565884986892343">
        <ele>884.39999999999998</ele>
        <time>2003-04-12T16:11:54Z</time>
      </trkpt>
      <trkpt lat="37.406508028507233" lon="-3.566044997423887">
        <ele>879.89999999999998</ele>
        <time>2003-04-12T16:12:01Z</time>
      </trkpt>
      <trkpt lat="37.406392022967339" lon="-3.566087996587157">
        <ele>879.5</ele>
        <time>2003-04-12T16:12:02Z</time>
      </trkpt>
      <trkpt lat="37.406282974407077" lon="-3.56615798547864">
        <ele>879.5</ele>
        <time>2003-04-12T16:12:05Z</time>
      </trkpt>
      <trkpt lat="37.406148025766015" lon="-3.566239960491657">
        <ele>879.79999999999995</ele>
        <time>2003-04-12T16:12:06Z</time>
      </trkpt>
      <trkpt lat="37.406005030497909" lon="-3.566190004348755">
        <ele>879.5</ele>
        <time>2003-04-12T16:12:09Z</time>
      </trkpt>
      <trkpt lat="37.405930012464523" lon="-3.566023036837578">
        <ele>879.10000000000002</ele>
        <time>2003-04-12T16:12:10Z</time>
      </trkpt>
      <trkpt lat="37.405960019677877" lon="-3.565822960808873">
        <ele>878.79999999999995</ele>
        <time>2003-04-12T16:12:13Z</time>
      </trkpt>
      <trkpt lat="37.406078036874533" lon="-3.565673008561134">
        <ele>878.70000000000005</ele>
        <time>2003-04-12T16:12:14Z</time>
      </trkpt>
      <trkpt lat="37.406179960817099" lon="-3.565477039664984">
        <ele>878.60000000000002</ele>
        <time>2003-04-12T16:12:17Z</time>
      </trkpt>
      <trkpt lat="37.406205022707582" lon="-3.565349970012903">
        <ele>877.60000000000002</ele>
        <time>2003-04-12T16:12:17Z</time>
      </trkpt>
      <trkpt lat="37.406194964423776" lon="-3.565215021371841">
        <ele>875.89999999999998</ele>
        <time>2003-04-12T16:12:18Z</time>
      </trkpt>
      <trkpt lat="37.406006958335638" lon="-3.564429972320795">
        <ele>872.70000000000005</ele>
        <time>2003-04-12T16:12:25Z</time>
      </trkpt>
      <trkpt lat="37.40568702109158" lon="-3.563826978206635">
        <ele>872.20000000000005</ele>
        <time>2003-04-12T16:12:28Z</time>
      </trkpt>
      <trkpt lat="37.40510799922049" lon="-3.562710005789995">
        <ele>868.29999999999995</ele>
        <time>2003-04-12T16:12:32Z</time>
      </trkpt>
      <trkpt lat="37.404586980119348" lon="-3.561675008386374">
        <ele>863.10000000000002</ele>
        <time>2003-04-12T16:12:36Z</time>
      </trkpt>
      <trkpt lat="37.404063027352095" lon="-3.560645040124655">
        <ele>857.5</ele>
        <time>2003-04-12T16:12:40Z</time>
      </trkpt>
      <trkpt lat="37.403449974954128" lon="-3.559463024139404">
        <ele>855.39999999999998</ele>
        <time>2003-04-12T16:12:45Z</time>
      </trkpt>
      <trkpt lat="37.402921998873353" lon="-3.558385027572513">
        <ele>853.20000000000005</ele>
        <time>2003-04-12T16:12:50Z</time>
      </trkpt>
      <trkpt lat="37.402350017800927" lon="-3.557236958295107">
        <ele>850.79999999999995</ele>
        <time>2003-04-12T16:12:54Z</time>
      </trkpt>
      <trkpt lat="37.40177501924336" lon="-3.556067012250423">
        <ele>848.10000000000002</ele>
        <time>2003-04-12T16:12:58Z</time>
      </trkpt>
      <trkpt lat="37.401174958795309" lon="-3.554933024570346">
        <ele>845.79999999999995</ele>
        <time>2003-04-12T16:13:02Z</time>
      </trkpt>
      <trkpt lat="37.400447996333241" lon="-3.553462000563741">
        <ele>842.29999999999995</ele>
        <time>2003-04-12T16:13:07Z</time>
      </trkpt>
      <trkpt lat="37.39995296113193" lon="-3.552337987348437">
        <ele>840.39999999999998</ele>
        <time>2003-04-12T16:13:11Z</time>
      </trkpt>
      <trkpt lat="37.399781970307231" lon="-3.551728036254644">
        <ele>839.39999999999998</ele>
        <time>2003-04-12T16:13:12Z</time>
      </trkpt>
      <trkpt lat="37.399620031937957" lon="-3.55077501386404">
        <ele>837.79999999999995</ele>
        <time>2003-04-12T16:13:15Z</time>
      </trkpt>
      <trkpt lat="37.3995849955827" lon="-3.549798019230366">
        <ele>836.20000000000005</ele>
        <time>2003-04-12T16:13:19Z</time>
      </trkpt>
      <trkpt lat="37.39969496615231" lon="-3.548809960484505">
        <ele>834.39999999999998</ele>
        <time>2003-04-12T16:13:22Z</time>
      </trkpt>
      <trkpt lat="37.399981962516904" lon="-3.547467011958361">
        <ele>832.60000000000002</ele>
        <time>2003-04-12T16:13:26Z</time>
      </trkpt>
      <trkpt lat="37.40031698718667" lon="-3.54613303206861">
        <ele>832.29999999999995</ele>
        <time>2003-04-12T16:13:30Z</time>
      </trkpt>
      <trkpt lat="37.400647988542914" lon="-3.544711964204907">
        <ele>833.5</ele>
        <time>2003-04-12T16:13:34Z</time>
      </trkpt>
      <trkpt lat="37.40089500322938" lon="-3.543602032586932">
        <ele>834.5</ele>
        <time>2003-04-12T16:13:37Z</time>
      </trkpt>
      <trkpt lat="37.401131959632039" lon="-3.542486988008022">
        <ele>835.60000000000002</ele>
        <time>2003-04-12T16:13:39Z</time>
      </trkpt>
      <trkpt lat="37.401373023167253" lon="-3.541370015591383">
        <ele>836.70000000000005</ele>
        <time>2003-04-12T16:13:42Z</time>
      </trkpt>
      <trkpt lat="37.401639986783266" lon="-3.540233010426164">
        <ele>837.70000000000005</ele>
        <time>2003-04-12T16:13:46Z</time>
      </trkpt>
      <trkpt lat="37.401903010904789" lon="-3.539079995825887">
        <ele>838.89999999999998</ele>
        <time>2003-04-12T16:13:49Z</time>
      </trkpt>
      <trkpt lat="37.402152959257364" lon="-3.53796998038888">
        <ele>839.89999999999998</ele>
        <time>2003-04-12T16:13:52Z</time>
      </trkpt>
      <trkpt lat="37.402431992813945" lon="-3.536570034921169">
        <ele>841.29999999999995</ele>
        <time>2003-04-12T16:13:56Z</time>
      </trkpt>
      <trkpt lat="37.402583034709096" lon="-3.535143015906215">
        <ele>839.70000000000005</ele>
        <time>2003-04-12T16:14:00Z</time>
      </trkpt>
      <trkpt lat="37.402589991688728" lon="-3.533703004941344">
        <ele>835.39999999999998</ele>
        <time>2003-04-12T16:14:04Z</time>
      </trkpt>
      <trkpt lat="37.402435010299087" lon="-3.532193005084992">
        <ele>827.89999999999998</ele>
        <time>2003-04-12T16:14:08Z</time>
      </trkpt>
      <trkpt lat="37.402247004210949" lon="-3.531002020463347">
        <ele>821.70000000000005</ele>
        <time>2003-04-12T16:14:11Z</time>
      </trkpt>
      <trkpt lat="37.402050029486418" lon="-3.529807012528181">
        <ele>816.70000000000005</ele>
        <time>2003-04-12T16:14:13Z</time>
      </trkpt>
      <trkpt lat="37.401858000084758" lon="-3.528672019019723">
        <ele>813.89999999999998</ele>
        <time>2003-04-12T16:14:16Z</time>
      </trkpt>
      <trkpt lat="37.401621965691447" lon="-3.527223039418459">
        <ele>811.20000000000005</ele>
        <time>2003-04-12T16:14:20Z</time>
      </trkpt>
      <trkpt lat="37.401402024552226" lon="-3.525925017893314">
        <ele>808.5</ele>
        <time>2003-04-12T16:14:24Z</time>
      </trkpt>
      <trkpt lat="37.401307979598641" lon="-3.525107027962804">
        <ele>807.10000000000002</ele>
        <time>2003-04-12T16:14:28Z</time>
      </trkpt>
      <trkpt lat="37.401343015953898" lon="-3.524548038840294">
        <ele>806</ele>
        <time>2003-04-12T16:14:29Z</time>
      </trkpt>
      <trkpt lat="37.401449969038367" lon="-3.523972034454346">
        <ele>804.89999999999998</ele>
        <time>2003-04-12T16:14:32Z</time>
      </trkpt>
      <trkpt lat="37.401648033410311" lon="-3.523401981219649">
        <ele>803.79999999999995</ele>
        <time>2003-04-12T16:14:33Z</time>
      </trkpt>
      <trkpt lat="37.402148013934493" lon="-3.522245027124882">
        <ele>801</ele>
        <time>2003-04-12T16:14:38Z</time>
      </trkpt>
      <trkpt lat="37.402627039700747" lon="-3.521093018352985">
        <ele>799.29999999999995</ele>
        <time>2003-04-12T16:14:42Z</time>
      </trkpt>
      <trkpt lat="37.403098018839955" lon="-3.519981997087598">
        <ele>797.10000000000002</ele>
        <time>2003-04-12T16:14:46Z</time>
      </trkpt>
      <trkpt lat="37.403476964682341" lon="-3.518854966387153">
        <ele>794.89999999999998</ele>
        <time>2003-04-12T16:14:50Z</time>
      </trkpt>
      <trkpt lat="37.403618032112718" lon="-3.517996994778514">
        <ele>794.20000000000005</ele>
        <time>2003-04-12T16:14:52Z</time>
      </trkpt>
      <trkpt lat="37.403754992410541" lon="-3.516682041808963">
        <ele>794.89999999999998</ele>
        <time>2003-04-12T16:14:58Z</time>
      </trkpt>
      <trkpt lat="37.40388298407197" lon="-3.515479993075132">
        <ele>796</ele>
        <time>2003-04-12T16:15:03Z</time>
      </trkpt>
      <trkpt lat="37.404005024582148" lon="-3.514296971261501">
        <ele>797.29999999999995</ele>
        <time>2003-04-12T16:15:07Z</time>
      </trkpt>
      <trkpt lat="37.404169980436563" lon="-3.513315031304956">
        <ele>798.79999999999995</ele>
        <time>2003-04-12T16:15:11Z</time>
      </trkpt>
      <trkpt lat="37.404408026486635" lon="-3.51257499307394">
        <ele>799.5</ele>
        <time>2003-04-12T16:15:14Z</time>
      </trkpt>
      <trkpt lat="37.404625033959746" lon="-3.512096973136067">
        <ele>800.10000000000002</ele>
        <time>2003-04-12T16:15:17Z</time>
      </trkpt>
      <trkpt lat="37.405210006982088" lon="-3.511188039556146">
        <ele>800.60000000000002</ele>
        <time>2003-04-12T16:15:21Z</time>
      </trkpt>
      <trkpt lat="37.405790034681559" lon="-3.510290002450347">
        <ele>800.10000000000002</ele>
        <time>2003-04-12T16:15:25Z</time>
      </trkpt>
      <trkpt lat="37.405973011627793" lon="-3.509797984734178">
        <ele>799.60000000000002</ele>
        <time>2003-04-12T16:15:26Z</time>
      </trkpt>
      <trkpt lat="37.406130004674196" lon="-3.509030034765601">
        <ele>798.20000000000005</ele>
        <time>2003-04-12T16:15:30Z</time>
      </trkpt>
      <trkpt lat="37.406141990795732" lon="-3.508467022329569">
        <ele>797.29999999999995</ele>
        <time>2003-04-12T16:15:32Z</time>
      </trkpt>
      <trkpt lat="37.406018022447824" lon="-3.507303027436137">
        <ele>796.60000000000002</ele>
        <time>2003-04-12T16:15:36Z</time>
      </trkpt>
      <trkpt lat="37.405847031623125" lon="-3.506017997860909">
        <ele>797.10000000000002</ele>
        <time>2003-04-12T16:15:40Z</time>
      </trkpt>
      <trkpt lat="37.40568702109158" lon="-3.504679994657636">
        <ele>799.10000000000002</ele>
        <time>2003-04-12T16:15:44Z</time>
      </trkpt>
      <trkpt lat="37.405713004991412" lon="-3.503701994195581">
        <ele>800.60000000000002</ele>
        <time>2003-04-12T16:15:46Z</time>
      </trkpt>
      <trkpt lat="37.405826998874545" lon="-3.503081984817982">
        <ele>801.70000000000005</ele>
        <time>2003-04-12T16:15:49Z</time>
      </trkpt>
      <trkpt lat="37.406111983582377" lon="-3.502232981845737">
        <ele>802.89999999999998</ele>
        <time>2003-04-12T16:15:52Z</time>
      </trkpt>
      <trkpt lat="37.406527977436781" lon="-3.50146695971489">
        <ele>804.29999999999995</ele>
        <time>2003-04-12T16:15:54Z</time>
      </trkpt>
      <trkpt lat="37.407076992094517" lon="-3.500802023336291">
        <ele>805.39999999999998</ele>
        <time>2003-04-12T16:15:57Z</time>
      </trkpt>
      <trkpt lat="37.407873021438718" lon="-3.499947991222143">
        <ele>806.79999999999995</ele>
        <time>2003-04-12T16:16:01Z</time>
      </trkpt>
      <trkpt lat="37.40865002386272" lon="-3.499120026826859">
        <ele>807.89999999999998</ele>
        <time>2003-04-12T16:16:05Z</time>
      </trkpt>
      <trkpt lat="37.409316971898079" lon="-3.498352998867631">
        <ele>809.10000000000002</ele>
        <time>2003-04-12T16:16:09Z</time>
      </trkpt>
      <trkpt lat="37.40989800542593" lon="-3.497454961761832">
        <ele>809.60000000000002</ele>
        <time>2003-04-12T16:16:13Z</time>
      </trkpt>
      <trkpt lat="37.410266976803541" lon="-3.496688017621636">
        <ele>810.39999999999998</ele>
        <time>2003-04-12T16:16:16Z</time>
      </trkpt>
      <trkpt lat="37.410439979285002" lon="-3.496142020449042">
        <ele>811.5</ele>
        <time>2003-04-12T16:16:19Z</time>
      </trkpt>
      <trkpt lat="37.410654975101352" lon="-3.494980037212372">
        <ele>815.70000000000005</ele>
        <time>2003-04-12T16:16:23Z</time>
      </trkpt>
      <trkpt lat="37.410681964829564" lon="-3.494087029248476">
        <ele>820.39999999999998</ele>
        <time>2003-04-12T16:16:26Z</time>
      </trkpt>
      <trkpt lat="37.410602001473308" lon="-3.493201984092593">
        <ele>825.39999999999998</ele>
        <time>2003-04-12T16:16:28Z</time>
      </trkpt>
      <trkpt lat="37.410411983728409" lon="-3.492334960028529">
        <ele>830.29999999999995</ele>
        <time>2003-04-12T16:16:31Z</time>
      </trkpt>
      <trkpt lat="37.41011300124228" lon="-3.491521999239922">
        <ele>834.70000000000005</ele>
        <time>2003-04-12T16:16:35Z</time>
      </trkpt>
      <trkpt lat="37.409698013216257" lon="-3.490772992372513">
        <ele>839.5</ele>
        <time>2003-04-12T16:16:38Z</time>
      </trkpt>
      <trkpt lat="37.409191997721791" lon="-3.490102021023631">
        <ele>844.39999999999998</ele>
        <time>2003-04-12T16:16:40Z</time>
      </trkpt>
      <trkpt lat="37.408450031653047" lon="-3.489267015829682">
        <ele>851.20000000000005</ele>
        <time>2003-04-12T16:16:44Z</time>
      </trkpt>
      <trkpt lat="37.407930018380284" lon="-3.488578023388982">
        <ele>856.20000000000005</ele>
        <time>2003-04-12T16:16:47Z</time>
      </trkpt>
      <trkpt lat="37.407647967338562" lon="-3.488047029823065">
        <ele>859.70000000000005</ele>
        <time>2003-04-12T16:16:50Z</time>
      </trkpt>
      <trkpt lat="37.407425008714199" lon="-3.487470019608736">
        <ele>862.89999999999998</ele>
        <time>2003-04-12T16:16:51Z</time>
      </trkpt>
      <trkpt lat="37.40719199180603" lon="-3.486552033573389">
        <ele>867.60000000000002</ele>
        <time>2003-04-12T16:16:55Z</time>
      </trkpt>
      <trkpt lat="37.407116973772645" lon="-3.485912997275591">
        <ele>870.89999999999998</ele>
        <time>2003-04-12T16:16:57Z</time>
      </trkpt>
      <trkpt lat="37.407114962115884" lon="-3.484940025955439">
        <ele>875.70000000000005</ele>
        <time>2003-04-12T16:16:59Z</time>
      </trkpt>
      <trkpt lat="37.407213030382991" lon="-3.483651978895068">
        <ele>882.20000000000005</ele>
        <time>2003-04-12T16:17:03Z</time>
      </trkpt>
      <trkpt lat="37.407182017341256" lon="-3.483017971739173">
        <ele>885.5</ele>
        <time>2003-04-12T16:17:06Z</time>
      </trkpt>
      <trkpt lat="37.407059976831079" lon="-3.482412965968251">
        <ele>888.79999999999995</ele>
        <time>2003-04-12T16:17:07Z</time>
      </trkpt>
      <trkpt lat="37.406859984621406" lon="-3.48184802569449">
        <ele>892.10000000000002</ele>
        <time>2003-04-12T16:17:10Z</time>
      </trkpt>
      <trkpt lat="37.406490007415414" lon="-3.481057025492191">
        <ele>896.79999999999995</ele>
        <time>2003-04-12T16:17:13Z</time>
      </trkpt>
      <trkpt lat="37.405994972214103" lon="-3.48036996088922">
        <ele>901.70000000000005</ele>
        <time>2003-04-12T16:17:15Z</time>
      </trkpt>
      <trkpt lat="37.405592976137996" lon="-3.480027979239821">
        <ele>905.29999999999995</ele>
        <time>2003-04-12T16:17:18Z</time>
      </trkpt>
      <trkpt lat="37.404757970944047" lon="-3.479385003447533">
        <ele>912.10000000000002</ele>
        <time>2003-04-12T16:17:22Z</time>
      </trkpt>
      <trkpt lat="37.403902010992169" lon="-3.478753007948399">
        <ele>918.60000000000002</ele>
        <time>2003-04-12T16:17:25Z</time>
      </trkpt>
      <trkpt lat="37.403034986928105" lon="-3.478108020499349">
        <ele>924.79999999999995</ele>
        <time>2003-04-12T16:17:29Z</time>
      </trkpt>
      <trkpt lat="37.402138039469719" lon="-3.477456998080015">
        <ele>929.70000000000005</ele>
        <time>2003-04-12T16:17:33Z</time>
      </trkpt>
      <trkpt lat="37.401221981272101" lon="-3.476742021739483">
        <ele>933.29999999999995</ele>
        <time>2003-04-12T16:17:37Z</time>
      </trkpt>
      <trkpt lat="37.400282034650445" lon="-3.476010030135512">
        <ele>935.60000000000002</ele>
        <time>2003-04-12T16:17:41Z</time>
      </trkpt>
      <trkpt lat="37.39932700060308" lon="-3.47529698163271">
        <ele>936.5</ele>
        <time>2003-04-12T16:17:45Z</time>
      </trkpt>
      <trkpt lat="37.398367021232843" lon="-3.474573036655784">
        <ele>937.39999999999998</ele>
        <time>2003-04-12T16:17:49Z</time>
      </trkpt>
      <trkpt lat="37.397433025762439" lon="-3.473817994818091">
        <ele>938.29999999999995</ele>
        <time>2003-04-12T16:17:53Z</time>
      </trkpt>
      <trkpt lat="37.396798012778163" lon="-3.473179964348674">
        <ele>938.89999999999998</ele>
        <time>2003-04-12T16:17:56Z</time>
      </trkpt>
      <trkpt lat="37.396055040881038" lon="-3.472292991355062">
        <ele>939.79999999999995</ele>
        <time>2003-04-12T16:18:00Z</time>
      </trkpt>
      <trkpt lat="37.395433019846678" lon="-3.471326977014542">
        <ele>940.5</ele>
        <time>2003-04-12T16:18:04Z</time>
      </trkpt>
      <trkpt lat="37.394892973825336" lon="-3.470283010974526">
        <ele>941.29999999999995</ele>
        <time>2003-04-12T16:18:08Z</time>
      </trkpt>
      <trkpt lat="37.39444999024272" lon="-3.469193028286099">
        <ele>941.89999999999998</ele>
        <time>2003-04-12T16:18:12Z</time>
      </trkpt>
      <trkpt lat="37.394110020250082" lon="-3.468047976493835">
        <ele>942.70000000000005</ele>
        <time>2003-04-12T16:18:16Z</time>
      </trkpt>
      <trkpt lat="37.393850013613701" lon="-3.466871995478869">
        <ele>943.29999999999995</ele>
        <time>2003-04-12T16:18:20Z</time>
      </trkpt>
      <trkpt lat="37.393618002533913" lon="-3.465708000585437">
        <ele>943.79999999999995</ele>
        <time>2003-04-12T16:18:24Z</time>
      </trkpt>
      <trkpt lat="37.393381968140602" lon="-3.464520033448935">
        <ele>944.10000000000002</ele>
        <time>2003-04-12T16:18:28Z</time>
      </trkpt>
      <trkpt lat="37.393173007294536" lon="-3.463371964171529">
        <ele>944.5</ele>
        <time>2003-04-12T16:18:32Z</time>
      </trkpt>
      <trkpt lat="37.392957005649805" lon="-3.462166981771588">
        <ele>945</ele>
        <time>2003-04-12T16:18:36Z</time>
      </trkpt>
      <trkpt lat="37.392745027318597" lon="-3.460977002978325">
        <ele>945.60000000000002</ele>
        <time>2003-04-12T16:18:41Z</time>
      </trkpt>
      <trkpt lat="37.39251502789557" lon="-3.45976497977972">
        <ele>945.29999999999995</ele>
        <time>2003-04-12T16:18:45Z</time>
      </trkpt>
      <trkpt lat="37.392285028472543" lon="-3.458553040400147">
        <ele>943.5</ele>
        <time>2003-04-12T16:18:49Z</time>
      </trkpt>
      <trkpt lat="37.392162987962365" lon="-3.457325007766485">
        <ele>943.29999999999995</ele>
        <time>2003-04-12T16:18:53Z</time>
      </trkpt>
      <trkpt lat="37.392219984903932" lon="-3.456048024818301">
        <ele>945.29999999999995</ele>
        <time>2003-04-12T16:18:57Z</time>
      </trkpt>
      <trkpt lat="37.392374966293573" lon="-3.455174965783954">
        <ele>947.60000000000002</ele>
        <time>2003-04-12T16:18:59Z</time>
      </trkpt>
      <trkpt lat="37.392664980143309" lon="-3.453981969505549">
        <ele>948.89999999999998</ele>
        <time>2003-04-12T16:19:03Z</time>
      </trkpt>
      <trkpt lat="37.392973015084863" lon="-3.452713033184409">
        <ele>949.79999999999995</ele>
        <time>2003-04-12T16:19:08Z</time>
      </trkpt>
      <trkpt lat="37.39322698675096" lon="-3.45149296335876">
        <ele>950.79999999999995</ele>
        <time>2003-04-12T16:19:12Z</time>
      </trkpt>
      <trkpt lat="37.393266968429089" lon="-3.450876977294684">
        <ele>951.5</ele>
        <time>2003-04-12T16:19:13Z</time>
      </trkpt>
      <trkpt lat="37.393348021432757" lon="-3.449622038751841">
        <ele>953.89999999999998</ele>
        <time>2003-04-12T16:19:17Z</time>
      </trkpt>
      <trkpt lat="37.393481964245439" lon="-3.4490180388093">
        <ele>955.20000000000005</ele>
        <time>2003-04-12T16:19:20Z</time>
      </trkpt>
      <trkpt lat="37.393899969756603" lon="-3.447826970368624">
        <ele>959</ele>
        <time>2003-04-12T16:19:24Z</time>
      </trkpt>
      <trkpt lat="37.394328033551574" lon="-3.446640009060502">
        <ele>963.29999999999995</ele>
        <time>2003-04-12T16:19:28Z</time>
      </trkpt>
      <trkpt lat="37.394766993820667" lon="-3.445417005568743">
        <ele>966.60000000000002</ele>
        <time>2003-04-12T16:19:32Z</time>
      </trkpt>
      <trkpt lat="37.39520201459527" lon="-3.444204982370138">
        <ele>969</ele>
        <time>2003-04-12T16:19:36Z</time>
      </trkpt>
      <trkpt lat="37.395605016499758" lon="-3.443062026053667">
        <ele>970.29999999999995</ele>
        <time>2003-04-12T16:19:40Z</time>
      </trkpt>
      <trkpt lat="37.396005000919104" lon="-3.441946981474757">
        <ele>971.5</ele>
        <time>2003-04-12T16:19:44Z</time>
      </trkpt>
      <trkpt lat="37.396389981731772" lon="-3.440797990188003">
        <ele>972.89999999999998</ele>
        <time>2003-04-12T16:19:48Z</time>
      </trkpt>
      <trkpt lat="37.396679995581508" lon="-3.439535005018115">
        <ele>974.10000000000002</ele>
        <time>2003-04-12T16:19:52Z</time>
      </trkpt>
      <trkpt lat="37.396819973364472" lon="-3.438200019299984">
        <ele>975.29999999999995</ele>
        <time>2003-04-12T16:19:56Z</time>
      </trkpt>
      <trkpt lat="37.396802036091685" lon="-3.436922030523419">
        <ele>976.60000000000002</ele>
        <time>2003-04-12T16:20:00Z</time>
      </trkpt>
      <trkpt lat="37.396683013066649" lon="-3.435638006776571">
        <ele>977.5</ele>
        <time>2003-04-12T16:20:04Z</time>
      </trkpt>
      <trkpt lat="37.396552003920078" lon="-3.434377033263445">
        <ele>978.60000000000002</ele>
        <time>2003-04-12T16:20:07Z</time>
      </trkpt>
      <trkpt lat="37.396428035572171" lon="-3.433147994801402">
        <ele>979.29999999999995</ele>
        <time>2003-04-12T16:20:11Z</time>
      </trkpt>
      <trkpt lat="37.396325021982193" lon="-3.43196296133101">
        <ele>980.29999999999995</ele>
        <time>2003-04-12T16:20:15Z</time>
      </trkpt>
      <trkpt lat="37.39634295925498" lon="-3.431044975295663">
        <ele>981.10000000000002</ele>
        <time>2003-04-12T16:20:19Z</time>
      </trkpt>
      <trkpt lat="37.396552003920078" lon="-3.429818032309413">
        <ele>982.39999999999998</ele>
        <time>2003-04-12T16:20:23Z</time>
      </trkpt>
      <trkpt lat="37.396906977519393" lon="-3.428686978295445">
        <ele>983.89999999999998</ele>
        <time>2003-04-12T16:20:27Z</time>
      </trkpt>
      <trkpt lat="37.397315008565784" lon="-3.427430028095841">
        <ele>987.29999999999995</ele>
        <time>2003-04-12T16:20:31Z</time>
      </trkpt>
      <trkpt lat="37.397452974691987" lon="-3.426747992634773">
        <ele>988.89999999999998</ele>
        <time>2003-04-12T16:20:34Z</time>
      </trkpt>
      <trkpt lat="37.397477030754089" lon="-3.426265027374029">
        <ele>989.79999999999995</ele>
        <time>2003-04-12T16:20:37Z</time>
      </trkpt>
      <trkpt lat="37.397418022155762" lon="-3.425258025527">
        <ele>991.60000000000002</ele>
        <time>2003-04-12T16:20:41Z</time>
      </trkpt>
      <trkpt lat="37.39724300801754" lon="-3.423902001231909">
        <ele>994.29999999999995</ele>
        <time>2003-04-12T16:20:46Z</time>
      </trkpt>
      <trkpt lat="37.397147035226226" lon="-3.422738006338477">
        <ele>996.39999999999998</ele>
        <time>2003-04-12T16:20:50Z</time>
      </trkpt>
      <trkpt lat="37.397118033841252" lon="-3.421579962596297">
        <ele>998</ele>
        <time>2003-04-12T16:20:54Z</time>
      </trkpt>
      <trkpt lat="37.397209983319044" lon="-3.420444969087839">
        <ele>999.79999999999995</ele>
        <time>2003-04-12T16:20:58Z</time>
      </trkpt>
      <trkpt lat="37.39743797108531" lon="-3.419320033863187">
        <ele>1001.7</ele>
        <time>2003-04-12T16:21:01Z</time>
      </trkpt>
      <trkpt lat="37.397780036553741" lon="-3.418306997045875">
        <ele>1003.3</ele>
        <time>2003-04-12T16:21:05Z</time>
      </trkpt>
      <trkpt lat="37.398223020136356" lon="-3.417273005470634">
        <ele>1005.2</ele>
        <time>2003-04-12T16:21:09Z</time>
      </trkpt>
      <trkpt lat="37.398687964305282" lon="-3.416189979761839">
        <ele>1007.3</ele>
        <time>2003-04-12T16:21:13Z</time>
      </trkpt>
      <trkpt lat="37.39909197203815" lon="-3.415136961266398">
        <ele>1009.3</ele>
        <time>2003-04-12T16:21:17Z</time>
      </trkpt>
      <trkpt lat="37.399367988109589" lon="-3.413940025493503">
        <ele>1011.6</ele>
        <time>2003-04-12T16:21:21Z</time>
      </trkpt>
      <trkpt lat="37.39952296949923" lon="-3.412703024223447">
        <ele>1012</ele>
        <time>2003-04-12T16:21:25Z</time>
      </trkpt>
      <trkpt lat="37.399682980030775" lon="-3.411484966054559">
        <ele>1012.5</ele>
        <time>2003-04-12T16:21:29Z</time>
      </trkpt>
      <trkpt lat="37.399841984733939" lon="-3.410252993926406">
        <ele>1014.1</ele>
        <time>2003-04-12T16:21:33Z</time>
      </trkpt>
      <trkpt lat="37.399999983608723" lon="-3.409047005698085">
        <ele>1017.5</ele>
        <time>2003-04-12T16:21:37Z</time>
      </trkpt>
      <trkpt lat="37.400197964161634" lon="-3.40783498249948">
        <ele>1021.7</ele>
        <time>2003-04-12T16:21:41Z</time>
      </trkpt>
      <trkpt lat="37.400486972182989" lon="-3.406694959849119">
        <ele>1024.7</ele>
        <time>2003-04-12T16:21:45Z</time>
      </trkpt>
      <trkpt lat="37.400883017107844" lon="-3.405574969947338">
        <ele>1026</ele>
        <time>2003-04-12T16:21:50Z</time>
      </trkpt>
      <trkpt lat="37.401430020108819" lon="-3.404448023065925">
        <ele>1026.4000000000001</ele>
        <time>2003-04-12T16:21:54Z</time>
      </trkpt>
      <trkpt lat="37.402009963989258" lon="-3.40325796045363">
        <ele>1027.0999999999999</ele>
        <time>2003-04-12T16:21:58Z</time>
      </trkpt>
      <trkpt lat="37.4025500100106" lon="-3.402073010802269">
        <ele>1028</ele>
        <time>2003-04-12T16:22:02Z</time>
      </trkpt>
      <trkpt lat="37.402861984446645" lon="-3.401186959818006">
        <ele>1028.3</ele>
        <time>2003-04-12T16:22:04Z</time>
      </trkpt>
      <trkpt lat="37.402977989986539" lon="-3.400541972368956">
        <ele>1028.7</ele>
        <time>2003-04-12T16:22:07Z</time>
      </trkpt>
      <trkpt lat="37.403017971664667" lon="-3.399879969656467">
        <ele>1029.4000000000001</ele>
        <time>2003-04-12T16:22:08Z</time>
      </trkpt>
      <trkpt lat="37.402977989986539" lon="-3.399210004135966">
        <ele>1029.8</ele>
        <time>2003-04-12T16:22:11Z</time>
      </trkpt>
      <trkpt lat="37.402901966124773" lon="-3.396570039913058">
        <ele>1031.4000000000001</ele>
        <time>2003-04-12T16:22:19Z</time>
      </trkpt>
      <trkpt lat="37.403072034940124" lon="-3.395935026928783">
        <ele>1032.5</ele>
        <time>2003-04-12T16:22:21Z</time>
      </trkpt>
      <trkpt lat="37.403191979974508" lon="-3.395636966452003">
        <ele>1033</ele>
        <time>2003-04-12T16:22:22Z</time>
      </trkpt>
      <trkpt lat="37.403485011309385" lon="-3.395077977329493">
        <ele>1035</ele>
        <time>2003-04-12T16:22:23Z</time>
      </trkpt>
      <trkpt lat="37.404208034276962" lon="-3.394087990745902">
        <ele>1038.9000000000001</ele>
        <time>2003-04-12T16:22:27Z</time>
      </trkpt>
      <trkpt lat="37.404919993132353" lon="-3.39305299334228">
        <ele>1041.5</ele>
        <time>2003-04-12T16:22:33Z</time>
      </trkpt>
      <trkpt lat="37.405349984765053" lon="-3.392155040055513">
        <ele>1042.2</ele>
        <time>2003-04-12T16:22:34Z</time>
      </trkpt>
      <trkpt lat="37.40555802360177" lon="-3.391499994322658">
        <ele>1042.5</ele>
        <time>2003-04-12T16:22:37Z</time>
      </trkpt>
      <trkpt lat="37.405743012204766" lon="-3.390510007739067">
        <ele>1044</ele>
        <time>2003-04-12T16:22:39Z</time>
      </trkpt>
      <trkpt lat="37.405843008309603" lon="-3.389115007594228">
        <ele>1045.8</ele>
        <time>2003-04-12T16:22:44Z</time>
      </trkpt>
      <trkpt lat="37.405888019129634" lon="-3.387674996629357">
        <ele>1048.5</ele>
        <time>2003-04-12T16:22:48Z</time>
      </trkpt>
      <trkpt lat="37.405943004414439" lon="-3.386202966794372">
        <ele>1051.8</ele>
        <time>2003-04-12T16:22:52Z</time>
      </trkpt>
      <trkpt lat="37.406002013012767" lon="-3.384711993858218">
        <ele>1055.8</ele>
        <time>2003-04-12T16:22:57Z</time>
      </trkpt>
      <trkpt lat="37.40605297498405" lon="-3.383199982345104">
        <ele>1060</ele>
        <time>2003-04-12T16:23:00Z</time>
      </trkpt>
      <trkpt lat="37.406107038259506" lon="-3.381719989702106">
        <ele>1063.9000000000001</ele>
        <time>2003-04-12T16:23:05Z</time>
      </trkpt>
      <trkpt lat="37.406197981908917" lon="-3.380296994000673">
        <ele>1068.2</ele>
        <time>2003-04-12T16:23:09Z</time>
      </trkpt>
      <trkpt lat="37.40646000020206" lon="-3.378882966935635">
        <ele>1072.2</ele>
        <time>2003-04-12T16:23:13Z</time>
      </trkpt>
      <trkpt lat="37.406729981303215" lon="-3.377452008426189">
        <ele>1076.7</ele>
        <time>2003-04-12T16:23:16Z</time>
      </trkpt>
      <trkpt lat="37.40691295824945" lon="-3.375982996076345">
        <ele>1080.5</ele>
        <time>2003-04-12T16:23:20Z</time>
      </trkpt>
      <trkpt lat="37.407044973224401" lon="-3.374505015090108">
        <ele>1084.0999999999999</ele>
        <time>2003-04-12T16:23:24Z</time>
      </trkpt>
      <trkpt lat="37.40725502371788" lon="-3.373447973281145">
        <ele>1086.9000000000001</ele>
        <time>2003-04-12T16:23:28Z</time>
      </trkpt>
      <trkpt lat="37.407483011484146" lon="-3.372802985832095">
        <ele>1088.7</ele>
        <time>2003-04-12T16:23:29Z</time>
      </trkpt>
      <trkpt lat="37.407773025333881" lon="-3.37221197783947">
        <ele>1090.5</ele>
        <time>2003-04-12T16:23:32Z</time>
      </trkpt>
      <trkpt lat="37.408314999192953" lon="-3.371400022879243">
        <ele>1093.5</ele>
        <time>2003-04-12T16:23:35Z</time>
      </trkpt>
      <trkpt lat="37.409112034365535" lon="-3.370369970798492">
        <ele>1097.0999999999999</ele>
        <time>2003-04-12T16:23:39Z</time>
      </trkpt>
      <trkpt lat="37.409830028191209" lon="-3.369291974231601">
        <ele>1100.4000000000001</ele>
        <time>2003-04-12T16:23:43Z</time>
      </trkpt>
      <trkpt lat="37.410081988200545" lon="-3.368698032572866">
        <ele>1100.9000000000001</ele>
        <time>2003-04-12T16:23:44Z</time>
      </trkpt>
      <trkpt lat="37.410351969301701" lon="-3.367726989090443">
        <ele>1101.8</ele>
        <time>2003-04-12T16:23:47Z</time>
      </trkpt>
      <trkpt lat="37.410550033673644" lon="-3.366329977288842">
        <ele>1102.3</ele>
        <time>2003-04-12T16:23:51Z</time>
      </trkpt>
      <trkpt lat="37.410762012004852" lon="-3.364972025156021">
        <ele>1101.8</ele>
        <time>2003-04-12T16:23:55Z</time>
      </trkpt>
      <trkpt lat="37.411040039733052" lon="-3.363990001380444">
        <ele>1100.8</ele>
        <time>2003-04-12T16:23:59Z</time>
      </trkpt>
      <trkpt lat="37.411492997780442" lon="-3.362725004553795">
        <ele>1098.5</ele>
        <time>2003-04-12T16:24:03Z</time>
      </trkpt>
      <trkpt lat="37.411921983584762" lon="-3.361509963870049">
        <ele>1095.4000000000001</ele>
        <time>2003-04-12T16:24:07Z</time>
      </trkpt>
      <trkpt lat="37.412022985517979" lon="-3.360833041369915">
        <ele>1093.8</ele>
        <time>2003-04-12T16:24:09Z</time>
      </trkpt>
      <trkpt lat="37.412060033529997" lon="-3.35977298207581">
        <ele>1092.5999999999999</ele>
        <time>2003-04-12T16:24:11Z</time>
      </trkpt>
      <trkpt lat="37.412006976082921" lon="-3.35828703828156">
        <ele>1091.7</ele>
        <time>2003-04-12T16:24:15Z</time>
      </trkpt>
      <trkpt lat="37.411976968869567" lon="-3.357120025902987">
        <ele>1090.7</ele>
        <time>2003-04-12T16:24:18Z</time>
      </trkpt>
      <trkpt lat="37.41194000467658" lon="-3.355922000482678">
        <ele>1089.5</ele>
        <time>2003-04-12T16:24:22Z</time>
      </trkpt>
      <trkpt lat="37.411877978593111" lon="-3.354711988940835">
        <ele>1088.9000000000001</ele>
        <time>2003-04-12T16:24:25Z</time>
      </trkpt>
      <trkpt lat="37.411797009408474" lon="-3.353492002934218">
        <ele>1089.2</ele>
        <time>2003-04-12T16:24:27Z</time>
      </trkpt>
      <trkpt lat="37.411702964454889" lon="-3.352275034412742">
        <ele>1089.9000000000001</ele>
        <time>2003-04-12T16:24:30Z</time>
      </trkpt>
      <trkpt lat="37.411623001098633" lon="-3.351063011214137">
        <ele>1090.9000000000001</ele>
        <time>2003-04-12T16:24:34Z</time>
      </trkpt>
      <trkpt lat="37.411572961136699" lon="-3.349830033257604">
        <ele>1088.5</ele>
        <time>2003-04-12T16:24:37Z</time>
      </trkpt>
      <trkpt lat="37.411528034135699" lon="-3.348560007289052">
        <ele>1083.5999999999999</ele>
        <time>2003-04-12T16:24:40Z</time>
      </trkpt>
      <trkpt lat="37.411495009437203" lon="-3.347270032390952">
        <ele>1078.8</ele>
        <time>2003-04-12T16:24:42Z</time>
      </trkpt>
      <trkpt lat="37.411455027759075" lon="-3.346003023907542">
        <ele>1078.0999999999999</ele>
        <time>2003-04-12T16:24:45Z</time>
      </trkpt>
      <trkpt lat="37.411442035809159" lon="-3.344777002930641">
        <ele>1076.5</ele>
        <time>2003-04-12T16:24:49Z</time>
      </trkpt>
      <trkpt lat="37.411504983901978" lon="-3.343572020530701">
        <ele>1072.5</ele>
        <time>2003-04-12T16:24:52Z</time>
      </trkpt>
      <trkpt lat="37.411570027470589" lon="-3.342129997909069">
        <ele>1071.0999999999999</ele>
        <time>2003-04-12T16:24:56Z</time>
      </trkpt>
      <trkpt lat="37.41146701388061" lon="-3.341452991589904">
        <ele>1071.8</ele>
        <time>2003-04-12T16:24:57Z</time>
      </trkpt>
      <trkpt lat="37.411095025017858" lon="-3.340118005871773">
        <ele>1073.7</ele>
        <time>2003-04-12T16:25:01Z</time>
      </trkpt>
      <trkpt lat="37.410775003954768" lon="-3.338761981576681">
        <ele>1073.4000000000001</ele>
        <time>2003-04-12T16:25:05Z</time>
      </trkpt>
      <trkpt lat="37.410711972042918" lon="-3.338075000792742">
        <ele>1072.5</ele>
        <time>2003-04-12T16:25:08Z</time>
      </trkpt>
      <trkpt lat="37.410727981477976" lon="-3.337364969775081">
        <ele>1071.5999999999999</ele>
        <time>2003-04-12T16:25:09Z</time>
      </trkpt>
      <trkpt lat="37.410826971754432" lon="-3.33665200509131">
        <ele>1071</ele>
        <time>2003-04-12T16:25:12Z</time>
      </trkpt>
      <trkpt lat="37.411056971177459" lon="-3.335226997733116">
        <ele>1070.5999999999999</ele>
        <time>2003-04-12T16:25:16Z</time>
      </trkpt>
      <trkpt lat="37.41112201474607" lon="-3.33418495953083">
        <ele>1070.0999999999999</ele>
        <time>2003-04-12T16:25:19Z</time>
      </trkpt>
      <trkpt lat="37.411041967570782" lon="-3.333484986796975">
        <ele>1070.3</ele>
        <time>2003-04-12T16:25:20Z</time>
      </trkpt>
      <trkpt lat="37.410812973976135" lon="-3.33205696195364">
        <ele>1069.7</ele>
        <time>2003-04-12T16:25:24Z</time>
      </trkpt>
      <trkpt lat="37.410677019506693" lon="-3.330549979582429">
        <ele>1069.5</ele>
        <time>2003-04-12T16:25:28Z</time>
      </trkpt>
      <trkpt lat="37.410633014515042" lon="-3.329371986910701">
        <ele>1069.5999999999999</ele>
        <time>2003-04-12T16:25:31Z</time>
      </trkpt>
      <trkpt lat="37.410590015351772" lon="-3.328202962875366">
        <ele>1069.7</ele>
        <time>2003-04-12T16:25:35Z</time>
      </trkpt>
      <trkpt lat="37.410445008426905" lon="-3.327099988237023">
        <ele>1070</ele>
        <time>2003-04-12T16:25:38Z</time>
      </trkpt>
      <trkpt lat="37.410134961828589" lon="-3.326019980013371">
        <ele>1070.7</ele>
        <time>2003-04-12T16:25:40Z</time>
      </trkpt>
      <trkpt lat="37.409840002655983" lon="-3.324918011203408">
        <ele>1072</ele>
        <time>2003-04-12T16:25:43Z</time>
      </trkpt>
      <trkpt lat="37.409615032374859" lon="-3.323795003816485">
        <ele>1072.7</ele>
        <time>2003-04-12T16:25:47Z</time>
      </trkpt>
      <trkpt lat="37.409455021843314" lon="-3.322641989216209">
        <ele>1071.3</ele>
        <time>2003-04-12T16:25:50Z</time>
      </trkpt>
      <trkpt lat="37.409347984939814" lon="-3.321468019858003">
        <ele>1069.5999999999999</ele>
        <time>2003-04-12T16:25:53Z</time>
      </trkpt>
      <trkpt lat="37.409312026575208" lon="-3.320284998044372">
        <ele>1067.7</ele>
        <time>2003-04-12T16:25:55Z</time>
      </trkpt>
      <trkpt lat="37.409343039616942" lon="-3.319110022857785">
        <ele>1065.9000000000001</ele>
        <time>2003-04-12T16:25:58Z</time>
      </trkpt>
      <trkpt lat="37.40942501462996" lon="-3.317977963015437">
        <ele>1063.5</ele>
        <time>2003-04-12T16:26:02Z</time>
      </trkpt>
      <trkpt lat="37.409637998789549" lon="-3.316495036706328">
        <ele>1057.9000000000001</ele>
        <time>2003-04-12T16:26:06Z</time>
      </trkpt>
      <trkpt lat="37.409864980727434" lon="-3.315385021269321">
        <ele>1053.3</ele>
        <time>2003-04-12T16:26:09Z</time>
      </trkpt>
      <trkpt lat="37.410258008167148" lon="-3.313979962840676">
        <ele>1047.7</ele>
        <time>2003-04-12T16:26:13Z</time>
      </trkpt>
      <trkpt lat="37.410741979256272" lon="-3.312642965465784">
        <ele>1042.4000000000001</ele>
        <time>2003-04-12T16:26:17Z</time>
      </trkpt>
      <trkpt lat="37.411272972822189" lon="-3.311402024701238">
        <ele>1037.4000000000001</ele>
        <time>2003-04-12T16:26:21Z</time>
      </trkpt>
      <trkpt lat="37.411734983325005" lon="-3.310344982892275">
        <ele>1033.7</ele>
        <time>2003-04-12T16:26:25Z</time>
      </trkpt>
      <trkpt lat="37.41191703826189" lon="-3.309781970456243">
        <ele>1032.0999999999999</ele>
        <time>2003-04-12T16:26:26Z</time>
      </trkpt>
      <trkpt lat="37.412107978016138" lon="-3.308870019391179">
        <ele>1029.8</ele>
        <time>2003-04-12T16:26:29Z</time>
      </trkpt>
      <trkpt lat="37.412200011312962" lon="-3.307893024757505">
        <ele>1027.5</ele>
        <time>2003-04-12T16:26:33Z</time>
      </trkpt>
      <trkpt lat="37.412170004099607" lon="-3.306894991546869">
        <ele>1025.4000000000001</ele>
        <time>2003-04-12T16:26:36Z</time>
      </trkpt>
      <trkpt lat="37.412028014659882" lon="-3.305920008569956">
        <ele>1023.9</ele>
        <time>2003-04-12T16:26:38Z</time>
      </trkpt>
      <trkpt lat="37.41176700219512" lon="-3.304979978129268">
        <ele>1022.6</ele>
        <time>2003-04-12T16:26:41Z</time>
      </trkpt>
      <trkpt lat="37.411397024989128" lon="-3.304087975993753">
        <ele>1021.6</ele>
        <time>2003-04-12T16:26:45Z</time>
      </trkpt>
      <trkpt lat="37.410782966762781" lon="-3.302948037162423">
        <ele>1021.4</ele>
        <time>2003-04-12T16:26:49Z</time>
      </trkpt>
      <trkpt lat="37.410154994577169" lon="-3.301850007846952">
        <ele>1021.4</ele>
        <time>2003-04-12T16:26:52Z</time>
      </trkpt>
      <trkpt lat="37.409517969936132" lon="-3.300718031823635">
        <ele>1021.7</ele>
        <time>2003-04-12T16:26:56Z</time>
      </trkpt>
      <trkpt lat="37.408868037164211" lon="-3.299559988081455">
        <ele>1021.7</ele>
        <time>2003-04-12T16:27:00Z</time>
      </trkpt>
      <trkpt lat="37.408205028623343" lon="-3.298376966267824">
        <ele>1021.8</ele>
        <time>2003-04-12T16:27:04Z</time>
      </trkpt>
      <trkpt lat="37.407517964020371" lon="-3.297156980261207">
        <ele>1022</ele>
        <time>2003-04-12T16:27:08Z</time>
      </trkpt>
      <trkpt lat="37.406986970454454" lon="-3.29621703363955">
        <ele>1022.2</ele>
        <time>2003-04-12T16:27:12Z</time>
      </trkpt>
      <trkpt lat="37.406448014080524" lon="-3.295253030955792">
        <ele>1022.3</ele>
        <time>2003-04-12T16:27:15Z</time>
      </trkpt>
      <trkpt lat="37.405900005251169" lon="-3.294276958331466">
        <ele>1022.6</ele>
        <time>2003-04-12T16:27:18Z</time>
      </trkpt>
      <trkpt lat="37.40534202195704" lon="-3.29329501837492">
        <ele>1024</ele>
        <time>2003-04-12T16:27:20Z</time>
      </trkpt>
      <trkpt lat="37.40478303283453" lon="-3.292312994599342">
        <ele>1026.5</ele>
        <time>2003-04-12T16:27:23Z</time>
      </trkpt>
      <trkpt lat="37.404205016791821" lon="-3.2913619838655">
        <ele>1030</ele>
        <time>2003-04-12T16:27:27Z</time>
      </trkpt>
      <trkpt lat="37.403621971607208" lon="-3.290432011708617">
        <ele>1034.3</ele>
        <time>2003-04-12T16:27:30Z</time>
      </trkpt>
      <trkpt lat="37.403021994978189" lon="-3.289537997916341">
        <ele>1038.5</ele>
        <time>2003-04-12T16:27:32Z</time>
      </trkpt>
      <trkpt lat="37.402408020570874" lon="-3.288682037964463">
        <ele>1042.8</ele>
        <time>2003-04-12T16:27:35Z</time>
      </trkpt>
      <trkpt lat="37.401773007586598" lon="-3.287866981700063">
        <ele>1046.9000000000001</ele>
        <time>2003-04-12T16:27:39Z</time>
      </trkpt>
      <trkpt lat="37.401119973510504" lon="-3.287077993154526">
        <ele>1051.0999999999999</ele>
        <time>2003-04-12T16:27:42Z</time>
      </trkpt>
      <trkpt lat="37.400442967191339" lon="-3.286318005993962">
        <ele>1055.4000000000001</ele>
        <time>2003-04-12T16:27:45Z</time>
      </trkpt>
      <trkpt lat="37.399742994457483" lon="-3.285591965541244">
        <ele>1059.7</ele>
        <time>2003-04-12T16:27:47Z</time>
      </trkpt>
      <trkpt lat="37.399021983146667" lon="-3.284897021949291">
        <ele>1064.0999999999999</ele>
        <time>2003-04-12T16:27:50Z</time>
      </trkpt>
      <trkpt lat="37.398280017077923" lon="-3.284227978438139">
        <ele>1068.2</ele>
        <time>2003-04-12T16:27:54Z</time>
      </trkpt>
      <trkpt lat="37.397511983290315" lon="-3.283592965453863">
        <ele>1071.4000000000001</ele>
        <time>2003-04-12T16:27:57Z</time>
      </trkpt>
      <trkpt lat="37.396719977259636" lon="-3.282979996874929">
        <ele>1074.2</ele>
        <time>2003-04-12T16:27:59Z</time>
      </trkpt>
      <trkpt lat="37.395895030349493" lon="-3.282404998317361">
        <ele>1076.5999999999999</ele>
        <time>2003-04-12T16:28:02Z</time>
      </trkpt>
      <trkpt lat="37.395042004063725" lon="-3.281851960346103">
        <ele>1078.0999999999999</ele>
        <time>2003-04-12T16:28:06Z</time>
      </trkpt>
      <trkpt lat="37.3941729683429" lon="-3.281291965395212">
        <ele>1079.7</ele>
        <time>2003-04-12T16:28:09Z</time>
      </trkpt>
      <trkpt lat="37.39329001866281" lon="-3.280740017071366">
        <ele>1080.9000000000001</ele>
        <time>2003-04-12T16:28:12Z</time>
      </trkpt>
      <trkpt lat="37.392385024577379" lon="-3.28023299574852">
        <ele>1080.8</ele>
        <time>2003-04-12T16:28:14Z</time>
      </trkpt>
      <trkpt lat="37.391447005793452" lon="-3.279750030487776">
        <ele>1081.2</ele>
        <time>2003-04-12T16:28:17Z</time>
      </trkpt>
      <trkpt lat="37.390479985624552" lon="-3.279264969751239">
        <ele>1081.4000000000001</ele>
        <time>2003-04-12T16:28:21Z</time>
      </trkpt>
      <trkpt lat="37.389501985162497" lon="-3.278758032247424">
        <ele>1081.4000000000001</ele>
        <time>2003-04-12T16:28:24Z</time>
      </trkpt>
      <trkpt lat="37.388524990528822" lon="-3.278267020359635">
        <ele>1081.2</ele>
        <time>2003-04-12T16:28:26Z</time>
      </trkpt>
      <trkpt lat="37.387568028643727" lon="-3.277771985158324">
        <ele>1081.3</ele>
        <time>2003-04-12T16:28:29Z</time>
      </trkpt>
      <trkpt lat="37.386635039001703" lon="-3.277281979098916">
        <ele>1081.3</ele>
        <time>2003-04-12T16:28:33Z</time>
      </trkpt>
      <trkpt lat="37.385672964155674" lon="-3.276781998574734">
        <ele>1081</ele>
        <time>2003-04-12T16:28:36Z</time>
      </trkpt>
      <trkpt lat="37.384693035855889" lon="-3.27628000639379">
        <ele>1081</ele>
        <time>2003-04-12T16:28:39Z</time>
      </trkpt>
      <trkpt lat="37.383697014302015" lon="-3.275772985070944">
        <ele>1080.8</ele>
        <time>2003-04-12T16:28:41Z</time>
      </trkpt>
      <trkpt lat="37.382738040760159" lon="-3.275326984003186">
        <ele>1080.9000000000001</ele>
        <time>2003-04-12T16:28:44Z</time>
      </trkpt>
      <trkpt lat="37.381864981725812" lon="-3.274909984320402">
        <ele>1081</ele>
        <time>2003-04-12T16:28:48Z</time>
      </trkpt>
      <trkpt lat="37.3808070179075" lon="-3.274431964382529">
        <ele>1081</ele>
        <time>2003-04-12T16:28:52Z</time>
      </trkpt>
      <trkpt lat="37.379752993583679" lon="-3.27402301132679">
        <ele>1079.5999999999999</ele>
        <time>2003-04-12T16:28:56Z</time>
      </trkpt>
      <trkpt lat="37.378697963431478" lon="-3.273793011903763">
        <ele>1076.8</ele>
        <time>2003-04-12T16:29:00Z</time>
      </trkpt>
      <trkpt lat="37.377661960199475" lon="-3.273753030225635">
        <ele>1073</ele>
        <time>2003-04-12T16:29:04Z</time>
      </trkpt>
      <trkpt lat="37.37659502774477" lon="-3.273898037150502">
        <ele>1069.8</ele>
        <time>2003-04-12T16:29:07Z</time>
      </trkpt>
      <trkpt lat="37.375490041449666" lon="-3.274242030456662">
        <ele>1068.3</ele>
        <time>2003-04-12T16:29:11Z</time>
      </trkpt>
      <trkpt lat="37.374395029619336" lon="-3.274745028465986">
        <ele>1068.8</ele>
        <time>2003-04-12T16:29:15Z</time>
      </trkpt>
      <trkpt lat="37.37335299141705" lon="-3.275288008153439">
        <ele>1070.5999999999999</ele>
        <time>2003-04-12T16:29:19Z</time>
      </trkpt>
      <trkpt lat="37.372322017326951" lon="-3.275811960920692">
        <ele>1072.4000000000001</ele>
        <time>2003-04-12T16:29:23Z</time>
      </trkpt>
      <trkpt lat="37.371262963861227" lon="-3.276361981406808">
        <ele>1074.5999999999999</ele>
        <time>2003-04-12T16:29:27Z</time>
      </trkpt>
      <trkpt lat="37.370159989222884" lon="-3.276919964700937">
        <ele>1076.0999999999999</ele>
        <time>2003-04-12T16:29:31Z</time>
      </trkpt>
      <trkpt lat="37.369315009564161" lon="-3.277352973818779">
        <ele>1077.3</ele>
        <time>2003-04-12T16:29:34Z</time>
      </trkpt>
      <trkpt lat="37.368212034925818" lon="-3.277922021225095">
        <ele>1078.5</ele>
        <time>2003-04-12T16:29:38Z</time>
      </trkpt>
      <trkpt lat="37.367109982296824" lon="-3.278483022004366">
        <ele>1079.9000000000001</ele>
        <time>2003-04-12T16:29:42Z</time>
      </trkpt>
      <trkpt lat="37.366019999608397" lon="-3.279047962278128">
        <ele>1081.2</ele>
        <time>2003-04-12T16:29:46Z</time>
      </trkpt>
      <trkpt lat="37.365184994414449" lon="-3.279477031901479">
        <ele>1082.5</ele>
        <time>2003-04-12T16:29:50Z</time>
      </trkpt>
      <trkpt lat="37.364325011149049" lon="-3.279895037412643">
        <ele>1083.7</ele>
        <time>2003-04-12T16:29:53Z</time>
      </trkpt>
      <trkpt lat="37.363448012620211" lon="-3.280327962711453">
        <ele>1084.5999999999999</ele>
        <time>2003-04-12T16:29:56Z</time>
      </trkpt>
      <trkpt lat="37.362560033798218" lon="-3.280774969607592">
        <ele>1085.7</ele>
        <time>2003-04-12T16:29:58Z</time>
      </trkpt>
      <trkpt lat="37.3616630025208" lon="-3.281239997595549">
        <ele>1087.0999999999999</ele>
        <time>2003-04-12T16:30:01Z</time>
      </trkpt>
      <trkpt lat="37.360754990950227" lon="-3.28171500004828">
        <ele>1088.2</ele>
        <time>2003-04-12T16:30:05Z</time>
      </trkpt>
      <trkpt lat="37.359842034056783" lon="-3.28221196308732">
        <ele>1089.4000000000001</ele>
        <time>2003-04-12T16:30:08Z</time>
      </trkpt>
      <trkpt lat="37.358918013051152" lon="-3.282685037702322">
        <ele>1090.5</ele>
        <time>2003-04-12T16:30:10Z</time>
      </trkpt>
      <trkpt lat="37.357992986217141" lon="-3.283152999356389">
        <ele>1091.8</ele>
        <time>2003-04-12T16:30:13Z</time>
      </trkpt>
      <trkpt lat="37.357072988525033" lon="-3.283622972667217">
        <ele>1093.0999999999999</ele>
        <time>2003-04-12T16:30:17Z</time>
      </trkpt>
      <trkpt lat="37.356152990832925" lon="-3.284082971513271">
        <ele>1094.5</ele>
        <time>2003-04-12T16:30:20Z</time>
      </trkpt>
      <trkpt lat="37.35523802228272" lon="-3.284559985622764">
        <ele>1095</ele>
        <time>2003-04-12T16:30:23Z</time>
      </trkpt>
      <trkpt lat="37.354317018762231" lon="-3.285021996125579">
        <ele>1095.0999999999999</ele>
        <time>2003-04-12T16:30:25Z</time>
      </trkpt>
      <trkpt lat="37.353457035496831" lon="-3.285464979708195">
        <ele>1094.8</ele>
        <time>2003-04-12T16:30:28Z</time>
      </trkpt>
      <trkpt lat="37.352345008403063" lon="-3.286036960780621">
        <ele>1096</ele>
        <time>2003-04-12T16:30:32Z</time>
      </trkpt>
      <trkpt lat="37.351504974067211" lon="-3.286462007090449">
        <ele>1097.5</ele>
        <time>2003-04-12T16:30:36Z</time>
      </trkpt>
      <trkpt lat="37.350411973893642" lon="-3.287029964849353">
        <ele>1101.0999999999999</ele>
        <time>2003-04-12T16:30:40Z</time>
      </trkpt>
      <trkpt lat="37.349343029782176" lon="-3.28758199699223">
        <ele>1104.5</ele>
        <time>2003-04-12T16:30:44Z</time>
      </trkpt>
      <trkpt lat="37.348387995734811" lon="-3.28807502053678">
        <ele>1107.7</ele>
        <time>2003-04-12T16:30:48Z</time>
      </trkpt>
      <trkpt lat="37.347788019105792" lon="-3.288372997194529">
        <ele>1109.8</ele>
        <time>2003-04-12T16:30:51Z</time>
      </trkpt>
      <trkpt lat="37.347298013046384" lon="-3.288638032972813">
        <ele>1111.4000000000001</ele>
        <time>2003-04-12T16:30:54Z</time>
      </trkpt>
      <trkpt lat="37.346827033907175" lon="-3.288814974948764">
        <ele>1111.8</ele>
        <time>2003-04-12T16:30:56Z</time>
      </trkpt>
      <trkpt lat="37.346670040860772" lon="-3.28882796689868">
        <ele>1112</ele>
        <time>2003-04-12T16:30:58Z</time>
      </trkpt>
      <trkpt lat="37.346512963995337" lon="-3.288812041282654">
        <ele>1111.8</ele>
        <time>2003-04-12T16:30:59Z</time>
      </trkpt>
      <trkpt lat="37.346180034801364" lon="-3.288682959973812">
        <ele>1111.3</ele>
        <time>2003-04-12T16:31:00Z</time>
      </trkpt>
      <trkpt lat="37.345647029578686" lon="-3.288335027173162">
        <ele>1109.5999999999999</ele>
        <time>2003-04-12T16:31:03Z</time>
      </trkpt>
      <trkpt lat="37.344737006351352" lon="-3.287781989201903">
        <ele>1107.5</ele>
        <time>2003-04-12T16:31:08Z</time>
      </trkpt>
      <trkpt lat="37.343760011717677" lon="-3.287187041714788">
        <ele>1107.3</ele>
        <time>2003-04-12T16:31:14Z</time>
      </trkpt>
      <trkpt lat="37.342902962118387" lon="-3.286665016785264">
        <ele>1107.2</ele>
        <time>2003-04-12T16:31:18Z</time>
      </trkpt>
      <trkpt lat="37.34202696941793" lon="-3.286075014621019">
        <ele>1106.8</ele>
        <time>2003-04-12T16:31:22Z</time>
      </trkpt>
      <trkpt lat="37.34116799198091" lon="-3.285379987210035">
        <ele>1105.5</ele>
        <time>2003-04-12T16:31:26Z</time>
      </trkpt>
      <trkpt lat="37.340302979573607" lon="-3.284601978957653">
        <ele>1104.7</ele>
        <time>2003-04-12T16:31:30Z</time>
      </trkpt>
      <trkpt lat="37.339484989643097" lon="-3.283677035942674">
        <ele>1104.2</ele>
        <time>2003-04-12T16:31:34Z</time>
      </trkpt>
      <trkpt lat="37.338749980553985" lon="-3.282723007723689">
        <ele>1103.3</ele>
        <time>2003-04-12T16:31:38Z</time>
      </trkpt>
      <trkpt lat="37.337946994230151" lon="-3.281771996989846">
        <ele>1102.5</ele>
        <time>2003-04-12T16:31:42Z</time>
      </trkpt>
      <trkpt lat="37.337034959346056" lon="-3.280902961269021">
        <ele>1101.5999999999999</ele>
        <time>2003-04-12T16:31:46Z</time>
      </trkpt>
      <trkpt lat="37.336059976369143" lon="-3.280048007145524">
        <ele>1100.5</ele>
        <time>2003-04-12T16:31:49Z</time>
      </trkpt>
      <trkpt lat="37.335094967857003" lon="-3.279209984466434">
        <ele>1099.4000000000001</ele>
        <time>2003-04-12T16:31:53Z</time>
      </trkpt>
      <trkpt lat="37.334132976830006" lon="-3.278368022292852">
        <ele>1097.7</ele>
        <time>2003-04-12T16:31:57Z</time>
      </trkpt>
      <trkpt lat="37.333193030208349" lon="-3.277527987957001">
        <ele>1095.5999999999999</ele>
        <time>2003-04-12T16:32:01Z</time>
      </trkpt>
      <trkpt lat="37.33222802169621" lon="-3.276688037440181">
        <ele>1092.7</ele>
        <time>2003-04-12T16:32:05Z</time>
      </trkpt>
      <trkpt lat="37.331314980983734" lon="-3.27587298117578">
        <ele>1089.9000000000001</ele>
        <time>2003-04-12T16:32:09Z</time>
      </trkpt>
      <trkpt lat="37.33036195859313" lon="-3.275028001517057">
        <ele>1087.7</ele>
        <time>2003-04-12T16:32:13Z</time>
      </trkpt>
      <trkpt lat="37.329420000314713" lon="-3.274216968566179">
        <ele>1086.8</ele>
        <time>2003-04-12T16:32:17Z</time>
      </trkpt>
      <trkpt lat="37.328535038977861" lon="-3.273420017212629">
        <ele>1085.7</ele>
        <time>2003-04-12T16:32:21Z</time>
      </trkpt>
      <trkpt lat="37.327627027407289" lon="-3.272613007575274">
        <ele>1084.5</ele>
        <time>2003-04-12T16:32:25Z</time>
      </trkpt>
      <trkpt lat="37.326748017221689" lon="-3.271840028464794">
        <ele>1083.5</ele>
        <time>2003-04-12T16:32:29Z</time>
      </trkpt>
      <trkpt lat="37.325889961794019" lon="-3.271077023819089">
        <ele>1082.5</ele>
        <time>2003-04-12T16:32:33Z</time>
      </trkpt>
      <trkpt lat="37.325107008218765" lon="-3.270385013893247">
        <ele>1081.5</ele>
        <time>2003-04-12T16:32:38Z</time>
      </trkpt>
      <trkpt lat="37.32462496496737" lon="-3.269992992281914">
        <ele>1080.9000000000001</ele>
        <time>2003-04-12T16:32:40Z</time>
      </trkpt>
      <trkpt lat="37.324307961389422" lon="-3.269825018942356">
        <ele>1080.9000000000001</ele>
        <time>2003-04-12T16:32:43Z</time>
      </trkpt>
      <trkpt lat="37.32395701110363" lon="-3.269710019230843">
        <ele>1080.5</ele>
        <time>2003-04-12T16:32:44Z</time>
      </trkpt>
      <trkpt lat="37.323401961475611" lon="-3.269614968448877">
        <ele>1081.2</ele>
        <time>2003-04-12T16:32:47Z</time>
      </trkpt>
      <trkpt lat="37.32258003205061" lon="-3.269507009536028">
        <ele>1083.5999999999999</ele>
        <time>2003-04-12T16:32:52Z</time>
      </trkpt>
      <trkpt lat="37.321772016584873" lon="-3.26938203535974">
        <ele>1088.2</ele>
        <time>2003-04-12T16:32:59Z</time>
      </trkpt>
      <trkpt lat="37.32118796557188" lon="-3.269284972921014">
        <ele>1087.7</ele>
        <time>2003-04-12T16:33:03Z</time>
      </trkpt>
      <trkpt lat="37.321108002215624" lon="-3.26923199929297">
        <ele>1087.7</ele>
        <time>2003-04-12T16:33:05Z</time>
      </trkpt>
      <trkpt lat="37.321044970303774" lon="-3.269150024279952">
        <ele>1087.8</ele>
        <time>2003-04-12T16:33:06Z</time>
      </trkpt>
      <trkpt lat="37.320997025817633" lon="-3.269048016518354">
        <ele>1087.5</ele>
        <time>2003-04-12T16:33:07Z</time>
      </trkpt>
      <trkpt lat="37.32097196392715" lon="-3.26893201097846">
        <ele>1087.5</ele>
        <time>2003-04-12T16:33:07Z</time>
      </trkpt>
      <trkpt lat="37.320980010554194" lon="-3.268807036802173">
        <ele>1087.4000000000001</ele>
        <time>2003-04-12T16:33:09Z</time>
      </trkpt>
      <trkpt lat="37.321017980575562" lon="-3.268679967150092">
        <ele>1087.3</ele>
        <time>2003-04-12T16:33:10Z</time>
      </trkpt>
      <trkpt lat="37.321087969467044" lon="-3.268563039600849">
        <ele>1086.9000000000001</ele>
        <time>2003-04-12T16:33:10Z</time>
      </trkpt>
      <trkpt lat="37.321334984153509" lon="-3.268218040466309">
        <ele>1084.0999999999999</ele>
        <time>2003-04-12T16:33:14Z</time>
      </trkpt>
      <trkpt lat="37.321566995233297" lon="-3.26777002774179">
        <ele>1080.2</ele>
        <time>2003-04-12T16:33:17Z</time>
      </trkpt>
      <trkpt lat="37.321775034070015" lon="-3.267169967293739">
        <ele>1075.4000000000001</ele>
        <time>2003-04-12T16:33:19Z</time>
      </trkpt>
      <trkpt lat="37.321854997426271" lon="-3.26669798232615">
        <ele>1073</ele>
        <time>2003-04-12T16:33:22Z</time>
      </trkpt>
      <trkpt lat="37.322000004351139" lon="-3.265461986884475">
        <ele>1069.8</ele>
        <time>2003-04-12T16:33:27Z</time>
      </trkpt>
      <trkpt lat="37.322163032367826" lon="-3.264279970899224">
        <ele>1068.8</ele>
        <time>2003-04-12T16:33:33Z</time>
      </trkpt>
      <trkpt lat="37.322366964071989" lon="-3.26317498460412">
        <ele>1068.5999999999999</ele>
        <time>2003-04-12T16:33:37Z</time>
      </trkpt>
      <trkpt lat="37.322557987645268" lon="-3.262062035501003">
        <ele>1066.9000000000001</ele>
        <time>2003-04-12T16:33:42Z</time>
      </trkpt>
      <trkpt lat="37.322786981239915" lon="-3.260814975947142">
        <ele>1063.0999999999999</ele>
        <time>2003-04-12T16:33:46Z</time>
      </trkpt>
      <trkpt lat="37.32298999093473" lon="-3.259658021852374">
        <ele>1058.7</ele>
        <time>2003-04-12T16:33:52Z</time>
      </trkpt>
      <trkpt lat="37.323222002014518" lon="-3.258416997268796">
        <ele>1053.8</ele>
        <time>2003-04-12T16:33:56Z</time>
      </trkpt>
      <trkpt lat="37.323453007265925" lon="-3.25713699683547">
        <ele>1048.9000000000001</ele>
        <time>2003-04-12T16:34:00Z</time>
      </trkpt>
      <trkpt lat="37.323640007525682" lon="-3.255835035815835">
        <ele>1042.9000000000001</ele>
        <time>2003-04-12T16:34:04Z</time>
      </trkpt>
      <trkpt lat="37.323745032772422" lon="-3.254501977935433">
        <ele>1035.8</ele>
        <time>2003-04-12T16:34:08Z</time>
      </trkpt>
      <trkpt lat="37.323767999187112" lon="-3.253102032467723">
        <ele>1028.0999999999999</ele>
        <time>2003-04-12T16:34:12Z</time>
      </trkpt>
      <trkpt lat="37.323761964216828" lon="-3.25169999152422">
        <ele>1020.6</ele>
        <time>2003-04-12T16:34:16Z</time>
      </trkpt>
      <trkpt lat="37.323767999187112" lon="-3.250314965844154">
        <ele>1013.4</ele>
        <time>2003-04-12T16:34:20Z</time>
      </trkpt>
      <trkpt lat="37.323875036090612" lon="-3.248952990397811">
        <ele>1005.8</ele>
        <time>2003-04-12T16:34:24Z</time>
      </trkpt>
      <trkpt lat="37.324072010815144" lon="-3.247623033821583">
        <ele>998.10000000000002</ele>
        <time>2003-04-12T16:34:28Z</time>
      </trkpt>
      <trkpt lat="37.324381973594427" lon="-3.246379997581244">
        <ele>990.70000000000005</ele>
        <time>2003-04-12T16:34:31Z</time>
      </trkpt>
      <trkpt lat="37.324720015749335" lon="-3.245141990482807">
        <ele>986.20000000000005</ele>
        <time>2003-04-12T16:34:35Z</time>
      </trkpt>
      <trkpt lat="37.325040036812425" lon="-3.24392301030457">
        <ele>981.29999999999995</ele>
        <time>2003-04-12T16:34:39Z</time>
      </trkpt>
      <trkpt lat="37.325367014855146" lon="-3.242692966014147">
        <ele>973.60000000000002</ele>
        <time>2003-04-12T16:34:43Z</time>
      </trkpt>
      <trkpt lat="37.325702039524913" lon="-3.241416988894343">
        <ele>965.79999999999995</ele>
        <time>2003-04-12T16:34:47Z</time>
      </trkpt>
      <trkpt lat="37.326024994254112" lon="-3.240157021209598">
        <ele>958.29999999999995</ele>
        <time>2003-04-12T16:34:51Z</time>
      </trkpt>
      <trkpt lat="37.326249964535236" lon="-3.238866962492466">
        <ele>950.89999999999998</ele>
        <time>2003-04-12T16:34:55Z</time>
      </trkpt>
      <trkpt lat="37.32640796341002" lon="-3.23756298981607">
        <ele>943.70000000000005</ele>
        <time>2003-04-12T16:34:59Z</time>
      </trkpt>
      <trkpt lat="37.326699988916516" lon="-3.236170001327992">
        <ele>935.60000000000002</ele>
        <time>2003-04-12T16:35:03Z</time>
      </trkpt>
      <trkpt lat="37.32694499194622" lon="-3.235052023082972">
        <ele>929</ele>
        <time>2003-04-12T16:35:06Z</time>
      </trkpt>
      <trkpt lat="37.327183037996292" lon="-3.233952987939119">
        <ele>922.5</ele>
        <time>2003-04-12T16:35:10Z</time>
      </trkpt>
      <trkpt lat="37.327423011884093" lon="-3.232533009722829">
        <ele>914.10000000000002</ele>
        <time>2003-04-12T16:35:14Z</time>
      </trkpt>
      <trkpt lat="37.327555026859045" lon="-3.231283016502857">
        <ele>906.5</ele>
        <time>2003-04-12T16:35:18Z</time>
      </trkpt>
      <trkpt lat="37.327719982713461" lon="-3.230009973049164">
        <ele>899.70000000000005</ele>
        <time>2003-04-12T16:35:22Z</time>
      </trkpt>
      <trkpt lat="37.327902037650347" lon="-3.228653026744723">
        <ele>893.89999999999998</ele>
        <time>2003-04-12T16:35:25Z</time>
      </trkpt>
      <trkpt lat="37.328132959082723" lon="-3.227697992697358">
        <ele>890.10000000000002</ele>
        <time>2003-04-12T16:35:29Z</time>
      </trkpt>
      <trkpt lat="37.328375028446317" lon="-3.227085024118424">
        <ele>887.5</ele>
        <time>2003-04-12T16:35:30Z</time>
      </trkpt>
      <trkpt lat="37.328837960958481" lon="-3.226222023367882">
        <ele>883.39999999999998</ele>
        <time>2003-04-12T16:35:33Z</time>
      </trkpt>
      <trkpt lat="37.329570036381483" lon="-3.225167999044061">
        <ele>876.89999999999998</ele>
        <time>2003-04-12T16:35:37Z</time>
      </trkpt>
      <trkpt lat="37.330197002738714" lon="-3.224074998870492">
        <ele>871</ele>
        <time>2003-04-12T16:35:41Z</time>
      </trkpt>
      <trkpt lat="37.330433037132025" lon="-3.223466975614429">
        <ele>868.5</ele>
        <time>2003-04-12T16:35:44Z</time>
      </trkpt>
      <trkpt lat="37.330658007413149" lon="-3.222512025386095">
        <ele>865.10000000000002</ele>
        <time>2003-04-12T16:35:47Z</time>
      </trkpt>
      <trkpt lat="37.330752974376082" lon="-3.221502006053925">
        <ele>863.10000000000002</ele>
        <time>2003-04-12T16:35:49Z</time>
      </trkpt>
      <trkpt lat="37.330696983262897" lon="-3.220510007813573">
        <ele>862.60000000000002</ele>
        <time>2003-04-12T16:35:52Z</time>
      </trkpt>
      <trkpt lat="37.330587012693286" lon="-3.219867032021284">
        <ele>862.39999999999998</ele>
        <time>2003-04-12T16:35:55Z</time>
      </trkpt>
      <trkpt lat="37.330291969701648" lon="-3.218919960781932">
        <ele>862</ele>
        <time>2003-04-12T16:35:57Z</time>
      </trkpt>
      <trkpt lat="37.329761981964111" lon="-3.217697041109204">
        <ele>861.70000000000005</ele>
        <time>2003-04-12T16:36:01Z</time>
      </trkpt>
      <trkpt lat="37.329231994226575" lon="-3.216458028182387">
        <ele>861.29999999999995</ele>
        <time>2003-04-12T16:36:05Z</time>
      </trkpt>
      <trkpt lat="37.328762020915747" lon="-3.215180039405823">
        <ele>860.5</ele>
        <time>2003-04-12T16:36:09Z</time>
      </trkpt>
      <trkpt lat="37.3285330273211" lon="-3.214112017303705">
        <ele>858.39999999999998</ele>
        <time>2003-04-12T16:36:12Z</time>
      </trkpt>
      <trkpt lat="37.328375028446317" lon="-3.212971994653344">
        <ele>856</ele>
        <time>2003-04-12T16:36:16Z</time>
      </trkpt>
      <trkpt lat="37.328219963237643" lon="-3.211810011416674">
        <ele>855</ele>
        <time>2003-04-12T16:36:19Z</time>
      </trkpt>
      <trkpt lat="37.32801703736186" lon="-3.2106429990381">
        <ele>854.70000000000005</ele>
        <time>2003-04-12T16:36:22Z</time>
      </trkpt>
      <trkpt lat="37.3278250079602" lon="-3.209467018023133">
        <ele>854.29999999999995</ele>
        <time>2003-04-12T16:36:24Z</time>
      </trkpt>
      <trkpt lat="37.327649993821979" lon="-3.20830000564456">
        <ele>853.89999999999998</ele>
        <time>2003-04-12T16:36:27Z</time>
      </trkpt>
      <trkpt lat="37.327389987185597" lon="-3.206878015771508">
        <ele>853.79999999999995</ele>
        <time>2003-04-12T16:36:31Z</time>
      </trkpt>
      <trkpt lat="37.327172979712486" lon="-3.206224981695414">
        <ele>853.70000000000005</ele>
        <time>2003-04-12T16:36:34Z</time>
      </trkpt>
      <trkpt lat="37.326887995004654" lon="-3.205612013116479">
        <ele>854</ele>
        <time>2003-04-12T16:36:35Z</time>
      </trkpt>
      <trkpt lat="37.326191961765289" lon="-3.204490011557937">
        <ele>856.29999999999995</ele>
        <time>2003-04-12T16:36:39Z</time>
      </trkpt>
      <trkpt lat="37.325489977374673" lon="-3.203370021656156">
        <ele>860</ele>
        <time>2003-04-12T16:36:43Z</time>
      </trkpt>
      <trkpt lat="37.325056968256831" lon="-3.202433008700609">
        <ele>863.10000000000002</ele>
        <time>2003-04-12T16:36:46Z</time>
      </trkpt>
      <trkpt lat="37.324607027694583" lon="-3.201087964698672">
        <ele>867.20000000000005</ele>
        <time>2003-04-12T16:36:50Z</time>
      </trkpt>
      <trkpt lat="37.324332017451525" lon="-3.199658012017608">
        <ele>871.29999999999995</ele>
        <time>2003-04-12T16:36:54Z</time>
      </trkpt>
      <trkpt lat="37.324245013296604" lon="-3.198553025722504">
        <ele>874.39999999999998</ele>
        <time>2003-04-12T16:36:58Z</time>
      </trkpt>
      <trkpt lat="37.3242780379951" lon="-3.197434963658452">
        <ele>876.89999999999998</ele>
        <time>2003-04-12T16:37:01Z</time>
      </trkpt>
      <trkpt lat="37.324422039091587" lon="-3.196316985413432">
        <ele>879</ele>
        <time>2003-04-12T16:37:03Z</time>
      </trkpt>
      <trkpt lat="37.324671987444162" lon="-3.195213004946709">
        <ele>880.60000000000002</ele>
        <time>2003-04-12T16:37:06Z</time>
      </trkpt>
      <trkpt lat="37.325038025155663" lon="-3.194150011986494">
        <ele>881.89999999999998</ele>
        <time>2003-04-12T16:37:10Z</time>
      </trkpt>
      <trkpt lat="37.325513027608395" lon="-3.193143010139465">
        <ele>882.39999999999998</ele>
        <time>2003-04-12T16:37:13Z</time>
      </trkpt>
      <trkpt lat="37.326088026165962" lon="-3.192197028547525">
        <ele>882.29999999999995</ele>
        <time>2003-04-12T16:37:16Z</time>
      </trkpt>
      <trkpt lat="37.326671993359923" lon="-3.191250041127205">
        <ele>880.79999999999995</ele>
        <time>2003-04-12T16:37:18Z</time>
      </trkpt>
      <trkpt lat="37.327183037996292" lon="-3.190257959067822">
        <ele>879.89999999999998</ele>
        <time>2003-04-12T16:37:21Z</time>
      </trkpt>
      <trkpt lat="37.327612023800611" lon="-3.189192032441497">
        <ele>878.70000000000005</ele>
        <time>2003-04-12T16:37:25Z</time>
      </trkpt>
      <trkpt lat="37.327962974086404" lon="-3.188072964549065">
        <ele>878.39999999999998</ele>
        <time>2003-04-12T16:37:28Z</time>
      </trkpt>
      <trkpt lat="37.328233039006591" lon="-3.186911987140775">
        <ele>879.20000000000005</ele>
        <time>2003-04-12T16:37:30Z</time>
      </trkpt>
      <trkpt lat="37.328402018174529" lon="-3.18571999669075">
        <ele>881.20000000000005</ele>
        <time>2003-04-12T16:37:33Z</time>
      </trkpt>
      <trkpt lat="37.328477036207914" lon="-3.184524988755584">
        <ele>883.60000000000002</ele>
        <time>2003-04-12T16:37:37Z</time>
      </trkpt>
      <trkpt lat="37.328458009287715" lon="-3.183325035497546">
        <ele>885.70000000000005</ele>
        <time>2003-04-12T16:37:40Z</time>
      </trkpt>
      <trkpt lat="37.328347032889724" lon="-3.182117035612464">
        <ele>887.79999999999995</ele>
        <time>2003-04-12T16:37:43Z</time>
      </trkpt>
      <trkpt lat="37.328132959082723" lon="-3.180916998535395">
        <ele>890</ele>
        <time>2003-04-12T16:37:45Z</time>
      </trkpt>
      <trkpt lat="37.327830037102103" lon="-3.179738000035286">
        <ele>891.89999999999998</ele>
        <time>2003-04-12T16:37:48Z</time>
      </trkpt>
      <trkpt lat="37.327423011884093" lon="-3.178596971556544">
        <ele>893.79999999999995</ele>
        <time>2003-04-12T16:37:52Z</time>
      </trkpt>
      <trkpt lat="37.326927976682782" lon="-3.177500031888485">
        <ele>895.70000000000005</ele>
        <time>2003-04-12T16:37:55Z</time>
      </trkpt>
      <trkpt lat="37.326337974518538" lon="-3.176469979807735">
        <ele>897.89999999999998</ele>
        <time>2003-04-12T16:37:57Z</time>
      </trkpt>
      <trkpt lat="37.325728023424745" lon="-3.175455015152693">
        <ele>900.39999999999998</ele>
        <time>2003-04-12T16:38:00Z</time>
      </trkpt>
      <trkpt lat="37.325183032080531" lon="-3.174401996657252">
        <ele>902.79999999999995</ele>
        <time>2003-04-12T16:38:04Z</time>
      </trkpt>
      <trkpt lat="37.324711969122291" lon="-3.173292987048626">
        <ele>904.60000000000002</ele>
        <time>2003-04-12T16:38:07Z</time>
      </trkpt>
      <trkpt lat="37.324232021346688" lon="-3.172172997146845">
        <ele>905.70000000000005</ele>
        <time>2003-04-12T16:38:10Z</time>
      </trkpt>
      <trkpt lat="37.323760036379099" lon="-3.171049989759922">
        <ele>906.29999999999995</ele>
        <time>2003-04-12T16:38:12Z</time>
      </trkpt>
      <trkpt lat="37.323327027261257" lon="-3.169897980988026">
        <ele>906.29999999999995</ele>
        <time>2003-04-12T16:38:15Z</time>
      </trkpt>
      <trkpt lat="37.32292503118515" lon="-3.168710013851523">
        <ele>905.10000000000002</ele>
        <time>2003-04-12T16:38:19Z</time>
      </trkpt>
      <trkpt lat="37.322556981816888" lon="-3.167490027844906">
        <ele>903.89999999999998</ele>
        <time>2003-04-12T16:38:22Z</time>
      </trkpt>
      <trkpt lat="37.322218017652631" lon="-3.166238022968173">
        <ele>902.60000000000002</ele>
        <time>2003-04-12T16:38:24Z</time>
      </trkpt>
      <trkpt lat="37.32191501185298" lon="-3.164960034191608">
        <ele>901</ele>
        <time>2003-04-12T16:38:27Z</time>
      </trkpt>
      <trkpt lat="37.321661962196231" lon="-3.163663018494844">
        <ele>899.10000000000002</ele>
        <time>2003-04-12T16:38:31Z</time>
      </trkpt>
      <trkpt lat="37.321431962773204" lon="-3.162367008626461">
        <ele>896.60000000000002</ele>
        <time>2003-04-12T16:38:34Z</time>
      </trkpt>
      <trkpt lat="37.321202969178557" lon="-3.161062030121684">
        <ele>893.60000000000002</ele>
        <time>2003-04-12T16:38:37Z</time>
      </trkpt>
      <trkpt lat="37.320985039696097" lon="-3.159771971404553">
        <ele>890.60000000000002</ele>
        <time>2003-04-12T16:38:39Z</time>
      </trkpt>
      <trkpt lat="37.320763003081083" lon="-3.15849700011313">
        <ele>889.10000000000002</ele>
        <time>2003-04-12T16:38:42Z</time>
      </trkpt>
      <trkpt lat="37.320553036406636" lon="-3.1572500243783">
        <ele>888.89999999999998</ele>
        <time>2003-04-12T16:38:46Z</time>
      </trkpt>
      <trkpt lat="37.320342985913157" lon="-3.156036995351315">
        <ele>889.39999999999998</ele>
        <time>2003-04-12T16:38:49Z</time>
      </trkpt>
      <trkpt lat="37.320137964561582" lon="-3.154902001842856">
        <ele>889.79999999999995</ele>
        <time>2003-04-12T16:38:51Z</time>
      </trkpt>
      <trkpt lat="37.31996001675725" lon="-3.153780000284314">
        <ele>889.5</ele>
        <time>2003-04-12T16:38:54Z</time>
      </trkpt>
      <trkpt lat="37.319764969870448" lon="-3.152662022039294">
        <ele>888.79999999999995</ele>
        <time>2003-04-12T16:38:58Z</time>
      </trkpt>
      <trkpt lat="37.31961702927947" lon="-3.15151303075254">
        <ele>887.70000000000005</ele>
        <time>2003-04-12T16:39:01Z</time>
      </trkpt>
      <trkpt lat="37.319572018459439" lon="-3.150341995060444">
        <ele>886.60000000000002</ele>
        <time>2003-04-12T16:39:04Z</time>
      </trkpt>
      <trkpt lat="37.319581992924213" lon="-3.14915201626718">
        <ele>885.70000000000005</ele>
        <time>2003-04-12T16:39:06Z</time>
      </trkpt>
      <trkpt lat="37.319602025672793" lon="-3.147979974746704">
        <ele>885.60000000000002</ele>
        <time>2003-04-12T16:39:09Z</time>
      </trkpt>
      <trkpt lat="37.319609988480806" lon="-3.146810028702021">
        <ele>885.79999999999995</ele>
        <time>2003-04-12T16:39:13Z</time>
      </trkpt>
      <trkpt lat="37.319612000137568" lon="-3.145630024373531">
        <ele>886.5</ele>
        <time>2003-04-12T16:39:16Z</time>
      </trkpt>
      <trkpt lat="37.319570006802678" lon="-3.144448008388281">
        <ele>887.70000000000005</ele>
        <time>2003-04-12T16:39:18Z</time>
      </trkpt>
      <trkpt lat="37.319504963234067" lon="-3.143253000453115">
        <ele>889.29999999999995</ele>
        <time>2003-04-12T16:39:21Z</time>
      </trkpt>
      <trkpt lat="37.31942499987781" lon="-3.142050029709935">
        <ele>891.29999999999995</ele>
        <time>2003-04-12T16:39:25Z</time>
      </trkpt>
      <trkpt lat="37.319343024864793" lon="-3.140853010118008">
        <ele>893.20000000000005</ele>
        <time>2003-04-12T16:39:28Z</time>
      </trkpt>
      <trkpt lat="37.319267001003027" lon="-3.139671999961138">
        <ele>896.20000000000005</ele>
        <time>2003-04-12T16:39:31Z</time>
      </trkpt>
      <trkpt lat="37.31918703764677" lon="-3.138504987582564">
        <ele>899.5</ele>
        <time>2003-04-12T16:39:33Z</time>
      </trkpt>
      <trkpt lat="37.319110007956624" lon="-3.137354990467429">
        <ele>902.89999999999998</ele>
        <time>2003-04-12T16:39:36Z</time>
      </trkpt>
      <trkpt lat="37.319032978266478" lon="-3.136212034150958">
        <ele>906</ele>
        <time>2003-04-12T16:39:40Z</time>
      </trkpt>
      <trkpt lat="37.318959971889853" lon="-3.1350770406425">
        <ele>910.29999999999995</ele>
        <time>2003-04-12T16:39:43Z</time>
      </trkpt>
      <trkpt lat="37.318874979391694" lon="-3.133580032736063">
        <ele>917.10000000000002</ele>
        <time>2003-04-12T16:39:47Z</time>
      </trkpt>
      <trkpt lat="37.318897023797035" lon="-3.132125018164516">
        <ele>925.20000000000005</ele>
        <time>2003-04-12T16:39:51Z</time>
      </trkpt>
      <trkpt lat="37.319055022671819" lon="-3.130706967785955">
        <ele>933.10000000000002</ele>
        <time>2003-04-12T16:39:55Z</time>
      </trkpt>
      <trkpt lat="37.319243028759956" lon="-3.129323031753302">
        <ele>940.70000000000005</ele>
        <time>2003-04-12T16:39:59Z</time>
      </trkpt>
      <trkpt lat="37.319432962685823" lon="-3.127970024943352">
        <ele>948.29999999999995</ele>
        <time>2003-04-12T16:40:03Z</time>
      </trkpt>
      <trkpt lat="37.31961702927947" lon="-3.126641996204853">
        <ele>955.89999999999998</ele>
        <time>2003-04-12T16:40:07Z</time>
      </trkpt>
      <trkpt lat="37.319864965975285" lon="-3.125355038791895">
        <ele>963.60000000000002</ele>
        <time>2003-04-12T16:40:11Z</time>
      </trkpt>
      <trkpt lat="37.320169983431697" lon="-3.124104961752892">
        <ele>970.89999999999998</ele>
        <time>2003-04-12T16:40:15Z</time>
      </trkpt>
      <trkpt lat="37.320452034473419" lon="-3.122863015159965">
        <ele>977.70000000000005</ele>
        <time>2003-04-12T16:40:19Z</time>
      </trkpt>
      <trkpt lat="37.320635011419654" lon="-3.12162802554667">
        <ele>984.39999999999998</ele>
        <time>2003-04-12T16:40:22Z</time>
      </trkpt>
      <trkpt lat="37.320765014737844" lon="-3.120388006791472">
        <ele>990.60000000000002</ele>
        <time>2003-04-12T16:40:26Z</time>
      </trkpt>
      <trkpt lat="37.32075797393918" lon="-3.119144970551133">
        <ele>995.89999999999998</ele>
        <time>2003-04-12T16:40:30Z</time>
      </trkpt>
      <trkpt lat="37.320607015863061" lon="-3.117915010079742">
        <ele>1000.6</ele>
        <time>2003-04-12T16:40:34Z</time>
      </trkpt>
      <trkpt lat="37.320382967591286" lon="-3.117023007944226">
        <ele>1004.2</ele>
        <time>2003-04-12T16:40:38Z</time>
      </trkpt>
      <trkpt lat="37.319947024807334" lon="-3.115897988900542">
        <ele>1009.1</ele>
        <time>2003-04-12T16:40:42Z</time>
      </trkpt>
      <trkpt lat="37.319357022643089" lon="-3.11488201841712">
        <ele>1014.2</ele>
        <time>2003-04-12T16:40:46Z</time>
      </trkpt>
      <trkpt lat="37.31882200576365" lon="-3.114211969077587">
        <ele>1018.2</ele>
        <time>2003-04-12T16:40:49Z</time>
      </trkpt>
      <trkpt lat="37.318009966984391" lon="-3.113430021330714">
        <ele>1022</ele>
        <time>2003-04-12T16:40:53Z</time>
      </trkpt>
      <trkpt lat="37.317307982593775" lon="-3.112967004999518">
        <ele>1023.8</ele>
        <time>2003-04-12T16:40:56Z</time>
      </trkpt>
      <trkpt lat="37.316537015140057" lon="-3.112623011693358">
        <ele>1024.0999999999999</ele>
        <time>2003-04-12T16:40:58Z</time>
      </trkpt>
      <trkpt lat="37.31544996611774" lon="-3.112310031428933">
        <ele>1023.3</ele>
        <time>2003-04-12T16:41:02Z</time>
      </trkpt>
      <trkpt lat="37.314286977052689" lon="-3.11223803088069">
        <ele>1018.9</ele>
        <time>2003-04-12T16:41:06Z</time>
      </trkpt>
      <trkpt lat="37.31336697936058" lon="-3.112250017002225">
        <ele>1014.4</ele>
        <time>2003-04-12T16:41:09Z</time>
      </trkpt>
      <trkpt lat="37.312427032738924" lon="-3.112287987023592">
        <ele>1009.7</ele>
        <time>2003-04-12T16:41:13Z</time>
      </trkpt>
      <trkpt lat="37.311473004519939" lon="-3.1123480014503">
        <ele>1005.1</ele>
        <time>2003-04-12T16:41:16Z</time>
      </trkpt>
      <trkpt lat="37.310516964644194" lon="-3.112387983128429">
        <ele>1000.2</ele>
        <time>2003-04-12T16:41:19Z</time>
      </trkpt>
      <trkpt lat="37.309548016637564" lon="-3.112397035583854">
        <ele>995.5</ele>
        <time>2003-04-12T16:41:21Z</time>
      </trkpt>
      <trkpt lat="37.308592982590199" lon="-3.112361999228597">
        <ele>990.60000000000002</ele>
        <time>2003-04-12T16:41:24Z</time>
      </trkpt>
      <trkpt lat="37.307627974078059" lon="-3.11226200312376">
        <ele>986.60000000000002</ele>
        <time>2003-04-12T16:41:28Z</time>
      </trkpt>
      <trkpt lat="37.306649973616004" lon="-3.112105010077357">
        <ele>984.20000000000005</ele>
        <time>2003-04-12T16:41:31Z</time>
      </trkpt>
      <trkpt lat="37.305689994245768" lon="-3.111884985119104">
        <ele>983.60000000000002</ele>
        <time>2003-04-12T16:41:33Z</time>
      </trkpt>
      <trkpt lat="37.304757004603744" lon="-3.111594971269369">
        <ele>984.29999999999995</ele>
        <time>2003-04-12T16:41:36Z</time>
      </trkpt>
      <trkpt lat="37.303838012740016" lon="-3.11127201654017">
        <ele>986.5</ele>
        <time>2003-04-12T16:41:40Z</time>
      </trkpt>
      <trkpt lat="37.302935030311346" lon="-3.110919976606965">
        <ele>988.5</ele>
        <time>2003-04-12T16:41:43Z</time>
      </trkpt>
      <trkpt lat="37.302051996812224" lon="-3.110553016886115">
        <ele>990.39999999999998</ele>
        <time>2003-04-12T16:41:46Z</time>
      </trkpt>
      <trkpt lat="37.300935024395585" lon="-3.110120007768273">
        <ele>992.89999999999998</ele>
        <time>2003-04-12T16:41:50Z</time>
      </trkpt>
      <trkpt lat="37.29985199868679" lon="-3.109848015010357">
        <ele>994.10000000000002</ele>
        <time>2003-04-12T16:41:54Z</time>
      </trkpt>
      <trkpt lat="37.299029985442758" lon="-3.10983301140368">
        <ele>993.39999999999998</ele>
        <time>2003-04-12T16:41:56Z</time>
      </trkpt>
      <trkpt lat="37.298211995512247" lon="-3.109975000843406">
        <ele>991.29999999999995</ele>
        <time>2003-04-12T16:41:59Z</time>
      </trkpt>
      <trkpt lat="37.297112038359046" lon="-3.110395018011332">
        <ele>986.10000000000002</ele>
        <time>2003-04-12T16:42:03Z</time>
      </trkpt>
      <trkpt lat="37.296248031780124" lon="-3.11080195941031">
        <ele>980.39999999999998</ele>
        <time>2003-04-12T16:42:07Z</time>
      </trkpt>
      <trkpt lat="37.295349994674325" lon="-3.1112099904567">
        <ele>974.89999999999998</ele>
        <time>2003-04-12T16:42:10Z</time>
      </trkpt>
      <trkpt lat="37.294432008638978" lon="-3.111563036218286">
        <ele>971.39999999999998</ele>
        <time>2003-04-12T16:42:13Z</time>
      </trkpt>
      <trkpt lat="37.293483009561896" lon="-3.11181197874248">
        <ele>969.70000000000005</ele>
        <time>2003-04-12T16:42:15Z</time>
      </trkpt>
      <trkpt lat="37.292514983564615" lon="-3.111927984282374">
        <ele>970</ele>
        <time>2003-04-12T16:42:18Z</time>
      </trkpt>
      <trkpt lat="37.291872007772326" lon="-3.111882973462343">
        <ele>970.89999999999998</ele>
        <time>2003-04-12T16:42:21Z</time>
      </trkpt>
      <trkpt lat="37.291255015879869" lon="-3.11174500733614">
        <ele>973.20000000000005</ele>
        <time>2003-04-12T16:42:22Z</time>
      </trkpt>
      <trkpt lat="37.290386985987425" lon="-3.111405037343502">
        <ele>977.5</ele>
        <time>2003-04-12T16:42:26Z</time>
      </trkpt>
      <trkpt lat="37.28960202075541" lon="-3.110888041555882">
        <ele>981.60000000000002</ele>
        <time>2003-04-12T16:42:29Z</time>
      </trkpt>
      <trkpt lat="37.288904981687665" lon="-3.110238024964929">
        <ele>985.39999999999998</ele>
        <time>2003-04-12T16:42:32Z</time>
      </trkpt>
      <trkpt lat="37.288293018937111" lon="-3.109482983127236">
        <ele>989.10000000000002</ele>
        <time>2003-04-12T16:42:34Z</time>
      </trkpt>
      <trkpt lat="37.287596985697746" lon="-3.108355030417442">
        <ele>994.29999999999995</ele>
        <time>2003-04-12T16:42:38Z</time>
      </trkpt>
      <trkpt lat="37.286989968270063" lon="-3.107163039967418">
        <ele>999.5</ele>
        <time>2003-04-12T16:42:42Z</time>
      </trkpt>
      <trkpt lat="37.286427039653063" lon="-3.105946993455291">
        <ele>1004.5</ele>
        <time>2003-04-12T16:42:46Z</time>
      </trkpt>
      <trkpt lat="37.28586302138865" lon="-3.104743016883731">
        <ele>1009.8</ele>
        <time>2003-04-12T16:42:50Z</time>
      </trkpt>
      <trkpt lat="37.285290034487844" lon="-3.103556977584958">
        <ele>1015.2</ele>
        <time>2003-04-12T16:42:54Z</time>
      </trkpt>
      <trkpt lat="37.284679999575019" lon="-3.102413015440106">
        <ele>1020.1</ele>
        <time>2003-04-12T16:42:59Z</time>
      </trkpt>
      <trkpt lat="37.284025037661195" lon="-3.101312974467874">
        <ele>1025.2</ele>
        <time>2003-04-12T16:43:03Z</time>
      </trkpt>
      <trkpt lat="37.283311989158392" lon="-3.100287029519677">
        <ele>1030</ele>
        <time>2003-04-12T16:43:07Z</time>
      </trkpt>
      <trkpt lat="37.28253498673439" lon="-3.099338030442596">
        <ele>1035.2</ele>
        <time>2003-04-12T16:43:11Z</time>
      </trkpt>
      <trkpt lat="37.281687995418906" lon="-3.098490033298731">
        <ele>1040.0999999999999</ele>
        <time>2003-04-12T16:43:15Z</time>
      </trkpt>
      <trkpt lat="37.280787024646997" lon="-3.0977370031178">
        <ele>1045.2</ele>
        <time>2003-04-12T16:43:19Z</time>
      </trkpt>
      <trkpt lat="37.279826961457729" lon="-3.097107019275427">
        <ele>1050.3</ele>
        <time>2003-04-12T16:43:23Z</time>
      </trkpt>
      <trkpt lat="37.278851978480816" lon="-3.096579965204001">
        <ele>1055.0999999999999</ele>
        <time>2003-04-12T16:43:27Z</time>
      </trkpt>
      <trkpt lat="37.277847994118929" lon="-3.096147039905191">
        <ele>1060.5</ele>
        <time>2003-04-12T16:43:31Z</time>
      </trkpt>
      <trkpt lat="37.276805033907294" lon="-3.095887033268809">
        <ele>1065.5999999999999</ele>
        <time>2003-04-12T16:43:35Z</time>
      </trkpt>
      <trkpt lat="37.275753021240234" lon="-3.095691986382008">
        <ele>1070.8</ele>
        <time>2003-04-12T16:43:39Z</time>
      </trkpt>
      <trkpt lat="37.274679969996214" lon="-3.095562988892198">
        <ele>1074.5</ele>
        <time>2003-04-12T16:43:43Z</time>
      </trkpt>
      <trkpt lat="37.273571966215968" lon="-3.095480008050799">
        <ele>1076.9000000000001</ele>
        <time>2003-04-12T16:43:47Z</time>
      </trkpt>
      <trkpt lat="37.272415012121201" lon="-3.095428040251136">
        <ele>1077</ele>
        <time>2003-04-12T16:43:51Z</time>
      </trkpt>
      <trkpt lat="37.271240036934614" lon="-3.095380011945963">
        <ele>1075.5</ele>
        <time>2003-04-12T16:43:55Z</time>
      </trkpt>
      <trkpt lat="37.270060032606125" lon="-3.095250008627772">
        <ele>1073.5</ele>
        <time>2003-04-12T16:43:58Z</time>
      </trkpt>
      <trkpt lat="37.268925039097667" lon="-3.094947002828121">
        <ele>1071.5999999999999</ele>
        <time>2003-04-12T16:44:03Z</time>
      </trkpt>
      <trkpt lat="37.268103025853634" lon="-3.094563027843833">
        <ele>1071.3</ele>
        <time>2003-04-12T16:44:06Z</time>
      </trkpt>
      <trkpt lat="37.267113039270043" lon="-3.093834975734353">
        <ele>1072.8</ele>
        <time>2003-04-12T16:44:10Z</time>
      </trkpt>
      <trkpt lat="37.266454976052046" lon="-3.093152018263936">
        <ele>1075.3</ele>
        <time>2003-04-12T16:44:14Z</time>
      </trkpt>
      <trkpt lat="37.265712004154921" lon="-3.092106962576509">
        <ele>1079.4000000000001</ele>
        <time>2003-04-12T16:44:17Z</time>
      </trkpt>
      <trkpt lat="37.265123007819057" lon="-3.090940034016967">
        <ele>1083.2</ele>
        <time>2003-04-12T16:44:21Z</time>
      </trkpt>
      <trkpt lat="37.264612969011068" lon="-3.089696997776628">
        <ele>1085.5</ele>
        <time>2003-04-12T16:44:25Z</time>
      </trkpt>
      <trkpt lat="37.264102008193731" lon="-3.088432000949979">
        <ele>1086</ele>
        <time>2003-04-12T16:44:29Z</time>
      </trkpt>
      <trkpt lat="37.263500019907951" lon="-3.087198017165065">
        <ele>1085.4000000000001</ele>
        <time>2003-04-12T16:44:33Z</time>
      </trkpt>
      <trkpt lat="37.262778002768755" lon="-3.086017007008195">
        <ele>1085.4000000000001</ele>
        <time>2003-04-12T16:44:37Z</time>
      </trkpt>
      <trkpt lat="37.261927993968129" lon="-3.0849530082196">
        <ele>1085.5</ele>
        <time>2003-04-12T16:44:41Z</time>
      </trkpt>
      <trkpt lat="37.261227015405893" lon="-3.084216993302107">
        <ele>1086.5</ele>
        <time>2003-04-12T16:44:45Z</time>
      </trkpt>
      <trkpt lat="37.26046803407371" lon="-3.083569994196296">
        <ele>1087.5999999999999</ele>
        <time>2003-04-12T16:44:48Z</time>
      </trkpt>
      <trkpt lat="37.259675022214651" lon="-3.083015028387308">
        <ele>1089.2</ele>
        <time>2003-04-12T16:44:51Z</time>
      </trkpt>
      <trkpt lat="37.258580010384321" lon="-3.082422008737922">
        <ele>1091.2</ele>
        <time>2003-04-12T16:44:55Z</time>
      </trkpt>
      <trkpt lat="37.25743998773396" lon="-3.081982964649797">
        <ele>1091.8</ele>
        <time>2003-04-12T16:44:59Z</time>
      </trkpt>
      <trkpt lat="37.256553014740348" lon="-3.081760006025434">
        <ele>1091.9000000000001</ele>
        <time>2003-04-12T16:45:01Z</time>
      </trkpt>
      <trkpt lat="37.255637962371111" lon="-3.081637965515256">
        <ele>1092.2</ele>
        <time>2003-04-12T16:45:04Z</time>
      </trkpt>
      <trkpt lat="37.254698015749454" lon="-3.081607036292553">
        <ele>1092.5</ele>
        <time>2003-04-12T16:45:08Z</time>
      </trkpt>
      <trkpt lat="37.253750022500753" lon="-3.081651963293552">
        <ele>1092.8</ele>
        <time>2003-04-12T16:45:11Z</time>
      </trkpt>
      <trkpt lat="37.252800017595291" lon="-3.081686999648809">
        <ele>1093.2</ele>
        <time>2003-04-12T16:45:14Z</time>
      </trkpt>
      <trkpt lat="37.251846995204687" lon="-3.081718012690544">
        <ele>1093.4000000000001</ele>
        <time>2003-04-12T16:45:16Z</time>
      </trkpt>
      <trkpt lat="37.250894978642464" lon="-3.081752965226769">
        <ele>1093.8</ele>
        <time>2003-04-12T16:45:19Z</time>
      </trkpt>
      <trkpt lat="37.249942040070891" lon="-3.081786995753646">
        <ele>1094</ele>
        <time>2003-04-12T16:45:23Z</time>
      </trkpt>
      <trkpt lat="37.248988011851907" lon="-3.081824965775013">
        <ele>1094.2</ele>
        <time>2003-04-12T16:45:26Z</time>
      </trkpt>
      <trkpt lat="37.248025014996529" lon="-3.081852961331606">
        <ele>1094.4000000000001</ele>
        <time>2003-04-12T16:45:28Z</time>
      </trkpt>
      <trkpt lat="37.247047014534473" lon="-3.081884980201721">
        <ele>1094.7</ele>
        <time>2003-04-12T16:45:31Z</time>
      </trkpt>
      <trkpt lat="37.246058033779263" lon="-3.08192303404212">
        <ele>1095</ele>
        <time>2003-04-12T16:45:35Z</time>
      </trkpt>
      <trkpt lat="37.245062012225389" lon="-3.081952035427094">
        <ele>1095.4000000000001</ele>
        <time>2003-04-12T16:45:38Z</time>
      </trkpt>
      <trkpt lat="37.2440529987216" lon="-3.081977013498545">
        <ele>1095.8</ele>
        <time>2003-04-12T16:45:41Z</time>
      </trkpt>
      <trkpt lat="37.243035016581416" lon="-3.081990005448461">
        <ele>1096.2</ele>
        <time>2003-04-12T16:45:43Z</time>
      </trkpt>
      <trkpt lat="37.24201200529933" lon="-3.082025041803718">
        <ele>1096.5</ele>
        <time>2003-04-12T16:45:46Z</time>
      </trkpt>
      <trkpt lat="37.24098295904696" lon="-3.082069968804717">
        <ele>1096.7</ele>
        <time>2003-04-12T16:45:50Z</time>
      </trkpt>
      <trkpt lat="37.239947961643338" lon="-3.082120008766651">
        <ele>1097.0999999999999</ele>
        <time>2003-04-12T16:45:53Z</time>
      </trkpt>
      <trkpt lat="37.238914975896478" lon="-3.082172982394695">
        <ele>1097.3</ele>
        <time>2003-04-12T16:45:55Z</time>
      </trkpt>
      <trkpt lat="37.237890036776662" lon="-3.082207012921572">
        <ele>1097.7</ele>
        <time>2003-04-12T16:45:58Z</time>
      </trkpt>
      <trkpt lat="37.236861996352673" lon="-3.082248000428081">
        <ele>1098</ele>
        <time>2003-04-12T16:46:02Z</time>
      </trkpt>
      <trkpt lat="37.235826998949051" lon="-3.082280019298196">
        <ele>1098.4000000000001</ele>
        <time>2003-04-12T16:46:05Z</time>
      </trkpt>
      <trkpt lat="37.234784960746765" lon="-3.08231296017766">
        <ele>1098.9000000000001</ele>
        <time>2003-04-12T16:46:08Z</time>
      </trkpt>
      <trkpt lat="37.233737977221608" lon="-3.082356965169311">
        <ele>1099.3</ele>
        <time>2003-04-12T16:46:10Z</time>
      </trkpt>
      <trkpt lat="37.232686970382929" lon="-3.082389989867806">
        <ele>1099.7</ele>
        <time>2003-04-12T16:46:13Z</time>
      </trkpt>
      <trkpt lat="37.23163696937263" lon="-3.082429971545935">
        <ele>1100</ele>
        <time>2003-04-12T16:46:17Z</time>
      </trkpt>
      <trkpt lat="37.23060498945415" lon="-3.082452015951276">
        <ele>1100.4000000000001</ele>
        <time>2003-04-12T16:46:20Z</time>
      </trkpt>
      <trkpt lat="37.229578038677573" lon="-3.082374986261129">
        <ele>1101</ele>
        <time>2003-04-12T16:46:22Z</time>
      </trkpt>
      <trkpt lat="37.228555027395487" lon="-3.082163007929921">
        <ele>1101.2</ele>
        <time>2003-04-12T16:46:25Z</time>
      </trkpt>
      <trkpt lat="37.227547019720078" lon="-3.081842986866832">
        <ele>1101.8</ele>
        <time>2003-04-12T16:46:29Z</time>
      </trkpt>
      <trkpt lat="37.226572036743164" lon="-3.081369996070862">
        <ele>1102.8</ele>
        <time>2003-04-12T16:46:32Z</time>
      </trkpt>
      <trkpt lat="37.225639969110489" lon="-3.080777982249856">
        <ele>1103.5999999999999</ele>
        <time>2003-04-12T16:46:35Z</time>
      </trkpt>
      <trkpt lat="37.224752996116877" lon="-3.080092007294297">
        <ele>1104.5999999999999</ele>
        <time>2003-04-12T16:46:37Z</time>
      </trkpt>
      <trkpt lat="37.223883038386703" lon="-3.079373007640243">
        <ele>1105.5999999999999</ele>
        <time>2003-04-12T16:46:40Z</time>
      </trkpt>
      <trkpt lat="37.223009979352355" lon="-3.078666999936104">
        <ele>1106.5999999999999</ele>
        <time>2003-04-12T16:46:44Z</time>
      </trkpt>
      <trkpt lat="37.222137004137039" lon="-3.077961998060346">
        <ele>1107.5</ele>
        <time>2003-04-12T16:46:47Z</time>
      </trkpt>
      <trkpt lat="37.221260005608201" lon="-3.077271999791265">
        <ele>1108.5</ele>
        <time>2003-04-12T16:46:49Z</time>
      </trkpt>
      <trkpt lat="37.220389964058995" lon="-3.07657303288579">
        <ele>1109.4000000000001</ele>
        <time>2003-04-12T16:46:52Z</time>
      </trkpt>
      <trkpt lat="37.219525035470724" lon="-3.075869958847761">
        <ele>1110.4000000000001</ele>
        <time>2003-04-12T16:46:56Z</time>
      </trkpt>
      <trkpt lat="37.21865801140666" lon="-3.07517702691257">
        <ele>1111.5</ele>
        <time>2003-04-12T16:46:59Z</time>
      </trkpt>
      <trkpt lat="37.21779702231288" lon="-3.074477976188064">
        <ele>1112.4000000000001</ele>
        <time>2003-04-12T16:47:02Z</time>
      </trkpt>
      <trkpt lat="37.216937961056828" lon="-3.07378001511097">
        <ele>1113.3</ele>
        <time>2003-04-12T16:47:04Z</time>
      </trkpt>
      <trkpt lat="37.216082001104951" lon="-3.073081970214844">
        <ele>1114.4000000000001</ele>
        <time>2003-04-12T16:47:07Z</time>
      </trkpt>
      <trkpt lat="37.215226963162422" lon="-3.072391971945763">
        <ele>1115.5999999999999</ele>
        <time>2003-04-12T16:47:11Z</time>
      </trkpt>
      <trkpt lat="37.214387012645602" lon="-3.071687975898385">
        <ele>1117</ele>
        <time>2003-04-12T16:47:14Z</time>
      </trkpt>
      <trkpt lat="37.213577991351485" lon="-3.070937963202596">
        <ele>1118.3</ele>
        <time>2003-04-12T16:47:16Z</time>
      </trkpt>
      <trkpt lat="37.212824961170554" lon="-3.070122990757227">
        <ele>1119.7</ele>
        <time>2003-04-12T16:47:19Z</time>
      </trkpt>
      <trkpt lat="37.212162036448717" lon="-3.069223025813699">
        <ele>1120.8</ele>
        <time>2003-04-12T16:47:23Z</time>
      </trkpt>
      <trkpt lat="37.211561976000667" lon="-3.068251982331276">
        <ele>1121.0999999999999</ele>
        <time>2003-04-12T16:47:26Z</time>
      </trkpt>
      <trkpt lat="37.211067024618387" lon="-3.067177003249526">
        <ele>1121.5</ele>
        <time>2003-04-12T16:47:29Z</time>
      </trkpt>
      <trkpt lat="37.2106449957937" lon="-3.066042009741068">
        <ele>1121.5</ele>
        <time>2003-04-12T16:47:31Z</time>
      </trkpt>
      <trkpt lat="37.210317011922598" lon="-3.064850019291043">
        <ele>1122</ele>
        <time>2003-04-12T16:47:34Z</time>
      </trkpt>
      <trkpt lat="37.210034960880876" lon="-3.063632966950536">
        <ele>1121.9000000000001</ele>
        <time>2003-04-12T16:47:38Z</time>
      </trkpt>
      <trkpt lat="37.209783000871539" lon="-3.062397977337241">
        <ele>1121.8</ele>
        <time>2003-04-12T16:47:41Z</time>
      </trkpt>
      <trkpt lat="37.209540009498596" lon="-3.061155024915934">
        <ele>1122.2</ele>
        <time>2003-04-12T16:47:43Z</time>
      </trkpt>
      <trkpt lat="37.209285032004118" lon="-3.059915006160736">
        <ele>1122.7</ele>
        <time>2003-04-12T16:47:46Z</time>
      </trkpt>
      <trkpt lat="37.209031982347369" lon="-3.058674987405539">
        <ele>1123.0999999999999</ele>
        <time>2003-04-12T16:47:50Z</time>
      </trkpt>
      <trkpt lat="37.208782033994794" lon="-3.057436980307102">
        <ele>1124.4000000000001</ele>
        <time>2003-04-12T16:47:53Z</time>
      </trkpt>
      <trkpt lat="37.208529990166426" lon="-3.056202996522188">
        <ele>1125.4000000000001</ele>
        <time>2003-04-12T16:47:56Z</time>
      </trkpt>
      <trkpt lat="37.208277024328709" lon="-3.054977981373668">
        <ele>1126.7</ele>
        <time>2003-04-12T16:47:58Z</time>
      </trkpt>
      <trkpt lat="37.208026992157102" lon="-3.053752966225147">
        <ele>1127.9000000000001</ele>
        <time>2003-04-12T16:48:01Z</time>
      </trkpt>
      <trkpt lat="37.207776959985495" lon="-3.052527029067278">
        <ele>1129.0999999999999</ele>
        <time>2003-04-12T16:48:05Z</time>
      </trkpt>
      <trkpt lat="37.207527011632919" lon="-3.051303019747138">
        <ele>1130.0999999999999</ele>
        <time>2003-04-12T16:48:08Z</time>
      </trkpt>
      <trkpt lat="37.207273039966822" lon="-3.05008202791214">
        <ele>1130.9000000000001</ele>
        <time>2003-04-12T16:48:10Z</time>
      </trkpt>
      <trkpt lat="37.207029964774847" lon="-3.048862963914871">
        <ele>1132</ele>
        <time>2003-04-12T16:48:13Z</time>
      </trkpt>
      <trkpt lat="37.206780016422272" lon="-3.047652030363679">
        <ele>1133.3</ele>
        <time>2003-04-12T16:48:17Z</time>
      </trkpt>
      <trkpt lat="37.206531995907426" lon="-3.046437995508313">
        <ele>1134.0999999999999</ele>
        <time>2003-04-12T16:48:20Z</time>
      </trkpt>
      <trkpt lat="37.206286992877722" lon="-3.045229995623231">
        <ele>1135.3</ele>
        <time>2003-04-12T16:48:23Z</time>
      </trkpt>
      <trkpt lat="37.206032015383244" lon="-3.044042028486729">
        <ele>1137.5999999999999</ele>
        <time>2003-04-12T16:48:25Z</time>
      </trkpt>
      <trkpt lat="37.205792963504791" lon="-3.042879961431027">
        <ele>1140.5999999999999</ele>
        <time>2003-04-12T16:48:28Z</time>
      </trkpt>
      <trkpt lat="37.205564975738525" lon="-3.04174798540771">
        <ele>1144.2</ele>
        <time>2003-04-12T16:48:32Z</time>
      </trkpt>
      <trkpt lat="37.20533799380064" lon="-3.040641993284226">
        <ele>1147.0999999999999</ele>
        <time>2003-04-12T16:48:35Z</time>
      </trkpt>
      <trkpt lat="37.205104976892471" lon="-3.039538012817502">
        <ele>1148.3</ele>
        <time>2003-04-12T16:48:37Z</time>
      </trkpt>
      <trkpt lat="37.204874977469444" lon="-3.038409976288676">
        <ele>1147.9000000000001</ele>
        <time>2003-04-12T16:48:40Z</time>
      </trkpt>
      <trkpt lat="37.204640032723546" lon="-3.037250004708767">
        <ele>1145.7</ele>
        <time>2003-04-12T16:48:44Z</time>
      </trkpt>
      <trkpt lat="37.2043920122087" lon="-3.036048039793968">
        <ele>1142.2</ele>
        <time>2003-04-12T16:48:47Z</time>
      </trkpt>
      <trkpt lat="37.204138040542603" lon="-3.034820007160306">
        <ele>1140.5</ele>
        <time>2003-04-12T16:48:50Z</time>
      </trkpt>
      <trkpt lat="37.203888008370996" lon="-3.033585017547011">
        <ele>1140.3</ele>
        <time>2003-04-12T16:48:52Z</time>
      </trkpt>
      <trkpt lat="37.203633030876517" lon="-3.032341981306672">
        <ele>1139.8</ele>
        <time>2003-04-12T16:48:55Z</time>
      </trkpt>
      <trkpt lat="37.203375035896897" lon="-3.031089976429939">
        <ele>1138.7</ele>
        <time>2003-04-12T16:48:59Z</time>
      </trkpt>
      <trkpt lat="37.203117962926626" lon="-3.029841994866729">
        <ele>1137.3</ele>
        <time>2003-04-12T16:49:02Z</time>
      </trkpt>
      <trkpt lat="37.202862985432148" lon="-3.028595019131899">
        <ele>1135.9000000000001</ele>
        <time>2003-04-12T16:49:04Z</time>
      </trkpt>
      <trkpt lat="37.202607002109289" lon="-3.027339996770024">
        <ele>1134.5999999999999</ele>
        <time>2003-04-12T16:49:07Z</time>
      </trkpt>
      <trkpt lat="37.202342972159386" lon="-3.026072988286614">
        <ele>1133.3</ele>
        <time>2003-04-12T16:49:11Z</time>
      </trkpt>
      <trkpt lat="37.202086988836527" lon="-3.02479499951005">
        <ele>1132.4000000000001</ele>
        <time>2003-04-12T16:49:14Z</time>
      </trkpt>
      <trkpt lat="37.201826982200146" lon="-3.023522961884737">
        <ele>1132.9000000000001</ele>
        <time>2003-04-12T16:49:17Z</time>
      </trkpt>
      <trkpt lat="37.201563036069274" lon="-3.022257965058088">
        <ele>1134</ele>
        <time>2003-04-12T16:49:19Z</time>
      </trkpt>
      <trkpt lat="37.201305041089654" lon="-3.021005038172007">
        <ele>1135.3</ele>
        <time>2003-04-12T16:49:22Z</time>
      </trkpt>
      <trkpt lat="37.201052997261286" lon="-3.019754961133003">
        <ele>1136.4000000000001</ele>
        <time>2003-04-12T16:49:26Z</time>
      </trkpt>
      <trkpt lat="37.200797013938427" lon="-3.018509997054935">
        <ele>1137.5</ele>
        <time>2003-04-12T16:49:29Z</time>
      </trkpt>
      <trkpt lat="37.200540024787188" lon="-3.017272995784879">
        <ele>1138.8</ele>
        <time>2003-04-12T16:49:31Z</time>
      </trkpt>
      <trkpt lat="37.200287980958819" lon="-3.016044963151217">
        <ele>1140.5</ele>
        <time>2003-04-12T16:49:34Z</time>
      </trkpt>
      <trkpt lat="37.200041972100735" lon="-3.014824977144599">
        <ele>1142.2</ele>
        <time>2003-04-12T16:49:38Z</time>
      </trkpt>
      <trkpt lat="37.199792023748159" lon="-3.01360297948122">
        <ele>1143.0999999999999</ele>
        <time>2003-04-12T16:49:41Z</time>
      </trkpt>
      <trkpt lat="37.199541991576552" lon="-3.0123779643327">
        <ele>1144.2</ele>
        <time>2003-04-12T16:49:44Z</time>
      </trkpt>
      <trkpt lat="37.199291959404945" lon="-3.011153033003211">
        <ele>1145.0999999999999</ele>
        <time>2003-04-12T16:49:46Z</time>
      </trkpt>
      <trkpt lat="37.199049973860383" lon="-3.009925000369549">
        <ele>1145.8</ele>
        <time>2003-04-12T16:49:49Z</time>
      </trkpt>
      <trkpt lat="37.198794996365905" lon="-3.00870199687779">
        <ele>1146.5</ele>
        <time>2003-04-12T16:49:53Z</time>
      </trkpt>
      <trkpt lat="37.198543036356568" lon="-3.007479999214411">
        <ele>1147.3</ele>
        <time>2003-04-12T16:49:56Z</time>
      </trkpt>
      <trkpt lat="37.198298033326864" lon="-3.006262024864554">
        <ele>1148</ele>
        <time>2003-04-12T16:49:58Z</time>
      </trkpt>
      <trkpt lat="37.198050012812018" lon="-3.005046984180808">
        <ele>1149.2</ele>
        <time>2003-04-12T16:50:01Z</time>
      </trkpt>
      <trkpt lat="37.197799980640411" lon="-3.003832027316093">
        <ele>1150.0999999999999</ele>
        <time>2003-04-12T16:50:05Z</time>
      </trkpt>
      <trkpt lat="37.197552965953946" lon="-3.002617992460728">
        <ele>1151.3</ele>
        <time>2003-04-12T16:50:08Z</time>
      </trkpt>
      <trkpt lat="37.197307040914893" lon="-3.001402029767633">
        <ele>1152.0999999999999</ele>
        <time>2003-04-12T16:50:11Z</time>
      </trkpt>
      <trkpt lat="37.197054997086525" lon="-3.000180032104254">
        <ele>1152.8</ele>
        <time>2003-04-12T16:50:13Z</time>
      </trkpt>
      <trkpt lat="37.196804964914918" lon="-2.998951999470592">
        <ele>1153.3</ele>
        <time>2003-04-12T16:50:16Z</time>
      </trkpt>
      <trkpt lat="37.196551999077201" lon="-2.997718015685678">
        <ele>1153.4000000000001</ele>
        <time>2003-04-12T16:50:20Z</time>
      </trkpt>
      <trkpt lat="37.196302972733974" lon="-2.996476991102099">
        <ele>1153.0999999999999</ele>
        <time>2003-04-12T16:50:23Z</time>
      </trkpt>
      <trkpt lat="37.196041960269213" lon="-2.995233032852411">
        <ele>1153</ele>
        <time>2003-04-12T16:50:25Z</time>
      </trkpt>
      <trkpt lat="37.195790000259876" lon="-2.993984967470169">
        <ele>1152.8</ele>
        <time>2003-04-12T16:50:28Z</time>
      </trkpt>
      <trkpt lat="37.195535022765398" lon="-2.992732962593436">
        <ele>1152.7</ele>
        <time>2003-04-12T16:50:32Z</time>
      </trkpt>
      <trkpt lat="37.195279961451888" lon="-2.991478024050593">
        <ele>1152.4000000000001</ele>
        <time>2003-04-12T16:50:35Z</time>
      </trkpt>
      <trkpt lat="37.195026995614171" lon="-2.990234987810254">
        <ele>1152.2</ele>
        <time>2003-04-12T16:50:38Z</time>
      </trkpt>
      <trkpt lat="37.194777969270945" lon="-2.989002009853721">
        <ele>1152.8</ele>
        <time>2003-04-12T16:50:40Z</time>
      </trkpt>
      <trkpt lat="37.194527015089989" lon="-2.987783029675484">
        <ele>1153.5</ele>
        <time>2003-04-12T16:50:43Z</time>
      </trkpt>
      <trkpt lat="37.194276982918382" lon="-2.986577963456512">
        <ele>1154.3</ele>
        <time>2003-04-12T16:50:47Z</time>
      </trkpt>
      <trkpt lat="37.194034997373819" lon="-2.985380021855235">
        <ele>1154.8</ele>
        <time>2003-04-12T16:50:50Z</time>
      </trkpt>
      <trkpt lat="37.193793011829257" lon="-2.984188031405211">
        <ele>1154.4000000000001</ele>
        <time>2003-04-12T16:50:52Z</time>
      </trkpt>
      <trkpt lat="37.193552032113075" lon="-2.982999980449677">
        <ele>1154.0999999999999</ele>
        <time>2003-04-12T16:50:55Z</time>
      </trkpt>
      <trkpt lat="37.193308034911752" lon="-2.981815030798316">
        <ele>1153.8</ele>
        <time>2003-04-12T16:50:59Z</time>
      </trkpt>
      <trkpt lat="37.19306998886168" lon="-2.980629997327924">
        <ele>1153.5</ele>
        <time>2003-04-12T16:51:02Z</time>
      </trkpt>
      <trkpt lat="37.192830014973879" lon="-2.979443036019802">
        <ele>1153.2</ele>
        <time>2003-04-12T16:51:05Z</time>
      </trkpt>
      <trkpt lat="37.192592974752188" lon="-2.978254985064268">
        <ele>1152.5999999999999</ele>
        <time>2003-04-12T16:51:07Z</time>
      </trkpt>
      <trkpt lat="37.192346965894103" lon="-2.977072969079018">
        <ele>1152.4000000000001</ele>
        <time>2003-04-12T16:51:10Z</time>
      </trkpt>
      <trkpt lat="37.192106992006302" lon="-2.975892964750528">
        <ele>1152.5</ele>
        <time>2003-04-12T16:51:14Z</time>
      </trkpt>
      <trkpt lat="37.191870035603642" lon="-2.9747149720788">
        <ele>1152.5</ele>
        <time>2003-04-12T16:51:17Z</time>
      </trkpt>
      <trkpt lat="37.191626960411668" lon="-2.973551983013749">
        <ele>1153.8</ele>
        <time>2003-04-12T16:51:19Z</time>
      </trkpt>
      <trkpt lat="37.191390004009008" lon="-2.972399974241853">
        <ele>1155.5</ele>
        <time>2003-04-12T16:51:22Z</time>
      </trkpt>
      <trkpt lat="37.191163022071123" lon="-2.971258023753762">
        <ele>1156.9000000000001</ele>
        <time>2003-04-12T16:51:26Z</time>
      </trkpt>
      <trkpt lat="37.190937967970967" lon="-2.970129987224937">
        <ele>1158.3</ele>
        <time>2003-04-12T16:51:29Z</time>
      </trkpt>
      <trkpt lat="37.190703023225069" lon="-2.969015026465058">
        <ele>1160</ele>
        <time>2003-04-12T16:51:32Z</time>
      </trkpt>
      <trkpt lat="37.190477969124913" lon="-2.967907022684813">
        <ele>1162.2</ele>
        <time>2003-04-12T16:51:34Z</time>
      </trkpt>
      <trkpt lat="37.190258027985692" lon="-2.966802958399057">
        <ele>1163.8</ele>
        <time>2003-04-12T16:51:37Z</time>
      </trkpt>
      <trkpt lat="37.190030040219426" lon="-2.965705012902618">
        <ele>1165.3</ele>
        <time>2003-04-12T16:51:41Z</time>
      </trkpt>
      <trkpt lat="37.189719993621111" lon="-2.964257039129734">
        <ele>1168.3</ele>
        <time>2003-04-12T16:51:45Z</time>
      </trkpt>
      <trkpt lat="37.189359990879893" lon="-2.962828008458018">
        <ele>1170.7</ele>
        <time>2003-04-12T16:51:49Z</time>
      </trkpt>
      <trkpt lat="37.189022032544017" lon="-2.961782030761242">
        <ele>1172.5</ele>
        <time>2003-04-12T16:51:52Z</time>
      </trkpt>
      <trkpt lat="37.188632022589445" lon="-2.960752984508872">
        <ele>1174</ele>
        <time>2003-04-12T16:51:54Z</time>
      </trkpt>
      <trkpt lat="37.188191972672939" lon="-2.959747994318605">
        <ele>1175.9000000000001</ele>
        <time>2003-04-12T16:51:57Z</time>
      </trkpt>
      <trkpt lat="37.187753012403846" lon="-2.958737974986434">
        <ele>1178.2</ele>
        <time>2003-04-12T16:52:01Z</time>
      </trkpt>
      <trkpt lat="37.187337018549442" lon="-2.957710018381476">
        <ele>1179.8</ele>
        <time>2003-04-12T16:52:04Z</time>
      </trkpt>
      <trkpt lat="37.186980033293366" lon="-2.956637972965837">
        <ele>1181.0999999999999</ele>
        <time>2003-04-12T16:52:07Z</time>
      </trkpt>
      <trkpt lat="37.186679961159825" lon="-2.955534998327494">
        <ele>1181.2</ele>
        <time>2003-04-12T16:52:09Z</time>
      </trkpt>
      <trkpt lat="37.186422972008586" lon="-2.954406961798668">
        <ele>1180.4000000000001</ele>
        <time>2003-04-12T16:52:12Z</time>
      </trkpt>
      <trkpt lat="37.186176963150501" lon="-2.953256964683533">
        <ele>1178.3</ele>
        <time>2003-04-12T16:52:16Z</time>
      </trkpt>
      <trkpt lat="37.185925003141165" lon="-2.952085006982088">
        <ele>1175.5999999999999</ele>
        <time>2003-04-12T16:52:19Z</time>
      </trkpt>
      <trkpt lat="37.185659967362881" lon="-2.950901985168457">
        <ele>1173.7</ele>
        <time>2003-04-12T16:52:21Z</time>
      </trkpt>
      <trkpt lat="37.18539803288877" lon="-2.949707983061671">
        <ele>1172.5999999999999</ele>
        <time>2003-04-12T16:52:24Z</time>
      </trkpt>
      <trkpt lat="37.185131991282105" lon="-2.948511969298124">
        <ele>1171.5999999999999</ele>
        <time>2003-04-12T16:52:28Z</time>
      </trkpt>
      <trkpt lat="37.184878019616008" lon="-2.947302963584662">
        <ele>1170.4000000000001</ele>
        <time>2003-04-12T16:52:31Z</time>
      </trkpt>
      <trkpt lat="37.184612983837724" lon="-2.946099992841482">
        <ele>1169.2</ele>
        <time>2003-04-12T16:52:34Z</time>
      </trkpt>
      <trkpt lat="37.184357000514865" lon="-2.944943038746715">
        <ele>1167.8</ele>
        <time>2003-04-12T16:52:36Z</time>
      </trkpt>
      <trkpt lat="37.184102023020387" lon="-2.94386001303792">
        <ele>1166.4000000000001</ele>
        <time>2003-04-12T16:52:39Z</time>
      </trkpt>
      <trkpt lat="37.183777978643775" lon="-2.942840019240975">
        <ele>1164</ele>
        <time>2003-04-12T16:52:43Z</time>
      </trkpt>
      <trkpt lat="37.183467010036111" lon="-2.942226966843009">
        <ele>1161.5999999999999</ele>
        <time>2003-04-12T16:52:44Z</time>
      </trkpt>
      <trkpt lat="37.182893017306924" lon="-2.941422974690795">
        <ele>1157.3</ele>
        <time>2003-04-12T16:52:48Z</time>
      </trkpt>
      <trkpt lat="37.182233026251197" lon="-2.940738005563617">
        <ele>1154.5</ele>
        <time>2003-04-12T16:52:51Z</time>
      </trkpt>
      <trkpt lat="37.181457029655576" lon="-2.940257973968983">
        <ele>1151.3</ele>
        <time>2003-04-12T16:52:54Z</time>
      </trkpt>
      <trkpt lat="37.180605009198189" lon="-2.939953040331602">
        <ele>1149.5</ele>
        <time>2003-04-12T16:52:57Z</time>
      </trkpt>
      <trkpt lat="37.17972700484097" lon="-2.939705019816756">
        <ele>1148.5999999999999</ele>
        <time>2003-04-12T16:52:59Z</time>
      </trkpt>
      <trkpt lat="37.178837014362216" lon="-2.939445013180375">
        <ele>1148.9000000000001</ele>
        <time>2003-04-12T16:53:02Z</time>
      </trkpt>
      <trkpt lat="37.177947023883462" lon="-2.93917503207922">
        <ele>1150.0999999999999</ele>
        <time>2003-04-12T16:53:06Z</time>
      </trkpt>
      <trkpt lat="37.177085028961301" lon="-2.938802959397435">
        <ele>1152.3</ele>
        <time>2003-04-12T16:53:09Z</time>
      </trkpt>
      <trkpt lat="37.176297968253493" lon="-2.93823198415339">
        <ele>1154.3</ele>
        <time>2003-04-12T16:53:11Z</time>
      </trkpt>
      <trkpt lat="37.175837969407439" lon="-2.937726974487305">
        <ele>1155.2</ele>
        <time>2003-04-12T16:53:14Z</time>
      </trkpt>
      <trkpt lat="37.175255008041859" lon="-2.936840001493692">
        <ele>1155.5999999999999</ele>
        <time>2003-04-12T16:53:17Z</time>
      </trkpt>
      <trkpt lat="37.174955019727349" lon="-2.93616701848805">
        <ele>1155.5</ele>
        <time>2003-04-12T16:53:18Z</time>
      </trkpt>
      <trkpt lat="37.174637010321021" lon="-2.935067983344197">
        <ele>1154.5999999999999</ele>
        <time>2003-04-12T16:53:22Z</time>
      </trkpt>
      <trkpt lat="37.174531985074282" lon="-2.934292992576957">
        <ele>1153.7</ele>
        <time>2003-04-12T16:53:24Z</time>
      </trkpt>
      <trkpt lat="37.174508012831211" lon="-2.9335050098598">
        <ele>1153.5999999999999</ele>
        <time>2003-04-12T16:53:25Z</time>
      </trkpt>
      <trkpt lat="37.174559980630875" lon="-2.93232299387455">
        <ele>1154.0999999999999</ele>
        <time>2003-04-12T16:53:29Z</time>
      </trkpt>
      <trkpt lat="37.174535002559423" lon="-2.931186994537711">
        <ele>1155.0999999999999</ele>
        <time>2003-04-12T16:53:32Z</time>
      </trkpt>
      <trkpt lat="37.174412962049246" lon="-2.930451985448599">
        <ele>1155.7</ele>
        <time>2003-04-12T16:53:33Z</time>
      </trkpt>
      <trkpt lat="37.174207018688321" lon="-2.929742960259318">
        <ele>1156.2</ele>
        <time>2003-04-12T16:53:36Z</time>
      </trkpt>
      <trkpt lat="37.173927985131741" lon="-2.929071988910437">
        <ele>1156.7</ele>
        <time>2003-04-12T16:53:37Z</time>
      </trkpt>
      <trkpt lat="37.173392968252301" lon="-2.928152997046709">
        <ele>1158.0999999999999</ele>
        <time>2003-04-12T16:53:41Z</time>
      </trkpt>
      <trkpt lat="37.172801960259676" lon="-2.927271975204349">
        <ele>1159.3</ele>
        <time>2003-04-12T16:53:44Z</time>
      </trkpt>
      <trkpt lat="37.172202989459038" lon="-2.926375027745962">
        <ele>1160.7</ele>
        <time>2003-04-12T16:53:47Z</time>
      </trkpt>
      <trkpt lat="37.171609969809651" lon="-2.925457963719964">
        <ele>1161.5</ele>
        <time>2003-04-12T16:53:49Z</time>
      </trkpt>
      <trkpt lat="37.171013010665774" lon="-2.924522962421179">
        <ele>1162.7</ele>
        <time>2003-04-12T16:53:52Z</time>
      </trkpt>
      <trkpt lat="37.170404987409711" lon="-2.923612017184496">
        <ele>1163.7</ele>
        <time>2003-04-12T16:53:56Z</time>
      </trkpt>
      <trkpt lat="37.169795036315918" lon="-2.922702999785543">
        <ele>1164.9000000000001</ele>
        <time>2003-04-12T16:53:59Z</time>
      </trkpt>
      <trkpt lat="37.169188018888235" lon="-2.92179498821497">
        <ele>1165.9000000000001</ele>
        <time>2003-04-12T16:54:01Z</time>
      </trkpt>
      <trkpt lat="37.168631963431835" lon="-2.920844983309507">
        <ele>1166.4000000000001</ele>
        <time>2003-04-12T16:54:04Z</time>
      </trkpt>
      <trkpt lat="37.168329963460565" lon="-2.920150039717555">
        <ele>1165.9000000000001</ele>
        <time>2003-04-12T16:54:07Z</time>
      </trkpt>
      <trkpt lat="37.167982030659914" lon="-2.919029965996742">
        <ele>1164.7</ele>
        <time>2003-04-12T16:54:09Z</time>
      </trkpt>
      <trkpt lat="37.167778015136719" lon="-2.917826995253563">
        <ele>1162.4000000000001</ele>
        <time>2003-04-12T16:54:14Z</time>
      </trkpt>
      <trkpt lat="37.167744990438223" lon="-2.916583037003875">
        <ele>1159.5999999999999</ele>
        <time>2003-04-12T16:54:16Z</time>
      </trkpt>
      <trkpt lat="37.167871976271272" lon="-2.915322985500097">
        <ele>1156.7</ele>
        <time>2003-04-12T16:54:19Z</time>
      </trkpt>
      <trkpt lat="37.168084960430861" lon="-2.91406000033021">
        <ele>1153.2</ele>
        <time>2003-04-12T16:54:22Z</time>
      </trkpt>
      <trkpt lat="37.168302973732352" lon="-2.912782011553645">
        <ele>1150.0999999999999</ele>
        <time>2003-04-12T16:54:24Z</time>
      </trkpt>
      <trkpt lat="37.168519981205463" lon="-2.911487007513642">
        <ele>1146.5999999999999</ele>
        <time>2003-04-12T16:54:27Z</time>
      </trkpt>
      <trkpt lat="37.168722990900278" lon="-2.910197032615542">
        <ele>1143.8</ele>
        <time>2003-04-12T16:54:31Z</time>
      </trkpt>
      <trkpt lat="37.168866991996765" lon="-2.908917032182217">
        <ele>1142.5999999999999</ele>
        <time>2003-04-12T16:54:34Z</time>
      </trkpt>
      <trkpt lat="37.168891970068216" lon="-2.907650023698807">
        <ele>1142.8</ele>
        <time>2003-04-12T16:54:38Z</time>
      </trkpt>
      <trkpt lat="37.168797003105283" lon="-2.906395001336932">
        <ele>1143.4000000000001</ele>
        <time>2003-04-12T16:54:41Z</time>
      </trkpt>
      <trkpt lat="37.168643027544022" lon="-2.905160011723638">
        <ele>1144.2</ele>
        <time>2003-04-12T16:54:43Z</time>
      </trkpt>
      <trkpt lat="37.168364999815822" lon="-2.903968021273613">
        <ele>1144.4000000000001</ele>
        <time>2003-04-12T16:54:46Z</time>
      </trkpt>
      <trkpt lat="37.168078003451228" lon="-2.902777958661318">
        <ele>1143.3</ele>
        <time>2003-04-12T16:54:50Z</time>
      </trkpt>
      <trkpt lat="37.16782302595675" lon="-2.901567025110126">
        <ele>1141.3</ele>
        <time>2003-04-12T16:54:51Z</time>
      </trkpt>
      <trkpt lat="37.167641976848245" lon="-2.900317031890154">
        <ele>1138.4000000000001</ele>
        <time>2003-04-12T16:54:55Z</time>
      </trkpt>
      <trkpt lat="37.167496969923377" lon="-2.899044994264841">
        <ele>1135.7</ele>
        <time>2003-04-12T16:54:58Z</time>
      </trkpt>
      <trkpt lat="37.167357997968793" lon="-2.897772034630179">
        <ele>1133.0999999999999</ele>
        <time>2003-04-12T16:55:02Z</time>
      </trkpt>
      <trkpt lat="37.167212991043925" lon="-2.896515000611544">
        <ele>1130.5</ele>
        <time>2003-04-12T16:55:05Z</time>
      </trkpt>
      <trkpt lat="37.167105032131076" lon="-2.895312029868364">
        <ele>1128.0999999999999</ele>
        <time>2003-04-12T16:55:08Z</time>
      </trkpt>
      <trkpt lat="37.167126992717385" lon="-2.89412297308445">
        <ele>1123.9000000000001</ele>
        <time>2003-04-12T16:55:10Z</time>
      </trkpt>
      <trkpt lat="37.167308041825891" lon="-2.892925031483173">
        <ele>1118.8</ele>
        <time>2003-04-12T16:55:13Z</time>
      </trkpt>
      <trkpt lat="37.167622027918696" lon="-2.891739998012781">
        <ele>1114</ele>
        <time>2003-04-12T16:55:17Z</time>
      </trkpt>
      <trkpt lat="37.167999967932701" lon="-2.890584971755743">
        <ele>1108.5999999999999</ele>
        <time>2003-04-12T16:55:20Z</time>
      </trkpt>
      <trkpt lat="37.168334992602468" lon="-2.889445032924414">
        <ele>1103.5999999999999</ele>
        <time>2003-04-12T16:55:22Z</time>
      </trkpt>
      <trkpt lat="37.16859701089561" lon="-2.888259999454022">
        <ele>1098.7</ele>
        <time>2003-04-12T16:55:25Z</time>
      </trkpt>
      <trkpt lat="37.168766995891929" lon="-2.887016963213682">
        <ele>1093.8</ele>
        <time>2003-04-12T16:55:29Z</time>
      </trkpt>
      <trkpt lat="37.16885500587523" lon="-2.885745009407401">
        <ele>1088.5</ele>
        <time>2003-04-12T16:55:32Z</time>
      </trkpt>
      <trkpt lat="37.168861962854862" lon="-2.884456962347031">
        <ele>1083</ele>
        <time>2003-04-12T16:55:35Z</time>
      </trkpt>
      <trkpt lat="37.168783005326986" lon="-2.883181991055608">
        <ele>1078</ele>
        <time>2003-04-12T16:55:37Z</time>
      </trkpt>
      <trkpt lat="37.168719973415136" lon="-2.881926968693733">
        <ele>1073</ele>
        <time>2003-04-12T16:55:40Z</time>
      </trkpt>
      <trkpt lat="37.168745035305619" lon="-2.880674963817">
        <ele>1067.9000000000001</ele>
        <time>2003-04-12T16:55:44Z</time>
      </trkpt>
      <trkpt lat="37.168885013088584" lon="-2.879407033324242">
        <ele>1062.5999999999999</ele>
        <time>2003-04-12T16:55:47Z</time>
      </trkpt>
      <trkpt lat="37.169128004461527" lon="-2.878162991255522">
        <ele>1057.5</ele>
        <time>2003-04-12T16:55:49Z</time>
      </trkpt>
      <trkpt lat="37.169364960864186" lon="-2.876962032169104">
        <ele>1052.0999999999999</ele>
        <time>2003-04-12T16:55:52Z</time>
      </trkpt>
      <trkpt lat="37.169475015252829" lon="-2.875759983435273">
        <ele>1047.0999999999999</ele>
        <time>2003-04-12T16:55:56Z</time>
      </trkpt>
      <trkpt lat="37.169433021917939" lon="-2.874545026570559">
        <ele>1042</ele>
        <time>2003-04-12T16:55:59Z</time>
      </trkpt>
      <trkpt lat="37.169226994737983" lon="-2.873329985886812">
        <ele>1036.8</ele>
        <time>2003-04-12T16:56:02Z</time>
      </trkpt>
      <trkpt lat="37.168888030573726" lon="-2.872157022356987">
        <ele>1031.7</ele>
        <time>2003-04-12T16:56:04Z</time>
      </trkpt>
      <trkpt lat="37.168570021167397" lon="-2.871022028848529">
        <ele>1026.9000000000001</ele>
        <time>2003-04-12T16:56:07Z</time>
      </trkpt>
      <trkpt lat="37.168372040614486" lon="-2.869859961792827">
        <ele>1021.8</ele>
        <time>2003-04-12T16:56:11Z</time>
      </trkpt>
      <trkpt lat="37.168338010087609" lon="-2.8690480068326">
        <ele>1018.6</ele>
        <time>2003-04-12T16:56:12Z</time>
      </trkpt>
      <trkpt lat="37.168413028120995" lon="-2.867819974198937">
        <ele>1013.7</ele>
        <time>2003-04-12T16:56:15Z</time>
      </trkpt>
      <trkpt lat="37.168628023937345" lon="-2.866611974313855">
        <ele>1008.6</ele>
        <time>2003-04-12T16:56:19Z</time>
      </trkpt>
      <trkpt lat="37.168843019753695" lon="-2.865453008562326">
        <ele>1003.4</ele>
        <time>2003-04-12T16:56:22Z</time>
      </trkpt>
      <trkpt lat="37.168957013636827" lon="-2.864308040589094">
        <ele>998.5</ele>
        <time>2003-04-12T16:56:24Z</time>
      </trkpt>
      <trkpt lat="37.168919965624809" lon="-2.863113032653928">
        <ele>994</ele>
        <time>2003-04-12T16:56:27Z</time>
      </trkpt>
      <trkpt lat="37.1687270142138" lon="-2.861921964213252">
        <ele>988.79999999999995</ele>
        <time>2003-04-12T16:56:31Z</time>
      </trkpt>
      <trkpt lat="37.168389977887273" lon="-2.860789988189936">
        <ele>983.5</ele>
        <time>2003-04-12T16:56:34Z</time>
      </trkpt>
      <trkpt lat="37.167916987091303" lon="-2.859717020764947">
        <ele>978.70000000000005</ele>
        <time>2003-04-12T16:56:37Z</time>
      </trkpt>
      <trkpt lat="37.167363027110696" lon="-2.858682023361325">
        <ele>975.79999999999995</ele>
        <time>2003-04-12T16:56:39Z</time>
      </trkpt>
      <trkpt lat="37.166890036314726" lon="-2.85757502540946">
        <ele>973.29999999999995</ele>
        <time>2003-04-12T16:56:42Z</time>
      </trkpt>
      <trkpt lat="37.166662970557809" lon="-2.856783019378781">
        <ele>972.20000000000005</ele>
        <time>2003-04-12T16:56:45Z</time>
      </trkpt>
      <trkpt lat="37.166446968913078" lon="-2.855548029765487">
        <ele>971.29999999999995</ele>
        <time>2003-04-12T16:56:47Z</time>
      </trkpt>
      <trkpt lat="37.166340015828609" lon="-2.854271968826652">
        <ele>969.89999999999998</ele>
        <time>2003-04-12T16:56:50Z</time>
      </trkpt>
      <trkpt lat="37.166217975318432" lon="-2.852990040555596">
        <ele>968.60000000000002</ele>
        <time>2003-04-12T16:56:54Z</time>
      </trkpt>
      <trkpt lat="37.165986970067024" lon="-2.851726971566677">
        <ele>967.20000000000005</ele>
        <time>2003-04-12T16:56:57Z</time>
      </trkpt>
      <trkpt lat="37.165644988417625" lon="-2.85050698556006">
        <ele>966.29999999999995</ele>
        <time>2003-04-12T16:57:00Z</time>
      </trkpt>
      <trkpt lat="37.165212985128164" lon="-2.849348019808531">
        <ele>965.20000000000005</ele>
        <time>2003-04-12T16:57:02Z</time>
      </trkpt>
      <trkpt lat="37.164685009047389" lon="-2.848249990493059">
        <ele>964.39999999999998</ele>
        <time>2003-04-12T16:57:05Z</time>
      </trkpt>
      <trkpt lat="37.164068017154932" lon="-2.847226979210973">
        <ele>963.70000000000005</ele>
        <time>2003-04-12T16:57:09Z</time>
      </trkpt>
      <trkpt lat="37.163369972258806" lon="-2.846289966255426">
        <ele>963</ele>
        <time>2003-04-12T16:57:12Z</time>
      </trkpt>
      <trkpt lat="37.162607973441482" lon="-2.845438029617071">
        <ele>962.39999999999998</ele>
        <time>2003-04-12T16:57:14Z</time>
      </trkpt>
      <trkpt lat="37.161834994331002" lon="-2.844612998887897">
        <ele>961.89999999999998</ele>
        <time>2003-04-12T16:57:17Z</time>
      </trkpt>
      <trkpt lat="37.161105014383793" lon="-2.843737006187439">
        <ele>961.10000000000002</ele>
        <time>2003-04-12T16:57:21Z</time>
      </trkpt>
      <trkpt lat="37.160479975864291" lon="-2.8427529707551">
        <ele>960.29999999999995</ele>
        <time>2003-04-12T16:57:24Z</time>
      </trkpt>
      <trkpt lat="37.15996197424829" lon="-2.841680003330112">
        <ele>959.10000000000002</ele>
        <time>2003-04-12T16:57:27Z</time>
      </trkpt>
      <trkpt lat="37.159540029242635" lon="-2.840547021478415">
        <ele>958.10000000000002</ele>
        <time>2003-04-12T16:57:29Z</time>
      </trkpt>
      <trkpt lat="37.159246997907758" lon="-2.839342961087823">
        <ele>956.79999999999995</ele>
        <time>2003-04-12T16:57:32Z</time>
      </trkpt>
      <trkpt lat="37.15905798599124" lon="-2.838102020323277">
        <ele>955.39999999999998</ele>
        <time>2003-04-12T16:57:36Z</time>
      </trkpt>
      <trkpt lat="37.158914990723133" lon="-2.836850015446544">
        <ele>954.10000000000002</ele>
        <time>2003-04-12T16:57:39Z</time>
      </trkpt>
      <trkpt lat="37.158712986856699" lon="-2.835637992247939">
        <ele>952.10000000000002</ele>
        <time>2003-04-12T16:57:41Z</time>
      </trkpt>
      <trkpt lat="37.158366981893778" lon="-2.834469974040985">
        <ele>950.5</ele>
        <time>2003-04-12T16:57:44Z</time>
      </trkpt>
      <trkpt lat="37.157930033281446" lon="-2.83334000967443">
        <ele>948.60000000000002</ele>
        <time>2003-04-12T16:57:48Z</time>
      </trkpt>
      <trkpt lat="37.157482020556927" lon="-2.832190012559295">
        <ele>946.60000000000002</ele>
        <time>2003-04-12T16:57:51Z</time>
      </trkpt>
      <trkpt lat="37.157027972862124" lon="-2.831010008230805">
        <ele>943.60000000000002</ele>
        <time>2003-04-12T16:57:54Z</time>
      </trkpt>
      <trkpt lat="37.156579960137606" lon="-2.829815000295639">
        <ele>940.60000000000002</ele>
        <time>2003-04-12T16:57:56Z</time>
      </trkpt>
      <trkpt lat="37.156132031232119" lon="-2.828607000410557">
        <ele>937.89999999999998</ele>
        <time>2003-04-12T16:57:59Z</time>
      </trkpt>
      <trkpt lat="37.155694998800755" lon="-2.827381985262036">
        <ele>934.89999999999998</ele>
        <time>2003-04-12T16:58:03Z</time>
      </trkpt>
      <trkpt lat="37.155274981632829" lon="-2.826141966506839">
        <ele>932.10000000000002</ele>
        <time>2003-04-12T16:58:06Z</time>
      </trkpt>
      <trkpt lat="37.154871979728341" lon="-2.824885016307235">
        <ele>929.20000000000005</ele>
        <time>2003-04-12T16:58:08Z</time>
      </trkpt>
      <trkpt lat="37.154490016400814" lon="-2.823611972853541">
        <ele>926.5</ele>
        <time>2003-04-12T16:58:11Z</time>
      </trkpt>
      <trkpt lat="37.154115010052919" lon="-2.822325015440583">
        <ele>923.70000000000005</ele>
        <time>2003-04-12T16:58:15Z</time>
      </trkpt>
      <trkpt lat="37.153755007311702" lon="-2.821009978652">
        <ele>920.70000000000005</ele>
        <time>2003-04-12T16:58:18Z</time>
      </trkpt>
      <trkpt lat="37.1534079965204" lon="-2.819667030125856">
        <ele>917.5</ele>
        <time>2003-04-12T16:58:21Z</time>
      </trkpt>
      <trkpt lat="37.153074983507395" lon="-2.81830002553761">
        <ele>914.29999999999995</ele>
        <time>2003-04-12T16:58:23Z</time>
      </trkpt>
      <trkpt lat="37.152771977707744" lon="-2.816937966272235">
        <ele>911</ele>
        <time>2003-04-12T16:58:26Z</time>
      </trkpt>
      <trkpt lat="37.152492022141814" lon="-2.815580014139414">
        <ele>907.29999999999995</ele>
        <time>2003-04-12T16:58:30Z</time>
      </trkpt>
      <trkpt lat="37.152230003848672" lon="-2.81426296569407">
        <ele>903.29999999999995</ele>
        <time>2003-04-12T16:58:33Z</time>
      </trkpt>
      <trkpt lat="37.151954993605614" lon="-2.81299302354455">
        <ele>899.60000000000002</ele>
        <time>2003-04-12T16:58:35Z</time>
      </trkpt>
      <trkpt lat="37.151652993634343" lon="-2.81172500923276">
        <ele>895.89999999999998</ele>
        <time>2003-04-12T16:58:38Z</time>
      </trkpt>
      <trkpt lat="37.151316963136196" lon="-2.810465041548014">
        <ele>892</ele>
        <time>2003-04-12T16:58:42Z</time>
      </trkpt>
      <trkpt lat="37.150956960394979" lon="-2.809213036671281">
        <ele>888.10000000000002</ele>
        <time>2003-04-12T16:58:45Z</time>
      </trkpt>
      <trkpt lat="37.150578014552593" lon="-2.807977963238955">
        <ele>884.39999999999998</ele>
        <time>2003-04-12T16:58:48Z</time>
      </trkpt>
      <trkpt lat="37.150151962414384" lon="-2.806754959747195">
        <ele>881.20000000000005</ele>
        <time>2003-04-12T16:58:50Z</time>
      </trkpt>
      <trkpt lat="37.14971199631691" lon="-2.805527010932565">
        <ele>878.29999999999995</ele>
        <time>2003-04-12T16:58:53Z</time>
      </trkpt>
      <trkpt lat="37.149255014955997" lon="-2.804307024925947">
        <ele>875.5</ele>
        <time>2003-04-12T16:58:57Z</time>
      </trkpt>
      <trkpt lat="37.148817982524633" lon="-2.803098019212484">
        <ele>873.20000000000005</ele>
        <time>2003-04-12T16:59:00Z</time>
      </trkpt>
      <trkpt lat="37.148468038067222" lon="-2.801841991022229">
        <ele>870.70000000000005</ele>
        <time>2003-04-12T16:59:02Z</time>
      </trkpt>
      <trkpt lat="37.148211970925331" lon="-2.800542963668704">
        <ele>868.20000000000005</ele>
        <time>2003-04-12T16:59:05Z</time>
      </trkpt>
      <trkpt lat="37.148008039221168" lon="-2.799218036234379">
        <ele>865.70000000000005</ele>
        <time>2003-04-12T16:59:09Z</time>
      </trkpt>
      <trkpt lat="37.147802012041211" lon="-2.797871986404061">
        <ele>863.10000000000002</ele>
        <time>2003-04-12T16:59:12Z</time>
      </trkpt>
      <trkpt lat="37.147597996518016" lon="-2.796506993472576">
        <ele>860.70000000000005</ele>
        <time>2003-04-12T16:59:15Z</time>
      </trkpt>
      <trkpt lat="37.147385012358427" lon="-2.795128002762795">
        <ele>858.20000000000005</ele>
        <time>2003-04-12T16:59:17Z</time>
      </trkpt>
      <trkpt lat="37.147172028198838" lon="-2.793738031759858">
        <ele>855.5</ele>
        <time>2003-04-12T16:59:20Z</time>
      </trkpt>
      <trkpt lat="37.146972035989165" lon="-2.792362980544567">
        <ele>852.89999999999998</ele>
        <time>2003-04-12T16:59:24Z</time>
      </trkpt>
      <trkpt lat="37.146757040172815" lon="-2.790984995663166">
        <ele>850.20000000000005</ele>
        <time>2003-04-12T16:59:27Z</time>
      </trkpt>
      <trkpt lat="37.146541960537434" lon="-2.789626959711313">
        <ele>847.60000000000002</ele>
        <time>2003-04-12T16:59:29Z</time>
      </trkpt>
      <trkpt lat="37.146340040490031" lon="-2.788292979821563">
        <ele>845.10000000000002</ele>
        <time>2003-04-12T16:59:32Z</time>
      </trkpt>
      <trkpt lat="37.146142981946468" lon="-2.787007028236985">
        <ele>842.60000000000002</ele>
        <time>2003-04-12T16:59:36Z</time>
      </trkpt>
      <trkpt lat="37.14595296420157" lon="-2.785758040845394">
        <ele>840.5</ele>
        <time>2003-04-12T16:59:39Z</time>
      </trkpt>
      <trkpt lat="37.14578197337687" lon="-2.784564960747957">
        <ele>839.70000000000005</ele>
        <time>2003-04-12T16:59:42Z</time>
      </trkpt>
      <trkpt lat="37.145682983100414" lon="-2.783356960862875">
        <ele>839.5</ele>
        <time>2003-04-12T16:59:44Z</time>
      </trkpt>
      <trkpt lat="37.145682983100414" lon="-2.782122977077961">
        <ele>838.70000000000005</ele>
        <time>2003-04-12T16:59:47Z</time>
      </trkpt>
      <trkpt lat="37.145748026669025" lon="-2.780872983857989">
        <ele>837.70000000000005</ele>
        <time>2003-04-12T16:59:51Z</time>
      </trkpt>
      <trkpt lat="37.145811980590224" lon="-2.779664983972907">
        <ele>837.20000000000005</ele>
        <time>2003-04-12T16:59:54Z</time>
      </trkpt>
      <trkpt lat="37.145877024158835" lon="-2.778478022664785">
        <ele>836.5</ele>
        <time>2003-04-12T16:59:56Z</time>
      </trkpt>
      <trkpt lat="37.145939972251654" lon="-2.777283014729619">
        <ele>834.89999999999998</ele>
        <time>2003-04-12T16:59:59Z</time>
      </trkpt>
      <trkpt lat="37.146012978628278" lon="-2.776063028723002">
        <ele>832.29999999999995</ele>
        <time>2003-04-12T17:00:03Z</time>
      </trkpt>
      <trkpt lat="37.146086990833282" lon="-2.774825021624565">
        <ele>829.5</ele>
        <time>2003-04-12T17:00:06Z</time>
      </trkpt>
      <trkpt lat="37.146182963624597" lon="-2.77363202534616">
        <ele>826.89999999999998</ele>
        <time>2003-04-12T17:00:09Z</time>
      </trkpt>
      <trkpt lat="37.146401982754469" lon="-2.772442968562245">
        <ele>825.39999999999998</ele>
        <time>2003-04-12T17:00:11Z</time>
      </trkpt>
      <trkpt lat="37.146767014637589" lon="-2.771307975053787">
        <ele>824.70000000000005</ele>
        <time>2003-04-12T17:00:14Z</time>
      </trkpt>
      <trkpt lat="37.147272024303675" lon="-2.77025998570025">
        <ele>823.79999999999995</ele>
        <time>2003-04-12T17:00:18Z</time>
      </trkpt>
      <trkpt lat="37.147893039509654" lon="-2.769306963309646">
        <ele>822.79999999999995</ele>
        <time>2003-04-12T17:00:21Z</time>
      </trkpt>
      <trkpt lat="37.148635005578399" lon="-2.768485033884645">
        <ele>821.89999999999998</ele>
        <time>2003-04-12T17:00:23Z</time>
      </trkpt>
      <trkpt lat="37.149442015215755" lon="-2.767782965674996">
        <ele>820.89999999999998</ele>
        <time>2003-04-12T17:00:26Z</time>
      </trkpt>
      <trkpt lat="37.150182975456119" lon="-2.767096990719438">
        <ele>819.5</ele>
        <time>2003-04-12T17:00:30Z</time>
      </trkpt>
      <trkpt lat="37.150846989825368" lon="-2.766302973031998">
        <ele>818.39999999999998</ele>
        <time>2003-04-12T17:00:33Z</time>
      </trkpt>
      <trkpt lat="37.1514100022614" lon="-2.765377024188638">
        <ele>817.10000000000002</ele>
        <time>2003-04-12T17:00:36Z</time>
      </trkpt>
      <trkpt lat="37.151877963915467" lon="-2.764359964057803">
        <ele>815.79999999999995</ele>
        <time>2003-04-12T17:00:38Z</time>
      </trkpt>
      <trkpt lat="37.152211982756853" lon="-2.763266963884234">
        <ele>814.79999999999995</ele>
        <time>2003-04-12T17:00:41Z</time>
      </trkpt>
      <trkpt lat="37.152412980794907" lon="-2.762147979810834">
        <ele>814</ele>
        <time>2003-04-12T17:00:45Z</time>
      </trkpt>
      <trkpt lat="37.152493027970195" lon="-2.760990019887686">
        <ele>812.5</ele>
        <time>2003-04-12T17:00:48Z</time>
      </trkpt>
      <trkpt lat="37.152432007715106" lon="-2.759806998074055">
        <ele>810.29999999999995</ele>
        <time>2003-04-12T17:00:50Z</time>
      </trkpt>
      <trkpt lat="37.152230003848672" lon="-2.758643003180623">
        <ele>807</ele>
        <time>2003-04-12T17:00:53Z</time>
      </trkpt>
      <trkpt lat="37.151885004714131" lon="-2.757516978308559">
        <ele>803.39999999999998</ele>
        <time>2003-04-12T17:00:57Z</time>
      </trkpt>
      <trkpt lat="37.1514100022614" lon="-2.756441999226809">
        <ele>799.79999999999995</ele>
        <time>2003-04-12T17:01:00Z</time>
      </trkpt>
      <trkpt lat="37.150804996490479" lon="-2.755474979057908">
        <ele>796.39999999999998</ele>
        <time>2003-04-12T17:01:03Z</time>
      </trkpt>
      <trkpt lat="37.150090020149946" lon="-2.754637962207198">
        <ele>793</ele>
        <time>2003-04-12T17:01:05Z</time>
      </trkpt>
      <trkpt lat="37.149276975542307" lon="-2.753937989473343">
        <ele>789.60000000000002</ele>
        <time>2003-04-12T17:01:08Z</time>
      </trkpt>
      <trkpt lat="37.148372987285256" lon="-2.753392998129129">
        <ele>786.20000000000005</ele>
        <time>2003-04-12T17:01:12Z</time>
      </trkpt>
      <trkpt lat="37.14741300791502" lon="-2.752980021759868">
        <ele>783.10000000000002</ele>
        <time>2003-04-12T17:01:15Z</time>
      </trkpt>
      <trkpt lat="37.146456968039274" lon="-2.752505019307137">
        <ele>780.10000000000002</ele>
        <time>2003-04-12T17:01:17Z</time>
      </trkpt>
      <trkpt lat="37.145577035844326" lon="-2.751843016594648">
        <ele>776.39999999999998</ele>
        <time>2003-04-12T17:01:20Z</time>
      </trkpt>
      <trkpt lat="37.14479299262166" lon="-2.750989990308881">
        <ele>772.79999999999995</ele>
        <time>2003-04-12T17:01:24Z</time>
      </trkpt>
      <trkpt lat="37.144116992130876" lon="-2.749987011775374">
        <ele>769.20000000000005</ele>
        <time>2003-04-12T17:01:27Z</time>
      </trkpt>
      <trkpt lat="37.143554985523224" lon="-2.748859981074929">
        <ele>765.20000000000005</ele>
        <time>2003-04-12T17:01:30Z</time>
      </trkpt>
      <trkpt lat="37.143003037199378" lon="-2.747737979516387">
        <ele>763.29999999999995</ele>
        <time>2003-04-12T17:01:32Z</time>
      </trkpt>
      <trkpt lat="37.14255996979773" lon="-2.747068013995886">
        <ele>762.70000000000005</ele>
        <time>2003-04-12T17:01:35Z</time>
      </trkpt>
      <trkpt lat="37.141781961545348" lon="-2.746208030730486">
        <ele>762.5</ele>
        <time>2003-04-12T17:01:38Z</time>
      </trkpt>
      <trkpt lat="37.140921978279948" lon="-2.745497999712825">
        <ele>762.20000000000005</ele>
        <time>2003-04-12T17:01:40Z</time>
      </trkpt>
      <trkpt lat="37.140059983357787" lon="-2.744812024757266">
        <ele>762</ele>
        <time>2003-04-12T17:01:43Z</time>
      </trkpt>
      <trkpt lat="37.139294967055321" lon="-2.743982970714569">
        <ele>761.60000000000002</ele>
        <time>2003-04-12T17:01:47Z</time>
      </trkpt>
      <trkpt lat="37.138658026233315" lon="-2.743021985515952">
        <ele>760.89999999999998</ele>
        <time>2003-04-12T17:01:50Z</time>
      </trkpt>
      <trkpt lat="37.138147987425327" lon="-2.741944994777441">
        <ele>759.20000000000005</ele>
        <time>2003-04-12T17:01:53Z</time>
      </trkpt>
      <trkpt lat="37.137778010219336" lon="-2.740772031247616">
        <ele>756.29999999999995</ele>
        <time>2003-04-12T17:01:55Z</time>
      </trkpt>
      <trkpt lat="37.137538036331534" lon="-2.739532012492418">
        <ele>753.39999999999998</ele>
        <time>2003-04-12T17:01:58Z</time>
      </trkpt>
      <trkpt lat="37.137366961687803" lon="-2.738262992352247">
        <ele>750.10000000000002</ele>
        <time>2003-04-12T17:02:02Z</time>
      </trkpt>
      <trkpt lat="37.137066973373294" lon="-2.737047029659152">
        <ele>747.70000000000005</ele>
        <time>2003-04-12T17:02:05Z</time>
      </trkpt>
      <trkpt lat="37.136630024760962" lon="-2.735899966210127">
        <ele>746.5</ele>
        <time>2003-04-12T17:02:07Z</time>
      </trkpt>
      <trkpt lat="37.136217970401049" lon="-2.734767990186811">
        <ele>745.70000000000005</ele>
        <time>2003-04-12T17:02:10Z</time>
      </trkpt>
      <trkpt lat="37.135957041755319" lon="-2.733571976423264">
        <ele>744.89999999999998</ele>
        <time>2003-04-12T17:02:14Z</time>
      </trkpt>
      <trkpt lat="37.135846987366676" lon="-2.732332963496447">
        <ele>743.70000000000005</ele>
        <time>2003-04-12T17:02:17Z</time>
      </trkpt>
      <trkpt lat="37.135901972651482" lon="-2.731090011075139">
        <ele>742.79999999999995</ele>
        <time>2003-04-12T17:02:20Z</time>
      </trkpt>
      <trkpt lat="37.136104982346296" lon="-2.729864995926619">
        <ele>741.89999999999998</ele>
        <time>2003-04-12T17:02:22Z</time>
      </trkpt>
      <trkpt lat="37.136452998965979" lon="-2.728690020740032">
        <ele>741.20000000000005</ele>
        <time>2003-04-12T17:02:25Z</time>
      </trkpt>
      <trkpt lat="37.136939987540245" lon="-2.727585034444928">
        <ele>740.29999999999995</ele>
        <time>2003-04-12T17:02:29Z</time>
      </trkpt>
      <trkpt lat="37.137437034398317" lon="-2.726477030664682">
        <ele>739.10000000000002</ele>
        <time>2003-04-12T17:02:32Z</time>
      </trkpt>
      <trkpt lat="37.137931985780597" lon="-2.725346982479096">
        <ele>738.5</ele>
        <time>2003-04-12T17:02:34Z</time>
      </trkpt>
      <trkpt lat="37.138438001275063" lon="-2.724206959828734">
        <ele>737.70000000000005</ele>
        <time>2003-04-12T17:02:37Z</time>
      </trkpt>
      <trkpt lat="37.138945022597909" lon="-2.723070038482547">
        <ele>736.89999999999998</ele>
        <time>2003-04-12T17:02:41Z</time>
      </trkpt>
      <trkpt lat="37.139439973980188" lon="-2.721934961155057">
        <ele>735.89999999999998</ele>
        <time>2003-04-12T17:02:44Z</time>
      </trkpt>
      <trkpt lat="37.139884969219565" lon="-2.720782030373812">
        <ele>734.89999999999998</ele>
        <time>2003-04-12T17:02:47Z</time>
      </trkpt>
      <trkpt lat="37.140283025801182" lon="-2.719600014388561">
        <ele>733.70000000000005</ele>
        <time>2003-04-12T17:02:49Z</time>
      </trkpt>
      <trkpt lat="37.140628024935722" lon="-2.718390002846718">
        <ele>732.29999999999995</ele>
        <time>2003-04-12T17:02:52Z</time>
      </trkpt>
      <trkpt lat="37.140943016856909" lon="-2.717173034325242">
        <ele>731.70000000000005</ele>
        <time>2003-04-12T17:02:56Z</time>
      </trkpt>
      <trkpt lat="37.141177961602807" lon="-2.715971991419792">
        <ele>731.29999999999995</ele>
        <time>2003-04-12T17:02:59Z</time>
      </trkpt>
      <trkpt lat="37.141347024589777" lon="-2.714755022898316">
        <ele>730.70000000000005</ele>
        <time>2003-04-12T17:03:01Z</time>
      </trkpt>
      <trkpt lat="37.141447020694613" lon="-2.713502012193203">
        <ele>730.20000000000005</ele>
        <time>2003-04-12T17:03:04Z</time>
      </trkpt>
      <trkpt lat="37.141503011807799" lon="-2.712225029245019">
        <ele>729.70000000000005</ele>
        <time>2003-04-12T17:03:08Z</time>
      </trkpt>
      <trkpt lat="37.141505023464561" lon="-2.710947040468454">
        <ele>729.10000000000002</ele>
        <time>2003-04-12T17:03:11Z</time>
      </trkpt>
      <trkpt lat="37.141442997381091" lon="-2.709678020328283">
        <ele>729.60000000000002</ele>
        <time>2003-04-12T17:03:14Z</time>
      </trkpt>
      <trkpt lat="37.1413320209831" lon="-2.708428027108312">
        <ele>730.70000000000005</ele>
        <time>2003-04-12T17:03:16Z</time>
      </trkpt>
      <trkpt lat="37.141167987138033" lon="-2.707196976989508">
        <ele>731.70000000000005</ele>
        <time>2003-04-12T17:03:19Z</time>
      </trkpt>
      <trkpt lat="37.140958020463586" lon="-2.705983025953174">
        <ele>732.5</ele>
        <time>2003-04-12T17:03:23Z</time>
      </trkpt>
      <trkpt lat="37.14073003269732" lon="-2.70477200858295">
        <ele>733.29999999999995</ele>
        <time>2003-04-12T17:03:26Z</time>
      </trkpt>
      <trkpt lat="37.140487041324377" lon="-2.703553028404713">
        <ele>734.10000000000002</ele>
        <time>2003-04-12T17:03:28Z</time>
      </trkpt>
      <trkpt lat="37.140242960304022" lon="-2.702327007427812">
        <ele>734.89999999999998</ele>
        <time>2003-04-12T17:03:31Z</time>
      </trkpt>
      <trkpt lat="37.140012038871646" lon="-2.701093023642898">
        <ele>735.79999999999995</ele>
        <time>2003-04-12T17:03:35Z</time>
      </trkpt>
      <trkpt lat="37.139777010306716" lon="-2.699858034029603">
        <ele>736.70000000000005</ele>
        <time>2003-04-12T17:03:38Z</time>
      </trkpt>
      <trkpt lat="37.139535024762154" lon="-2.698617009446025">
        <ele>737.60000000000002</ele>
        <time>2003-04-12T17:03:41Z</time>
      </trkpt>
      <trkpt lat="37.139293039217591" lon="-2.697371961548924">
        <ele>738.20000000000005</ele>
        <time>2003-04-12T17:03:43Z</time>
      </trkpt>
      <trkpt lat="37.139052981510758" lon="-2.696121968328953">
        <ele>739.10000000000002</ele>
        <time>2003-04-12T17:03:46Z</time>
      </trkpt>
      <trkpt lat="37.138815019279718" lon="-2.69486702978611">
        <ele>739.70000000000005</ele>
        <time>2003-04-12T17:03:50Z</time>
      </trkpt>
      <trkpt lat="37.138574961572886" lon="-2.693609995767474">
        <ele>740.5</ele>
        <time>2003-04-12T17:03:53Z</time>
      </trkpt>
      <trkpt lat="37.138340016826987" lon="-2.692348016425967">
        <ele>741.5</ele>
        <time>2003-04-12T17:03:55Z</time>
      </trkpt>
      <trkpt lat="37.138157039880753" lon="-2.691072961315513">
        <ele>742.39999999999998</ele>
        <time>2003-04-12T17:03:58Z</time>
      </trkpt>
      <trkpt lat="37.138050002977252" lon="-2.689782986417413">
        <ele>743.39999999999998</ele>
        <time>2003-04-12T17:04:02Z</time>
      </trkpt>
      <trkpt lat="37.138034999370575" lon="-2.688498040661216">
        <ele>744.20000000000005</ele>
        <time>2003-04-12T17:04:05Z</time>
      </trkpt>
      <trkpt lat="37.138057965785265" lon="-2.687224997207522">
        <ele>745.10000000000002</ele>
        <time>2003-04-12T17:04:08Z</time>
      </trkpt>
      <trkpt lat="37.138086967170238" lon="-2.68595295958221">
        <ele>745.70000000000005</ele>
        <time>2003-04-12T17:04:10Z</time>
      </trkpt>
      <trkpt lat="37.138123009353876" lon="-2.684668013826013">
        <ele>746.89999999999998</ele>
        <time>2003-04-12T17:04:13Z</time>
      </trkpt>
      <trkpt lat="37.138157961890101" lon="-2.683378038927913">
        <ele>747.89999999999998</ele>
        <time>2003-04-12T17:04:17Z</time>
      </trkpt>
      <trkpt lat="37.138191992416978" lon="-2.682082029059529">
        <ele>748.89999999999998</ele>
        <time>2003-04-12T17:04:20Z</time>
      </trkpt>
      <trkpt lat="37.138223005458713" lon="-2.680777972564101">
        <ele>749.89999999999998</ele>
        <time>2003-04-12T17:04:22Z</time>
      </trkpt>
      <trkpt lat="37.13826198130846" lon="-2.679467964917421">
        <ele>750.60000000000002</ele>
        <time>2003-04-12T17:04:25Z</time>
      </trkpt>
      <trkpt lat="37.138295006006956" lon="-2.67815301194787">
        <ele>751.5</ele>
        <time>2003-04-12T17:04:29Z</time>
      </trkpt>
      <trkpt lat="37.138329958543181" lon="-2.676836969330907">
        <ele>752.39999999999998</ele>
        <time>2003-04-12T17:04:32Z</time>
      </trkpt>
      <trkpt lat="37.138361977413297" lon="-2.675520004704595">
        <ele>753.39999999999998</ele>
        <time>2003-04-12T17:04:35Z</time>
      </trkpt>
      <trkpt lat="37.13838997296989" lon="-2.674200022593141">
        <ele>754.29999999999995</ele>
        <time>2003-04-12T17:04:37Z</time>
      </trkpt>
      <trkpt lat="37.138427020981908" lon="-2.672878028824925">
        <ele>755.20000000000005</ele>
        <time>2003-04-12T17:04:40Z</time>
      </trkpt>
      <trkpt lat="37.138459961861372" lon="-2.671557040885091">
        <ele>756.10000000000002</ele>
        <time>2003-04-12T17:04:44Z</time>
      </trkpt>
      <trkpt lat="37.138494998216629" lon="-2.670252984389663">
        <ele>757</ele>
        <time>2003-04-12T17:04:47Z</time>
      </trkpt>
      <trkpt lat="37.138527017086744" lon="-2.668959992006421">
        <ele>758.10000000000002</ele>
        <time>2003-04-12T17:04:49Z</time>
      </trkpt>
      <trkpt lat="37.138522993773222" lon="-2.667677979916334">
        <ele>759</ele>
        <time>2003-04-12T17:04:52Z</time>
      </trkpt>
      <trkpt lat="37.138407994061708" lon="-2.666409965604544">
        <ele>760</ele>
        <time>2003-04-12T17:04:56Z</time>
      </trkpt>
      <trkpt lat="37.138172965496778" lon="-2.665159972384572">
        <ele>760.79999999999995</ele>
        <time>2003-04-12T17:04:59Z</time>
      </trkpt>
      <trkpt lat="37.137820003554225" lon="-2.663948033004999">
        <ele>761.70000000000005</ele>
        <time>2003-04-12T17:05:03Z</time>
      </trkpt>
      <trkpt lat="37.137375008314848" lon="-2.662799963727593">
        <ele>765.29999999999995</ele>
        <time>2003-04-12T17:05:04Z</time>
      </trkpt>
      <trkpt lat="37.13682297617197" lon="-2.661747029051185">
        <ele>769.79999999999995</ele>
        <time>2003-04-12T17:05:07Z</time>
      </trkpt>
      <trkpt lat="37.136258035898209" lon="-2.660734998062253">
        <ele>775</ele>
        <time>2003-04-12T17:05:11Z</time>
      </trkpt>
      <trkpt lat="37.135770041495562" lon="-2.659687008708715">
        <ele>779.79999999999995</ele>
        <time>2003-04-12T17:05:14Z</time>
      </trkpt>
      <trkpt lat="37.135420013219118" lon="-2.658562995493412">
        <ele>783.5</ele>
        <time>2003-04-12T17:05:16Z</time>
      </trkpt>
      <trkpt lat="37.135214991867542" lon="-2.657385002821684">
        <ele>786.20000000000005</ele>
        <time>2003-04-12T17:05:19Z</time>
      </trkpt>
      <trkpt lat="37.135156989097595" lon="-2.656180020421743">
        <ele>788.20000000000005</ele>
        <time>2003-04-12T17:05:23Z</time>
      </trkpt>
      <trkpt lat="37.135233012959361" lon="-2.654964979737997">
        <ele>789.29999999999995</ele>
        <time>2003-04-12T17:05:26Z</time>
      </trkpt>
      <trkpt lat="37.135465024039149" lon="-2.65376796014607">
        <ele>789.70000000000005</ele>
        <time>2003-04-12T17:05:29Z</time>
      </trkpt>
      <trkpt lat="37.135850004851818" lon="-2.652612011879683">
        <ele>789.20000000000005</ele>
        <time>2003-04-12T17:05:31Z</time>
      </trkpt>
      <trkpt lat="37.136252000927925" lon="-2.651454973965883">
        <ele>787.5</ele>
        <time>2003-04-12T17:05:34Z</time>
      </trkpt>
      <trkpt lat="37.13652198202908" lon="-2.650277987122536">
        <ele>786.5</ele>
        <time>2003-04-12T17:05:38Z</time>
      </trkpt>
      <trkpt lat="37.136624995619059" lon="-2.649088008329272">
        <ele>783.89999999999998</ele>
        <time>2003-04-12T17:05:41Z</time>
      </trkpt>
      <trkpt lat="37.136594988405704" lon="-2.647889982908964">
        <ele>780.60000000000002</ele>
        <time>2003-04-12T17:05:43Z</time>
      </trkpt>
      <trkpt lat="37.136415028944612" lon="-2.646715007722378">
        <ele>776.5</ele>
        <time>2003-04-12T17:05:47Z</time>
      </trkpt>
      <trkpt lat="37.136085033416748" lon="-2.645595017820597">
        <ele>772.70000000000005</ele>
        <time>2003-04-12T17:05:50Z</time>
      </trkpt>
      <trkpt lat="37.13563802652061" lon="-2.644577035680413">
        <ele>769.5</ele>
        <time>2003-04-12T17:05:54Z</time>
      </trkpt>
      <trkpt lat="37.135078031569719" lon="-2.643634993582964">
        <ele>766.70000000000005</ele>
        <time>2003-04-12T17:05:57Z</time>
      </trkpt>
      <trkpt lat="37.134375041350722" lon="-2.642782973125577">
        <ele>763.79999999999995</ele>
        <time>2003-04-12T17:06:00Z</time>
      </trkpt>
      <trkpt lat="37.133544981479645" lon="-2.642060033977032">
        <ele>760.79999999999995</ele>
        <time>2003-04-12T17:06:02Z</time>
      </trkpt>
      <trkpt lat="37.132651973515749" lon="-2.641431977972388">
        <ele>758.5</ele>
        <time>2003-04-12T17:06:05Z</time>
      </trkpt>
      <trkpt lat="37.131743039935827" lon="-2.640799982473254">
        <ele>755.39999999999998</ele>
        <time>2003-04-12T17:06:08Z</time>
      </trkpt>
      <trkpt lat="37.130841985344887" lon="-2.640143008902669">
        <ele>754.5</ele>
        <time>2003-04-12T17:06:12Z</time>
      </trkpt>
      <trkpt lat="37.129957024008036" lon="-2.639467008411884">
        <ele>755.20000000000005</ele>
        <time>2003-04-12T17:06:14Z</time>
      </trkpt>
      <trkpt lat="37.129116989672184" lon="-2.638720013201237">
        <ele>757.39999999999998</ele>
        <time>2003-04-12T17:06:17Z</time>
      </trkpt>
      <trkpt lat="37.128326995298266" lon="-2.6379119977355">
        <ele>761.39999999999998</ele>
        <time>2003-04-12T17:06:21Z</time>
      </trkpt>
      <trkpt lat="37.127601960673928" lon="-2.637055031955242">
        <ele>766.79999999999995</ele>
        <time>2003-04-12T17:06:24Z</time>
      </trkpt>
      <trkpt lat="37.126929983496666" lon="-2.636163029819727">
        <ele>772.29999999999995</ele>
        <time>2003-04-12T17:06:27Z</time>
      </trkpt>
      <trkpt lat="37.12631500326097" lon="-2.635240014642477">
        <ele>777.70000000000005</ele>
        <time>2003-04-12T17:06:29Z</time>
      </trkpt>
      <trkpt lat="37.125758025795221" lon="-2.63428196310997">
        <ele>783</ele>
        <time>2003-04-12T17:06:32Z</time>
      </trkpt>
      <trkpt lat="37.125255027785897" lon="-2.633300023153424">
        <ele>787.79999999999995</ele>
        <time>2003-04-12T17:06:36Z</time>
      </trkpt>
      <trkpt lat="37.124777007848024" lon="-2.632299978286028">
        <ele>790.79999999999995</ele>
        <time>2003-04-12T17:06:39Z</time>
      </trkpt>
      <trkpt lat="37.12429697625339" lon="-2.631312003359199">
        <ele>792.70000000000005</ele>
        <time>2003-04-12T17:06:41Z</time>
      </trkpt>
      <trkpt lat="37.123824991285801" lon="-2.630317993462086">
        <ele>793.79999999999995</ele>
        <time>2003-04-12T17:06:44Z</time>
      </trkpt>
      <trkpt lat="37.123347977176309" lon="-2.629315014928579">
        <ele>793.5</ele>
        <time>2003-04-12T17:06:48Z</time>
      </trkpt>
      <trkpt lat="37.122859982773662" lon="-2.628297032788396">
        <ele>792.10000000000002</ele>
        <time>2003-04-12T17:06:51Z</time>
      </trkpt>
      <trkpt lat="37.12236201390624" lon="-2.62725499458611">
        <ele>789.5</ele>
        <time>2003-04-12T17:06:54Z</time>
      </trkpt>
      <trkpt lat="37.121857004240155" lon="-2.626199964433909">
        <ele>785.60000000000002</ele>
        <time>2003-04-12T17:06:56Z</time>
      </trkpt>
      <trkpt lat="37.121366998180747" lon="-2.625143006443977">
        <ele>780.60000000000002</ele>
        <time>2003-04-12T17:06:59Z</time>
      </trkpt>
      <trkpt lat="37.120931977406144" lon="-2.624057969078422">
        <ele>775.29999999999995</ele>
        <time>2003-04-12T17:07:03Z</time>
      </trkpt>
      <trkpt lat="37.120571974664927" lon="-2.622885005548596">
        <ele>769.70000000000005</ele>
        <time>2003-04-12T17:07:06Z</time>
      </trkpt>
      <trkpt lat="37.120284978300333" lon="-2.621642975136638">
        <ele>765.29999999999995</ele>
        <time>2003-04-12T17:07:08Z</time>
      </trkpt>
      <trkpt lat="37.120096972212195" lon="-2.620349982753396">
        <ele>761.70000000000005</ele>
        <time>2003-04-12T17:07:11Z</time>
      </trkpt>
      <trkpt lat="37.120002005249262" lon="-2.619032012298703">
        <ele>759.60000000000002</ele>
        <time>2003-04-12T17:07:15Z</time>
      </trkpt>
      <trkpt lat="37.119990019127727" lon="-2.617707001045346">
        <ele>758.5</ele>
        <time>2003-04-12T17:07:18Z</time>
      </trkpt>
      <trkpt lat="37.119996976107359" lon="-2.616391964256764">
        <ele>758.89999999999998</ele>
        <time>2003-04-12T17:07:21Z</time>
      </trkpt>
      <trkpt lat="37.119988007470965" lon="-2.615092014893889">
        <ele>759.5</ele>
        <time>2003-04-12T17:07:23Z</time>
      </trkpt>
      <trkpt lat="37.119984989985824" lon="-2.613802962005138">
        <ele>760.20000000000005</ele>
        <time>2003-04-12T17:07:26Z</time>
      </trkpt>
      <trkpt lat="37.119978033006191" lon="-2.612527990713716">
        <ele>761.10000000000002</ele>
        <time>2003-04-12T17:07:30Z</time>
      </trkpt>
      <trkpt lat="37.119918018579483" lon="-2.61126802302897">
        <ele>761.29999999999995</ele>
        <time>2003-04-12T17:07:33Z</time>
      </trkpt>
      <trkpt lat="37.119792960584164" lon="-2.610018029808998">
        <ele>761.20000000000005</ele>
        <time>2003-04-12T17:07:35Z</time>
      </trkpt>
      <trkpt lat="37.119606966152787" lon="-2.608774993568659">
        <ele>760.60000000000002</ele>
        <time>2003-04-12T17:07:38Z</time>
      </trkpt>
      <trkpt lat="37.11933296173811" lon="-2.607555007562041">
        <ele>759.89999999999998</ele>
        <time>2003-04-12T17:07:42Z</time>
      </trkpt>
      <trkpt lat="37.119025010615587" lon="-2.606339966878295">
        <ele>759</ele>
        <time>2003-04-12T17:07:45Z</time>
      </trkpt>
      <trkpt lat="37.118723010644317" lon="-2.605119980871677">
        <ele>758.20000000000005</ele>
        <time>2003-04-12T17:07:48Z</time>
      </trkpt>
      <trkpt lat="37.118417993187904" lon="-2.603896977379918">
        <ele>757.5</ele>
        <time>2003-04-12T17:07:50Z</time>
      </trkpt>
      <trkpt lat="37.118114987388253" lon="-2.602682020515204">
        <ele>758.10000000000002</ele>
        <time>2003-04-12T17:07:53Z</time>
      </trkpt>
      <trkpt lat="37.117835031822324" lon="-2.601477960124612">
        <ele>760.39999999999998</ele>
        <time>2003-04-12T17:07:57Z</time>
      </trkpt>
      <trkpt lat="37.117651971057057" lon="-2.600265014916658">
        <ele>763</ele>
        <time>2003-04-12T17:08:00Z</time>
      </trkpt>
      <trkpt lat="37.117577036842704" lon="-2.599045028910041">
        <ele>764.5</ele>
        <time>2003-04-12T17:08:02Z</time>
      </trkpt>
      <trkpt lat="37.117518028244376" lon="-2.597823031246662">
        <ele>765.20000000000005</ele>
        <time>2003-04-12T17:08:05Z</time>
      </trkpt>
      <trkpt lat="37.11746203713119" lon="-2.596600027754903">
        <ele>765.70000000000005</ele>
        <time>2003-04-12T17:08:09Z</time>
      </trkpt>
      <trkpt lat="37.117400011047721" lon="-2.595371995121241">
        <ele>765.60000000000002</ele>
        <time>2003-04-12T17:08:12Z</time>
      </trkpt>
      <trkpt lat="37.117347037419677" lon="-2.594128036871553">
        <ele>764.79999999999995</ele>
        <time>2003-04-12T17:08:15Z</time>
      </trkpt>
      <trkpt lat="37.117287022992969" lon="-2.5928770378232">
        <ele>763.89999999999998</ele>
        <time>2003-04-12T17:08:17Z</time>
      </trkpt>
      <trkpt lat="37.11724704131484" lon="-2.591617992147803">
        <ele>763.5</ele>
        <time>2003-04-12T17:08:20Z</time>
      </trkpt>
      <trkpt lat="37.117294985800982" lon="-2.590361963957548">
        <ele>763.89999999999998</ele>
        <time>2003-04-12T17:08:24Z</time>
      </trkpt>
      <trkpt lat="37.117522973567247" lon="-2.58913803845644">
        <ele>765.20000000000005</ele>
        <time>2003-04-12T17:08:27Z</time>
      </trkpt>
      <trkpt lat="37.117881970480084" lon="-2.587976977229118">
        <ele>767.20000000000005</ele>
        <time>2003-04-12T17:08:29Z</time>
      </trkpt>
      <trkpt lat="37.118342975154519" lon="-2.58688498288393">
        <ele>769.29999999999995</ele>
        <time>2003-04-12T17:08:32Z</time>
      </trkpt>
      <trkpt lat="37.118810014799237" lon="-2.585806986317039">
        <ele>771</ele>
        <time>2003-04-12T17:08:36Z</time>
      </trkpt>
      <trkpt lat="37.119192983955145" lon="-2.584686996415258">
        <ele>772.29999999999995</ele>
        <time>2003-04-12T17:08:39Z</time>
      </trkpt>
      <trkpt lat="37.11941996589303" lon="-2.583504980430007">
        <ele>773.39999999999998</ele>
        <time>2003-04-12T17:08:42Z</time>
      </trkpt>
      <trkpt lat="37.119519961997867" lon="-2.582299998030067">
        <ele>774.20000000000005</ele>
        <time>2003-04-12T17:08:44Z</time>
      </trkpt>
      <trkpt lat="37.119496995583177" lon="-2.581087974831462">
        <ele>775.10000000000002</ele>
        <time>2003-04-12T17:08:47Z</time>
      </trkpt>
      <trkpt lat="37.119334973394871" lon="-2.579887015745044">
        <ele>775.29999999999995</ele>
        <time>2003-04-12T17:08:51Z</time>
      </trkpt>
      <trkpt lat="37.1190520003438" lon="-2.578716985881329">
        <ele>775.10000000000002</ele>
        <time>2003-04-12T17:08:54Z</time>
      </trkpt>
      <trkpt lat="37.118732985109091" lon="-2.577551985159516">
        <ele>774.60000000000002</ele>
        <time>2003-04-12T17:08:56Z</time>
      </trkpt>
      <trkpt lat="37.118416987359524" lon="-2.576372986659408">
        <ele>773.60000000000002</ele>
        <time>2003-04-12T17:08:59Z</time>
      </trkpt>
      <trkpt lat="37.118105012923479" lon="-2.575183007866144">
        <ele>772.5</ele>
        <time>2003-04-12T17:09:03Z</time>
      </trkpt>
      <trkpt lat="37.11782799102366" lon="-2.573967967182398">
        <ele>771.29999999999995</ele>
        <time>2003-04-12T17:09:06Z</time>
      </trkpt>
      <trkpt lat="37.117622969672084" lon="-2.572728032246232">
        <ele>770</ele>
        <time>2003-04-12T17:09:09Z</time>
      </trkpt>
      <trkpt lat="37.117494978010654" lon="-2.571463035419583">
        <ele>768.79999999999995</ele>
        <time>2003-04-12T17:09:11Z</time>
      </trkpt>
      <trkpt lat="37.117448039352894" lon="-2.570183034986258">
        <ele>767.60000000000002</ele>
        <time>2003-04-12T17:09:14Z</time>
      </trkpt>
      <trkpt lat="37.117445021867752" lon="-2.568887025117874">
        <ele>766.29999999999995</ele>
        <time>2003-04-12T17:09:18Z</time>
      </trkpt>
      <trkpt lat="37.117443010210991" lon="-2.567566959187388">
        <ele>765</ele>
        <time>2003-04-12T17:09:21Z</time>
      </trkpt>
      <trkpt lat="37.117447033524513" lon="-2.566228033974767">
        <ele>763.70000000000005</ele>
        <time>2003-04-12T17:09:23Z</time>
      </trkpt>
      <trkpt lat="37.117443010210991" lon="-2.564872009679675">
        <ele>762.20000000000005</ele>
        <time>2003-04-12T17:09:26Z</time>
      </trkpt>
      <trkpt lat="37.11741803213954" lon="-2.563499975949526">
        <ele>760.5</ele>
        <time>2003-04-12T17:09:30Z</time>
      </trkpt>
      <trkpt lat="37.117381989955902" lon="-2.562136994674802">
        <ele>758.70000000000005</ele>
        <time>2003-04-12T17:09:33Z</time>
      </trkpt>
      <trkpt lat="37.117343014106154" lon="-2.56077996455133">
        <ele>757.20000000000005</ele>
        <time>2003-04-12T17:09:36Z</time>
      </trkpt>
      <trkpt lat="37.117302026599646" lon="-2.559427041560412">
        <ele>755.70000000000005</ele>
        <time>2003-04-12T17:09:38Z</time>
      </trkpt>
      <trkpt lat="37.117262966930866" lon="-2.558079985901713">
        <ele>754.39999999999998</ele>
        <time>2003-04-12T17:09:41Z</time>
      </trkpt>
      <trkpt lat="37.11722700856626" lon="-2.556754974648356">
        <ele>752.89999999999998</ele>
        <time>2003-04-12T17:09:45Z</time>
      </trkpt>
      <trkpt lat="37.117173029109836" lon="-2.555437004193664">
        <ele>751.29999999999995</ele>
        <time>2003-04-12T17:09:48Z</time>
      </trkpt>
      <trkpt lat="37.117074960842729" lon="-2.554167984053493">
        <ele>749.70000000000005</ele>
        <time>2003-04-12T17:09:50Z</time>
      </trkpt>
      <trkpt lat="37.116900030523539" lon="-2.552923019975424">
        <ele>748.10000000000002</ele>
        <time>2003-04-12T17:09:53Z</time>
      </trkpt>
      <trkpt lat="37.116644969210029" lon="-2.551683001220226">
        <ele>746.39999999999998</ele>
        <time>2003-04-12T17:09:57Z</time>
      </trkpt>
      <trkpt lat="37.11632302030921" lon="-2.550454968586564">
        <ele>744.70000000000005</ele>
        <time>2003-04-12T17:10:00Z</time>
      </trkpt>
      <trkpt lat="37.115984978154302" lon="-2.549228025600314">
        <ele>742.89999999999998</ele>
        <time>2003-04-12T17:10:03Z</time>
      </trkpt>
      <trkpt lat="37.115730000659823" lon="-2.547957999631763">
        <ele>741</ele>
        <time>2003-04-12T17:10:05Z</time>
      </trkpt>
      <trkpt lat="37.115642996504903" lon="-2.54664002917707">
        <ele>738.79999999999995</ele>
        <time>2003-04-12T17:10:08Z</time>
      </trkpt>
      <trkpt lat="37.11570200510323" lon="-2.545313006266952">
        <ele>736.70000000000005</ele>
        <time>2003-04-12T17:10:12Z</time>
      </trkpt>
      <trkpt lat="37.11591700091958" lon="-2.544002998620272">
        <ele>734.60000000000002</ele>
        <time>2003-04-12T17:10:15Z</time>
      </trkpt>
      <trkpt lat="37.116162003949285" lon="-2.54277496598661">
        <ele>732.10000000000002</ele>
        <time>2003-04-12T17:10:17Z</time>
      </trkpt>
      <trkpt lat="37.116322014480829" lon="-2.541566966101527">
        <ele>729.70000000000005</ele>
        <time>2003-04-12T17:10:20Z</time>
      </trkpt>
      <trkpt lat="37.116316985338926" lon="-2.540322002023459">
        <ele>728</ele>
        <time>2003-04-12T17:10:24Z</time>
      </trkpt>
      <trkpt lat="37.116187987849116" lon="-2.5390799716115">
        <ele>727</ele>
        <time>2003-04-12T17:10:27Z</time>
      </trkpt>
      <trkpt lat="37.115875007584691" lon="-2.537869960069656">
        <ele>725.79999999999995</ele>
        <time>2003-04-12T17:10:30Z</time>
      </trkpt>
      <trkpt lat="37.115428000688553" lon="-2.536742007359862">
        <ele>726.70000000000005</ele>
        <time>2003-04-12T17:10:32Z</time>
      </trkpt>
      <trkpt lat="37.114904969930649" lon="-2.535668034106493">
        <ele>730.29999999999995</ele>
        <time>2003-04-12T17:10:35Z</time>
      </trkpt>
      <trkpt lat="37.114371964707971" lon="-2.534633036702871">
        <ele>733.89999999999998</ele>
        <time>2003-04-12T17:10:39Z</time>
      </trkpt>
      <trkpt lat="37.113853041082621" lon="-2.53360197879374">
        <ele>737.60000000000002</ele>
        <time>2003-04-12T17:10:42Z</time>
      </trkpt>
      <trkpt lat="37.11333797313273" lon="-2.532572010532022">
        <ele>741.39999999999998</ele>
        <time>2003-04-12T17:10:44Z</time>
      </trkpt>
      <trkpt lat="37.112813014537096" lon="-2.531557967886329">
        <ele>744.89999999999998</ele>
        <time>2003-04-12T17:10:47Z</time>
      </trkpt>
      <trkpt lat="37.112213037908077" lon="-2.530633024871349">
        <ele>747.79999999999995</ele>
        <time>2003-04-12T17:10:51Z</time>
      </trkpt>
      <trkpt lat="37.111508036032319" lon="-2.529828026890755">
        <ele>750.5</ele>
        <time>2003-04-12T17:10:54Z</time>
      </trkpt>
      <trkpt lat="37.110730027779937" lon="-2.529123025014997">
        <ele>753</ele>
        <time>2003-04-12T17:10:57Z</time>
      </trkpt>
      <trkpt lat="37.109880018979311" lon="-2.528545008972287">
        <ele>755</ele>
        <time>2003-04-12T17:10:59Z</time>
      </trkpt>
      <trkpt lat="37.108962032943964" lon="-2.528134966269136">
        <ele>756.5</ele>
        <time>2003-04-12T17:11:02Z</time>
      </trkpt>
      <trkpt lat="37.107995012775064" lon="-2.527894992381334">
        <ele>757.29999999999995</ele>
        <time>2003-04-12T17:11:06Z</time>
      </trkpt>
      <trkpt lat="37.106996979564428" lon="-2.52782198600471">
        <ele>757.70000000000005</ele>
        <time>2003-04-12T17:11:09Z</time>
      </trkpt>
      <trkpt lat="37.105983020737767" lon="-2.527922987937927">
        <ele>757.60000000000002</ele>
        <time>2003-04-12T17:11:11Z</time>
      </trkpt>
      <trkpt lat="37.104969983920455" lon="-2.528160028159618">
        <ele>757.39999999999998</ele>
        <time>2003-04-12T17:11:14Z</time>
      </trkpt>
      <trkpt lat="37.103943033143878" lon="-2.528447024524212">
        <ele>756.10000000000002</ele>
        <time>2003-04-12T17:11:18Z</time>
      </trkpt>
      <trkpt lat="37.102894959971309" lon="-2.528711976483464">
        <ele>754.60000000000002</ele>
        <time>2003-04-12T17:11:21Z</time>
      </trkpt>
      <trkpt lat="37.101846970617771" lon="-2.528978018090129">
        <ele>754.10000000000002</ele>
        <time>2003-04-12T17:11:24Z</time>
      </trkpt>
      <trkpt lat="37.100795041769743" lon="-2.529231989756227">
        <ele>754.70000000000005</ele>
        <time>2003-04-12T17:11:26Z</time>
      </trkpt>
      <trkpt lat="37.099755015224218" lon="-2.529495013877749">
        <ele>756.29999999999995</ele>
        <time>2003-04-12T17:11:29Z</time>
      </trkpt>
      <trkpt lat="37.098717000335455" lon="-2.529670028015971">
        <ele>759</ele>
        <time>2003-04-12T17:11:33Z</time>
      </trkpt>
      <trkpt lat="37.097691977396607" lon="-2.529631974175572">
        <ele>762.29999999999995</ele>
        <time>2003-04-12T17:11:36Z</time>
      </trkpt>
      <trkpt lat="37.09703198634088" lon="-2.529476992785931">
        <ele>763.89999999999998</ele>
        <time>2003-04-12T17:11:37Z</time>
      </trkpt>
      <trkpt lat="37.096082987263799" lon="-2.529093017801642">
        <ele>765.10000000000002</ele>
        <time>2003-04-12T17:11:41Z</time>
      </trkpt>
      <trkpt lat="37.095192996785045" lon="-2.528547020629048">
        <ele>765.29999999999995</ele>
        <time>2003-04-12T17:11:44Z</time>
      </trkpt>
      <trkpt lat="37.094393027946353" lon="-2.527840007096529">
        <ele>764.70000000000005</ele>
        <time>2003-04-12T17:11:47Z</time>
      </trkpt>
      <trkpt lat="37.09367997944355" lon="-2.526983041316271">
        <ele>762.89999999999998</ele>
        <time>2003-04-12T17:11:49Z</time>
      </trkpt>
      <trkpt lat="37.093067010864615" lon="-2.526028007268906">
        <ele>760.20000000000005</ele>
        <time>2003-04-12T17:11:52Z</time>
      </trkpt>
      <trkpt lat="37.09234700538218" lon="-2.524842973798513">
        <ele>755.20000000000005</ele>
        <time>2003-04-12T17:11:56Z</time>
      </trkpt>
      <trkpt lat="37.091687014326453" lon="-2.52403998747468">
        <ele>750.5</ele>
        <time>2003-04-12T17:12:00Z</time>
      </trkpt>
      <trkpt lat="37.090913029387593" lon="-2.523344960063696">
        <ele>744.79999999999995</ele>
        <time>2003-04-12T17:12:03Z</time>
      </trkpt>
      <trkpt lat="37.090044999495149" lon="-2.52279301173985">
        <ele>738.79999999999995</ele>
        <time>2003-04-12T17:12:05Z</time>
      </trkpt>
      <trkpt lat="37.089162971824408" lon="-2.522257994860411">
        <ele>733.29999999999995</ele>
        <time>2003-04-12T17:12:08Z</time>
      </trkpt>
      <trkpt lat="37.088347999379039" lon="-2.521603032946587">
        <ele>727.5</ele>
        <time>2003-04-12T17:12:12Z</time>
      </trkpt>
      <trkpt lat="37.087611984461546" lon="-2.520783031359315">
        <ele>721.70000000000005</ele>
        <time>2003-04-12T17:12:15Z</time>
      </trkpt>
      <trkpt lat="37.086964985355735" lon="-2.519826991483569">
        <ele>715.60000000000002</ele>
        <time>2003-04-12T17:12:18Z</time>
      </trkpt>
      <trkpt lat="37.086337013170123" lon="-2.518816972151399">
        <ele>708.89999999999998</ele>
        <time>2003-04-12T17:12:20Z</time>
      </trkpt>
      <trkpt lat="37.085697976872325" lon="-2.517797984182835">
        <ele>702.5</ele>
        <time>2003-04-12T17:12:23Z</time>
      </trkpt>
      <trkpt lat="37.08506497554481" lon="-2.516797017306089">
        <ele>695.70000000000005</ele>
        <time>2003-04-12T17:12:27Z</time>
      </trkpt>
      <trkpt lat="37.084459969773889" lon="-2.515814993530512">
        <ele>689.5</ele>
        <time>2003-04-12T17:12:30Z</time>
      </trkpt>
      <trkpt lat="37.084112036973238" lon="-2.515106974169612">
        <ele>685.89999999999998</ele>
        <time>2003-04-12T17:12:31Z</time>
      </trkpt>
      <trkpt lat="37.083695037290454" lon="-2.513947002589703">
        <ele>679.70000000000005</ele>
        <time>2003-04-12T17:12:35Z</time>
      </trkpt>
      <trkpt lat="37.083414997905493" lon="-2.512730034068227">
        <ele>673.60000000000002</ele>
        <time>2003-04-12T17:12:38Z</time>
      </trkpt>
      <trkpt lat="37.08319203928113" lon="-2.511533014476299">
        <ele>667.39999999999998</ele>
        <time>2003-04-12T17:12:41Z</time>
      </trkpt>
      <trkpt lat="37.082909988239408" lon="-2.510349992662668">
        <ele>661.5</ele>
        <time>2003-04-12T17:12:43Z</time>
      </trkpt>
      <trkpt lat="37.082532970234752" lon="-2.509202007204294">
        <ele>655.60000000000002</ele>
        <time>2003-04-12T17:12:46Z</time>
      </trkpt>
      <trkpt lat="37.082071965560317" lon="-2.508125016465783">
        <ele>649.89999999999998</ele>
        <time>2003-04-12T17:12:50Z</time>
      </trkpt>
      <trkpt lat="37.081542983651161" lon="-2.507093036547303">
        <ele>644.10000000000002</ele>
        <time>2003-04-12T17:12:53Z</time>
      </trkpt>
      <trkpt lat="37.080930015072227" lon="-2.506125010550022">
        <ele>638.10000000000002</ele>
        <time>2003-04-12T17:12:55Z</time>
      </trkpt>
      <trkpt lat="37.080246973782778" lon="-2.505220016464591">
        <ele>632.60000000000002</ele>
        <time>2003-04-12T17:12:58Z</time>
      </trkpt>
      <trkpt lat="37.079478017985821" lon="-2.504388028755784">
        <ele>627.70000000000005</ele>
        <time>2003-04-12T17:13:02Z</time>
      </trkpt>
      <trkpt lat="37.078647958114743" lon="-2.503623012453318">
        <ele>623.20000000000005</ele>
        <time>2003-04-12T17:13:05Z</time>
      </trkpt>
      <trkpt lat="37.077765008434653" lon="-2.50289797782898">
        <ele>619.29999999999995</ele>
        <time>2003-04-12T17:13:08Z</time>
      </trkpt>
      <trkpt lat="37.076863031834364" lon="-2.502161962911487">
        <ele>615.20000000000005</ele>
        <time>2003-04-12T17:13:10Z</time>
      </trkpt>
      <trkpt lat="37.075955020263791" lon="-2.501410022377968">
        <ele>610.70000000000005</ele>
        <time>2003-04-12T17:13:13Z</time>
      </trkpt>
      <trkpt lat="37.075067041441798" lon="-2.500679958611727">
        <ele>606.20000000000005</ele>
        <time>2003-04-12T17:13:17Z</time>
      </trkpt>
      <trkpt lat="37.074198005720973" lon="-2.499970011413097">
        <ele>601.70000000000005</ele>
        <time>2003-04-12T17:13:20Z</time>
      </trkpt>
      <trkpt lat="37.073368029668927" lon="-2.499250005930662">
        <ele>597.29999999999995</ele>
        <time>2003-04-12T17:13:22Z</time>
      </trkpt>
      <trkpt lat="37.072626985609531" lon="-2.498422963544726">
        <ele>592.60000000000002</ele>
        <time>2003-04-12T17:13:25Z</time>
      </trkpt>
      <trkpt lat="37.072196993976831" lon="-2.497768001630902">
        <ele>589.5</ele>
        <time>2003-04-12T17:13:28Z</time>
      </trkpt>
      <trkpt lat="37.071647979319096" lon="-2.496697967872024">
        <ele>584.39999999999998</ele>
        <time>2003-04-12T17:13:30Z</time>
      </trkpt>
      <trkpt lat="37.071223016828299" lon="-2.495594993233681">
        <ele>579.5</ele>
        <time>2003-04-12T17:13:33Z</time>
      </trkpt>
      <trkpt lat="37.070772992447019" lon="-2.494522025808692">
        <ele>574.60000000000002</ele>
        <time>2003-04-12T17:13:37Z</time>
      </trkpt>
      <trkpt lat="37.070202017202973" lon="-2.493561962619424">
        <ele>570</ele>
        <time>2003-04-12T17:13:40Z</time>
      </trkpt>
      <trkpt lat="37.069531967863441" lon="-2.492746990174055">
        <ele>565.29999999999995</ele>
        <time>2003-04-12T17:13:43Z</time>
      </trkpt>
      <trkpt lat="37.068786984309554" lon="-2.492054980248213">
        <ele>560.79999999999995</ele>
        <time>2003-04-12T17:13:45Z</time>
      </trkpt>
      <trkpt lat="37.067958014085889" lon="-2.491440000012517">
        <ele>556.79999999999995</ele>
        <time>2003-04-12T17:13:48Z</time>
      </trkpt>
      <trkpt lat="37.067076992243528" lon="-2.490857038646936">
        <ele>552.20000000000005</ele>
        <time>2003-04-12T17:13:52Z</time>
      </trkpt>
      <trkpt lat="37.066173003986478" lon="-2.490253038704395">
        <ele>548</ele>
        <time>2003-04-12T17:13:56Z</time>
      </trkpt>
      <trkpt lat="37.065261974930763" lon="-2.489632023498416">
        <ele>544.5</ele>
        <time>2003-04-12T17:13:57Z</time>
      </trkpt>
      <trkpt lat="37.064332002773881" lon="-2.488983012735844">
        <ele>540.79999999999995</ele>
        <time>2003-04-12T17:14:00Z</time>
      </trkpt>
      <trkpt lat="37.06340697593987" lon="-2.488295026123524">
        <ele>537.39999999999998</ele>
        <time>2003-04-12T17:14:04Z</time>
      </trkpt>
      <trkpt lat="37.062517991289496" lon="-2.487512994557619">
        <ele>534</ele>
        <time>2003-04-12T17:14:07Z</time>
      </trkpt>
      <trkpt lat="37.061673011630774" lon="-2.4866349902004">
        <ele>530.39999999999998</ele>
        <time>2003-04-12T17:14:10Z</time>
      </trkpt>
      <trkpt lat="37.060882011428475" lon="-2.485663024708629">
        <ele>526.89999999999998</ele>
        <time>2003-04-12T17:14:12Z</time>
      </trkpt>
      <trkpt lat="37.060148008167744" lon="-2.484600031748414">
        <ele>523.39999999999998</ele>
        <time>2003-04-12T17:14:15Z</time>
      </trkpt>
      <trkpt lat="37.059477958828211" lon="-2.483460009098053">
        <ele>519.79999999999995</ele>
        <time>2003-04-12T17:14:19Z</time>
      </trkpt>
      <trkpt lat="37.058842023834586" lon="-2.482277993112803">
        <ele>515.89999999999998</ele>
        <time>2003-04-12T17:14:22Z</time>
      </trkpt>
      <trkpt lat="37.058177003636956" lon="-2.48113302513957">
        <ele>512.10000000000002</ele>
        <time>2003-04-12T17:14:24Z</time>
      </trkpt>
      <trkpt lat="37.057451969012618" lon="-2.480042036622763">
        <ele>508.30000000000001</ele>
        <time>2003-04-12T17:14:27Z</time>
      </trkpt>
      <trkpt lat="37.056655017659068" lon="-2.479036962613463">
        <ele>504.60000000000002</ele>
        <time>2003-04-12T17:14:31Z</time>
      </trkpt>
      <trkpt lat="37.055786987766623" lon="-2.478116964921355">
        <ele>500.89999999999998</ele>
        <time>2003-04-12T17:14:34Z</time>
      </trkpt>
      <trkpt lat="37.054867995902896" lon="-2.47728799469769">
        <ele>497.39999999999998</ele>
        <time>2003-04-12T17:14:37Z</time>
      </trkpt>
      <trkpt lat="37.053897958248854" lon="-2.476572012528777">
        <ele>493.89999999999998</ele>
        <time>2003-04-12T17:14:39Z</time>
      </trkpt>
      <trkpt lat="37.052885005250573" lon="-2.47593498788774">
        <ele>490.60000000000002</ele>
        <time>2003-04-12T17:14:42Z</time>
      </trkpt>
      <trkpt lat="37.051855036988854" lon="-2.475308021530509">
        <ele>487.10000000000002</ele>
        <time>2003-04-12T17:14:46Z</time>
      </trkpt>
      <trkpt lat="37.050817022100091" lon="-2.474672002717853">
        <ele>483.60000000000002</ele>
        <time>2003-04-12T17:14:49Z</time>
      </trkpt>
      <trkpt lat="37.049774983897805" lon="-2.474037995561957">
        <ele>480</ele>
        <time>2003-04-12T17:14:51Z</time>
      </trkpt>
      <trkpt lat="37.048751972615719" lon="-2.473414968699217">
        <ele>476.19999999999999</ele>
        <time>2003-04-12T17:14:54Z</time>
      </trkpt>
      <trkpt lat="37.047755029052496" lon="-2.47279797680676">
        <ele>472.39999999999998</ele>
        <time>2003-04-12T17:14:58Z</time>
      </trkpt>
      <trkpt lat="37.046751966699958" lon="-2.472179979085922">
        <ele>468.5</ele>
        <time>2003-04-12T17:15:01Z</time>
      </trkpt>
      <trkpt lat="37.045761980116367" lon="-2.471558041870594">
        <ele>464.69999999999999</ele>
        <time>2003-04-12T17:15:04Z</time>
      </trkpt>
      <trkpt lat="37.044811975210905" lon="-2.470977008342743">
        <ele>459.80000000000001</ele>
        <time>2003-04-12T17:15:08Z</time>
      </trkpt>
      <trkpt lat="37.043846966698766" lon="-2.47041198424995">
        <ele>457.5</ele>
        <time>2003-04-12T17:15:09Z</time>
      </trkpt>
      <trkpt lat="37.042878018692136" lon="-2.469815025106072">
        <ele>454.30000000000001</ele>
        <time>2003-04-12T17:15:13Z</time>
      </trkpt>
      <trkpt lat="37.04192197881639" lon="-2.469197027385235">
        <ele>451.39999999999998</ele>
        <time>2003-04-12T17:15:16Z</time>
      </trkpt>
      <trkpt lat="37.040986977517605" lon="-2.468517003580928">
        <ele>449</ele>
        <time>2003-04-12T17:15:18Z</time>
      </trkpt>
      <trkpt lat="37.04009204171598" lon="-2.467762967571616">
        <ele>446.80000000000001</ele>
        <time>2003-04-12T17:15:21Z</time>
      </trkpt>
      <trkpt lat="37.039229962974787" lon="-2.46695302426815">
        <ele>444.10000000000002</ele>
        <time>2003-04-12T17:15:25Z</time>
      </trkpt>
      <trkpt lat="37.038409961387515" lon="-2.466082982718945">
        <ele>440.89999999999998</ele>
        <time>2003-04-12T17:15:28Z</time>
      </trkpt>
      <trkpt lat="37.037628013640642" lon="-2.465155022218823">
        <ele>437.30000000000001</ele>
        <time>2003-04-12T17:15:31Z</time>
      </trkpt>
      <trkpt lat="37.036885041743517" lon="-2.464172998443246">
        <ele>433.19999999999999</ele>
        <time>2003-04-12T17:15:33Z</time>
      </trkpt>
      <trkpt lat="37.03618498519063" lon="-2.463130038231611">
        <ele>428.60000000000002</ele>
        <time>2003-04-12T17:15:36Z</time>
      </trkpt>
      <trkpt lat="37.035530023276806" lon="-2.462029997259378">
        <ele>423.60000000000002</ele>
        <time>2003-04-12T17:15:40Z</time>
      </trkpt>
      <trkpt lat="37.034922000020742" lon="-2.460885029286146">
        <ele>418</ele>
        <time>2003-04-12T17:15:43Z</time>
      </trkpt>
      <trkpt lat="37.034372985363007" lon="-2.459697984158993">
        <ele>412.10000000000002</ele>
        <time>2003-04-12T17:15:45Z</time>
      </trkpt>
      <trkpt lat="37.033878033980727" lon="-2.458487972617149">
        <ele>405.69999999999999</ele>
        <time>2003-04-12T17:15:48Z</time>
      </trkpt>
      <trkpt lat="37.033404959365726" lon="-2.457326995208859">
        <ele>399.10000000000002</ele>
        <time>2003-04-12T17:15:52Z</time>
      </trkpt>
      <trkpt lat="37.032931968569756" lon="-2.456204993650317">
        <ele>392.10000000000002</ele>
        <time>2003-04-12T17:15:55Z</time>
      </trkpt>
      <trkpt lat="37.032412039116025" lon="-2.455130014568567">
        <ele>385</ele>
        <time>2003-04-12T17:15:58Z</time>
      </trkpt>
      <trkpt lat="37.031827988103032" lon="-2.454131981357932">
        <ele>377.69999999999999</ele>
        <time>2003-04-12T17:16:02Z</time>
      </trkpt>
      <trkpt lat="37.031190041452646" lon="-2.453175019472837">
        <ele>369.69999999999999</ele>
        <time>2003-04-12T17:16:03Z</time>
      </trkpt>
      <trkpt lat="37.030504988506436" lon="-2.452298020943999">
        <ele>361.89999999999998</ele>
        <time>2003-04-12T17:16:07Z</time>
      </trkpt>
      <trkpt lat="37.029766961932182" lon="-2.451481958851218">
        <ele>354.30000000000001</ele>
        <time>2003-04-12T17:16:10Z</time>
      </trkpt>
      <trkpt lat="37.029019966721535" lon="-2.450696993619204">
        <ele>347</ele>
        <time>2003-04-12T17:16:12Z</time>
      </trkpt>
      <trkpt lat="37.028289986774325" lon="-2.44989300146699">
        <ele>340</ele>
        <time>2003-04-12T17:16:15Z</time>
      </trkpt>
      <trkpt lat="37.027602000162005" lon="-2.44899001903832">
        <ele>332.39999999999998</ele>
        <time>2003-04-12T17:16:19Z</time>
      </trkpt>
      <trkpt lat="37.026977967470884" lon="-2.447985028848052">
        <ele>324.89999999999998</ele>
        <time>2003-04-12T17:16:22Z</time>
      </trkpt>
      <trkpt lat="37.026423001661897" lon="-2.44695296511054">
        <ele>317.60000000000002</ele>
        <time>2003-04-12T17:16:26Z</time>
      </trkpt>
      <trkpt lat="37.025837022811174" lon="-2.445997009053826">
        <ele>310.60000000000002</ele>
        <time>2003-04-12T17:16:29Z</time>
      </trkpt>
      <trkpt lat="37.025386998429894" lon="-2.445440031588078">
        <ele>306.30000000000001</ele>
        <time>2003-04-12T17:16:30Z</time>
      </trkpt>
      <trkpt lat="37.02462499961257" lon="-2.444750033318996">
        <ele>300.60000000000002</ele>
        <time>2003-04-12T17:16:33Z</time>
      </trkpt>
      <trkpt lat="37.023783037438989" lon="-2.444237982854247">
        <ele>295.30000000000001</ele>
        <time>2003-04-12T17:16:37Z</time>
      </trkpt>
      <trkpt lat="37.022877959534526" lon="-2.443915028125048">
        <ele>290.5</ele>
        <time>2003-04-12T17:16:38Z</time>
      </trkpt>
      <trkpt lat="37.021934995427728" lon="-2.443782007321715">
        <ele>286.39999999999998</ele>
        <time>2003-04-12T17:16:42Z</time>
      </trkpt>
      <trkpt lat="37.020979961380363" lon="-2.443857025355101">
        <ele>284.60000000000002</ele>
        <time>2003-04-12T17:16:46Z</time>
      </trkpt>
      <trkpt lat="37.020379984751344" lon="-2.444042013958097">
        <ele>284.69999999999999</ele>
        <time>2003-04-12T17:16:48Z</time>
      </trkpt>
      <trkpt lat="37.019508015364408" lon="-2.444436969235539">
        <ele>284.89999999999998</ele>
        <time>2003-04-12T17:16:50Z</time>
      </trkpt>
      <trkpt lat="37.018663035705686" lon="-2.444823039695621">
        <ele>285.19999999999999</ele>
        <time>2003-04-12T17:16:53Z</time>
      </trkpt>
      <trkpt lat="37.017517983913422" lon="-2.445178013294935">
        <ele>284.19999999999999</ele>
        <time>2003-04-12T17:16:57Z</time>
      </trkpt>
      <trkpt lat="37.016336973756552" lon="-2.445340035483241">
        <ele>282.60000000000002</ele>
        <time>2003-04-12T17:17:01Z</time>
      </trkpt>
      <trkpt lat="37.015157975256443" lon="-2.445602975785732">
        <ele>279.60000000000002</ele>
        <time>2003-04-12T17:17:05Z</time>
      </trkpt>
      <trkpt lat="37.01431299559772" lon="-2.446028022095561">
        <ele>276.89999999999998</ele>
        <time>2003-04-12T17:17:09Z</time>
      </trkpt>
      <trkpt lat="37.013552002608776" lon="-2.44660503230989">
        <ele>273.80000000000001</ele>
        <time>2003-04-12T17:17:12Z</time>
      </trkpt>
      <trkpt lat="37.012892011553049" lon="-2.44731699116528">
        <ele>270.39999999999998</ele>
        <time>2003-04-12T17:17:15Z</time>
      </trkpt>
      <trkpt lat="37.012321958318353" lon="-2.44813296943903">
        <ele>266.60000000000002</ele>
        <time>2003-04-12T17:17:17Z</time>
      </trkpt>
      <trkpt lat="37.011636989191175" lon="-2.449367959052324">
        <ele>261.89999999999998</ele>
        <time>2003-04-12T17:17:21Z</time>
      </trkpt>
      <trkpt lat="37.011101972311735" lon="-2.450334979221225">
        <ele>258</ele>
        <time>2003-04-12T17:17:24Z</time>
      </trkpt>
      <trkpt lat="37.010550023987889" lon="-2.45133301243186">
        <ele>254</ele>
        <time>2003-04-12T17:17:28Z</time>
      </trkpt>
      <trkpt lat="37.009982988238335" lon="-2.452349988743663">
        <ele>249.90000000000001</ele>
        <time>2003-04-12T17:17:31Z</time>
      </trkpt>
      <trkpt lat="37.009377982467413" lon="-2.453337963670492">
        <ele>246.40000000000001</ele>
        <time>2003-04-12T17:17:33Z</time>
      </trkpt>
      <trkpt lat="37.008677003905177" lon="-2.454242035746574">
        <ele>243.40000000000001</ele>
        <time>2003-04-12T17:17:36Z</time>
      </trkpt>
      <trkpt lat="37.007897989824414" lon="-2.455052984878421">
        <ele>241</ele>
        <time>2003-04-12T17:17:40Z</time>
      </trkpt>
      <trkpt lat="37.007079999893904" lon="-2.455808026716113">
        <ele>239.19999999999999</ele>
        <time>2003-04-12T17:17:43Z</time>
      </trkpt>
      <trkpt lat="37.006267961114645" lon="-2.456582011654973">
        <ele>238.19999999999999</ele>
        <time>2003-04-12T17:17:46Z</time>
      </trkpt>
      <trkpt lat="37.005449971184134" lon="-2.457339987158775">
        <ele>237.59999999999999</ele>
        <time>2003-04-12T17:17:48Z</time>
      </trkpt>
      <trkpt lat="37.004637010395527" lon="-2.458099974319339">
        <ele>237.90000000000001</ele>
        <time>2003-04-12T17:17:51Z</time>
      </trkpt>
      <trkpt lat="37.003830000758171" lon="-2.458846969529986">
        <ele>239.19999999999999</ele>
        <time>2003-04-12T17:17:55Z</time>
      </trkpt>
      <trkpt lat="37.003034977242351" lon="-2.459588013589382">
        <ele>241.19999999999999</ele>
        <time>2003-04-12T17:17:58Z</time>
      </trkpt>
      <trkpt lat="37.002248000353575" lon="-2.460322016850114">
        <ele>243.19999999999999</ele>
        <time>2003-04-12T17:18:00Z</time>
      </trkpt>
      <trkpt lat="37.001460017636418" lon="-2.461032969877124">
        <ele>244.19999999999999</ele>
        <time>2003-04-12T17:18:03Z</time>
      </trkpt>
      <trkpt lat="37.000644961372018" lon="-2.461654990911484">
        <ele>244.5</ele>
        <time>2003-04-12T17:18:07Z</time>
      </trkpt>
      <trkpt lat="36.999769974499941" lon="-2.462139967828989">
        <ele>243.5</ele>
        <time>2003-04-12T17:18:10Z</time>
      </trkpt>
      <trkpt lat="36.998846959322691" lon="-2.462510028854013">
        <ele>242.69999999999999</ele>
        <time>2003-04-12T17:18:13Z</time>
      </trkpt>
      <trkpt lat="36.997948000207543" lon="-2.462819991633296">
        <ele>240.59999999999999</ele>
        <time>2003-04-12T17:18:15Z</time>
      </trkpt>
      <trkpt lat="36.996834967285395" lon="-2.463361965492368">
        <ele>236.59999999999999</ele>
        <time>2003-04-12T17:18:19Z</time>
      </trkpt>
      <trkpt lat="36.995783038437366" lon="-2.463937969878316">
        <ele>232.59999999999999</ele>
        <time>2003-04-12T17:18:23Z</time>
      </trkpt>
      <trkpt lat="36.994963036850095" lon="-2.464217003434897">
        <ele>228.69999999999999</ele>
        <time>2003-04-12T17:18:26Z</time>
      </trkpt>
      <trkpt lat="36.994080003350973" lon="-2.464326974004507">
        <ele>224.09999999999999</ele>
        <time>2003-04-12T17:18:30Z</time>
      </trkpt>
      <trkpt lat="36.993157994002104" lon="-2.464257990941405">
        <ele>219.30000000000001</ele>
        <time>2003-04-12T17:18:33Z</time>
      </trkpt>
      <trkpt lat="36.992215029895306" lon="-2.463994966819882">
        <ele>215</ele>
        <time>2003-04-12T17:18:36Z</time>
      </trkpt>
      <trkpt lat="36.99125999584794" lon="-2.463702019304037">
        <ele>211</ele>
        <time>2003-04-12T17:18:38Z</time>
      </trkpt>
      <trkpt lat="36.990609979256988" lon="-2.463609986007214">
        <ele>209.30000000000001</ele>
        <time>2003-04-12T17:18:41Z</time>
      </trkpt>
      <trkpt lat="36.989628039300442" lon="-2.463648039847612">
        <ele>208.09999999999999</ele>
        <time>2003-04-12T17:18:44Z</time>
      </trkpt>
      <trkpt lat="36.988677028566599" lon="-2.46375197544694">
        <ele>208.59999999999999</ele>
        <time>2003-04-12T17:18:46Z</time>
      </trkpt>
      <trkpt lat="36.987725012004375" lon="-2.463690033182502">
        <ele>209.80000000000001</ele>
        <time>2003-04-12T17:18:49Z</time>
      </trkpt>
      <trkpt lat="36.986784981563687" lon="-2.463452992960811">
        <ele>210.30000000000001</ele>
        <time>2003-04-12T17:18:53Z</time>
      </trkpt>
      <trkpt lat="36.985832965001464" lon="-2.463276972994208">
        <ele>210</ele>
        <time>2003-04-12T17:18:56Z</time>
      </trkpt>
      <trkpt lat="36.985186971724033" lon="-2.463270016014576">
        <ele>209.80000000000001</ele>
        <time>2003-04-12T17:18:57Z</time>
      </trkpt>
      <trkpt lat="36.984537960961461" lon="-2.463370012119412">
        <ele>209.40000000000001</ele>
        <time>2003-04-12T17:19:00Z</time>
      </trkpt>
      <trkpt lat="36.98358703404665" lon="-2.463690033182502">
        <ele>208.30000000000001</ele>
        <time>2003-04-12T17:19:03Z</time>
      </trkpt>
      <trkpt lat="36.982642980292439" lon="-2.46409697458148">
        <ele>207.30000000000001</ele>
        <time>2003-04-12T17:19:05Z</time>
      </trkpt>
      <trkpt lat="36.981683000922203" lon="-2.464442979544401">
        <ele>204.90000000000001</ele>
        <time>2003-04-12T17:19:08Z</time>
      </trkpt>
      <trkpt lat="36.980692008510232" lon="-2.464677002280951">
        <ele>202.19999999999999</ele>
        <time>2003-04-12T17:19:12Z</time>
      </trkpt>
      <trkpt lat="36.979672014713287" lon="-2.464789990335703">
        <ele>199.30000000000001</ele>
        <time>2003-04-12T17:19:15Z</time>
      </trkpt>
      <trkpt lat="36.97862695902586" lon="-2.464840030297637">
        <ele>195.90000000000001</ele>
        <time>2003-04-12T17:19:17Z</time>
      </trkpt>
      <trkpt lat="36.977575030177832" lon="-2.464895015582442">
        <ele>193.30000000000001</ele>
        <time>2003-04-12T17:19:20Z</time>
      </trkpt>
      <trkpt lat="36.976517988368869" lon="-2.464944971725345">
        <ele>190.59999999999999</ele>
        <time>2003-04-12T17:19:24Z</time>
      </trkpt>
      <trkpt lat="36.975462958216667" lon="-2.464995011687279">
        <ele>187.59999999999999</ele>
        <time>2003-04-12T17:19:27Z</time>
      </trkpt>
      <trkpt lat="36.974408011883497" lon="-2.465038010850549">
        <ele>185.30000000000001</ele>
        <time>2003-04-12T17:19:30Z</time>
      </trkpt>
      <trkpt lat="36.973373014479876" lon="-2.465072963386774">
        <ele>183.09999999999999</ele>
        <time>2003-04-12T17:19:32Z</time>
      </trkpt>
      <trkpt lat="36.972372969612479" lon="-2.465106993913651">
        <ele>181.19999999999999</ele>
        <time>2003-04-12T17:19:35Z</time>
      </trkpt>
      <trkpt lat="36.971388012170792" lon="-2.465155022218823">
        <ele>179.30000000000001</ele>
        <time>2003-04-12T17:19:39Z</time>
      </trkpt>
      <trkpt lat="36.970421997830272" lon="-2.465192992240191">
        <ele>177.59999999999999</ele>
        <time>2003-04-12T17:19:42Z</time>
      </trkpt>
      <trkpt lat="36.96947299875319" lon="-2.465240014716983">
        <ele>176.19999999999999</ele>
        <time>2003-04-12T17:19:44Z</time>
      </trkpt>
      <trkpt lat="36.968521988019347" lon="-2.465300029143691">
        <ele>174.90000000000001</ele>
        <time>2003-04-12T17:19:47Z</time>
      </trkpt>
      <trkpt lat="36.967557985335588" lon="-2.465436989441514">
        <ele>173.69999999999999</ele>
        <time>2003-04-12T17:19:51Z</time>
      </trkpt>
      <trkpt lat="36.966609992086887" lon="-2.465733038261533">
        <ele>172.90000000000001</ele>
        <time>2003-04-12T17:19:54Z</time>
      </trkpt>
      <trkpt lat="36.965678008273244" lon="-2.46609496884048">
        <ele>173.80000000000001</ele>
        <time>2003-04-12T17:19:57Z</time>
      </trkpt>
      <trkpt lat="36.964751975610852" lon="-2.46639696881175">
        <ele>175.59999999999999</ele>
        <time>2003-04-12T17:19:59Z</time>
      </trkpt>
      <trkpt lat="36.96380197070539" lon="-2.466538036242127">
        <ele>176.90000000000001</ele>
        <time>2003-04-12T17:20:02Z</time>
      </trkpt>
      <trkpt lat="36.962848026305437" lon="-2.466478021815419">
        <ele>178.09999999999999</ele>
        <time>2003-04-12T17:20:06Z</time>
      </trkpt>
      <trkpt lat="36.961901960894465" lon="-2.466252967715263">
        <ele>179.19999999999999</ele>
        <time>2003-04-12T17:20:09Z</time>
      </trkpt>
      <trkpt lat="36.960962014272809" lon="-2.465939987450838">
        <ele>180.59999999999999</ele>
        <time>2003-04-12T17:20:11Z</time>
      </trkpt>
      <trkpt lat="36.960004968568683" lon="-2.465732032433152">
        <ele>182.59999999999999</ele>
        <time>2003-04-12T17:20:14Z</time>
      </trkpt>
      <trkpt lat="36.959050018340349" lon="-2.465673023834825">
        <ele>185.80000000000001</ele>
        <time>2003-04-12T17:20:18Z</time>
      </trkpt>
      <trkpt lat="36.958109987899661" lon="-2.46570797637105">
        <ele>189.19999999999999</ele>
        <time>2003-04-12T17:20:21Z</time>
      </trkpt>
      <trkpt lat="36.957172974944115" lon="-2.465672018006444">
        <ele>191.90000000000001</ele>
        <time>2003-04-12T17:20:24Z</time>
      </trkpt>
      <trkpt lat="36.956236967816949" lon="-2.465482000261545">
        <ele>193.40000000000001</ele>
        <time>2003-04-12T17:20:26Z</time>
      </trkpt>
      <trkpt lat="36.95531202480197" lon="-2.465140018612146">
        <ele>194.30000000000001</ele>
        <time>2003-04-12T17:20:29Z</time>
      </trkpt>
      <trkpt lat="36.954409964382648" lon="-2.464671973139048">
        <ele>194.90000000000001</ele>
        <time>2003-04-12T17:20:33Z</time>
      </trkpt>
      <trkpt lat="36.953542018309236" lon="-2.464073002338409">
        <ele>195.30000000000001</ele>
        <time>2003-04-12T17:20:36Z</time>
      </trkpt>
      <trkpt lat="36.952717993408442" lon="-2.463346961885691">
        <ele>195.19999999999999</ele>
        <time>2003-04-12T17:20:38Z</time>
      </trkpt>
      <trkpt lat="36.9519620295614" lon="-2.46248496696353">
        <ele>194.69999999999999</ele>
        <time>2003-04-12T17:20:41Z</time>
      </trkpt>
      <trkpt lat="36.951298015192151" lon="-2.461487017571926">
        <ele>193.5</ele>
        <time>2003-04-12T17:20:45Z</time>
      </trkpt>
      <trkpt lat="36.950744977220893" lon="-2.460374990478158">
        <ele>191.59999999999999</ele>
        <time>2003-04-12T17:20:48Z</time>
      </trkpt>
      <trkpt lat="36.950227981433272" lon="-2.459242008626461">
        <ele>189.40000000000001</ele>
        <time>2003-04-12T17:20:51Z</time>
      </trkpt>
      <trkpt lat="36.94972800090909" lon="-2.458123024553061">
        <ele>185.90000000000001</ele>
        <time>2003-04-12T17:20:53Z</time>
      </trkpt>
      <trkpt lat="36.949188038706779" lon="-2.457045027986169">
        <ele>183.09999999999999</ele>
        <time>2003-04-12T17:20:56Z</time>
      </trkpt>
      <trkpt lat="36.948584960773587" lon="-2.45599502697587">
        <ele>180.5</ele>
        <time>2003-04-12T17:21:00Z</time>
      </trkpt>
      <trkpt lat="36.94792203605175" lon="-2.454988025128841">
        <ele>177.90000000000001</ele>
        <time>2003-04-12T17:21:03Z</time>
      </trkpt>
      <trkpt lat="36.947197001427412" lon="-2.454027961939573">
        <ele>175.30000000000001</ele>
        <time>2003-04-12T17:21:05Z</time>
      </trkpt>
      <trkpt lat="36.946422010660172" lon="-2.453121962025762">
        <ele>172.69999999999999</ele>
        <time>2003-04-12T17:21:08Z</time>
      </trkpt>
      <trkpt lat="36.945590022951365" lon="-2.452282011508942">
        <ele>169.09999999999999</ele>
        <time>2003-04-12T17:21:12Z</time>
      </trkpt>
      <trkpt lat="36.944712018594146" lon="-2.451507020741701">
        <ele>167.19999999999999</ele>
        <time>2003-04-12T17:21:15Z</time>
      </trkpt>
      <trkpt lat="36.943792020902038" lon="-2.450797995552421">
        <ele>164.40000000000001</ele>
        <time>2003-04-12T17:21:18Z</time>
      </trkpt>
      <trkpt lat="36.942832041531801" lon="-2.450170023366809">
        <ele>162.09999999999999</ele>
        <time>2003-04-12T17:21:20Z</time>
      </trkpt>
      <trkpt lat="36.941829985007644" lon="-2.449625032022595">
        <ele>159.19999999999999</ele>
        <time>2003-04-12T17:21:23Z</time>
      </trkpt>
      <trkpt lat="36.940803034231067" lon="-2.44916302151978">
        <ele>156.19999999999999</ele>
        <time>2003-04-12T17:21:27Z</time>
      </trkpt>
      <trkpt lat="36.939754961058497" lon="-2.448781980201602">
        <ele>153.5</ele>
        <time>2003-04-12T17:21:30Z</time>
      </trkpt>
      <trkpt lat="36.938696997240186" lon="-2.448500012978911">
        <ele>150.80000000000001</ele>
        <time>2003-04-12T17:21:32Z</time>
      </trkpt>
      <trkpt lat="36.937653031200171" lon="-2.448236988857389">
        <ele>148.40000000000001</ele>
        <time>2003-04-12T17:21:35Z</time>
      </trkpt>
      <trkpt lat="36.936621973291039" lon="-2.447959966957569">
        <ele>146.19999999999999</ele>
        <time>2003-04-12T17:21:39Z</time>
      </trkpt>
      <trkpt lat="36.935604996979237" lon="-2.447592001408339">
        <ele>144.40000000000001</ele>
        <time>2003-04-12T17:21:42Z</time>
      </trkpt>
      <trkpt lat="36.934615010395646" lon="-2.447123033925891">
        <ele>143.19999999999999</ele>
        <time>2003-04-12T17:21:45Z</time>
      </trkpt>
      <trkpt lat="36.933642039075494" lon="-2.446569995954633">
        <ele>142.69999999999999</ele>
        <time>2003-04-12T17:21:47Z</time>
      </trkpt>
      <trkpt lat="36.932697985321283" lon="-2.445916961878538">
        <ele>142.90000000000001</ele>
        <time>2003-04-12T17:21:50Z</time>
      </trkpt>
      <trkpt lat="36.931782010942698" lon="-2.445199973881245">
        <ele>143.19999999999999</ele>
        <time>2003-04-12T17:21:54Z</time>
      </trkpt>
      <trkpt lat="36.930914986878633" lon="-2.444381983950734">
        <ele>143.69999999999999</ele>
        <time>2003-04-12T17:21:57Z</time>
      </trkpt>
      <trkpt lat="36.930118035525084" lon="-2.443487970158458">
        <ele>144.5</ele>
        <time>2003-04-12T17:21:59Z</time>
      </trkpt>
      <trkpt lat="36.929383026435971" lon="-2.442530002444983">
        <ele>145</ele>
        <time>2003-04-12T17:22:02Z</time>
      </trkpt>
      <trkpt lat="36.928708031773567" lon="-2.441507996991277">
        <ele>145.59999999999999</ele>
        <time>2003-04-12T17:22:06Z</time>
      </trkpt>
      <trkpt lat="36.928105037659407" lon="-2.440430000424385">
        <ele>146.30000000000001</ele>
        <time>2003-04-12T17:22:09Z</time>
      </trkpt>
      <trkpt lat="36.927547976374626" lon="-2.439329959452152">
        <ele>147</ele>
        <time>2003-04-12T17:22:12Z</time>
      </trkpt>
      <trkpt lat="36.926997033879161" lon="-2.438269983977079">
        <ele>147.59999999999999</ele>
        <time>2003-04-12T17:22:14Z</time>
      </trkpt>
      <trkpt lat="36.926403008401394" lon="-2.4372380040586">
        <ele>147.69999999999999</ele>
        <time>2003-04-12T17:22:17Z</time>
      </trkpt>
      <trkpt lat="36.925694989040494" lon="-2.43633502162993">
        <ele>148.5</ele>
        <time>2003-04-12T17:22:21Z</time>
      </trkpt>
      <trkpt lat="36.924883034080267" lon="-2.435555001720786">
        <ele>148.80000000000001</ele>
        <time>2003-04-12T17:22:24Z</time>
      </trkpt>
      <trkpt lat="36.924035036936402" lon="-2.434852011501789">
        <ele>149.40000000000001</ele>
        <time>2003-04-12T17:22:26Z</time>
      </trkpt>
      <trkpt lat="36.923187039792538" lon="-2.434166958555579">
        <ele>150.40000000000001</ele>
        <time>2003-04-12T17:22:29Z</time>
      </trkpt>
      <trkpt lat="36.922369971871376" lon="-2.433442007750273">
        <ele>151.30000000000001</ele>
        <time>2003-04-12T17:22:33Z</time>
      </trkpt>
      <trkpt lat="36.921652983874083" lon="-2.432595016434789">
        <ele>151.59999999999999</ele>
        <time>2003-04-12T17:22:36Z</time>
      </trkpt>
      <trkpt lat="36.921012019738555" lon="-2.431656997650862">
        <ele>151.59999999999999</ele>
        <time>2003-04-12T17:22:39Z</time>
      </trkpt>
      <trkpt lat="36.920472979545593" lon="-2.430617976933718">
        <ele>151.69999999999999</ele>
        <time>2003-04-12T17:22:41Z</time>
      </trkpt>
      <trkpt lat="36.920023038983345" lon="-2.429512990638614">
        <ele>151.90000000000001</ele>
        <time>2003-04-12T17:22:44Z</time>
      </trkpt>
      <trkpt lat="36.919696982949972" lon="-2.428334997966886">
        <ele>151.90000000000001</ele>
        <time>2003-04-12T17:22:48Z</time>
      </trkpt>
      <trkpt lat="36.9194779638201" lon="-2.427117023617029">
        <ele>151.69999999999999</ele>
        <time>2003-04-12T17:22:51Z</time>
      </trkpt>
      <trkpt lat="36.919313007965684" lon="-2.42591698653996">
        <ele>150.40000000000001</ele>
        <time>2003-04-12T17:22:53Z</time>
      </trkpt>
      <trkpt lat="36.919077979400754" lon="-2.424804959446192">
        <ele>148.69999999999999</ele>
        <time>2003-04-12T17:22:56Z</time>
      </trkpt>
      <trkpt lat="36.918714959174395" lon="-2.423761999234557">
        <ele>148.19999999999999</ele>
        <time>2003-04-12T17:23:00Z</time>
      </trkpt>
      <trkpt lat="36.918217996135354" lon="-2.422770000994206">
        <ele>147.19999999999999</ele>
        <time>2003-04-12T17:23:03Z</time>
      </trkpt>
      <trkpt lat="36.917584994807839" lon="-2.421870036050677">
        <ele>145.69999999999999</ele>
        <time>2003-04-12T17:23:06Z</time>
      </trkpt>
      <trkpt lat="36.916843028739095" lon="-2.421088004484773">
        <ele>144.40000000000001</ele>
        <time>2003-04-12T17:23:08Z</time>
      </trkpt>
      <trkpt lat="36.916001988574862" lon="-2.420457014814019">
        <ele>142.90000000000001</ele>
        <time>2003-04-12T17:23:11Z</time>
      </trkpt>
      <trkpt lat="36.915082996711135" lon="-2.419983018189669">
        <ele>141.19999999999999</ele>
        <time>2003-04-12T17:23:15Z</time>
      </trkpt>
      <trkpt lat="36.914437003433704" lon="-2.419776991009712">
        <ele>140.30000000000001</ele>
        <time>2003-04-12T17:23:16Z</time>
      </trkpt>
      <trkpt lat="36.913445005193353" lon="-2.419638019055128">
        <ele>138.59999999999999</ele>
        <time>2003-04-12T17:23:19Z</time>
      </trkpt>
      <trkpt lat="36.912442026659846" lon="-2.419652016833425">
        <ele>136.69999999999999</ele>
        <time>2003-04-12T17:23:23Z</time>
      </trkpt>
      <trkpt lat="36.911774994805455" lon="-2.419797023758292">
        <ele>135.30000000000001</ele>
        <time>2003-04-12T17:23:24Z</time>
      </trkpt>
      <trkpt lat="36.910798000171781" lon="-2.42011796683073">
        <ele>133.69999999999999</ele>
        <time>2003-04-12T17:23:27Z</time>
      </trkpt>
      <trkpt lat="36.909798039123416" lon="-2.420319970697165">
        <ele>131.90000000000001</ele>
        <time>2003-04-12T17:23:31Z</time>
      </trkpt>
      <trkpt lat="36.908772010356188" lon="-2.420343020930886">
        <ele>129.40000000000001</ele>
        <time>2003-04-12T17:23:34Z</time>
      </trkpt>
      <trkpt lat="36.907738018780947" lon="-2.420151997357607">
        <ele>127.09999999999999</ele>
        <time>2003-04-12T17:23:37Z</time>
      </trkpt>
      <trkpt lat="36.90673696808517" lon="-2.419744972139597">
        <ele>125.40000000000001</ele>
        <time>2003-04-12T17:23:39Z</time>
      </trkpt>
      <trkpt lat="36.905744969844818" lon="-2.419293019920588">
        <ele>123.90000000000001</ele>
        <time>2003-04-12T17:23:42Z</time>
      </trkpt>
      <trkpt lat="36.904711984097958" lon="-2.419017003849149">
        <ele>123.09999999999999</ele>
        <time>2003-04-12T17:23:46Z</time>
      </trkpt>
      <trkpt lat="36.903657959774137" lon="-2.418977022171021">
        <ele>123.09999999999999</ele>
        <time>2003-04-12T17:23:49Z</time>
      </trkpt>
      <trkpt lat="36.902620028704405" lon="-2.419082969427109">
        <ele>124.59999999999999</ele>
        <time>2003-04-12T17:23:51Z</time>
      </trkpt>
      <trkpt lat="36.901598023250699" lon="-2.41910501383245">
        <ele>126.8</ele>
        <time>2003-04-12T17:23:54Z</time>
      </trkpt>
      <trkpt lat="36.900603007525206" lon="-2.418939974159002">
        <ele>128.59999999999999</ele>
        <time>2003-04-12T17:23:58Z</time>
      </trkpt>
      <trkpt lat="36.899662977084517" lon="-2.418581983074546">
        <ele>129.90000000000001</ele>
        <time>2003-04-12T17:24:01Z</time>
      </trkpt>
      <trkpt lat="36.898799976333976" lon="-2.418059958145022">
        <ele>130.90000000000001</ele>
        <time>2003-04-12T17:24:04Z</time>
      </trkpt>
      <trkpt lat="36.89799296669662" lon="-2.417441960424185">
        <ele>130.5</ele>
        <time>2003-04-12T17:24:06Z</time>
      </trkpt>
      <trkpt lat="36.897180005908012" lon="-2.416842989623547">
        <ele>129.59999999999999</ele>
        <time>2003-04-12T17:24:09Z</time>
      </trkpt>
      <trkpt lat="36.896320022642612" lon="-2.41633496247232">
        <ele>128.30000000000001</ele>
        <time>2003-04-12T17:24:13Z</time>
      </trkpt>
      <trkpt lat="36.895406981930137" lon="-2.415936989709735">
        <ele>127.5</ele>
        <time>2003-04-12T17:24:16Z</time>
      </trkpt>
      <trkpt lat="36.894452031701803" lon="-2.415637001395226">
        <ele>125.7</ele>
        <time>2003-04-12T17:24:18Z</time>
      </trkpt>
      <trkpt lat="36.893492974340916" lon="-2.415477996692061">
        <ele>123.5</ele>
        <time>2003-04-12T17:24:21Z</time>
      </trkpt>
      <trkpt lat="36.892586974427104" lon="-2.415422005578876">
        <ele>121.40000000000001</ele>
        <time>2003-04-12T17:24:25Z</time>
      </trkpt>
      <trkpt lat="36.891509983688593" lon="-2.415501968935132">
        <ele>118.90000000000001</ele>
        <time>2003-04-12T17:24:28Z</time>
      </trkpt>
      <trkpt lat="36.890844963490963" lon="-2.415638007223606">
        <ele>117.2</ele>
        <time>2003-04-12T17:24:32Z</time>
      </trkpt>
      <trkpt lat="36.890489989891648" lon="-2.415755018591881">
        <ele>116.3</ele>
        <time>2003-04-12T17:24:33Z</time>
      </trkpt>
      <trkpt lat="36.890332996845245" lon="-2.415837999433279">
        <ele>115.8</ele>
        <time>2003-04-12T17:24:35Z</time>
      </trkpt>
      <trkpt lat="36.890071984380484" lon="-2.416046960279346">
        <ele>114.8</ele>
        <time>2003-04-12T17:24:36Z</time>
      </trkpt>
      <trkpt lat="36.889854976907372" lon="-2.416315013542771">
        <ele>114.40000000000001</ele>
        <time>2003-04-12T17:24:39Z</time>
      </trkpt>
      <trkpt lat="36.889775013551116" lon="-2.416473012417555">
        <ele>114.40000000000001</ele>
        <time>2003-04-12T17:24:40Z</time>
      </trkpt>
      <trkpt lat="36.889712987467647" lon="-2.416645009070635">
        <ele>114.40000000000001</ele>
        <time>2003-04-12T17:24:40Z</time>
      </trkpt>
      <trkpt lat="36.889635035768151" lon="-2.416997971013188">
        <ele>115.09999999999999</ele>
        <time>2003-04-12T17:24:43Z</time>
      </trkpt>
      <trkpt lat="36.889635035768151" lon="-2.417178014293313">
        <ele>115.3</ele>
        <time>2003-04-12T17:24:44Z</time>
      </trkpt>
      <trkpt lat="36.889677029103041" lon="-2.417525025084615">
        <ele>115.7</ele>
        <time>2003-04-12T17:24:45Z</time>
      </trkpt>
      <trkpt lat="36.889754980802536" lon="-2.417812021449208">
        <ele>116.3</ele>
        <time>2003-04-12T17:24:48Z</time>
      </trkpt>
      <trkpt lat="36.889852965250611" lon="-2.41803296841681">
        <ele>116.5</ele>
        <time>2003-04-12T17:24:50Z</time>
      </trkpt>
      <trkpt lat="36.889920020475984" lon="-2.418131958693266">
        <ele>116.3</ele>
        <time>2003-04-12T17:24:51Z</time>
      </trkpt>
      <trkpt lat="36.890178015455604" lon="-2.418485004454851">
        <ele>115.7</ele>
        <time>2003-04-12T17:24:54Z</time>
      </trkpt>
      <trkpt lat="36.890595015138388" lon="-2.419072994962335">
        <ele>114.3</ele>
        <time>2003-04-12T17:24:58Z</time>
      </trkpt>
      <trkpt lat="36.891070017591119" lon="-2.419801969081163">
        <ele>112.90000000000001</ele>
        <time>2003-04-12T17:25:02Z</time>
      </trkpt>
      <trkpt lat="36.8917600158602" lon="-2.420849958434701">
        <ele>111.40000000000001</ele>
        <time>2003-04-12T17:25:07Z</time>
      </trkpt>
      <trkpt lat="36.892435010522604" lon="-2.421908006072044">
        <ele>109.59999999999999</ele>
        <time>2003-04-12T17:25:11Z</time>
      </trkpt>
      <trkpt lat="36.892783027142286" lon="-2.422660030424595">
        <ele>108.40000000000001</ele>
        <time>2003-04-12T17:25:15Z</time>
      </trkpt>
      <trkpt lat="36.893061976879835" lon="-2.423481959849596">
        <ele>107.3</ele>
        <time>2003-04-12T17:25:18Z</time>
      </trkpt>
      <trkpt lat="36.89330798573792" lon="-2.424661964178085">
        <ele>103.40000000000001</ele>
        <time>2003-04-12T17:25:22Z</time>
      </trkpt>
      <trkpt lat="36.893373029306531" lon="-2.425883039832115">
        <ele>98.799999999999997</ele>
        <time>2003-04-12T17:25:26Z</time>
      </trkpt>
      <trkpt lat="36.893334975466132" lon="-2.426483016461134">
        <ele>96.299999999999997</ele>
        <time>2003-04-12T17:25:27Z</time>
      </trkpt>
      <trkpt lat="36.893142024055123" lon="-2.427652040496469">
        <ele>91</ele>
        <time>2003-04-12T17:25:31Z</time>
      </trkpt>
      <trkpt lat="36.892889980226755" lon="-2.428508000448346">
        <ele>87.900000000000006</ele>
        <time>2003-04-12T17:25:34Z</time>
      </trkpt>
      <trkpt lat="36.89242503605783" lon="-2.429618015885353">
        <ele>84.5</ele>
        <time>2003-04-12T17:25:38Z</time>
      </trkpt>
      <trkpt lat="36.891984986141324" lon="-2.430713027715683">
        <ele>82.200000000000003</ele>
        <time>2003-04-12T17:25:42Z</time>
      </trkpt>
      <trkpt lat="36.891648033633828" lon="-2.431845003738999">
        <ele>81.599999999999994</ele>
        <time>2003-04-12T17:25:46Z</time>
      </trkpt>
      <trkpt lat="36.891492968425155" lon="-2.432714961469173">
        <ele>81.900000000000006</ele>
        <time>2003-04-12T17:25:49Z</time>
      </trkpt>
      <trkpt lat="36.891372017562389" lon="-2.43390703573823">
        <ele>82.400000000000006</ele>
        <time>2003-04-12T17:25:53Z</time>
      </trkpt>
      <trkpt lat="36.891385009512305" lon="-2.43513498455286">
        <ele>82.900000000000006</ele>
        <time>2003-04-12T17:25:57Z</time>
      </trkpt>
      <trkpt lat="36.891507972031832" lon="-2.436359999701381">
        <ele>85.200000000000003</ele>
        <time>2003-04-12T17:26:01Z</time>
      </trkpt>
      <trkpt lat="36.89169698394835" lon="-2.437257030978799">
        <ele>89.200000000000003</ele>
        <time>2003-04-12T17:26:05Z</time>
      </trkpt>
      <trkpt lat="36.89206201583147" lon="-2.438418008387089">
        <ele>94.5</ele>
        <time>2003-04-12T17:26:09Z</time>
      </trkpt>
      <trkpt lat="36.892522014677525" lon="-2.439542021602392">
        <ele>99.799999999999997</ele>
        <time>2003-04-12T17:26:13Z</time>
      </trkpt>
      <trkpt lat="36.892934991046786" lon="-2.440687995404005">
        <ele>105.09999999999999</ele>
        <time>2003-04-12T17:26:17Z</time>
      </trkpt>
      <trkpt lat="36.893146969377995" lon="-2.44160195812583">
        <ele>108.5</ele>
        <time>2003-04-12T17:26:20Z</time>
      </trkpt>
      <trkpt lat="36.893257023766637" lon="-2.442542994394898">
        <ele>112.2</ele>
        <time>2003-04-12T17:26:23Z</time>
      </trkpt>
      <trkpt lat="36.893240008503199" lon="-2.443800028413534">
        <ele>117.09999999999999</ele>
        <time>2003-04-12T17:26:27Z</time>
      </trkpt>
      <trkpt lat="36.893101958557963" lon="-2.444720026105642">
        <ele>120.90000000000001</ele>
        <time>2003-04-12T17:26:29Z</time>
      </trkpt>
      <trkpt lat="36.89277296885848" lon="-2.445874968543649">
        <ele>125.5</ele>
        <time>2003-04-12T17:26:33Z</time>
      </trkpt>
      <trkpt lat="36.892295032739639" lon="-2.446962017565966">
        <ele>130.30000000000001</ele>
        <time>2003-04-12T17:26:38Z</time>
      </trkpt>
      <trkpt lat="36.89178298227489" lon="-2.448064992204309">
        <ele>135.09999999999999</ele>
        <time>2003-04-12T17:26:42Z</time>
      </trkpt>
      <trkpt lat="36.891482993960381" lon="-2.448966968804598">
        <ele>138.80000000000001</ele>
        <time>2003-04-12T17:26:44Z</time>
      </trkpt>
      <trkpt lat="36.891215024515986" lon="-2.45023699477315">
        <ele>144.40000000000001</ele>
        <time>2003-04-12T17:26:48Z</time>
      </trkpt>
      <trkpt lat="36.890913024544716" lon="-2.451499979943037">
        <ele>150</ele>
        <time>2003-04-12T17:26:52Z</time>
      </trkpt>
      <trkpt lat="36.890559978783131" lon="-2.452389970421791">
        <ele>153.69999999999999</ele>
        <time>2003-04-12T17:26:55Z</time>
      </trkpt>
      <trkpt lat="36.889935024082661" lon="-2.453481964766979">
        <ele>158.90000000000001</ele>
        <time>2003-04-12T17:26:59Z</time>
      </trkpt>
      <trkpt lat="36.889345021918416" lon="-2.454187972471118">
        <ele>163.40000000000001</ele>
        <time>2003-04-12T17:27:03Z</time>
      </trkpt>
      <trkpt lat="36.888674972578883" lon="-2.454783003777266">
        <ele>167.30000000000001</ele>
        <time>2003-04-12T17:27:06Z</time>
      </trkpt>
      <trkpt lat="36.888195024803281" lon="-2.455096989870071">
        <ele>169.90000000000001</ele>
        <time>2003-04-12T17:27:07Z</time>
      </trkpt>
      <trkpt lat="36.887166984379292" lon="-2.455562017858028">
        <ele>174.80000000000001</ele>
        <time>2003-04-12T17:27:11Z</time>
      </trkpt>
      <trkpt lat="36.886116983368993" lon="-2.455978011712432">
        <ele>180.09999999999999</ele>
        <time>2003-04-12T17:27:15Z</time>
      </trkpt>
      <trkpt lat="36.885064970701933" lon="-2.456412026658654">
        <ele>185.30000000000001</ele>
        <time>2003-04-12T17:27:19Z</time>
      </trkpt>
      <trkpt lat="36.884008012712002" lon="-2.456851992756128">
        <ele>190.69999999999999</ele>
        <time>2003-04-12T17:27:25Z</time>
      </trkpt>
      <trkpt lat="36.88295197673142" lon="-2.45728500187397">
        <ele>193.80000000000001</ele>
        <time>2003-04-12T17:27:27Z</time>
      </trkpt>
      <trkpt lat="36.881908010691404" lon="-2.457703007385135">
        <ele>196.19999999999999</ele>
        <time>2003-04-12T17:27:32Z</time>
      </trkpt>
      <trkpt lat="36.88088801689446" lon="-2.458105003461242">
        <ele>200.90000000000001</ele>
        <time>2003-04-12T17:27:37Z</time>
      </trkpt>
      <trkpt lat="36.879899958148599" lon="-2.458501970395446">
        <ele>203.59999999999999</ele>
        <time>2003-04-12T17:27:41Z</time>
      </trkpt>
      <trkpt lat="36.878922041505575" lon="-2.458889968693256">
        <ele>204.59999999999999</ele>
        <time>2003-04-12T17:27:44Z</time>
      </trkpt>
      <trkpt lat="36.877912022173405" lon="-2.459292970597744">
        <ele>203.90000000000001</ele>
        <time>2003-04-12T17:27:49Z</time>
      </trkpt>
      <trkpt lat="36.876893034204841" lon="-2.459702007472515">
        <ele>201</ele>
        <time>2003-04-12T17:27:52Z</time>
      </trkpt>
      <trkpt lat="36.875887960195541" lon="-2.460095034912229">
        <ele>197</ele>
        <time>2003-04-12T17:27:57Z</time>
      </trkpt>
      <trkpt lat="36.874932004138827" lon="-2.460480015724897">
        <ele>193.30000000000001</ele>
        <time>2003-04-12T17:28:01Z</time>
      </trkpt>
      <trkpt lat="36.874085012823343" lon="-2.460844963788986">
        <ele>189.69999999999999</ele>
        <time>2003-04-12T17:28:04Z</time>
      </trkpt>
      <trkpt lat="36.873542033135891" lon="-2.461072029545903">
        <ele>187.19999999999999</ele>
        <time>2003-04-12T17:28:08Z</time>
      </trkpt>
      <trkpt lat="36.873083040118217" lon="-2.461266992613673">
        <ele>185</ele>
        <time>2003-04-12T17:28:11Z</time>
      </trkpt>
      <trkpt lat="36.8728750012815" lon="-2.46140998788178">
        <ele>184</ele>
        <time>2003-04-12T17:28:12Z</time>
      </trkpt>
      <trkpt lat="36.872786991298199" lon="-2.461492968723178">
        <ele>183.80000000000001</ele>
        <time>2003-04-12T17:28:13Z</time>
      </trkpt>
      <trkpt lat="36.872722031548619" lon="-2.46160302311182">
        <ele>183.59999999999999</ele>
        <time>2003-04-12T17:28:15Z</time>
      </trkpt>
      <trkpt lat="36.872652964666486" lon="-2.461851965636015">
        <ele>183.59999999999999</ele>
        <time>2003-04-12T17:28:16Z</time>
      </trkpt>
      <trkpt lat="36.872667968273163" lon="-2.461980041116476">
        <ele>183.90000000000001</ele>
        <time>2003-04-12T17:28:17Z</time>
      </trkpt>
      <trkpt lat="36.872709961608052" lon="-2.462112978100777">
        <ele>184</ele>
        <time>2003-04-12T17:28:19Z</time>
      </trkpt>
      <trkpt lat="36.872778022661805" lon="-2.462239963933826">
        <ele>184</ele>
        <time>2003-04-12T17:28:20Z</time>
      </trkpt>
      <trkpt lat="36.872931998223066" lon="-2.46244003996253">
        <ele>184.59999999999999</ele>
        <time>2003-04-12T17:28:21Z</time>
      </trkpt>
      <trkpt lat="36.87302797101438" lon="-2.462510028854013">
        <ele>184.80000000000001</ele>
        <time>2003-04-12T17:28:23Z</time>
      </trkpt>
      <trkpt lat="36.873135007917881" lon="-2.462555039674044">
        <ele>184.90000000000001</ele>
        <time>2003-04-12T17:28:24Z</time>
      </trkpt>
      <trkpt lat="36.873361989855766" lon="-2.462580017745495">
        <ele>185.09999999999999</ele>
        <time>2003-04-12T17:28:26Z</time>
      </trkpt>
      <trkpt lat="36.873613027855754" lon="-2.46246200054884">
        <ele>185.30000000000001</ele>
        <time>2003-04-12T17:28:28Z</time>
      </trkpt>
      <trkpt lat="36.873722998425364" lon="-2.462352029979229">
        <ele>186.09999999999999</ele>
        <time>2003-04-12T17:28:28Z</time>
      </trkpt>
      <trkpt lat="36.873837998136878" lon="-2.46226703748107">
        <ele>186.30000000000001</ele>
        <time>2003-04-12T17:28:30Z</time>
      </trkpt>
      <trkpt lat="36.874030027538538" lon="-2.462018011137843">
        <ele>186.59999999999999</ele>
        <time>2003-04-12T17:28:31Z</time>
      </trkpt>
      <trkpt lat="36.874217027798295" lon="-2.461715005338192">
        <ele>187.40000000000001</ele>
        <time>2003-04-12T17:28:34Z</time>
      </trkpt>
      <trkpt lat="36.87412197701633" lon="-2.461477965116501">
        <ele>188.40000000000001</ele>
        <time>2003-04-12T17:28:35Z</time>
      </trkpt>
      <trkpt lat="36.874098004773259" lon="-2.461288031190634">
        <ele>188.90000000000001</ele>
        <time>2003-04-12T17:28:35Z</time>
      </trkpt>
      <trkpt lat="36.873934976756573" lon="-2.46005698107183">
        <ele>187.69999999999999</ele>
        <time>2003-04-12T17:28:42Z</time>
      </trkpt>
      <trkpt lat="36.873770020902157" lon="-2.45921703055501">
        <ele>183.5</ele>
        <time>2003-04-12T17:28:46Z</time>
      </trkpt>
      <trkpt lat="36.873462991788983" lon="-2.458307007327676">
        <ele>179.30000000000001</ele>
        <time>2003-04-12T17:28:50Z</time>
      </trkpt>
      <trkpt lat="36.873114975169301" lon="-2.457657996565104">
        <ele>175.09999999999999</ele>
        <time>2003-04-12T17:28:53Z</time>
      </trkpt>
      <trkpt lat="36.872681966051459" lon="-2.457047961652279">
        <ele>170.40000000000001</ele>
        <time>2003-04-12T17:28:55Z</time>
      </trkpt>
      <trkpt lat="36.871981993317604" lon="-2.456250004470348">
        <ele>163.80000000000001</ele>
        <time>2003-04-12T17:28:59Z</time>
      </trkpt>
      <trkpt lat="36.871267016977072" lon="-2.455422962084413">
        <ele>156.5</ele>
        <time>2003-04-12T17:29:03Z</time>
      </trkpt>
      <trkpt lat="36.870560003444552" lon="-2.454615030437708">
        <ele>149.30000000000001</ele>
        <time>2003-04-12T17:29:07Z</time>
      </trkpt>
      <trkpt lat="36.869847038760781" lon="-2.453802991658449">
        <ele>142.59999999999999</ele>
        <time>2003-04-12T17:29:11Z</time>
      </trkpt>
      <trkpt lat="36.869131978601217" lon="-2.452991958707571">
        <ele>136.69999999999999</ele>
        <time>2003-04-12T17:29:15Z</time>
      </trkpt>
      <trkpt lat="36.868439968675375" lon="-2.452206993475556">
        <ele>131.59999999999999</ele>
        <time>2003-04-12T17:29:20Z</time>
      </trkpt>
      <trkpt lat="36.867618039250374" lon="-2.451266963034868">
        <ele>125.8</ele>
        <time>2003-04-12T17:29:25Z</time>
      </trkpt>
      <trkpt lat="36.866823015734553" lon="-2.450376972556114">
        <ele>120.09999999999999</ele>
        <time>2003-04-12T17:29:29Z</time>
      </trkpt>
      <trkpt lat="36.866147015243769" lon="-2.449795017018914">
        <ele>115.59999999999999</ele>
        <time>2003-04-12T17:29:33Z</time>
      </trkpt>
      <trkpt lat="36.865524994209409" lon="-2.44939997792244">
        <ele>111.8</ele>
        <time>2003-04-12T17:29:37Z</time>
      </trkpt>
      <trkpt lat="36.865277979522943" lon="-2.449229992926121">
        <ele>110.40000000000001</ele>
        <time>2003-04-12T17:29:40Z</time>
      </trkpt>
      <trkpt lat="36.865077987313271" lon="-2.449071994051337">
        <ele>108.90000000000001</ele>
        <time>2003-04-12T17:29:41Z</time>
      </trkpt>
      <trkpt lat="36.864929962903261" lon="-2.448932016268373">
        <ele>108</ele>
        <time>2003-04-12T17:29:44Z</time>
      </trkpt>
      <trkpt lat="36.864837007597089" lon="-2.448839982971549">
        <ele>107.8</ele>
        <time>2003-04-12T17:29:45Z</time>
      </trkpt>
      <trkpt lat="36.864742962643504" lon="-2.448805030435324">
        <ele>109.40000000000001</ele>
        <time>2003-04-12T17:29:57Z</time>
      </trkpt>
      <trkpt lat="36.864635003730655" lon="-2.448807964101434">
        <ele>109.5</ele>
        <time>2003-04-12T17:30:00Z</time>
      </trkpt>
      <trkpt lat="36.864527966827154" lon="-2.448794972151518">
        <ele>109.5</ele>
        <time>2003-04-12T17:30:01Z</time>
      </trkpt>
      <trkpt lat="36.864423025399446" lon="-2.448735041543841">
        <ele>109.5</ele>
        <time>2003-04-12T17:30:04Z</time>
      </trkpt>
      <trkpt lat="36.864353036507964" lon="-2.448634961619973">
        <ele>109.5</ele>
        <time>2003-04-12T17:30:05Z</time>
      </trkpt>
      <trkpt lat="36.864325040951371" lon="-2.448481991887093">
        <ele>109.5</ele>
        <time>2003-04-12T17:30:08Z</time>
      </trkpt>
      <trkpt lat="36.864356976002455" lon="-2.448340002447367">
        <ele>109.40000000000001</ele>
        <time>2003-04-12T17:30:09Z</time>
      </trkpt>
      <trkpt lat="36.864446997642517" lon="-2.448191978037357">
        <ele>109.59999999999999</ele>
        <time>2003-04-12T17:30:12Z</time>
      </trkpt>
      <trkpt lat="36.864607008174062" lon="-2.448131963610649">
        <ele>109.7</ele>
        <time>2003-04-12T17:30:14Z</time>
      </trkpt>
      <trkpt lat="36.864752015098929" lon="-2.44817697443068">
        <ele>109.7</ele>
        <time>2003-04-12T17:30:16Z</time>
      </trkpt>
      <trkpt lat="36.864853017032146" lon="-2.448315024375916">
        <ele>109.5</ele>
        <time>2003-04-12T17:30:18Z</time>
      </trkpt>
      <trkpt lat="36.864887969568372" lon="-2.448502024635673">
        <ele>109.3</ele>
        <time>2003-04-12T17:30:19Z</time>
      </trkpt>
      <trkpt lat="36.864837007597089" lon="-2.448666980490089">
        <ele>109.8</ele>
        <time>2003-04-12T17:30:22Z</time>
      </trkpt>
      <trkpt lat="36.864712033420801" lon="-2.448787009343505">
        <ele>109.7</ele>
        <time>2003-04-12T17:30:23Z</time>
      </trkpt>
      <trkpt lat="36.864546993747354" lon="-2.448805030435324">
        <ele>109.7</ele>
        <time>2003-04-12T17:30:26Z</time>
      </trkpt>
      <trkpt lat="36.864401986822486" lon="-2.448702016845346">
        <ele>109.5</ele>
        <time>2003-04-12T17:30:27Z</time>
      </trkpt>
      <trkpt lat="36.864238036796451" lon="-2.448577964678407">
        <ele>109.40000000000001</ele>
        <time>2003-04-12T17:30:31Z</time>
      </trkpt>
      <trkpt lat="36.864093029871583" lon="-2.448607971891761">
        <ele>109.3</ele>
        <time>2003-04-12T17:30:32Z</time>
      </trkpt>
      <trkpt lat="36.863911980763078" lon="-2.448666980490089">
        <ele>109.3</ele>
        <time>2003-04-12T17:30:35Z</time>
      </trkpt>
      <trkpt lat="36.863585002720356" lon="-2.448730012401938">
        <ele>109.09999999999999</ele>
        <time>2003-04-12T17:30:38Z</time>
      </trkpt>
      <trkpt lat="36.86258303001523" lon="-2.448869990184903">
        <ele>106.5</ele>
        <time>2003-04-12T17:30:46Z</time>
      </trkpt>
      <trkpt lat="36.861781971529126" lon="-2.448854986578226">
        <ele>102.7</ele>
        <time>2003-04-12T17:30:54Z</time>
      </trkpt>
      <trkpt lat="36.861666971817613" lon="-2.448820034042001">
        <ele>102.2</ele>
        <time>2003-04-12T17:30:54Z</time>
      </trkpt>
      <trkpt lat="36.861549960449338" lon="-2.448757002130151">
        <ele>101.7</ele>
        <time>2003-04-12T17:30:55Z</time>
      </trkpt>
      <trkpt lat="36.861313004046679" lon="-2.448551980778575">
        <ele>100.2</ele>
        <time>2003-04-12T17:30:58Z</time>
      </trkpt>
      <trkpt lat="36.860561985522509" lon="-2.447725022211671">
        <ele>95.5</ele>
        <time>2003-04-12T17:31:05Z</time>
      </trkpt>
      <trkpt lat="36.860082959756255" lon="-2.447268040850759">
        <ele>93.400000000000006</ele>
        <time>2003-04-12T17:31:10Z</time>
      </trkpt>
      <trkpt lat="36.859932001680136" lon="-2.44712202809751">
        <ele>92.700000000000003</ele>
        <time>2003-04-12T17:31:12Z</time>
      </trkpt>
      <trkpt lat="36.85972698032856" lon="-2.446937961503863">
        <ele>91.799999999999997</ele>
        <time>2003-04-12T17:31:14Z</time>
      </trkpt>
      <trkpt lat="36.859609968960285" lon="-2.446854980662465">
        <ele>91.5</ele>
        <time>2003-04-12T17:31:17Z</time>
      </trkpt>
      <trkpt lat="36.859520031139255" lon="-2.446809969842434">
        <ele>91.099999999999994</ele>
        <time>2003-04-12T17:31:18Z</time>
      </trkpt>
      <trkpt lat="36.859418023377657" lon="-2.446775017306209">
        <ele>91.099999999999994</ele>
        <time>2003-04-12T17:31:22Z</time>
      </trkpt>
      <trkpt lat="36.859294977039099" lon="-2.446748027577996">
        <ele>90.900000000000006</ele>
        <time>2003-04-12T17:31:25Z</time>
      </trkpt>
      <trkpt lat="36.859152987599373" lon="-2.44673796929419">
        <ele>90.799999999999997</ele>
        <time>2003-04-12T17:31:26Z</time>
      </trkpt>
      <trkpt lat="36.858943020924926" lon="-2.446773005649447">
        <ele>90.599999999999994</ele>
        <time>2003-04-12T17:31:29Z</time>
      </trkpt>
      <trkpt lat="36.858806982636452" lon="-2.446830002591014">
        <ele>90.200000000000003</ele>
        <time>2003-04-12T17:31:32Z</time>
      </trkpt>
      <trkpt lat="36.858501965180039" lon="-2.44703502394259">
        <ele>88.700000000000003</ele>
        <time>2003-04-12T17:31:36Z</time>
      </trkpt>
      <trkpt lat="36.85785798355937" lon="-2.447556965053082">
        <ele>84.799999999999997</ele>
        <time>2003-04-12T17:31:44Z</time>
      </trkpt>
      <trkpt lat="36.857163039967418" lon="-2.448360035195947">
        <ele>80.799999999999997</ele>
        <time>2003-04-12T17:31:56Z</time>
      </trkpt>
      <trkpt lat="36.856832960620522" lon="-2.448673015460372">
        <ele>78.900000000000006</ele>
        <time>2003-04-12T17:32:00Z</time>
      </trkpt>
      <trkpt lat="36.856731958687305" lon="-2.448737975209951">
        <ele>78.299999999999997</ele>
        <time>2003-04-12T17:32:03Z</time>
      </trkpt>
      <trkpt lat="36.856557028368115" lon="-2.448837971314788">
        <ele>77.599999999999994</ele>
        <time>2003-04-12T17:32:07Z</time>
      </trkpt>
      <trkpt lat="36.856313031166792" lon="-2.448960011824966">
        <ele>77</ele>
        <time>2003-04-12T17:32:11Z</time>
      </trkpt>
      <trkpt lat="36.856155032292008" lon="-2.449035029858351">
        <ele>76.5</ele>
        <time>2003-04-12T17:32:14Z</time>
      </trkpt>
      <trkpt lat="36.855716994032264" lon="-2.449252959340811">
        <ele>74.799999999999997</ele>
        <time>2003-04-12T17:32:19Z</time>
      </trkpt>
      <trkpt lat="36.855273004621267" lon="-2.449546996504068">
        <ele>72.799999999999997</ele>
        <time>2003-04-12T17:32:23Z</time>
      </trkpt>
      <trkpt lat="36.854517040774226" lon="-2.450157031416893">
        <ele>69.5</ele>
        <time>2003-04-12T17:32:33Z</time>
      </trkpt>
      <trkpt lat="36.853722017258406" lon="-2.450830014422536">
        <ele>65.299999999999997</ele>
        <time>2003-04-12T17:32:42Z</time>
      </trkpt>
      <trkpt lat="36.853081975132227" lon="-2.451481958851218">
        <ele>62.200000000000003</ele>
        <time>2003-04-12T17:32:50Z</time>
      </trkpt>
      <trkpt lat="36.852845018729568" lon="-2.451741965487599">
        <ele>61.299999999999997</ele>
        <time>2003-04-12T17:32:54Z</time>
      </trkpt>
      <trkpt lat="36.852770000696182" lon="-2.451817989349365">
        <ele>61</ele>
        <time>2003-04-12T17:32:56Z</time>
      </trkpt>
      <trkpt lat="36.852660030126572" lon="-2.451923014596105">
        <ele>62.700000000000003</ele>
        <time>2003-04-12T17:33:28Z</time>
      </trkpt>
      <trkpt lat="36.85257202014327" lon="-2.452002977952361">
        <ele>62.299999999999997</ele>
        <time>2003-04-12T17:33:29Z</time>
      </trkpt>
      <trkpt lat="36.852422989904881" lon="-2.452092999592423">
        <ele>61.5</ele>
        <time>2003-04-12T17:33:32Z</time>
      </trkpt>
      <trkpt lat="36.852240012958646" lon="-2.452110014855862">
        <ele>59.100000000000001</ele>
        <time>2003-04-12T17:33:55Z</time>
      </trkpt>
      <trkpt lat="36.852112021297216" lon="-2.452074978500605">
        <ele>58.799999999999997</ele>
        <time>2003-04-12T17:33:56Z</time>
      </trkpt>
      <trkpt lat="36.851937007158995" lon="-2.452032985165715">
        <ele>58.600000000000001</ele>
        <time>2003-04-12T17:33:59Z</time>
      </trkpt>
      <trkpt lat="36.85166803188622" lon="-2.452027034014463">
        <ele>58</ele>
        <time>2003-04-12T17:34:02Z</time>
      </trkpt>
      <trkpt lat="36.851574992761016" lon="-2.452057963237166">
        <ele>57.899999999999999</ele>
        <time>2003-04-12T17:34:03Z</time>
      </trkpt>
      <trkpt lat="36.851162016391754" lon="-2.452212022617459">
        <ele>56.700000000000003</ele>
        <time>2003-04-12T17:34:07Z</time>
      </trkpt>
      <trkpt lat="36.85029499232769" lon="-2.452632961794734">
        <ele>53.600000000000001</ele>
        <time>2003-04-12T17:34:15Z</time>
      </trkpt>
      <trkpt lat="36.850047977641225" lon="-2.45275299064815">
        <ele>53</ele>
        <time>2003-04-12T17:34:18Z</time>
      </trkpt>
      <trkpt lat="36.849901964887977" lon="-2.452843012288213">
        <ele>50.700000000000003</ele>
        <time>2003-04-12T17:34:31Z</time>
      </trkpt>
      <trkpt lat="36.849791994318366" lon="-2.452905038371682">
        <ele>51.100000000000001</ele>
        <time>2003-04-12T17:34:34Z</time>
      </trkpt>
      <trkpt lat="36.849699961021543" lon="-2.452948037534952">
        <ele>51.399999999999999</ele>
        <time>2003-04-12T17:34:34Z</time>
      </trkpt>
      <trkpt lat="36.84943500906229" lon="-2.45305297896266">
        <ele>51</ele>
        <time>2003-04-12T17:34:38Z</time>
      </trkpt>
      <trkpt lat="36.849108031019568" lon="-2.453132020309568">
        <ele>50.5</ele>
        <time>2003-04-12T17:34:41Z</time>
      </trkpt>
      <trkpt lat="36.848622970283031" lon="-2.453145012259483">
        <ele>50.700000000000003</ele>
        <time>2003-04-12T17:34:45Z</time>
      </trkpt>
      <trkpt lat="36.848385008051991" lon="-2.453063037246466">
        <ele>50.799999999999997</ele>
        <time>2003-04-12T17:34:46Z</time>
      </trkpt>
      <trkpt lat="36.848161965608597" lon="-2.452977038919926">
        <ele>49.600000000000001</ele>
        <time>2003-04-12T17:34:49Z</time>
      </trkpt>
      <trkpt lat="36.847282033413649" lon="-2.45268702507019">
        <ele>48.100000000000001</ele>
        <time>2003-04-12T17:34:57Z</time>
      </trkpt>
      <trkpt lat="36.846917001530528" lon="-2.452688030898571">
        <ele>47.299999999999997</ele>
        <time>2003-04-12T17:35:00Z</time>
      </trkpt>
      <trkpt lat="36.846024999395013" lon="-2.45281501673162">
        <ele>44.899999999999999</ele>
        <time>2003-04-12T17:35:08Z</time>
      </trkpt>
      <trkpt lat="36.845902958884835" lon="-2.45279498398304">
        <ele>44.700000000000003</ele>
        <time>2003-04-12T17:35:09Z</time>
      </trkpt>
      <trkpt lat="36.845789970830083" lon="-2.452757013961673">
        <ele>43.5</ele>
        <time>2003-04-12T17:35:13Z</time>
      </trkpt>
      <trkpt lat="36.845637001097202" lon="-2.452681995928288">
        <ele>43.399999999999999</ele>
        <time>2003-04-12T17:35:42Z</time>
      </trkpt>
      <trkpt lat="36.845522001385689" lon="-2.45262298732996">
        <ele>42.899999999999999</ele>
        <time>2003-04-12T17:35:43Z</time>
      </trkpt>
      <trkpt lat="36.845380011945963" lon="-2.45255802758038">
        <ele>42.299999999999997</ele>
        <time>2003-04-12T17:35:46Z</time>
      </trkpt>
      <trkpt lat="36.845189994201064" lon="-2.452476974576712">
        <ele>41.700000000000003</ele>
        <time>2003-04-12T17:35:47Z</time>
      </trkpt>
      <trkpt lat="36.844982039183378" lon="-2.452422995120287">
        <ele>41</ele>
        <time>2003-04-12T17:35:50Z</time>
      </trkpt>
      <trkpt lat="36.844660006463528" lon="-2.452389970421791">
        <ele>39.600000000000001</ele>
        <time>2003-04-12T17:35:52Z</time>
      </trkpt>
      <trkpt lat="36.844490021467209" lon="-2.452392987906933">
        <ele>38.700000000000003</ele>
        <time>2003-04-12T17:35:55Z</time>
      </trkpt>
      <trkpt lat="36.844367980957031" lon="-2.452394999563694">
        <ele>39</ele>
        <time>2003-04-12T17:35:56Z</time>
      </trkpt>
      <trkpt lat="36.844209982082248" lon="-2.452416960150003">
        <ele>36.600000000000001</ele>
        <time>2003-04-12T17:36:32Z</time>
      </trkpt>
      <trkpt lat="36.844027005136013" lon="-2.452449984848499">
        <ele>36.100000000000001</ele>
        <time>2003-04-12T17:36:34Z</time>
      </trkpt>
      <trkpt lat="36.843721987679601" lon="-2.452525002881885">
        <ele>36</ele>
        <time>2003-04-12T17:36:37Z</time>
      </trkpt>
      <trkpt lat="36.842759996652603" lon="-2.452813005074859">
        <ele>35.799999999999997</ele>
        <time>2003-04-12T17:36:45Z</time>
      </trkpt>
      <trkpt lat="36.842030016705394" lon="-2.453148029744625">
        <ele>33.399999999999999</ele>
        <time>2003-04-12T17:36:53Z</time>
      </trkpt>
      <trkpt lat="36.84150698594749" lon="-2.453429996967316">
        <ele>31.699999999999999</ele>
        <time>2003-04-12T17:36:59Z</time>
      </trkpt>
      <trkpt lat="36.841404978185892" lon="-2.453486993908882">
        <ele>31.600000000000001</ele>
        <time>2003-04-12T17:37:01Z</time>
      </trkpt>
      <trkpt lat="36.841298025101423" lon="-2.453582966700196">
        <ele>31.399999999999999</ele>
        <time>2003-04-12T17:37:28Z</time>
      </trkpt>
      <trkpt lat="36.841174978762865" lon="-2.45365496724844">
        <ele>31.300000000000001</ele>
        <time>2003-04-12T17:37:30Z</time>
      </trkpt>
      <trkpt lat="36.841025026515126" lon="-2.453737026080489">
        <ele>31.300000000000001</ele>
        <time>2003-04-12T17:37:31Z</time>
      </trkpt>
      <trkpt lat="36.840837020426989" lon="-2.453837022185326">
        <ele>31.300000000000001</ele>
        <time>2003-04-12T17:37:34Z</time>
      </trkpt>
      <trkpt lat="36.840618001297116" lon="-2.45395302772522">
        <ele>31.300000000000001</ele>
        <time>2003-04-12T17:37:36Z</time>
      </trkpt>
      <trkpt lat="36.839737985283136" lon="-2.454452002421022">
        <ele>30.300000000000001</ele>
        <time>2003-04-12T17:37:44Z</time>
      </trkpt>
      <trkpt lat="36.838807007297873" lon="-2.454994982108474">
        <ele>28.199999999999999</ele>
        <time>2003-04-12T17:37:51Z</time>
      </trkpt>
      <trkpt lat="36.837956998497248" lon="-2.455494962632656">
        <ele>25.5</ele>
        <time>2003-04-12T17:37:59Z</time>
      </trkpt>
      <trkpt lat="36.837095003575087" lon="-2.456002989783883">
        <ele>24.800000000000001</ele>
        <time>2003-04-12T17:38:06Z</time>
      </trkpt>
      <trkpt lat="36.836832985281944" lon="-2.456150008365512">
        <ele>22.800000000000001</ele>
        <time>2003-04-12T17:38:10Z</time>
      </trkpt>
      <trkpt lat="36.836687978357077" lon="-2.456225026398897">
        <ele>22.199999999999999</ele>
        <time>2003-04-12T17:38:11Z</time>
      </trkpt>
      <trkpt lat="36.836610026657581" lon="-2.456312030553818">
        <ele>23.300000000000001</ele>
        <time>2003-04-12T17:38:14Z</time>
      </trkpt>
      <trkpt lat="36.836561998352408" lon="-2.456438010558486">
        <ele>23.199999999999999</ele>
        <time>2003-04-12T17:38:15Z</time>
      </trkpt>
      <trkpt lat="36.836465019732714" lon="-2.456507999449968">
        <ele>22.600000000000001</ele>
        <time>2003-04-12T17:38:18Z</time>
      </trkpt>
      <trkpt lat="36.836363011971116" lon="-2.45644798502326">
        <ele>22.100000000000001</ele>
        <time>2003-04-12T17:38:20Z</time>
      </trkpt>
      <trkpt lat="36.836218005046248" lon="-2.456342959776521">
        <ele>21.600000000000001</ele>
        <time>2003-04-12T17:38:22Z</time>
      </trkpt>
      <trkpt lat="36.836096970364451" lon="-2.456329967826605">
        <ele>21.399999999999999</ele>
        <time>2003-04-12T17:38:25Z</time>
      </trkpt>
      <trkpt lat="36.835966967046261" lon="-2.456313036382198">
        <ele>21.100000000000001</ele>
        <time>2003-04-12T17:38:28Z</time>
      </trkpt>
      <trkpt lat="36.835643006488681" lon="-2.456271965056658">
        <ele>20.300000000000001</ele>
        <time>2003-04-12T17:38:33Z</time>
      </trkpt>
      <trkpt lat="36.835464974865317" lon="-2.456334996968508">
        <ele>20.600000000000001</ele>
        <time>2003-04-12T17:38:47Z</time>
      </trkpt>
      <trkpt lat="36.835366990417242" lon="-2.456365004181862">
        <ele>19.800000000000001</ele>
        <time>2003-04-12T17:38:49Z</time>
      </trkpt>
      <trkpt lat="36.835249979048967" lon="-2.456402974203229">
        <ele>19.5</ele>
        <time>2003-04-12T17:38:52Z</time>
      </trkpt>
      <trkpt lat="36.835160041227937" lon="-2.456506993621588">
        <ele>19.300000000000001</ele>
        <time>2003-04-12T17:38:53Z</time>
      </trkpt>
      <trkpt lat="36.835077982395887" lon="-2.456627022475004">
        <ele>19</ele>
        <time>2003-04-12T17:38:56Z</time>
      </trkpt>
      <trkpt lat="36.834958037361503" lon="-2.456873031333089">
        <ele>18.899999999999999</ele>
        <time>2003-04-12T17:38:59Z</time>
      </trkpt>
      <trkpt lat="36.834828034043312" lon="-2.457185005769134">
        <ele>18.899999999999999</ele>
        <time>2003-04-12T17:39:01Z</time>
      </trkpt>
      <trkpt lat="36.834716973826289" lon="-2.457445012405515">
        <ele>18.899999999999999</ele>
        <time>2003-04-12T17:39:04Z</time>
      </trkpt>
      <trkpt lat="36.834399970248342" lon="-2.458184966817498">
        <ele>20.800000000000001</ele>
        <time>2003-04-12T17:39:09Z</time>
      </trkpt>
      <trkpt lat="36.834346996620297" lon="-2.458302984014154">
        <ele>21.300000000000001</ele>
        <time>2003-04-12T17:39:12Z</time>
      </trkpt>
      <trkpt lat="36.834402987733483" lon="-2.458427958190441">
        <ele>-57.799999999999997</ele>
        <time>2003-04-12T17:39:35Z</time>
      </trkpt>
      <trkpt lat="36.834369963034987" lon="-2.458547987043858">
        <ele>-56</ele>
        <time>2003-04-12T17:39:38Z</time>
      </trkpt>
      <trkpt lat="36.834323024377227" lon="-2.458652006462216">
        <ele>-43.299999999999997</ele>
        <time>2003-04-12T17:39:39Z</time>
      </trkpt>
      <trkpt lat="36.834208024665713" lon="-2.458932967856526">
        <ele>-25.399999999999999</ele>
        <time>2003-04-12T17:39:43Z</time>
      </trkpt>
      <trkpt lat="36.83413702994585" lon="-2.459103036671877">
        <ele>-25.199999999999999</ele>
        <time>2003-04-12T17:39:46Z</time>
      </trkpt>
      <trkpt lat="36.834020018577576" lon="-2.459394978359342">
        <ele>-23.100000000000001</ele>
        <time>2003-04-12T17:39:49Z</time>
      </trkpt>
      <trkpt lat="36.833782978355885" lon="-2.459942987188697">
        <ele>-21.699999999999999</ele>
        <time>2003-04-12T17:39:54Z</time>
      </trkpt>
      <trkpt lat="36.833735033869743" lon="-2.460041977465153">
        <ele>-20.800000000000001</ele>
        <time>2003-04-12T17:39:57Z</time>
      </trkpt>
      <trkpt lat="36.833656998351216" lon="-2.460122024640441">
        <ele>-3.3</ele>
        <time>2003-04-12T17:40:21Z</time>
      </trkpt>
      <trkpt lat="36.833592038601637" lon="-2.460297038778663">
        <ele>-2.2</ele>
        <time>2003-04-12T17:40:25Z</time>
      </trkpt>
      <trkpt lat="36.833560019731522" lon="-2.460452020168304">
        <ele>-1.7</ele>
        <time>2003-04-12T17:40:26Z</time>
      </trkpt>
      <trkpt lat="36.833549961447716" lon="-2.460608007386327">
        <ele>-1</ele>
        <time>2003-04-12T17:40:29Z</time>
      </trkpt>
      <trkpt lat="36.83353504166007" lon="-2.460900032892823">
        <ele>-0.6</ele>
        <time>2003-04-12T17:40:32Z</time>
      </trkpt>
      <trkpt lat="36.833517020568252" lon="-2.461805026978254">
        <ele>-0.1</ele>
        <time>2003-04-12T17:40:41Z</time>
      </trkpt>
      <trkpt lat="36.83357996866107" lon="-2.462148014456034">
        <ele>-0.1</ele>
        <time>2003-04-12T17:40:45Z</time>
      </trkpt>
      <trkpt lat="36.833727993071079" lon="-2.462689988315105">
        <ele>0.4</ele>
        <time>2003-04-12T17:40:52Z</time>
      </trkpt>
      <trkpt lat="36.833766968920827" lon="-2.462897021323443">
        <ele>18.800000000000001</ele>
        <time>2003-04-12T17:41:19Z</time>
      </trkpt>
      <trkpt lat="36.833833018317819" lon="-2.463067006319761">
        <ele>18.399999999999999</ele>
        <time>2003-04-12T17:41:23Z</time>
      </trkpt>
      <trkpt lat="36.8339220341295" lon="-2.463302034884691">
        <ele>17.5</ele>
        <time>2003-04-12T17:41:26Z</time>
      </trkpt>
      <trkpt lat="36.834047008305788" lon="-2.463636975735426">
        <ele>15.699999999999999</ele>
        <time>2003-04-12T17:41:31Z</time>
      </trkpt>
      <trkpt lat="36.834017001092434" lon="-2.463757004588842">
        <ele>14.6</ele>
        <time>2003-04-12T17:41:34Z</time>
      </trkpt>
      <trkpt lat="36.833933014422655" lon="-2.463809978216887">
        <ele>14</ele>
        <time>2003-04-12T17:41:35Z</time>
      </trkpt>
      <trkpt lat="36.833820026367903" lon="-2.463875021785498">
        <ele>13.199999999999999</ele>
        <time>2003-04-12T17:41:39Z</time>
      </trkpt>
      <trkpt lat="36.833667978644371" lon="-2.463939981535077">
        <ele>11</ele>
        <time>2003-04-12T17:42:05Z</time>
      </trkpt>
      <trkpt lat="36.83355700224638" lon="-2.463873010128737">
        <ele>10.699999999999999</ele>
        <time>2003-04-12T17:42:08Z</time>
      </trkpt>
      <trkpt lat="36.83349497616291" lon="-2.463734960183501">
        <ele>10.6</ele>
        <time>2003-04-12T17:42:09Z</time>
      </trkpt>
      <trkpt lat="36.833387017250061" lon="-2.463424997404218">
        <ele>9.6</ele>
        <time>2003-04-12T17:42:13Z</time>
      </trkpt>
      <trkpt lat="36.833303030580282" lon="-2.463116962462664">
        <ele>8.9</ele>
        <time>2003-04-12T17:42:17Z</time>
      </trkpt>
      <trkpt lat="36.833288026973605" lon="-2.462958041578531">
        <ele>8.800000000000001</ele>
        <time>2003-04-12T17:42:20Z</time>
      </trkpt>
      <trkpt lat="36.833288026973605" lon="-2.462683031335473">
        <ele>9.300000000000001</ele>
        <time>2003-04-12T17:42:24Z</time>
      </trkpt>
      <trkpt lat="36.833306970074773" lon="-2.462541963905096">
        <ele>9.5</ele>
        <time>2003-04-12T17:42:27Z</time>
      </trkpt>
      <trkpt lat="36.83334200643003" lon="-2.462363010272384">
        <ele>9.9</ele>
        <time>2003-04-12T17:42:40Z</time>
      </trkpt>
      <trkpt lat="36.833432028070092" lon="-2.462060004472733">
        <ele>8.699999999999999</ele>
        <time>2003-04-12T17:42:47Z</time>
      </trkpt>
      <trkpt lat="36.833467986434698" lon="-2.461862023919821">
        <ele>8.4</ele>
        <time>2003-04-12T17:42:50Z</time>
      </trkpt>
      <trkpt lat="36.833473015576601" lon="-2.461573015898466">
        <ele>8.5</ele>
        <time>2003-04-12T17:42:54Z</time>
      </trkpt>
      <trkpt lat="36.833464968949556" lon="-2.461370006203651">
        <ele>8.4</ele>
        <time>2003-04-12T17:42:55Z</time>
      </trkpt>
      <trkpt lat="36.833460023626685" lon="-2.460812022909522">
        <ele>9.4</ele>
        <time>2003-04-12T17:43:00Z</time>
      </trkpt>
      <trkpt lat="36.833490030840039" lon="-2.460417989641428">
        <ele>9.9</ele>
        <time>2003-04-12T17:43:03Z</time>
      </trkpt>
      <trkpt lat="36.833552978932858" lon="-2.460172986611724">
        <ele>10.1</ele>
        <time>2003-04-12T17:43:06Z</time>
      </trkpt>
      <trkpt lat="36.834003003314137" lon="-2.459030030295253">
        <ele>11.199999999999999</ele>
        <time>2003-04-12T17:43:15Z</time>
      </trkpt>
      <trkpt lat="36.834446992725134" lon="-2.458025040104985">
        <ele>12.699999999999999</ele>
        <time>2003-04-12T17:43:22Z</time>
      </trkpt>
      <trkpt lat="36.834783023223281" lon="-2.457224987447262">
        <ele>13.9</ele>
        <time>2003-04-12T17:43:27Z</time>
      </trkpt>
      <trkpt lat="36.83486801572144" lon="-2.45702700689435">
        <ele>13.4</ele>
        <time>2003-04-12T17:43:30Z</time>
      </trkpt>
      <trkpt lat="36.834913026541471" lon="-2.456924999132752">
        <ele>12.9</ele>
        <time>2003-04-12T17:43:31Z</time>
      </trkpt>
      <trkpt lat="36.835022997111082" lon="-2.456764988601208">
        <ele>-8.199999999999999</ele>
        <time>2003-04-12T17:43:58Z</time>
      </trkpt>
      <trkpt lat="36.83508301153779" lon="-2.456628028303385">
        <ele>-21.800000000000001</ele>
        <time>2003-04-12T17:44:01Z</time>
      </trkpt>
      <trkpt lat="36.835161969065666" lon="-2.456457959488034">
        <ele>-18.800000000000001</ele>
        <time>2003-04-12T17:44:02Z</time>
      </trkpt>
      <trkpt lat="36.835272023454309" lon="-2.456172974780202">
        <ele>-15</ele>
        <time>2003-04-12T17:44:06Z</time>
      </trkpt>
      <trkpt lat="36.83536296710372" lon="-2.455956973135471">
        <ele>-13.4</ele>
        <time>2003-04-12T17:44:09Z</time>
      </trkpt>
      <trkpt lat="36.835505040362477" lon="-2.455867035314441">
        <ele>-12.5</ele>
        <time>2003-04-12T17:44:12Z</time>
      </trkpt>
      <trkpt lat="36.835639989003539" lon="-2.455707024782896">
        <ele>-11.5</ele>
        <time>2003-04-12T17:44:13Z</time>
      </trkpt>
      <trkpt lat="36.835724981501698" lon="-2.45556503534317">
        <ele>-10.300000000000001</ele>
        <time>2003-04-12T17:44:16Z</time>
      </trkpt>
      <trkpt lat="36.835757000371814" lon="-2.455422040075064">
        <ele>8.699999999999999</ele>
        <time>2003-04-12T17:44:46Z</time>
      </trkpt>
      <trkpt lat="36.835839981213212" lon="-2.455297987908125">
        <ele>8.4</ele>
        <time>2003-04-12T17:44:47Z</time>
      </trkpt>
      <trkpt lat="36.835939977318048" lon="-2.455128002911806">
        <ele>8.4</ele>
        <time>2003-04-12T17:44:50Z</time>
      </trkpt>
      <trkpt lat="36.836060006171465" lon="-2.454904960468411">
        <ele>8.1</ele>
        <time>2003-04-12T17:44:51Z</time>
      </trkpt>
      <trkpt lat="36.836281958967447" lon="-2.454397017136216">
        <ele>7.8</ele>
        <time>2003-04-12T17:44:55Z</time>
      </trkpt>
      <trkpt lat="36.836692001670599" lon="-2.453330000862479">
        <ele>8.699999999999999</ele>
        <time>2003-04-12T17:45:03Z</time>
      </trkpt>
      <trkpt lat="36.837097015231848" lon="-2.452253010123968">
        <ele>9.4</ele>
        <time>2003-04-12T17:45:10Z</time>
      </trkpt>
      <trkpt lat="36.837174966931343" lon="-2.45193500071764">
        <ele>9.6</ele>
        <time>2003-04-12T17:45:11Z</time>
      </trkpt>
      <trkpt lat="36.837243027985096" lon="-2.451405012980104">
        <ele>9.800000000000001</ele>
        <time>2003-04-12T17:45:14Z</time>
      </trkpt>
      <trkpt lat="36.83731796219945" lon="-2.45012803003192">
        <ele>9.5</ele>
        <time>2003-04-12T17:45:22Z</time>
      </trkpt>
      <trkpt lat="36.837427010759711" lon="-2.449199985712767">
        <ele>10.9</ele>
        <time>2003-04-12T17:45:26Z</time>
      </trkpt>
      <trkpt lat="36.837651981040835" lon="-2.448349976912141">
        <ele>12</ele>
        <time>2003-04-12T17:45:32Z</time>
      </trkpt>
      <trkpt lat="36.83802698738873" lon="-2.447274997830391">
        <ele>12.199999999999999</ele>
        <time>2003-04-12T17:45:38Z</time>
      </trkpt>
      <trkpt lat="36.838387995958328" lon="-2.446197001263499">
        <ele>13.300000000000001</ele>
        <time>2003-04-12T17:45:45Z</time>
      </trkpt>
      <trkpt lat="36.838695025071502" lon="-2.445189999416471">
        <ele>14.5</ele>
        <time>2003-04-12T17:45:53Z</time>
      </trkpt>
      <trkpt lat="36.838747998699546" lon="-2.445010039955378">
        <ele>14.9</ele>
        <time>2003-04-12T17:45:54Z</time>
      </trkpt>
      <trkpt lat="36.838827962055802" lon="-2.444784985855222">
        <ele>15.300000000000001</ele>
        <time>2003-04-12T17:45:57Z</time>
      </trkpt>
      <trkpt lat="36.838910020887852" lon="-2.44463000446558">
        <ele>15.6</ele>
        <time>2003-04-12T17:46:01Z</time>
      </trkpt>
      <trkpt lat="36.838977998122573" lon="-2.444537971168757">
        <ele>15.6</ele>
        <time>2003-04-12T17:46:03Z</time>
      </trkpt>
      <trkpt lat="36.839119987562299" lon="-2.444443004205823">
        <ele>22</ele>
        <time>2003-04-12T17:46:34Z</time>
      </trkpt>
      <trkpt lat="36.839331965893507" lon="-2.444267990067601">
        <ele>21.899999999999999</ele>
        <time>2003-04-12T17:46:38Z</time>
      </trkpt>
      <trkpt lat="36.839413018897176" lon="-2.444204958155751">
        <ele>21.899999999999999</ele>
        <time>2003-04-12T17:46:39Z</time>
      </trkpt>
      <trkpt lat="36.839589960873127" lon="-2.444066992029548">
        <ele>22</ele>
        <time>2003-04-12T17:46:40Z</time>
      </trkpt>
      <trkpt lat="36.839881986379623" lon="-2.443837998434901">
        <ele>22.300000000000001</ele>
        <time>2003-04-12T17:46:43Z</time>
      </trkpt>
      <trkpt lat="36.840251963585615" lon="-2.44355502538383">
        <ele>23</ele>
        <time>2003-04-12T17:46:47Z</time>
      </trkpt>
      <trkpt lat="36.8410350009799" lon="-2.442926969379187">
        <ele>25.699999999999999</ele>
        <time>2003-04-12T17:46:54Z</time>
      </trkpt>
      <trkpt lat="36.841858020052314" lon="-2.442302014678717">
        <ele>28</ele>
        <time>2003-04-12T17:46:58Z</time>
      </trkpt>
      <trkpt lat="36.842486998066306" lon="-2.441742019727826">
        <ele>30</ele>
        <time>2003-04-12T17:47:03Z</time>
      </trkpt>
      <trkpt lat="36.842899974435568" lon="-2.441144976764917">
        <ele>31.600000000000001</ele>
        <time>2003-04-12T17:47:07Z</time>
      </trkpt>
      <trkpt lat="36.843056967481971" lon="-2.440799977630377">
        <ele>32.700000000000003</ele>
        <time>2003-04-12T17:47:10Z</time>
      </trkpt>
      <trkpt lat="36.843242961913347" lon="-2.440243000164628">
        <ele>34.399999999999999</ele>
        <time>2003-04-12T17:47:13Z</time>
      </trkpt>
      <trkpt lat="36.843316974118352" lon="-2.439822982996702">
        <ele>35.600000000000001</ele>
        <time>2003-04-12T17:47:14Z</time>
      </trkpt>
      <trkpt lat="36.843342036008835" lon="-2.439161986112595">
        <ele>37.5</ele>
        <time>2003-04-12T17:47:18Z</time>
      </trkpt>
      <trkpt lat="36.843302976340055" lon="-2.438716990873218">
        <ele>38.399999999999999</ele>
        <time>2003-04-12T17:47:20Z</time>
      </trkpt>
      <trkpt lat="36.843214966356754" lon="-2.438284987583756">
        <ele>38.899999999999999</ele>
        <time>2003-04-12T17:47:22Z</time>
      </trkpt>
      <trkpt lat="36.843072976917028" lon="-2.437877962365747">
        <ele>38.700000000000003</ele>
        <time>2003-04-12T17:47:24Z</time>
      </trkpt>
      <trkpt lat="36.842532008886337" lon="-2.436699969694018">
        <ele>35.299999999999997</ele>
        <time>2003-04-12T17:47:29Z</time>
      </trkpt>
      <trkpt lat="36.842047031968832" lon="-2.435703026130796">
        <ele>31.399999999999999</ele>
        <time>2003-04-12T17:47:34Z</time>
      </trkpt>
      <trkpt lat="36.841562977060676" lon="-2.43472795933485">
        <ele>30.800000000000001</ele>
        <time>2003-04-12T17:47:40Z</time>
      </trkpt>
      <trkpt lat="36.84127296321094" lon="-2.434063022956252">
        <ele>32.200000000000003</ele>
        <time>2003-04-12T17:47:44Z</time>
      </trkpt>
      <trkpt lat="36.841127034276724" lon="-2.433821959421039">
        <ele>32.899999999999999</ele>
        <time>2003-04-12T17:47:45Z</time>
      </trkpt>
      <trkpt lat="36.840937016531825" lon="-2.433643005788326">
        <ele>33.5</ele>
        <time>2003-04-12T17:47:48Z</time>
      </trkpt>
      <trkpt lat="36.840823022648692" lon="-2.433588020503521">
        <ele>33.899999999999999</ele>
        <time>2003-04-12T17:47:49Z</time>
      </trkpt>
      <trkpt lat="36.840394958853722" lon="-2.433322984725237">
        <ele>33.600000000000001</ele>
        <time>2003-04-12T17:47:52Z</time>
      </trkpt>
      <trkpt lat="36.840314995497465" lon="-2.433225000277162">
        <ele>33.200000000000003</ele>
        <time>2003-04-12T17:47:53Z</time>
      </trkpt>
      <trkpt lat="36.84026001021266" lon="-2.433102959766984">
        <ele>32.100000000000001</ele>
        <time>2003-04-12T17:47:55Z</time>
      </trkpt>
      <trkpt lat="36.840232014656067" lon="-2.432967005297542">
        <ele>31.399999999999999</ele>
        <time>2003-04-12T17:47:56Z</time>
      </trkpt>
      <trkpt lat="36.840232014656067" lon="-2.432827027514577">
        <ele>30.899999999999999</ele>
        <time>2003-04-12T17:47:56Z</time>
      </trkpt>
      <trkpt lat="36.840257998555899" lon="-2.432687971740961">
        <ele>30.5</ele>
        <time>2003-04-12T17:47:57Z</time>
      </trkpt>
      <trkpt lat="36.840314995497465" lon="-2.432559980079532">
        <ele>30</ele>
        <time>2003-04-12T17:47:59Z</time>
      </trkpt>
      <trkpt lat="36.840394958853722" lon="-2.432455038651824">
        <ele>29.5</ele>
        <time>2003-04-12T17:48:00Z</time>
      </trkpt>
      <trkpt lat="36.84049503877759" lon="-2.432378008961678">
        <ele>29.100000000000001</ele>
        <time>2003-04-12T17:48:00Z</time>
      </trkpt>
      <trkpt lat="36.840607021003962" lon="-2.432331992313266">
        <ele>28.800000000000001</ele>
        <time>2003-04-12T17:48:01Z</time>
      </trkpt>
      <trkpt lat="36.840726966038346" lon="-2.432317994534969">
        <ele>28.5</ele>
        <time>2003-04-12T17:48:03Z</time>
      </trkpt>
      <trkpt lat="36.840855041518807" lon="-2.432323023676872">
        <ele>28.300000000000001</ele>
        <time>2003-04-12T17:48:04Z</time>
      </trkpt>
      <trkpt lat="36.84099200181663" lon="-2.432317994534969">
        <ele>28.100000000000001</ele>
        <time>2003-04-12T17:48:04Z</time>
      </trkpt>
      <trkpt lat="36.842030016705394" lon="-2.432265020906925">
        <ele>29.699999999999999</ele>
        <time>2003-04-12T17:48:12Z</time>
      </trkpt>
      <trkpt lat="36.842542989179492" lon="-2.432244988158345">
        <ele>32.299999999999997</ele>
        <time>2003-04-12T17:48:16Z</time>
      </trkpt>
      <trkpt lat="36.842726971954107" lon="-2.432238031178713">
        <ele>33</ele>
        <time>2003-04-12T17:48:18Z</time>
      </trkpt>
      <trkpt lat="36.842831997200847" lon="-2.432231996208429">
        <ele>33.299999999999997</ele>
        <time>2003-04-12T17:48:20Z</time>
      </trkpt>
      <trkpt lat="36.842980021610856" lon="-2.432235013693571">
        <ele>31.800000000000001</ele>
        <time>2003-04-12T17:48:51Z</time>
      </trkpt>
      <trkpt lat="36.843119999393821" lon="-2.432241970673204">
        <ele>32</ele>
        <time>2003-04-12T17:48:54Z</time>
      </trkpt>
      <trkpt lat="36.843176996335387" lon="-2.432354958727956">
        <ele>32.100000000000001</ele>
        <time>2003-04-12T17:48:58Z</time>
      </trkpt>
      <trkpt lat="36.843174984678626" lon="-2.432541958987713">
        <ele>31.899999999999999</ele>
        <time>2003-04-12T17:48:58Z</time>
      </trkpt>
      <trkpt lat="36.843172973021865" lon="-2.432742035016418">
        <ele>31.300000000000001</ele>
        <time>2003-04-12T17:49:02Z</time>
      </trkpt>
      <trkpt lat="36.843174984678626" lon="-2.433107988908887">
        <ele>31.100000000000001</ele>
        <time>2003-04-12T17:49:05Z</time>
      </trkpt>
      <trkpt lat="36.84318202547729" lon="-2.433421975001693">
        <ele>31</ele>
        <time>2003-04-12T17:49:06Z</time>
      </trkpt>
      <trkpt lat="36.843231981620193" lon="-2.43453299626708">
        <ele>32</ele>
        <time>2003-04-12T17:49:13Z</time>
      </trkpt>
      <trkpt lat="36.843327032402158" lon="-2.434859974309802">
        <ele>32.100000000000001</ele>
        <time>2003-04-12T17:49:16Z</time>
      </trkpt>
      <trkpt lat="36.843745037913322" lon="-2.435881979763508">
        <ele>33</ele>
        <time>2003-04-12T17:49:21Z</time>
      </trkpt>
      <trkpt lat="36.844152985140681" lon="-2.436898034065962">
        <ele>36.600000000000001</ele>
        <time>2003-04-12T17:49:28Z</time>
      </trkpt>
      <trkpt lat="36.844462025910616" lon="-2.437666989862919">
        <ele>37.700000000000003</ele>
        <time>2003-04-12T17:49:33Z</time>
      </trkpt>
      <trkpt lat="36.84494499117136" lon="-2.438716990873218">
        <ele>35.600000000000001</ele>
        <time>2003-04-12T17:49:40Z</time>
      </trkpt>
      <trkpt lat="36.845171973109245" lon="-2.439067019149661">
        <ele>34.600000000000001</ele>
        <time>2003-04-12T17:49:44Z</time>
      </trkpt>
      <trkpt lat="36.845312034711242" lon="-2.439229963347316">
        <ele>34.399999999999999</ele>
        <time>2003-04-12T17:49:45Z</time>
      </trkpt>
      <trkpt lat="36.845398033037782" lon="-2.439328031614423">
        <ele>34.799999999999997</ele>
        <time>2003-04-12T17:49:48Z</time>
      </trkpt>
      <trkpt lat="36.845497023314238" lon="-2.439444959163666">
        <ele>38.399999999999999</ele>
        <time>2003-04-12T17:50:20Z</time>
      </trkpt>
      <trkpt lat="36.845631971955299" lon="-2.439604969695211">
        <ele>38.5</ele>
        <time>2003-04-12T17:50:23Z</time>
      </trkpt>
      <trkpt lat="36.845921985805035" lon="-2.440002020448446">
        <ele>39</ele>
        <time>2003-04-12T17:50:30Z</time>
      </trkpt>
      <trkpt lat="36.846087025478482" lon="-2.440303014591336">
        <ele>38.600000000000001</ele>
        <time>2003-04-12T17:50:34Z</time>
      </trkpt>
      <trkpt lat="36.846113009378314" lon="-2.440426982939243">
        <ele>38.100000000000001</ele>
        <time>2003-04-12T17:50:39Z</time>
      </trkpt>
      <trkpt lat="36.846128012984991" lon="-2.440603002905846">
        <ele>46.100000000000001</ele>
        <time>2003-04-12T17:50:58Z</time>
      </trkpt>
      <trkpt lat="36.846166988834739" lon="-2.440829984843731">
        <ele>47.5</ele>
        <time>2003-04-12T17:51:04Z</time>
      </trkpt>
      <trkpt lat="36.846177969127893" lon="-2.440995024517179">
        <ele>47.5</ele>
        <time>2003-04-12T17:51:06Z</time>
      </trkpt>
      <trkpt lat="36.846167994663119" lon="-2.441231980919838">
        <ele>46.399999999999999</ele>
        <time>2003-04-12T17:51:12Z</time>
      </trkpt>
      <trkpt lat="36.846081996336579" lon="-2.441268023103476">
        <ele>46.200000000000003</ele>
        <time>2003-04-12T17:51:13Z</time>
      </trkpt>
      <trkpt lat="36.845946963876486" lon="-2.441256958991289">
        <ele>46.100000000000001</ele>
        <time>2003-04-12T17:51:16Z</time>
      </trkpt>
      <trkpt lat="36.845855014398694" lon="-2.44125796481967">
        <ele>46</ele>
        <time>2003-04-12T17:51:17Z</time>
      </trkpt>
      <trkpt lat="36.845667008310556" lon="-2.441286966204643">
        <ele>45.5</ele>
        <time>2003-04-12T17:51:18Z</time>
      </trkpt>
      <trkpt lat="36.845446983352304" lon="-2.441328037530184">
        <ele>45.600000000000001</ele>
        <time>2003-04-12T17:51:21Z</time>
      </trkpt>
      <trkpt lat="36.844488009810448" lon="-2.441500034183264">
        <ele>43.200000000000003</ele>
        <time>2003-04-12T17:51:28Z</time>
      </trkpt>
      <trkpt lat="36.84380698017776" lon="-2.441617967560887">
        <ele>40.5</ele>
        <time>2003-04-12T17:51:35Z</time>
      </trkpt>
      <trkpt lat="36.84363498352468" lon="-2.441651998087764">
        <ele>39.399999999999999</ele>
        <time>2003-04-12T17:51:36Z</time>
      </trkpt>
      <trkpt lat="36.843506991863251" lon="-2.441682005301118">
        <ele>38.399999999999999</ele>
        <time>2003-04-12T17:51:39Z</time>
      </trkpt>
      <trkpt lat="36.843432979658246" lon="-2.44179499335587">
        <ele>37.700000000000003</ele>
        <time>2003-04-12T17:51:40Z</time>
      </trkpt>
      <trkpt lat="36.843308005481958" lon="-2.441988028585911">
        <ele>37.200000000000003</ele>
        <time>2003-04-12T17:51:44Z</time>
      </trkpt>
      <trkpt lat="36.843213038519025" lon="-2.442124988883734">
        <ele>36.799999999999997</ele>
        <time>2003-04-12T17:51:47Z</time>
      </trkpt>
      <trkpt lat="36.843059984967113" lon="-2.442113002762198">
        <ele>36</ele>
        <time>2003-04-12T17:52:06Z</time>
      </trkpt>
      <trkpt lat="36.842971974983811" lon="-2.441991968080401">
        <ele>36</ele>
        <time>2003-04-12T17:52:08Z</time>
      </trkpt>
      <trkpt lat="36.842848006635904" lon="-2.441902030259371">
        <ele>35.700000000000003</ele>
        <time>2003-04-12T17:52:11Z</time>
      </trkpt>
      <trkpt lat="36.842727977782488" lon="-2.441883003339171">
        <ele>36.5</ele>
        <time>2003-04-12T17:52:12Z</time>
      </trkpt>
      <trkpt lat="36.842596968635917" lon="-2.441942011937499">
        <ele>36.5</ele>
        <time>2003-04-12T17:52:15Z</time>
      </trkpt>
      <trkpt lat="36.842330005019903" lon="-2.442143009975553">
        <ele>34.299999999999997</ele>
        <time>2003-04-12T17:52:19Z</time>
      </trkpt>
      <trkpt lat="36.841997997835279" lon="-2.442390024662018">
        <ele>31.899999999999999</ele>
        <time>2003-04-12T17:52:22Z</time>
      </trkpt>
      <trkpt lat="36.841591978445649" lon="-2.442699987441301">
        <ele>29.199999999999999</ele>
        <time>2003-04-12T17:52:26Z</time>
      </trkpt>
      <trkpt lat="36.840767031535506" lon="-2.443329971283674">
        <ele>24.600000000000001</ele>
        <time>2003-04-12T17:52:34Z</time>
      </trkpt>
      <trkpt lat="36.840018024668097" lon="-2.443879991769791">
        <ele>20.600000000000001</ele>
        <time>2003-04-12T17:52:41Z</time>
      </trkpt>
      <trkpt lat="36.839676965028048" lon="-2.444149972870946">
        <ele>18.699999999999999</ele>
        <time>2003-04-12T17:52:45Z</time>
      </trkpt>
      <trkpt lat="36.839592978358269" lon="-2.444257009774447">
        <ele>18</ele>
        <time>2003-04-12T17:52:46Z</time>
      </trkpt>
      <trkpt lat="36.839575041085482" lon="-2.444392964243889">
        <ele>17.899999999999999</ele>
        <time>2003-04-12T17:52:49Z</time>
      </trkpt>
      <trkpt lat="36.839613011106849" lon="-2.444518022239208">
        <ele>18.100000000000001</ele>
        <time>2003-04-12T17:52:50Z</time>
      </trkpt>
      <trkpt lat="36.83968199416995" lon="-2.444607960060239">
        <ele>17.699999999999999</ele>
        <time>2003-04-12T17:52:53Z</time>
      </trkpt>
      <trkpt lat="36.839772015810013" lon="-2.444754978641868">
        <ele>17.5</ele>
        <time>2003-04-12T17:52:56Z</time>
      </trkpt>
      <trkpt lat="36.83978701941669" lon="-2.444892022758722">
        <ele>17.5</ele>
        <time>2003-04-12T17:52:58Z</time>
      </trkpt>
      <trkpt lat="36.839777966961265" lon="-2.445010039955378">
        <ele>17.600000000000001</ele>
        <time>2003-04-12T17:53:01Z</time>
      </trkpt>
      <trkpt lat="36.839749971404672" lon="-2.445337017998099">
        <ele>18</ele>
        <time>2003-04-12T17:53:05Z</time>
      </trkpt>
      <trkpt lat="36.839730022475123" lon="-2.445493005216122">
        <ele>18.199999999999999</ele>
        <time>2003-04-12T17:53:08Z</time>
      </trkpt>
      <trkpt lat="36.839728010818362" lon="-2.445844961330295">
        <ele>17.600000000000001</ele>
        <time>2003-04-12T17:53:12Z</time>
      </trkpt>
      <trkpt lat="36.839691968634725" lon="-2.446914995089173">
        <ele>17.399999999999999</ele>
        <time>2003-04-12T17:53:24Z</time>
      </trkpt>
      <trkpt lat="36.839690040796995" lon="-2.447205008938909">
        <ele>16.699999999999999</ele>
        <time>2003-04-12T17:54:06Z</time>
      </trkpt>
      <trkpt lat="36.839749971404672" lon="-2.447338029742241">
        <ele>16.899999999999999</ele>
        <time>2003-04-12T17:54:09Z</time>
      </trkpt>
      <trkpt lat="36.839752988889813" lon="-2.447455041110516">
        <ele>17.100000000000001</ele>
        <time>2003-04-12T17:54:11Z</time>
      </trkpt>
      <trkpt lat="36.839660033583641" lon="-2.447499968111515">
        <ele>17.5</ele>
        <time>2003-04-12T17:54:17Z</time>
      </trkpt>
      <trkpt lat="36.839525001123548" lon="-2.447495022788644">
        <ele>19</ele>
        <time>2003-04-12T17:54:32Z</time>
      </trkpt>
      <trkpt lat="36.839416958391666" lon="-2.447516983374953">
        <ele>18.600000000000001</ele>
        <time>2003-04-12T17:54:34Z</time>
      </trkpt>
      <trkpt lat="36.839216966181993" lon="-2.447572974488139">
        <ele>18.300000000000001</ele>
        <time>2003-04-12T17:54:37Z</time>
      </trkpt>
      <trkpt lat="36.839117975905538" lon="-2.447576997801662">
        <ele>18.199999999999999</ele>
        <time>2003-04-12T17:54:37Z</time>
      </trkpt>
      <trkpt lat="36.838902980089188" lon="-2.447587978094816">
        <ele>18</ele>
        <time>2003-04-12T17:54:40Z</time>
      </trkpt>
      <trkpt lat="36.838448010385036" lon="-2.447619996964932">
        <ele>16.800000000000001</ele>
        <time>2003-04-12T17:54:45Z</time>
      </trkpt>
      <trkpt lat="36.838135030120611" lon="-2.447619996964932">
        <ele>16.899999999999999</ele>
        <time>2003-04-12T17:54:49Z</time>
      </trkpt>
      <trkpt lat="36.838009972125292" lon="-2.447655033320189">
        <ele>17.199999999999999</ele>
        <time>2003-04-12T17:54:50Z</time>
      </trkpt>
      <trkpt lat="36.837948029860854" lon="-2.447776990011334">
        <ele>16.800000000000001</ele>
        <time>2003-04-12T17:54:53Z</time>
      </trkpt>
      <trkpt lat="36.837862031534314" lon="-2.447976982221007">
        <ele>16.600000000000001</ele>
        <time>2003-04-12T17:54:54Z</time>
      </trkpt>
      <trkpt lat="36.837777961045504" lon="-2.448234977200627">
        <ele>16.399999999999999</ele>
        <time>2003-04-12T17:54:57Z</time>
      </trkpt>
      <trkpt lat="36.8376399949193" lon="-2.448652982711792">
        <ele>16.300000000000001</ele>
        <time>2003-04-12T17:55:00Z</time>
      </trkpt>
      <trkpt lat="36.837479984387755" lon="-2.449299981817603">
        <ele>15.699999999999999</ele>
        <time>2003-04-12T17:55:04Z</time>
      </trkpt>
      <trkpt lat="36.837379988282919" lon="-2.449987968429923">
        <ele>15.5</ele>
        <time>2003-04-12T17:55:08Z</time>
      </trkpt>
      <trkpt lat="36.837302958592772" lon="-2.451292024925351">
        <ele>14.1</ele>
        <time>2003-04-12T17:55:15Z</time>
      </trkpt>
      <trkpt lat="36.837227018550038" lon="-2.452312018722296">
        <ele>13.199999999999999</ele>
        <time>2003-04-12T17:55:20Z</time>
      </trkpt>
      <trkpt lat="36.837179996073246" lon="-2.45247202925384">
        <ele>13.300000000000001</ele>
        <time>2003-04-12T17:55:23Z</time>
      </trkpt>
      <trkpt lat="36.837034989148378" lon="-2.452612007036805">
        <ele>19.5</ele>
        <time>2003-04-12T17:55:51Z</time>
      </trkpt>
      <trkpt lat="36.836976986378431" lon="-2.452760031446815">
        <ele>19.199999999999999</ele>
        <time>2003-04-12T17:55:53Z</time>
      </trkpt>
      <trkpt lat="36.836940022185445" lon="-2.452862961217761">
        <ele>18.899999999999999</ele>
        <time>2003-04-12T17:55:54Z</time>
      </trkpt>
      <trkpt lat="36.836817981675267" lon="-2.453184993937612">
        <ele>18.100000000000001</ele>
        <time>2003-04-12T17:55:57Z</time>
      </trkpt>
      <trkpt lat="36.836386984214187" lon="-2.454316969960928">
        <ele>16.300000000000001</ele>
        <time>2003-04-12T17:56:06Z</time>
      </trkpt>
      <trkpt lat="36.835960010066628" lon="-2.455296982079744">
        <ele>14.6</ele>
        <time>2003-04-12T17:56:14Z</time>
      </trkpt>
      <trkpt lat="36.835663039237261" lon="-2.455790005624294">
        <ele>13.9</ele>
        <time>2003-04-12T17:56:18Z</time>
      </trkpt>
      <trkpt lat="36.835605036467314" lon="-2.455946998670697">
        <ele>14</ele>
        <time>2003-04-12T17:56:21Z</time>
      </trkpt>
      <trkpt lat="36.83557502925396" lon="-2.456104997545481">
        <ele>13.9</ele>
        <time>2003-04-12T17:56:24Z</time>
      </trkpt>
      <trkpt lat="36.835564970970154" lon="-2.456280011683703">
        <ele>13.6</ele>
        <time>2003-04-12T17:56:25Z</time>
      </trkpt>
      <trkpt lat="36.835452988743782" lon="-2.456410015001893">
        <ele>13.4</ele>
        <time>2003-04-12T17:56:28Z</time>
      </trkpt>
      <trkpt lat="36.835292978212237" lon="-2.456457959488034">
        <ele>12.6</ele>
        <time>2003-04-12T17:56:29Z</time>
      </trkpt>
      <trkpt lat="36.835215026512742" lon="-2.456516968086362">
        <ele>12.4</ele>
        <time>2003-04-12T17:56:30Z</time>
      </trkpt>
      <trkpt lat="36.83514503762126" lon="-2.456601960584521">
        <ele>12.199999999999999</ele>
        <time>2003-04-12T17:56:32Z</time>
      </trkpt>
      <trkpt lat="36.835025008767843" lon="-2.456806981936097">
        <ele>12.300000000000001</ele>
        <time>2003-04-12T17:56:33Z</time>
      </trkpt>
      <trkpt lat="36.834872961044312" lon="-2.457181988283992">
        <ele>12.1</ele>
        <time>2003-04-12T17:56:37Z</time>
      </trkpt>
      <trkpt lat="36.834472976624966" lon="-2.458132999017835">
        <ele>13.800000000000001</ele>
        <time>2003-04-12T17:56:45Z</time>
      </trkpt>
      <trkpt lat="36.834429977461696" lon="-2.458237018436194">
        <ele>13.9</ele>
        <time>2003-04-12T17:56:47Z</time>
      </trkpt>
      <trkpt lat="36.834329981356859" lon="-2.458410020917654">
        <ele>21</ele>
        <time>2003-04-12T17:57:19Z</time>
      </trkpt>
      <trkpt lat="36.8342449888587" lon="-2.458619987592101">
        <ele>20</ele>
        <time>2003-04-12T17:57:23Z</time>
      </trkpt>
      <trkpt lat="36.834162008017302" lon="-2.458825008943677">
        <ele>19.199999999999999</ele>
        <time>2003-04-12T17:57:24Z</time>
      </trkpt>
      <trkpt lat="36.833741990849376" lon="-2.459835028275847">
        <ele>16.399999999999999</ele>
        <time>2003-04-12T17:57:35Z</time>
      </trkpt>
      <trkpt lat="36.833667978644371" lon="-2.460020016878843">
        <ele>16</ele>
        <time>2003-04-12T17:57:38Z</time>
      </trkpt>
      <trkpt lat="36.833673007786274" lon="-2.46016301214695">
        <ele>13.699999999999999</ele>
        <time>2003-04-12T17:58:25Z</time>
      </trkpt>
      <trkpt lat="36.833597989752889" lon="-2.460414972156286">
        <ele>13.5</ele>
        <time>2003-04-12T17:58:29Z</time>
      </trkpt>
      <trkpt lat="36.833584997802973" lon="-2.4605299718678">
        <ele>13.4</ele>
        <time>2003-04-12T17:58:29Z</time>
      </trkpt>
      <trkpt lat="36.833543004468083" lon="-2.461618026718497">
        <ele>11.6</ele>
        <time>2003-04-12T17:58:40Z</time>
      </trkpt>
      <trkpt lat="36.833564965054393" lon="-2.461924972012639">
        <ele>10.699999999999999</ele>
        <time>2003-04-12T17:58:43Z</time>
      </trkpt>
      <trkpt lat="36.833675019443035" lon="-2.462667021900415">
        <ele>11.1</ele>
        <time>2003-04-12T17:58:52Z</time>
      </trkpt>
      <trkpt lat="36.833727993071079" lon="-2.462765006348491">
        <ele>11.699999999999999</ele>
        <time>2003-04-12T17:58:56Z</time>
      </trkpt>
      <trkpt lat="36.833890015259385" lon="-2.463072035461664">
        <ele>12.9</ele>
        <time>2003-04-12T17:59:24Z</time>
      </trkpt>
      <trkpt lat="36.834060000255704" lon="-2.46353798545897">
        <ele>11.1</ele>
        <time>2003-04-12T17:59:33Z</time>
      </trkpt>
      <trkpt lat="36.834060000255704" lon="-2.463662037625909">
        <ele>10.6</ele>
        <time>2003-04-12T17:59:34Z</time>
      </trkpt>
      <trkpt lat="36.833999985828996" lon="-2.463777037337422">
        <ele>10.300000000000001</ele>
        <time>2003-04-12T17:59:37Z</time>
      </trkpt>
      <trkpt lat="36.833912981674075" lon="-2.463873010128737">
        <ele>10.1</ele>
        <time>2003-04-12T17:59:38Z</time>
      </trkpt>
      <trkpt lat="36.833788007497787" lon="-2.464035032317042">
        <ele>9.6</ele>
        <time>2003-04-12T17:59:42Z</time>
      </trkpt>
      <trkpt lat="36.833769986405969" lon="-2.464177021756768">
        <ele>9.300000000000001</ele>
        <time>2003-04-12T17:59:45Z</time>
      </trkpt>
      <trkpt lat="36.833832012489438" lon="-2.46431197039783">
        <ele>9.1</ele>
        <time>2003-04-12T17:59:46Z</time>
      </trkpt>
      <trkpt lat="36.833954975008965" lon="-2.464541969820857">
        <ele>8.9</ele>
        <time>2003-04-12T17:59:50Z</time>
      </trkpt>
      <trkpt lat="36.834167037159204" lon="-2.464931979775429">
        <ele>9</ele>
        <time>2003-04-12T17:59:53Z</time>
      </trkpt>
      <trkpt lat="36.834640027955174" lon="-2.465779976919293">
        <ele>9.4</ele>
        <time>2003-04-12T18:00:01Z</time>
      </trkpt>
      <trkpt lat="36.834765002131462" lon="-2.465982986614108">
        <ele>9.199999999999999</ele>
        <time>2003-04-12T18:00:05Z</time>
      </trkpt>
      <trkpt lat="36.835142020136118" lon="-2.466641971841455">
        <ele>10.699999999999999</ele>
        <time>2003-04-12T18:00:14Z</time>
      </trkpt>
      <trkpt lat="36.835460029542446" lon="-2.467187969014049">
        <ele>11.699999999999999</ele>
        <time>2003-04-12T18:00:21Z</time>
      </trkpt>
      <trkpt lat="36.835542004555464" lon="-2.467329958453775">
        <ele>12.1</ele>
        <time>2003-04-12T18:00:21Z</time>
      </trkpt>
      <trkpt lat="36.835884992033243" lon="-2.468032026663423">
        <ele>11.800000000000001</ele>
        <time>2003-04-12T18:00:27Z</time>
      </trkpt>
      <trkpt lat="36.83613502420485" lon="-2.468768041580916">
        <ele>11</ele>
        <time>2003-04-12T18:00:31Z</time>
      </trkpt>
      <trkpt lat="36.836512964218855" lon="-2.470000013709068">
        <ele>10.4</ele>
        <time>2003-04-12T18:00:36Z</time>
      </trkpt>
      <trkpt lat="36.836870033293962" lon="-2.471140036359429">
        <ele>9.9</ele>
        <time>2003-04-12T18:00:41Z</time>
      </trkpt>
      <trkpt lat="36.837213020771742" lon="-2.472237981855869">
        <ele>9.5</ele>
        <time>2003-04-12T18:00:47Z</time>
      </trkpt>
      <trkpt lat="36.837515020743012" lon="-2.47339996509254">
        <ele>9.199999999999999</ele>
        <time>2003-04-12T18:00:52Z</time>
      </trkpt>
      <trkpt lat="36.837542010471225" lon="-2.473974963650107">
        <ele>9.5</ele>
        <time>2003-04-12T18:00:55Z</time>
      </trkpt>
      <trkpt lat="36.837449977174401" lon="-2.47513803653419">
        <ele>9</ele>
        <time>2003-04-12T18:01:02Z</time>
      </trkpt>
      <trkpt lat="36.837327014654875" lon="-2.476398004218936">
        <ele>10.4</ele>
        <time>2003-04-12T18:01:08Z</time>
      </trkpt>
      <trkpt lat="36.837212014943361" lon="-2.477407017722726">
        <ele>9.300000000000001</ele>
        <time>2003-04-12T18:01:15Z</time>
      </trkpt>
      <trkpt lat="36.837259959429502" lon="-2.477891994640231">
        <ele>8.5</ele>
        <time>2003-04-12T18:01:18Z</time>
      </trkpt>
      <trkpt lat="36.837302036583424" lon="-2.478155018761754">
        <ele>8.199999999999999</ele>
        <time>2003-04-12T18:01:19Z</time>
      </trkpt>
      <trkpt lat="36.837321985512972" lon="-2.478368002921343">
        <ele>8.199999999999999</ele>
        <time>2003-04-12T18:01:22Z</time>
      </trkpt>
      <trkpt lat="36.837336989119649" lon="-2.478860020637512">
        <ele>7.8</ele>
        <time>2003-04-12T18:01:26Z</time>
      </trkpt>
      <trkpt lat="36.837343024089932" lon="-2.479007039219141">
        <ele>7.3</ele>
        <time>2003-04-12T18:01:29Z</time>
      </trkpt>
      <trkpt lat="36.837398009374738" lon="-2.479132013395429">
        <ele>7.7</ele>
        <time>2003-04-12T18:01:30Z</time>
      </trkpt>
      <trkpt lat="36.837491970509291" lon="-2.47935002669692">
        <ele>7.3</ele>
        <time>2003-04-12T18:01:34Z</time>
      </trkpt>
      <trkpt lat="36.837452994659543" lon="-2.479502996429801">
        <ele>7.4</ele>
        <time>2003-04-12T18:01:35Z</time>
      </trkpt>
      <trkpt lat="36.837346963584423" lon="-2.479599975049496">
        <ele>7.4</ele>
        <time>2003-04-12T18:01:38Z</time>
      </trkpt>
      <trkpt lat="36.837215032428503" lon="-2.479569967836142">
        <ele>7.6</ele>
        <time>2003-04-12T18:01:39Z</time>
      </trkpt>
      <trkpt lat="36.837121993303299" lon="-2.479482041671872">
        <ele>7.3</ele>
        <time>2003-04-12T18:01:42Z</time>
      </trkpt>
      <trkpt lat="36.837072959169745" lon="-2.479354972019792">
        <ele>7.1</ele>
        <time>2003-04-12T18:01:44Z</time>
      </trkpt>
      <trkpt lat="36.837067008018494" lon="-2.479205019772053">
        <ele>6.6</ele>
        <time>2003-04-12T18:01:46Z</time>
      </trkpt>
      <trkpt lat="36.837021997198462" lon="-2.479078033939004">
        <ele>6.4</ele>
        <time>2003-04-12T18:01:48Z</time>
      </trkpt>
      <trkpt lat="36.836943039670587" lon="-2.478997986763716">
        <ele>6.1</ele>
        <time>2003-04-12T18:01:49Z</time>
      </trkpt>
      <trkpt lat="36.836808007210493" lon="-2.478978037834168">
        <ele>5.7</ele>
        <time>2003-04-12T18:01:53Z</time>
      </trkpt>
      <trkpt lat="36.836710022762418" lon="-2.479003015905619">
        <ele>5.6</ele>
        <time>2003-04-12T18:01:54Z</time>
      </trkpt>
      <trkpt lat="36.836574990302324" lon="-2.479060012847185">
        <ele>5.1</ele>
        <time>2003-04-12T18:01:57Z</time>
      </trkpt>
      <trkpt lat="36.83645797893405" lon="-2.479011984542012">
        <ele>5.2</ele>
        <time>2003-04-12T18:01:58Z</time>
      </trkpt>
      <trkpt lat="36.836402993649244" lon="-2.478858008980751">
        <ele>5.3</ele>
        <time>2003-04-12T18:02:01Z</time>
      </trkpt>
      <trkpt lat="36.836459990590811" lon="-2.478690035641193">
        <ele>5.2</ele>
        <time>2003-04-12T18:02:02Z</time>
      </trkpt>
      <trkpt lat="36.836595023050904" lon="-2.478587022051215">
        <ele>5</ele>
        <time>2003-04-12T18:02:05Z</time>
      </trkpt>
      <trkpt lat="36.83673701249063" lon="-2.478451989591122">
        <ele>4.8</ele>
        <time>2003-04-12T18:02:06Z</time>
      </trkpt>
      <trkpt lat="36.836829967796803" lon="-2.478251997381449">
        <ele>4.9</ele>
        <time>2003-04-12T18:02:09Z</time>
      </trkpt>
      <trkpt lat="36.8369319755584" lon="-2.477865004912019">
        <ele>4.9</ele>
        <time>2003-04-12T18:02:12Z</time>
      </trkpt>
      <trkpt lat="36.837013028562069" lon="-2.477262010797858">
        <ele>5.6</ele>
        <time>2003-04-12T18:02:16Z</time>
      </trkpt>
      <trkpt lat="36.837101960554719" lon="-2.476562038064003">
        <ele>6.6</ele>
        <time>2003-04-12T18:02:20Z</time>
      </trkpt>
      <trkpt lat="36.83723296970129" lon="-2.475683027878404">
        <ele>7.2</ele>
        <time>2003-04-12T18:02:24Z</time>
      </trkpt>
      <trkpt lat="36.837285021319985" lon="-2.47490200214088">
        <ele>7.1</ele>
        <time>2003-04-12T18:02:29Z</time>
      </trkpt>
      <trkpt lat="36.837268006056547" lon="-2.474782979115844">
        <ele>7.3</ele>
        <time>2003-04-12T18:02:31Z</time>
      </trkpt>
      <trkpt lat="36.837202040478587" lon="-2.474603019654751">
        <ele>7.3</ele>
        <time>2003-04-12T18:02:32Z</time>
      </trkpt>
      <trkpt lat="36.837097015231848" lon="-2.474477961659432">
        <ele>7.3</ele>
        <time>2003-04-12T18:02:35Z</time>
      </trkpt>
      <trkpt lat="36.836992995813489" lon="-2.474354999139905">
        <ele>7.1</ele>
        <time>2003-04-12T18:02:36Z</time>
      </trkpt>
      <trkpt lat="36.836986960843205" lon="-2.474181996658444">
        <ele>6.9</ele>
        <time>2003-04-12T18:02:39Z</time>
      </trkpt>
      <trkpt lat="36.837089974433184" lon="-2.474049981683493">
        <ele>6.7</ele>
        <time>2003-04-12T18:02:40Z</time>
      </trkpt>
      <trkpt lat="36.837246967479587" lon="-2.474006982520223">
        <ele>6.7</ele>
        <time>2003-04-12T18:02:43Z</time>
      </trkpt>
      <trkpt lat="36.837345035746694" lon="-2.473873039707542">
        <ele>6.8</ele>
        <time>2003-04-12T18:02:44Z</time>
      </trkpt>
      <trkpt lat="36.837352998554707" lon="-2.473646979779005">
        <ele>6.8</ele>
        <time>2003-04-12T18:02:47Z</time>
      </trkpt>
      <trkpt lat="36.83731796219945" lon="-2.473386973142624">
        <ele>6.7</ele>
        <time>2003-04-12T18:02:48Z</time>
      </trkpt>
      <trkpt lat="36.837255014106631" lon="-2.473087990656495">
        <ele>6.9</ele>
        <time>2003-04-12T18:02:51Z</time>
      </trkpt>
      <trkpt lat="36.837110007181764" lon="-2.472587004303932">
        <ele>7</ele>
        <time>2003-04-12T18:02:54Z</time>
      </trkpt>
      <trkpt lat="36.836768025532365" lon="-2.47146500274539">
        <ele>6.9</ele>
        <time>2003-04-12T18:02:59Z</time>
      </trkpt>
      <trkpt lat="36.836396958678961" lon="-2.470254991203547">
        <ele>7.1</ele>
        <time>2003-04-12T18:03:06Z</time>
      </trkpt>
      <trkpt lat="36.836072998121381" lon="-2.469197027385235">
        <ele>7</ele>
        <time>2003-04-12T18:03:11Z</time>
      </trkpt>
      <trkpt lat="36.835850039497018" lon="-2.468611970543861">
        <ele>7</ele>
        <time>2003-04-12T18:03:15Z</time>
      </trkpt>
      <trkpt lat="36.835606964305043" lon="-2.467970000579953">
        <ele>6.3</ele>
        <time>2003-04-12T18:03:21Z</time>
      </trkpt>
      <trkpt lat="36.835472015663981" lon="-2.467664983123541">
        <ele>6.3</ele>
        <time>2003-04-12T18:03:23Z</time>
      </trkpt>
      <trkpt lat="36.835392974317074" lon="-2.467528022825718">
        <ele>5.9</ele>
        <time>2003-04-12T18:03:26Z</time>
      </trkpt>
      <trkpt lat="36.83529800735414" lon="-2.467367006465793">
        <ele>5.7</ele>
        <time>2003-04-12T18:03:29Z</time>
      </trkpt>
      <trkpt lat="36.835203040391207" lon="-2.467198027297854">
        <ele>5.5</ele>
        <time>2003-04-12T18:03:33Z</time>
      </trkpt>
      <trkpt lat="36.835087034851313" lon="-2.466989988461137">
        <ele>5.2</ele>
        <time>2003-04-12T18:03:37Z</time>
      </trkpt>
      <trkpt lat="36.834958037361503" lon="-2.466774992644787">
        <ele>5.1</ele>
        <time>2003-04-12T18:03:40Z</time>
      </trkpt>
      <trkpt lat="36.834662994369864" lon="-2.466247016564012">
        <ele>4.9</ele>
        <time>2003-04-12T18:03:46Z</time>
      </trkpt>
      <trkpt lat="36.834407011047006" lon="-2.465796992182732">
        <ele>4.8</ele>
        <time>2003-04-12T18:03:53Z</time>
      </trkpt>
      <trkpt lat="36.834231996908784" lon="-2.465489963069558">
        <ele>4.7</ele>
        <time>2003-04-12T18:03:57Z</time>
      </trkpt>
      <trkpt lat="36.833807034417987" lon="-2.464807005599141">
        <ele>5</ele>
        <time>2003-04-12T18:04:05Z</time>
      </trkpt>
      <trkpt lat="36.833720030263066" lon="-2.464712960645556">
        <ele>5.1</ele>
        <time>2003-04-12T18:04:08Z</time>
      </trkpt>
      <trkpt lat="36.833626991137862" lon="-2.464698040857911">
        <ele>5.2</ele>
        <time>2003-04-12T18:04:09Z</time>
      </trkpt>
      <trkpt lat="36.833490030840039" lon="-2.464752020314336">
        <ele>5.2</ele>
        <time>2003-04-12T18:04:12Z</time>
      </trkpt>
      <trkpt lat="36.833437979221344" lon="-2.464968021959066">
        <ele>4.6</ele>
        <time>2003-04-12T18:04:16Z</time>
      </trkpt>
      <trkpt lat="36.833502016961575" lon="-2.465097019448876">
        <ele>4.4</ele>
        <time>2003-04-12T18:04:19Z</time>
      </trkpt>
      <trkpt lat="36.833636965602636" lon="-2.465300029143691">
        <ele>4.5</ele>
        <time>2003-04-12T18:04:21Z</time>
      </trkpt>
      <trkpt lat="36.83370997197926" lon="-2.465461967512965">
        <ele>4.9</ele>
        <time>2003-04-12T18:04:24Z</time>
      </trkpt>
      <trkpt lat="36.833833018317819" lon="-2.465718034654856">
        <ele>5.1</ele>
        <time>2003-04-12T18:04:27Z</time>
      </trkpt>
      <trkpt lat="36.834039967507124" lon="-2.466075019910932">
        <ele>5.6</ele>
        <time>2003-04-12T18:04:31Z</time>
      </trkpt>
      <trkpt lat="36.834102999418974" lon="-2.466192031279206">
        <ele>6</ele>
        <time>2003-04-12T18:04:35Z</time>
      </trkpt>
      <trkpt lat="36.834152033552527" lon="-2.466312982141972">
        <ele>6.7</ele>
        <time>2003-04-12T18:04:43Z</time>
      </trkpt>
      <trkpt lat="36.834123032167554" lon="-2.466427981853485">
        <ele>6.7</ele>
        <time>2003-04-12T18:04:46Z</time>
      </trkpt>
      <trkpt lat="36.83398699387908" lon="-2.466601990163326">
        <ele>4.2</ele>
        <time>2003-04-12T18:05:06Z</time>
      </trkpt>
      <trkpt lat="36.833971990272403" lon="-2.466610036790371">
        <ele>0.7</ele>
        <time>2003-04-12T18:06:55Z</time>
      </trkpt>
    </trkseg>
  </trk>

  <trk>
    <name>030413</name>
    <extensions>
      <gpxx:TrackExtension xmlns:gpxx="http://www.garmin.com/xmlschemas/GpxExtensions/v3">
        <gpxx:DisplayColor>Red</gpxx:DisplayColor>
      </gpxx:TrackExtension>
    </extensions>
    <trkseg>
      <trkpt lat="35.27145498432219" lon="-2.927044993266463">
        <ele>5.5</ele>
        <time>2003-04-13T06:44:27Z</time>
      </trkpt>
      <trkpt lat="35.269209975376725" lon="-2.927322015166283">
        <ele>-236.80000000000001</ele>
        <time>2003-04-13T06:50:48Z</time>
      </trkpt>
      <trkpt lat="35.269136969000101" lon="-2.927256971597672">
        <ele>-15.9</ele>
        <time>2003-04-13T06:50:52Z</time>
      </trkpt>
      <trkpt lat="35.268722986802459" lon="-2.926808036863804">
        <ele>17.100000000000001</ele>
        <time>2003-04-13T06:52:05Z</time>
      </trkpt>
      <trkpt lat="35.268762968480587" lon="-2.92690996080637">
        <ele>173.59999999999999</ele>
        <time>2003-04-13T06:52:10Z</time>
      </trkpt>
      <trkpt lat="35.268882997334003" lon="-2.92708002962172">
        <ele>114.5</ele>
        <time>2003-04-13T06:52:17Z</time>
      </trkpt>
      <trkpt lat="35.269015012308955" lon="-2.927227970212698">
        <ele>57.200000000000003</ele>
        <time>2003-04-13T06:53:06Z</time>
      </trkpt>
      <trkpt lat="35.269107967615128" lon="-2.92733701877296">
        <ele>14.199999999999999</ele>
        <time>2003-04-13T06:54:40Z</time>
      </trkpt>
      <trkpt lat="35.268852990120649" lon="-2.927604988217354">
        <ele>14.6</ele>
        <time>2003-04-13T07:08:26Z</time>
      </trkpt>
      <trkpt lat="35.268727010115981" lon="-2.927772961556912">
        <ele>14.300000000000001</ele>
        <time>2003-04-13T07:08:33Z</time>
      </trkpt>
      <trkpt lat="35.268673030659556" lon="-2.927872035652399">
        <ele>14.1</ele>
        <time>2003-04-13T07:08:36Z</time>
      </trkpt>
      <trkpt lat="35.268568005412817" lon="-2.928031962364912">
        <ele>14</ele>
        <time>2003-04-13T07:08:38Z</time>
      </trkpt>
      <trkpt lat="35.268359966576099" lon="-2.928347960114479">
        <ele>13.300000000000001</ele>
        <time>2003-04-13T07:08:45Z</time>
      </trkpt>
      <trkpt lat="35.26829500682652" lon="-2.928473018109798">
        <ele>13.199999999999999</ele>
        <time>2003-04-13T07:08:48Z</time>
      </trkpt>
      <trkpt lat="35.268240021541715" lon="-2.928575025871396">
        <ele>13.300000000000001</ele>
        <time>2003-04-13T07:08:52Z</time>
      </trkpt>
      <trkpt lat="35.268182018771768" lon="-2.928679967299104">
        <ele>13.300000000000001</ele>
        <time>2003-04-13T07:08:57Z</time>
      </trkpt>
      <trkpt lat="35.268089985474944" lon="-2.928832015022636">
        <ele>13.199999999999999</ele>
        <time>2003-04-13T07:09:46Z</time>
      </trkpt>
      <trkpt lat="35.268031982704997" lon="-2.92892798781395">
        <ele>12.699999999999999</ele>
        <time>2003-04-13T07:10:12Z</time>
      </trkpt>
      <trkpt lat="35.267902985215187" lon="-2.929127980023623">
        <ele>12.5</ele>
        <time>2003-04-13T07:10:25Z</time>
      </trkpt>
      <trkpt lat="35.267741968855262" lon="-2.929333001375198">
        <ele>12.199999999999999</ele>
        <time>2003-04-13T07:11:04Z</time>
      </trkpt>
      <trkpt lat="35.267592016607523" lon="-2.92929301969707">
        <ele>10.699999999999999</ele>
        <time>2003-04-13T07:11:54Z</time>
      </trkpt>
      <trkpt lat="35.267484979704022" lon="-2.929226970300078">
        <ele>12.5</ele>
        <time>2003-04-13T07:12:28Z</time>
      </trkpt>
      <trkpt lat="35.267386995255947" lon="-2.929127980023623">
        <ele>12.300000000000001</ele>
        <time>2003-04-13T07:12:31Z</time>
      </trkpt>
      <trkpt lat="35.267017018049955" lon="-2.928814999759197">
        <ele>11.800000000000001</ele>
        <time>2003-04-13T07:12:37Z</time>
      </trkpt>
      <trkpt lat="35.266930013895035" lon="-2.928767977282405">
        <ele>11.5</ele>
        <time>2003-04-13T07:12:40Z</time>
      </trkpt>
      <trkpt lat="35.266777966171503" lon="-2.92884299531579">
        <ele>11.5</ele>
        <time>2003-04-13T07:12:48Z</time>
      </trkpt>
      <trkpt lat="35.266722980886698" lon="-2.928978027775884">
        <ele>11.699999999999999</ele>
        <time>2003-04-13T07:12:50Z</time>
      </trkpt>
      <trkpt lat="35.266379993408918" lon="-2.929725022986531">
        <ele>11.5</ele>
        <time>2003-04-13T07:13:02Z</time>
      </trkpt>
      <trkpt lat="35.266228029504418" lon="-2.930061975494027">
        <ele>11.4</ele>
        <time>2003-04-13T07:13:07Z</time>
      </trkpt>
      <trkpt lat="35.266140019521117" lon="-2.930258028209209">
        <ele>11</ele>
        <time>2003-04-13T07:13:11Z</time>
      </trkpt>
      <trkpt lat="35.265812035650015" lon="-2.930984990671277">
        <ele>11.1</ele>
        <time>2003-04-13T07:13:26Z</time>
      </trkpt>
      <trkpt lat="35.265741962939501" lon="-2.931148018687964">
        <ele>11.300000000000001</ele>
        <time>2003-04-13T07:13:27Z</time>
      </trkpt>
      <trkpt lat="35.265469970181584" lon="-2.931808009743691">
        <ele>12.300000000000001</ele>
        <time>2003-04-13T07:13:37Z</time>
      </trkpt>
      <trkpt lat="35.265314988791943" lon="-2.932185027748346">
        <ele>12</ele>
        <time>2003-04-13T07:13:42Z</time>
      </trkpt>
      <trkpt lat="35.265214992687106" lon="-2.932391976937652">
        <ele>12.4</ele>
        <time>2003-04-13T07:13:45Z</time>
      </trkpt>
      <trkpt lat="35.26509303599596" lon="-2.932643014937639">
        <ele>12.5</ele>
        <time>2003-04-13T07:13:46Z</time>
      </trkpt>
      <trkpt lat="35.264637982472777" lon="-2.93361296877265">
        <ele>14.5</ele>
        <time>2003-04-13T07:13:54Z</time>
      </trkpt>
      <trkpt lat="35.264394991099834" lon="-2.934143040329218">
        <ele>15.800000000000001</ele>
        <time>2003-04-13T07:13:58Z</time>
      </trkpt>
      <trkpt lat="35.26386802084744" lon="-2.935250038281083">
        <ele>19</ele>
        <time>2003-04-13T07:14:05Z</time>
      </trkpt>
      <trkpt lat="35.263359993696213" lon="-2.936343038454652">
        <ele>22.699999999999999</ele>
        <time>2003-04-13T07:14:12Z</time>
      </trkpt>
      <trkpt lat="35.262851966544986" lon="-2.937266975641251">
        <ele>26.100000000000001</ele>
        <time>2003-04-13T07:14:17Z</time>
      </trkpt>
      <trkpt lat="35.262428009882569" lon="-2.937818001955748">
        <ele>28.600000000000001</ele>
        <time>2003-04-13T07:14:21Z</time>
      </trkpt>
      <trkpt lat="35.261895004659891" lon="-2.938328040763736">
        <ele>31.300000000000001</ele>
        <time>2003-04-13T07:14:25Z</time>
      </trkpt>
      <trkpt lat="35.261295028030872" lon="-2.938731964677572">
        <ele>33.899999999999999</ele>
        <time>2003-04-13T07:14:29Z</time>
      </trkpt>
      <trkpt lat="35.260472008958459" lon="-2.939118035137653">
        <ele>36.200000000000003</ele>
        <time>2003-04-13T07:14:35Z</time>
      </trkpt>
      <trkpt lat="35.259910002350807" lon="-2.93926203623414">
        <ele>37.399999999999999</ele>
        <time>2003-04-13T07:14:38Z</time>
      </trkpt>
      <trkpt lat="35.259327040985227" lon="-2.939287014305592">
        <ele>38.200000000000003</ele>
        <time>2003-04-13T07:14:40Z</time>
      </trkpt>
      <trkpt lat="35.258334958925843" lon="-2.939137984067202">
        <ele>38.799999999999997</ele>
        <time>2003-04-13T07:14:46Z</time>
      </trkpt>
      <trkpt lat="35.257304990664124" lon="-2.938998006284237">
        <ele>39.299999999999997</ele>
        <time>2003-04-13T07:14:51Z</time>
      </trkpt>
      <trkpt lat="35.257035009562969" lon="-2.939019966870546">
        <ele>39.399999999999999</ele>
        <time>2003-04-13T07:14:54Z</time>
      </trkpt>
      <trkpt lat="35.25682495906949" lon="-2.939043017104268">
        <ele>39.700000000000003</ele>
        <time>2003-04-13T07:14:55Z</time>
      </trkpt>
      <trkpt lat="35.256639970466495" lon="-2.939075035974383">
        <ele>39.899999999999999</ele>
        <time>2003-04-13T07:14:58Z</time>
      </trkpt>
      <trkpt lat="35.256115011870861" lon="-2.939237980172038">
        <ele>40.399999999999999</ele>
        <time>2003-04-13T07:15:03Z</time>
      </trkpt>
      <trkpt lat="35.255717961117625" lon="-2.939424980431795">
        <ele>40.799999999999997</ele>
        <time>2003-04-13T07:15:06Z</time>
      </trkpt>
      <trkpt lat="35.254823025316" lon="-2.939912974834442">
        <ele>41.399999999999999</ele>
        <time>2003-04-13T07:15:11Z</time>
      </trkpt>
      <trkpt lat="35.253851981833577" lon="-2.940431982278824">
        <ele>41.5</ele>
        <time>2003-04-13T07:15:18Z</time>
      </trkpt>
      <trkpt lat="35.253267008811235" lon="-2.940661981701851">
        <ele>40.799999999999997</ele>
        <time>2003-04-13T07:15:22Z</time>
      </trkpt>
      <trkpt lat="35.253022005781531" lon="-2.940721996128559">
        <ele>40.399999999999999</ele>
        <time>2003-04-13T07:15:23Z</time>
      </trkpt>
      <trkpt lat="35.252299988642335" lon="-2.94081000611186">
        <ele>38.5</ele>
        <time>2003-04-13T07:15:30Z</time>
      </trkpt>
      <trkpt lat="35.251649972051382" lon="-2.940762983635068">
        <ele>36.399999999999999</ele>
        <time>2003-04-13T07:15:34Z</time>
      </trkpt>
      <trkpt lat="35.251317964866757" lon="-2.940695006400347">
        <ele>35.200000000000003</ele>
        <time>2003-04-13T07:15:37Z</time>
      </trkpt>
      <trkpt lat="35.251043038442731" lon="-2.940614959225059">
        <ele>33.899999999999999</ele>
        <time>2003-04-13T07:15:41Z</time>
      </trkpt>
      <trkpt lat="35.25052503682673" lon="-2.940404992550612">
        <ele>31.600000000000001</ele>
        <time>2003-04-13T07:15:45Z</time>
      </trkpt>
      <trkpt lat="35.250027989968657" lon="-2.940125036984682">
        <ele>28.899999999999999</ele>
        <time>2003-04-13T07:15:49Z</time>
      </trkpt>
      <trkpt lat="35.249551981687546" lon="-2.939754975959659">
        <ele>26.600000000000001</ele>
        <time>2003-04-13T07:15:53Z</time>
      </trkpt>
      <trkpt lat="35.248946975916624" lon="-2.93919799849391">
        <ele>23.399999999999999</ele>
        <time>2003-04-13T07:16:00Z</time>
      </trkpt>
      <trkpt lat="35.248157987371087" lon="-2.938472041860223">
        <ele>20.899999999999999</ele>
        <time>2003-04-13T07:16:08Z</time>
      </trkpt>
      <trkpt lat="35.247385008260608" lon="-2.937757987529039">
        <ele>20.600000000000001</ele>
        <time>2003-04-13T07:16:16Z</time>
      </trkpt>
      <trkpt lat="35.246629966422915" lon="-2.937067989259958">
        <ele>20.5</ele>
        <time>2003-04-13T07:16:24Z</time>
      </trkpt>
      <trkpt lat="35.246044993400574" lon="-2.936517968773842">
        <ele>20.300000000000001</ele>
        <time>2003-04-13T07:16:30Z</time>
      </trkpt>
      <trkpt lat="35.245230020955205" lon="-2.935765022411943">
        <ele>20.199999999999999</ele>
        <time>2003-04-13T07:16:36Z</time>
      </trkpt>
      <trkpt lat="35.244378000497818" lon="-2.935082986950874">
        <ele>18.699999999999999</ele>
        <time>2003-04-13T07:16:43Z</time>
      </trkpt>
      <trkpt lat="35.243850024417043" lon="-2.934800013899803">
        <ele>18.100000000000001</ele>
        <time>2003-04-13T07:16:47Z</time>
      </trkpt>
      <trkpt lat="35.242932038381696" lon="-2.934491978958249">
        <ele>17.399999999999999</ele>
        <time>2003-04-13T07:16:54Z</time>
      </trkpt>
      <trkpt lat="35.241968035697937" lon="-2.934186961501837">
        <ele>16.399999999999999</ele>
        <time>2003-04-13T07:16:59Z</time>
      </trkpt>
      <trkpt lat="35.240976959466934" lon="-2.933876998722553">
        <ele>15.5</ele>
        <time>2003-04-13T07:17:06Z</time>
      </trkpt>
      <trkpt lat="35.240504974499345" lon="-2.933726962655783">
        <ele>14.800000000000001</ele>
        <time>2003-04-13T07:17:10Z</time>
      </trkpt>
      <trkpt lat="35.239863004535437" lon="-2.933531999588013">
        <ele>14</ele>
        <time>2003-04-13T07:17:15Z</time>
      </trkpt>
      <trkpt lat="35.238948035985231" lon="-2.933248020708561">
        <ele>13.9</ele>
        <time>2003-04-13T07:17:22Z</time>
      </trkpt>
      <trkpt lat="35.238067014142871" lon="-2.9329679813236">
        <ele>14.300000000000001</ele>
        <time>2003-04-13T07:17:28Z</time>
      </trkpt>
      <trkpt lat="35.237108040601015" lon="-2.93266799300909">
        <ele>14.9</ele>
        <time>2003-04-13T07:17:34Z</time>
      </trkpt>
      <trkpt lat="35.236117970198393" lon="-2.9323669988662">
        <ele>16.300000000000001</ele>
        <time>2003-04-13T07:17:41Z</time>
      </trkpt>
      <trkpt lat="35.235199984163046" lon="-2.932061981409788">
        <ele>17.800000000000001</ele>
        <time>2003-04-13T07:17:48Z</time>
      </trkpt>
      <trkpt lat="35.23456203751266" lon="-2.931759981438518">
        <ele>19.199999999999999</ele>
        <time>2003-04-13T07:17:52Z</time>
      </trkpt>
      <trkpt lat="35.233942028135061" lon="-2.931312974542379">
        <ele>20</ele>
        <time>2003-04-13T07:17:56Z</time>
      </trkpt>
      <trkpt lat="35.233084978535771" lon="-2.930532032623887">
        <ele>19.600000000000001</ele>
        <time>2003-04-13T07:18:01Z</time>
      </trkpt>
      <trkpt lat="35.232270006090403" lon="-2.929783025756478">
        <ele>19.100000000000001</ele>
        <time>2003-04-13T07:18:08Z</time>
      </trkpt>
      <trkpt lat="35.231453021988273" lon="-2.92903502471745">
        <ele>18.399999999999999</ele>
        <time>2003-04-13T07:18:15Z</time>
      </trkpt>
      <trkpt lat="35.230642994865775" lon="-2.928302027285099">
        <ele>17.699999999999999</ele>
        <time>2003-04-13T07:18:22Z</time>
      </trkpt>
      <trkpt lat="35.229773037135601" lon="-2.927559977397323">
        <ele>16.800000000000001</ele>
        <time>2003-04-13T07:18:27Z</time>
      </trkpt>
      <trkpt lat="35.228886986151338" lon="-2.926962012425065">
        <ele>16.800000000000001</ele>
        <time>2003-04-13T07:18:34Z</time>
      </trkpt>
      <trkpt lat="35.228045023977757" lon="-2.926536966115236">
        <ele>16.699999999999999</ele>
        <time>2003-04-13T07:18:39Z</time>
      </trkpt>
      <trkpt lat="35.227032992988825" lon="-2.926103034988046">
        <ele>16.5</ele>
        <time>2003-04-13T07:18:46Z</time>
      </trkpt>
      <trkpt lat="35.226102015003562" lon="-2.925706990063191">
        <ele>16.100000000000001</ele>
        <time>2003-04-13T07:18:50Z</time>
      </trkpt>
      <trkpt lat="35.225144969299436" lon="-2.925289990380406">
        <ele>16.199999999999999</ele>
        <time>2003-04-13T07:18:55Z</time>
      </trkpt>
      <trkpt lat="35.224387999624014" lon="-2.924865027889609">
        <ele>16.100000000000001</ele>
        <time>2003-04-13T07:18:59Z</time>
      </trkpt>
      <trkpt lat="35.223718034103513" lon="-2.924281982704997">
        <ele>16.800000000000001</ele>
        <time>2003-04-13T07:19:03Z</time>
      </trkpt>
      <trkpt lat="35.223285024985671" lon="-2.923743026331067">
        <ele>18.300000000000001</ele>
        <time>2003-04-13T07:19:06Z</time>
      </trkpt>
      <trkpt lat="35.222620004788041" lon="-2.922732001170516">
        <ele>21.100000000000001</ele>
        <time>2003-04-13T07:19:12Z</time>
      </trkpt>
      <trkpt lat="35.221918020397425" lon="-2.921876963227987">
        <ele>24.199999999999999</ele>
        <time>2003-04-13T07:19:17Z</time>
      </trkpt>
      <trkpt lat="35.221072034910321" lon="-2.92123700492084">
        <ele>25.199999999999999</ele>
        <time>2003-04-13T07:19:21Z</time>
      </trkpt>
      <trkpt lat="35.220137033611536" lon="-2.920744987204671">
        <ele>24.5</ele>
        <time>2003-04-13T07:19:26Z</time>
      </trkpt>
      <trkpt lat="35.219143023714423" lon="-2.920278031378985">
        <ele>21.5</ele>
        <time>2003-04-13T07:19:32Z</time>
      </trkpt>
      <trkpt lat="35.21819201298058" lon="-2.919772015884519">
        <ele>20.300000000000001</ele>
        <time>2003-04-13T07:19:37Z</time>
      </trkpt>
      <trkpt lat="35.217512995004654" lon="-2.919236999005079">
        <ele>21.5</ele>
        <time>2003-04-13T07:19:40Z</time>
      </trkpt>
      <trkpt lat="35.216812016442418" lon="-2.918514981865883">
        <ele>23</ele>
        <time>2003-04-13T07:19:45Z</time>
      </trkpt>
      <trkpt lat="35.216105002909899" lon="-2.917762035503984">
        <ele>24.600000000000001</ele>
        <time>2003-04-13T07:19:51Z</time>
      </trkpt>
      <trkpt lat="35.215326994657516" lon="-2.916931975632906">
        <ele>26.5</ele>
        <time>2003-04-13T07:19:56Z</time>
      </trkpt>
      <trkpt lat="35.214570024982095" lon="-2.916133012622595">
        <ele>28.300000000000001</ele>
        <time>2003-04-13T07:20:03Z</time>
      </trkpt>
      <trkpt lat="35.213811965659261" lon="-2.915458017960191">
        <ele>29.699999999999999</ele>
        <time>2003-04-13T07:20:08Z</time>
      </trkpt>
      <trkpt lat="35.213397983461618" lon="-2.915206979960203">
        <ele>30.5</ele>
        <time>2003-04-13T07:20:11Z</time>
      </trkpt>
      <trkpt lat="35.212655011564493" lon="-2.914880001917481">
        <ele>31.699999999999999</ele>
        <time>2003-04-13T07:20:16Z</time>
      </trkpt>
      <trkpt lat="35.211867028847337" lon="-2.914729965850711">
        <ele>32.100000000000001</ele>
        <time>2003-04-13T07:20:22Z</time>
      </trkpt>
      <trkpt lat="35.21090998314321" lon="-2.914698030799627">
        <ele>32.100000000000001</ele>
        <time>2003-04-13T07:20:27Z</time>
      </trkpt>
      <trkpt lat="35.210002977401018" lon="-2.914697024971247">
        <ele>31.699999999999999</ele>
        <time>2003-04-13T07:20:34Z</time>
      </trkpt>
      <trkpt lat="35.209386991336942" lon="-2.914806995540857">
        <ele>31.699999999999999</ele>
        <time>2003-04-13T07:20:38Z</time>
      </trkpt>
      <trkpt lat="35.208748038858175" lon="-2.915032971650362">
        <ele>31.5</ele>
        <time>2003-04-13T07:20:42Z</time>
      </trkpt>
      <trkpt lat="35.208101961761713" lon="-2.915396997705102">
        <ele>31.300000000000001</ele>
        <time>2003-04-13T07:20:46Z</time>
      </trkpt>
      <trkpt lat="35.207632994279265" lon="-2.915784996002913">
        <ele>31</ele>
        <time>2003-04-13T07:20:49Z</time>
      </trkpt>
      <trkpt lat="35.206822967156768" lon="-2.916561998426914">
        <ele>30.5</ele>
        <time>2003-04-13T07:20:54Z</time>
      </trkpt>
      <trkpt lat="35.205932976678014" lon="-2.917389962822199">
        <ele>27.699999999999999</ele>
        <time>2003-04-13T07:20:58Z</time>
      </trkpt>
      <trkpt lat="35.205095037817955" lon="-2.918194960802794">
        <ele>23.300000000000001</ele>
        <time>2003-04-13T07:21:04Z</time>
      </trkpt>
      <trkpt lat="35.204362040385604" lon="-2.918901974335313">
        <ele>18.800000000000001</ele>
        <time>2003-04-13T07:21:08Z</time>
      </trkpt>
      <trkpt lat="35.203601969406009" lon="-2.919642012566328">
        <ele>17.300000000000001</ele>
        <time>2003-04-13T07:21:12Z</time>
      </trkpt>
      <trkpt lat="35.202780039981008" lon="-2.920437036082149">
        <ele>20.5</ele>
        <time>2003-04-13T07:21:17Z</time>
      </trkpt>
      <trkpt lat="35.20237703807652" lon="-2.920848000794649">
        <ele>22.899999999999999</ele>
        <time>2003-04-13T07:21:20Z</time>
      </trkpt>
      <trkpt lat="35.202061962336302" lon="-2.921206997707486">
        <ele>25</ele>
        <time>2003-04-13T07:21:23Z</time>
      </trkpt>
      <trkpt lat="35.201342962682247" lon="-2.922175023704767">
        <ele>27.800000000000001</ele>
        <time>2003-04-13T07:21:29Z</time>
      </trkpt>
      <trkpt lat="35.200726976618171" lon="-2.923250002786517">
        <ele>27.899999999999999</ele>
        <time>2003-04-13T07:21:36Z</time>
      </trkpt>
      <trkpt lat="35.200172010809183" lon="-2.924228003248572">
        <ele>26.5</ele>
        <time>2003-04-13T07:21:40Z</time>
      </trkpt>
      <trkpt lat="35.199598018079996" lon="-2.92518999427557">
        <ele>24.899999999999999</ele>
        <time>2003-04-13T07:21:45Z</time>
      </trkpt>
      <trkpt lat="35.199022013694048" lon="-2.926173023879528">
        <ele>23.399999999999999</ele>
        <time>2003-04-13T07:21:51Z</time>
      </trkpt>
      <trkpt lat="35.1984269823879" lon="-2.927182037383318">
        <ele>21.699999999999999</ele>
        <time>2003-04-13T07:21:55Z</time>
      </trkpt>
      <trkpt lat="35.197858018800616" lon="-2.928137993440032">
        <ele>19.899999999999999</ele>
        <time>2003-04-13T07:22:00Z</time>
      </trkpt>
      <trkpt lat="35.1973079983145" lon="-2.92907701805234">
        <ele>18.300000000000001</ele>
        <time>2003-04-13T07:22:07Z</time>
      </trkpt>
      <trkpt lat="35.196769963949919" lon="-2.929972959682345">
        <ele>17.899999999999999</ele>
        <time>2003-04-13T07:22:11Z</time>
      </trkpt>
      <trkpt lat="35.196307031437755" lon="-2.930643009021878">
        <ele>18.5</ele>
        <time>2003-04-13T07:22:15Z</time>
      </trkpt>
      <trkpt lat="35.196158001199365" lon="-2.93077502399683">
        <ele>18.600000000000001</ele>
        <time>2003-04-13T07:22:15Z</time>
      </trkpt>
      <trkpt lat="35.195834962651134" lon="-2.930977027863264">
        <ele>18.699999999999999</ele>
        <time>2003-04-13T07:22:18Z</time>
      </trkpt>
      <trkpt lat="35.195402037352324" lon="-2.931190012022853">
        <ele>19.399999999999999</ele>
        <time>2003-04-13T07:22:22Z</time>
      </trkpt>
      <trkpt lat="35.195167008787394" lon="-2.931252960115671">
        <ele>19.5</ele>
        <time>2003-04-13T07:22:23Z</time>
      </trkpt>
      <trkpt lat="35.194825027137995" lon="-2.931303000077605">
        <ele>19.899999999999999</ele>
        <time>2003-04-13T07:22:26Z</time>
      </trkpt>
      <trkpt lat="35.194032015278935" lon="-2.931271987035871">
        <ele>20.300000000000001</ele>
        <time>2003-04-13T07:22:33Z</time>
      </trkpt>
      <trkpt lat="35.193104976788163" lon="-2.931238040328026">
        <ele>20.5</ele>
        <time>2003-04-13T07:22:38Z</time>
      </trkpt>
      <trkpt lat="35.192099986597896" lon="-2.931188000366092">
        <ele>20.800000000000001</ele>
        <time>2003-04-13T07:22:45Z</time>
      </trkpt>
      <trkpt lat="35.191053003072739" lon="-2.931152964010835">
        <ele>22.800000000000001</ele>
        <time>2003-04-13T07:22:50Z</time>
      </trkpt>
      <trkpt lat="35.190314976498485" lon="-2.931051962077618">
        <ele>25.100000000000001</ele>
        <time>2003-04-13T07:22:54Z</time>
      </trkpt>
      <trkpt lat="35.189563035964966" lon="-2.93077502399683">
        <ele>27.899999999999999</ele>
        <time>2003-04-13T07:22:58Z</time>
      </trkpt>
      <trkpt lat="35.189217031002045" lon="-2.930562039837241">
        <ele>29.399999999999999</ele>
        <time>2003-04-13T07:23:01Z</time>
      </trkpt>
      <trkpt lat="35.188921988010406" lon="-2.930300021544099">
        <ele>30.699999999999999</ele>
        <time>2003-04-13T07:23:02Z</time>
      </trkpt>
      <trkpt lat="35.188542036339641" lon="-2.929870029911399">
        <ele>32</ele>
        <time>2003-04-13T07:23:05Z</time>
      </trkpt>
      <trkpt lat="35.188052030280232" lon="-2.929371977224946">
        <ele>34.200000000000003</ele>
        <time>2003-04-13T07:23:09Z</time>
      </trkpt>
      <trkpt lat="35.187675012275577" lon="-2.92909998446703">
        <ele>33.5</ele>
        <time>2003-04-13T07:23:13Z</time>
      </trkpt>
      <trkpt lat="35.186776975169778" lon="-2.928596986457706">
        <ele>29</ele>
        <time>2003-04-13T07:23:19Z</time>
      </trkpt>
      <trkpt lat="35.186380008235574" lon="-2.928419960662723">
        <ele>26.699999999999999</ele>
        <time>2003-04-13T07:23:21Z</time>
      </trkpt>
      <trkpt lat="35.185841973870993" lon="-2.928273025900126">
        <ele>24.199999999999999</ele>
        <time>2003-04-13T07:23:25Z</time>
      </trkpt>
      <trkpt lat="35.185260018333793" lon="-2.928215023130179">
        <ele>21.699999999999999</ele>
        <time>2003-04-13T07:23:29Z</time>
      </trkpt>
      <trkpt lat="35.184323005378246" lon="-2.928343014791608">
        <ele>18.300000000000001</ele>
        <time>2003-04-13T07:23:36Z</time>
      </trkpt>
      <trkpt lat="35.183929977938533" lon="-2.928394982591271">
        <ele>17.399999999999999</ele>
        <time>2003-04-13T07:23:39Z</time>
      </trkpt>
      <trkpt lat="35.182922976091504" lon="-2.928517023101449">
        <ele>15.300000000000001</ele>
        <time>2003-04-13T07:23:47Z</time>
      </trkpt>
      <trkpt lat="35.182152008637786" lon="-2.928547030314803">
        <ele>15.4</ele>
        <time>2003-04-13T07:23:52Z</time>
      </trkpt>
      <trkpt lat="35.182034997269511" lon="-2.928536972030997">
        <ele>15.5</ele>
        <time>2003-04-13T07:23:55Z</time>
      </trkpt>
      <trkpt lat="35.181354973465204" lon="-2.92847796343267">
        <ele>15.6</ele>
        <time>2003-04-13T07:24:06Z</time>
      </trkpt>
      <trkpt lat="35.18125799484551" lon="-2.928473018109798">
        <ele>15.6</ele>
        <time>2003-04-13T07:24:09Z</time>
      </trkpt>
      <trkpt lat="35.181094966828823" lon="-2.928473018109798">
        <ele>15.6</ele>
        <time>2003-04-13T07:24:11Z</time>
      </trkpt>
      <trkpt lat="35.18093696795404" lon="-2.928481986746192">
        <ele>15.9</ele>
        <time>2003-04-13T07:24:14Z</time>
      </trkpt>
      <trkpt lat="35.17996801994741" lon="-2.928582988679409">
        <ele>16</ele>
        <time>2003-04-13T07:24:26Z</time>
      </trkpt>
      <trkpt lat="35.17958203330636" lon="-2.928660018369556">
        <ele>16.199999999999999</ele>
        <time>2003-04-13T07:24:32Z</time>
      </trkpt>
      <trkpt lat="35.179312974214554" lon="-2.928854981437326">
        <ele>16.600000000000001</ele>
        <time>2003-04-13T07:24:36Z</time>
      </trkpt>
      <trkpt lat="35.179051961749792" lon="-2.929211966693401">
        <ele>17.399999999999999</ele>
        <time>2003-04-13T07:24:41Z</time>
      </trkpt>
      <trkpt lat="35.178971998393536" lon="-2.929316991940141">
        <ele>17.600000000000001</ele>
        <time>2003-04-13T07:24:44Z</time>
      </trkpt>
      <trkpt lat="35.178845012560487" lon="-2.929468033835292">
        <ele>17.800000000000001</ele>
        <time>2003-04-13T07:24:46Z</time>
      </trkpt>
      <trkpt lat="35.178309995681047" lon="-2.930202037096024">
        <ele>19.399999999999999</ele>
        <time>2003-04-13T07:25:00Z</time>
      </trkpt>
      <trkpt lat="35.178222991526127" lon="-2.930312007665634">
        <ele>19.699999999999999</ele>
        <time>2003-04-13T07:25:04Z</time>
      </trkpt>
      <trkpt lat="35.178082007914782" lon="-2.930445028468967">
        <ele>20.800000000000001</ele>
        <time>2003-04-13T07:25:23Z</time>
      </trkpt>
      <trkpt lat="35.177916968241334" lon="-2.930587017908692">
        <ele>21.300000000000001</ele>
        <time>2003-04-13T07:25:28Z</time>
      </trkpt>
      <trkpt lat="35.177829964086413" lon="-2.930707968771458">
        <ele>22.800000000000001</ele>
        <time>2003-04-13T07:25:34Z</time>
      </trkpt>
      <trkpt lat="35.177752012386918" lon="-2.930764965713024">
        <ele>-236.80000000000001</ele>
        <time>2003-04-13T08:21:20Z</time>
      </trkpt>
      <trkpt lat="35.177657967433333" lon="-2.930824980139732">
        <ele>13.300000000000001</ele>
        <time>2003-04-13T08:21:47Z</time>
      </trkpt>
      <trkpt lat="35.177555037662387" lon="-2.930892035365105">
        <ele>13.699999999999999</ele>
        <time>2003-04-13T08:21:50Z</time>
      </trkpt>
      <trkpt lat="35.177384968847036" lon="-2.930992031469941">
        <ele>14.199999999999999</ele>
        <time>2003-04-13T08:21:53Z</time>
      </trkpt>
      <trkpt lat="35.176724977791309" lon="-2.931301994249225">
        <ele>15.6</ele>
        <time>2003-04-13T08:22:02Z</time>
      </trkpt>
      <trkpt lat="35.176439993083477" lon="-2.931469967588782">
        <ele>15.9</ele>
        <time>2003-04-13T08:22:06Z</time>
      </trkpt>
      <trkpt lat="35.176217034459114" lon="-2.931668031960726">
        <ele>16.300000000000001</ele>
        <time>2003-04-13T08:22:10Z</time>
      </trkpt>
      <trkpt lat="35.176040008664131" lon="-2.931844973936677">
        <ele>17.100000000000001</ele>
        <time>2003-04-13T08:22:13Z</time>
      </trkpt>
      <trkpt lat="35.175427962094545" lon="-2.932532038539648">
        <ele>18.899999999999999</ele>
        <time>2003-04-13T08:22:22Z</time>
      </trkpt>
      <trkpt lat="35.174822034314275" lon="-2.933367965742946">
        <ele>20.5</ele>
        <time>2003-04-13T08:22:33Z</time>
      </trkpt>
      <trkpt lat="35.174750033766031" lon="-2.933478020131588">
        <ele>20.800000000000001</ele>
        <time>2003-04-13T08:22:36Z</time>
      </trkpt>
      <trkpt lat="35.174622964113951" lon="-2.933659991249442">
        <ele>22.899999999999999</ele>
        <time>2003-04-13T08:23:12Z</time>
      </trkpt>
      <trkpt lat="35.174517016857862" lon="-2.933855038136244">
        <ele>23.300000000000001</ele>
        <time>2003-04-13T08:23:15Z</time>
      </trkpt>
      <trkpt lat="35.174305038526654" lon="-2.934289975091815">
        <ele>23.800000000000001</ele>
        <time>2003-04-13T08:23:22Z</time>
      </trkpt>
      <trkpt lat="35.174217028543353" lon="-2.934359963983297">
        <ele>23.699999999999999</ele>
        <time>2003-04-13T08:23:23Z</time>
      </trkpt>
      <trkpt lat="35.174109991639853" lon="-2.934353007003665">
        <ele>23.899999999999999</ele>
        <time>2003-04-13T08:23:26Z</time>
      </trkpt>
      <trkpt lat="35.174002032727003" lon="-2.934272037819028">
        <ele>24</ele>
        <time>2003-04-13T08:23:27Z</time>
      </trkpt>
      <trkpt lat="35.173876974731684" lon="-2.934187967330217">
        <ele>24.600000000000001</ele>
        <time>2003-04-13T08:23:30Z</time>
      </trkpt>
      <trkpt lat="35.173662984743714" lon="-2.934108003973961">
        <ele>25.600000000000001</ele>
        <time>2003-04-13T08:23:33Z</time>
      </trkpt>
      <trkpt lat="35.173474978655577" lon="-2.934068022295833">
        <ele>25.699999999999999</ele>
        <time>2003-04-13T08:23:34Z</time>
      </trkpt>
      <trkpt lat="35.173325026407838" lon="-2.934034997597337">
        <ele>26</ele>
        <time>2003-04-13T08:23:37Z</time>
      </trkpt>
      <trkpt lat="35.172532014548779" lon="-2.933820001780987">
        <ele>26.600000000000001</ele>
        <time>2003-04-13T08:23:46Z</time>
      </trkpt>
      <trkpt lat="35.17210696823895" lon="-2.93369997292757">
        <ele>27.199999999999999</ele>
        <time>2003-04-13T08:23:51Z</time>
      </trkpt>
      <trkpt lat="35.171187976375222" lon="-2.933475002646446">
        <ele>27.399999999999999</ele>
        <time>2003-04-13T08:24:04Z</time>
      </trkpt>
      <trkpt lat="35.171078005805612" lon="-2.933448012918234">
        <ele>27.399999999999999</ele>
        <time>2003-04-13T08:24:05Z</time>
      </trkpt>
      <trkpt lat="35.170941967517138" lon="-2.933420017361641">
        <ele>27.399999999999999</ele>
        <time>2003-04-13T08:24:09Z</time>
      </trkpt>
      <trkpt lat="35.170750021934509" lon="-2.933372994884849">
        <ele>27.5</ele>
        <time>2003-04-13T08:24:13Z</time>
      </trkpt>
      <trkpt lat="35.170565033331513" lon="-2.933327984064817">
        <ele>23.600000000000001</ele>
        <time>2003-04-13T08:25:07Z</time>
      </trkpt>
      <trkpt lat="35.170460008084774" lon="-2.933302000164986">
        <ele>23.899999999999999</ele>
        <time>2003-04-13T08:25:08Z</time>
      </trkpt>
      <trkpt lat="35.170324975624681" lon="-2.933267969638109">
        <ele>24.100000000000001</ele>
        <time>2003-04-13T08:25:11Z</time>
      </trkpt>
      <trkpt lat="35.169866988435388" lon="-2.933157999068499">
        <ele>24.899999999999999</ele>
        <time>2003-04-13T08:25:17Z</time>
      </trkpt>
      <trkpt lat="35.169457029551268" lon="-2.933052973821759">
        <ele>25.600000000000001</ele>
        <time>2003-04-13T08:25:23Z</time>
      </trkpt>
      <trkpt lat="35.169332977384329" lon="-2.933022966608405">
        <ele>25.399999999999999</ele>
        <time>2003-04-13T08:25:26Z</time>
      </trkpt>
      <trkpt lat="35.16916299238801" lon="-2.932979967445135">
        <ele>25.399999999999999</ele>
        <time>2003-04-13T08:25:29Z</time>
      </trkpt>
      <trkpt lat="35.169008010998368" lon="-2.932936968281865">
        <ele>25.399999999999999</ele>
        <time>2003-04-13T08:25:30Z</time>
      </trkpt>
      <trkpt lat="35.168825034052134" lon="-2.932887012138963">
        <ele>25.5</ele>
        <time>2003-04-13T08:25:33Z</time>
      </trkpt>
      <trkpt lat="35.168297979980707" lon="-2.932749968022108">
        <ele>24.699999999999999</ele>
        <time>2003-04-13T08:25:38Z</time>
      </trkpt>
      <trkpt lat="35.168207036331296" lon="-2.932732030749321">
        <ele>24.5</ele>
        <time>2003-04-13T08:25:42Z</time>
      </trkpt>
      <trkpt lat="35.168063035234809" lon="-2.932724989950657">
        <ele>23.699999999999999</ele>
        <time>2003-04-13T08:26:05Z</time>
      </trkpt>
      <trkpt lat="35.167936971411109" lon="-2.932692971080542">
        <ele>23.600000000000001</ele>
        <time>2003-04-13T08:26:09Z</time>
      </trkpt>
      <trkpt lat="35.167758017778397" lon="-2.932651983574033">
        <ele>23.800000000000001</ele>
        <time>2003-04-13T08:26:11Z</time>
      </trkpt>
      <trkpt lat="35.167364990338683" lon="-2.932530026882887">
        <ele>23.5</ele>
        <time>2003-04-13T08:26:15Z</time>
      </trkpt>
      <trkpt lat="35.166393024846911" lon="-2.932283012196422">
        <ele>22.899999999999999</ele>
        <time>2003-04-13T08:26:23Z</time>
      </trkpt>
      <trkpt lat="35.165733033791184" lon="-2.932106992229819">
        <ele>21.800000000000001</ele>
        <time>2003-04-13T08:26:28Z</time>
      </trkpt>
      <trkpt lat="35.165485013276339" lon="-2.932038009166718">
        <ele>21.699999999999999</ele>
        <time>2003-04-13T08:26:32Z</time>
      </trkpt>
      <trkpt lat="35.16535802744329" lon="-2.932004984468222">
        <ele>21.399999999999999</ele>
        <time>2003-04-13T08:26:33Z</time>
      </trkpt>
      <trkpt lat="35.165221989154816" lon="-2.932002972811461">
        <ele>33.299999999999997</ele>
        <time>2003-04-13T08:26:55Z</time>
      </trkpt>
      <trkpt lat="35.165101960301399" lon="-2.931968020275235">
        <ele>32.5</ele>
        <time>2003-04-13T08:26:58Z</time>
      </trkpt>
      <trkpt lat="35.164959970861673" lon="-2.931929966434836">
        <ele>31.800000000000001</ele>
        <time>2003-04-13T08:26:59Z</time>
      </trkpt>
      <trkpt lat="35.16478001140058" lon="-2.931882021948695">
        <ele>31.300000000000001</ele>
        <time>2003-04-13T08:27:02Z</time>
      </trkpt>
      <trkpt lat="35.164377009496093" lon="-2.931771967560053">
        <ele>29.800000000000001</ele>
        <time>2003-04-13T08:27:06Z</time>
      </trkpt>
      <trkpt lat="35.163881974294782" lon="-2.931640036404133">
        <ele>29</ele>
        <time>2003-04-13T08:27:10Z</time>
      </trkpt>
      <trkpt lat="35.162906991317868" lon="-2.93137701228261">
        <ele>27</ele>
        <time>2003-04-13T08:27:17Z</time>
      </trkpt>
      <trkpt lat="35.162410028278828" lon="-2.931247008964419">
        <ele>25.699999999999999</ele>
        <time>2003-04-13T08:27:21Z</time>
      </trkpt>
      <trkpt lat="35.16149003058672" lon="-2.931007035076618">
        <ele>25.300000000000001</ele>
        <time>2003-04-13T08:27:29Z</time>
      </trkpt>
      <trkpt lat="35.160523010417819" lon="-2.930757002905011">
        <ele>24.399999999999999</ele>
        <time>2003-04-13T08:27:36Z</time>
      </trkpt>
      <trkpt lat="35.15955800190568" lon="-2.930524991825223">
        <ele>24</ele>
        <time>2003-04-13T08:27:42Z</time>
      </trkpt>
      <trkpt lat="35.158925000578165" lon="-2.930360035970807">
        <ele>23.300000000000001</ele>
        <time>2003-04-13T08:27:48Z</time>
      </trkpt>
      <trkpt lat="35.158751998096704" lon="-2.930313013494015">
        <ele>22.899999999999999</ele>
        <time>2003-04-13T08:27:49Z</time>
      </trkpt>
      <trkpt lat="35.158432982861996" lon="-2.930234977975488">
        <ele>22.100000000000001</ele>
        <time>2003-04-13T08:27:53Z</time>
      </trkpt>
      <trkpt lat="35.158340027555823" lon="-2.930221986025572">
        <ele>21.699999999999999</ele>
        <time>2003-04-13T08:27:56Z</time>
      </trkpt>
      <trkpt lat="35.158257968723774" lon="-2.930276971310377">
        <ele>21.399999999999999</ele>
        <time>2003-04-13T08:27:59Z</time>
      </trkpt>
      <trkpt lat="35.158122014254332" lon="-2.930397000163794">
        <ele>21.199999999999999</ele>
        <time>2003-04-13T08:28:03Z</time>
      </trkpt>
      <trkpt lat="35.157952029258013" lon="-2.930391971021891">
        <ele>20.399999999999999</ele>
        <time>2003-04-13T08:28:17Z</time>
      </trkpt>
      <trkpt lat="35.157696967944503" lon="-2.930342014878988">
        <ele>-236.80000000000001</ele>
        <time>2003-04-13T08:47:29Z</time>
      </trkpt>
      <trkpt lat="35.157816996797919" lon="-2.930251993238926">
        <ele>14.699999999999999</ele>
        <time>2003-04-13T08:47:44Z</time>
      </trkpt>
      <trkpt lat="35.157912969589233" lon="-2.930082008242607">
        <ele>32.700000000000003</ele>
        <time>2003-04-13T08:52:14Z</time>
      </trkpt>
      <trkpt lat="35.157814985141158" lon="-2.930232966318727">
        <ele>16.800000000000001</ele>
        <time>2003-04-13T08:57:00Z</time>
      </trkpt>
      <trkpt lat="35.157835017889738" lon="-2.930085025727749">
        <ele>43.899999999999999</ele>
        <time>2003-04-13T09:04:36Z</time>
      </trkpt>
      <trkpt lat="35.157837029546499" lon="-2.930279988795519">
        <ele>-236.80000000000001</ele>
        <time>2003-04-13T09:18:17Z</time>
      </trkpt>
      <trkpt lat="35.157923027873039" lon="-2.930228020995855">
        <ele>26.399999999999999</ele>
        <time>2003-04-13T09:20:28Z</time>
      </trkpt>
      <trkpt lat="35.157902995124459" lon="-2.930102040991187">
        <ele>31.600000000000001</ele>
        <time>2003-04-13T09:22:01Z</time>
      </trkpt>
      <trkpt lat="35.157911963760853" lon="-2.929886961355805">
        <ele>57.600000000000001</ele>
        <time>2003-04-13T09:22:34Z</time>
      </trkpt>
      <trkpt lat="35.157722029834986" lon="-2.929795011878014">
        <ele>51</ele>
        <time>2003-04-13T09:22:46Z</time>
      </trkpt>
      <trkpt lat="35.157566964626312" lon="-2.929768022149801">
        <ele>50.100000000000001</ele>
        <time>2003-04-13T09:22:47Z</time>
      </trkpt>
      <trkpt lat="35.157167986035347" lon="-2.929678000509739">
        <ele>47.899999999999999</ele>
        <time>2003-04-13T09:22:53Z</time>
      </trkpt>
      <trkpt lat="35.156949972733855" lon="-2.929625026881695">
        <ele>46.899999999999999</ele>
        <time>2003-04-13T09:22:55Z</time>
      </trkpt>
      <trkpt lat="35.155978007242084" lon="-2.929389998316765">
        <ele>44.700000000000003</ele>
        <time>2003-04-13T09:23:03Z</time>
      </trkpt>
      <trkpt lat="35.155632002279162" lon="-2.929311962798238">
        <ele>43.399999999999999</ele>
        <time>2003-04-13T09:23:06Z</time>
      </trkpt>
      <trkpt lat="35.154664982110262" lon="-2.92907802388072">
        <ele>40.5</ele>
        <time>2003-04-13T09:23:15Z</time>
      </trkpt>
      <trkpt lat="35.153725035488605" lon="-2.928856993094087">
        <ele>37.200000000000003</ele>
        <time>2003-04-13T09:23:25Z</time>
      </trkpt>
      <trkpt lat="35.153452036902308" lon="-2.928792033344507">
        <ele>36.299999999999997</ele>
        <time>2003-04-13T09:23:28Z</time>
      </trkpt>
      <trkpt lat="35.153329996392131" lon="-2.928763031959534">
        <ele>35.799999999999997</ele>
        <time>2003-04-13T09:23:29Z</time>
      </trkpt>
      <trkpt lat="35.153169985860586" lon="-2.928722966462374">
        <ele>35.299999999999997</ele>
        <time>2003-04-13T09:23:33Z</time>
      </trkpt>
      <trkpt lat="35.152863040566444" lon="-2.928641997277737">
        <ele>34.299999999999997</ele>
        <time>2003-04-13T09:23:37Z</time>
      </trkpt>
      <trkpt lat="35.152585012838244" lon="-2.928582988679409">
        <ele>34.200000000000003</ele>
        <time>2003-04-13T09:23:41Z</time>
      </trkpt>
      <trkpt lat="35.152261974290013" lon="-2.92852196842432">
        <ele>33.799999999999997</ele>
        <time>2003-04-13T09:23:44Z</time>
      </trkpt>
      <trkpt lat="35.151352034881711" lon="-2.928292974829674">
        <ele>33.700000000000003</ele>
        <time>2003-04-13T09:23:52Z</time>
      </trkpt>
      <trkpt lat="35.1504270080477" lon="-2.928066998720169">
        <ele>32.600000000000001</ele>
        <time>2003-04-13T09:23:59Z</time>
      </trkpt>
      <trkpt lat="35.149525031447411" lon="-2.927843034267426">
        <ele>31.5</ele>
        <time>2003-04-13T09:24:04Z</time>
      </trkpt>
      <trkpt lat="35.148545019328594" lon="-2.927597025409341">
        <ele>31.399999999999999</ele>
        <time>2003-04-13T09:24:11Z</time>
      </trkpt>
      <trkpt lat="35.147546986117959" lon="-2.927344981580973">
        <ele>30.300000000000001</ele>
        <time>2003-04-13T09:24:16Z</time>
      </trkpt>
      <trkpt lat="35.147297959774733" lon="-2.927280021831393">
        <ele>30.100000000000001</ele>
        <time>2003-04-13T09:24:19Z</time>
      </trkpt>
      <trkpt lat="35.146321970969439" lon="-2.927027978003025">
        <ele>30.699999999999999</ele>
        <time>2003-04-13T09:24:27Z</time>
      </trkpt>
      <trkpt lat="35.145370038226247" lon="-2.926796972751617">
        <ele>28.5</ele>
        <time>2003-04-13T09:24:34Z</time>
      </trkpt>
      <trkpt lat="35.144424978643656" lon="-2.926575019955635">
        <ele>26.800000000000001</ele>
        <time>2003-04-13T09:24:39Z</time>
      </trkpt>
      <trkpt lat="35.143414959311485" lon="-2.92632800526917">
        <ele>25.100000000000001</ele>
        <time>2003-04-13T09:24:46Z</time>
      </trkpt>
      <trkpt lat="35.142387002706528" lon="-2.92607001028955">
        <ele>23.699999999999999</ele>
        <time>2003-04-13T09:24:54Z</time>
      </trkpt>
      <trkpt lat="35.141385030001402" lon="-2.925816960632801">
        <ele>22.300000000000001</ele>
        <time>2003-04-13T09:24:59Z</time>
      </trkpt>
      <trkpt lat="35.140497973188758" lon="-2.92559701949358">
        <ele>21.600000000000001</ele>
        <time>2003-04-13T09:25:05Z</time>
      </trkpt>
      <trkpt lat="35.139592979103327" lon="-2.925370037555695">
        <ele>21.199999999999999</ele>
        <time>2003-04-13T09:25:10Z</time>
      </trkpt>
      <trkpt lat="35.138682033866644" lon="-2.925140038132668">
        <ele>20.5</ele>
        <time>2003-04-13T09:25:14Z</time>
      </trkpt>
      <trkpt lat="35.137705039232969" lon="-2.924892017617822">
        <ele>19.800000000000001</ele>
        <time>2003-04-13T09:25:20Z</time>
      </trkpt>
      <trkpt lat="35.136756962165236" lon="-2.924596974626184">
        <ele>19.800000000000001</ele>
        <time>2003-04-13T09:25:25Z</time>
      </trkpt>
      <trkpt lat="35.135787008330226" lon="-2.924177963286638">
        <ele>20.300000000000001</ele>
        <time>2003-04-13T09:25:29Z</time>
      </trkpt>
      <trkpt lat="35.134853012859821" lon="-2.923634983599186">
        <ele>20.899999999999999</ele>
        <time>2003-04-13T09:25:35Z</time>
      </trkpt>
      <trkpt lat="35.133899990469217" lon="-2.923050010576844">
        <ele>21.5</ele>
        <time>2003-04-13T09:25:40Z</time>
      </trkpt>
      <trkpt lat="35.132931964471936" lon="-2.922533014789224">
        <ele>22.199999999999999</ele>
        <time>2003-04-13T09:25:44Z</time>
      </trkpt>
      <trkpt lat="35.132135013118386" lon="-2.92231198400259">
        <ele>22.5</ele>
        <time>2003-04-13T09:25:48Z</time>
      </trkpt>
      <trkpt lat="35.131322974339128" lon="-2.922263033688068">
        <ele>22.800000000000001</ele>
        <time>2003-04-13T09:25:52Z</time>
      </trkpt>
      <trkpt lat="35.130284959450364" lon="-2.922307960689068">
        <ele>23.399999999999999</ele>
        <time>2003-04-13T09:25:57Z</time>
      </trkpt>
      <trkpt lat="35.129177961498499" lon="-2.922567967325449">
        <ele>24.199999999999999</ele>
        <time>2003-04-13T09:26:03Z</time>
      </trkpt>
      <trkpt lat="35.128274979069829" lon="-2.922831997275353">
        <ele>24.800000000000001</ele>
        <time>2003-04-13T09:26:07Z</time>
      </trkpt>
      <trkpt lat="35.127382976934314" lon="-2.923078006133437">
        <ele>24.399999999999999</ele>
        <time>2003-04-13T09:26:11Z</time>
      </trkpt>
      <trkpt lat="35.126331970095634" lon="-2.923374976962805">
        <ele>24.199999999999999</ele>
        <time>2003-04-13T09:26:15Z</time>
      </trkpt>
      <trkpt lat="35.125382971018553" lon="-2.923657028004527">
        <ele>24.600000000000001</ele>
        <time>2003-04-13T09:26:20Z</time>
      </trkpt>
      <trkpt lat="35.1244099996984" lon="-2.92394301854074">
        <ele>25.600000000000001</ele>
        <time>2003-04-13T09:26:26Z</time>
      </trkpt>
      <trkpt lat="35.123447002843022" lon="-2.924232026562095">
        <ele>26.600000000000001</ele>
        <time>2003-04-13T09:26:31Z</time>
      </trkpt>
      <trkpt lat="35.122437989339232" lon="-2.92452497407794">
        <ele>27.5</ele>
        <time>2003-04-13T09:26:35Z</time>
      </trkpt>
      <trkpt lat="35.12137801386416" lon="-2.924838038161397">
        <ele>28.399999999999999</ele>
        <time>2003-04-13T09:26:41Z</time>
      </trkpt>
      <trkpt lat="35.120466984808445" lon="-2.925107013434172">
        <ele>29.399999999999999</ele>
        <time>2003-04-13T09:26:45Z</time>
      </trkpt>
      <trkpt lat="35.119508011266589" lon="-2.925422005355358">
        <ele>29.800000000000001</ele>
        <time>2003-04-13T09:26:49Z</time>
      </trkpt>
      <trkpt lat="35.118552977219224" lon="-2.925706990063191">
        <ele>30.600000000000001</ele>
        <time>2003-04-13T09:26:53Z</time>
      </trkpt>
      <trkpt lat="35.117557961493731" lon="-2.925968002527952">
        <ele>32</ele>
        <time>2003-04-13T09:26:57Z</time>
      </trkpt>
      <trkpt lat="35.116536961868405" lon="-2.926273019984365">
        <ele>33.299999999999997</ele>
        <time>2003-04-13T09:27:01Z</time>
      </trkpt>
      <trkpt lat="35.115472041070461" lon="-2.926596980541945">
        <ele>34</ele>
        <time>2003-04-13T09:27:05Z</time>
      </trkpt>
      <trkpt lat="35.114347022026777" lon="-2.926933011040092">
        <ele>35.100000000000001</ele>
        <time>2003-04-13T09:27:09Z</time>
      </trkpt>
      <trkpt lat="35.113223008811474" lon="-2.92725495994091">
        <ele>37.100000000000001</ele>
        <time>2003-04-13T09:27:13Z</time>
      </trkpt>
      <trkpt lat="35.112105030566454" lon="-2.927593002095819">
        <ele>38.899999999999999</ele>
        <time>2003-04-13T09:27:17Z</time>
      </trkpt>
      <trkpt lat="35.11100297793746" lon="-2.927917968481779">
        <ele>39.700000000000003</ele>
        <time>2003-04-13T09:27:21Z</time>
      </trkpt>
      <trkpt lat="35.109978038817644" lon="-2.928221980109811">
        <ele>40.899999999999999</ele>
        <time>2003-04-13T09:27:25Z</time>
      </trkpt>
      <trkpt lat="35.109002972021699" lon="-2.928512999787927">
        <ele>42.299999999999997</ele>
        <time>2003-04-13T09:27:28Z</time>
      </trkpt>
      <trkpt lat="35.107933022081852" lon="-2.928833020851016">
        <ele>44</ele>
        <time>2003-04-13T09:27:33Z</time>
      </trkpt>
      <trkpt lat="35.106872040778399" lon="-2.929177014157176">
        <ele>45.200000000000003</ele>
        <time>2003-04-13T09:27:39Z</time>
      </trkpt>
      <trkpt lat="35.105960005894303" lon="-2.929450012743473">
        <ele>46.200000000000003</ele>
        <time>2003-04-13T09:27:43Z</time>
      </trkpt>
      <trkpt lat="35.105017041787505" lon="-2.929725022986531">
        <ele>47.600000000000001</ele>
        <time>2003-04-13T09:27:47Z</time>
      </trkpt>
      <trkpt lat="35.104077011346817" lon="-2.9300029668957">
        <ele>48.700000000000003</ele>
        <time>2003-04-13T09:27:51Z</time>
      </trkpt>
      <trkpt lat="35.103130023926497" lon="-2.930285017937422">
        <ele>49.5</ele>
        <time>2003-04-13T09:27:55Z</time>
      </trkpt>
      <trkpt lat="35.102184964343905" lon="-2.93056002818048">
        <ele>50.399999999999999</ele>
        <time>2003-04-13T09:27:59Z</time>
      </trkpt>
      <trkpt lat="35.101263038814068" lon="-2.930832020938397">
        <ele>51.899999999999999</ele>
        <time>2003-04-13T09:28:03Z</time>
      </trkpt>
      <trkpt lat="35.100338011980057" lon="-2.931099990382791">
        <ele>53.399999999999999</ele>
        <time>2003-04-13T09:28:07Z</time>
      </trkpt>
      <trkpt lat="35.099388007074594" lon="-2.931384975090623">
        <ele>54.5</ele>
        <time>2003-04-13T09:28:11Z</time>
      </trkpt>
      <trkpt lat="35.098413024097681" lon="-2.931669959798455">
        <ele>55.600000000000001</ele>
        <time>2003-04-13T09:28:15Z</time>
      </trkpt>
      <trkpt lat="35.097532002255321" lon="-2.931929966434836">
        <ele>56.700000000000003</ele>
        <time>2003-04-13T09:28:19Z</time>
      </trkpt>
      <trkpt lat="35.097006959840655" lon="-2.932082014158368">
        <ele>56.899999999999999</ele>
        <time>2003-04-13T09:28:22Z</time>
      </trkpt>
      <trkpt lat="35.096398014575243" lon="-2.932247975841165">
        <ele>57.200000000000003</ele>
        <time>2003-04-13T09:28:26Z</time>
      </trkpt>
      <trkpt lat="35.095870038494468" lon="-2.932388037443161">
        <ele>57.299999999999997</ele>
        <time>2003-04-13T09:28:30Z</time>
      </trkpt>
      <trkpt lat="35.095137041062117" lon="-2.932600015774369">
        <ele>57.299999999999997</ele>
        <time>2003-04-13T09:28:34Z</time>
      </trkpt>
      <trkpt lat="35.094130039215088" lon="-2.932900004088879">
        <ele>57.399999999999999</ele>
        <time>2003-04-13T09:28:41Z</time>
      </trkpt>
      <trkpt lat="35.093097975477576" lon="-2.933205021545291">
        <ele>57.5</ele>
        <time>2003-04-13T09:28:46Z</time>
      </trkpt>
      <trkpt lat="35.092213014140725" lon="-2.933475002646446">
        <ele>57.600000000000001</ele>
        <time>2003-04-13T09:28:52Z</time>
      </trkpt>
      <trkpt lat="35.09177497588098" lon="-2.933620009571314">
        <ele>57.799999999999997</ele>
        <time>2003-04-13T09:28:54Z</time>
      </trkpt>
      <trkpt lat="35.090896971523762" lon="-2.93389200232923">
        <ele>57.899999999999999</ele>
        <time>2003-04-13T09:29:01Z</time>
      </trkpt>
      <trkpt lat="35.089977979660034" lon="-2.934162989258766">
        <ele>58</ele>
        <time>2003-04-13T09:29:06Z</time>
      </trkpt>
      <trkpt lat="35.088927978649735" lon="-2.934455014765263">
        <ele>58.5</ele>
        <time>2003-04-13T09:29:13Z</time>
      </trkpt>
      <trkpt lat="35.087951989844441" lon="-2.934727007523179">
        <ele>58.899999999999999</ele>
        <time>2003-04-13T09:29:17Z</time>
      </trkpt>
      <trkpt lat="35.086953034624457" lon="-2.934977039694786">
        <ele>60.700000000000003</ele>
        <time>2003-04-13T09:29:23Z</time>
      </trkpt>
      <trkpt lat="35.085873026400805" lon="-2.935124980285764">
        <ele>62.299999999999997</ele>
        <time>2003-04-13T09:29:28Z</time>
      </trkpt>
      <trkpt lat="35.085017988458276" lon="-2.935047028586268">
        <ele>63.299999999999997</ele>
        <time>2003-04-13T09:29:32Z</time>
      </trkpt>
      <trkpt lat="35.083947032690048" lon="-2.934796996414661">
        <ele>64.099999999999994</ele>
        <time>2003-04-13T09:29:36Z</time>
      </trkpt>
      <trkpt lat="35.083368010818958" lon="-2.934528021141887">
        <ele>64.400000000000006</ele>
        <time>2003-04-13T09:29:40Z</time>
      </trkpt>
      <trkpt lat="35.082482965663075" lon="-2.933980012312532">
        <ele>64.700000000000003</ele>
        <time>2003-04-13T09:29:44Z</time>
      </trkpt>
      <trkpt lat="35.081705041229725" lon="-2.93337500654161">
        <ele>65.200000000000003</ele>
        <time>2003-04-13T09:29:50Z</time>
      </trkpt>
      <trkpt lat="35.080871963873506" lon="-2.932781986892223">
        <ele>65.5</ele>
        <time>2003-04-13T09:29:55Z</time>
      </trkpt>
      <trkpt lat="35.080067971721292" lon="-2.932189973071218">
        <ele>65.700000000000003</ele>
        <time>2003-04-13T09:29:59Z</time>
      </trkpt>
      <trkpt lat="35.079237995669246" lon="-2.931559989228845">
        <ele>66.200000000000003</ele>
        <time>2003-04-13T09:30:05Z</time>
      </trkpt>
      <trkpt lat="35.078397961333394" lon="-2.930920030921698">
        <ele>66.900000000000006</ele>
        <time>2003-04-13T09:30:10Z</time>
      </trkpt>
      <trkpt lat="35.077500008046627" lon="-2.930251993238926">
        <ele>67.700000000000003</ele>
        <time>2003-04-13T09:30:14Z</time>
      </trkpt>
      <trkpt lat="35.077143022790551" lon="-2.930019982159138">
        <ele>68.200000000000003</ele>
        <time>2003-04-13T09:30:17Z</time>
      </trkpt>
      <trkpt lat="35.076359985396266" lon="-2.929671965539455">
        <ele>68.700000000000003</ele>
        <time>2003-04-13T09:30:21Z</time>
      </trkpt>
      <trkpt lat="35.075375027954578" lon="-2.929386980831623">
        <ele>69.299999999999997</ele>
        <time>2003-04-13T09:30:26Z</time>
      </trkpt>
      <trkpt lat="35.074486965313554" lon="-2.929137032479048">
        <ele>70</ele>
        <time>2003-04-13T09:30:32Z</time>
      </trkpt>
      <trkpt lat="35.073609966784716" lon="-2.928990013897419">
        <ele>71.099999999999994</ele>
        <time>2003-04-13T09:30:37Z</time>
      </trkpt>
      <trkpt lat="35.072685023769736" lon="-2.92899202555418">
        <ele>73</ele>
        <time>2003-04-13T09:30:41Z</time>
      </trkpt>
      <trkpt lat="35.071714986115694" lon="-2.929147006943822">
        <ele>75.799999999999997</ele>
        <time>2003-04-13T09:30:46Z</time>
      </trkpt>
      <trkpt lat="35.070743020623922" lon="-2.929326966404915">
        <ele>78.599999999999994</ele>
        <time>2003-04-13T09:30:52Z</time>
      </trkpt>
      <trkpt lat="35.069765020161867" lon="-2.929535005241633">
        <ele>80.900000000000006</ele>
        <time>2003-04-13T09:30:57Z</time>
      </trkpt>
      <trkpt lat="35.06884703412652" lon="-2.929729968309403">
        <ele>83.200000000000003</ele>
        <time>2003-04-13T09:31:01Z</time>
      </trkpt>
      <trkpt lat="35.068398015573621" lon="-2.929817978292704">
        <ele>84.5</ele>
        <time>2003-04-13T09:31:04Z</time>
      </trkpt>
      <trkpt lat="35.067740036174655" lon="-2.929940018802881">
        <ele>86.200000000000003</ele>
        <time>2003-04-13T09:31:09Z</time>
      </trkpt>
      <trkpt lat="35.067587988451123" lon="-2.929967008531094">
        <ele>86.799999999999997</ele>
        <time>2003-04-13T09:31:12Z</time>
      </trkpt>
      <trkpt lat="35.067480029538274" lon="-2.929995004087687">
        <ele>87.299999999999997</ele>
        <time>2003-04-13T09:31:15Z</time>
      </trkpt>
      <trkpt lat="35.067378021776676" lon="-2.930059963837266">
        <ele>87.200000000000003</ele>
        <time>2003-04-13T09:31:20Z</time>
      </trkpt>
      <trkpt lat="35.067275008186698" lon="-2.930145040154457">
        <ele>87.200000000000003</ele>
        <time>2003-04-13T09:31:21Z</time>
      </trkpt>
      <trkpt lat="35.067142993211746" lon="-2.930182004347444">
        <ele>87.200000000000003</ele>
        <time>2003-04-13T09:31:24Z</time>
      </trkpt>
      <trkpt lat="35.066960016265512" lon="-2.93015300296247">
        <ele>87.5</ele>
        <time>2003-04-13T09:31:26Z</time>
      </trkpt>
      <trkpt lat="35.06685197353363" lon="-2.930161971598864">
        <ele>87.700000000000003</ele>
        <time>2003-04-13T09:31:27Z</time>
      </trkpt>
      <trkpt lat="35.066611999645829" lon="-2.930212011560798">
        <ele>88.200000000000003</ele>
        <time>2003-04-13T09:31:28Z</time>
      </trkpt>
      <trkpt lat="35.06596801802516" lon="-2.93034796603024">
        <ele>90.200000000000003</ele>
        <time>2003-04-13T09:31:34Z</time>
      </trkpt>
      <trkpt lat="35.065484968945384" lon="-2.930455002933741">
        <ele>91.599999999999994</ele>
        <time>2003-04-13T09:31:36Z</time>
      </trkpt>
      <trkpt lat="35.064818020910025" lon="-2.930697994306684">
        <ele>93.700000000000003</ele>
        <time>2003-04-13T09:31:40Z</time>
      </trkpt>
      <trkpt lat="35.063985027372837" lon="-2.931196969002485">
        <ele>96.400000000000006</ele>
        <time>2003-04-13T09:31:46Z</time>
      </trkpt>
      <trkpt lat="35.063331993296742" lon="-2.931738020852208">
        <ele>97.900000000000006</ele>
        <time>2003-04-13T09:31:50Z</time>
      </trkpt>
      <trkpt lat="35.062547028064728" lon="-2.932596998289228">
        <ele>99.200000000000003</ele>
        <time>2003-04-13T09:31:55Z</time>
      </trkpt>
      <trkpt lat="35.061846971511841" lon="-2.933667032048106">
        <ele>100.09999999999999</ele>
        <time>2003-04-13T09:31:59Z</time>
      </trkpt>
      <trkpt lat="35.06141496822238" lon="-2.93462298810482">
        <ele>100.40000000000001</ele>
        <time>2003-04-13T09:32:03Z</time>
      </trkpt>
      <trkpt lat="35.060977013781667" lon="-2.935797963291407">
        <ele>101</ele>
        <time>2003-04-13T09:32:09Z</time>
      </trkpt>
      <trkpt lat="35.06053201854229" lon="-2.936996994540095">
        <ele>101.5</ele>
        <time>2003-04-13T09:32:14Z</time>
      </trkpt>
      <trkpt lat="35.06006196141243" lon="-2.938247993588448">
        <ele>101.5</ele>
        <time>2003-04-13T09:32:18Z</time>
      </trkpt>
      <trkpt lat="35.059677986428142" lon="-2.939267987385392">
        <ele>100.7</ele>
        <time>2003-04-13T09:32:22Z</time>
      </trkpt>
      <trkpt lat="35.059291999787092" lon="-2.94027297757566">
        <ele>99.299999999999997</ele>
        <time>2003-04-13T09:32:26Z</time>
      </trkpt>
      <trkpt lat="35.058908024802804" lon="-2.941291965544224">
        <ele>98.200000000000003</ele>
        <time>2003-04-13T09:32:30Z</time>
      </trkpt>
      <trkpt lat="35.05853503011167" lon="-2.942368034273386">
        <ele>97.599999999999994</ele>
        <time>2003-04-13T09:32:34Z</time>
      </trkpt>
      <trkpt lat="35.058133034035563" lon="-2.943442007526755">
        <ele>97.900000000000006</ele>
        <time>2003-04-13T09:32:38Z</time>
      </trkpt>
      <trkpt lat="35.057731959968805" lon="-2.944532996043563">
        <ele>99.599999999999994</ele>
        <time>2003-04-13T09:32:42Z</time>
      </trkpt>
      <trkpt lat="35.057319989427924" lon="-2.945596994832158">
        <ele>101.2</ele>
        <time>2003-04-13T09:32:47Z</time>
      </trkpt>
      <trkpt lat="35.056850016117096" lon="-2.946605002507567">
        <ele>102.90000000000001</ele>
        <time>2003-04-13T09:32:51Z</time>
      </trkpt>
      <trkpt lat="35.056294966489077" lon="-2.94751200824976">
        <ele>104.40000000000001</ele>
        <time>2003-04-13T09:32:55Z</time>
      </trkpt>
      <trkpt lat="35.055542020127177" lon="-2.948514986783266">
        <ele>105.7</ele>
        <time>2003-04-13T09:33:00Z</time>
      </trkpt>
      <trkpt lat="35.054863002151251" lon="-2.949312021955848">
        <ele>106.90000000000001</ele>
        <time>2003-04-13T09:33:04Z</time>
      </trkpt>
      <trkpt lat="35.054160011932254" lon="-2.950105033814907">
        <ele>107.7</ele>
        <time>2003-04-13T09:33:08Z</time>
      </trkpt>
      <trkpt lat="35.05344302393496" lon="-2.950895028188825">
        <ele>108.5</ele>
        <time>2003-04-13T09:33:12Z</time>
      </trkpt>
      <trkpt lat="35.052753025665879" lon="-2.951692985370755">
        <ele>109.40000000000001</ele>
        <time>2003-04-13T09:33:16Z</time>
      </trkpt>
      <trkpt lat="35.052124969661236" lon="-2.952488008886576">
        <ele>110.40000000000001</ele>
        <time>2003-04-13T09:33:19Z</time>
      </trkpt>
      <trkpt lat="35.051362970843911" lon="-2.95348696410656">
        <ele>112.2</ele>
        <time>2003-04-13T09:33:24Z</time>
      </trkpt>
      <trkpt lat="35.050746984779835" lon="-2.954288022592664">
        <ele>113.59999999999999</ele>
        <time>2003-04-13T09:33:28Z</time>
      </trkpt>
      <trkpt lat="35.050108032301068" lon="-2.955114981159568">
        <ele>115</ele>
        <time>2003-04-13T09:33:32Z</time>
      </trkpt>
      <trkpt lat="35.049470001831651" lon="-2.955951998010278">
        <ele>116.59999999999999</ele>
        <time>2003-04-13T09:33:36Z</time>
      </trkpt>
      <trkpt lat="35.048825014382601" lon="-2.956807035952807">
        <ele>117.8</ele>
        <time>2003-04-13T09:33:41Z</time>
      </trkpt>
      <trkpt lat="35.048182960599661" lon="-2.957637012004852">
        <ele>119.09999999999999</ele>
        <time>2003-04-13T09:33:45Z</time>
      </trkpt>
      <trkpt lat="35.047569992020726" lon="-2.958455001935363">
        <ele>120.3</ele>
        <time>2003-04-13T09:33:49Z</time>
      </trkpt>
      <trkpt lat="35.047036986798048" lon="-2.959160003811121">
        <ele>121.59999999999999</ele>
        <time>2003-04-13T09:33:53Z</time>
      </trkpt>
      <trkpt lat="35.04658997990191" lon="-2.959735002368689">
        <ele>122.59999999999999</ele>
        <time>2003-04-13T09:33:57Z</time>
      </trkpt>
      <trkpt lat="35.04643801599741" lon="-2.959942035377026">
        <ele>122.8</ele>
        <time>2003-04-13T09:33:58Z</time>
      </trkpt>
      <trkpt lat="35.046312035992742" lon="-2.960110008716583">
        <ele>122.90000000000001</ele>
        <time>2003-04-13T09:34:01Z</time>
      </trkpt>
      <trkpt lat="35.046053035184741" lon="-2.96053203754127">
        <ele>123.5</ele>
        <time>2003-04-13T09:34:06Z</time>
      </trkpt>
      <trkpt lat="35.046005006879568" lon="-2.960692970082164">
        <ele>123.7</ele>
        <time>2003-04-13T09:34:08Z</time>
      </trkpt>
      <trkpt lat="35.04594499245286" lon="-2.96085499227047">
        <ele>123.7</ele>
        <time>2003-04-13T09:34:10Z</time>
      </trkpt>
      <trkpt lat="35.045805014669895" lon="-2.960981978103519">
        <ele>123.5</ele>
        <time>2003-04-13T09:34:12Z</time>
      </trkpt>
      <trkpt lat="35.045639974996448" lon="-2.960951970890164">
        <ele>123.59999999999999</ele>
        <time>2003-04-13T09:34:13Z</time>
      </trkpt>
      <trkpt lat="35.045539978891611" lon="-2.9608119931072">
        <ele>123.8</ele>
        <time>2003-04-13T09:34:16Z</time>
      </trkpt>
      <trkpt lat="35.045454986393452" lon="-2.960632033646107">
        <ele>123.7</ele>
        <time>2003-04-13T09:34:18Z</time>
      </trkpt>
      <trkpt lat="35.045373011380434" lon="-2.960558021441102">
        <ele>123.90000000000001</ele>
        <time>2003-04-13T09:34:21Z</time>
      </trkpt>
      <trkpt lat="35.045243008062243" lon="-2.960479985922575">
        <ele>124</ele>
        <time>2003-04-13T09:34:22Z</time>
      </trkpt>
      <trkpt lat="35.044840006157756" lon="-2.960242023691535">
        <ele>124.5</ele>
        <time>2003-04-13T09:34:29Z</time>
      </trkpt>
      <trkpt lat="35.044649988412857" lon="-2.960132975131273">
        <ele>124.59999999999999</ele>
        <time>2003-04-13T09:34:30Z</time>
      </trkpt>
      <trkpt lat="35.044429963454604" lon="-2.960006995126605">
        <ele>124.7</ele>
        <time>2003-04-13T09:34:33Z</time>
      </trkpt>
      <trkpt lat="35.044162999838591" lon="-2.959847990423441">
        <ele>124.7</ele>
        <time>2003-04-13T09:34:35Z</time>
      </trkpt>
      <trkpt lat="35.043701995164156" lon="-2.959595024585724">
        <ele>125</ele>
        <time>2003-04-13T09:34:37Z</time>
      </trkpt>
      <trkpt lat="35.042847041040659" lon="-2.959162015467882">
        <ele>126.2</ele>
        <time>2003-04-13T09:34:43Z</time>
      </trkpt>
      <trkpt lat="35.041899969801307" lon="-2.958652982488275">
        <ele>127.2</ele>
        <time>2003-04-13T09:34:48Z</time>
      </trkpt>
      <trkpt lat="35.040888022631407" lon="-2.958107991144061">
        <ele>128.59999999999999</ele>
        <time>2003-04-13T09:34:52Z</time>
      </trkpt>
      <trkpt lat="35.040053017437458" lon="-2.957655033096671">
        <ele>129.5</ele>
        <time>2003-04-13T09:34:56Z</time>
      </trkpt>
      <trkpt lat="35.039060013368726" lon="-2.957135019823909">
        <ele>130.90000000000001</ele>
        <time>2003-04-13T09:35:02Z</time>
      </trkpt>
      <trkpt lat="35.038161976262927" lon="-2.956658005714417">
        <ele>132.09999999999999</ele>
        <time>2003-04-13T09:35:07Z</time>
      </trkpt>
      <trkpt lat="35.037220017984509" lon="-2.956155007705092">
        <ele>132.69999999999999</ele>
        <time>2003-04-13T09:35:11Z</time>
      </trkpt>
      <trkpt lat="35.036261966452003" lon="-2.955640023574233">
        <ele>133.5</ele>
        <time>2003-04-13T09:35:16Z</time>
      </trkpt>
      <trkpt lat="35.035295030102134" lon="-2.955126967281103">
        <ele>135</ele>
        <time>2003-04-13T09:35:22Z</time>
      </trkpt>
      <trkpt lat="35.03432298079133" lon="-2.954592034220696">
        <ele>136.09999999999999</ele>
        <time>2003-04-13T09:35:27Z</time>
      </trkpt>
      <trkpt lat="35.033369958400726" lon="-2.954073026776314">
        <ele>137.30000000000001</ele>
        <time>2003-04-13T09:35:31Z</time>
      </trkpt>
      <trkpt lat="35.032462030649185" lon="-2.953582014888525">
        <ele>138</ele>
        <time>2003-04-13T09:35:37Z</time>
      </trkpt>
      <trkpt lat="35.03150699660182" lon="-2.953063007444143">
        <ele>139.30000000000001</ele>
        <time>2003-04-13T09:35:42Z</time>
      </trkpt>
      <trkpt lat="35.030499994754791" lon="-2.952522039413452">
        <ele>140.5</ele>
        <time>2003-04-13T09:35:46Z</time>
      </trkpt>
      <trkpt lat="35.029492992907763" lon="-2.95198199339211">
        <ele>141.09999999999999</ele>
        <time>2003-04-13T09:35:51Z</time>
      </trkpt>
      <trkpt lat="35.028505017980933" lon="-2.951444964855909">
        <ele>142.69999999999999</ele>
        <time>2003-04-13T09:35:57Z</time>
      </trkpt>
      <trkpt lat="35.027557024732232" lon="-2.950940039008856">
        <ele>144.80000000000001</ele>
        <time>2003-04-13T09:36:01Z</time>
      </trkpt>
      <trkpt lat="35.026690000668168" lon="-2.950475011020899">
        <ele>146.19999999999999</ele>
        <time>2003-04-13T09:36:06Z</time>
      </trkpt>
      <trkpt lat="35.025781989097595" lon="-2.950015012174845">
        <ele>147.59999999999999</ele>
        <time>2003-04-13T09:36:12Z</time>
      </trkpt>
      <trkpt lat="35.024842964485288" lon="-2.9497030377388">
        <ele>147.59999999999999</ele>
        <time>2003-04-13T09:36:17Z</time>
      </trkpt>
      <trkpt lat="35.023907963186502" lon="-2.949422998353839">
        <ele>148.19999999999999</ele>
        <time>2003-04-13T09:36:21Z</time>
      </trkpt>
      <trkpt lat="35.022968016564846" lon="-2.949065007269383">
        <ele>149</ele>
        <time>2003-04-13T09:36:27Z</time>
      </trkpt>
      <trkpt lat="35.021948022767901" lon="-2.948605008423328">
        <ele>149.09999999999999</ele>
        <time>2003-04-13T09:36:32Z</time>
      </trkpt>
      <trkpt lat="35.021058032289147" lon="-2.948205024003983">
        <ele>149.5</ele>
        <time>2003-04-13T09:36:36Z</time>
      </trkpt>
      <trkpt lat="35.0201849732548" lon="-2.947809984907508">
        <ele>150.30000000000001</ele>
        <time>2003-04-13T09:36:40Z</time>
      </trkpt>
      <trkpt lat="35.01930202357471" lon="-2.947422992438078">
        <ele>151.09999999999999</ele>
        <time>2003-04-13T09:36:44Z</time>
      </trkpt>
      <trkpt lat="35.018380014225841" lon="-2.947014961391687">
        <ele>152</ele>
        <time>2003-04-13T09:36:48Z</time>
      </trkpt>
      <trkpt lat="35.017481977120042" lon="-2.946617994457483">
        <ele>152.80000000000001</ele>
        <time>2003-04-13T09:36:52Z</time>
      </trkpt>
      <trkpt lat="35.016621993854642" lon="-2.946227984502912">
        <ele>153.40000000000001</ele>
        <time>2003-04-13T09:36:55Z</time>
      </trkpt>
      <trkpt lat="35.015748012810946" lon="-2.945836968719959">
        <ele>154.40000000000001</ele>
        <time>2003-04-13T09:36:59Z</time>
      </trkpt>
      <trkpt lat="35.014861961826682" lon="-2.945437990128994">
        <ele>155.09999999999999</ele>
        <time>2003-04-13T09:37:03Z</time>
      </trkpt>
      <trkpt lat="35.013969959691167" lon="-2.945042029023171">
        <ele>155.5</ele>
        <time>2003-04-13T09:37:07Z</time>
      </trkpt>
      <trkpt lat="35.01309497281909" lon="-2.944652019068599">
        <ele>156.80000000000001</ele>
        <time>2003-04-13T09:37:11Z</time>
      </trkpt>
      <trkpt lat="35.01227798871696" lon="-2.944233007729054">
        <ele>158.19999999999999</ele>
        <time>2003-04-13T09:37:15Z</time>
      </trkpt>
      <trkpt lat="35.011919997632504" lon="-2.943922961130738">
        <ele>158.80000000000001</ele>
        <time>2003-04-13T09:37:18Z</time>
      </trkpt>
      <trkpt lat="35.011208038777113" lon="-2.943245032802224">
        <ele>160.69999999999999</ele>
        <time>2003-04-13T09:37:22Z</time>
      </trkpt>
      <trkpt lat="35.010292986407876" lon="-2.942497031763196">
        <ele>162.69999999999999</ele>
        <time>2003-04-13T09:37:26Z</time>
      </trkpt>
      <trkpt lat="35.009329989552498" lon="-2.94188498519361">
        <ele>163.5</ele>
        <time>2003-04-13T09:37:31Z</time>
      </trkpt>
      <trkpt lat="35.00834503211081" lon="-2.94130202382803">
        <ele>164.30000000000001</ele>
        <time>2003-04-13T09:37:37Z</time>
      </trkpt>
      <trkpt lat="35.007512038573623" lon="-2.94081000611186">
        <ele>164.80000000000001</ele>
        <time>2003-04-13T09:37:41Z</time>
      </trkpt>
      <trkpt lat="35.006660018116236" lon="-2.940287981182337">
        <ele>165.69999999999999</ele>
        <time>2003-04-13T09:37:45Z</time>
      </trkpt>
      <trkpt lat="35.006062975153327" lon="-2.939823037013412">
        <ele>166.30000000000001</ele>
        <time>2003-04-13T09:37:48Z</time>
      </trkpt>
      <trkpt lat="35.005344981327653" lon="-2.93909297324717">
        <ele>166.80000000000001</ele>
        <time>2003-04-13T09:37:52Z</time>
      </trkpt>
      <trkpt lat="35.004751961678267" lon="-2.938257968053222">
        <ele>167.80000000000001</ele>
        <time>2003-04-13T09:37:56Z</time>
      </trkpt>
      <trkpt lat="35.004118038341403" lon="-2.937137978151441">
        <ele>168</ele>
        <time>2003-04-13T09:38:01Z</time>
      </trkpt>
      <trkpt lat="35.003582015633583" lon="-2.936198031529784">
        <ele>167.80000000000001</ele>
        <time>2003-04-13T09:38:05Z</time>
      </trkpt>
      <trkpt lat="35.00301799736917" lon="-2.935199998319149">
        <ele>167.59999999999999</ele>
        <time>2003-04-13T09:38:09Z</time>
      </trkpt>
      <trkpt lat="35.002430006861687" lon="-2.934182016178966">
        <ele>167.09999999999999</ele>
        <time>2003-04-13T09:38:13Z</time>
      </trkpt>
      <trkpt lat="35.001858025789261" lon="-2.933188006281853">
        <ele>167.59999999999999</ele>
        <time>2003-04-13T09:38:16Z</time>
      </trkpt>
      <trkpt lat="35.00129803083837" lon="-2.932212017476559">
        <ele>168.19999999999999</ele>
        <time>2003-04-13T09:38:20Z</time>
      </trkpt>
      <trkpt lat="35.00074197538197" lon="-2.93122798204422">
        <ele>168.80000000000001</ele>
        <time>2003-04-13T09:38:24Z</time>
      </trkpt>
      <trkpt lat="35.00018198043108" lon="-2.930247969925404">
        <ele>169.40000000000001</ele>
        <time>2003-04-13T09:38:28Z</time>
      </trkpt>
      <trkpt lat="34.999617040157318" lon="-2.929262006655335">
        <ele>170.5</ele>
        <time>2003-04-13T09:38:32Z</time>
      </trkpt>
      <trkpt lat="34.999042041599751" lon="-2.928312001749873">
        <ele>172.30000000000001</ele>
        <time>2003-04-13T09:38:36Z</time>
      </trkpt>
      <trkpt lat="34.99869997613132" lon="-2.927916962653399">
        <ele>173.19999999999999</ele>
        <time>2003-04-13T09:38:39Z</time>
      </trkpt>
      <trkpt lat="34.998326981440187" lon="-2.927572969347239">
        <ele>174.19999999999999</ele>
        <time>2003-04-13T09:38:40Z</time>
      </trkpt>
      <trkpt lat="34.99753799289465" lon="-2.927023032680154">
        <ele>176</ele>
        <time>2003-04-13T09:38:44Z</time>
      </trkpt>
      <trkpt lat="34.997119987383485" lon="-2.926829997450113">
        <ele>177.30000000000001</ele>
        <time>2003-04-13T09:38:47Z</time>
      </trkpt>
      <trkpt lat="34.996459996327758" lon="-2.926637968048453">
        <ele>178.90000000000001</ele>
        <time>2003-04-13T09:38:50Z</time>
      </trkpt>
      <trkpt lat="34.995558019727468" lon="-2.926460020244122">
        <ele>180.59999999999999</ele>
        <time>2003-04-13T09:38:54Z</time>
      </trkpt>
      <trkpt lat="34.994641961529851" lon="-2.9262850061059">
        <ele>182.30000000000001</ele>
        <time>2003-04-13T09:38:58Z</time>
      </trkpt>
      <trkpt lat="34.993721963837743" lon="-2.926103034988046">
        <ele>183.90000000000001</ele>
        <time>2003-04-13T09:39:02Z</time>
      </trkpt>
      <trkpt lat="34.993057027459145" lon="-2.925887033343315">
        <ele>186.19999999999999</ele>
        <time>2003-04-13T09:39:05Z</time>
      </trkpt>
      <trkpt lat="34.992182962596416" lon="-2.925477996468544">
        <ele>188.19999999999999</ele>
        <time>2003-04-13T09:39:09Z</time>
      </trkpt>
      <trkpt lat="34.991551972925663" lon="-2.925080023705959">
        <ele>188.69999999999999</ele>
        <time>2003-04-13T09:39:11Z</time>
      </trkpt>
      <trkpt lat="34.990734988823533" lon="-2.924479963257909">
        <ele>189.40000000000001</ele>
        <time>2003-04-13T09:39:15Z</time>
      </trkpt>
      <trkpt lat="34.989993022754788" lon="-2.923817038536072">
        <ele>190.30000000000001</ele>
        <time>2003-04-13T09:39:19Z</time>
      </trkpt>
      <trkpt lat="34.989117030054331" lon="-2.922974992543459">
        <ele>190.09999999999999</ele>
        <time>2003-04-13T09:39:25Z</time>
      </trkpt>
      <trkpt lat="34.988227961584926" lon="-2.922147028148174">
        <ele>189.40000000000001</ele>
        <time>2003-04-13T09:39:30Z</time>
      </trkpt>
      <trkpt lat="34.987509967759252" lon="-2.921468010172248">
        <ele>188.19999999999999</ele>
        <time>2003-04-13T09:39:34Z</time>
      </trkpt>
      <trkpt lat="34.986764984205365" lon="-2.920753033831716">
        <ele>186.5</ele>
        <time>2003-04-13T09:39:37Z</time>
      </trkpt>
      <trkpt lat="34.986032992601395" lon="-2.920062029734254">
        <ele>184.69999999999999</ele>
        <time>2003-04-13T09:39:41Z</time>
      </trkpt>
      <trkpt lat="34.985197987407446" lon="-2.919272035360336">
        <ele>185</ele>
        <time>2003-04-13T09:39:46Z</time>
      </trkpt>
      <trkpt lat="34.984376979991794" lon="-2.918484974652529">
        <ele>187</ele>
        <time>2003-04-13T09:39:52Z</time>
      </trkpt>
      <trkpt lat="34.983518002554774" lon="-2.91767000220716">
        <ele>189.59999999999999</ele>
        <time>2003-04-13T09:39:57Z</time>
      </trkpt>
      <trkpt lat="34.982762960717082" lon="-2.917001964524388">
        <ele>191</ele>
        <time>2003-04-13T09:40:01Z</time>
      </trkpt>
      <trkpt lat="34.981917981058359" lon="-2.916407017037273">
        <ele>192.59999999999999</ele>
        <time>2003-04-13T09:40:04Z</time>
      </trkpt>
      <trkpt lat="34.980992032214999" lon="-2.915914999321103">
        <ele>194.5</ele>
        <time>2003-04-13T09:40:08Z</time>
      </trkpt>
      <trkpt lat="34.980002967640758" lon="-2.915492970496416">
        <ele>195.40000000000001</ele>
        <time>2003-04-13T09:40:12Z</time>
      </trkpt>
      <trkpt lat="34.979050029069185" lon="-2.915089968591929">
        <ele>196.19999999999999</ele>
        <time>2003-04-13T09:40:16Z</time>
      </trkpt>
      <trkpt lat="34.978166995570064" lon="-2.91472502052784">
        <ele>197</ele>
        <time>2003-04-13T09:40:20Z</time>
      </trkpt>
      <trkpt lat="34.977169968187809" lon="-2.914301985874772">
        <ele>197.90000000000001</ele>
        <time>2003-04-13T09:40:26Z</time>
      </trkpt>
      <trkpt lat="34.97622499242425" lon="-2.913905018940568">
        <ele>198.5</ele>
        <time>2003-04-13T09:40:31Z</time>
      </trkpt>
      <trkpt lat="34.975268030539155" lon="-2.913491958752275">
        <ele>198.90000000000001</ele>
        <time>2003-04-13T09:40:35Z</time>
      </trkpt>
      <trkpt lat="34.97426999732852" lon="-2.913070013746619">
        <ele>199.30000000000001</ele>
        <time>2003-04-13T09:40:40Z</time>
      </trkpt>
      <trkpt lat="34.973227959126234" lon="-2.912627030164003">
        <ele>199.90000000000001</ele>
        <time>2003-04-13T09:40:46Z</time>
      </trkpt>
      <trkpt lat="34.972393037751317" lon="-2.912174994125962">
        <ele>201.5</ele>
        <time>2003-04-13T09:40:50Z</time>
      </trkpt>
      <trkpt lat="34.971583010628819" lon="-2.911605024710298">
        <ele>202.5</ele>
        <time>2003-04-13T09:40:54Z</time>
      </trkpt>
      <trkpt lat="34.970829980447888" lon="-2.910975040867925">
        <ele>203.40000000000001</ele>
        <time>2003-04-13T09:40:58Z</time>
      </trkpt>
      <trkpt lat="34.969937978312373" lon="-2.910223016515374">
        <ele>204.80000000000001</ele>
        <time>2003-04-13T09:41:02Z</time>
      </trkpt>
      <trkpt lat="34.969062991440296" lon="-2.909471997991204">
        <ele>206.40000000000001</ele>
        <time>2003-04-13T09:41:09Z</time>
      </trkpt>
      <trkpt lat="34.968412974849343" lon="-2.90875299833715">
        <ele>207.30000000000001</ele>
        <time>2003-04-13T09:41:13Z</time>
      </trkpt>
      <trkpt lat="34.967766981571913" lon="-2.907968033105135">
        <ele>207.59999999999999</ele>
        <time>2003-04-13T09:41:17Z</time>
      </trkpt>
      <trkpt lat="34.967102967202663" lon="-2.907182984054089">
        <ele>208.90000000000001</ele>
        <time>2003-04-13T09:41:21Z</time>
      </trkpt>
      <trkpt lat="34.966425038874149" lon="-2.906387960538268">
        <ele>210</ele>
        <time>2003-04-13T09:41:25Z</time>
      </trkpt>
      <trkpt lat="34.965730011463165" lon="-2.905556978657842">
        <ele>211.5</ele>
        <time>2003-04-13T09:41:29Z</time>
      </trkpt>
      <trkpt lat="34.965007994323969" lon="-2.904703030362725">
        <ele>213.09999999999999</ele>
        <time>2003-04-13T09:41:33Z</time>
      </trkpt>
      <trkpt lat="34.964274996891618" lon="-2.90383298881352">
        <ele>215.09999999999999</ele>
        <time>2003-04-13T09:41:37Z</time>
      </trkpt>
      <trkpt lat="34.963534958660603" lon="-2.902963031083345">
        <ele>217.30000000000001</ele>
        <time>2003-04-13T09:41:41Z</time>
      </trkpt>
      <trkpt lat="34.962810007855296" lon="-2.902102963998914">
        <ele>219.40000000000001</ele>
        <time>2003-04-13T09:41:45Z</time>
      </trkpt>
      <trkpt lat="34.962126966565847" lon="-2.901296960189939">
        <ele>221</ele>
        <time>2003-04-13T09:41:49Z</time>
      </trkpt>
      <trkpt lat="34.961469992995262" lon="-2.900517024099827">
        <ele>222.40000000000001</ele>
        <time>2003-04-13T09:41:52Z</time>
      </trkpt>
      <trkpt lat="34.960722997784615" lon="-2.899593003094196">
        <ele>223.69999999999999</ele>
        <time>2003-04-13T09:41:57Z</time>
      </trkpt>
      <trkpt lat="34.960040040314198" lon="-2.898641992360354">
        <ele>223.40000000000001</ele>
        <time>2003-04-13T09:42:03Z</time>
      </trkpt>
      <trkpt lat="34.959294972941279" lon="-2.897637002170086">
        <ele>223.40000000000001</ele>
        <time>2003-04-13T09:42:08Z</time>
      </trkpt>
      <trkpt lat="34.958661971613765" lon="-2.896805014461279">
        <ele>223.40000000000001</ele>
        <time>2003-04-13T09:42:12Z</time>
      </trkpt>
      <trkpt lat="34.95794196613133" lon="-2.8960130084306">
        <ele>223.69999999999999</ele>
        <time>2003-04-13T09:42:16Z</time>
      </trkpt>
      <trkpt lat="34.957207040861249" lon="-2.895186971873045">
        <ele>225.09999999999999</ele>
        <time>2003-04-13T09:42:19Z</time>
      </trkpt>
      <trkpt lat="34.956451999023557" lon="-2.894339980557561">
        <ele>226.69999999999999</ele>
        <time>2003-04-13T09:42:23Z</time>
      </trkpt>
      <trkpt lat="34.955702992156148" lon="-2.893516961485148">
        <ele>228.40000000000001</ele>
        <time>2003-04-13T09:42:27Z</time>
      </trkpt>
      <trkpt lat="34.954992039129138" lon="-2.892710035666823">
        <ele>230.09999999999999</ele>
        <time>2003-04-13T09:42:31Z</time>
      </trkpt>
      <trkpt lat="34.954287959262729" lon="-2.891924986615777">
        <ele>231.69999999999999</ele>
        <time>2003-04-13T09:42:35Z</time>
      </trkpt>
      <trkpt lat="34.953589998185635" lon="-2.891157036647201">
        <ele>233.69999999999999</ele>
        <time>2003-04-13T09:42:39Z</time>
      </trkpt>
      <trkpt lat="34.952673017978668" lon="-2.89021298289299">
        <ele>236.30000000000001</ele>
        <time>2003-04-13T09:42:45Z</time>
      </trkpt>
      <trkpt lat="34.95119696483016" lon="-2.889098022133112">
        <ele>240.30000000000001</ele>
        <time>2003-04-13T09:42:51Z</time>
      </trkpt>
      <trkpt lat="34.950347961857915" lon="-2.88849201053381">
        <ele>242.90000000000001</ele>
        <time>2003-04-13T09:42:55Z</time>
      </trkpt>
      <trkpt lat="34.949531983584166" lon="-2.887897985056043">
        <ele>245.69999999999999</ele>
        <time>2003-04-13T09:42:59Z</time>
      </trkpt>
      <trkpt lat="34.948742995038629" lon="-2.88733497262001">
        <ele>248.5</ele>
        <time>2003-04-13T09:43:03Z</time>
      </trkpt>
      <trkpt lat="34.947782009840012" lon="-2.886642040684819">
        <ele>251.80000000000001</ele>
        <time>2003-04-13T09:43:09Z</time>
      </trkpt>
      <trkpt lat="34.946817001327872" lon="-2.8859350271523">
        <ele>255.30000000000001</ele>
        <time>2003-04-13T09:43:13Z</time>
      </trkpt>
      <trkpt lat="34.946019966155291" lon="-2.885396992787719">
        <ele>258.69999999999999</ele>
        <time>2003-04-13T09:43:17Z</time>
      </trkpt>
      <trkpt lat="34.945156965404749" lon="-2.884942023083568">
        <ele>262.19999999999999</ele>
        <time>2003-04-13T09:43:21Z</time>
      </trkpt>
      <trkpt lat="34.944260017946362" lon="-2.884487975388765">
        <ele>265.19999999999999</ele>
        <time>2003-04-13T09:43:25Z</time>
      </trkpt>
      <trkpt lat="34.94335301220417" lon="-2.884014984592795">
        <ele>268.30000000000001</ele>
        <time>2003-04-13T09:43:29Z</time>
      </trkpt>
      <trkpt lat="34.942445000633597" lon="-2.883558003231883">
        <ele>270.89999999999998</ele>
        <time>2003-04-13T09:43:33Z</time>
      </trkpt>
      <trkpt lat="34.941547969356179" lon="-2.883104961365461">
        <ele>273.89999999999998</ele>
        <time>2003-04-13T09:43:37Z</time>
      </trkpt>
      <trkpt lat="34.940648004412651" lon="-2.882652003318071">
        <ele>277.60000000000002</ele>
        <time>2003-04-13T09:43:41Z</time>
      </trkpt>
      <trkpt lat="34.93974301032722" lon="-2.882193010300398">
        <ele>282.19999999999999</ele>
        <time>2003-04-13T09:43:45Z</time>
      </trkpt>
      <trkpt lat="34.938832987099886" lon="-2.88172697648406">
        <ele>287</ele>
        <time>2003-04-13T09:43:49Z</time>
      </trkpt>
      <trkpt lat="34.937933022156358" lon="-2.881277035921812">
        <ele>292.60000000000002</ele>
        <time>2003-04-13T09:43:53Z</time>
      </trkpt>
      <trkpt lat="34.93705996312201" lon="-2.880828017368913">
        <ele>298.5</ele>
        <time>2003-04-13T09:43:57Z</time>
      </trkpt>
      <trkpt lat="34.936024965718389" lon="-2.880301969125867">
        <ele>303.69999999999999</ele>
        <time>2003-04-13T09:44:03Z</time>
      </trkpt>
      <trkpt lat="34.935175040736794" lon="-2.879837024956942">
        <ele>305.80000000000001</ele>
        <time>2003-04-13T09:44:07Z</time>
      </trkpt>
      <trkpt lat="34.934180025011301" lon="-2.87929798476398">
        <ele>306.80000000000001</ele>
        <time>2003-04-13T09:44:11Z</time>
      </trkpt>
      <trkpt lat="34.933247035369277" lon="-2.878962960094214">
        <ele>302.10000000000002</ele>
        <time>2003-04-13T09:44:15Z</time>
      </trkpt>
      <trkpt lat="34.932302981615067" lon="-2.878597006201744">
        <ele>298</ele>
        <time>2003-04-13T09:44:19Z</time>
      </trkpt>
      <trkpt lat="34.931369991973042" lon="-2.878217976540327">
        <ele>294.30000000000001</ele>
        <time>2003-04-13T09:44:23Z</time>
      </trkpt>
      <trkpt lat="34.930468015372753" lon="-2.877783039584756">
        <ele>290.30000000000001</ele>
        <time>2003-04-13T09:44:27Z</time>
      </trkpt>
      <trkpt lat="34.929552963003516" lon="-2.877335026860237">
        <ele>286.39999999999998</ele>
        <time>2003-04-13T09:44:31Z</time>
      </trkpt>
      <trkpt lat="34.928617039695382" lon="-2.876957003027201">
        <ele>282.30000000000001</ele>
        <time>2003-04-13T09:44:35Z</time>
      </trkpt>
      <trkpt lat="34.927641972899437" lon="-2.876694984734058">
        <ele>278.19999999999999</ele>
        <time>2003-04-13T09:44:39Z</time>
      </trkpt>
      <trkpt lat="34.926643017679453" lon="-2.876589959487319">
        <ele>275.39999999999998</ele>
        <time>2003-04-13T09:44:43Z</time>
      </trkpt>
      <trkpt lat="34.925672980025411" lon="-2.876507984474301">
        <ele>273.69999999999999</ele>
        <time>2003-04-13T09:44:47Z</time>
      </trkpt>
      <trkpt lat="34.924700008705258" lon="-2.876428021118045">
        <ele>270.80000000000001</ele>
        <time>2003-04-13T09:44:51Z</time>
      </trkpt>
      <trkpt lat="34.923701975494623" lon="-2.876343028619885">
        <ele>267.5</ele>
        <time>2003-04-13T09:44:56Z</time>
      </trkpt>
      <trkpt lat="34.922692961990833" lon="-2.876242026686668">
        <ele>264.19999999999999</ele>
        <time>2003-04-13T09:45:00Z</time>
      </trkpt>
      <trkpt lat="34.92221200838685" lon="-2.876127026975155">
        <ele>262.69999999999999</ele>
        <time>2003-04-13T09:45:01Z</time>
      </trkpt>
      <trkpt lat="34.921212969347835" lon="-2.875840030610561">
        <ele>258.5</ele>
        <time>2003-04-13T09:45:05Z</time>
      </trkpt>
      <trkpt lat="34.920258019119501" lon="-2.875401992350817">
        <ele>255.19999999999999</ele>
        <time>2003-04-13T09:45:09Z</time>
      </trkpt>
      <trkpt lat="34.919347995892167" lon="-2.874964959919453">
        <ele>252.30000000000001</ele>
        <time>2003-04-13T09:45:13Z</time>
      </trkpt>
      <trkpt lat="34.918441995978355" lon="-2.874539997428656">
        <ele>250.40000000000001</ele>
        <time>2003-04-13T09:45:17Z</time>
      </trkpt>
      <trkpt lat="34.91750699467957" lon="-2.874162979424">
        <ele>249.40000000000001</ele>
        <time>2003-04-13T09:45:21Z</time>
      </trkpt>
      <trkpt lat="34.917008019983768" lon="-2.874089973047376">
        <ele>248.69999999999999</ele>
        <time>2003-04-13T09:45:24Z</time>
      </trkpt>
      <trkpt lat="34.916027002036572" lon="-2.873980002477765">
        <ele>247.30000000000001</ele>
        <time>2003-04-13T09:45:28Z</time>
      </trkpt>
      <trkpt lat="34.915065011009574" lon="-2.873874977231026">
        <ele>245.5</ele>
        <time>2003-04-13T09:45:32Z</time>
      </trkpt>
      <trkpt lat="34.914092039689422" lon="-2.873757965862751">
        <ele>243.30000000000001</ele>
        <time>2003-04-13T09:45:36Z</time>
      </trkpt>
      <trkpt lat="34.913091994822025" lon="-2.873631985858083">
        <ele>240.69999999999999</ele>
        <time>2003-04-13T09:45:40Z</time>
      </trkpt>
      <trkpt lat="34.912097984924912" lon="-2.873489996418357">
        <ele>238.69999999999999</ele>
        <time>2003-04-13T09:45:44Z</time>
      </trkpt>
      <trkpt lat="34.911112021654844" lon="-2.873201994225383">
        <ele>236.59999999999999</ele>
        <time>2003-04-13T09:45:48Z</time>
      </trkpt>
      <trkpt lat="34.910160005092621" lon="-2.872781977057457">
        <ele>234.09999999999999</ele>
        <time>2003-04-13T09:45:52Z</time>
      </trkpt>
      <trkpt lat="34.909200025722384" lon="-2.872367994859815">
        <ele>232.30000000000001</ele>
        <time>2003-04-13T09:45:55Z</time>
      </trkpt>
      <trkpt lat="34.908265024423599" lon="-2.871973039582372">
        <ele>231.09999999999999</ele>
        <time>2003-04-13T09:45:59Z</time>
      </trkpt>
      <trkpt lat="34.907339997589588" lon="-2.871574983000755">
        <ele>229.69999999999999</ele>
        <time>2003-04-13T09:46:03Z</time>
      </trkpt>
      <trkpt lat="34.906387981027365" lon="-2.871159994974732">
        <ele>228.80000000000001</ele>
        <time>2003-04-13T09:46:07Z</time>
      </trkpt>
      <trkpt lat="34.905441999435425" lon="-2.870756993070245">
        <ele>228.09999999999999</ele>
        <time>2003-04-13T09:46:11Z</time>
      </trkpt>
      <trkpt lat="34.9045280367136" lon="-2.870390033349395">
        <ele>227.19999999999999</ele>
        <time>2003-04-13T09:46:15Z</time>
      </trkpt>
      <trkpt lat="34.903569985181093" lon="-2.870127009227872">
        <ele>226.30000000000001</ele>
        <time>2003-04-13T09:46:19Z</time>
      </trkpt>
      <trkpt lat="34.902602965012193" lon="-2.869862979277968">
        <ele>225.09999999999999</ele>
        <time>2003-04-13T09:46:23Z</time>
      </trkpt>
      <trkpt lat="34.90167299285531" lon="-2.869601966813207">
        <ele>224</ele>
        <time>2003-04-13T09:46:27Z</time>
      </trkpt>
      <trkpt lat="34.900609999895096" lon="-2.869312958791852">
        <ele>222.69999999999999</ele>
        <time>2003-04-13T09:46:33Z</time>
      </trkpt>
      <trkpt lat="34.899533009156585" lon="-2.869014982134104">
        <ele>221.40000000000001</ele>
        <time>2003-04-13T09:46:38Z</time>
      </trkpt>
      <trkpt lat="34.898637989535928" lon="-2.868762016296387">
        <ele>219.19999999999999</ele>
        <time>2003-04-13T09:46:42Z</time>
      </trkpt>
      <trkpt lat="34.897755039855838" lon="-2.868460016325116">
        <ele>217.30000000000001</ele>
        <time>2003-04-13T09:46:46Z</time>
      </trkpt>
      <trkpt lat="34.896894972771406" lon="-2.868045028299093">
        <ele>216.59999999999999</ele>
        <time>2003-04-13T09:46:49Z</time>
      </trkpt>
      <trkpt lat="34.896047981455922" lon="-2.867595003917813">
        <ele>216.40000000000001</ele>
        <time>2003-04-13T09:46:53Z</time>
      </trkpt>
      <trkpt lat="34.895216999575496" lon="-2.867168029770255">
        <ele>217.40000000000001</ele>
        <time>2003-04-13T09:46:57Z</time>
      </trkpt>
      <trkpt lat="34.894242016598582" lon="-2.866671988740563">
        <ele>219.5</ele>
        <time>2003-04-13T09:47:02Z</time>
      </trkpt>
      <trkpt lat="34.89361303858459" lon="-2.866467973217368">
        <ele>221.59999999999999</ele>
        <time>2003-04-13T09:47:05Z</time>
      </trkpt>
      <trkpt lat="34.893167037516832" lon="-2.866420028731227">
        <ele>223.09999999999999</ele>
        <time>2003-04-13T09:47:08Z</time>
      </trkpt>
      <trkpt lat="34.892481984570622" lon="-2.866477025672793">
        <ele>225.40000000000001</ele>
        <time>2003-04-13T09:47:11Z</time>
      </trkpt>
      <trkpt lat="34.892036989331245" lon="-2.866637958213687">
        <ele>227.30000000000001</ele>
        <time>2003-04-13T09:47:13Z</time>
      </trkpt>
      <trkpt lat="34.890996962785721" lon="-2.867022017017007">
        <ele>232.30000000000001</ele>
        <time>2003-04-13T09:47:17Z</time>
      </trkpt>
      <trkpt lat="34.890575017780066" lon="-2.867059987038374">
        <ele>234.09999999999999</ele>
        <time>2003-04-13T09:47:20Z</time>
      </trkpt>
      <trkpt lat="34.889934975653887" lon="-2.867012964561582">
        <ele>236</ele>
        <time>2003-04-13T09:47:23Z</time>
      </trkpt>
      <trkpt lat="34.888859996572137" lon="-2.866977006196976">
        <ele>240.59999999999999</ele>
        <time>2003-04-13T09:47:28Z</time>
      </trkpt>
      <trkpt lat="34.888654975220561" lon="-2.867035008966923">
        <ele>241.30000000000001</ele>
        <time>2003-04-13T09:47:28Z</time>
      </trkpt>
      <trkpt lat="34.888257002457976" lon="-2.867210023105145">
        <ele>242</ele>
        <time>2003-04-13T09:47:31Z</time>
      </trkpt>
      <trkpt lat="34.887238014489412" lon="-2.867774963378906">
        <ele>244.30000000000001</ele>
        <time>2003-04-13T09:47:36Z</time>
      </trkpt>
      <trkpt lat="34.886294966563582" lon="-2.868345016613603">
        <ele>246.30000000000001</ele>
        <time>2003-04-13T09:47:40Z</time>
      </trkpt>
      <trkpt lat="34.88534202799201" lon="-2.868932001292706">
        <ele>247</ele>
        <time>2003-04-13T09:47:46Z</time>
      </trkpt>
      <trkpt lat="34.8843979742378" lon="-2.86949803121388">
        <ele>248.90000000000001</ele>
        <time>2003-04-13T09:47:51Z</time>
      </trkpt>
      <trkpt lat="34.883802020922303" lon="-2.869774969294667">
        <ele>250.90000000000001</ele>
        <time>2003-04-13T09:47:54Z</time>
      </trkpt>
      <trkpt lat="34.883376974612474" lon="-2.869859961792827">
        <ele>252.19999999999999</ele>
        <time>2003-04-13T09:47:55Z</time>
      </trkpt>
      <trkpt lat="34.882723018527031" lon="-2.869874965399504">
        <ele>253.80000000000001</ele>
        <time>2003-04-13T09:47:59Z</time>
      </trkpt>
      <trkpt lat="34.882293026894331" lon="-2.869767006486654">
        <ele>255.69999999999999</ele>
        <time>2003-04-13T09:48:00Z</time>
      </trkpt>
      <trkpt lat="34.881294993683696" lon="-2.869340032339096">
        <ele>260.89999999999998</ele>
        <time>2003-04-13T09:48:06Z</time>
      </trkpt>
      <trkpt lat="34.880335014313459" lon="-2.868857989087701">
        <ele>265.80000000000001</ele>
        <time>2003-04-13T09:48:10Z</time>
      </trkpt>
      <trkpt lat="34.879922959953547" lon="-2.868720022961497">
        <ele>267.60000000000002</ele>
        <time>2003-04-13T09:48:13Z</time>
      </trkpt>
      <trkpt lat="34.879273027181625" lon="-2.868642993271351">
        <ele>270.30000000000001</ele>
        <time>2003-04-13T09:48:15Z</time>
      </trkpt>
      <trkpt lat="34.878242975100875" lon="-2.868550037965179">
        <ele>274.19999999999999</ele>
        <time>2003-04-13T09:48:21Z</time>
      </trkpt>
      <trkpt lat="34.877219963818789" lon="-2.86855498328805">
        <ele>275.69999999999999</ele>
        <time>2003-04-13T09:48:26Z</time>
      </trkpt>
      <trkpt lat="34.876150013878942" lon="-2.868780037388206">
        <ele>273.69999999999999</ele>
        <time>2003-04-13T09:48:30Z</time>
      </trkpt>
      <trkpt lat="34.875243008136749" lon="-2.869105003774166">
        <ele>271.89999999999998</ele>
        <time>2003-04-13T09:48:34Z</time>
      </trkpt>
      <trkpt lat="34.874307001009583" lon="-2.869508005678654">
        <ele>271.5</ele>
        <time>2003-04-13T09:48:38Z</time>
      </trkpt>
      <trkpt lat="34.873350039124489" lon="-2.869897009804845">
        <ele>271.80000000000001</ele>
        <time>2003-04-13T09:48:42Z</time>
      </trkpt>
      <trkpt lat="34.872442027553916" lon="-2.870279978960753">
        <ele>273.39999999999998</ele>
        <time>2003-04-13T09:48:46Z</time>
      </trkpt>
      <trkpt lat="34.871509959921241" lon="-2.870656996965408">
        <ele>275.30000000000001</ele>
        <time>2003-04-13T09:48:50Z</time>
      </trkpt>
      <trkpt lat="34.870609994977713" lon="-2.871032003313303">
        <ele>277.5</ele>
        <time>2003-04-13T09:48:54Z</time>
      </trkpt>
      <trkpt lat="34.86970198340714" lon="-2.871426958590746">
        <ele>280.5</ele>
        <time>2003-04-13T09:48:59Z</time>
      </trkpt>
      <trkpt lat="34.868839988484979" lon="-2.871943032369018">
        <ele>283</ele>
        <time>2003-04-13T09:49:03Z</time>
      </trkpt>
      <trkpt lat="34.868029961362481" lon="-2.872522976249456">
        <ele>283.5</ele>
        <time>2003-04-13T09:49:07Z</time>
      </trkpt>
      <trkpt lat="34.867093032225966" lon="-2.873178021982312">
        <ele>285.10000000000002</ele>
        <time>2003-04-13T09:49:12Z</time>
      </trkpt>
      <trkpt lat="34.866361962631345" lon="-2.873782021924853">
        <ele>285</ele>
        <time>2003-04-13T09:49:16Z</time>
      </trkpt>
      <trkpt lat="34.866074966266751" lon="-2.874200027436018">
        <ele>284.39999999999998</ele>
        <time>2003-04-13T09:49:17Z</time>
      </trkpt>
      <trkpt lat="34.865728039294481" lon="-2.87491500377655">
        <ele>284</ele>
        <time>2003-04-13T09:49:20Z</time>
      </trkpt>
      <trkpt lat="34.86555696465075" lon="-2.875447003170848">
        <ele>284.5</ele>
        <time>2003-04-13T09:49:23Z</time>
      </trkpt>
      <trkpt lat="34.865216994658113" lon="-2.876542015001178">
        <ele>285.80000000000001</ele>
        <time>2003-04-13T09:49:27Z</time>
      </trkpt>
      <trkpt lat="34.864857997745275" lon="-2.877629986032844">
        <ele>286</ele>
        <time>2003-04-13T09:49:31Z</time>
      </trkpt>
      <trkpt lat="34.864462036639452" lon="-2.878661965951324">
        <ele>285.10000000000002</ele>
        <time>2003-04-13T09:49:35Z</time>
      </trkpt>
      <trkpt lat="34.864322980865836" lon="-2.878882996737957">
        <ele>284.89999999999998</ele>
        <time>2003-04-13T09:49:35Z</time>
      </trkpt>
      <trkpt lat="34.86415802501142" lon="-2.87908298894763">
        <ele>284.39999999999998</ele>
        <time>2003-04-13T09:49:36Z</time>
      </trkpt>
      <trkpt lat="34.863431984558702" lon="-2.879808023571968">
        <ele>281.60000000000002</ele>
        <time>2003-04-13T09:49:40Z</time>
      </trkpt>
      <trkpt lat="34.862452978268266" lon="-2.880455022677779">
        <ele>276.19999999999999</ele>
        <time>2003-04-13T09:49:46Z</time>
      </trkpt>
      <trkpt lat="34.862037990242243" lon="-2.880598017945886">
        <ele>274.39999999999998</ele>
        <time>2003-04-13T09:49:47Z</time>
      </trkpt>
      <trkpt lat="34.861374981701374" lon="-2.880702959373593">
        <ele>271</ele>
        <time>2003-04-13T09:49:51Z</time>
      </trkpt>
      <trkpt lat="34.860929986461997" lon="-2.880645040422678">
        <ele>270.89999999999998</ele>
        <time>2003-04-13T09:49:53Z</time>
      </trkpt>
      <trkpt lat="34.860102022066712" lon="-2.88043700158596">
        <ele>274</ele>
        <time>2003-04-13T09:49:57Z</time>
      </trkpt>
      <trkpt lat="34.859153022989631" lon="-2.879980020225048">
        <ele>279.5</ele>
        <time>2003-04-13T09:50:02Z</time>
      </trkpt>
      <trkpt lat="34.858173010870814" lon="-2.879502000287175">
        <ele>286.69999999999999</ele>
        <time>2003-04-13T09:50:06Z</time>
      </trkpt>
      <trkpt lat="34.857242032885551" lon="-2.879147026687861">
        <ele>292.19999999999999</ele>
        <time>2003-04-13T09:50:11Z</time>
      </trkpt>
      <trkpt lat="34.856846993789077" lon="-2.879102015867829">
        <ele>293.5</ele>
        <time>2003-04-13T09:50:14Z</time>
      </trkpt>
      <trkpt lat="34.855852983891964" lon="-2.879072008654475">
        <ele>295.30000000000001</ele>
        <time>2003-04-13T09:50:18Z</time>
      </trkpt>
      <trkpt lat="34.854870038107038" lon="-2.879067985340953">
        <ele>297.39999999999998</ele>
        <time>2003-04-13T09:50:24Z</time>
      </trkpt>
      <trkpt lat="34.854482961818576" lon="-2.879162030294538">
        <ele>298.30000000000001</ele>
        <time>2003-04-13T09:50:25Z</time>
      </trkpt>
      <trkpt lat="34.853472020477057" lon="-2.879514992237091">
        <ele>299.10000000000002</ele>
        <time>2003-04-13T09:50:30Z</time>
      </trkpt>
      <trkpt lat="34.85247197560966" lon="-2.879839958623052">
        <ele>301.5</ele>
        <time>2003-04-13T09:50:36Z</time>
      </trkpt>
      <trkpt lat="34.851457010954618" lon="-2.880165008828044">
        <ele>304.80000000000001</ele>
        <time>2003-04-13T09:50:41Z</time>
      </trkpt>
      <trkpt lat="34.850637009367347" lon="-2.880323007702828">
        <ele>307.19999999999999</ele>
        <time>2003-04-13T09:50:45Z</time>
      </trkpt>
      <trkpt lat="34.84961299225688" lon="-2.880295012146235">
        <ele>311.10000000000002</ele>
        <time>2003-04-13T09:50:49Z</time>
      </trkpt>
      <trkpt lat="34.848608002066612" lon="-2.880225023254752">
        <ele>316</ele>
        <time>2003-04-13T09:50:55Z</time>
      </trkpt>
      <trkpt lat="34.847626984119415" lon="-2.879925034940243">
        <ele>321.60000000000002</ele>
        <time>2003-04-13T09:51:00Z</time>
      </trkpt>
      <trkpt lat="34.847073024138808" lon="-2.879586992785335">
        <ele>324.60000000000002</ele>
        <time>2003-04-13T09:51:03Z</time>
      </trkpt>
      <trkpt lat="34.846170041710138" lon="-2.878933036699891">
        <ele>326.39999999999998</ele>
        <time>2003-04-13T09:51:08Z</time>
      </trkpt>
      <trkpt lat="34.845602000132203" lon="-2.878622990101576">
        <ele>326.80000000000001</ele>
        <time>2003-04-13T09:51:11Z</time>
      </trkpt>
      <trkpt lat="34.844642020761967" lon="-2.878379998728633">
        <ele>334.10000000000002</ele>
        <time>2003-04-13T09:51:16Z</time>
      </trkpt>
      <trkpt lat="34.843738032504916" lon="-2.878165002912283">
        <ele>338.39999999999998</ele>
        <time>2003-04-13T09:51:20Z</time>
      </trkpt>
      <trkpt lat="34.842834966257215" lon="-2.877946989610791">
        <ele>341.30000000000001</ele>
        <time>2003-04-13T09:51:26Z</time>
      </trkpt>
      <trkpt lat="34.841991998255253" lon="-2.877738028764725">
        <ele>344.60000000000002</ele>
        <time>2003-04-13T09:51:31Z</time>
      </trkpt>
      <trkpt lat="34.841582961380482" lon="-2.877638032659888">
        <ele>347.19999999999999</ele>
        <time>2003-04-13T09:51:34Z</time>
      </trkpt>
      <trkpt lat="34.840687019750476" lon="-2.877441979944706">
        <ele>352.10000000000002</ele>
        <time>2003-04-13T09:51:41Z</time>
      </trkpt>
      <trkpt lat="34.839735003188252" lon="-2.877354975789785">
        <ele>356.19999999999999</ele>
        <time>2003-04-13T09:51:47Z</time>
      </trkpt>
      <trkpt lat="34.839137960225344" lon="-2.877309964969754">
        <ele>358</ele>
        <time>2003-04-13T09:51:53Z</time>
      </trkpt>
      <trkpt lat="34.838637979701161" lon="-2.877275012433529">
        <ele>359.60000000000002</ele>
        <time>2003-04-13T09:51:58Z</time>
      </trkpt>
      <trkpt lat="34.838176975026727" lon="-2.877292027696967">
        <ele>360</ele>
        <time>2003-04-13T09:52:03Z</time>
      </trkpt>
      <trkpt lat="34.83747499063611" lon="-2.877393029630184">
        <ele>359.60000000000002</ele>
        <time>2003-04-13T09:52:09Z</time>
      </trkpt>
      <trkpt lat="34.836793038994074" lon="-2.877602996304631">
        <ele>359.69999999999999</ele>
        <time>2003-04-13T09:52:13Z</time>
      </trkpt>
      <trkpt lat="34.835915034636855" lon="-2.877986971288919">
        <ele>360.80000000000001</ele>
        <time>2003-04-13T09:52:21Z</time>
      </trkpt>
      <trkpt lat="34.835078017786145" lon="-2.878470020368695">
        <ele>359.89999999999998</ele>
        <time>2003-04-13T09:52:25Z</time>
      </trkpt>
      <trkpt lat="34.834242006763816" lon="-2.879212992265821">
        <ele>361.80000000000001</ele>
        <time>2003-04-13T09:52:30Z</time>
      </trkpt>
      <trkpt lat="34.833368025720119" lon="-2.879987983033061">
        <ele>365.30000000000001</ele>
        <time>2003-04-13T09:52:36Z</time>
      </trkpt>
      <trkpt lat="34.832681966945529" lon="-2.880653003230691">
        <ele>366.19999999999999</ele>
        <time>2003-04-13T09:52:40Z</time>
      </trkpt>
      <trkpt lat="34.832407962530851" lon="-2.88105801679194">
        <ele>366.10000000000002</ele>
        <time>2003-04-13T09:52:41Z</time>
      </trkpt>
      <trkpt lat="34.831831958144903" lon="-2.882144981995225">
        <ele>362.89999999999998</ele>
        <time>2003-04-13T09:52:47Z</time>
      </trkpt>
      <trkpt lat="34.831223012879491" lon="-2.883252985775471">
        <ele>358.10000000000002</ele>
        <time>2003-04-13T09:52:52Z</time>
      </trkpt>
      <trkpt lat="34.830697970464826" lon="-2.884214976802468">
        <ele>354.10000000000002</ele>
        <time>2003-04-13T09:52:56Z</time>
      </trkpt>
      <trkpt lat="34.830187009647489" lon="-2.885142015293241">
        <ele>349.60000000000002</ele>
        <time>2003-04-13T09:53:00Z</time>
      </trkpt>
      <trkpt lat="34.829612011089921" lon="-2.886284971609712">
        <ele>343.80000000000001</ele>
        <time>2003-04-13T09:53:04Z</time>
      </trkpt>
      <trkpt lat="34.829316968098283" lon="-2.887251991778612">
        <ele>339.5</ele>
        <time>2003-04-13T09:53:08Z</time>
      </trkpt>
      <trkpt lat="34.829057967290282" lon="-2.888489998877049">
        <ele>335.60000000000002</ele>
        <time>2003-04-13T09:53:14Z</time>
      </trkpt>
      <trkpt lat="34.828780023381114" lon="-2.88980201818049">
        <ele>334.60000000000002</ele>
        <time>2003-04-13T09:53:19Z</time>
      </trkpt>
      <trkpt lat="34.828556980937719" lon="-2.89087699726224">
        <ele>337.30000000000001</ele>
        <time>2003-04-13T09:53:23Z</time>
      </trkpt>
      <trkpt lat="34.828324969857931" lon="-2.891964968293905">
        <ele>339.69999999999999</ele>
        <time>2003-04-13T09:53:27Z</time>
      </trkpt>
      <trkpt lat="34.828079966828227" lon="-2.893070038408041">
        <ele>342.5</ele>
        <time>2003-04-13T09:53:31Z</time>
      </trkpt>
      <trkpt lat="34.827837981283665" lon="-2.893813010305166">
        <ele>344.60000000000002</ele>
        <time>2003-04-13T09:53:34Z</time>
      </trkpt>
      <trkpt lat="34.827434979379177" lon="-2.894965019077063">
        <ele>347.89999999999998</ele>
        <time>2003-04-13T09:53:38Z</time>
      </trkpt>
      <trkpt lat="34.827057961374521" lon="-2.896047960966826">
        <ele>350.60000000000002</ele>
        <time>2003-04-13T09:53:43Z</time>
      </trkpt>
      <trkpt lat="34.82668798416853" lon="-2.897152025252581">
        <ele>352.10000000000002</ele>
        <time>2003-04-13T09:53:49Z</time>
      </trkpt>
      <trkpt lat="34.826286993920803" lon="-2.898327000439167">
        <ele>351.80000000000001</ele>
        <time>2003-04-13T09:53:54Z</time>
      </trkpt>
      <trkpt lat="34.825864965096116" lon="-2.899562995880842">
        <ele>351</ele>
        <time>2003-04-13T09:53:58Z</time>
      </trkpt>
      <trkpt lat="34.825515020638704" lon="-2.900592964142561">
        <ele>350.30000000000001</ele>
        <time>2003-04-13T09:54:02Z</time>
      </trkpt>
      <trkpt lat="34.8251629807055" lon="-2.901625027880073">
        <ele>350.10000000000002</ele>
        <time>2003-04-13T09:54:06Z</time>
      </trkpt>
      <trkpt lat="34.824798032641411" lon="-2.902667988091707">
        <ele>350.5</ele>
        <time>2003-04-13T09:54:10Z</time>
      </trkpt>
      <trkpt lat="34.824438029900193" lon="-2.903729975223541">
        <ele>350.69999999999999</ele>
        <time>2003-04-13T09:54:14Z</time>
      </trkpt>
      <trkpt lat="34.824075009673834" lon="-2.904805038124323">
        <ele>350.89999999999998</ele>
        <time>2003-04-13T09:54:18Z</time>
      </trkpt>
      <trkpt lat="34.823721963912249" lon="-2.905863001942635">
        <ele>352</ele>
        <time>2003-04-13T09:54:23Z</time>
      </trkpt>
      <trkpt lat="34.82335701584816" lon="-2.906936975196004">
        <ele>352.89999999999998</ele>
        <time>2003-04-13T09:54:27Z</time>
      </trkpt>
      <trkpt lat="34.822958037257195" lon="-2.908008014783263">
        <ele>353.30000000000001</ele>
        <time>2003-04-13T09:54:31Z</time>
      </trkpt>
      <trkpt lat="34.82245503924787" lon="-2.909019961953163">
        <ele>351.89999999999998</ele>
        <time>2003-04-13T09:54:35Z</time>
      </trkpt>
      <trkpt lat="34.822033010423183" lon="-2.909738039597869">
        <ele>350</ele>
        <time>2003-04-13T09:54:37Z</time>
      </trkpt>
      <trkpt lat="34.821387017145753" lon="-2.91058000177145">
        <ele>346.19999999999999</ele>
        <time>2003-04-13T09:54:41Z</time>
      </trkpt>
      <trkpt lat="34.820768013596535" lon="-2.911430010572076">
        <ele>342.39999999999998</ele>
        <time>2003-04-13T09:54:45Z</time>
      </trkpt>
      <trkpt lat="34.820271972566843" lon="-2.912337016314268">
        <ele>340.30000000000001</ele>
        <time>2003-04-13T09:54:50Z</time>
      </trkpt>
      <trkpt lat="34.819818008691072" lon="-2.913487013429403">
        <ele>336.60000000000002</ele>
        <time>2003-04-13T09:54:55Z</time>
      </trkpt>
      <trkpt lat="34.819427998736501" lon="-2.914622006937861">
        <ele>332.19999999999999</ele>
        <time>2003-04-13T09:54:59Z</time>
      </trkpt>
      <trkpt lat="34.819076964631677" lon="-2.915632026270032">
        <ele>328.69999999999999</ele>
        <time>2003-04-13T09:55:03Z</time>
      </trkpt>
      <trkpt lat="34.818700030446053" lon="-2.916701976209879">
        <ele>327.19999999999999</ele>
        <time>2003-04-13T09:55:07Z</time>
      </trkpt>
      <trkpt lat="34.81833198107779" lon="-2.917736973613501">
        <ele>328.19999999999999</ele>
        <time>2003-04-13T09:55:11Z</time>
      </trkpt>
      <trkpt lat="34.81794498860836" lon="-2.918962994590402">
        <ele>329.60000000000002</ele>
        <time>2003-04-13T09:55:17Z</time>
      </trkpt>
      <trkpt lat="34.817760000005364" lon="-2.91999002918601">
        <ele>330.5</ele>
        <time>2003-04-13T09:55:21Z</time>
      </trkpt>
      <trkpt lat="34.817541986703873" lon="-2.92130003683269">
        <ele>331.5</ele>
        <time>2003-04-13T09:55:26Z</time>
      </trkpt>
      <trkpt lat="34.817356998100877" lon="-2.922382978722453">
        <ele>332.5</ele>
        <time>2003-04-13T09:55:30Z</time>
      </trkpt>
      <trkpt lat="34.817132027819753" lon="-2.923458041623235">
        <ele>333.69999999999999</ele>
        <time>2003-04-13T09:55:34Z</time>
      </trkpt>
      <trkpt lat="34.816747969016433" lon="-2.924742987379432">
        <ele>335</ele>
        <time>2003-04-13T09:55:38Z</time>
      </trkpt>
      <trkpt lat="34.816395007073879" lon="-2.925776978954673">
        <ele>336.30000000000001</ele>
        <time>2003-04-13T09:55:42Z</time>
      </trkpt>
      <trkpt lat="34.816008014604449" lon="-2.926832009106875">
        <ele>337.39999999999998</ele>
        <time>2003-04-13T09:55:46Z</time>
      </trkpt>
      <trkpt lat="34.815647006034851" lon="-2.927930038422346">
        <ele>338.30000000000001</ele>
        <time>2003-04-13T09:55:50Z</time>
      </trkpt>
      <trkpt lat="34.815282979980111" lon="-2.928967969492078">
        <ele>339.19999999999999</ele>
        <time>2003-04-13T09:55:54Z</time>
      </trkpt>
      <trkpt lat="34.814872015267611" lon="-2.930125007405877">
        <ele>340.19999999999999</ele>
        <time>2003-04-13T09:56:00Z</time>
      </trkpt>
      <trkpt lat="34.814455015584826" lon="-2.931301994249225">
        <ele>341.39999999999998</ele>
        <time>2003-04-13T09:56:05Z</time>
      </trkpt>
      <trkpt lat="34.814017983153462" lon="-2.932183016091585">
        <ele>343.10000000000002</ele>
        <time>2003-04-13T09:56:09Z</time>
      </trkpt>
      <trkpt lat="34.81373299844563" lon="-2.932547964155674">
        <ele>344</ele>
        <time>2003-04-13T09:56:11Z</time>
      </trkpt>
      <trkpt lat="34.813096979632974" lon="-2.933165039867163">
        <ele>346.10000000000002</ele>
        <time>2003-04-13T09:56:15Z</time>
      </trkpt>
      <trkpt lat="34.812273038551211" lon="-2.933908011764288">
        <ele>347.39999999999998</ele>
        <time>2003-04-13T09:56:20Z</time>
      </trkpt>
      <trkpt lat="34.811423029750586" lon="-2.934666993096471">
        <ele>348.69999999999999</ele>
        <time>2003-04-13T09:56:24Z</time>
      </trkpt>
      <trkpt lat="34.810618031769991" lon="-2.935518007725477">
        <ele>350.5</ele>
        <time>2003-04-13T09:56:29Z</time>
      </trkpt>
      <trkpt lat="34.810095001012087" lon="-2.9363629873842">
        <ele>352.30000000000001</ele>
        <time>2003-04-13T09:56:33Z</time>
      </trkpt>
      <trkpt lat="34.809553027153015" lon="-2.937560006976128">
        <ele>353.19999999999999</ele>
        <time>2003-04-13T09:56:39Z</time>
      </trkpt>
      <trkpt lat="34.809252033010125" lon="-2.938600033521652">
        <ele>353.30000000000001</ele>
        <time>2003-04-13T09:56:43Z</time>
      </trkpt>
      <trkpt lat="34.808911979198456" lon="-2.939880033954978">
        <ele>352.89999999999998</ele>
        <time>2003-04-13T09:56:47Z</time>
      </trkpt>
      <trkpt lat="34.808621965348721" lon="-2.940992983058095">
        <ele>352.89999999999998</ele>
        <time>2003-04-13T09:56:51Z</time>
      </trkpt>
      <trkpt lat="34.808322982862592" lon="-2.94207701459527">
        <ele>352.39999999999998</ele>
        <time>2003-04-13T09:56:55Z</time>
      </trkpt>
      <trkpt lat="34.807982007041574" lon="-2.943370006978512">
        <ele>351.89999999999998</ele>
        <time>2003-04-13T09:57:00Z</time>
      </trkpt>
      <trkpt lat="34.807632984593511" lon="-2.944653024896979">
        <ele>351.39999999999998</ele>
        <time>2003-04-13T09:57:06Z</time>
      </trkpt>
      <trkpt lat="34.807353029027581" lon="-2.945706965401769">
        <ele>351</ele>
        <time>2003-04-13T09:57:10Z</time>
      </trkpt>
      <trkpt lat="34.807075001299381" lon="-2.946757972240448">
        <ele>350.60000000000002</ele>
        <time>2003-04-13T09:57:14Z</time>
      </trkpt>
      <trkpt lat="34.806790016591549" lon="-2.94783303514123">
        <ele>350.19999999999999</ele>
        <time>2003-04-13T09:57:18Z</time>
      </trkpt>
      <trkpt lat="34.806500002741814" lon="-2.948923017829657">
        <ele>350.5</ele>
        <time>2003-04-13T09:57:22Z</time>
      </trkpt>
      <trkpt lat="34.806215018033981" lon="-2.949985004961491">
        <ele>350.89999999999998</ele>
        <time>2003-04-13T09:57:26Z</time>
      </trkpt>
      <trkpt lat="34.805874964222312" lon="-2.951276991516352">
        <ele>351.30000000000001</ele>
        <time>2003-04-13T09:57:30Z</time>
      </trkpt>
      <trkpt lat="34.805532982572913" lon="-2.952569983899593">
        <ele>351.69999999999999</ele>
        <time>2003-04-13T09:57:36Z</time>
      </trkpt>
      <trkpt lat="34.805184965953231" lon="-2.953862976282835">
        <ele>352</ele>
        <time>2003-04-13T09:57:41Z</time>
      </trkpt>
      <trkpt lat="34.80490199290216" lon="-2.954929992556572">
        <ele>352</ele>
        <time>2003-04-13T09:57:45Z</time>
      </trkpt>
      <trkpt lat="34.804609967395663" lon="-2.956017963588238">
        <ele>352.30000000000001</ele>
        <time>2003-04-13T09:57:49Z</time>
      </trkpt>
      <trkpt lat="34.804328000172973" lon="-2.957090009003878">
        <ele>352.30000000000001</ele>
        <time>2003-04-13T09:57:53Z</time>
      </trkpt>
      <trkpt lat="34.803985012695193" lon="-2.958376966416836">
        <ele>352.5</ele>
        <time>2003-04-13T09:57:57Z</time>
      </trkpt>
      <trkpt lat="34.803640013560653" lon="-2.959672976285219">
        <ele>352.30000000000001</ele>
        <time>2003-04-13T09:58:03Z</time>
      </trkpt>
      <trkpt lat="34.803344970569015" lon="-2.960773017257452">
        <ele>352.69999999999999</ele>
        <time>2003-04-13T09:58:07Z</time>
      </trkpt>
      <trkpt lat="34.803042970597744" lon="-2.96190801076591">
        <ele>353.19999999999999</ele>
        <time>2003-04-13T09:58:11Z</time>
      </trkpt>
      <trkpt lat="34.802742982283235" lon="-2.963033029809594">
        <ele>353.60000000000002</ele>
        <time>2003-04-13T09:58:15Z</time>
      </trkpt>
      <trkpt lat="34.802452968433499" lon="-2.964138016104698">
        <ele>354</ele>
        <time>2003-04-13T09:58:19Z</time>
      </trkpt>
      <trkpt lat="34.802107969298959" lon="-2.965433020144701">
        <ele>354.5</ele>
        <time>2003-04-13T09:58:24Z</time>
      </trkpt>
      <trkpt lat="34.801827007904649" lon="-2.966495007276535">
        <ele>355.89999999999998</ele>
        <time>2003-04-13T09:58:28Z</time>
      </trkpt>
      <trkpt lat="34.801540011540055" lon="-2.967573003843427">
        <ele>358.5</ele>
        <time>2003-04-13T09:58:31Z</time>
      </trkpt>
      <trkpt lat="34.801238011568785" lon="-2.968682013452053">
        <ele>360.39999999999998</ele>
        <time>2003-04-13T09:58:35Z</time>
      </trkpt>
      <trkpt lat="34.800940034911036" lon="-2.969805020838976">
        <ele>361</ele>
        <time>2003-04-13T09:58:39Z</time>
      </trkpt>
      <trkpt lat="34.800650021061301" lon="-2.970912018790841">
        <ele>361.10000000000002</ele>
        <time>2003-04-13T09:58:43Z</time>
      </trkpt>
      <trkpt lat="34.800335029140115" lon="-2.972077019512653">
        <ele>360.5</ele>
        <time>2003-04-13T09:58:47Z</time>
      </trkpt>
      <trkpt lat="34.800028000026941" lon="-2.973266998305917">
        <ele>359.60000000000002</ele>
        <time>2003-04-13T09:58:51Z</time>
      </trkpt>
      <trkpt lat="34.799709990620613" lon="-2.974424958229065">
        <ele>359.89999999999998</ele>
        <time>2003-04-13T09:58:55Z</time>
      </trkpt>
      <trkpt lat="34.799413019791245" lon="-2.975537991151214">
        <ele>360.30000000000001</ele>
        <time>2003-04-13T09:58:59Z</time>
      </trkpt>
      <trkpt lat="34.799125017598271" lon="-2.976622022688389">
        <ele>360.5</ele>
        <time>2003-04-13T09:59:03Z</time>
      </trkpt>
      <trkpt lat="34.798832992091775" lon="-2.977717034518719">
        <ele>361</ele>
        <time>2003-04-13T09:59:07Z</time>
      </trkpt>
      <trkpt lat="34.798535015434027" lon="-2.978801988065243">
        <ele>362.19999999999999</ele>
        <time>2003-04-13T09:59:11Z</time>
      </trkpt>
      <trkpt lat="34.798157997429371" lon="-2.979847965762019">
        <ele>364</ele>
        <time>2003-04-13T09:59:15Z</time>
      </trkpt>
      <trkpt lat="34.797905031591654" lon="-2.980317017063499">
        <ele>364.80000000000001</ele>
        <time>2003-04-13T09:59:18Z</time>
      </trkpt>
      <trkpt lat="34.797591967508197" lon="-2.980703003704548">
        <ele>365.39999999999998</ele>
        <time>2003-04-13T09:59:20Z</time>
      </trkpt>
      <trkpt lat="34.796916972845793" lon="-2.981442036107183">
        <ele>365.5</ele>
        <time>2003-04-13T09:59:24Z</time>
      </trkpt>
      <trkpt lat="34.796209959313273" lon="-2.982177967205644">
        <ele>366.10000000000002</ele>
        <time>2003-04-13T09:59:28Z</time>
      </trkpt>
      <trkpt lat="34.795315023511648" lon="-2.983002997934818">
        <ele>366.60000000000002</ele>
        <time>2003-04-13T09:59:33Z</time>
      </trkpt>
      <trkpt lat="34.794906992465258" lon="-2.983271973207593">
        <ele>366.69999999999999</ele>
        <time>2003-04-13T09:59:34Z</time>
      </trkpt>
      <trkpt lat="34.794457973912358" lon="-2.983447993174195">
        <ele>366.19999999999999</ele>
        <time>2003-04-13T09:59:37Z</time>
      </trkpt>
      <trkpt lat="34.793502017855644" lon="-2.983674975112081">
        <ele>364.5</ele>
        <time>2003-04-13T09:59:41Z</time>
      </trkpt>
      <trkpt lat="34.792510019615293" lon="-2.983876978978515">
        <ele>363.10000000000002</ele>
        <time>2003-04-13T09:59:45Z</time>
      </trkpt>
      <trkpt lat="34.791509974747896" lon="-2.984107984229922">
        <ele>361.39999999999998</ele>
        <time>2003-04-13T09:59:49Z</time>
      </trkpt>
      <trkpt lat="34.790521999821067" lon="-2.984322980046272">
        <ele>360.10000000000002</ele>
        <time>2003-04-13T09:59:52Z</time>
      </trkpt>
      <trkpt lat="34.789493037387729" lon="-2.984557002782822">
        <ele>358.10000000000002</ele>
        <time>2003-04-13T09:59:56Z</time>
      </trkpt>
      <trkpt lat="34.788474971428514" lon="-2.984781973063946">
        <ele>356.30000000000001</ele>
        <time>2003-04-13T10:00:00Z</time>
      </trkpt>
      <trkpt lat="34.787535024806857" lon="-2.98496201634407">
        <ele>354.60000000000002</ele>
        <time>2003-04-13T10:00:04Z</time>
      </trkpt>
      <trkpt lat="34.786427021026611" lon="-2.985201990231872">
        <ele>352.10000000000002</ele>
        <time>2003-04-13T10:00:09Z</time>
      </trkpt>
      <trkpt lat="34.785487996414304" lon="-2.985386978834868">
        <ele>350.30000000000001</ele>
        <time>2003-04-13T10:00:14Z</time>
      </trkpt>
      <trkpt lat="34.784506978467107" lon="-2.98554296605289">
        <ele>349.39999999999998</ele>
        <time>2003-04-13T10:00:18Z</time>
      </trkpt>
      <trkpt lat="34.783514980226755" lon="-2.985625024884939">
        <ele>348.89999999999998</ele>
        <time>2003-04-13T10:00:22Z</time>
      </trkpt>
      <trkpt lat="34.782512001693249" lon="-2.98571303486824">
        <ele>347.80000000000001</ele>
        <time>2003-04-13T10:00:26Z</time>
      </trkpt>
      <trkpt lat="34.781540036201477" lon="-2.985806996002793">
        <ele>346.80000000000001</ele>
        <time>2003-04-13T10:00:30Z</time>
      </trkpt>
      <trkpt lat="34.78045198135078" lon="-2.985904980450869">
        <ele>346</ele>
        <time>2003-04-13T10:00:35Z</time>
      </trkpt>
      <trkpt lat="34.779435005038977" lon="-2.986000031232834">
        <ele>345.60000000000002</ele>
        <time>2003-04-13T10:00:39Z</time>
      </trkpt>
      <trkpt lat="34.778373017907143" lon="-2.986094998195767">
        <ele>345.5</ele>
        <time>2003-04-13T10:00:45Z</time>
      </trkpt>
      <trkpt lat="34.777280017733574" lon="-2.986191976815462">
        <ele>344.80000000000001</ele>
        <time>2003-04-13T10:00:50Z</time>
      </trkpt>
      <trkpt lat="34.776162039488554" lon="-2.986300019547343">
        <ele>344.60000000000002</ele>
        <time>2003-04-13T10:00:54Z</time>
      </trkpt>
      <trkpt lat="34.775238018482924" lon="-2.986383000388742">
        <ele>344.80000000000001</ele>
        <time>2003-04-13T10:00:58Z</time>
      </trkpt>
      <trkpt lat="34.77430796250701" lon="-2.986470004543662">
        <ele>345.10000000000002</ele>
        <time>2003-04-13T10:01:02Z</time>
      </trkpt>
      <trkpt lat="34.773359969258308" lon="-2.98655298538506">
        <ele>345.19999999999999</ele>
        <time>2003-04-13T10:01:06Z</time>
      </trkpt>
      <trkpt lat="34.772420022636652" lon="-2.98663797788322">
        <ele>345.19999999999999</ele>
        <time>2003-04-13T10:01:10Z</time>
      </trkpt>
      <trkpt lat="34.771472029387951" lon="-2.986733028665185">
        <ele>345.60000000000002</ele>
        <time>2003-04-13T10:01:14Z</time>
      </trkpt>
      <trkpt lat="34.770372994244099" lon="-2.986879963427782">
        <ele>345.69999999999999</ele>
        <time>2003-04-13T10:01:20Z</time>
      </trkpt>
      <trkpt lat="34.769379990175366" lon="-2.987037962302566">
        <ele>345.80000000000001</ele>
        <time>2003-04-13T10:01:25Z</time>
      </trkpt>
      <trkpt lat="34.768329989165068" lon="-2.987187998369336">
        <ele>345.60000000000002</ele>
        <time>2003-04-13T10:01:29Z</time>
      </trkpt>
      <trkpt lat="34.767242018133402" lon="-2.987356977537274">
        <ele>345.89999999999998</ele>
        <time>2003-04-13T10:01:35Z</time>
      </trkpt>
      <trkpt lat="34.766154969111085" lon="-2.987523023039103">
        <ele>346.5</ele>
        <time>2003-04-13T10:01:40Z</time>
      </trkpt>
      <trkpt lat="34.765236983075738" lon="-2.987661994993687">
        <ele>347</ele>
        <time>2003-04-13T10:01:44Z</time>
      </trkpt>
      <trkpt lat="34.764287983998656" lon="-2.987808007746935">
        <ele>348</ele>
        <time>2003-04-13T10:01:48Z</time>
      </trkpt>
      <trkpt lat="34.763347031548619" lon="-2.987976986914873">
        <ele>348</ele>
        <time>2003-04-13T10:01:52Z</time>
      </trkpt>
      <trkpt lat="34.762410018593073" lon="-2.988121993839741">
        <ele>348.69999999999999</ele>
        <time>2003-04-13T10:01:56Z</time>
      </trkpt>
      <trkpt lat="34.761478034779429" lon="-2.988277981057763">
        <ele>349.39999999999998</ele>
        <time>2003-04-13T10:02:00Z</time>
      </trkpt>
      <trkpt lat="34.760542027652264" lon="-2.988432040438056">
        <ele>349.89999999999998</ele>
        <time>2003-04-13T10:02:04Z</time>
      </trkpt>
      <trkpt lat="34.75963301025331" lon="-2.988581992685795">
        <ele>350.60000000000002</ele>
        <time>2003-04-13T10:02:07Z</time>
      </trkpt>
      <trkpt lat="34.758732039481401" lon="-2.988733034580946">
        <ele>350.89999999999998</ele>
        <time>2003-04-13T10:02:11Z</time>
      </trkpt>
      <trkpt lat="34.757626969367266" lon="-2.988922968506813">
        <ele>351.80000000000001</ele>
        <time>2003-04-13T10:02:16Z</time>
      </trkpt>
      <trkpt lat="34.756727004423738" lon="-2.989065041765571">
        <ele>352.39999999999998</ele>
        <time>2003-04-13T10:02:20Z</time>
      </trkpt>
      <trkpt lat="34.755799965932965" lon="-2.989120027050376">
        <ele>353.80000000000001</ele>
        <time>2003-04-13T10:02:24Z</time>
      </trkpt>
      <trkpt lat="34.754866976290941" lon="-2.989145005121827">
        <ele>356.69999999999999</ele>
        <time>2003-04-13T10:02:29Z</time>
      </trkpt>
      <trkpt lat="34.753964999690652" lon="-2.989184986799955">
        <ele>360.5</ele>
        <time>2003-04-13T10:02:33Z</time>
      </trkpt>
      <trkpt lat="34.752662032842636" lon="-2.989242989569902">
        <ele>363.19999999999999</ele>
        <time>2003-04-13T10:02:39Z</time>
      </trkpt>
      <trkpt lat="34.751782016828656" lon="-2.989396965131164">
        <ele>364.5</ele>
        <time>2003-04-13T10:02:42Z</time>
      </trkpt>
      <trkpt lat="34.750790018588305" lon="-2.989804996177554">
        <ele>365.69999999999999</ele>
        <time>2003-04-13T10:02:47Z</time>
      </trkpt>
      <trkpt lat="34.749787962064147" lon="-2.990267006680369">
        <ele>366.80000000000001</ele>
        <time>2003-04-13T10:02:53Z</time>
      </trkpt>
      <trkpt lat="34.748767968267202" lon="-2.990734968334436">
        <ele>366.5</ele>
        <time>2003-04-13T10:02:58Z</time>
      </trkpt>
      <trkpt lat="34.747743029147387" lon="-2.991205025464296">
        <ele>365.39999999999998</ele>
        <time>2003-04-13T10:03:04Z</time>
      </trkpt>
      <trkpt lat="34.746781960129738" lon="-2.991638034582138">
        <ele>365.19999999999999</ele>
        <time>2003-04-13T10:03:08Z</time>
      </trkpt>
      <trkpt lat="34.745847964659333" lon="-2.992087975144386">
        <ele>364.30000000000001</ele>
        <time>2003-04-13T10:03:13Z</time>
      </trkpt>
      <trkpt lat="34.744883039966226" lon="-2.992677977308631">
        <ele>364.60000000000002</ele>
        <time>2003-04-13T10:03:18Z</time>
      </trkpt>
      <trkpt lat="34.744554972276092" lon="-2.993022976443172">
        <ele>366</ele>
        <time>2003-04-13T10:03:20Z</time>
      </trkpt>
      <trkpt lat="34.744000006467104" lon="-2.993811964988709">
        <ele>369.69999999999999</ele>
        <time>2003-04-13T10:03:25Z</time>
      </trkpt>
      <trkpt lat="34.743809988722205" lon="-2.994255032390356">
        <ele>371.60000000000002</ele>
        <time>2003-04-13T10:03:27Z</time>
      </trkpt>
      <trkpt lat="34.743683002889156" lon="-2.99471695907414">
        <ele>373.19999999999999</ele>
        <time>2003-04-13T10:03:28Z</time>
      </trkpt>
      <trkpt lat="34.743413021788001" lon="-2.995869973674417">
        <ele>378.19999999999999</ele>
        <time>2003-04-13T10:03:33Z</time>
      </trkpt>
      <trkpt lat="34.743116972967982" lon="-2.996931960806251">
        <ele>383</ele>
        <time>2003-04-13T10:03:39Z</time>
      </trkpt>
      <trkpt lat="34.742946987971663" lon="-2.997291963547468">
        <ele>384.39999999999998</ele>
        <time>2003-04-13T10:03:40Z</time>
      </trkpt>
      <trkpt lat="34.741941997781396" lon="-2.998527958989143">
        <ele>388</ele>
        <time>2003-04-13T10:03:48Z</time>
      </trkpt>
      <trkpt lat="34.741772012785077" lon="-2.998631978407502">
        <ele>388.10000000000002</ele>
        <time>2003-04-13T10:03:50Z</time>
      </trkpt>
      <trkpt lat="34.740901971235871" lon="-2.999122990295291">
        <ele>388.30000000000001</ele>
        <time>2003-04-13T10:03:55Z</time>
      </trkpt>
      <trkpt lat="34.74053299985826" lon="-2.999215023592114">
        <ele>388.80000000000001</ele>
        <time>2003-04-13T10:03:56Z</time>
      </trkpt>
      <trkpt lat="34.740344993770123" lon="-2.999213011935353">
        <ele>388.80000000000001</ele>
        <time>2003-04-13T10:03:58Z</time>
      </trkpt>
      <trkpt lat="34.739958001300693" lon="-2.999162971973419">
        <ele>388.60000000000002</ele>
        <time>2003-04-13T10:03:59Z</time>
      </trkpt>
      <trkpt lat="34.739570003002882" lon="-2.999036991968751">
        <ele>387.10000000000002</ele>
        <time>2003-04-13T10:04:02Z</time>
      </trkpt>
      <trkpt lat="34.738653022795916" lon="-2.998572969809175">
        <ele>382.39999999999998</ele>
        <time>2003-04-13T10:04:07Z</time>
      </trkpt>
      <trkpt lat="34.737956989556551" lon="-2.99809000454843">
        <ele>378.69999999999999</ele>
        <time>2003-04-13T10:04:11Z</time>
      </trkpt>
      <trkpt lat="34.737824974581599" lon="-2.997905015945435">
        <ele>377.80000000000001</ele>
        <time>2003-04-13T10:04:11Z</time>
      </trkpt>
      <trkpt lat="34.737131958827376" lon="-2.996898014098406">
        <ele>372.10000000000002</ele>
        <time>2003-04-13T10:04:17Z</time>
      </trkpt>
      <trkpt lat="34.736544974148273" lon="-2.9960469994694">
        <ele>367.69999999999999</ele>
        <time>2003-04-13T10:04:21Z</time>
      </trkpt>
      <trkpt lat="34.735839972272515" lon="-2.995009990409017">
        <ele>362.19999999999999</ele>
        <time>2003-04-13T10:04:26Z</time>
      </trkpt>
      <trkpt lat="34.735127007588744" lon="-2.993968036025763">
        <ele>356.69999999999999</ele>
        <time>2003-04-13T10:04:30Z</time>
      </trkpt>
      <trkpt lat="34.734619986265898" lon="-2.993252975866199">
        <ele>352.80000000000001</ele>
        <time>2003-04-13T10:04:34Z</time>
      </trkpt>
      <trkpt lat="34.733995031565428" lon="-2.992376983165741">
        <ele>347.89999999999998</ele>
        <time>2003-04-13T10:04:39Z</time>
      </trkpt>
      <trkpt lat="34.733300004154444" lon="-2.991563016548753">
        <ele>343.39999999999998</ele>
        <time>2003-04-13T10:04:45Z</time>
      </trkpt>
      <trkpt lat="34.732789965346456" lon="-2.991132019087672">
        <ele>340.5</ele>
        <time>2003-04-13T10:04:48Z</time>
      </trkpt>
      <trkpt lat="34.732395010069013" lon="-2.990934960544109">
        <ele>338.69999999999999</ele>
        <time>2003-04-13T10:04:49Z</time>
      </trkpt>
      <trkpt lat="34.731578025966883" lon="-2.99065500497818">
        <ele>335.10000000000002</ele>
        <time>2003-04-13T10:04:53Z</time>
      </trkpt>
      <trkpt lat="34.730572029948235" lon="-2.990389969199896">
        <ele>331.89999999999998</ele>
        <time>2003-04-13T10:04:58Z</time>
      </trkpt>
      <trkpt lat="34.729622025042772" lon="-2.990089980885387">
        <ele>330.5</ele>
        <time>2003-04-13T10:05:04Z</time>
      </trkpt>
      <trkpt lat="34.729254981502891" lon="-2.989883031696081">
        <ele>329.19999999999999</ele>
        <time>2003-04-13T10:05:05Z</time>
      </trkpt>
      <trkpt lat="34.728338001295924" lon="-2.989252964034677">
        <ele>325.69999999999999</ele>
        <time>2003-04-13T10:05:11Z</time>
      </trkpt>
      <trkpt lat="34.727422026917338" lon="-2.98852801322937">
        <ele>323.5</ele>
        <time>2003-04-13T10:05:16Z</time>
      </trkpt>
      <trkpt lat="34.72652499563992" lon="-2.987823011353612">
        <ele>321.30000000000001</ele>
        <time>2003-04-13T10:05:20Z</time>
      </trkpt>
      <trkpt lat="34.725608015432954" lon="-2.987093031406403">
        <ele>318.19999999999999</ele>
        <time>2003-04-13T10:05:25Z</time>
      </trkpt>
      <trkpt lat="34.724802011623979" lon="-2.98657301813364">
        <ele>315.60000000000002</ele>
        <time>2003-04-13T10:05:29Z</time>
      </trkpt>
      <trkpt lat="34.723912021145225" lon="-2.986187031492591">
        <ele>313.60000000000002</ele>
        <time>2003-04-13T10:05:33Z</time>
      </trkpt>
      <trkpt lat="34.723009960725904" lon="-2.98588503152132">
        <ele>311.39999999999998</ele>
        <time>2003-04-13T10:05:38Z</time>
      </trkpt>
      <trkpt lat="34.721940010786057" lon="-2.985516982153058">
        <ele>308.5</ele>
        <time>2003-04-13T10:05:43Z</time>
      </trkpt>
      <trkpt lat="34.721039962023497" lon="-2.985222022980452">
        <ele>306</ele>
        <time>2003-04-13T10:05:47Z</time>
      </trkpt>
      <trkpt lat="34.719957020133734" lon="-2.984847016632557">
        <ele>303.30000000000001</ele>
        <time>2003-04-13T10:05:51Z</time>
      </trkpt>
      <trkpt lat="34.71908999606967" lon="-2.984551973640919">
        <ele>302.69999999999999</ele>
        <time>2003-04-13T10:05:55Z</time>
      </trkpt>
      <trkpt lat="34.718212997540832" lon="-2.98425299115479">
        <ele>303.5</ele>
        <time>2003-04-13T10:05:59Z</time>
      </trkpt>
      <trkpt lat="34.717332981526852" lon="-2.983957026153803">
        <ele>304.30000000000001</ele>
        <time>2003-04-13T10:06:03Z</time>
      </trkpt>
      <trkpt lat="34.716267976909876" lon="-2.983642034232616">
        <ele>302.39999999999998</ele>
        <time>2003-04-13T10:06:09Z</time>
      </trkpt>
      <trkpt lat="34.715183023363352" lon="-2.983410023152828">
        <ele>298.80000000000001</ele>
        <time>2003-04-13T10:06:14Z</time>
      </trkpt>
      <trkpt lat="34.714115001261234" lon="-2.983180023729801">
        <ele>295.19999999999999</ele>
        <time>2003-04-13T10:06:18Z</time>
      </trkpt>
      <trkpt lat="34.713034993037581" lon="-2.98294197767973">
        <ele>292.80000000000001</ele>
        <time>2003-04-13T10:06:23Z</time>
      </trkpt>
      <trkpt lat="34.712181966751814" lon="-2.982627991586924">
        <ele>291.80000000000001</ele>
        <time>2003-04-13T10:06:27Z</time>
      </trkpt>
      <trkpt lat="34.711376968771219" lon="-2.982075037434697">
        <ele>289.39999999999998</ele>
        <time>2003-04-13T10:06:32Z</time>
      </trkpt>
      <trkpt lat="34.710407014936209" lon="-2.98141798004508">
        <ele>286.89999999999998</ele>
        <time>2003-04-13T10:06:37Z</time>
      </trkpt>
      <trkpt lat="34.709492968395352" lon="-2.980841975659132">
        <ele>286.10000000000002</ele>
        <time>2003-04-13T10:06:41Z</time>
      </trkpt>
      <trkpt lat="34.681875016540289" lon="-2.984366985037923">
        <ele>-236.80000000000001</ele>
        <time>2003-04-13T10:09:04Z</time>
      </trkpt>
      <trkpt lat="34.681667983531952" lon="-2.984472010284662">
        <ele>245.19999999999999</ele>
        <time>2003-04-13T10:09:05Z</time>
      </trkpt>
      <trkpt lat="34.680815041065216" lon="-2.984893033280969">
        <ele>246.69999999999999</ele>
        <time>2003-04-13T10:09:09Z</time>
      </trkpt>
      <trkpt lat="34.67992496676743" lon="-2.985326964408159">
        <ele>248</ele>
        <time>2003-04-13T10:09:14Z</time>
      </trkpt>
      <trkpt lat="34.679007986560464" lon="-2.985783023759723">
        <ele>249</ele>
        <time>2003-04-13T10:09:18Z</time>
      </trkpt>
      <trkpt lat="34.67805203050375" lon="-2.986234975978732">
        <ele>250.5</ele>
        <time>2003-04-13T10:09:22Z</time>
      </trkpt>
      <trkpt lat="34.677082998678088" lon="-2.986705033108592">
        <ele>251.59999999999999</ele>
        <time>2003-04-13T10:09:26Z</time>
      </trkpt>
      <trkpt lat="34.676180016249418" lon="-2.987137036398053">
        <ele>254.09999999999999</ele>
        <time>2003-04-13T10:09:30Z</time>
      </trkpt>
      <trkpt lat="34.675258006900549" lon="-2.987583037465811">
        <ele>256.19999999999999</ele>
        <time>2003-04-13T10:09:34Z</time>
      </trkpt>
      <trkpt lat="34.674314958974719" lon="-2.988028032705188">
        <ele>257.19999999999999</ele>
        <time>2003-04-13T10:09:38Z</time>
      </trkpt>
      <trkpt lat="34.673308040946722" lon="-2.988419970497489">
        <ele>255.80000000000001</ele>
        <time>2003-04-13T10:09:42Z</time>
      </trkpt>
      <trkpt lat="34.672272959724069" lon="-2.988794976845384">
        <ele>253.30000000000001</ele>
        <time>2003-04-13T10:09:46Z</time>
      </trkpt>
      <trkpt lat="34.671302000060678" lon="-2.98915196210146">
        <ele>253.30000000000001</ele>
        <time>2003-04-13T10:09:50Z</time>
      </trkpt>
      <trkpt lat="34.67040304094553" lon="-2.989477012306452">
        <ele>254.80000000000001</ele>
        <time>2003-04-13T10:09:54Z</time>
      </trkpt>
      <trkpt lat="34.669359996914864" lon="-2.989872973412275">
        <ele>260</ele>
        <time>2003-04-13T10:09:58Z</time>
      </trkpt>
      <trkpt lat="34.668576959520578" lon="-2.990279998630285">
        <ele>263.60000000000002</ele>
        <time>2003-04-13T10:10:02Z</time>
      </trkpt>
      <trkpt lat="34.668067004531622" lon="-2.990707978606224">
        <ele>265.10000000000002</ele>
        <time>2003-04-13T10:10:06Z</time>
      </trkpt>
      <trkpt lat="34.667337024584413" lon="-2.991484981030226">
        <ele>265.30000000000001</ele>
        <time>2003-04-13T10:10:10Z</time>
      </trkpt>
      <trkpt lat="34.666563039645553" lon="-2.992349993437529">
        <ele>263.89999999999998</ele>
        <time>2003-04-13T10:10:16Z</time>
      </trkpt>
      <trkpt lat="34.665762986987829" lon="-2.99323302693665">
        <ele>260</ele>
        <time>2003-04-13T10:10:21Z</time>
      </trkpt>
      <trkpt lat="34.665011968463659" lon="-2.994056968018413">
        <ele>255.5</ele>
        <time>2003-04-13T10:10:25Z</time>
      </trkpt>
      <trkpt lat="34.664262961596251" lon="-2.994879987090826">
        <ele>252.19999999999999</ele>
        <time>2003-04-13T10:10:30Z</time>
      </trkpt>
      <trkpt lat="34.663431979715824" lon="-2.995775006711483">
        <ele>249.69999999999999</ele>
        <time>2003-04-13T10:10:36Z</time>
      </trkpt>
      <trkpt lat="34.662724966183305" lon="-2.996546979993582">
        <ele>248.80000000000001</ele>
        <time>2003-04-13T10:10:40Z</time>
      </trkpt>
      <trkpt lat="34.661932960152626" lon="-2.997400006279349">
        <ele>248.90000000000001</ele>
        <time>2003-04-13T10:10:44Z</time>
      </trkpt>
      <trkpt lat="34.661246985197067" lon="-2.998156975954771">
        <ele>248.69999999999999</ele>
        <time>2003-04-13T10:10:49Z</time>
      </trkpt>
      <trkpt lat="34.660509964451194" lon="-2.999025005847216">
        <ele>247.90000000000001</ele>
        <time>2003-04-13T10:10:55Z</time>
      </trkpt>
      <trkpt lat="34.659783001989126" lon="-3.000056985765696">
        <ele>247.5</ele>
        <time>2003-04-13T10:11:00Z</time>
      </trkpt>
      <trkpt lat="34.659138014540076" lon="-3.000944964587688">
        <ele>248</ele>
        <time>2003-04-13T10:11:04Z</time>
      </trkpt>
      <trkpt lat="34.658490009605885" lon="-3.001892035827041">
        <ele>247.90000000000001</ele>
        <time>2003-04-13T10:11:07Z</time>
      </trkpt>
      <trkpt lat="34.657852984964848" lon="-3.002855032682419">
        <ele>248.19999999999999</ele>
        <time>2003-04-13T10:11:11Z</time>
      </trkpt>
      <trkpt lat="34.657202968373895" lon="-3.003785004839301">
        <ele>247.09999999999999</ele>
        <time>2003-04-13T10:11:15Z</time>
      </trkpt>
      <trkpt lat="34.656571978703141" lon="-3.004682036116719">
        <ele>246.90000000000001</ele>
        <time>2003-04-13T10:11:19Z</time>
      </trkpt>
      <trkpt lat="34.655828000977635" lon="-3.005661964416504">
        <ele>247.09999999999999</ele>
        <time>2003-04-13T10:11:24Z</time>
      </trkpt>
      <trkpt lat="34.655034989118576" lon="-3.006566958501935">
        <ele>246.80000000000001</ele>
        <time>2003-04-13T10:11:30Z</time>
      </trkpt>
      <trkpt lat="34.654301991686225" lon="-3.007228039205074">
        <ele>246.09999999999999</ele>
        <time>2003-04-13T10:11:34Z</time>
      </trkpt>
      <trkpt lat="34.653433039784431" lon="-3.007752997800708">
        <ele>245.80000000000001</ele>
        <time>2003-04-13T10:11:38Z</time>
      </trkpt>
      <trkpt lat="34.652527961879969" lon="-3.008172009140253">
        <ele>245.59999999999999</ele>
        <time>2003-04-13T10:11:42Z</time>
      </trkpt>
      <trkpt lat="34.651609975844622" lon="-3.008537041023374">
        <ele>244.90000000000001</ele>
        <time>2003-04-13T10:11:46Z</time>
      </trkpt>
      <trkpt lat="34.650704981759191" lon="-3.008914981037378">
        <ele>245.30000000000001</ele>
        <time>2003-04-13T10:11:50Z</time>
      </trkpt>
      <trkpt lat="34.649878023192286" lon="-3.009355030953884">
        <ele>246.19999999999999</ele>
        <time>2003-04-13T10:11:54Z</time>
      </trkpt>
      <trkpt lat="34.649194981902838" lon="-3.009872026741505">
        <ele>248.69999999999999</ele>
        <time>2003-04-13T10:11:58Z</time>
      </trkpt>
      <trkpt lat="34.648399958387017" lon="-3.010609969496727">
        <ele>252</ele>
        <time>2003-04-13T10:12:02Z</time>
      </trkpt>
      <trkpt lat="34.647633014246821" lon="-3.011408010497689">
        <ele>253.80000000000001</ele>
        <time>2003-04-13T10:12:08Z</time>
      </trkpt>
      <trkpt lat="34.646906973794103" lon="-3.012261958792806">
        <ele>256.19999999999999</ele>
        <time>2003-04-13T10:12:13Z</time>
      </trkpt>
      <trkpt lat="34.646129971370101" lon="-3.013156978413463">
        <ele>259</ele>
        <time>2003-04-13T10:12:17Z</time>
      </trkpt>
      <trkpt lat="34.645342994481325" lon="-3.014076976105571">
        <ele>262.89999999999998</ele>
        <time>2003-04-13T10:12:23Z</time>
      </trkpt>
      <trkpt lat="34.644561968743801" lon="-3.014979958534241">
        <ele>268.30000000000001</ele>
        <time>2003-04-13T10:12:28Z</time>
      </trkpt>
      <trkpt lat="34.643810028210282" lon="-3.015882018953562">
        <ele>275.19999999999999</ele>
        <time>2003-04-13T10:12:32Z</time>
      </trkpt>
      <trkpt lat="34.643167974427342" lon="-3.016815008595586">
        <ele>282.69999999999999</ele>
        <time>2003-04-13T10:12:37Z</time>
      </trkpt>
      <trkpt lat="34.642979968339205" lon="-3.017226979136467">
        <ele>285.5</ele>
        <time>2003-04-13T10:12:40Z</time>
      </trkpt>
      <trkpt lat="34.642863040789962" lon="-3.017663005739451">
        <ele>287.60000000000002</ele>
        <time>2003-04-13T10:12:41Z</time>
      </trkpt>
      <trkpt lat="34.642637986689806" lon="-3.018815014511347">
        <ele>291.60000000000002</ele>
        <time>2003-04-13T10:12:47Z</time>
      </trkpt>
      <trkpt lat="34.642446963116527" lon="-3.020042041316629">
        <ele>293.80000000000001</ele>
        <time>2003-04-13T10:12:52Z</time>
      </trkpt>
      <trkpt lat="34.642198020592332" lon="-3.021011995151639">
        <ele>295.5</ele>
        <time>2003-04-13T10:12:55Z</time>
      </trkpt>
      <trkpt lat="34.641995010897517" lon="-3.021452967077494">
        <ele>296.10000000000002</ele>
        <time>2003-04-13T10:12:58Z</time>
      </trkpt>
      <trkpt lat="34.641472985967994" lon="-3.02225997671485">
        <ele>297.69999999999999</ele>
        <time>2003-04-13T10:13:02Z</time>
      </trkpt>
      <trkpt lat="34.641135027632117" lon="-3.022567005828023">
        <ele>298.30000000000001</ele>
        <time>2003-04-13T10:13:03Z</time>
      </trkpt>
      <trkpt lat="34.64011000469327" lon="-3.023148039355874">
        <ele>298.80000000000001</ele>
        <time>2003-04-13T10:13:08Z</time>
      </trkpt>
      <trkpt lat="34.63916796259582" lon="-3.023466970771551">
        <ele>299.60000000000002</ele>
        <time>2003-04-13T10:13:12Z</time>
      </trkpt>
      <trkpt lat="34.638228015974164" lon="-3.023812975734472">
        <ele>299.89999999999998</ele>
        <time>2003-04-13T10:13:17Z</time>
      </trkpt>
      <trkpt lat="34.637282034382224" lon="-3.024168033152819">
        <ele>299.60000000000002</ele>
        <time>2003-04-13T10:13:21Z</time>
      </trkpt>
      <trkpt lat="34.636336974799633" lon="-3.02451697178185">
        <ele>299.60000000000002</ele>
        <time>2003-04-13T10:13:25Z</time>
      </trkpt>
      <trkpt lat="34.635391999036074" lon="-3.024872029200196">
        <ele>299.69999999999999</ele>
        <time>2003-04-13T10:13:29Z</time>
      </trkpt>
      <trkpt lat="34.634450040757656" lon="-3.025211999192834">
        <ele>299.60000000000002</ele>
        <time>2003-04-13T10:13:33Z</time>
      </trkpt>
      <trkpt lat="34.633742021396756" lon="-3.025360023602843">
        <ele>299.30000000000001</ele>
        <time>2003-04-13T10:13:35Z</time>
      </trkpt>
      <trkpt lat="34.633052023127675" lon="-3.025377038866282">
        <ele>299.10000000000002</ele>
        <time>2003-04-13T10:13:38Z</time>
      </trkpt>
      <trkpt lat="34.632132025435567" lon="-3.025377038866282">
        <ele>298</ele>
        <time>2003-04-13T10:13:42Z</time>
      </trkpt>
      <trkpt lat="34.631208004429936" lon="-3.02537796087563">
        <ele>296.5</ele>
        <time>2003-04-13T10:13:46Z</time>
      </trkpt>
      <trkpt lat="34.630279960110784" lon="-3.025385001674295">
        <ele>294.69999999999999</ele>
        <time>2003-04-13T10:13:50Z</time>
      </trkpt>
      <trkpt lat="34.629358034580946" lon="-3.025382990017533">
        <ele>292.5</ele>
        <time>2003-04-13T10:13:54Z</time>
      </trkpt>
      <trkpt lat="34.628266962245107" lon="-3.025392964482307">
        <ele>291.19999999999999</ele>
        <time>2003-04-13T10:14:00Z</time>
      </trkpt>
      <trkpt lat="34.627202963456511" lon="-3.025388019159436">
        <ele>289.69999999999999</ele>
        <time>2003-04-13T10:14:05Z</time>
      </trkpt>
      <trkpt lat="34.626186992973089" lon="-3.02539698779583">
        <ele>289</ele>
        <time>2003-04-13T10:14:09Z</time>
      </trkpt>
      <trkpt lat="34.625177979469299" lon="-3.025402016937733">
        <ele>288.39999999999998</ele>
        <time>2003-04-13T10:14:15Z</time>
      </trkpt>
      <trkpt lat="34.624095037579536" lon="-3.025464965030551">
        <ele>287.30000000000001</ele>
        <time>2003-04-13T10:14:20Z</time>
      </trkpt>
      <trkpt lat="34.623185014352202" lon="-3.025645008310676">
        <ele>286.30000000000001</ele>
        <time>2003-04-13T10:14:24Z</time>
      </trkpt>
      <trkpt lat="34.622272979468107" lon="-3.025914989411831">
        <ele>285.30000000000001</ele>
        <time>2003-04-13T10:14:28Z</time>
      </trkpt>
      <trkpt lat="34.62135499343276" lon="-3.026193017140031">
        <ele>284.80000000000001</ele>
        <time>2003-04-13T10:14:32Z</time>
      </trkpt>
      <trkpt lat="34.62042803876102" lon="-3.02647003903985">
        <ele>283.19999999999999</ele>
        <time>2003-04-13T10:14:36Z</time>
      </trkpt>
      <trkpt lat="34.619490019977093" lon="-3.026758041232824">
        <ele>283.19999999999999</ele>
        <time>2003-04-13T10:14:40Z</time>
      </trkpt>
      <trkpt lat="34.618544960394502" lon="-3.027037996798754">
        <ele>282.5</ele>
        <time>2003-04-13T10:14:43Z</time>
      </trkpt>
      <trkpt lat="34.617567965760827" lon="-3.027317030355334">
        <ele>282.5</ele>
        <time>2003-04-13T10:14:47Z</time>
      </trkpt>
      <trkpt lat="34.616576973348856" lon="-3.027618024498224">
        <ele>282.80000000000001</ele>
        <time>2003-04-13T10:14:51Z</time>
      </trkpt>
      <trkpt lat="34.61559696123004" lon="-3.027920024469495">
        <ele>284</ele>
        <time>2003-04-13T10:14:55Z</time>
      </trkpt>
      <trkpt lat="34.614632958546281" lon="-3.02821297198534">
        <ele>286.39999999999998</ele>
        <time>2003-04-13T10:14:59Z</time>
      </trkpt>
      <trkpt lat="34.613817986100912" lon="-3.028450012207031">
        <ele>288.30000000000001</ele>
        <time>2003-04-13T10:15:03Z</time>
      </trkpt>
      <trkpt lat="34.613117007538676" lon="-3.02861999720335">
        <ele>288.5</ele>
        <time>2003-04-13T10:15:07Z</time>
      </trkpt>
      <trkpt lat="34.612077986821532" lon="-3.028801968321204">
        <ele>287.30000000000001</ele>
        <time>2003-04-13T10:15:14Z</time>
      </trkpt>
      <trkpt lat="34.610999990254641" lon="-3.028887966647744">
        <ele>283.89999999999998</ele>
        <time>2003-04-13T10:15:19Z</time>
      </trkpt>
      <trkpt lat="34.610016960650682" lon="-3.029019981622696">
        <ele>278.69999999999999</ele>
        <time>2003-04-13T10:15:22Z</time>
      </trkpt>
      <trkpt lat="34.608982969075441" lon="-3.029132969677448">
        <ele>272.69999999999999</ele>
        <time>2003-04-13T10:15:26Z</time>
      </trkpt>
      <trkpt lat="34.607879994437099" lon="-3.029246963560581">
        <ele>267.5</ele>
        <time>2003-04-13T10:15:30Z</time>
      </trkpt>
      <trkpt lat="34.606754975393414" lon="-3.029352994635701">
        <ele>263.60000000000002</ele>
        <time>2003-04-13T10:15:34Z</time>
      </trkpt>
      <trkpt lat="34.605652000755072" lon="-3.029464976862073">
        <ele>263.60000000000002</ele>
        <time>2003-04-13T10:15:38Z</time>
      </trkpt>
      <trkpt lat="34.604560006409883" lon="-3.029581988230348">
        <ele>265.10000000000002</ele>
        <time>2003-04-13T10:15:42Z</time>
      </trkpt>
      <trkpt lat="34.603497013449669" lon="-3.02965197712183">
        <ele>266.39999999999998</ele>
        <time>2003-04-13T10:15:46Z</time>
      </trkpt>
      <trkpt lat="34.602445000782609" lon="-3.029677961021662">
        <ele>268.69999999999999</ele>
        <time>2003-04-13T10:15:50Z</time>
      </trkpt>
      <trkpt lat="34.601445039734244" lon="-3.029688019305468">
        <ele>270.5</ele>
        <time>2003-04-13T10:15:54Z</time>
      </trkpt>
      <trkpt lat="34.600539961829782" lon="-3.029700005427003">
        <ele>271.5</ele>
        <time>2003-04-13T10:15:59Z</time>
      </trkpt>
      <trkpt lat="34.59946297109127" lon="-3.02971500903368">
        <ele>271.5</ele>
        <time>2003-04-13T10:16:04Z</time>
      </trkpt>
      <trkpt lat="34.598554959520698" lon="-3.029736969619989">
        <ele>270.19999999999999</ele>
        <time>2003-04-13T10:16:08Z</time>
      </trkpt>
      <trkpt lat="34.597606966271996" lon="-3.029760019853711">
        <ele>268.89999999999998</ele>
        <time>2003-04-13T10:16:12Z</time>
      </trkpt>
      <trkpt lat="34.596637012436986" lon="-3.029777035117149">
        <ele>266.69999999999999</ele>
        <time>2003-04-13T10:16:16Z</time>
      </trkpt>
      <trkpt lat="34.595724977552891" lon="-3.029797989875078">
        <ele>264.89999999999998</ele>
        <time>2003-04-13T10:16:20Z</time>
      </trkpt>
      <trkpt lat="34.594676988199353" lon="-3.029821962118149">
        <ele>262.5</ele>
        <time>2003-04-13T10:16:26Z</time>
      </trkpt>
      <trkpt lat="34.593612989410758" lon="-3.029852975159884">
        <ele>261.19999999999999</ele>
        <time>2003-04-13T10:16:31Z</time>
      </trkpt>
      <trkpt lat="34.592553013935685" lon="-3.029877031221986">
        <ele>260.10000000000002</ele>
        <time>2003-04-13T10:16:35Z</time>
      </trkpt>
      <trkpt lat="34.591569984331727" lon="-3.029892034828663">
        <ele>259.80000000000001</ele>
        <time>2003-04-13T10:16:40Z</time>
      </trkpt>
      <trkpt lat="34.590567005798221" lon="-3.029915001243353">
        <ele>258.80000000000001</ele>
        <time>2003-04-13T10:16:46Z</time>
      </trkpt>
      <trkpt lat="34.589494960382581" lon="-3.029927993193269">
        <ele>257.39999999999998</ele>
        <time>2003-04-13T10:16:51Z</time>
      </trkpt>
      <trkpt lat="34.588372958824039" lon="-3.029951965436339">
        <ele>256.60000000000002</ele>
        <time>2003-04-13T10:16:55Z</time>
      </trkpt>
      <trkpt lat="34.587435023859143" lon="-3.029971998184919">
        <ele>256.60000000000002</ele>
        <time>2003-04-13T10:16:59Z</time>
      </trkpt>
      <trkpt lat="34.586461968719959" lon="-3.029990019276738">
        <ele>256.30000000000001</ele>
        <time>2003-04-13T10:17:03Z</time>
      </trkpt>
      <trkpt lat="34.585492014884949" lon="-3.030011979863048">
        <ele>255.80000000000001</ele>
        <time>2003-04-13T10:17:07Z</time>
      </trkpt>
      <trkpt lat="34.584532035514712" lon="-3.030033018440008">
        <ele>255.69999999999999</ele>
        <time>2003-04-13T10:17:11Z</time>
      </trkpt>
      <trkpt lat="34.583580018952489" lon="-3.030056990683079">
        <ele>256.39999999999998</ele>
        <time>2003-04-13T10:17:15Z</time>
      </trkpt>
      <trkpt lat="34.582664966583252" lon="-3.030126979574561">
        <ele>256.39999999999998</ele>
        <time>2003-04-13T10:17:20Z</time>
      </trkpt>
      <trkpt lat="34.581567021086812" lon="-3.03033996373415">
        <ele>257.39999999999998</ele>
        <time>2003-04-13T10:17:25Z</time>
      </trkpt>
      <trkpt lat="34.580654986202717" lon="-3.030502991750836">
        <ele>258.39999999999998</ele>
        <time>2003-04-13T10:17:29Z</time>
      </trkpt>
      <trkpt lat="34.579749992117286" lon="-3.030669959262013">
        <ele>258.89999999999998</ele>
        <time>2003-04-13T10:17:33Z</time>
      </trkpt>
      <trkpt lat="34.578820019960403" lon="-3.030847990885377">
        <ele>258.89999999999998</ele>
        <time>2003-04-13T10:17:37Z</time>
      </trkpt>
      <trkpt lat="34.577885018661618" lon="-3.031021999195218">
        <ele>258.5</ele>
        <time>2003-04-13T10:17:41Z</time>
      </trkpt>
      <trkpt lat="34.57694498822093" lon="-3.031207993626595">
        <ele>258</ele>
        <time>2003-04-13T10:17:45Z</time>
      </trkpt>
      <trkpt lat="34.576036976650357" lon="-3.031403040513396">
        <ele>257.60000000000002</ele>
        <time>2003-04-13T10:17:49Z</time>
      </trkpt>
      <trkpt lat="34.575395006686449" lon="-3.031682996079326">
        <ele>257.39999999999998</ele>
        <time>2003-04-13T10:17:52Z</time>
      </trkpt>
      <trkpt lat="34.5745600014925" lon="-3.032181970775127">
        <ele>258.19999999999999</ele>
        <time>2003-04-13T10:17:56Z</time>
      </trkpt>
      <trkpt lat="34.573727007955313" lon="-3.032687986269593">
        <ele>259.39999999999998</ele>
        <time>2003-04-13T10:18:00Z</time>
      </trkpt>
      <trkpt lat="34.572923015803099" lon="-3.033186960965395">
        <ele>261.19999999999999</ele>
        <time>2003-04-13T10:18:04Z</time>
      </trkpt>
      <trkpt lat="34.571928000077605" lon="-3.033791966736317">
        <ele>262.89999999999998</ele>
        <time>2003-04-13T10:18:08Z</time>
      </trkpt>
      <trkpt lat="34.57110196352005" lon="-3.034197986125946">
        <ele>264.39999999999998</ele>
        <time>2003-04-13T10:18:12Z</time>
      </trkpt>
      <trkpt lat="34.570663003250957" lon="-3.034322960302234">
        <ele>265.30000000000001</ele>
        <time>2003-04-13T10:18:15Z</time>
      </trkpt>
      <trkpt lat="34.570220019668341" lon="-3.034378029406071">
        <ele>265.69999999999999</ele>
        <time>2003-04-13T10:18:16Z</time>
      </trkpt>
      <trkpt lat="34.570007035508752" lon="-3.034357996657491">
        <ele>265.89999999999998</ele>
        <time>2003-04-13T10:18:18Z</time>
      </trkpt>
      <trkpt lat="34.5695969928056" lon="-3.0342279933393">
        <ele>266.19999999999999</ele>
        <time>2003-04-13T10:18:19Z</time>
      </trkpt>
      <trkpt lat="34.568535005673766" lon="-3.03377796895802">
        <ele>265</ele>
        <time>2003-04-13T10:18:24Z</time>
      </trkpt>
      <trkpt lat="34.567522974684834" lon="-3.033280000090599">
        <ele>262.19999999999999</ele>
        <time>2003-04-13T10:18:30Z</time>
      </trkpt>
      <trkpt lat="34.566522007808089" lon="-3.032757975161076">
        <ele>258.5</ele>
        <time>2003-04-13T10:18:35Z</time>
      </trkpt>
      <trkpt lat="34.565573008731008" lon="-3.032275009900332">
        <ele>251.59999999999999</ele>
        <time>2003-04-13T10:18:39Z</time>
      </trkpt>
      <trkpt lat="34.564667008817196" lon="-3.031805036589503">
        <ele>245.09999999999999</ele>
        <time>2003-04-13T10:18:45Z</time>
      </trkpt>
      <trkpt lat="34.563739970326424" lon="-3.031328022480011">
        <ele>240.40000000000001</ele>
        <time>2003-04-13T10:18:50Z</time>
      </trkpt>
      <trkpt lat="34.562794994562864" lon="-3.030857965350151">
        <ele>236.40000000000001</ele>
        <time>2003-04-13T10:18:54Z</time>
      </trkpt>
      <trkpt lat="34.561863010749221" lon="-3.030386986210942">
        <ele>233.30000000000001</ele>
        <time>2003-04-13T10:18:59Z</time>
      </trkpt>
      <trkpt lat="34.560928009450436" lon="-3.029912989586592">
        <ele>232.90000000000001</ele>
        <time>2003-04-13T10:19:05Z</time>
      </trkpt>
      <trkpt lat="34.560061991214752" lon="-3.029496995732188">
        <ele>236</ele>
        <time>2003-04-13T10:19:10Z</time>
      </trkpt>
      <trkpt lat="34.559075022116303" lon="-3.02900698967278">
        <ele>243.30000000000001</ele>
        <time>2003-04-13T10:19:16Z</time>
      </trkpt>
      <trkpt lat="34.558072965592146" lon="-3.028507009148598">
        <ele>249.90000000000001</ele>
        <time>2003-04-13T10:19:21Z</time>
      </trkpt>
      <trkpt lat="34.55719999037683" lon="-3.028066959232092">
        <ele>253.90000000000001</ele>
        <time>2003-04-13T10:19:26Z</time>
      </trkpt>
      <trkpt lat="34.556298013776541" lon="-3.027573013678193">
        <ele>254.09999999999999</ele>
        <time>2003-04-13T10:19:32Z</time>
      </trkpt>
      <trkpt lat="34.555457979440689" lon="-3.026987034827471">
        <ele>251.19999999999999</ele>
        <time>2003-04-13T10:19:37Z</time>
      </trkpt>
      <trkpt lat="34.554860014468431" lon="-3.026307011023164">
        <ele>248.5</ele>
        <time>2003-04-13T10:19:40Z</time>
      </trkpt>
      <trkpt lat="34.554346958175302" lon="-3.025492960587144">
        <ele>246.5</ele>
        <time>2003-04-13T10:19:44Z</time>
      </trkpt>
      <trkpt lat="34.554064990952611" lon="-3.024825006723404">
        <ele>245.69999999999999</ele>
        <time>2003-04-13T10:19:48Z</time>
      </trkpt>
      <trkpt lat="34.553708005696535" lon="-3.023660006001592">
        <ele>246.69999999999999</ele>
        <time>2003-04-13T10:19:52Z</time>
      </trkpt>
      <trkpt lat="34.553329981863499" lon="-3.022486958652735">
        <ele>247.80000000000001</ele>
        <time>2003-04-13T10:19:57Z</time>
      </trkpt>
      <trkpt lat="34.552927985787392" lon="-3.021430000662804">
        <ele>249.30000000000001</ele>
        <time>2003-04-13T10:20:03Z</time>
      </trkpt>
      <trkpt lat="34.552682982757688" lon="-3.021062035113573">
        <ele>249.80000000000001</ele>
        <time>2003-04-13T10:20:04Z</time>
      </trkpt>
      <trkpt lat="34.552091974765062" lon="-3.020419981330633">
        <ele>252</ele>
        <time>2003-04-13T10:20:08Z</time>
      </trkpt>
      <trkpt lat="34.551576990634203" lon="-3.020035000517964">
        <ele>254.30000000000001</ele>
        <time>2003-04-13T10:20:11Z</time>
      </trkpt>
      <trkpt lat="34.550971984863281" lon="-3.019607020542026">
        <ele>256.89999999999998</ele>
        <time>2003-04-13T10:20:15Z</time>
      </trkpt>
      <trkpt lat="34.550091968849301" lon="-3.01905800588429">
        <ele>258.30000000000001</ele>
        <time>2003-04-13T10:20:22Z</time>
      </trkpt>
      <trkpt lat="34.549189992249012" lon="-3.018717030063272">
        <ele>258.69999999999999</ele>
        <time>2003-04-13T10:20:27Z</time>
      </trkpt>
      <trkpt lat="34.548703003674746" lon="-3.018624996766448">
        <ele>259.19999999999999</ele>
        <time>2003-04-13T10:20:31Z</time>
      </trkpt>
      <trkpt lat="34.548358004540205" lon="-3.018632959574461">
        <ele>259.39999999999998</ele>
        <time>2003-04-13T10:20:33Z</time>
      </trkpt>
      <trkpt lat="34.547630036249757" lon="-3.018781989812851">
        <ele>260.19999999999999</ele>
        <time>2003-04-13T10:20:37Z</time>
      </trkpt>
      <trkpt lat="34.546727975830436" lon="-3.019152972847223">
        <ele>260.10000000000002</ele>
        <time>2003-04-13T10:20:42Z</time>
      </trkpt>
      <trkpt lat="34.546256996691227" lon="-3.019442986696959">
        <ele>259.5</ele>
        <time>2003-04-13T10:20:45Z</time>
      </trkpt>
      <trkpt lat="34.545824993401766" lon="-3.019816987216473">
        <ele>258.80000000000001</ele>
        <time>2003-04-13T10:20:47Z</time>
      </trkpt>
      <trkpt lat="34.545334987342358" lon="-3.020389974117279">
        <ele>257.39999999999998</ele>
        <time>2003-04-13T10:20:51Z</time>
      </trkpt>
      <trkpt lat="34.544910024851561" lon="-3.021128000691533">
        <ele>254.69999999999999</ele>
        <time>2003-04-13T10:20:56Z</time>
      </trkpt>
      <trkpt lat="34.544492019340396" lon="-3.022198034450412">
        <ele>250.80000000000001</ele>
        <time>2003-04-13T10:21:01Z</time>
      </trkpt>
      <trkpt lat="34.544386994093657" lon="-3.022646969184279">
        <ele>249.59999999999999</ele>
        <time>2003-04-13T10:21:02Z</time>
      </trkpt>
      <trkpt lat="34.544224971905351" lon="-3.023839965462685">
        <ele>247.5</ele>
        <time>2003-04-13T10:21:08Z</time>
      </trkpt>
      <trkpt lat="34.544054986909032" lon="-3.025066992267966">
        <ele>246.40000000000001</ele>
        <time>2003-04-13T10:21:13Z</time>
      </trkpt>
      <trkpt lat="34.543888019397855" lon="-3.026269963011146">
        <ele>246.59999999999999</ele>
        <time>2003-04-13T10:21:17Z</time>
      </trkpt>
      <trkpt lat="34.543715016916394" lon="-3.026972031220794">
        <ele>247.69999999999999</ele>
        <time>2003-04-13T10:21:21Z</time>
      </trkpt>
      <trkpt lat="34.543376974761486" lon="-3.02786503918469">
        <ele>249.59999999999999</ele>
        <time>2003-04-13T10:21:25Z</time>
      </trkpt>
      <trkpt lat="34.543032981455326" lon="-3.02846996113658">
        <ele>251</ele>
        <time>2003-04-13T10:21:28Z</time>
      </trkpt>
      <trkpt lat="34.542357986792922" lon="-3.029388030990958">
        <ele>253.69999999999999</ele>
        <time>2003-04-13T10:21:32Z</time>
      </trkpt>
      <trkpt lat="34.541562041267753" lon="-3.030133014544845">
        <ele>256.80000000000001</ele>
        <time>2003-04-13T10:21:37Z</time>
      </trkpt>
      <trkpt lat="34.540840024128556" lon="-3.030580021440983">
        <ele>260.10000000000002</ele>
        <time>2003-04-13T10:21:41Z</time>
      </trkpt>
      <trkpt lat="34.540242981165648" lon="-3.030837010592222">
        <ele>261.30000000000001</ele>
        <time>2003-04-13T10:21:44Z</time>
      </trkpt>
      <trkpt lat="34.539820030331612" lon="-3.030899958685041">
        <ele>261.19999999999999</ele>
        <time>2003-04-13T10:21:47Z</time>
      </trkpt>
      <trkpt lat="34.538747984915972" lon="-3.030997021123767">
        <ele>261.89999999999998</ele>
        <time>2003-04-13T10:21:52Z</time>
      </trkpt>
      <trkpt lat="34.537907028570771" lon="-3.030947986990213">
        <ele>262.69999999999999</ele>
        <time>2003-04-13T10:21:55Z</time>
      </trkpt>
      <trkpt lat="34.537336975336075" lon="-3.030782025307417">
        <ele>263.10000000000002</ele>
        <time>2003-04-13T10:21:59Z</time>
      </trkpt>
      <trkpt lat="34.536372972652316" lon="-3.030342981219292">
        <ele>263.39999999999998</ele>
        <time>2003-04-13T10:22:03Z</time>
      </trkpt>
      <trkpt lat="34.535387009382248" lon="-3.029848029837012">
        <ele>263.30000000000001</ele>
        <time>2003-04-13T10:22:08Z</time>
      </trkpt>
      <trkpt lat="34.534413032233715" lon="-3.029360035434365">
        <ele>263.30000000000001</ele>
        <time>2003-04-13T10:22:14Z</time>
      </trkpt>
      <trkpt lat="34.533454980701208" lon="-3.028880003839731">
        <ele>263.10000000000002</ele>
        <time>2003-04-13T10:22:19Z</time>
      </trkpt>
      <trkpt lat="34.532462982460856" lon="-3.028374994173646">
        <ele>264.19999999999999</ele>
        <time>2003-04-13T10:22:23Z</time>
      </trkpt>
      <trkpt lat="34.531457992270589" lon="-3.027873001992703">
        <ele>265</ele>
        <time>2003-04-13T10:22:29Z</time>
      </trkpt>
      <trkpt lat="34.530421989038587" lon="-3.027347959578037">
        <ele>264.80000000000001</ele>
        <time>2003-04-13T10:22:34Z</time>
      </trkpt>
      <trkpt lat="34.5295699685812" lon="-3.026916962116957">
        <ele>265.19999999999999</ele>
        <time>2003-04-13T10:22:38Z</time>
      </trkpt>
      <trkpt lat="34.528534971177578" lon="-3.026402983814478">
        <ele>266</ele>
        <time>2003-04-13T10:22:42Z</time>
      </trkpt>
      <trkpt lat="34.52770197764039" lon="-3.025986989960074">
        <ele>266.60000000000002</ele>
        <time>2003-04-13T10:22:46Z</time>
      </trkpt>
      <trkpt lat="34.526694975793362" lon="-3.025469994172454">
        <ele>267</ele>
        <time>2003-04-13T10:22:52Z</time>
      </trkpt>
      <trkpt lat="34.525729967281222" lon="-3.02498702891171">
        <ele>267.19999999999999</ele>
        <time>2003-04-13T10:22:57Z</time>
      </trkpt>
      <trkpt lat="34.524802006781101" lon="-3.024528035894036">
        <ele>267.10000000000002</ele>
        <time>2003-04-13T10:23:01Z</time>
      </trkpt>
      <trkpt lat="34.523844961076975" lon="-3.024035012349486">
        <ele>267.60000000000002</ele>
        <time>2003-04-13T10:23:06Z</time>
      </trkpt>
      <trkpt lat="34.522854974493384" lon="-3.023552969098091">
        <ele>268.39999999999998</ele>
        <time>2003-04-13T10:23:12Z</time>
      </trkpt>
      <trkpt lat="34.521917961537838" lon="-3.023070003837347">
        <ele>269.60000000000002</ele>
        <time>2003-04-13T10:23:16Z</time>
      </trkpt>
      <trkpt lat="34.521007016301155" lon="-3.022621991112828">
        <ele>270.80000000000001</ele>
        <time>2003-04-13T10:23:21Z</time>
      </trkpt>
      <trkpt lat="34.520085006952286" lon="-3.022159980610013">
        <ele>271.60000000000002</ele>
        <time>2003-04-13T10:23:27Z</time>
      </trkpt>
      <trkpt lat="34.519108012318611" lon="-3.021729988977313">
        <ele>272.39999999999998</ele>
        <time>2003-04-13T10:23:32Z</time>
      </trkpt>
      <trkpt lat="34.518060022965074" lon="-3.021412985399365">
        <ele>273.80000000000001</ele>
        <time>2003-04-13T10:23:36Z</time>
      </trkpt>
      <trkpt lat="34.516997030004859" lon="-3.021136969327927">
        <ele>273.39999999999998</ele>
        <time>2003-04-13T10:23:42Z</time>
      </trkpt>
      <trkpt lat="34.515930013731122" lon="-3.02079800516367">
        <ele>273.80000000000001</ele>
        <time>2003-04-13T10:23:47Z</time>
      </trkpt>
      <trkpt lat="34.514891998842359" lon="-3.020297018811107">
        <ele>274.60000000000002</ele>
        <time>2003-04-13T10:23:51Z</time>
      </trkpt>
      <trkpt lat="34.514301996678114" lon="-3.019883036613464">
        <ele>275.19999999999999</ele>
        <time>2003-04-13T10:23:55Z</time>
      </trkpt>
      <trkpt lat="34.513555001467466" lon="-3.019262021407485">
        <ele>275.39999999999998</ele>
        <time>2003-04-13T10:23:59Z</time>
      </trkpt>
      <trkpt lat="34.512712033465505" lon="-3.018367001786828">
        <ele>276.30000000000001</ele>
        <time>2003-04-13T10:24:03Z</time>
      </trkpt>
      <trkpt lat="34.512114990502596" lon="-3.017522022128105">
        <ele>276.39999999999998</ele>
        <time>2003-04-13T10:24:07Z</time>
      </trkpt>
      <trkpt lat="34.511591959744692" lon="-3.016581991687417">
        <ele>276.69999999999999</ele>
        <time>2003-04-13T10:24:11Z</time>
      </trkpt>
      <trkpt lat="34.511130033060908" lon="-3.015586975961924">
        <ele>277.19999999999999</ele>
        <time>2003-04-13T10:24:15Z</time>
      </trkpt>
      <trkpt lat="34.510842030867934" lon="-3.014802010729909">
        <ele>277</ele>
        <time>2003-04-13T10:24:18Z</time>
      </trkpt>
      <trkpt lat="34.510659975931048" lon="-3.013968011364341">
        <ele>277.10000000000002</ele>
        <time>2003-04-13T10:24:22Z</time>
      </trkpt>
      <trkpt lat="34.510416984558105" lon="-3.012860007584095">
        <ele>278.39999999999998</ele>
        <time>2003-04-13T10:24:26Z</time>
      </trkpt>
      <trkpt lat="34.51008296571672" lon="-3.011804977431893">
        <ele>280.5</ele>
        <time>2003-04-13T10:24:30Z</time>
      </trkpt>
      <trkpt lat="34.50984500348568" lon="-3.011317988857627">
        <ele>281.39999999999998</ele>
        <time>2003-04-13T10:24:32Z</time>
      </trkpt>
      <trkpt lat="34.509247038513422" lon="-3.010466974228621">
        <ele>282.19999999999999</ele>
        <time>2003-04-13T10:24:36Z</time>
      </trkpt>
      <trkpt lat="34.508502976968884" lon="-3.0095199868083">
        <ele>284.60000000000002</ele>
        <time>2003-04-13T10:24:41Z</time>
      </trkpt>
      <trkpt lat="34.507772997021675" lon="-3.008605018258095">
        <ele>286.19999999999999</ele>
        <time>2003-04-13T10:24:45Z</time>
      </trkpt>
      <trkpt lat="34.507028013467789" lon="-3.007691977545619">
        <ele>287.10000000000002</ele>
        <time>2003-04-13T10:24:50Z</time>
      </trkpt>
      <trkpt lat="34.506278000771999" lon="-3.006750019267201">
        <ele>287.80000000000001</ele>
        <time>2003-04-13T10:24:56Z</time>
      </trkpt>
      <trkpt lat="34.505492029711604" lon="-3.005770007148385">
        <ele>288.39999999999998</ele>
        <time>2003-04-13T10:25:01Z</time>
      </trkpt>
      <trkpt lat="34.504851987585425" lon="-3.004967020824552">
        <ele>289.19999999999999</ele>
        <time>2003-04-13T10:25:04Z</time>
      </trkpt>
      <trkpt lat="34.504213035106659" lon="-3.004167973995209">
        <ele>290.80000000000001</ele>
        <time>2003-04-13T10:25:08Z</time>
      </trkpt>
      <trkpt lat="34.5035719871521" lon="-3.00337303429842">
        <ele>291.30000000000001</ele>
        <time>2003-04-13T10:25:12Z</time>
      </trkpt>
      <trkpt lat="34.50290797278285" lon="-3.002550015226007">
        <ele>291.39999999999998</ele>
        <time>2003-04-13T10:25:16Z</time>
      </trkpt>
      <trkpt lat="34.502216968685389" lon="-3.001696988940239">
        <ele>291.69999999999999</ele>
        <time>2003-04-13T10:25:20Z</time>
      </trkpt>
      <trkpt lat="34.501514984294772" lon="-3.000823007896543">
        <ele>292.80000000000001</ele>
        <time>2003-04-13T10:25:24Z</time>
      </trkpt>
      <trkpt lat="34.500797996297479" lon="-2.999937040731311">
        <ele>293.30000000000001</ele>
        <time>2003-04-13T10:25:28Z</time>
      </trkpt>
      <trkpt lat="34.500082014128566" lon="-2.999032968655229">
        <ele>294.30000000000001</ele>
        <time>2003-04-13T10:25:32Z</time>
      </trkpt>
      <trkpt lat="34.499444989487529" lon="-2.99823802895844">
        <ele>296.80000000000001</ele>
        <time>2003-04-13T10:25:36Z</time>
      </trkpt>
      <trkpt lat="34.498715009540319" lon="-2.997333034873009">
        <ele>299.5</ele>
        <time>2003-04-13T10:25:42Z</time>
      </trkpt>
      <trkpt lat="34.49798796325922" lon="-2.996442038565874">
        <ele>302</ele>
        <time>2003-04-13T10:25:47Z</time>
      </trkpt>
      <trkpt lat="34.497211966663599" lon="-2.995620025321841">
        <ele>303.80000000000001</ele>
        <time>2003-04-13T10:25:51Z</time>
      </trkpt>
      <trkpt lat="34.496860010549426" lon="-2.99536001868546">
        <ele>304.5</ele>
        <time>2003-04-13T10:25:54Z</time>
      </trkpt>
      <trkpt lat="34.496285011991858" lon="-2.995060030370951">
        <ele>305.60000000000002</ele>
        <time>2003-04-13T10:25:57Z</time>
      </trkpt>
      <trkpt lat="34.495277004316449" lon="-2.994677983224392">
        <ele>308.39999999999998</ele>
        <time>2003-04-13T10:26:02Z</time>
      </trkpt>
      <trkpt lat="34.49429196305573" lon="-2.994440020993352">
        <ele>315.89999999999998</ele>
        <time>2003-04-13T10:26:06Z</time>
      </trkpt>
      <trkpt lat="34.493317985907197" lon="-2.994368020445108">
        <ele>320.89999999999998</ele>
        <time>2003-04-13T10:26:11Z</time>
      </trkpt>
      <trkpt lat="34.492273014038801" lon="-2.994342958554626">
        <ele>320.60000000000002</ele>
        <time>2003-04-13T10:26:17Z</time>
      </trkpt>
      <trkpt lat="34.491365002468228" lon="-2.994314962998033">
        <ele>318.60000000000002</ele>
        <time>2003-04-13T10:26:21Z</time>
      </trkpt>
      <trkpt lat="34.490407034754753" lon="-2.994268024340272">
        <ele>318.89999999999998</ele>
        <time>2003-04-13T10:26:25Z</time>
      </trkpt>
      <trkpt lat="34.48943498544395" lon="-2.994227958843112">
        <ele>321.30000000000001</ele>
        <time>2003-04-13T10:26:29Z</time>
      </trkpt>
      <trkpt lat="34.48853200301528" lon="-2.994129974395037">
        <ele>324.80000000000001</ele>
        <time>2003-04-13T10:26:33Z</time>
      </trkpt>
      <trkpt lat="34.487670008093119" lon="-2.993908021599054">
        <ele>325.39999999999998</ele>
        <time>2003-04-13T10:26:37Z</time>
      </trkpt>
      <trkpt lat="34.486793009564281" lon="-2.993618007749319">
        <ele>324.30000000000001</ele>
        <time>2003-04-13T10:26:41Z</time>
      </trkpt>
      <trkpt lat="34.485879968851805" lon="-2.993248030543327">
        <ele>320.89999999999998</ele>
        <time>2003-04-13T10:26:45Z</time>
      </trkpt>
      <trkpt lat="34.484927030280232" lon="-2.992860032245517">
        <ele>318.19999999999999</ele>
        <time>2003-04-13T10:26:49Z</time>
      </trkpt>
      <trkpt lat="34.483960010111332" lon="-2.992464993149042">
        <ele>316.89999999999998</ele>
        <time>2003-04-13T10:26:52Z</time>
      </trkpt>
      <trkpt lat="34.483038000762463" lon="-2.992082023993135">
        <ele>316.69999999999999</ele>
        <time>2003-04-13T10:26:56Z</time>
      </trkpt>
      <trkpt lat="34.482157984748483" lon="-2.991714980453253">
        <ele>317</ele>
        <time>2003-04-13T10:27:01Z</time>
      </trkpt>
      <trkpt lat="34.481152994558215" lon="-2.991290017962456">
        <ele>317.10000000000002</ele>
        <time>2003-04-13T10:27:07Z</time>
      </trkpt>
      <trkpt lat="34.480208018794656" lon="-2.990891961380839">
        <ele>316.89999999999998</ele>
        <time>2003-04-13T10:27:12Z</time>
      </trkpt>
      <trkpt lat="34.479219960048795" lon="-2.99046297557652">
        <ele>317</ele>
        <time>2003-04-13T10:27:16Z</time>
      </trkpt>
      <trkpt lat="34.478198038414121" lon="-2.989956960082054">
        <ele>317.19999999999999</ele>
        <time>2003-04-13T10:27:20Z</time>
      </trkpt>
      <trkpt lat="34.47733998298645" lon="-2.989529985934496">
        <ele>316.19999999999999</ele>
        <time>2003-04-13T10:27:26Z</time>
      </trkpt>
      <trkpt lat="34.476458039134741" lon="-2.989094965159893">
        <ele>316.10000000000002</ele>
        <time>2003-04-13T10:27:30Z</time>
      </trkpt>
      <trkpt lat="34.475586991757154" lon="-2.988672014325857">
        <ele>317.80000000000001</ele>
        <time>2003-04-13T10:27:34Z</time>
      </trkpt>
      <trkpt lat="34.474736982956529" lon="-2.988272029906511">
        <ele>319</ele>
        <time>2003-04-13T10:27:38Z</time>
      </trkpt>
      <trkpt lat="34.473678013309836" lon="-2.987871961668134">
        <ele>320</ele>
        <time>2003-04-13T10:27:43Z</time>
      </trkpt>
      <trkpt lat="34.47261200286448" lon="-2.987589994445443">
        <ele>320.5</ele>
        <time>2003-04-13T10:27:47Z</time>
      </trkpt>
      <trkpt lat="34.471540041267872" lon="-2.987416991963983">
        <ele>320.60000000000002</ele>
        <time>2003-04-13T10:27:53Z</time>
      </trkpt>
      <trkpt lat="34.470443017780781" lon="-2.987339962273836">
        <ele>321.30000000000001</ele>
        <time>2003-04-13T10:27:58Z</time>
      </trkpt>
      <trkpt lat="34.469525031745434" lon="-2.987407017499209">
        <ele>321.69999999999999</ele>
        <time>2003-04-13T10:28:02Z</time>
      </trkpt>
      <trkpt lat="34.46857301518321" lon="-2.987472983077169">
        <ele>321.60000000000002</ele>
        <time>2003-04-13T10:28:06Z</time>
      </trkpt>
      <trkpt lat="34.46760700084269" lon="-2.987520005553961">
        <ele>323.69999999999999</ele>
        <time>2003-04-13T10:28:10Z</time>
      </trkpt>
      <trkpt lat="34.466622965410352" lon="-2.987429983913899">
        <ele>325.30000000000001</ele>
        <time>2003-04-13T10:28:13Z</time>
      </trkpt>
      <trkpt lat="34.465613029897213" lon="-2.987301992252469">
        <ele>325.60000000000002</ele>
        <time>2003-04-13T10:28:17Z</time>
      </trkpt>
      <trkpt lat="34.464566968381405" lon="-2.987184980884194">
        <ele>324.89999999999998</ele>
        <time>2003-04-13T10:28:21Z</time>
      </trkpt>
      <trkpt lat="34.463510010391474" lon="-2.987057995051146">
        <ele>325.80000000000001</ele>
        <time>2003-04-13T10:28:25Z</time>
      </trkpt>
      <trkpt lat="34.462454980239272" lon="-2.986935032531619">
        <ele>326.5</ele>
        <time>2003-04-13T10:28:29Z</time>
      </trkpt>
      <trkpt lat="34.46139701642096" lon="-2.986817015334964">
        <ele>327.19999999999999</ele>
        <time>2003-04-13T10:28:33Z</time>
      </trkpt>
      <trkpt lat="34.460342992097139" lon="-2.986696986481547">
        <ele>327.69999999999999</ele>
        <time>2003-04-13T10:28:37Z</time>
      </trkpt>
      <trkpt lat="34.459322998300195" lon="-2.986577963456512">
        <ele>332.5</ele>
        <time>2003-04-13T10:28:41Z</time>
      </trkpt>
      <trkpt lat="34.458338040858507" lon="-2.986458018422127">
        <ele>336.60000000000002</ele>
        <time>2003-04-13T10:28:45Z</time>
      </trkpt>
      <trkpt lat="34.457373032346368" lon="-2.98635701648891">
        <ele>341.30000000000001</ele>
        <time>2003-04-13T10:28:49Z</time>
      </trkpt>
      <trkpt lat="34.456420009955764" lon="-2.986242016777396">
        <ele>344.5</ele>
        <time>2003-04-13T10:28:53Z</time>
      </trkpt>
      <trkpt lat="34.455475034192204" lon="-2.986128022894263">
        <ele>347.80000000000001</ele>
        <time>2003-04-13T10:28:57Z</time>
      </trkpt>
      <trkpt lat="34.454538021236658" lon="-2.985997013747692">
        <ele>351</ele>
        <time>2003-04-13T10:29:02Z</time>
      </trkpt>
      <trkpt lat="34.453452983871102" lon="-2.985716974362731">
        <ele>355.19999999999999</ele>
        <time>2003-04-13T10:29:07Z</time>
      </trkpt>
      <trkpt lat="34.452412035316229" lon="-2.985322019085288">
        <ele>356.80000000000001</ele>
        <time>2003-04-13T10:29:11Z</time>
      </trkpt>
      <trkpt lat="34.451392041519284" lon="-2.984779961407185">
        <ele>354.60000000000002</ele>
        <time>2003-04-13T10:29:16Z</time>
      </trkpt>
      <trkpt lat="34.45054697804153" lon="-2.984228013083339">
        <ele>350.19999999999999</ele>
        <time>2003-04-13T10:29:20Z</time>
      </trkpt>
      <trkpt lat="34.449671991169453" lon="-2.983646979555488">
        <ele>347.60000000000002</ele>
        <time>2003-04-13T10:29:24Z</time>
      </trkpt>
      <trkpt lat="34.448798010125756" lon="-2.983065024018288">
        <ele>346.60000000000002</ele>
        <time>2003-04-13T10:29:29Z</time>
      </trkpt>
      <trkpt lat="34.447983037680387" lon="-2.982526989653707">
        <ele>345.80000000000001</ele>
        <time>2003-04-13T10:29:33Z</time>
      </trkpt>
      <trkpt lat="34.447006965056062" lon="-2.981985015794635">
        <ele>344.39999999999998</ele>
        <time>2003-04-13T10:29:38Z</time>
      </trkpt>
      <trkpt lat="34.446061989292502" lon="-2.981629958376288">
        <ele>343.89999999999998</ele>
        <time>2003-04-13T10:29:42Z</time>
      </trkpt>
      <trkpt lat="34.445115001872182" lon="-2.981337010860443">
        <ele>343</ele>
        <time>2003-04-13T10:29:47Z</time>
      </trkpt>
      <trkpt lat="34.444155022501945" lon="-2.981062000617385">
        <ele>343.10000000000002</ele>
        <time>2003-04-13T10:29:53Z</time>
      </trkpt>
      <trkpt lat="34.443182973191142" lon="-2.980777015909553">
        <ele>343.30000000000001</ele>
        <time>2003-04-13T10:29:58Z</time>
      </trkpt>
      <trkpt lat="34.44221000187099" lon="-2.980466969311237">
        <ele>343.60000000000002</ele>
        <time>2003-04-13T10:30:02Z</time>
      </trkpt>
      <trkpt lat="34.441454960033298" lon="-2.980118030682206">
        <ele>344.10000000000002</ele>
        <time>2003-04-13T10:30:06Z</time>
      </trkpt>
      <trkpt lat="34.440932013094425" lon="-2.979736989364028">
        <ele>343</ele>
        <time>2003-04-13T10:30:09Z</time>
      </trkpt>
      <trkpt lat="34.440332958474755" lon="-2.979131983593106">
        <ele>340.89999999999998</ele>
        <time>2003-04-13T10:30:13Z</time>
      </trkpt>
      <trkpt lat="34.439815040677786" lon="-2.978411978110671">
        <ele>339.30000000000001</ele>
        <time>2003-04-13T10:30:17Z</time>
      </trkpt>
      <trkpt lat="34.439495019614697" lon="-2.977773025631905">
        <ele>338.69999999999999</ele>
        <time>2003-04-13T10:30:21Z</time>
      </trkpt>
      <trkpt lat="34.439167035743594" lon="-2.976822014898062">
        <ele>337.89999999999998</ele>
        <time>2003-04-13T10:30:25Z</time>
      </trkpt>
      <trkpt lat="34.439026974141598" lon="-2.976048029959202">
        <ele>337.89999999999998</ele>
        <time>2003-04-13T10:30:28Z</time>
      </trkpt>
      <trkpt lat="34.438851960003376" lon="-2.974767023697496">
        <ele>338.5</ele>
        <time>2003-04-13T10:30:32Z</time>
      </trkpt>
      <trkpt lat="34.438682980835438" lon="-2.973482999950647">
        <ele>339.69999999999999</ele>
        <time>2003-04-13T10:30:37Z</time>
      </trkpt>
      <trkpt lat="34.438509978353977" lon="-2.97219998203218">
        <ele>340.10000000000002</ele>
        <time>2003-04-13T10:30:43Z</time>
      </trkpt>
      <trkpt lat="34.438339993357658" lon="-2.970877988263965">
        <ele>340.80000000000001</ele>
        <time>2003-04-13T10:30:48Z</time>
      </trkpt>
      <trkpt lat="34.438183000311255" lon="-2.96979496255517">
        <ele>341.69999999999999</ele>
        <time>2003-04-13T10:30:52Z</time>
      </trkpt>
      <trkpt lat="34.437907990068197" lon="-2.968723000958562">
        <ele>342.19999999999999</ele>
        <time>2003-04-13T10:30:55Z</time>
      </trkpt>
      <trkpt lat="34.437586963176727" lon="-2.967977011576295">
        <ele>343.39999999999998</ele>
        <time>2003-04-13T10:30:59Z</time>
      </trkpt>
      <trkpt lat="34.437189996242523" lon="-2.967318026348949">
        <ele>346</ele>
        <time>2003-04-13T10:31:02Z</time>
      </trkpt>
      <trkpt lat="34.436890007928014" lon="-2.966972021386027">
        <ele>348.10000000000002</ele>
        <time>2003-04-13T10:31:03Z</time>
      </trkpt>
      <trkpt lat="34.436257006600499" lon="-2.966365003958345">
        <ele>352</ele>
        <time>2003-04-13T10:31:07Z</time>
      </trkpt>
      <trkpt lat="34.435389982536435" lon="-2.965735020115972">
        <ele>355</ele>
        <time>2003-04-13T10:31:12Z</time>
      </trkpt>
      <trkpt lat="34.434494962915778" lon="-2.965126996859908">
        <ele>358.60000000000002</ele>
        <time>2003-04-13T10:31:18Z</time>
      </trkpt>
      <trkpt lat="34.43361796438694" lon="-2.964522996917367">
        <ele>364.5</ele>
        <time>2003-04-13T10:31:22Z</time>
      </trkpt>
      <trkpt lat="34.432738032191992" lon="-2.963998038321734">
        <ele>370.5</ele>
        <time>2003-04-13T10:31:27Z</time>
      </trkpt>
      <trkpt lat="34.431975027546287" lon="-2.963744988664985">
        <ele>373.80000000000001</ele>
        <time>2003-04-13T10:31:31Z</time>
      </trkpt>
      <trkpt lat="34.430947992950678" lon="-2.96356201171875">
        <ele>375.30000000000001</ele>
        <time>2003-04-13T10:31:37Z</time>
      </trkpt>
      <trkpt lat="34.42987703718245" lon="-2.963380040600896">
        <ele>375.19999999999999</ele>
        <time>2003-04-13T10:31:42Z</time>
      </trkpt>
      <trkpt lat="34.428853020071983" lon="-2.963209971785545">
        <ele>375.60000000000002</ele>
        <time>2003-04-13T10:31:46Z</time>
      </trkpt>
      <trkpt lat="34.427800001576543" lon="-2.963109975680709">
        <ele>376.19999999999999</ele>
        <time>2003-04-13T10:31:52Z</time>
      </trkpt>
      <trkpt lat="34.426704989746213" lon="-2.963192034512758">
        <ele>376.10000000000002</ele>
        <time>2003-04-13T10:31:57Z</time>
      </trkpt>
      <trkpt lat="34.425799995660782" lon="-2.963320026174188">
        <ele>375.19999999999999</ele>
        <time>2003-04-13T10:32:01Z</time>
      </trkpt>
      <trkpt lat="34.424847979098558" lon="-2.963457992300391">
        <ele>373</ele>
        <time>2003-04-13T10:32:05Z</time>
      </trkpt>
      <trkpt lat="34.423860004171729" lon="-2.963599981740117">
        <ele>370.39999999999998</ele>
        <time>2003-04-13T10:32:09Z</time>
      </trkpt>
      <trkpt lat="34.422861970961094" lon="-2.963612973690033">
        <ele>367.19999999999999</ele>
        <time>2003-04-13T10:32:13Z</time>
      </trkpt>
      <trkpt lat="34.422097038477659" lon="-2.963426979258657">
        <ele>364.19999999999999</ele>
        <time>2003-04-13T10:32:16Z</time>
      </trkpt>
      <trkpt lat="34.421351971104741" lon="-2.963082985952497">
        <ele>362.5</ele>
        <time>2003-04-13T10:32:19Z</time>
      </trkpt>
      <trkpt lat="34.420386962592602" lon="-2.962540006265044">
        <ele>362.30000000000001</ele>
        <time>2003-04-13T10:32:23Z</time>
      </trkpt>
      <trkpt lat="34.419486997649074" lon="-2.962050000205636">
        <ele>362.80000000000001</ele>
        <time>2003-04-13T10:32:27Z</time>
      </trkpt>
      <trkpt lat="34.418645035475492" lon="-2.961523029953241">
        <ele>364.10000000000002</ele>
        <time>2003-04-13T10:32:31Z</time>
      </trkpt>
      <trkpt lat="34.41786702722311" lon="-2.960945013910532">
        <ele>365.19999999999999</ele>
        <time>2003-04-13T10:32:35Z</time>
      </trkpt>
      <trkpt lat="34.416958009824157" lon="-2.960179997608066">
        <ele>366.30000000000001</ele>
        <time>2003-04-13T10:32:40Z</time>
      </trkpt>
      <trkpt lat="34.416061984375119" lon="-2.959442976862192">
        <ele>367.30000000000001</ele>
        <time>2003-04-13T10:32:44Z</time>
      </trkpt>
      <trkpt lat="34.415169982239604" lon="-2.958697993308306">
        <ele>367.69999999999999</ele>
        <time>2003-04-13T10:32:50Z</time>
      </trkpt>
      <trkpt lat="34.414247972890735" lon="-2.957946974784136">
        <ele>367.5</ele>
        <time>2003-04-13T10:32:55Z</time>
      </trkpt>
      <trkpt lat="34.413339961320162" lon="-2.957199979573488">
        <ele>367.10000000000002</ele>
        <time>2003-04-13T10:32:59Z</time>
      </trkpt>
      <trkpt lat="34.412507973611355" lon="-2.956512998789549">
        <ele>367.5</ele>
        <time>2003-04-13T10:33:05Z</time>
      </trkpt>
      <trkpt lat="34.411627035588026" lon="-2.95578695833683">
        <ele>368.10000000000002</ele>
        <time>2003-04-13T10:33:10Z</time>
      </trkpt>
      <trkpt lat="34.410995040088892" lon="-2.9552670288831">
        <ele>368.39999999999998</ele>
        <time>2003-04-13T10:33:15Z</time>
      </trkpt>
      <trkpt lat="34.410243015736341" lon="-2.954642996191979">
        <ele>368.69999999999999</ele>
        <time>2003-04-13T10:33:22Z</time>
      </trkpt>
      <trkpt lat="34.40957497805357" lon="-2.954096999019384">
        <ele>369</ele>
        <time>2003-04-13T10:33:30Z</time>
      </trkpt>
      <trkpt lat="34.409008026123047" lon="-2.953629959374666">
        <ele>369.10000000000002</ele>
        <time>2003-04-13T10:33:37Z</time>
      </trkpt>
      <trkpt lat="34.408684987574816" lon="-2.95335796661675">
        <ele>369.60000000000002</ele>
        <time>2003-04-13T10:33:41Z</time>
      </trkpt>
      <trkpt lat="34.408584991469979" lon="-2.953278003260493">
        <ele>369.80000000000001</ele>
        <time>2003-04-13T10:33:44Z</time>
      </trkpt>
      <trkpt lat="34.408507961779833" lon="-2.953217988833785">
        <ele>369.80000000000001</ele>
        <time>2003-04-13T10:33:45Z</time>
      </trkpt>
      <trkpt lat="34.408407965674996" lon="-2.953152023255825">
        <ele>364.69999999999999</ele>
        <time>2003-04-13T10:34:34Z</time>
      </trkpt>
      <trkpt lat="34.408324984833598" lon="-2.953108018264175">
        <ele>365</ele>
        <time>2003-04-13T10:34:35Z</time>
      </trkpt>
      <trkpt lat="34.408215014263988" lon="-2.953092008829117">
        <ele>365.5</ele>
        <time>2003-04-13T10:34:39Z</time>
      </trkpt>
      <trkpt lat="34.408057015389204" lon="-2.953238021582365">
        <ele>367.60000000000002</ele>
        <time>2003-04-13T10:34:50Z</time>
      </trkpt>
      <trkpt lat="34.408002030104399" lon="-2.953365007415414">
        <ele>368.10000000000002</ele>
        <time>2003-04-13T10:34:51Z</time>
      </trkpt>
      <trkpt lat="34.407946961000562" lon="-2.953553013503552">
        <ele>368.60000000000002</ele>
        <time>2003-04-13T10:34:54Z</time>
      </trkpt>
      <trkpt lat="34.407912008464336" lon="-2.953674970194697">
        <ele>368.69999999999999</ele>
        <time>2003-04-13T10:34:55Z</time>
      </trkpt>
      <trkpt lat="34.407770019024611" lon="-2.954188026487827">
        <ele>370</ele>
        <time>2003-04-13T10:34:58Z</time>
      </trkpt>
      <trkpt lat="34.407630041241646" lon="-2.954675015062094">
        <ele>371.30000000000001</ele>
        <time>2003-04-13T10:35:02Z</time>
      </trkpt>
      <trkpt lat="34.407319994643331" lon="-2.955889971926808">
        <ele>374.89999999999998</ele>
        <time>2003-04-13T10:35:09Z</time>
      </trkpt>
      <trkpt lat="34.407270038500428" lon="-2.956443009898067">
        <ele>375.60000000000002</ele>
        <time>2003-04-13T10:35:11Z</time>
      </trkpt>
      <trkpt lat="34.407301973551512" lon="-2.957005016505718">
        <ele>376.5</ele>
        <time>2003-04-13T10:35:14Z</time>
      </trkpt>
      <trkpt lat="34.407406998798251" lon="-2.957597030326724">
        <ele>377.10000000000002</ele>
        <time>2003-04-13T10:35:18Z</time>
      </trkpt>
      <trkpt lat="34.407607996836305" lon="-2.958672009408474">
        <ele>377.89999999999998</ele>
        <time>2003-04-13T10:35:22Z</time>
      </trkpt>
      <trkpt lat="34.407852999866009" lon="-2.959947986528277">
        <ele>378.89999999999998</ele>
        <time>2003-04-13T10:35:28Z</time>
      </trkpt>
      <trkpt lat="34.408091967925429" lon="-2.96104702167213">
        <ele>380.10000000000002</ele>
        <time>2003-04-13T10:35:32Z</time>
      </trkpt>
      <trkpt lat="34.408362032845616" lon="-2.962292991578579">
        <ele>383.80000000000001</ele>
        <time>2003-04-13T10:35:37Z</time>
      </trkpt>
      <trkpt lat="34.408472003415227" lon="-2.963151969015598">
        <ele>387.30000000000001</ele>
        <time>2003-04-13T10:35:41Z</time>
      </trkpt>
      <trkpt lat="34.408462028950453" lon="-2.963366964831948">
        <ele>387.69999999999999</ele>
        <time>2003-04-13T10:35:41Z</time>
      </trkpt>
      <trkpt lat="34.408369995653629" lon="-2.963787987828255">
        <ele>389.39999999999998</ele>
        <time>2003-04-13T10:35:44Z</time>
      </trkpt>
      <trkpt lat="34.408217025920749" lon="-2.964195013046265">
        <ele>390.39999999999998</ele>
        <time>2003-04-13T10:35:45Z</time>
      </trkpt>
      <trkpt lat="34.408106971532106" lon="-2.964376984164119">
        <ele>390.89999999999998</ele>
        <time>2003-04-13T10:35:47Z</time>
      </trkpt>
      <trkpt lat="34.407840007916093" lon="-2.964697005227208">
        <ele>392.30000000000001</ele>
        <time>2003-04-13T10:35:49Z</time>
      </trkpt>
      <trkpt lat="34.40712695941329" lon="-2.965608034282923">
        <ele>389.10000000000002</ele>
        <time>2003-04-13T10:35:53Z</time>
      </trkpt>
      <trkpt lat="34.406488006934524" lon="-2.96641998924315">
        <ele>387.39999999999998</ele>
        <time>2003-04-13T10:35:57Z</time>
      </trkpt>
      <trkpt lat="34.405846958979964" lon="-2.967242002487183">
        <ele>387.89999999999998</ele>
        <time>2003-04-13T10:36:01Z</time>
      </trkpt>
      <trkpt lat="34.405438005924225" lon="-2.96783996745944">
        <ele>388.39999999999998</ele>
        <time>2003-04-13T10:36:04Z</time>
      </trkpt>
      <trkpt lat="34.40525502897799" lon="-2.968293009325862">
        <ele>389.5</ele>
        <time>2003-04-13T10:36:07Z</time>
      </trkpt>
      <trkpt lat="34.405101975426078" lon="-2.968930033966899">
        <ele>388.89999999999998</ele>
        <time>2003-04-13T10:36:09Z</time>
      </trkpt>
      <trkpt lat="34.405072974041104" lon="-2.969237985089421">
        <ele>387.80000000000001</ele>
        <time>2003-04-13T10:36:12Z</time>
      </trkpt>
      <trkpt lat="34.40506299957633" lon="-2.969351978972554">
        <ele>387.89999999999998</ele>
        <time>2003-04-13T10:36:12Z</time>
      </trkpt>
      <trkpt lat="34.405059982091188" lon="-2.969496985897422">
        <ele>387.80000000000001</ele>
        <time>2003-04-13T10:36:15Z</time>
      </trkpt>
      <trkpt lat="34.405056964606047" lon="-2.969627995043993">
        <ele>387.5</ele>
        <time>2003-04-13T10:36:18Z</time>
      </trkpt>
      <trkpt lat="34.405035004019737" lon="-2.96981499530375">
        <ele>391.5</ele>
        <time>2003-04-13T10:43:04Z</time>
      </trkpt>
      <trkpt lat="34.405004996806383" lon="-2.969926977530122">
        <ele>391.30000000000001</ele>
        <time>2003-04-13T10:43:07Z</time>
      </trkpt>
      <trkpt lat="34.404995022341609" lon="-2.970067039132118">
        <ele>390.69999999999999</ele>
        <time>2003-04-13T10:43:11Z</time>
      </trkpt>
      <trkpt lat="34.40495696850121" lon="-2.970499964430928">
        <ele>389.69999999999999</ele>
        <time>2003-04-13T10:43:20Z</time>
      </trkpt>
      <trkpt lat="34.404886979609728" lon="-2.970955017954111">
        <ele>389.80000000000001</ele>
        <time>2003-04-13T10:43:28Z</time>
      </trkpt>
      <trkpt lat="34.404812967404723" lon="-2.971577038988471">
        <ele>390.69999999999999</ele>
        <time>2003-04-13T10:43:35Z</time>
      </trkpt>
      <trkpt lat="34.404786983504891" lon="-2.971807038411498">
        <ele>390.69999999999999</ele>
        <time>2003-04-13T10:43:38Z</time>
      </trkpt>
      <trkpt lat="34.404722023755312" lon="-2.972422018647194">
        <ele>390</ele>
        <time>2003-04-13T10:43:43Z</time>
      </trkpt>
      <trkpt lat="34.40467500127852" lon="-2.97325199469924">
        <ele>389.39999999999998</ele>
        <time>2003-04-13T10:43:48Z</time>
      </trkpt>
      <trkpt lat="34.404739961028099" lon="-2.973903017118573">
        <ele>388.30000000000001</ele>
        <time>2003-04-13T10:43:53Z</time>
      </trkpt>
      <trkpt lat="34.40491002984345" lon="-2.974793007597327">
        <ele>386.39999999999998</ele>
        <time>2003-04-13T10:43:58Z</time>
      </trkpt>
      <trkpt lat="34.405232984572649" lon="-2.975907968357205">
        <ele>382.69999999999999</ele>
        <time>2003-04-13T10:44:03Z</time>
      </trkpt>
      <trkpt lat="34.405568009242415" lon="-2.977068023756146">
        <ele>379.30000000000001</ele>
        <time>2003-04-13T10:44:10Z</time>
      </trkpt>
      <trkpt lat="34.405891969799995" lon="-2.978207040578127">
        <ele>378.10000000000002</ele>
        <time>2003-04-13T10:44:15Z</time>
      </trkpt>
      <trkpt lat="34.40611501224339" lon="-2.979231979697943">
        <ele>379.30000000000001</ele>
        <time>2003-04-13T10:44:21Z</time>
      </trkpt>
      <trkpt lat="34.406151976436377" lon="-2.979883002117276">
        <ele>381.10000000000002</ele>
        <time>2003-04-13T10:44:24Z</time>
      </trkpt>
      <trkpt lat="34.406109983101487" lon="-2.98075295984745">
        <ele>383.19999999999999</ele>
        <time>2003-04-13T10:44:28Z</time>
      </trkpt>
      <trkpt lat="34.405952990055084" lon="-2.981617972254753">
        <ele>385.5</ele>
        <time>2003-04-13T10:44:32Z</time>
      </trkpt>
      <trkpt lat="34.405703041702509" lon="-2.982379971072078">
        <ele>386.19999999999999</ele>
        <time>2003-04-13T10:44:36Z</time>
      </trkpt>
      <trkpt lat="34.405347984284163" lon="-2.983125038444996">
        <ele>386.39999999999998</ele>
        <time>2003-04-13T10:44:40Z</time>
      </trkpt>
      <trkpt lat="34.404772985726595" lon="-2.984012011438608">
        <ele>386.80000000000001</ele>
        <time>2003-04-13T10:44:45Z</time>
      </trkpt>
      <trkpt lat="34.404127998277545" lon="-2.985011972486973">
        <ele>385.89999999999998</ele>
        <time>2003-04-13T10:44:51Z</time>
      </trkpt>
      <trkpt lat="34.4035379961133" lon="-2.985923001542687">
        <ele>385.5</ele>
        <time>2003-04-13T10:44:56Z</time>
      </trkpt>
      <trkpt lat="34.402922010049224" lon="-2.986892033368349">
        <ele>386.69999999999999</ele>
        <time>2003-04-13T10:45:00Z</time>
      </trkpt>
      <trkpt lat="34.402337959036231" lon="-2.987791998311877">
        <ele>391</ele>
        <time>2003-04-13T10:45:05Z</time>
      </trkpt>
      <trkpt lat="34.401737982407212" lon="-2.98872297629714">
        <ele>390.30000000000001</ele>
        <time>2003-04-13T10:45:11Z</time>
      </trkpt>
      <trkpt lat="34.401127025485039" lon="-2.989672981202602">
        <ele>392.39999999999998</ele>
        <time>2003-04-13T10:45:16Z</time>
      </trkpt>
      <trkpt lat="34.400502992793918" lon="-2.990642013028264">
        <ele>389.19999999999999</ele>
        <time>2003-04-13T10:45:20Z</time>
      </trkpt>
      <trkpt lat="34.399896981194615" lon="-2.991582965478301">
        <ele>393.10000000000002</ele>
        <time>2003-04-13T10:45:26Z</time>
      </trkpt>
      <trkpt lat="34.399330029264092" lon="-2.992468010634184">
        <ele>397.5</ele>
        <time>2003-04-13T10:45:31Z</time>
      </trkpt>
      <trkpt lat="34.398772967979312" lon="-2.993326988071203">
        <ele>398.30000000000001</ele>
        <time>2003-04-13T10:45:35Z</time>
      </trkpt>
      <trkpt lat="34.398193024098873" lon="-2.994223013520241">
        <ele>398.19999999999999</ele>
        <time>2003-04-13T10:45:41Z</time>
      </trkpt>
      <trkpt lat="34.397575026378036" lon="-2.995170000940561">
        <ele>397.30000000000001</ele>
        <time>2003-04-13T10:45:46Z</time>
      </trkpt>
      <trkpt lat="34.396989969536662" lon="-2.996093016117811">
        <ele>396.39999999999998</ele>
        <time>2003-04-13T10:45:50Z</time>
      </trkpt>
      <trkpt lat="34.396412037312984" lon="-2.996992981061339">
        <ele>397.30000000000001</ele>
        <time>2003-04-13T10:45:55Z</time>
      </trkpt>
      <trkpt lat="34.39578297547996" lon="-2.997957989573479">
        <ele>398.30000000000001</ele>
        <time>2003-04-13T10:46:02Z</time>
      </trkpt>
      <trkpt lat="34.395227003842592" lon="-2.998834988102317">
        <ele>398.60000000000002</ele>
        <time>2003-04-13T10:46:06Z</time>
      </trkpt>
      <trkpt lat="34.394601965323091" lon="-2.999811982735992">
        <ele>398.10000000000002</ele>
        <time>2003-04-13T10:46:12Z</time>
      </trkpt>
      <trkpt lat="34.39395303837955" lon="-3.000829964876175">
        <ele>397.30000000000001</ele>
        <time>2003-04-13T10:46:17Z</time>
      </trkpt>
      <trkpt lat="34.393282989040017" lon="-3.001875020563602">
        <ele>396.5</ele>
        <time>2003-04-13T10:46:21Z</time>
      </trkpt>
      <trkpt lat="34.39262299798429" lon="-3.002904988825321">
        <ele>398.89999999999998</ele>
        <time>2003-04-13T10:46:26Z</time>
      </trkpt>
      <trkpt lat="34.391980022192001" lon="-3.00391199067235">
        <ele>400</ele>
        <time>2003-04-13T10:46:32Z</time>
      </trkpt>
      <trkpt lat="34.391356995329261" lon="-3.004883034154773">
        <ele>400.69999999999999</ele>
        <time>2003-04-13T10:46:37Z</time>
      </trkpt>
      <trkpt lat="34.390783002600074" lon="-3.005792973563075">
        <ele>402.5</ele>
        <time>2003-04-13T10:46:41Z</time>
      </trkpt>
      <trkpt lat="34.390182020142674" lon="-3.00672797486186">
        <ele>402.89999999999998</ele>
        <time>2003-04-13T10:46:47Z</time>
      </trkpt>
      <trkpt lat="34.38957198522985" lon="-3.007676973938942">
        <ele>403.60000000000002</ele>
        <time>2003-04-13T10:46:52Z</time>
      </trkpt>
      <trkpt lat="34.389006961137056" lon="-3.008571993559599">
        <ele>403</ele>
        <time>2003-04-13T10:46:56Z</time>
      </trkpt>
      <trkpt lat="34.388346970081329" lon="-3.009598022326827">
        <ele>403.39999999999998</ele>
        <time>2003-04-13T10:47:03Z</time>
      </trkpt>
      <trkpt lat="34.387752022594213" lon="-3.010518020018935">
        <ele>402.19999999999999</ele>
        <time>2003-04-13T10:47:07Z</time>
      </trkpt>
      <trkpt lat="34.387122038751841" lon="-3.011510018259287">
        <ele>400.69999999999999</ele>
        <time>2003-04-13T10:47:12Z</time>
      </trkpt>
      <trkpt lat="34.386479984968901" lon="-3.012521965429187">
        <ele>401.80000000000001</ele>
        <time>2003-04-13T10:47:18Z</time>
      </trkpt>
      <trkpt lat="34.385867016389966" lon="-3.013492003083229">
        <ele>403.39999999999998</ele>
        <time>2003-04-13T10:47:23Z</time>
      </trkpt>
      <trkpt lat="34.385242983698845" lon="-3.014458017423749">
        <ele>401.5</ele>
        <time>2003-04-13T10:47:27Z</time>
      </trkpt>
      <trkpt lat="34.384577041491866" lon="-3.015480022877455">
        <ele>403.30000000000001</ele>
        <time>2003-04-13T10:47:33Z</time>
      </trkpt>
      <trkpt lat="34.383919984102249" lon="-3.016547961160541">
        <ele>408.19999999999999</ele>
        <time>2003-04-13T10:47:38Z</time>
      </trkpt>
      <trkpt lat="34.383274996653199" lon="-3.017544988542795">
        <ele>414.10000000000002</ele>
        <time>2003-04-13T10:47:42Z</time>
      </trkpt>
      <trkpt lat="34.382648030295968" lon="-3.018455011770129">
        <ele>419.60000000000002</ele>
        <time>2003-04-13T10:47:47Z</time>
      </trkpt>
      <trkpt lat="34.382362961769104" lon="-3.018755000084639">
        <ele>420.89999999999998</ele>
        <time>2003-04-13T10:47:50Z</time>
      </trkpt>
      <trkpt lat="34.381495015695691" lon="-3.019452039152384">
        <ele>416.89999999999998</ele>
        <time>2003-04-13T10:47:54Z</time>
      </trkpt>
      <trkpt lat="34.380651963874698" lon="-3.020122004672885">
        <ele>413.10000000000002</ele>
        <time>2003-04-13T10:48:00Z</time>
      </trkpt>
      <trkpt lat="34.379806984215975" lon="-3.020781995728612">
        <ele>410</ele>
        <time>2003-04-13T10:48:05Z</time>
      </trkpt>
      <trkpt lat="34.378947000950575" lon="-3.021450033411384">
        <ele>405.89999999999998</ele>
        <time>2003-04-13T10:48:09Z</time>
      </trkpt>
      <trkpt lat="34.378151977434754" lon="-3.022183030843735">
        <ele>407.80000000000001</ele>
        <time>2003-04-13T10:48:14Z</time>
      </trkpt>
      <trkpt lat="34.37803203240037" lon="-3.022376988083124">
        <ele>407.80000000000001</ele>
        <time>2003-04-13T10:48:16Z</time>
      </trkpt>
      <trkpt lat="34.37751998193562" lon="-3.023439981043339">
        <ele>406.89999999999998</ele>
        <time>2003-04-13T10:48:21Z</time>
      </trkpt>
      <trkpt lat="34.37702301889658" lon="-3.0244280397892">
        <ele>410.19999999999999</ele>
        <time>2003-04-13T10:48:25Z</time>
      </trkpt>
      <trkpt lat="34.376527983695269" lon="-3.025405034422875">
        <ele>412.39999999999998</ele>
        <time>2003-04-13T10:48:31Z</time>
      </trkpt>
      <trkpt lat="34.37605700455606" lon="-3.026374988257885">
        <ele>413.80000000000001</ele>
        <time>2003-04-13T10:48:36Z</time>
      </trkpt>
      <trkpt lat="34.375655008479953" lon="-3.027025004848838">
        <ele>414.39999999999998</ele>
        <time>2003-04-13T10:48:40Z</time>
      </trkpt>
      <trkpt lat="34.375522993505001" lon="-3.027152996510267">
        <ele>414.5</ele>
        <time>2003-04-13T10:48:40Z</time>
      </trkpt>
      <trkpt lat="34.375228034332395" lon="-3.027381990104914">
        <ele>413.60000000000002</ele>
        <time>2003-04-13T10:48:43Z</time>
      </trkpt>
      <trkpt lat="34.374393029138446" lon="-3.027903009206057">
        <ele>409.69999999999999</ele>
        <time>2003-04-13T10:48:48Z</time>
      </trkpt>
      <trkpt lat="34.373513013124466" lon="-3.028456969186664">
        <ele>410.89999999999998</ele>
        <time>2003-04-13T10:48:52Z</time>
      </trkpt>
      <trkpt lat="34.372847992926836" lon="-3.028934989124537">
        <ele>411.19999999999999</ele>
        <time>2003-04-13T10:48:56Z</time>
      </trkpt>
      <trkpt lat="34.372242987155914" lon="-3.029582994058728">
        <ele>410.19999999999999</ele>
        <time>2003-04-13T10:49:00Z</time>
      </trkpt>
      <trkpt lat="34.371858006343246" lon="-3.030152963474393">
        <ele>410.60000000000002</ele>
        <time>2003-04-13T10:49:03Z</time>
      </trkpt>
      <trkpt lat="34.371302034705877" lon="-3.031212016940117">
        <ele>410.89999999999998</ele>
        <time>2003-04-13T10:49:08Z</time>
      </trkpt>
      <trkpt lat="34.370759977027774" lon="-3.032227987423539">
        <ele>411.80000000000001</ele>
        <time>2003-04-13T10:49:14Z</time>
      </trkpt>
      <trkpt lat="34.370138039812446" lon="-3.033185033127666">
        <ele>413.80000000000001</ele>
        <time>2003-04-13T10:49:19Z</time>
      </trkpt>
      <trkpt lat="34.369403030723333" lon="-3.034009980037808">
        <ele>415.10000000000002</ele>
        <time>2003-04-13T10:49:23Z</time>
      </trkpt>
      <trkpt lat="34.368550004437566" lon="-3.034727973863483">
        <ele>416.5</ele>
        <time>2003-04-13T10:49:29Z</time>
      </trkpt>
      <trkpt lat="34.367658002302051" lon="-3.035416966304183">
        <ele>418.19999999999999</ele>
        <time>2003-04-13T10:49:34Z</time>
      </trkpt>
      <trkpt lat="34.366758037358522" lon="-3.036107970401645">
        <ele>420.30000000000001</ele>
        <time>2003-04-13T10:49:38Z</time>
      </trkpt>
      <trkpt lat="34.365860000252724" lon="-3.036824958398938">
        <ele>422.39999999999998</ele>
        <time>2003-04-13T10:49:44Z</time>
      </trkpt>
      <trkpt lat="34.36494997702539" lon="-3.03753700107336">
        <ele>424.60000000000002</ele>
        <time>2003-04-13T10:49:49Z</time>
      </trkpt>
      <trkpt lat="34.364192001521587" lon="-3.038124991580844">
        <ele>425.5</ele>
        <time>2003-04-13T10:49:53Z</time>
      </trkpt>
      <trkpt lat="34.363409969955683" lon="-3.038741983473301">
        <ele>427.5</ele>
        <time>2003-04-13T10:49:57Z</time>
      </trkpt>
      <trkpt lat="34.3624799977988" lon="-3.039467018097639">
        <ele>430.30000000000001</ele>
        <time>2003-04-13T10:50:01Z</time>
      </trkpt>
      <trkpt lat="34.361563017591834" lon="-3.040191968902946">
        <ele>431</ele>
        <time>2003-04-13T10:50:08Z</time>
      </trkpt>
      <trkpt lat="34.360676966607571" lon="-3.04084500297904">
        <ele>431.39999999999998</ele>
        <time>2003-04-13T10:50:13Z</time>
      </trkpt>
      <trkpt lat="34.360086964443326" lon="-3.041096962988377">
        <ele>431.89999999999998</ele>
        <time>2003-04-13T10:50:16Z</time>
      </trkpt>
      <trkpt lat="34.359668036922812" lon="-3.041167035698891">
        <ele>432.30000000000001</ele>
        <time>2003-04-13T10:50:17Z</time>
      </trkpt>
      <trkpt lat="34.35882699675858" lon="-3.041154965758324">
        <ele>431.5</ele>
        <time>2003-04-13T10:50:21Z</time>
      </trkpt>
      <trkpt lat="34.357857964932919" lon="-3.041137028485537">
        <ele>429.10000000000002</ele>
        <time>2003-04-13T10:50:27Z</time>
      </trkpt>
      <trkpt lat="34.356796983629465" lon="-3.04110299795866">
        <ele>425.89999999999998</ele>
        <time>2003-04-13T10:50:32Z</time>
      </trkpt>
      <trkpt lat="34.355889977887273" lon="-3.041114984080195">
        <ele>425</ele>
        <time>2003-04-13T10:50:36Z</time>
      </trkpt>
      <trkpt lat="34.35485296882689" lon="-3.041271977126598">
        <ele>424.5</ele>
        <time>2003-04-13T10:50:40Z</time>
      </trkpt>
      <trkpt lat="34.353823000565171" lon="-3.041452020406723">
        <ele>420.39999999999998</ele>
        <time>2003-04-13T10:50:46Z</time>
      </trkpt>
      <trkpt lat="34.352732012048364" lon="-3.041674979031086">
        <ele>421.89999999999998</ele>
        <time>2003-04-13T10:50:51Z</time>
      </trkpt>
      <trkpt lat="34.351857025176287" lon="-3.04196298122406">
        <ele>423.80000000000001</ele>
        <time>2003-04-13T10:50:55Z</time>
      </trkpt>
      <trkpt lat="34.351449999958277" lon="-3.042200021445751">
        <ele>425.10000000000002</ele>
        <time>2003-04-13T10:50:56Z</time>
      </trkpt>
      <trkpt lat="34.350887993350625" lon="-3.042641999199987">
        <ele>426.60000000000002</ele>
        <time>2003-04-13T10:50:59Z</time>
      </trkpt>
      <trkpt lat="34.34999699704349" lon="-3.043417995795608">
        <ele>426.19999999999999</ele>
        <time>2003-04-13T10:51:05Z</time>
      </trkpt>
      <trkpt lat="34.349112035706639" lon="-3.044144958257675">
        <ele>426.19999999999999</ele>
        <time>2003-04-13T10:51:10Z</time>
      </trkpt>
      <trkpt lat="34.348278036341071" lon="-3.044863035902381">
        <ele>425.69999999999999</ele>
        <time>2003-04-13T10:51:14Z</time>
      </trkpt>
      <trkpt lat="34.347453005611897" lon="-3.045680020004511">
        <ele>425</ele>
        <time>2003-04-13T10:51:19Z</time>
      </trkpt>
      <trkpt lat="34.346697963774204" lon="-3.046642011031508">
        <ele>424.5</ele>
        <time>2003-04-13T10:51:25Z</time>
      </trkpt>
      <trkpt lat="34.346079966053367" lon="-3.047450026497245">
        <ele>423.80000000000001</ele>
        <time>2003-04-13T10:51:29Z</time>
      </trkpt>
      <trkpt lat="34.345417963340878" lon="-3.048274973407388">
        <ele>425.89999999999998</ele>
        <time>2003-04-13T10:51:33Z</time>
      </trkpt>
      <trkpt lat="34.344577006995678" lon="-3.049120036885142">
        <ele>429.60000000000002</ele>
        <time>2003-04-13T10:51:37Z</time>
      </trkpt>
      <trkpt lat="34.343803022056818" lon="-3.049723030999303">
        <ele>429.80000000000001</ele>
        <time>2003-04-13T10:51:41Z</time>
      </trkpt>
      <trkpt lat="34.342857040464878" lon="-3.050432978197932">
        <ele>430.30000000000001</ele>
        <time>2003-04-13T10:51:46Z</time>
      </trkpt>
      <trkpt lat="34.341922961175442" lon="-3.051149966195226">
        <ele>431.19999999999999</ele>
        <time>2003-04-13T10:51:52Z</time>
      </trkpt>
      <trkpt lat="34.341157022863626" lon="-3.051729993894696">
        <ele>432.19999999999999</ele>
        <time>2003-04-13T10:51:56Z</time>
      </trkpt>
      <trkpt lat="34.340363005176187" lon="-3.052327958866954">
        <ele>432.89999999999998</ele>
        <time>2003-04-13T10:52:00Z</time>
      </trkpt>
      <trkpt lat="34.339605029672384" lon="-3.05291997268796">
        <ele>433.80000000000001</ele>
        <time>2003-04-13T10:52:04Z</time>
      </trkpt>
      <trkpt lat="34.33858796954155" lon="-3.053901996463537">
        <ele>435.10000000000002</ele>
        <time>2003-04-13T10:52:09Z</time>
      </trkpt>
      <trkpt lat="34.337850026786327" lon="-3.054821994155645">
        <ele>436</ele>
        <time>2003-04-13T10:52:15Z</time>
      </trkpt>
      <trkpt lat="34.337182994931936" lon="-3.055833019316196">
        <ele>436.69999999999999</ele>
        <time>2003-04-13T10:52:20Z</time>
      </trkpt>
      <trkpt lat="34.336517974734306" lon="-3.056859970092773">
        <ele>437.19999999999999</ele>
        <time>2003-04-13T10:52:24Z</time>
      </trkpt>
      <trkpt lat="34.335995027795434" lon="-3.057788014411926">
        <ele>437</ele>
        <time>2003-04-13T10:52:28Z</time>
      </trkpt>
      <trkpt lat="34.335575010627508" lon="-3.058846984058619">
        <ele>438.69999999999999</ele>
        <time>2003-04-13T10:52:32Z</time>
      </trkpt>
      <trkpt lat="34.335164967924356" lon="-3.059911988675594">
        <ele>440.30000000000001</ele>
        <time>2003-04-13T10:52:36Z</time>
      </trkpt>
      <trkpt lat="34.334764983505011" lon="-3.06091002188623">
        <ele>441.30000000000001</ele>
        <time>2003-04-13T10:52:40Z</time>
      </trkpt>
      <trkpt lat="34.334353012964129" lon="-3.061924986541271">
        <ele>442.5</ele>
        <time>2003-04-13T10:52:44Z</time>
      </trkpt>
      <trkpt lat="34.33403299190104" lon="-3.062959983944893">
        <ele>444.10000000000002</ele>
        <time>2003-04-13T10:52:48Z</time>
      </trkpt>
      <trkpt lat="34.333727974444628" lon="-3.063994981348515">
        <ele>444.39999999999998</ele>
        <time>2003-04-13T10:52:53Z</time>
      </trkpt>
      <trkpt lat="34.333465034142137" lon="-3.064465038478375">
        <ele>445.10000000000002</ele>
        <time>2003-04-13T10:52:55Z</time>
      </trkpt>
      <trkpt lat="34.332845024764538" lon="-3.065365003421903">
        <ele>446.10000000000002</ele>
        <time>2003-04-13T10:52:58Z</time>
      </trkpt>
      <trkpt lat="34.332219986245036" lon="-3.066290030255914">
        <ele>448</ele>
        <time>2003-04-13T10:53:02Z</time>
      </trkpt>
      <trkpt lat="34.331607017666101" lon="-3.067195024341345">
        <ele>451.30000000000001</ele>
        <time>2003-04-13T10:53:06Z</time>
      </trkpt>
      <trkpt lat="34.330966975539923" lon="-3.068025000393391">
        <ele>455.39999999999998</ele>
        <time>2003-04-13T10:53:10Z</time>
      </trkpt>
      <trkpt lat="34.330585012212396" lon="-3.068330017849803">
        <ele>458.10000000000002</ele>
        <time>2003-04-13T10:53:13Z</time>
      </trkpt>
      <trkpt lat="34.330161977559328" lon="-3.068545013666153">
        <ele>461.10000000000002</ele>
        <time>2003-04-13T10:53:14Z</time>
      </trkpt>
      <trkpt lat="34.329497963190079" lon="-3.068739976733923">
        <ele>465.19999999999999</ele>
        <time>2003-04-13T10:53:18Z</time>
      </trkpt>
      <trkpt lat="34.328587017953396" lon="-3.068938041105866">
        <ele>468.69999999999999</ele>
        <time>2003-04-13T10:53:22Z</time>
      </trkpt>
      <trkpt lat="34.327640030533075" lon="-3.069172985851765">
        <ele>469.69999999999999</ele>
        <time>2003-04-13T10:53:25Z</time>
      </trkpt>
      <trkpt lat="34.327197968959808" lon="-3.069347999989986">
        <ele>469.69999999999999</ele>
        <time>2003-04-13T10:53:28Z</time>
      </trkpt>
      <trkpt lat="34.326809970661998" lon="-3.069622004404664">
        <ele>470.30000000000001</ele>
        <time>2003-04-13T10:53:29Z</time>
      </trkpt>
      <trkpt lat="34.326448040083051" lon="-3.069973038509488">
        <ele>470.39999999999998</ele>
        <time>2003-04-13T10:53:32Z</time>
      </trkpt>
      <trkpt lat="34.326142016798258" lon="-3.070418033748865">
        <ele>469.5</ele>
        <time>2003-04-13T10:53:33Z</time>
      </trkpt>
      <trkpt lat="34.325601970776916" lon="-3.071420006453991">
        <ele>468.80000000000001</ele>
        <time>2003-04-13T10:53:37Z</time>
      </trkpt>
      <trkpt lat="34.325033007189631" lon="-3.072460032999516">
        <ele>467.89999999999998</ele>
        <time>2003-04-13T10:53:41Z</time>
      </trkpt>
      <trkpt lat="34.324457002803683" lon="-3.073526965454221">
        <ele>468.30000000000001</ele>
        <time>2003-04-13T10:53:45Z</time>
      </trkpt>
      <trkpt lat="34.323868006467819" lon="-3.074579983949661">
        <ele>470</ele>
        <time>2003-04-13T10:53:49Z</time>
      </trkpt>
      <trkpt lat="34.323293007910252" lon="-3.07565001770854">
        <ele>471.89999999999998</ele>
        <time>2003-04-13T10:53:53Z</time>
      </trkpt>
      <trkpt lat="34.32270803488791" lon="-3.076728014275432">
        <ele>473.5</ele>
        <time>2003-04-13T10:53:57Z</time>
      </trkpt>
      <trkpt lat="34.322122978046536" lon="-3.077805005013943">
        <ele>474.89999999999998</ele>
        <time>2003-04-13T10:54:01Z</time>
      </trkpt>
      <trkpt lat="34.321536999195814" lon="-3.078887024894357">
        <ele>476.69999999999999</ele>
        <time>2003-04-13T10:54:05Z</time>
      </trkpt>
      <trkpt lat="34.320937022566795" lon="-3.079995028674603">
        <ele>475.30000000000001</ele>
        <time>2003-04-13T10:54:09Z</time>
      </trkpt>
      <trkpt lat="34.320317013189197" lon="-3.081127004697919">
        <ele>474.39999999999998</ele>
        <time>2003-04-13T10:54:14Z</time>
      </trkpt>
      <trkpt lat="34.319698009639978" lon="-3.082238025963306">
        <ele>475.30000000000001</ele>
        <time>2003-04-13T10:54:18Z</time>
      </trkpt>
      <trkpt lat="34.319108007475734" lon="-3.083348041400313">
        <ele>475.80000000000001</ele>
        <time>2003-04-13T10:54:22Z</time>
      </trkpt>
      <trkpt lat="34.318497972562909" lon="-3.084463002160192">
        <ele>476.30000000000001</ele>
        <time>2003-04-13T10:54:26Z</time>
      </trkpt>
      <trkpt lat="34.31789799593389" lon="-3.085562037304044">
        <ele>478.89999999999998</ele>
        <time>2003-04-13T10:54:30Z</time>
      </trkpt>
      <trkpt lat="34.317300030961633" lon="-3.086667023599148">
        <ele>479.19999999999999</ele>
        <time>2003-04-13T10:54:34Z</time>
      </trkpt>
      <trkpt lat="34.316695025190711" lon="-3.087785001844168">
        <ele>478.80000000000001</ele>
        <time>2003-04-13T10:54:38Z</time>
      </trkpt>
      <trkpt lat="34.316082978621125" lon="-3.088913038372994">
        <ele>478.80000000000001</ele>
        <time>2003-04-13T10:54:42Z</time>
      </trkpt>
      <trkpt lat="34.315455006435513" lon="-3.090027999132872">
        <ele>478.30000000000001</ele>
        <time>2003-04-13T10:54:46Z</time>
      </trkpt>
      <trkpt lat="34.314771965146065" lon="-3.091123010963202">
        <ele>477.60000000000002</ele>
        <time>2003-04-13T10:54:50Z</time>
      </trkpt>
      <trkpt lat="34.314075009897351" lon="-3.092221962288022">
        <ele>477.5</ele>
        <time>2003-04-13T10:54:54Z</time>
      </trkpt>
      <trkpt lat="34.313373025506735" lon="-3.093317979946733">
        <ele>477.5</ele>
        <time>2003-04-13T10:54:58Z</time>
      </trkpt>
      <trkpt lat="34.312667017802596" lon="-3.094421960413456">
        <ele>477.19999999999999</ele>
        <time>2003-04-13T10:55:02Z</time>
      </trkpt>
      <trkpt lat="34.311969978734851" lon="-3.095543039962649">
        <ele>477.10000000000002</ele>
        <time>2003-04-13T10:55:06Z</time>
      </trkpt>
      <trkpt lat="34.311264976859093" lon="-3.096654983237386">
        <ele>476.30000000000001</ele>
        <time>2003-04-13T10:55:10Z</time>
      </trkpt>
      <trkpt lat="34.31055000051856" lon="-3.097783019766212">
        <ele>472.80000000000001</ele>
        <time>2003-04-13T10:55:13Z</time>
      </trkpt>
      <trkpt lat="34.309856984764338" lon="-3.098893035203219">
        <ele>468.80000000000001</ele>
        <time>2003-04-13T10:55:17Z</time>
      </trkpt>
      <trkpt lat="34.309122981503606" lon="-3.100019982084632">
        <ele>463.5</ele>
        <time>2003-04-13T10:55:21Z</time>
      </trkpt>
      <trkpt lat="34.308399958536029" lon="-3.101172996684909">
        <ele>463.39999999999998</ele>
        <time>2003-04-13T10:55:25Z</time>
      </trkpt>
      <trkpt lat="34.307671990245581" lon="-3.102325005456805">
        <ele>465</ele>
        <time>2003-04-13T10:55:29Z</time>
      </trkpt>
      <trkpt lat="34.307119958102703" lon="-3.103199992328882">
        <ele>464.5</ele>
        <time>2003-04-13T10:55:33Z</time>
      </trkpt>
      <trkpt lat="34.306567003950477" lon="-3.104070033878088">
        <ele>465.30000000000001</ele>
        <time>2003-04-13T10:55:36Z</time>
      </trkpt>
      <trkpt lat="34.305914975702763" lon="-3.105111988261342">
        <ele>469.80000000000001</ele>
        <time>2003-04-13T10:55:40Z</time>
      </trkpt>
      <trkpt lat="34.305279962718487" lon="-3.106110021471977">
        <ele>472.10000000000002</ele>
        <time>2003-04-13T10:55:44Z</time>
      </trkpt>
      <trkpt lat="34.304637992754579" lon="-3.107121968641877">
        <ele>471.5</ele>
        <time>2003-04-13T10:55:48Z</time>
      </trkpt>
      <trkpt lat="34.303999962285161" lon="-3.108138022944331">
        <ele>470</ele>
        <time>2003-04-13T10:55:52Z</time>
      </trkpt>
      <trkpt lat="34.303403003141284" lon="-3.109072018414736">
        <ele>470</ele>
        <time>2003-04-13T10:55:56Z</time>
      </trkpt>
      <trkpt lat="34.302790034562349" lon="-3.110018000006676">
        <ele>469.5</ele>
        <time>2003-04-13T10:56:00Z</time>
      </trkpt>
      <trkpt lat="34.302167007699609" lon="-3.111002035439014">
        <ele>468.69999999999999</ele>
        <time>2003-04-13T10:56:04Z</time>
      </trkpt>
      <trkpt lat="34.301612041890621" lon="-3.112038038671017">
        <ele>467.89999999999998</ele>
        <time>2003-04-13T10:56:07Z</time>
      </trkpt>
      <trkpt lat="34.301229994744062" lon="-3.113217037171125">
        <ele>467</ele>
        <time>2003-04-13T10:56:11Z</time>
      </trkpt>
      <trkpt lat="34.300963031128049" lon="-3.114446997642517">
        <ele>465.80000000000001</ele>
        <time>2003-04-13T10:56:15Z</time>
      </trkpt>
      <trkpt lat="34.300903016701341" lon="-3.115042028948665">
        <ele>465.80000000000001</ele>
        <time>2003-04-13T10:56:18Z</time>
      </trkpt>
      <trkpt lat="34.300884995609522" lon="-3.116239970549941">
        <ele>464.30000000000001</ele>
        <time>2003-04-13T10:56:22Z</time>
      </trkpt>
      <trkpt lat="34.300857000052929" lon="-3.117391979321837">
        <ele>463.10000000000002</ele>
        <time>2003-04-13T10:56:26Z</time>
      </trkpt>
      <trkpt lat="34.300820035859942" lon="-3.11853501945734">
        <ele>460.89999999999998</ele>
        <time>2003-04-13T10:56:30Z</time>
      </trkpt>
      <trkpt lat="34.300787011161447" lon="-3.119730027392507">
        <ele>458.10000000000002</ele>
        <time>2003-04-13T10:56:34Z</time>
      </trkpt>
      <trkpt lat="34.300757003948092" lon="-3.120959987863898">
        <ele>454.69999999999999</ele>
        <time>2003-04-13T10:56:38Z</time>
      </trkpt>
      <trkpt lat="34.300718028098345" lon="-3.122211992740631">
        <ele>451.69999999999999</ele>
        <time>2003-04-13T10:56:42Z</time>
      </trkpt>
      <trkpt lat="34.300681985914707" lon="-3.12347698956728">
        <ele>449.60000000000002</ele>
        <time>2003-04-13T10:56:46Z</time>
      </trkpt>
      <trkpt lat="34.300651978701353" lon="-3.12476797029376">
        <ele>447.39999999999998</ele>
        <time>2003-04-13T10:56:50Z</time>
      </trkpt>
      <trkpt lat="34.300613002851605" lon="-3.126079989597201">
        <ele>447.39999999999998</ele>
        <time>2003-04-13T10:56:54Z</time>
      </trkpt>
      <trkpt lat="34.300572015345097" lon="-3.12740701250732">
        <ele>446.5</ele>
        <time>2003-04-13T10:56:58Z</time>
      </trkpt>
      <trkpt lat="34.30053798481822" lon="-3.128739986568689">
        <ele>444.39999999999998</ele>
        <time>2003-04-13T10:57:01Z</time>
      </trkpt>
      <trkpt lat="34.300500014796853" lon="-3.13002803362906">
        <ele>442.5</ele>
        <time>2003-04-13T10:57:05Z</time>
      </trkpt>
      <trkpt lat="34.300427008420229" lon="-3.131290012970567">
        <ele>439.80000000000001</ele>
        <time>2003-04-13T10:57:09Z</time>
      </trkpt>
      <trkpt lat="34.300285018980503" lon="-3.132555009797216">
        <ele>436.19999999999999</ele>
        <time>2003-04-13T10:57:13Z</time>
      </trkpt>
      <trkpt lat="34.300145041197538" lon="-3.13381003215909">
        <ele>433.89999999999998</ele>
        <time>2003-04-13T10:57:17Z</time>
      </trkpt>
      <trkpt lat="34.300013026222587" lon="-3.135075028985739">
        <ele>429.89999999999998</ele>
        <time>2003-04-13T10:57:21Z</time>
      </trkpt>
      <trkpt lat="34.299877993762493" lon="-3.136342959478498">
        <ele>426.69999999999999</ele>
        <time>2003-04-13T10:57:25Z</time>
      </trkpt>
      <trkpt lat="34.299765005707741" lon="-3.137622959911823">
        <ele>425.89999999999998</ele>
        <time>2003-04-13T10:57:29Z</time>
      </trkpt>
      <trkpt lat="34.299780009314418" lon="-3.138591991737485">
        <ele>425.60000000000002</ele>
        <time>2003-04-13T10:57:32Z</time>
      </trkpt>
      <trkpt lat="34.299825020134449" lon="-3.139850031584501">
        <ele>424.5</ele>
        <time>2003-04-13T10:57:36Z</time>
      </trkpt>
      <trkpt lat="34.299842035397887" lon="-3.141040010377765">
        <ele>423.5</ele>
        <time>2003-04-13T10:57:40Z</time>
      </trkpt>
      <trkpt lat="34.299770034849644" lon="-3.141792034730315">
        <ele>423.39999999999998</ele>
        <time>2003-04-13T10:57:44Z</time>
      </trkpt>
      <trkpt lat="34.299552021548152" lon="-3.142483038827777">
        <ele>423.19999999999999</ele>
        <time>2003-04-13T10:57:47Z</time>
      </trkpt>
      <trkpt lat="34.299323027953506" lon="-3.142913030460477">
        <ele>422.89999999999998</ele>
        <time>2003-04-13T10:57:48Z</time>
      </trkpt>
      <trkpt lat="34.298647027462721" lon="-3.143832022324204">
        <ele>420.69999999999999</ele>
        <time>2003-04-13T10:57:54Z</time>
      </trkpt>
      <trkpt lat="34.297997010871768" lon="-3.144740033894777">
        <ele>421.30000000000001</ele>
        <time>2003-04-13T10:57:59Z</time>
      </trkpt>
      <trkpt lat="34.297402985394001" lon="-3.145425003021956">
        <ele>424</ele>
        <time>2003-04-13T10:58:03Z</time>
      </trkpt>
      <trkpt lat="34.296856988221407" lon="-3.145848037675023">
        <ele>424.89999999999998</ele>
        <time>2003-04-13T10:58:06Z</time>
      </trkpt>
      <trkpt lat="34.296227004379034" lon="-3.146171998232603">
        <ele>425</ele>
        <time>2003-04-13T10:58:08Z</time>
      </trkpt>
      <trkpt lat="34.295761976391077" lon="-3.146311976015568">
        <ele>424.5</ele>
        <time>2003-04-13T10:58:11Z</time>
      </trkpt>
      <trkpt lat="34.294807026162744" lon="-3.146477015689015">
        <ele>422.30000000000001</ele>
        <time>2003-04-13T10:58:15Z</time>
      </trkpt>
      <trkpt lat="34.293845035135746" lon="-3.14663995988667">
        <ele>422.60000000000002</ele>
        <time>2003-04-13T10:58:19Z</time>
      </trkpt>
      <trkpt lat="34.292882038280368" lon="-3.146897032856941">
        <ele>423.89999999999998</ele>
        <time>2003-04-13T10:58:22Z</time>
      </trkpt>
      <trkpt lat="34.292237972840667" lon="-3.147227028384805">
        <ele>425.60000000000002</ele>
        <time>2003-04-13T10:58:26Z</time>
      </trkpt>
      <trkpt lat="34.291668003425002" lon="-3.147658025845885">
        <ele>427.69999999999999</ele>
        <time>2003-04-13T10:58:29Z</time>
      </trkpt>
      <trkpt lat="34.291182020679116" lon="-3.148192958906293">
        <ele>428.80000000000001</ele>
        <time>2003-04-13T10:58:31Z</time>
      </trkpt>
      <trkpt lat="34.290501996874809" lon="-3.149225022643805">
        <ele>430.89999999999998</ele>
        <time>2003-04-13T10:58:37Z</time>
      </trkpt>
      <trkpt lat="34.290199996903539" lon="-3.14990202896297">
        <ele>430.89999999999998</ele>
        <time>2003-04-13T10:58:39Z</time>
      </trkpt>
      <trkpt lat="34.289997993037105" lon="-3.150642989203334">
        <ele>429.5</ele>
        <time>2003-04-13T10:58:42Z</time>
      </trkpt>
      <trkpt lat="34.289752990007401" lon="-3.151968000456691">
        <ele>428</ele>
        <time>2003-04-13T10:58:48Z</time>
      </trkpt>
      <trkpt lat="34.289532965049148" lon="-3.153074998408556">
        <ele>427.69999999999999</ele>
        <time>2003-04-13T10:58:52Z</time>
      </trkpt>
      <trkpt lat="34.289313023909926" lon="-3.154209991917014">
        <ele>427.39999999999998</ele>
        <time>2003-04-13T10:58:56Z</time>
      </trkpt>
      <trkpt lat="34.28908696398139" lon="-3.155378010123968">
        <ele>427</ele>
        <time>2003-04-13T10:59:00Z</time>
      </trkpt>
      <trkpt lat="34.288859982043505" lon="-3.156579975038767">
        <ele>427.30000000000001</ele>
        <time>2003-04-13T10:59:04Z</time>
      </trkpt>
      <trkpt lat="34.288622019812465" lon="-3.157791998237371">
        <ele>427.30000000000001</ele>
        <time>2003-04-13T10:59:08Z</time>
      </trkpt>
      <trkpt lat="34.288381962105632" lon="-3.159020030871034">
        <ele>427.60000000000002</ele>
        <time>2003-04-13T10:59:12Z</time>
      </trkpt>
      <trkpt lat="34.288137964904308" lon="-3.160255020484328">
        <ele>427.80000000000001</ele>
        <time>2003-04-13T10:59:16Z</time>
      </trkpt>
      <trkpt lat="34.287892039865255" lon="-3.161503002047539">
        <ele>427.80000000000001</ele>
        <time>2003-04-13T10:59:20Z</time>
      </trkpt>
      <trkpt lat="34.287660028785467" lon="-3.162736985832453">
        <ele>428.10000000000002</ele>
        <time>2003-04-13T10:59:24Z</time>
      </trkpt>
      <trkpt lat="34.287421982735395" lon="-3.16395303234458">
        <ele>427.80000000000001</ele>
        <time>2003-04-13T10:59:28Z</time>
      </trkpt>
      <trkpt lat="34.287189971655607" lon="-3.165151979774237">
        <ele>427.89999999999998</ele>
        <time>2003-04-13T10:59:32Z</time>
      </trkpt>
      <trkpt lat="34.286961983889341" lon="-3.166356962174177">
        <ele>427.5</ele>
        <time>2003-04-13T10:59:36Z</time>
      </trkpt>
      <trkpt lat="34.286725027486682" lon="-3.167558005079627">
        <ele>427.39999999999998</ele>
        <time>2003-04-13T10:59:40Z</time>
      </trkpt>
      <trkpt lat="34.286489998921752" lon="-3.168768016621471">
        <ele>426.39999999999998</ele>
        <time>2003-04-13T10:59:43Z</time>
      </trkpt>
      <trkpt lat="34.286263016983867" lon="-3.169908039271832">
        <ele>425.69999999999999</ele>
        <time>2003-04-13T10:59:48Z</time>
      </trkpt>
      <trkpt lat="34.286045003682375" lon="-3.171025011688471">
        <ele>425.5</ele>
        <time>2003-04-13T10:59:51Z</time>
      </trkpt>
      <trkpt lat="34.285805029794574" lon="-3.172160005196929">
        <ele>425.60000000000002</ele>
        <time>2003-04-13T10:59:55Z</time>
      </trkpt>
      <trkpt lat="34.2855170276016" lon="-3.173267003148794">
        <ele>425.89999999999998</ele>
        <time>2003-04-13T10:59:59Z</time>
      </trkpt>
      <trkpt lat="34.285143027082086" lon="-3.17437500692904">
        <ele>426</ele>
        <time>2003-04-13T11:00:03Z</time>
      </trkpt>
      <trkpt lat="34.284691996872425" lon="-3.175485022366047">
        <ele>425.60000000000002</ele>
        <time>2003-04-13T11:00:07Z</time>
      </trkpt>
      <trkpt lat="34.284195033833385" lon="-3.176512978971005">
        <ele>425.19999999999999</ele>
        <time>2003-04-13T11:00:11Z</time>
      </trkpt>
      <trkpt lat="34.283684995025396" lon="-3.177501959726214">
        <ele>424.10000000000002</ele>
        <time>2003-04-13T11:00:15Z</time>
      </trkpt>
      <trkpt lat="34.283164981752634" lon="-3.178524971008301">
        <ele>423.5</ele>
        <time>2003-04-13T11:00:19Z</time>
      </trkpt>
      <trkpt lat="34.282667012885213" lon="-3.17948997952044">
        <ele>420.80000000000001</ele>
        <time>2003-04-13T11:00:23Z</time>
      </trkpt>
      <trkpt lat="34.282099977135658" lon="-3.180617010220885">
        <ele>419.69999999999999</ele>
        <time>2003-04-13T11:00:29Z</time>
      </trkpt>
      <trkpt lat="34.281518021598458" lon="-3.181742029264569">
        <ele>418.69999999999999</ele>
        <time>2003-04-13T11:00:34Z</time>
      </trkpt>
      <trkpt lat="34.281036984175444" lon="-3.182684993371368">
        <ele>417.60000000000002</ele>
        <time>2003-04-13T11:00:37Z</time>
      </trkpt>
      <trkpt lat="34.280543038621545" lon="-3.183642961084843">
        <ele>417.39999999999998</ele>
        <time>2003-04-13T11:00:41Z</time>
      </trkpt>
      <trkpt lat="34.280071975663304" lon="-3.184579974040389">
        <ele>417.19999999999999</ele>
        <time>2003-04-13T11:00:45Z</time>
      </trkpt>
      <trkpt lat="34.279594961553812" lon="-3.185507012531161">
        <ele>416.80000000000001</ele>
        <time>2003-04-13T11:00:49Z</time>
      </trkpt>
      <trkpt lat="34.279033038765192" lon="-3.186609987169504">
        <ele>415.80000000000001</ele>
        <time>2003-04-13T11:00:54Z</time>
      </trkpt>
      <trkpt lat="34.278497016057372" lon="-3.187663005664945">
        <ele>415.30000000000001</ele>
        <time>2003-04-13T11:01:00Z</time>
      </trkpt>
      <trkpt lat="34.277944983914495" lon="-3.188736978918314">
        <ele>414.89999999999998</ele>
        <time>2003-04-13T11:01:04Z</time>
      </trkpt>
      <trkpt lat="34.277379959821701" lon="-3.189846994355321">
        <ele>414</ele>
        <time>2003-04-13T11:01:09Z</time>
      </trkpt>
      <trkpt lat="34.276812002062798" lon="-3.190958015620709">
        <ele>413.5</ele>
        <time>2003-04-13T11:01:15Z</time>
      </trkpt>
      <trkpt lat="34.276255024597049" lon="-3.192084962502122">
        <ele>412.69999999999999</ele>
        <time>2003-04-13T11:01:20Z</time>
      </trkpt>
      <trkpt lat="34.275865014642477" lon="-3.19306799210608">
        <ele>412</ele>
        <time>2003-04-13T11:01:24Z</time>
      </trkpt>
      <trkpt lat="34.275532001629472" lon="-3.194110030308366">
        <ele>411.60000000000002</ele>
        <time>2003-04-13T11:01:28Z</time>
      </trkpt>
      <trkpt lat="34.275196976959705" lon="-3.195158019661903">
        <ele>411.69999999999999</ele>
        <time>2003-04-13T11:01:31Z</time>
      </trkpt>
      <trkpt lat="34.274860024452209" lon="-3.196187987923622">
        <ele>411.89999999999998</ele>
        <time>2003-04-13T11:01:35Z</time>
      </trkpt>
      <trkpt lat="34.274527011439204" lon="-3.197232959792018">
        <ele>411.10000000000002</ele>
        <time>2003-04-13T11:01:39Z</time>
      </trkpt>
      <trkpt lat="34.274191986769438" lon="-3.198277009651065">
        <ele>410.10000000000002</ele>
        <time>2003-04-13T11:01:44Z</time>
      </trkpt>
      <trkpt lat="34.2738520167768" lon="-3.199306977912784">
        <ele>409.60000000000002</ele>
        <time>2003-04-13T11:01:47Z</time>
      </trkpt>
      <trkpt lat="34.273522021248937" lon="-3.200356978923082">
        <ele>409.69999999999999</ele>
        <time>2003-04-13T11:01:53Z</time>
      </trkpt>
      <trkpt lat="34.273171992972493" lon="-3.201421983540058">
        <ele>409.60000000000002</ele>
        <time>2003-04-13T11:01:57Z</time>
      </trkpt>
      <trkpt lat="34.272830011323094" lon="-3.202471984550357">
        <ele>409.5</ele>
        <time>2003-04-13T11:01:59Z</time>
      </trkpt>
      <trkpt lat="34.27243497222662" lon="-3.20372499525547">
        <ele>410</ele>
        <time>2003-04-13T11:02:05Z</time>
      </trkpt>
      <trkpt lat="34.272043034434319" lon="-3.20494799874723">
        <ele>410.19999999999999</ele>
        <time>2003-04-13T11:02:10Z</time>
      </trkpt>
      <trkpt lat="34.271708009764552" lon="-3.205966986715794">
        <ele>410.30000000000001</ele>
        <time>2003-04-13T11:02:14Z</time>
      </trkpt>
      <trkpt lat="34.271374996751547" lon="-3.206995027139783">
        <ele>410.39999999999998</ele>
        <time>2003-04-13T11:02:18Z</time>
      </trkpt>
      <trkpt lat="34.271042989566922" lon="-3.208036981523037">
        <ele>410.10000000000002</ele>
        <time>2003-04-13T11:02:22Z</time>
      </trkpt>
      <trkpt lat="34.270697990432382" lon="-3.209102991968393">
        <ele>410.10000000000002</ele>
        <time>2003-04-13T11:02:26Z</time>
      </trkpt>
      <trkpt lat="34.270347962155938" lon="-3.210207978263497">
        <ele>409.89999999999998</ele>
        <time>2003-04-13T11:02:30Z</time>
      </trkpt>
      <trkpt lat="34.270002041012049" lon="-3.211267031729221">
        <ele>409.69999999999999</ele>
        <time>2003-04-13T11:02:34Z</time>
      </trkpt>
      <trkpt lat="34.269604990258813" lon="-3.212506966665387">
        <ele>408.80000000000001</ele>
        <time>2003-04-13T11:02:40Z</time>
      </trkpt>
      <trkpt lat="34.26923300139606" lon="-3.213653024286032">
        <ele>408.80000000000001</ele>
        <time>2003-04-13T11:02:45Z</time>
      </trkpt>
      <trkpt lat="34.268902000039816" lon="-3.214706964790821">
        <ele>408.19999999999999</ele>
        <time>2003-04-13T11:02:49Z</time>
      </trkpt>
      <trkpt lat="34.268564963713288" lon="-3.215731987729669">
        <ele>407.80000000000001</ele>
        <time>2003-04-13T11:02:55Z</time>
      </trkpt>
      <trkpt lat="34.268213007599115" lon="-3.216815013438463">
        <ele>407.80000000000001</ele>
        <time>2003-04-13T11:03:00Z</time>
      </trkpt>
      <trkpt lat="34.267838001251221" lon="-3.217962998896837">
        <ele>407.80000000000001</ele>
        <time>2003-04-13T11:03:04Z</time>
      </trkpt>
      <trkpt lat="34.267447991296649" lon="-3.219211986288428">
        <ele>406.69999999999999</ele>
        <time>2003-04-13T11:03:09Z</time>
      </trkpt>
      <trkpt lat="34.26708497107029" lon="-3.220285037532449">
        <ele>406.30000000000001</ele>
        <time>2003-04-13T11:03:14Z</time>
      </trkpt>
      <trkpt lat="34.266709964722395" lon="-3.221418019384146">
        <ele>405.30000000000001</ele>
        <time>2003-04-13T11:03:18Z</time>
      </trkpt>
      <trkpt lat="34.26635499112308" lon="-3.222587965428829">
        <ele>405.30000000000001</ele>
        <time>2003-04-13T11:03:22Z</time>
      </trkpt>
      <trkpt lat="34.265991970896721" lon="-3.223714996129274">
        <ele>405.19999999999999</ele>
        <time>2003-04-13T11:03:26Z</time>
      </trkpt>
      <trkpt lat="34.265652000904083" lon="-3.224770026281476">
        <ele>404.30000000000001</ele>
        <time>2003-04-13T11:03:30Z</time>
      </trkpt>
      <trkpt lat="34.2653230112046" lon="-3.225797982886434">
        <ele>404.5</ele>
        <time>2003-04-13T11:03:34Z</time>
      </trkpt>
      <trkpt lat="34.264923026785254" lon="-3.227044958621264">
        <ele>404.30000000000001</ele>
        <time>2003-04-13T11:03:39Z</time>
      </trkpt>
      <trkpt lat="34.264524970203638" lon="-3.228272991254926">
        <ele>404.10000000000002</ele>
        <time>2003-04-13T11:03:43Z</time>
      </trkpt>
      <trkpt lat="34.264120040461421" lon="-3.229519966989756">
        <ele>404.19999999999999</ele>
        <time>2003-04-13T11:03:49Z</time>
      </trkpt>
      <trkpt lat="34.263713015243411" lon="-3.230793010443449">
        <ele>404.69999999999999</ele>
        <time>2003-04-13T11:03:54Z</time>
      </trkpt>
      <trkpt lat="34.263372039422393" lon="-3.231842005625367">
        <ele>404.69999999999999</ele>
        <time>2003-04-13T11:03:58Z</time>
      </trkpt>
      <trkpt lat="34.263019999489188" lon="-3.23292201384902">
        <ele>404</ele>
        <time>2003-04-13T11:04:02Z</time>
      </trkpt>
      <trkpt lat="34.262682041153312" lon="-3.233962962403894">
        <ele>404.30000000000001</ele>
        <time>2003-04-13T11:04:06Z</time>
      </trkpt>
      <trkpt lat="34.262363025918603" lon="-3.234995026141405">
        <ele>404.60000000000002</ele>
        <time>2003-04-13T11:04:10Z</time>
      </trkpt>
      <trkpt lat="34.262102013453841" lon="-3.236088026314974">
        <ele>403.60000000000002</ele>
        <time>2003-04-13T11:04:13Z</time>
      </trkpt>
      <trkpt lat="34.261921970173717" lon="-3.237216984853149">
        <ele>402.30000000000001</ele>
        <time>2003-04-13T11:04:17Z</time>
      </trkpt>
      <trkpt lat="34.261762965470552" lon="-3.238317025825381">
        <ele>402.39999999999998</ele>
        <time>2003-04-13T11:04:21Z</time>
      </trkpt>
      <trkpt lat="34.261591974645853" lon="-3.239401979371905">
        <ele>402.69999999999999</ele>
        <time>2003-04-13T11:04:25Z</time>
      </trkpt>
      <trkpt lat="34.261422995477915" lon="-3.240473018959165">
        <ele>402.69999999999999</ele>
        <time>2003-04-13T11:04:29Z</time>
      </trkpt>
      <trkpt lat="34.26126197911799" lon="-3.241561995819211">
        <ele>402.19999999999999</ele>
        <time>2003-04-13T11:04:33Z</time>
      </trkpt>
      <trkpt lat="34.261083025485277" lon="-3.242666982114315">
        <ele>401.69999999999999</ele>
        <time>2003-04-13T11:04:37Z</time>
      </trkpt>
      <trkpt lat="34.260925026610494" lon="-3.243755036965013">
        <ele>401.10000000000002</ele>
        <time>2003-04-13T11:04:41Z</time>
      </trkpt>
      <trkpt lat="34.260759986937046" lon="-3.244854994118214">
        <ele>400.19999999999999</ele>
        <time>2003-04-13T11:04:45Z</time>
      </trkpt>
      <trkpt lat="34.260580027475953" lon="-3.245965009555221">
        <ele>398.39999999999998</ele>
        <time>2003-04-13T11:04:49Z</time>
      </trkpt>
      <trkpt lat="34.260408030822873" lon="-3.247269988059998">
        <ele>397</ele>
        <time>2003-04-13T11:04:55Z</time>
      </trkpt>
      <trkpt lat="34.26018800586462" lon="-3.248587036505342">
        <ele>395.30000000000001</ele>
        <time>2003-04-13T11:05:00Z</time>
      </trkpt>
      <trkpt lat="34.259936967864633" lon="-3.249327996745706">
        <ele>394.39999999999998</ele>
        <time>2003-04-13T11:05:03Z</time>
      </trkpt>
      <trkpt lat="34.259449979290366" lon="-3.250402975827456">
        <ele>396.5</ele>
        <time>2003-04-13T11:05:07Z</time>
      </trkpt>
      <trkpt lat="34.258846985176206" lon="-3.251322973519564">
        <ele>398.30000000000001</ele>
        <time>2003-04-13T11:05:12Z</time>
      </trkpt>
      <trkpt lat="34.25823200494051" lon="-3.252267027273774">
        <ele>398.10000000000002</ele>
        <time>2003-04-13T11:05:18Z</time>
      </trkpt>
      <trkpt lat="34.25756698474288" lon="-3.253281991928816">
        <ele>397.69999999999999</ele>
        <time>2003-04-13T11:05:23Z</time>
      </trkpt>
      <trkpt lat="34.256997015327215" lon="-3.254137029871345">
        <ele>397.19999999999999</ele>
        <time>2003-04-13T11:05:27Z</time>
      </trkpt>
      <trkpt lat="34.256399972364306" lon="-3.255019979551435">
        <ele>396.30000000000001</ele>
        <time>2003-04-13T11:05:31Z</time>
      </trkpt>
      <trkpt lat="34.255773006007075" lon="-3.255897983908653">
        <ele>395</ele>
        <time>2003-04-13T11:05:34Z</time>
      </trkpt>
      <trkpt lat="34.255155008286238" lon="-3.256727959960699">
        <ele>397.10000000000002</ele>
        <time>2003-04-13T11:05:38Z</time>
      </trkpt>
      <trkpt lat="34.254412958398461" lon="-3.257745020091534">
        <ele>398.5</ele>
        <time>2003-04-13T11:05:43Z</time>
      </trkpt>
      <trkpt lat="34.253669986501336" lon="-3.258771970868111">
        <ele>397.5</ele>
        <time>2003-04-13T11:05:49Z</time>
      </trkpt>
      <trkpt lat="34.253058023750782" lon="-3.259606976062059">
        <ele>396.19999999999999</ele>
        <time>2003-04-13T11:05:53Z</time>
      </trkpt>
      <trkpt lat="34.252447988837957" lon="-3.260438041761518">
        <ele>398.10000000000002</ele>
        <time>2003-04-13T11:05:57Z</time>
      </trkpt>
      <trkpt lat="34.251651959493756" lon="-3.261383017525077">
        <ele>401.30000000000001</ele>
        <time>2003-04-13T11:06:01Z</time>
      </trkpt>
      <trkpt lat="34.250774960964918" lon="-3.2622279971838">
        <ele>401.80000000000001</ele>
        <time>2003-04-13T11:06:06Z</time>
      </trkpt>
      <trkpt lat="34.249902991577983" lon="-3.263035006821156">
        <ele>402.39999999999998</ele>
        <time>2003-04-13T11:06:12Z</time>
      </trkpt>
      <trkpt lat="34.249120038002729" lon="-3.263787031173706">
        <ele>402.10000000000002</ele>
        <time>2003-04-13T11:06:17Z</time>
      </trkpt>
      <trkpt lat="34.24828696064651" lon="-3.264578031376004">
        <ele>401.60000000000002</ele>
        <time>2003-04-13T11:06:21Z</time>
      </trkpt>
      <trkpt lat="34.247405016794801" lon="-3.265402978286147">
        <ele>400.39999999999998</ele>
        <time>2003-04-13T11:06:27Z</time>
      </trkpt>
      <trkpt lat="34.246662966907024" lon="-3.266112003475428">
        <ele>398.19999999999999</ele>
        <time>2003-04-13T11:06:31Z</time>
      </trkpt>
      <trkpt lat="34.245923012495041" lon="-3.266862016171217">
        <ele>395</ele>
        <time>2003-04-13T11:06:35Z</time>
      </trkpt>
      <trkpt lat="34.245477011427283" lon="-3.267487976700068">
        <ele>393.19999999999999</ele>
        <time>2003-04-13T11:06:37Z</time>
      </trkpt>
      <trkpt lat="34.245132012292743" lon="-3.268168000504375">
        <ele>391.80000000000001</ele>
        <time>2003-04-13T11:06:40Z</time>
      </trkpt>
      <trkpt lat="34.244972001761198" lon="-3.268641997128725">
        <ele>391</ele>
        <time>2003-04-13T11:06:43Z</time>
      </trkpt>
      <trkpt lat="34.244687017053366" lon="-3.269885033369064">
        <ele>390.30000000000001</ele>
        <time>2003-04-13T11:06:48Z</time>
      </trkpt>
      <trkpt lat="34.244434973224998" lon="-3.271157993003726">
        <ele>389.39999999999998</ele>
        <time>2003-04-13T11:06:52Z</time>
      </trkpt>
      <trkpt lat="34.244185024872422" lon="-3.272377979010344">
        <ele>388.60000000000002</ele>
        <time>2003-04-13T11:06:58Z</time>
      </trkpt>
      <trkpt lat="34.24392300657928" lon="-3.273627972230315">
        <ele>387.69999999999999</ele>
        <time>2003-04-13T11:07:03Z</time>
      </trkpt>
      <trkpt lat="34.243695018813014" lon="-3.274749973788858">
        <ele>387.39999999999998</ele>
        <time>2003-04-13T11:07:08Z</time>
      </trkpt>
      <trkpt lat="34.243472982198" lon="-3.275825036689639">
        <ele>385</ele>
        <time>2003-04-13T11:07:14Z</time>
      </trkpt>
      <trkpt lat="34.243238037452102" lon="-3.276955001056194">
        <ele>383</ele>
        <time>2003-04-13T11:07:19Z</time>
      </trkpt>
      <trkpt lat="34.242971995845437" lon="-3.278222009539604">
        <ele>381.80000000000001</ele>
        <time>2003-04-13T11:07:23Z</time>
      </trkpt>
      <trkpt lat="34.242757000029087" lon="-3.279312998056412">
        <ele>380.69999999999999</ele>
        <time>2003-04-13T11:07:27Z</time>
      </trkpt>
      <trkpt lat="34.242505040019751" lon="-3.280522003769875">
        <ele>379.80000000000001</ele>
        <time>2003-04-13T11:07:33Z</time>
      </trkpt>
      <trkpt lat="34.242343017831445" lon="-3.281306969001889">
        <ele>380</ele>
        <time>2003-04-13T11:07:37Z</time>
      </trkpt>
      <trkpt lat="34.242098014801741" lon="-3.282495019957423">
        <ele>379.30000000000001</ele>
        <time>2003-04-13T11:07:42Z</time>
      </trkpt>
      <trkpt lat="34.241867009550333" lon="-3.283633030951023">
        <ele>377.69999999999999</ele>
        <time>2003-04-13T11:07:48Z</time>
      </trkpt>
      <trkpt lat="34.241604991257191" lon="-3.284886963665485">
        <ele>376.60000000000002</ele>
        <time>2003-04-13T11:07:53Z</time>
      </trkpt>
      <trkpt lat="34.241342972964048" lon="-3.286132011562586">
        <ele>375.39999999999998</ele>
        <time>2003-04-13T11:07:57Z</time>
      </trkpt>
      <trkpt lat="34.241084977984428" lon="-3.287412011995912">
        <ele>374.60000000000002</ele>
        <time>2003-04-13T11:08:02Z</time>
      </trkpt>
      <trkpt lat="34.240860007703304" lon="-3.288472993299365">
        <ele>373.19999999999999</ele>
        <time>2003-04-13T11:08:06Z</time>
      </trkpt>
      <trkpt lat="34.240611987188458" lon="-3.289545038715005">
        <ele>372.69999999999999</ele>
        <time>2003-04-13T11:08:11Z</time>
      </trkpt>
      <trkpt lat="34.240388022735715" lon="-3.29069503583014">
        <ele>373.10000000000002</ele>
        <time>2003-04-13T11:08:15Z</time>
      </trkpt>
      <trkpt lat="34.240162968635559" lon="-3.291847966611385">
        <ele>374.5</ele>
        <time>2003-04-13T11:08:19Z</time>
      </trkpt>
      <trkpt lat="34.23997001722455" lon="-3.292927974835038">
        <ele>377.19999999999999</ele>
        <time>2003-04-13T11:08:23Z</time>
      </trkpt>
      <trkpt lat="34.239836996421218" lon="-3.294009994715452">
        <ele>378.39999999999998</ele>
        <time>2003-04-13T11:08:27Z</time>
      </trkpt>
      <trkpt lat="34.239767007529736" lon="-3.295112969353795">
        <ele>379.10000000000002</ele>
        <time>2003-04-13T11:08:31Z</time>
      </trkpt>
      <trkpt lat="34.239700036123395" lon="-3.296222984790802">
        <ele>378.30000000000001</ele>
        <time>2003-04-13T11:08:35Z</time>
      </trkpt>
      <trkpt lat="34.239616971462965" lon="-3.297374993562698">
        <ele>376.89999999999998</ele>
        <time>2003-04-13T11:08:39Z</time>
      </trkpt>
      <trkpt lat="34.23954295925796" lon="-3.298573018983007">
        <ele>375.80000000000001</ele>
        <time>2003-04-13T11:08:43Z</time>
      </trkpt>
      <trkpt lat="34.23945302143693" lon="-3.299784958362579">
        <ele>376.60000000000002</ele>
        <time>2003-04-13T11:08:47Z</time>
      </trkpt>
      <trkpt lat="34.23936802893877" lon="-3.301032017916441">
        <ele>376.39999999999998</ele>
        <time>2003-04-13T11:08:51Z</time>
      </trkpt>
      <trkpt lat="34.239289993420243" lon="-3.302216967567802">
        <ele>374.89999999999998</ele>
        <time>2003-04-13T11:08:55Z</time>
      </trkpt>
      <trkpt lat="34.239217992872" lon="-3.30330996774137">
        <ele>373.30000000000001</ele>
        <time>2003-04-13T11:08:59Z</time>
      </trkpt>
      <trkpt lat="34.239137023687363" lon="-3.304476980119944">
        <ele>372.19999999999999</ele>
        <time>2003-04-13T11:09:03Z</time>
      </trkpt>
      <trkpt lat="34.239050019532442" lon="-3.305695038288832">
        <ele>371.60000000000002</ele>
        <time>2003-04-13T11:09:10Z</time>
      </trkpt>
      <trkpt lat="34.239016994833946" lon="-3.306184960529208">
        <ele>371.19999999999999</ele>
        <time>2003-04-13T11:09:13Z</time>
      </trkpt>
      <trkpt lat="34.238995034247637" lon="-3.306416971608996">
        <ele>371.10000000000002</ele>
        <time>2003-04-13T11:09:14Z</time>
      </trkpt>
      <trkpt lat="34.238972989842296" lon="-3.306849980726838">
        <ele>370.5</ele>
        <time>2003-04-13T11:09:18Z</time>
      </trkpt>
      <trkpt lat="34.238965027034283" lon="-3.306964980438352">
        <ele>370.60000000000002</ele>
        <time>2003-04-13T11:09:21Z</time>
      </trkpt>
      <trkpt lat="34.238935019820929" lon="-3.307167990133166">
        <ele>370.10000000000002</ele>
        <time>2003-04-13T11:09:25Z</time>
      </trkpt>
      <trkpt lat="34.238827982917428" lon="-3.307228004559875">
        <ele>370</ele>
        <time>2003-04-13T11:09:26Z</time>
      </trkpt>
      <trkpt lat="34.238707032054663" lon="-3.307160027325153">
        <ele>369.5</ele>
        <time>2003-04-13T11:09:29Z</time>
      </trkpt>
      <trkpt lat="34.238607035949826" lon="-3.307015020400286">
        <ele>369.69999999999999</ele>
        <time>2003-04-13T11:09:30Z</time>
      </trkpt>
      <trkpt lat="34.238481977954507" lon="-3.306831959635019">
        <ele>369.69999999999999</ele>
        <time>2003-04-13T11:09:33Z</time>
      </trkpt>
      <trkpt lat="34.23825298435986" lon="-3.306515039876103">
        <ele>369.89999999999998</ele>
        <time>2003-04-13T11:09:36Z</time>
      </trkpt>
      <trkpt lat="34.23790798522532" lon="-3.306032996624708">
        <ele>370.30000000000001</ele>
        <time>2003-04-13T11:09:40Z</time>
      </trkpt>
      <trkpt lat="34.237297028303146" lon="-3.30513495951891">
        <ele>371.80000000000001</ele>
        <time>2003-04-13T11:09:46Z</time>
      </trkpt>
      <trkpt lat="34.236711971461773" lon="-3.304304983466864">
        <ele>373.10000000000002</ele>
        <time>2003-04-13T11:09:53Z</time>
      </trkpt>
      <trkpt lat="34.236111994832754" lon="-3.303422033786774">
        <ele>374.60000000000002</ele>
        <time>2003-04-13T11:09:59Z</time>
      </trkpt>
      <trkpt lat="34.23547999933362" lon="-3.302542017772794">
        <ele>376.19999999999999</ele>
        <time>2003-04-13T11:10:04Z</time>
      </trkpt>
      <trkpt lat="34.234782038256526" lon="-3.301529986783862">
        <ele>378.10000000000002</ele>
        <time>2003-04-13T11:10:11Z</time>
      </trkpt>
      <trkpt lat="34.23414995893836" lon="-3.300633039325476">
        <ele>379.80000000000001</ele>
        <time>2003-04-13T11:10:16Z</time>
      </trkpt>
      <trkpt lat="34.233552999794483" lon="-3.299776995554566">
        <ele>380.80000000000001</ele>
        <time>2003-04-13T11:10:20Z</time>
      </trkpt>
      <trkpt lat="34.232908012345433" lon="-3.298830008134246">
        <ele>380.80000000000001</ele>
        <time>2003-04-13T11:10:26Z</time>
      </trkpt>
      <trkpt lat="34.232241986319423" lon="-3.297886960208416">
        <ele>381.30000000000001</ele>
        <time>2003-04-13T11:10:31Z</time>
      </trkpt>
      <trkpt lat="34.231598004698753" lon="-3.296962017193437">
        <ele>382.80000000000001</ele>
        <time>2003-04-13T11:10:35Z</time>
      </trkpt>
      <trkpt lat="34.230912029743195" lon="-3.295992985367775">
        <ele>385.80000000000001</ele>
        <time>2003-04-13T11:10:40Z</time>
      </trkpt>
      <trkpt lat="34.230214990675449" lon="-3.294997969642282">
        <ele>387.60000000000002</ele>
        <time>2003-04-13T11:10:46Z</time>
      </trkpt>
      <trkpt lat="34.229504959657788" lon="-3.293977975845337">
        <ele>386.80000000000001</ele>
        <time>2003-04-13T11:10:51Z</time>
      </trkpt>
      <trkpt lat="34.228817978873849" lon="-3.292986983433366">
        <ele>384</ele>
        <time>2003-04-13T11:10:55Z</time>
      </trkpt>
      <trkpt lat="34.228096967563033" lon="-3.291955003514886">
        <ele>384.69999999999999</ele>
        <time>2003-04-13T11:11:01Z</time>
      </trkpt>
      <trkpt lat="34.227503025904298" lon="-3.291097031906247">
        <ele>386.69999999999999</ele>
        <time>2003-04-13T11:11:05Z</time>
      </trkpt>
      <trkpt lat="34.22690698876977" lon="-3.290242999792099">
        <ele>388.60000000000002</ele>
        <time>2003-04-13T11:11:09Z</time>
      </trkpt>
      <trkpt lat="34.226312963292003" lon="-3.289397014304996">
        <ele>390.39999999999998</ele>
        <time>2003-04-13T11:11:13Z</time>
      </trkpt>
      <trkpt lat="34.225714998319745" lon="-3.288542982190847">
        <ele>391.60000000000002</ele>
        <time>2003-04-13T11:11:17Z</time>
      </trkpt>
      <trkpt lat="34.225118039175868" lon="-3.287681993097067">
        <ele>393.10000000000002</ele>
        <time>2003-04-13T11:11:21Z</time>
      </trkpt>
      <trkpt lat="34.224512027576566" lon="-3.28682703897357">
        <ele>394.69999999999999</ele>
        <time>2003-04-13T11:11:25Z</time>
      </trkpt>
      <trkpt lat="34.223812976852059" lon="-3.285807967185974">
        <ele>397.30000000000001</ele>
        <time>2003-04-13T11:11:29Z</time>
      </trkpt>
      <trkpt lat="34.223085008561611" lon="-3.284772969782352">
        <ele>399.5</ele>
        <time>2003-04-13T11:11:34Z</time>
      </trkpt>
      <trkpt lat="34.222370032221079" lon="-3.283749958500266">
        <ele>402.10000000000002</ele>
        <time>2003-04-13T11:11:40Z</time>
      </trkpt>
      <trkpt lat="34.221656983718276" lon="-3.282719990238547">
        <ele>404.30000000000001</ele>
        <time>2003-04-13T11:11:45Z</time>
      </trkpt>
      <trkpt lat="34.220947958528996" lon="-3.28171500004828">
        <ele>404.69999999999999</ele>
        <time>2003-04-13T11:11:49Z</time>
      </trkpt>
      <trkpt lat="34.220244968309999" lon="-3.280716966837645">
        <ele>404.60000000000002</ele>
        <time>2003-04-13T11:11:55Z</time>
      </trkpt>
      <trkpt lat="34.219777006655931" lon="-3.280067034065723">
        <ele>405.60000000000002</ele>
        <time>2003-04-13T11:11:59Z</time>
      </trkpt>
      <trkpt lat="34.21915196813643" lon="-3.27913798391819">
        <ele>408.69999999999999</ele>
        <time>2003-04-13T11:12:04Z</time>
      </trkpt>
      <trkpt lat="34.218530030921102" lon="-3.278272971510887">
        <ele>411.89999999999998</ele>
        <time>2003-04-13T11:12:09Z</time>
      </trkpt>
      <trkpt lat="34.21794799156487" lon="-3.277422040700913">
        <ele>414</ele>
        <time>2003-04-13T11:12:15Z</time>
      </trkpt>
      <trkpt lat="34.217269979417324" lon="-3.276440016925335">
        <ele>416.19999999999999</ele>
        <time>2003-04-13T11:12:20Z</time>
      </trkpt>
      <trkpt lat="34.216622980311513" lon="-3.275514990091324">
        <ele>418.39999999999998</ele>
        <time>2003-04-13T11:12:26Z</time>
      </trkpt>
      <trkpt lat="34.215931976214051" lon="-3.274536989629269">
        <ele>420.39999999999998</ele>
        <time>2003-04-13T11:12:31Z</time>
      </trkpt>
      <trkpt lat="34.215263016521931" lon="-3.273552032187581">
        <ele>422.69999999999999</ele>
        <time>2003-04-13T11:12:35Z</time>
      </trkpt>
      <trkpt lat="34.214658010751009" lon="-3.272583000361919">
        <ele>425.39999999999998</ele>
        <time>2003-04-13T11:12:41Z</time>
      </trkpt>
      <trkpt lat="34.214032972231507" lon="-3.271529981866479">
        <ele>429.60000000000002</ele>
        <time>2003-04-13T11:12:46Z</time>
      </trkpt>
      <trkpt lat="34.213535003364086" lon="-3.270557010546327">
        <ele>433.80000000000001</ele>
        <time>2003-04-13T11:12:51Z</time>
      </trkpt>
      <trkpt lat="34.212993029505014" lon="-3.26951002702117">
        <ele>437.60000000000002</ele>
        <time>2003-04-13T11:12:57Z</time>
      </trkpt>
      <trkpt lat="34.2124929651618" lon="-3.268433036282659">
        <ele>440.80000000000001</ele>
        <time>2003-04-13T11:13:02Z</time>
      </trkpt>
      <trkpt lat="34.211949985474348" lon="-3.2673429697752">
        <ele>443.39999999999998</ele>
        <time>2003-04-13T11:13:06Z</time>
      </trkpt>
      <trkpt lat="34.211363000795245" lon="-3.266249969601631">
        <ele>446.30000000000001</ele>
        <time>2003-04-13T11:13:13Z</time>
      </trkpt>
      <trkpt lat="34.210720025002956" lon="-3.265161998569965">
        <ele>449.30000000000001</ele>
        <time>2003-04-13T11:13:17Z</time>
      </trkpt>
      <trkpt lat="34.210030026733875" lon="-3.264082996174693">
        <ele>452.30000000000001</ele>
        <time>2003-04-13T11:13:22Z</time>
      </trkpt>
      <trkpt lat="34.209425020962954" lon="-3.263227958232164">
        <ele>453.10000000000002</ele>
        <time>2003-04-13T11:13:26Z</time>
      </trkpt>
      <trkpt lat="34.208790007978678" lon="-3.26237803325057">
        <ele>453.69999999999999</ele>
        <time>2003-04-13T11:13:30Z</time>
      </trkpt>
      <trkpt lat="34.208133034408092" lon="-3.261531963944435">
        <ele>454.10000000000002</ele>
        <time>2003-04-13T11:13:35Z</time>
      </trkpt>
      <trkpt lat="34.207881996408105" lon="-3.261246979236603">
        <ele>454.39999999999998</ele>
        <time>2003-04-13T11:13:37Z</time>
      </trkpt>
      <trkpt lat="34.207802033051848" lon="-3.261155029758811">
        <ele>454.60000000000002</ele>
        <time>2003-04-13T11:13:37Z</time>
      </trkpt>
      <trkpt lat="34.207717040553689" lon="-3.261062996461988">
        <ele>454.69999999999999</ele>
        <time>2003-04-13T11:13:40Z</time>
      </trkpt>
      <trkpt lat="34.207637999206781" lon="-3.260989990085363">
        <ele>454.60000000000002</ele>
        <time>2003-04-13T11:13:43Z</time>
      </trkpt>
      <trkpt lat="34.207552000880241" lon="-3.260889993980527">
        <ele>454.5</ele>
        <time>2003-04-13T11:13:47Z</time>
      </trkpt>
      <trkpt lat="34.207374975085258" lon="-3.260690001770854">
        <ele>454.5</ele>
        <time>2003-04-13T11:13:53Z</time>
      </trkpt>
      <trkpt lat="34.207232985645533" lon="-3.260527979582548">
        <ele>454.69999999999999</ele>
        <time>2003-04-13T11:13:56Z</time>
      </trkpt>
      <trkpt lat="34.20709703117609" lon="-3.260384984314442">
        <ele>454.69999999999999</ele>
        <time>2003-04-13T11:13:59Z</time>
      </trkpt>
      <trkpt lat="34.206929979845881" lon="-3.26020703651011">
        <ele>454.80000000000001</ele>
        <time>2003-04-13T11:14:02Z</time>
      </trkpt>
      <trkpt lat="34.206550028175116" lon="-3.259819960221648">
        <ele>455.10000000000002</ele>
        <time>2003-04-13T11:14:07Z</time>
      </trkpt>
      <trkpt lat="34.206241993233562" lon="-3.259500022977591">
        <ele>455.39999999999998</ele>
        <time>2003-04-13T11:14:11Z</time>
      </trkpt>
      <trkpt lat="34.205487035214901" lon="-3.258772976696491">
        <ele>456</ele>
        <time>2003-04-13T11:14:20Z</time>
      </trkpt>
      <trkpt lat="34.204987976700068" lon="-3.258329993113875">
        <ele>456.60000000000002</ele>
        <time>2003-04-13T11:14:27Z</time>
      </trkpt>
      <trkpt lat="34.204205023124814" lon="-3.257666984573007">
        <ele>459.80000000000001</ele>
        <time>2003-04-13T11:14:34Z</time>
      </trkpt>
      <trkpt lat="34.203436989337206" lon="-3.257062984630466">
        <ele>462.30000000000001</ele>
        <time>2003-04-13T11:14:42Z</time>
      </trkpt>
      <trkpt lat="34.202612964436412" lon="-3.256459990516305">
        <ele>463.89999999999998</ele>
        <time>2003-04-13T11:14:50Z</time>
      </trkpt>
      <trkpt lat="34.201807966455817" lon="-3.25593201443553">
        <ele>464.19999999999999</ele>
        <time>2003-04-13T11:14:58Z</time>
      </trkpt>
      <trkpt lat="34.200958041474223" lon="-3.255409989506006">
        <ele>463.80000000000001</ele>
        <time>2003-04-13T11:15:05Z</time>
      </trkpt>
      <trkpt lat="34.200065033510327" lon="-3.254907997325063">
        <ele>463.60000000000002</ele>
        <time>2003-04-13T11:15:12Z</time>
      </trkpt>
      <trkpt lat="34.199117040261626" lon="-3.254416985437274">
        <ele>463.39999999999998</ele>
        <time>2003-04-13T11:15:18Z</time>
      </trkpt>
      <trkpt lat="34.198154965415597" lon="-3.2539770193398">
        <ele>465.80000000000001</ele>
        <time>2003-04-13T11:15:25Z</time>
      </trkpt>
      <trkpt lat="34.197190040722489" lon="-3.25359002687037">
        <ele>469.10000000000002</ele>
        <time>2003-04-13T11:15:32Z</time>
      </trkpt>
      <trkpt lat="34.196178009733558" lon="-3.253227006644011">
        <ele>472</ele>
        <time>2003-04-13T11:15:40Z</time>
      </trkpt>
      <trkpt lat="34.195203026756644" lon="-3.252862980589271">
        <ele>473.60000000000002</ele>
        <time>2003-04-13T11:15:45Z</time>
      </trkpt>
      <trkpt lat="34.194316975772381" lon="-3.252513036131859">
        <ele>474.30000000000001</ele>
        <time>2003-04-13T11:15:52Z</time>
      </trkpt>
      <trkpt lat="34.193387003615499" lon="-3.252097964286804">
        <ele>475.69999999999999</ele>
        <time>2003-04-13T11:15:59Z</time>
      </trkpt>
      <trkpt lat="34.192461976781487" lon="-3.251587003469467">
        <ele>477.19999999999999</ele>
        <time>2003-04-13T11:16:04Z</time>
      </trkpt>
      <trkpt lat="34.192072972655296" lon="-3.251381982117891">
        <ele>478.39999999999998</ele>
        <time>2003-04-13T11:16:07Z</time>
      </trkpt>
      <trkpt lat="34.191750017926097" lon="-3.25120797380805">
        <ele>479.19999999999999</ele>
        <time>2003-04-13T11:16:11Z</time>
      </trkpt>
      <trkpt lat="34.190917024388909" lon="-3.250697012990713">
        <ele>480.89999999999998</ele>
        <time>2003-04-13T11:16:18Z</time>
      </trkpt>
      <trkpt lat="34.190052011981606" lon="-3.250101981684566">
        <ele>482.80000000000001</ele>
        <time>2003-04-13T11:16:25Z</time>
      </trkpt>
      <trkpt lat="34.189175013452768" lon="-3.249477026984096">
        <ele>484.30000000000001</ele>
        <time>2003-04-13T11:16:31Z</time>
      </trkpt>
      <trkpt lat="34.188355011865497" lon="-3.248818041756749">
        <ele>486.10000000000002</ele>
        <time>2003-04-13T11:16:38Z</time>
      </trkpt>
      <trkpt lat="34.187622014433146" lon="-3.248186968266964">
        <ele>486.89999999999998</ele>
        <time>2003-04-13T11:16:45Z</time>
      </trkpt>
      <trkpt lat="34.186809975653887" lon="-3.247433016076684">
        <ele>488.80000000000001</ele>
        <time>2003-04-13T11:16:52Z</time>
      </trkpt>
      <trkpt lat="34.186110002920032" lon="-3.246732037514448">
        <ele>490.10000000000002</ele>
        <time>2003-04-13T11:16:57Z</time>
      </trkpt>
      <trkpt lat="34.185417992994189" lon="-3.245987975969911">
        <ele>491.10000000000002</ele>
        <time>2003-04-13T11:17:04Z</time>
      </trkpt>
      <trkpt lat="34.184748027473688" lon="-3.245222037658095">
        <ele>492.10000000000002</ele>
        <time>2003-04-13T11:17:09Z</time>
      </trkpt>
      <trkpt lat="34.184027016162872" lon="-3.244347972795367">
        <ele>493.10000000000002</ele>
        <time>2003-04-13T11:17:16Z</time>
      </trkpt>
      <trkpt lat="34.183340035378933" lon="-3.243423029780388">
        <ele>494.39999999999998</ele>
        <time>2003-04-13T11:17:24Z</time>
      </trkpt>
      <trkpt lat="34.182693036273122" lon="-3.242494985461235">
        <ele>495.10000000000002</ele>
        <time>2003-04-13T11:17:31Z</time>
      </trkpt>
      <trkpt lat="34.182077972218394" lon="-3.241540035232902">
        <ele>496.30000000000001</ele>
        <time>2003-04-13T11:17:38Z</time>
      </trkpt>
      <trkpt lat="34.181486964225769" lon="-3.240569997578859">
        <ele>497.39999999999998</ele>
        <time>2003-04-13T11:17:44Z</time>
      </trkpt>
      <trkpt lat="34.180912971496582" lon="-3.239661986008287">
        <ele>498.89999999999998</ele>
        <time>2003-04-13T11:17:51Z</time>
      </trkpt>
      <trkpt lat="34.180332021787763" lon="-3.23880703188479">
        <ele>500.10000000000002</ele>
        <time>2003-04-13T11:17:59Z</time>
      </trkpt>
      <trkpt lat="34.179685022681952" lon="-3.237913018092513">
        <ele>501.19999999999999</ele>
        <time>2003-04-13T11:18:06Z</time>
      </trkpt>
      <trkpt lat="34.179046992212534" lon="-3.237102990970016">
        <ele>502.10000000000002</ele>
        <time>2003-04-13T11:18:13Z</time>
      </trkpt>
      <trkpt lat="34.17835297062993" lon="-3.236288018524647">
        <ele>503.39999999999998</ele>
        <time>2003-04-13T11:18:19Z</time>
      </trkpt>
      <trkpt lat="34.177594995126128" lon="-3.235440021380782">
        <ele>504.5</ele>
        <time>2003-04-13T11:18:26Z</time>
      </trkpt>
      <trkpt lat="34.176812963560224" lon="-3.234642986208201">
        <ele>505.5</ele>
        <time>2003-04-13T11:18:34Z</time>
      </trkpt>
      <trkpt lat="34.175990028306842" lon="-3.233866989612579">
        <ele>506.5</ele>
        <time>2003-04-13T11:18:41Z</time>
      </trkpt>
      <trkpt lat="34.175246972590685" lon="-3.233228037133813">
        <ele>507.39999999999998</ele>
        <time>2003-04-13T11:18:46Z</time>
      </trkpt>
      <trkpt lat="34.174450021237135" lon="-3.232596963644028">
        <ele>508.39999999999998</ele>
        <time>2003-04-13T11:18:53Z</time>
      </trkpt>
      <trkpt lat="34.173617027699947" lon="-3.231958011165261">
        <ele>509.39999999999998</ele>
        <time>2003-04-13T11:18:59Z</time>
      </trkpt>
      <trkpt lat="34.172762995585799" lon="-3.231466999277473">
        <ele>510.60000000000002</ele>
        <time>2003-04-13T11:19:04Z</time>
      </trkpt>
      <trkpt lat="34.171887002885342" lon="-3.231092998757958">
        <ele>511.60000000000002</ele>
        <time>2003-04-13T11:19:11Z</time>
      </trkpt>
      <trkpt lat="34.170987037941813" lon="-3.230820000171661">
        <ele>512.5</ele>
        <time>2003-04-13T11:19:16Z</time>
      </trkpt>
      <trkpt lat="34.170056981965899" lon="-3.230662001296878">
        <ele>513.60000000000002</ele>
        <time>2003-04-13T11:19:23Z</time>
      </trkpt>
      <trkpt lat="34.169121980667114" lon="-3.230567034333944">
        <ele>514.5</ele>
        <time>2003-04-13T11:19:28Z</time>
      </trkpt>
      <trkpt lat="34.168199971318245" lon="-3.230462009087205">
        <ele>515.20000000000005</ele>
        <time>2003-04-13T11:19:35Z</time>
      </trkpt>
      <trkpt lat="34.167279973626137" lon="-3.23036796413362">
        <ele>515.89999999999998</ele>
        <time>2003-04-13T11:19:40Z</time>
      </trkpt>
      <trkpt lat="34.166313037276268" lon="-3.230250030755997">
        <ele>516.79999999999995</ele>
        <time>2003-04-13T11:19:47Z</time>
      </trkpt>
      <trkpt lat="34.165364960208535" lon="-3.230157997459173">
        <ele>517.39999999999998</ele>
        <time>2003-04-13T11:19:55Z</time>
      </trkpt>
      <trkpt lat="34.164344966411591" lon="-3.230036962777376">
        <ele>518</ele>
        <time>2003-04-13T11:20:02Z</time>
      </trkpt>
      <trkpt lat="34.163408037275076" lon="-3.22993696667254">
        <ele>517.89999999999998</ele>
        <time>2003-04-13T11:20:10Z</time>
      </trkpt>
      <trkpt lat="34.162413021549582" lon="-3.22982800193131">
        <ele>518.20000000000005</ele>
        <time>2003-04-13T11:20:17Z</time>
      </trkpt>
      <trkpt lat="34.161381963640451" lon="-3.22972297668457">
        <ele>519.5</ele>
        <time>2003-04-13T11:20:24Z</time>
      </trkpt>
      <trkpt lat="34.160451991483569" lon="-3.229621974751353">
        <ele>521</ele>
        <time>2003-04-13T11:20:29Z</time>
      </trkpt>
      <trkpt lat="34.159548003226519" lon="-3.229497000575066">
        <ele>522.39999999999998</ele>
        <time>2003-04-13T11:20:36Z</time>
      </trkpt>
      <trkpt lat="34.158643009141088" lon="-3.229253003373742">
        <ele>523.79999999999995</ele>
        <time>2003-04-13T11:20:41Z</time>
      </trkpt>
      <trkpt lat="34.157737009227276" lon="-3.228982016444206">
        <ele>525.20000000000005</ele>
        <time>2003-04-13T11:20:48Z</time>
      </trkpt>
      <trkpt lat="34.156841989606619" lon="-3.228850001469255">
        <ele>526.29999999999995</ele>
        <time>2003-04-13T11:20:53Z</time>
      </trkpt>
      <trkpt lat="34.155902964994311" lon="-3.228793004527688">
        <ele>527.70000000000005</ele>
        <time>2003-04-13T11:21:00Z</time>
      </trkpt>
      <trkpt lat="34.154952960088849" lon="-3.228782024234533">
        <ele>529</ele>
        <time>2003-04-13T11:21:05Z</time>
      </trkpt>
      <trkpt lat="34.153974959626794" lon="-3.228765008971095">
        <ele>530.70000000000005</ele>
        <time>2003-04-13T11:21:12Z</time>
      </trkpt>
      <trkpt lat="34.152957983314991" lon="-3.228742964565754">
        <ele>532.60000000000002</ele>
        <time>2003-04-13T11:21:18Z</time>
      </trkpt>
      <trkpt lat="34.151913011446595" lon="-3.228729972615838">
        <ele>534.29999999999995</ele>
        <time>2003-04-13T11:21:23Z</time>
      </trkpt>
      <trkpt lat="34.150853035971522" lon="-3.228714969009161">
        <ele>536.20000000000005</ele>
        <time>2003-04-13T11:21:30Z</time>
      </trkpt>
      <trkpt lat="34.14981996640563" lon="-3.228697031736374">
        <ele>538</ele>
        <time>2003-04-13T11:21:35Z</time>
      </trkpt>
      <trkpt lat="34.148769965395331" lon="-3.228674987331033">
        <ele>540</ele>
        <time>2003-04-13T11:21:42Z</time>
      </trkpt>
      <trkpt lat="34.147747959941626" lon="-3.228661995381117">
        <ele>541.70000000000005</ele>
        <time>2003-04-13T11:21:47Z</time>
      </trkpt>
      <trkpt lat="34.146740036085248" lon="-3.228638023138046">
        <ele>541.70000000000005</ele>
        <time>2003-04-13T11:21:54Z</time>
      </trkpt>
      <trkpt lat="34.145833030343056" lon="-3.228623019531369">
        <ele>541.79999999999995</ele>
        <time>2003-04-13T11:21:58Z</time>
      </trkpt>
      <trkpt lat="34.144885037094355" lon="-3.228608015924692">
        <ele>542.70000000000005</ele>
        <time>2003-04-13T11:22:03Z</time>
      </trkpt>
      <trkpt lat="34.143954981118441" lon="-3.228602986782789">
        <ele>545.29999999999995</ele>
        <time>2003-04-13T11:22:09Z</time>
      </trkpt>
      <trkpt lat="34.142882013693452" lon="-3.22866702452302">
        <ele>548.29999999999995</ele>
        <time>2003-04-13T11:22:14Z</time>
      </trkpt>
      <trkpt lat="34.141820026561618" lon="-3.228725027292967">
        <ele>551</ele>
        <time>2003-04-13T11:22:21Z</time>
      </trkpt>
      <trkpt lat="34.140897011384368" lon="-3.228774983435869">
        <ele>552.70000000000005</ele>
        <time>2003-04-13T11:22:25Z</time>
      </trkpt>
      <trkpt lat="34.139924962073565" lon="-3.22884002700448">
        <ele>554.10000000000002</ele>
        <time>2003-04-13T11:22:30Z</time>
      </trkpt>
      <trkpt lat="34.138930030167103" lon="-3.228891994804144">
        <ele>556.10000000000002</ele>
        <time>2003-04-13T11:22:36Z</time>
      </trkpt>
      <trkpt lat="34.137992011383176" lon="-3.228955026715994">
        <ele>560.39999999999998</ele>
        <time>2003-04-13T11:22:40Z</time>
      </trkpt>
      <trkpt lat="34.137081988155842" lon="-3.228974975645542">
        <ele>564.89999999999998</ele>
        <time>2003-04-13T11:22:45Z</time>
      </trkpt>
      <trkpt lat="34.136265004053712" lon="-3.228898029774427">
        <ele>569.70000000000005</ele>
        <time>2003-04-13T11:22:51Z</time>
      </trkpt>
      <trkpt lat="34.135880023241043" lon="-3.228832986205816">
        <ele>571.29999999999995</ele>
        <time>2003-04-13T11:22:53Z</time>
      </trkpt>
      <trkpt lat="34.135565031319857" lon="-3.228787975385785">
        <ele>572.29999999999995</ele>
        <time>2003-04-13T11:22:56Z</time>
      </trkpt>
      <trkpt lat="34.135269988328218" lon="-3.228712035343051">
        <ele>573.10000000000002</ele>
        <time>2003-04-13T11:23:00Z</time>
      </trkpt>
      <trkpt lat="34.13458501920104" lon="-3.228532997891307">
        <ele>574.70000000000005</ele>
        <time>2003-04-13T11:23:07Z</time>
      </trkpt>
      <trkpt lat="34.13396299816668" lon="-3.228450017049909">
        <ele>575.79999999999995</ele>
        <time>2003-04-13T11:23:14Z</time>
      </trkpt>
      <trkpt lat="34.133592015132308" lon="-3.228420009836555">
        <ele>576.29999999999995</ele>
        <time>2003-04-13T11:23:16Z</time>
      </trkpt>
      <trkpt lat="34.132592976093292" lon="-3.228446999564767">
        <ele>578</ele>
        <time>2003-04-13T11:23:24Z</time>
      </trkpt>
      <trkpt lat="34.131655041128397" lon="-3.228508019819856">
        <ele>579.5</ele>
        <time>2003-04-13T11:23:33Z</time>
      </trkpt>
      <trkpt lat="34.13071702234447" lon="-3.228556970134378">
        <ele>581.60000000000002</ele>
        <time>2003-04-13T11:23:41Z</time>
      </trkpt>
      <trkpt lat="34.129782021045685" lon="-3.228617990389466">
        <ele>583.29999999999995</ele>
        <time>2003-04-13T11:23:47Z</time>
      </trkpt>
      <trkpt lat="34.128745011985302" lon="-3.228676998987794">
        <ele>584.10000000000002</ele>
        <time>2003-04-13T11:23:54Z</time>
      </trkpt>
      <trkpt lat="34.127759970724583" lon="-3.228740030899644">
        <ele>585</ele>
        <time>2003-04-13T11:24:01Z</time>
      </trkpt>
      <trkpt lat="34.126857994124293" lon="-3.228786969557405">
        <ele>585.70000000000005</ele>
        <time>2003-04-13T11:24:08Z</time>
      </trkpt>
      <trkpt lat="34.125922992825508" lon="-3.228852013126016">
        <ele>586.70000000000005</ele>
        <time>2003-04-13T11:24:13Z</time>
      </trkpt>
      <trkpt lat="34.124984974041581" lon="-3.228900041431189">
        <ele>587.39999999999998</ele>
        <time>2003-04-13T11:24:20Z</time>
      </trkpt>
      <trkpt lat="34.124024994671345" lon="-3.228955026715994">
        <ele>588.29999999999995</ele>
        <time>2003-04-13T11:24:25Z</time>
      </trkpt>
      <trkpt lat="34.123086975887418" lon="-3.22901202365756">
        <ele>589.20000000000005</ele>
        <time>2003-04-13T11:24:32Z</time>
      </trkpt>
      <trkpt lat="34.122147029265761" lon="-3.229070026427507">
        <ele>590</ele>
        <time>2003-04-13T11:24:39Z</time>
      </trkpt>
      <trkpt lat="34.121217979118228" lon="-3.22911998257041">
        <ele>590.89999999999998</ele>
        <time>2003-04-13T11:24:45Z</time>
      </trkpt>
      <trkpt lat="34.120251964777708" lon="-3.229179996997118">
        <ele>591</ele>
        <time>2003-04-13T11:24:52Z</time>
      </trkpt>
      <trkpt lat="34.119216967374086" lon="-3.229243028908968">
        <ele>591.29999999999995</ele>
        <time>2003-04-13T11:24:59Z</time>
      </trkpt>
      <trkpt lat="34.118175012990832" lon="-3.229306982830167">
        <ele>591.20000000000005</ele>
        <time>2003-04-13T11:25:06Z</time>
      </trkpt>
      <trkpt lat="34.117259960621595" lon="-3.229360040277243">
        <ele>591.70000000000005</ele>
        <time>2003-04-13T11:25:11Z</time>
      </trkpt>
      <trkpt lat="34.11632495932281" lon="-3.229415025562048">
        <ele>591.89999999999998</ele>
        <time>2003-04-13T11:25:18Z</time>
      </trkpt>
      <trkpt lat="34.115303037688136" lon="-3.229476967826486">
        <ele>591.79999999999995</ele>
        <time>2003-04-13T11:25:25Z</time>
      </trkpt>
      <trkpt lat="34.114386979490519" lon="-3.22952700778842">
        <ele>592.10000000000002</ele>
        <time>2003-04-13T11:25:30Z</time>
      </trkpt>
      <trkpt lat="34.113360028713942" lon="-3.229596996679902">
        <ele>593.79999999999995</ele>
        <time>2003-04-13T11:25:38Z</time>
      </trkpt>
      <trkpt lat="34.112320002168417" lon="-3.229649970307946">
        <ele>595.20000000000005</ele>
        <time>2003-04-13T11:25:45Z</time>
      </trkpt>
      <trkpt lat="34.111285004764795" lon="-3.229713002219796">
        <ele>596.39999999999998</ele>
        <time>2003-04-13T11:25:52Z</time>
      </trkpt>
      <trkpt lat="34.110256964340806" lon="-3.229773016646504">
        <ele>597.70000000000005</ele>
        <time>2003-04-13T11:25:58Z</time>
      </trkpt>
      <trkpt lat="34.109311988577247" lon="-3.229832025244832">
        <ele>598.79999999999995</ele>
        <time>2003-04-13T11:26:05Z</time>
      </trkpt>
      <trkpt lat="34.108382016420364" lon="-3.229890028014779">
        <ele>600.10000000000002</ele>
        <time>2003-04-13T11:26:11Z</time>
      </trkpt>
      <trkpt lat="34.107382977381349" lon="-3.229945013299584">
        <ele>601.20000000000005</ele>
        <time>2003-04-13T11:26:16Z</time>
      </trkpt>
      <trkpt lat="34.106407994404435" lon="-3.230007961392403">
        <ele>602.5</ele>
        <time>2003-04-13T11:26:23Z</time>
      </trkpt>
      <trkpt lat="34.105422031134367" lon="-3.230056995525956">
        <ele>603.70000000000005</ele>
        <time>2003-04-13T11:26:28Z</time>
      </trkpt>
      <trkpt lat="34.10435501486063" lon="-3.230126984417439">
        <ele>604.89999999999998</ele>
        <time>2003-04-13T11:26:35Z</time>
      </trkpt>
      <trkpt lat="34.103286992758512" lon="-3.23019202798605">
        <ele>606</ele>
        <time>2003-04-13T11:26:40Z</time>
      </trkpt>
      <trkpt lat="34.102240009233356" lon="-3.230251958593726">
        <ele>606.89999999999998</ele>
        <time>2003-04-13T11:26:47Z</time>
      </trkpt>
      <trkpt lat="34.101203000172973" lon="-3.230320019647479">
        <ele>607.70000000000005</ele>
        <time>2003-04-13T11:26:52Z</time>
      </trkpt>
      <trkpt lat="34.100298006087542" lon="-3.230369975790381">
        <ele>608.5</ele>
        <time>2003-04-13T11:26:58Z</time>
      </trkpt>
      <trkpt lat="34.099361998960376" lon="-3.230432001873851">
        <ele>609.70000000000005</ele>
        <time>2003-04-13T11:27:03Z</time>
      </trkpt>
      <trkpt lat="34.098412999883294" lon="-3.230484975501895">
        <ele>611</ele>
        <time>2003-04-13T11:27:07Z</time>
      </trkpt>
      <trkpt lat="34.097429970279336" lon="-3.230542978271842">
        <ele>612.20000000000005</ele>
        <time>2003-04-13T11:27:13Z</time>
      </trkpt>
      <trkpt lat="34.09642699174583" lon="-3.23060198687017">
        <ele>613.39999999999998</ele>
        <time>2003-04-13T11:27:18Z</time>
      </trkpt>
      <trkpt lat="34.095427030697465" lon="-3.230653032660484">
        <ele>614</ele>
        <time>2003-04-13T11:27:22Z</time>
      </trkpt>
      <trkpt lat="34.094466967508197" lon="-3.230717992410064">
        <ele>614.79999999999995</ele>
        <time>2003-04-13T11:27:27Z</time>
      </trkpt>
      <trkpt lat="34.093534983694553" lon="-3.230768032371998">
        <ele>615.29999999999995</ele>
        <time>2003-04-13T11:27:33Z</time>
      </trkpt>
      <trkpt lat="34.092577015981078" lon="-3.230825029313564">
        <ele>616.10000000000002</ele>
        <time>2003-04-13T11:27:37Z</time>
      </trkpt>
      <trkpt lat="34.09152802079916" lon="-3.230889989063144">
        <ele>617</ele>
        <time>2003-04-13T11:27:44Z</time>
      </trkpt>
      <trkpt lat="34.090620009228587" lon="-3.230942040681839">
        <ele>617.20000000000005</ele>
        <time>2003-04-13T11:27:49Z</time>
      </trkpt>
      <trkpt lat="34.089587023481727" lon="-3.231008006259799">
        <ele>617.60000000000002</ele>
        <time>2003-04-13T11:27:57Z</time>
      </trkpt>
      <trkpt lat="34.088665014132857" lon="-3.231061985716224">
        <ele>618.5</ele>
        <time>2003-04-13T11:28:03Z</time>
      </trkpt>
      <trkpt lat="34.08774702809751" lon="-3.231119988486171">
        <ele>619.39999999999998</ele>
        <time>2003-04-13T11:28:08Z</time>
      </trkpt>
      <trkpt lat="34.086783025413752" lon="-3.231174973770976">
        <ele>620</ele>
        <time>2003-04-13T11:28:15Z</time>
      </trkpt>
      <trkpt lat="34.085772000253201" lon="-3.231234988197684">
        <ele>620.70000000000005</ele>
        <time>2003-04-13T11:28:20Z</time>
      </trkpt>
      <trkpt lat="34.084692997857928" lon="-3.231300031766295">
        <ele>621.20000000000005</ele>
        <time>2003-04-13T11:28:27Z</time>
      </trkpt>
      <trkpt lat="34.083788003772497" lon="-3.231355017051101">
        <ele>621.79999999999995</ele>
        <time>2003-04-13T11:28:31Z</time>
      </trkpt>
      <trkpt lat="34.082716964185238" lon="-3.231416959315538">
        <ele>622.39999999999998</ele>
        <time>2003-04-13T11:28:38Z</time>
      </trkpt>
      <trkpt lat="34.0816880017519" lon="-3.231479991227388">
        <ele>622.89999999999998</ele>
        <time>2003-04-13T11:28:43Z</time>
      </trkpt>
      <trkpt lat="34.080712012946606" lon="-3.231536988168955">
        <ele>623.39999999999998</ele>
        <time>2003-04-13T11:28:50Z</time>
      </trkpt>
      <trkpt lat="34.079697970300913" lon="-3.231604965403676">
        <ele>623.70000000000005</ele>
        <time>2003-04-13T11:28:55Z</time>
      </trkpt>
      <trkpt lat="34.078666996210814" lon="-3.231658022850752">
        <ele>622.70000000000005</ele>
        <time>2003-04-13T11:29:02Z</time>
      </trkpt>
      <trkpt lat="34.077699976041913" lon="-3.231722982600331">
        <ele>622</ele>
        <time>2003-04-13T11:29:07Z</time>
      </trkpt>
      <trkpt lat="34.076677970588207" lon="-3.23178299702704">
        <ele>623.39999999999998</ele>
        <time>2003-04-13T11:29:14Z</time>
      </trkpt>
      <trkpt lat="34.075595028698444" lon="-3.231843011453748">
        <ele>625.89999999999998</ele>
        <time>2003-04-13T11:29:20Z</time>
      </trkpt>
      <trkpt lat="34.074572017416358" lon="-3.23191199451685">
        <ele>627.20000000000005</ele>
        <time>2003-04-13T11:29:25Z</time>
      </trkpt>
      <trkpt lat="34.073555041104555" lon="-3.231969997286797">
        <ele>628.5</ele>
        <time>2003-04-13T11:29:32Z</time>
      </trkpt>
      <trkpt lat="34.072497999295592" lon="-3.232037974521518">
        <ele>629.60000000000002</ele>
        <time>2003-04-13T11:29:37Z</time>
      </trkpt>
      <trkpt lat="34.071582024917006" lon="-3.23208499699831">
        <ele>630.39999999999998</ele>
        <time>2003-04-13T11:29:42Z</time>
      </trkpt>
      <trkpt lat="34.070564964786172" lon="-3.232156997546554">
        <ele>630.89999999999998</ele>
        <time>2003-04-13T11:29:49Z</time>
      </trkpt>
      <trkpt lat="34.069644967094064" lon="-3.232199996709824">
        <ele>631.60000000000002</ele>
        <time>2003-04-13T11:29:53Z</time>
      </trkpt>
      <trkpt lat="34.068981958553195" lon="-3.232262022793293">
        <ele>632.20000000000005</ele>
        <time>2003-04-13T11:29:57Z</time>
      </trkpt>
      <trkpt lat="34.067946961149573" lon="-3.232309967279434">
        <ele>633.20000000000005</ele>
        <time>2003-04-13T11:30:04Z</time>
      </trkpt>
      <trkpt lat="34.067008020356297" lon="-3.232357995584607">
        <ele>633.70000000000005</ele>
        <time>2003-04-13T11:30:11Z</time>
      </trkpt>
      <trkpt lat="34.065981991589069" lon="-3.23242798447609">
        <ele>634.60000000000002</ele>
        <time>2003-04-13T11:30:16Z</time>
      </trkpt>
      <trkpt lat="34.064897960051894" lon="-3.232490010559559">
        <ele>635.39999999999998</ele>
        <time>2003-04-13T11:30:23Z</time>
      </trkpt>
      <trkpt lat="34.063969999551773" lon="-3.232548013329506">
        <ele>635.89999999999998</ele>
        <time>2003-04-13T11:30:27Z</time>
      </trkpt>
      <trkpt lat="34.063067017123103" lon="-3.232597969472408">
        <ele>636.79999999999995</ele>
        <time>2003-04-13T11:30:32Z</time>
      </trkpt>
      <trkpt lat="34.062156993895769" lon="-3.232653038576245">
        <ele>637.5</ele>
        <time>2003-04-13T11:30:38Z</time>
      </trkpt>
      <trkpt lat="34.061249988153577" lon="-3.232702994719148">
        <ele>638.29999999999995</ele>
        <time>2003-04-13T11:30:43Z</time>
      </trkpt>
      <trkpt lat="34.060263019055128" lon="-3.232767032459378">
        <ele>638.70000000000005</ele>
        <time>2003-04-13T11:30:49Z</time>
      </trkpt>
      <trkpt lat="34.059197008609772" lon="-3.232829980552197">
        <ele>639.5</ele>
        <time>2003-04-13T11:30:54Z</time>
      </trkpt>
      <trkpt lat="34.058237029239535" lon="-3.232882032170892">
        <ele>640.10000000000002</ele>
        <time>2003-04-13T11:31:01Z</time>
      </trkpt>
      <trkpt lat="34.057251987978816" lon="-3.232940034940839">
        <ele>641</ele>
        <time>2003-04-13T11:31:06Z</time>
      </trkpt>
      <trkpt lat="34.056214978918433" lon="-3.232998037710786">
        <ele>642.10000000000002</ele>
        <time>2003-04-13T11:31:13Z</time>
      </trkpt>
      <trkpt lat="34.055285006761551" lon="-3.233052017167211">
        <ele>642.89999999999998</ele>
        <time>2003-04-13T11:31:17Z</time>
      </trkpt>
      <trkpt lat="34.054385041818023" lon="-3.233112031593919">
        <ele>643.60000000000002</ele>
        <time>2003-04-13T11:31:22Z</time>
      </trkpt>
      <trkpt lat="34.053306961432099" lon="-3.233171962201595">
        <ele>644.60000000000002</ele>
        <time>2003-04-13T11:31:29Z</time>
      </trkpt>
      <trkpt lat="34.052227959036827" lon="-3.233242034912109">
        <ele>645.60000000000002</ele>
        <time>2003-04-13T11:31:35Z</time>
      </trkpt>
      <trkpt lat="34.051320031285286" lon="-3.233302971348167">
        <ele>644.89999999999998</ele>
        <time>2003-04-13T11:31:40Z</time>
      </trkpt>
      <trkpt lat="34.050888027995825" lon="-3.233343036845326">
        <ele>643.79999999999995</ele>
        <time>2003-04-13T11:31:43Z</time>
      </trkpt>
      <trkpt lat="34.050697004422545" lon="-3.233391987159848">
        <ele>642.79999999999995</ele>
        <time>2003-04-13T11:31:44Z</time>
      </trkpt>
      <trkpt lat="34.050579993054271" lon="-3.233401961624622">
        <ele>642.20000000000005</ele>
        <time>2003-04-13T11:31:47Z</time>
      </trkpt>
      <trkpt lat="34.050446972250938" lon="-3.233402967453003">
        <ele>641.79999999999995</ele>
        <time>2003-04-13T11:31:52Z</time>
      </trkpt>
      <trkpt lat="34.050268018618226" lon="-3.233398022130132">
        <ele>641.20000000000005</ele>
        <time>2003-04-13T11:31:56Z</time>
      </trkpt>
      <trkpt lat="34.050101973116398" lon="-3.233442027121782">
        <ele>640.60000000000002</ele>
        <time>2003-04-13T11:31:57Z</time>
      </trkpt>
      <trkpt lat="34.049908015877008" lon="-3.233474968001247">
        <ele>640.10000000000002</ele>
        <time>2003-04-13T11:32:00Z</time>
      </trkpt>
      <trkpt lat="34.049145011231303" lon="-3.23358996771276">
        <ele>638</ele>
        <time>2003-04-13T11:32:07Z</time>
      </trkpt>
      <trkpt lat="34.04853698797524" lon="-3.233717037364841">
        <ele>638.10000000000002</ele>
        <time>2003-04-13T11:32:12Z</time>
      </trkpt>
      <trkpt lat="34.04797799885273" lon="-3.233849974349141">
        <ele>639.39999999999998</ele>
        <time>2003-04-13T11:32:18Z</time>
      </trkpt>
      <trkpt lat="34.047079961746931" lon="-3.23406002484262">
        <ele>641.79999999999995</ele>
        <time>2003-04-13T11:32:26Z</time>
      </trkpt>
      <trkpt lat="34.046167004853487" lon="-3.234335035085678">
        <ele>644.89999999999998</ele>
        <time>2003-04-13T11:32:33Z</time>
      </trkpt>
      <trkpt lat="34.045218005776405" lon="-3.234665030613542">
        <ele>647.29999999999995</ele>
        <time>2003-04-13T11:32:39Z</time>
      </trkpt>
      <trkpt lat="34.044340001419187" lon="-3.235012041404843">
        <ele>649.29999999999995</ele>
        <time>2003-04-13T11:32:46Z</time>
      </trkpt>
      <trkpt lat="34.043420003727078" lon="-3.235425017774105">
        <ele>649.89999999999998</ele>
        <time>2003-04-13T11:32:51Z</time>
      </trkpt>
      <trkpt lat="34.042424988001585" lon="-3.235917035490274">
        <ele>649.79999999999995</ele>
        <time>2003-04-13T11:32:58Z</time>
      </trkpt>
      <trkpt lat="34.041572967544198" lon="-3.236384997144342">
        <ele>649.89999999999998</ele>
        <time>2003-04-13T11:33:02Z</time>
      </trkpt>
      <trkpt lat="34.040711978450418" lon="-3.236884977668524">
        <ele>650</ele>
        <time>2003-04-13T11:33:08Z</time>
      </trkpt>
      <trkpt lat="34.039906980469823" lon="-3.237370038405061">
        <ele>650.20000000000005</ele>
        <time>2003-04-13T11:33:13Z</time>
      </trkpt>
      <trkpt lat="34.039759961888194" lon="-3.237486965954304">
        <ele>650.10000000000002</ele>
        <time>2003-04-13T11:33:13Z</time>
      </trkpt>
      <trkpt lat="34.038999974727631" lon="-3.23807998560369">
        <ele>651.29999999999995</ele>
        <time>2003-04-13T11:33:18Z</time>
      </trkpt>
      <trkpt lat="34.038130016997457" lon="-3.238748023286462">
        <ele>653</ele>
        <time>2003-04-13T11:33:25Z</time>
      </trkpt>
      <trkpt lat="34.03738503344357" lon="-3.239357974380255">
        <ele>654.20000000000005</ele>
        <time>2003-04-13T11:33:29Z</time>
      </trkpt>
      <trkpt lat="34.036654969677329" lon="-3.240017965435982">
        <ele>655.39999999999998</ele>
        <time>2003-04-13T11:33:35Z</time>
      </trkpt>
      <trkpt lat="34.035905040800571" lon="-3.240745011717081">
        <ele>656.70000000000005</ele>
        <time>2003-04-13T11:33:40Z</time>
      </trkpt>
      <trkpt lat="34.035147987306118" lon="-3.241504998877645">
        <ele>657.60000000000002</ele>
        <time>2003-04-13T11:33:44Z</time>
      </trkpt>
      <trkpt lat="34.034432005137205" lon="-3.242228021845222">
        <ele>657.79999999999995</ele>
        <time>2003-04-13T11:33:50Z</time>
      </trkpt>
      <trkpt lat="34.03369003906846" lon="-3.242992032319307">
        <ele>658.29999999999995</ele>
        <time>2003-04-13T11:33:55Z</time>
      </trkpt>
      <trkpt lat="34.032952012494206" lon="-3.243737015873194">
        <ele>658.70000000000005</ele>
        <time>2003-04-13T11:33:59Z</time>
      </trkpt>
      <trkpt lat="34.032222032546997" lon="-3.244476970285177">
        <ele>659.10000000000002</ele>
        <time>2003-04-13T11:34:04Z</time>
      </trkpt>
      <trkpt lat="34.031530022621155" lon="-3.245175015181303">
        <ele>660.20000000000005</ele>
        <time>2003-04-13T11:34:10Z</time>
      </trkpt>
      <trkpt lat="34.030732987448573" lon="-3.245983030647039">
        <ele>661.5</ele>
        <time>2003-04-13T11:34:15Z</time>
      </trkpt>
      <trkpt lat="34.030272988602519" lon="-3.246443029493094">
        <ele>662.39999999999998</ele>
        <time>2003-04-13T11:34:19Z</time>
      </trkpt>
      <trkpt lat="34.029502021148801" lon="-3.247227994725108">
        <ele>663.39999999999998</ele>
        <time>2003-04-13T11:34:26Z</time>
      </trkpt>
      <trkpt lat="34.028719989582896" lon="-3.248022012412548">
        <ele>664.29999999999995</ele>
        <time>2003-04-13T11:34:33Z</time>
      </trkpt>
      <trkpt lat="34.028023034334183" lon="-3.248731959611177">
        <ele>664.79999999999995</ele>
        <time>2003-04-13T11:34:38Z</time>
      </trkpt>
      <trkpt lat="34.027297999709845" lon="-3.249460011720657">
        <ele>665.29999999999995</ele>
        <time>2003-04-13T11:34:42Z</time>
      </trkpt>
      <trkpt lat="34.026567013934255" lon="-3.250204995274544">
        <ele>666</ele>
        <time>2003-04-13T11:34:48Z</time>
      </trkpt>
      <trkpt lat="34.025924960151315" lon="-3.250897005200386">
        <ele>666.39999999999998</ele>
        <time>2003-04-13T11:34:53Z</time>
      </trkpt>
      <trkpt lat="34.025565041229129" lon="-3.251242004334927">
        <ele>666.70000000000005</ele>
        <time>2003-04-13T11:34:56Z</time>
      </trkpt>
      <trkpt lat="34.024747973307967" lon="-3.252050019800663">
        <ele>667.60000000000002</ele>
        <time>2003-04-13T11:35:01Z</time>
      </trkpt>
      <trkpt lat="34.024011958390474" lon="-3.252797015011311">
        <ele>668.20000000000005</ele>
        <time>2003-04-13T11:35:06Z</time>
      </trkpt>
      <trkpt lat="34.023273009806871" lon="-3.25354996137321">
        <ele>668.89999999999998</ele>
        <time>2003-04-13T11:35:12Z</time>
      </trkpt>
      <trkpt lat="34.02256297878921" lon="-3.254274995997548">
        <ele>669.60000000000002</ele>
        <time>2003-04-13T11:35:16Z</time>
      </trkpt>
      <trkpt lat="34.021823024377227" lon="-3.255021991208196">
        <ele>670.39999999999998</ele>
        <time>2003-04-13T11:35:21Z</time>
      </trkpt>
      <trkpt lat="34.021087009459734" lon="-3.255763035267592">
        <ele>670.89999999999998</ele>
        <time>2003-04-13T11:35:27Z</time>
      </trkpt>
      <trkpt lat="34.020347977057099" lon="-3.256517993286252">
        <ele>671.70000000000005</ele>
        <time>2003-04-13T11:35:32Z</time>
      </trkpt>
      <trkpt lat="34.019611962139606" lon="-3.257272029295564">
        <ele>671.89999999999998</ele>
        <time>2003-04-13T11:35:36Z</time>
      </trkpt>
      <trkpt lat="34.018854992464185" lon="-3.258045008406043">
        <ele>672.10000000000002</ele>
        <time>2003-04-13T11:35:42Z</time>
      </trkpt>
      <trkpt lat="34.01813498698175" lon="-3.258787980303168">
        <ele>672.5</ele>
        <time>2003-04-13T11:35:47Z</time>
      </trkpt>
      <trkpt lat="34.017450017854571" lon="-3.259506979957223">
        <ele>672.70000000000005</ele>
        <time>2003-04-13T11:35:51Z</time>
      </trkpt>
      <trkpt lat="34.017250025644898" lon="-3.259718036279082">
        <ele>672.79999999999995</ele>
        <time>2003-04-13T11:35:54Z</time>
      </trkpt>
      <trkpt lat="34.01697501540184" lon="-3.25999497435987">
        <ele>673.20000000000005</ele>
        <time>2003-04-13T11:35:56Z</time>
      </trkpt>
      <trkpt lat="34.016634961590171" lon="-3.260311977937818">
        <ele>673.5</ele>
        <time>2003-04-13T11:35:59Z</time>
      </trkpt>
      <trkpt lat="34.015979999676347" lon="-3.260980015620589">
        <ele>673.5</ele>
        <time>2003-04-13T11:36:05Z</time>
      </trkpt>
      <trkpt lat="34.01525697670877" lon="-3.261730028316379">
        <ele>673.60000000000002</ele>
        <time>2003-04-13T11:36:10Z</time>
      </trkpt>
      <trkpt lat="34.014533031731844" lon="-3.262457996606827">
        <ele>674</ele>
        <time>2003-04-13T11:36:14Z</time>
      </trkpt>
      <trkpt lat="34.013706995174289" lon="-3.263304987922311">
        <ele>673.79999999999995</ele>
        <time>2003-04-13T11:36:21Z</time>
      </trkpt>
      <trkpt lat="34.012967040762305" lon="-3.264045026153326">
        <ele>674.29999999999995</ele>
        <time>2003-04-13T11:36:26Z</time>
      </trkpt>
      <trkpt lat="34.012202024459839" lon="-3.264824962243438">
        <ele>674.79999999999995</ele>
        <time>2003-04-13T11:36:30Z</time>
      </trkpt>
      <trkpt lat="34.011429967358708" lon="-3.265617974102497">
        <ele>675.10000000000002</ele>
        <time>2003-04-13T11:36:37Z</time>
      </trkpt>
      <trkpt lat="34.010656988248229" lon="-3.266387013718486">
        <ele>675.5</ele>
        <time>2003-04-13T11:36:41Z</time>
      </trkpt>
      <trkpt lat="34.009962966665626" lon="-3.267092015594244">
        <ele>676</ele>
        <time>2003-04-13T11:36:45Z</time>
      </trkpt>
      <trkpt lat="34.009228041395545" lon="-3.267800034955144">
        <ele>676.29999999999995</ele>
        <time>2003-04-13T11:36:52Z</time>
      </trkpt>
      <trkpt lat="34.008708028122783" lon="-3.268177974969149">
        <ele>676.60000000000002</ele>
        <time>2003-04-13T11:36:54Z</time>
      </trkpt>
      <trkpt lat="34.008133029565215" lon="-3.268464971333742">
        <ele>676.79999999999995</ele>
        <time>2003-04-13T11:36:57Z</time>
      </trkpt>
      <trkpt lat="34.007332976907492" lon="-3.268694970756769">
        <ele>676.60000000000002</ele>
        <time>2003-04-13T11:37:01Z</time>
      </trkpt>
      <trkpt lat="34.006296973675489" lon="-3.268852969631553">
        <ele>677.20000000000005</ele>
        <time>2003-04-13T11:37:07Z</time>
      </trkpt>
      <trkpt lat="34.005343029275537" lon="-3.269033012911677">
        <ele>677.60000000000002</ele>
        <time>2003-04-13T11:37:12Z</time>
      </trkpt>
      <trkpt lat="34.00432001799345" lon="-3.26921003870666">
        <ele>677.89999999999998</ele>
        <time>2003-04-13T11:37:17Z</time>
      </trkpt>
      <trkpt lat="34.003259958699346" lon="-3.26942696236074">
        <ele>678.5</ele>
        <time>2003-04-13T11:37:24Z</time>
      </trkpt>
      <trkpt lat="34.00234499014914" lon="-3.269742038100958">
        <ele>678.29999999999995</ele>
        <time>2003-04-13T11:37:28Z</time>
      </trkpt>
      <trkpt lat="34.001473020762205" lon="-3.270136993378401">
        <ele>678.70000000000005</ele>
        <time>2003-04-13T11:37:34Z</time>
      </trkpt>
      <trkpt lat="34.000595016404986" lon="-3.270722972229123">
        <ele>679.29999999999995</ele>
        <time>2003-04-13T11:37:39Z</time>
      </trkpt>
      <trkpt lat="33.999739978462458" lon="-3.271412970498204">
        <ele>679.29999999999995</ele>
        <time>2003-04-13T11:37:46Z</time>
      </trkpt>
      <trkpt lat="33.999045034870505" lon="-3.272144962102175">
        <ele>678.10000000000002</ele>
        <time>2003-04-13T11:37:51Z</time>
      </trkpt>
      <trkpt lat="33.998397029936314" lon="-3.272926993668079">
        <ele>676.70000000000005</ele>
        <time>2003-04-13T11:37:55Z</time>
      </trkpt>
      <trkpt lat="33.997795041650534" lon="-3.273777002468705">
        <ele>676.79999999999995</ele>
        <time>2003-04-13T11:38:01Z</time>
      </trkpt>
      <trkpt lat="33.997177965939045" lon="-3.274627011269331">
        <ele>678.20000000000005</ele>
        <time>2003-04-13T11:38:06Z</time>
      </trkpt>
      <trkpt lat="33.996572960168123" lon="-3.275448018684983">
        <ele>678.29999999999995</ele>
        <time>2003-04-13T11:38:10Z</time>
      </trkpt>
      <trkpt lat="33.995886985212564" lon="-3.276386959478259">
        <ele>677.29999999999995</ele>
        <time>2003-04-13T11:38:17Z</time>
      </trkpt>
      <trkpt lat="33.99527502246201" lon="-3.277220036834478">
        <ele>676.20000000000005</ele>
        <time>2003-04-13T11:38:22Z</time>
      </trkpt>
      <trkpt lat="33.99467202834785" lon="-3.27804003842175">
        <ele>675.29999999999995</ele>
        <time>2003-04-13T11:38:26Z</time>
      </trkpt>
      <trkpt lat="33.993967026472092" lon="-3.278992976993322">
        <ele>674.5</ele>
        <time>2003-04-13T11:38:33Z</time>
      </trkpt>
      <trkpt lat="33.993278034031391" lon="-3.279933007434011">
        <ele>674.70000000000005</ele>
        <time>2003-04-13T11:38:38Z</time>
      </trkpt>
      <trkpt lat="33.992666993290186" lon="-3.280772035941482">
        <ele>676.10000000000002</ele>
        <time>2003-04-13T11:38:44Z</time>
      </trkpt>
      <trkpt lat="33.992040026932955" lon="-3.281620033085346">
        <ele>676.70000000000005</ele>
        <time>2003-04-13T11:38:49Z</time>
      </trkpt>
      <trkpt lat="33.99142999202013" lon="-3.282456966117024">
        <ele>674.79999999999995</ele>
        <time>2003-04-13T11:38:53Z</time>
      </trkpt>
      <trkpt lat="33.990728007629514" lon="-3.283403031527996">
        <ele>669.79999999999995</ele>
        <time>2003-04-13T11:39:00Z</time>
      </trkpt>
      <trkpt lat="33.99011998437345" lon="-3.284235019236803">
        <ele>670.5</ele>
        <time>2003-04-13T11:39:04Z</time>
      </trkpt>
      <trkpt lat="33.989490000531077" lon="-3.285083016380668">
        <ele>670.60000000000002</ele>
        <time>2003-04-13T11:39:09Z</time>
      </trkpt>
      <trkpt lat="33.988860016688704" lon="-3.285945011302829">
        <ele>671.39999999999998</ele>
        <time>2003-04-13T11:39:15Z</time>
      </trkpt>
      <trkpt lat="33.988174963742495" lon="-3.286871965974569">
        <ele>671.89999999999998</ele>
        <time>2003-04-13T11:39:20Z</time>
      </trkpt>
      <trkpt lat="33.987574987113476" lon="-3.287692973390222">
        <ele>672.20000000000005</ele>
        <time>2003-04-13T11:39:26Z</time>
      </trkpt>
      <trkpt lat="33.986926982179284" lon="-3.288562009111047">
        <ele>672.89999999999998</ele>
        <time>2003-04-13T11:39:31Z</time>
      </trkpt>
      <trkpt lat="33.98627202026546" lon="-3.289453005418181">
        <ele>674</ele>
        <time>2003-04-13T11:39:35Z</time>
      </trkpt>
      <trkpt lat="33.985593002289534" lon="-3.290390018373728">
        <ele>675</ele>
        <time>2003-04-13T11:39:41Z</time>
      </trkpt>
      <trkpt lat="33.984926976263523" lon="-3.291285037994385">
        <ele>675.5</ele>
        <time>2003-04-13T11:39:46Z</time>
      </trkpt>
      <trkpt lat="33.984288023784757" lon="-3.292149966582656">
        <ele>676.39999999999998</ele>
        <time>2003-04-13T11:39:50Z</time>
      </trkpt>
      <trkpt lat="33.983637001365423" lon="-3.293017996475101">
        <ele>676.89999999999998</ele>
        <time>2003-04-13T11:39:55Z</time>
      </trkpt>
      <trkpt lat="33.983038030564785" lon="-3.293874962255359">
        <ele>678.39999999999998</ele>
        <time>2003-04-13T11:40:01Z</time>
      </trkpt>
      <trkpt lat="33.982669981196523" lon="-3.29460795968771">
        <ele>679.20000000000005</ele>
        <time>2003-04-13T11:40:05Z</time>
      </trkpt>
      <trkpt lat="33.982390025630593" lon="-3.29542201012373">
        <ele>680</ele>
        <time>2003-04-13T11:40:09Z</time>
      </trkpt>
      <trkpt lat="33.982267985120416" lon="-3.296007988974452">
        <ele>680.60000000000002</ele>
        <time>2003-04-13T11:40:12Z</time>
      </trkpt>
      <trkpt lat="33.982187015935779" lon="-3.297050027176738">
        <ele>680.5</ele>
        <time>2003-04-13T11:40:17Z</time>
      </trkpt>
      <trkpt lat="33.982237977907062" lon="-3.298247968778014">
        <ele>683.10000000000002</ele>
        <time>2003-04-13T11:40:22Z</time>
      </trkpt>
      <trkpt lat="33.982294974848628" lon="-3.29950500279665">
        <ele>685.60000000000002</ele>
        <time>2003-04-13T11:40:29Z</time>
      </trkpt>
      <trkpt lat="33.982294974848628" lon="-3.300762036815286">
        <ele>687.89999999999998</ele>
        <time>2003-04-13T11:40:35Z</time>
      </trkpt>
      <trkpt lat="33.982181986793876" lon="-3.301511965692043">
        <ele>689.39999999999998</ele>
        <time>2003-04-13T11:40:39Z</time>
      </trkpt>
      <trkpt lat="33.981994986534119" lon="-3.302187966182828">
        <ele>691</ele>
        <time>2003-04-13T11:40:43Z</time>
      </trkpt>
      <trkpt lat="33.981564994901419" lon="-3.303173007443547">
        <ele>691.79999999999995</ele>
        <time>2003-04-13T11:40:48Z</time>
      </trkpt>
      <trkpt lat="33.981153024360538" lon="-3.3038230240345">
        <ele>691.79999999999995</ele>
        <time>2003-04-13T11:40:53Z</time>
      </trkpt>
      <trkpt lat="33.980817999690771" lon="-3.30421001650393">
        <ele>691.70000000000005</ele>
        <time>2003-04-13T11:40:56Z</time>
      </trkpt>
      <trkpt lat="33.980096988379955" lon="-3.304970003664494">
        <ele>691.5</ele>
        <time>2003-04-13T11:41:03Z</time>
      </trkpt>
      <trkpt lat="33.979377988725901" lon="-3.305720016360283">
        <ele>691.29999999999995</ele>
        <time>2003-04-13T11:41:08Z</time>
      </trkpt>
      <trkpt lat="33.978592017665505" lon="-3.306549992412329">
        <ele>691.10000000000002</ele>
        <time>2003-04-13T11:41:15Z</time>
      </trkpt>
      <trkpt lat="33.977796994149685" lon="-3.307367982342839">
        <ele>691.39999999999998</ele>
        <time>2003-04-13T11:41:22Z</time>
      </trkpt>
      <trkpt lat="33.977046981453896" lon="-3.308168035000563">
        <ele>692</ele>
        <time>2003-04-13T11:41:27Z</time>
      </trkpt>
      <trkpt lat="33.976341979578137" lon="-3.308921987190843">
        <ele>692.60000000000002</ele>
        <time>2003-04-13T11:41:34Z</time>
      </trkpt>
      <trkpt lat="33.975633038207889" lon="-3.309642998501658">
        <ele>693.29999999999995</ele>
        <time>2003-04-13T11:41:39Z</time>
      </trkpt>
      <trkpt lat="33.97488797083497" lon="-3.310423018410802">
        <ele>693.70000000000005</ele>
        <time>2003-04-13T11:41:46Z</time>
      </trkpt>
      <trkpt lat="33.974120020866394" lon="-3.311221981421113">
        <ele>693.79999999999995</ele>
        <time>2003-04-13T11:41:51Z</time>
      </trkpt>
      <trkpt lat="33.973352992907166" lon="-3.312033014371991">
        <ele>693.89999999999998</ele>
        <time>2003-04-13T11:41:58Z</time>
      </trkpt>
      <trkpt lat="33.972547994926572" lon="-3.312867013737559">
        <ele>694</ele>
        <time>2003-04-13T11:42:04Z</time>
      </trkpt>
      <trkpt lat="33.971765041351318" lon="-3.313702018931508">
        <ele>692.89999999999998</ele>
        <time>2003-04-13T11:42:09Z</time>
      </trkpt>
      <trkpt lat="33.9710199739784" lon="-3.314548004418612">
        <ele>692.89999999999998</ele>
        <time>2003-04-13T11:42:16Z</time>
      </trkpt>
      <trkpt lat="33.970267027616501" lon="-3.315431959927082">
        <ele>693</ele>
        <time>2003-04-13T11:42:21Z</time>
      </trkpt>
      <trkpt lat="33.969502011314034" lon="-3.316337959840894">
        <ele>693.10000000000002</ele>
        <time>2003-04-13T11:42:28Z</time>
      </trkpt>
      <trkpt lat="33.968907985836267" lon="-3.317042039707303">
        <ele>693.39999999999998</ele>
        <time>2003-04-13T11:42:32Z</time>
      </trkpt>
      <trkpt lat="33.96818202920258" lon="-3.317907974123955">
        <ele>693.79999999999995</ele>
        <time>2003-04-13T11:42:39Z</time>
      </trkpt>
      <trkpt lat="33.967492030933499" lon="-3.318720012903214">
        <ele>693.79999999999995</ele>
        <time>2003-04-13T11:42:44Z</time>
      </trkpt>
      <trkpt lat="33.966800021007657" lon="-3.319543031975627">
        <ele>693.70000000000005</ele>
        <time>2003-04-13T11:42:48Z</time>
      </trkpt>
      <trkpt lat="33.966107005253434" lon="-3.320358004420996">
        <ele>693.70000000000005</ele>
        <time>2003-04-13T11:42:54Z</time>
      </trkpt>
      <trkpt lat="33.96543201059103" lon="-3.321180017665029">
        <ele>693.70000000000005</ele>
        <time>2003-04-13T11:42:59Z</time>
      </trkpt>
      <trkpt lat="33.964732037857175" lon="-3.322007982060313">
        <ele>693.29999999999995</ele>
        <time>2003-04-13T11:43:03Z</time>
      </trkpt>
      <trkpt lat="33.964017983525991" lon="-3.322832006961107">
        <ele>693.20000000000005</ele>
        <time>2003-04-13T11:43:08Z</time>
      </trkpt>
      <trkpt lat="33.963314993306994" lon="-3.323691990226507">
        <ele>693.39999999999998</ele>
        <time>2003-04-13T11:43:14Z</time>
      </trkpt>
      <trkpt lat="33.962594987824559" lon="-3.324532024562359">
        <ele>693.89999999999998</ele>
        <time>2003-04-13T11:43:19Z</time>
      </trkpt>
      <trkpt lat="33.961877999827266" lon="-3.325395025312901">
        <ele>694.39999999999998</ele>
        <time>2003-04-13T11:43:23Z</time>
      </trkpt>
      <trkpt lat="33.961166962981224" lon="-3.326242016628385">
        <ele>694.79999999999995</ele>
        <time>2003-04-13T11:43:29Z</time>
      </trkpt>
      <trkpt lat="33.960490040481091" lon="-3.327039973810315">
        <ele>694.70000000000005</ele>
        <time>2003-04-13T11:43:34Z</time>
      </trkpt>
      <trkpt lat="33.959746984764934" lon="-3.327914960682392">
        <ele>694.70000000000005</ele>
        <time>2003-04-13T11:43:38Z</time>
      </trkpt>
      <trkpt lat="33.958993032574654" lon="-3.328820038586855">
        <ele>694.89999999999998</ele>
        <time>2003-04-13T11:43:44Z</time>
      </trkpt>
      <trkpt lat="33.9582550060004" lon="-3.329687984660268">
        <ele>695.20000000000005</ele>
        <time>2003-04-13T11:43:49Z</time>
      </trkpt>
      <trkpt lat="33.957512034103274" lon="-3.330568000674248">
        <ele>695.29999999999995</ele>
        <time>2003-04-13T11:43:53Z</time>
      </trkpt>
      <trkpt lat="33.956597987562418" lon="-3.331648008897901">
        <ele>695.20000000000005</ele>
        <time>2003-04-13T11:44:00Z</time>
      </trkpt>
      <trkpt lat="33.95584998652339" lon="-3.332525007426739">
        <ele>695.20000000000005</ele>
        <time>2003-04-13T11:44:05Z</time>
      </trkpt>
      <trkpt lat="33.955131992697716" lon="-3.333377027884126">
        <ele>695.39999999999998</ele>
        <time>2003-04-13T11:44:09Z</time>
      </trkpt>
      <trkpt lat="33.954450041055679" lon="-3.334197029471397">
        <ele>695.60000000000002</ele>
        <time>2003-04-13T11:44:15Z</time>
      </trkpt>
      <trkpt lat="33.953783009201288" lon="-3.334983000531793">
        <ele>695.70000000000005</ele>
        <time>2003-04-13T11:44:20Z</time>
      </trkpt>
      <trkpt lat="33.953137015923858" lon="-3.335748016834259">
        <ele>695.70000000000005</ele>
        <time>2003-04-13T11:44:24Z</time>
      </trkpt>
      <trkpt lat="33.952492028474808" lon="-3.336517978459597">
        <ele>695.89999999999998</ele>
        <time>2003-04-13T11:44:29Z</time>
      </trkpt>
      <trkpt lat="33.951818039640784" lon="-3.337313001975417">
        <ele>696</ele>
        <time>2003-04-13T11:44:35Z</time>
      </trkpt>
      <trkpt lat="33.951147990301251" lon="-3.338112970814109">
        <ele>695.89999999999998</ele>
        <time>2003-04-13T11:44:40Z</time>
      </trkpt>
      <trkpt lat="33.950441982597113" lon="-3.338958034291863">
        <ele>696.10000000000002</ele>
        <time>2003-04-13T11:44:46Z</time>
      </trkpt>
      <trkpt lat="33.949675038456917" lon="-3.339867973700166">
        <ele>696.10000000000002</ele>
        <time>2003-04-13T11:44:51Z</time>
      </trkpt>
      <trkpt lat="33.949007000774145" lon="-3.340659979730845">
        <ele>696</ele>
        <time>2003-04-13T11:44:56Z</time>
      </trkpt>
      <trkpt lat="33.94828800112009" lon="-3.341522980481386">
        <ele>696.10000000000002</ele>
        <time>2003-04-13T11:45:03Z</time>
      </trkpt>
      <trkpt lat="33.947536982595921" lon="-3.34241003729403">
        <ele>696.10000000000002</ele>
        <time>2003-04-13T11:45:09Z</time>
      </trkpt>
      <trkpt lat="33.946774983778596" lon="-3.3433130197227">
        <ele>696.10000000000002</ele>
        <time>2003-04-13T11:45:14Z</time>
      </trkpt>
      <trkpt lat="33.946012984961271" lon="-3.34421499632299">
        <ele>696.20000000000005</ele>
        <time>2003-04-13T11:45:21Z</time>
      </trkpt>
      <trkpt lat="33.94534201361239" lon="-3.345016976818442">
        <ele>696.39999999999998</ele>
        <time>2003-04-13T11:45:26Z</time>
      </trkpt>
      <trkpt lat="33.944637011736631" lon="-3.345851982012391">
        <ele>696.29999999999995</ele>
        <time>2003-04-13T11:45:33Z</time>
      </trkpt>
      <trkpt lat="33.943881969898939" lon="-3.346735015511513">
        <ele>696.39999999999998</ele>
        <time>2003-04-13T11:45:38Z</time>
      </trkpt>
      <trkpt lat="33.943417025730014" lon="-3.347286963835359">
        <ele>696.20000000000005</ele>
        <time>2003-04-13T11:45:42Z</time>
      </trkpt>
      <trkpt lat="33.943260032683611" lon="-3.347479999065399">
        <ele>696.20000000000005</ele>
        <time>2003-04-13T11:45:45Z</time>
      </trkpt>
      <trkpt lat="33.942617978900671" lon="-3.348249960690737">
        <ele>696.39999999999998</ele>
        <time>2003-04-13T11:45:52Z</time>
      </trkpt>
      <trkpt lat="33.941938038915396" lon="-3.349044984206557">
        <ele>696.5</ele>
        <time>2003-04-13T11:45:59Z</time>
      </trkpt>
      <trkpt lat="33.941296990960836" lon="-3.349806983023882">
        <ele>696.5</ele>
        <time>2003-04-13T11:46:04Z</time>
      </trkpt>
      <trkpt lat="33.940567011013627" lon="-3.350684987381101">
        <ele>696.79999999999995</ele>
        <time>2003-04-13T11:46:12Z</time>
      </trkpt>
      <trkpt lat="33.939918000251055" lon="-3.351453021168709">
        <ele>697.10000000000002</ele>
        <time>2003-04-13T11:46:17Z</time>
      </trkpt>
      <trkpt lat="33.939247028902173" lon="-3.352252990007401">
        <ele>697.29999999999995</ele>
        <time>2003-04-13T11:46:24Z</time>
      </trkpt>
      <trkpt lat="33.938579997047782" lon="-3.353044996038079">
        <ele>697.5</ele>
        <time>2003-04-13T11:46:30Z</time>
      </trkpt>
      <trkpt lat="33.937907014042139" lon="-3.353844964876771">
        <ele>697.5</ele>
        <time>2003-04-13T11:46:35Z</time>
      </trkpt>
      <trkpt lat="33.937151972204447" lon="-3.354745013639331">
        <ele>697.60000000000002</ele>
        <time>2003-04-13T11:46:42Z</time>
      </trkpt>
      <trkpt lat="33.93644998781383" lon="-3.355574989691377">
        <ele>697.60000000000002</ele>
        <time>2003-04-13T11:46:47Z</time>
      </trkpt>
      <trkpt lat="33.935735011473298" lon="-3.356442013755441">
        <ele>697.29999999999995</ele>
        <time>2003-04-13T11:46:55Z</time>
      </trkpt>
      <trkpt lat="33.935062028467655" lon="-3.357217004522681">
        <ele>697.39999999999998</ele>
        <time>2003-04-13T11:47:01Z</time>
      </trkpt>
      <trkpt lat="33.934317966923118" lon="-3.358104983344674">
        <ele>697.60000000000002</ele>
        <time>2003-04-13T11:47:06Z</time>
      </trkpt>
      <trkpt lat="33.933544987812638" lon="-3.359007965773344">
        <ele>697.39999999999998</ele>
        <time>2003-04-13T11:47:13Z</time>
      </trkpt>
      <trkpt lat="33.932875022292137" lon="-3.359817992895842">
        <ele>697.29999999999995</ele>
        <time>2003-04-13T11:47:18Z</time>
      </trkpt>
      <trkpt lat="33.932227017357945" lon="-3.360574962571263">
        <ele>697.20000000000005</ele>
        <time>2003-04-13T11:47:22Z</time>
      </trkpt>
      <trkpt lat="33.931557973846793" lon="-3.361373003572226">
        <ele>697.29999999999995</ele>
        <time>2003-04-13T11:47:28Z</time>
      </trkpt>
      <trkpt lat="33.930881973356009" lon="-3.36217699572444">
        <ele>697.10000000000002</ele>
        <time>2003-04-13T11:47:33Z</time>
      </trkpt>
      <trkpt lat="33.930182000622153" lon="-3.363006971776485">
        <ele>697.10000000000002</ele>
        <time>2003-04-13T11:47:37Z</time>
      </trkpt>
      <trkpt lat="33.929480016231537" lon="-3.363837031647563">
        <ele>696.89999999999998</ele>
        <time>2003-04-13T11:47:42Z</time>
      </trkpt>
      <trkpt lat="33.928769985213876" lon="-3.364672036841512">
        <ele>696.70000000000005</ele>
        <time>2003-04-13T11:47:48Z</time>
      </trkpt>
      <trkpt lat="33.928058026358485" lon="-3.365533025935292">
        <ele>696.70000000000005</ele>
        <time>2003-04-13T11:47:52Z</time>
      </trkpt>
      <trkpt lat="33.927341960370541" lon="-3.366359984502196">
        <ele>696.70000000000005</ele>
        <time>2003-04-13T11:47:57Z</time>
      </trkpt>
      <trkpt lat="33.926665037870407" lon="-3.367172023281455">
        <ele>696.79999999999995</ele>
        <time>2003-04-13T11:48:03Z</time>
      </trkpt>
      <trkpt lat="33.925967998802662" lon="-3.36799998767674">
        <ele>696.70000000000005</ele>
        <time>2003-04-13T11:48:08Z</time>
      </trkpt>
      <trkpt lat="33.925242964178324" lon="-3.368862988427281">
        <ele>696.70000000000005</ele>
        <time>2003-04-13T11:48:12Z</time>
      </trkpt>
      <trkpt lat="33.924488006159663" lon="-3.369764965027571">
        <ele>696.79999999999995</ele>
        <time>2003-04-13T11:48:18Z</time>
      </trkpt>
      <trkpt lat="33.923740005120635" lon="-3.370638024061918">
        <ele>696.70000000000005</ele>
        <time>2003-04-13T11:48:23Z</time>
      </trkpt>
      <trkpt lat="33.923032991588116" lon="-3.371483003720641">
        <ele>696.70000000000005</ele>
        <time>2003-04-13T11:48:28Z</time>
      </trkpt>
      <trkpt lat="33.922309968620539" lon="-3.37233804166317">
        <ele>696.79999999999995</ele>
        <time>2003-04-13T11:48:34Z</time>
      </trkpt>
      <trkpt lat="33.921582000330091" lon="-3.373197019100189">
        <ele>696.70000000000005</ele>
        <time>2003-04-13T11:48:39Z</time>
      </trkpt>
      <trkpt lat="33.920907005667686" lon="-3.374003022909164">
        <ele>696.70000000000005</ele>
        <time>2003-04-13T11:48:43Z</time>
      </trkpt>
      <trkpt lat="33.920166967436671" lon="-3.374871974810958">
        <ele>696.79999999999995</ele>
        <time>2003-04-13T11:48:49Z</time>
      </trkpt>
      <trkpt lat="33.919412009418011" lon="-3.375772023573518">
        <ele>696.79999999999995</ele>
        <time>2003-04-13T11:48:54Z</time>
      </trkpt>
      <trkpt lat="33.918667025864124" lon="-3.376642987132072">
        <ele>696.5</ele>
        <time>2003-04-13T11:48:58Z</time>
      </trkpt>
      <trkpt lat="33.917956994846463" lon="-3.377489978447557">
        <ele>696.5</ele>
        <time>2003-04-13T11:49:03Z</time>
      </trkpt>
      <trkpt lat="33.917249981313944" lon="-3.378328001126647">
        <ele>696.70000000000005</ele>
        <time>2003-04-13T11:49:09Z</time>
      </trkpt>
      <trkpt lat="33.916520001366735" lon="-3.37919301353395">
        <ele>697.10000000000002</ele>
        <time>2003-04-13T11:49:13Z</time>
      </trkpt>
      <trkpt lat="33.915766971185803" lon="-3.380091972649097">
        <ele>698.10000000000002</ele>
        <time>2003-04-13T11:49:18Z</time>
      </trkpt>
      <trkpt lat="33.914987035095692" lon="-3.381007025018334">
        <ele>698.79999999999995</ele>
        <time>2003-04-13T11:49:24Z</time>
      </trkpt>
      <trkpt lat="33.914187988266349" lon="-3.381959963589907">
        <ele>699.39999999999998</ele>
        <time>2003-04-13T11:49:29Z</time>
      </trkpt>
      <trkpt lat="33.913511987775564" lon="-3.382766973227263">
        <ele>699.5</ele>
        <time>2003-04-13T11:49:33Z</time>
      </trkpt>
      <trkpt lat="33.912851996719837" lon="-3.383546993136406">
        <ele>700.79999999999995</ele>
        <time>2003-04-13T11:49:37Z</time>
      </trkpt>
      <trkpt lat="33.912159986793995" lon="-3.384304968640208">
        <ele>702.20000000000005</ele>
        <time>2003-04-13T11:49:40Z</time>
      </trkpt>
      <trkpt lat="33.911422966048121" lon="-3.384966971352696">
        <ele>703.79999999999995</ele>
        <time>2003-04-13T11:49:44Z</time>
      </trkpt>
      <trkpt lat="33.910486958920956" lon="-3.385717989876866">
        <ele>705</ele>
        <time>2003-04-13T11:49:49Z</time>
      </trkpt>
      <trkpt lat="33.909735018387437" lon="-3.386345040053129">
        <ele>705.5</ele>
        <time>2003-04-13T11:49:53Z</time>
      </trkpt>
      <trkpt lat="33.908973019570112" lon="-3.38697200641036">
        <ele>706.29999999999995</ele>
        <time>2003-04-13T11:49:57Z</time>
      </trkpt>
      <trkpt lat="33.908202974125743" lon="-3.387602996081114">
        <ele>707.20000000000005</ele>
        <time>2003-04-13T11:50:02Z</time>
      </trkpt>
      <trkpt lat="33.907450027763844" lon="-3.388227028772235">
        <ele>707.79999999999995</ele>
        <time>2003-04-13T11:50:06Z</time>
      </trkpt>
      <trkpt lat="33.906546961516142" lon="-3.388979975134134">
        <ele>708.70000000000005</ele>
        <time>2003-04-13T11:50:11Z</time>
      </trkpt>
      <trkpt lat="33.905640039592981" lon="-3.389724958688021">
        <ele>710.79999999999995</ele>
        <time>2003-04-13T11:50:15Z</time>
      </trkpt>
      <trkpt lat="33.904890026897192" lon="-3.390331976115704">
        <ele>712.10000000000002</ele>
        <time>2003-04-13T11:50:19Z</time>
      </trkpt>
      <trkpt lat="33.904131967574358" lon="-3.390972018241882">
        <ele>713.39999999999998</ele>
        <time>2003-04-13T11:50:23Z</time>
      </trkpt>
      <trkpt lat="33.903354965150356" lon="-3.391607031226158">
        <ele>713.89999999999998</ele>
        <time>2003-04-13T11:50:27Z</time>
      </trkpt>
      <trkpt lat="33.90258802101016" lon="-3.392237015068531">
        <ele>714.20000000000005</ele>
        <time>2003-04-13T11:50:31Z</time>
      </trkpt>
      <trkpt lat="33.901842031627893" lon="-3.39285995811224">
        <ele>714.79999999999995</ele>
        <time>2003-04-13T11:50:35Z</time>
      </trkpt>
      <trkpt lat="33.900927985087037" lon="-3.393612988293171">
        <ele>716</ele>
        <time>2003-04-13T11:50:41Z</time>
      </trkpt>
      <trkpt lat="33.900017039850354" lon="-3.394314972683787">
        <ele>716.10000000000002</ele>
        <time>2003-04-13T11:50:46Z</time>
      </trkpt>
      <trkpt lat="33.899065023288131" lon="-3.394968006759882">
        <ele>715.60000000000002</ele>
        <time>2003-04-13T11:50:50Z</time>
      </trkpt>
      <trkpt lat="33.898128010332584" lon="-3.39563000947237">
        <ele>716.60000000000002</ele>
        <time>2003-04-13T11:50:56Z</time>
      </trkpt>
      <trkpt lat="33.897232990711927" lon="-3.396241972222924">
        <ele>717</ele>
        <time>2003-04-13T11:51:01Z</time>
      </trkpt>
      <trkpt lat="33.896333025768399" lon="-3.396892994642258">
        <ele>717.39999999999998</ele>
        <time>2003-04-13T11:51:05Z</time>
      </trkpt>
      <trkpt lat="33.895437000319362" lon="-3.397500012069941">
        <ele>717.89999999999998</ele>
        <time>2003-04-13T11:51:10Z</time>
      </trkpt>
      <trkpt lat="33.894507028162479" lon="-3.398141982033849">
        <ele>718.10000000000002</ele>
        <time>2003-04-13T11:51:16Z</time>
      </trkpt>
      <trkpt lat="33.893597004935145" lon="-3.398791998624802">
        <ele>718</ele>
        <time>2003-04-13T11:51:21Z</time>
      </trkpt>
      <trkpt lat="33.893144968897104" lon="-3.399121994152665">
        <ele>717.79999999999995</ele>
        <time>2003-04-13T11:51:24Z</time>
      </trkpt>
      <trkpt lat="33.892884962260723" lon="-3.399297008290887">
        <ele>717.60000000000002</ele>
        <time>2003-04-13T11:51:25Z</time>
      </trkpt>
      <trkpt lat="33.892002012580633" lon="-3.399917017668486">
        <ele>717.89999999999998</ele>
        <time>2003-04-13T11:51:32Z</time>
      </trkpt>
      <trkpt lat="33.891161978244781" lon="-3.400490004569292">
        <ele>718.39999999999998</ele>
        <time>2003-04-13T11:51:36Z</time>
      </trkpt>
      <trkpt lat="33.890265030786395" lon="-3.401114959269762">
        <ele>718.79999999999995</ele>
        <time>2003-04-13T11:51:41Z</time>
      </trkpt>
      <trkpt lat="33.889307985082269" lon="-3.40177696198225">
        <ele>719.10000000000002</ele>
        <time>2003-04-13T11:51:47Z</time>
      </trkpt>
      <trkpt lat="33.8884930126369" lon="-3.402345003560185">
        <ele>718.89999999999998</ele>
        <time>2003-04-13T11:51:51Z</time>
      </trkpt>
      <trkpt lat="33.887530015781522" lon="-3.403023015707731">
        <ele>717</ele>
        <time>2003-04-13T11:51:55Z</time>
      </trkpt>
      <trkpt lat="33.886723006144166" lon="-3.403573036193848">
        <ele>715.70000000000005</ele>
        <time>2003-04-13T11:51:59Z</time>
      </trkpt>
      <trkpt lat="33.885918008163571" lon="-3.404148034751415">
        <ele>717.89999999999998</ele>
        <time>2003-04-13T11:52:03Z</time>
      </trkpt>
      <trkpt lat="33.885092977434397" lon="-3.404722027480602">
        <ele>717.10000000000002</ele>
        <time>2003-04-13T11:52:07Z</time>
      </trkpt>
      <trkpt lat="33.884227965027094" lon="-3.405322004109621">
        <ele>714.79999999999995</ele>
        <time>2003-04-13T11:52:11Z</time>
      </trkpt>
      <trkpt lat="33.883351972326636" lon="-3.40592298656702">
        <ele>711.70000000000005</ele>
        <time>2003-04-13T11:52:15Z</time>
      </trkpt>
      <trkpt lat="33.882549991831183" lon="-3.406484993174672">
        <ele>714.29999999999995</ele>
        <time>2003-04-13T11:52:19Z</time>
      </trkpt>
      <trkpt lat="33.881577020511031" lon="-3.407172979786992">
        <ele>716.79999999999995</ele>
        <time>2003-04-13T11:52:25Z</time>
      </trkpt>
      <trkpt lat="33.880779985338449" lon="-3.40772501192987">
        <ele>720.5</ele>
        <time>2003-04-13T11:52:29Z</time>
      </trkpt>
      <trkpt lat="33.879987979307771" lon="-3.408287018537521">
        <ele>721.70000000000005</ele>
        <time>2003-04-13T11:52:33Z</time>
      </trkpt>
      <trkpt lat="33.879173006862402" lon="-3.408850030973554">
        <ele>722.79999999999995</ele>
        <time>2003-04-13T11:52:37Z</time>
      </trkpt>
      <trkpt lat="33.878347976133227" lon="-3.409417988732457">
        <ele>724</ele>
        <time>2003-04-13T11:52:41Z</time>
      </trkpt>
      <trkpt lat="33.877556975930929" lon="-3.40998200699687">
        <ele>725</ele>
        <time>2003-04-13T11:52:45Z</time>
      </trkpt>
      <trkpt lat="33.876598002389073" lon="-3.410652978345752">
        <ele>720.5</ele>
        <time>2003-04-13T11:52:49Z</time>
      </trkpt>
      <trkpt lat="33.876070026308298" lon="-3.411111971363425">
        <ele>717.70000000000005</ele>
        <time>2003-04-13T11:52:53Z</time>
      </trkpt>
      <trkpt lat="33.875787975266576" lon="-3.411487983539701">
        <ele>715.89999999999998</ele>
        <time>2003-04-13T11:52:54Z</time>
      </trkpt>
      <trkpt lat="33.87536502443254" lon="-3.412247970700264">
        <ele>712.29999999999995</ele>
        <time>2003-04-13T11:52:58Z</time>
      </trkpt>
      <trkpt lat="33.874962022528052" lon="-3.412884995341301">
        <ele>709.29999999999995</ele>
        <time>2003-04-13T11:53:02Z</time>
      </trkpt>
      <trkpt lat="33.874820033088326" lon="-3.412981973960996">
        <ele>708.60000000000002</ele>
        <time>2003-04-13T11:53:04Z</time>
      </trkpt>
      <trkpt lat="33.874666979536414" lon="-3.413041988387704">
        <ele>707.79999999999995</ele>
        <time>2003-04-13T11:53:05Z</time>
      </trkpt>
      <trkpt lat="33.874137997627258" lon="-3.413163023069501">
        <ele>705.5</ele>
        <time>2003-04-13T11:53:08Z</time>
      </trkpt>
      <trkpt lat="33.873211964964867" lon="-3.413401991128922">
        <ele>705.60000000000002</ele>
        <time>2003-04-13T11:53:13Z</time>
      </trkpt>
      <trkpt lat="33.872285010293126" lon="-3.413612963631749">
        <ele>710.70000000000005</ele>
        <time>2003-04-13T11:53:17Z</time>
      </trkpt>
      <trkpt lat="33.871953003108501" lon="-3.41365504078567">
        <ele>713.5</ele>
        <time>2003-04-13T11:53:20Z</time>
      </trkpt>
      <trkpt lat="33.871619990095496" lon="-3.413632996380329">
        <ele>715.5</ele>
        <time>2003-04-13T11:53:21Z</time>
      </trkpt>
      <trkpt lat="33.870556997135282" lon="-3.413544986397028">
        <ele>721.70000000000005</ele>
        <time>2003-04-13T11:53:28Z</time>
      </trkpt>
      <trkpt lat="33.86965200304985" lon="-3.413469968363643">
        <ele>721</ele>
        <time>2003-04-13T11:53:32Z</time>
      </trkpt>
      <trkpt lat="33.869108017534018" lon="-3.413454964756966">
        <ele>718.89999999999998</ele>
        <time>2003-04-13T11:53:36Z</time>
      </trkpt>
      <trkpt lat="33.868807023391128" lon="-3.413537023589015">
        <ele>718.29999999999995</ele>
        <time>2003-04-13T11:53:38Z</time>
      </trkpt>
      <trkpt lat="33.868672996759415" lon="-3.413626961410046">
        <ele>718.10000000000002</ele>
        <time>2003-04-13T11:53:39Z</time>
      </trkpt>
      <trkpt lat="33.868547016754746" lon="-3.413753025233746">
        <ele>716.79999999999995</ele>
        <time>2003-04-13T11:53:40Z</time>
      </trkpt>
      <trkpt lat="33.868433022871614" lon="-3.413910018280149">
        <ele>716.29999999999995</ele>
        <time>2003-04-13T11:53:40Z</time>
      </trkpt>
      <trkpt lat="33.86778200045228" lon="-3.414847031235695">
        <ele>718.79999999999995</ele>
        <time>2003-04-13T11:53:47Z</time>
      </trkpt>
      <trkpt lat="33.867657026275992" lon="-3.414926994591951">
        <ele>719.70000000000005</ele>
        <time>2003-04-13T11:53:47Z</time>
      </trkpt>
      <trkpt lat="33.867512019351125" lon="-3.414977034553886">
        <ele>720.29999999999995</ele>
        <time>2003-04-13T11:53:48Z</time>
      </trkpt>
      <trkpt lat="33.866612976416945" lon="-3.415384981781244">
        <ele>724</ele>
        <time>2003-04-13T11:53:55Z</time>
      </trkpt>
      <trkpt lat="33.865766990929842" lon="-3.41578203253448">
        <ele>728.29999999999995</ele>
        <time>2003-04-13T11:54:00Z</time>
      </trkpt>
      <trkpt lat="33.864814974367619" lon="-3.416270026937127">
        <ele>731</ele>
        <time>2003-04-13T11:54:07Z</time>
      </trkpt>
      <trkpt lat="33.863951973617077" lon="-3.416933035477996">
        <ele>727.79999999999995</ele>
        <time>2003-04-13T11:54:13Z</time>
      </trkpt>
      <trkpt lat="33.86333498172462" lon="-3.417354980483651">
        <ele>722.39999999999998</ele>
        <time>2003-04-13T11:54:17Z</time>
      </trkpt>
      <trkpt lat="33.862822009250522" lon="-3.417538041248918">
        <ele>719.5</ele>
        <time>2003-04-13T11:54:19Z</time>
      </trkpt>
      <trkpt lat="33.861917015165091" lon="-3.417853033170104">
        <ele>716.60000000000002</ele>
        <time>2003-04-13T11:54:25Z</time>
      </trkpt>
      <trkpt lat="33.861560029909015" lon="-3.418044978752732">
        <ele>716.20000000000005</ele>
        <time>2003-04-13T11:54:26Z</time>
      </trkpt>
      <trkpt lat="33.86122802272439" lon="-3.418297022581101">
        <ele>715.89999999999998</ele>
        <time>2003-04-13T11:54:29Z</time>
      </trkpt>
      <trkpt lat="33.860942032188177" lon="-3.418612014502287">
        <ele>715.39999999999998</ele>
        <time>2003-04-13T11:54:30Z</time>
      </trkpt>
      <trkpt lat="33.860577000305057" lon="-3.419163040816784">
        <ele>712.79999999999995</ele>
        <time>2003-04-13T11:54:34Z</time>
      </trkpt>
      <trkpt lat="33.860005019232631" lon="-3.42010298743844">
        <ele>713.60000000000002</ele>
        <time>2003-04-13T11:54:38Z</time>
      </trkpt>
      <trkpt lat="33.859436977654696" lon="-3.421040000393987">
        <ele>719.60000000000002</ele>
        <time>2003-04-13T11:54:44Z</time>
      </trkpt>
      <trkpt lat="33.85886499658227" lon="-3.421959998086095">
        <ele>724.89999999999998</ele>
        <time>2003-04-13T11:54:49Z</time>
      </trkpt>
      <trkpt lat="33.858301984146237" lon="-3.422853006049991">
        <ele>727.5</ele>
        <time>2003-04-13T11:54:53Z</time>
      </trkpt>
      <trkpt lat="33.857741989195347" lon="-3.423750037327409">
        <ele>731.39999999999998</ele>
        <time>2003-04-13T11:54:59Z</time>
      </trkpt>
      <trkpt lat="33.857194986194372" lon="-3.424647990614176">
        <ele>738.29999999999995</ele>
        <time>2003-04-13T11:55:04Z</time>
      </trkpt>
      <trkpt lat="33.85654698126018" lon="-3.425677036866546">
        <ele>745.89999999999998</ele>
        <time>2003-04-13T11:55:09Z</time>
      </trkpt>
      <trkpt lat="33.855978017672896" lon="-3.426599968224764">
        <ele>747.29999999999995</ele>
        <time>2003-04-13T11:55:15Z</time>
      </trkpt>
      <trkpt lat="33.855354990810156" lon="-3.427596995607019">
        <ele>747.79999999999995</ele>
        <time>2003-04-13T11:55:20Z</time>
      </trkpt>
      <trkpt lat="33.854730036109686" lon="-3.428601985797286">
        <ele>747.70000000000005</ele>
        <time>2003-04-13T11:55:24Z</time>
      </trkpt>
      <trkpt lat="33.854101980105042" lon="-3.429591972380877">
        <ele>747.89999999999998</ele>
        <time>2003-04-13T11:55:30Z</time>
      </trkpt>
      <trkpt lat="33.853475013747811" lon="-3.430602997541428">
        <ele>748.20000000000005</ele>
        <time>2003-04-13T11:55:35Z</time>
      </trkpt>
      <trkpt lat="33.852832037955523" lon="-3.431643024086952">
        <ele>748.39999999999998</ele>
        <time>2003-04-13T11:55:39Z</time>
      </trkpt>
      <trkpt lat="33.852187972515821" lon="-3.432663017883897">
        <ele>748.89999999999998</ele>
        <time>2003-04-13T11:55:44Z</time>
      </trkpt>
      <trkpt lat="33.851535022258759" lon="-3.433728022500873">
        <ele>749.29999999999995</ele>
        <time>2003-04-13T11:55:50Z</time>
      </trkpt>
      <trkpt lat="33.850875031203032" lon="-3.434784980490804">
        <ele>747.60000000000002</ele>
        <time>2003-04-13T11:55:55Z</time>
      </trkpt>
      <trkpt lat="33.850198024883866" lon="-3.435858031734824">
        <ele>744.20000000000005</ele>
        <time>2003-04-13T11:55:59Z</time>
      </trkpt>
      <trkpt lat="33.849592013284564" lon="-3.436748022213578">
        <ele>740.60000000000002</ele>
        <time>2003-04-13T11:56:03Z</time>
      </trkpt>
      <trkpt lat="33.848912995308638" lon="-3.437586966902018">
        <ele>740.70000000000005</ele>
        <time>2003-04-13T11:56:07Z</time>
      </trkpt>
      <trkpt lat="33.848131969571114" lon="-3.438532026484609">
        <ele>742.89999999999998</ele>
        <time>2003-04-13T11:56:13Z</time>
      </trkpt>
      <trkpt lat="33.847482958808541" lon="-3.439325038343668">
        <ele>743.29999999999995</ele>
        <time>2003-04-13T11:56:17Z</time>
      </trkpt>
      <trkpt lat="33.846803018823266" lon="-3.440117966383696">
        <ele>741.60000000000002</ele>
        <time>2003-04-13T11:56:21Z</time>
      </trkpt>
      <trkpt lat="33.846119977533817" lon="-3.440939979627729">
        <ele>740</ele>
        <time>2003-04-13T11:56:25Z</time>
      </trkpt>
      <trkpt lat="33.845450012013316" lon="-3.441707007586956">
        <ele>742.29999999999995</ele>
        <time>2003-04-13T11:56:29Z</time>
      </trkpt>
      <trkpt lat="33.844894962385297" lon="-3.442219980061054">
        <ele>743</ele>
        <time>2003-04-13T11:56:32Z</time>
      </trkpt>
      <trkpt lat="33.844482991844416" lon="-3.442477975040674">
        <ele>744</ele>
        <time>2003-04-13T11:56:33Z</time>
      </trkpt>
      <trkpt lat="33.8436100166291" lon="-3.442860022187233">
        <ele>744.60000000000002</ele>
        <time>2003-04-13T11:56:37Z</time>
      </trkpt>
      <trkpt lat="33.842690018936992" lon="-3.443139977753162">
        <ele>743.60000000000002</ele>
        <time>2003-04-13T11:56:41Z</time>
      </trkpt>
      <trkpt lat="33.841727022081614" lon="-3.443395039066672">
        <ele>741.79999999999995</ele>
        <time>2003-04-13T11:56:45Z</time>
      </trkpt>
      <trkpt lat="33.840757990255952" lon="-3.443653034046292">
        <ele>742.29999999999995</ele>
        <time>2003-04-13T11:56:49Z</time>
      </trkpt>
      <trkpt lat="33.839809997007251" lon="-3.443917986005545">
        <ele>741.89999999999998</ele>
        <time>2003-04-13T11:56:53Z</time>
      </trkpt>
      <trkpt lat="33.838850017637014" lon="-3.444180004298687">
        <ele>740.5</ele>
        <time>2003-04-13T11:56:57Z</time>
      </trkpt>
      <trkpt lat="33.837849972769618" lon="-3.444449985399842">
        <ele>737.79999999999995</ele>
        <time>2003-04-13T11:57:01Z</time>
      </trkpt>
      <trkpt lat="33.836842970922589" lon="-3.444724995642901">
        <ele>737.20000000000005</ele>
        <time>2003-04-13T11:57:05Z</time>
      </trkpt>
      <trkpt lat="33.835864970460534" lon="-3.4450030233711">
        <ele>737.60000000000002</ele>
        <time>2003-04-13T11:57:09Z</time>
      </trkpt>
      <trkpt lat="33.834928041324019" lon="-3.44526001252234">
        <ele>740.89999999999998</ele>
        <time>2003-04-13T11:57:14Z</time>
      </trkpt>
      <trkpt lat="33.834015000611544" lon="-3.445503003895283">
        <ele>742.5</ele>
        <time>2003-04-13T11:57:18Z</time>
      </trkpt>
      <trkpt lat="33.833098020404577" lon="-3.445774996653199">
        <ele>743.10000000000002</ele>
        <time>2003-04-13T11:57:22Z</time>
      </trkpt>
      <trkpt lat="33.83211700245738" lon="-3.446042966097593">
        <ele>741.29999999999995</ele>
        <time>2003-04-13T11:57:26Z</time>
      </trkpt>
      <trkpt lat="33.831087034195662" lon="-3.446329962462187">
        <ele>741.5</ele>
        <time>2003-04-13T11:57:30Z</time>
      </trkpt>
      <trkpt lat="33.830069974064827" lon="-3.446612013503909">
        <ele>744.60000000000002</ele>
        <time>2003-04-13T11:57:34Z</time>
      </trkpt>
      <trkpt lat="33.829040005803108" lon="-3.446900015696883">
        <ele>745.60000000000002</ele>
        <time>2003-04-13T11:57:38Z</time>
      </trkpt>
      <trkpt lat="33.828023029491305" lon="-3.447185000404716">
        <ele>746.89999999999998</ele>
        <time>2003-04-13T11:57:42Z</time>
      </trkpt>
      <trkpt lat="33.827121974900365" lon="-3.447479959577322">
        <ele>748.10000000000002</ele>
        <time>2003-04-13T11:57:46Z</time>
      </trkpt>
      <trkpt lat="33.826253022998571" lon="-3.447882039472461">
        <ele>748.10000000000002</ele>
        <time>2003-04-13T11:57:50Z</time>
      </trkpt>
      <trkpt lat="33.825388010591269" lon="-3.448338015004993">
        <ele>748.20000000000005</ele>
        <time>2003-04-13T11:57:54Z</time>
      </trkpt>
      <trkpt lat="33.82453297264874" lon="-3.448794996365905">
        <ele>748.39999999999998</ele>
        <time>2003-04-13T11:57:58Z</time>
      </trkpt>
      <trkpt lat="33.823687992990017" lon="-3.449254995211959">
        <ele>748.60000000000002</ele>
        <time>2003-04-13T11:58:02Z</time>
      </trkpt>
      <trkpt lat="33.822852987796068" lon="-3.449702002108097">
        <ele>749.10000000000002</ele>
        <time>2003-04-13T11:58:06Z</time>
      </trkpt>
      <trkpt lat="33.821874987334013" lon="-3.450229978188872">
        <ele>749.10000000000002</ele>
        <time>2003-04-13T11:58:10Z</time>
      </trkpt>
      <trkpt lat="33.820887012407184" lon="-3.450774969533086">
        <ele>746.39999999999998</ele>
        <time>2003-04-13T11:58:16Z</time>
      </trkpt>
      <trkpt lat="33.819967014715075" lon="-3.451264975592494">
        <ele>742.79999999999995</ele>
        <time>2003-04-13T11:58:21Z</time>
      </trkpt>
      <trkpt lat="33.819297971203923" lon="-3.451597988605499">
        <ele>740.89999999999998</ele>
        <time>2003-04-13T11:58:25Z</time>
      </trkpt>
      <trkpt lat="33.818381996825337" lon="-3.452096963301301">
        <ele>739.39999999999998</ele>
        <time>2003-04-13T11:58:29Z</time>
      </trkpt>
      <trkpt lat="33.81739703938365" lon="-3.452614964917302">
        <ele>738.20000000000005</ele>
        <time>2003-04-13T11:58:35Z</time>
      </trkpt>
      <trkpt lat="33.816381990909576" lon="-3.45316800288856">
        <ele>737.60000000000002</ele>
        <time>2003-04-13T11:58:40Z</time>
      </trkpt>
      <trkpt lat="33.815516978502274" lon="-3.453624984249473">
        <ele>737.70000000000005</ele>
        <time>2003-04-13T11:58:44Z</time>
      </trkpt>
      <trkpt lat="33.81452196277678" lon="-3.454150026664138">
        <ele>736.29999999999995</ele>
        <time>2003-04-13T11:58:48Z</time>
      </trkpt>
      <trkpt lat="33.813955010846257" lon="-3.454529978334904">
        <ele>737.60000000000002</ele>
        <time>2003-04-13T11:58:52Z</time>
      </trkpt>
      <trkpt lat="33.813422005623579" lon="-3.455002969130874">
        <ele>737.5</ele>
        <time>2003-04-13T11:58:55Z</time>
      </trkpt>
      <trkpt lat="33.812729995697737" lon="-3.455762034282088">
        <ele>735</ele>
        <time>2003-04-13T11:58:59Z</time>
      </trkpt>
      <trkpt lat="33.811943018808961" lon="-3.456616988405585">
        <ele>731.89999999999998</ele>
        <time>2003-04-13T11:59:04Z</time>
      </trkpt>
      <trkpt lat="33.811180014163256" lon="-3.457455011084676">
        <ele>734</ele>
        <time>2003-04-13T11:59:08Z</time>
      </trkpt>
      <trkpt lat="33.810407035052776" lon="-3.458293033763766">
        <ele>735</ele>
        <time>2003-04-13T11:59:14Z</time>
      </trkpt>
      <trkpt lat="33.809660039842129" lon="-3.459110017865896">
        <ele>735.20000000000005</ele>
        <time>2003-04-13T11:59:19Z</time>
      </trkpt>
      <trkpt lat="33.808859987184405" lon="-3.459985004737973">
        <ele>735.29999999999995</ele>
        <time>2003-04-13T11:59:23Z</time>
      </trkpt>
      <trkpt lat="33.808057000860572" lon="-3.460853034630418">
        <ele>734.89999999999998</ele>
        <time>2003-04-13T11:59:29Z</time>
      </trkpt>
      <trkpt lat="33.807242028415203" lon="-3.46174000762403">
        <ele>734.39999999999998</ele>
        <time>2003-04-13T11:59:34Z</time>
      </trkpt>
      <trkpt lat="33.806412974372506" lon="-3.462635027244687">
        <ele>733.89999999999998</ele>
        <time>2003-04-13T11:59:39Z</time>
      </trkpt>
      <trkpt lat="33.805592972785234" lon="-3.463531974703074">
        <ele>732.39999999999998</ele>
        <time>2003-04-13T11:59:45Z</time>
      </trkpt>
      <trkpt lat="33.804902974516153" lon="-3.464273018762469">
        <ele>730.70000000000005</ele>
        <time>2003-04-13T11:59:49Z</time>
      </trkpt>
      <trkpt lat="33.804205013439059" lon="-3.465033005923033">
        <ele>729.29999999999995</ele>
        <time>2003-04-13T11:59:53Z</time>
      </trkpt>
      <trkpt lat="33.80349799990654" lon="-3.46580296754837">
        <ele>727.70000000000005</ele>
        <time>2003-04-13T11:59:57Z</time>
      </trkpt>
      <trkpt lat="33.802798027172685" lon="-3.466569995507598">
        <ele>725.79999999999995</ele>
        <time>2003-04-13T12:00:00Z</time>
      </trkpt>
      <trkpt lat="33.801975008100271" lon="-3.467463003471494">
        <ele>726.60000000000002</ele>
        <time>2003-04-13T12:00:05Z</time>
      </trkpt>
      <trkpt lat="33.801161963492632" lon="-3.468342013657093">
        <ele>728.70000000000005</ele>
        <time>2003-04-13T12:00:10Z</time>
      </trkpt>
      <trkpt lat="33.800332993268967" lon="-3.469256982207298">
        <ele>728.10000000000002</ele>
        <time>2003-04-13T12:00:14Z</time>
      </trkpt>
      <trkpt lat="33.79963000304997" lon="-3.470016969367862">
        <ele>727.39999999999998</ele>
        <time>2003-04-13T12:00:20Z</time>
      </trkpt>
      <trkpt lat="33.798817964270711" lon="-3.470907965674996">
        <ele>726.70000000000005</ele>
        <time>2003-04-13T12:00:25Z</time>
      </trkpt>
      <trkpt lat="33.798050014302135" lon="-3.471748000010848">
        <ele>726.20000000000005</ele>
        <time>2003-04-13T12:00:29Z</time>
      </trkpt>
      <trkpt lat="33.797243004664779" lon="-3.472543023526669">
        <ele>725.5</ele>
        <time>2003-04-13T12:00:35Z</time>
      </trkpt>
      <trkpt lat="33.79685802385211" lon="-3.472743015736342">
        <ele>725.5</ele>
        <time>2003-04-13T12:00:36Z</time>
      </trkpt>
      <trkpt lat="33.796653002500534" lon="-3.472792971879244">
        <ele>725.70000000000005</ele>
        <time>2003-04-13T12:00:37Z</time>
      </trkpt>
      <trkpt lat="33.796237008646131" lon="-3.472807975485921">
        <ele>726.20000000000005</ele>
        <time>2003-04-13T12:00:40Z</time>
      </trkpt>
      <trkpt lat="33.795831995084882" lon="-3.472715020179749">
        <ele>726.29999999999995</ele>
        <time>2003-04-13T12:00:41Z</time>
      </trkpt>
      <trkpt lat="33.795467969030142" lon="-3.472540006041527">
        <ele>726.5</ele>
        <time>2003-04-13T12:00:44Z</time>
      </trkpt>
      <trkpt lat="33.795318016782403" lon="-3.472425006330013">
        <ele>726.29999999999995</ele>
        <time>2003-04-13T12:00:44Z</time>
      </trkpt>
      <trkpt lat="33.795184995979071" lon="-3.47228997386992">
        <ele>726.39999999999998</ele>
        <time>2003-04-13T12:00:45Z</time>
      </trkpt>
      <trkpt lat="33.794845025986433" lon="-3.47183802165091">
        <ele>724.39999999999998</ele>
        <time>2003-04-13T12:00:48Z</time>
      </trkpt>
      <trkpt lat="33.794685015454888" lon="-3.471508026123047">
        <ele>722.79999999999995</ele>
        <time>2003-04-13T12:00:51Z</time>
      </trkpt>
      <trkpt lat="33.794634975492954" lon="-3.471326977014542">
        <ele>721.89999999999998</ele>
        <time>2003-04-13T12:00:52Z</time>
      </trkpt>
      <trkpt lat="33.794391984120011" lon="-3.470227019861341">
        <ele>714.29999999999995</ele>
        <time>2003-04-13T12:00:58Z</time>
      </trkpt>
      <trkpt lat="33.794261980801821" lon="-3.469757968559861">
        <ele>709.79999999999995</ele>
        <time>2003-04-13T12:01:00Z</time>
      </trkpt>
      <trkpt lat="33.794185034930706" lon="-3.469632994383574">
        <ele>707.79999999999995</ele>
        <time>2003-04-13T12:01:02Z</time>
      </trkpt>
      <trkpt lat="33.79400197416544" lon="-3.469420010223985">
        <ele>704.5</ele>
        <time>2003-04-13T12:01:03Z</time>
      </trkpt>
      <trkpt lat="33.793883034959435" lon="-3.469332000240684">
        <ele>702.89999999999998</ele>
        <time>2003-04-13T12:01:04Z</time>
      </trkpt>
      <trkpt lat="33.793752025812864" lon="-3.469267962500453">
        <ele>701.29999999999995</ele>
        <time>2003-04-13T12:01:06Z</time>
      </trkpt>
      <trkpt lat="33.793611964210868" lon="-3.46923996694386">
        <ele>699.70000000000005</ele>
        <time>2003-04-13T12:01:07Z</time>
      </trkpt>
      <trkpt lat="33.793341983109713" lon="-3.469244996085763">
        <ele>698.70000000000005</ele>
        <time>2003-04-13T12:01:08Z</time>
      </trkpt>
      <trkpt lat="33.792319977656007" lon="-3.469293024390936">
        <ele>697.89999999999998</ele>
        <time>2003-04-13T12:01:17Z</time>
      </trkpt>
      <trkpt lat="33.791868025436997" lon="-3.469367036595941">
        <ele>698</ele>
        <time>2003-04-13T12:01:19Z</time>
      </trkpt>
      <trkpt lat="33.791567031294107" lon="-3.469511959701777">
        <ele>698.29999999999995</ele>
        <time>2003-04-13T12:01:22Z</time>
      </trkpt>
      <trkpt lat="33.791277017444372" lon="-3.469737013801932">
        <ele>698.70000000000005</ele>
        <time>2003-04-13T12:01:23Z</time>
      </trkpt>
      <trkpt lat="33.791012987494469" lon="-3.470028033480048">
        <ele>700.20000000000005</ele>
        <time>2003-04-13T12:01:26Z</time>
      </trkpt>
      <trkpt lat="33.790447041392326" lon="-3.470900002866983">
        <ele>704.60000000000002</ele>
        <time>2003-04-13T12:01:30Z</time>
      </trkpt>
      <trkpt lat="33.789862990379333" lon="-3.471712041646242">
        <ele>710.5</ele>
        <time>2003-04-13T12:01:35Z</time>
      </trkpt>
      <trkpt lat="33.789440039545298" lon="-3.472157036885619">
        <ele>712.20000000000005</ele>
        <time>2003-04-13T12:01:38Z</time>
      </trkpt>
      <trkpt lat="33.789105014875531" lon="-3.47239701077342">
        <ele>712.70000000000005</ele>
        <time>2003-04-13T12:01:41Z</time>
      </trkpt>
      <trkpt lat="33.788177976384759" lon="-3.472963040694594">
        <ele>712.89999999999998</ele>
        <time>2003-04-13T12:01:46Z</time>
      </trkpt>
      <trkpt lat="33.787174997851253" lon="-3.473552037030459">
        <ele>713.20000000000005</ele>
        <time>2003-04-13T12:01:50Z</time>
      </trkpt>
      <trkpt lat="33.786343010142446" lon="-3.473989991471171">
        <ele>715.10000000000002</ele>
        <time>2003-04-13T12:01:54Z</time>
      </trkpt>
      <trkpt lat="33.78549300134182" lon="-3.474459964782">
        <ele>714.5</ele>
        <time>2003-04-13T12:01:58Z</time>
      </trkpt>
      <trkpt lat="33.784663025289774" lon="-3.474917029961944">
        <ele>710</ele>
        <time>2003-04-13T12:02:02Z</time>
      </trkpt>
      <trkpt lat="33.783821985125542" lon="-3.475392032414675">
        <ele>709.70000000000005</ele>
        <time>2003-04-13T12:02:06Z</time>
      </trkpt>
      <trkpt lat="33.782980022951961" lon="-3.475863011553884">
        <ele>712.5</ele>
        <time>2003-04-13T12:02:11Z</time>
      </trkpt>
      <trkpt lat="33.782009985297918" lon="-3.476402973756194">
        <ele>715.89999999999998</ele>
        <time>2003-04-13T12:02:16Z</time>
      </trkpt>
      <trkpt lat="33.781107002869248" lon="-3.476907983422279">
        <ele>716.5</ele>
        <time>2003-04-13T12:02:20Z</time>
      </trkpt>
      <trkpt lat="33.78012296743691" lon="-3.477439982816577">
        <ele>716</ele>
        <time>2003-04-13T12:02:25Z</time>
      </trkpt>
      <trkpt lat="33.779164999723434" lon="-3.477978017181158">
        <ele>716.10000000000002</ele>
        <time>2003-04-13T12:02:31Z</time>
      </trkpt>
      <trkpt lat="33.778242990374565" lon="-3.47849803045392">
        <ele>716.10000000000002</ele>
        <time>2003-04-13T12:02:36Z</time>
      </trkpt>
      <trkpt lat="33.777262978255749" lon="-3.47903698682785">
        <ele>716.29999999999995</ele>
        <time>2003-04-13T12:02:40Z</time>
      </trkpt>
      <trkpt lat="33.776484970003366" lon="-3.479558005928993">
        <ele>716.29999999999995</ele>
        <time>2003-04-13T12:02:44Z</time>
      </trkpt>
      <trkpt lat="33.775615012273192" lon="-3.48028002306819">
        <ele>715.29999999999995</ele>
        <time>2003-04-13T12:02:50Z</time>
      </trkpt>
      <trkpt lat="33.774825017899275" lon="-3.480898020789027">
        <ele>715</ele>
        <time>2003-04-13T12:02:55Z</time>
      </trkpt>
      <trkpt lat="33.773997975513339" lon="-3.481581984087825">
        <ele>714.5</ele>
        <time>2003-04-13T12:02:59Z</time>
      </trkpt>
      <trkpt lat="33.773107985034585" lon="-3.482293020933867">
        <ele>714.20000000000005</ele>
        <time>2003-04-13T12:03:05Z</time>
      </trkpt>
      <trkpt lat="33.772182036191225" lon="-3.483038004487753">
        <ele>713.60000000000002</ele>
        <time>2003-04-13T12:03:10Z</time>
      </trkpt>
      <trkpt lat="33.771426994353533" lon="-3.483677040785551">
        <ele>713</ele>
        <time>2003-04-13T12:03:14Z</time>
      </trkpt>
      <trkpt lat="33.770638005807996" lon="-3.484316999092698">
        <ele>712</ele>
        <time>2003-04-13T12:03:18Z</time>
      </trkpt>
      <trkpt lat="33.769826972857118" lon="-3.484959974884987">
        <ele>710.89999999999998</ele>
        <time>2003-04-13T12:03:22Z</time>
      </trkpt>
      <trkpt lat="33.769027004018426" lon="-3.485624995082617">
        <ele>710.29999999999995</ele>
        <time>2003-04-13T12:03:26Z</time>
      </trkpt>
      <trkpt lat="33.768225023522973" lon="-3.486269982531667">
        <ele>709.39999999999998</ele>
        <time>2003-04-13T12:03:30Z</time>
      </trkpt>
      <trkpt lat="33.767426982522011" lon="-3.486914969980717">
        <ele>708.60000000000002</ele>
        <time>2003-04-13T12:03:34Z</time>
      </trkpt>
      <trkpt lat="33.766645034775138" lon="-3.487547971308231">
        <ele>707.89999999999998</ele>
        <time>2003-04-13T12:03:37Z</time>
      </trkpt>
      <trkpt lat="33.765872977674007" lon="-3.48818700760603">
        <ele>707.89999999999998</ele>
        <time>2003-04-13T12:03:41Z</time>
      </trkpt>
      <trkpt lat="33.765092035755515" lon="-3.488816991448402">
        <ele>707.60000000000002</ele>
        <time>2003-04-13T12:03:45Z</time>
      </trkpt>
      <trkpt lat="33.76433003693819" lon="-3.489443035796285">
        <ele>707.39999999999998</ele>
        <time>2003-04-13T12:03:49Z</time>
      </trkpt>
      <trkpt lat="33.763571977615356" lon="-3.490051981061697">
        <ele>706.79999999999995</ele>
        <time>2003-04-13T12:03:53Z</time>
      </trkpt>
      <trkpt lat="33.762807967141271" lon="-3.490666961297393">
        <ele>706.10000000000002</ele>
        <time>2003-04-13T12:03:57Z</time>
      </trkpt>
      <trkpt lat="33.762038005515933" lon="-3.491298034787178">
        <ele>705.5</ele>
        <time>2003-04-13T12:04:01Z</time>
      </trkpt>
      <trkpt lat="33.761252034455538" lon="-3.491936987265945">
        <ele>704.60000000000002</ele>
        <time>2003-04-13T12:04:05Z</time>
      </trkpt>
      <trkpt lat="33.760458016768098" lon="-3.492588009685278">
        <ele>703.79999999999995</ele>
        <time>2003-04-13T12:04:09Z</time>
      </trkpt>
      <trkpt lat="33.759650001302361" lon="-3.493242971599102">
        <ele>702.70000000000005</ele>
        <time>2003-04-13T12:04:13Z</time>
      </trkpt>
      <trkpt lat="33.758880039677024" lon="-3.493873039260507">
        <ele>701.79999999999995</ele>
        <time>2003-04-13T12:04:17Z</time>
      </trkpt>
      <trkpt lat="33.757953001186252" lon="-3.49463302642107">
        <ele>700.79999999999995</ele>
        <time>2003-04-13T12:04:23Z</time>
      </trkpt>
      <trkpt lat="33.757016994059086" lon="-3.495369963347912">
        <ele>699.60000000000002</ele>
        <time>2003-04-13T12:04:28Z</time>
      </trkpt>
      <trkpt lat="33.756254995241761" lon="-3.495998019352555">
        <ele>699.29999999999995</ele>
        <time>2003-04-13T12:04:31Z</time>
      </trkpt>
      <trkpt lat="33.755446979776025" lon="-3.496513003483415">
        <ele>698.5</ele>
        <time>2003-04-13T12:04:35Z</time>
      </trkpt>
      <trkpt lat="33.754805009812117" lon="-3.496745014563203">
        <ele>698.60000000000002</ele>
        <time>2003-04-13T12:04:39Z</time>
      </trkpt>
      <trkpt lat="33.753787027671933" lon="-3.497037962079048">
        <ele>697.60000000000002</ele>
        <time>2003-04-13T12:04:43Z</time>
      </trkpt>
      <trkpt lat="33.752735015004873" lon="-3.49734197370708">
        <ele>695.29999999999995</ele>
        <time>2003-04-13T12:04:48Z</time>
      </trkpt>
      <trkpt lat="33.751854998990893" lon="-3.497592005878687">
        <ele>693</ele>
        <time>2003-04-13T12:04:53Z</time>
      </trkpt>
      <trkpt lat="33.750910023227334" lon="-3.497867016121745">
        <ele>691.29999999999995</ele>
        <time>2003-04-13T12:04:57Z</time>
      </trkpt>
      <trkpt lat="33.749937973916531" lon="-3.49815702997148">
        <ele>689.10000000000002</ele>
        <time>2003-04-13T12:05:01Z</time>
      </trkpt>
      <trkpt lat="33.748928038403392" lon="-3.49843799136579">
        <ele>687.60000000000002</ele>
        <time>2003-04-13T12:05:05Z</time>
      </trkpt>
      <trkpt lat="33.747932016849518" lon="-3.498728005215526">
        <ele>689</ele>
        <time>2003-04-13T12:05:09Z</time>
      </trkpt>
      <trkpt lat="33.747306978330016" lon="-3.499012989923358">
        <ele>692.89999999999998</ele>
        <time>2003-04-13T12:05:11Z</time>
      </trkpt>
      <trkpt lat="33.746968014165759" lon="-3.499271990731359">
        <ele>696.20000000000005</ele>
        <time>2003-04-13T12:05:14Z</time>
      </trkpt>
      <trkpt lat="33.746426962316036" lon="-3.499884959310293">
        <ele>697.70000000000005</ele>
        <time>2003-04-13T12:05:18Z</time>
      </trkpt>
      <trkpt lat="33.745607966557145" lon="-3.500969996675849">
        <ele>697.5</ele>
        <time>2003-04-13T12:05:24Z</time>
      </trkpt>
      <trkpt lat="33.744887039065361" lon="-3.501889994367957">
        <ele>696.79999999999995</ele>
        <time>2003-04-13T12:05:29Z</time>
      </trkpt>
      <trkpt lat="33.744169967249036" lon="-3.502819966524839">
        <ele>695.60000000000002</ele>
        <time>2003-04-13T12:05:33Z</time>
      </trkpt>
      <trkpt lat="33.743428001180291" lon="-3.503801990300417">
        <ele>695.20000000000005</ele>
        <time>2003-04-13T12:05:38Z</time>
      </trkpt>
      <trkpt lat="33.742804974317551" lon="-3.504613023251295">
        <ele>695</ele>
        <time>2003-04-13T12:05:42Z</time>
      </trkpt>
      <trkpt lat="33.742168033495545" lon="-3.50544199347496">
        <ele>695.20000000000005</ele>
        <time>2003-04-13T12:05:47Z</time>
      </trkpt>
      <trkpt lat="33.741518016904593" lon="-3.506282027810812">
        <ele>695.10000000000002</ele>
        <time>2003-04-13T12:05:51Z</time>
      </trkpt>
      <trkpt lat="33.740774961188436" lon="-3.507257010787725">
        <ele>695.29999999999995</ele>
        <time>2003-04-13T12:05:56Z</time>
      </trkpt>
      <trkpt lat="33.740107007324696" lon="-3.508123029023409">
        <ele>695.20000000000005</ele>
        <time>2003-04-13T12:06:00Z</time>
      </trkpt>
      <trkpt lat="33.739417009055614" lon="-3.509015031158924">
        <ele>694.5</ele>
        <time>2003-04-13T12:06:05Z</time>
      </trkpt>
      <trkpt lat="33.738730028271675" lon="-3.509873002767563">
        <ele>693.60000000000002</ele>
        <time>2003-04-13T12:06:11Z</time>
      </trkpt>
      <trkpt lat="33.738421993330121" lon="-3.510147007182241">
        <ele>692.20000000000005</ele>
        <time>2003-04-13T12:06:12Z</time>
      </trkpt>
      <trkpt lat="33.738078000023961" lon="-3.510352028533816">
        <ele>690.20000000000005</ele>
        <time>2003-04-13T12:06:15Z</time>
      </trkpt>
      <trkpt lat="33.737503001466393" lon="-3.510563001036644">
        <ele>686.79999999999995</ele>
        <time>2003-04-13T12:06:18Z</time>
      </trkpt>
      <trkpt lat="33.736431961879134" lon="-3.510816972702742">
        <ele>679.29999999999995</ele>
        <time>2003-04-13T12:06:23Z</time>
      </trkpt>
      <trkpt lat="33.735552029684186" lon="-3.51104998961091">
        <ele>679.39999999999998</ele>
        <time>2003-04-13T12:06:27Z</time>
      </trkpt>
      <trkpt lat="33.73455299064517" lon="-3.511304967105389">
        <ele>684.5</ele>
        <time>2003-04-13T12:06:31Z</time>
      </trkpt>
      <trkpt lat="33.73360700905323" lon="-3.511551981791854">
        <ele>688.29999999999995</ele>
        <time>2003-04-13T12:06:36Z</time>
      </trkpt>
      <trkpt lat="33.732605036348104" lon="-3.511809976771474">
        <ele>690.39999999999998</ele>
        <time>2003-04-13T12:06:42Z</time>
      </trkpt>
      <trkpt lat="33.731555035337806" lon="-3.512082975357771">
        <ele>692.79999999999995</ele>
        <time>2003-04-13T12:06:46Z</time>
      </trkpt>
      <trkpt lat="33.730496987700462" lon="-3.51238003000617">
        <ele>694.79999999999995</ele>
        <time>2003-04-13T12:06:51Z</time>
      </trkpt>
      <trkpt lat="33.729874966666102" lon="-3.512672977522016">
        <ele>694.89999999999998</ele>
        <time>2003-04-13T12:06:54Z</time>
      </trkpt>
      <trkpt lat="33.729092013090849" lon="-3.51326197385788">
        <ele>694.60000000000002</ele>
        <time>2003-04-13T12:06:58Z</time>
      </trkpt>
      <trkpt lat="33.728367984294891" lon="-3.513982985168695">
        <ele>694.39999999999998</ele>
        <time>2003-04-13T12:07:02Z</time>
      </trkpt>
      <trkpt lat="33.727621994912624" lon="-3.514714976772666">
        <ele>694.29999999999995</ele>
        <time>2003-04-13T12:07:06Z</time>
      </trkpt>
      <trkpt lat="33.726856978610158" lon="-3.515474963933229">
        <ele>693.70000000000005</ele>
        <time>2003-04-13T12:07:10Z</time>
      </trkpt>
      <trkpt lat="33.726113000884652" lon="-3.516211984679103">
        <ele>693.20000000000005</ele>
        <time>2003-04-13T12:07:14Z</time>
      </trkpt>
      <trkpt lat="33.725395007058978" lon="-3.516922015696764">
        <ele>692.79999999999995</ele>
        <time>2003-04-13T12:07:18Z</time>
      </trkpt>
      <trkpt lat="33.724532006308436" lon="-3.517776969820261">
        <ele>692.70000000000005</ele>
        <time>2003-04-13T12:07:24Z</time>
      </trkpt>
      <trkpt lat="33.723687026649714" lon="-3.518609963357449">
        <ele>691.10000000000002</ele>
        <time>2003-04-13T12:07:29Z</time>
      </trkpt>
      <trkpt lat="33.722820002585649" lon="-3.519447986036539">
        <ele>688.89999999999998</ele>
        <time>2003-04-13T12:07:33Z</time>
      </trkpt>
      <trkpt lat="33.722092034295201" lon="-3.52017997764051">
        <ele>687.39999999999998</ele>
        <time>2003-04-13T12:07:37Z</time>
      </trkpt>
      <trkpt lat="33.72131796553731" lon="-3.520948011428118">
        <ele>685.70000000000005</ele>
        <time>2003-04-13T12:07:41Z</time>
      </trkpt>
      <trkpt lat="33.720511961728334" lon="-3.521746974438429">
        <ele>683.5</ele>
        <time>2003-04-13T12:07:45Z</time>
      </trkpt>
      <trkpt lat="33.719743005931377" lon="-3.522512996569276">
        <ele>681.20000000000005</ele>
        <time>2003-04-13T12:07:49Z</time>
      </trkpt>
      <trkpt lat="33.718934990465641" lon="-3.523297961801291">
        <ele>678.10000000000002</ele>
        <time>2003-04-13T12:07:53Z</time>
      </trkpt>
      <trkpt lat="33.718135021626949" lon="-3.524100026115775">
        <ele>676.70000000000005</ele>
        <time>2003-04-13T12:07:57Z</time>
      </trkpt>
      <trkpt lat="33.717362964525819" lon="-3.524826988577843">
        <ele>674.39999999999998</ele>
        <time>2003-04-13T12:08:02Z</time>
      </trkpt>
      <trkpt lat="33.716723006218672" lon="-3.525253040716052">
        <ele>671.89999999999998</ele>
        <time>2003-04-13T12:08:04Z</time>
      </trkpt>
      <trkpt lat="33.715803008526564" lon="-3.525727037340403">
        <ele>665.89999999999998</ele>
        <time>2003-04-13T12:08:08Z</time>
      </trkpt>
      <trkpt lat="33.714900026097894" lon="-3.52621503174305">
        <ele>664.10000000000002</ele>
        <time>2003-04-13T12:08:12Z</time>
      </trkpt>
      <trkpt lat="33.714023027569056" lon="-3.526676958426833">
        <ele>664.5</ele>
        <time>2003-04-13T12:08:16Z</time>
      </trkpt>
      <trkpt lat="33.713157009333372" lon="-3.527139974758029">
        <ele>667.10000000000002</ele>
        <time>2003-04-13T12:08:20Z</time>
      </trkpt>
      <trkpt lat="33.712304988875985" lon="-3.527597961947322">
        <ele>670.39999999999998</ele>
        <time>2003-04-13T12:08:24Z</time>
      </trkpt>
      <trkpt lat="33.711456991732121" lon="-3.528057038784027">
        <ele>672.79999999999995</ele>
        <time>2003-04-13T12:08:29Z</time>
      </trkpt>
      <trkpt lat="33.710585022345185" lon="-3.528502034023404">
        <ele>674.60000000000002</ele>
        <time>2003-04-13T12:08:33Z</time>
      </trkpt>
      <trkpt lat="33.709708023816347" lon="-3.528851978480816">
        <ele>676.20000000000005</ele>
        <time>2003-04-13T12:08:37Z</time>
      </trkpt>
      <trkpt lat="33.70902800001204" lon="-3.528960021212697">
        <ele>677.70000000000005</ele>
        <time>2003-04-13T12:08:39Z</time>
      </trkpt>
      <trkpt lat="33.708415031433105" lon="-3.528951974585652">
        <ele>679.10000000000002</ele>
        <time>2003-04-13T12:08:42Z</time>
      </trkpt>
      <trkpt lat="33.707380034029484" lon="-3.528791964054108">
        <ele>680.20000000000005</ele>
        <time>2003-04-13T12:08:47Z</time>
      </trkpt>
      <trkpt lat="33.706288039684296" lon="-3.528615022078157">
        <ele>680.5</ele>
        <time>2003-04-13T12:08:53Z</time>
      </trkpt>
      <trkpt lat="33.70539796538651" lon="-3.528455011546612">
        <ele>682</ele>
        <time>2003-04-13T12:08:57Z</time>
      </trkpt>
      <trkpt lat="33.704289961606264" lon="-3.528291983529925">
        <ele>684.70000000000005</ele>
        <time>2003-04-13T12:09:02Z</time>
      </trkpt>
      <trkpt lat="33.703186986967921" lon="-3.528095008805394">
        <ele>686.89999999999998</ele>
        <time>2003-04-13T12:09:06Z</time>
      </trkpt>
      <trkpt lat="33.702275035902858" lon="-3.527961988002062">
        <ele>687.5</ele>
        <time>2003-04-13T12:09:10Z</time>
      </trkpt>
      <trkpt lat="33.701344979926944" lon="-3.52787297219038">
        <ele>688.89999999999998</ele>
        <time>2003-04-13T12:09:14Z</time>
      </trkpt>
      <trkpt lat="33.700377959758043" lon="-3.52791203185916">
        <ele>689.60000000000002</ele>
        <time>2003-04-13T12:09:18Z</time>
      </trkpt>
      <trkpt lat="33.699391996487975" lon="-3.527959976345301">
        <ele>690.79999999999995</ele>
        <time>2003-04-13T12:09:23Z</time>
      </trkpt>
      <trkpt lat="33.698412990197539" lon="-3.527995012700558">
        <ele>692.10000000000002</ele>
        <time>2003-04-13T12:09:27Z</time>
      </trkpt>
      <trkpt lat="33.69746801443398" lon="-3.528046980500221">
        <ele>693.20000000000005</ele>
        <time>2003-04-13T12:09:31Z</time>
      </trkpt>
      <trkpt lat="33.69656695984304" lon="-3.528082016855478">
        <ele>694.10000000000002</ele>
        <time>2003-04-13T12:09:35Z</time>
      </trkpt>
      <trkpt lat="33.695474965497851" lon="-3.528110012412071">
        <ele>696.29999999999995</ele>
        <time>2003-04-13T12:09:40Z</time>
      </trkpt>
      <trkpt lat="33.694426976144314" lon="-3.528152005746961">
        <ele>698.79999999999995</ele>
        <time>2003-04-13T12:09:45Z</time>
      </trkpt>
      <trkpt lat="33.693388039246202" lon="-3.528195004910231">
        <ele>700.79999999999995</ele>
        <time>2003-04-13T12:09:50Z</time>
      </trkpt>
      <trkpt lat="33.692352036014199" lon="-3.528238004073501">
        <ele>702.79999999999995</ele>
        <time>2003-04-13T12:09:55Z</time>
      </trkpt>
      <trkpt lat="33.691317038610578" lon="-3.528285026550293">
        <ele>704.70000000000005</ele>
        <time>2003-04-13T12:09:59Z</time>
      </trkpt>
      <trkpt lat="33.690280029550195" lon="-3.528319979086518">
        <ele>706.89999999999998</ele>
        <time>2003-04-13T12:10:04Z</time>
      </trkpt>
      <trkpt lat="33.689242014661431" lon="-3.528374964371324">
        <ele>708</ele>
        <time>2003-04-13T12:10:10Z</time>
      </trkpt>
      <trkpt lat="33.688182039186358" lon="-3.528415029868484">
        <ele>707.89999999999998</ele>
        <time>2003-04-13T12:10:15Z</time>
      </trkpt>
      <trkpt lat="33.687115022912621" lon="-3.528446964919567">
        <ele>708.10000000000002</ele>
        <time>2003-04-13T12:10:19Z</time>
      </trkpt>
      <trkpt lat="33.68605999276042" lon="-3.528521982952952">
        <ele>707.39999999999998</ele>
        <time>2003-04-13T12:10:25Z</time>
      </trkpt>
      <trkpt lat="33.685660008341074" lon="-3.528607981279492">
        <ele>706.5</ele>
        <time>2003-04-13T12:10:26Z</time>
      </trkpt>
      <trkpt lat="33.685081992298365" lon="-3.52888198569417">
        <ele>705.60000000000002</ele>
        <time>2003-04-13T12:10:30Z</time>
      </trkpt>
      <trkpt lat="33.684721989557147" lon="-3.529158001765609">
        <ele>703.79999999999995</ele>
        <time>2003-04-13T12:10:31Z</time>
      </trkpt>
      <trkpt lat="33.684229971840978" lon="-3.529678015038371">
        <ele>701.10000000000002</ele>
        <time>2003-04-13T12:10:34Z</time>
      </trkpt>
      <trkpt lat="33.683418016880751" lon="-3.530615027993918">
        <ele>699</ele>
        <time>2003-04-13T12:10:39Z</time>
      </trkpt>
      <trkpt lat="33.682616958394647" lon="-3.531518010422587">
        <ele>702.10000000000002</ele>
        <time>2003-04-13T12:10:45Z</time>
      </trkpt>
      <trkpt lat="33.681882033124566" lon="-3.532343041151762">
        <ele>704.10000000000002</ele>
        <time>2003-04-13T12:10:49Z</time>
      </trkpt>
      <trkpt lat="33.681115005165339" lon="-3.533196989446878">
        <ele>701.70000000000005</ele>
        <time>2003-04-13T12:10:54Z</time>
      </trkpt>
      <trkpt lat="33.680317969992757" lon="-3.534107012674213">
        <ele>699.10000000000002</ele>
        <time>2003-04-13T12:11:00Z</time>
      </trkpt>
      <trkpt lat="33.679652027785778" lon="-3.534868005663157">
        <ele>700.79999999999995</ele>
        <time>2003-04-13T12:11:04Z</time>
      </trkpt>
      <trkpt lat="33.679051967337728" lon="-3.535526990890503">
        <ele>704</ele>
        <time>2003-04-13T12:11:08Z</time>
      </trkpt>
      <trkpt lat="33.678376972675323" lon="-3.536093020811677">
        <ele>704.79999999999995</ele>
        <time>2003-04-13T12:11:12Z</time>
      </trkpt>
      <trkpt lat="33.677812032401562" lon="-3.536429973319173">
        <ele>706.39999999999998</ele>
        <time>2003-04-13T12:11:15Z</time>
      </trkpt>
      <trkpt lat="33.677208032459021" lon="-3.536655027419329">
        <ele>708.5</ele>
        <time>2003-04-13T12:11:19Z</time>
      </trkpt>
      <trkpt lat="33.676115032285452" lon="-3.53689500130713">
        <ele>708.60000000000002</ele>
        <time>2003-04-13T12:11:24Z</time>
      </trkpt>
      <trkpt lat="33.675202997401357" lon="-3.53708703070879">
        <ele>709.39999999999998</ele>
        <time>2003-04-13T12:11:27Z</time>
      </trkpt>
      <trkpt lat="33.674302026629448" lon="-3.537275036796928">
        <ele>709</ele>
        <time>2003-04-13T12:11:32Z</time>
      </trkpt>
      <trkpt lat="33.673214977607131" lon="-3.537512999027968">
        <ele>709</ele>
        <time>2003-04-13T12:11:36Z</time>
      </trkpt>
      <trkpt lat="33.672124994918704" lon="-3.537707962095738">
        <ele>709.20000000000005</ele>
        <time>2003-04-13T12:11:40Z</time>
      </trkpt>
      <trkpt lat="33.671161998063326" lon="-3.537912983447313">
        <ele>709.39999999999998</ele>
        <time>2003-04-13T12:11:47Z</time>
      </trkpt>
      <trkpt lat="33.670242000371218" lon="-3.538101995363832">
        <ele>709.60000000000002</ele>
        <time>2003-04-13T12:11:51Z</time>
      </trkpt>
      <trkpt lat="33.66930196993053" lon="-3.538284972310066">
        <ele>709.60000000000002</ele>
        <time>2003-04-13T12:11:55Z</time>
      </trkpt>
      <trkpt lat="33.668332016095519" lon="-3.538498040288687">
        <ele>709.20000000000005</ele>
        <time>2003-04-13T12:12:02Z</time>
      </trkpt>
      <trkpt lat="33.667257959023118" lon="-3.538708006963134">
        <ele>707.60000000000002</ele>
        <time>2003-04-13T12:12:07Z</time>
      </trkpt>
      <trkpt lat="33.6663350276649" lon="-3.538902970030904">
        <ele>707.29999999999995</ele>
        <time>2003-04-13T12:12:10Z</time>
      </trkpt>
      <trkpt lat="33.665417041629553" lon="-3.539092987775803">
        <ele>705.79999999999995</ele>
        <time>2003-04-13T12:12:14Z</time>
      </trkpt>
      <trkpt lat="33.664354970678687" lon="-3.539312006905675">
        <ele>710.60000000000002</ele>
        <time>2003-04-13T12:12:19Z</time>
      </trkpt>
      <trkpt lat="33.663376970216632" lon="-3.539422983303666">
        <ele>711.39999999999998</ele>
        <time>2003-04-13T12:12:25Z</time>
      </trkpt>
      <trkpt lat="33.662325041368604" lon="-3.539412003010511">
        <ele>712</ele>
        <time>2003-04-13T12:12:30Z</time>
      </trkpt>
      <trkpt lat="33.661252995952964" lon="-3.539379984140396">
        <ele>712</ele>
        <time>2003-04-13T12:12:34Z</time>
      </trkpt>
      <trkpt lat="33.660350013524294" lon="-3.5393469594419">
        <ele>712.5</ele>
        <time>2003-04-13T12:12:38Z</time>
      </trkpt>
      <trkpt lat="33.659422975033522" lon="-3.53932298719883">
        <ele>713.89999999999998</ele>
        <time>2003-04-13T12:12:42Z</time>
      </trkpt>
      <trkpt lat="33.658487973734736" lon="-3.539292979985476">
        <ele>715.29999999999995</ele>
        <time>2003-04-13T12:12:46Z</time>
      </trkpt>
      <trkpt lat="33.657424980774522" lon="-3.539272025227547">
        <ele>717.20000000000005</ele>
        <time>2003-04-13T12:12:52Z</time>
      </trkpt>
      <trkpt lat="33.656312031671405" lon="-3.539349976927042">
        <ele>718.89999999999998</ele>
        <time>2003-04-13T12:12:57Z</time>
      </trkpt>
      <trkpt lat="33.655381975695491" lon="-3.539466988295317">
        <ele>719.60000000000002</ele>
        <time>2003-04-13T12:13:01Z</time>
      </trkpt>
      <trkpt lat="33.654429959133267" lon="-3.53960202075541">
        <ele>720.5</ele>
        <time>2003-04-13T12:13:04Z</time>
      </trkpt>
      <trkpt lat="33.653456987813115" lon="-3.539749961346388">
        <ele>721.60000000000002</ele>
        <time>2003-04-13T12:13:08Z</time>
      </trkpt>
      <trkpt lat="33.652458032593131" lon="-3.539888011291623">
        <ele>722.60000000000002</ele>
        <time>2003-04-13T12:13:12Z</time>
      </trkpt>
      <trkpt lat="33.651454970240593" lon="-3.540024971589446">
        <ele>724</ele>
        <time>2003-04-13T12:13:16Z</time>
      </trkpt>
      <trkpt lat="33.650483004748821" lon="-3.540152963250876">
        <ele>724.70000000000005</ele>
        <time>2003-04-13T12:13:20Z</time>
      </trkpt>
      <trkpt lat="33.64951497875154" lon="-3.540305010974407">
        <ele>725.5</ele>
        <time>2003-04-13T12:13:24Z</time>
      </trkpt>
      <trkpt lat="33.648554999381304" lon="-3.540425039827824">
        <ele>726</ele>
        <time>2003-04-13T12:13:28Z</time>
      </trkpt>
      <trkpt lat="33.647604994475842" lon="-3.540559988468885">
        <ele>726.89999999999998</ele>
        <time>2003-04-13T12:13:32Z</time>
      </trkpt>
      <trkpt lat="33.646643003448844" lon="-3.540686974301934">
        <ele>728.5</ele>
        <time>2003-04-13T12:13:36Z</time>
      </trkpt>
      <trkpt lat="33.645668020471931" lon="-3.540837010368705">
        <ele>729.79999999999995</ele>
        <time>2003-04-13T12:13:40Z</time>
      </trkpt>
      <trkpt lat="33.644748022779822" lon="-3.540961984544992">
        <ele>731.10000000000002</ele>
        <time>2003-04-13T12:13:44Z</time>
      </trkpt>
      <trkpt lat="33.643858032301068" lon="-3.541142027825117">
        <ele>731.39999999999998</ele>
        <time>2003-04-13T12:13:48Z</time>
      </trkpt>
      <trkpt lat="33.642962006852031" lon="-3.541400022804737">
        <ele>731</ele>
        <time>2003-04-13T12:13:53Z</time>
      </trkpt>
      <trkpt lat="33.642042009159923" lon="-3.541748039424419">
        <ele>730.60000000000002</ele>
        <time>2003-04-13T12:13:57Z</time>
      </trkpt>
      <trkpt lat="33.641089992597699" lon="-3.542141988873482">
        <ele>730.10000000000002</ele>
        <time>2003-04-13T12:14:01Z</time>
      </trkpt>
      <trkpt lat="33.640107968822122" lon="-3.542516995221376">
        <ele>730.10000000000002</ele>
        <time>2003-04-13T12:14:05Z</time>
      </trkpt>
      <trkpt lat="33.639150001108646" lon="-3.542884960770607">
        <ele>730.89999999999998</ele>
        <time>2003-04-13T12:14:09Z</time>
      </trkpt>
      <trkpt lat="33.638230003416538" lon="-3.543142033740878">
        <ele>731.89999999999998</ele>
        <time>2003-04-13T12:14:13Z</time>
      </trkpt>
      <trkpt lat="33.637316962704062" lon="-3.543289974331856">
        <ele>732.79999999999995</ele>
        <time>2003-04-13T12:14:17Z</time>
      </trkpt>
      <trkpt lat="33.63623502664268" lon="-3.543449984863401">
        <ele>733</ele>
        <time>2003-04-13T12:14:22Z</time>
      </trkpt>
      <trkpt lat="33.635115036740899" lon="-3.543606977909803">
        <ele>732.70000000000005</ele>
        <time>2003-04-13T12:14:26Z</time>
      </trkpt>
      <trkpt lat="33.634060006588697" lon="-3.543772017583251">
        <ele>733.60000000000002</ele>
        <time>2003-04-13T12:14:32Z</time>
      </trkpt>
      <trkpt lat="33.633092986419797" lon="-3.543903026729822">
        <ele>734</ele>
        <time>2003-04-13T12:14:37Z</time>
      </trkpt>
      <trkpt lat="33.632090007886291" lon="-3.54404803365469">
        <ele>734.79999999999995</ele>
        <time>2003-04-13T12:14:41Z</time>
      </trkpt>
      <trkpt lat="33.631034977734089" lon="-3.544202009215951">
        <ele>735.60000000000002</ele>
        <time>2003-04-13T12:14:47Z</time>
      </trkpt>
      <trkpt lat="33.629939965903759" lon="-3.544356990605593">
        <ele>736.5</ele>
        <time>2003-04-13T12:14:52Z</time>
      </trkpt>
      <trkpt lat="33.629040000960231" lon="-3.544495040550828">
        <ele>737.20000000000005</ele>
        <time>2003-04-13T12:14:56Z</time>
      </trkpt>
      <trkpt lat="33.628131989389658" lon="-3.544622026383877">
        <ele>737.89999999999998</ele>
        <time>2003-04-13T12:15:00Z</time>
      </trkpt>
      <trkpt lat="33.627028008922935" lon="-3.54478002525866">
        <ele>739.10000000000002</ele>
        <time>2003-04-13T12:15:04Z</time>
      </trkpt>
      <trkpt lat="33.625912964344025" lon="-3.544940035790205">
        <ele>739.79999999999995</ele>
        <time>2003-04-13T12:15:09Z</time>
      </trkpt>
      <trkpt lat="33.625006964430213" lon="-3.545071966946125">
        <ele>740.10000000000002</ele>
        <time>2003-04-13T12:15:14Z</time>
      </trkpt>
      <trkpt lat="33.623908013105392" lon="-3.545225020498037">
        <ele>739</ele>
        <time>2003-04-13T12:15:19Z</time>
      </trkpt>
      <trkpt lat="33.622836973518133" lon="-3.545386958867312">
        <ele>739.10000000000002</ele>
        <time>2003-04-13T12:15:23Z</time>
      </trkpt>
      <trkpt lat="33.621742967516184" lon="-3.545536994934082">
        <ele>742.5</ele>
        <time>2003-04-13T12:15:28Z</time>
      </trkpt>
      <trkpt lat="33.620648039504886" lon="-3.545707985758781">
        <ele>746.29999999999995</ele>
        <time>2003-04-13T12:15:34Z</time>
      </trkpt>
      <trkpt lat="33.619553027674556" lon="-3.54593999683857">
        <ele>749</ele>
        <time>2003-04-13T12:15:39Z</time>
      </trkpt>
      <trkpt lat="33.618917008861899" lon="-3.546237973496318">
        <ele>748.70000000000005</ele>
        <time>2003-04-13T12:15:42Z</time>
      </trkpt>
      <trkpt lat="33.618307979777455" lon="-3.546657990664244">
        <ele>747.89999999999998</ele>
        <time>2003-04-13T12:15:45Z</time>
      </trkpt>
      <trkpt lat="33.617529971525073" lon="-3.547372967004776">
        <ele>746.70000000000005</ele>
        <time>2003-04-13T12:15:49Z</time>
      </trkpt>
      <trkpt lat="33.61672698520124" lon="-3.548090038821101">
        <ele>745.79999999999995</ele>
        <time>2003-04-13T12:15:53Z</time>
      </trkpt>
      <trkpt lat="33.615915030241013" lon="-3.548833010718226">
        <ele>744.79999999999995</ele>
        <time>2003-04-13T12:15:57Z</time>
      </trkpt>
      <trkpt lat="33.615111960098147" lon="-3.549568019807339">
        <ele>744.20000000000005</ele>
        <time>2003-04-13T12:16:01Z</time>
      </trkpt>
      <trkpt lat="33.614379968494177" lon="-3.550227005034685">
        <ele>743.70000000000005</ele>
        <time>2003-04-13T12:16:05Z</time>
      </trkpt>
      <trkpt lat="33.613661974668503" lon="-3.550897976383567">
        <ele>743</ele>
        <time>2003-04-13T12:16:09Z</time>
      </trkpt>
      <trkpt lat="33.612937023863196" lon="-3.551562996581197">
        <ele>743.10000000000002</ele>
        <time>2003-04-13T12:16:13Z</time>
      </trkpt>
      <trkpt lat="33.612205032259226" lon="-3.552227010950446">
        <ele>743.10000000000002</ele>
        <time>2003-04-13T12:16:17Z</time>
      </trkpt>
      <trkpt lat="33.611473040655255" lon="-3.552893036976457">
        <ele>743.39999999999998</ele>
        <time>2003-04-13T12:16:21Z</time>
      </trkpt>
      <trkpt lat="33.610597969964147" lon="-3.553691999986768">
        <ele>741.70000000000005</ele>
        <time>2003-04-13T12:16:25Z</time>
      </trkpt>
      <trkpt lat="33.609772017225623" lon="-3.554451987147331">
        <ele>740.29999999999995</ele>
        <time>2003-04-13T12:16:30Z</time>
      </trkpt>
      <trkpt lat="33.6089270375669" lon="-3.555214991793037">
        <ele>739.60000000000002</ele>
        <time>2003-04-13T12:16:36Z</time>
      </trkpt>
      <trkpt lat="33.608036963269114" lon="-3.55595201253891">
        <ele>738.79999999999995</ele>
        <time>2003-04-13T12:16:40Z</time>
      </trkpt>
      <trkpt lat="33.607258033007383" lon="-3.556457022204995">
        <ele>739.10000000000002</ele>
        <time>2003-04-13T12:16:44Z</time>
      </trkpt>
      <trkpt lat="33.606420010328293" lon="-3.556881984695792">
        <ele>739</ele>
        <time>2003-04-13T12:16:48Z</time>
      </trkpt>
      <trkpt lat="33.605562038719654" lon="-3.557288004085422">
        <ele>738.60000000000002</ele>
        <time>2003-04-13T12:16:52Z</time>
      </trkpt>
      <trkpt lat="33.604702977463603" lon="-3.557701986283064">
        <ele>738.60000000000002</ele>
        <time>2003-04-13T12:16:56Z</time>
      </trkpt>
      <trkpt lat="33.603824973106384" lon="-3.558128038421273">
        <ele>738.79999999999995</ele>
        <time>2003-04-13T12:17:00Z</time>
      </trkpt>
      <trkpt lat="33.60293498262763" lon="-3.558558030053973">
        <ele>739.70000000000005</ele>
        <time>2003-04-13T12:17:04Z</time>
      </trkpt>
      <trkpt lat="33.602033006027341" lon="-3.558990033343434">
        <ele>741</ele>
        <time>2003-04-13T12:17:08Z</time>
      </trkpt>
      <trkpt lat="33.601124994456768" lon="-3.559422036632896">
        <ele>742.39999999999998</ele>
        <time>2003-04-13T12:17:12Z</time>
      </trkpt>
      <trkpt lat="33.600222012028098" lon="-3.559865020215511">
        <ele>743</ele>
        <time>2003-04-13T12:17:16Z</time>
      </trkpt>
      <trkpt lat="33.599382983520627" lon="-3.560265004634857">
        <ele>741.29999999999995</ele>
        <time>2003-04-13T12:17:20Z</time>
      </trkpt>
      <trkpt lat="33.598552001640201" lon="-3.560564992949367">
        <ele>739.70000000000005</ele>
        <time>2003-04-13T12:17:24Z</time>
      </trkpt>
      <trkpt lat="33.597450032830238" lon="-3.560734977945685">
        <ele>737.89999999999998</ele>
        <time>2003-04-13T12:17:30Z</time>
      </trkpt>
      <trkpt lat="33.596528023481369" lon="-3.560866992920637">
        <ele>735.89999999999998</ele>
        <time>2003-04-13T12:17:34Z</time>
      </trkpt>
      <trkpt lat="33.595623029395938" lon="-3.561003031209111">
        <ele>734.89999999999998</ele>
        <time>2003-04-13T12:17:38Z</time>
      </trkpt>
      <trkpt lat="33.594979969784617" lon="-3.561224984005094">
        <ele>734.20000000000005</ele>
        <time>2003-04-13T12:17:41Z</time>
      </trkpt>
      <trkpt lat="33.594134990125895" lon="-3.561654975637794">
        <ele>732.29999999999995</ele>
        <time>2003-04-13T12:17:45Z</time>
      </trkpt>
      <trkpt lat="33.593247011303902" lon="-3.562116986140609">
        <ele>730.20000000000005</ele>
        <time>2003-04-13T12:17:49Z</time>
      </trkpt>
      <trkpt lat="33.592328019440174" lon="-3.562610009685159">
        <ele>728.79999999999995</ele>
        <time>2003-04-13T12:17:53Z</time>
      </trkpt>
      <trkpt lat="33.591411961242557" lon="-3.563087023794651">
        <ele>728.20000000000005</ele>
        <time>2003-04-13T12:17:57Z</time>
      </trkpt>
      <trkpt lat="33.590528005734086" lon="-3.563550040125847">
        <ele>728.70000000000005</ele>
        <time>2003-04-13T12:18:01Z</time>
      </trkpt>
      <trkpt lat="33.589671961963177" lon="-3.563996963202953">
        <ele>728.79999999999995</ele>
        <time>2003-04-13T12:18:05Z</time>
      </trkpt>
      <trkpt lat="33.588814996182919" lon="-3.564446987584233">
        <ele>729.5</ele>
        <time>2003-04-13T12:18:09Z</time>
      </trkpt>
      <trkpt lat="33.587973034009337" lon="-3.564883014187217">
        <ele>731.60000000000002</ele>
        <time>2003-04-13T12:18:13Z</time>
      </trkpt>
      <trkpt lat="33.587138028815389" lon="-3.565324991941452">
        <ele>734.29999999999995</ele>
        <time>2003-04-13T12:18:17Z</time>
      </trkpt>
      <trkpt lat="33.586305035278201" lon="-3.565763030201197">
        <ele>736.60000000000002</ele>
        <time>2003-04-13T12:18:21Z</time>
      </trkpt>
      <trkpt lat="33.585457038134336" lon="-3.56620199047029">
        <ele>736.5</ele>
        <time>2003-04-13T12:18:25Z</time>
      </trkpt>
      <trkpt lat="33.584586996585131" lon="-3.566662995144725">
        <ele>735.10000000000002</ele>
        <time>2003-04-13T12:18:28Z</time>
      </trkpt>
      <trkpt lat="33.583689965307713" lon="-3.567127017304301">
        <ele>733.89999999999998</ele>
        <time>2003-04-13T12:18:32Z</time>
      </trkpt>
      <trkpt lat="33.582769967615604" lon="-3.567607970908284">
        <ele>732.70000000000005</ele>
        <time>2003-04-13T12:18:36Z</time>
      </trkpt>
      <trkpt lat="33.581827003508806" lon="-3.568097976967692">
        <ele>730.70000000000005</ele>
        <time>2003-04-13T12:18:40Z</time>
      </trkpt>
      <trkpt lat="33.58086702413857" lon="-3.568602986633778">
        <ele>728.70000000000005</ele>
        <time>2003-04-13T12:18:44Z</time>
      </trkpt>
      <trkpt lat="33.579907966777682" lon="-3.569101961329579">
        <ele>727.70000000000005</ele>
        <time>2003-04-13T12:18:48Z</time>
      </trkpt>
      <trkpt lat="33.579002972692251" lon="-3.569581992924213">
        <ele>727.20000000000005</ele>
        <time>2003-04-13T12:18:52Z</time>
      </trkpt>
      <trkpt lat="33.577981973066926" lon="-3.570050038397312">
        <ele>725.89999999999998</ele>
        <time>2003-04-13T12:18:58Z</time>
      </trkpt>
      <trkpt lat="33.577552987262607" lon="-3.570122960954905">
        <ele>725.10000000000002</ele>
        <time>2003-04-13T12:18:59Z</time>
      </trkpt>
      <trkpt lat="33.577102962881327" lon="-3.570105023682118">
        <ele>724.20000000000005</ele>
        <time>2003-04-13T12:19:02Z</time>
      </trkpt>
      <trkpt lat="33.57665503397584" lon="-3.569994969293475">
        <ele>723.89999999999998</ele>
        <time>2003-04-13T12:19:03Z</time>
      </trkpt>
      <trkpt lat="33.576226970180869" lon="-3.569781985133886">
        <ele>724.5</ele>
        <time>2003-04-13T12:19:06Z</time>
      </trkpt>
      <trkpt lat="33.575419960543513" lon="-3.569245040416718">
        <ele>725.5</ele>
        <time>2003-04-13T12:19:10Z</time>
      </trkpt>
      <trkpt lat="33.574988041073084" lon="-3.569019986316562">
        <ele>725.5</ele>
        <time>2003-04-13T12:19:11Z</time>
      </trkpt>
      <trkpt lat="33.574527958407998" lon="-3.568880008533597">
        <ele>725.29999999999995</ele>
        <time>2003-04-13T12:19:14Z</time>
      </trkpt>
      <trkpt lat="33.574062008410692" lon="-3.568831980228424">
        <ele>726.70000000000005</ele>
        <time>2003-04-13T12:19:15Z</time>
      </trkpt>
      <trkpt lat="33.57360796071589" lon="-3.568889982998371">
        <ele>728.5</ele>
        <time>2003-04-13T12:19:18Z</time>
      </trkpt>
      <trkpt lat="33.573179980739951" lon="-3.569028032943606">
        <ele>729.70000000000005</ele>
        <time>2003-04-13T12:19:19Z</time>
      </trkpt>
      <trkpt lat="33.572226958349347" lon="-3.569398010149598">
        <ele>732.60000000000002</ele>
        <time>2003-04-13T12:19:25Z</time>
      </trkpt>
      <trkpt lat="33.571258010342717" lon="-3.569826995953918">
        <ele>732.79999999999995</ele>
        <time>2003-04-13T12:19:30Z</time>
      </trkpt>
      <trkpt lat="33.570915022864938" lon="-3.570097982883453">
        <ele>732.60000000000002</ele>
        <time>2003-04-13T12:19:31Z</time>
      </trkpt>
      <trkpt lat="33.570427028462291" lon="-3.570593018084765">
        <ele>732.20000000000005</ele>
        <time>2003-04-13T12:19:34Z</time>
      </trkpt>
      <trkpt lat="33.570141959935427" lon="-3.570999959483743">
        <ele>731.70000000000005</ele>
        <time>2003-04-13T12:19:37Z</time>
      </trkpt>
      <trkpt lat="33.569901986047626" lon="-3.571449983865023">
        <ele>731.5</ele>
        <time>2003-04-13T12:19:38Z</time>
      </trkpt>
      <trkpt lat="33.569448022171855" lon="-3.572393031790853">
        <ele>730.5</ele>
        <time>2003-04-13T12:19:42Z</time>
      </trkpt>
      <trkpt lat="33.568982994183898" lon="-3.573385030031204">
        <ele>729.20000000000005</ele>
        <time>2003-04-13T12:19:46Z</time>
      </trkpt>
      <trkpt lat="33.568517966195941" lon="-3.574381973594427">
        <ele>727.79999999999995</ele>
        <time>2003-04-13T12:19:50Z</time>
      </trkpt>
      <trkpt lat="33.568031983450055" lon="-3.575380006805062">
        <ele>726.29999999999995</ele>
        <time>2003-04-13T12:19:54Z</time>
      </trkpt>
      <trkpt lat="33.56754801236093" lon="-3.57640502974391">
        <ele>724.20000000000005</ele>
        <time>2003-04-13T12:19:58Z</time>
      </trkpt>
      <trkpt lat="33.566994974389672" lon="-3.577387975528836">
        <ele>722.10000000000002</ele>
        <time>2003-04-13T12:20:02Z</time>
      </trkpt>
      <trkpt lat="33.56647496111691" lon="-3.578002033755183">
        <ele>720.5</ele>
        <time>2003-04-13T12:20:05Z</time>
      </trkpt>
      <trkpt lat="33.565683038905263" lon="-3.578699994832277">
        <ele>718.79999999999995</ele>
        <time>2003-04-13T12:20:09Z</time>
      </trkpt>
      <trkpt lat="33.564884997904301" lon="-3.57937297783792">
        <ele>718.60000000000002</ele>
        <time>2003-04-13T12:20:13Z</time>
      </trkpt>
      <trkpt lat="33.564082011580467" lon="-3.580055013298988">
        <ele>718.79999999999995</ele>
        <time>2003-04-13T12:20:17Z</time>
      </trkpt>
      <trkpt lat="33.563259998336434" lon="-3.580752974376082">
        <ele>718.79999999999995</ele>
        <time>2003-04-13T12:20:21Z</time>
      </trkpt>
      <trkpt lat="33.562437985092402" lon="-3.581461999565363">
        <ele>718.89999999999998</ele>
        <time>2003-04-13T12:20:25Z</time>
      </trkpt>
      <trkpt lat="33.561686966568232" lon="-3.582234978675842">
        <ele>718.5</ele>
        <time>2003-04-13T12:20:29Z</time>
      </trkpt>
      <trkpt lat="33.561072992160916" lon="-3.583117006346583">
        <ele>716.29999999999995</ele>
        <time>2003-04-13T12:20:33Z</time>
      </trkpt>
      <trkpt lat="33.56037201359868" lon="-3.584031974896789">
        <ele>716.20000000000005</ele>
        <time>2003-04-13T12:20:39Z</time>
      </trkpt>
      <trkpt lat="33.559649996459484" lon="-3.58495800755918">
        <ele>718.89999999999998</ele>
        <time>2003-04-13T12:20:43Z</time>
      </trkpt>
      <trkpt lat="33.558924961835146" lon="-3.585931984707713">
        <ele>721</ele>
        <time>2003-04-13T12:20:48Z</time>
      </trkpt>
      <trkpt lat="33.55815801769495" lon="-3.586921971291304">
        <ele>721</ele>
        <time>2003-04-13T12:20:54Z</time>
      </trkpt>
      <trkpt lat="33.557508001103997" lon="-3.58779301866889">
        <ele>718.20000000000005</ele>
        <time>2003-04-13T12:20:58Z</time>
      </trkpt>
      <trkpt lat="33.556835018098354" lon="-3.588728019967675">
        <ele>715.5</ele>
        <time>2003-04-13T12:21:02Z</time>
      </trkpt>
      <trkpt lat="33.556143008172512" lon="-3.589707026258111">
        <ele>712.29999999999995</ele>
        <time>2003-04-13T12:21:06Z</time>
      </trkpt>
      <trkpt lat="33.555447980761528" lon="-3.590721990913153">
        <ele>711.60000000000002</ele>
        <time>2003-04-13T12:21:10Z</time>
      </trkpt>
      <trkpt lat="33.554748008027673" lon="-3.591747013852">
        <ele>712.39999999999998</ele>
        <time>2003-04-13T12:21:14Z</time>
      </trkpt>
      <trkpt lat="33.554058009758592" lon="-3.592644967138767">
        <ele>717</ele>
        <time>2003-04-13T12:21:18Z</time>
      </trkpt>
      <trkpt lat="33.553703036159277" lon="-3.592951996251941">
        <ele>720.5</ele>
        <time>2003-04-13T12:21:19Z</time>
      </trkpt>
      <trkpt lat="33.553297016769648" lon="-3.593147965148091">
        <ele>723.5</ele>
        <time>2003-04-13T12:21:22Z</time>
      </trkpt>
      <trkpt lat="33.552286997437477" lon="-3.593488018959761">
        <ele>730.5</ele>
        <time>2003-04-13T12:21:26Z</time>
      </trkpt>
      <trkpt lat="33.551330035552382" lon="-3.59380804002285">
        <ele>736.79999999999995</ele>
        <time>2003-04-13T12:21:32Z</time>
      </trkpt>
      <trkpt lat="33.550344994291663" lon="-3.594127977266908">
        <ele>738.60000000000002</ele>
        <time>2003-04-13T12:21:37Z</time>
      </trkpt>
      <trkpt lat="33.549300022423267" lon="-3.594474988058209">
        <ele>739.20000000000005</ele>
        <time>2003-04-13T12:21:41Z</time>
      </trkpt>
      <trkpt lat="33.548222025856376" lon="-3.594821998849511">
        <ele>739.60000000000002</ele>
        <time>2003-04-13T12:21:46Z</time>
      </trkpt>
      <trkpt lat="33.547339998185635" lon="-3.595115030184388">
        <ele>739.89999999999998</ele>
        <time>2003-04-13T12:21:50Z</time>
      </trkpt>
      <trkpt lat="33.546427041292191" lon="-3.595422981306911">
        <ele>740.70000000000005</ele>
        <time>2003-04-13T12:21:54Z</time>
      </trkpt>
      <trkpt lat="33.545488016679883" lon="-3.595730010420084">
        <ele>742</ele>
        <time>2003-04-13T12:21:59Z</time>
      </trkpt>
      <trkpt lat="33.544538011774421" lon="-3.596050031483173">
        <ele>743.39999999999998</ele>
        <time>2003-04-13T12:22:03Z</time>
      </trkpt>
      <trkpt lat="33.543571997433901" lon="-3.596368040889502">
        <ele>744.5</ele>
        <time>2003-04-13T12:22:07Z</time>
      </trkpt>
      <trkpt lat="33.542592991143465" lon="-3.59668998979032">
        <ele>744.79999999999995</ele>
        <time>2003-04-13T12:22:11Z</time>
      </trkpt>
      <trkpt lat="33.541608033701777" lon="-3.597019985318184">
        <ele>745.70000000000005</ele>
        <time>2003-04-13T12:22:15Z</time>
      </trkpt>
      <trkpt lat="33.540602959692478" lon="-3.59735500998795">
        <ele>746.60000000000002</ele>
        <time>2003-04-13T12:22:19Z</time>
      </trkpt>
      <trkpt lat="33.539584977552295" lon="-3.597681988030672">
        <ele>747.20000000000005</ele>
        <time>2003-04-13T12:22:23Z</time>
      </trkpt>
      <trkpt lat="33.538579987362027" lon="-3.598018018528819">
        <ele>747.79999999999995</ele>
        <time>2003-04-13T12:22:27Z</time>
      </trkpt>
      <trkpt lat="33.53759796358645" lon="-3.598397970199585">
        <ele>748.29999999999995</ele>
        <time>2003-04-13T12:22:31Z</time>
      </trkpt>
      <trkpt lat="33.536619963124394" lon="-3.598798038437963">
        <ele>748.70000000000005</ele>
        <time>2003-04-13T12:22:35Z</time>
      </trkpt>
      <trkpt lat="33.535646991804242" lon="-3.599221995100379">
        <ele>749.60000000000002</ele>
        <time>2003-04-13T12:22:39Z</time>
      </trkpt>
      <trkpt lat="33.53467502631247" lon="-3.599645029753447">
        <ele>751.5</ele>
        <time>2003-04-13T12:22:43Z</time>
      </trkpt>
      <trkpt lat="33.533714963123202" lon="-3.600063035264611">
        <ele>753.5</ele>
        <time>2003-04-13T12:22:47Z</time>
      </trkpt>
      <trkpt lat="33.53276202455163" lon="-3.600472994148731">
        <ele>754.39999999999998</ele>
        <time>2003-04-13T12:22:51Z</time>
      </trkpt>
      <trkpt lat="33.531819982454181" lon="-3.600865015760064">
        <ele>755.39999999999998</ele>
        <time>2003-04-13T12:22:55Z</time>
      </trkpt>
      <trkpt lat="33.530886992812157" lon="-3.601229963824153">
        <ele>756.39999999999998</ele>
        <time>2003-04-13T12:22:58Z</time>
      </trkpt>
      <trkpt lat="33.530161958187819" lon="-3.601376982405782">
        <ele>757.29999999999995</ele>
        <time>2003-04-13T12:23:02Z</time>
      </trkpt>
      <trkpt lat="33.529425021260977" lon="-3.601346975192428">
        <ele>758</ele>
        <time>2003-04-13T12:23:05Z</time>
      </trkpt>
      <trkpt lat="33.528436962515116" lon="-3.601255025714636">
        <ele>758.70000000000005</ele>
        <time>2003-04-13T12:23:09Z</time>
      </trkpt>
      <trkpt lat="33.527446975931525" lon="-3.601170033216476">
        <ele>759.39999999999998</ele>
        <time>2003-04-13T12:23:13Z</time>
      </trkpt>
      <trkpt lat="33.526442991569638" lon="-3.601077999919653">
        <ele>760.10000000000002</ele>
        <time>2003-04-13T12:23:17Z</time>
      </trkpt>
      <trkpt lat="33.52541696280241" lon="-3.60098697245121">
        <ele>760.60000000000002</ele>
        <time>2003-04-13T12:23:21Z</time>
      </trkpt>
      <trkpt lat="33.524371990934014" lon="-3.600899968296289">
        <ele>761.29999999999995</ele>
        <time>2003-04-13T12:23:25Z</time>
      </trkpt>
      <trkpt lat="33.523317966610193" lon="-3.600807012990117">
        <ele>762.5</ele>
        <time>2003-04-13T12:23:29Z</time>
      </trkpt>
      <trkpt lat="33.52225698530674" lon="-3.600753033533692">
        <ele>763.39999999999998</ele>
        <time>2003-04-13T12:23:33Z</time>
      </trkpt>
      <trkpt lat="33.521202960982919" lon="-3.600827967748046">
        <ele>765.10000000000002</ele>
        <time>2003-04-13T12:23:37Z</time>
      </trkpt>
      <trkpt lat="33.520133011043072" lon="-3.600914971902967">
        <ele>766.60000000000002</ele>
        <time>2003-04-13T12:23:41Z</time>
      </trkpt>
      <trkpt lat="33.519074963405728" lon="-3.601004993543029">
        <ele>768.29999999999995</ele>
        <time>2003-04-13T12:23:45Z</time>
      </trkpt>
      <trkpt lat="33.51802496239543" lon="-3.601099960505962">
        <ele>769.60000000000002</ele>
        <time>2003-04-13T12:23:49Z</time>
      </trkpt>
      <trkpt lat="33.516958029940724" lon="-3.601186964660883">
        <ele>770.10000000000002</ele>
        <time>2003-04-13T12:23:53Z</time>
      </trkpt>
      <trkpt lat="33.515862012282014" lon="-3.601276986300945">
        <ele>770.79999999999995</ele>
        <time>2003-04-13T12:23:57Z</time>
      </trkpt>
      <trkpt lat="33.514747973531485" lon="-3.601368013769388">
        <ele>771.29999999999995</ele>
        <time>2003-04-13T12:24:01Z</time>
      </trkpt>
      <trkpt lat="33.513612980023026" lon="-3.601461974903941">
        <ele>771.5</ele>
        <time>2003-04-13T12:24:05Z</time>
      </trkpt>
      <trkpt lat="33.512455020099878" lon="-3.601558031514287">
        <ele>771.79999999999995</ele>
        <time>2003-04-13T12:24:09Z</time>
      </trkpt>
      <trkpt lat="33.511281972751021" lon="-3.601649980992079">
        <ele>772.20000000000005</ele>
        <time>2003-04-13T12:24:14Z</time>
      </trkpt>
      <trkpt lat="33.510172963142395" lon="-3.601746959611774">
        <ele>773.39999999999998</ele>
        <time>2003-04-13T12:24:18Z</time>
      </trkpt>
      <trkpt lat="33.509136959910393" lon="-3.601807979866862">
        <ele>770.79999999999995</ele>
        <time>2003-04-13T12:24:22Z</time>
      </trkpt>
      <trkpt lat="33.50803499110043" lon="-3.601813009008765">
        <ele>765.60000000000002</ele>
        <time>2003-04-13T12:24:26Z</time>
      </trkpt>
      <trkpt lat="33.506899997591972" lon="-3.60175802372396">
        <ele>763.79999999999995</ele>
        <time>2003-04-13T12:24:30Z</time>
      </trkpt>
      <trkpt lat="33.505768021568656" lon="-3.601677976548672">
        <ele>764</ele>
        <time>2003-04-13T12:24:34Z</time>
      </trkpt>
      <trkpt lat="33.504666974768043" lon="-3.601625002920628">
        <ele>767</ele>
        <time>2003-04-13T12:24:38Z</time>
      </trkpt>
      <trkpt lat="33.503934983164072" lon="-3.601706977933645">
        <ele>769.79999999999995</ele>
        <time>2003-04-13T12:24:41Z</time>
      </trkpt>
      <trkpt lat="33.502975003793836" lon="-3.601949969306588">
        <ele>772.29999999999995</ele>
        <time>2003-04-13T12:24:45Z</time>
      </trkpt>
      <trkpt lat="33.501985017210245" lon="-3.602190027013421">
        <ele>772.29999999999995</ele>
        <time>2003-04-13T12:24:49Z</time>
      </trkpt>
      <trkpt lat="33.501005005091429" lon="-3.602433018386364">
        <ele>771.79999999999995</ele>
        <time>2003-04-13T12:24:53Z</time>
      </trkpt>
      <trkpt lat="33.500377032905817" lon="-3.602677015587688">
        <ele>771.5</ele>
        <time>2003-04-13T12:24:55Z</time>
      </trkpt>
      <trkpt lat="33.499994985759258" lon="-3.60294297337532">
        <ele>771.29999999999995</ele>
        <time>2003-04-13T12:24:58Z</time>
      </trkpt>
      <trkpt lat="33.499472038820386" lon="-3.603486958891153">
        <ele>769.60000000000002</ele>
        <time>2003-04-13T12:25:01Z</time>
      </trkpt>
      <trkpt lat="33.498897040262818" lon="-3.604387007653713">
        <ele>767.29999999999995</ele>
        <time>2003-04-13T12:25:05Z</time>
      </trkpt>
      <trkpt lat="33.498318018391728" lon="-3.605442037805915">
        <ele>763.89999999999998</ele>
        <time>2003-04-13T12:25:10Z</time>
      </trkpt>
      <trkpt lat="33.498190026730299" lon="-3.605921985581517">
        <ele>762.39999999999998</ele>
        <time>2003-04-13T12:25:12Z</time>
      </trkpt>
      <trkpt lat="33.498117020353675" lon="-3.606439987197518">
        <ele>760.60000000000002</ele>
        <time>2003-04-13T12:25:13Z</time>
      </trkpt>
      <trkpt lat="33.498115008696914" lon="-3.606980033218861">
        <ele>759.79999999999995</ele>
        <time>2003-04-13T12:25:16Z</time>
      </trkpt>
      <trkpt lat="33.49810503423214" lon="-3.608083007857204">
        <ele>759.39999999999998</ele>
        <time>2003-04-13T12:25:20Z</time>
      </trkpt>
      <trkpt lat="33.498075027018785" lon="-3.609237028285861">
        <ele>758.5</ele>
        <time>2003-04-13T12:25:24Z</time>
      </trkpt>
      <trkpt lat="33.497975030913949" lon="-3.610043032094836">
        <ele>759</ele>
        <time>2003-04-13T12:25:26Z</time>
      </trkpt>
      <trkpt lat="33.497791970148683" lon="-3.610532032325864">
        <ele>760.29999999999995</ele>
        <time>2003-04-13T12:25:29Z</time>
      </trkpt>
      <trkpt lat="33.497436996549368" lon="-3.611208032816649">
        <ele>760.20000000000005</ele>
        <time>2003-04-13T12:25:32Z</time>
      </trkpt>
      <trkpt lat="33.496877001598477" lon="-3.612074973061681">
        <ele>759</ele>
        <time>2003-04-13T12:25:36Z</time>
      </trkpt>
      <trkpt lat="33.496339973062277" lon="-3.612948032096028">
        <ele>763.89999999999998</ele>
        <time>2003-04-13T12:25:40Z</time>
      </trkpt>
      <trkpt lat="33.495706971734762" lon="-3.613976994529367">
        <ele>767.5</ele>
        <time>2003-04-13T12:25:44Z</time>
      </trkpt>
      <trkpt lat="33.49524999037385" lon="-3.614536989480257">
        <ele>767.89999999999998</ele>
        <time>2003-04-13T12:25:48Z</time>
      </trkpt>
      <trkpt lat="33.494886970147491" lon="-3.614845024421811">
        <ele>768.20000000000005</ele>
        <time>2003-04-13T12:25:49Z</time>
      </trkpt>
      <trkpt lat="33.494472987949848" lon="-3.615075023844838">
        <ele>768.60000000000002</ele>
        <time>2003-04-13T12:25:52Z</time>
      </trkpt>
      <trkpt lat="33.494030004367232" lon="-3.615215001627803">
        <ele>769.29999999999995</ele>
        <time>2003-04-13T12:25:53Z</time>
      </trkpt>
      <trkpt lat="33.493566988036036" lon="-3.615271998569369">
        <ele>769.5</ele>
        <time>2003-04-13T12:25:56Z</time>
      </trkpt>
      <trkpt lat="33.492620000615716" lon="-3.615271998569369">
        <ele>770.5</ele>
        <time>2003-04-13T12:26:00Z</time>
      </trkpt>
      <trkpt lat="33.491649962961674" lon="-3.615287002176046">
        <ele>770.29999999999995</ele>
        <time>2003-04-13T12:26:04Z</time>
      </trkpt>
      <trkpt lat="33.490689983591437" lon="-3.615297982469201">
        <ele>770.5</ele>
        <time>2003-04-13T12:26:07Z</time>
      </trkpt>
      <trkpt lat="33.489735033363104" lon="-3.615308040753007">
        <ele>771.10000000000002</ele>
        <time>2003-04-13T12:26:11Z</time>
      </trkpt>
      <trkpt lat="33.488787962123752" lon="-3.615333018824458">
        <ele>771.70000000000005</ele>
        <time>2003-04-13T12:26:15Z</time>
      </trkpt>
      <trkpt lat="33.487842986360192" lon="-3.615335030481219">
        <ele>772.60000000000002</ele>
        <time>2003-04-13T12:26:19Z</time>
      </trkpt>
      <trkpt lat="33.486907985061407" lon="-3.615351961925626">
        <ele>773.39999999999998</ele>
        <time>2003-04-13T12:26:23Z</time>
      </trkpt>
      <trkpt lat="33.485820014029741" lon="-3.615362020209432">
        <ele>773.70000000000005</ele>
        <time>2003-04-13T12:26:29Z</time>
      </trkpt>
      <trkpt lat="33.485475014895201" lon="-3.615365037694573">
        <ele>773.70000000000005</ele>
        <time>2003-04-13T12:26:31Z</time>
      </trkpt>
      <trkpt lat="33.484502965584397" lon="-3.615397978574038">
        <ele>774</ele>
        <time>2003-04-13T12:26:37Z</time>
      </trkpt>
      <trkpt lat="33.484070040285587" lon="-3.61540200188756">
        <ele>773.79999999999995</ele>
        <time>2003-04-13T12:26:39Z</time>
      </trkpt>
      <trkpt lat="33.483854960650206" lon="-3.615426979959011">
        <ele>773.79999999999995</ele>
        <time>2003-04-13T12:26:42Z</time>
      </trkpt>
      <trkpt lat="33.483711965382099" lon="-3.615426979959011">
        <ele>773.89999999999998</ele>
        <time>2003-04-13T12:26:43Z</time>
      </trkpt>
      <trkpt lat="33.483610041439533" lon="-3.615414993837476">
        <ele>774.29999999999995</ele>
        <time>2003-04-13T12:28:10Z</time>
      </trkpt>
      <trkpt lat="33.483460005372763" lon="-3.61540200188756">
        <ele>774.29999999999995</ele>
        <time>2003-04-13T12:28:11Z</time>
      </trkpt>
      <trkpt lat="33.483279962092638" lon="-3.615397978574038">
        <ele>774.20000000000005</ele>
        <time>2003-04-13T12:28:14Z</time>
      </trkpt>
      <trkpt lat="33.483162028715014" lon="-3.61540200188756">
        <ele>774.10000000000002</ele>
        <time>2003-04-13T12:28:15Z</time>
      </trkpt>
      <trkpt lat="33.482905039563775" lon="-3.615414993837476">
        <ele>774.10000000000002</ele>
        <time>2003-04-13T12:28:17Z</time>
      </trkpt>
      <trkpt lat="33.482347978278995" lon="-3.615511972457171">
        <ele>773.70000000000005</ele>
        <time>2003-04-13T12:28:21Z</time>
      </trkpt>
      <trkpt lat="33.481697961688042" lon="-3.615720011293888">
        <ele>771.5</ele>
        <time>2003-04-13T12:28:25Z</time>
      </trkpt>
      <trkpt lat="33.480777963995934" lon="-3.61619995906949">
        <ele>766.39999999999998</ele>
        <time>2003-04-13T12:28:30Z</time>
      </trkpt>
      <trkpt lat="33.479771967977285" lon="-3.616770012304187">
        <ele>765.39999999999998</ele>
        <time>2003-04-13T12:28:34Z</time>
      </trkpt>
      <trkpt lat="33.478937968611717" lon="-3.617236968129873">
        <ele>765</ele>
        <time>2003-04-13T12:28:38Z</time>
      </trkpt>
      <trkpt lat="33.47808301448822" lon="-3.617718005552888">
        <ele>764.5</ele>
        <time>2003-04-13T12:28:42Z</time>
      </trkpt>
      <trkpt lat="33.477237029001117" lon="-3.618193008005619">
        <ele>764.79999999999995</ele>
        <time>2003-04-13T12:28:46Z</time>
      </trkpt>
      <trkpt lat="33.47640504129231" lon="-3.618659963831306">
        <ele>766.60000000000002</ele>
        <time>2003-04-13T12:28:50Z</time>
      </trkpt>
      <trkpt lat="33.475572969764471" lon="-3.619143012911081">
        <ele>768.20000000000005</ele>
        <time>2003-04-13T12:28:54Z</time>
      </trkpt>
      <trkpt lat="33.4747080411762" lon="-3.619632013142109">
        <ele>767.89999999999998</ele>
        <time>2003-04-13T12:28:58Z</time>
      </trkpt>
      <trkpt lat="33.473822996020317" lon="-3.620084971189499">
        <ele>768.29999999999995</ele>
        <time>2003-04-13T12:29:02Z</time>
      </trkpt>
      <trkpt lat="33.473165016621351" lon="-3.620295021682978">
        <ele>771.10000000000002</ele>
        <time>2003-04-13T12:29:05Z</time>
      </trkpt>
      <trkpt lat="33.472077967599034" lon="-3.620604984462261">
        <ele>772.5</ele>
        <time>2003-04-13T12:29:11Z</time>
      </trkpt>
      <trkpt lat="33.471197029575706" lon="-3.620861973613501">
        <ele>773.10000000000002</ele>
        <time>2003-04-13T12:29:15Z</time>
      </trkpt>
      <trkpt lat="33.470292035490274" lon="-3.621121980249882">
        <ele>773.60000000000002</ele>
        <time>2003-04-13T12:29:19Z</time>
      </trkpt>
      <trkpt lat="33.469352005049586" lon="-3.621391961351037">
        <ele>773.39999999999998</ele>
        <time>2003-04-13T12:29:23Z</time>
      </trkpt>
      <trkpt lat="33.468384984880686" lon="-3.621658002957702">
        <ele>774</ele>
        <time>2003-04-13T12:29:27Z</time>
      </trkpt>
      <trkpt lat="33.467392986640334" lon="-3.621948016807437">
        <ele>774.29999999999995</ele>
        <time>2003-04-13T12:29:31Z</time>
      </trkpt>
      <trkpt lat="33.466407023370266" lon="-3.622229984030128">
        <ele>774.89999999999998</ele>
        <time>2003-04-13T12:29:35Z</time>
      </trkpt>
      <trkpt lat="33.465464981272817" lon="-3.622501976788044">
        <ele>776.20000000000005</ele>
        <time>2003-04-13T12:29:39Z</time>
      </trkpt>
      <trkpt lat="33.464511958882213" lon="-3.622777992859483">
        <ele>777.89999999999998</ele>
        <time>2003-04-13T12:29:43Z</time>
      </trkpt>
      <trkpt lat="33.463573018088937" lon="-3.623045040294528">
        <ele>778.79999999999995</ele>
        <time>2003-04-13T12:29:47Z</time>
      </trkpt>
      <trkpt lat="33.462680010125041" lon="-3.623298006132245">
        <ele>779.29999999999995</ele>
        <time>2003-04-13T12:29:51Z</time>
      </trkpt>
      <trkpt lat="33.462122026830912" lon="-3.623451981693506">
        <ele>778.89999999999998</ele>
        <time>2003-04-13T12:29:54Z</time>
      </trkpt>
      <trkpt lat="33.461098009720445" lon="-3.623749958351255">
        <ele>778.70000000000005</ele>
        <time>2003-04-13T12:29:59Z</time>
      </trkpt>
      <trkpt lat="33.46020701341331" lon="-3.624009964987636">
        <ele>779.60000000000002</ele>
        <time>2003-04-13T12:30:03Z</time>
      </trkpt>
      <trkpt lat="33.459312999621034" lon="-3.624256979674101">
        <ele>779.39999999999998</ele>
        <time>2003-04-13T12:30:07Z</time>
      </trkpt>
      <trkpt lat="33.458417980000377" lon="-3.624517992138863">
        <ele>779.79999999999995</ele>
        <time>2003-04-13T12:30:10Z</time>
      </trkpt>
      <trkpt lat="33.457497982308269" lon="-3.624783027917147">
        <ele>780.29999999999995</ele>
        <time>2003-04-13T12:30:14Z</time>
      </trkpt>
      <trkpt lat="33.456561975181103" lon="-3.625052003189921">
        <ele>781.29999999999995</ele>
        <time>2003-04-13T12:30:18Z</time>
      </trkpt>
      <trkpt lat="33.455614987760782" lon="-3.625321984291077">
        <ele>784</ele>
        <time>2003-04-13T12:30:22Z</time>
      </trkpt>
      <trkpt lat="33.45466498285532" lon="-3.625592971220613">
        <ele>786.29999999999995</ele>
        <time>2003-04-13T12:30:26Z</time>
      </trkpt>
      <trkpt lat="33.453717995434999" lon="-3.625869993120432">
        <ele>786.70000000000005</ele>
        <time>2003-04-13T12:30:30Z</time>
      </trkpt>
      <trkpt lat="33.452770002186298" lon="-3.626137040555477">
        <ele>787</ele>
        <time>2003-04-13T12:30:34Z</time>
      </trkpt>
      <trkpt lat="33.451812034472823" lon="-3.626414984464645">
        <ele>788.29999999999995</ele>
        <time>2003-04-13T12:30:38Z</time>
      </trkpt>
      <trkpt lat="33.45083998516202" lon="-3.626684965565801">
        <ele>790.5</ele>
        <time>2003-04-13T12:30:42Z</time>
      </trkpt>
      <trkpt lat="33.449887968599796" lon="-3.626962993294001">
        <ele>791.89999999999998</ele>
        <time>2003-04-13T12:30:46Z</time>
      </trkpt>
      <trkpt lat="33.448933018371463" lon="-3.627227023243904">
        <ele>792.5</ele>
        <time>2003-04-13T12:30:50Z</time>
      </trkpt>
      <trkpt lat="33.447976978495717" lon="-3.627512007951737">
        <ele>793.29999999999995</ele>
        <time>2003-04-13T12:30:54Z</time>
      </trkpt>
      <trkpt lat="33.447001995518804" lon="-3.627792969346046">
        <ele>793.60000000000002</ele>
        <time>2003-04-13T12:30:59Z</time>
      </trkpt>
      <trkpt lat="33.446028018370271" lon="-3.628062028437853">
        <ele>794</ele>
        <time>2003-04-13T12:31:03Z</time>
      </trkpt>
      <trkpt lat="33.445047000423074" lon="-3.628342989832163">
        <ele>794.89999999999998</ele>
        <time>2003-04-13T12:31:07Z</time>
      </trkpt>
      <trkpt lat="33.444066988304257" lon="-3.628623029217124">
        <ele>795.70000000000005</ele>
        <time>2003-04-13T12:31:11Z</time>
      </trkpt>
      <trkpt lat="33.443110026419163" lon="-3.62889502197504">
        <ele>796</ele>
        <time>2003-04-13T12:31:15Z</time>
      </trkpt>
      <trkpt lat="33.442166978493333" lon="-3.629162991419435">
        <ele>797</ele>
        <time>2003-04-13T12:31:19Z</time>
      </trkpt>
      <trkpt lat="33.441229965537786" lon="-3.629431966692209">
        <ele>797.10000000000002</ele>
        <time>2003-04-13T12:31:23Z</time>
      </trkpt>
      <trkpt lat="33.440181976184249" lon="-3.629728015512228">
        <ele>797.89999999999998</ele>
        <time>2003-04-13T12:31:28Z</time>
      </trkpt>
      <trkpt lat="33.439287040382624" lon="-3.62999296747148">
        <ele>798.60000000000002</ele>
        <time>2003-04-13T12:31:31Z</time>
      </trkpt>
      <trkpt lat="33.438323037698865" lon="-3.630273006856442">
        <ele>799</ele>
        <time>2003-04-13T12:31:35Z</time>
      </trkpt>
      <trkpt lat="33.437332967296243" lon="-3.630552040413022">
        <ele>799.5</ele>
        <time>2003-04-13T12:31:39Z</time>
      </trkpt>
      <trkpt lat="33.436333006247878" lon="-3.630846999585629">
        <ele>800</ele>
        <time>2003-04-13T12:31:43Z</time>
      </trkpt>
      <trkpt lat="33.435317035764456" lon="-3.631142964586616">
        <ele>800.70000000000005</ele>
        <time>2003-04-13T12:31:47Z</time>
      </trkpt>
      <trkpt lat="33.434329982846975" lon="-3.631419986486435">
        <ele>801.79999999999995</ele>
        <time>2003-04-13T12:31:51Z</time>
      </trkpt>
      <trkpt lat="33.4333720151335" lon="-3.631697008386254">
        <ele>802.79999999999995</ele>
        <time>2003-04-13T12:31:55Z</time>
      </trkpt>
      <trkpt lat="33.432440031319857" lon="-3.63198702223599">
        <ele>803</ele>
        <time>2003-04-13T12:31:59Z</time>
      </trkpt>
      <trkpt lat="33.431507963687181" lon="-3.632399998605251">
        <ele>803.10000000000002</ele>
        <time>2003-04-13T12:32:03Z</time>
      </trkpt>
      <trkpt lat="33.430562987923622" lon="-3.632878018543124">
        <ele>803.60000000000002</ele>
        <time>2003-04-13T12:32:07Z</time>
      </trkpt>
      <trkpt lat="33.429641984403133" lon="-3.633346986025572">
        <ele>804</ele>
        <time>2003-04-13T12:32:11Z</time>
      </trkpt>
      <trkpt lat="33.428749982267618" lon="-3.633794998750091">
        <ele>804.20000000000005</ele>
        <time>2003-04-13T12:32:15Z</time>
      </trkpt>
      <trkpt lat="33.427838031202555" lon="-3.634251980111003">
        <ele>805</ele>
        <time>2003-04-13T12:32:20Z</time>
      </trkpt>
      <trkpt lat="33.426928007975221" lon="-3.634709967300296">
        <ele>805.39999999999998</ele>
        <time>2003-04-13T12:32:24Z</time>
      </trkpt>
      <trkpt lat="33.426008010283113" lon="-3.635168038308621">
        <ele>805.29999999999995</ele>
        <time>2003-04-13T12:32:28Z</time>
      </trkpt>
      <trkpt lat="33.42505699954927" lon="-3.635646980255842">
        <ele>804.79999999999995</ele>
        <time>2003-04-13T12:32:32Z</time>
      </trkpt>
      <trkpt lat="33.424106994643807" lon="-3.636121982708573">
        <ele>805.20000000000005</ele>
        <time>2003-04-13T12:32:36Z</time>
      </trkpt>
      <trkpt lat="33.423151960596442" lon="-3.636602014303207">
        <ele>805.20000000000005</ele>
        <time>2003-04-13T12:32:40Z</time>
      </trkpt>
      <trkpt lat="33.422183012589812" lon="-3.637087997049093">
        <ele>804.60000000000002</ele>
        <time>2003-04-13T12:32:44Z</time>
      </trkpt>
      <trkpt lat="33.421222027391195" lon="-3.637570040300489">
        <ele>804.20000000000005</ele>
        <time>2003-04-13T12:32:48Z</time>
      </trkpt>
      <trkpt lat="33.420260036364198" lon="-3.638053005561233">
        <ele>804.10000000000002</ele>
        <time>2003-04-13T12:32:52Z</time>
      </trkpt>
      <trkpt lat="33.419341966509819" lon="-3.638507975265384">
        <ele>803.70000000000005</ele>
        <time>2003-04-13T12:32:56Z</time>
      </trkpt>
      <trkpt lat="33.419001996517181" lon="-3.638694975525141">
        <ele>803.60000000000002</ele>
        <time>2003-04-13T12:32:57Z</time>
      </trkpt>
      <trkpt lat="33.418085016310215" lon="-3.639141982421279">
        <ele>803.89999999999998</ele>
        <time>2003-04-13T12:33:03Z</time>
      </trkpt>
      <trkpt lat="33.417246993631124" lon="-3.639569962397218">
        <ele>803.70000000000005</ele>
        <time>2003-04-13T12:33:07Z</time>
      </trkpt>
      <trkpt lat="33.416341999545693" lon="-3.640010012313724">
        <ele>803.79999999999995</ele>
        <time>2003-04-13T12:33:11Z</time>
      </trkpt>
      <trkpt lat="33.415532978251576" lon="-3.640440003946424">
        <ele>803.5</ele>
        <time>2003-04-13T12:33:15Z</time>
      </trkpt>
      <trkpt lat="33.414584985002875" lon="-3.640894973650575">
        <ele>803.10000000000002</ele>
        <time>2003-04-13T12:33:19Z</time>
      </trkpt>
      <trkpt lat="33.413538001477718" lon="-3.641429990530014">
        <ele>801.60000000000002</ele>
        <time>2003-04-13T12:33:24Z</time>
      </trkpt>
      <trkpt lat="33.412624960765243" lon="-3.641886971890926">
        <ele>800.89999999999998</ele>
        <time>2003-04-13T12:33:28Z</time>
      </trkpt>
      <trkpt lat="33.411685014143586" lon="-3.642357029020786">
        <ele>800.5</ele>
        <time>2003-04-13T12:33:32Z</time>
      </trkpt>
      <trkpt lat="33.410740038380027" lon="-3.642833037301898">
        <ele>800.39999999999998</ele>
        <time>2003-04-13T12:33:36Z</time>
      </trkpt>
      <trkpt lat="33.4097829926759" lon="-3.643308039754629">
        <ele>799.79999999999995</ele>
        <time>2003-04-13T12:33:41Z</time>
      </trkpt>
      <trkpt lat="33.408834999427199" lon="-3.643792010843754">
        <ele>799.70000000000005</ele>
        <time>2003-04-13T12:33:45Z</time>
      </trkpt>
      <trkpt lat="33.407942997291684" lon="-3.64423499442637">
        <ele>799.29999999999995</ele>
        <time>2003-04-13T12:33:49Z</time>
      </trkpt>
      <trkpt lat="33.406913029029965" lon="-3.644755007699132">
        <ele>798</ele>
        <time>2003-04-13T12:33:54Z</time>
      </trkpt>
      <trkpt lat="33.406007029116154" lon="-3.645207965746522">
        <ele>797.10000000000002</ele>
        <time>2003-04-13T12:33:58Z</time>
      </trkpt>
      <trkpt lat="33.405152997002006" lon="-3.645637035369873">
        <ele>797.5</ele>
        <time>2003-04-13T12:34:03Z</time>
      </trkpt>
      <trkpt lat="33.404232999309897" lon="-3.646101979538798">
        <ele>798</ele>
        <time>2003-04-13T12:34:09Z</time>
      </trkpt>
      <trkpt lat="33.403200013563037" lon="-3.646616963669658">
        <ele>798.79999999999995</ele>
        <time>2003-04-13T12:34:13Z</time>
      </trkpt>
      <trkpt lat="33.402335001155734" lon="-3.647051984444261">
        <ele>799.39999999999998</ele>
        <time>2003-04-13T12:34:17Z</time>
      </trkpt>
      <trkpt lat="33.401450039818883" lon="-3.647494968026876">
        <ele>799.79999999999995</ele>
        <time>2003-04-13T12:34:21Z</time>
      </trkpt>
      <trkpt lat="33.40054496191442" lon="-3.647950021550059">
        <ele>800.29999999999995</ele>
        <time>2003-04-13T12:34:25Z</time>
      </trkpt>
      <trkpt lat="33.399622030556202" lon="-3.648410020396113">
        <ele>800.10000000000002</ele>
        <time>2003-04-13T12:34:29Z</time>
      </trkpt>
      <trkpt lat="33.398698009550571" lon="-3.648879993706942">
        <ele>799.89999999999998</ele>
        <time>2003-04-13T12:34:33Z</time>
      </trkpt>
      <trkpt lat="33.39809300377965" lon="-3.64919800311327">
        <ele>800</ele>
        <time>2003-04-13T12:34:37Z</time>
      </trkpt>
      <trkpt lat="33.397178035229445" lon="-3.649641992524266">
        <ele>799.89999999999998</ele>
        <time>2003-04-13T12:34:41Z</time>
      </trkpt>
      <trkpt lat="33.396272035315633" lon="-3.650108026340604">
        <ele>799.10000000000002</ele>
        <time>2003-04-13T12:34:47Z</time>
      </trkpt>
      <trkpt lat="33.395416997373104" lon="-3.650546986609697">
        <ele>797.79999999999995</ele>
        <time>2003-04-13T12:34:52Z</time>
      </trkpt>
      <trkpt lat="33.3947420027107" lon="-3.650828031823039">
        <ele>797.29999999999995</ele>
        <time>2003-04-13T12:34:56Z</time>
      </trkpt>
      <trkpt lat="33.393887970596552" lon="-3.65102500654757">
        <ele>797.20000000000005</ele>
        <time>2003-04-13T12:35:00Z</time>
      </trkpt>
      <trkpt lat="33.392907036468387" lon="-3.651055013760924">
        <ele>797</ele>
        <time>2003-04-13T12:35:06Z</time>
      </trkpt>
      <trkpt lat="33.392145037651062" lon="-3.650928027927876">
        <ele>797.39999999999998</ele>
        <time>2003-04-13T12:35:10Z</time>
      </trkpt>
      <trkpt lat="33.391401981934905" lon="-3.650670032948256">
        <ele>797.60000000000002</ele>
        <time>2003-04-13T12:35:14Z</time>
      </trkpt>
      <trkpt lat="33.390647023916245" lon="-3.650263007730246">
        <ele>796.89999999999998</ele>
        <time>2003-04-13T12:35:18Z</time>
      </trkpt>
      <trkpt lat="33.389876978471875" lon="-3.649699995294213">
        <ele>795.60000000000002</ele>
        <time>2003-04-13T12:35:23Z</time>
      </trkpt>
      <trkpt lat="33.389020012691617" lon="-3.649076968431473">
        <ele>795.5</ele>
        <time>2003-04-13T12:35:29Z</time>
      </trkpt>
      <trkpt lat="33.388342000544071" lon="-3.648644965142012">
        <ele>795.5</ele>
        <time>2003-04-13T12:35:33Z</time>
      </trkpt>
      <trkpt lat="33.387961965054274" lon="-3.648502975702286">
        <ele>795.79999999999995</ele>
        <time>2003-04-13T12:35:34Z</time>
      </trkpt>
      <trkpt lat="33.387346984818578" lon="-3.648362997919321">
        <ele>795.89999999999998</ele>
        <time>2003-04-13T12:35:38Z</time>
      </trkpt>
      <trkpt lat="33.386435033753514" lon="-3.648332990705967">
        <ele>795.70000000000005</ele>
        <time>2003-04-13T12:35:42Z</time>
      </trkpt>
      <trkpt lat="33.385329963639379" lon="-3.648312035948038">
        <ele>795.60000000000002</ele>
        <time>2003-04-13T12:35:47Z</time>
      </trkpt>
      <trkpt lat="33.384292032569647" lon="-3.648298038169742">
        <ele>795</ele>
        <time>2003-04-13T12:35:53Z</time>
      </trkpt>
      <trkpt lat="33.383295005187392" lon="-3.648272976279259">
        <ele>794.29999999999995</ele>
        <time>2003-04-13T12:35:58Z</time>
      </trkpt>
      <trkpt lat="33.382242992520332" lon="-3.648257972672582">
        <ele>794.20000000000005</ele>
        <time>2003-04-13T12:36:02Z</time>
      </trkpt>
      <trkpt lat="33.381144963204861" lon="-3.648223020136356">
        <ele>794.5</ele>
        <time>2003-04-13T12:36:08Z</time>
      </trkpt>
      <trkpt lat="33.38023703545332" lon="-3.648208016529679">
        <ele>794.39999999999998</ele>
        <time>2003-04-13T12:36:12Z</time>
      </trkpt>
      <trkpt lat="33.379289964213967" lon="-3.648177003487945">
        <ele>795</ele>
        <time>2003-04-13T12:36:16Z</time>
      </trkpt>
      <trkpt lat="33.378322022035718" lon="-3.648168034851551">
        <ele>796.5</ele>
        <time>2003-04-13T12:36:20Z</time>
      </trkpt>
      <trkpt lat="33.37731996551156" lon="-3.648146996274591">
        <ele>798.20000000000005</ele>
        <time>2003-04-13T12:36:24Z</time>
      </trkpt>
      <trkpt lat="33.376337019726634" lon="-3.648114977404475">
        <ele>799.70000000000005</ele>
        <time>2003-04-13T12:36:28Z</time>
      </trkpt>
      <trkpt lat="33.375267991796136" lon="-3.648097962141037">
        <ele>800</ele>
        <time>2003-04-13T12:36:32Z</time>
      </trkpt>
      <trkpt lat="33.374359980225563" lon="-3.648183038458228">
        <ele>798.89999999999998</ele>
        <time>2003-04-13T12:36:37Z</time>
      </trkpt>
      <trkpt lat="33.374183038249612" lon="-3.648263001814485">
        <ele>798.39999999999998</ele>
        <time>2003-04-13T12:36:39Z</time>
      </trkpt>
      <trkpt lat="33.373247031122446" lon="-3.648792989552021">
        <ele>796.79999999999995</ele>
        <time>2003-04-13T12:36:44Z</time>
      </trkpt>
      <trkpt lat="33.372291997075081" lon="-3.649318031966686">
        <ele>795.39999999999998</ele>
        <time>2003-04-13T12:36:48Z</time>
      </trkpt>
      <trkpt lat="33.371382979676127" lon="-3.649822035804391">
        <ele>796.60000000000002</ele>
        <time>2003-04-13T12:36:54Z</time>
      </trkpt>
      <trkpt lat="33.370443033054471" lon="-3.650348000228405">
        <ele>799.60000000000002</ele>
        <time>2003-04-13T12:36:59Z</time>
      </trkpt>
      <trkpt lat="33.369457991793752" lon="-3.650882011279464">
        <ele>803.39999999999998</ele>
        <time>2003-04-13T12:37:03Z</time>
      </trkpt>
      <trkpt lat="33.368440009653568" lon="-3.651448041200638">
        <ele>805.39999999999998</ele>
        <time>2003-04-13T12:37:08Z</time>
      </trkpt>
      <trkpt lat="33.367610033601522" lon="-3.651907034218311">
        <ele>806.5</ele>
        <time>2003-04-13T12:37:12Z</time>
      </trkpt>
      <trkpt lat="33.366762958467007" lon="-3.65237700752914">
        <ele>807.89999999999998</ele>
        <time>2003-04-13T12:37:17Z</time>
      </trkpt>
      <trkpt lat="33.365871962159872" lon="-3.652862990275025">
        <ele>809</ele>
        <time>2003-04-13T12:37:21Z</time>
      </trkpt>
      <trkpt lat="33.364967973902822" lon="-3.653364982455969">
        <ele>809.10000000000002</ele>
        <time>2003-04-13T12:37:25Z</time>
      </trkpt>
      <trkpt lat="33.364098016172647" lon="-3.653841996565461">
        <ele>808.79999999999995</ele>
        <time>2003-04-13T12:37:29Z</time>
      </trkpt>
      <trkpt lat="33.363241972401738" lon="-3.654320016503334">
        <ele>808.70000000000005</ele>
        <time>2003-04-13T12:37:33Z</time>
      </trkpt>
      <trkpt lat="33.362352987751365" lon="-3.654807005077601">
        <ele>808.89999999999998</ele>
        <time>2003-04-13T12:37:37Z</time>
      </trkpt>
      <trkpt lat="33.361446987837553" lon="-3.655304973945022">
        <ele>808.89999999999998</ele>
        <time>2003-04-13T12:37:41Z</time>
      </trkpt>
      <trkpt lat="33.360564960166812" lon="-3.655791962519288">
        <ele>809</ele>
        <time>2003-04-13T12:37:45Z</time>
      </trkpt>
      <trkpt lat="33.359583020210266" lon="-3.656337959691882">
        <ele>808.70000000000005</ele>
        <time>2003-04-13T12:37:49Z</time>
      </trkpt>
      <trkpt lat="33.359071975573897" lon="-3.656723024323583">
        <ele>809</ele>
        <time>2003-04-13T12:37:53Z</time>
      </trkpt>
      <trkpt lat="33.358763018622994" lon="-3.657077997922897">
        <ele>809</ele>
        <time>2003-04-13T12:37:54Z</time>
      </trkpt>
      <trkpt lat="33.358348030596972" lon="-3.657724997028709">
        <ele>808.70000000000005</ele>
        <time>2003-04-13T12:37:57Z</time>
      </trkpt>
      <trkpt lat="33.357782000675797" lon="-3.658653041347861">
        <ele>809.79999999999995</ele>
        <time>2003-04-13T12:38:01Z</time>
      </trkpt>
      <trkpt lat="33.357189986854792" lon="-3.659610003232956">
        <ele>811</ele>
        <time>2003-04-13T12:38:05Z</time>
      </trkpt>
      <trkpt lat="33.356586992740631" lon="-3.660578029230237">
        <ele>811.29999999999995</ele>
        <time>2003-04-13T12:38:09Z</time>
      </trkpt>
      <trkpt lat="33.35598299279809" lon="-3.661553012207151">
        <ele>811.20000000000005</ele>
        <time>2003-04-13T12:38:13Z</time>
      </trkpt>
      <trkpt lat="33.355379998683929" lon="-3.662515003234148">
        <ele>811.39999999999998</ele>
        <time>2003-04-13T12:38:17Z</time>
      </trkpt>
      <trkpt lat="33.354767030104995" lon="-3.663499960675836">
        <ele>810.5</ele>
        <time>2003-04-13T12:38:21Z</time>
      </trkpt>
      <trkpt lat="33.354160012677312" lon="-3.664481984451413">
        <ele>809.10000000000002</ele>
        <time>2003-04-13T12:38:25Z</time>
      </trkpt>
      <trkpt lat="33.353540003299713" lon="-3.665474988520145">
        <ele>808</ele>
        <time>2003-04-13T12:38:29Z</time>
      </trkpt>
      <trkpt lat="33.352904990315437" lon="-3.66649498231709">
        <ele>807.10000000000002</ele>
        <time>2003-04-13T12:38:33Z</time>
      </trkpt>
      <trkpt lat="33.35226695984602" lon="-3.667525034397841">
        <ele>805.70000000000005</ele>
        <time>2003-04-13T12:38:38Z</time>
      </trkpt>
      <trkpt lat="33.351630019024014" lon="-3.668542010709643">
        <ele>804.60000000000002</ele>
        <time>2003-04-13T12:38:42Z</time>
      </trkpt>
      <trkpt lat="33.351004980504513" lon="-3.66954498924315">
        <ele>804.70000000000005</ele>
        <time>2003-04-13T12:38:46Z</time>
      </trkpt>
      <trkpt lat="33.350402992218733" lon="-3.670504968613386">
        <ele>805.60000000000002</ele>
        <time>2003-04-13T12:38:50Z</time>
      </trkpt>
      <trkpt lat="33.349817013368011" lon="-3.671450028195977">
        <ele>808.70000000000005</ele>
        <time>2003-04-13T12:38:54Z</time>
      </trkpt>
      <trkpt lat="33.349221982061863" lon="-3.67240296676755">
        <ele>809.29999999999995</ele>
        <time>2003-04-13T12:38:58Z</time>
      </trkpt>
      <trkpt lat="33.348629968240857" lon="-3.673351965844631">
        <ele>808.5</ele>
        <time>2003-04-13T12:39:02Z</time>
      </trkpt>
      <trkpt lat="33.34803300909698" lon="-3.674301970750094">
        <ele>809.39999999999998</ele>
        <time>2003-04-13T12:39:06Z</time>
      </trkpt>
      <trkpt lat="33.347443006932735" lon="-3.675245018675923">
        <ele>810.10000000000002</ele>
        <time>2003-04-13T12:39:10Z</time>
      </trkpt>
      <trkpt lat="33.346846969798207" lon="-3.676199968904257">
        <ele>809.39999999999998</ele>
        <time>2003-04-13T12:39:14Z</time>
      </trkpt>
      <trkpt lat="33.346240036189556" lon="-3.677176963537931">
        <ele>809.20000000000005</ele>
        <time>2003-04-13T12:39:18Z</time>
      </trkpt>
      <trkpt lat="33.345688004046679" lon="-3.678059997037053">
        <ele>808.89999999999998</ele>
        <time>2003-04-13T12:39:22Z</time>
      </trkpt>
      <trkpt lat="33.345496980473399" lon="-3.678389992564917">
        <ele>808.60000000000002</ele>
        <time>2003-04-13T12:39:23Z</time>
      </trkpt>
      <trkpt lat="33.344847969710827" lon="-3.679445022717118">
        <ele>807.5</ele>
        <time>2003-04-13T12:39:30Z</time>
      </trkpt>
      <trkpt lat="33.344212034717202" lon="-3.680435009300709">
        <ele>805.89999999999998</ele>
        <time>2003-04-13T12:39:34Z</time>
      </trkpt>
      <trkpt lat="33.343614991754293" lon="-3.681392977014184">
        <ele>803.89999999999998</ele>
        <time>2003-04-13T12:39:40Z</time>
      </trkpt>
      <trkpt lat="33.343000011518598" lon="-3.682382041588426">
        <ele>800.5</ele>
        <time>2003-04-13T12:39:45Z</time>
      </trkpt>
      <trkpt lat="33.342395005747676" lon="-3.683345038443804">
        <ele>800.10000000000002</ele>
        <time>2003-04-13T12:39:49Z</time>
      </trkpt>
      <trkpt lat="33.341777008026838" lon="-3.684339970350266">
        <ele>800.10000000000002</ele>
        <time>2003-04-13T12:39:54Z</time>
      </trkpt>
      <trkpt lat="33.341107964515686" lon="-3.685412015765905">
        <ele>798.10000000000002</ele>
        <time>2003-04-13T12:40:00Z</time>
      </trkpt>
      <trkpt lat="33.340549981221557" lon="-3.686307035386562">
        <ele>797.10000000000002</ele>
        <time>2003-04-13T12:40:04Z</time>
      </trkpt>
      <trkpt lat="33.339962996542454" lon="-3.687249999493361">
        <ele>796.89999999999998</ele>
        <time>2003-04-13T12:40:08Z</time>
      </trkpt>
      <trkpt lat="33.339372994378209" lon="-3.688203021883965">
        <ele>796.60000000000002</ele>
        <time>2003-04-13T12:40:12Z</time>
      </trkpt>
      <trkpt lat="33.338777963072062" lon="-3.689146991819143">
        <ele>796.39999999999998</ele>
        <time>2003-04-13T12:40:16Z</time>
      </trkpt>
      <trkpt lat="33.338179998099804" lon="-3.690113006159663">
        <ele>796.29999999999995</ele>
        <time>2003-04-13T12:40:20Z</time>
      </trkpt>
      <trkpt lat="33.337623020634055" lon="-3.69100701995194">
        <ele>796.20000000000005</ele>
        <time>2003-04-13T12:40:24Z</time>
      </trkpt>
      <trkpt lat="33.337035030126572" lon="-3.69201997295022">
        <ele>795.10000000000002</ele>
        <time>2003-04-13T12:40:28Z</time>
      </trkpt>
      <trkpt lat="33.336879964917898" lon="-3.692421969026327">
        <ele>794.89999999999998</ele>
        <time>2003-04-13T12:40:31Z</time>
      </trkpt>
      <trkpt lat="33.336784997954965" lon="-3.692867970094085">
        <ele>794.79999999999995</ele>
        <time>2003-04-13T12:40:32Z</time>
      </trkpt>
      <trkpt lat="33.336605038493872" lon="-3.693987959995866">
        <ele>794</ele>
        <time>2003-04-13T12:40:38Z</time>
      </trkpt>
      <trkpt lat="33.336418038234115" lon="-3.695126976817846">
        <ele>793.60000000000002</ele>
        <time>2003-04-13T12:40:43Z</time>
      </trkpt>
      <trkpt lat="33.336204970255494" lon="-3.696374958381057">
        <ele>793.10000000000002</ele>
        <time>2003-04-13T12:40:48Z</time>
      </trkpt>
      <trkpt lat="33.33600296638906" lon="-3.697611959651113">
        <ele>793.20000000000005</ele>
        <time>2003-04-13T12:40:55Z</time>
      </trkpt>
      <trkpt lat="33.335822001099586" lon="-3.698754999786615">
        <ele>791.60000000000002</ele>
        <time>2003-04-13T12:41:01Z</time>
      </trkpt>
      <trkpt lat="33.335631983354688" lon="-3.699835008010268">
        <ele>790.10000000000002</ele>
        <time>2003-04-13T12:41:06Z</time>
      </trkpt>
      <trkpt lat="33.335420005023479" lon="-3.700832035392523">
        <ele>788.29999999999995</ele>
        <time>2003-04-13T12:41:10Z</time>
      </trkpt>
      <trkpt lat="33.335253037512302" lon="-3.701207041740418">
        <ele>786.70000000000005</ele>
        <time>2003-04-13T12:41:13Z</time>
      </trkpt>
      <trkpt lat="33.335029995068908" lon="-3.701524967327714">
        <ele>785.10000000000002</ele>
        <time>2003-04-13T12:41:14Z</time>
      </trkpt>
      <trkpt lat="33.33475498482585" lon="-3.70177298784256">
        <ele>783</ele>
        <time>2003-04-13T12:41:17Z</time>
      </trkpt>
      <trkpt lat="33.334445022046566" lon="-3.701957976445556">
        <ele>780.70000000000005</ele>
        <time>2003-04-13T12:41:18Z</time>
      </trkpt>
      <trkpt lat="33.334097005426884" lon="-3.702086973935366">
        <ele>778.60000000000002</ele>
        <time>2003-04-13T12:41:21Z</time>
      </trkpt>
      <trkpt lat="33.33374697715044" lon="-3.702127039432526">
        <ele>777.60000000000002</ele>
        <time>2003-04-13T12:41:22Z</time>
      </trkpt>
      <trkpt lat="33.332845000550151" lon="-3.702083034440875">
        <ele>779.70000000000005</ele>
        <time>2003-04-13T12:41:28Z</time>
      </trkpt>
      <trkpt lat="33.331806985661387" lon="-3.702037017792463">
        <ele>785.60000000000002</ele>
        <time>2003-04-13T12:41:33Z</time>
      </trkpt>
      <trkpt lat="33.331504985690117" lon="-3.702067025005817">
        <ele>785</ele>
        <time>2003-04-13T12:41:36Z</time>
      </trkpt>
      <trkpt lat="33.331359978765249" lon="-3.70211698114872">
        <ele>784.39999999999998</ele>
        <time>2003-04-13T12:41:37Z</time>
      </trkpt>
      <trkpt lat="33.331077005714178" lon="-3.702255031093955">
        <ele>782.29999999999995</ele>
        <time>2003-04-13T12:41:38Z</time>
      </trkpt>
      <trkpt lat="33.330832002684474" lon="-3.702442031353712">
        <ele>780.29999999999995</ele>
        <time>2003-04-13T12:41:41Z</time>
      </trkpt>
      <trkpt lat="33.330512987449765" lon="-3.702800022438169">
        <ele>776.60000000000002</ele>
        <time>2003-04-13T12:41:44Z</time>
      </trkpt>
      <trkpt lat="33.330364963039756" lon="-3.703096993267536">
        <ele>774.5</ele>
        <time>2003-04-13T12:41:45Z</time>
      </trkpt>
      <trkpt lat="33.330315006896853" lon="-3.703258009627461">
        <ele>773.60000000000002</ele>
        <time>2003-04-13T12:41:47Z</time>
      </trkpt>
      <trkpt lat="33.330019963905215" lon="-3.704295018687844">
        <ele>771.60000000000002</ele>
        <time>2003-04-13T12:41:52Z</time>
      </trkpt>
      <trkpt lat="33.329791976138949" lon="-3.705262038856745">
        <ele>775.89999999999998</ele>
        <time>2003-04-13T12:41:57Z</time>
      </trkpt>
      <trkpt lat="33.329812008887529" lon="-3.70566001161933">
        <ele>778</ele>
        <time>2003-04-13T12:42:00Z</time>
      </trkpt>
      <trkpt lat="33.329937988892198" lon="-3.706946969032288">
        <ele>779</ele>
        <time>2003-04-13T12:42:05Z</time>
      </trkpt>
      <trkpt lat="33.330039996653795" lon="-3.708027983084321">
        <ele>779.20000000000005</ele>
        <time>2003-04-13T12:42:11Z</time>
      </trkpt>
      <trkpt lat="33.330145021900535" lon="-3.709161970764399">
        <ele>779.20000000000005</ele>
        <time>2003-04-13T12:42:16Z</time>
      </trkpt>
      <trkpt lat="33.330260021612048" lon="-3.710417998954654">
        <ele>780.20000000000005</ele>
        <time>2003-04-13T12:42:20Z</time>
      </trkpt>
      <trkpt lat="33.330366974696517" lon="-3.71163496747613">
        <ele>785.20000000000005</ele>
        <time>2003-04-13T12:42:26Z</time>
      </trkpt>
      <trkpt lat="33.330475017428398" lon="-3.712777001783252">
        <ele>788</ele>
        <time>2003-04-13T12:42:31Z</time>
      </trkpt>
      <trkpt lat="33.330581970512867" lon="-3.713957006111741">
        <ele>790.29999999999995</ele>
        <time>2003-04-13T12:42:36Z</time>
      </trkpt>
      <trkpt lat="33.33060703240335" lon="-3.714202009141445">
        <ele>790.5</ele>
        <time>2003-04-13T12:42:39Z</time>
      </trkpt>
      <trkpt lat="33.330614995211363" lon="-3.714322960004211">
        <ele>790.60000000000002</ele>
        <time>2003-04-13T12:42:41Z</time>
      </trkpt>
      <trkpt lat="33.330633016303182" lon="-3.714452963322401">
        <ele>790.89999999999998</ele>
        <time>2003-04-13T12:42:46Z</time>
      </trkpt>
      <trkpt lat="33.330620024353266" lon="-3.714562011882663">
        <ele>790.89999999999998</ele>
        <time>2003-04-13T12:42:49Z</time>
      </trkpt>
      <trkpt lat="33.330642990767956" lon="-3.714733002707362">
        <ele>791.20000000000005</ele>
        <time>2003-04-13T12:42:50Z</time>
      </trkpt>
      <trkpt lat="33.33067299798131" lon="-3.714938024058938">
        <ele>791.39999999999998</ele>
        <time>2003-04-13T12:42:53Z</time>
      </trkpt>
      <trkpt lat="33.330690013244748" lon="-3.715074984356761">
        <ele>791.5</ele>
        <time>2003-04-13T12:42:54Z</time>
      </trkpt>
      <trkpt lat="33.330718008801341" lon="-3.71537497267127">
        <ele>791.89999999999998</ele>
        <time>2003-04-13T12:42:55Z</time>
      </trkpt>
      <trkpt lat="33.330769976601005" lon="-3.716051978990436">
        <ele>792.89999999999998</ele>
        <time>2003-04-13T12:42:59Z</time>
      </trkpt>
      <trkpt lat="33.330807024613023" lon="-3.717057975009084">
        <ele>793.79999999999995</ele>
        <time>2003-04-13T12:43:05Z</time>
      </trkpt>
      <trkpt lat="33.330724965780973" lon="-3.718247031792998">
        <ele>794.5</ele>
        <time>2003-04-13T12:43:10Z</time>
      </trkpt>
      <trkpt lat="33.330626981332898" lon="-3.719483027234674">
        <ele>796.10000000000002</ele>
        <time>2003-04-13T12:43:14Z</time>
      </trkpt>
      <trkpt lat="33.330633016303182" lon="-3.720215018838644">
        <ele>796.89999999999998</ele>
        <time>2003-04-13T12:43:17Z</time>
      </trkpt>
      <trkpt lat="33.330787997692823" lon="-3.721440033987165">
        <ele>798.20000000000005</ele>
        <time>2003-04-13T12:43:22Z</time>
      </trkpt>
      <trkpt lat="33.330971980467439" lon="-3.722605034708977">
        <ele>800.39999999999998</ele>
        <time>2003-04-13T12:43:28Z</time>
      </trkpt>
      <trkpt lat="33.331201979890466" lon="-3.723798030987382">
        <ele>801.70000000000005</ele>
        <time>2003-04-13T12:43:33Z</time>
      </trkpt>
      <trkpt lat="33.331267023459077" lon="-3.724381998181343">
        <ele>802.29999999999995</ele>
        <time>2003-04-13T12:43:37Z</time>
      </trkpt>
      <trkpt lat="33.331356961280107" lon="-3.725099992007017">
        <ele>803.5</ele>
        <time>2003-04-13T12:43:40Z</time>
      </trkpt>
      <trkpt lat="33.331568017601967" lon="-3.726343028247356">
        <ele>804.39999999999998</ele>
        <time>2003-04-13T12:43:48Z</time>
      </trkpt>
      <trkpt lat="33.33174797706306" lon="-3.72746704146266">
        <ele>805.20000000000005</ele>
        <time>2003-04-13T12:43:52Z</time>
      </trkpt>
      <trkpt lat="33.331906981766224" lon="-3.72871502302587">
        <ele>806.70000000000005</ele>
        <time>2003-04-13T12:43:57Z</time>
      </trkpt>
      <trkpt lat="33.331997003406286" lon="-3.729882035404444">
        <ele>808.20000000000005</ele>
        <time>2003-04-13T12:44:03Z</time>
      </trkpt>
      <trkpt lat="33.332103034481406" lon="-3.731109984219074">
        <ele>809.70000000000005</ele>
        <time>2003-04-13T12:44:07Z</time>
      </trkpt>
      <trkpt lat="33.332188026979566" lon="-3.73234698548913">
        <ele>811.29999999999995</ele>
        <time>2003-04-13T12:44:12Z</time>
      </trkpt>
      <trkpt lat="33.332206970080733" lon="-3.733522966504097">
        <ele>813</ele>
        <time>2003-04-13T12:44:18Z</time>
      </trkpt>
      <trkpt lat="33.332124995067716" lon="-3.733980031684041">
        <ele>814</ele>
        <time>2003-04-13T12:44:19Z</time>
      </trkpt>
      <trkpt lat="33.331985017284751" lon="-3.73440801165998">
        <ele>814.79999999999995</ele>
        <time>2003-04-13T12:44:22Z</time>
      </trkpt>
      <trkpt lat="33.331792987883091" lon="-3.734832974150777">
        <ele>815.10000000000002</ele>
        <time>2003-04-13T12:44:23Z</time>
      </trkpt>
      <trkpt lat="33.331544967368245" lon="-3.735219966620207">
        <ele>815.79999999999995</ele>
        <time>2003-04-13T12:44:26Z</time>
      </trkpt>
      <trkpt lat="33.331238022074103" lon="-3.735552979633212">
        <ele>816.60000000000002</ele>
        <time>2003-04-13T12:44:27Z</time>
      </trkpt>
      <trkpt lat="33.330412991344929" lon="-3.73638697899878">
        <ele>817</ele>
        <time>2003-04-13T12:44:33Z</time>
      </trkpt>
      <trkpt lat="33.329710001125932" lon="-3.737132968381047">
        <ele>817.70000000000005</ele>
        <time>2003-04-13T12:44:37Z</time>
      </trkpt>
      <trkpt lat="33.328971974551678" lon="-3.737905025482178">
        <ele>817</ele>
        <time>2003-04-13T12:44:41Z</time>
      </trkpt>
      <trkpt lat="33.328200001269579" lon="-3.738713040947914">
        <ele>817.89999999999998</ele>
        <time>2003-04-13T12:44:45Z</time>
      </trkpt>
      <trkpt lat="33.327413024380803" lon="-3.739539999514818">
        <ele>818.79999999999995</ele>
        <time>2003-04-13T12:44:49Z</time>
      </trkpt>
      <trkpt lat="33.32661003805697" lon="-3.740367041900754">
        <ele>818.89999999999998</ele>
        <time>2003-04-13T12:44:53Z</time>
      </trkpt>
      <trkpt lat="33.325805040076375" lon="-3.74119802378118">
        <ele>819.29999999999995</ele>
        <time>2003-04-13T12:44:57Z</time>
      </trkpt>
      <trkpt lat="33.32500196993351" lon="-3.742041997611523">
        <ele>820.29999999999995</ele>
        <time>2003-04-13T12:45:01Z</time>
      </trkpt>
      <trkpt lat="33.324188003316522" lon="-3.742902986705303">
        <ele>821.20000000000005</ele>
        <time>2003-04-13T12:45:05Z</time>
      </trkpt>
      <trkpt lat="33.323376970365644" lon="-3.743752995505929">
        <ele>822.60000000000002</ele>
        <time>2003-04-13T12:45:09Z</time>
      </trkpt>
      <trkpt lat="33.322550011798739" lon="-3.744593029841781">
        <ele>823.10000000000002</ele>
        <time>2003-04-13T12:45:13Z</time>
      </trkpt>
      <trkpt lat="33.321722969412804" lon="-3.745446978136897">
        <ele>824.29999999999995</ele>
        <time>2003-04-13T12:45:17Z</time>
      </trkpt>
      <trkpt lat="33.32089701667428" lon="-3.746302016079426">
        <ele>825.39999999999998</ele>
        <time>2003-04-13T12:45:21Z</time>
      </trkpt>
      <trkpt lat="33.320077015087008" lon="-3.747163005173206">
        <ele>826.10000000000002</ele>
        <time>2003-04-13T12:45:25Z</time>
      </trkpt>
      <trkpt lat="33.319247961044312" lon="-3.748027011752129">
        <ele>826.79999999999995</ele>
        <time>2003-04-13T12:45:28Z</time>
      </trkpt>
      <trkpt lat="33.318427037447691" lon="-3.748881965875626">
        <ele>827.70000000000005</ele>
        <time>2003-04-13T12:45:32Z</time>
      </trkpt>
      <trkpt lat="33.317605024203658" lon="-3.749728035181761">
        <ele>828.60000000000002</ele>
        <time>2003-04-13T12:45:36Z</time>
      </trkpt>
      <trkpt lat="33.316785022616386" lon="-3.750590030103922">
        <ele>828.70000000000005</ele>
        <time>2003-04-13T12:45:40Z</time>
      </trkpt>
      <trkpt lat="33.31595697440207" lon="-3.751452025026083">
        <ele>829.79999999999995</ele>
        <time>2003-04-13T12:45:44Z</time>
      </trkpt>
      <trkpt lat="33.31513999029994" lon="-3.752298010513187">
        <ele>831.20000000000005</ele>
        <time>2003-04-13T12:45:48Z</time>
      </trkpt>
      <trkpt lat="33.314349995926023" lon="-3.753126980736852">
        <ele>832.39999999999998</ele>
        <time>2003-04-13T12:45:52Z</time>
      </trkpt>
      <trkpt lat="33.313539968803525" lon="-3.753974977880716">
        <ele>832.5</ele>
        <time>2003-04-13T12:45:56Z</time>
      </trkpt>
      <trkpt lat="33.312721978873014" lon="-3.754826998338103">
        <ele>833.39999999999998</ele>
        <time>2003-04-13T12:46:00Z</time>
      </trkpt>
      <trkpt lat="33.311907006427646" lon="-3.75567801296711">
        <ele>834</ele>
        <time>2003-04-13T12:46:04Z</time>
      </trkpt>
      <trkpt lat="33.311097985133529" lon="-3.756521986797452">
        <ele>834.60000000000002</ele>
        <time>2003-04-13T12:46:08Z</time>
      </trkpt>
      <trkpt lat="33.310304973274469" lon="-3.757351962849498">
        <ele>835.29999999999995</ele>
        <time>2003-04-13T12:46:12Z</time>
      </trkpt>
      <trkpt lat="33.309516990557313" lon="-3.75817003659904">
        <ele>835.10000000000002</ele>
        <time>2003-04-13T12:46:17Z</time>
      </trkpt>
      <trkpt lat="33.308747028931975" lon="-3.758967993780971">
        <ele>835.5</ele>
        <time>2003-04-13T12:46:21Z</time>
      </trkpt>
      <trkpt lat="33.307974971830845" lon="-3.759775003418326">
        <ele>835.89999999999998</ele>
        <time>2003-04-13T12:46:25Z</time>
      </trkpt>
      <trkpt lat="33.30719000659883" lon="-3.760589975863695">
        <ele>836.29999999999995</ele>
        <time>2003-04-13T12:46:29Z</time>
      </trkpt>
      <trkpt lat="33.30641501583159" lon="-3.761397991329432">
        <ele>836.89999999999998</ele>
        <time>2003-04-13T12:46:33Z</time>
      </trkpt>
      <trkpt lat="33.30564497038722" lon="-3.76218999736011">
        <ele>837.60000000000002</ele>
        <time>2003-04-13T12:46:37Z</time>
      </trkpt>
      <trkpt lat="33.304880037903786" lon="-3.762987032532692">
        <ele>839.60000000000002</ele>
        <time>2003-04-13T12:46:41Z</time>
      </trkpt>
      <trkpt lat="33.304100017994642" lon="-3.763809967786074">
        <ele>839.70000000000005</ele>
        <time>2003-04-13T12:46:45Z</time>
      </trkpt>
      <trkpt lat="33.303297031670809" lon="-3.76463701017201">
        <ele>839.60000000000002</ele>
        <time>2003-04-13T12:46:49Z</time>
      </trkpt>
      <trkpt lat="33.302497984841466" lon="-3.765470003709197">
        <ele>839.29999999999995</ele>
        <time>2003-04-13T12:46:53Z</time>
      </trkpt>
      <trkpt lat="33.301704972982407" lon="-3.766293022781611">
        <ele>840.10000000000002</ele>
        <time>2003-04-13T12:46:57Z</time>
      </trkpt>
      <trkpt lat="33.300902992486954" lon="-3.767127022147179">
        <ele>840.39999999999998</ele>
        <time>2003-04-13T12:47:01Z</time>
      </trkpt>
      <trkpt lat="33.300082990899682" lon="-3.767977030947805">
        <ele>840.70000000000005</ele>
        <time>2003-04-13T12:47:05Z</time>
      </trkpt>
      <trkpt lat="33.299301965162158" lon="-3.768808012828231">
        <ele>841</ele>
        <time>2003-04-13T12:47:09Z</time>
      </trkpt>
      <trkpt lat="33.298563016578555" lon="-3.769555008038878">
        <ele>841.29999999999995</ele>
        <time>2003-04-13T12:47:13Z</time>
      </trkpt>
      <trkpt lat="33.297836976125836" lon="-3.77030803821981">
        <ele>841.20000000000005</ele>
        <time>2003-04-13T12:47:16Z</time>
      </trkpt>
      <trkpt lat="33.29711495898664" lon="-3.77106299623847">
        <ele>840</ele>
        <time>2003-04-13T12:47:20Z</time>
      </trkpt>
      <trkpt lat="33.296407023444772" lon="-3.771800016984344">
        <ele>840.10000000000002</ele>
        <time>2003-04-13T12:47:24Z</time>
      </trkpt>
      <trkpt lat="33.29569498077035" lon="-3.772533014416695">
        <ele>840.20000000000005</ele>
        <time>2003-04-13T12:47:28Z</time>
      </trkpt>
      <trkpt lat="33.294961983337998" lon="-3.773295013234019">
        <ele>840.70000000000005</ele>
        <time>2003-04-13T12:47:32Z</time>
      </trkpt>
      <trkpt lat="33.294223034754395" lon="-3.774045025929809">
        <ele>840.79999999999995</ele>
        <time>2003-04-13T12:47:36Z</time>
      </trkpt>
      <trkpt lat="33.293494982644916" lon="-3.774799983948469">
        <ele>841.10000000000002</ele>
        <time>2003-04-13T12:47:40Z</time>
      </trkpt>
      <trkpt lat="33.292785035446286" lon="-3.775544967502356">
        <ele>841</ele>
        <time>2003-04-13T12:47:44Z</time>
      </trkpt>
      <trkpt lat="33.292338028550148" lon="-3.776022987440229">
        <ele>840.89999999999998</ele>
        <time>2003-04-13T12:47:47Z</time>
      </trkpt>
      <trkpt lat="33.292116997763515" lon="-3.776273019611836">
        <ele>841</ele>
        <time>2003-04-13T12:47:50Z</time>
      </trkpt>
      <trkpt lat="33.291362039744854" lon="-3.777038035914302">
        <ele>840.89999999999998</ele>
        <time>2003-04-13T12:47:55Z</time>
      </trkpt>
      <trkpt lat="33.290631975978613" lon="-3.777812020853162">
        <ele>840.60000000000002</ele>
        <time>2003-04-13T12:48:00Z</time>
      </trkpt>
      <trkpt lat="33.289801999926567" lon="-3.778682984411717">
        <ele>840.79999999999995</ele>
        <time>2003-04-13T12:48:06Z</time>
      </trkpt>
      <trkpt lat="33.289083000272512" lon="-3.77944003790617">
        <ele>841</ele>
        <time>2003-04-13T12:48:10Z</time>
      </trkpt>
      <trkpt lat="33.288327036425471" lon="-3.780228020623326">
        <ele>841.60000000000002</ele>
        <time>2003-04-13T12:48:14Z</time>
      </trkpt>
      <trkpt lat="33.287578029558063" lon="-3.781014997512102">
        <ele>841.60000000000002</ele>
        <time>2003-04-13T12:48:18Z</time>
      </trkpt>
      <trkpt lat="33.286817036569118" lon="-3.781808009371162">
        <ele>841.20000000000005</ele>
        <time>2003-04-13T12:48:22Z</time>
      </trkpt>
      <trkpt lat="33.28604799695313" lon="-3.782618036493659">
        <ele>841.5</ele>
        <time>2003-04-13T12:48:26Z</time>
      </trkpt>
      <trkpt lat="33.285272000357509" lon="-3.783435020595789">
        <ele>841.79999999999995</ele>
        <time>2003-04-13T12:48:30Z</time>
      </trkpt>
      <trkpt lat="33.284491980448365" lon="-3.7842530105263">
        <ele>841</ele>
        <time>2003-04-13T12:48:34Z</time>
      </trkpt>
      <trkpt lat="33.283711960539222" lon="-3.785073012113571">
        <ele>841.39999999999998</ele>
        <time>2003-04-13T12:48:37Z</time>
      </trkpt>
      <trkpt lat="33.282964965328574" lon="-3.785854959860444">
        <ele>841.39999999999998</ele>
        <time>2003-04-13T12:48:42Z</time>
      </trkpt>
      <trkpt lat="33.282210007309914" lon="-3.786645038053393">
        <ele>840.70000000000005</ele>
        <time>2003-04-13T12:48:46Z</time>
      </trkpt>
      <trkpt lat="33.281482961028814" lon="-3.787407958880067">
        <ele>841.39999999999998</ele>
        <time>2003-04-13T12:48:50Z</time>
      </trkpt>
      <trkpt lat="33.28080696053803" lon="-3.788125030696392">
        <ele>843.89999999999998</ele>
        <time>2003-04-13T12:48:54Z</time>
      </trkpt>
      <trkpt lat="33.280107993632555" lon="-3.788858028128743">
        <ele>844.10000000000002</ele>
        <time>2003-04-13T12:48:59Z</time>
      </trkpt>
      <trkpt lat="33.279427969828248" lon="-3.789592031389475">
        <ele>841.10000000000002</ele>
        <time>2003-04-13T12:49:03Z</time>
      </trkpt>
      <trkpt lat="33.278681980445981" lon="-3.790384959429503">
        <ele>840.89999999999998</ele>
        <time>2003-04-13T12:49:08Z</time>
      </trkpt>
      <trkpt lat="33.277852004393935" lon="-3.791239997372031">
        <ele>841.20000000000005</ele>
        <time>2003-04-13T12:49:12Z</time>
      </trkpt>
      <trkpt lat="33.277038037776947" lon="-3.792111966758966">
        <ele>841.60000000000002</ele>
        <time>2003-04-13T12:49:17Z</time>
      </trkpt>
      <trkpt lat="33.276206972077489" lon="-3.79295501857996">
        <ele>842.39999999999998</ele>
        <time>2003-04-13T12:49:23Z</time>
      </trkpt>
      <trkpt lat="33.275516973808408" lon="-3.793692961335182">
        <ele>842</ele>
        <time>2003-04-13T12:49:27Z</time>
      </trkpt>
      <trkpt lat="33.27481197193265" lon="-3.794426964595914">
        <ele>842</ele>
        <time>2003-04-13T12:49:31Z</time>
      </trkpt>
      <trkpt lat="33.274096995592117" lon="-3.795182006433606">
        <ele>842</ele>
        <time>2003-04-13T12:49:35Z</time>
      </trkpt>
      <trkpt lat="33.273414960131049" lon="-3.795887008309364">
        <ele>841.60000000000002</ele>
        <time>2003-04-13T12:49:39Z</time>
      </trkpt>
      <trkpt lat="33.272593030706048" lon="-3.796761995181441">
        <ele>841.20000000000005</ele>
        <time>2003-04-13T12:49:43Z</time>
      </trkpt>
      <trkpt lat="33.271794989705086" lon="-3.79757302813232">
        <ele>841.29999999999995</ele>
        <time>2003-04-13T12:49:48Z</time>
      </trkpt>
      <trkpt lat="33.271112032234669" lon="-3.798288004472852">
        <ele>841.10000000000002</ele>
        <time>2003-04-13T12:49:53Z</time>
      </trkpt>
      <trkpt lat="33.270396972075105" lon="-3.799037011340261">
        <ele>840.89999999999998</ele>
        <time>2003-04-13T12:49:57Z</time>
      </trkpt>
      <trkpt lat="33.269651988521218" lon="-3.799806972965598">
        <ele>840.29999999999995</ele>
        <time>2003-04-13T12:50:01Z</time>
      </trkpt>
      <trkpt lat="33.268889989703894" lon="-3.800603002309799">
        <ele>839.5</ele>
        <time>2003-04-13T12:50:05Z</time>
      </trkpt>
      <trkpt lat="33.26810703612864" lon="-3.801410011947155">
        <ele>839.20000000000005</ele>
        <time>2003-04-13T12:50:09Z</time>
      </trkpt>
      <trkpt lat="33.267325004562736" lon="-3.802230013534427">
        <ele>839.20000000000005</ele>
        <time>2003-04-13T12:50:13Z</time>
      </trkpt>
      <trkpt lat="33.266527969390154" lon="-3.803056972101331">
        <ele>838.70000000000005</ele>
        <time>2003-04-13T12:50:17Z</time>
      </trkpt>
      <trkpt lat="33.26572498306632" lon="-3.803889965638518">
        <ele>838.70000000000005</ele>
        <time>2003-04-13T12:50:21Z</time>
      </trkpt>
      <trkpt lat="33.264917973428965" lon="-3.804735029116273">
        <ele>838.39999999999998</ele>
        <time>2003-04-13T12:50:25Z</time>
      </trkpt>
      <trkpt lat="33.264105012640357" lon="-3.805576991289854">
        <ele>838.10000000000002</ele>
        <time>2003-04-13T12:50:29Z</time>
      </trkpt>
      <trkpt lat="33.263290040194988" lon="-3.806422976776958">
        <ele>837.79999999999995</ele>
        <time>2003-04-13T12:50:33Z</time>
      </trkpt>
      <trkpt lat="33.262471966445446" lon="-3.807272985577583">
        <ele>837.20000000000005</ele>
        <time>2003-04-13T12:50:37Z</time>
      </trkpt>
      <trkpt lat="33.261665040627122" lon="-3.808122994378209">
        <ele>836.79999999999995</ele>
        <time>2003-04-13T12:50:41Z</time>
      </trkpt>
      <trkpt lat="33.260882003232837" lon="-3.808945007622242">
        <ele>836.5</ele>
        <time>2003-04-13T12:50:45Z</time>
      </trkpt>
      <trkpt lat="33.260092008858919" lon="-3.809768026694655">
        <ele>836.60000000000002</ele>
        <time>2003-04-13T12:50:49Z</time>
      </trkpt>
      <trkpt lat="33.259294973686337" lon="-3.810588028281927">
        <ele>836.79999999999995</ele>
        <time>2003-04-13T12:50:52Z</time>
      </trkpt>
      <trkpt lat="33.258516965433955" lon="-3.811405012384057">
        <ele>836.29999999999995</ele>
        <time>2003-04-13T12:50:56Z</time>
      </trkpt>
      <trkpt lat="33.257729988545179" lon="-3.8122299592942">
        <ele>835.10000000000002</ele>
        <time>2003-04-13T12:51:00Z</time>
      </trkpt>
      <trkpt lat="33.256939994171262" lon="-3.8130450155586">
        <ele>835.20000000000005</ele>
        <time>2003-04-13T12:51:04Z</time>
      </trkpt>
      <trkpt lat="33.256142036989331" lon="-3.813869962468743">
        <ele>834.60000000000002</ele>
        <time>2003-04-13T12:51:08Z</time>
      </trkpt>
      <trkpt lat="33.255341984331608" lon="-3.814704967662692">
        <ele>833.39999999999998</ele>
        <time>2003-04-13T12:51:12Z</time>
      </trkpt>
      <trkpt lat="33.254542015492916" lon="-3.81553796119988">
        <ele>833.10000000000002</ele>
        <time>2003-04-13T12:51:16Z</time>
      </trkpt>
      <trkpt lat="33.253771970048547" lon="-3.81635301746428">
        <ele>833</ele>
        <time>2003-04-13T12:51:20Z</time>
      </trkpt>
      <trkpt lat="33.252975018694997" lon="-3.817185005173087">
        <ele>832.79999999999995</ele>
        <time>2003-04-13T12:51:24Z</time>
      </trkpt>
      <trkpt lat="33.252212014049292" lon="-3.817990003153682">
        <ele>833.5</ele>
        <time>2003-04-13T12:51:28Z</time>
      </trkpt>
      <trkpt lat="33.251453032717109" lon="-3.818792989477515">
        <ele>833.89999999999998</ele>
        <time>2003-04-13T12:51:32Z</time>
      </trkpt>
      <trkpt lat="33.250715006142855" lon="-3.819582983851433">
        <ele>833.29999999999995</ele>
        <time>2003-04-13T12:51:36Z</time>
      </trkpt>
      <trkpt lat="33.249987037852407" lon="-3.820341965183616">
        <ele>831.29999999999995</ele>
        <time>2003-04-13T12:51:41Z</time>
      </trkpt>
      <trkpt lat="33.249252028763294" lon="-3.821109998971224">
        <ele>830.89999999999998</ele>
        <time>2003-04-13T12:51:45Z</time>
      </trkpt>
      <trkpt lat="33.248521964997053" lon="-3.821873003616929">
        <ele>830.89999999999998</ele>
        <time>2003-04-13T12:51:49Z</time>
      </trkpt>
      <trkpt lat="33.247798020020127" lon="-3.822638019919395">
        <ele>829.60000000000002</ele>
        <time>2003-04-13T12:51:53Z</time>
      </trkpt>
      <trkpt lat="33.247102992609143" lon="-3.823366994038224">
        <ele>830.29999999999995</ele>
        <time>2003-04-13T12:51:57Z</time>
      </trkpt>
      <trkpt lat="33.246262036263943" lon="-3.824248015880585">
        <ele>832.10000000000002</ele>
        <time>2003-04-13T12:52:02Z</time>
      </trkpt>
      <trkpt lat="33.245552005246282" lon="-3.824998028576374">
        <ele>829.20000000000005</ele>
        <time>2003-04-13T12:52:06Z</time>
      </trkpt>
      <trkpt lat="33.244839962571859" lon="-3.825737982988358">
        <ele>829.10000000000002</ele>
        <time>2003-04-13T12:52:10Z</time>
      </trkpt>
      <trkpt lat="33.244027001783252" lon="-3.826597966253758">
        <ele>829.10000000000002</ele>
        <time>2003-04-13T12:52:14Z</time>
      </trkpt>
      <trkpt lat="33.243367010727525" lon="-3.827216969802976">
        <ele>828.5</ele>
        <time>2003-04-13T12:52:18Z</time>
      </trkpt>
      <trkpt lat="33.242989992722869" lon="-3.827455015853047">
        <ele>828.5</ele>
        <time>2003-04-13T12:52:21Z</time>
      </trkpt>
      <trkpt lat="33.242571987211704" lon="-3.827602034434676">
        <ele>828.39999999999998</ele>
        <time>2003-04-13T12:52:22Z</time>
      </trkpt>
      <trkpt lat="33.241907972842455" lon="-3.827688032761216">
        <ele>827.79999999999995</ele>
        <time>2003-04-13T12:52:25Z</time>
      </trkpt>
      <trkpt lat="33.24144302867353" lon="-3.827628018334508">
        <ele>827.5</ele>
        <time>2003-04-13T12:52:28Z</time>
      </trkpt>
      <trkpt lat="33.240496963262558" lon="-3.827506983652711">
        <ele>827.20000000000005</ele>
        <time>2003-04-13T12:52:32Z</time>
      </trkpt>
      <trkpt lat="33.239562967792153" lon="-3.827401958405972">
        <ele>826.5</ele>
        <time>2003-04-13T12:52:36Z</time>
      </trkpt>
      <trkpt lat="33.23863198980689" lon="-3.827287964522839">
        <ele>826.5</ele>
        <time>2003-04-13T12:52:40Z</time>
      </trkpt>
      <trkpt lat="33.237675027921796" lon="-3.827180005609989">
        <ele>825.89999999999998</ele>
        <time>2003-04-13T12:52:44Z</time>
      </trkpt>
      <trkpt lat="33.236716976389289" lon="-3.827059976756573">
        <ele>825.10000000000002</ele>
        <time>2003-04-13T12:52:48Z</time>
      </trkpt>
      <trkpt lat="33.235760014504194" lon="-3.826956963166595">
        <ele>824</ele>
        <time>2003-04-13T12:52:52Z</time>
      </trkpt>
      <trkpt lat="33.234812021255493" lon="-3.826844980940223">
        <ele>823.70000000000005</ele>
        <time>2003-04-13T12:52:56Z</time>
      </trkpt>
      <trkpt lat="33.233841983601451" lon="-3.826741967350245">
        <ele>822.79999999999995</ele>
        <time>2003-04-13T12:53:00Z</time>
      </trkpt>
      <trkpt lat="33.232883010059595" lon="-3.826626967638731">
        <ele>822.39999999999998</ele>
        <time>2003-04-13T12:53:04Z</time>
      </trkpt>
      <trkpt lat="33.231793027371168" lon="-3.82649696432054">
        <ele>822.10000000000002</ele>
        <time>2003-04-13T12:53:08Z</time>
      </trkpt>
      <trkpt lat="33.230821983888745" lon="-3.82647299207747">
        <ele>824</ele>
        <time>2003-04-13T12:53:14Z</time>
      </trkpt>
      <trkpt lat="33.230446977540851" lon="-3.826590003445745">
        <ele>824.79999999999995</ele>
        <time>2003-04-13T12:53:15Z</time>
      </trkpt>
      <trkpt lat="33.230084963142872" lon="-3.826812040060759">
        <ele>825.5</ele>
        <time>2003-04-13T12:53:18Z</time>
      </trkpt>
      <trkpt lat="33.229188015684485" lon="-3.827555011957884">
        <ele>827.10000000000002</ele>
        <time>2003-04-13T12:53:23Z</time>
      </trkpt>
      <trkpt lat="33.228416964411736" lon="-3.828177032992244">
        <ele>828.29999999999995</ele>
        <time>2003-04-13T12:53:27Z</time>
      </trkpt>
      <trkpt lat="33.227572990581393" lon="-3.82877198047936">
        <ele>828.10000000000002</ele>
        <time>2003-04-13T12:53:31Z</time>
      </trkpt>
      <trkpt lat="33.226732034236193" lon="-3.829353014007211">
        <ele>825.70000000000005</ele>
        <time>2003-04-13T12:53:34Z</time>
      </trkpt>
      <trkpt lat="33.225870039314032" lon="-3.82995299063623">
        <ele>825.5</ele>
        <time>2003-04-13T12:53:38Z</time>
      </trkpt>
      <trkpt lat="33.224992034956813" lon="-3.830569982528687">
        <ele>825.39999999999998</ele>
        <time>2003-04-13T12:53:42Z</time>
      </trkpt>
      <trkpt lat="33.224102966487408" lon="-3.831187980249524">
        <ele>827.89999999999998</ele>
        <time>2003-04-13T12:53:46Z</time>
      </trkpt>
      <trkpt lat="33.223233008757234" lon="-3.831813018769026">
        <ele>830.10000000000002</ele>
        <time>2003-04-13T12:53:50Z</time>
      </trkpt>
      <trkpt lat="33.222355004400015" lon="-3.83244501426816">
        <ele>830.60000000000002</ele>
        <time>2003-04-13T12:53:54Z</time>
      </trkpt>
      <trkpt lat="33.221457973122597" lon="-3.83306703530252">
        <ele>830.79999999999995</ele>
        <time>2003-04-13T12:53:58Z</time>
      </trkpt>
      <trkpt lat="33.220557002350688" lon="-3.833680003881455">
        <ele>831.20000000000005</ele>
        <time>2003-04-13T12:54:02Z</time>
      </trkpt>
      <trkpt lat="33.219685032963753" lon="-3.834282997995615">
        <ele>831.20000000000005</ele>
        <time>2003-04-13T12:54:06Z</time>
      </trkpt>
      <trkpt lat="33.218850027769804" lon="-3.834847016260028">
        <ele>831.5</ele>
        <time>2003-04-13T12:54:10Z</time>
      </trkpt>
      <trkpt lat="33.218055004253983" lon="-3.835393013432622">
        <ele>831.5</ele>
        <time>2003-04-13T12:54:14Z</time>
      </trkpt>
      <trkpt lat="33.217127965763211" lon="-3.836128022521734">
        <ele>832.29999999999995</ele>
        <time>2003-04-13T12:54:20Z</time>
      </trkpt>
      <trkpt lat="33.216620022431016" lon="-3.836707966402173">
        <ele>832.5</ele>
        <time>2003-04-13T12:54:23Z</time>
      </trkpt>
      <trkpt lat="33.216326991096139" lon="-3.837169976904988">
        <ele>832.60000000000002</ele>
        <time>2003-04-13T12:54:25Z</time>
      </trkpt>
      <trkpt lat="33.215758027508855" lon="-3.838138002902269">
        <ele>832.79999999999995</ele>
        <time>2003-04-13T12:54:28Z</time>
      </trkpt>
      <trkpt lat="33.215195015072823" lon="-3.839071998372674">
        <ele>833.10000000000002</ele>
        <time>2003-04-13T12:54:32Z</time>
      </trkpt>
      <trkpt lat="33.214644994586706" lon="-3.839982021600008">
        <ele>833.20000000000005</ele>
        <time>2003-04-13T12:54:36Z</time>
      </trkpt>
      <trkpt lat="33.214084999635816" lon="-3.840912999585271">
        <ele>833</ele>
        <time>2003-04-13T12:54:40Z</time>
      </trkpt>
      <trkpt lat="33.213522993028164" lon="-3.841846995055676">
        <ele>833.29999999999995</ele>
        <time>2003-04-13T12:54:44Z</time>
      </trkpt>
      <trkpt lat="33.21295503526926" lon="-3.842776967212558">
        <ele>833.10000000000002</ele>
        <time>2003-04-13T12:54:48Z</time>
      </trkpt>
      <trkpt lat="33.212414989247918" lon="-3.843663018196821">
        <ele>832.70000000000005</ele>
        <time>2003-04-13T12:54:52Z</time>
      </trkpt>
      <trkpt lat="33.211854994297028" lon="-3.844574969261885">
        <ele>832.60000000000002</ele>
        <time>2003-04-13T12:54:56Z</time>
      </trkpt>
      <trkpt lat="33.211294999346137" lon="-3.845518017187715">
        <ele>832.60000000000002</ele>
        <time>2003-04-13T12:55:00Z</time>
      </trkpt>
      <trkpt lat="33.210738021880388" lon="-3.846440026536584">
        <ele>832.89999999999998</ele>
        <time>2003-04-13T12:55:04Z</time>
      </trkpt>
      <trkpt lat="33.210203005000949" lon="-3.8473130017519">
        <ele>833.60000000000002</ele>
        <time>2003-04-13T12:55:08Z</time>
      </trkpt>
      <trkpt lat="33.209642004221678" lon="-3.848226964473724">
        <ele>833.5</ele>
        <time>2003-04-13T12:55:12Z</time>
      </trkpt>
      <trkpt lat="33.209070023149252" lon="-3.849173029884696">
        <ele>833.5</ele>
        <time>2003-04-13T12:55:17Z</time>
      </trkpt>
      <trkpt lat="33.208477003499866" lon="-3.850124962627888">
        <ele>833.79999999999995</ele>
        <time>2003-04-13T12:55:21Z</time>
      </trkpt>
      <trkpt lat="33.207908039912581" lon="-3.851082008332014">
        <ele>834.20000000000005</ele>
        <time>2003-04-13T12:55:25Z</time>
      </trkpt>
      <trkpt lat="33.207336980849504" lon="-3.852026984095573">
        <ele>834.89999999999998</ele>
        <time>2003-04-13T12:55:29Z</time>
      </trkpt>
      <trkpt lat="33.206782015040517" lon="-3.852929966524243">
        <ele>834.79999999999995</ele>
        <time>2003-04-13T12:55:33Z</time>
      </trkpt>
      <trkpt lat="33.206220008432865" lon="-3.853849964216352">
        <ele>835.29999999999995</ele>
        <time>2003-04-13T12:55:37Z</time>
      </trkpt>
      <trkpt lat="33.205658001825213" lon="-3.85476702824235">
        <ele>836.39999999999998</ele>
        <time>2003-04-13T12:55:41Z</time>
      </trkpt>
      <trkpt lat="33.205103036016226" lon="-3.855703035369515">
        <ele>836.29999999999995</ele>
        <time>2003-04-13T12:55:45Z</time>
      </trkpt>
      <trkpt lat="33.204543041065335" lon="-3.856632001698017">
        <ele>836.5</ele>
        <time>2003-04-13T12:55:49Z</time>
      </trkpt>
      <trkpt lat="33.203990003094077" lon="-3.857542024925351">
        <ele>837.20000000000005</ele>
        <time>2003-04-13T12:55:53Z</time>
      </trkpt>
      <trkpt lat="33.2034379709512" lon="-3.858457999303937">
        <ele>838</ele>
        <time>2003-04-13T12:55:57Z</time>
      </trkpt>
      <trkpt lat="33.202897002920508" lon="-3.859352013096213">
        <ele>838.20000000000005</ele>
        <time>2003-04-13T12:56:01Z</time>
      </trkpt>
      <trkpt lat="33.202244974672794" lon="-3.860411988571286">
        <ele>838.5</ele>
        <time>2003-04-13T12:56:05Z</time>
      </trkpt>
      <trkpt lat="33.201595041900873" lon="-3.861474981531501">
        <ele>839</ele>
        <time>2003-04-13T12:56:11Z</time>
      </trkpt>
      <trkpt lat="33.201062958687544" lon="-3.862358015030623">
        <ele>839.5</ele>
        <time>2003-04-13T12:56:15Z</time>
      </trkpt>
      <trkpt lat="33.200522996485233" lon="-3.863259991630912">
        <ele>839.70000000000005</ele>
        <time>2003-04-13T12:56:19Z</time>
      </trkpt>
      <trkpt lat="33.199877003207803" lon="-3.864309992641211">
        <ele>839.5</ele>
        <time>2003-04-13T12:56:24Z</time>
      </trkpt>
      <trkpt lat="33.199256993830204" lon="-3.865341972559691">
        <ele>840.20000000000005</ele>
        <time>2003-04-13T12:56:28Z</time>
      </trkpt>
      <trkpt lat="33.19862499833107" lon="-3.866366995498538">
        <ele>840.39999999999998</ele>
        <time>2003-04-13T12:56:33Z</time>
      </trkpt>
      <trkpt lat="33.197983028367162" lon="-3.86742495931685">
        <ele>840.60000000000002</ele>
        <time>2003-04-13T12:56:39Z</time>
      </trkpt>
      <trkpt lat="33.197450023144484" lon="-3.86830204166472">
        <ele>840.89999999999998</ele>
        <time>2003-04-13T12:56:43Z</time>
      </trkpt>
      <trkpt lat="33.196790032088757" lon="-3.869384983554483">
        <ele>841.10000000000002</ele>
        <time>2003-04-13T12:56:47Z</time>
      </trkpt>
      <trkpt lat="33.196327015757561" lon="-3.869997030124068">
        <ele>841.29999999999995</ele>
        <time>2003-04-13T12:56:51Z</time>
      </trkpt>
      <trkpt lat="33.195944968611002" lon="-3.870357032865286">
        <ele>841</ele>
        <time>2003-04-13T12:56:52Z</time>
      </trkpt>
      <trkpt lat="33.195114992558956" lon="-3.871047031134367">
        <ele>841.5</ele>
        <time>2003-04-13T12:56:56Z</time>
      </trkpt>
      <trkpt lat="33.194334972649813" lon="-3.871690006926656">
        <ele>843.10000000000002</ele>
        <time>2003-04-13T12:57:00Z</time>
      </trkpt>
      <trkpt lat="33.1934479996562" lon="-3.872457034885883">
        <ele>843.39999999999998</ele>
        <time>2003-04-13T12:57:06Z</time>
      </trkpt>
      <trkpt lat="33.192582987248898" lon="-3.873179974034429">
        <ele>842.29999999999995</ele>
        <time>2003-04-13T12:57:10Z</time>
      </trkpt>
      <trkpt lat="33.191844960674644" lon="-3.873803000897169">
        <ele>841</ele>
        <time>2003-04-13T12:57:14Z</time>
      </trkpt>
      <trkpt lat="33.191077010706067" lon="-3.874457040801644">
        <ele>841.10000000000002</ele>
        <time>2003-04-13T12:57:18Z</time>
      </trkpt>
      <trkpt lat="33.190282993018627" lon="-3.875160031020641">
        <ele>841.29999999999995</ele>
        <time>2003-04-13T12:57:22Z</time>
      </trkpt>
      <trkpt lat="33.189491992816329" lon="-3.875841982662678">
        <ele>841.70000000000005</ele>
        <time>2003-04-13T12:57:26Z</time>
      </trkpt>
      <trkpt lat="33.188852034509182" lon="-3.876289995387197">
        <ele>842.29999999999995</ele>
        <time>2003-04-13T12:57:30Z</time>
      </trkpt>
      <trkpt lat="33.188378037884831" lon="-3.876471966505051">
        <ele>843.79999999999995</ele>
        <time>2003-04-13T12:57:32Z</time>
      </trkpt>
      <trkpt lat="33.187434989959002" lon="-3.876780001446605">
        <ele>847.60000000000002</ele>
        <time>2003-04-13T12:57:36Z</time>
      </trkpt>
      <trkpt lat="33.186480039730668" lon="-3.877142015844584">
        <ele>847</ele>
        <time>2003-04-13T12:57:40Z</time>
      </trkpt>
      <trkpt lat="33.185498015955091" lon="-3.877497995272279">
        <ele>847.20000000000005</ele>
        <time>2003-04-13T12:57:44Z</time>
      </trkpt>
      <trkpt lat="33.184538036584854" lon="-3.877839976921678">
        <ele>847.70000000000005</ele>
        <time>2003-04-13T12:57:48Z</time>
      </trkpt>
      <trkpt lat="33.183598006144166" lon="-3.87818799354136">
        <ele>848.60000000000002</ele>
        <time>2003-04-13T12:57:52Z</time>
      </trkpt>
      <trkpt lat="33.182672979310155" lon="-3.87853198684752">
        <ele>849.10000000000002</ele>
        <time>2003-04-13T12:57:56Z</time>
      </trkpt>
      <trkpt lat="33.181745018810034" lon="-3.878872040659189">
        <ele>849.39999999999998</ele>
        <time>2003-04-13T12:58:00Z</time>
      </trkpt>
      <trkpt lat="33.181057032197714" lon="-3.879212010651827">
        <ele>849.5</ele>
        <time>2003-04-13T12:58:03Z</time>
      </trkpt>
      <trkpt lat="33.180195037275553" lon="-3.879860015586019">
        <ele>849.79999999999995</ele>
        <time>2003-04-13T12:58:07Z</time>
      </trkpt>
      <trkpt lat="33.179328013211489" lon="-3.880526963621378">
        <ele>850.5</ele>
        <time>2003-04-13T12:58:11Z</time>
      </trkpt>
      <trkpt lat="33.178461994975805" lon="-3.881187038496137">
        <ele>851.10000000000002</ele>
        <time>2003-04-13T12:58:15Z</time>
      </trkpt>
      <trkpt lat="33.177632018923759" lon="-3.881811993196607">
        <ele>851</ele>
        <time>2003-04-13T12:58:19Z</time>
      </trkpt>
      <trkpt lat="33.176836995407939" lon="-3.882422028109431">
        <ele>851.79999999999995</ele>
        <time>2003-04-13T12:58:23Z</time>
      </trkpt>
      <trkpt lat="33.17604498937726" lon="-3.883014963939786">
        <ele>852.20000000000005</ele>
        <time>2003-04-13T12:58:27Z</time>
      </trkpt>
      <trkpt lat="33.175113005563617" lon="-3.883721977472305">
        <ele>852.79999999999995</ele>
        <time>2003-04-13T12:58:31Z</time>
      </trkpt>
      <trkpt lat="33.174350000917912" lon="-3.884305022656918">
        <ele>852.79999999999995</ele>
        <time>2003-04-13T12:58:35Z</time>
      </trkpt>
      <trkpt lat="33.173452969640493" lon="-3.884989991784096">
        <ele>853.70000000000005</ele>
        <time>2003-04-13T12:58:40Z</time>
      </trkpt>
      <trkpt lat="33.172547975555062" lon="-3.885682001709938">
        <ele>854.20000000000005</ele>
        <time>2003-04-13T12:58:46Z</time>
      </trkpt>
      <trkpt lat="33.17179000005126" lon="-3.886262029409409">
        <ele>854.60000000000002</ele>
        <time>2003-04-13T12:58:50Z</time>
      </trkpt>
      <trkpt lat="33.171018026769161" lon="-3.886852031573653">
        <ele>855.39999999999998</ele>
        <time>2003-04-13T12:58:54Z</time>
      </trkpt>
      <trkpt lat="33.170237001031637" lon="-3.887437004595995">
        <ele>855.20000000000005</ele>
        <time>2003-04-13T12:58:58Z</time>
      </trkpt>
      <trkpt lat="33.1694670394063" lon="-3.888018038123846">
        <ele>855.39999999999998</ele>
        <time>2003-04-13T12:59:02Z</time>
      </trkpt>
      <trkpt lat="33.168522985652089" lon="-3.888732008635998">
        <ele>855.5</ele>
        <time>2003-04-13T12:59:06Z</time>
      </trkpt>
      <trkpt lat="33.167653027921915" lon="-3.889397028833628">
        <ele>856.10000000000002</ele>
        <time>2003-04-13T12:59:11Z</time>
      </trkpt>
      <trkpt lat="33.166772006079555" lon="-3.890066994354129">
        <ele>857</ele>
        <time>2003-04-13T12:59:17Z</time>
      </trkpt>
      <trkpt lat="33.165847985073924" lon="-3.890656996518374">
        <ele>858.20000000000005</ele>
        <time>2003-04-13T12:59:22Z</time>
      </trkpt>
      <trkpt lat="33.164811981841922" lon="-3.891126969829202">
        <ele>858.39999999999998</ele>
        <time>2003-04-13T12:59:26Z</time>
      </trkpt>
      <trkpt lat="33.163949986919761" lon="-3.891525026410818">
        <ele>858.5</ele>
        <time>2003-04-13T12:59:30Z</time>
      </trkpt>
      <trkpt lat="33.163077011704445" lon="-3.891931967809796">
        <ele>858.29999999999995</ele>
        <time>2003-04-13T12:59:34Z</time>
      </trkpt>
      <trkpt lat="33.162213005125523" lon="-3.892333041876555">
        <ele>858.29999999999995</ele>
        <time>2003-04-13T12:59:38Z</time>
      </trkpt>
      <trkpt lat="33.161356961354613" lon="-3.892726991325617">
        <ele>858.79999999999995</ele>
        <time>2003-04-13T12:59:42Z</time>
      </trkpt>
      <trkpt lat="33.160351971164346" lon="-3.893192019313574">
        <ele>859.20000000000005</ele>
        <time>2003-04-13T12:59:48Z</time>
      </trkpt>
      <trkpt lat="33.159459969028831" lon="-3.893617987632752">
        <ele>860.70000000000005</ele>
        <time>2003-04-13T12:59:52Z</time>
      </trkpt>
      <trkpt lat="33.158492026850581" lon="-3.894179994240403">
        <ele>863.10000000000002</ele>
        <time>2003-04-13T12:59:59Z</time>
      </trkpt>
      <trkpt lat="33.157670013606548" lon="-3.894887007772923">
        <ele>862.60000000000002</ele>
        <time>2003-04-13T13:00:04Z</time>
      </trkpt>
      <trkpt lat="33.15679301507771" lon="-3.895669961348176">
        <ele>862.79999999999995</ele>
        <time>2003-04-13T13:00:09Z</time>
      </trkpt>
      <trkpt lat="33.156072003766894" lon="-3.896315032616258">
        <ele>863.70000000000005</ele>
        <time>2003-04-13T13:00:12Z</time>
      </trkpt>
      <trkpt lat="33.15533297136426" lon="-3.896973012015224">
        <ele>863.79999999999995</ele>
        <time>2003-04-13T13:00:16Z</time>
      </trkpt>
      <trkpt lat="33.154577007517219" lon="-3.897644989192486">
        <ele>864.20000000000005</ele>
        <time>2003-04-13T13:00:20Z</time>
      </trkpt>
      <trkpt lat="33.153843004256487" lon="-3.898295005783439">
        <ele>864.79999999999995</ele>
        <time>2003-04-13T13:00:24Z</time>
      </trkpt>
      <trkpt lat="33.152982015162706" lon="-3.899057004600763">
        <ele>864.70000000000005</ele>
        <time>2003-04-13T13:00:30Z</time>
      </trkpt>
      <trkpt lat="33.152167964726686" lon="-3.899782039225102">
        <ele>864.60000000000002</ele>
        <time>2003-04-13T13:00:35Z</time>
      </trkpt>
      <trkpt lat="33.151387022808194" lon="-3.900480000302196">
        <ele>865</ele>
        <time>2003-04-13T13:00:41Z</time>
      </trkpt>
      <trkpt lat="33.15056199207902" lon="-3.901217021048069">
        <ele>865.70000000000005</ele>
        <time>2003-04-13T13:00:46Z</time>
      </trkpt>
      <trkpt lat="33.14970200881362" lon="-3.901986982673407">
        <ele>866.10000000000002</ele>
        <time>2003-04-13T13:00:50Z</time>
      </trkpt>
      <trkpt lat="33.148831967264414" lon="-3.902759961783886">
        <ele>866.60000000000002</ele>
        <time>2003-04-13T13:00:55Z</time>
      </trkpt>
      <trkpt lat="33.148014983162284" lon="-3.903511986136437">
        <ele>866.89999999999998</ele>
        <time>2003-04-13T13:01:01Z</time>
      </trkpt>
      <trkpt lat="33.147152988240123" lon="-3.904263004660606">
        <ele>866</ele>
        <time>2003-04-13T13:01:06Z</time>
      </trkpt>
      <trkpt lat="33.146413033828139" lon="-3.904930036514998">
        <ele>867</ele>
        <time>2003-04-13T13:01:10Z</time>
      </trkpt>
      <trkpt lat="33.145657991990447" lon="-3.905594972893596">
        <ele>867.20000000000005</ele>
        <time>2003-04-13T13:01:13Z</time>
      </trkpt>
      <trkpt lat="33.14480303786695" lon="-3.906354960054159">
        <ele>868.39999999999998</ele>
        <time>2003-04-13T13:01:18Z</time>
      </trkpt>
      <trkpt lat="33.143953029066324" lon="-3.907110001891851">
        <ele>868.20000000000005</ele>
        <time>2003-04-13T13:01:24Z</time>
      </trkpt>
      <trkpt lat="33.14306303858757" lon="-3.907903013750911">
        <ele>868.79999999999995</ele>
        <time>2003-04-13T13:01:29Z</time>
      </trkpt>
      <trkpt lat="33.142325012013316" lon="-3.908557975664735">
        <ele>869.20000000000005</ele>
        <time>2003-04-13T13:01:33Z</time>
      </trkpt>
      <trkpt lat="33.141567036509514" lon="-3.909228025004268">
        <ele>869.79999999999995</ele>
        <time>2003-04-13T13:01:37Z</time>
      </trkpt>
      <trkpt lat="33.140828004106879" lon="-3.909888016059995">
        <ele>869.39999999999998</ele>
        <time>2003-04-13T13:01:40Z</time>
      </trkpt>
      <trkpt lat="33.140087965875864" lon="-3.910537026822567">
        <ele>869.79999999999995</ele>
        <time>2003-04-13T13:01:44Z</time>
      </trkpt>
      <trkpt lat="33.139362009242177" lon="-3.911197017878294">
        <ele>870.5</ele>
        <time>2003-04-13T13:01:48Z</time>
      </trkpt>
      <trkpt lat="33.138607973232865" lon="-3.911857008934021">
        <ele>870.79999999999995</ele>
        <time>2003-04-13T13:01:52Z</time>
      </trkpt>
      <trkpt lat="33.13784496858716" lon="-3.912547007203102">
        <ele>871.20000000000005</ele>
        <time>2003-04-13T13:01:56Z</time>
      </trkpt>
      <trkpt lat="33.137072995305061" lon="-3.913227031007409">
        <ele>871</ele>
        <time>2003-04-13T13:02:00Z</time>
      </trkpt>
      <trkpt lat="33.136322982609272" lon="-3.913902025669813">
        <ele>870.79999999999995</ele>
        <time>2003-04-13T13:02:04Z</time>
      </trkpt>
      <trkpt lat="33.135567018762231" lon="-3.914572997018695">
        <ele>871.60000000000002</ele>
        <time>2003-04-13T13:02:08Z</time>
      </trkpt>
      <trkpt lat="33.13483502715826" lon="-3.915227958932519">
        <ele>871.60000000000002</ele>
        <time>2003-04-13T13:02:12Z</time>
      </trkpt>
      <trkpt lat="33.13421200029552" lon="-3.915913011878729">
        <ele>872</ele>
        <time>2003-04-13T13:02:16Z</time>
      </trkpt>
      <trkpt lat="33.133713025599718" lon="-3.916718009859324">
        <ele>872.70000000000005</ele>
        <time>2003-04-13T13:02:20Z</time>
      </trkpt>
      <trkpt lat="33.133146995678544" lon="-3.917830036953092">
        <ele>873.70000000000005</ele>
        <time>2003-04-13T13:02:26Z</time>
      </trkpt>
      <trkpt lat="33.13255799934268" lon="-3.91896503046155">
        <ele>875.29999999999995</ele>
        <time>2003-04-13T13:02:31Z</time>
      </trkpt>
      <trkpt lat="33.132082996889949" lon="-3.919902965426445">
        <ele>876.79999999999995</ele>
        <time>2003-04-13T13:02:34Z</time>
      </trkpt>
      <trkpt lat="33.131595002487302" lon="-3.920850036665797">
        <ele>877.89999999999998</ele>
        <time>2003-04-13T13:02:38Z</time>
      </trkpt>
      <trkpt lat="33.131108013913035" lon="-3.921801969408989">
        <ele>878.70000000000005</ele>
        <time>2003-04-13T13:02:42Z</time>
      </trkpt>
      <trkpt lat="33.130626976490021" lon="-3.922777958214283">
        <ele>879.89999999999998</ele>
        <time>2003-04-13T13:02:46Z</time>
      </trkpt>
      <trkpt lat="33.13019203953445" lon="-3.923807004466653">
        <ele>880.60000000000002</ele>
        <time>2003-04-13T13:02:50Z</time>
      </trkpt>
      <trkpt lat="33.129757018759847" lon="-3.924833033233881">
        <ele>881.79999999999995</ele>
        <time>2003-04-13T13:02:54Z</time>
      </trkpt>
      <trkpt lat="33.129327027127147" lon="-3.925856966525316">
        <ele>882.5</ele>
        <time>2003-04-13T13:02:58Z</time>
      </trkpt>
      <trkpt lat="33.128898041322827" lon="-3.926862040534616">
        <ele>883.5</ele>
        <time>2003-04-13T13:03:02Z</time>
      </trkpt>
      <trkpt lat="33.128486992791295" lon="-3.927835011854768">
        <ele>884.20000000000005</ele>
        <time>2003-04-13T13:03:06Z</time>
      </trkpt>
      <trkpt lat="33.127924986183643" lon="-3.928961958736181">
        <ele>884.60000000000002</ele>
        <time>2003-04-13T13:03:12Z</time>
      </trkpt>
      <trkpt lat="33.127319980412722" lon="-3.929822025820613">
        <ele>884.89999999999998</ele>
        <time>2003-04-13T13:03:16Z</time>
      </trkpt>
      <trkpt lat="33.12667197547853" lon="-3.930721990764141">
        <ele>884.89999999999998</ele>
        <time>2003-04-13T13:03:20Z</time>
      </trkpt>
      <trkpt lat="33.126015001907945" lon="-3.931636959314346">
        <ele>884.89999999999998</ele>
        <time>2003-04-13T13:03:24Z</time>
      </trkpt>
      <trkpt lat="33.125357022508979" lon="-3.932555029168725">
        <ele>885.39999999999998</ele>
        <time>2003-04-13T13:03:28Z</time>
      </trkpt>
      <trkpt lat="33.124692002311349" lon="-3.933479972183704">
        <ele>886.39999999999998</ele>
        <time>2003-04-13T13:03:32Z</time>
      </trkpt>
      <trkpt lat="33.124022958800197" lon="-3.934416985139251">
        <ele>886.79999999999995</ele>
        <time>2003-04-13T13:03:36Z</time>
      </trkpt>
      <trkpt lat="33.123347964137793" lon="-3.935360033065081">
        <ele>887.29999999999995</ele>
        <time>2003-04-13T13:03:40Z</time>
      </trkpt>
      <trkpt lat="33.122732983902097" lon="-3.936229990795255">
        <ele>888.29999999999995</ele>
        <time>2003-04-13T13:03:44Z</time>
      </trkpt>
      <trkpt lat="33.121960004791617" lon="-3.937159962952137">
        <ele>888.20000000000005</ele>
        <time>2003-04-13T13:03:48Z</time>
      </trkpt>
      <trkpt lat="33.121202029287815" lon="-3.937817020341754">
        <ele>888.10000000000002</ele>
        <time>2003-04-13T13:03:52Z</time>
      </trkpt>
      <trkpt lat="33.120370041579008" lon="-3.938482962548733">
        <ele>888.70000000000005</ele>
        <time>2003-04-13T13:03:56Z</time>
      </trkpt>
      <trkpt lat="33.119551967829466" lon="-3.939138008281589">
        <ele>889.39999999999998</ele>
        <time>2003-04-13T13:04:00Z</time>
      </trkpt>
      <trkpt lat="33.118885019794106" lon="-3.939762962982059">
        <ele>890.29999999999995</ele>
        <time>2003-04-13T13:04:04Z</time>
      </trkpt>
      <trkpt lat="33.118644962087274" lon="-3.940132018178701">
        <ele>892</ele>
        <time>2003-04-13T13:04:07Z</time>
      </trkpt>
      <trkpt lat="33.11844295822084" lon="-3.940553041175008">
        <ele>892.70000000000005</ele>
        <time>2003-04-13T13:04:08Z</time>
      </trkpt>
      <trkpt lat="33.118007015436888" lon="-3.941736984997988">
        <ele>894.39999999999998</ele>
        <time>2003-04-13T13:04:14Z</time>
      </trkpt>
      <trkpt lat="33.117612982168794" lon="-3.942763013765216">
        <ele>894.60000000000002</ele>
        <time>2003-04-13T13:04:18Z</time>
      </trkpt>
      <trkpt lat="33.117197994142771" lon="-3.943851990625262">
        <ele>895.20000000000005</ele>
        <time>2003-04-13T13:04:22Z</time>
      </trkpt>
      <trkpt lat="33.116773031651974" lon="-3.944977009668946">
        <ele>896.5</ele>
        <time>2003-04-13T13:04:26Z</time>
      </trkpt>
      <trkpt lat="33.116347985342145" lon="-3.946083001792431">
        <ele>897.39999999999998</ele>
        <time>2003-04-13T13:04:30Z</time>
      </trkpt>
      <trkpt lat="33.115942971780896" lon="-3.947144988924265">
        <ele>898.29999999999995</ele>
        <time>2003-04-13T13:04:34Z</time>
      </trkpt>
      <trkpt lat="33.115548016503453" lon="-3.948198007419705">
        <ele>899.20000000000005</ele>
        <time>2003-04-13T13:04:38Z</time>
      </trkpt>
      <trkpt lat="33.115149959921837" lon="-3.949214983731508">
        <ele>900.20000000000005</ele>
        <time>2003-04-13T13:04:42Z</time>
      </trkpt>
      <trkpt lat="33.114779982715845" lon="-3.949934989213944">
        <ele>900.70000000000005</ele>
        <time>2003-04-13T13:04:45Z</time>
      </trkpt>
      <trkpt lat="33.114157961681485" lon="-3.950809976086021">
        <ele>901.10000000000002</ele>
        <time>2003-04-13T13:04:49Z</time>
      </trkpt>
      <trkpt lat="33.113502999767661" lon="-3.951674988493323">
        <ele>901.60000000000002</ele>
        <time>2003-04-13T13:04:53Z</time>
      </trkpt>
      <trkpt lat="33.112839991226792" lon="-3.952555004507303">
        <ele>902.10000000000002</ele>
        <time>2003-04-13T13:04:57Z</time>
      </trkpt>
      <trkpt lat="33.112174971029162" lon="-3.953441977500916">
        <ele>902.20000000000005</ele>
        <time>2003-04-13T13:05:01Z</time>
      </trkpt>
      <trkpt lat="33.111514979973435" lon="-3.954325011000037">
        <ele>903.20000000000005</ele>
        <time>2003-04-13T13:05:05Z</time>
      </trkpt>
      <trkpt lat="33.110902011394501" lon="-3.955141995102167">
        <ele>903.89999999999998</ele>
        <time>2003-04-13T13:05:09Z</time>
      </trkpt>
      <trkpt lat="33.11027797870338" lon="-3.955967025831342">
        <ele>904.60000000000002</ele>
        <time>2003-04-13T13:05:13Z</time>
      </trkpt>
      <trkpt lat="33.10976299457252" lon="-3.956534983590245">
        <ele>904.60000000000002</ele>
        <time>2003-04-13T13:05:16Z</time>
      </trkpt>
      <trkpt lat="33.108954979106784" lon="-3.957182988524437">
        <ele>904</ele>
        <time>2003-04-13T13:05:20Z</time>
      </trkpt>
      <trkpt lat="33.108125003054738" lon="-3.957847002893686">
        <ele>903.20000000000005</ele>
        <time>2003-04-13T13:05:24Z</time>
      </trkpt>
      <trkpt lat="33.107278011739254" lon="-3.958512023091316">
        <ele>904.20000000000005</ele>
        <time>2003-04-13T13:05:28Z</time>
      </trkpt>
      <trkpt lat="33.106460021808743" lon="-3.959152987226844">
        <ele>905.29999999999995</ele>
        <time>2003-04-13T13:05:32Z</time>
      </trkpt>
      <trkpt lat="33.105674972757697" lon="-3.95976796746254">
        <ele>907.60000000000002</ele>
        <time>2003-04-13T13:05:36Z</time>
      </trkpt>
      <trkpt lat="33.104893025010824" lon="-3.960383031517267">
        <ele>908.10000000000002</ele>
        <time>2003-04-13T13:05:40Z</time>
      </trkpt>
      <trkpt lat="33.103952994570136" lon="-3.961122985929251">
        <ele>908.10000000000002</ele>
        <time>2003-04-13T13:05:44Z</time>
      </trkpt>
      <trkpt lat="33.103180015459657" lon="-3.961724974215031">
        <ele>909.29999999999995</ele>
        <time>2003-04-13T13:05:48Z</time>
      </trkpt>
      <trkpt lat="33.102396978065372" lon="-3.962340038269758">
        <ele>910.79999999999995</ele>
        <time>2003-04-13T13:05:52Z</time>
      </trkpt>
      <trkpt lat="33.101612012833357" lon="-3.962959963828325">
        <ele>911.5</ele>
        <time>2003-04-13T13:05:56Z</time>
      </trkpt>
      <trkpt lat="33.100856970995665" lon="-3.96354703232646">
        <ele>911.89999999999998</ele>
        <time>2003-04-13T13:06:00Z</time>
      </trkpt>
      <trkpt lat="33.10009497217834" lon="-3.964039972051978">
        <ele>910.20000000000005</ele>
        <time>2003-04-13T13:06:05Z</time>
      </trkpt>
      <trkpt lat="33.099652994424105" lon="-3.964175004512072">
        <ele>909.39999999999998</ele>
        <time>2003-04-13T13:06:07Z</time>
      </trkpt>
      <trkpt lat="33.098740037530661" lon="-3.964417995885015">
        <ele>909.39999999999998</ele>
        <time>2003-04-13T13:06:10Z</time>
      </trkpt>
      <trkpt lat="33.097645025700331" lon="-3.964723013341427">
        <ele>909</ele>
        <time>2003-04-13T13:06:15Z</time>
      </trkpt>
      <trkpt lat="33.096704995259643" lon="-3.964985031634569">
        <ele>906.10000000000002</ele>
        <time>2003-04-13T13:06:19Z</time>
      </trkpt>
      <trkpt lat="33.095735041424632" lon="-3.965260041877627">
        <ele>903.39999999999998</ele>
        <time>2003-04-13T13:06:23Z</time>
      </trkpt>
      <trkpt lat="33.094740025699139" lon="-3.965543014928699">
        <ele>901.10000000000002</ele>
        <time>2003-04-13T13:06:27Z</time>
      </trkpt>
      <trkpt lat="33.093784991651773" lon="-3.965811990201473">
        <ele>901.10000000000002</ele>
        <time>2003-04-13T13:06:32Z</time>
      </trkpt>
      <trkpt lat="33.092802967876196" lon="-3.966050036251545">
        <ele>902.60000000000002</ele>
        <time>2003-04-13T13:06:36Z</time>
      </trkpt>
      <trkpt lat="33.091792026534677" lon="-3.966222032904625">
        <ele>904.29999999999995</ele>
        <time>2003-04-13T13:06:40Z</time>
      </trkpt>
      <trkpt lat="33.090828023850918" lon="-3.966365028172731">
        <ele>904.10000000000002</ele>
        <time>2003-04-13T13:06:44Z</time>
      </trkpt>
      <trkpt lat="33.089905008673668" lon="-3.96651498042047">
        <ele>905.60000000000002</ele>
        <time>2003-04-13T13:06:48Z</time>
      </trkpt>
      <trkpt lat="33.089009989053011" lon="-3.966653030365706">
        <ele>907.10000000000002</ele>
        <time>2003-04-13T13:06:52Z</time>
      </trkpt>
      <trkpt lat="33.088447982445359" lon="-3.966786973178387">
        <ele>907.20000000000005</ele>
        <time>2003-04-13T13:06:54Z</time>
      </trkpt>
      <trkpt lat="33.088117986917496" lon="-3.966937009245157">
        <ele>907.10000000000002</ele>
        <time>2003-04-13T13:06:57Z</time>
      </trkpt>
      <trkpt lat="33.087312988936901" lon="-3.967483006417751">
        <ele>906.10000000000002</ele>
        <time>2003-04-13T13:07:01Z</time>
      </trkpt>
      <trkpt lat="33.086419980973005" lon="-3.968147020787001">
        <ele>905.20000000000005</ele>
        <time>2003-04-13T13:07:07Z</time>
      </trkpt>
      <trkpt lat="33.085550023242831" lon="-3.968850011005998">
        <ele>904.39999999999998</ele>
        <time>2003-04-13T13:07:12Z</time>
      </trkpt>
      <trkpt lat="33.085245005786419" lon="-3.969221999868751">
        <ele>904.10000000000002</ele>
        <time>2003-04-13T13:07:13Z</time>
      </trkpt>
      <trkpt lat="33.084615021944046" lon="-3.970033032819629">
        <ele>903.60000000000002</ele>
        <time>2003-04-13T13:07:17Z</time>
      </trkpt>
      <trkpt lat="33.083955030888319" lon="-3.970880024135113">
        <ele>903.20000000000005</ele>
        <time>2003-04-13T13:07:21Z</time>
      </trkpt>
      <trkpt lat="33.083275007084012" lon="-3.971728021278977">
        <ele>903.5</ele>
        <time>2003-04-13T13:07:26Z</time>
      </trkpt>
      <trkpt lat="33.082618033513427" lon="-3.972580041736364">
        <ele>905.10000000000002</ele>
        <time>2003-04-13T13:07:30Z</time>
      </trkpt>
      <trkpt lat="33.082006992772222" lon="-3.973459973931313">
        <ele>906</ele>
        <time>2003-04-13T13:07:34Z</time>
      </trkpt>
      <trkpt lat="33.081489996984601" lon="-3.974252985790372">
        <ele>907</ele>
        <time>2003-04-13T13:07:38Z</time>
      </trkpt>
      <trkpt lat="33.080902006477118" lon="-3.975122021511197">
        <ele>907.10000000000002</ele>
        <time>2003-04-13T13:07:43Z</time>
      </trkpt>
      <trkpt lat="33.080249978229403" lon="-3.976087030023336">
        <ele>907.70000000000005</ele>
        <time>2003-04-13T13:07:47Z</time>
      </trkpt>
      <trkpt lat="33.079565009102225" lon="-3.977110041305423">
        <ele>909.60000000000002</ele>
        <time>2003-04-13T13:07:53Z</time>
      </trkpt>
      <trkpt lat="33.078918009996414" lon="-3.978088041767478">
        <ele>911.20000000000005</ele>
        <time>2003-04-13T13:07:58Z</time>
      </trkpt>
      <trkpt lat="33.078279979526997" lon="-3.979005021974444">
        <ele>910.29999999999995</ele>
        <time>2003-04-13T13:08:02Z</time>
      </trkpt>
      <trkpt lat="33.077807994559407" lon="-3.979478012770414">
        <ele>908.39999999999998</ele>
        <time>2003-04-13T13:08:06Z</time>
      </trkpt>
      <trkpt lat="33.077417984604836" lon="-3.979737013578415">
        <ele>906.79999999999995</ele>
        <time>2003-04-13T13:08:07Z</time>
      </trkpt>
      <trkpt lat="33.076590020209551" lon="-3.980298014357686">
        <ele>903.20000000000005</ele>
        <time>2003-04-13T13:08:11Z</time>
      </trkpt>
      <trkpt lat="33.07572802528739" lon="-3.980875024572015">
        <ele>904.20000000000005</ele>
        <time>2003-04-13T13:08:15Z</time>
      </trkpt>
      <trkpt lat="33.074877010658383" lon="-3.981447005644441">
        <ele>908.20000000000005</ele>
        <time>2003-04-13T13:08:20Z</time>
      </trkpt>
      <trkpt lat="33.073912002146244" lon="-3.982029967010021">
        <ele>913.5</ele>
        <time>2003-04-13T13:08:25Z</time>
      </trkpt>
      <trkpt lat="33.072892008349299" lon="-3.982461970299482">
        <ele>915.29999999999995</ele>
        <time>2003-04-13T13:08:29Z</time>
      </trkpt>
      <trkpt lat="33.071892969310284" lon="-3.982891961932182">
        <ele>914.79999999999995</ele>
        <time>2003-04-13T13:08:34Z</time>
      </trkpt>
      <trkpt lat="33.070912035182118" lon="-3.983311979100108">
        <ele>914.10000000000002</ele>
        <time>2003-04-13T13:08:40Z</time>
      </trkpt>
      <trkpt lat="33.069952977821231" lon="-3.98374498821795">
        <ele>913.89999999999998</ele>
        <time>2003-04-13T13:08:45Z</time>
      </trkpt>
      <trkpt lat="33.069379990920424" lon="-3.984107002615929">
        <ele>914.89999999999998</ele>
        <time>2003-04-13T13:08:48Z</time>
      </trkpt>
      <trkpt lat="33.068622015416622" lon="-3.98471200838685">
        <ele>915.39999999999998</ele>
        <time>2003-04-13T13:08:52Z</time>
      </trkpt>
      <trkpt lat="33.067848030477762" lon="-3.985330006107688">
        <ele>915.10000000000002</ele>
        <time>2003-04-13T13:08:56Z</time>
      </trkpt>
      <trkpt lat="33.067079996690154" lon="-3.985933000221849">
        <ele>914.29999999999995</ele>
        <time>2003-04-13T13:09:00Z</time>
      </trkpt>
      <trkpt lat="33.066163016483188" lon="-3.986672032624483">
        <ele>915</ele>
        <time>2003-04-13T13:09:04Z</time>
      </trkpt>
      <trkpt lat="33.065313007682562" lon="-3.987336969003081">
        <ele>916</ele>
        <time>2003-04-13T13:09:09Z</time>
      </trkpt>
      <trkpt lat="33.064446989446878" lon="-3.988025039434433">
        <ele>917.10000000000002</ele>
        <time>2003-04-13T13:09:15Z</time>
      </trkpt>
      <trkpt lat="33.063552975654602" lon="-3.988731969147921">
        <ele>917.79999999999995</ele>
        <time>2003-04-13T13:09:19Z</time>
      </trkpt>
      <trkpt lat="33.062591990455985" lon="-3.989400006830692">
        <ele>919</ele>
        <time>2003-04-13T13:09:24Z</time>
      </trkpt>
      <trkpt lat="33.062156969681382" lon="-3.989552976563573">
        <ele>919.5</ele>
        <time>2003-04-13T13:09:27Z</time>
      </trkpt>
      <trkpt lat="33.061234960332513" lon="-3.989771995693445">
        <ele>919.89999999999998</ele>
        <time>2003-04-13T13:09:31Z</time>
      </trkpt>
      <trkpt lat="33.060287972912192" lon="-3.990014987066388">
        <ele>919.70000000000005</ele>
        <time>2003-04-13T13:09:35Z</time>
      </trkpt>
      <trkpt lat="33.05935800075531" lon="-3.990259990096092">
        <ele>919.60000000000002</ele>
        <time>2003-04-13T13:09:39Z</time>
      </trkpt>
      <trkpt lat="33.058315040543675" lon="-3.990527959540486">
        <ele>919.20000000000005</ele>
        <time>2003-04-13T13:09:43Z</time>
      </trkpt>
      <trkpt lat="33.058002982288599" lon="-3.990613035857678">
        <ele>918.70000000000005</ele>
        <time>2003-04-13T13:09:46Z</time>
      </trkpt>
      <trkpt lat="33.05699204094708" lon="-3.990858038887382">
        <ele>917.79999999999995</ele>
        <time>2003-04-13T13:09:53Z</time>
      </trkpt>
      <trkpt lat="33.056706972420216" lon="-3.990842029452324">
        <ele>917.5</ele>
        <time>2003-04-13T13:09:54Z</time>
      </trkpt>
      <trkpt lat="33.056570012122393" lon="-3.99079198949039">
        <ele>917.39999999999998</ele>
        <time>2003-04-13T13:09:55Z</time>
      </trkpt>
      <trkpt lat="33.056437997147441" lon="-3.990714959800243">
        <ele>917.29999999999995</ele>
        <time>2003-04-13T13:09:57Z</time>
      </trkpt>
      <trkpt lat="33.056317968294024" lon="-3.990604989230633">
        <ele>917.10000000000002</ele>
        <time>2003-04-13T13:09:58Z</time>
      </trkpt>
      <trkpt lat="33.056216966360807" lon="-3.990462999790907">
        <ele>917.20000000000005</ele>
        <time>2003-04-13T13:09:58Z</time>
      </trkpt>
      <trkpt lat="33.056032983586192" lon="-3.990137027576566">
        <ele>917</ele>
        <time>2003-04-13T13:10:01Z</time>
      </trkpt>
      <trkpt lat="33.055454967543483" lon="-3.989127008244395">
        <ele>915.60000000000002</ele>
        <time>2003-04-13T13:10:06Z</time>
      </trkpt>
      <trkpt lat="33.055020030587912" lon="-3.988522002473474">
        <ele>914.89999999999998</ele>
        <time>2003-04-13T13:10:10Z</time>
      </trkpt>
      <trkpt lat="33.05463002063334" lon="-3.988168034702539">
        <ele>914.20000000000005</ele>
        <time>2003-04-13T13:10:13Z</time>
      </trkpt>
      <trkpt lat="33.053795015439391" lon="-3.987477030605078">
        <ele>913.10000000000002</ele>
        <time>2003-04-13T13:10:21Z</time>
      </trkpt>
      <trkpt lat="33.053272990509868" lon="-3.987036980688572">
        <ele>910.29999999999995</ele>
        <time>2003-04-13T13:10:25Z</time>
      </trkpt>
      <trkpt lat="33.052458018064499" lon="-3.986340025439858">
        <ele>902.89999999999998</ele>
        <time>2003-04-13T13:10:33Z</time>
      </trkpt>
      <trkpt lat="33.051691995933652" lon="-3.985724961385131">
        <ele>895.20000000000005</ele>
        <time>2003-04-13T13:10:40Z</time>
      </trkpt>
      <trkpt lat="33.051492003723979" lon="-3.985629994422197">
        <ele>893.29999999999995</ele>
        <time>2003-04-13T13:10:43Z</time>
      </trkpt>
      <trkpt lat="33.051374992355704" lon="-3.985612979158759">
        <ele>892.29999999999995</ele>
        <time>2003-04-13T13:10:44Z</time>
      </trkpt>
      <trkpt lat="33.051147004589438" lon="-3.985633011907339">
        <ele>890.79999999999995</ele>
        <time>2003-04-13T13:10:45Z</time>
      </trkpt>
      <trkpt lat="33.050207979977131" lon="-3.985759997740388">
        <ele>886.29999999999995</ele>
        <time>2003-04-13T13:10:55Z</time>
      </trkpt>
      <trkpt lat="33.050117958337069" lon="-3.985738037154079">
        <ele>886.5</ele>
        <time>2003-04-13T13:10:56Z</time>
      </trkpt>
      <trkpt lat="33.050031960010529" lon="-3.985701994970441">
        <ele>886.29999999999995</ele>
        <time>2003-04-13T13:10:56Z</time>
      </trkpt>
      <trkpt lat="33.049949984997511" lon="-3.985644998028874">
        <ele>886.39999999999998</ele>
        <time>2003-04-13T13:10:57Z</time>
      </trkpt>
      <trkpt lat="33.049879996106029" lon="-3.985565034672618">
        <ele>886.39999999999998</ele>
        <time>2003-04-13T13:10:59Z</time>
      </trkpt>
      <trkpt lat="33.049189997836947" lon="-3.984864978119731">
        <ele>885.5</ele>
        <time>2003-04-13T13:11:08Z</time>
      </trkpt>
      <trkpt lat="33.049080027267337" lon="-3.984800018370152">
        <ele>885.39999999999998</ele>
        <time>2003-04-13T13:11:11Z</time>
      </trkpt>
      <trkpt lat="33.048948012292385" lon="-3.984764982014895">
        <ele>885.5</ele>
        <time>2003-04-13T13:11:12Z</time>
      </trkpt>
      <trkpt lat="33.048839969560504" lon="-3.98475500755012">
        <ele>885.70000000000005</ele>
        <time>2003-04-13T13:11:18Z</time>
      </trkpt>
      <trkpt lat="33.048877017572522" lon="-3.984585022553802">
        <ele>885.79999999999995</ele>
        <time>2003-04-13T13:11:22Z</time>
      </trkpt>
      <trkpt lat="33.048941977322102" lon="-3.98443297483027">
        <ele>885.60000000000002</ele>
        <time>2003-04-13T13:11:24Z</time>
      </trkpt>
      <trkpt lat="33.048905013129115" lon="-3.984272964298725">
        <ele>885.20000000000005</ele>
        <time>2003-04-13T13:11:27Z</time>
      </trkpt>
      <trkpt lat="33.048822032287717" lon="-3.984129969030619">
        <ele>885.39999999999998</ele>
        <time>2003-04-13T13:11:30Z</time>
      </trkpt>
      <trkpt lat="33.048711977899075" lon="-3.984012035652995">
        <ele>885.20000000000005</ele>
        <time>2003-04-13T13:11:31Z</time>
      </trkpt>
      <trkpt lat="33.048503017053008" lon="-3.983859987929463">
        <ele>885.10000000000002</ele>
        <time>2003-04-13T13:11:35Z</time>
      </trkpt>
      <trkpt lat="33.048366978764534" lon="-3.983856970444322">
        <ele>885.10000000000002</ele>
        <time>2003-04-13T13:11:37Z</time>
      </trkpt>
      <trkpt lat="33.048049975186586" lon="-3.983912039548159">
        <ele>885.39999999999998</ele>
        <time>2003-04-13T13:11:42Z</time>
      </trkpt>
      <trkpt lat="33.047676980495453" lon="-3.983974987640977">
        <ele>886.10000000000002</ele>
        <time>2003-04-13T13:11:46Z</time>
      </trkpt>
      <trkpt lat="33.047525016590953" lon="-3.984037013724446">
        <ele>886.20000000000005</ele>
        <time>2003-04-13T13:11:49Z</time>
      </trkpt>
      <trkpt lat="33.047383027151227" lon="-3.984125023707748">
        <ele>886.5</ele>
        <time>2003-04-13T13:11:50Z</time>
      </trkpt>
      <trkpt lat="33.047265009954572" lon="-3.984257038682699">
        <ele>886.70000000000005</ele>
        <time>2003-04-13T13:11:53Z</time>
      </trkpt>
      <trkpt lat="33.047122014686465" lon="-3.984485026448965">
        <ele>886.70000000000005</ele>
        <time>2003-04-13T13:11:56Z</time>
      </trkpt>
      <trkpt lat="33.046971978619695" lon="-3.984830025583506">
        <ele>887</ele>
        <time>2003-04-13T13:11:58Z</time>
      </trkpt>
      <trkpt lat="33.04689796641469" lon="-3.984964974224567">
        <ele>887.20000000000005</ele>
        <time>2003-04-13T13:12:01Z</time>
      </trkpt>
      <trkpt lat="33.046797970309854" lon="-3.985160021111369">
        <ele>887.10000000000002</ele>
        <time>2003-04-13T13:12:04Z</time>
      </trkpt>
      <trkpt lat="33.046526983380318" lon="-3.985911961644888">
        <ele>887.20000000000005</ele>
        <time>2003-04-13T13:12:16Z</time>
      </trkpt>
      <trkpt lat="33.046432016417384" lon="-3.986055040732026">
        <ele>887.5</ele>
        <time>2003-04-13T13:12:36Z</time>
      </trkpt>
      <trkpt lat="33.046341994777322" lon="-3.986093010753393">
        <ele>887.89999999999998</ele>
        <time>2003-04-13T13:12:43Z</time>
      </trkpt>
      <trkpt lat="33.046430004760623" lon="-3.986063003540039">
        <ele>896.10000000000002</ele>
        <time>2003-04-13T14:47:29Z</time>
      </trkpt>
      <trkpt lat="33.046382982283831" lon="-3.986304989084601">
        <ele>895.60000000000002</ele>
        <time>2003-04-13T14:47:41Z</time>
      </trkpt>
      <trkpt lat="33.046290026977658" lon="-3.98647497408092">
        <ele>894.79999999999995</ele>
        <time>2003-04-13T14:47:47Z</time>
      </trkpt>
      <trkpt lat="33.046206962317228" lon="-3.986638002097607">
        <ele>894.29999999999995</ele>
        <time>2003-04-13T14:47:51Z</time>
      </trkpt>
      <trkpt lat="33.046203022822738" lon="-3.986785020679236">
        <ele>894.60000000000002</ele>
        <time>2003-04-13T14:47:53Z</time>
      </trkpt>
      <trkpt lat="33.046248033642769" lon="-3.987077968195081">
        <ele>894.5</ele>
        <time>2003-04-13T14:48:01Z</time>
      </trkpt>
      <trkpt lat="33.046358004212379" lon="-3.987651960924268">
        <ele>895.39999999999998</ele>
        <time>2003-04-13T14:48:14Z</time>
      </trkpt>
      <trkpt lat="33.046426987275481" lon="-3.987967958673835">
        <ele>895.10000000000002</ele>
        <time>2003-04-13T14:48:19Z</time>
      </trkpt>
      <trkpt lat="33.046503011137247" lon="-3.988071978092194">
        <ele>895.20000000000005</ele>
        <time>2003-04-13T14:48:20Z</time>
      </trkpt>
      <trkpt lat="33.04663997143507" lon="-3.988237017765641">
        <ele>898.10000000000002</ele>
        <time>2003-04-13T14:48:24Z</time>
      </trkpt>
      <trkpt lat="33.046722030267119" lon="-3.988297032192349">
        <ele>899.60000000000002</ele>
        <time>2003-04-13T14:48:27Z</time>
      </trkpt>
      <trkpt lat="33.047102987766266" lon="-3.988512028008699">
        <ele>901.60000000000002</ele>
        <time>2003-04-13T14:48:35Z</time>
      </trkpt>
      <trkpt lat="33.047367017716169" lon="-3.988606994971633">
        <ele>901.5</ele>
        <time>2003-04-13T14:48:43Z</time>
      </trkpt>
      <trkpt lat="33.047447986900806" lon="-3.988680001348257">
        <ele>901.70000000000005</ele>
        <time>2003-04-13T14:48:47Z</time>
      </trkpt>
      <trkpt lat="33.047467013821006" lon="-3.988802041858435">
        <ele>901.70000000000005</ele>
        <time>2003-04-13T14:48:50Z</time>
      </trkpt>
      <trkpt lat="33.047429965808988" lon="-3.988940007984638">
        <ele>901.60000000000002</ele>
        <time>2003-04-13T14:48:53Z</time>
      </trkpt>
      <trkpt lat="33.047356959432364" lon="-3.989106975495815">
        <ele>901.5</ele>
        <time>2003-04-13T14:48:54Z</time>
      </trkpt>
      <trkpt lat="33.047186974436045" lon="-3.989563034847379">
        <ele>901.39999999999998</ele>
        <time>2003-04-13T14:48:59Z</time>
      </trkpt>
      <trkpt lat="33.047044984996319" lon="-3.989907028153539">
        <ele>901.5</ele>
        <time>2003-04-13T14:49:02Z</time>
      </trkpt>
      <trkpt lat="33.046657992526889" lon="-3.990879999473691">
        <ele>901.29999999999995</ele>
        <time>2003-04-13T14:49:10Z</time>
      </trkpt>
      <trkpt lat="33.046487001702189" lon="-3.991333041340113">
        <ele>901.29999999999995</ele>
        <time>2003-04-13T14:49:14Z</time>
      </trkpt>
      <trkpt lat="33.046105038374662" lon="-3.992310035973787">
        <ele>902</ele>
        <time>2003-04-13T14:49:24Z</time>
      </trkpt>
      <trkpt lat="33.045927006751299" lon="-3.992774980142713">
        <ele>902.29999999999995</ele>
        <time>2003-04-13T14:49:29Z</time>
      </trkpt>
      <trkpt lat="33.045877972617745" lon="-3.992910012602806">
        <ele>902.29999999999995</ele>
        <time>2003-04-13T14:49:32Z</time>
      </trkpt>
      <trkpt lat="33.045613020658493" lon="-3.993552988395095">
        <ele>902.29999999999995</ele>
        <time>2003-04-13T14:49:44Z</time>
      </trkpt>
      <trkpt lat="33.045276990160346" lon="-3.994214991107583">
        <ele>902.10000000000002</ele>
        <time>2003-04-13T14:49:57Z</time>
      </trkpt>
      <trkpt lat="33.04502796381712" lon="-3.994720000773668">
        <ele>902.70000000000005</ele>
        <time>2003-04-13T14:50:06Z</time>
      </trkpt>
      <trkpt lat="33.044793019071221" lon="-3.995174970477819">
        <ele>903</ele>
        <time>2003-04-13T14:50:11Z</time>
      </trkpt>
      <trkpt lat="33.044681958854198" lon="-3.995397007092834">
        <ele>902.79999999999995</ele>
        <time>2003-04-13T14:50:14Z</time>
      </trkpt>
      <trkpt lat="33.044337965548038" lon="-3.996212985366583">
        <ele>901.39999999999998</ele>
        <time>2003-04-13T14:50:20Z</time>
      </trkpt>
      <trkpt lat="33.044077958911657" lon="-3.997243037447333">
        <ele>900.79999999999995</ele>
        <time>2003-04-13T14:50:29Z</time>
      </trkpt>
      <trkpt lat="33.043862963095307" lon="-3.998356992378831">
        <ele>902.29999999999995</ele>
        <time>2003-04-13T14:50:37Z</time>
      </trkpt>
      <trkpt lat="33.043677974492311" lon="-3.999458039179444">
        <ele>905.5</ele>
        <time>2003-04-13T14:50:45Z</time>
      </trkpt>
      <trkpt lat="33.043532967567444" lon="-4.000277034938335">
        <ele>907.60000000000002</ele>
        <time>2003-04-13T14:50:50Z</time>
      </trkpt>
      <trkpt lat="33.043317971751094" lon="-4.001431977376342">
        <ele>909.60000000000002</ele>
        <time>2003-04-13T14:51:00Z</time>
      </trkpt>
      <trkpt lat="33.04324496537447" lon="-4.001728026196361">
        <ele>910</ele>
        <time>2003-04-13T14:51:02Z</time>
      </trkpt>
      <trkpt lat="33.043016977608204" lon="-4.002560013905168">
        <ele>909.60000000000002</ele>
        <time>2003-04-13T14:51:10Z</time>
      </trkpt>
      <trkpt lat="33.04290197789669" lon="-4.002967961132526">
        <ele>909.20000000000005</ele>
        <time>2003-04-13T14:51:13Z</time>
      </trkpt>
      <trkpt lat="33.04259997792542" lon="-4.004136985167861">
        <ele>908</ele>
        <time>2003-04-13T14:51:21Z</time>
      </trkpt>
      <trkpt lat="33.042303007096052" lon="-4.005289999768138">
        <ele>905.60000000000002</ele>
        <time>2003-04-13T14:51:28Z</time>
      </trkpt>
      <trkpt lat="33.042067978531122" lon="-4.006376964971423">
        <ele>904.79999999999995</ele>
        <time>2003-04-13T14:51:35Z</time>
      </trkpt>
      <trkpt lat="33.042063033208251" lon="-4.007218005135655">
        <ele>904.60000000000002</ele>
        <time>2003-04-13T14:51:39Z</time>
      </trkpt>
      <trkpt lat="33.04212799295783" lon="-4.008340006694198">
        <ele>904.29999999999995</ele>
        <time>2003-04-13T14:51:44Z</time>
      </trkpt>
      <trkpt lat="33.042288003489375" lon="-4.009367963299155">
        <ele>906.39999999999998</ele>
        <time>2003-04-13T14:51:48Z</time>
      </trkpt>
      <trkpt lat="33.042507022619247" lon="-4.01055802591145">
        <ele>907.39999999999998</ele>
        <time>2003-04-13T14:51:55Z</time>
      </trkpt>
      <trkpt lat="33.042550021782517" lon="-4.011097988113761">
        <ele>908</ele>
        <time>2003-04-13T14:51:58Z</time>
      </trkpt>
      <trkpt lat="33.042510040104389" lon="-4.011865016072989">
        <ele>908.79999999999995</ele>
        <time>2003-04-13T14:52:02Z</time>
      </trkpt>
      <trkpt lat="33.042357992380857" lon="-4.013043008744717">
        <ele>910.20000000000005</ele>
        <time>2003-04-13T14:52:07Z</time>
      </trkpt>
      <trkpt lat="33.042372995987535" lon="-4.013236965984106">
        <ele>910.39999999999998</ele>
        <time>2003-04-13T14:52:08Z</time>
      </trkpt>
      <trkpt lat="33.04249201901257" lon="-4.014442032203078">
        <ele>911.70000000000005</ele>
        <time>2003-04-13T14:52:15Z</time>
      </trkpt>
      <trkpt lat="33.04255798459053" lon="-4.015705017372966">
        <ele>912.60000000000002</ele>
        <time>2003-04-13T14:52:21Z</time>
      </trkpt>
      <trkpt lat="33.042478021234274" lon="-4.016362996771932">
        <ele>912.20000000000005</ele>
        <time>2003-04-13T14:52:23Z</time>
      </trkpt>
      <trkpt lat="33.042248021811247" lon="-4.017472006380558">
        <ele>912.70000000000005</ele>
        <time>2003-04-13T14:52:29Z</time>
      </trkpt>
      <trkpt lat="33.042035037651658" lon="-4.018522007390857">
        <ele>911.5</ele>
        <time>2003-04-13T14:52:34Z</time>
      </trkpt>
      <trkpt lat="33.041818030178547" lon="-4.01958298869431">
        <ele>911</ele>
        <time>2003-04-13T14:52:38Z</time>
      </trkpt>
      <trkpt lat="33.041702024638653" lon="-4.020456969738007">
        <ele>912.70000000000005</ele>
        <time>2003-04-13T14:52:42Z</time>
      </trkpt>
      <trkpt lat="33.041703030467033" lon="-4.02091202326119">
        <ele>913.89999999999998</ele>
        <time>2003-04-13T14:52:46Z</time>
      </trkpt>
      <trkpt lat="33.041834961622953" lon="-4.022073000669479">
        <ele>914.79999999999995</ele>
        <time>2003-04-13T14:52:49Z</time>
      </trkpt>
      <trkpt lat="33.041988015174866" lon="-4.023288041353226">
        <ele>917</ele>
        <time>2003-04-13T14:52:54Z</time>
      </trkpt>
      <trkpt lat="33.042132016271353" lon="-4.024493023753166">
        <ele>919.60000000000002</ele>
        <time>2003-04-13T14:53:00Z</time>
      </trkpt>
      <trkpt lat="33.042278029024601" lon="-4.025681996718049">
        <ele>920</ele>
        <time>2003-04-13T14:53:05Z</time>
      </trkpt>
      <trkpt lat="33.042290015146136" lon="-4.026407031342387">
        <ele>919</ele>
        <time>2003-04-13T14:53:08Z</time>
      </trkpt>
      <trkpt lat="33.042224971577525" lon="-4.02688697911799">
        <ele>919.60000000000002</ele>
        <time>2003-04-13T14:53:09Z</time>
      </trkpt>
      <trkpt lat="33.042026991024613" lon="-4.028090033680201">
        <ele>920.60000000000002</ele>
        <time>2003-04-13T14:53:15Z</time>
      </trkpt>
      <trkpt lat="33.04184996522963" lon="-4.029287975281477">
        <ele>921.60000000000002</ele>
        <time>2003-04-13T14:53:20Z</time>
      </trkpt>
      <trkpt lat="33.041673023253679" lon="-4.030505027621985">
        <ele>923</ele>
        <time>2003-04-13T14:53:24Z</time>
      </trkpt>
      <trkpt lat="33.041494991630316" lon="-4.031725013628602">
        <ele>924.5</ele>
        <time>2003-04-13T14:53:29Z</time>
      </trkpt>
      <trkpt lat="33.041388038545847" lon="-4.032962014898658">
        <ele>925.29999999999995</ele>
        <time>2003-04-13T14:53:35Z</time>
      </trkpt>
      <trkpt lat="33.041432965546846" lon="-4.033712027594447">
        <ele>925.5</ele>
        <time>2003-04-13T14:53:38Z</time>
      </trkpt>
      <trkpt lat="33.041562968865037" lon="-4.034454999491572">
        <ele>926.39999999999998</ele>
        <time>2003-04-13T14:53:40Z</time>
      </trkpt>
      <trkpt lat="33.041791962459683" lon="-4.03569501824677">
        <ele>927.79999999999995</ele>
        <time>2003-04-13T14:53:46Z</time>
      </trkpt>
      <trkpt lat="33.042009975761175" lon="-4.036909975111485">
        <ele>929.29999999999995</ele>
        <time>2003-04-13T14:53:51Z</time>
      </trkpt>
      <trkpt lat="33.042137967422605" lon="-4.037859980016947">
        <ele>929.79999999999995</ele>
        <time>2003-04-13T14:53:55Z</time>
      </trkpt>
      <trkpt lat="33.042122963815928" lon="-4.038104983046651">
        <ele>930.10000000000002</ele>
        <time>2003-04-13T14:53:55Z</time>
      </trkpt>
      <trkpt lat="33.041996983811259" lon="-4.039337961003184">
        <ele>930.60000000000002</ele>
        <time>2003-04-13T14:54:00Z</time>
      </trkpt>
      <trkpt lat="33.041854994371533" lon="-4.040598012506962">
        <ele>927.79999999999995</ele>
        <time>2003-04-13T14:54:06Z</time>
      </trkpt>
      <trkpt lat="33.041606973856688" lon="-4.041839959099889">
        <ele>926.89999999999998</ele>
        <time>2003-04-13T14:54:11Z</time>
      </trkpt>
      <trkpt lat="33.041257029399276" lon="-4.043064974248409">
        <ele>929.5</ele>
        <time>2003-04-13T14:54:17Z</time>
      </trkpt>
      <trkpt lat="33.040913036093116" lon="-4.044313039630652">
        <ele>931.39999999999998</ele>
        <time>2003-04-13T14:54:22Z</time>
      </trkpt>
      <trkpt lat="33.040638025850058" lon="-4.045339990407229">
        <ele>933.29999999999995</ele>
        <time>2003-04-13T14:54:26Z</time>
      </trkpt>
      <trkpt lat="33.040492013096809" lon="-4.046353027224541">
        <ele>933.89999999999998</ele>
        <time>2003-04-13T14:54:30Z</time>
      </trkpt>
      <trkpt lat="33.040548004209995" lon="-4.04686700552702">
        <ele>934.20000000000005</ele>
        <time>2003-04-13T14:54:32Z</time>
      </trkpt>
      <trkpt lat="33.040661998093128" lon="-4.047370003536344">
        <ele>935.79999999999995</ele>
        <time>2003-04-13T14:54:34Z</time>
      </trkpt>
      <trkpt lat="33.040907001122832" lon="-4.048520000651479">
        <ele>939.5</ele>
        <time>2003-04-13T14:54:38Z</time>
      </trkpt>
      <trkpt lat="33.041149992495775" lon="-4.049647031351924">
        <ele>939.60000000000002</ele>
        <time>2003-04-13T14:54:44Z</time>
      </trkpt>
      <trkpt lat="33.041379991918802" lon="-4.050759980455041">
        <ele>940.70000000000005</ele>
        <time>2003-04-13T14:54:49Z</time>
      </trkpt>
      <trkpt lat="33.041432965546846" lon="-4.051183015108109">
        <ele>941.5</ele>
        <time>2003-04-13T14:54:50Z</time>
      </trkpt>
      <trkpt lat="33.041406981647015" lon="-4.051591968163848">
        <ele>942</ele>
        <time>2003-04-13T14:54:53Z</time>
      </trkpt>
      <trkpt lat="33.041319977492094" lon="-4.051949959248304">
        <ele>941.89999999999998</ele>
        <time>2003-04-13T14:54:54Z</time>
      </trkpt>
      <trkpt lat="33.041170025244355" lon="-4.052293030545116">
        <ele>940.89999999999998</ele>
        <time>2003-04-13T14:54:57Z</time>
      </trkpt>
      <trkpt lat="33.040953017771244" lon="-4.05260500498116">
        <ele>939.70000000000005</ele>
        <time>2003-04-13T14:54:59Z</time>
      </trkpt>
      <trkpt lat="33.040693011134863" lon="-4.052871968597174">
        <ele>938.5</ele>
        <time>2003-04-13T14:55:01Z</time>
      </trkpt>
      <trkpt lat="33.040390005335212" lon="-4.053062992170453">
        <ele>938.39999999999998</ele>
        <time>2003-04-13T14:55:03Z</time>
      </trkpt>
      <trkpt lat="33.040066966786981" lon="-4.053170029073954">
        <ele>938.29999999999995</ele>
        <time>2003-04-13T14:55:04Z</time>
      </trkpt>
      <trkpt lat="33.039720039814711" lon="-4.053201964125037">
        <ele>938.5</ele>
        <time>2003-04-13T14:55:07Z</time>
      </trkpt>
      <trkpt lat="33.038816973567009" lon="-4.053274970501661">
        <ele>938.70000000000005</ele>
        <time>2003-04-13T14:55:12Z</time>
      </trkpt>
      <trkpt lat="33.037890018895268" lon="-4.053391981869936">
        <ele>939.5</ele>
        <time>2003-04-13T14:55:16Z</time>
      </trkpt>
      <trkpt lat="33.037252994254231" lon="-4.053615024313331">
        <ele>940.89999999999998</ele>
        <time>2003-04-13T14:55:20Z</time>
      </trkpt>
      <trkpt lat="33.036876982077956" lon="-4.053827002644539">
        <ele>941.79999999999995</ele>
        <time>2003-04-13T14:55:24Z</time>
      </trkpt>
      <trkpt lat="33.036644970998168" lon="-4.054033029824495">
        <ele>943.10000000000002</ele>
        <time>2003-04-13T14:55:26Z</time>
      </trkpt>
      <trkpt lat="33.036446990445256" lon="-4.054277027025819">
        <ele>943.60000000000002</ele>
        <time>2003-04-13T14:55:28Z</time>
      </trkpt>
      <trkpt lat="33.036292009055614" lon="-4.054562011733651">
        <ele>944.10000000000002</ele>
        <time>2003-04-13T14:55:30Z</time>
      </trkpt>
      <trkpt lat="33.036168040707707" lon="-4.054872980341315">
        <ele>944.29999999999995</ele>
        <time>2003-04-13T14:55:31Z</time>
      </trkpt>
      <trkpt lat="33.036054968833923" lon="-4.055389976128936">
        <ele>943.79999999999995</ele>
        <time>2003-04-13T14:55:35Z</time>
      </trkpt>
      <trkpt lat="33.036053040996194" lon="-4.055709997192025">
        <ele>943.5</ele>
        <time>2003-04-13T14:55:36Z</time>
      </trkpt>
      <trkpt lat="33.036105008795857" lon="-4.056045021861792">
        <ele>942.89999999999998</ele>
        <time>2003-04-13T14:55:39Z</time>
      </trkpt>
      <trkpt lat="33.036222020164132" lon="-4.056811966001988">
        <ele>942.10000000000002</ele>
        <time>2003-04-13T14:55:43Z</time>
      </trkpt>
      <trkpt lat="33.036395022645593" lon="-4.057889962568879">
        <ele>942.79999999999995</ele>
        <time>2003-04-13T14:55:47Z</time>
      </trkpt>
      <trkpt lat="33.036574982106686" lon="-4.059033002704382">
        <ele>944.70000000000005</ele>
        <time>2003-04-13T14:55:53Z</time>
      </trkpt>
      <trkpt lat="33.036772962659597" lon="-4.060203032568097">
        <ele>946.29999999999995</ele>
        <time>2003-04-13T14:55:58Z</time>
      </trkpt>
      <trkpt lat="33.036879999563098" lon="-4.061069972813129">
        <ele>948.29999999999995</ele>
        <time>2003-04-13T14:56:02Z</time>
      </trkpt>
      <trkpt lat="33.036853009834886" lon="-4.061497030779719">
        <ele>947.89999999999998</ele>
        <time>2003-04-13T14:56:03Z</time>
      </trkpt>
      <trkpt lat="33.036685036495328" lon="-4.062615009024739">
        <ele>948.10000000000002</ele>
        <time>2003-04-13T14:56:09Z</time>
      </trkpt>
      <trkpt lat="33.036513039842248" lon="-4.063931973651052">
        <ele>946.89999999999998</ele>
        <time>2003-04-13T14:56:14Z</time>
      </trkpt>
      <trkpt lat="33.036383036524057" lon="-4.065060010179877">
        <ele>946.89999999999998</ele>
        <time>2003-04-13T14:56:18Z</time>
      </trkpt>
      <trkpt lat="33.036227971315384" lon="-4.06614001840353">
        <ele>951.60000000000002</ele>
        <time>2003-04-13T14:56:22Z</time>
      </trkpt>
      <trkpt lat="33.036010041832924" lon="-4.067202005535364">
        <ele>952.70000000000005</ele>
        <time>2003-04-13T14:56:25Z</time>
      </trkpt>
      <trkpt lat="33.035778030753136" lon="-4.068268015980721">
        <ele>953.10000000000002</ele>
        <time>2003-04-13T14:56:29Z</time>
      </trkpt>
      <trkpt lat="33.03555297665298" lon="-4.069333020597696">
        <ele>953.29999999999995</ele>
        <time>2003-04-13T14:56:33Z</time>
      </trkpt>
      <trkpt lat="33.035318031907082" lon="-4.070397019386292">
        <ele>954.5</ele>
        <time>2003-04-13T14:56:37Z</time>
      </trkpt>
      <trkpt lat="33.035091971978545" lon="-4.071454983204603">
        <ele>956.29999999999995</ele>
        <time>2003-04-13T14:56:41Z</time>
      </trkpt>
      <trkpt lat="33.034874964505434" lon="-4.072506995871663">
        <ele>958.39999999999998</ele>
        <time>2003-04-13T14:56:45Z</time>
      </trkpt>
      <trkpt lat="33.034623004496098" lon="-4.073690017685294">
        <ele>960.70000000000005</ele>
        <time>2003-04-13T14:56:51Z</time>
      </trkpt>
      <trkpt lat="33.034493001177907" lon="-4.074295023456216">
        <ele>961.70000000000005</ele>
        <time>2003-04-13T14:56:53Z</time>
      </trkpt>
      <trkpt lat="33.034423012286425" lon="-4.074612027034164">
        <ele>962.29999999999995</ele>
        <time>2003-04-13T14:56:56Z</time>
      </trkpt>
      <trkpt lat="33.034341959282756" lon="-4.075021985918284">
        <ele>963.29999999999995</ele>
        <time>2003-04-13T14:56:59Z</time>
      </trkpt>
      <trkpt lat="33.034308012574911" lon="-4.075206974521279">
        <ele>963.5</ele>
        <time>2003-04-13T14:57:00Z</time>
      </trkpt>
      <trkpt lat="33.034292003139853" lon="-4.075313005596399">
        <ele>963.79999999999995</ele>
        <time>2003-04-13T14:57:03Z</time>
      </trkpt>
      <trkpt lat="33.034253027290106" lon="-4.075502017512918">
        <ele>963.70000000000005</ele>
        <time>2003-04-13T14:57:22Z</time>
      </trkpt>
      <trkpt lat="33.034216985106468" lon="-4.07563503831625">
        <ele>964</ele>
        <time>2003-04-13T14:57:23Z</time>
      </trkpt>
      <trkpt lat="33.034150013700128" lon="-4.075880041345954">
        <ele>965</ele>
        <time>2003-04-13T14:57:27Z</time>
      </trkpt>
      <trkpt lat="33.034097040072083" lon="-4.076102999970317">
        <ele>965.39999999999998</ele>
        <time>2003-04-13T14:57:28Z</time>
      </trkpt>
      <trkpt lat="33.034002995118499" lon="-4.076414974406362">
        <ele>966.39999999999998</ele>
        <time>2003-04-13T14:57:31Z</time>
      </trkpt>
      <trkpt lat="33.033681968227029" lon="-4.07707697711885">
        <ele>966.89999999999998</ele>
        <time>2003-04-13T14:57:38Z</time>
      </trkpt>
      <trkpt lat="33.033415004611015" lon="-4.07744200900197">
        <ele>966.5</ele>
        <time>2003-04-13T14:57:41Z</time>
      </trkpt>
      <trkpt lat="33.033047961071134" lon="-4.077782984822989">
        <ele>965.39999999999998</ele>
        <time>2003-04-13T14:57:43Z</time>
      </trkpt>
      <trkpt lat="33.032389981672168" lon="-4.07838799059391">
        <ele>961.70000000000005</ele>
        <time>2003-04-13T14:57:50Z</time>
      </trkpt>
      <trkpt lat="33.031635023653507" lon="-4.079076983034611">
        <ele>958.5</ele>
        <time>2003-04-13T14:57:57Z</time>
      </trkpt>
      <trkpt lat="33.030855003744364" lon="-4.079779973253608">
        <ele>955.5</ele>
        <time>2003-04-13T14:58:02Z</time>
      </trkpt>
      <trkpt lat="33.030131980776787" lon="-4.080439964309335">
        <ele>953</ele>
        <time>2003-04-13T14:58:08Z</time>
      </trkpt>
      <trkpt lat="33.029347015544772" lon="-4.081155024468899">
        <ele>950.79999999999995</ele>
        <time>2003-04-13T14:58:13Z</time>
      </trkpt>
      <trkpt lat="33.028513016179204" lon="-4.081907970830798">
        <ele>949.89999999999998</ele>
        <time>2003-04-13T14:58:17Z</time>
      </trkpt>
      <trkpt lat="33.027657978236675" lon="-4.082687990739942">
        <ele>949.5</ele>
        <time>2003-04-13T14:58:22Z</time>
      </trkpt>
      <trkpt lat="33.026805035769939" lon="-4.083472033962607">
        <ele>949</ele>
        <time>2003-04-13T14:58:28Z</time>
      </trkpt>
      <trkpt lat="33.025967013090849" lon="-4.084239983931184">
        <ele>950</ele>
        <time>2003-04-13T14:58:33Z</time>
      </trkpt>
      <trkpt lat="33.025565017014742" lon="-4.084739964455366">
        <ele>951.70000000000005</ele>
        <time>2003-04-13T14:58:36Z</time>
      </trkpt>
      <trkpt lat="33.024922963231802" lon="-4.085702961310744">
        <ele>952.5</ele>
        <time>2003-04-13T14:58:40Z</time>
      </trkpt>
      <trkpt lat="33.024237994104624" lon="-4.086727984249592">
        <ele>953.5</ele>
        <time>2003-04-13T14:58:45Z</time>
      </trkpt>
      <trkpt lat="33.023662995547056" lon="-4.087583022192121">
        <ele>954.60000000000002</ele>
        <time>2003-04-13T14:58:49Z</time>
      </trkpt>
      <trkpt lat="33.023086991161108" lon="-4.088426996022463">
        <ele>957</ele>
        <time>2003-04-13T14:58:53Z</time>
      </trkpt>
      <trkpt lat="33.02240202203393" lon="-4.089441960677505">
        <ele>960.70000000000005</ele>
        <time>2003-04-13T14:58:59Z</time>
      </trkpt>
      <trkpt lat="33.021721998229623" lon="-4.090458014979959">
        <ele>964.89999999999998</ele>
        <time>2003-04-13T14:59:04Z</time>
      </trkpt>
      <trkpt lat="33.021007021889091" lon="-4.09149301238358">
        <ele>968</ele>
        <time>2003-04-13T14:59:08Z</time>
      </trkpt>
      <trkpt lat="33.020412996411324" lon="-4.09235299564898">
        <ele>968</ele>
        <time>2003-04-13T14:59:12Z</time>
      </trkpt>
      <trkpt lat="33.019819976761937" lon="-4.093220019713044">
        <ele>969.70000000000005</ele>
        <time>2003-04-13T14:59:16Z</time>
      </trkpt>
      <trkpt lat="33.019246989861131" lon="-4.094047984108329">
        <ele>971</ele>
        <time>2003-04-13T14:59:20Z</time>
      </trkpt>
      <trkpt lat="33.018548022955656" lon="-4.095060015097261">
        <ele>972.20000000000005</ele>
        <time>2003-04-13T14:59:26Z</time>
      </trkpt>
      <trkpt lat="33.017860036343336" lon="-4.096050001680851">
        <ele>973.29999999999995</ele>
        <time>2003-04-13T14:59:31Z</time>
      </trkpt>
      <trkpt lat="33.017180012539029" lon="-4.097033031284809">
        <ele>974.89999999999998</ele>
        <time>2003-04-13T14:59:35Z</time>
      </trkpt>
      <trkpt lat="33.016494959592819" lon="-4.098025029525161">
        <ele>976</ele>
        <time>2003-04-13T14:59:41Z</time>
      </trkpt>
      <trkpt lat="33.015919961035252" lon="-4.09886296838522">
        <ele>976.39999999999998</ele>
        <time>2003-04-13T14:59:45Z</time>
      </trkpt>
      <trkpt lat="33.015336999669671" lon="-4.099711971357465">
        <ele>976.79999999999995</ele>
        <time>2003-04-13T14:59:49Z</time>
      </trkpt>
      <trkpt lat="33.014641972258687" lon="-4.100717967376113">
        <ele>976.60000000000002</ele>
        <time>2003-04-13T14:59:54Z</time>
      </trkpt>
      <trkpt lat="33.013936970382929" lon="-4.101739972829819">
        <ele>976.39999999999998</ele>
        <time>2003-04-13T14:59:58Z</time>
      </trkpt>
      <trkpt lat="33.013243032619357" lon="-4.102738006040454">
        <ele>976.10000000000002</ele>
        <time>2003-04-13T15:00:04Z</time>
      </trkpt>
      <trkpt lat="33.012807006016374" lon="-4.103270005434752">
        <ele>976.39999999999998</ele>
        <time>2003-04-13T15:00:06Z</time>
      </trkpt>
      <trkpt lat="33.011988010257483" lon="-4.104008032009006">
        <ele>975.79999999999995</ele>
        <time>2003-04-13T15:00:12Z</time>
      </trkpt>
      <trkpt lat="33.011172031983733" lon="-4.104757038876414">
        <ele>974.60000000000002</ele>
        <time>2003-04-13T15:00:17Z</time>
      </trkpt>
      <trkpt lat="33.010353036224842" lon="-4.105527000501752">
        <ele>979.79999999999995</ele>
        <time>2003-04-13T15:00:21Z</time>
      </trkpt>
      <trkpt lat="33.009505039080977" lon="-4.106301991268992">
        <ele>981.29999999999995</ele>
        <time>2003-04-13T15:00:27Z</time>
      </trkpt>
      <trkpt lat="33.008685037493706" lon="-4.107127021998167">
        <ele>983</ele>
        <time>2003-04-13T15:00:32Z</time>
      </trkpt>
      <trkpt lat="33.008422013372183" lon="-4.107532035559416">
        <ele>983.60000000000002</ele>
        <time>2003-04-13T15:00:33Z</time>
      </trkpt>
      <trkpt lat="33.007809966802597" lon="-4.108623024076223">
        <ele>985.20000000000005</ele>
        <time>2003-04-13T15:00:39Z</time>
      </trkpt>
      <trkpt lat="33.007196998223662" lon="-4.109703032299876">
        <ele>987.10000000000002</ele>
        <time>2003-04-13T15:00:44Z</time>
      </trkpt>
      <trkpt lat="33.006592998281121" lon="-4.110767031088471">
        <ele>987.89999999999998</ele>
        <time>2003-04-13T15:00:48Z</time>
      </trkpt>
      <trkpt lat="33.005982963368297" lon="-4.11183999851346">
        <ele>989.70000000000005</ele>
        <time>2003-04-13T15:00:54Z</time>
      </trkpt>
      <trkpt lat="33.005360020324588" lon="-4.112922018393874">
        <ele>991.29999999999995</ele>
        <time>2003-04-13T15:00:59Z</time>
      </trkpt>
      <trkpt lat="33.004855010658503" lon="-4.11381796002388">
        <ele>992</ele>
        <time>2003-04-13T15:01:03Z</time>
      </trkpt>
      <trkpt lat="33.004344971850514" lon="-4.114744998514652">
        <ele>992.39999999999998</ele>
        <time>2003-04-13T15:01:07Z</time>
      </trkpt>
      <trkpt lat="33.003868041560054" lon="-4.115657033398747">
        <ele>992.89999999999998</ele>
        <time>2003-04-13T15:01:11Z</time>
      </trkpt>
      <trkpt lat="33.003407036885619" lon="-4.116618018597364">
        <ele>992.39999999999998</ele>
        <time>2003-04-13T15:01:15Z</time>
      </trkpt>
      <trkpt lat="33.002942008897662" lon="-4.117608005180955">
        <ele>992.20000000000005</ele>
        <time>2003-04-13T15:01:19Z</time>
      </trkpt>
      <trkpt lat="33.002474969252944" lon="-4.118620036169887">
        <ele>992.20000000000005</ele>
        <time>2003-04-13T15:01:22Z</time>
      </trkpt>
      <trkpt lat="33.001998038962483" lon="-4.119644975289702">
        <ele>992.39999999999998</ele>
        <time>2003-04-13T15:01:26Z</time>
      </trkpt>
      <trkpt lat="33.001517001539469" lon="-4.120673015713692">
        <ele>993.60000000000002</ele>
        <time>2003-04-13T15:01:30Z</time>
      </trkpt>
      <trkpt lat="33.001034958288074" lon="-4.121702983975411">
        <ele>996.39999999999998</ele>
        <time>2003-04-13T15:01:34Z</time>
      </trkpt>
      <trkpt lat="33.000555010512471" lon="-4.122727001085877">
        <ele>999.79999999999995</ele>
        <time>2003-04-13T15:01:38Z</time>
      </trkpt>
      <trkpt lat="33.000086965039372" lon="-4.123735008761287">
        <ele>1004.7</ele>
        <time>2003-04-13T15:01:42Z</time>
      </trkpt>
      <trkpt lat="32.999627972021699" lon="-4.124728012830019">
        <ele>1009.1</ele>
        <time>2003-04-13T15:01:46Z</time>
      </trkpt>
      <trkpt lat="32.99917995929718" lon="-4.12569503299892">
        <ele>1013.1</ele>
        <time>2003-04-13T15:01:50Z</time>
      </trkpt>
      <trkpt lat="32.998633040115237" lon="-4.126842012628913">
        <ele>1014</ele>
        <time>2003-04-13T15:01:56Z</time>
      </trkpt>
      <trkpt lat="32.99836297519505" lon="-4.127257000654936">
        <ele>1013.6</ele>
        <time>2003-04-13T15:01:57Z</time>
      </trkpt>
      <trkpt lat="32.997708013281226" lon="-4.128031991422176">
        <ele>1011.3</ele>
        <time>2003-04-13T15:02:01Z</time>
      </trkpt>
      <trkpt lat="32.997039975598454" lon="-4.128840006887913">
        <ele>1011.2</ele>
        <time>2003-04-13T15:02:05Z</time>
      </trkpt>
      <trkpt lat="32.996357018128037" lon="-4.129667971283197">
        <ele>1011.3</ele>
        <time>2003-04-13T15:02:09Z</time>
      </trkpt>
      <trkpt lat="32.995665008202195" lon="-4.13051001727581">
        <ele>1011.5</ele>
        <time>2003-04-13T15:02:13Z</time>
      </trkpt>
      <trkpt lat="32.994957994669676" lon="-4.131360026076436">
        <ele>1011.9</ele>
        <time>2003-04-13T15:02:17Z</time>
      </trkpt>
      <trkpt lat="32.994243018329144" lon="-4.132217997685075">
        <ele>1012.6</ele>
        <time>2003-04-13T15:02:21Z</time>
      </trkpt>
      <trkpt lat="32.993552014231682" lon="-4.133077980950475">
        <ele>1016.1</ele>
        <time>2003-04-13T15:02:25Z</time>
      </trkpt>
      <trkpt lat="32.992867967113853" lon="-4.133951961994171">
        <ele>1017.6</ele>
        <time>2003-04-13T15:02:29Z</time>
      </trkpt>
      <trkpt lat="32.992204958572984" lon="-4.13482703268528">
        <ele>1019.3</ele>
        <time>2003-04-13T15:02:33Z</time>
      </trkpt>
      <trkpt lat="32.991553014144301" lon="-4.135700007900596">
        <ele>1020.8</ele>
        <time>2003-04-13T15:02:38Z</time>
      </trkpt>
      <trkpt lat="32.99090500921011" lon="-4.136578012257814">
        <ele>1022.8</ele>
        <time>2003-04-13T15:02:42Z</time>
      </trkpt>
      <trkpt lat="32.990505024790764" lon="-4.137302963063121">
        <ele>1024.5999999999999</ele>
        <time>2003-04-13T15:02:44Z</time>
      </trkpt>
      <trkpt lat="32.990092970430851" lon="-4.138327986001968">
        <ele>1025.9000000000001</ele>
        <time>2003-04-13T15:02:48Z</time>
      </trkpt>
      <trkpt lat="32.989689968526363" lon="-4.139331970363855">
        <ele>1027.8</ele>
        <time>2003-04-13T15:02:52Z</time>
      </trkpt>
      <trkpt lat="32.989259976893663" lon="-4.140277029946446">
        <ele>1029.4000000000001</ele>
        <time>2003-04-13T15:02:56Z</time>
      </trkpt>
      <trkpt lat="32.98869302496314" lon="-4.141131984069943">
        <ele>1031</ele>
        <time>2003-04-13T15:03:00Z</time>
      </trkpt>
      <trkpt lat="32.988005038350821" lon="-4.142121970653534">
        <ele>1033</ele>
        <time>2003-04-13T15:03:06Z</time>
      </trkpt>
      <trkpt lat="32.98768300563097" lon="-4.14243302308023">
        <ele>1033.3</ele>
        <time>2003-04-13T15:03:07Z</time>
      </trkpt>
      <trkpt lat="32.987306993454695" lon="-4.142686994746327">
        <ele>1033.2</ele>
        <time>2003-04-13T15:03:10Z</time>
      </trkpt>
      <trkpt lat="32.986923018470407" lon="-4.142872989177704">
        <ele>1032.5999999999999</ele>
        <time>2003-04-13T15:03:11Z</time>
      </trkpt>
      <trkpt lat="32.986507024616003" lon="-4.142968039959669">
        <ele>1031.4000000000001</ele>
        <time>2003-04-13T15:03:14Z</time>
      </trkpt>
      <trkpt lat="32.985612004995346" lon="-4.14301497861743">
        <ele>1027.5999999999999</ele>
        <time>2003-04-13T15:03:18Z</time>
      </trkpt>
      <trkpt lat="32.984646996483207" lon="-4.143062001094222">
        <ele>1021.5</ele>
        <time>2003-04-13T15:03:22Z</time>
      </trkpt>
      <trkpt lat="32.984169982373714" lon="-4.143150011077523">
        <ele>1019.2</ele>
        <time>2003-04-13T15:03:23Z</time>
      </trkpt>
      <trkpt lat="32.983191981911659" lon="-4.143523005768657">
        <ele>1015.6</ele>
        <time>2003-04-13T15:03:27Z</time>
      </trkpt>
      <trkpt lat="32.982184980064631" lon="-4.143887031823397">
        <ele>1015.2</ele>
        <time>2003-04-13T15:03:32Z</time>
      </trkpt>
      <trkpt lat="32.981532029807568" lon="-4.144222978502512">
        <ele>1015.8</ele>
        <time>2003-04-13T15:03:34Z</time>
      </trkpt>
      <trkpt lat="32.981342012062669" lon="-4.144381983205676">
        <ele>1016.4</ele>
        <time>2003-04-13T15:03:36Z</time>
      </trkpt>
      <trkpt lat="32.980995001271367" lon="-4.144765036180615">
        <ele>1017.9</ele>
        <time>2003-04-13T15:03:37Z</time>
      </trkpt>
      <trkpt lat="32.980344984680414" lon="-4.145617978647351">
        <ele>1018.3</ele>
        <time>2003-04-13T15:03:41Z</time>
      </trkpt>
      <trkpt lat="32.979643000289798" lon="-4.146512998268008">
        <ele>1014.7</ele>
        <time>2003-04-13T15:03:45Z</time>
      </trkpt>
      <trkpt lat="32.97891796566546" lon="-4.147450011223555">
        <ele>1012.7</ele>
        <time>2003-04-13T15:03:49Z</time>
      </trkpt>
      <trkpt lat="32.978189997375011" lon="-4.148383000865579">
        <ele>1012.8</ele>
        <time>2003-04-13T15:03:53Z</time>
      </trkpt>
      <trkpt lat="32.97747703269124" lon="-4.149284977465868">
        <ele>1014.9</ele>
        <time>2003-04-13T15:03:57Z</time>
      </trkpt>
      <trkpt lat="32.976787034422159" lon="-4.150179997086525">
        <ele>1017.7</ele>
        <time>2003-04-13T15:04:01Z</time>
      </trkpt>
      <trkpt lat="32.9761269595474" lon="-4.150978038087487">
        <ele>1020.4</ele>
        <time>2003-04-13T15:04:05Z</time>
      </trkpt>
      <trkpt lat="32.9753930401057" lon="-4.15175998583436">
        <ele>1019.9</ele>
        <time>2003-04-13T15:04:09Z</time>
      </trkpt>
      <trkpt lat="32.974642021581531" lon="-4.152570012956858">
        <ele>1018.6</ele>
        <time>2003-04-13T15:04:13Z</time>
      </trkpt>
      <trkpt lat="32.973874993622303" lon="-4.153394959867001">
        <ele>1018.1</ele>
        <time>2003-04-13T15:04:17Z</time>
      </trkpt>
      <trkpt lat="32.973175020888448" lon="-4.154171962291002">
        <ele>1018.3</ele>
        <time>2003-04-13T15:04:21Z</time>
      </trkpt>
      <trkpt lat="32.972903028130531" lon="-4.154576975852251">
        <ele>1019</ele>
        <time>2003-04-13T15:04:24Z</time>
      </trkpt>
      <trkpt lat="32.9725799895823" lon="-4.155290024355054">
        <ele>1020.2</ele>
        <time>2003-04-13T15:04:27Z</time>
      </trkpt>
      <trkpt lat="32.972147986292839" lon="-4.1562719643116">
        <ele>1020.8</ele>
        <time>2003-04-13T15:04:31Z</time>
      </trkpt>
      <trkpt lat="32.971687987446785" lon="-4.157269997522235">
        <ele>1021.4</ele>
        <time>2003-04-13T15:04:35Z</time>
      </trkpt>
      <trkpt lat="32.971242992207408" lon="-4.158286973834038">
        <ele>1024.4000000000001</ele>
        <time>2003-04-13T15:04:39Z</time>
      </trkpt>
      <trkpt lat="32.97077301889658" lon="-4.159292969852686">
        <ele>1026.5</ele>
        <time>2003-04-13T15:04:43Z</time>
      </trkpt>
      <trkpt lat="32.970321988686919" lon="-4.160297038033605">
        <ele>1027.8</ele>
        <time>2003-04-13T15:04:47Z</time>
      </trkpt>
      <trkpt lat="32.969844974577427" lon="-4.161217035725713">
        <ele>1026.5</ele>
        <time>2003-04-13T15:04:51Z</time>
      </trkpt>
      <trkpt lat="32.969538029283285" lon="-4.161581983789802">
        <ele>1025.3</ele>
        <time>2003-04-13T15:04:53Z</time>
      </trkpt>
      <trkpt lat="32.968769995495677" lon="-4.162250021472573">
        <ele>1022</ele>
        <time>2003-04-13T15:04:57Z</time>
      </trkpt>
      <trkpt lat="32.967992993071675" lon="-4.16297497227788">
        <ele>1018.7</ele>
        <time>2003-04-13T15:05:01Z</time>
      </trkpt>
      <trkpt lat="32.96722998842597" lon="-4.163764966651797">
        <ele>1018.4</ele>
        <time>2003-04-13T15:05:05Z</time>
      </trkpt>
      <trkpt lat="32.966505037620664" lon="-4.164616987109184">
        <ele>1018.2</ele>
        <time>2003-04-13T15:05:09Z</time>
      </trkpt>
      <trkpt lat="32.965883016586304" lon="-4.165415028110147">
        <ele>1020.2</ele>
        <time>2003-04-13T15:05:13Z</time>
      </trkpt>
      <trkpt lat="32.965665003284812" lon="-4.165867986157537">
        <ele>1021.6</ele>
        <time>2003-04-13T15:05:14Z</time>
      </trkpt>
      <trkpt lat="32.965512033551931" lon="-4.166352963075042">
        <ele>1023.7</ele>
        <time>2003-04-13T15:05:17Z</time>
      </trkpt>
      <trkpt lat="32.965220008045435" lon="-4.167545037344098">
        <ele>1029.0999999999999</ele>
        <time>2003-04-13T15:05:22Z</time>
      </trkpt>
      <trkpt lat="32.965011969208717" lon="-4.167969999834895">
        <ele>1029.3</ele>
        <time>2003-04-13T15:05:24Z</time>
      </trkpt>
      <trkpt lat="32.964711980894208" lon="-4.16834500618279">
        <ele>1028.0999999999999</ele>
        <time>2003-04-13T15:05:25Z</time>
      </trkpt>
      <trkpt lat="32.963870018720627" lon="-4.169208006933332">
        <ele>1031.0999999999999</ele>
        <time>2003-04-13T15:05:30Z</time>
      </trkpt>
      <trkpt lat="32.963054962456226" lon="-4.17004301212728">
        <ele>1037.0999999999999</ele>
        <time>2003-04-13T15:05:36Z</time>
      </trkpt>
      <trkpt lat="32.962790010496974" lon="-4.170396979898214">
        <ele>1037.9000000000001</ele>
        <time>2003-04-13T15:05:37Z</time>
      </trkpt>
      <trkpt lat="32.962688002735376" lon="-4.170599989593029">
        <ele>1037.9000000000001</ele>
        <time>2003-04-13T15:05:40Z</time>
      </trkpt>
      <trkpt lat="32.962542995810509" lon="-4.17103199288249">
        <ele>1037.3</ele>
        <time>2003-04-13T15:05:41Z</time>
      </trkpt>
      <trkpt lat="32.962458003312349" lon="-4.171502972021699">
        <ele>1036.2</ele>
        <time>2003-04-13T15:05:42Z</time>
      </trkpt>
      <trkpt lat="32.962182993069291" lon="-4.172799987718463">
        <ele>1029.5999999999999</ele>
        <time>2003-04-13T15:05:49Z</time>
      </trkpt>
      <trkpt lat="32.961828019469976" lon="-4.173874966800213">
        <ele>1025.7</ele>
        <time>2003-04-13T15:05:52Z</time>
      </trkpt>
      <trkpt lat="32.961417976766825" lon="-4.17496201582253">
        <ele>1026.3</ele>
        <time>2003-04-13T15:05:56Z</time>
      </trkpt>
      <trkpt lat="32.961017992347479" lon="-4.176051998510957">
        <ele>1027.7</ele>
        <time>2003-04-13T15:06:00Z</time>
      </trkpt>
      <trkpt lat="32.960620019584894" lon="-4.177167965099216">
        <ele>1027.4000000000001</ele>
        <time>2003-04-13T15:06:04Z</time>
      </trkpt>
      <trkpt lat="32.96022498048842" lon="-4.178232969716191">
        <ele>1027.5999999999999</ele>
        <time>2003-04-13T15:06:08Z</time>
      </trkpt>
      <trkpt lat="32.959779985249043" lon="-4.179463014006615">
        <ele>1031.9000000000001</ele>
        <time>2003-04-13T15:06:14Z</time>
      </trkpt>
      <trkpt lat="32.959473039954901" lon="-4.180472027510405">
        <ele>1035.9000000000001</ele>
        <time>2003-04-13T15:06:18Z</time>
      </trkpt>
      <trkpt lat="32.959146983921528" lon="-4.181482968851924">
        <ele>1039.5999999999999</ele>
        <time>2003-04-13T15:06:22Z</time>
      </trkpt>
      <trkpt lat="32.958744987845421" lon="-4.182472033426166">
        <ele>1043.0999999999999</ele>
        <time>2003-04-13T15:06:26Z</time>
      </trkpt>
      <trkpt lat="32.958335028961301" lon="-4.183478029444814">
        <ele>1045.7</ele>
        <time>2003-04-13T15:06:30Z</time>
      </trkpt>
      <trkpt lat="32.957913000136614" lon="-4.184495005756617">
        <ele>1048.0999999999999</ele>
        <time>2003-04-13T15:06:34Z</time>
      </trkpt>
      <trkpt lat="32.957159969955683" lon="-4.186272975057364">
        <ele>1052.8</ele>
        <time>2003-04-13T15:06:41Z</time>
      </trkpt>
      <trkpt lat="32.956732995808125" lon="-4.186946963891387">
        <ele>1054.7</ele>
        <time>2003-04-13T15:06:43Z</time>
      </trkpt>
      <trkpt lat="32.956096976995468" lon="-4.187872996553779">
        <ele>1051.9000000000001</ele>
        <time>2003-04-13T15:06:47Z</time>
      </trkpt>
      <trkpt lat="32.955430028960109" lon="-4.188843034207821">
        <ele>1050.7</ele>
        <time>2003-04-13T15:06:51Z</time>
      </trkpt>
      <trkpt lat="32.954772971570492" lon="-4.189814999699593">
        <ele>1052.4000000000001</ele>
        <time>2003-04-13T15:06:55Z</time>
      </trkpt>
      <trkpt lat="32.9541249666363" lon="-4.190761987119913">
        <ele>1054.5999999999999</ele>
        <time>2003-04-13T15:06:59Z</time>
      </trkpt>
      <trkpt lat="32.953485008329153" lon="-4.191697994247079">
        <ele>1056.3</ele>
        <time>2003-04-13T15:07:03Z</time>
      </trkpt>
      <trkpt lat="32.952842032536864" lon="-4.192647999152541">
        <ele>1057.4000000000001</ele>
        <time>2003-04-13T15:07:08Z</time>
      </trkpt>
      <trkpt lat="32.952142981812358" lon="-4.193532960489392">
        <ele>1058.7</ele>
        <time>2003-04-13T15:07:12Z</time>
      </trkpt>
      <trkpt lat="32.951328009366989" lon="-4.194296970963478">
        <ele>1059.8</ele>
        <time>2003-04-13T15:07:16Z</time>
      </trkpt>
      <trkpt lat="32.950498033314943" lon="-4.195087971165776">
        <ele>1059.5999999999999</ele>
        <time>2003-04-13T15:07:20Z</time>
      </trkpt>
      <trkpt lat="32.949648024514318" lon="-4.195900009945035">
        <ele>1059.5</ele>
        <time>2003-04-13T15:07:24Z</time>
      </trkpt>
      <trkpt lat="32.948777982965112" lon="-4.19672504067421">
        <ele>1059.9000000000001</ele>
        <time>2003-04-13T15:07:28Z</time>
      </trkpt>
      <trkpt lat="32.947899978607893" lon="-4.19756499119103">
        <ele>1060.5999999999999</ele>
        <time>2003-04-13T15:07:32Z</time>
      </trkpt>
      <trkpt lat="32.946994984522462" lon="-4.198422040790319">
        <ele>1060.8</ele>
        <time>2003-04-13T15:07:36Z</time>
      </trkpt>
      <trkpt lat="32.946082027629018" lon="-4.199302978813648">
        <ele>1061.3</ele>
        <time>2003-04-13T15:07:40Z</time>
      </trkpt>
      <trkpt lat="32.945173010230064" lon="-4.200173020362854">
        <ele>1061.9000000000001</ele>
        <time>2003-04-13T15:07:44Z</time>
      </trkpt>
      <trkpt lat="32.944404976442456" lon="-4.201037026941776">
        <ele>1062.3</ele>
        <time>2003-04-13T15:07:48Z</time>
      </trkpt>
      <trkpt lat="32.94376702979207" lon="-4.201897010207176">
        <ele>1062.2</ele>
        <time>2003-04-13T15:07:52Z</time>
      </trkpt>
      <trkpt lat="32.943126987665892" lon="-4.202732015401125">
        <ele>1061.7</ele>
        <time>2003-04-13T15:07:56Z</time>
      </trkpt>
      <trkpt lat="32.942464984953403" lon="-4.20358001254499">
        <ele>1061.5</ele>
        <time>2003-04-13T15:08:00Z</time>
      </trkpt>
      <trkpt lat="32.941789990290999" lon="-4.204473020508885">
        <ele>1060.5</ele>
        <time>2003-04-13T15:08:04Z</time>
      </trkpt>
      <trkpt lat="32.941111978143454" lon="-4.205384971573949">
        <ele>1059.5</ele>
        <time>2003-04-13T15:08:07Z</time>
      </trkpt>
      <trkpt lat="32.940418040379882" lon="-4.206304969266057">
        <ele>1058.4000000000001</ele>
        <time>2003-04-13T15:08:11Z</time>
      </trkpt>
      <trkpt lat="32.939716977998614" lon="-4.207242988049984">
        <ele>1057.2</ele>
        <time>2003-04-13T15:08:15Z</time>
      </trkpt>
      <trkpt lat="32.939002001658082" lon="-4.208182012662292">
        <ele>1055</ele>
        <time>2003-04-13T15:08:19Z</time>
      </trkpt>
      <trkpt lat="32.938296999782324" lon="-4.209133023396134">
        <ele>1052.9000000000001</ele>
        <time>2003-04-13T15:08:23Z</time>
      </trkpt>
      <trkpt lat="32.937574982643127" lon="-4.210077999159694">
        <ele>1051.3</ele>
        <time>2003-04-13T15:08:27Z</time>
      </trkpt>
      <trkpt lat="32.936875009909272" lon="-4.211013000458479">
        <ele>1050.5</ele>
        <time>2003-04-13T15:08:31Z</time>
      </trkpt>
      <trkpt lat="32.936161961406469" lon="-4.211952025070787">
        <ele>1049.4000000000001</ele>
        <time>2003-04-13T15:08:35Z</time>
      </trkpt>
      <trkpt lat="32.935380013659596" lon="-4.212774960324168">
        <ele>1049.5999999999999</ele>
        <time>2003-04-13T15:08:39Z</time>
      </trkpt>
      <trkpt lat="32.934479964897037" lon="-4.213375020772219">
        <ele>1049.5999999999999</ele>
        <time>2003-04-13T15:08:43Z</time>
      </trkpt>
      <trkpt lat="32.933517973870039" lon="-4.213954964652658">
        <ele>1046.3</ele>
        <time>2003-04-13T15:08:47Z</time>
      </trkpt>
      <trkpt lat="32.932548020035028" lon="-4.214574974030256">
        <ele>1043.8</ele>
        <time>2003-04-13T15:08:51Z</time>
      </trkpt>
      <trkpt lat="32.93158502317965" lon="-4.215173022821546">
        <ele>1043.8</ele>
        <time>2003-04-13T15:08:56Z</time>
      </trkpt>
      <trkpt lat="32.930653039366007" lon="-4.215760007500649">
        <ele>1045.2</ele>
        <time>2003-04-13T15:09:00Z</time>
      </trkpt>
      <trkpt lat="32.929706973955035" lon="-4.216355038806796">
        <ele>1042.2</ele>
        <time>2003-04-13T15:09:04Z</time>
      </trkpt>
      <trkpt lat="32.928769960999489" lon="-4.21694302931428">
        <ele>1043.9000000000001</ele>
        <time>2003-04-13T15:09:08Z</time>
      </trkpt>
      <trkpt lat="32.927854992449284" lon="-4.217515010386705">
        <ele>1047.3</ele>
        <time>2003-04-13T15:09:12Z</time>
      </trkpt>
      <trkpt lat="32.92692200280726" lon="-4.21810501255095">
        <ele>1043.5999999999999</ele>
        <time>2003-04-13T15:09:16Z</time>
      </trkpt>
      <trkpt lat="32.925987001508474" lon="-4.218691997230053">
        <ele>1044</ele>
        <time>2003-04-13T15:09:20Z</time>
      </trkpt>
      <trkpt lat="32.925049988552928" lon="-4.219258027151227">
        <ele>1044.5999999999999</ele>
        <time>2003-04-13T15:09:24Z</time>
      </trkpt>
      <trkpt lat="32.924116998910904" lon="-4.219728000462055">
        <ele>1045.5</ele>
        <time>2003-04-13T15:09:28Z</time>
      </trkpt>
      <trkpt lat="32.923134975135326" lon="-4.220069982111454">
        <ele>1043.7</ele>
        <time>2003-04-13T15:09:32Z</time>
      </trkpt>
      <trkpt lat="32.922129984945059" lon="-4.220429984852672">
        <ele>1040.9000000000001</ele>
        <time>2003-04-13T15:09:36Z</time>
      </trkpt>
      <trkpt lat="32.92114301584661" lon="-4.220801973715425">
        <ele>1038.9000000000001</ele>
        <time>2003-04-13T15:09:40Z</time>
      </trkpt>
      <trkpt lat="32.920155040919781" lon="-4.221168011426926">
        <ele>1037.5</ele>
        <time>2003-04-13T15:09:44Z</time>
      </trkpt>
      <trkpt lat="32.919181985780597" lon="-4.221592973917723">
        <ele>1035.5</ele>
        <time>2003-04-13T15:09:48Z</time>
      </trkpt>
      <trkpt lat="32.918256958946586" lon="-4.22201500274241">
        <ele>1033.2</ele>
        <time>2003-04-13T15:09:52Z</time>
      </trkpt>
      <trkpt lat="32.91731801815331" lon="-4.222452035173774">
        <ele>1030.9000000000001</ele>
        <time>2003-04-13T15:09:55Z</time>
      </trkpt>
      <trkpt lat="32.916397014632821" lon="-4.222946986556053">
        <ele>1029.5</ele>
        <time>2003-04-13T15:09:59Z</time>
      </trkpt>
      <trkpt lat="32.915748003870249" lon="-4.223430035635829">
        <ele>1027</ele>
        <time>2003-04-13T15:10:03Z</time>
      </trkpt>
      <trkpt lat="32.914882991462946" lon="-4.22412003390491">
        <ele>1026.7</ele>
        <time>2003-04-13T15:10:07Z</time>
      </trkpt>
      <trkpt lat="32.914029965177178" lon="-4.224802991375327">
        <ele>1028.7</ele>
        <time>2003-04-13T15:10:11Z</time>
      </trkpt>
      <trkpt lat="32.913208035752177" lon="-4.225464994087815">
        <ele>1032.4000000000001</ele>
        <time>2003-04-13T15:10:15Z</time>
      </trkpt>
      <trkpt lat="32.91259003803134" lon="-4.225892974063754">
        <ele>1036.7</ele>
        <time>2003-04-13T15:10:18Z</time>
      </trkpt>
      <trkpt lat="32.911708010360599" lon="-4.226287007331848">
        <ele>1038.5999999999999</ele>
        <time>2003-04-13T15:10:22Z</time>
      </trkpt>
      <trkpt lat="32.910782983526587" lon="-4.226666959002614">
        <ele>1036.3</ele>
        <time>2003-04-13T15:10:26Z</time>
      </trkpt>
      <trkpt lat="32.909832978621125" lon="-4.227048000320792">
        <ele>1034</ele>
        <time>2003-04-13T15:10:30Z</time>
      </trkpt>
      <trkpt lat="32.908884985372424" lon="-4.227432981133461">
        <ele>1031.2</ele>
        <time>2003-04-13T15:10:34Z</time>
      </trkpt>
      <trkpt lat="32.907946966588497" lon="-4.227825002744794">
        <ele>1029</ele>
        <time>2003-04-13T15:10:38Z</time>
      </trkpt>
      <trkpt lat="32.907080026343465" lon="-4.228176958858967">
        <ele>1027.5999999999999</ele>
        <time>2003-04-13T15:10:42Z</time>
      </trkpt>
      <trkpt lat="32.906092973425984" lon="-4.228592030704022">
        <ele>1026</ele>
        <time>2003-04-13T15:10:46Z</time>
      </trkpt>
      <trkpt lat="32.905141962692142" lon="-4.22897701151669">
        <ele>1024.7</ele>
        <time>2003-04-13T15:10:52Z</time>
      </trkpt>
      <trkpt lat="32.904157005250454" lon="-4.229374984279275">
        <ele>1023.4</ele>
        <time>2003-04-13T15:10:57Z</time>
      </trkpt>
      <trkpt lat="32.903165007010102" lon="-4.229776980355382">
        <ele>1023.3</ele>
        <time>2003-04-13T15:11:01Z</time>
      </trkpt>
      <trkpt lat="32.902133027091622" lon="-4.230202026665211">
        <ele>1017.2</ele>
        <time>2003-04-13T15:11:06Z</time>
      </trkpt>
      <trkpt lat="32.901257034391165" lon="-4.230558006092906">
        <ele>1012.8</ele>
        <time>2003-04-13T15:11:11Z</time>
      </trkpt>
      <trkpt lat="32.900390010327101" lon="-4.230917003005743">
        <ele>1010</ele>
        <time>2003-04-13T15:11:15Z</time>
      </trkpt>
      <trkpt lat="32.899967981502414" lon="-4.231148008257151">
        <ele>1008.7</ele>
        <time>2003-04-13T15:11:16Z</time>
      </trkpt>
      <trkpt lat="32.899364987388253" lon="-4.231628039851785">
        <ele>1006</ele>
        <time>2003-04-13T15:11:20Z</time>
      </trkpt>
      <trkpt lat="32.898620003834367" lon="-4.232415016740561">
        <ele>1004.9</ele>
        <time>2003-04-13T15:11:24Z</time>
      </trkpt>
      <trkpt lat="32.897869991138577" lon="-4.233180033043027">
        <ele>1007.2</ele>
        <time>2003-04-13T15:11:28Z</time>
      </trkpt>
      <trkpt lat="32.897177981212735" lon="-4.233913030475378">
        <ele>1013.5</ele>
        <time>2003-04-13T15:11:32Z</time>
      </trkpt>
      <trkpt lat="32.896921997889876" lon="-4.234255012124777">
        <ele>1015.1</ele>
        <time>2003-04-13T15:11:33Z</time>
      </trkpt>
      <trkpt lat="32.896742038428783" lon="-4.23460797406733">
        <ele>1013.2</ele>
        <time>2003-04-13T15:11:36Z</time>
      </trkpt>
      <trkpt lat="32.896622009575367" lon="-4.235011981800199">
        <ele>1012</ele>
        <time>2003-04-13T15:11:38Z</time>
      </trkpt>
      <trkpt lat="32.896333001554012" lon="-4.236129960045219">
        <ele>1005</ele>
        <time>2003-04-13T15:11:43Z</time>
      </trkpt>
      <trkpt lat="32.896096967160702" lon="-4.236802021041513">
        <ele>1001.3</ele>
        <time>2003-04-13T15:11:46Z</time>
      </trkpt>
      <trkpt lat="32.895971992984414" lon="-4.23699002712965">
        <ele>1000.4</ele>
        <time>2003-04-13T15:11:47Z</time>
      </trkpt>
      <trkpt lat="32.895664963871241" lon="-4.237326979637146">
        <ele>1000</ele>
        <time>2003-04-13T15:11:48Z</time>
      </trkpt>
      <trkpt lat="32.894862983375788" lon="-4.238152010366321">
        <ele>1001.5</ele>
        <time>2003-04-13T15:11:54Z</time>
      </trkpt>
      <trkpt lat="32.894056979566813" lon="-4.239017022773624">
        <ele>1004.8</ele>
        <time>2003-04-13T15:11:59Z</time>
      </trkpt>
      <trkpt lat="32.893272014334798" lon="-4.239859990775585">
        <ele>1012</ele>
        <time>2003-04-13T15:12:03Z</time>
      </trkpt>
      <trkpt lat="32.892485037446022" lon="-4.240662977099419">
        <ele>1016.3</ele>
        <time>2003-04-13T15:12:09Z</time>
      </trkpt>
      <trkpt lat="32.892126962542534" lon="-4.240949973464012">
        <ele>1015.8</ele>
        <time>2003-04-13T15:12:10Z</time>
      </trkpt>
      <trkpt lat="32.891714992001653" lon="-4.241172010079026">
        <ele>1015.1</ele>
        <time>2003-04-13T15:12:13Z</time>
      </trkpt>
      <trkpt lat="32.89082801900804" lon="-4.241584986448288">
        <ele>1014.4</ele>
        <time>2003-04-13T15:12:17Z</time>
      </trkpt>
      <trkpt lat="32.889893017709255" lon="-4.242040039971471">
        <ele>1014.4</ele>
        <time>2003-04-13T15:12:21Z</time>
      </trkpt>
      <trkpt lat="32.888962039723992" lon="-4.242477994412184">
        <ele>1016.7</ele>
        <time>2003-04-13T15:12:25Z</time>
      </trkpt>
      <trkpt lat="32.888280004262924" lon="-4.242707993835211">
        <ele>1018</ele>
        <time>2003-04-13T15:12:27Z</time>
      </trkpt>
      <trkpt lat="32.887801984325051" lon="-4.242728026583791">
        <ele>1018.5</ele>
        <time>2003-04-13T15:12:30Z</time>
      </trkpt>
      <trkpt lat="32.886887015774846" lon="-4.242655020207167">
        <ele>1020.2</ele>
        <time>2003-04-13T15:12:34Z</time>
      </trkpt>
      <trkpt lat="32.885957965627313" lon="-4.242538008838892">
        <ele>1019.1</ele>
        <time>2003-04-13T15:12:37Z</time>
      </trkpt>
      <trkpt lat="32.885052971541882" lon="-4.24244798719883">
        <ele>1019.4</ele>
        <time>2003-04-13T15:12:41Z</time>
      </trkpt>
      <trkpt lat="32.884645024314523" lon="-4.242316978052259">
        <ele>1020</ele>
        <time>2003-04-13T15:12:44Z</time>
      </trkpt>
      <trkpt lat="32.884462969377637" lon="-4.24221002496779">
        <ele>1020.6</ele>
        <time>2003-04-13T15:12:45Z</time>
      </trkpt>
      <trkpt lat="32.884300025179982" lon="-4.242071975022554">
        <ele>1020.8</ele>
        <time>2003-04-13T15:12:45Z</time>
      </trkpt>
      <trkpt lat="32.883997019380331" lon="-4.241733010858297">
        <ele>1021</ele>
        <time>2003-04-13T15:12:48Z</time>
      </trkpt>
      <trkpt lat="32.883390001952648" lon="-4.241067990660667">
        <ele>1018.4</ele>
        <time>2003-04-13T15:12:52Z</time>
      </trkpt>
      <trkpt lat="32.883065035566688" lon="-4.240873027592897">
        <ele>1016.6</ele>
        <time>2003-04-13T15:12:53Z</time>
      </trkpt>
      <trkpt lat="32.882897984236479" lon="-4.240817036479712">
        <ele>1015.5</ele>
        <time>2003-04-13T15:12:54Z</time>
      </trkpt>
      <trkpt lat="32.882527001202106" lon="-4.240761967375875">
        <ele>1013.2</ele>
        <time>2003-04-13T15:12:57Z</time>
      </trkpt>
      <trkpt lat="32.881523016840219" lon="-4.240662977099419">
        <ele>1011</ele>
        <time>2003-04-13T15:13:01Z</time>
      </trkpt>
      <trkpt lat="32.880532024428248" lon="-4.240561975166202">
        <ele>1009.5</ele>
        <time>2003-04-13T15:13:07Z</time>
      </trkpt>
      <trkpt lat="32.880172021687031" lon="-4.240462984889746">
        <ele>1008.9</ele>
        <time>2003-04-13T15:13:08Z</time>
      </trkpt>
      <trkpt lat="32.879843031987548" lon="-4.24029802903533">
        <ele>1008.3</ele>
        <time>2003-04-13T15:13:11Z</time>
      </trkpt>
      <trkpt lat="32.878954969346523" lon="-4.239795031026006">
        <ele>1006.1</ele>
        <time>2003-04-13T15:13:16Z</time>
      </trkpt>
      <trkpt lat="32.878106972202659" lon="-4.239351963624358">
        <ele>1005.8</ele>
        <time>2003-04-13T15:13:23Z</time>
      </trkpt>
      <trkpt lat="32.877353020012379" lon="-4.239036971703172">
        <ele>1004.6</ele>
        <time>2003-04-13T15:13:28Z</time>
      </trkpt>
      <trkpt lat="32.877198038622737" lon="-4.239033032208681">
        <ele>1004.1</ele>
        <time>2003-04-13T15:13:28Z</time>
      </trkpt>
      <trkpt lat="32.877059988677502" lon="-4.239066978916526">
        <ele>1004.2</ele>
        <time>2003-04-13T15:13:30Z</time>
      </trkpt>
      <trkpt lat="32.876944988965988" lon="-4.23913998529315">
        <ele>1004.5</ele>
        <time>2003-04-13T15:13:31Z</time>
      </trkpt>
      <trkpt lat="32.876852033659816" lon="-4.239256996661425">
        <ele>1004.8</ele>
        <time>2003-04-13T15:13:31Z</time>
      </trkpt>
      <trkpt lat="32.876777015626431" lon="-4.239394962787628">
        <ele>1004.8</ele>
        <time>2003-04-13T15:13:32Z</time>
      </trkpt>
      <trkpt lat="32.876657992601395" lon="-4.239701991900802">
        <ele>1004.5</ele>
        <time>2003-04-13T15:13:35Z</time>
      </trkpt>
      <trkpt lat="32.876352975144982" lon="-4.240809995681047">
        <ele>1005</ele>
        <time>2003-04-13T15:13:42Z</time>
      </trkpt>
      <trkpt lat="32.876033037900925" lon="-4.241926968097687">
        <ele>1006</ele>
        <time>2003-04-13T15:13:48Z</time>
      </trkpt>
      <trkpt lat="32.875955002382398" lon="-4.242444969713688">
        <ele>1006.1</ele>
        <time>2003-04-13T15:13:51Z</time>
      </trkpt>
      <trkpt lat="32.875990038737655" lon="-4.242817964404821">
        <ele>1006.4</ele>
        <time>2003-04-13T15:13:54Z</time>
      </trkpt>
      <trkpt lat="32.876121969893575" lon="-4.244024958461523">
        <ele>1007.2</ele>
        <time>2003-04-13T15:13:59Z</time>
      </trkpt>
      <trkpt lat="32.876190030947328" lon="-4.245230024680495">
        <ele>1006.7</ele>
        <time>2003-04-13T15:14:06Z</time>
      </trkpt>
      <trkpt lat="32.876147031784058" lon="-4.245417024940252">
        <ele>1006.4</ele>
        <time>2003-04-13T15:14:06Z</time>
      </trkpt>
      <trkpt lat="32.876076959073544" lon="-4.245602013543248">
        <ele>1006.3</ele>
        <time>2003-04-13T15:14:07Z</time>
      </trkpt>
      <trkpt lat="32.875694995746017" lon="-4.246597029268742">
        <ele>1005</ele>
        <time>2003-04-13T15:14:13Z</time>
      </trkpt>
      <trkpt lat="32.875301968306303" lon="-4.247721964493394">
        <ele>1004</ele>
        <time>2003-04-13T15:14:18Z</time>
      </trkpt>
      <trkpt lat="32.874856973066926" lon="-4.248910015448928">
        <ele>1004.2</ele>
        <time>2003-04-13T15:14:22Z</time>
      </trkpt>
      <trkpt lat="32.874424969777465" lon="-4.250148022547364">
        <ele>1006.6</ele>
        <time>2003-04-13T15:14:28Z</time>
      </trkpt>
      <trkpt lat="32.874052980914712" lon="-4.25117002800107">
        <ele>1008</ele>
        <time>2003-04-13T15:14:32Z</time>
      </trkpt>
      <trkpt lat="32.87368300370872" lon="-4.252207959070802">
        <ele>1011.8</ele>
        <time>2003-04-13T15:14:36Z</time>
      </trkpt>
      <trkpt lat="32.873238008469343" lon="-4.253425011411309">
        <ele>1016.3</ele>
        <time>2003-04-13T15:14:41Z</time>
      </trkpt>
      <trkpt lat="32.872884962707758" lon="-4.254120038822293">
        <ele>1016.5</ele>
        <time>2003-04-13T15:14:44Z</time>
      </trkpt>
      <trkpt lat="32.872327985242009" lon="-4.255007011815906">
        <ele>1017</ele>
        <time>2003-04-13T15:14:48Z</time>
      </trkpt>
      <trkpt lat="32.871676962822676" lon="-4.256022982299328">
        <ele>1017.9</ele>
        <time>2003-04-13T15:14:52Z</time>
      </trkpt>
      <trkpt lat="32.871053013950586" lon="-4.256990002468228">
        <ele>1018.1</ele>
        <time>2003-04-13T15:14:57Z</time>
      </trkpt>
      <trkpt lat="32.8704599943012" lon="-4.257968002930284">
        <ele>1018.5</ele>
        <time>2003-04-13T15:15:03Z</time>
      </trkpt>
      <trkpt lat="32.869826992973685" lon="-4.258871991187334">
        <ele>1018.6</ele>
        <time>2003-04-13T15:15:08Z</time>
      </trkpt>
      <trkpt lat="32.869134983047843" lon="-4.259727029129863">
        <ele>1018.6</ele>
        <time>2003-04-13T15:15:12Z</time>
      </trkpt>
      <trkpt lat="32.868395028635859" lon="-4.260620037093759">
        <ele>1018.4</ele>
        <time>2003-04-13T15:15:18Z</time>
      </trkpt>
      <trkpt lat="32.867850037291646" lon="-4.261435009539127">
        <ele>1017.6</ele>
        <time>2003-04-13T15:15:22Z</time>
      </trkpt>
      <trkpt lat="32.867751969024539" lon="-4.26167699508369">
        <ele>1017.6</ele>
        <time>2003-04-13T15:15:23Z</time>
      </trkpt>
      <trkpt lat="32.867609979584813" lon="-4.262189967557788">
        <ele>1017.4</ele>
        <time>2003-04-13T15:15:24Z</time>
      </trkpt>
      <trkpt lat="32.867307979613543" lon="-4.263214990496635">
        <ele>1018.9</ele>
        <time>2003-04-13T15:15:28Z</time>
      </trkpt>
      <trkpt lat="32.866921992972493" lon="-4.264452997595072">
        <ele>1020.1</ele>
        <time>2003-04-13T15:15:34Z</time>
      </trkpt>
      <trkpt lat="32.866616975516081" lon="-4.265463016927242">
        <ele>1020</ele>
        <time>2003-04-13T15:15:38Z</time>
      </trkpt>
      <trkpt lat="32.866229983046651" lon="-4.266389971598983">
        <ele>1022.3</ele>
        <time>2003-04-13T15:15:42Z</time>
      </trkpt>
      <trkpt lat="32.865569991990924" lon="-4.267454976215959">
        <ele>1022.5</ele>
        <time>2003-04-13T15:15:46Z</time>
      </trkpt>
      <trkpt lat="32.865034975111485" lon="-4.26833800971508">
        <ele>1023.7</ele>
        <time>2003-04-13T15:15:50Z</time>
      </trkpt>
      <trkpt lat="32.864483026787639" lon="-4.269224982708693">
        <ele>1024.4000000000001</ele>
        <time>2003-04-13T15:15:54Z</time>
      </trkpt>
      <trkpt lat="32.863932000473142" lon="-4.270125031471252">
        <ele>1024.5</ele>
        <time>2003-04-13T15:15:58Z</time>
      </trkpt>
      <trkpt lat="32.863363036885858" lon="-4.271052991971374">
        <ele>1022.3</ele>
        <time>2003-04-13T15:16:02Z</time>
      </trkpt>
      <trkpt lat="32.862797006964684" lon="-4.271965026855469">
        <ele>1022.8</ele>
        <time>2003-04-13T15:16:06Z</time>
      </trkpt>
      <trkpt lat="32.862242963165045" lon="-4.272855017334223">
        <ele>1024.9000000000001</ele>
        <time>2003-04-13T15:16:10Z</time>
      </trkpt>
      <trkpt lat="32.861669976264238" lon="-4.27364501170814">
        <ele>1027</ele>
        <time>2003-04-13T15:16:14Z</time>
      </trkpt>
      <trkpt lat="32.860797001048923" lon="-4.274444980546832">
        <ele>1019.1</ele>
        <time>2003-04-13T15:16:20Z</time>
      </trkpt>
      <trkpt lat="32.860059980303049" lon="-4.275115029886365">
        <ele>1017.1</ele>
        <time>2003-04-13T15:16:24Z</time>
      </trkpt>
      <trkpt lat="32.859567040577531" lon="-4.275618027895689">
        <ele>1017.4</ele>
        <time>2003-04-13T15:16:26Z</time>
      </trkpt>
      <trkpt lat="32.859293036162853" lon="-4.276033015921712">
        <ele>1017.4</ele>
        <time>2003-04-13T15:16:29Z</time>
      </trkpt>
      <trkpt lat="32.8590730112046" lon="-4.276497960090637">
        <ele>1018.1</ele>
        <time>2003-04-13T15:16:30Z</time>
      </trkpt>
      <trkpt lat="32.858670009300113" lon="-4.27746799774468">
        <ele>1019.4</ele>
        <time>2003-04-13T15:16:35Z</time>
      </trkpt>
      <trkpt lat="32.858249992132187" lon="-4.278465025126934">
        <ele>1019.4</ele>
        <time>2003-04-13T15:16:39Z</time>
      </trkpt>
      <trkpt lat="32.857814971357584" lon="-4.279472026973963">
        <ele>1018.6</ele>
        <time>2003-04-13T15:16:43Z</time>
      </trkpt>
      <trkpt lat="32.857392020523548" lon="-4.280478022992611">
        <ele>1018.4</ele>
        <time>2003-04-13T15:16:47Z</time>
      </trkpt>
      <trkpt lat="32.856956999748945" lon="-4.281410006806254">
        <ele>1018.5</ele>
        <time>2003-04-13T15:16:51Z</time>
      </trkpt>
      <trkpt lat="32.856809981167316" lon="-4.281602958217263">
        <ele>1018.6</ele>
        <time>2003-04-13T15:16:52Z</time>
      </trkpt>
      <trkpt lat="32.856068015098572" lon="-4.282481968402863">
        <ele>1017.9</ele>
        <time>2003-04-13T15:16:57Z</time>
      </trkpt>
      <trkpt lat="32.855422021821141" lon="-4.2833970207721">
        <ele>1018.2</ele>
        <time>2003-04-13T15:17:02Z</time>
      </trkpt>
      <trkpt lat="32.855192022398114" lon="-4.284079978242517">
        <ele>1018.5</ele>
        <time>2003-04-13T15:17:06Z</time>
      </trkpt>
      <trkpt lat="32.854854986071587" lon="-4.285284960642457">
        <ele>1018.1</ele>
        <time>2003-04-13T15:17:11Z</time>
      </trkpt>
      <trkpt lat="32.854500012472272" lon="-4.286533026024699">
        <ele>1016.4</ele>
        <time>2003-04-13T15:17:15Z</time>
      </trkpt>
      <trkpt lat="32.85413003526628" lon="-4.287780001759529">
        <ele>1018.9</ele>
        <time>2003-04-13T15:17:20Z</time>
      </trkpt>
      <trkpt lat="32.85391503944993" lon="-4.288164982572198">
        <ele>1021.1</ele>
        <time>2003-04-13T15:17:23Z</time>
      </trkpt>
      <trkpt lat="32.853644974529743" lon="-4.288487015292049">
        <ele>1022.4</ele>
        <time>2003-04-13T15:17:24Z</time>
      </trkpt>
      <trkpt lat="32.853483036160469" lon="-4.288603020831943">
        <ele>1022.9</ele>
        <time>2003-04-13T15:17:26Z</time>
      </trkpt>
      <trkpt lat="32.852788008749485" lon="-4.289162009954453">
        <ele>1026.0999999999999</ele>
        <time>2003-04-13T15:17:31Z</time>
      </trkpt>
      <trkpt lat="32.852581981569529" lon="-4.289467027410865">
        <ele>1027</ele>
        <time>2003-04-13T15:17:33Z</time>
      </trkpt>
      <trkpt lat="32.85200203768909" lon="-4.290494984015822">
        <ele>1027.5999999999999</ele>
        <time>2003-04-13T15:17:38Z</time>
      </trkpt>
      <trkpt lat="32.851447993889451" lon="-4.291402995586395">
        <ele>1025.4000000000001</ele>
        <time>2003-04-13T15:17:43Z</time>
      </trkpt>
      <trkpt lat="32.850899985060096" lon="-4.292360041290522">
        <ele>1027</ele>
        <time>2003-04-13T15:17:49Z</time>
      </trkpt>
      <trkpt lat="32.850342001765966" lon="-4.293296970427036">
        <ele>1032.7</ele>
        <time>2003-04-13T15:17:54Z</time>
      </trkpt>
      <trkpt lat="32.849797010421753" lon="-4.294223003089428">
        <ele>1037.3</ele>
        <time>2003-04-13T15:17:58Z</time>
      </trkpt>
      <trkpt lat="32.849244978278875" lon="-4.295162027701736">
        <ele>1040.3</ele>
        <time>2003-04-13T15:18:04Z</time>
      </trkpt>
      <trkpt lat="32.848692024126649" lon="-4.296091999858618">
        <ele>1043.2</ele>
        <time>2003-04-13T15:18:09Z</time>
      </trkpt>
      <trkpt lat="32.848166981711984" lon="-4.297009985893965">
        <ele>1046.0999999999999</ele>
        <time>2003-04-13T15:18:13Z</time>
      </trkpt>
      <trkpt lat="32.847612015902996" lon="-4.297941969707608">
        <ele>1049.0999999999999</ele>
        <time>2003-04-13T15:18:18Z</time>
      </trkpt>
      <trkpt lat="32.847067024558783" lon="-4.298862973228097">
        <ele>1050.9000000000001</ele>
        <time>2003-04-13T15:18:24Z</time>
      </trkpt>
      <trkpt lat="32.846497977152467" lon="-4.299829993396998">
        <ele>1049.5999999999999</ele>
        <time>2003-04-13T15:18:28Z</time>
      </trkpt>
      <trkpt lat="32.845911998301744" lon="-4.300810005515814">
        <ele>1048.5999999999999</ele>
        <time>2003-04-13T15:18:33Z</time>
      </trkpt>
      <trkpt lat="32.84534496255219" lon="-4.301803009584546">
        <ele>1048.4000000000001</ele>
        <time>2003-04-13T15:18:39Z</time>
      </trkpt>
      <trkpt lat="32.844750015065074" lon="-4.302804982289672">
        <ele>1048.7</ele>
        <time>2003-04-13T15:18:44Z</time>
      </trkpt>
      <trkpt lat="32.844150038436055" lon="-4.30380997247994">
        <ele>1050.3</ele>
        <time>2003-04-13T15:18:48Z</time>
      </trkpt>
      <trkpt lat="32.843551989644766" lon="-4.304838012903929">
        <ele>1052</ele>
        <time>2003-04-13T15:18:54Z</time>
      </trkpt>
      <trkpt lat="32.842927034944296" lon="-4.30587301030755">
        <ele>1053.5</ele>
        <time>2003-04-13T15:18:59Z</time>
      </trkpt>
      <trkpt lat="32.842312976717949" lon="-4.306931979954243">
        <ele>1056.3</ele>
        <time>2003-04-13T15:19:03Z</time>
      </trkpt>
      <trkpt lat="32.841685004532337" lon="-4.30797996930778">
        <ele>1055</ele>
        <time>2003-04-13T15:19:08Z</time>
      </trkpt>
      <trkpt lat="32.841057032346725" lon="-4.30905201472342">
        <ele>1055</ele>
        <time>2003-04-13T15:19:14Z</time>
      </trkpt>
      <trkpt lat="32.840468036010861" lon="-4.310069996863604">
        <ele>1056.8</ele>
        <time>2003-04-13T15:19:19Z</time>
      </trkpt>
      <trkpt lat="32.839942993596196" lon="-4.311023019254208">
        <ele>1056.8</ele>
        <time>2003-04-13T15:19:23Z</time>
      </trkpt>
      <trkpt lat="32.839802009984851" lon="-4.311452005058527">
        <ele>1056.9000000000001</ele>
        <time>2003-04-13T15:19:26Z</time>
      </trkpt>
      <trkpt lat="32.839678041636944" lon="-4.312162036076188">
        <ele>1054.7</ele>
        <time>2003-04-13T15:19:29Z</time>
      </trkpt>
      <trkpt lat="32.839552983641624" lon="-4.313442036509514">
        <ele>1052</ele>
        <time>2003-04-13T15:19:34Z</time>
      </trkpt>
      <trkpt lat="32.839404959231615" lon="-4.314718013629317">
        <ele>1052.5999999999999</ele>
        <time>2003-04-13T15:19:38Z</time>
      </trkpt>
      <trkpt lat="32.839200021699071" lon="-4.315446987748146">
        <ele>1052.3</ele>
        <time>2003-04-13T15:19:42Z</time>
      </trkpt>
      <trkpt lat="32.838987037539482" lon="-4.315892988815904">
        <ele>1052.5999999999999</ele>
        <time>2003-04-13T15:19:44Z</time>
      </trkpt>
      <trkpt lat="32.838340038433671" lon="-4.316927986219525">
        <ele>1052.0999999999999</ele>
        <time>2003-04-13T15:19:49Z</time>
      </trkpt>
      <trkpt lat="32.837730003520846" lon="-4.31794798001647">
        <ele>1050.8</ele>
        <time>2003-04-13T15:19:53Z</time>
      </trkpt>
      <trkpt lat="32.837164979428053" lon="-4.318882981315255">
        <ele>1049.8</ele>
        <time>2003-04-13T15:19:58Z</time>
      </trkpt>
      <trkpt lat="32.836608001962304" lon="-4.319778000935912">
        <ele>1049.2</ele>
        <time>2003-04-13T15:20:04Z</time>
      </trkpt>
      <trkpt lat="32.836056975647807" lon="-4.32069799862802">
        <ele>1047.7</ele>
        <time>2003-04-13T15:20:09Z</time>
      </trkpt>
      <trkpt lat="32.835850026458502" lon="-4.321081973612309">
        <ele>1046.9000000000001</ele>
        <time>2003-04-13T15:20:11Z</time>
      </trkpt>
      <trkpt lat="32.835778025910258" lon="-4.321293029934168">
        <ele>1046.5999999999999</ele>
        <time>2003-04-13T15:20:12Z</time>
      </trkpt>
      <trkpt lat="32.835737960413098" lon="-4.321511965245009">
        <ele>1046.3</ele>
        <time>2003-04-13T15:20:13Z</time>
      </trkpt>
      <trkpt lat="32.835726980119944" lon="-4.3217299785465">
        <ele>1046</ele>
        <time>2003-04-13T15:20:13Z</time>
      </trkpt>
      <trkpt lat="32.835767967626452" lon="-4.322161981835961">
        <ele>1045.2</ele>
        <time>2003-04-13T15:20:16Z</time>
      </trkpt>
      <trkpt lat="32.835823036730289" lon="-4.322370020672679">
        <ele>1044.7</ele>
        <time>2003-04-13T15:20:16Z</time>
      </trkpt>
      <trkpt lat="32.835903000086546" lon="-4.322564983740449">
        <ele>1044.2</ele>
        <time>2003-04-13T15:20:17Z</time>
      </trkpt>
      <trkpt lat="32.836107015609741" lon="-4.322934960946441">
        <ele>1042.4000000000001</ele>
        <time>2003-04-13T15:20:20Z</time>
      </trkpt>
      <trkpt lat="32.836625017225742" lon="-4.323886977508664">
        <ele>1037.8</ele>
        <time>2003-04-13T15:20:24Z</time>
      </trkpt>
      <trkpt lat="32.836744962260127" lon="-4.324292996898294">
        <ele>1036.5999999999999</ele>
        <time>2003-04-13T15:20:27Z</time>
      </trkpt>
      <trkpt lat="32.836761977523565" lon="-4.324504975229502">
        <ele>1036</ele>
        <time>2003-04-13T15:20:28Z</time>
      </trkpt>
      <trkpt lat="32.836752003058791" lon="-4.324715025722981">
        <ele>1035.2</ele>
        <time>2003-04-13T15:20:28Z</time>
      </trkpt>
      <trkpt lat="32.836674973368645" lon="-4.325092965736985">
        <ele>1033.8</ele>
        <time>2003-04-13T15:20:31Z</time>
      </trkpt>
      <trkpt lat="32.836268031969666" lon="-4.326257966458798">
        <ele>1032.2</ele>
        <time>2003-04-13T15:20:36Z</time>
      </trkpt>
      <trkpt lat="32.836010036990047" lon="-4.326852997764945">
        <ele>1032.5</ele>
        <time>2003-04-13T15:20:40Z</time>
      </trkpt>
      <trkpt lat="32.835769979283214" lon="-4.327217023819685">
        <ele>1033.0999999999999</ele>
        <time>2003-04-13T15:20:42Z</time>
      </trkpt>
      <trkpt lat="32.835182994604111" lon="-4.327875003218651">
        <ele>1033.2</ele>
        <time>2003-04-13T15:20:46Z</time>
      </trkpt>
      <trkpt lat="32.834432981908321" lon="-4.328755019232631">
        <ele>1033.5</ele>
        <time>2003-04-13T15:20:51Z</time>
      </trkpt>
      <trkpt lat="32.834035009145737" lon="-4.329369999468327">
        <ele>1033.5999999999999</ele>
        <time>2003-04-13T15:20:54Z</time>
      </trkpt>
      <trkpt lat="32.833478031679988" lon="-4.330531982704997">
        <ele>1034.0999999999999</ele>
        <time>2003-04-13T15:20:59Z</time>
      </trkpt>
      <trkpt lat="32.833015015348792" lon="-4.331476958468556">
        <ele>1035.2</ele>
        <time>2003-04-13T15:21:03Z</time>
      </trkpt>
      <trkpt lat="32.832551999017596" lon="-4.332437021657825">
        <ele>1037</ele>
        <time>2003-04-13T15:21:07Z</time>
      </trkpt>
      <trkpt lat="32.831989992409945" lon="-4.333543013781309">
        <ele>1039.3</ele>
        <time>2003-04-13T15:21:11Z</time>
      </trkpt>
      <trkpt lat="32.831707019358873" lon="-4.333881977945566">
        <ele>1039.0999999999999</ele>
        <time>2003-04-13T15:21:14Z</time>
      </trkpt>
      <trkpt lat="32.830975027754903" lon="-4.334571976214647">
        <ele>1039</ele>
        <time>2003-04-13T15:21:18Z</time>
      </trkpt>
      <trkpt lat="32.830662969499826" lon="-4.335008002817631">
        <ele>1039.5999999999999</ele>
        <time>2003-04-13T15:21:22Z</time>
      </trkpt>
      <trkpt lat="32.830502958968282" lon="-4.335340010002255">
        <ele>1039.8</ele>
        <time>2003-04-13T15:21:23Z</time>
      </trkpt>
      <trkpt lat="32.830057963728905" lon="-4.336386993527412">
        <ele>1040.2</ele>
        <time>2003-04-13T15:21:30Z</time>
      </trkpt>
      <trkpt lat="32.829648004844785" lon="-4.337379997596145">
        <ele>1041</ele>
        <time>2003-04-13T15:21:36Z</time>
      </trkpt>
      <trkpt lat="32.829284984618425" lon="-4.338542986661196">
        <ele>1041</ele>
        <time>2003-04-13T15:21:42Z</time>
      </trkpt>
      <trkpt lat="32.829147018492222" lon="-4.338869964703918">
        <ele>1041.5999999999999</ele>
        <time>2003-04-13T15:21:45Z</time>
      </trkpt>
      <trkpt lat="32.829042999073863" lon="-4.339010026305914">
        <ele>1041.8</ele>
        <time>2003-04-13T15:21:45Z</time>
      </trkpt>
      <trkpt lat="32.828922970220447" lon="-4.339135000482202">
        <ele>1042.0999999999999</ele>
        <time>2003-04-13T15:21:46Z</time>
      </trkpt>
      <trkpt lat="32.828110009431839" lon="-4.339907979592681">
        <ele>1042.0999999999999</ele>
        <time>2003-04-13T15:21:53Z</time>
      </trkpt>
      <trkpt lat="32.827382041141391" lon="-4.340567970648408">
        <ele>1044</ele>
        <time>2003-04-13T15:21:57Z</time>
      </trkpt>
      <trkpt lat="32.826667986810207" lon="-4.341231985017657">
        <ele>1046.8</ele>
        <time>2003-04-13T15:22:03Z</time>
      </trkpt>
      <trkpt lat="32.826432036235929" lon="-4.341519987210631">
        <ele>1048.7</ele>
        <time>2003-04-13T15:22:04Z</time>
      </trkpt>
      <trkpt lat="32.826225003227592" lon="-4.341860041022301">
        <ele>1050.4000000000001</ele>
        <time>2003-04-13T15:22:07Z</time>
      </trkpt>
      <trkpt lat="32.826062981039286" lon="-4.342242004349828">
        <ele>1051.5999999999999</ele>
        <time>2003-04-13T15:22:08Z</time>
      </trkpt>
      <trkpt lat="32.825900036841631" lon="-4.342852961272001">
        <ele>1054.3</ele>
        <time>2003-04-13T15:22:12Z</time>
      </trkpt>
      <trkpt lat="32.82575000077486" lon="-4.343927018344402">
        <ele>1054.4000000000001</ele>
        <time>2003-04-13T15:22:16Z</time>
      </trkpt>
      <trkpt lat="32.825572974979877" lon="-4.344999985769391">
        <ele>1053.2</ele>
        <time>2003-04-13T15:22:21Z</time>
      </trkpt>
      <trkpt lat="32.8254250343889" lon="-4.346058033406735">
        <ele>1052.2</ele>
        <time>2003-04-13T15:22:27Z</time>
      </trkpt>
      <trkpt lat="32.825250020250678" lon="-4.347142986953259">
        <ele>1054.5999999999999</ele>
        <time>2003-04-13T15:22:31Z</time>
      </trkpt>
      <trkpt lat="32.825027983635664" lon="-4.348187036812306">
        <ele>1058</ele>
        <time>2003-04-13T15:22:36Z</time>
      </trkpt>
      <trkpt lat="32.824773006141186" lon="-4.348769998177886">
        <ele>1060.0999999999999</ele>
        <time>2003-04-13T15:22:39Z</time>
      </trkpt>
      <trkpt lat="32.824547030031681" lon="-4.349108040332794">
        <ele>1062.5999999999999</ele>
        <time>2003-04-13T15:22:42Z</time>
      </trkpt>
      <trkpt lat="32.824283000081778" lon="-4.349396964535117">
        <ele>1064</ele>
        <time>2003-04-13T15:22:43Z</time>
      </trkpt>
      <trkpt lat="32.823844961822033" lon="-4.349769959226251">
        <ele>1064.9000000000001</ele>
        <time>2003-04-13T15:22:47Z</time>
      </trkpt>
      <trkpt lat="32.823039963841438" lon="-4.350349986925721">
        <ele>1066.8</ele>
        <time>2003-04-13T15:22:51Z</time>
      </trkpt>
      <trkpt lat="32.822190038859844" lon="-4.3509900290519">
        <ele>1067</ele>
        <time>2003-04-13T15:22:57Z</time>
      </trkpt>
      <trkpt lat="32.821312034502625" lon="-4.351637028157711">
        <ele>1067.9000000000001</ele>
        <time>2003-04-13T15:23:02Z</time>
      </trkpt>
      <trkpt lat="32.820439981296659" lon="-4.35228000395">
        <ele>1069.3</ele>
        <time>2003-04-13T15:23:06Z</time>
      </trkpt>
      <trkpt lat="32.819951986894011" lon="-4.352717958390713">
        <ele>1069.8</ele>
        <time>2003-04-13T15:23:10Z</time>
      </trkpt>
      <trkpt lat="32.819504979997873" lon="-4.353235037997365">
        <ele>1070.2</ele>
        <time>2003-04-13T15:23:13Z</time>
      </trkpt>
      <trkpt lat="32.819122010841966" lon="-4.353839959949255">
        <ele>1070.7</ele>
        <time>2003-04-13T15:23:15Z</time>
      </trkpt>
      <trkpt lat="32.818554975092411" lon="-4.354885015636683">
        <ele>1072</ele>
        <time>2003-04-13T15:23:21Z</time>
      </trkpt>
      <trkpt lat="32.818011995404959" lon="-4.355901991948485">
        <ele>1074.3</ele>
        <time>2003-04-13T15:23:25Z</time>
      </trkpt>
      <trkpt lat="32.817474966868758" lon="-4.356882004067302">
        <ele>1079.0999999999999</ele>
        <time>2003-04-13T15:23:30Z</time>
      </trkpt>
      <trkpt lat="32.816944979131222" lon="-4.357826979830861">
        <ele>1083.3</ele>
        <time>2003-04-13T15:23:36Z</time>
      </trkpt>
      <trkpt lat="32.816438041627407" lon="-4.358776984736323">
        <ele>1085.2</ele>
        <time>2003-04-13T15:23:41Z</time>
      </trkpt>
      <trkpt lat="32.815870000049472" lon="-4.359702011570334">
        <ele>1087.4000000000001</ele>
        <time>2003-04-13T15:23:45Z</time>
      </trkpt>
      <trkpt lat="32.81513499096036" lon="-4.360522013157606">
        <ele>1088.8</ele>
        <time>2003-04-13T15:23:51Z</time>
      </trkpt>
      <trkpt lat="32.81438497826457" lon="-4.36139197088778">
        <ele>1088.5</ele>
        <time>2003-04-13T15:23:56Z</time>
      </trkpt>
      <trkpt lat="32.813598001375794" lon="-4.36227198690176">
        <ele>1084.3</ele>
        <time>2003-04-13T15:24:00Z</time>
      </trkpt>
      <trkpt lat="32.812891993671656" lon="-4.363077990710735">
        <ele>1080.5999999999999</ele>
        <time>2003-04-13T15:24:05Z</time>
      </trkpt>
      <trkpt lat="32.812163019552827" lon="-4.363915007561445">
        <ele>1077.4000000000001</ele>
        <time>2003-04-13T15:24:11Z</time>
      </trkpt>
      <trkpt lat="32.811409989371896" lon="-4.364787982776761">
        <ele>1080.5</ele>
        <time>2003-04-13T15:24:16Z</time>
      </trkpt>
      <trkpt lat="32.810627035796642" lon="-4.365630028769374">
        <ele>1082.7</ele>
        <time>2003-04-13T15:24:20Z</time>
      </trkpt>
      <trkpt lat="32.810092018917203" lon="-4.366079969331622">
        <ele>1083.5</ele>
        <time>2003-04-13T15:24:23Z</time>
      </trkpt>
      <trkpt lat="32.80967703089118" lon="-4.366281973198056">
        <ele>1083.9000000000001</ele>
        <time>2003-04-13T15:24:26Z</time>
      </trkpt>
      <trkpt lat="32.809224994853139" lon="-4.366386998444796">
        <ele>1084.5</ele>
        <time>2003-04-13T15:24:27Z</time>
      </trkpt>
      <trkpt lat="32.808297034353018" lon="-4.36652303673327">
        <ele>1086.4000000000001</ele>
        <time>2003-04-13T15:24:31Z</time>
      </trkpt>
      <trkpt lat="32.807242004200816" lon="-4.36673803254962">
        <ele>1088.5999999999999</ele>
        <time>2003-04-13T15:24:36Z</time>
      </trkpt>
      <trkpt lat="32.806870015338063" lon="-4.366925032809377">
        <ele>1089.5999999999999</ele>
        <time>2003-04-13T15:24:39Z</time>
      </trkpt>
      <trkpt lat="32.806558040902019" lon="-4.367170035839081">
        <ele>1090.4000000000001</ele>
        <time>2003-04-13T15:24:41Z</time>
      </trkpt>
      <trkpt lat="32.806184962391853" lon="-4.367515034973621">
        <ele>1090.8</ele>
        <time>2003-04-13T15:24:43Z</time>
      </trkpt>
      <trkpt lat="32.806083038449287" lon="-4.367645038291812">
        <ele>1091</ele>
        <time>2003-04-13T15:24:45Z</time>
      </trkpt>
      <trkpt lat="32.805997962132096" lon="-4.36779297888279">
        <ele>1090.9000000000001</ele>
        <time>2003-04-13T15:24:46Z</time>
      </trkpt>
      <trkpt lat="32.805594960227609" lon="-4.368660002946854">
        <ele>1091.3</ele>
        <time>2003-04-13T15:24:50Z</time>
      </trkpt>
      <trkpt lat="32.805497981607914" lon="-4.369072979316115">
        <ele>1091.5999999999999</ele>
        <time>2003-04-13T15:24:53Z</time>
      </trkpt>
      <trkpt lat="32.805427992716432" lon="-4.369734982028604">
        <ele>1092.2</ele>
        <time>2003-04-13T15:24:55Z</time>
      </trkpt>
      <trkpt lat="32.805422963574529" lon="-4.370893025770783">
        <ele>1092.7</ele>
        <time>2003-04-13T15:25:01Z</time>
      </trkpt>
      <trkpt lat="32.805396979674697" lon="-4.372087027877569">
        <ele>1094.7</ele>
        <time>2003-04-13T15:25:06Z</time>
      </trkpt>
      <trkpt lat="32.805387005209923" lon="-4.373299973085523">
        <ele>1093.0999999999999</ele>
        <time>2003-04-13T15:25:10Z</time>
      </trkpt>
      <trkpt lat="32.80542497523129" lon="-4.373770030215383">
        <ele>1092.7</ele>
        <time>2003-04-13T15:25:13Z</time>
      </trkpt>
      <trkpt lat="32.805522959679365" lon="-4.374242015182972">
        <ele>1091.9000000000001</ele>
        <time>2003-04-13T15:25:14Z</time>
      </trkpt>
      <trkpt lat="32.805784977972507" lon="-4.374907035380602">
        <ele>1090.8</ele>
        <time>2003-04-13T15:25:17Z</time>
      </trkpt>
      <trkpt lat="32.806312032043934" lon="-4.375972039997578">
        <ele>1089.2</ele>
        <time>2003-04-13T15:25:22Z</time>
      </trkpt>
      <trkpt lat="32.806807989254594" lon="-4.377022963017225">
        <ele>1089.3</ele>
        <time>2003-04-13T15:25:28Z</time>
      </trkpt>
      <trkpt lat="32.807269999757409" lon="-4.37799802981317">
        <ele>1089.5999999999999</ele>
        <time>2003-04-13T15:25:33Z</time>
      </trkpt>
      <trkpt lat="32.80776503495872" lon="-4.379017017781735">
        <ele>1089.3</ele>
        <time>2003-04-13T15:25:37Z</time>
      </trkpt>
      <trkpt lat="32.808263003826141" lon="-4.380085039883852">
        <ele>1088.8</ele>
        <time>2003-04-13T15:25:43Z</time>
      </trkpt>
      <trkpt lat="32.808817969635129" lon="-4.381224978715181">
        <ele>1088.9000000000001</ele>
        <time>2003-04-13T15:25:48Z</time>
      </trkpt>
      <trkpt lat="32.809272017329931" lon="-4.382186969742179">
        <ele>1088.5</ele>
        <time>2003-04-13T15:25:52Z</time>
      </trkpt>
      <trkpt lat="32.80974299646914" lon="-4.383158013224602">
        <ele>1088.7</ele>
        <time>2003-04-13T15:25:56Z</time>
      </trkpt>
      <trkpt lat="32.810220010578632" lon="-4.384126961231232">
        <ele>1088.8</ele>
        <time>2003-04-13T15:26:00Z</time>
      </trkpt>
      <trkpt lat="32.810646984726191" lon="-4.385090041905642">
        <ele>1088.8</ele>
        <time>2003-04-13T15:26:04Z</time>
      </trkpt>
      <trkpt lat="32.811198011040688" lon="-4.386217994615436">
        <ele>1088.7</ele>
        <time>2003-04-13T15:26:08Z</time>
      </trkpt>
      <trkpt lat="32.811733027920127" lon="-4.387342007830739">
        <ele>1089.0999999999999</ele>
        <time>2003-04-13T15:26:14Z</time>
      </trkpt>
      <trkpt lat="32.812280030921102" lon="-4.3884820304811">
        <ele>1089.5</ele>
        <time>2003-04-13T15:26:19Z</time>
      </trkpt>
      <trkpt lat="32.812714967876673" lon="-4.38942801207304">
        <ele>1089.2</ele>
        <time>2003-04-13T15:26:23Z</time>
      </trkpt>
      <trkpt lat="32.813176978379488" lon="-4.390378016978502">
        <ele>1089.2</ele>
        <time>2003-04-13T15:26:27Z</time>
      </trkpt>
      <trkpt lat="32.813648041337729" lon="-4.391352999955416">
        <ele>1089.5</ele>
        <time>2003-04-13T15:26:31Z</time>
      </trkpt>
      <trkpt lat="32.814154978841543" lon="-4.392320020124316">
        <ele>1090.7</ele>
        <time>2003-04-13T15:26:34Z</time>
      </trkpt>
      <trkpt lat="32.81468303874135" lon="-4.393268013373017">
        <ele>1091.8</ele>
        <time>2003-04-13T15:26:38Z</time>
      </trkpt>
      <trkpt lat="32.815216965973377" lon="-4.394222963601351">
        <ele>1092.0999999999999</ele>
        <time>2003-04-13T15:26:42Z</time>
      </trkpt>
      <trkpt lat="32.815845021978021" lon="-4.395334990695119">
        <ele>1092.7</ele>
        <time>2003-04-13T15:26:47Z</time>
      </trkpt>
      <trkpt lat="32.816329998895526" lon="-4.39626001752913">
        <ele>1092.7</ele>
        <time>2003-04-13T15:26:51Z</time>
      </trkpt>
      <trkpt lat="32.816616995260119" lon="-4.396984968334436">
        <ele>1093.2</ele>
        <time>2003-04-13T15:26:54Z</time>
      </trkpt>
      <trkpt lat="32.816959982737899" lon="-4.398257005959749">
        <ele>1094</ele>
        <time>2003-04-13T15:27:00Z</time>
      </trkpt>
      <trkpt lat="32.817244967445731" lon="-4.399283034726977">
        <ele>1094.3</ele>
        <time>2003-04-13T15:27:04Z</time>
      </trkpt>
      <trkpt lat="32.817536992952228" lon="-4.400297999382019">
        <ele>1094.3</ele>
        <time>2003-04-13T15:27:08Z</time>
      </trkpt>
      <trkpt lat="32.817834969609976" lon="-4.401497030630708">
        <ele>1095.0999999999999</ele>
        <time>2003-04-13T15:27:13Z</time>
      </trkpt>
      <trkpt lat="32.818000009283423" lon="-4.40266496501863">
        <ele>1096.5999999999999</ele>
        <time>2003-04-13T15:27:17Z</time>
      </trkpt>
      <trkpt lat="32.818019958212972" lon="-4.403593009337783">
        <ele>1098</ele>
        <time>2003-04-13T15:27:21Z</time>
      </trkpt>
      <trkpt lat="32.818006966263056" lon="-4.403972961008549">
        <ele>1098.2</ele>
        <time>2003-04-13T15:27:24Z</time>
      </trkpt>
      <trkpt lat="32.817992968484759" lon="-4.404237996786833">
        <ele>1098.9000000000001</ele>
        <time>2003-04-13T15:27:25Z</time>
      </trkpt>
      <trkpt lat="32.817977964878082" lon="-4.404415022581816">
        <ele>1099.3</ele>
        <time>2003-04-13T15:27:28Z</time>
      </trkpt>
      <trkpt lat="32.817964972928166" lon="-4.404564974829555">
        <ele>1099.4000000000001</ele>
        <time>2003-04-13T15:27:29Z</time>
      </trkpt>
      <trkpt lat="32.81794804148376" lon="-4.404688021168113">
        <ele>1099.8</ele>
        <time>2003-04-13T15:27:33Z</time>
      </trkpt>
      <trkpt lat="32.8179079759866" lon="-4.404937969520688">
        <ele>1100.3</ele>
        <time>2003-04-13T15:28:15Z</time>
      </trkpt>
      <trkpt lat="32.817862965166569" lon="-4.405118012800813">
        <ele>1100.5</ele>
        <time>2003-04-13T15:28:18Z</time>
      </trkpt>
      <trkpt lat="32.817772021517158" lon="-4.405510034412146">
        <ele>1100.9000000000001</ele>
        <time>2003-04-13T15:28:22Z</time>
      </trkpt>
      <trkpt lat="32.817685017362237" lon="-4.405882023274899">
        <ele>1101.5</ele>
        <time>2003-04-13T15:28:25Z</time>
      </trkpt>
      <trkpt lat="32.817549984902143" lon="-4.40631696023047">
        <ele>1102.0999999999999</ele>
        <time>2003-04-13T15:28:27Z</time>
      </trkpt>
      <trkpt lat="32.817091997712851" lon="-4.407417001202703">
        <ele>1104</ele>
        <time>2003-04-13T15:28:34Z</time>
      </trkpt>
      <trkpt lat="32.816710034385324" lon="-4.40809702500701">
        <ele>1105.5999999999999</ele>
        <time>2003-04-13T15:28:38Z</time>
      </trkpt>
      <trkpt lat="32.816097987815738" lon="-4.40893798135221">
        <ele>1107</ele>
        <time>2003-04-13T15:28:44Z</time>
      </trkpt>
      <trkpt lat="32.815364990383387" lon="-4.409722024574876">
        <ele>1108.5999999999999</ele>
        <time>2003-04-13T15:28:49Z</time>
      </trkpt>
      <trkpt lat="32.814527973532677" lon="-4.410449992865324">
        <ele>1110.2</ele>
        <time>2003-04-13T15:28:53Z</time>
      </trkpt>
      <trkpt lat="32.813662039116025" lon="-4.411234958097339">
        <ele>1111.2</ele>
        <time>2003-04-13T15:28:58Z</time>
      </trkpt>
      <trkpt lat="32.812765007838607" lon="-4.412044985219836">
        <ele>1112.4000000000001</ele>
        <time>2003-04-13T15:29:04Z</time>
      </trkpt>
      <trkpt lat="32.812026981264353" lon="-4.412712017074227">
        <ele>1113.5</ele>
        <time>2003-04-13T15:29:08Z</time>
      </trkpt>
      <trkpt lat="32.811266994103789" lon="-4.413382988423109">
        <ele>1114.4000000000001</ele>
        <time>2003-04-13T15:29:12Z</time>
      </trkpt>
      <trkpt lat="32.810498038306832" lon="-4.414078015834093">
        <ele>1115.8</ele>
        <time>2003-04-13T15:29:16Z</time>
      </trkpt>
      <trkpt lat="32.80972003005445" lon="-4.414777988567948">
        <ele>1117.0999999999999</ele>
        <time>2003-04-13T15:29:20Z</time>
      </trkpt>
      <trkpt lat="32.808930035680532" lon="-4.415481984615326">
        <ele>1118.5999999999999</ele>
        <time>2003-04-13T15:29:24Z</time>
      </trkpt>
      <trkpt lat="32.808133000507951" lon="-4.416199978441">
        <ele>1119.2</ele>
        <time>2003-04-13T15:29:28Z</time>
      </trkpt>
      <trkpt lat="32.807328002527356" lon="-4.416925013065338">
        <ele>1119.8</ele>
        <time>2003-04-13T15:29:32Z</time>
      </trkpt>
      <trkpt lat="32.806543037295341" lon="-4.417634960263968">
        <ele>1121.5</ele>
        <time>2003-04-13T15:29:36Z</time>
      </trkpt>
      <trkpt lat="32.805781960487366" lon="-4.418307021260262">
        <ele>1122.8</ele>
        <time>2003-04-13T15:29:40Z</time>
      </trkpt>
      <trkpt lat="32.804889958351851" lon="-4.419122999534011">
        <ele>1124</ele>
        <time>2003-04-13T15:29:44Z</time>
      </trkpt>
      <trkpt lat="32.804150003939867" lon="-4.419779973104596">
        <ele>1125.2</ele>
        <time>2003-04-13T15:29:48Z</time>
      </trkpt>
      <trkpt lat="32.803403008729219" lon="-4.420456979423761">
        <ele>1126.3</ele>
        <time>2003-04-13T15:29:52Z</time>
      </trkpt>
      <trkpt lat="32.802657019346952" lon="-4.421129962429404">
        <ele>1127.3</ele>
        <time>2003-04-13T15:29:56Z</time>
      </trkpt>
      <trkpt lat="32.801931984722614" lon="-4.421770004555583">
        <ele>1128.0999999999999</ele>
        <time>2003-04-13T15:30:00Z</time>
      </trkpt>
      <trkpt lat="32.801209967583418" lon="-4.422426978126168">
        <ele>1128.8</ele>
        <time>2003-04-13T15:30:05Z</time>
      </trkpt>
      <trkpt lat="32.800473030656576" lon="-4.423082023859024">
        <ele>1129.5999999999999</ele>
        <time>2003-04-13T15:30:09Z</time>
      </trkpt>
      <trkpt lat="32.799735004082322" lon="-4.423752995207906">
        <ele>1130.4000000000001</ele>
        <time>2003-04-13T15:30:13Z</time>
      </trkpt>
      <trkpt lat="32.798997983336449" lon="-4.424402005970478">
        <ele>1131.7</ele>
        <time>2003-04-13T15:30:17Z</time>
      </trkpt>
      <trkpt lat="32.798283006995916" lon="-4.425055040046573">
        <ele>1133.2</ele>
        <time>2003-04-13T15:30:21Z</time>
      </trkpt>
      <trkpt lat="32.797397039830685" lon="-4.425840005278587">
        <ele>1134.5999999999999</ele>
        <time>2003-04-13T15:30:26Z</time>
      </trkpt>
      <trkpt lat="32.796539990231395" lon="-4.426620025187731">
        <ele>1135.9000000000001</ele>
        <time>2003-04-13T15:30:30Z</time>
      </trkpt>
      <trkpt lat="32.795659974217415" lon="-4.427438015118241">
        <ele>1137.5999999999999</ele>
        <time>2003-04-13T15:30:36Z</time>
      </trkpt>
      <trkpt lat="32.794947009533644" lon="-4.428134970366955">
        <ele>1138.7</ele>
        <time>2003-04-13T15:30:40Z</time>
      </trkpt>
      <trkpt lat="32.794215017929673" lon="-4.428852964192629">
        <ele>1140.0999999999999</ele>
        <time>2003-04-13T15:30:44Z</time>
      </trkpt>
      <trkpt lat="32.793465005233884" lon="-4.429586967453361">
        <ele>1141.9000000000001</ele>
        <time>2003-04-13T15:30:48Z</time>
      </trkpt>
      <trkpt lat="32.792696971446276" lon="-4.430321976542473">
        <ele>1143.5999999999999</ele>
        <time>2003-04-13T15:30:52Z</time>
      </trkpt>
      <trkpt lat="32.791936984285712" lon="-4.431080035865307">
        <ele>1145.0999999999999</ele>
        <time>2003-04-13T15:30:56Z</time>
      </trkpt>
      <trkpt lat="32.791182026267052" lon="-4.431822001934052">
        <ele>1146.4000000000001</ele>
        <time>2003-04-13T15:31:00Z</time>
      </trkpt>
      <trkpt lat="32.790494961664081" lon="-4.432515017688274">
        <ele>1147.5</ele>
        <time>2003-04-13T15:31:04Z</time>
      </trkpt>
      <trkpt lat="32.789683006703854" lon="-4.433295037597418">
        <ele>1148.8</ele>
        <time>2003-04-13T15:31:08Z</time>
      </trkpt>
      <trkpt lat="32.788840038701892" lon="-4.434107998386025">
        <ele>1150.4000000000001</ele>
        <time>2003-04-13T15:31:13Z</time>
      </trkpt>
      <trkpt lat="32.788033029064536" lon="-4.434917019680142">
        <ele>1152</ele>
        <time>2003-04-13T15:31:19Z</time>
      </trkpt>
      <trkpt lat="32.78716298751533" lon="-4.435695027932525">
        <ele>1153.3</ele>
        <time>2003-04-13T15:31:24Z</time>
      </trkpt>
      <trkpt lat="32.78640802949667" lon="-4.436312019824982">
        <ele>1154.5999999999999</ele>
        <time>2003-04-13T15:31:28Z</time>
      </trkpt>
      <trkpt lat="32.785617029294372" lon="-4.436909984797239">
        <ele>1157</ele>
        <time>2003-04-13T15:31:31Z</time>
      </trkpt>
      <trkpt lat="32.784782024100423" lon="-4.437454976141453">
        <ele>1158.9000000000001</ele>
        <time>2003-04-13T15:31:35Z</time>
      </trkpt>
      <trkpt lat="32.783918017521501" lon="-4.437987981364131">
        <ele>1160.2</ele>
        <time>2003-04-13T15:31:39Z</time>
      </trkpt>
      <trkpt lat="32.783028027042747" lon="-4.438525009900332">
        <ele>1160.7</ele>
        <time>2003-04-13T15:31:43Z</time>
      </trkpt>
      <trkpt lat="32.78213300742209" lon="-4.439085004851222">
        <ele>1161.0999999999999</ele>
        <time>2003-04-13T15:31:47Z</time>
      </trkpt>
      <trkpt lat="32.781228013336658" lon="-4.439633013680577">
        <ele>1162.5</ele>
        <time>2003-04-13T15:31:51Z</time>
      </trkpt>
      <trkpt lat="32.780325030907989" lon="-4.440186973661184">
        <ele>1164.0999999999999</ele>
        <time>2003-04-13T15:31:55Z</time>
      </trkpt>
      <trkpt lat="32.779439985752106" lon="-4.440728025510907">
        <ele>1165.3</ele>
        <time>2003-04-13T15:31:59Z</time>
      </trkpt>
      <trkpt lat="32.778576985001564" lon="-4.441264970228076">
        <ele>1167.2</ele>
        <time>2003-04-13T15:32:03Z</time>
      </trkpt>
      <trkpt lat="32.777726976200938" lon="-4.441795041784644">
        <ele>1168.8</ele>
        <time>2003-04-13T15:32:07Z</time>
      </trkpt>
      <trkpt lat="32.776900017634034" lon="-4.442293010652065">
        <ele>1170.3</ele>
        <time>2003-04-13T15:32:11Z</time>
      </trkpt>
      <trkpt lat="32.776083033531904" lon="-4.442800031974912">
        <ele>1171.9000000000001</ele>
        <time>2003-04-13T15:32:15Z</time>
      </trkpt>
      <trkpt lat="32.775263031944633" lon="-4.443306969478726">
        <ele>1173.5999999999999</ele>
        <time>2003-04-13T15:32:20Z</time>
      </trkpt>
      <trkpt lat="32.774432972073555" lon="-4.443808039650321">
        <ele>1175.0999999999999</ele>
        <time>2003-04-13T15:32:24Z</time>
      </trkpt>
      <trkpt lat="32.77360500767827" lon="-4.444325035437942">
        <ele>1176.9000000000001</ele>
        <time>2003-04-13T15:32:28Z</time>
      </trkpt>
      <trkpt lat="32.772802021354437" lon="-4.444885030388832">
        <ele>1178.4000000000001</ele>
        <time>2003-04-13T15:32:32Z</time>
      </trkpt>
      <trkpt lat="32.772022001445293" lon="-4.445521971210837">
        <ele>1179.0999999999999</ele>
        <time>2003-04-13T15:32:36Z</time>
      </trkpt>
      <trkpt lat="32.771277017891407" lon="-4.446244994178414">
        <ele>1179.9000000000001</ele>
        <time>2003-04-13T15:32:40Z</time>
      </trkpt>
      <trkpt lat="32.770562963560224" lon="-4.447019984945655">
        <ele>1180.8</ele>
        <time>2003-04-13T15:32:44Z</time>
      </trkpt>
      <trkpt lat="32.769861984997988" lon="-4.447764968499541">
        <ele>1181.9000000000001</ele>
        <time>2003-04-13T15:32:48Z</time>
      </trkpt>
      <trkpt lat="32.769172992557287" lon="-4.448522021993995">
        <ele>1183</ele>
        <time>2003-04-13T15:32:52Z</time>
      </trkpt>
      <trkpt lat="32.768476959317923" lon="-4.449279997497797">
        <ele>1184.2</ele>
        <time>2003-04-13T15:32:56Z</time>
      </trkpt>
      <trkpt lat="32.767772041261196" lon="-4.450045013800263">
        <ele>1185.4000000000001</ele>
        <time>2003-04-13T15:33:00Z</time>
      </trkpt>
      <trkpt lat="32.767057986930013" lon="-4.450822016224265">
        <ele>1186.3</ele>
        <time>2003-04-13T15:33:04Z</time>
      </trkpt>
      <trkpt lat="32.766337981447577" lon="-4.451600024476647">
        <ele>1186.7</ele>
        <time>2003-04-13T15:33:08Z</time>
      </trkpt>
      <trkpt lat="32.765631973743439" lon="-4.452367974445224">
        <ele>1187.0999999999999</ele>
        <time>2003-04-13T15:33:12Z</time>
      </trkpt>
      <trkpt lat="32.764912974089384" lon="-4.453078005462885">
        <ele>1189.3</ele>
        <time>2003-04-13T15:33:16Z</time>
      </trkpt>
      <trkpt lat="32.764030024409294" lon="-4.453873028978705">
        <ele>1191.8</ele>
        <time>2003-04-13T15:33:20Z</time>
      </trkpt>
      <trkpt lat="32.763167023658752" lon="-4.454667968675494">
        <ele>1193.2</ele>
        <time>2003-04-13T15:33:26Z</time>
      </trkpt>
      <trkpt lat="32.762305028736591" lon="-4.455459974706173">
        <ele>1194.5999999999999</ele>
        <time>2003-04-13T15:33:31Z</time>
      </trkpt>
      <trkpt lat="32.76144303381443" lon="-4.456243012100458">
        <ele>1197.0999999999999</ele>
        <time>2003-04-13T15:33:35Z</time>
      </trkpt>
      <trkpt lat="32.760572992265224" lon="-4.457038035616279">
        <ele>1198.9000000000001</ele>
        <time>2003-04-13T15:33:41Z</time>
      </trkpt>
      <trkpt lat="32.759688030928373" lon="-4.457846973091364">
        <ele>1201.0999999999999</ele>
        <time>2003-04-13T15:33:46Z</time>
      </trkpt>
      <trkpt lat="32.758967019617558" lon="-4.458494978025556">
        <ele>1203.0999999999999</ele>
        <time>2003-04-13T15:33:50Z</time>
      </trkpt>
      <trkpt lat="32.758256988599896" lon="-4.459157986566424">
        <ele>1205.5</ele>
        <time>2003-04-13T15:33:54Z</time>
      </trkpt>
      <trkpt lat="32.757564978674054" lon="-4.459843039512634">
        <ele>1207.3</ele>
        <time>2003-04-13T15:33:58Z</time>
      </trkpt>
      <trkpt lat="32.756880009546876" lon="-4.460552986711264">
        <ele>1208.2</ele>
        <time>2003-04-13T15:34:02Z</time>
      </trkpt>
      <trkpt lat="32.756037963554263" lon="-4.461422022432089">
        <ele>1209.5999999999999</ele>
        <time>2003-04-13T15:34:06Z</time>
      </trkpt>
      <trkpt lat="32.755227014422417" lon="-4.462249986827374">
        <ele>1210</ele>
        <time>2003-04-13T15:34:12Z</time>
      </trkpt>
      <trkpt lat="32.754392009228468" lon="-4.463122962042689">
        <ele>1208.5999999999999</ele>
        <time>2003-04-13T15:34:17Z</time>
      </trkpt>
      <trkpt lat="32.753690024837852" lon="-4.46383299306035">
        <ele>1208.0999999999999</ele>
        <time>2003-04-13T15:34:21Z</time>
      </trkpt>
      <trkpt lat="32.752989968284965" lon="-4.464547969400883">
        <ele>1210.8</ele>
        <time>2003-04-13T15:34:25Z</time>
      </trkpt>
      <trkpt lat="32.752297958359122" lon="-4.465256994590163">
        <ele>1214.3</ele>
        <time>2003-04-13T15:34:29Z</time>
      </trkpt>
      <trkpt lat="32.751507963985205" lon="-4.466078002005816">
        <ele>1217.8</ele>
        <time>2003-04-13T15:34:33Z</time>
      </trkpt>
      <trkpt lat="32.750719981268048" lon="-4.466894986107945">
        <ele>1221.2</ele>
        <time>2003-04-13T15:34:39Z</time>
      </trkpt>
      <trkpt lat="32.749968040734529" lon="-4.467665031552315">
        <ele>1225.5</ele>
        <time>2003-04-13T15:34:44Z</time>
      </trkpt>
      <trkpt lat="32.74919698946178" lon="-4.468397023156285">
        <ele>1229.7</ele>
        <time>2003-04-13T15:34:48Z</time>
      </trkpt>
      <trkpt lat="32.748368019238114" lon="-4.469109987840056">
        <ele>1232.0999999999999</ele>
        <time>2003-04-13T15:34:53Z</time>
      </trkpt>
      <trkpt lat="32.74749998934567" lon="-4.469767967239022">
        <ele>1233.7</ele>
        <time>2003-04-13T15:34:59Z</time>
      </trkpt>
      <trkpt lat="32.746585020795465" lon="-4.470389988273382">
        <ele>1235</ele>
        <time>2003-04-13T15:35:04Z</time>
      </trkpt>
      <trkpt lat="32.745729982852936" lon="-4.470983007922769">
        <ele>1236.5</ele>
        <time>2003-04-13T15:35:08Z</time>
      </trkpt>
      <trkpt lat="32.744926996529102" lon="-4.471522970125079">
        <ele>1237.5</ele>
        <time>2003-04-13T15:35:14Z</time>
      </trkpt>
      <trkpt lat="32.744068019092083" lon="-4.472084976732731">
        <ele>1238.7</ele>
        <time>2003-04-13T15:35:19Z</time>
      </trkpt>
      <trkpt lat="32.74318004027009" lon="-4.472706997767091">
        <ele>1240.7</ele>
        <time>2003-04-13T15:35:23Z</time>
      </trkpt>
      <trkpt lat="32.742240009829402" lon="-4.473334969952703">
        <ele>1243.0999999999999</ele>
        <time>2003-04-13T15:35:29Z</time>
      </trkpt>
      <trkpt lat="32.741277012974024" lon="-4.473990015685558">
        <ele>1246.5</ele>
        <time>2003-04-13T15:35:34Z</time>
      </trkpt>
      <trkpt lat="32.740490036085248" lon="-4.474522015079856">
        <ele>1248.7</ele>
        <time>2003-04-13T15:35:38Z</time>
      </trkpt>
      <trkpt lat="32.739683026447892" lon="-4.47506801225245">
        <ele>1250.4000000000001</ele>
        <time>2003-04-13T15:35:42Z</time>
      </trkpt>
      <trkpt lat="32.73886302486062" lon="-4.475628007203341">
        <ele>1252.3</ele>
        <time>2003-04-13T15:35:46Z</time>
      </trkpt>
      <trkpt lat="32.738032964989543" lon="-4.476188002154231">
        <ele>1254</ele>
        <time>2003-04-13T15:35:50Z</time>
      </trkpt>
      <trkpt lat="32.737307008355856" lon="-4.476687982678413">
        <ele>1255.3</ele>
        <time>2003-04-13T15:35:54Z</time>
      </trkpt>
      <trkpt lat="32.736507961526513" lon="-4.477219982072711">
        <ele>1256.8</ele>
        <time>2003-04-13T15:35:58Z</time>
      </trkpt>
      <trkpt lat="32.735970010980964" lon="-4.477588031440973">
        <ele>1258.0999999999999</ele>
        <time>2003-04-13T15:36:02Z</time>
      </trkpt>
      <trkpt lat="32.735773036256433" lon="-4.477722980082035">
        <ele>1258.5999999999999</ele>
        <time>2003-04-13T15:36:05Z</time>
      </trkpt>
      <trkpt lat="32.735601961612701" lon="-4.47783999145031">
        <ele>1259.0999999999999</ele>
        <time>2003-04-13T15:36:06Z</time>
      </trkpt>
      <trkpt lat="32.73516995832324" lon="-4.478099998086691">
        <ele>1260</ele>
        <time>2003-04-13T15:36:10Z</time>
      </trkpt>
      <trkpt lat="32.734922021627426" lon="-4.478288004174829">
        <ele>1260.2</ele>
        <time>2003-04-13T15:36:13Z</time>
      </trkpt>
      <trkpt lat="32.734097996726632" lon="-4.478847999125719">
        <ele>1262.7</ele>
        <time>2003-04-13T15:36:18Z</time>
      </trkpt>
      <trkpt lat="32.733306996524334" lon="-4.479401959106326">
        <ele>1264.5999999999999</ele>
        <time>2003-04-13T15:36:24Z</time>
      </trkpt>
      <trkpt lat="32.732501998543739" lon="-4.480100004002452">
        <ele>1266.0999999999999</ele>
        <time>2003-04-13T15:36:28Z</time>
      </trkpt>
      <trkpt lat="32.731779981404543" lon="-4.480877006426454">
        <ele>1267.7</ele>
        <time>2003-04-13T15:36:33Z</time>
      </trkpt>
      <trkpt lat="32.731157960370183" lon="-4.481713017448783">
        <ele>1269.5999999999999</ele>
        <time>2003-04-13T15:36:39Z</time>
      </trkpt>
      <trkpt lat="32.730572987347841" lon="-4.482635026797652">
        <ele>1271.2</ele>
        <time>2003-04-13T15:36:44Z</time>
      </trkpt>
      <trkpt lat="32.729973010718822" lon="-4.483625013381243">
        <ele>1273.4000000000001</ele>
        <time>2003-04-13T15:36:48Z</time>
      </trkpt>
      <trkpt lat="32.729355012997985" lon="-4.484637966379523">
        <ele>1275.2</ele>
        <time>2003-04-13T15:36:54Z</time>
      </trkpt>
      <trkpt lat="32.728784959763288" lon="-4.485570034012198">
        <ele>1277.8</ele>
        <time>2003-04-13T15:36:59Z</time>
      </trkpt>
      <trkpt lat="32.728211972862482" lon="-4.486509980633855">
        <ele>1280.5999999999999</ele>
        <time>2003-04-13T15:37:03Z</time>
      </trkpt>
      <trkpt lat="32.727594980970025" lon="-4.487495021894574">
        <ele>1283</ele>
        <time>2003-04-13T15:37:08Z</time>
      </trkpt>
      <trkpt lat="32.726974971592426" lon="-4.488554997369647">
        <ele>1285.4000000000001</ele>
        <time>2003-04-13T15:37:14Z</time>
      </trkpt>
      <trkpt lat="32.726322021335363" lon="-4.489595023915172">
        <ele>1287.9000000000001</ele>
        <time>2003-04-13T15:37:19Z</time>
      </trkpt>
      <trkpt lat="32.725675022229552" lon="-4.490643013268709">
        <ele>1290.8</ele>
        <time>2003-04-13T15:37:23Z</time>
      </trkpt>
      <trkpt lat="32.724997010082006" lon="-4.49169703759253">
        <ele>1293.7</ele>
        <time>2003-04-13T15:37:29Z</time>
      </trkpt>
      <trkpt lat="32.724414970725775" lon="-4.492522990331054">
        <ele>1296.3</ele>
        <time>2003-04-13T15:37:33Z</time>
      </trkpt>
      <trkpt lat="32.72378196939826" lon="-4.493322037160397">
        <ele>1298.7</ele>
        <time>2003-04-13T15:37:37Z</time>
      </trkpt>
      <trkpt lat="32.723137987777591" lon="-4.494128040969372">
        <ele>1299.5999999999999</ele>
        <time>2003-04-13T15:37:41Z</time>
      </trkpt>
      <trkpt lat="32.722497023642063" lon="-4.494933038949966">
        <ele>1301.0999999999999</ele>
        <time>2003-04-13T15:37:45Z</time>
      </trkpt>
      <trkpt lat="32.721857987344265" lon="-4.495742982253432">
        <ele>1302.3</ele>
        <time>2003-04-13T15:37:49Z</time>
      </trkpt>
      <trkpt lat="32.721230015158653" lon="-4.496527025476098">
        <ele>1303.9000000000001</ele>
        <time>2003-04-13T15:37:53Z</time>
      </trkpt>
      <trkpt lat="32.720495006069541" lon="-4.497450040653348">
        <ele>1306.5</ele>
        <time>2003-04-13T15:37:57Z</time>
      </trkpt>
      <trkpt lat="32.719778018072248" lon="-4.498327039182186">
        <ele>1308.4000000000001</ele>
        <time>2003-04-13T15:38:02Z</time>
      </trkpt>
      <trkpt lat="32.719049965962768" lon="-4.49919699691236">
        <ele>1312.3</ele>
        <time>2003-04-13T15:38:08Z</time>
      </trkpt>
      <trkpt lat="32.71828000433743" lon="-4.500027978792787">
        <ele>1315.8</ele>
        <time>2003-04-13T15:38:13Z</time>
      </trkpt>
      <trkpt lat="32.716897996142507" lon="-4.501315020024777">
        <ele>1319.4000000000001</ele>
        <time>2003-04-13T15:38:20Z</time>
      </trkpt>
      <trkpt lat="32.715991996228695" lon="-4.502077018842101">
        <ele>1323.4000000000001</ele>
        <time>2003-04-13T15:38:25Z</time>
      </trkpt>
      <trkpt lat="32.715254975482821" lon="-4.502704991027713">
        <ele>1326</ele>
        <time>2003-04-13T15:38:29Z</time>
      </trkpt>
      <trkpt lat="32.714509991928935" lon="-4.50334201566875">
        <ele>1328.5999999999999</ele>
        <time>2003-04-13T15:38:33Z</time>
      </trkpt>
      <trkpt lat="32.713753022253513" lon="-4.503982979804277">
        <ele>1331.3</ele>
        <time>2003-04-13T15:38:38Z</time>
      </trkpt>
      <trkpt lat="32.712994962930679" lon="-4.504644982516766">
        <ele>1333.9000000000001</ele>
        <time>2003-04-13T15:38:42Z</time>
      </trkpt>
      <trkpt lat="32.712247967720032" lon="-4.505346966907382">
        <ele>1335.3</ele>
        <time>2003-04-13T15:38:46Z</time>
      </trkpt>
      <trkpt lat="32.711527962237597" lon="-4.50611500069499">
        <ele>1336.8</ele>
        <time>2003-04-13T15:38:50Z</time>
      </trkpt>
      <trkpt lat="32.710836958140135" lon="-4.506935002282262">
        <ele>1339.4000000000001</ele>
        <time>2003-04-13T15:38:54Z</time>
      </trkpt>
      <trkpt lat="32.710187025368214" lon="-4.507798003032804">
        <ele>1342.2</ele>
        <time>2003-04-13T15:38:58Z</time>
      </trkpt>
      <trkpt lat="32.70957799628377" lon="-4.508710037916899">
        <ele>1343.5999999999999</ele>
        <time>2003-04-13T15:39:02Z</time>
      </trkpt>
      <trkpt lat="32.708995034918189" lon="-4.509651996195316">
        <ele>1345.2</ele>
        <time>2003-04-13T15:39:06Z</time>
      </trkpt>
      <trkpt lat="32.708467980846763" lon="-4.510639971122146">
        <ele>1346.7</ele>
        <time>2003-04-13T15:39:10Z</time>
      </trkpt>
      <trkpt lat="32.707973029464483" lon="-4.51165703125298">
        <ele>1348.5999999999999</ele>
        <time>2003-04-13T15:39:14Z</time>
      </trkpt>
      <trkpt lat="32.707514958456159" lon="-4.512686999514699">
        <ele>1349.5999999999999</ele>
        <time>2003-04-13T15:39:18Z</time>
      </trkpt>
      <trkpt lat="32.707072980701923" lon="-4.513685032725334">
        <ele>1350.5999999999999</ele>
        <time>2003-04-13T15:39:22Z</time>
      </trkpt>
      <trkpt lat="32.706624967977405" lon="-4.51466697268188">
        <ele>1352.8</ele>
        <time>2003-04-13T15:39:26Z</time>
      </trkpt>
      <trkpt lat="32.706190031021833" lon="-4.515642039477825">
        <ele>1355</ele>
        <time>2003-04-13T15:39:30Z</time>
      </trkpt>
      <trkpt lat="32.705762973055243" lon="-4.516637977212668">
        <ele>1356.2</ele>
        <time>2003-04-13T15:39:34Z</time>
      </trkpt>
      <trkpt lat="32.705352008342743" lon="-4.517672974616289">
        <ele>1356.8</ele>
        <time>2003-04-13T15:39:38Z</time>
      </trkpt>
      <trkpt lat="32.704942971467972" lon="-4.518743008375168">
        <ele>1357</ele>
        <time>2003-04-13T15:39:42Z</time>
      </trkpt>
      <trkpt lat="32.704497976228595" lon="-4.519831985235214">
        <ele>1356.0999999999999</ele>
        <time>2003-04-13T15:39:46Z</time>
      </trkpt>
      <trkpt lat="32.704072007909417" lon="-4.520932026207447">
        <ele>1359</ele>
        <time>2003-04-13T15:39:50Z</time>
      </trkpt>
      <trkpt lat="32.703645033761859" lon="-4.522010022774339">
        <ele>1361.8</ele>
        <time>2003-04-13T15:39:54Z</time>
      </trkpt>
      <trkpt lat="32.703232979401946" lon="-4.523060023784638">
        <ele>1362.3</ele>
        <time>2003-04-13T15:39:59Z</time>
      </trkpt>
      <trkpt lat="32.702855039387941" lon="-4.524044981226325">
        <ele>1362.0999999999999</ele>
        <time>2003-04-13T15:40:03Z</time>
      </trkpt>
      <trkpt lat="32.702463017776608" lon="-4.525039996951819">
        <ele>1360.3</ele>
        <time>2003-04-13T15:40:07Z</time>
      </trkpt>
      <trkpt lat="32.702063033357263" lon="-4.526050016283989">
        <ele>1358.7</ele>
        <time>2003-04-13T15:40:11Z</time>
      </trkpt>
      <trkpt lat="32.701677968725562" lon="-4.527055006474257">
        <ele>1362</ele>
        <time>2003-04-13T15:40:15Z</time>
      </trkpt>
      <trkpt lat="32.701227022334933" lon="-4.52824498526752">
        <ele>1365.7</ele>
        <time>2003-04-13T15:40:20Z</time>
      </trkpt>
      <trkpt lat="32.700756965205073" lon="-4.529396994039416">
        <ele>1368.0999999999999</ele>
        <time>2003-04-13T15:40:24Z</time>
      </trkpt>
      <trkpt lat="32.700292021036148" lon="-4.530574986711144">
        <ele>1370.5999999999999</ele>
        <time>2003-04-13T15:40:30Z</time>
      </trkpt>
      <trkpt lat="32.699811989441514" lon="-4.531782986596227">
        <ele>1372.3</ele>
        <time>2003-04-13T15:40:35Z</time>
      </trkpt>
      <trkpt lat="32.699430026113987" lon="-4.53277800232172">
        <ele>1373.4000000000001</ele>
        <time>2003-04-13T15:40:39Z</time>
      </trkpt>
      <trkpt lat="32.699030041694641" lon="-4.533785004168749">
        <ele>1374.7</ele>
        <time>2003-04-13T15:40:43Z</time>
      </trkpt>
      <trkpt lat="32.698625028133392" lon="-4.534810027107596">
        <ele>1375.5</ele>
        <time>2003-04-13T15:40:47Z</time>
      </trkpt>
      <trkpt lat="32.698218002915382" lon="-4.535849969834089">
        <ele>1377</ele>
        <time>2003-04-13T15:40:51Z</time>
      </trkpt>
      <trkpt lat="32.697812989354134" lon="-4.536893013864756">
        <ele>1378.8</ele>
        <time>2003-04-13T15:40:55Z</time>
      </trkpt>
      <trkpt lat="32.697458015754819" lon="-4.537964975461364">
        <ele>1380.5</ele>
        <time>2003-04-13T15:40:58Z</time>
      </trkpt>
      <trkpt lat="32.697203038260341" lon="-4.539078008383513">
        <ele>1382.5999999999999</ele>
        <time>2003-04-13T15:41:02Z</time>
      </trkpt>
      <trkpt lat="32.6970100030303" lon="-4.540207972750068">
        <ele>1384.5999999999999</ele>
        <time>2003-04-13T15:41:06Z</time>
      </trkpt>
      <trkpt lat="32.696819985285401" lon="-4.541337015107274">
        <ele>1386</ele>
        <time>2003-04-13T15:41:10Z</time>
      </trkpt>
      <trkpt lat="32.696629967540503" lon="-4.542462034150958">
        <ele>1387.2</ele>
        <time>2003-04-13T15:41:14Z</time>
      </trkpt>
      <trkpt lat="32.696440033614635" lon="-4.543591998517513">
        <ele>1387.8</ele>
        <time>2003-04-13T15:41:18Z</time>
      </trkpt>
      <trkpt lat="32.696254961192608" lon="-4.544700002297759">
        <ele>1388.5</ele>
        <time>2003-04-13T15:41:22Z</time>
      </trkpt>
      <trkpt lat="32.696038037538528" lon="-4.545921999961138">
        <ele>1389.2</ele>
        <time>2003-04-13T15:41:28Z</time>
      </trkpt>
      <trkpt lat="32.695850031450391" lon="-4.547122959047556">
        <ele>1390.7</ele>
        <time>2003-04-13T15:41:33Z</time>
      </trkpt>
      <trkpt lat="32.695645010098815" lon="-4.548325007781386">
        <ele>1391.7</ele>
        <time>2003-04-13T15:41:37Z</time>
      </trkpt>
      <trkpt lat="32.695433031767607" lon="-4.549567038193345">
        <ele>1393</ele>
        <time>2003-04-13T15:41:42Z</time>
      </trkpt>
      <trkpt lat="32.695221975445747" lon="-4.5508679933846">
        <ele>1394.8</ele>
        <time>2003-04-13T15:41:48Z</time>
      </trkpt>
      <trkpt lat="32.695037992671132" lon="-4.551944984123111">
        <ele>1396.0999999999999</ele>
        <time>2003-04-13T15:41:52Z</time>
      </trkpt>
      <trkpt lat="32.694846969097853" lon="-4.553047036752105">
        <ele>1397.2</ele>
        <time>2003-04-13T15:41:56Z</time>
      </trkpt>
      <trkpt lat="32.694657035171986" lon="-4.554182030260563">
        <ele>1397.5</ele>
        <time>2003-04-13T15:42:00Z</time>
      </trkpt>
      <trkpt lat="32.694457964971662" lon="-4.555351976305246">
        <ele>1397.7</ele>
        <time>2003-04-13T15:42:04Z</time>
      </trkpt>
      <trkpt lat="32.694256966933608" lon="-4.556527035310864">
        <ele>1399.8</ele>
        <time>2003-04-13T15:42:08Z</time>
      </trkpt>
      <trkpt lat="32.694068038836122" lon="-4.557690024375916">
        <ele>1401.9000000000001</ele>
        <time>2003-04-13T15:42:12Z</time>
      </trkpt>
      <trkpt lat="32.693875003606081" lon="-4.558846978470683">
        <ele>1403.9000000000001</ele>
        <time>2003-04-13T15:42:16Z</time>
      </trkpt>
      <trkpt lat="32.693665036931634" lon="-4.559993036091328">
        <ele>1405.5999999999999</ele>
        <time>2003-04-13T15:42:19Z</time>
      </trkpt>
      <trkpt lat="32.693436965346336" lon="-4.561131969094276">
        <ele>1407.5999999999999</ele>
        <time>2003-04-13T15:42:23Z</time>
      </trkpt>
      <trkpt lat="32.693162960931659" lon="-4.562235027551651">
        <ele>1410.3</ele>
        <time>2003-04-13T15:42:27Z</time>
      </trkpt>
      <trkpt lat="32.692862972617149" lon="-4.563316963613033">
        <ele>1412.7</ele>
        <time>2003-04-13T15:42:31Z</time>
      </trkpt>
      <trkpt lat="32.692521996796131" lon="-4.56438004039228">
        <ele>1414.8</ele>
        <time>2003-04-13T15:42:35Z</time>
      </trkpt>
      <trkpt lat="32.692167023196816" lon="-4.565447978675365">
        <ele>1415.9000000000001</ele>
        <time>2003-04-13T15:42:39Z</time>
      </trkpt>
      <trkpt lat="32.691756980493665" lon="-4.566502002999187">
        <ele>1417.3</ele>
        <time>2003-04-13T15:42:43Z</time>
      </trkpt>
      <trkpt lat="32.691335035488009" lon="-4.56754001788795">
        <ele>1421</ele>
        <time>2003-04-13T15:42:47Z</time>
      </trkpt>
      <trkpt lat="32.690904960036278" lon="-4.568560011684895">
        <ele>1424.2</ele>
        <time>2003-04-13T15:42:51Z</time>
      </trkpt>
      <trkpt lat="32.69047798588872" lon="-4.569591991603375">
        <ele>1425.5</ele>
        <time>2003-04-13T15:42:55Z</time>
      </trkpt>
      <trkpt lat="32.690041959285736" lon="-4.570639980956912">
        <ele>1426</ele>
        <time>2003-04-13T15:42:59Z</time>
      </trkpt>
      <trkpt lat="32.689601993188262" lon="-4.571672966703773">
        <ele>1428.0999999999999</ele>
        <time>2003-04-13T15:43:03Z</time>
      </trkpt>
      <trkpt lat="32.689177030697465" lon="-4.572705030441284">
        <ele>1430.3</ele>
        <time>2003-04-13T15:43:08Z</time>
      </trkpt>
      <trkpt lat="32.688749972730875" lon="-4.573719995096326">
        <ele>1432.0999999999999</ele>
        <time>2003-04-13T15:43:12Z</time>
      </trkpt>
      <trkpt lat="32.688334984704852" lon="-4.574728002771735">
        <ele>1433.5</ele>
        <time>2003-04-13T15:43:16Z</time>
      </trkpt>
      <trkpt lat="32.68794497475028" lon="-4.575707009062171">
        <ele>1434.5</ele>
        <time>2003-04-13T15:43:20Z</time>
      </trkpt>
      <trkpt lat="32.687442982569337" lon="-4.576869998127222">
        <ele>1438.3</ele>
        <time>2003-04-13T15:43:25Z</time>
      </trkpt>
      <trkpt lat="32.686967980116606" lon="-4.577991999685764">
        <ele>1440.8</ele>
        <time>2003-04-13T15:43:29Z</time>
      </trkpt>
      <trkpt lat="32.686491971835494" lon="-4.579132022336125">
        <ele>1442.0999999999999</ele>
        <time>2003-04-13T15:43:35Z</time>
      </trkpt>
      <trkpt lat="32.686013029888272" lon="-4.580301968380809">
        <ele>1443.7</ele>
        <time>2003-04-13T15:43:40Z</time>
      </trkpt>
      <trkpt lat="32.685489999130368" lon="-4.581479961052537">
        <ele>1445.0999999999999</ele>
        <time>2003-04-13T15:43:44Z</time>
      </trkpt>
      <trkpt lat="32.685057995840907" lon="-4.582432983443141">
        <ele>1446.9000000000001</ele>
        <time>2003-04-13T15:43:48Z</time>
      </trkpt>
      <trkpt lat="32.684615012258291" lon="-4.583372008055449">
        <ele>1450.3</ele>
        <time>2003-04-13T15:43:52Z</time>
      </trkpt>
      <trkpt lat="32.684177979826927" lon="-4.584308015182614">
        <ele>1453.5</ele>
        <time>2003-04-13T15:43:56Z</time>
      </trkpt>
      <trkpt lat="32.683742959052324" lon="-4.585249973461032">
        <ele>1456</ele>
        <time>2003-04-13T15:44:00Z</time>
      </trkpt>
      <trkpt lat="32.68330299295485" lon="-4.586193021386862">
        <ele>1458.2</ele>
        <time>2003-04-13T15:44:04Z</time>
      </trkpt>
      <trkpt lat="32.682863026857376" lon="-4.587132968008518">
        <ele>1460.7</ele>
        <time>2003-04-13T15:44:08Z</time>
      </trkpt>
      <trkpt lat="32.682433035224676" lon="-4.588078027591109">
        <ele>1462.9000000000001</ele>
        <time>2003-04-13T15:44:12Z</time>
      </trkpt>
      <trkpt lat="32.68199298530817" lon="-4.589019985869527">
        <ele>1465</ele>
        <time>2003-04-13T15:44:16Z</time>
      </trkpt>
      <trkpt lat="32.681555030867457" lon="-4.589969990774989">
        <ele>1467.3</ele>
        <time>2003-04-13T15:44:20Z</time>
      </trkpt>
      <trkpt lat="32.681107018142939" lon="-4.590927958488464">
        <ele>1469.5999999999999</ele>
        <time>2003-04-13T15:44:24Z</time>
      </trkpt>
      <trkpt lat="32.680666968226433" lon="-4.591897996142507">
        <ele>1471.9000000000001</ele>
        <time>2003-04-13T15:44:29Z</time>
      </trkpt>
      <trkpt lat="32.680242005735636" lon="-4.592882031574845">
        <ele>1473.8</ele>
        <time>2003-04-13T15:44:33Z</time>
      </trkpt>
      <trkpt lat="32.67986498773098" lon="-4.593894984573126">
        <ele>1476.2</ele>
        <time>2003-04-13T15:44:37Z</time>
      </trkpt>
      <trkpt lat="32.679532980546355" lon="-4.59493501111865">
        <ele>1477.5999999999999</ele>
        <time>2003-04-13T15:44:41Z</time>
      </trkpt>
      <trkpt lat="32.67924296669662" lon="-4.595998004078865">
        <ele>1479.9000000000001</ele>
        <time>2003-04-13T15:44:45Z</time>
      </trkpt>
      <trkpt lat="32.678990000858903" lon="-4.597080023959279">
        <ele>1481.9000000000001</ele>
        <time>2003-04-13T15:44:49Z</time>
      </trkpt>
      <trkpt lat="32.678744997829199" lon="-4.598170006647706">
        <ele>1483.9000000000001</ele>
        <time>2003-04-13T15:44:53Z</time>
      </trkpt>
      <trkpt lat="32.678502006456256" lon="-4.599269963800907">
        <ele>1485.2</ele>
        <time>2003-04-13T15:44:57Z</time>
      </trkpt>
      <trkpt lat="32.678258009254932" lon="-4.600367993116379">
        <ele>1486</ele>
        <time>2003-04-13T15:45:01Z</time>
      </trkpt>
      <trkpt lat="32.678028009831905" lon="-4.601429980248213">
        <ele>1487.5</ele>
        <time>2003-04-13T15:45:05Z</time>
      </trkpt>
      <trkpt lat="32.677728021517396" lon="-4.602706963196397">
        <ele>1489.9000000000001</ele>
        <time>2003-04-13T15:45:09Z</time>
      </trkpt>
      <trkpt lat="32.677506990730762" lon="-4.603746989741921">
        <ele>1491.5</ele>
        <time>2003-04-13T15:45:13Z</time>
      </trkpt>
      <trkpt lat="32.677262993529439" lon="-4.604803025722504">
        <ele>1492.5999999999999</ele>
        <time>2003-04-13T15:45:17Z</time>
      </trkpt>
      <trkpt lat="32.677026959136128" lon="-4.605874987319112">
        <ele>1493.9000000000001</ele>
        <time>2003-04-13T15:45:21Z</time>
      </trkpt>
      <trkpt lat="32.676787991076708" lon="-4.606954995542765">
        <ele>1495.9000000000001</ele>
        <time>2003-04-13T15:45:25Z</time>
      </trkpt>
      <trkpt lat="32.676547011360526" lon="-4.608029974624515">
        <ele>1497.0999999999999</ele>
        <time>2003-04-13T15:45:29Z</time>
      </trkpt>
      <trkpt lat="32.676307037472725" lon="-4.609106965363026">
        <ele>1498.4000000000001</ele>
        <time>2003-04-13T15:45:33Z</time>
      </trkpt>
      <trkpt lat="32.676062034443021" lon="-4.610184961929917">
        <ele>1499.5</ele>
        <time>2003-04-13T15:45:37Z</time>
      </trkpt>
      <trkpt lat="32.67578199505806" lon="-4.611257007345557">
        <ele>1501.0999999999999</ele>
        <time>2003-04-13T15:45:41Z</time>
      </trkpt>
      <trkpt lat="32.675406988710165" lon="-4.612287981435657">
        <ele>1502.9000000000001</ele>
        <time>2003-04-13T15:45:45Z</time>
      </trkpt>
      <trkpt lat="32.674950007349253" lon="-4.613245027139783">
        <ele>1505.3</ele>
        <time>2003-04-13T15:45:50Z</time>
      </trkpt>
      <trkpt lat="32.67451498657465" lon="-4.614195032045245">
        <ele>1507.5</ele>
        <time>2003-04-13T15:45:54Z</time>
      </trkpt>
      <trkpt lat="32.674082983285189" lon="-4.615142019465566">
        <ele>1510.2</ele>
        <time>2003-04-13T15:45:58Z</time>
      </trkpt>
      <trkpt lat="32.673639999702573" lon="-4.61607500910759">
        <ele>1512.5999999999999</ele>
        <time>2003-04-13T15:46:02Z</time>
      </trkpt>
      <trkpt lat="32.673210008069873" lon="-4.617015039548278">
        <ele>1514.7</ele>
        <time>2003-04-13T15:46:06Z</time>
      </trkpt>
      <trkpt lat="32.672772975638509" lon="-4.617956997826695">
        <ele>1516.8</ele>
        <time>2003-04-13T15:46:10Z</time>
      </trkpt>
      <trkpt lat="32.672252040356398" lon="-4.619074976071715">
        <ele>1519.7</ele>
        <time>2003-04-13T15:46:15Z</time>
      </trkpt>
      <trkpt lat="32.671766979619861" lon="-4.620141992345452">
        <ele>1523</ele>
        <time>2003-04-13T15:46:19Z</time>
      </trkpt>
      <trkpt lat="32.67129197716713" lon="-4.621155029162765">
        <ele>1525</ele>
        <time>2003-04-13T15:46:25Z</time>
      </trkpt>
      <trkpt lat="32.670814963057637" lon="-4.622202012687922">
        <ele>1526.9000000000001</ele>
        <time>2003-04-13T15:46:30Z</time>
      </trkpt>
      <trkpt lat="32.670314982533455" lon="-4.623270034790039">
        <ele>1529.3</ele>
        <time>2003-04-13T15:46:34Z</time>
      </trkpt>
      <trkpt lat="32.669822964817286" lon="-4.62434702552855">
        <ele>1532.4000000000001</ele>
        <time>2003-04-13T15:46:39Z</time>
      </trkpt>
      <trkpt lat="32.669362965971231" lon="-4.625327037647367">
        <ele>1534.9000000000001</ele>
        <time>2003-04-13T15:46:45Z</time>
      </trkpt>
      <trkpt lat="32.668889975175261" lon="-4.626366980373859">
        <ele>1537.2</ele>
        <time>2003-04-13T15:46:50Z</time>
      </trkpt>
      <trkpt lat="32.668677996844053" lon="-4.62681801058352">
        <ele>1538.0999999999999</ele>
        <time>2003-04-13T15:46:53Z</time>
      </trkpt>
      <trkpt lat="32.668501976877451" lon="-4.627197962254286">
        <ele>1539</ele>
        <time>2003-04-13T15:46:57Z</time>
      </trkpt>
      <trkpt lat="32.668410027399659" lon="-4.627408012747765">
        <ele>1540</ele>
        <time>2003-04-13T15:46:58Z</time>
      </trkpt>
      <trkpt lat="32.668332997709513" lon="-4.627577997744083">
        <ele>1540.5</ele>
        <time>2003-04-13T15:47:01Z</time>
      </trkpt>
      <trkpt lat="32.668272983282804" lon="-4.627702971920371">
        <ele>1541</ele>
        <time>2003-04-13T15:47:02Z</time>
      </trkpt>
      <trkpt lat="32.668180027976632" lon="-4.627772960811853">
        <ele>1541.7</ele>
        <time>2003-04-13T15:47:05Z</time>
      </trkpt>
      <trkpt lat="32.668075002729893" lon="-4.627680005505681">
        <ele>1542</ele>
        <time>2003-04-13T15:47:09Z</time>
      </trkpt>
      <trkpt lat="32.667997973039746" lon="-4.627540027722716">
        <ele>1542.0999999999999</ele>
        <time>2003-04-13T15:47:12Z</time>
      </trkpt>
      <trkpt lat="32.66791800968349" lon="-4.627378005534411">
        <ele>1542.5</ele>
        <time>2003-04-13T15:47:13Z</time>
      </trkpt>
      <trkpt lat="32.66781298443675" lon="-4.627159992232919">
        <ele>1542.5999999999999</ele>
        <time>2003-04-13T15:47:16Z</time>
      </trkpt>
      <trkpt lat="32.667693039402366" lon="-4.626899985596538">
        <ele>1542.9000000000001</ele>
        <time>2003-04-13T15:47:17Z</time>
      </trkpt>
      <trkpt lat="32.667351979762316" lon="-4.626160031184554">
        <ele>1543.9000000000001</ele>
        <time>2003-04-13T15:47:23Z</time>
      </trkpt>
      <trkpt lat="32.666934980079532" lon="-4.625265011563897">
        <ele>1545.3</ele>
        <time>2003-04-13T15:47:28Z</time>
      </trkpt>
      <trkpt lat="32.666456960141659" lon="-4.624228002503514">
        <ele>1546.2</ele>
        <time>2003-04-13T15:47:32Z</time>
      </trkpt>
      <trkpt lat="32.665939964354038" lon="-4.623112035915256">
        <ele>1547.5999999999999</ele>
        <time>2003-04-13T15:47:38Z</time>
      </trkpt>
      <trkpt lat="32.665488012135029" lon="-4.622160019353032">
        <ele>1548.0999999999999</ele>
        <time>2003-04-13T15:47:42Z</time>
      </trkpt>
      <trkpt lat="32.665013009682298" lon="-4.621140025556088">
        <ele>1548.5</ele>
        <time>2003-04-13T15:47:46Z</time>
      </trkpt>
      <trkpt lat="32.664513029158115" lon="-4.620069991797209">
        <ele>1548.8</ele>
        <time>2003-04-13T15:47:50Z</time>
      </trkpt>
      <trkpt lat="32.663997039198875" lon="-4.618947990238667">
        <ele>1549</ele>
        <time>2003-04-13T15:47:54Z</time>
      </trkpt>
      <trkpt lat="32.663454981520772" lon="-4.617788018658757">
        <ele>1549.4000000000001</ele>
        <time>2003-04-13T15:47:58Z</time>
      </trkpt>
      <trkpt lat="32.662904961034656" lon="-4.616589993238449">
        <ele>1549.5999999999999</ele>
        <time>2003-04-13T15:48:02Z</time>
      </trkpt>
      <trkpt lat="32.662347983568907" lon="-4.615375036373735">
        <ele>1549.0999999999999</ele>
        <time>2003-04-13T15:48:06Z</time>
      </trkpt>
      <trkpt lat="32.661790000274777" lon="-4.614177010953426">
        <ele>1549</ele>
        <time>2003-04-13T15:48:10Z</time>
      </trkpt>
      <trkpt lat="32.6612379681319" lon="-4.612991977483034">
        <ele>1550.7</ele>
        <time>2003-04-13T15:48:14Z</time>
      </trkpt>
      <trkpt lat="32.66072298400104" lon="-4.611875005066395">
        <ele>1551.8</ele>
        <time>2003-04-13T15:48:18Z</time>
      </trkpt>
      <trkpt lat="32.660261979326606" lon="-4.610830033197999">
        <ele>1551.8</ele>
        <time>2003-04-13T15:48:22Z</time>
      </trkpt>
      <trkpt lat="32.659799968823791" lon="-4.609818002209067">
        <ele>1551.7</ele>
        <time>2003-04-13T15:48:26Z</time>
      </trkpt>
      <trkpt lat="32.659407025203109" lon="-4.609105037525296">
        <ele>1551</ele>
        <time>2003-04-13T15:48:29Z</time>
      </trkpt>
      <trkpt lat="32.659087004140019" lon="-4.608687032014132">
        <ele>1550.7</ele>
        <time>2003-04-13T15:48:30Z</time>
      </trkpt>
      <trkpt lat="32.658692970871925" lon="-4.608357036486268">
        <ele>1551.5999999999999</ele>
        <time>2003-04-13T15:48:33Z</time>
      </trkpt>
      <trkpt lat="32.658258033916354" lon="-4.608116978779435">
        <ele>1553.8</ele>
        <time>2003-04-13T15:48:34Z</time>
      </trkpt>
      <trkpt lat="32.65739000402391" lon="-4.607726968824863">
        <ele>1557.4000000000001</ele>
        <time>2003-04-13T15:48:38Z</time>
      </trkpt>
      <trkpt lat="32.656812993809581" lon="-4.607366966083646">
        <ele>1557.8</ele>
        <time>2003-04-13T15:48:41Z</time>
      </trkpt>
      <trkpt lat="32.656651977449656" lon="-4.607197986915708">
        <ele>1557.4000000000001</ele>
        <time>2003-04-13T15:48:42Z</time>
      </trkpt>
      <trkpt lat="32.656375039368868" lon="-4.606782998889685">
        <ele>1556.3</ele>
        <time>2003-04-13T15:48:45Z</time>
      </trkpt>
      <trkpt lat="32.656179992482066" lon="-4.606292992830277">
        <ele>1556.2</ele>
        <time>2003-04-13T15:48:46Z</time>
      </trkpt>
      <trkpt lat="32.655837005004287" lon="-4.605280039831996">
        <ele>1559.9000000000001</ele>
        <time>2003-04-13T15:48:50Z</time>
      </trkpt>
      <trkpt lat="32.655467027798295" lon="-4.604232972487807">
        <ele>1563.9000000000001</ele>
        <time>2003-04-13T15:48:54Z</time>
      </trkpt>
      <trkpt lat="32.65511498786509" lon="-4.603203004226089">
        <ele>1567.4000000000001</ele>
        <time>2003-04-13T15:48:59Z</time>
      </trkpt>
      <trkpt lat="32.655075006186962" lon="-4.60294802673161">
        <ele>1568</ele>
        <time>2003-04-13T15:49:00Z</time>
      </trkpt>
      <trkpt lat="32.655078023672104" lon="-4.602427007630467">
        <ele>1567.5999999999999</ele>
        <time>2003-04-13T15:49:01Z</time>
      </trkpt>
      <trkpt lat="32.655195035040379" lon="-4.601902971044183">
        <ele>1567.3</ele>
        <time>2003-04-13T15:49:04Z</time>
      </trkpt>
      <trkpt lat="32.655550008639693" lon="-4.600867973640561">
        <ele>1567.4000000000001</ele>
        <time>2003-04-13T15:49:08Z</time>
      </trkpt>
      <trkpt lat="32.655925014987588" lon="-4.599762987345457">
        <ele>1564.8</ele>
        <time>2003-04-13T15:49:12Z</time>
      </trkpt>
      <trkpt lat="32.656317036598921" lon="-4.59860703907907">
        <ele>1561.5</ele>
        <time>2003-04-13T15:49:16Z</time>
      </trkpt>
      <trkpt lat="32.656572014093399" lon="-4.597437009215355">
        <ele>1555.8</ele>
        <time>2003-04-13T15:49:20Z</time>
      </trkpt>
      <trkpt lat="32.656549969688058" lon="-4.596127001568675">
        <ele>1548.5</ele>
        <time>2003-04-13T15:49:24Z</time>
      </trkpt>
      <trkpt lat="32.656566984951496" lon="-4.594748010858893">
        <ele>1541.5</ele>
        <time>2003-04-13T15:49:28Z</time>
      </trkpt>
      <trkpt lat="32.656585006043315" lon="-4.593387963250279">
        <ele>1535.4000000000001</ele>
        <time>2003-04-13T15:49:31Z</time>
      </trkpt>
      <trkpt lat="32.656579976901412" lon="-4.592088013887405">
        <ele>1534</ele>
        <time>2003-04-13T15:49:35Z</time>
      </trkpt>
      <trkpt lat="32.656591963022947" lon="-4.590861992910504">
        <ele>1535.4000000000001</ele>
        <time>2003-04-13T15:49:39Z</time>
      </trkpt>
      <trkpt lat="32.656621970236301" lon="-4.589662961661816">
        <ele>1538.3</ele>
        <time>2003-04-13T15:49:43Z</time>
      </trkpt>
      <trkpt lat="32.656718026846647" lon="-4.589087041094899">
        <ele>1539.8</ele>
        <time>2003-04-13T15:49:46Z</time>
      </trkpt>
      <trkpt lat="32.656909972429276" lon="-4.58853199146688">
        <ele>1540.0999999999999</ele>
        <time>2003-04-13T15:49:47Z</time>
      </trkpt>
      <trkpt lat="32.657051961869001" lon="-4.588278019800782">
        <ele>1540</ele>
        <time>2003-04-13T15:49:48Z</time>
      </trkpt>
      <trkpt lat="32.657710025086999" lon="-4.587337989360094">
        <ele>1537</ele>
        <time>2003-04-13T15:49:53Z</time>
      </trkpt>
      <trkpt lat="32.658361969515681" lon="-4.586446993052959">
        <ele>1534.0999999999999</ele>
        <time>2003-04-13T15:49:57Z</time>
      </trkpt>
      <trkpt lat="32.658948032185435" lon="-4.585633026435971">
        <ele>1534</ele>
        <time>2003-04-13T15:50:01Z</time>
      </trkpt>
      <trkpt lat="32.659175014123321" lon="-4.585307976230979">
        <ele>1537</ele>
        <time>2003-04-13T15:50:02Z</time>
      </trkpt>
      <trkpt lat="32.659341981634498" lon="-4.584994995966554">
        <ele>1539</ele>
        <time>2003-04-13T15:50:05Z</time>
      </trkpt>
      <trkpt lat="32.659396966919303" lon="-4.584825010970235">
        <ele>1539.3</ele>
        <time>2003-04-13T15:50:06Z</time>
      </trkpt>
      <trkpt lat="32.65947500243783" lon="-4.584461990743876">
        <ele>1541</ele>
        <time>2003-04-13T15:50:07Z</time>
      </trkpt>
      <trkpt lat="32.65949503518641" lon="-4.584068041294813">
        <ele>1541.4000000000001</ele>
        <time>2003-04-13T15:50:10Z</time>
      </trkpt>
      <trkpt lat="32.659462010487914" lon="-4.58365498110652">
        <ele>1541.2</ele>
        <time>2003-04-13T15:50:11Z</time>
      </trkpt>
      <trkpt lat="32.659412976354361" lon="-4.583449959754944">
        <ele>1541.0999999999999</ele>
        <time>2003-04-13T15:50:14Z</time>
      </trkpt>
      <trkpt lat="32.659235028550029" lon="-4.58292500115931">
        <ele>1540.9000000000001</ele>
        <time>2003-04-13T15:50:15Z</time>
      </trkpt>
      <trkpt lat="32.658832026645541" lon="-4.581778021529317">
        <ele>1540.2</ele>
        <time>2003-04-13T15:50:22Z</time>
      </trkpt>
      <trkpt lat="32.658488033339381" lon="-4.580728020519018">
        <ele>1539.2</ele>
        <time>2003-04-13T15:50:29Z</time>
      </trkpt>
      <trkpt lat="32.658042032271624" lon="-4.5795529615134">
        <ele>1538.7</ele>
        <time>2003-04-13T15:50:33Z</time>
      </trkpt>
      <trkpt lat="32.657686974853277" lon="-4.578545037657023">
        <ele>1538.8</ele>
        <time>2003-04-13T15:50:37Z</time>
      </trkpt>
      <trkpt lat="32.657295037060976" lon="-4.577467041090131">
        <ele>1539</ele>
        <time>2003-04-13T15:50:41Z</time>
      </trkpt>
      <trkpt lat="32.656892035156488" lon="-4.576317965984345">
        <ele>1538.8</ele>
        <time>2003-04-13T15:50:45Z</time>
      </trkpt>
      <trkpt lat="32.656477969139814" lon="-4.575122036039829">
        <ele>1539</ele>
        <time>2003-04-13T15:50:49Z</time>
      </trkpt>
      <trkpt lat="32.656047977507114" lon="-4.573910012841225">
        <ele>1538.9000000000001</ele>
        <time>2003-04-13T15:50:53Z</time>
      </trkpt>
      <trkpt lat="32.65560801140964" lon="-4.572682986035943">
        <ele>1538</ele>
        <time>2003-04-13T15:50:57Z</time>
      </trkpt>
      <trkpt lat="32.655169973149896" lon="-4.571459982544184">
        <ele>1537.5</ele>
        <time>2003-04-13T15:51:01Z</time>
      </trkpt>
      <trkpt lat="32.654750039801002" lon="-4.57024703733623">
        <ele>1535.7</ele>
        <time>2003-04-13T15:51:05Z</time>
      </trkpt>
      <trkpt lat="32.65431703068316" lon="-4.56902202218771">
        <ele>1530.2</ele>
        <time>2003-04-13T15:51:09Z</time>
      </trkpt>
      <trkpt lat="32.653857031837106" lon="-4.567934973165393">
        <ele>1530.4000000000001</ele>
        <time>2003-04-13T15:51:14Z</time>
      </trkpt>
      <trkpt lat="32.653689980506897" lon="-4.567728023976088">
        <ele>1532</ele>
        <time>2003-04-13T15:51:15Z</time>
      </trkpt>
      <trkpt lat="32.653295025229454" lon="-4.567392999306321">
        <ele>1534.0999999999999</ele>
        <time>2003-04-13T15:51:16Z</time>
      </trkpt>
      <trkpt lat="32.652477035298944" lon="-4.566772989928722">
        <ele>1537.0999999999999</ele>
        <time>2003-04-13T15:51:20Z</time>
      </trkpt>
      <trkpt lat="32.651749989017844" lon="-4.566245013847947">
        <ele>1539.5</ele>
        <time>2003-04-13T15:51:24Z</time>
      </trkpt>
      <trkpt lat="32.651385040953755" lon="-4.566115010529757">
        <ele>1539.5</ele>
        <time>2003-04-13T15:51:27Z</time>
      </trkpt>
      <trkpt lat="32.650986984372139" lon="-4.566060025244951">
        <ele>1539.2</ele>
        <time>2003-04-13T15:51:28Z</time>
      </trkpt>
      <trkpt lat="32.649940000846982" lon="-4.566066982224584">
        <ele>1537.5999999999999</ele>
        <time>2003-04-13T15:51:34Z</time>
      </trkpt>
      <trkpt lat="32.64886200428009" lon="-4.566062958911061">
        <ele>1541.0999999999999</ele>
        <time>2003-04-13T15:51:39Z</time>
      </trkpt>
      <trkpt lat="32.647822983562946" lon="-4.566052984446287">
        <ele>1547.9000000000001</ele>
        <time>2003-04-13T15:51:43Z</time>
      </trkpt>
      <trkpt lat="32.646812964230776" lon="-4.56605801358819">
        <ele>1554.4000000000001</ele>
        <time>2003-04-13T15:51:49Z</time>
      </trkpt>
      <trkpt lat="32.645803028717637" lon="-4.56603798083961">
        <ele>1560.2</ele>
        <time>2003-04-13T15:51:54Z</time>
      </trkpt>
      <trkpt lat="32.644750010222197" lon="-4.566030018031597">
        <ele>1562.7</ele>
        <time>2003-04-13T15:51:58Z</time>
      </trkpt>
      <trkpt lat="32.643648041412234" lon="-4.566022977232933">
        <ele>1565.5</ele>
        <time>2003-04-13T15:52:03Z</time>
      </trkpt>
      <trkpt lat="32.642746986821294" lon="-4.566011996939778">
        <ele>1569.3</ele>
        <time>2003-04-13T15:52:08Z</time>
      </trkpt>
      <trkpt lat="32.641628002747893" lon="-4.565979978069663">
        <ele>1575.3</ele>
        <time>2003-04-13T15:52:13Z</time>
      </trkpt>
      <trkpt lat="32.640774976462126" lon="-4.565812004730105">
        <ele>1578.3</ele>
        <time>2003-04-13T15:52:17Z</time>
      </trkpt>
      <trkpt lat="32.640576995909214" lon="-4.56569298170507">
        <ele>1579</ele>
        <time>2003-04-13T15:52:17Z</time>
      </trkpt>
      <trkpt lat="32.640217998996377" lon="-4.565376983955503">
        <ele>1580.5</ele>
        <time>2003-04-13T15:52:20Z</time>
      </trkpt>
      <trkpt lat="32.639503022655845" lon="-4.564712969586253">
        <ele>1583.3</ele>
        <time>2003-04-13T15:52:24Z</time>
      </trkpt>
      <trkpt lat="32.638742029666901" lon="-4.563947031274438">
        <ele>1583.8</ele>
        <time>2003-04-13T15:52:29Z</time>
      </trkpt>
      <trkpt lat="32.638662988319993" lon="-4.563751984387636">
        <ele>1583.7</ele>
        <time>2003-04-13T15:52:29Z</time>
      </trkpt>
      <trkpt lat="32.638619989156723" lon="-4.563531959429383">
        <ele>1583.8</ele>
        <time>2003-04-13T15:52:30Z</time>
      </trkpt>
      <trkpt lat="32.638622000813484" lon="-4.563297014683485">
        <ele>1584</ele>
        <time>2003-04-13T15:52:32Z</time>
      </trkpt>
      <trkpt lat="32.638652008026838" lon="-4.563061986118555">
        <ele>1584</ele>
        <time>2003-04-13T15:52:33Z</time>
      </trkpt>
      <trkpt lat="32.638872032985091" lon="-4.561806963756681">
        <ele>1583.0999999999999</ele>
        <time>2003-04-13T15:52:37Z</time>
      </trkpt>
      <trkpt lat="32.639055009931326" lon="-4.560674987733364">
        <ele>1581.7</ele>
        <time>2003-04-13T15:52:41Z</time>
      </trkpt>
      <trkpt lat="32.63923698104918" lon="-4.559470005333424">
        <ele>1579.5999999999999</ele>
        <time>2003-04-13T15:52:45Z</time>
      </trkpt>
      <trkpt lat="32.639432027935982" lon="-4.558290001004934">
        <ele>1577.3</ele>
        <time>2003-04-13T15:52:49Z</time>
      </trkpt>
      <trkpt lat="32.63953504152596" lon="-4.557500006631017">
        <ele>1575.5</ele>
        <time>2003-04-13T15:52:52Z</time>
      </trkpt>
      <trkpt lat="32.639518026262522" lon="-4.557264978066087">
        <ele>1575</ele>
        <time>2003-04-13T15:52:53Z</time>
      </trkpt>
      <trkpt lat="32.639457006007433" lon="-4.557028021663427">
        <ele>1574.2</ele>
        <time>2003-04-13T15:52:55Z</time>
      </trkpt>
      <trkpt lat="32.639362039044499" lon="-4.556807996705174">
        <ele>1572.7</ele>
        <time>2003-04-13T15:52:56Z</time>
      </trkpt>
      <trkpt lat="32.63923698104918" lon="-4.556610016152263">
        <ele>1571.3</ele>
        <time>2003-04-13T15:52:56Z</time>
      </trkpt>
      <trkpt lat="32.638931963592768" lon="-4.556254958733916">
        <ele>1568.3</ele>
        <time>2003-04-13T15:52:59Z</time>
      </trkpt>
      <trkpt lat="32.638286976143718" lon="-4.555492037907243">
        <ele>1565.2</ele>
        <time>2003-04-13T15:53:03Z</time>
      </trkpt>
      <trkpt lat="32.638014983385801" lon="-4.555177967995405">
        <ele>1565.9000000000001</ele>
        <time>2003-04-13T15:53:04Z</time>
      </trkpt>
      <trkpt lat="32.637809962034225" lon="-4.554819976910949">
        <ele>1567.5999999999999</ele>
        <time>2003-04-13T15:53:07Z</time>
      </trkpt>
      <trkpt lat="32.637742990627885" lon="-4.554616967216134">
        <ele>1568.7</ele>
        <time>2003-04-13T15:53:07Z</time>
      </trkpt>
      <trkpt lat="32.637697979807854" lon="-4.554398031905294">
        <ele>1569.4000000000001</ele>
        <time>2003-04-13T15:53:08Z</time>
      </trkpt>
      <trkpt lat="32.637682976201177" lon="-4.55417700111866">
        <ele>1569.9000000000001</ele>
        <time>2003-04-13T15:53:10Z</time>
      </trkpt>
      <trkpt lat="32.637579962611198" lon="-4.553019963204861">
        <ele>1573.7</ele>
        <time>2003-04-13T15:53:15Z</time>
      </trkpt>
      <trkpt lat="32.637422969564795" lon="-4.551747003570199">
        <ele>1574.7</ele>
        <time>2003-04-13T15:53:19Z</time>
      </trkpt>
      <trkpt lat="32.637303024530411" lon="-4.550645034760237">
        <ele>1574.4000000000001</ele>
        <time>2003-04-13T15:53:23Z</time>
      </trkpt>
      <trkpt lat="32.637164974585176" lon="-4.549507023766637">
        <ele>1573.2</ele>
        <time>2003-04-13T15:53:27Z</time>
      </trkpt>
      <trkpt lat="32.637012004852295" lon="-4.548557018861175">
        <ele>1572.4000000000001</ele>
        <time>2003-04-13T15:53:31Z</time>
      </trkpt>
      <trkpt lat="32.636922989040613" lon="-4.548387033864856">
        <ele>1571.9000000000001</ele>
        <time>2003-04-13T15:53:33Z</time>
      </trkpt>
      <trkpt lat="32.636804971843958" lon="-4.548230040818453">
        <ele>1571.5</ele>
        <time>2003-04-13T15:53:34Z</time>
      </trkpt>
      <trkpt lat="32.636155039072037" lon="-4.547422025352716">
        <ele>1574.9000000000001</ele>
        <time>2003-04-13T15:53:38Z</time>
      </trkpt>
      <trkpt lat="32.635957980528474" lon="-4.547047019004822">
        <ele>1577.5</ele>
        <time>2003-04-13T15:53:41Z</time>
      </trkpt>
      <trkpt lat="32.635503010824323" lon="-4.546172032132745">
        <ele>1582.5999999999999</ele>
        <time>2003-04-13T15:53:46Z</time>
      </trkpt>
      <trkpt lat="32.635348029434681" lon="-4.546068012714386">
        <ele>1583.9000000000001</ele>
        <time>2003-04-13T15:53:46Z</time>
      </trkpt>
      <trkpt lat="32.635187013074756" lon="-4.546015039086342">
        <ele>1585</ele>
        <time>2003-04-13T15:53:47Z</time>
      </trkpt>
      <trkpt lat="32.635015016421676" lon="-4.546006992459297">
        <ele>1586.4000000000001</ele>
        <time>2003-04-13T15:53:49Z</time>
      </trkpt>
      <trkpt lat="32.634673034772277" lon="-4.546038005501032">
        <ele>1588.5</ele>
        <time>2003-04-13T15:53:50Z</time>
      </trkpt>
      <trkpt lat="32.633623033761978" lon="-4.546044962480664">
        <ele>1593.0999999999999</ele>
        <time>2003-04-13T15:53:57Z</time>
      </trkpt>
      <trkpt lat="32.632679985836148" lon="-4.546044962480664">
        <ele>1597.2</ele>
        <time>2003-04-13T15:54:01Z</time>
      </trkpt>
      <trkpt lat="32.631637025624514" lon="-4.546106988564134">
        <ele>1598.5999999999999</ele>
        <time>2003-04-13T15:54:06Z</time>
      </trkpt>
      <trkpt lat="32.630615020170808" lon="-4.546101959422231">
        <ele>1605.5999999999999</ele>
        <time>2003-04-13T15:54:12Z</time>
      </trkpt>
      <trkpt lat="32.630262980237603" lon="-4.54599198885262">
        <ele>1608.2</ele>
        <time>2003-04-13T15:54:13Z</time>
      </trkpt>
      <trkpt lat="32.630092995241284" lon="-4.545889981091023">
        <ele>1609.3</ele>
        <time>2003-04-13T15:54:14Z</time>
      </trkpt>
      <trkpt lat="32.62978202663362" lon="-4.54562796279788">
        <ele>1611.5999999999999</ele>
        <time>2003-04-13T15:54:17Z</time>
      </trkpt>
      <trkpt lat="32.62913703918457" lon="-4.545139968395233">
        <ele>1616.3</ele>
        <time>2003-04-13T15:54:21Z</time>
      </trkpt>
      <trkpt lat="32.62877200730145" lon="-4.545011976733804">
        <ele>1619.3</ele>
        <time>2003-04-13T15:54:23Z</time>
      </trkpt>
      <trkpt lat="32.627865001559258" lon="-4.544712994247675">
        <ele>1627.0999999999999</ele>
        <time>2003-04-13T15:54:28Z</time>
      </trkpt>
      <trkpt lat="32.627380024641752" lon="-4.544507972896099">
        <ele>1631.3</ele>
        <time>2003-04-13T15:54:31Z</time>
      </trkpt>
      <trkpt lat="32.627254966646433" lon="-4.544382998719811">
        <ele>1632.7</ele>
        <time>2003-04-13T15:54:32Z</time>
      </trkpt>
      <trkpt lat="32.627037037163973" lon="-4.544082004576922">
        <ele>1635.4000000000001</ele>
        <time>2003-04-13T15:54:33Z</time>
      </trkpt>
      <trkpt lat="32.626962019130588" lon="-4.543900033459067">
        <ele>1636.4000000000001</ele>
        <time>2003-04-13T15:54:35Z</time>
      </trkpt>
      <trkpt lat="32.62686001136899" lon="-4.543510023504496">
        <ele>1639.0999999999999</ele>
        <time>2003-04-13T15:54:36Z</time>
      </trkpt>
      <trkpt lat="32.626851964741945" lon="-4.543301984667778">
        <ele>1640.2</ele>
        <time>2003-04-13T15:54:37Z</time>
      </trkpt>
      <trkpt lat="32.626890018582344" lon="-4.543093023821712">
        <ele>1641.2</ele>
        <time>2003-04-13T15:54:39Z</time>
      </trkpt>
      <trkpt lat="32.626957995817065" lon="-4.542893031612039">
        <ele>1642.2</ele>
        <time>2003-04-13T15:54:40Z</time>
      </trkpt>
      <trkpt lat="32.627137033268809" lon="-4.542100019752979">
        <ele>1644.2</ele>
        <time>2003-04-13T15:54:44Z</time>
      </trkpt>
      <trkpt lat="32.627129992470145" lon="-4.541891980916262">
        <ele>1644.0999999999999</ele>
        <time>2003-04-13T15:54:44Z</time>
      </trkpt>
      <trkpt lat="32.627084981650114" lon="-4.541093017905951">
        <ele>1645.4000000000001</ele>
        <time>2003-04-13T15:54:48Z</time>
      </trkpt>
      <trkpt lat="32.627014992758632" lon="-4.540910040959716">
        <ele>1645.2</ele>
        <time>2003-04-13T15:54:50Z</time>
      </trkpt>
      <trkpt lat="32.626948021352291" lon="-4.540530005469918">
        <ele>1646.2</ele>
        <time>2003-04-13T15:54:52Z</time>
      </trkpt>
      <trkpt lat="32.626980040222406" lon="-4.540337976068258">
        <ele>1646.2</ele>
        <time>2003-04-13T15:54:52Z</time>
      </trkpt>
      <trkpt lat="32.627018010243773" lon="-4.539988031610847">
        <ele>1647.0999999999999</ele>
        <time>2003-04-13T15:54:55Z</time>
      </trkpt>
      <trkpt lat="32.626980040222406" lon="-4.539827015250921">
        <ele>1647.0999999999999</ele>
        <time>2003-04-13T15:54:55Z</time>
      </trkpt>
      <trkpt lat="32.62690301053226" lon="-4.539687959477305">
        <ele>1647</ele>
        <time>2003-04-13T15:54:56Z</time>
      </trkpt>
      <trkpt lat="32.626788010820746" lon="-4.539580000564456">
        <ele>1647.2</ele>
        <time>2003-04-13T15:54:58Z</time>
      </trkpt>
      <trkpt lat="32.626657001674175" lon="-4.539487967267633">
        <ele>1647.8</ele>
        <time>2003-04-13T15:54:59Z</time>
      </trkpt>
      <trkpt lat="32.626543007791042" lon="-4.539370033890009">
        <ele>1647.7</ele>
        <time>2003-04-13T15:54:59Z</time>
      </trkpt>
      <trkpt lat="32.626462960615754" lon="-4.53922301530838">
        <ele>1647.4000000000001</ele>
        <time>2003-04-13T15:55:00Z</time>
      </trkpt>
      <trkpt lat="32.626281995326281" lon="-4.539023023098707">
        <ele>1647.5999999999999</ele>
        <time>2003-04-13T15:55:03Z</time>
      </trkpt>
      <trkpt lat="32.626170013099909" lon="-4.539012964814901">
        <ele>1647.3</ele>
        <time>2003-04-13T15:55:03Z</time>
      </trkpt>
      <trkpt lat="32.626061970368028" lon="-4.539059987291694">
        <ele>1647.2</ele>
        <time>2003-04-13T15:55:04Z</time>
      </trkpt>
      <trkpt lat="32.625964991748333" lon="-4.539153026416898">
        <ele>1647.5999999999999</ele>
        <time>2003-04-13T15:55:06Z</time>
      </trkpt>
      <trkpt lat="32.625757958739996" lon="-4.53924497589469">
        <ele>1647.9000000000001</ele>
        <time>2003-04-13T15:55:07Z</time>
      </trkpt>
      <trkpt lat="32.625657040625811" lon="-4.539193008095026">
        <ele>1648</ele>
        <time>2003-04-13T15:55:08Z</time>
      </trkpt>
      <trkpt lat="32.62557003647089" lon="-4.539104998111725">
        <ele>1648</ele>
        <time>2003-04-13T15:55:10Z</time>
      </trkpt>
      <trkpt lat="32.625495018437505" lon="-4.53898698091507">
        <ele>1648.2</ele>
        <time>2003-04-13T15:55:11Z</time>
      </trkpt>
      <trkpt lat="32.625241968780756" lon="-4.538611974567175">
        <ele>1649.2</ele>
        <time>2003-04-13T15:55:14Z</time>
      </trkpt>
      <trkpt lat="32.625174997374415" lon="-4.538475014269352">
        <ele>1649.4000000000001</ele>
        <time>2003-04-13T15:55:15Z</time>
      </trkpt>
      <trkpt lat="32.625154964625835" lon="-4.538326989859343">
        <ele>1649.5</ele>
        <time>2003-04-13T15:55:15Z</time>
      </trkpt>
      <trkpt lat="32.625180026516318" lon="-4.538172008469701">
        <ele>1649.7</ele>
        <time>2003-04-13T15:55:17Z</time>
      </trkpt>
      <trkpt lat="32.625244986265898" lon="-4.538027001544833">
        <ele>1649.9000000000001</ele>
        <time>2003-04-13T15:55:18Z</time>
      </trkpt>
      <trkpt lat="32.625344982370734" lon="-4.537898004055023">
        <ele>1650.2</ele>
        <time>2003-04-13T15:55:19Z</time>
      </trkpt>
      <trkpt lat="32.625468028709292" lon="-4.537800019606948">
        <ele>1650.8</ele>
        <time>2003-04-13T15:55:19Z</time>
      </trkpt>
      <trkpt lat="32.625614963471889" lon="-4.537736987695098">
        <ele>1651.5</ele>
        <time>2003-04-13T15:55:21Z</time>
      </trkpt>
      <trkpt lat="32.626532027497888" lon="-4.537382014095783">
        <ele>1654.8</ele>
        <time>2003-04-13T15:55:26Z</time>
      </trkpt>
      <trkpt lat="32.62664501555264" lon="-4.537286963313818">
        <ele>1655.3</ele>
        <time>2003-04-13T15:55:27Z</time>
      </trkpt>
      <trkpt lat="32.626978028565645" lon="-4.537108009681106">
        <ele>1656</ele>
        <time>2003-04-13T15:55:30Z</time>
      </trkpt>
      <trkpt lat="32.627112977206707" lon="-4.537174981087446">
        <ele>1656.5</ele>
        <time>2003-04-13T15:55:31Z</time>
      </trkpt>
      <trkpt lat="32.627229988574982" lon="-4.537272965535522">
        <ele>1657.5999999999999</ele>
        <time>2003-04-13T15:55:33Z</time>
      </trkpt>
      <trkpt lat="32.627469962462783" lon="-4.537370027974248">
        <ele>1659.0999999999999</ele>
        <time>2003-04-13T15:55:34Z</time>
      </trkpt>
      <trkpt lat="32.627610024064779" lon="-4.537355024367571">
        <ele>1659.7</ele>
        <time>2003-04-13T15:55:35Z</time>
      </trkpt>
      <trkpt lat="32.627746984362602" lon="-4.537300039082766">
        <ele>1660.5999999999999</ele>
        <time>2003-04-13T15:55:37Z</time>
      </trkpt>
      <trkpt lat="32.627874976024032" lon="-4.537223009392619">
        <ele>1661.9000000000001</ele>
        <time>2003-04-13T15:55:38Z</time>
      </trkpt>
      <trkpt lat="32.628243025392294" lon="-4.536940036341548">
        <ele>1664.5999999999999</ele>
        <time>2003-04-13T15:55:41Z</time>
      </trkpt>
      <trkpt lat="32.628549970686436" lon="-4.536522030830383">
        <ele>1666.2</ele>
        <time>2003-04-13T15:55:44Z</time>
      </trkpt>
      <trkpt lat="32.628811988979578" lon="-4.536034958437085">
        <ele>1669.4000000000001</ele>
        <time>2003-04-13T15:55:46Z</time>
      </trkpt>
      <trkpt lat="32.628873009234667" lon="-4.535847036167979">
        <ele>1670.0999999999999</ele>
        <time>2003-04-13T15:55:48Z</time>
      </trkpt>
      <trkpt lat="32.629056992009282" lon="-4.535282012075186">
        <ele>1673.3</ele>
        <time>2003-04-13T15:55:50Z</time>
      </trkpt>
      <trkpt lat="32.629188001155853" lon="-4.535134993493557">
        <ele>1673.9000000000001</ele>
        <time>2003-04-13T15:55:52Z</time>
      </trkpt>
      <trkpt lat="32.629767023026943" lon="-4.534456981346011">
        <ele>1678.8</ele>
        <time>2003-04-13T15:55:57Z</time>
      </trkpt>
      <trkpt lat="32.629808010533452" lon="-4.534311974421144">
        <ele>1679.7</ele>
        <time>2003-04-13T15:55:57Z</time>
      </trkpt>
      <trkpt lat="32.629801975563169" lon="-4.534169984981418">
        <ele>1680.3</ele>
        <time>2003-04-13T15:55:58Z</time>
      </trkpt>
      <trkpt lat="32.62976199388504" lon="-4.534036964178085">
        <ele>1681.4000000000001</ele>
        <time>2003-04-13T15:56:00Z</time>
      </trkpt>
      <trkpt lat="32.629767023026943" lon="-4.533772012218833">
        <ele>1682.5</ele>
        <time>2003-04-13T15:56:01Z</time>
      </trkpt>
      <trkpt lat="32.629853021353483" lon="-4.533664975315332">
        <ele>1682.7</ele>
        <time>2003-04-13T15:56:02Z</time>
      </trkpt>
      <trkpt lat="32.629965003579855" lon="-4.533588029444218">
        <ele>1683.5999999999999</ele>
        <time>2003-04-13T15:56:04Z</time>
      </trkpt>
      <trkpt lat="32.630176981911063" lon="-4.533419972285628">
        <ele>1685.0999999999999</ele>
        <time>2003-04-13T15:56:05Z</time>
      </trkpt>
      <trkpt lat="32.630253005772829" lon="-4.533312013372779">
        <ele>1685.5</ele>
        <time>2003-04-13T15:56:06Z</time>
      </trkpt>
      <trkpt lat="32.630291981622577" lon="-4.533189972862601">
        <ele>1686.2</ele>
        <time>2003-04-13T15:56:08Z</time>
      </trkpt>
      <trkpt lat="32.630292987450957" lon="-4.533068016171455">
        <ele>1686.5999999999999</ele>
        <time>2003-04-13T15:56:09Z</time>
      </trkpt>
      <trkpt lat="32.630253005772829" lon="-4.532965002581477">
        <ele>1687.3</ele>
        <time>2003-04-13T15:56:09Z</time>
      </trkpt>
      <trkpt lat="32.630123002454638" lon="-4.532846985384822">
        <ele>1688.4000000000001</ele>
        <time>2003-04-13T15:56:12Z</time>
      </trkpt>
      <trkpt lat="32.630004985257983" lon="-4.53271203674376">
        <ele>1689.2</ele>
        <time>2003-04-13T15:56:13Z</time>
      </trkpt>
      <trkpt lat="32.629623021930456" lon="-4.532293025404215">
        <ele>1692.0999999999999</ele>
        <time>2003-04-13T15:56:20Z</time>
      </trkpt>
      <trkpt lat="32.629462005570531" lon="-4.532281961292028">
        <ele>1693.2</ele>
        <time>2003-04-13T15:56:21Z</time>
      </trkpt>
      <trkpt lat="32.629290008917451" lon="-4.532356979325414">
        <ele>1694.3</ele>
        <time>2003-04-13T15:56:24Z</time>
      </trkpt>
      <trkpt lat="32.629197975620627" lon="-4.532382963225246">
        <ele>1694.8</ele>
        <time>2003-04-13T15:56:24Z</time>
      </trkpt>
      <trkpt lat="32.628994965925813" lon="-4.532399978488684">
        <ele>1696</ele>
        <time>2003-04-13T15:56:27Z</time>
      </trkpt>
      <trkpt lat="32.628762032836676" lon="-4.532365025952458">
        <ele>1697.3</ele>
        <time>2003-04-13T15:56:28Z</time>
      </trkpt>
      <trkpt lat="32.628502026200294" lon="-4.532365025952458">
        <ele>1698.5</ele>
        <time>2003-04-13T15:56:31Z</time>
      </trkpt>
      <trkpt lat="32.628168007358909" lon="-4.532357985153794">
        <ele>1701</ele>
        <time>2003-04-13T15:56:33Z</time>
      </trkpt>
      <trkpt lat="32.628004979342222" lon="-4.53232697211206">
        <ele>1702.2</ele>
        <time>2003-04-13T15:56:36Z</time>
      </trkpt>
      <trkpt lat="32.627829965204" lon="-4.532335018739104">
        <ele>1703.5</ele>
        <time>2003-04-13T15:56:38Z</time>
      </trkpt>
      <trkpt lat="32.627578005194664" lon="-4.532363014295697">
        <ele>1705.2</ele>
        <time>2003-04-13T15:56:40Z</time>
      </trkpt>
      <trkpt lat="32.627411959692836" lon="-4.532452030107379">
        <ele>1706.3</ele>
        <time>2003-04-13T15:56:43Z</time>
      </trkpt>
      <trkpt lat="32.627341970801353" lon="-4.532544985413551">
        <ele>1707</ele>
        <time>2003-04-13T15:56:43Z</time>
      </trkpt>
      <trkpt lat="32.627287991344929" lon="-4.532659985125065">
        <ele>1707.9000000000001</ele>
        <time>2003-04-13T15:56:44Z</time>
      </trkpt>
      <trkpt lat="32.627256978303194" lon="-4.532793005928397">
        <ele>1708.8</ele>
        <time>2003-04-13T15:56:46Z</time>
      </trkpt>
      <trkpt lat="32.627156982198358" lon="-4.533244958147407">
        <ele>1710.5</ele>
        <time>2003-04-13T15:56:48Z</time>
      </trkpt>
      <trkpt lat="32.627092022448778" lon="-4.533376973122358">
        <ele>1711.5999999999999</ele>
        <time>2003-04-13T15:56:50Z</time>
      </trkpt>
      <trkpt lat="32.626999989151955" lon="-4.533481998369098">
        <ele>1712.3</ele>
        <time>2003-04-13T15:56:51Z</time>
      </trkpt>
      <trkpt lat="32.626881971955299" lon="-4.533536983653903">
        <ele>1712.7</ele>
        <time>2003-04-13T15:56:51Z</time>
      </trkpt>
      <trkpt lat="32.626745011657476" lon="-4.533530026674271">
        <ele>1713.9000000000001</ele>
        <time>2003-04-13T15:56:52Z</time>
      </trkpt>
      <trkpt lat="32.626612996682525" lon="-4.533477975055575">
        <ele>1715.3</ele>
        <time>2003-04-13T15:56:54Z</time>
      </trkpt>
      <trkpt lat="32.626485005021095" lon="-4.533462971448898">
        <ele>1715.8</ele>
        <time>2003-04-13T15:56:55Z</time>
      </trkpt>
      <trkpt lat="32.626364976167679" lon="-4.533517034724355">
        <ele>1716.0999999999999</ele>
        <time>2003-04-13T15:56:55Z</time>
      </trkpt>
      <trkpt lat="32.626252993941307" lon="-4.533612001687288">
        <ele>1716.5999999999999</ele>
        <time>2003-04-13T15:56:56Z</time>
      </trkpt>
      <trkpt lat="32.625998016446829" lon="-4.533745022490621">
        <ele>1718.2</ele>
        <time>2003-04-13T15:56:59Z</time>
      </trkpt>
      <trkpt lat="32.625846974551678" lon="-4.533772012218833">
        <ele>1719</ele>
        <time>2003-04-13T15:56:59Z</time>
      </trkpt>
      <trkpt lat="32.625389993190765" lon="-4.533900003880262">
        <ele>1722.0999999999999</ele>
        <time>2003-04-13T15:57:03Z</time>
      </trkpt>
      <trkpt lat="32.625256972387433" lon="-4.533903021365404">
        <ele>1723.2</ele>
        <time>2003-04-13T15:57:03Z</time>
      </trkpt>
      <trkpt lat="32.625122023746371" lon="-4.533847030252218">
        <ele>1723.3</ele>
        <time>2003-04-13T15:57:05Z</time>
      </trkpt>
      <trkpt lat="32.625005012378097" lon="-4.533757008612156">
        <ele>1724.5</ele>
        <time>2003-04-13T15:57:06Z</time>
      </trkpt>
      <trkpt lat="32.624892024323344" lon="-4.533715015277267">
        <ele>1726</ele>
        <time>2003-04-13T15:57:07Z</time>
      </trkpt>
      <trkpt lat="32.624762021005154" lon="-4.533721972256899">
        <ele>1726.5</ele>
        <time>2003-04-13T15:57:07Z</time>
      </trkpt>
      <trkpt lat="32.624627994373441" lon="-4.533752985298634">
        <ele>1727.4000000000001</ele>
        <time>2003-04-13T15:57:09Z</time>
      </trkpt>
      <trkpt lat="32.62449698522687" lon="-4.533739993348718">
        <ele>1728.0999999999999</ele>
        <time>2003-04-13T15:57:10Z</time>
      </trkpt>
      <trkpt lat="32.624373016878963" lon="-4.533651983365417">
        <ele>1729.0999999999999</ele>
        <time>2003-04-13T15:57:10Z</time>
      </trkpt>
      <trkpt lat="32.624264974147081" lon="-4.533527009189129">
        <ele>1730.4000000000001</ele>
        <time>2003-04-13T15:57:11Z</time>
      </trkpt>
      <trkpt lat="32.62387303635478" lon="-4.532986963167787">
        <ele>1734.2</ele>
        <time>2003-04-13T15:57:15Z</time>
      </trkpt>
      <trkpt lat="32.623845040798187" lon="-4.532817983999848">
        <ele>1735.3</ele>
        <time>2003-04-13T15:57:17Z</time>
      </trkpt>
      <trkpt lat="32.623734986409545" lon="-4.532512966543436">
        <ele>1737.3</ele>
        <time>2003-04-13T15:57:18Z</time>
      </trkpt>
      <trkpt lat="32.623628033325076" lon="-4.532395033165813">
        <ele>1738</ele>
        <time>2003-04-13T15:57:19Z</time>
      </trkpt>
      <trkpt lat="32.623495012521744" lon="-4.532307023182511">
        <ele>1739.2</ele>
        <time>2003-04-13T15:57:21Z</time>
      </trkpt>
      <trkpt lat="32.623357968404889" lon="-4.532247008755803">
        <ele>1740.5</ele>
        <time>2003-04-13T15:57:22Z</time>
      </trkpt>
      <trkpt lat="32.623210027813911" lon="-4.532250026240945">
        <ele>1741</ele>
        <time>2003-04-13T15:57:22Z</time>
      </trkpt>
      <trkpt lat="32.622969970107079" lon="-4.532247008755803">
        <ele>1742.9000000000001</ele>
        <time>2003-04-13T15:57:25Z</time>
      </trkpt>
      <trkpt lat="32.622882965952158" lon="-4.532214989885688">
        <ele>1743.5999999999999</ele>
        <time>2003-04-13T15:57:26Z</time>
      </trkpt>
      <trkpt lat="32.622737037017941" lon="-4.532167967408896">
        <ele>1744.7</ele>
        <time>2003-04-13T15:57:27Z</time>
      </trkpt>
      <trkpt lat="32.622492033988237" lon="-4.532135026529431">
        <ele>1746</ele>
        <time>2003-04-13T15:57:30Z</time>
      </trkpt>
      <trkpt lat="32.622397989034653" lon="-4.532172996550798">
        <ele>1746.3</ele>
        <time>2003-04-13T15:57:32Z</time>
      </trkpt>
      <trkpt lat="32.622098000720143" lon="-4.532293025404215">
        <ele>1748</ele>
        <time>2003-04-13T15:57:34Z</time>
      </trkpt>
      <trkpt lat="32.621994987130165" lon="-4.53230501152575">
        <ele>1748.4000000000001</ele>
        <time>2003-04-13T15:57:36Z</time>
      </trkpt>
      <trkpt lat="32.621836988255382" lon="-4.532316997647286">
        <ele>1749.5</ele>
        <time>2003-04-13T15:57:37Z</time>
      </trkpt>
      <trkpt lat="32.621679995208979" lon="-4.532299982383847">
        <ele>1750.0999999999999</ele>
        <time>2003-04-13T15:57:40Z</time>
      </trkpt>
      <trkpt lat="32.621517973020673" lon="-4.5322419796139">
        <ele>1751.2</ele>
        <time>2003-04-13T15:57:41Z</time>
      </trkpt>
      <trkpt lat="32.621347988024354" lon="-4.532233010977507">
        <ele>1752.0999999999999</ele>
        <time>2003-04-13T15:57:44Z</time>
      </trkpt>
      <trkpt lat="32.621267018839717" lon="-4.532295037060976">
        <ele>1752.5999999999999</ele>
        <time>2003-04-13T15:57:45Z</time>
      </trkpt>
      <trkpt lat="32.62121002189815" lon="-4.532393021509051">
        <ele>1753</ele>
        <time>2003-04-13T15:57:45Z</time>
      </trkpt>
      <trkpt lat="32.621170040220022" lon="-4.532502992078662">
        <ele>1753.8</ele>
        <time>2003-04-13T15:57:46Z</time>
      </trkpt>
      <trkpt lat="32.621063003316522" lon="-4.532710025086999">
        <ele>1755.9000000000001</ele>
        <time>2003-04-13T15:57:49Z</time>
      </trkpt>
      <trkpt lat="32.620967030525208" lon="-4.53279996290803">
        <ele>1755.9000000000001</ele>
        <time>2003-04-13T15:57:49Z</time>
      </trkpt>
      <trkpt lat="32.620663018897176" lon="-4.533016970381141">
        <ele>1757.4000000000001</ele>
        <time>2003-04-13T15:57:53Z</time>
      </trkpt>
      <trkpt lat="32.620563022792339" lon="-4.533023005351424">
        <ele>1757.5999999999999</ele>
        <time>2003-04-13T15:57:53Z</time>
      </trkpt>
      <trkpt lat="32.62039203196764" lon="-4.532953016459942">
        <ele>1757.9000000000001</ele>
        <time>2003-04-13T15:57:56Z</time>
      </trkpt>
      <trkpt lat="32.620181981474161" lon="-4.532825024798513">
        <ele>1758.7</ele>
        <time>2003-04-13T15:57:57Z</time>
      </trkpt>
      <trkpt lat="32.619934966787696" lon="-4.532677000388503">
        <ele>1759.8</ele>
        <time>2003-04-13T15:58:00Z</time>
      </trkpt>
      <trkpt lat="32.6195980142802" lon="-4.532359996810556">
        <ele>1761.4000000000001</ele>
        <time>2003-04-13T15:58:03Z</time>
      </trkpt>
      <trkpt lat="32.619521990418434" lon="-4.532209960743785">
        <ele>1762.4000000000001</ele>
        <time>2003-04-13T15:58:04Z</time>
      </trkpt>
      <trkpt lat="32.619353011250496" lon="-4.531952971592546">
        <ele>1764</ele>
        <time>2003-04-13T15:58:05Z</time>
      </trkpt>
      <trkpt lat="32.619231976568699" lon="-4.531882982701063">
        <ele>1764.4000000000001</ele>
        <time>2003-04-13T15:58:07Z</time>
      </trkpt>
      <trkpt lat="32.619097027927637" lon="-4.53183202072978">
        <ele>1765.3</ele>
        <time>2003-04-13T15:58:08Z</time>
      </trkpt>
      <trkpt lat="32.618710035458207" lon="-4.531606966629624">
        <ele>1767.9000000000001</ele>
        <time>2003-04-13T15:58:11Z</time>
      </trkpt>
      <trkpt lat="32.618305021896958" lon="-4.531372021883726">
        <ele>1770.4000000000001</ele>
        <time>2003-04-13T15:58:13Z</time>
      </trkpt>
      <trkpt lat="32.618163032457232" lon="-4.531342014670372">
        <ele>1771.2</ele>
        <time>2003-04-13T15:58:15Z</time>
      </trkpt>
      <trkpt lat="32.618022970855236" lon="-4.531351989135146">
        <ele>1771.9000000000001</ele>
        <time>2003-04-13T15:58:16Z</time>
      </trkpt>
      <trkpt lat="32.617892967537045" lon="-4.531398005783558">
        <ele>1772.5</ele>
        <time>2003-04-13T15:58:16Z</time>
      </trkpt>
      <trkpt lat="32.61764301918447" lon="-4.531417032703757">
        <ele>1774.7</ele>
        <time>2003-04-13T15:58:19Z</time>
      </trkpt>
      <trkpt lat="32.617522990331054" lon="-4.531340003013611">
        <ele>1774.9000000000001</ele>
        <time>2003-04-13T15:58:20Z</time>
      </trkpt>
      <trkpt lat="32.617422994226217" lon="-4.531225003302097">
        <ele>1775.7</ele>
        <time>2003-04-13T15:58:20Z</time>
      </trkpt>
      <trkpt lat="32.61699995957315" lon="-4.530814960598946">
        <ele>1779</ele>
        <time>2003-04-13T15:58:24Z</time>
      </trkpt>
      <trkpt lat="32.61687196791172" lon="-4.530750000849366">
        <ele>1780</ele>
        <time>2003-04-13T15:58:26Z</time>
      </trkpt>
      <trkpt lat="32.616081973537803" lon="-4.530474990606308">
        <ele>1785.9000000000001</ele>
        <time>2003-04-13T15:58:31Z</time>
      </trkpt>
      <trkpt lat="32.615947024896741" lon="-4.530461998656392">
        <ele>1786.7</ele>
        <time>2003-04-13T15:58:32Z</time>
      </trkpt>
      <trkpt lat="32.615807969123125" lon="-4.530472978949547">
        <ele>1787.5999999999999</ele>
        <time>2003-04-13T15:58:34Z</time>
      </trkpt>
      <trkpt lat="32.615536982193589" lon="-4.530532993376255">
        <ele>1789.2</ele>
        <time>2003-04-13T15:58:35Z</time>
      </trkpt>
      <trkpt lat="32.61493700556457" lon="-4.53071697615087">
        <ele>1792.9000000000001</ele>
        <time>2003-04-13T15:58:40Z</time>
      </trkpt>
      <trkpt lat="32.614832986146212" lon="-4.530707001686096">
        <ele>1793.3</ele>
        <time>2003-04-13T15:58:42Z</time>
      </trkpt>
      <trkpt lat="32.614737013354897" lon="-4.530646987259388">
        <ele>1793.7</ele>
        <time>2003-04-13T15:58:43Z</time>
      </trkpt>
      <trkpt lat="32.614663001149893" lon="-4.530537016689777">
        <ele>1794.2</ele>
        <time>2003-04-13T15:58:43Z</time>
      </trkpt>
      <trkpt lat="32.614632993936539" lon="-4.530399972572923">
        <ele>1794.7</ele>
        <time>2003-04-13T15:58:44Z</time>
      </trkpt>
      <trkpt lat="32.614511959254742" lon="-4.530054973438382">
        <ele>1796.4000000000001</ele>
        <time>2003-04-13T15:58:47Z</time>
      </trkpt>
      <trkpt lat="32.614422021433711" lon="-4.529988002032042">
        <ele>1796.8</ele>
        <time>2003-04-13T15:58:48Z</time>
      </trkpt>
      <trkpt lat="32.614316996186972" lon="-4.529945002868772">
        <ele>1797.3</ele>
        <time>2003-04-13T15:58:50Z</time>
      </trkpt>
      <trkpt lat="32.613841993734241" lon="-4.529784992337227">
        <ele>1799.8</ele>
        <time>2003-04-13T15:58:54Z</time>
      </trkpt>
      <trkpt lat="32.612977987155318" lon="-4.529552981257439">
        <ele>1802.9000000000001</ele>
        <time>2003-04-13T15:59:01Z</time>
      </trkpt>
      <trkpt lat="32.612740024924278" lon="-4.529594974592328">
        <ele>1804.0999999999999</ele>
        <time>2003-04-13T15:59:02Z</time>
      </trkpt>
      <trkpt lat="32.61229301802814" lon="-4.529742999002338">
        <ele>1806.0999999999999</ele>
        <time>2003-04-13T15:59:06Z</time>
      </trkpt>
      <trkpt lat="32.611978026106954" lon="-4.529903009533882">
        <ele>1807.4000000000001</ele>
        <time>2003-04-13T15:59:10Z</time>
      </trkpt>
      <trkpt lat="32.611860008910298" lon="-4.529914995655417">
        <ele>1807.7</ele>
        <time>2003-04-13T15:59:10Z</time>
      </trkpt>
      <trkpt lat="32.611739980056882" lon="-4.52989999204874">
        <ele>1807.8</ele>
        <time>2003-04-13T15:59:11Z</time>
      </trkpt>
      <trkpt lat="32.611621962860227" lon="-4.529842995107174">
        <ele>1808.2</ele>
        <time>2003-04-13T15:59:13Z</time>
      </trkpt>
      <trkpt lat="32.611512998118997" lon="-4.529751967638731">
        <ele>1808.7</ele>
        <time>2003-04-13T15:59:14Z</time>
      </trkpt>
      <trkpt lat="32.611422976478934" lon="-4.529632022604346">
        <ele>1809.2</ele>
        <time>2003-04-13T15:59:14Z</time>
      </trkpt>
      <trkpt lat="32.61087697930634" lon="-4.528868012130261">
        <ele>1815.3</ele>
        <time>2003-04-13T15:59:22Z</time>
      </trkpt>
      <trkpt lat="32.61076700873673" lon="-4.528857031837106">
        <ele>1815.9000000000001</ele>
        <time>2003-04-13T15:59:22Z</time>
      </trkpt>
      <trkpt lat="32.610657038167119" lon="-4.52888997271657">
        <ele>1816.5</ele>
        <time>2003-04-13T15:59:24Z</time>
      </trkpt>
      <trkpt lat="32.610555030405521" lon="-4.528957027941942">
        <ele>1817.5999999999999</ele>
        <time>2003-04-13T15:59:25Z</time>
      </trkpt>
      <trkpt lat="32.609790014103055" lon="-4.529352989047766">
        <ele>1824.5</ele>
        <time>2003-04-13T15:59:32Z</time>
      </trkpt>
      <trkpt lat="32.6096719969064" lon="-4.529370004311204">
        <ele>1825.3</ele>
        <time>2003-04-13T15:59:33Z</time>
      </trkpt>
      <trkpt lat="32.609551968052983" lon="-4.529362041503191">
        <ele>1826</ele>
        <time>2003-04-13T15:59:33Z</time>
      </trkpt>
      <trkpt lat="32.60943797416985" lon="-4.529315019026399">
        <ele>1826.8</ele>
        <time>2003-04-13T15:59:34Z</time>
      </trkpt>
      <trkpt lat="32.609337978065014" lon="-4.529230026528239">
        <ele>1827.8</ele>
        <time>2003-04-13T15:59:36Z</time>
      </trkpt>
      <trkpt lat="32.609251979738474" lon="-4.529117960482836">
        <ele>1828.5999999999999</ele>
        <time>2003-04-13T15:59:37Z</time>
      </trkpt>
      <trkpt lat="32.608973030000925" lon="-4.528857031837106">
        <ele>1830.5999999999999</ele>
        <time>2003-04-13T15:59:40Z</time>
      </trkpt>
      <trkpt lat="32.608858030289412" lon="-4.528832975775003">
        <ele>1831.2</ele>
        <time>2003-04-13T15:59:41Z</time>
      </trkpt>
      <trkpt lat="32.608742024749517" lon="-4.528853008523583">
        <ele>1832.3</ele>
        <time>2003-04-13T15:59:41Z</time>
      </trkpt>
      <trkpt lat="32.60853499174118" lon="-4.528872035443783">
        <ele>1834.4000000000001</ele>
        <time>2003-04-13T15:59:44Z</time>
      </trkpt>
      <trkpt lat="32.608438013121486" lon="-4.528831969946623">
        <ele>1835.0999999999999</ele>
        <time>2003-04-13T15:59:45Z</time>
      </trkpt>
      <trkpt lat="32.608353020623326" lon="-4.528757035732269">
        <ele>1835.7</ele>
        <time>2003-04-13T15:59:45Z</time>
      </trkpt>
      <trkpt lat="32.608298035338521" lon="-4.528644969686866">
        <ele>1836.5</ele>
        <time>2003-04-13T15:59:47Z</time>
      </trkpt>
      <trkpt lat="32.608272973448038" lon="-4.528513038530946">
        <ele>1837.2</ele>
        <time>2003-04-13T15:59:48Z</time>
      </trkpt>
      <trkpt lat="32.608267022296786" lon="-4.528378006070852">
        <ele>1837.7</ele>
        <time>2003-04-13T15:59:49Z</time>
      </trkpt>
      <trkpt lat="32.608278002589941" lon="-4.528237022459507">
        <ele>1838.2</ele>
        <time>2003-04-13T15:59:49Z</time>
      </trkpt>
      <trkpt lat="32.608342040330172" lon="-4.527626987546682">
        <ele>1840.2</ele>
        <time>2003-04-13T15:59:53Z</time>
      </trkpt>
      <trkpt lat="32.608395013958216" lon="-4.527484998106957">
        <ele>1840.8</ele>
        <time>2003-04-13T15:59:55Z</time>
      </trkpt>
      <trkpt lat="32.608601963147521" lon="-4.527017036452889">
        <ele>1843.7</ele>
        <time>2003-04-13T15:59:59Z</time>
      </trkpt>
      <trkpt lat="32.608602968975902" lon="-4.526898013427854">
        <ele>1844.4000000000001</ele>
        <time>2003-04-13T16:00:00Z</time>
      </trkpt>
      <trkpt lat="32.608562987297773" lon="-4.52678200788796">
        <ele>1845</ele>
        <time>2003-04-13T16:00:00Z</time>
      </trkpt>
      <trkpt lat="32.608485035598278" lon="-4.5266970153898">
        <ele>1845.7</ele>
        <time>2003-04-13T16:00:01Z</time>
      </trkpt>
      <trkpt lat="32.6083820220083" lon="-4.526649992913008">
        <ele>1846.3</ele>
        <time>2003-04-13T16:00:03Z</time>
      </trkpt>
      <trkpt lat="32.608270039781928" lon="-4.526658039540052">
        <ele>1846.9000000000001</ele>
        <time>2003-04-13T16:00:04Z</time>
      </trkpt>
      <trkpt lat="32.608163002878428" lon="-4.526710007339716">
        <ele>1847.7</ele>
        <time>2003-04-13T16:00:04Z</time>
      </trkpt>
      <trkpt lat="32.608069963753223" lon="-4.526785025373101">
        <ele>1848.5</ele>
        <time>2003-04-13T16:00:05Z</time>
      </trkpt>
      <trkpt lat="32.607678025960922" lon="-4.527134969830513">
        <ele>1850.9000000000001</ele>
        <time>2003-04-13T16:00:09Z</time>
      </trkpt>
      <trkpt lat="32.607312994077802" lon="-4.527403023093939">
        <ele>1854.2</ele>
        <time>2003-04-13T16:00:12Z</time>
      </trkpt>
      <trkpt lat="32.606800021603703" lon="-4.527741987258196">
        <ele>1858.5999999999999</ele>
        <time>2003-04-13T16:00:16Z</time>
      </trkpt>
      <trkpt lat="32.606617966666818" lon="-4.527981961145997">
        <ele>1861.2</ele>
        <time>2003-04-13T16:00:19Z</time>
      </trkpt>
      <trkpt lat="32.606515036895871" lon="-4.528082041069865">
        <ele>1862.3</ele>
        <time>2003-04-13T16:00:19Z</time>
      </trkpt>
      <trkpt lat="32.606285037472844" lon="-4.528254959732294">
        <ele>1864</ele>
        <time>2003-04-13T16:00:22Z</time>
      </trkpt>
      <trkpt lat="32.60604296810925" lon="-4.528352022171021">
        <ele>1866.2</ele>
        <time>2003-04-13T16:00:23Z</time>
      </trkpt>
      <trkpt lat="32.605787990614772" lon="-4.528393009677529">
        <ele>1868</ele>
        <time>2003-04-13T16:00:26Z</time>
      </trkpt>
      <trkpt lat="32.605562014505267" lon="-4.528363002464175">
        <ele>1869.3</ele>
        <time>2003-04-13T16:00:27Z</time>
      </trkpt>
      <trkpt lat="32.605463024228811" lon="-4.528280021622777">
        <ele>1870.3</ele>
        <time>2003-04-13T16:00:28Z</time>
      </trkpt>
      <trkpt lat="32.605378031730652" lon="-4.528157981112599">
        <ele>1870.9000000000001</ele>
        <time>2003-04-13T16:00:30Z</time>
      </trkpt>
      <trkpt lat="32.605172004550695" lon="-4.527942985296249">
        <ele>1872.5999999999999</ele>
        <time>2003-04-13T16:00:31Z</time>
      </trkpt>
      <trkpt lat="32.604903029277921" lon="-4.527762020006776">
        <ele>1873.9000000000001</ele>
        <time>2003-04-13T16:00:34Z</time>
      </trkpt>
      <trkpt lat="32.604155028238893" lon="-4.52742800116539">
        <ele>1874.7</ele>
        <time>2003-04-13T16:00:39Z</time>
      </trkpt>
      <trkpt lat="32.604038016870618" lon="-4.527462031692267">
        <ele>1874.7</ele>
        <time>2003-04-13T16:00:39Z</time>
      </trkpt>
      <trkpt lat="32.603929974138737" lon="-4.527560016140342">
        <ele>1874.9000000000001</ele>
        <time>2003-04-13T16:00:41Z</time>
      </trkpt>
      <trkpt lat="32.603863002732396" lon="-4.527699993923307">
        <ele>1875</ele>
        <time>2003-04-13T16:00:42Z</time>
      </trkpt>
      <trkpt lat="32.603831989690661" lon="-4.527863021939993">
        <ele>1876.3</ele>
        <time>2003-04-13T16:00:43Z</time>
      </trkpt>
      <trkpt lat="32.6036970410496" lon="-4.528352022171021">
        <ele>1877.8</ele>
        <time>2003-04-13T16:00:46Z</time>
      </trkpt>
      <trkpt lat="32.603514986112714" lon="-4.528671959415078">
        <ele>1879.2</ele>
        <time>2003-04-13T16:00:47Z</time>
      </trkpt>
      <trkpt lat="32.603277023881674" lon="-4.528973037377">
        <ele>1881.2</ele>
        <time>2003-04-13T16:00:50Z</time>
      </trkpt>
      <trkpt lat="32.602679980918765" lon="-4.529811982065439">
        <ele>1887</ele>
        <time>2003-04-13T16:00:54Z</time>
      </trkpt>
      <trkpt lat="32.602204978466034" lon="-4.530367031693459">
        <ele>1891.5</ele>
        <time>2003-04-13T16:00:58Z</time>
      </trkpt>
      <trkpt lat="32.602092996239662" lon="-4.530456969514489">
        <ele>1892.8</ele>
        <time>2003-04-13T16:00:59Z</time>
      </trkpt>
      <trkpt lat="32.601976990699768" lon="-4.53050198033452">
        <ele>1893.5</ele>
        <time>2003-04-13T16:01:01Z</time>
      </trkpt>
      <trkpt lat="32.601846987381577" lon="-4.53049804084003">
        <ele>1894.4000000000001</ele>
        <time>2003-04-13T16:01:02Z</time>
      </trkpt>
      <trkpt lat="32.601710027083755" lon="-4.530471973121166">
        <ele>1895.4000000000001</ele>
        <time>2003-04-13T16:01:02Z</time>
      </trkpt>
      <trkpt lat="32.601427976042032" lon="-4.530483037233353">
        <ele>1896.9000000000001</ele>
        <time>2003-04-13T16:01:05Z</time>
      </trkpt>
      <trkpt lat="32.60129302740097" lon="-4.530559983104467">
        <ele>1897.3</ele>
        <time>2003-04-13T16:01:06Z</time>
      </trkpt>
      <trkpt lat="32.60090502910316" lon="-4.53078000806272">
        <ele>1899.4000000000001</ele>
        <time>2003-04-13T16:01:09Z</time>
      </trkpt>
      <trkpt lat="32.600757004693151" lon="-4.530798029154539">
        <ele>1899.7</ele>
        <time>2003-04-13T16:01:10Z</time>
      </trkpt>
      <trkpt lat="32.600596994161606" lon="-4.530782019719482">
        <ele>1899.7</ele>
        <time>2003-04-13T16:01:10Z</time>
      </trkpt>
      <trkpt lat="32.600062983110547" lon="-4.530685041099787">
        <ele>1899.0999999999999</ele>
        <time>2003-04-13T16:01:13Z</time>
      </trkpt>
      <trkpt lat="32.599047012627125" lon="-4.530516983941197">
        <ele>1900.7</ele>
        <time>2003-04-13T16:01:18Z</time>
      </trkpt>
      <trkpt lat="32.59864803403616" lon="-4.530383041128516">
        <ele>1901</ele>
        <time>2003-04-13T16:01:21Z</time>
      </trkpt>
      <trkpt lat="32.598247965797782" lon="-4.530163016170263">
        <ele>1900.8</ele>
        <time>2003-04-13T16:01:24Z</time>
      </trkpt>
      <trkpt lat="32.597307013347745" lon="-4.5295549929142">
        <ele>1902.0999999999999</ele>
        <time>2003-04-13T16:01:29Z</time>
      </trkpt>
      <trkpt lat="32.596488017588854" lon="-4.529036991298199">
        <ele>1903.5999999999999</ele>
        <time>2003-04-13T16:01:33Z</time>
      </trkpt>
      <trkpt lat="32.595787961035967" lon="-4.528489988297224">
        <ele>1900.9000000000001</ele>
        <time>2003-04-13T16:01:39Z</time>
      </trkpt>
      <trkpt lat="32.595527032390237" lon="-4.528171978890896">
        <ele>1899.0999999999999</ele>
        <time>2003-04-13T16:01:40Z</time>
      </trkpt>
      <trkpt lat="32.595327040180564" lon="-4.52779202722013">
        <ele>1897.8</ele>
        <time>2003-04-13T16:01:43Z</time>
      </trkpt>
      <trkpt lat="32.594863018020988" lon="-4.526794999837875">
        <ele>1893.5</ele>
        <time>2003-04-13T16:01:48Z</time>
      </trkpt>
      <trkpt lat="32.594369994476438" lon="-4.525690013542771">
        <ele>1890.5999999999999</ele>
        <time>2003-04-13T16:01:52Z</time>
      </trkpt>
      <trkpt lat="32.593915024772286" lon="-4.524640012532473">
        <ele>1888.2</ele>
        <time>2003-04-13T16:01:57Z</time>
      </trkpt>
      <trkpt lat="32.593558039516211" lon="-4.523581964895129">
        <ele>1884.8</ele>
        <time>2003-04-13T16:02:03Z</time>
      </trkpt>
      <trkpt lat="32.593195019289851" lon="-4.522430039942265">
        <ele>1878.4000000000001</ele>
        <time>2003-04-13T16:02:07Z</time>
      </trkpt>
      <trkpt lat="32.593055041506886" lon="-4.521686984226108">
        <ele>1875.5</ele>
        <time>2003-04-13T16:02:11Z</time>
      </trkpt>
      <trkpt lat="32.592872986570001" lon="-4.520515026524663">
        <ele>1871</ele>
        <time>2003-04-13T16:02:15Z</time>
      </trkpt>
      <trkpt lat="32.592654973268509" lon="-4.519352037459612">
        <ele>1867.5</ele>
        <time>2003-04-13T16:02:19Z</time>
      </trkpt>
      <trkpt lat="32.592535028234124" lon="-4.518255013972521">
        <ele>1865.8</ele>
        <time>2003-04-13T16:02:23Z</time>
      </trkpt>
      <trkpt lat="32.592565035447478" lon="-4.517165031284094">
        <ele>1864.5</ele>
        <time>2003-04-13T16:02:27Z</time>
      </trkpt>
      <trkpt lat="32.592748012393713" lon="-4.515880001708865">
        <ele>1869</ele>
        <time>2003-04-13T16:02:31Z</time>
      </trkpt>
      <trkpt lat="32.592837028205395" lon="-4.51492203399539">
        <ele>1871.5</ele>
        <time>2003-04-13T16:02:35Z</time>
      </trkpt>
      <trkpt lat="32.592805009335279" lon="-4.513617977499962">
        <ele>1872.0999999999999</ele>
        <time>2003-04-13T16:02:41Z</time>
      </trkpt>
      <trkpt lat="32.592775002121925" lon="-4.512533023953438">
        <ele>1871.9000000000001</ele>
        <time>2003-04-13T16:02:45Z</time>
      </trkpt>
      <trkpt lat="32.59274298325181" lon="-4.511427031829953">
        <ele>1868.4000000000001</ele>
        <time>2003-04-13T16:02:49Z</time>
      </trkpt>
      <trkpt lat="32.592772990465164" lon="-4.510367978364229">
        <ele>1867.5</ele>
        <time>2003-04-13T16:02:53Z</time>
      </trkpt>
      <trkpt lat="32.592901987954974" lon="-4.509881995618343">
        <ele>1866.5</ele>
        <time>2003-04-13T16:02:54Z</time>
      </trkpt>
      <trkpt lat="32.59321304038167" lon="-4.508653040975332">
        <ele>1860.9000000000001</ele>
        <time>2003-04-13T16:03:00Z</time>
      </trkpt>
      <trkpt lat="32.593270037323236" lon="-4.508167980238795">
        <ele>1859.7</ele>
        <time>2003-04-13T16:03:01Z</time>
      </trkpt>
      <trkpt lat="32.593328040093184" lon="-4.506962997838855">
        <ele>1858</ele>
        <time>2003-04-13T16:03:06Z</time>
      </trkpt>
      <trkpt lat="32.593398028984666" lon="-4.50574804097414">
        <ele>1854.9000000000001</ele>
        <time>2003-04-13T16:03:12Z</time>
      </trkpt>
      <trkpt lat="32.593413032591343" lon="-4.504776997491717">
        <ele>1855.8</ele>
        <time>2003-04-13T16:03:16Z</time>
      </trkpt>
      <trkpt lat="32.593307001516223" lon="-4.504297971725464">
        <ele>1857.9000000000001</ele>
        <time>2003-04-13T16:03:17Z</time>
      </trkpt>
      <trkpt lat="32.593127964064479" lon="-4.50383797287941">
        <ele>1858.4000000000001</ele>
        <time>2003-04-13T16:03:20Z</time>
      </trkpt>
      <trkpt lat="32.592762010172009" lon="-4.503191979601979">
        <ele>1858.9000000000001</ele>
        <time>2003-04-13T16:03:23Z</time>
      </trkpt>
      <trkpt lat="32.592305028811097" lon="-4.502602983266115">
        <ele>1857</ele>
        <time>2003-04-13T16:03:25Z</time>
      </trkpt>
      <trkpt lat="32.591658029705286" lon="-4.501807037740946">
        <ele>1851.7</ele>
        <time>2003-04-13T16:03:29Z</time>
      </trkpt>
      <trkpt lat="32.590987980365753" lon="-4.500967003405094">
        <ele>1848.3</ele>
        <time>2003-04-13T16:03:33Z</time>
      </trkpt>
      <trkpt lat="32.590267974883318" lon="-4.500067038461566">
        <ele>1842.7</ele>
        <time>2003-04-13T16:03:37Z</time>
      </trkpt>
      <trkpt lat="32.589542018249631" lon="-4.499179981648922">
        <ele>1838.0999999999999</ele>
        <time>2003-04-13T16:03:41Z</time>
      </trkpt>
      <trkpt lat="32.588814971968532" lon="-4.49829300865531">
        <ele>1833.4000000000001</ele>
        <time>2003-04-13T16:03:45Z</time>
      </trkpt>
      <trkpt lat="32.588063031435013" lon="-4.497367981821299">
        <ele>1828.9000000000001</ele>
        <time>2003-04-13T16:03:50Z</time>
      </trkpt>
      <trkpt lat="32.58730698376894" lon="-4.496432980522513">
        <ele>1824.4000000000001</ele>
        <time>2003-04-13T16:03:54Z</time>
      </trkpt>
      <trkpt lat="32.586569963023067" lon="-4.495533015578985">
        <ele>1821</ele>
        <time>2003-04-13T16:03:58Z</time>
      </trkpt>
      <trkpt lat="32.585950037464499" lon="-4.494934966787696">
        <ele>1817.4000000000001</ele>
        <time>2003-04-13T16:04:00Z</time>
      </trkpt>
      <trkpt lat="32.585466988384724" lon="-4.494630033150315">
        <ele>1814.4000000000001</ele>
        <time>2003-04-13T16:04:03Z</time>
      </trkpt>
      <trkpt lat="32.584453029558063" lon="-4.493972975760698">
        <ele>1806.7</ele>
        <time>2003-04-13T16:04:07Z</time>
      </trkpt>
      <trkpt lat="32.583421971648932" lon="-4.493303010240197">
        <ele>1799.0999999999999</ele>
        <time>2003-04-13T16:04:11Z</time>
      </trkpt>
      <trkpt lat="32.582442965358496" lon="-4.492661962285638">
        <ele>1794.2</ele>
        <time>2003-04-13T16:04:15Z</time>
      </trkpt>
      <trkpt lat="32.58150695823133" lon="-4.492057040333748">
        <ele>1789.8</ele>
        <time>2003-04-13T16:04:19Z</time>
      </trkpt>
      <trkpt lat="32.580547984689474" lon="-4.491427978500724">
        <ele>1785.2</ele>
        <time>2003-04-13T16:04:22Z</time>
      </trkpt>
      <trkpt lat="32.579579958692193" lon="-4.490805035457015">
        <ele>1781.3</ele>
        <time>2003-04-13T16:04:26Z</time>
      </trkpt>
      <trkpt lat="32.578642023727298" lon="-4.49019500054419">
        <ele>1776.3</ele>
        <time>2003-04-13T16:04:30Z</time>
      </trkpt>
      <trkpt lat="32.577669974416494" lon="-4.489563005045056">
        <ele>1773.3</ele>
        <time>2003-04-13T16:04:34Z</time>
      </trkpt>
      <trkpt lat="32.576706977561116" lon="-4.488933021202683">
        <ele>1771.5</ele>
        <time>2003-04-13T16:04:38Z</time>
      </trkpt>
      <trkpt lat="32.575757978484035" lon="-4.488317035138607">
        <ele>1768.7</ele>
        <time>2003-04-13T16:04:42Z</time>
      </trkpt>
      <trkpt lat="32.574776960536838" lon="-4.487789981067181">
        <ele>1766.5999999999999</ele>
        <time>2003-04-13T16:04:46Z</time>
      </trkpt>
      <trkpt lat="32.57426499389112" lon="-4.487644974142313">
        <ele>1766.2</ele>
        <time>2003-04-13T16:04:49Z</time>
      </trkpt>
      <trkpt lat="32.573486985638738" lon="-4.487587977200747">
        <ele>1765.3</ele>
        <time>2003-04-13T16:04:52Z</time>
      </trkpt>
      <trkpt lat="32.572470009326935" lon="-4.487719992175698">
        <ele>1761.5</ele>
        <time>2003-04-13T16:04:56Z</time>
      </trkpt>
      <trkpt lat="32.571462001651525" lon="-4.487817976623774">
        <ele>1761.8</ele>
        <time>2003-04-13T16:05:00Z</time>
      </trkpt>
      <trkpt lat="32.570447036996484" lon="-4.487912021577358">
        <ele>1758.3</ele>
        <time>2003-04-13T16:05:04Z</time>
      </trkpt>
      <trkpt lat="32.569398041814566" lon="-4.488002965226769">
        <ele>1756.0999999999999</ele>
        <time>2003-04-13T16:05:08Z</time>
      </trkpt>
      <trkpt lat="32.568354997783899" lon="-4.488222990185022">
        <ele>1755.4000000000001</ele>
        <time>2003-04-13T16:05:12Z</time>
      </trkpt>
      <trkpt lat="32.567368028685451" lon="-4.488515015691519">
        <ele>1753.4000000000001</ele>
        <time>2003-04-13T16:05:16Z</time>
      </trkpt>
      <trkpt lat="32.566388016566634" lon="-4.488800000399351">
        <ele>1750.5999999999999</ele>
        <time>2003-04-13T16:05:20Z</time>
      </trkpt>
      <trkpt lat="32.565362993627787" lon="-4.48903301730752">
        <ele>1746.8</ele>
        <time>2003-04-13T16:05:24Z</time>
      </trkpt>
      <trkpt lat="32.564563024789095" lon="-4.489039974287152">
        <ele>1746.0999999999999</ele>
        <time>2003-04-13T16:05:27Z</time>
      </trkpt>
      <trkpt lat="32.563498020172119" lon="-4.488941989839077">
        <ele>1744.4000000000001</ele>
        <time>2003-04-13T16:05:31Z</time>
      </trkpt>
      <trkpt lat="32.562423041090369" lon="-4.488864960148931">
        <ele>1740.9000000000001</ele>
        <time>2003-04-13T16:05:35Z</time>
      </trkpt>
      <trkpt lat="32.561347978189588" lon="-4.488788014277816">
        <ele>1738.0999999999999</ele>
        <time>2003-04-13T16:05:39Z</time>
      </trkpt>
      <trkpt lat="32.560290014371276" lon="-4.488712996244431">
        <ele>1737.5999999999999</ele>
        <time>2003-04-13T16:05:43Z</time>
      </trkpt>
      <trkpt lat="32.559231966733932" lon="-4.488636972382665">
        <ele>1735</ele>
        <time>2003-04-13T16:05:47Z</time>
      </trkpt>
      <trkpt lat="32.55791500210762" lon="-4.488542005419731">
        <ele>1731.9000000000001</ele>
        <time>2003-04-13T16:05:51Z</time>
      </trkpt>
      <trkpt lat="32.556857960298657" lon="-4.488466987386346">
        <ele>1730.5999999999999</ele>
        <time>2003-04-13T16:05:55Z</time>
      </trkpt>
      <trkpt lat="32.555805025622249" lon="-4.488387024030089">
        <ele>1728.7</ele>
        <time>2003-04-13T16:05:59Z</time>
      </trkpt>
      <trkpt lat="32.554746977984905" lon="-4.488306976854801">
        <ele>1727.3</ele>
        <time>2003-04-13T16:06:03Z</time>
      </trkpt>
      <trkpt lat="32.553673004731536" lon="-4.488215027377009">
        <ele>1724.5</ele>
        <time>2003-04-13T16:06:07Z</time>
      </trkpt>
      <trkpt lat="32.552577992901206" lon="-4.488143026828766">
        <ele>1721.8</ele>
        <time>2003-04-13T16:06:11Z</time>
      </trkpt>
      <trkpt lat="32.551503013819456" lon="-4.488068008795381">
        <ele>1718.5999999999999</ele>
        <time>2003-04-13T16:06:15Z</time>
      </trkpt>
      <trkpt lat="32.550413031131029" lon="-4.487977987155318">
        <ele>1713.5999999999999</ele>
        <time>2003-04-13T16:06:19Z</time>
      </trkpt>
      <trkpt lat="32.549354983493686" lon="-4.487912021577358">
        <ele>1707.9000000000001</ele>
        <time>2003-04-13T16:06:23Z</time>
      </trkpt>
      <trkpt lat="32.54833297803998" lon="-4.487816970795393">
        <ele>1708.8</ele>
        <time>2003-04-13T16:06:27Z</time>
      </trkpt>
      <trkpt lat="32.547317007556558" lon="-4.487742958590388">
        <ele>1707</ele>
        <time>2003-04-13T16:06:32Z</time>
      </trkpt>
      <trkpt lat="32.546313023194671" lon="-4.487662995234132">
        <ele>1704.5</ele>
        <time>2003-04-13T16:06:36Z</time>
      </trkpt>
      <trkpt lat="32.545269979164004" lon="-4.487471971660852">
        <ele>1702.4000000000001</ele>
        <time>2003-04-13T16:06:40Z</time>
      </trkpt>
      <trkpt lat="32.544189970940351" lon="-4.487201990559697">
        <ele>1700.8</ele>
        <time>2003-04-13T16:06:44Z</time>
      </trkpt>
      <trkpt lat="32.543081967160106" lon="-4.486926980316639">
        <ele>1699.4000000000001</ele>
        <time>2003-04-13T16:06:48Z</time>
      </trkpt>
      <trkpt lat="32.541961977258325" lon="-4.48664995841682">
        <ele>1698.5</ele>
        <time>2003-04-13T16:06:52Z</time>
      </trkpt>
      <trkpt lat="32.540822038426995" lon="-4.486367991194129">
        <ele>1696.4000000000001</ele>
        <time>2003-04-13T16:06:56Z</time>
      </trkpt>
      <trkpt lat="32.539757033810019" lon="-4.486113013699651">
        <ele>1696.4000000000001</ele>
        <time>2003-04-13T16:07:00Z</time>
      </trkpt>
      <trkpt lat="32.538839969784021" lon="-4.485801961272955">
        <ele>1700.7</ele>
        <time>2003-04-13T16:07:04Z</time>
      </trkpt>
      <trkpt lat="32.537832967936993" lon="-4.485416980460286">
        <ele>1699.4000000000001</ele>
        <time>2003-04-13T16:07:08Z</time>
      </trkpt>
      <trkpt lat="32.53683703020215" lon="-4.485038034617901">
        <ele>1698.9000000000001</ele>
        <time>2003-04-13T16:07:13Z</time>
      </trkpt>
      <trkpt lat="32.535770013928413" lon="-4.484645007178187">
        <ele>1697.8</ele>
        <time>2003-04-13T16:07:19Z</time>
      </trkpt>
      <trkpt lat="32.534878011792898" lon="-4.484403021633625">
        <ele>1696.5999999999999</ele>
        <time>2003-04-13T16:07:23Z</time>
      </trkpt>
      <trkpt lat="32.533919960260391" lon="-4.484181990846992">
        <ele>1694.5999999999999</ele>
        <time>2003-04-13T16:07:27Z</time>
      </trkpt>
      <trkpt lat="32.532910024747252" lon="-4.483946962282062">
        <ele>1692.7</ele>
        <time>2003-04-13T16:07:31Z</time>
      </trkpt>
      <trkpt lat="32.531932024285197" lon="-4.48370698839426">
        <ele>1691</ele>
        <time>2003-04-13T16:07:35Z</time>
      </trkpt>
      <trkpt lat="32.530910018831491" lon="-4.483457962051034">
        <ele>1688.3</ele>
        <time>2003-04-13T16:07:39Z</time>
      </trkpt>
      <trkpt lat="32.529878038913012" lon="-4.483219999819994">
        <ele>1686.2</ele>
        <time>2003-04-13T16:07:43Z</time>
      </trkpt>
      <trkpt lat="32.528828037902713" lon="-4.483026964589953">
        <ele>1684.2</ele>
        <time>2003-04-13T16:07:47Z</time>
      </trkpt>
      <trkpt lat="32.527767978608608" lon="-4.482869971543551">
        <ele>1681.2</ele>
        <time>2003-04-13T16:07:51Z</time>
      </trkpt>
      <trkpt lat="32.526706997305155" lon="-4.482718007639051">
        <ele>1677.5999999999999</ele>
        <time>2003-04-13T16:07:55Z</time>
      </trkpt>
      <trkpt lat="32.525658002123237" lon="-4.482563026249409">
        <ele>1677.2</ele>
        <time>2003-04-13T16:07:58Z</time>
      </trkpt>
      <trkpt lat="32.524628033861518" lon="-4.482422964647412">
        <ele>1676.5999999999999</ele>
        <time>2003-04-13T16:08:02Z</time>
      </trkpt>
      <trkpt lat="32.523608040064573" lon="-4.482322968542576">
        <ele>1675.4000000000001</ele>
        <time>2003-04-13T16:08:06Z</time>
      </trkpt>
      <trkpt lat="32.522598020732403" lon="-4.482228001579642">
        <ele>1674.5999999999999</ele>
        <time>2003-04-13T16:08:10Z</time>
      </trkpt>
      <trkpt lat="32.521557994186878" lon="-4.482130017131567">
        <ele>1672.5999999999999</ele>
        <time>2003-04-13T16:08:14Z</time>
      </trkpt>
      <trkpt lat="32.520500030368567" lon="-4.482052987441421">
        <ele>1670.0999999999999</ele>
        <time>2003-04-13T16:08:18Z</time>
      </trkpt>
      <trkpt lat="32.519720010459423" lon="-4.482134962454438">
        <ele>1668.3</ele>
        <time>2003-04-13T16:08:22Z</time>
      </trkpt>
      <trkpt lat="32.517686979845166" lon="-4.482463030144572">
        <ele>1664.0999999999999</ele>
        <time>2003-04-13T16:08:29Z</time>
      </trkpt>
      <trkpt lat="32.516773017123342" lon="-4.482603007927537">
        <ele>1662.5999999999999</ele>
        <time>2003-04-13T16:08:33Z</time>
      </trkpt>
      <trkpt lat="32.515683034434915" lon="-4.482750026509166">
        <ele>1660.5</ele>
        <time>2003-04-13T16:08:38Z</time>
      </trkpt>
      <trkpt lat="32.514648037031293" lon="-4.482852034270763">
        <ele>1657.2</ele>
        <time>2003-04-13T16:08:44Z</time>
      </trkpt>
      <trkpt lat="32.514312006533146" lon="-4.482893021777272">
        <ele>1656.5</ele>
        <time>2003-04-13T16:08:45Z</time>
      </trkpt>
      <trkpt lat="32.514043031260371" lon="-4.482982037588954">
        <ele>1655.4000000000001</ele>
        <time>2003-04-13T16:08:48Z</time>
      </trkpt>
      <trkpt lat="32.513652015477419" lon="-4.483131989836693">
        <ele>1652.5999999999999</ele>
        <time>2003-04-13T16:08:51Z</time>
      </trkpt>
      <trkpt lat="32.512756995856762" lon="-4.483380010351539">
        <ele>1647</ele>
        <time>2003-04-13T16:08:56Z</time>
      </trkpt>
      <trkpt lat="32.512321975082159" lon="-4.483467014506459">
        <ele>1646</ele>
        <time>2003-04-13T16:09:00Z</time>
      </trkpt>
      <trkpt lat="32.512177973985672" lon="-4.483444970101118">
        <ele>1646.3</ele>
        <time>2003-04-13T16:09:00Z</time>
      </trkpt>
      <trkpt lat="32.512045037001371" lon="-4.483401970937848">
        <ele>1647.8</ele>
        <time>2003-04-13T16:09:01Z</time>
      </trkpt>
      <trkpt lat="32.511625019833446" lon="-4.48331999592483">
        <ele>1646.4000000000001</ele>
        <time>2003-04-13T16:09:04Z</time>
      </trkpt>
      <trkpt lat="32.51148696988821" lon="-4.483344973996282">
        <ele>1646.5</ele>
        <time>2003-04-13T16:09:05Z</time>
      </trkpt>
      <trkpt lat="32.510742992162704" lon="-4.48346802033484">
        <ele>1648.7</ele>
        <time>2003-04-13T16:09:12Z</time>
      </trkpt>
      <trkpt lat="32.510564960539341" lon="-4.483437007293105">
        <ele>1648.5</ele>
        <time>2003-04-13T16:09:14Z</time>
      </trkpt>
      <trkpt lat="32.509866999462247" lon="-4.483293006196618">
        <ele>1647.7</ele>
        <time>2003-04-13T16:09:20Z</time>
      </trkpt>
      <trkpt lat="32.509480006992817" lon="-4.483317984268069">
        <ele>1647.4000000000001</ele>
        <time>2003-04-13T16:09:23Z</time>
      </trkpt>
      <trkpt lat="32.509012967348099" lon="-4.483342962339521">
        <ele>1646.4000000000001</ele>
        <time>2003-04-13T16:09:27Z</time>
      </trkpt>
      <trkpt lat="32.508273012936115" lon="-4.483389984816313">
        <ele>1644.3</ele>
        <time>2003-04-13T16:09:31Z</time>
      </trkpt>
      <trkpt lat="32.507223011925817" lon="-4.483453016728163">
        <ele>1641.8</ele>
        <time>2003-04-13T16:09:35Z</time>
      </trkpt>
      <trkpt lat="32.506126994267106" lon="-4.48351202532649">
        <ele>1641.2</ele>
        <time>2003-04-13T16:09:41Z</time>
      </trkpt>
      <trkpt lat="32.505201967433095" lon="-4.48355502448976">
        <ele>1641.0999999999999</ele>
        <time>2003-04-13T16:09:45Z</time>
      </trkpt>
      <trkpt lat="32.504299990832806" lon="-4.483617972582579">
        <ele>1640.5999999999999</ele>
        <time>2003-04-13T16:09:49Z</time>
      </trkpt>
      <trkpt lat="32.503373036161065" lon="-4.483700031414628">
        <ele>1639.5</ele>
        <time>2003-04-13T16:09:53Z</time>
      </trkpt>
      <trkpt lat="32.502908008173108" lon="-4.483810001984239">
        <ele>1639</ele>
        <time>2003-04-13T16:09:54Z</time>
      </trkpt>
      <trkpt lat="32.501993039622903" lon="-4.484118036925793">
        <ele>1639</ele>
        <time>2003-04-13T16:09:58Z</time>
      </trkpt>
      <trkpt lat="32.501062983646989" lon="-4.484417019411922">
        <ele>1638.0999999999999</ele>
        <time>2003-04-13T16:10:02Z</time>
      </trkpt>
      <trkpt lat="32.500103004276752" lon="-4.484712984412909">
        <ele>1637.9000000000001</ele>
        <time>2003-04-13T16:10:06Z</time>
      </trkpt>
      <trkpt lat="32.499145036563277" lon="-4.485022025182843">
        <ele>1637.3</ele>
        <time>2003-04-13T16:10:10Z</time>
      </trkpt>
      <trkpt lat="32.498177010565996" lon="-4.48531799018383">
        <ele>1638.7</ele>
        <time>2003-04-13T16:10:14Z</time>
      </trkpt>
      <trkpt lat="32.4971769656986" lon="-4.485628036782146">
        <ele>1636.7</ele>
        <time>2003-04-13T16:10:18Z</time>
      </trkpt>
      <trkpt lat="32.496220003813505" lon="-4.485934982076287">
        <ele>1634.5999999999999</ele>
        <time>2003-04-13T16:10:22Z</time>
      </trkpt>
      <trkpt lat="32.495322972536087" lon="-4.48621803894639">
        <ele>1631.9000000000001</ele>
        <time>2003-04-13T16:10:26Z</time>
      </trkpt>
      <trkpt lat="32.494452008977532" lon="-4.48649799451232">
        <ele>1630.8</ele>
        <time>2003-04-13T16:10:30Z</time>
      </trkpt>
      <trkpt lat="32.493577022105455" lon="-4.4867770280689">
        <ele>1629.9000000000001</ele>
        <time>2003-04-13T16:10:35Z</time>
      </trkpt>
      <trkpt lat="32.492510005831718" lon="-4.487111968919635">
        <ele>1628.4000000000001</ele>
        <time>2003-04-13T16:10:40Z</time>
      </trkpt>
      <trkpt lat="32.491448018699884" lon="-4.487456968054175">
        <ele>1626.2</ele>
        <time>2003-04-13T16:10:44Z</time>
      </trkpt>
      <trkpt lat="32.490419978275895" lon="-4.487782018259168">
        <ele>1624.7</ele>
        <time>2003-04-13T16:10:49Z</time>
      </trkpt>
      <trkpt lat="32.489367965608835" lon="-4.488117964938283">
        <ele>1622.7</ele>
        <time>2003-04-13T16:10:55Z</time>
      </trkpt>
      <trkpt lat="32.488488033413887" lon="-4.488396998494864">
        <ele>1622.5</ele>
        <time>2003-04-13T16:10:59Z</time>
      </trkpt>
      <trkpt lat="32.487592007964849" lon="-4.488677959889174">
        <ele>1622.8</ele>
        <time>2003-04-13T16:11:03Z</time>
      </trkpt>
      <trkpt lat="32.486675027757883" lon="-4.488971997052431">
        <ele>1622.5999999999999</ele>
        <time>2003-04-13T16:11:07Z</time>
      </trkpt>
      <trkpt lat="32.485734997317195" lon="-4.489259999245405">
        <ele>1621.8</ele>
        <time>2003-04-13T16:11:11Z</time>
      </trkpt>
      <trkpt lat="32.484769988805056" lon="-4.489580020308495">
        <ele>1620.0999999999999</ele>
        <time>2003-04-13T16:11:15Z</time>
      </trkpt>
      <trkpt lat="32.483776984736323" lon="-4.489900041371584">
        <ele>1618.9000000000001</ele>
        <time>2003-04-13T16:11:19Z</time>
      </trkpt>
      <trkpt lat="32.482778029516339" lon="-4.490232970565558">
        <ele>1617.5999999999999</ele>
        <time>2003-04-13T16:11:23Z</time>
      </trkpt>
      <trkpt lat="32.481802962720394" lon="-4.490570006892085">
        <ele>1615.2</ele>
        <time>2003-04-13T16:11:27Z</time>
      </trkpt>
      <trkpt lat="32.480816999450326" lon="-4.490878041833639">
        <ele>1612.9000000000001</ele>
        <time>2003-04-13T16:11:31Z</time>
      </trkpt>
      <trkpt lat="32.4798150267452" lon="-4.491073004901409">
        <ele>1613.8</ele>
        <time>2003-04-13T16:11:34Z</time>
      </trkpt>
      <trkpt lat="32.478835014626384" lon="-4.491252964362502">
        <ele>1611.5999999999999</ele>
        <time>2003-04-13T16:11:38Z</time>
      </trkpt>
      <trkpt lat="32.478128001093864" lon="-4.491487992927432">
        <ele>1610.5999999999999</ele>
        <time>2003-04-13T16:11:42Z</time>
      </trkpt>
      <trkpt lat="32.47721797786653" lon="-4.491831986233592">
        <ele>1610.0999999999999</ele>
        <time>2003-04-13T16:11:46Z</time>
      </trkpt>
      <trkpt lat="32.476297980174422" lon="-4.492176985368133">
        <ele>1609.9000000000001</ele>
        <time>2003-04-13T16:11:50Z</time>
      </trkpt>
      <trkpt lat="32.475370019674301" lon="-4.492542017251253">
        <ele>1609.5999999999999</ele>
        <time>2003-04-13T16:11:54Z</time>
      </trkpt>
      <trkpt lat="32.474699970334768" lon="-4.492907971143723">
        <ele>1607.9000000000001</ele>
        <time>2003-04-13T16:11:57Z</time>
      </trkpt>
      <trkpt lat="32.474326975643635" lon="-4.493232015520334">
        <ele>1608.7</ele>
        <time>2003-04-13T16:11:58Z</time>
      </trkpt>
      <trkpt lat="32.473557014018297" lon="-4.493827968835831">
        <ele>1607.8</ele>
        <time>2003-04-13T16:12:02Z</time>
      </trkpt>
      <trkpt lat="32.472756961360574" lon="-4.494436997920275">
        <ele>1607.0999999999999</ele>
        <time>2003-04-13T16:12:06Z</time>
      </trkpt>
      <trkpt lat="32.471933020278811" lon="-4.495057007297874">
        <ele>1606.5999999999999</ele>
        <time>2003-04-13T16:12:10Z</time>
      </trkpt>
      <trkpt lat="32.471074964851141" lon="-4.495710041373968">
        <ele>1602.7</ele>
        <time>2003-04-13T16:12:14Z</time>
      </trkpt>
      <trkpt lat="32.470295028761029" lon="-4.496310018002987">
        <ele>1601.9000000000001</ele>
        <time>2003-04-13T16:12:18Z</time>
      </trkpt>
      <trkpt lat="32.469980036839843" lon="-4.496544962748885">
        <ele>1602</ele>
        <time>2003-04-13T16:12:21Z</time>
      </trkpt>
      <trkpt lat="32.469066996127367" lon="-4.497173018753529">
        <ele>1602.2</ele>
        <time>2003-04-13T16:12:28Z</time>
      </trkpt>
      <trkpt lat="32.468570033088326" lon="-4.497379967942834">
        <ele>1602</ele>
        <time>2003-04-13T16:12:29Z</time>
      </trkpt>
      <trkpt lat="32.467507962137461" lon="-4.49764802120626">
        <ele>1599.0999999999999</ele>
        <time>2003-04-13T16:12:36Z</time>
      </trkpt>
      <trkpt lat="32.46651504188776" lon="-4.497881960123777">
        <ele>1597</ele>
        <time>2003-04-13T16:12:41Z</time>
      </trkpt>
      <trkpt lat="32.465487001463771" lon="-4.498110031709075">
        <ele>1596.8</ele>
        <time>2003-04-13T16:12:47Z</time>
      </trkpt>
      <trkpt lat="32.464498020708561" lon="-4.498346988111734">
        <ele>1596.7</ele>
        <time>2003-04-13T16:12:52Z</time>
      </trkpt>
      <trkpt lat="32.463535023853183" lon="-4.498600037768483">
        <ele>1595.7</ele>
        <time>2003-04-13T16:12:56Z</time>
      </trkpt>
      <trkpt lat="32.463175021111965" lon="-4.498817967250943">
        <ele>1594.9000000000001</ele>
        <time>2003-04-13T16:12:59Z</time>
      </trkpt>
      <trkpt lat="32.462667999789119" lon="-4.499224992468953">
        <ele>1593.5999999999999</ele>
        <time>2003-04-13T16:13:02Z</time>
      </trkpt>
      <trkpt lat="32.461868030950427" lon="-4.499937035143375">
        <ele>1591.7</ele>
        <time>2003-04-13T16:13:07Z</time>
      </trkpt>
      <trkpt lat="32.461309963837266" lon="-4.500416982918978">
        <ele>1591.0999999999999</ele>
        <time>2003-04-13T16:13:11Z</time>
      </trkpt>
      <trkpt lat="32.460860023275018" lon="-4.500700039789081">
        <ele>1590.2</ele>
        <time>2003-04-13T16:13:14Z</time>
      </trkpt>
      <trkpt lat="32.460012026131153" lon="-4.500832976773381">
        <ele>1587.9000000000001</ele>
        <time>2003-04-13T16:13:19Z</time>
      </trkpt>
      <trkpt lat="32.459667026996613" lon="-4.500757958739996">
        <ele>1586.4000000000001</ele>
        <time>2003-04-13T16:13:21Z</time>
      </trkpt>
      <trkpt lat="32.459505004808307" lon="-4.500687969848514">
        <ele>1585.9000000000001</ele>
        <time>2003-04-13T16:13:22Z</time>
      </trkpt>
      <trkpt lat="32.459184983745217" lon="-4.50048303231597">
        <ele>1584.3</ele>
        <time>2003-04-13T16:13:23Z</time>
      </trkpt>
      <trkpt lat="32.458892036229372" lon="-4.500201987102628">
        <ele>1583.8</ele>
        <time>2003-04-13T16:13:26Z</time>
      </trkpt>
      <trkpt lat="32.458142023533583" lon="-4.499392965808511">
        <ele>1584.0999999999999</ele>
        <time>2003-04-13T16:13:31Z</time>
      </trkpt>
      <trkpt lat="32.457325039431453" lon="-4.498621998354793">
        <ele>1586.7</ele>
        <time>2003-04-13T16:13:38Z</time>
      </trkpt>
      <trkpt lat="32.457048017531633" lon="-4.498504986986518">
        <ele>1586.7</ele>
        <time>2003-04-13T16:13:41Z</time>
      </trkpt>
      <trkpt lat="32.456597993150353" lon="-4.498414965346456">
        <ele>1586.7</ele>
        <time>2003-04-13T16:13:44Z</time>
      </trkpt>
      <trkpt lat="32.456260034814477" lon="-4.498437009751797">
        <ele>1586.7</ele>
        <time>2003-04-13T16:13:46Z</time>
      </trkpt>
      <trkpt lat="32.456091977655888" lon="-4.49848797172308">
        <ele>1586.9000000000001</ele>
        <time>2003-04-13T16:13:46Z</time>
      </trkpt>
      <trkpt lat="32.455208022147417" lon="-4.498819978907704">
        <ele>1586.9000000000001</ele>
        <time>2003-04-13T16:13:52Z</time>
      </trkpt>
      <trkpt lat="32.454167995601892" lon="-4.499170007184148">
        <ele>1587.7</ele>
        <time>2003-04-13T16:13:57Z</time>
      </trkpt>
      <trkpt lat="32.453764993697405" lon="-4.49921996332705">
        <ele>1588.5999999999999</ele>
        <time>2003-04-13T16:13:58Z</time>
      </trkpt>
      <trkpt lat="32.453570030629635" lon="-4.499188028275967">
        <ele>1589</ele>
        <time>2003-04-13T16:14:00Z</time>
      </trkpt>
      <trkpt lat="32.453384958207607" lon="-4.499115021899343">
        <ele>1589.7</ele>
        <time>2003-04-13T16:14:01Z</time>
      </trkpt>
      <trkpt lat="32.453048005700111" lon="-4.498902959749103">
        <ele>1591.0999999999999</ele>
        <time>2003-04-13T16:14:02Z</time>
      </trkpt>
      <trkpt lat="32.452605022117496" lon="-4.498493000864983">
        <ele>1590.8</ele>
        <time>2003-04-13T16:14:05Z</time>
      </trkpt>
      <trkpt lat="32.45237804017961" lon="-4.498180020600557">
        <ele>1591.9000000000001</ele>
        <time>2003-04-13T16:14:08Z</time>
      </trkpt>
      <trkpt lat="32.452311990782619" lon="-4.497986985370517">
        <ele>1592.7</ele>
        <time>2003-04-13T16:14:09Z</time>
      </trkpt>
      <trkpt lat="32.452277038246393" lon="-4.497782969847322">
        <ele>1593.7</ele>
        <time>2003-04-13T16:14:09Z</time>
      </trkpt>
      <trkpt lat="32.452279971912503" lon="-4.497577026486397">
        <ele>1593.9000000000001</ele>
        <time>2003-04-13T16:14:11Z</time>
      </trkpt>
      <trkpt lat="32.452320037409663" lon="-4.497377034276724">
        <ele>1594.8</ele>
        <time>2003-04-13T16:14:12Z</time>
      </trkpt>
      <trkpt lat="32.452451968565583" lon="-4.496990041807294">
        <ele>1595.7</ele>
        <time>2003-04-13T16:14:13Z</time>
      </trkpt>
      <trkpt lat="32.452720021829009" lon="-4.496434992179275">
        <ele>1597.4000000000001</ele>
        <time>2003-04-13T16:14:16Z</time>
      </trkpt>
      <trkpt lat="32.453056974336505" lon="-4.495767960324884">
        <ele>1598.9000000000001</ele>
        <time>2003-04-13T16:14:20Z</time>
      </trkpt>
      <trkpt lat="32.45308798737824" lon="-4.495387002825737">
        <ele>1599.8</ele>
        <time>2003-04-13T16:14:23Z</time>
      </trkpt>
      <trkpt lat="32.453056974336505" lon="-4.495217017829418">
        <ele>1600.2</ele>
        <time>2003-04-13T16:14:24Z</time>
      </trkpt>
      <trkpt lat="32.452993020415306" lon="-4.495060024783015">
        <ele>1600.7</ele>
        <time>2003-04-13T16:14:24Z</time>
      </trkpt>
      <trkpt lat="32.452902998775244" lon="-4.494917029514909">
        <ele>1602</ele>
        <time>2003-04-13T16:14:25Z</time>
      </trkpt>
      <trkpt lat="32.452760003507137" lon="-4.494613017886877">
        <ele>1604.5</ele>
        <time>2003-04-13T16:14:28Z</time>
      </trkpt>
      <trkpt lat="32.452729996293783" lon="-4.494436997920275">
        <ele>1605.0999999999999</ele>
        <time>2003-04-13T16:14:28Z</time>
      </trkpt>
      <trkpt lat="32.452735025435686" lon="-4.494262989610434">
        <ele>1606</ele>
        <time>2003-04-13T16:14:29Z</time>
      </trkpt>
      <trkpt lat="32.452703006565571" lon="-4.493797039613128">
        <ele>1607.4000000000001</ele>
        <time>2003-04-13T16:14:32Z</time>
      </trkpt>
      <trkpt lat="32.452602004632354" lon="-4.49369695968926">
        <ele>1606.7</ele>
        <time>2003-04-13T16:14:33Z</time>
      </trkpt>
      <trkpt lat="32.452473007142544" lon="-4.493623031303287">
        <ele>1606.2</ele>
        <time>2003-04-13T16:14:35Z</time>
      </trkpt>
      <trkpt lat="32.45207997970283" lon="-4.493337040767074">
        <ele>1604.8</ele>
        <time>2003-04-13T16:14:38Z</time>
      </trkpt>
      <trkpt lat="32.451461981981993" lon="-4.492577975615859">
        <ele>1601</ele>
        <time>2003-04-13T16:14:43Z</time>
      </trkpt>
      <trkpt lat="32.451374977827072" lon="-4.492404973134399">
        <ele>1600.3</ele>
        <time>2003-04-13T16:14:43Z</time>
      </trkpt>
      <trkpt lat="32.451312029734254" lon="-4.492204980924726">
        <ele>1599.9000000000001</ele>
        <time>2003-04-13T16:14:44Z</time>
      </trkpt>
      <trkpt lat="32.451242040842772" lon="-4.491795022040606">
        <ele>1597.9000000000001</ele>
        <time>2003-04-13T16:14:47Z</time>
      </trkpt>
      <trkpt lat="32.451207004487514" lon="-4.490936966612935">
        <ele>1594.9000000000001</ele>
        <time>2003-04-13T16:14:51Z</time>
      </trkpt>
      <trkpt lat="32.451129974797368" lon="-4.490734962746501">
        <ele>1593.7</ele>
        <time>2003-04-13T16:14:51Z</time>
      </trkpt>
      <trkpt lat="32.450729990378022" lon="-4.489710023626685">
        <ele>1587.5999999999999</ele>
        <time>2003-04-13T16:14:56Z</time>
      </trkpt>
      <trkpt lat="32.450502002611756" lon="-4.489357983693481">
        <ele>1584.5</ele>
        <time>2003-04-13T16:14:59Z</time>
      </trkpt>
      <trkpt lat="32.450042003765702" lon="-4.488858003169298">
        <ele>1580.3</ele>
        <time>2003-04-13T16:15:02Z</time>
      </trkpt>
      <trkpt lat="32.449332978576422" lon="-4.488188037648797">
        <ele>1575</ele>
        <time>2003-04-13T16:15:06Z</time>
      </trkpt>
      <trkpt lat="32.448614984750748" lon="-4.487499967217445">
        <ele>1569.8</ele>
        <time>2003-04-13T16:15:10Z</time>
      </trkpt>
      <trkpt lat="32.44803998619318" lon="-4.487060001119971">
        <ele>1567.0999999999999</ele>
        <time>2003-04-13T16:15:13Z</time>
      </trkpt>
      <trkpt lat="32.447598008438945" lon="-4.486860008910298">
        <ele>1566.2</ele>
        <time>2003-04-13T16:15:14Z</time>
      </trkpt>
      <trkpt lat="32.446454968303442" lon="-4.486620035022497">
        <ele>1564.9000000000001</ele>
        <time>2003-04-13T16:15:19Z</time>
      </trkpt>
      <trkpt lat="32.445762036368251" lon="-4.486745009198785">
        <ele>1563.2</ele>
        <time>2003-04-13T16:15:22Z</time>
      </trkpt>
      <trkpt lat="32.444807002320886" lon="-4.487093025818467">
        <ele>1561.4000000000001</ele>
        <time>2003-04-13T16:15:26Z</time>
      </trkpt>
      <trkpt lat="32.443890022113919" lon="-4.487384967505932">
        <ele>1559.7</ele>
        <time>2003-04-13T16:15:30Z</time>
      </trkpt>
      <trkpt lat="32.443036995828152" lon="-4.487555036321282">
        <ele>1558.3</ele>
        <time>2003-04-13T16:15:34Z</time>
      </trkpt>
      <trkpt lat="32.442822000011802" lon="-4.487502984702587">
        <ele>1557.3</ele>
        <time>2003-04-13T16:15:36Z</time>
      </trkpt>
      <trkpt lat="32.442613039165735" lon="-4.487410029396415">
        <ele>1556.4000000000001</ele>
        <time>2003-04-13T16:15:37Z</time>
      </trkpt>
      <trkpt lat="32.442427966743708" lon="-4.487269967794418">
        <ele>1556.3</ele>
        <time>2003-04-13T16:15:37Z</time>
      </trkpt>
      <trkpt lat="32.442107023671269" lon="-4.486907031387091">
        <ele>1557</ele>
        <time>2003-04-13T16:15:40Z</time>
      </trkpt>
      <trkpt lat="32.441505035385489" lon="-4.486046964302659">
        <ele>1556</ele>
        <time>2003-04-13T16:15:44Z</time>
      </trkpt>
      <trkpt lat="32.440822999924421" lon="-4.48512302711606">
        <ele>1553.5999999999999</ele>
        <time>2003-04-13T16:15:48Z</time>
      </trkpt>
      <trkpt lat="32.44026199914515" lon="-4.484507041051984">
        <ele>1552.2</ele>
        <time>2003-04-13T16:15:50Z</time>
      </trkpt>
      <trkpt lat="32.439797976985574" lon="-4.484188025817275">
        <ele>1550.8</ele>
        <time>2003-04-13T16:15:53Z</time>
      </trkpt>
      <trkpt lat="32.438788041472435" lon="-4.483627025038004">
        <ele>1548.2</ele>
        <time>2003-04-13T16:15:57Z</time>
      </trkpt>
      <trkpt lat="32.437777016311884" lon="-4.483044985681772">
        <ele>1546.0999999999999</ele>
        <time>2003-04-13T16:16:01Z</time>
      </trkpt>
      <trkpt lat="32.436794992536306" lon="-4.482484990730882">
        <ele>1546.2</ele>
        <time>2003-04-13T16:16:04Z</time>
      </trkpt>
      <trkpt lat="32.435887986794114" lon="-4.481964977458119">
        <ele>1548.5</ele>
        <time>2003-04-13T16:16:08Z</time>
      </trkpt>
      <trkpt lat="32.435054993256927" lon="-4.481483018025756">
        <ele>1549.2</ele>
        <time>2003-04-13T16:16:12Z</time>
      </trkpt>
      <trkpt lat="32.43450497277081" lon="-4.481070041656494">
        <ele>1549.4000000000001</ele>
        <time>2003-04-13T16:16:16Z</time>
      </trkpt>
      <trkpt lat="32.43420003913343" lon="-4.480690006166697">
        <ele>1549.4000000000001</ele>
        <time>2003-04-13T16:16:17Z</time>
      </trkpt>
      <trkpt lat="32.433556979522109" lon="-4.479594994336367">
        <ele>1547.7</ele>
        <time>2003-04-13T16:16:23Z</time>
      </trkpt>
      <trkpt lat="32.433418007567525" lon="-4.479071963578463">
        <ele>1547.2</ele>
        <time>2003-04-13T16:16:24Z</time>
      </trkpt>
      <trkpt lat="32.43338699452579" lon="-4.478516997769475">
        <ele>1547</ele>
        <time>2003-04-13T16:16:27Z</time>
      </trkpt>
      <trkpt lat="32.433437034487724" lon="-4.477979969233275">
        <ele>1546.9000000000001</ele>
        <time>2003-04-13T16:16:28Z</time>
      </trkpt>
      <trkpt lat="32.433575000613928" lon="-4.477483006194234">
        <ele>1546.5999999999999</ele>
        <time>2003-04-13T16:16:31Z</time>
      </trkpt>
      <trkpt lat="32.433941960334778" lon="-4.476354969665408">
        <ele>1545.0999999999999</ele>
        <time>2003-04-13T16:16:35Z</time>
      </trkpt>
      <trkpt lat="32.433940032497048" lon="-4.476137040182948">
        <ele>1545</ele>
        <time>2003-04-13T16:16:36Z</time>
      </trkpt>
      <trkpt lat="32.43390197865665" lon="-4.475924978032708">
        <ele>1545.0999999999999</ele>
        <time>2003-04-13T16:16:38Z</time>
      </trkpt>
      <trkpt lat="32.433835007250309" lon="-4.475726997479796">
        <ele>1544.8</ele>
        <time>2003-04-13T16:16:39Z</time>
      </trkpt>
      <trkpt lat="32.433454971760511" lon="-4.474684959277511">
        <ele>1543.0999999999999</ele>
        <time>2003-04-13T16:16:43Z</time>
      </trkpt>
      <trkpt lat="32.433286998420954" lon="-4.474282041192055">
        <ele>1542.0999999999999</ele>
        <time>2003-04-13T16:16:46Z</time>
      </trkpt>
      <trkpt lat="32.433163030073047" lon="-4.474111972376704">
        <ele>1541.5</ele>
        <time>2003-04-13T16:16:47Z</time>
      </trkpt>
      <trkpt lat="32.433007964864373" lon="-4.473978029564023">
        <ele>1540.8</ele>
        <time>2003-04-13T16:16:47Z</time>
      </trkpt>
      <trkpt lat="32.432832028716803" lon="-4.473877027630806">
        <ele>1540.8</ele>
        <time>2003-04-13T16:16:48Z</time>
      </trkpt>
      <trkpt lat="32.431868026033044" lon="-4.473462961614132">
        <ele>1539.5999999999999</ele>
        <time>2003-04-13T16:16:54Z</time>
      </trkpt>
      <trkpt lat="32.431652024388313" lon="-4.473442006856203">
        <ele>1539.4000000000001</ele>
        <time>2003-04-13T16:16:55Z</time>
      </trkpt>
      <trkpt lat="32.431211974471807" lon="-4.473462961614132">
        <ele>1539</ele>
        <time>2003-04-13T16:16:57Z</time>
      </trkpt>
      <trkpt lat="32.430107994005084" lon="-4.473643004894257">
        <ele>1537.5</ele>
        <time>2003-04-13T16:17:02Z</time>
      </trkpt>
      <trkpt lat="32.429497037082911" lon="-4.473920026794076">
        <ele>1536.5</ele>
        <time>2003-04-13T16:17:05Z</time>
      </trkpt>
      <trkpt lat="32.429092023521662" lon="-4.474184978753328">
        <ele>1535.5</ele>
        <time>2003-04-13T16:17:06Z</time>
      </trkpt>
      <trkpt lat="32.428257018327713" lon="-4.474780010059476">
        <ele>1532.4000000000001</ele>
        <time>2003-04-13T16:17:10Z</time>
      </trkpt>
      <trkpt lat="32.427369961515069" lon="-4.475418040528894">
        <ele>1530.5</ele>
        <time>2003-04-13T16:17:14Z</time>
      </trkpt>
      <trkpt lat="32.42646798491478" lon="-4.476075014099479">
        <ele>1529.4000000000001</ele>
        <time>2003-04-13T16:17:18Z</time>
      </trkpt>
      <trkpt lat="32.425582017749548" lon="-4.476707009598613">
        <ele>1527.5999999999999</ele>
        <time>2003-04-13T16:17:22Z</time>
      </trkpt>
      <trkpt lat="32.424712982028723" lon="-4.47732500731945">
        <ele>1526.2</ele>
        <time>2003-04-13T16:17:26Z</time>
      </trkpt>
      <trkpt lat="32.423837995156646" lon="-4.477958008646965">
        <ele>1525.9000000000001</ele>
        <time>2003-04-13T16:17:30Z</time>
      </trkpt>
      <trkpt lat="32.422927971929312" lon="-4.478602996096015">
        <ele>1525</ele>
        <time>2003-04-13T16:17:34Z</time>
      </trkpt>
      <trkpt lat="32.421996993944049" lon="-4.479268016293645">
        <ele>1524.0999999999999</ele>
        <time>2003-04-13T16:17:38Z</time>
      </trkpt>
      <trkpt lat="32.421046989038587" lon="-4.479951979592443">
        <ele>1522.5</ele>
        <time>2003-04-13T16:17:42Z</time>
      </trkpt>
      <trkpt lat="32.42010997608304" lon="-4.480705009773374">
        <ele>1521.2</ele>
        <time>2003-04-13T16:17:47Z</time>
      </trkpt>
      <trkpt lat="32.419170029461384" lon="-4.481495004147291">
        <ele>1519</ele>
        <time>2003-04-13T16:17:51Z</time>
      </trkpt>
      <trkpt lat="32.418257994577289" lon="-4.482278041541576">
        <ele>1518.4000000000001</ele>
        <time>2003-04-13T16:17:55Z</time>
      </trkpt>
      <trkpt lat="32.417334979400039" lon="-4.483054960146546">
        <ele>1515.5999999999999</ele>
        <time>2003-04-13T16:17:59Z</time>
      </trkpt>
      <trkpt lat="32.416438031941652" lon="-4.483794998377562">
        <ele>1514.3</ele>
        <time>2003-04-13T16:18:03Z</time>
      </trkpt>
      <trkpt lat="32.415557010099292" lon="-4.484547022730112">
        <ele>1513.3</ele>
        <time>2003-04-13T16:18:07Z</time>
      </trkpt>
      <trkpt lat="32.414671964943409" lon="-4.485302986577153">
        <ele>1512.5999999999999</ele>
        <time>2003-04-13T16:18:11Z</time>
      </trkpt>
      <trkpt lat="32.413764959201217" lon="-4.486073032021523">
        <ele>1509.3</ele>
        <time>2003-04-13T16:18:15Z</time>
      </trkpt>
      <trkpt lat="32.41286801174283" lon="-4.486824972555041">
        <ele>1507.0999999999999</ele>
        <time>2003-04-13T16:18:19Z</time>
      </trkpt>
      <trkpt lat="32.411960000172257" lon="-4.487584959715605">
        <ele>1505</ele>
        <time>2003-04-13T16:18:23Z</time>
      </trkpt>
      <trkpt lat="32.411060035228729" lon="-4.488334972411394">
        <ele>1503.8</ele>
        <time>2003-04-13T16:18:27Z</time>
      </trkpt>
      <trkpt lat="32.410182030871511" lon="-4.489072998985648">
        <ele>1502.5</ele>
        <time>2003-04-13T16:18:31Z</time>
      </trkpt>
      <trkpt lat="32.409312995150685" lon="-4.489793004468083">
        <ele>1500.9000000000001</ele>
        <time>2003-04-13T16:18:35Z</time>
      </trkpt>
      <trkpt lat="32.40841998718679" lon="-4.49053798802197">
        <ele>1499.4000000000001</ele>
        <time>2003-04-13T16:18:39Z</time>
      </trkpt>
      <trkpt lat="32.407562015578151" lon="-4.491256987676024">
        <ele>1496.4000000000001</ele>
        <time>2003-04-13T16:18:43Z</time>
      </trkpt>
      <trkpt lat="32.406740002334118" lon="-4.491932988166809">
        <ele>1496.5999999999999</ele>
        <time>2003-04-13T16:18:46Z</time>
      </trkpt>
      <trkpt lat="32.40592997521162" lon="-4.49255702085793">
        <ele>1496.5999999999999</ele>
        <time>2003-04-13T16:18:50Z</time>
      </trkpt>
      <trkpt lat="32.405105028301477" lon="-4.493292029947043">
        <ele>1493.3</ele>
        <time>2003-04-13T16:18:54Z</time>
      </trkpt>
      <trkpt lat="32.404217971488833" lon="-4.494040030986071">
        <ele>1491</ele>
        <time>2003-04-13T16:18:58Z</time>
      </trkpt>
      <trkpt lat="32.403305014595389" lon="-4.494788032025099">
        <ele>1490.3</ele>
        <time>2003-04-13T16:19:02Z</time>
      </trkpt>
      <trkpt lat="32.402424998581409" lon="-4.495511977002025">
        <ele>1489.5999999999999</ele>
        <time>2003-04-13T16:19:06Z</time>
      </trkpt>
      <trkpt lat="32.401538025587797" lon="-4.496240029111505">
        <ele>1487.9000000000001</ele>
        <time>2003-04-13T16:19:10Z</time>
      </trkpt>
      <trkpt lat="32.40064200013876" lon="-4.496927009895444">
        <ele>1486.0999999999999</ele>
        <time>2003-04-13T16:19:14Z</time>
      </trkpt>
      <trkpt lat="32.399702975526452" lon="-4.497622959315777">
        <ele>1484.4000000000001</ele>
        <time>2003-04-13T16:19:18Z</time>
      </trkpt>
      <trkpt lat="32.398742996156216" lon="-4.498327039182186">
        <ele>1483.2</ele>
        <time>2003-04-13T16:19:22Z</time>
      </trkpt>
      <trkpt lat="32.397816963493824" lon="-4.498998010531068">
        <ele>1483.0999999999999</ele>
        <time>2003-04-13T16:19:26Z</time>
      </trkpt>
      <trkpt lat="32.396924961358309" lon="-4.499656995758414">
        <ele>1482</ele>
        <time>2003-04-13T16:19:30Z</time>
      </trkpt>
      <trkpt lat="32.396113006398082" lon="-4.500365015119314">
        <ele>1480</ele>
        <time>2003-04-13T16:19:35Z</time>
      </trkpt>
      <trkpt lat="32.395135005936027" lon="-4.501690026372671">
        <ele>1477.9000000000001</ele>
        <time>2003-04-13T16:19:40Z</time>
      </trkpt>
      <trkpt lat="32.394499992951751" lon="-4.50252796523273">
        <ele>1479</ele>
        <time>2003-04-13T16:19:44Z</time>
      </trkpt>
      <trkpt lat="32.394164968281984" lon="-4.50287003070116">
        <ele>1479.0999999999999</ele>
        <time>2003-04-13T16:19:47Z</time>
      </trkpt>
      <trkpt lat="32.393785016611218" lon="-4.503125008195639">
        <ele>1479</ele>
        <time>2003-04-13T16:19:48Z</time>
      </trkpt>
      <trkpt lat="32.393370028585196" lon="-4.503309996798635">
        <ele>1478.9000000000001</ele>
        <time>2003-04-13T16:19:51Z</time>
      </trkpt>
      <trkpt lat="32.392927967011929" lon="-4.503413010388613">
        <ele>1478.4000000000001</ele>
        <time>2003-04-13T16:19:52Z</time>
      </trkpt>
      <trkpt lat="32.392227994278073" lon="-4.503430025652051">
        <ele>1475.7</ele>
        <time>2003-04-13T16:19:56Z</time>
      </trkpt>
      <trkpt lat="32.391506982967257" lon="-4.503289964050055">
        <ele>1474.5999999999999</ele>
        <time>2003-04-13T16:19:59Z</time>
      </trkpt>
      <trkpt lat="32.39052202552557" lon="-4.503122996538878">
        <ele>1478.7</ele>
        <time>2003-04-13T16:20:03Z</time>
      </trkpt>
      <trkpt lat="32.38951301202178" lon="-4.502967009320855">
        <ele>1481</ele>
        <time>2003-04-13T16:20:07Z</time>
      </trkpt>
      <trkpt lat="32.388492012396455" lon="-4.502791995182633">
        <ele>1478.9000000000001</ele>
        <time>2003-04-13T16:20:11Z</time>
      </trkpt>
      <trkpt lat="32.38753697834909" lon="-4.502642964944243">
        <ele>1477.2</ele>
        <time>2003-04-13T16:20:15Z</time>
      </trkpt>
      <trkpt lat="32.387082008644938" lon="-4.502632990479469">
        <ele>1477.5999999999999</ele>
        <time>2003-04-13T16:20:16Z</time>
      </trkpt>
      <trkpt lat="32.38637700676918" lon="-4.502742039039731">
        <ele>1477.8</ele>
        <time>2003-04-13T16:20:19Z</time>
      </trkpt>
      <trkpt lat="32.385679967701435" lon="-4.503028029575944">
        <ele>1479.4000000000001</ele>
        <time>2003-04-13T16:20:23Z</time>
      </trkpt>
      <trkpt lat="32.385252993553877" lon="-4.50332298874855">
        <ele>1482</ele>
        <time>2003-04-13T16:20:24Z</time>
      </trkpt>
      <trkpt lat="32.38448697142303" lon="-4.504002006724477">
        <ele>1486.5</ele>
        <time>2003-04-13T16:20:29Z</time>
      </trkpt>
      <trkpt lat="32.38373301923275" lon="-4.504686975851655">
        <ele>1488.2</ele>
        <time>2003-04-13T16:20:33Z</time>
      </trkpt>
      <trkpt lat="32.382972026243806" lon="-4.505366999655962">
        <ele>1488.8</ele>
        <time>2003-04-13T16:20:37Z</time>
      </trkpt>
      <trkpt lat="32.38218798302114" lon="-4.506052974611521">
        <ele>1489.0999999999999</ele>
        <time>2003-04-13T16:20:41Z</time>
      </trkpt>
      <trkpt lat="32.381437970325351" lon="-4.506727969273925">
        <ele>1489.5999999999999</ele>
        <time>2003-04-13T16:20:45Z</time>
      </trkpt>
      <trkpt lat="32.380688041448593" lon="-4.507417967543006">
        <ele>1490</ele>
        <time>2003-04-13T16:20:49Z</time>
      </trkpt>
      <trkpt lat="32.379916990175843" lon="-4.508117018267512">
        <ele>1490.7</ele>
        <time>2003-04-13T16:20:53Z</time>
      </trkpt>
      <trkpt lat="32.379128001630306" lon="-4.508838029578328">
        <ele>1489.8</ele>
        <time>2003-04-13T16:20:57Z</time>
      </trkpt>
      <trkpt lat="32.378321997821331" lon="-4.509576978161931">
        <ele>1489.7</ele>
        <time>2003-04-13T16:21:01Z</time>
      </trkpt>
      <trkpt lat="32.377516999840736" lon="-4.510327996686101">
        <ele>1491.5</ele>
        <time>2003-04-13T16:21:05Z</time>
      </trkpt>
      <trkpt lat="32.376691969111562" lon="-4.511068034917116">
        <ele>1490.8</ele>
        <time>2003-04-13T16:21:09Z</time>
      </trkpt>
      <trkpt lat="32.375882025808096" lon="-4.511817963793874">
        <ele>1490.5</ele>
        <time>2003-04-13T16:21:13Z</time>
      </trkpt>
      <trkpt lat="32.375084990635514" lon="-4.512552972882986">
        <ele>1490.5999999999999</ele>
        <time>2003-04-13T16:21:17Z</time>
      </trkpt>
      <trkpt lat="32.374272029846907" lon="-4.513292005285621">
        <ele>1490.9000000000001</ele>
        <time>2003-04-13T16:21:21Z</time>
      </trkpt>
      <trkpt lat="32.373478012159467" lon="-4.514017039909959">
        <ele>1491.3</ele>
        <time>2003-04-13T16:21:25Z</time>
      </trkpt>
      <trkpt lat="32.372682988643646" lon="-4.514751965180039">
        <ele>1488.9000000000001</ele>
        <time>2003-04-13T16:21:28Z</time>
      </trkpt>
      <trkpt lat="32.371877990663052" lon="-4.515493009239435">
        <ele>1487.5999999999999</ele>
        <time>2003-04-13T16:21:32Z</time>
      </trkpt>
      <trkpt lat="32.371056983247399" lon="-4.516251990571618">
        <ele>1486.5999999999999</ele>
        <time>2003-04-13T16:21:36Z</time>
      </trkpt>
      <trkpt lat="32.370272018015385" lon="-4.516962021589279">
        <ele>1485.5</ele>
        <time>2003-04-13T16:21:40Z</time>
      </trkpt>
      <trkpt lat="32.369495015591383" lon="-4.517684960737824">
        <ele>1484.4000000000001</ele>
        <time>2003-04-13T16:21:44Z</time>
      </trkpt>
      <trkpt lat="32.36871499568224" lon="-4.518406977877021">
        <ele>1482.5</ele>
        <time>2003-04-13T16:21:48Z</time>
      </trkpt>
      <trkpt lat="32.367887031286955" lon="-4.519150033593178">
        <ele>1480.3</ele>
        <time>2003-04-13T16:21:52Z</time>
      </trkpt>
      <trkpt lat="32.367022018879652" lon="-4.51992703601718">
        <ele>1477.5999999999999</ele>
        <time>2003-04-13T16:21:56Z</time>
      </trkpt>
      <trkpt lat="32.366154994815588" lon="-4.520742008462548">
        <ele>1474.7</ele>
        <time>2003-04-13T16:22:00Z</time>
      </trkpt>
      <trkpt lat="32.365317977964878" lon="-4.521509958431125">
        <ele>1471.8</ele>
        <time>2003-04-13T16:22:04Z</time>
      </trkpt>
      <trkpt lat="32.364508034661412" lon="-4.52224999666214">
        <ele>1469</ele>
        <time>2003-04-13T16:22:08Z</time>
      </trkpt>
      <trkpt lat="32.363702030852437" lon="-4.522982994094491">
        <ele>1467.8</ele>
        <time>2003-04-13T16:22:12Z</time>
      </trkpt>
      <trkpt lat="32.362895021215081" lon="-4.52371004037559">
        <ele>1465.4000000000001</ele>
        <time>2003-04-13T16:22:17Z</time>
      </trkpt>
      <trkpt lat="32.362064961344004" lon="-4.524468015879393">
        <ele>1462.5</ele>
        <time>2003-04-13T16:22:21Z</time>
      </trkpt>
      <trkpt lat="32.361225010827184" lon="-4.525233032181859">
        <ele>1460.5999999999999</ele>
        <time>2003-04-13T16:22:25Z</time>
      </trkpt>
      <trkpt lat="32.360367039218545" lon="-4.526012968271971">
        <ele>1459.5</ele>
        <time>2003-04-13T16:22:29Z</time>
      </trkpt>
      <trkpt lat="32.359522981569171" lon="-4.526777984574437">
        <ele>1458</ele>
        <time>2003-04-13T16:22:33Z</time>
      </trkpt>
      <trkpt lat="32.35868202522397" lon="-4.527543000876904">
        <ele>1456.5</ele>
        <time>2003-04-13T16:22:37Z</time>
      </trkpt>
      <trkpt lat="32.357809972018003" lon="-4.528338024392724">
        <ele>1453.8</ele>
        <time>2003-04-13T16:22:41Z</time>
      </trkpt>
      <trkpt lat="32.356940014287829" lon="-4.529131958261132">
        <ele>1451.5999999999999</ele>
        <time>2003-04-13T16:22:45Z</time>
      </trkpt>
      <trkpt lat="32.356062009930611" lon="-4.529922036454082">
        <ele>1449.3</ele>
        <time>2003-04-13T16:22:49Z</time>
      </trkpt>
      <trkpt lat="32.355212001129985" lon="-4.5306930039078">
        <ele>1447.2</ele>
        <time>2003-04-13T16:22:53Z</time>
      </trkpt>
      <trkpt lat="32.354389987885952" lon="-4.531421978026629">
        <ele>1445.4000000000001</ele>
        <time>2003-04-13T16:22:57Z</time>
      </trkpt>
      <trkpt lat="32.353571997955441" lon="-4.532182971015573">
        <ele>1443.0999999999999</ele>
        <time>2003-04-13T16:23:01Z</time>
      </trkpt>
      <trkpt lat="32.352770017459989" lon="-4.53292996622622">
        <ele>1439.5</ele>
        <time>2003-04-13T16:23:05Z</time>
      </trkpt>
      <trkpt lat="32.351980023086071" lon="-4.533660029992461">
        <ele>1438.7</ele>
        <time>2003-04-13T16:23:09Z</time>
      </trkpt>
      <trkpt lat="32.351179970428348" lon="-4.534377017989755">
        <ele>1437.3</ele>
        <time>2003-04-13T16:23:13Z</time>
      </trkpt>
      <trkpt lat="32.350355023518205" lon="-4.535114960744977">
        <ele>1435.2</ele>
        <time>2003-04-13T16:23:16Z</time>
      </trkpt>
      <trkpt lat="32.349508032202721" lon="-4.535888023674488">
        <ele>1435</ele>
        <time>2003-04-13T16:23:20Z</time>
      </trkpt>
      <trkpt lat="32.348621981218457" lon="-4.536675000563264">
        <ele>1433.2</ele>
        <time>2003-04-13T16:23:24Z</time>
      </trkpt>
      <trkpt lat="32.347720004618168" lon="-4.537487961351872">
        <ele>1431.9000000000001</ele>
        <time>2003-04-13T16:23:28Z</time>
      </trkpt>
      <trkpt lat="32.346864966675639" lon="-4.538303017616272">
        <ele>1429.9000000000001</ele>
        <time>2003-04-13T16:23:32Z</time>
      </trkpt>
      <trkpt lat="32.345989979803562" lon="-4.539095023646951">
        <ele>1427.9000000000001</ele>
        <time>2003-04-13T16:23:38Z</time>
      </trkpt>
      <trkpt lat="32.345114992931485" lon="-4.539892980828881">
        <ele>1426.5</ele>
        <time>2003-04-13T16:23:42Z</time>
      </trkpt>
      <trkpt lat="32.34424302354455" lon="-4.540693033486605">
        <ele>1424.5999999999999</ele>
        <time>2003-04-13T16:23:46Z</time>
      </trkpt>
      <trkpt lat="32.343395026400685" lon="-4.541461989283562">
        <ele>1422.5999999999999</ele>
        <time>2003-04-13T16:23:50Z</time>
      </trkpt>
      <trkpt lat="32.342563038691878" lon="-4.542215019464493">
        <ele>1419.9000000000001</ele>
        <time>2003-04-13T16:23:54Z</time>
      </trkpt>
      <trkpt lat="32.341697020456195" lon="-4.542969977483153">
        <ele>1417.2</ele>
        <time>2003-04-13T16:23:58Z</time>
      </trkpt>
      <trkpt lat="32.340777022764087" lon="-4.543727030977607">
        <ele>1415.5</ele>
        <time>2003-04-13T16:24:02Z</time>
      </trkpt>
      <trkpt lat="32.339830035343766" lon="-4.544517025351524">
        <ele>1414.3</ele>
        <time>2003-04-13T16:24:06Z</time>
      </trkpt>
      <trkpt lat="32.338886987417936" lon="-4.545299978926778">
        <ele>1413.9000000000001</ele>
        <time>2003-04-13T16:24:10Z</time>
      </trkpt>
      <trkpt lat="32.338034966960549" lon="-4.546025013551116">
        <ele>1413.7</ele>
        <time>2003-04-13T16:24:14Z</time>
      </trkpt>
      <trkpt lat="32.337274979799986" lon="-4.546707971021533">
        <ele>1413.9000000000001</ele>
        <time>2003-04-13T16:24:18Z</time>
      </trkpt>
      <trkpt lat="32.336426982656121" lon="-4.54753702506423">
        <ele>1412.4000000000001</ele>
        <time>2003-04-13T16:24:22Z</time>
      </trkpt>
      <trkpt lat="32.335570016875863" lon="-4.548349985852838">
        <ele>1410.7</ele>
        <time>2003-04-13T16:24:27Z</time>
      </trkpt>
      <trkpt lat="32.334682960063219" lon="-4.549163030460477">
        <ele>1408.2</ele>
        <time>2003-04-13T16:24:33Z</time>
      </trkpt>
      <trkpt lat="32.333979969844222" lon="-4.549883035942912">
        <ele>1406.4000000000001</ele>
        <time>2003-04-13T16:24:37Z</time>
      </trkpt>
      <trkpt lat="32.333234986290336" lon="-4.55058803781867">
        <ele>1404.5</ele>
        <time>2003-04-13T16:24:41Z</time>
      </trkpt>
      <trkpt lat="32.332507017999887" lon="-4.551293039694428">
        <ele>1402.9000000000001</ele>
        <time>2003-04-13T16:24:45Z</time>
      </trkpt>
      <trkpt lat="32.331762034446001" lon="-4.551980020478368">
        <ele>1402.0999999999999</ele>
        <time>2003-04-13T16:24:49Z</time>
      </trkpt>
      <trkpt lat="32.331351991742849" lon="-4.552246984094381">
        <ele>1401.5</ele>
        <time>2003-04-13T16:24:50Z</time>
      </trkpt>
      <trkpt lat="32.330916970968246" lon="-4.552398025989533">
        <ele>1401</ele>
        <time>2003-04-13T16:24:53Z</time>
      </trkpt>
      <trkpt lat="32.330253040418029" lon="-4.552487041801214">
        <ele>1400.0999999999999</ele>
        <time>2003-04-13T16:24:56Z</time>
      </trkpt>
      <trkpt lat="32.329809973016381" lon="-4.55243700183928">
        <ele>1399.7</ele>
        <time>2003-04-13T16:24:57Z</time>
      </trkpt>
      <trkpt lat="32.32937796972692" lon="-4.55230800434947">
        <ele>1399.5999999999999</ele>
        <time>2003-04-13T16:25:00Z</time>
      </trkpt>
      <trkpt lat="32.32896700501442" lon="-4.552107006311417">
        <ele>1399.3</ele>
        <time>2003-04-13T16:25:01Z</time>
      </trkpt>
      <trkpt lat="32.3279819637537" lon="-4.551560003310442">
        <ele>1400.2</ele>
        <time>2003-04-13T16:25:07Z</time>
      </trkpt>
      <trkpt lat="32.327639982104301" lon="-4.551299996674061">
        <ele>1400</ele>
        <time>2003-04-13T16:25:08Z</time>
      </trkpt>
      <trkpt lat="32.327342005446553" lon="-4.550970001146197">
        <ele>1399.3</ele>
        <time>2003-04-13T16:25:11Z</time>
      </trkpt>
      <trkpt lat="32.326985020190477" lon="-4.550412017852068">
        <ele>1397.8</ele>
        <time>2003-04-13T16:25:13Z</time>
      </trkpt>
      <trkpt lat="32.326412033289671" lon="-4.549499982967973">
        <ele>1393.7</ele>
        <time>2003-04-13T16:25:19Z</time>
      </trkpt>
      <trkpt lat="32.3262619972229" lon="-4.5494070276618">
        <ele>1393</ele>
        <time>2003-04-13T16:25:20Z</time>
      </trkpt>
      <trkpt lat="32.326105004176497" lon="-4.549339972436428">
        <ele>1392.3</ele>
        <time>2003-04-13T16:25:20Z</time>
      </trkpt>
      <trkpt lat="32.325942981988192" lon="-4.549307031556964">
        <ele>1391.5999999999999</ele>
        <time>2003-04-13T16:25:21Z</time>
      </trkpt>
      <trkpt lat="32.325781965628266" lon="-4.549308037385345">
        <ele>1391.0999999999999</ele>
        <time>2003-04-13T16:25:23Z</time>
      </trkpt>
      <trkpt lat="32.325622960925102" lon="-4.549335027113557">
        <ele>1390.8</ele>
        <time>2003-04-13T16:25:24Z</time>
      </trkpt>
      <trkpt lat="32.325473008677363" lon="-4.549384983256459">
        <ele>1390.5999999999999</ele>
        <time>2003-04-13T16:25:24Z</time>
      </trkpt>
      <trkpt lat="32.324557034298778" lon="-4.549801982939243">
        <ele>1390.4000000000001</ele>
        <time>2003-04-13T16:25:31Z</time>
      </trkpt>
      <trkpt lat="32.324408004060388" lon="-4.549825033172965">
        <ele>1390.5999999999999</ele>
        <time>2003-04-13T16:25:31Z</time>
      </trkpt>
      <trkpt lat="32.324265008792281" lon="-4.549820004031062">
        <ele>1390.5</ele>
        <time>2003-04-13T16:25:32Z</time>
      </trkpt>
      <trkpt lat="32.324126958847046" lon="-4.549774993211031">
        <ele>1390.5</ele>
        <time>2003-04-13T16:25:34Z</time>
      </trkpt>
      <trkpt lat="32.323993016034365" lon="-4.549695029854775">
        <ele>1390.4000000000001</ele>
        <time>2003-04-13T16:25:35Z</time>
      </trkpt>
      <trkpt lat="32.323442995548248" lon="-4.549401998519898">
        <ele>1389.9000000000001</ele>
        <time>2003-04-13T16:25:39Z</time>
      </trkpt>
      <trkpt lat="32.323287008330226" lon="-4.549408033490181">
        <ele>1389.5</ele>
        <time>2003-04-13T16:25:39Z</time>
      </trkpt>
      <trkpt lat="32.322431970387697" lon="-4.549552034586668">
        <ele>1390.4000000000001</ele>
        <time>2003-04-13T16:25:44Z</time>
      </trkpt>
      <trkpt lat="32.321671983227134" lon="-4.54960199072957">
        <ele>1390.7</ele>
        <time>2003-04-13T16:25:48Z</time>
      </trkpt>
      <trkpt lat="32.321288008242846" lon="-4.549487996846438">
        <ele>1390.2</ele>
        <time>2003-04-13T16:25:51Z</time>
      </trkpt>
      <trkpt lat="32.320930017158389" lon="-4.549267971888185">
        <ele>1389.2</ele>
        <time>2003-04-13T16:25:53Z</time>
      </trkpt>
      <trkpt lat="32.320046983659267" lon="-4.548522988334298">
        <ele>1386.9000000000001</ele>
        <time>2003-04-13T16:25:58Z</time>
      </trkpt>
      <trkpt lat="32.319442983716726" lon="-4.548110011965036">
        <ele>1385.4000000000001</ele>
        <time>2003-04-13T16:26:01Z</time>
      </trkpt>
      <trkpt lat="32.31857000850141" lon="-4.547648001462221">
        <ele>1384</ele>
        <time>2003-04-13T16:26:05Z</time>
      </trkpt>
      <trkpt lat="32.317650010809302" lon="-4.547295039519668">
        <ele>1383</ele>
        <time>2003-04-13T16:26:09Z</time>
      </trkpt>
      <trkpt lat="32.316779969260097" lon="-4.546973006799817">
        <ele>1382.9000000000001</ele>
        <time>2003-04-13T16:26:13Z</time>
      </trkpt>
      <trkpt lat="32.315701972693205" lon="-4.546557012945414">
        <ele>1382.5</ele>
        <time>2003-04-13T16:26:18Z</time>
      </trkpt>
      <trkpt lat="32.314779963344336" lon="-4.54622701741755">
        <ele>1382.3</ele>
        <time>2003-04-13T16:26:22Z</time>
      </trkpt>
      <trkpt lat="32.313847979530692" lon="-4.54584295861423">
        <ele>1381.8</ele>
        <time>2003-04-13T16:26:25Z</time>
      </trkpt>
      <trkpt lat="32.31289797462523" lon="-4.54545202665031">
        <ele>1382.2</ele>
        <time>2003-04-13T16:26:29Z</time>
      </trkpt>
      <trkpt lat="32.311949981376529" lon="-4.545103004202247">
        <ele>1384.9000000000001</ele>
        <time>2003-04-13T16:26:33Z</time>
      </trkpt>
      <trkpt lat="32.310910038650036" lon="-4.544645017012954">
        <ele>1386.9000000000001</ele>
        <time>2003-04-13T16:26:38Z</time>
      </trkpt>
      <trkpt lat="32.309919968247414" lon="-4.544031964614987">
        <ele>1386.9000000000001</ele>
        <time>2003-04-13T16:26:44Z</time>
      </trkpt>
      <trkpt lat="32.308989996090531" lon="-4.543420001864433">
        <ele>1385.2</ele>
        <time>2003-04-13T16:26:49Z</time>
      </trkpt>
      <trkpt lat="32.308081984519958" lon="-4.54283201135695">
        <ele>1382.7</ele>
        <time>2003-04-13T16:26:53Z</time>
      </trkpt>
      <trkpt lat="32.307104989886284" lon="-4.54218802973628">
        <ele>1378.2</ele>
        <time>2003-04-13T16:26:59Z</time>
      </trkpt>
      <trkpt lat="32.306199995800853" lon="-4.541549999266863">
        <ele>1377.5999999999999</ele>
        <time>2003-04-13T16:27:04Z</time>
      </trkpt>
      <trkpt lat="32.305906964465976" lon="-4.541252022609115">
        <ele>1378.8</ele>
        <time>2003-04-13T16:27:05Z</time>
      </trkpt>
      <trkpt lat="32.305660033598542" lon="-4.540886990725994">
        <ele>1379.9000000000001</ele>
        <time>2003-04-13T16:27:08Z</time>
      </trkpt>
      <trkpt lat="32.305461969226599" lon="-4.540473008528352">
        <ele>1380.8</ele>
        <time>2003-04-13T16:27:09Z</time>
      </trkpt>
      <trkpt lat="32.304993001744151" lon="-4.539387971162796">
        <ele>1383</ele>
        <time>2003-04-13T16:27:15Z</time>
      </trkpt>
      <trkpt lat="32.304429989308119" lon="-4.53836495988071">
        <ele>1383.9000000000001</ele>
        <time>2003-04-13T16:27:19Z</time>
      </trkpt>
      <trkpt lat="32.303903019055724" lon="-4.53739701770246">
        <ele>1384.9000000000001</ele>
        <time>2003-04-13T16:27:24Z</time>
      </trkpt>
      <trkpt lat="32.303317040205002" lon="-4.5363450050354">
        <ele>1384.0999999999999</ele>
        <time>2003-04-13T16:27:30Z</time>
      </trkpt>
      <trkpt lat="32.302822005003691" lon="-4.535427019000053">
        <ele>1382.3</ele>
        <time>2003-04-13T16:27:34Z</time>
      </trkpt>
      <trkpt lat="32.302216999232769" lon="-4.534341981634498">
        <ele>1382.2</ele>
        <time>2003-04-13T16:27:39Z</time>
      </trkpt>
      <trkpt lat="32.301630014553666" lon="-4.53329298645258">
        <ele>1383.5</ele>
        <time>2003-04-13T16:27:43Z</time>
      </trkpt>
      <trkpt lat="32.30107999406755" lon="-4.53232797794044">
        <ele>1383.0999999999999</ele>
        <time>2003-04-13T16:27:49Z</time>
      </trkpt>
      <trkpt lat="32.300468031316996" lon="-4.531357018277049">
        <ele>1382.9000000000001</ele>
        <time>2003-04-13T16:27:54Z</time>
      </trkpt>
      <trkpt lat="32.299814997240901" lon="-4.530357979238033">
        <ele>1382.5</ele>
        <time>2003-04-13T16:27:58Z</time>
      </trkpt>
      <trkpt lat="32.299158023670316" lon="-4.52936002984643">
        <ele>1380.8</ele>
        <time>2003-04-13T16:28:03Z</time>
      </trkpt>
      <trkpt lat="32.298504989594221" lon="-4.528380017727613">
        <ele>1379.3</ele>
        <time>2003-04-13T16:28:09Z</time>
      </trkpt>
      <trkpt lat="32.297841981053352" lon="-4.527339991182089">
        <ele>1378</ele>
        <time>2003-04-13T16:28:13Z</time>
      </trkpt>
      <trkpt lat="32.297277040779591" lon="-4.526476990431547">
        <ele>1377.3</ele>
        <time>2003-04-13T16:28:17Z</time>
      </trkpt>
      <trkpt lat="32.296713022515178" lon="-4.525617007166147">
        <ele>1376.2</ele>
        <time>2003-04-13T16:28:21Z</time>
      </trkpt>
      <trkpt lat="32.296163002029061" lon="-4.52476498670876">
        <ele>1374.8</ele>
        <time>2003-04-13T16:28:25Z</time>
      </trkpt>
      <trkpt lat="32.295590015128255" lon="-4.523907015100122">
        <ele>1374</ele>
        <time>2003-04-13T16:28:29Z</time>
      </trkpt>
      <trkpt lat="32.29502197355032" lon="-4.523018030449748">
        <ele>1373.4000000000001</ele>
        <time>2003-04-13T16:28:33Z</time>
      </trkpt>
      <trkpt lat="32.294431971386075" lon="-4.522119993343949">
        <ele>1372.2</ele>
        <time>2003-04-13T16:28:37Z</time>
      </trkpt>
      <trkpt lat="32.293831994757056" lon="-4.521202007308602">
        <ele>1371.2</ele>
        <time>2003-04-13T16:28:41Z</time>
      </trkpt>
      <trkpt lat="32.293221959844232" lon="-4.520267006009817">
        <ele>1370.4000000000001</ele>
        <time>2003-04-13T16:28:45Z</time>
      </trkpt>
      <trkpt lat="32.292603040114045" lon="-4.519322030246258">
        <ele>1369.4000000000001</ele>
        <time>2003-04-13T16:28:49Z</time>
      </trkpt>
      <trkpt lat="32.291980013251305" lon="-4.518358027562499">
        <ele>1368.5999999999999</ele>
        <time>2003-04-13T16:28:53Z</time>
      </trkpt>
      <trkpt lat="32.291350029408932" lon="-4.517399976029992">
        <ele>1368.0999999999999</ele>
        <time>2003-04-13T16:28:57Z</time>
      </trkpt>
      <trkpt lat="32.290727002546191" lon="-4.516447959467769">
        <ele>1367.3</ele>
        <time>2003-04-13T16:29:02Z</time>
      </trkpt>
      <trkpt lat="32.290097018703818" lon="-4.515498038381338">
        <ele>1365.2</ele>
        <time>2003-04-13T16:29:06Z</time>
      </trkpt>
      <trkpt lat="32.289501987397671" lon="-4.514575023204088">
        <ele>1364.2</ele>
        <time>2003-04-13T16:29:10Z</time>
      </trkpt>
      <trkpt lat="32.288912991061807" lon="-4.513661982491612">
        <ele>1362.7</ele>
        <time>2003-04-13T16:29:14Z</time>
      </trkpt>
      <trkpt lat="32.288304967805743" lon="-4.512741984799504">
        <ele>1361.7</ele>
        <time>2003-04-13T16:29:18Z</time>
      </trkpt>
      <trkpt lat="32.287704991176724" lon="-4.511788040399551">
        <ele>1360.8</ele>
        <time>2003-04-13T16:29:22Z</time>
      </trkpt>
      <trkpt lat="32.287084981799126" lon="-4.510824959725142">
        <ele>1360</ele>
        <time>2003-04-13T16:29:26Z</time>
      </trkpt>
      <trkpt lat="32.286454997956753" lon="-4.509851988404989">
        <ele>1359.0999999999999</ele>
        <time>2003-04-13T16:29:30Z</time>
      </trkpt>
      <trkpt lat="32.285829959437251" lon="-4.508892009034753">
        <ele>1358</ele>
        <time>2003-04-13T16:29:34Z</time>
      </trkpt>
      <trkpt lat="32.285211961716413" lon="-4.507932029664516">
        <ele>1357</ele>
        <time>2003-04-13T16:29:38Z</time>
      </trkpt>
      <trkpt lat="32.28457803837955" lon="-4.506971966475248">
        <ele>1356.5999999999999</ele>
        <time>2003-04-13T16:29:42Z</time>
      </trkpt>
      <trkpt lat="32.283937996253371" lon="-4.505992038175464">
        <ele>1355.2</ele>
        <time>2003-04-13T16:29:46Z</time>
      </trkpt>
      <trkpt lat="32.283344976603985" lon="-4.505038009956479">
        <ele>1353.9000000000001</ele>
        <time>2003-04-13T16:29:50Z</time>
      </trkpt>
      <trkpt lat="32.282763021066785" lon="-4.504060009494424">
        <ele>1352.5999999999999</ele>
        <time>2003-04-13T16:29:54Z</time>
      </trkpt>
      <trkpt lat="32.282257005572319" lon="-4.503067005425692">
        <ele>1351.8</ele>
        <time>2003-04-13T16:29:58Z</time>
      </trkpt>
      <trkpt lat="32.281788038089871" lon="-4.502078024670482">
        <ele>1350.3</ele>
        <time>2003-04-13T16:30:01Z</time>
      </trkpt>
      <trkpt lat="32.281322004273534" lon="-4.501092983409762">
        <ele>1348.0999999999999</ele>
        <time>2003-04-13T16:30:05Z</time>
      </trkpt>
      <trkpt lat="32.28084297850728" lon="-4.500095034018159">
        <ele>1347.4000000000001</ele>
        <time>2003-04-13T16:30:09Z</time>
      </trkpt>
      <trkpt lat="32.280356995761395" lon="-4.499072022736073">
        <ele>1346.8</ele>
        <time>2003-04-13T16:30:13Z</time>
      </trkpt>
      <trkpt lat="32.279860032722354" lon="-4.498016992583871">
        <ele>1344.9000000000001</ele>
        <time>2003-04-13T16:30:17Z</time>
      </trkpt>
      <trkpt lat="32.279352005571127" lon="-4.496966991573572">
        <ele>1344.8</ele>
        <time>2003-04-13T16:30:21Z</time>
      </trkpt>
      <trkpt lat="32.27888697758317" lon="-4.495917996391654">
        <ele>1347.2</ele>
        <time>2003-04-13T16:30:25Z</time>
      </trkpt>
      <trkpt lat="32.278465032577515" lon="-4.494922980666161">
        <ele>1347.8</ele>
        <time>2003-04-13T16:30:29Z</time>
      </trkpt>
      <trkpt lat="32.278039986267686" lon="-4.493925031274557">
        <ele>1346.7</ele>
        <time>2003-04-13T16:30:33Z</time>
      </trkpt>
      <trkpt lat="32.27761703543365" lon="-4.492933033034205">
        <ele>1345.5</ele>
        <time>2003-04-13T16:30:37Z</time>
      </trkpt>
      <trkpt lat="32.277213027700782" lon="-4.49197799898684">
        <ele>1344.7</ele>
        <time>2003-04-13T16:30:41Z</time>
      </trkpt>
      <trkpt lat="32.27675998583436" lon="-4.490918023511767">
        <ele>1344.5</ele>
        <time>2003-04-13T16:30:47Z</time>
      </trkpt>
      <trkpt lat="32.27630996145308" lon="-4.489861987531185">
        <ele>1344.4000000000001</ele>
        <time>2003-04-13T16:30:52Z</time>
      </trkpt>
      <trkpt lat="32.275907965376973" lon="-4.488915000110865">
        <ele>1344.3</ele>
        <time>2003-04-13T16:30:56Z</time>
      </trkpt>
      <trkpt lat="32.2757079731673" lon="-4.488443015143275">
        <ele>1344.7</ele>
        <time>2003-04-13T16:30:59Z</time>
      </trkpt>
      <trkpt lat="32.275409996509552" lon="-4.487757040187717">
        <ele>1345.2</ele>
        <time>2003-04-13T16:31:04Z</time>
      </trkpt>
      <trkpt lat="32.275317963212729" lon="-4.487552018836141">
        <ele>1345.3</ele>
        <time>2003-04-13T16:31:07Z</time>
      </trkpt>
      <trkpt lat="32.275246968492866" lon="-4.487374993041158">
        <ele>1345.5</ele>
        <time>2003-04-13T16:31:10Z</time>
      </trkpt>
      <trkpt lat="32.275182008743286" lon="-4.487237026914954">
        <ele>1345.4000000000001</ele>
        <time>2003-04-13T16:31:11Z</time>
      </trkpt>
      <trkpt lat="32.275117971003056" lon="-4.487156979739666">
        <ele>1345.5</ele>
        <time>2003-04-13T16:31:12Z</time>
      </trkpt>
      <trkpt lat="32.275025015696883" lon="-4.487092019990087">
        <ele>1345.5</ele>
        <time>2003-04-13T16:31:15Z</time>
      </trkpt>
      <trkpt lat="32.274938011541963" lon="-4.487060001119971">
        <ele>1345.0999999999999</ele>
        <time>2003-04-13T16:31:17Z</time>
      </trkpt>
      <trkpt lat="32.274812031537294" lon="-4.487038040533662">
        <ele>1344.8</ele>
        <time>2003-04-13T16:31:22Z</time>
      </trkpt>
      <trkpt lat="32.274665012955666" lon="-4.486888004466891">
        <ele>1344.8</ele>
        <time>2003-04-13T16:31:33Z</time>
      </trkpt>
      <trkpt lat="32.274955026805401" lon="-4.487050026655197">
        <ele>1369</ele>
        <time>2003-04-13T16:37:09Z</time>
      </trkpt>
      <trkpt lat="32.275072960183024" lon="-4.487096965312958">
        <ele>1347.9000000000001</ele>
        <time>2003-04-13T16:46:26Z</time>
      </trkpt>
      <trkpt lat="32.275095004588366" lon="-4.486978026106954">
        <ele>1348.5999999999999</ele>
        <time>2003-04-13T16:46:30Z</time>
      </trkpt>
      <trkpt lat="32.275034990161657" lon="-4.486854979768395">
        <ele>1348.8</ele>
        <time>2003-04-13T16:46:33Z</time>
      </trkpt>
      <trkpt lat="32.274949997663498" lon="-4.486694969236851">
        <ele>1348.9000000000001</ele>
        <time>2003-04-13T16:46:39Z</time>
      </trkpt>
      <trkpt lat="32.274902975186706" lon="-4.486587010324001">
        <ele>1349</ele>
        <time>2003-04-13T16:46:43Z</time>
      </trkpt>
      <trkpt lat="32.274789987131953" lon="-4.486473016440868">
        <ele>1348</ele>
        <time>2003-04-13T16:47:38Z</time>
      </trkpt>
      <trkpt lat="32.274768026545644" lon="-4.486298002302647">
        <ele>1343.9000000000001</ele>
        <time>2003-04-13T16:53:38Z</time>
      </trkpt>
      <trkpt lat="32.274713041260839" lon="-4.486181996762753">
        <ele>1343.9000000000001</ele>
        <time>2003-04-13T16:53:47Z</time>
      </trkpt>
      <trkpt lat="32.274622013792396" lon="-4.486017040908337">
        <ele>1344</ele>
        <time>2003-04-13T16:53:56Z</time>
      </trkpt>
      <trkpt lat="32.27452302351594" lon="-4.485951997339726">
        <ele>1343.9000000000001</ele>
        <time>2003-04-13T16:54:00Z</time>
      </trkpt>
      <trkpt lat="32.274405006319284" lon="-4.485955014824867">
        <ele>1343.8</ele>
        <time>2003-04-13T16:54:03Z</time>
      </trkpt>
      <trkpt lat="32.274296963587403" lon="-4.486028021201491">
        <ele>1343.8</ele>
        <time>2003-04-13T16:54:05Z</time>
      </trkpt>
      <trkpt lat="32.274099988862872" lon="-4.48615500703454">
        <ele>1343.4000000000001</ele>
        <time>2003-04-13T16:54:09Z</time>
      </trkpt>
      <trkpt lat="32.273905025795102" lon="-4.486264977604151">
        <ele>1343.0999999999999</ele>
        <time>2003-04-13T16:54:12Z</time>
      </trkpt>
      <trkpt lat="32.273673014715314" lon="-4.48643303476274">
        <ele>1342.5999999999999</ele>
        <time>2003-04-13T16:54:16Z</time>
      </trkpt>
      <trkpt lat="32.273377971723676" lon="-4.486635038629174">
        <ele>1341.5999999999999</ele>
        <time>2003-04-13T16:54:19Z</time>
      </trkpt>
      <trkpt lat="32.272486975416541" lon="-4.487226968631148">
        <ele>1339.3</ele>
        <time>2003-04-13T16:54:27Z</time>
      </trkpt>
      <trkpt lat="32.271603019908071" lon="-4.487819988280535">
        <ele>1336.4000000000001</ele>
        <time>2003-04-13T16:54:34Z</time>
      </trkpt>
      <trkpt lat="32.270746976137161" lon="-4.488394986838102">
        <ele>1335.2</ele>
        <time>2003-04-13T16:54:41Z</time>
      </trkpt>
      <trkpt lat="32.269942983984947" lon="-4.488920029252768">
        <ele>1334.7</ele>
        <time>2003-04-13T16:54:47Z</time>
      </trkpt>
      <trkpt lat="32.269122982397676" lon="-4.489469965919852">
        <ele>1332.9000000000001</ele>
        <time>2003-04-13T16:54:54Z</time>
      </trkpt>
      <trkpt lat="32.268327036872506" lon="-4.490006994456053">
        <ele>1330.7</ele>
        <time>2003-04-13T16:55:02Z</time>
      </trkpt>
      <trkpt lat="32.268087984994054" lon="-4.490149989724159">
        <ele>1329.8</ele>
        <time>2003-04-13T16:55:03Z</time>
      </trkpt>
      <trkpt lat="32.267608037218451" lon="-4.490467999130487">
        <ele>1330.9000000000001</ele>
        <time>2003-04-13T16:55:08Z</time>
      </trkpt>
      <trkpt lat="32.266717040911317" lon="-4.491077028214932">
        <ele>1332.5999999999999</ele>
        <time>2003-04-13T16:55:14Z</time>
      </trkpt>
      <trkpt lat="32.265872983261943" lon="-4.491644985973835">
        <ele>1332.4000000000001</ele>
        <time>2003-04-13T16:55:21Z</time>
      </trkpt>
      <trkpt lat="32.264966983348131" lon="-4.492223002016544">
        <ele>1331.5999999999999</ele>
        <time>2003-04-13T16:55:28Z</time>
      </trkpt>
      <trkpt lat="32.264176988974214" lon="-4.492747038602829">
        <ele>1330.5999999999999</ele>
        <time>2003-04-13T16:55:33Z</time>
      </trkpt>
      <trkpt lat="32.263837018981576" lon="-4.492982989177108">
        <ele>1330.4000000000001</ele>
        <time>2003-04-13T16:55:37Z</time>
      </trkpt>
      <trkpt lat="32.262994972988963" lon="-4.493527980521321">
        <ele>1329.5</ele>
        <time>2003-04-13T16:55:44Z</time>
      </trkpt>
      <trkpt lat="32.262362977489829" lon="-4.493940034881234">
        <ele>1331</ele>
        <time>2003-04-13T16:55:51Z</time>
      </trkpt>
      <trkpt lat="32.261757971718907" lon="-4.494485026225448">
        <ele>1332</ele>
        <time>2003-04-13T16:55:57Z</time>
      </trkpt>
      <trkpt lat="32.261631991714239" lon="-4.494646964594722">
        <ele>1332.5</ele>
        <time>2003-04-13T16:56:00Z</time>
      </trkpt>
      <trkpt lat="32.261422025039792" lon="-4.494958017021418">
        <ele>1333.5999999999999</ele>
        <time>2003-04-13T16:56:04Z</time>
      </trkpt>
      <trkpt lat="32.261350024491549" lon="-4.495072010904551">
        <ele>1333.8</ele>
        <time>2003-04-13T16:56:06Z</time>
      </trkpt>
      <trkpt lat="32.260917015373707" lon="-4.495753040537238">
        <ele>1335.5999999999999</ele>
        <time>2003-04-13T16:56:15Z</time>
      </trkpt>
      <trkpt lat="32.26040999405086" lon="-4.496631966903806">
        <ele>1336.5</ele>
        <time>2003-04-13T16:56:27Z</time>
      </trkpt>
      <trkpt lat="32.26036699488759" lon="-4.49683497659862">
        <ele>1336.4000000000001</ele>
        <time>2003-04-13T16:56:29Z</time>
      </trkpt>
      <trkpt lat="32.260167002677917" lon="-4.497901992872357">
        <ele>1336.4000000000001</ele>
        <time>2003-04-13T16:56:38Z</time>
      </trkpt>
      <trkpt lat="32.260038005188107" lon="-4.498815033584833">
        <ele>1336.0999999999999</ele>
        <time>2003-04-13T16:56:46Z</time>
      </trkpt>
      <trkpt lat="32.260027024894953" lon="-4.499430013820529">
        <ele>1336.2</ele>
        <time>2003-04-13T16:56:53Z</time>
      </trkpt>
      <trkpt lat="32.260015038773417" lon="-4.499852964654565">
        <ele>1336.0999999999999</ele>
        <time>2003-04-13T16:56:58Z</time>
      </trkpt>
      <trkpt lat="32.259995006024837" lon="-4.500320004299283">
        <ele>1336.2</ele>
        <time>2003-04-13T16:57:04Z</time>
      </trkpt>
      <trkpt lat="32.259970027953386" lon="-4.500762987881899">
        <ele>1336.3</ele>
        <time>2003-04-13T16:57:08Z</time>
      </trkpt>
      <trkpt lat="32.259889980778098" lon="-4.501402024179697">
        <ele>1336.3</ele>
        <time>2003-04-13T16:57:13Z</time>
      </trkpt>
      <trkpt lat="32.259707003831863" lon="-4.502502987161279">
        <ele>1337.0999999999999</ele>
        <time>2003-04-13T16:57:21Z</time>
      </trkpt>
      <trkpt lat="32.259517991915345" lon="-4.503642003983259">
        <ele>1337</ele>
        <time>2003-04-13T16:57:31Z</time>
      </trkpt>
      <trkpt lat="32.259308025240898" lon="-4.504731986671686">
        <ele>1337.3</ele>
        <time>2003-04-13T16:57:40Z</time>
      </trkpt>
      <trkpt lat="32.259199982509017" lon="-4.505317965522409">
        <ele>1337.2</ele>
        <time>2003-04-13T16:57:47Z</time>
      </trkpt>
      <trkpt lat="32.259178021922708" lon="-4.505457021296024">
        <ele>1337.5999999999999</ele>
        <time>2003-04-13T16:57:48Z</time>
      </trkpt>
      <trkpt lat="32.259135022759438" lon="-4.505688026547432">
        <ele>1337.5</ele>
        <time>2003-04-13T16:57:52Z</time>
      </trkpt>
      <trkpt lat="32.259097974747419" lon="-4.50579296797514">
        <ele>1337.9000000000001</ele>
        <time>2003-04-13T16:57:56Z</time>
      </trkpt>
      <trkpt lat="32.258930001407862" lon="-4.505788022652268">
        <ele>1339</ele>
        <time>2003-04-13T16:58:11Z</time>
      </trkpt>
      <trkpt lat="32.258879961445928" lon="-4.505667993798852">
        <ele>1338.3</ele>
        <time>2003-04-13T16:58:21Z</time>
      </trkpt>
      <trkpt lat="32.258932013064623" lon="-4.505579983815551">
        <ele>1337.8</ele>
        <time>2003-04-13T16:58:25Z</time>
      </trkpt>
      <trkpt lat="32.259096968919039" lon="-4.505561962723732">
        <ele>1336.4000000000001</ele>
        <time>2003-04-13T17:00:19Z</time>
      </trkpt>
      <trkpt lat="32.259082971140742" lon="-4.505737982690334">
        <ele>1337</ele>
        <time>2003-04-13T17:00:29Z</time>
      </trkpt>
      <trkpt lat="32.258967971429229" lon="-4.50577000156045">
        <ele>1337.5</ele>
        <time>2003-04-13T17:00:36Z</time>
      </trkpt>
      <trkpt lat="32.258892031386495" lon="-4.505607979372144">
        <ele>1337.3</ele>
        <time>2003-04-13T17:00:41Z</time>
      </trkpt>
      <trkpt lat="32.258897982537746" lon="-4.505498008802533">
        <ele>1337</ele>
        <time>2003-04-13T17:00:44Z</time>
      </trkpt>
      <trkpt lat="32.258905023336411" lon="-4.505391977727413">
        <ele>1336.7</ele>
        <time>2003-04-13T17:00:46Z</time>
      </trkpt>
      <trkpt lat="32.258912986144423" lon="-4.505253005772829">
        <ele>1336.5</ele>
        <time>2003-04-13T17:00:53Z</time>
      </trkpt>
      <trkpt lat="32.258933018893003" lon="-4.505077991634607">
        <ele>1336.0999999999999</ele>
        <time>2003-04-13T17:00:57Z</time>
      </trkpt>
      <trkpt lat="32.258937964215875" lon="-4.504968021064997">
        <ele>1335.8</ele>
        <time>2003-04-13T17:01:03Z</time>
      </trkpt>
      <trkpt lat="32.258978029713035" lon="-4.504850003868341">
        <ele>1336.0999999999999</ele>
        <time>2003-04-13T17:01:07Z</time>
      </trkpt>
      <trkpt lat="32.258967971429229" lon="-4.504655040800571">
        <ele>1341.3</ele>
        <time>2003-04-13T17:43:27Z</time>
      </trkpt>
      <trkpt lat="32.258982975035906" lon="-4.504510033875704">
        <ele>1341</ele>
        <time>2003-04-13T17:43:31Z</time>
      </trkpt>
      <trkpt lat="32.259007031098008" lon="-4.50431196950376">
        <ele>1340.0999999999999</ele>
        <time>2003-04-13T17:43:37Z</time>
      </trkpt>
      <trkpt lat="32.259026980027556" lon="-4.50407300144434">
        <ele>1338.9000000000001</ele>
        <time>2003-04-13T17:43:42Z</time>
      </trkpt>
      <trkpt lat="32.259152038022876" lon="-4.50396697036922">
        <ele>1339.2</ele>
        <time>2003-04-13T17:43:53Z</time>
      </trkpt>
      <trkpt lat="32.259256979450583" lon="-4.503978034481406">
        <ele>1338.5</ele>
        <time>2003-04-13T17:44:04Z</time>
      </trkpt>
      <trkpt lat="32.259348006919026" lon="-4.504036959260702">
        <ele>1338.3</ele>
        <time>2003-04-13T17:44:11Z</time>
      </trkpt>
      <trkpt lat="32.259380025789142" lon="-4.504177020862699">
        <ele>1338.0999999999999</ele>
        <time>2003-04-13T17:44:13Z</time>
      </trkpt>
      <trkpt lat="32.259368039667606" lon="-4.50430803000927">
        <ele>1337.7</ele>
        <time>2003-04-13T17:44:16Z</time>
      </trkpt>
      <trkpt lat="32.259314982220531" lon="-4.504605000838637">
        <ele>1337.2</ele>
        <time>2003-04-13T17:44:20Z</time>
      </trkpt>
      <trkpt lat="32.25924801081419" lon="-4.50501998886466">
        <ele>1336.8</ele>
        <time>2003-04-13T17:44:25Z</time>
      </trkpt>
      <trkpt lat="32.259235018864274" lon="-4.505155021324754">
        <ele>1336.5999999999999</ele>
        <time>2003-04-13T17:44:28Z</time>
      </trkpt>
      <trkpt lat="32.259220015257597" lon="-4.505267003551126">
        <ele>1336.7</ele>
        <time>2003-04-13T17:44:32Z</time>
      </trkpt>
      <trkpt lat="32.259216997772455" lon="-4.505374962463975">
        <ele>1342.7</ele>
        <time>2003-04-13T17:44:48Z</time>
      </trkpt>
      <trkpt lat="32.259197970852256" lon="-4.505549976602197">
        <ele>1339.0999999999999</ele>
        <time>2003-04-13T17:45:11Z</time>
      </trkpt>
      <trkpt lat="32.259172992780805" lon="-4.505666987970471">
        <ele>1338.3</ele>
        <time>2003-04-13T17:45:19Z</time>
      </trkpt>
      <trkpt lat="32.259129993617535" lon="-4.50585700571537">
        <ele>1337.5999999999999</ele>
        <time>2003-04-13T17:45:27Z</time>
      </trkpt>
      <trkpt lat="32.259042989462614" lon="-4.505924982950091">
        <ele>1337.2</ele>
        <time>2003-04-13T17:45:33Z</time>
      </trkpt>
      <trkpt lat="32.258952967822552" lon="-4.505936969071627">
        <ele>1336.5999999999999</ele>
        <time>2003-04-13T17:45:40Z</time>
      </trkpt>
      <trkpt lat="32.258852971717715" lon="-4.505926994606853">
        <ele>1336.2</ele>
        <time>2003-04-13T17:45:44Z</time>
      </trkpt>
      <trkpt lat="32.258666977286339" lon="-4.505897993221879">
        <ele>1334.7</ele>
        <time>2003-04-13T17:45:53Z</time>
      </trkpt>
      <trkpt lat="32.258572010323405" lon="-4.505887012928724">
        <ele>1334.7</ele>
        <time>2003-04-13T17:46:00Z</time>
      </trkpt>
      <trkpt lat="32.258479977026582" lon="-4.505887012928724">
        <ele>1334.8</ele>
        <time>2003-04-13T17:46:05Z</time>
      </trkpt>
      <trkpt lat="32.258403031155467" lon="-4.505977034568787">
        <ele>1335.4000000000001</ele>
        <time>2003-04-13T17:46:09Z</time>
      </trkpt>
      <trkpt lat="32.258391967043281" lon="-4.506132015958428">
        <ele>1335.4000000000001</ele>
        <time>2003-04-13T17:46:12Z</time>
      </trkpt>
      <trkpt lat="32.258361959829926" lon="-4.506322033703327">
        <ele>1335.2</ele>
        <time>2003-04-13T17:46:16Z</time>
      </trkpt>
      <trkpt lat="32.258288031443954" lon="-4.506771974265575">
        <ele>1334.9000000000001</ele>
        <time>2003-04-13T17:46:24Z</time>
      </trkpt>
      <trkpt lat="32.258272022008896" lon="-4.506910024210811">
        <ele>1335.4000000000001</ele>
        <time>2003-04-13T17:46:28Z</time>
      </trkpt>
      <trkpt lat="32.258258024230599" lon="-4.507068023085594">
        <ele>1335.4000000000001</ele>
        <time>2003-04-13T17:46:31Z</time>
      </trkpt>
      <trkpt lat="32.258192980661988" lon="-4.507557023316622">
        <ele>1334.8</ele>
        <time>2003-04-13T17:46:39Z</time>
      </trkpt>
      <trkpt lat="32.258136989548802" lon="-4.507658025249839">
        <ele>1335</ele>
        <time>2003-04-13T17:46:40Z</time>
      </trkpt>
      <trkpt lat="32.258015032857656" lon="-4.507715022191405">
        <ele>1334.4000000000001</ele>
        <time>2003-04-13T17:46:43Z</time>
      </trkpt>
      <trkpt lat="32.257785033434629" lon="-4.507752992212772">
        <ele>1333.3</ele>
        <time>2003-04-13T17:46:46Z</time>
      </trkpt>
      <trkpt lat="32.25763700902462" lon="-4.507802026346326">
        <ele>1332.7</ele>
        <time>2003-04-13T17:46:47Z</time>
      </trkpt>
      <trkpt lat="32.257216991856694" lon="-4.508005036041141">
        <ele>1329.9000000000001</ele>
        <time>2003-04-13T17:46:54Z</time>
      </trkpt>
      <trkpt lat="32.257150020450354" lon="-4.508126992732287">
        <ele>1329.5999999999999</ele>
        <time>2003-04-13T17:46:55Z</time>
      </trkpt>
      <trkpt lat="32.257172986865044" lon="-4.508287003263831">
        <ele>1329</ele>
        <time>2003-04-13T17:46:58Z</time>
      </trkpt>
      <trkpt lat="32.257282035425305" lon="-4.508448019623756">
        <ele>1328.4000000000001</ele>
        <time>2003-04-13T17:46:59Z</time>
      </trkpt>
      <trkpt lat="32.257404997944832" lon="-4.508644994348288">
        <ele>1328.5</ele>
        <time>2003-04-13T17:47:02Z</time>
      </trkpt>
      <trkpt lat="32.257670033723116" lon="-4.509098036214709">
        <ele>1328.5</ele>
        <time>2003-04-13T17:47:06Z</time>
      </trkpt>
      <trkpt lat="32.258202033117414" lon="-4.510022979229689">
        <ele>1328.3</ele>
        <time>2003-04-13T17:47:13Z</time>
      </trkpt>
      <trkpt lat="32.258722968399525" lon="-4.510969966650009">
        <ele>1328.3</ele>
        <time>2003-04-13T17:47:20Z</time>
      </trkpt>
      <trkpt lat="32.259052963927388" lon="-4.511600034311414">
        <ele>1329.5</ele>
        <time>2003-04-13T17:47:25Z</time>
      </trkpt>
      <trkpt lat="32.259097974747419" lon="-4.511855011805892">
        <ele>1330.4000000000001</ele>
        <time>2003-04-13T17:47:26Z</time>
      </trkpt>
      <trkpt lat="32.259093029424548" lon="-4.512092974036932">
        <ele>1331.5999999999999</ele>
        <time>2003-04-13T17:47:29Z</time>
      </trkpt>
      <trkpt lat="32.259047012776136" lon="-4.512460017576814">
        <ele>1333.8</ele>
        <time>2003-04-13T17:47:32Z</time>
      </trkpt>
      <trkpt lat="32.258835034444928" lon="-4.513544971123338">
        <ele>1336.7</ele>
        <time>2003-04-13T17:47:40Z</time>
      </trkpt>
      <trkpt lat="32.258692039176822" lon="-4.514467986300588">
        <ele>1338.2</ele>
        <time>2003-04-13T17:47:47Z</time>
      </trkpt>
      <trkpt lat="32.258705031126738" lon="-4.51475003734231">
        <ele>1338.7</ele>
        <time>2003-04-13T17:47:49Z</time>
      </trkpt>
      <trkpt lat="32.25881801918149" lon="-4.515928030014038">
        <ele>1339.3</ele>
        <time>2003-04-13T17:47:56Z</time>
      </trkpt>
      <trkpt lat="32.258932013064623" lon="-4.517084984108806">
        <ele>1340.0999999999999</ele>
        <time>2003-04-13T17:48:04Z</time>
      </trkpt>
      <trkpt lat="32.259035026654601" lon="-4.518315028399229">
        <ele>1340.5</ele>
        <time>2003-04-13T17:48:11Z</time>
      </trkpt>
      <trkpt lat="32.259042989462614" lon="-4.519450021907687">
        <ele>1340.7</ele>
        <time>2003-04-13T17:48:16Z</time>
      </trkpt>
      <trkpt lat="32.259047012776136" lon="-4.520545033738017">
        <ele>1340.7</ele>
        <time>2003-04-13T17:48:23Z</time>
      </trkpt>
      <trkpt lat="32.259063022211194" lon="-4.521740041673183">
        <ele>1340.7</ele>
        <time>2003-04-13T17:48:28Z</time>
      </trkpt>
      <trkpt lat="32.259069979190826" lon="-4.522898001596332">
        <ele>1340.5999999999999</ele>
        <time>2003-04-13T17:48:35Z</time>
      </trkpt>
      <trkpt lat="32.259069979190826" lon="-4.524104995653033">
        <ele>1339.8</ele>
        <time>2003-04-13T17:48:41Z</time>
      </trkpt>
      <trkpt lat="32.259045001119375" lon="-4.524907981976867">
        <ele>1340.5999999999999</ele>
        <time>2003-04-13T17:48:45Z</time>
      </trkpt>
      <trkpt lat="32.258942993357778" lon="-4.525290029123426">
        <ele>1341</ele>
        <time>2003-04-13T17:48:46Z</time>
      </trkpt>
      <trkpt lat="32.258621966466308" lon="-4.526410019025207">
        <ele>1342.3</ele>
        <time>2003-04-13T17:48:53Z</time>
      </trkpt>
      <trkpt lat="32.258303035050631" lon="-4.5275569986552">
        <ele>1343.5</ele>
        <time>2003-04-13T17:48:58Z</time>
      </trkpt>
      <trkpt lat="32.257982008159161" lon="-4.528732979670167">
        <ele>1343.7</ele>
        <time>2003-04-13T17:49:05Z</time>
      </trkpt>
      <trkpt lat="32.257697023451328" lon="-4.52974702231586">
        <ele>1344.0999999999999</ele>
        <time>2003-04-13T17:49:10Z</time>
      </trkpt>
      <trkpt lat="32.257397035136819" lon="-4.530789982527494">
        <ele>1344.5999999999999</ele>
        <time>2003-04-13T17:49:14Z</time>
      </trkpt>
      <trkpt lat="32.257123030722141" lon="-4.531833026558161">
        <ele>1345.3</ele>
        <time>2003-04-13T17:49:20Z</time>
      </trkpt>
      <trkpt lat="32.256963020190597" lon="-4.532716982066631">
        <ele>1346</ele>
        <time>2003-04-13T17:49:24Z</time>
      </trkpt>
      <trkpt lat="32.256888002157211" lon="-4.533847030252218">
        <ele>1348.9000000000001</ele>
        <time>2003-04-13T17:49:29Z</time>
      </trkpt>
      <trkpt lat="32.256730003282428" lon="-4.534950004890561">
        <ele>1351.3</ele>
        <time>2003-04-13T17:49:33Z</time>
      </trkpt>
      <trkpt lat="32.256417023018003" lon="-4.536018026992679">
        <ele>1351.3</ele>
        <time>2003-04-13T17:49:39Z</time>
      </trkpt>
      <trkpt lat="32.25619800388813" lon="-4.53685998916626">
        <ele>1352</ele>
        <time>2003-04-13T17:49:43Z</time>
      </trkpt>
      <trkpt lat="32.256057020276785" lon="-4.537947960197926">
        <ele>1353.3</ele>
        <time>2003-04-13T17:49:48Z</time>
      </trkpt>
      <trkpt lat="32.255842024460435" lon="-4.539026962593198">
        <ele>1354</ele>
        <time>2003-04-13T17:49:52Z</time>
      </trkpt>
      <trkpt lat="32.255662987008691" lon="-4.539425019174814">
        <ele>1354.2</ele>
        <time>2003-04-13T17:49:55Z</time>
      </trkpt>
      <trkpt lat="32.255227966234088" lon="-4.540472002699971">
        <ele>1355.4000000000001</ele>
        <time>2003-04-13T17:50:00Z</time>
      </trkpt>
      <trkpt lat="32.255132999271154" lon="-4.540912974625826">
        <ele>1356.7</ele>
        <time>2003-04-13T17:50:02Z</time>
      </trkpt>
      <trkpt lat="32.254932001233101" lon="-4.541900027543306">
        <ele>1358.5999999999999</ele>
        <time>2003-04-13T17:50:07Z</time>
      </trkpt>
      <trkpt lat="32.254723040387034" lon="-4.543023034930229">
        <ele>1358.4000000000001</ele>
        <time>2003-04-13T17:50:12Z</time>
      </trkpt>
      <trkpt lat="32.254490023478866" lon="-4.544182000681758">
        <ele>1360.3</ele>
        <time>2003-04-13T17:50:19Z</time>
      </trkpt>
      <trkpt lat="32.254249965772033" lon="-4.545420007780194">
        <ele>1362.3</ele>
        <time>2003-04-13T17:50:24Z</time>
      </trkpt>
      <trkpt lat="32.254045028239489" lon="-4.546460034325719">
        <ele>1363.7</ele>
        <time>2003-04-13T17:50:30Z</time>
      </trkpt>
      <trkpt lat="32.253807988017797" lon="-4.547648001462221">
        <ele>1365.3</ele>
        <time>2003-04-13T17:50:35Z</time>
      </trkpt>
      <trkpt lat="32.253583017736673" lon="-4.548860024660826">
        <ele>1366</ele>
        <time>2003-04-13T17:50:42Z</time>
      </trkpt>
      <trkpt lat="32.253465000540018" lon="-4.54992201179266">
        <ele>1366.5</ele>
        <time>2003-04-13T17:50:46Z</time>
      </trkpt>
      <trkpt lat="32.253444967791438" lon="-4.55106002278626">
        <ele>1367.4000000000001</ele>
        <time>2003-04-13T17:50:51Z</time>
      </trkpt>
      <trkpt lat="32.253472041338682" lon="-4.55222200602293">
        <ele>1369.2</ele>
        <time>2003-04-13T17:50:57Z</time>
      </trkpt>
      <trkpt lat="32.253482015803456" lon="-4.553287010639906">
        <ele>1370</ele>
        <time>2003-04-13T17:51:01Z</time>
      </trkpt>
      <trkpt lat="32.253538006916642" lon="-4.554138025268912">
        <ele>1370.3</ele>
        <time>2003-04-13T17:51:05Z</time>
      </trkpt>
      <trkpt lat="32.253658035770059" lon="-4.554552007466555">
        <ele>1370.0999999999999</ele>
        <time>2003-04-13T17:51:08Z</time>
      </trkpt>
      <trkpt lat="32.253860039636493" lon="-4.554930031299591">
        <ele>1370.0999999999999</ele>
        <time>2003-04-13T17:51:09Z</time>
      </trkpt>
      <trkpt lat="32.254132032394409" lon="-4.555266983807087">
        <ele>1369.7</ele>
        <time>2003-04-13T17:51:12Z</time>
      </trkpt>
      <trkpt lat="32.254890007898211" lon="-4.556059995666146">
        <ele>1370</ele>
        <time>2003-04-13T17:51:17Z</time>
      </trkpt>
      <trkpt lat="32.255131993442774" lon="-4.556444976478815">
        <ele>1370.4000000000001</ele>
        <time>2003-04-13T17:51:18Z</time>
      </trkpt>
      <trkpt lat="32.255297033116221" lon="-4.556887960061431">
        <ele>1371</ele>
        <time>2003-04-13T17:51:21Z</time>
      </trkpt>
      <trkpt lat="32.255340032279491" lon="-4.557125000283122">
        <ele>1371</ele>
        <time>2003-04-13T17:51:21Z</time>
      </trkpt>
      <trkpt lat="32.255352018401027" lon="-4.557609977200627">
        <ele>1371.7</ele>
        <time>2003-04-13T17:51:24Z</time>
      </trkpt>
      <trkpt lat="32.255229977890849" lon="-4.558806996792555">
        <ele>1373.4000000000001</ele>
        <time>2003-04-13T17:51:28Z</time>
      </trkpt>
      <trkpt lat="32.255112966522574" lon="-4.55999999307096">
        <ele>1372.8</ele>
        <time>2003-04-13T17:51:33Z</time>
      </trkpt>
      <trkpt lat="32.255001990124583" lon="-4.561187038198113">
        <ele>1372.8</ele>
        <time>2003-04-13T17:51:39Z</time>
      </trkpt>
      <trkpt lat="32.25488799624145" lon="-4.562372993677855">
        <ele>1373.0999999999999</ele>
        <time>2003-04-13T17:51:44Z</time>
      </trkpt>
      <trkpt lat="32.254718011245131" lon="-4.56354302354157">
        <ele>1372.7</ele>
        <time>2003-04-13T17:51:48Z</time>
      </trkpt>
      <trkpt lat="32.254377035424113" lon="-4.564693020656705">
        <ele>1373.0999999999999</ele>
        <time>2003-04-13T17:51:54Z</time>
      </trkpt>
      <trkpt lat="32.254019966349006" lon="-4.56584201194346">
        <ele>1373.8</ele>
        <time>2003-04-13T17:51:59Z</time>
      </trkpt>
      <trkpt lat="32.253677984699607" lon="-4.566977005451918">
        <ele>1374.3</ele>
        <time>2003-04-13T17:52:03Z</time>
      </trkpt>
      <trkpt lat="32.25334296002984" lon="-4.568088026717305">
        <ele>1374.9000000000001</ele>
        <time>2003-04-13T17:52:08Z</time>
      </trkpt>
      <trkpt lat="32.25308496505022" lon="-4.569117994979024">
        <ele>1375.5999999999999</ele>
        <time>2003-04-13T17:52:14Z</time>
      </trkpt>
      <trkpt lat="32.252857983112335" lon="-4.570351978763938">
        <ele>1376.2</ele>
        <time>2003-04-13T17:52:19Z</time>
      </trkpt>
      <trkpt lat="32.252637036144733" lon="-4.571587974205613">
        <ele>1376.3</ele>
        <time>2003-04-13T17:52:26Z</time>
      </trkpt>
      <trkpt lat="32.252448024228215" lon="-4.572658007964492">
        <ele>1376.2</ele>
        <time>2003-04-13T17:52:30Z</time>
      </trkpt>
      <trkpt lat="32.252249959856272" lon="-4.57375000230968">
        <ele>1376.3</ele>
        <time>2003-04-13T17:52:35Z</time>
      </trkpt>
      <trkpt lat="32.252048039808869" lon="-4.574860017746687">
        <ele>1378.0999999999999</ele>
        <time>2003-04-13T17:52:41Z</time>
      </trkpt>
      <trkpt lat="32.251858022063971" lon="-4.575998028740287">
        <ele>1379.5999999999999</ele>
        <time>2003-04-13T17:52:46Z</time>
      </trkpt>
      <trkpt lat="32.25162198767066" lon="-4.577173003926873">
        <ele>1380.3</ele>
        <time>2003-04-13T17:52:52Z</time>
      </trkpt>
      <trkpt lat="32.251217979937792" lon="-4.578359965234995">
        <ele>1380.7</ele>
        <time>2003-04-13T17:52:56Z</time>
      </trkpt>
      <trkpt lat="32.250782959163189" lon="-4.579282980412245">
        <ele>1381.3</ele>
        <time>2003-04-13T17:53:00Z</time>
      </trkpt>
      <trkpt lat="32.250103019177914" lon="-4.580323006957769">
        <ele>1382.5</ele>
        <time>2003-04-13T17:53:05Z</time>
      </trkpt>
      <trkpt lat="32.249315036460757" lon="-4.58124996162951">
        <ele>1384.3</ele>
        <time>2003-04-13T17:53:09Z</time>
      </trkpt>
      <trkpt lat="32.248538034036756" lon="-4.582155039533973">
        <ele>1387</ele>
        <time>2003-04-13T17:53:15Z</time>
      </trkpt>
      <trkpt lat="32.247845018282533" lon="-4.583070008084178">
        <ele>1389.7</ele>
        <time>2003-04-13T17:53:20Z</time>
      </trkpt>
      <trkpt lat="32.247187038883567" lon="-4.583929991349578">
        <ele>1391.8</ele>
        <time>2003-04-13T17:53:24Z</time>
      </trkpt>
      <trkpt lat="32.246595025062561" lon="-4.584831967949867">
        <ele>1393.8</ele>
        <time>2003-04-13T17:53:29Z</time>
      </trkpt>
      <trkpt lat="32.246324960142374" lon="-4.585443008691073">
        <ele>1395.5999999999999</ele>
        <time>2003-04-13T17:53:32Z</time>
      </trkpt>
      <trkpt lat="32.246127985417843" lon="-4.586096964776516">
        <ele>1395.4000000000001</ele>
        <time>2003-04-13T17:53:36Z</time>
      </trkpt>
      <trkpt lat="32.245897985994816" lon="-4.587228018790484">
        <ele>1393.8</ele>
        <time>2003-04-13T17:53:40Z</time>
      </trkpt>
      <trkpt lat="32.245675027370453" lon="-4.588448004797101">
        <ele>1391.5999999999999</ele>
        <time>2003-04-13T17:53:46Z</time>
      </trkpt>
      <trkpt lat="32.245447039604187" lon="-4.589652987197042">
        <ele>1391.5</ele>
        <time>2003-04-13T17:53:51Z</time>
      </trkpt>
      <trkpt lat="32.245227014645934" lon="-4.590870039537549">
        <ele>1390.2</ele>
        <time>2003-04-13T17:53:56Z</time>
      </trkpt>
      <trkpt lat="32.245102040469646" lon="-4.591332972049713">
        <ele>1391.7</ele>
        <time>2003-04-13T17:53:58Z</time>
      </trkpt>
      <trkpt lat="32.244819989427924" lon="-4.591992041096091">
        <ele>1392.2</ele>
        <time>2003-04-13T17:54:00Z</time>
      </trkpt>
      <trkpt lat="32.244555037468672" lon="-4.592381967231631">
        <ele>1392.2</ele>
        <time>2003-04-13T17:54:03Z</time>
      </trkpt>
      <trkpt lat="32.24422998726368" lon="-4.592712968587875">
        <ele>1391.5999999999999</ele>
        <time>2003-04-13T17:54:05Z</time>
      </trkpt>
      <trkpt lat="32.243403028696775" lon="-4.593492988497019">
        <ele>1389.7</ele>
        <time>2003-04-13T17:54:10Z</time>
      </trkpt>
      <trkpt lat="32.243147967383265" lon="-4.593885010108352">
        <ele>1389.5</ele>
        <time>2003-04-13T17:54:13Z</time>
      </trkpt>
      <trkpt lat="32.242522006854415" lon="-4.594857981428504">
        <ele>1391.3</ele>
        <time>2003-04-13T17:54:18Z</time>
      </trkpt>
      <trkpt lat="32.241912977769971" lon="-4.595788037404418">
        <ele>1391.7</ele>
        <time>2003-04-13T17:54:22Z</time>
      </trkpt>
      <trkpt lat="32.241326998919249" lon="-4.596681967377663">
        <ele>1392</ele>
        <time>2003-04-13T17:54:26Z</time>
      </trkpt>
      <trkpt lat="32.240892983973026" lon="-4.597395015880466">
        <ele>1392.5</ele>
        <time>2003-04-13T17:54:32Z</time>
      </trkpt>
      <trkpt lat="32.240832969546318" lon="-4.597586961463094">
        <ele>1392.5999999999999</ele>
        <time>2003-04-13T17:54:33Z</time>
      </trkpt>
      <trkpt lat="32.240802962332964" lon="-4.597785025835037">
        <ele>1393.3</ele>
        <time>2003-04-13T17:54:34Z</time>
      </trkpt>
      <trkpt lat="32.240804973989725" lon="-4.59798501804471">
        <ele>1394</ele>
        <time>2003-04-13T17:54:34Z</time>
      </trkpt>
      <trkpt lat="32.240744959563017" lon="-4.599248003214598">
        <ele>1395.0999999999999</ele>
        <time>2003-04-13T17:54:41Z</time>
      </trkpt>
      <trkpt lat="32.240610010921955" lon="-4.599917968735099">
        <ele>1395.3</ele>
        <time>2003-04-13T17:54:44Z</time>
      </trkpt>
      <trkpt lat="32.240365007892251" lon="-4.601081963628531">
        <ele>1396.2</ele>
        <time>2003-04-13T17:54:49Z</time>
      </trkpt>
      <trkpt lat="32.240132996812463" lon="-4.602207988500595">
        <ele>1397.0999999999999</ele>
        <time>2003-04-13T17:54:53Z</time>
      </trkpt>
      <trkpt lat="32.239902997389436" lon="-4.603326972573996">
        <ele>1398.8</ele>
        <time>2003-04-13T17:54:59Z</time>
      </trkpt>
      <trkpt lat="32.239681966602802" lon="-4.604404969140887">
        <ele>1399.7</ele>
        <time>2003-04-13T17:55:04Z</time>
      </trkpt>
      <trkpt lat="32.239454984664917" lon="-4.605467962101102">
        <ele>1400.5</ele>
        <time>2003-04-13T17:55:08Z</time>
      </trkpt>
      <trkpt lat="32.239197995513678" lon="-4.606517041102052">
        <ele>1401.9000000000001</ele>
        <time>2003-04-13T17:55:13Z</time>
      </trkpt>
      <trkpt lat="32.238842016085982" lon="-4.607702996581793">
        <ele>1402.5999999999999</ele>
        <time>2003-04-13T17:55:20Z</time>
      </trkpt>
      <trkpt lat="32.238528029993176" lon="-4.608725002035499">
        <ele>1401.9000000000001</ele>
        <time>2003-04-13T17:55:24Z</time>
      </trkpt>
      <trkpt lat="32.238207003101707" lon="-4.609772991389036">
        <ele>1401.7</ele>
        <time>2003-04-13T17:55:30Z</time>
      </trkpt>
      <trkpt lat="32.237869966775179" lon="-4.610847970470786">
        <ele>1402.2</ele>
        <time>2003-04-13T17:55:35Z</time>
      </trkpt>
      <trkpt lat="32.237550029531121" lon="-4.611884979531169">
        <ele>1406.5999999999999</ele>
        <time>2003-04-13T17:55:39Z</time>
      </trkpt>
      <trkpt lat="32.237287005409598" lon="-4.612846970558167">
        <ele>1408.0999999999999</ele>
        <time>2003-04-13T17:55:44Z</time>
      </trkpt>
      <trkpt lat="32.237263033166528" lon="-4.61328299716115">
        <ele>1407.5</ele>
        <time>2003-04-13T17:55:47Z</time>
      </trkpt>
      <trkpt lat="32.237309971824288" lon="-4.613736961036921">
        <ele>1407.0999999999999</ele>
        <time>2003-04-13T17:55:48Z</time>
      </trkpt>
      <trkpt lat="32.237427989020944" lon="-4.61495996452868">
        <ele>1404.4000000000001</ele>
        <time>2003-04-13T17:55:54Z</time>
      </trkpt>
      <trkpt lat="32.2375269792974" lon="-4.61622797884047">
        <ele>1404.9000000000001</ele>
        <time>2003-04-13T17:55:58Z</time>
      </trkpt>
      <trkpt lat="32.237518010661006" lon="-4.617349980399013">
        <ele>1405.5</ele>
        <time>2003-04-13T17:56:03Z</time>
      </trkpt>
      <trkpt lat="32.23741801455617" lon="-4.618472987785935">
        <ele>1404.5999999999999</ele>
        <time>2003-04-13T17:56:09Z</time>
      </trkpt>
      <trkpt lat="32.237254986539483" lon="-4.619617033749819">
        <ele>1404.2</ele>
        <time>2003-04-13T17:56:14Z</time>
      </trkpt>
      <trkpt lat="32.237092964351177" lon="-4.620738029479981">
        <ele>1405.7</ele>
        <time>2003-04-13T17:56:18Z</time>
      </trkpt>
      <trkpt lat="32.236922979354858" lon="-4.62187796831131">
        <ele>1406.7</ele>
        <time>2003-04-13T17:56:24Z</time>
      </trkpt>
      <trkpt lat="32.236757017672062" lon="-4.623038023710251">
        <ele>1407.9000000000001</ele>
        <time>2003-04-13T17:56:29Z</time>
      </trkpt>
      <trkpt lat="32.23658200353384" lon="-4.62421702221036">
        <ele>1407.8</ele>
        <time>2003-04-13T17:56:33Z</time>
      </trkpt>
      <trkpt lat="32.236419981345534" lon="-4.625387974083424">
        <ele>1408.9000000000001</ele>
        <time>2003-04-13T17:56:38Z</time>
      </trkpt>
      <trkpt lat="32.236247984692454" lon="-4.626551968976855">
        <ele>1409.9000000000001</ele>
        <time>2003-04-13T17:56:44Z</time>
      </trkpt>
      <trkpt lat="32.236056961119175" lon="-4.6276980265975">
        <ele>1411.3</ele>
        <time>2003-04-13T17:56:49Z</time>
      </trkpt>
      <trkpt lat="32.235827967524529" lon="-4.628826985135675">
        <ele>1412.5</ele>
        <time>2003-04-13T17:56:53Z</time>
      </trkpt>
      <trkpt lat="32.23557198420167" lon="-4.629947980865836">
        <ele>1413.3</ele>
        <time>2003-04-13T17:56:59Z</time>
      </trkpt>
      <trkpt lat="32.235322035849094" lon="-4.631090015172958">
        <ele>1413.8</ele>
        <time>2003-04-13T17:57:04Z</time>
      </trkpt>
      <trkpt lat="32.235081978142262" lon="-4.632246969267726">
        <ele>1414</ele>
        <time>2003-04-13T17:57:08Z</time>
      </trkpt>
      <trkpt lat="32.234833035618067" lon="-4.633399983868003">
        <ele>1414.5</ele>
        <time>2003-04-13T17:57:14Z</time>
      </trkpt>
      <trkpt lat="32.234581997618079" lon="-4.634555010125041">
        <ele>1415.2</ele>
        <time>2003-04-13T17:57:19Z</time>
      </trkpt>
      <trkpt lat="32.234373036772013" lon="-4.63575798086822">
        <ele>1416</ele>
        <time>2003-04-13T17:57:23Z</time>
      </trkpt>
      <trkpt lat="32.234270023182034" lon="-4.637052984908223">
        <ele>1416.2</ele>
        <time>2003-04-13T17:57:28Z</time>
      </trkpt>
      <trkpt lat="32.234198022633791" lon="-4.63814196176827">
        <ele>1416.0999999999999</ele>
        <time>2003-04-13T17:57:32Z</time>
      </trkpt>
      <trkpt lat="32.234131973236799" lon="-4.639239991083741">
        <ele>1417.3</ele>
        <time>2003-04-13T17:57:36Z</time>
      </trkpt>
      <trkpt lat="32.234059972688556" lon="-4.640337014570832">
        <ele>1420.2</ele>
        <time>2003-04-13T17:57:41Z</time>
      </trkpt>
      <trkpt lat="32.233947990462184" lon="-4.641420040279627">
        <ele>1423.4000000000001</ele>
        <time>2003-04-13T17:57:45Z</time>
      </trkpt>
      <trkpt lat="32.233765013515949" lon="-4.642467023804784">
        <ele>1425</ele>
        <time>2003-04-13T17:57:49Z</time>
      </trkpt>
      <trkpt lat="32.23353199660778" lon="-4.643643004819751">
        <ele>1426.5999999999999</ele>
        <time>2003-04-13T17:57:54Z</time>
      </trkpt>
      <trkpt lat="32.233332004398108" lon="-4.644782021641731">
        <ele>1428.3</ele>
        <time>2003-04-13T17:57:58Z</time>
      </trkpt>
      <trkpt lat="32.23312203772366" lon="-4.645927995443344">
        <ele>1428.9000000000001</ele>
        <time>2003-04-13T17:58:03Z</time>
      </trkpt>
      <trkpt lat="32.232845015823841" lon="-4.646867020055652">
        <ele>1427.3</ele>
        <time>2003-04-13T17:58:08Z</time>
      </trkpt>
      <trkpt lat="32.232596995308995" lon="-4.647317966446281">
        <ele>1423.7</ele>
        <time>2003-04-13T17:58:10Z</time>
      </trkpt>
      <trkpt lat="32.232268005609512" lon="-4.647718034684658">
        <ele>1421.4000000000001</ele>
        <time>2003-04-13T17:58:12Z</time>
      </trkpt>
      <trkpt lat="32.231571972370148" lon="-4.648435022681952">
        <ele>1422.9000000000001</ele>
        <time>2003-04-13T17:58:16Z</time>
      </trkpt>
      <trkpt lat="32.231165030971169" lon="-4.648950006812811">
        <ele>1429.4000000000001</ele>
        <time>2003-04-13T17:58:18Z</time>
      </trkpt>
      <trkpt lat="32.230954980477691" lon="-4.649319984018803">
        <ele>1431.3</ele>
        <time>2003-04-13T17:58:21Z</time>
      </trkpt>
      <trkpt lat="32.230796981602907" lon="-4.649728015065193">
        <ele>1432.5999999999999</ele>
        <time>2003-04-13T17:58:22Z</time>
      </trkpt>
      <trkpt lat="32.230643006041646" lon="-4.65038700029254">
        <ele>1433.5</ele>
        <time>2003-04-13T17:58:25Z</time>
      </trkpt>
      <trkpt lat="32.230569999665022" lon="-4.651559963822365">
        <ele>1433.9000000000001</ele>
        <time>2003-04-13T17:58:30Z</time>
      </trkpt>
      <trkpt lat="32.230491964146495" lon="-4.652723036706448">
        <ele>1434.5999999999999</ele>
        <time>2003-04-13T17:58:36Z</time>
      </trkpt>
      <trkpt lat="32.230421975255013" lon="-4.653894994407892">
        <ele>1435.0999999999999</ele>
        <time>2003-04-13T17:58:40Z</time>
      </trkpt>
      <trkpt lat="32.230337988585234" lon="-4.6550930198282">
        <ele>1435.5</ele>
        <time>2003-04-13T17:58:45Z</time>
      </trkpt>
      <trkpt lat="32.230261964723468" lon="-4.656294984742999">
        <ele>1435.5999999999999</ele>
        <time>2003-04-13T17:58:51Z</time>
      </trkpt>
      <trkpt lat="32.230177978053689" lon="-4.65749703347683">
        <ele>1435.5999999999999</ele>
        <time>2003-04-13T17:58:56Z</time>
      </trkpt>
      <trkpt lat="32.230091979727149" lon="-4.658705033361912">
        <ele>1435.5999999999999</ele>
        <time>2003-04-13T17:59:00Z</time>
      </trkpt>
      <trkpt lat="32.230021990835667" lon="-4.659917978569865">
        <ele>1436.5999999999999</ele>
        <time>2003-04-13T17:59:06Z</time>
      </trkpt>
      <trkpt lat="32.229859968647361" lon="-4.66110703535378">
        <ele>1436.9000000000001</ele>
        <time>2003-04-13T17:59:11Z</time>
      </trkpt>
      <trkpt lat="32.229571966454387" lon="-4.662259966135025">
        <ele>1435.5</ele>
        <time>2003-04-13T17:59:15Z</time>
      </trkpt>
      <trkpt lat="32.229247000068426" lon="-4.663414992392063">
        <ele>1431.7</ele>
        <time>2003-04-13T17:59:20Z</time>
      </trkpt>
      <trkpt lat="32.228907030075788" lon="-4.664634978398681">
        <ele>1427</ele>
        <time>2003-04-13T17:59:26Z</time>
      </trkpt>
      <trkpt lat="32.228582985699177" lon="-4.665638040751219">
        <ele>1424</ele>
        <time>2003-04-13T17:59:30Z</time>
      </trkpt>
      <trkpt lat="32.228261958807707" lon="-4.666304988786578">
        <ele>1426.4000000000001</ele>
        <time>2003-04-13T17:59:33Z</time>
      </trkpt>
      <trkpt lat="32.22773197107017" lon="-4.667045027017593">
        <ele>1430.2</ele>
        <time>2003-04-13T17:59:37Z</time>
      </trkpt>
      <trkpt lat="32.22704297862947" lon="-4.667897969484329">
        <ele>1434.5999999999999</ele>
        <time>2003-04-13T17:59:42Z</time>
      </trkpt>
      <trkpt lat="32.226364966481924" lon="-4.668743032962084">
        <ele>1438.5</ele>
        <time>2003-04-13T17:59:46Z</time>
      </trkpt>
      <trkpt lat="32.225661976262927" lon="-4.669605027884245">
        <ele>1439.5</ele>
        <time>2003-04-13T17:59:51Z</time>
      </trkpt>
      <trkpt lat="32.224948005750775" lon="-4.670492000877857">
        <ele>1441.0999999999999</ele>
        <time>2003-04-13T17:59:57Z</time>
      </trkpt>
      <trkpt lat="32.224215008318424" lon="-4.671419961377978">
        <ele>1440.7</ele>
        <time>2003-04-13T18:00:01Z</time>
      </trkpt>
      <trkpt lat="32.22343297675252" lon="-4.672380024567246">
        <ele>1441.0999999999999</ele>
        <time>2003-04-13T18:00:06Z</time>
      </trkpt>
      <trkpt lat="32.222801987081766" lon="-4.673164989799261">
        <ele>1442.7</ele>
        <time>2003-04-13T18:00:10Z</time>
      </trkpt>
      <trkpt lat="32.222269987687469" lon="-4.673927994444966">
        <ele>1443.3</ele>
        <time>2003-04-13T18:00:14Z</time>
      </trkpt>
      <trkpt lat="32.222097991034389" lon="-4.674335019662976">
        <ele>1443</ele>
        <time>2003-04-13T18:00:17Z</time>
      </trkpt>
      <trkpt lat="32.221934963017702" lon="-4.6749899815768">
        <ele>1443.0999999999999</ele>
        <time>2003-04-13T18:00:20Z</time>
      </trkpt>
      <trkpt lat="32.221891963854432" lon="-4.675662964582443">
        <ele>1443.3</ele>
        <time>2003-04-13T18:00:23Z</time>
      </trkpt>
      <trkpt lat="32.221952984109521" lon="-4.676292026415467">
        <ele>1441.5999999999999</ele>
        <time>2003-04-13T18:00:25Z</time>
      </trkpt>
      <trkpt lat="32.222084999084473" lon="-4.677506983280182">
        <ele>1436.4000000000001</ele>
        <time>2003-04-13T18:00:32Z</time>
      </trkpt>
      <trkpt lat="32.222177032381296" lon="-4.678256995975971">
        <ele>1441.0999999999999</ele>
        <time>2003-04-13T18:00:36Z</time>
      </trkpt>
      <trkpt lat="32.222309969365597" lon="-4.679440017789602">
        <ele>1443.5999999999999</ele>
        <time>2003-04-13T18:00:43Z</time>
      </trkpt>
      <trkpt lat="32.222442990168929" lon="-4.680648017674685">
        <ele>1443.4000000000001</ele>
        <time>2003-04-13T18:00:48Z</time>
      </trkpt>
      <trkpt lat="32.222522031515837" lon="-4.681749986484647">
        <ele>1443.8</ele>
        <time>2003-04-13T18:00:54Z</time>
      </trkpt>
      <trkpt lat="32.222496969625354" lon="-4.68285002745688">
        <ele>1444.0999999999999</ele>
        <time>2003-04-13T18:00:59Z</time>
      </trkpt>
      <trkpt lat="32.222439972683787" lon="-4.683932969346643">
        <ele>1442.9000000000001</ele>
        <time>2003-04-13T18:01:03Z</time>
      </trkpt>
      <trkpt lat="32.222382975742221" lon="-4.684997973963618">
        <ele>1440</ele>
        <time>2003-04-13T18:01:08Z</time>
      </trkpt>
      <trkpt lat="32.222326984629035" lon="-4.686183007434011">
        <ele>1442.9000000000001</ele>
        <time>2003-04-13T18:01:15Z</time>
      </trkpt>
      <trkpt lat="32.222275016829371" lon="-4.687252035364509">
        <ele>1442.7</ele>
        <time>2003-04-13T18:01:19Z</time>
      </trkpt>
      <trkpt lat="32.222203016281128" lon="-4.688506973907352">
        <ele>1441.2</ele>
        <time>2003-04-13T18:01:26Z</time>
      </trkpt>
      <trkpt lat="32.222148030996323" lon="-4.689710028469563">
        <ele>1442.5999999999999</ele>
        <time>2003-04-13T18:01:31Z</time>
      </trkpt>
      <trkpt lat="32.222067983821034" lon="-4.690975025296211">
        <ele>1443.2</ele>
        <time>2003-04-13T18:01:38Z</time>
      </trkpt>
      <trkpt lat="32.22195197828114" lon="-4.692237004637718">
        <ele>1443.7</ele>
        <time>2003-04-13T18:01:44Z</time>
      </trkpt>
      <trkpt lat="32.221817029640079" lon="-4.693503007292748">
        <ele>1444.5999999999999</ele>
        <time>2003-04-13T18:01:49Z</time>
      </trkpt>
      <trkpt lat="32.221719967201352" lon="-4.6945830155164">
        <ele>1445.4000000000001</ele>
        <time>2003-04-13T18:01:54Z</time>
      </trkpt>
      <trkpt lat="32.221598010510206" lon="-4.695697976276279">
        <ele>1445.5999999999999</ele>
        <time>2003-04-13T18:02:00Z</time>
      </trkpt>
      <trkpt lat="32.221517041325569" lon="-4.696761975064874">
        <ele>1444.8</ele>
        <time>2003-04-13T18:02:05Z</time>
      </trkpt>
      <trkpt lat="32.221572026610374" lon="-4.697185009717941">
        <ele>1444.8</ele>
        <time>2003-04-13T18:02:06Z</time>
      </trkpt>
      <trkpt lat="32.221706975251436" lon="-4.697596980258822">
        <ele>1445.0999999999999</ele>
        <time>2003-04-13T18:02:09Z</time>
      </trkpt>
      <trkpt lat="32.222136966884136" lon="-4.698585039004684">
        <ele>1446.5999999999999</ele>
        <time>2003-04-13T18:02:13Z</time>
      </trkpt>
      <trkpt lat="32.222547009587288" lon="-4.699572008103132">
        <ele>1448.5</ele>
        <time>2003-04-13T18:02:19Z</time>
      </trkpt>
      <trkpt lat="32.222912963479757" lon="-4.700586972758174">
        <ele>1448.0999999999999</ele>
        <time>2003-04-13T18:02:24Z</time>
      </trkpt>
      <trkpt lat="32.223022012040019" lon="-4.701260039582849">
        <ele>1447.3</ele>
        <time>2003-04-13T18:02:27Z</time>
      </trkpt>
      <trkpt lat="32.223161989822984" lon="-4.702386986464262">
        <ele>1448.0999999999999</ele>
        <time>2003-04-13T18:02:32Z</time>
      </trkpt>
      <trkpt lat="32.223308002576232" lon="-4.703481998294592">
        <ele>1449.0999999999999</ele>
        <time>2003-04-13T18:02:36Z</time>
      </trkpt>
      <trkpt lat="32.223461978137493" lon="-4.704296970739961">
        <ele>1450</ele>
        <time>2003-04-13T18:02:40Z</time>
      </trkpt>
      <trkpt lat="32.223828015848994" lon="-4.705453002825379">
        <ele>1454.5999999999999</ele>
        <time>2003-04-13T18:02:47Z</time>
      </trkpt>
      <trkpt lat="32.223836984485388" lon="-4.705651989206672">
        <ele>1455.5</ele>
        <time>2003-04-13T18:02:47Z</time>
      </trkpt>
      <trkpt lat="32.223809994757175" lon="-4.705845024436712">
        <ele>1456.2</ele>
        <time>2003-04-13T18:02:48Z</time>
      </trkpt>
      <trkpt lat="32.223760038614273" lon="-4.706030013039708">
        <ele>1457.0999999999999</ele>
        <time>2003-04-13T18:02:50Z</time>
      </trkpt>
      <trkpt lat="32.223516963422298" lon="-4.706983035430312">
        <ele>1458.7</ele>
        <time>2003-04-13T18:02:55Z</time>
      </trkpt>
      <trkpt lat="32.223513023927808" lon="-4.707197025418282">
        <ele>1458.9000000000001</ele>
        <time>2003-04-13T18:02:55Z</time>
      </trkpt>
      <trkpt lat="32.223538001999259" lon="-4.707413027063012">
        <ele>1458.3</ele>
        <time>2003-04-13T18:02:56Z</time>
      </trkpt>
      <trkpt lat="32.223597010597587" lon="-4.707616958767176">
        <ele>1458.2</ele>
        <time>2003-04-13T18:02:58Z</time>
      </trkpt>
      <trkpt lat="32.22368803806603" lon="-4.707800019532442">
        <ele>1458</ele>
        <time>2003-04-13T18:02:59Z</time>
      </trkpt>
      <trkpt lat="32.223924994468689" lon="-4.708121968433261">
        <ele>1457.5999999999999</ele>
        <time>2003-04-13T18:03:00Z</time>
      </trkpt>
      <trkpt lat="32.224070001393557" lon="-4.70824996009469">
        <ele>1457.0999999999999</ele>
        <time>2003-04-13T18:03:02Z</time>
      </trkpt>
      <trkpt lat="32.224793024361134" lon="-4.708863012492657">
        <ele>1455.4000000000001</ele>
        <time>2003-04-13T18:03:07Z</time>
      </trkpt>
      <trkpt lat="32.225002991035581" lon="-4.709201976656914">
        <ele>1455.7</ele>
        <time>2003-04-13T18:03:09Z</time>
      </trkpt>
      <trkpt lat="32.225156966596842" lon="-4.709561979398131">
        <ele>1456.5999999999999</ele>
        <time>2003-04-13T18:03:10Z</time>
      </trkpt>
      <trkpt lat="32.225500037893653" lon="-4.710662020370364">
        <ele>1459.0999999999999</ele>
        <time>2003-04-13T18:03:17Z</time>
      </trkpt>
      <trkpt lat="32.225855011492968" lon="-4.711777986958623">
        <ele>1460.5999999999999</ele>
        <time>2003-04-13T18:03:22Z</time>
      </trkpt>
      <trkpt lat="32.226058021187782" lon="-4.712266987189651">
        <ele>1459.8</ele>
        <time>2003-04-13T18:03:26Z</time>
      </trkpt>
      <trkpt lat="32.226251978427172" lon="-4.712549960240722">
        <ele>1458.9000000000001</ele>
        <time>2003-04-13T18:03:27Z</time>
      </trkpt>
      <trkpt lat="32.226492958143353" lon="-4.712805021554232">
        <ele>1458</ele>
        <time>2003-04-13T18:03:30Z</time>
      </trkpt>
      <trkpt lat="32.226766962558031" lon="-4.71299696713686">
        <ele>1457.2</ele>
        <time>2003-04-13T18:03:32Z</time>
      </trkpt>
      <trkpt lat="32.227041972801089" lon="-4.713116995990276">
        <ele>1456.5</ele>
        <time>2003-04-13T18:03:34Z</time>
      </trkpt>
      <trkpt lat="32.227942021563649" lon="-4.713450009003282">
        <ele>1453.3</ele>
        <time>2003-04-13T18:03:40Z</time>
      </trkpt>
      <trkpt lat="32.228892026469111" lon="-4.713852005079389">
        <ele>1455</ele>
        <time>2003-04-13T18:03:45Z</time>
      </trkpt>
      <trkpt lat="32.229162007570267" lon="-4.714076975360513">
        <ele>1456.2</ele>
        <time>2003-04-13T18:03:48Z</time>
      </trkpt>
      <trkpt lat="32.229393012821674" lon="-4.714364977553487">
        <ele>1457.3</ele>
        <time>2003-04-13T18:03:49Z</time>
      </trkpt>
      <trkpt lat="32.229571966454387" lon="-4.714705031365156">
        <ele>1459.2</ele>
        <time>2003-04-13T18:03:52Z</time>
      </trkpt>
      <trkpt lat="32.230022996664047" lon="-4.715774981305003">
        <ele>1462.8</ele>
        <time>2003-04-13T18:03:57Z</time>
      </trkpt>
      <trkpt lat="32.23047997802496" lon="-4.716873010620475">
        <ele>1465</ele>
        <time>2003-04-13T18:04:04Z</time>
      </trkpt>
      <trkpt lat="32.230882979929447" lon="-4.717835001647472">
        <ele>1466.0999999999999</ele>
        <time>2003-04-13T18:04:08Z</time>
      </trkpt>
      <trkpt lat="32.231308026239276" lon="-4.71883999183774">
        <ele>1466.8</ele>
        <time>2003-04-13T18:04:13Z</time>
      </trkpt>
      <trkpt lat="32.231647996231914" lon="-4.719831990078092">
        <ele>1467.4000000000001</ele>
        <time>2003-04-13T18:04:19Z</time>
      </trkpt>
      <trkpt lat="32.231964999809861" lon="-4.721045019105077">
        <ele>1468</ele>
        <time>2003-04-13T18:04:24Z</time>
      </trkpt>
      <trkpt lat="32.232213020324707" lon="-4.722123015671969">
        <ele>1468.8</ele>
        <time>2003-04-13T18:04:30Z</time>
      </trkpt>
      <trkpt lat="32.232483001425862" lon="-4.723277036100626">
        <ele>1469.5</ele>
        <time>2003-04-13T18:04:35Z</time>
      </trkpt>
      <trkpt lat="32.232733033597469" lon="-4.724355032667518">
        <ele>1469</ele>
        <time>2003-04-13T18:04:39Z</time>
      </trkpt>
      <trkpt lat="32.232982981950045" lon="-4.725437974557281">
        <ele>1468.9000000000001</ele>
        <time>2003-04-13T18:04:44Z</time>
      </trkpt>
      <trkpt lat="32.233245000243187" lon="-4.726544972509146">
        <ele>1467.7</ele>
        <time>2003-04-13T18:04:50Z</time>
      </trkpt>
      <trkpt lat="32.233520010486245" lon="-4.727722965180874">
        <ele>1467.4000000000001</ele>
        <time>2003-04-13T18:04:55Z</time>
      </trkpt>
      <trkpt lat="32.233825027942657" lon="-4.728932976722717">
        <ele>1466.9000000000001</ele>
        <time>2003-04-13T18:05:02Z</time>
      </trkpt>
      <trkpt lat="32.234172038733959" lon="-4.730084985494614">
        <ele>1464.7</ele>
        <time>2003-04-13T18:05:07Z</time>
      </trkpt>
      <trkpt lat="32.2344980109483" lon="-4.731147978454828">
        <ele>1460.9000000000001</ele>
        <time>2003-04-13T18:05:14Z</time>
      </trkpt>
      <trkpt lat="32.234588032588363" lon="-4.731609988957644">
        <ele>1463.0999999999999</ele>
        <time>2003-04-13T18:05:17Z</time>
      </trkpt>
      <trkpt lat="32.234561964869499" lon="-4.731749966740608">
        <ele>1463.8</ele>
        <time>2003-04-13T18:05:18Z</time>
      </trkpt>
      <trkpt lat="32.234506979584694" lon="-4.731884999200702">
        <ele>1464.5</ele>
        <time>2003-04-13T18:05:18Z</time>
      </trkpt>
      <trkpt lat="32.234019991010427" lon="-4.732859982177615">
        <ele>1469.7</ele>
        <time>2003-04-13T18:05:25Z</time>
      </trkpt>
      <trkpt lat="32.233608020469546" lon="-4.733749972656369">
        <ele>1476.2</ele>
        <time>2003-04-13T18:05:33Z</time>
      </trkpt>
      <trkpt lat="32.233611959964037" lon="-4.733881987631321">
        <ele>1477.3</ele>
        <time>2003-04-13T18:05:33Z</time>
      </trkpt>
      <trkpt lat="32.233648002147675" lon="-4.734000004827976">
        <ele>1478.4000000000001</ele>
        <time>2003-04-13T18:05:34Z</time>
      </trkpt>
      <trkpt lat="32.233704999089241" lon="-4.734112992882729">
        <ele>1479.0999999999999</ele>
        <time>2003-04-13T18:05:34Z</time>
      </trkpt>
      <trkpt lat="32.233780017122626" lon="-4.734212988987565">
        <ele>1479.8</ele>
        <time>2003-04-13T18:05:37Z</time>
      </trkpt>
      <trkpt lat="32.234206991270185" lon="-4.73471799865365">
        <ele>1484</ele>
        <time>2003-04-13T18:05:42Z</time>
      </trkpt>
      <trkpt lat="32.234302964061499" lon="-4.734771978110075">
        <ele>1484.4000000000001</ele>
        <time>2003-04-13T18:05:44Z</time>
      </trkpt>
      <trkpt lat="32.234402960166335" lon="-4.734799973666668">
        <ele>1484.5999999999999</ele>
        <time>2003-04-13T18:05:45Z</time>
      </trkpt>
      <trkpt lat="32.234500022605062" lon="-4.734799973666668">
        <ele>1484.9000000000001</ele>
        <time>2003-04-13T18:05:45Z</time>
      </trkpt>
      <trkpt lat="32.234588032588363" lon="-4.734778013080359">
        <ele>1485.0999999999999</ele>
        <time>2003-04-13T18:05:47Z</time>
      </trkpt>
      <trkpt lat="32.234724992886186" lon="-4.734701989218593">
        <ele>1485.0999999999999</ele>
        <time>2003-04-13T18:05:49Z</time>
      </trkpt>
      <trkpt lat="32.234830018132925" lon="-4.734635017812252">
        <ele>1484.5999999999999</ele>
        <time>2003-04-13T18:05:51Z</time>
      </trkpt>
      <trkpt lat="32.234912998974323" lon="-4.734593024477363">
        <ele>1484.0999999999999</ele>
        <time>2003-04-13T18:05:52Z</time>
      </trkpt>
      <trkpt lat="32.235015006735921" lon="-4.73458799533546">
        <ele>1483.5</ele>
        <time>2003-04-13T18:05:55Z</time>
      </trkpt>
      <trkpt lat="32.235096981748939" lon="-4.734682040289044">
        <ele>1483.3</ele>
        <time>2003-04-13T18:05:56Z</time>
      </trkpt>
      <trkpt lat="32.23512195982039" lon="-4.734844984486699">
        <ele>1483.2</ele>
        <time>2003-04-13T18:05:59Z</time>
      </trkpt>
      <trkpt lat="32.235169988125563" lon="-4.735057968646288">
        <ele>1483</ele>
        <time>2003-04-13T18:06:00Z</time>
      </trkpt>
      <trkpt lat="32.235224973410368" lon="-4.73531998693943">
        <ele>1482.8</ele>
        <time>2003-04-13T18:06:03Z</time>
      </trkpt>
      <trkpt lat="32.235312983393669" lon="-4.735767999663949">
        <ele>1482.5</ele>
        <time>2003-04-13T18:06:05Z</time>
      </trkpt>
      <trkpt lat="32.235457990318537" lon="-4.736696965992451">
        <ele>1482.9000000000001</ele>
        <time>2003-04-13T18:06:12Z</time>
      </trkpt>
      <trkpt lat="32.235444998368621" lon="-4.736816994845867">
        <ele>1483.2</ele>
        <time>2003-04-13T18:06:14Z</time>
      </trkpt>
      <trkpt lat="32.235414991155267" lon="-4.73692998290062">
        <ele>1483.5</ele>
        <time>2003-04-13T18:06:15Z</time>
      </trkpt>
      <trkpt lat="32.23527199588716" lon="-4.737291997298598">
        <ele>1483.5</ele>
        <time>2003-04-13T18:06:18Z</time>
      </trkpt>
      <trkpt lat="32.234776960685849" lon="-4.738124990835786">
        <ele>1484.3</ele>
        <time>2003-04-13T18:06:24Z</time>
      </trkpt>
      <trkpt lat="32.234125016257167" lon="-4.739005006849766">
        <ele>1484</ele>
        <time>2003-04-13T18:06:31Z</time>
      </trkpt>
      <trkpt lat="32.233495032414794" lon="-4.739888040348887">
        <ele>1484.5999999999999</ele>
        <time>2003-04-13T18:06:38Z</time>
      </trkpt>
      <trkpt lat="32.232826994732022" lon="-4.740812983363867">
        <ele>1486.2</ele>
        <time>2003-04-13T18:06:43Z</time>
      </trkpt>
      <trkpt lat="32.232558019459248" lon="-4.741317993029952">
        <ele>1487.4000000000001</ele>
        <time>2003-04-13T18:06:46Z</time>
      </trkpt>
      <trkpt lat="32.232128027826548" lon="-4.742433037608862">
        <ele>1489.0999999999999</ele>
        <time>2003-04-13T18:06:53Z</time>
      </trkpt>
      <trkpt lat="32.23172795958817" lon="-4.743614969775081">
        <ele>1490.7</ele>
        <time>2003-04-13T18:06:58Z</time>
      </trkpt>
      <trkpt lat="32.231438029557467" lon="-4.744627000764012">
        <ele>1492.2</ele>
        <time>2003-04-13T18:07:03Z</time>
      </trkpt>
      <trkpt lat="32.231150027364492" lon="-4.745648000389338">
        <ele>1494.0999999999999</ele>
        <time>2003-04-13T18:07:09Z</time>
      </trkpt>
      <trkpt lat="32.230847021564841" lon="-4.746858011931181">
        <ele>1494.5999999999999</ele>
        <time>2003-04-13T18:07:14Z</time>
      </trkpt>
      <trkpt lat="32.230592966079712" lon="-4.747898038476706">
        <ele>1495.8</ele>
        <time>2003-04-13T18:07:20Z</time>
      </trkpt>
      <trkpt lat="32.230327008292079" lon="-4.748990032821894">
        <ele>1497</ele>
        <time>2003-04-13T18:07:25Z</time>
      </trkpt>
      <trkpt lat="32.230042023584247" lon="-4.750142963603139">
        <ele>1498.5</ele>
        <time>2003-04-13T18:07:29Z</time>
      </trkpt>
      <trkpt lat="32.229768019169569" lon="-4.751281980425119">
        <ele>1500.0999999999999</ele>
        <time>2003-04-13T18:07:35Z</time>
      </trkpt>
      <trkpt lat="32.22949200309813" lon="-4.752412028610706">
        <ele>1501.2</ele>
        <time>2003-04-13T18:07:40Z</time>
      </trkpt>
      <trkpt lat="32.229222021996975" lon="-4.753511985763907">
        <ele>1502.2</ele>
        <time>2003-04-13T18:07:44Z</time>
      </trkpt>
      <trkpt lat="32.228905018419027" lon="-4.754577996209264">
        <ele>1503.4000000000001</ele>
        <time>2003-04-13T18:07:49Z</time>
      </trkpt>
      <trkpt lat="32.228797981515527" lon="-4.754772037267685">
        <ele>1503.5</ele>
        <time>2003-04-13T18:07:51Z</time>
      </trkpt>
      <trkpt lat="32.228541998192668" lon="-4.755132040008903">
        <ele>1504</ele>
        <time>2003-04-13T18:07:52Z</time>
      </trkpt>
      <trkpt lat="32.22781796939671" lon="-4.756020018830895">
        <ele>1504.8</ele>
        <time>2003-04-13T18:07:57Z</time>
      </trkpt>
      <trkpt lat="32.227087989449501" lon="-4.756940016523004">
        <ele>1506.7</ele>
        <time>2003-04-13T18:08:03Z</time>
      </trkpt>
      <trkpt lat="32.226349962875247" lon="-4.757888009771705">
        <ele>1507.2</ele>
        <time>2003-04-13T18:08:07Z</time>
      </trkpt>
      <trkpt lat="32.225585030391812" lon="-4.758852012455463">
        <ele>1508.5</ele>
        <time>2003-04-13T18:08:12Z</time>
      </trkpt>
      <trkpt lat="32.224969966337085" lon="-4.759637983515859">
        <ele>1509.3</ele>
        <time>2003-04-13T18:08:16Z</time>
      </trkpt>
      <trkpt lat="32.224437966942787" lon="-4.760314989835024">
        <ele>1509</ele>
        <time>2003-04-13T18:08:20Z</time>
      </trkpt>
      <trkpt lat="32.224187012761831" lon="-4.760522022843361">
        <ele>1508.0999999999999</ele>
        <time>2003-04-13T18:08:23Z</time>
      </trkpt>
      <trkpt lat="32.224047034978867" lon="-4.760562004521489">
        <ele>1507.5999999999999</ele>
        <time>2003-04-13T18:08:23Z</time>
      </trkpt>
      <trkpt lat="32.223896998912096" lon="-4.760565022006631">
        <ele>1506.7</ele>
        <time>2003-04-13T18:08:24Z</time>
      </trkpt>
      <trkpt lat="32.223747968673706" lon="-4.760539960116148">
        <ele>1505.7</ele>
        <time>2003-04-13T18:08:26Z</time>
      </trkpt>
      <trkpt lat="32.223510006442666" lon="-4.760475000366569">
        <ele>1504.2</ele>
        <time>2003-04-13T18:08:27Z</time>
      </trkpt>
      <trkpt lat="32.223392995074391" lon="-4.760454967617989">
        <ele>1503.2</ele>
        <time>2003-04-13T18:08:30Z</time>
      </trkpt>
      <trkpt lat="32.223274977877736" lon="-4.760465025901794">
        <ele>1502.4000000000001</ele>
        <time>2003-04-13T18:08:34Z</time>
      </trkpt>
      <trkpt lat="32.223086971789598" lon="-4.76049997843802">
        <ele>1501.2</ele>
        <time>2003-04-13T18:08:38Z</time>
      </trkpt>
      <trkpt lat="32.222912041470408" lon="-4.760550018399954">
        <ele>1500.5999999999999</ele>
        <time>2003-04-13T18:08:43Z</time>
      </trkpt>
      <trkpt lat="32.222769968211651" lon="-4.760599974542856">
        <ele>1501.5999999999999</ele>
        <time>2003-04-13T18:08:54Z</time>
      </trkpt>
      <trkpt lat="32.222552038729191" lon="-4.760674992576242">
        <ele>1501.9000000000001</ele>
        <time>2003-04-13T18:08:58Z</time>
      </trkpt>
      <trkpt lat="32.222163034603" lon="-4.760847995057702">
        <ele>1503.3</ele>
        <time>2003-04-13T18:09:05Z</time>
      </trkpt>
      <trkpt lat="32.222066977992654" lon="-4.760931981727481">
        <ele>1504</ele>
        <time>2003-04-13T18:09:06Z</time>
      </trkpt>
      <trkpt lat="32.221988020464778" lon="-4.761029966175556">
        <ele>1504.5</ele>
        <time>2003-04-13T18:09:09Z</time>
      </trkpt>
      <trkpt lat="32.221875032410026" lon="-4.761212021112442">
        <ele>1505.3</ele>
        <time>2003-04-13T18:09:13Z</time>
      </trkpt>
      <trkpt lat="32.221572026610374" lon="-4.761792970821261">
        <ele>1508.7</ele>
        <time>2003-04-13T18:09:25Z</time>
      </trkpt>
      <trkpt lat="32.221479993313551" lon="-4.761972008273006">
        <ele>1509.5</ele>
        <time>2003-04-13T18:09:28Z</time>
      </trkpt>
      <trkpt lat="32.221364993602037" lon="-4.762271996587515">
        <ele>1511</ele>
        <time>2003-04-13T18:09:31Z</time>
      </trkpt>
      <trkpt lat="32.22106802277267" lon="-4.76339802145958">
        <ele>1514.4000000000001</ele>
        <time>2003-04-13T18:09:40Z</time>
      </trkpt>
      <trkpt lat="32.22078999504447" lon="-4.764502001926303">
        <ele>1515.0999999999999</ele>
        <time>2003-04-13T18:09:50Z</time>
      </trkpt>
      <trkpt lat="32.220672983676195" lon="-4.764948002994061">
        <ele>1515.5999999999999</ele>
        <time>2003-04-13T18:09:52Z</time>
      </trkpt>
      <trkpt lat="32.220392022281885" lon="-4.766039997339249">
        <ele>1516.5</ele>
        <time>2003-04-13T18:09:59Z</time>
      </trkpt>
      <trkpt lat="32.220084993168712" lon="-4.76722301915288">
        <ele>1518</ele>
        <time>2003-04-13T18:10:07Z</time>
      </trkpt>
      <trkpt lat="32.219828004017472" lon="-4.768260028213263">
        <ele>1519.2</ele>
        <time>2003-04-13T18:10:12Z</time>
      </trkpt>
      <trkpt lat="32.219807971268892" lon="-4.768607961013913">
        <ele>1519.7</ele>
        <time>2003-04-13T18:10:15Z</time>
      </trkpt>
      <trkpt lat="32.219839990139008" lon="-4.768948014825583">
        <ele>1519.7</ele>
        <time>2003-04-13T18:10:17Z</time>
      </trkpt>
      <trkpt lat="32.21995297819376" lon="-4.77014696225524">
        <ele>1521.0999999999999</ele>
        <time>2003-04-13T18:10:23Z</time>
      </trkpt>
      <trkpt lat="32.220058003440499" lon="-4.77122001349926">
        <ele>1522.8</ele>
        <time>2003-04-13T18:10:30Z</time>
      </trkpt>
      <trkpt lat="32.220157999545336" lon="-4.772364981472492">
        <ele>1524.5</ele>
        <time>2003-04-13T18:10:35Z</time>
      </trkpt>
      <trkpt lat="32.220266964286566" lon="-4.77347700856626">
        <ele>1526.5999999999999</ele>
        <time>2003-04-13T18:10:42Z</time>
      </trkpt>
      <trkpt lat="32.220365032553673" lon="-4.774664975702763">
        <ele>1528.5</ele>
        <time>2003-04-13T18:10:48Z</time>
      </trkpt>
      <trkpt lat="32.220392022281885" lon="-4.775414988398552">
        <ele>1529.3</ele>
        <time>2003-04-13T18:10:52Z</time>
      </trkpt>
      <trkpt lat="32.220324967056513" lon="-4.775799969211221">
        <ele>1529.7</ele>
        <time>2003-04-13T18:10:53Z</time>
      </trkpt>
      <trkpt lat="32.220047023147345" lon="-4.776858016848564">
        <ele>1531.0999999999999</ele>
        <time>2003-04-13T18:11:00Z</time>
      </trkpt>
      <trkpt lat="32.219766983762383" lon="-4.777914974838495">
        <ele>1532.5</ele>
        <time>2003-04-13T18:11:05Z</time>
      </trkpt>
      <trkpt lat="32.219470012933016" lon="-4.779077963903546">
        <ele>1534.5999999999999</ele>
        <time>2003-04-13T18:11:12Z</time>
      </trkpt>
      <trkpt lat="32.219162983819842" lon="-4.780253022909164">
        <ele>1536.0999999999999</ele>
        <time>2003-04-13T18:11:17Z</time>
      </trkpt>
      <trkpt lat="32.218859978020191" lon="-4.781477032229304">
        <ele>1536.9000000000001</ele>
        <time>2003-04-13T18:11:24Z</time>
      </trkpt>
      <trkpt lat="32.218657974153757" lon="-4.782719984650612">
        <ele>1537.8</ele>
        <time>2003-04-13T18:11:29Z</time>
      </trkpt>
      <trkpt lat="32.218499975278974" lon="-4.783773003146052">
        <ele>1539.3</ele>
        <time>2003-04-13T18:11:35Z</time>
      </trkpt>
      <trkpt lat="32.218329990282655" lon="-4.784852005541325">
        <ele>1540.9000000000001</ele>
        <time>2003-04-13T18:11:40Z</time>
      </trkpt>
      <trkpt lat="32.218163022771478" lon="-4.785950034856796">
        <ele>1542.5</ele>
        <time>2003-04-13T18:11:44Z</time>
      </trkpt>
      <trkpt lat="32.217969987541437" lon="-4.787187958136201">
        <ele>1543.5</ele>
        <time>2003-04-13T18:11:51Z</time>
      </trkpt>
      <trkpt lat="32.217864962294698" lon="-4.787542009726167">
        <ele>1543.9000000000001</ele>
        <time>2003-04-13T18:11:52Z</time>
      </trkpt>
      <trkpt lat="32.217773012816906" lon="-4.787687016651034">
        <ele>1544</ele>
        <time>2003-04-13T18:11:54Z</time>
      </trkpt>
      <trkpt lat="32.217658013105392" lon="-4.787812996655703">
        <ele>1544.0999999999999</ele>
        <time>2003-04-13T18:11:55Z</time>
      </trkpt>
      <trkpt lat="32.217527003958821" lon="-4.787921961396933">
        <ele>1544.2</ele>
        <time>2003-04-13T18:11:55Z</time>
      </trkpt>
      <trkpt lat="32.217379985377192" lon="-4.788007037714124">
        <ele>1544.4000000000001</ele>
        <time>2003-04-13T18:11:56Z</time>
      </trkpt>
      <trkpt lat="32.21722299233079" lon="-4.788067974150181">
        <ele>1544.7</ele>
        <time>2003-04-13T18:11:58Z</time>
      </trkpt>
      <trkpt lat="32.216307017952204" lon="-4.788392018526793">
        <ele>1544.5</ele>
        <time>2003-04-13T18:12:03Z</time>
      </trkpt>
      <trkpt lat="32.215621965005994" lon="-4.788707010447979">
        <ele>1545.3</ele>
        <time>2003-04-13T18:12:09Z</time>
      </trkpt>
      <trkpt lat="32.215511994436383" lon="-4.78881698101759">
        <ele>1545.4000000000001</ele>
        <time>2003-04-13T18:12:10Z</time>
      </trkpt>
      <trkpt lat="32.215315019711852" lon="-4.78907497599721">
        <ele>1545.5</ele>
        <time>2003-04-13T18:12:11Z</time>
      </trkpt>
      <trkpt lat="32.215170012786984" lon="-4.789387034252286">
        <ele>1545.3</ele>
        <time>2003-04-13T18:12:14Z</time>
      </trkpt>
      <trkpt lat="32.214729962870479" lon="-4.790323041379452">
        <ele>1545.0999999999999</ele>
        <time>2003-04-13T18:12:19Z</time>
      </trkpt>
      <trkpt lat="32.214254960417747" lon="-4.791292995214462">
        <ele>1546</ele>
        <time>2003-04-13T18:12:26Z</time>
      </trkpt>
      <trkpt lat="32.2137669660151" lon="-4.792302008718252">
        <ele>1547.4000000000001</ele>
        <time>2003-04-13T18:12:32Z</time>
      </trkpt>
      <trkpt lat="32.213479969650507" lon="-4.792901985347271">
        <ele>1548.2</ele>
        <time>2003-04-13T18:12:36Z</time>
      </trkpt>
      <trkpt lat="32.212988035753369" lon="-4.79388702660799">
        <ele>1549.0999999999999</ele>
        <time>2003-04-13T18:12:42Z</time>
      </trkpt>
      <trkpt lat="32.212485037744045" lon="-4.79493803344667">
        <ele>1550.7</ele>
        <time>2003-04-13T18:12:49Z</time>
      </trkpt>
      <trkpt lat="32.212227964773774" lon="-4.795331982895732">
        <ele>1551.2</ele>
        <time>2003-04-13T18:12:53Z</time>
      </trkpt>
      <trkpt lat="32.212107013911009" lon="-4.795431979000568">
        <ele>1551.4000000000001</ele>
        <time>2003-04-13T18:12:53Z</time>
      </trkpt>
      <trkpt lat="32.211239989846945" lon="-4.796045031398535">
        <ele>1553.2</ele>
        <time>2003-04-13T18:13:01Z</time>
      </trkpt>
      <trkpt lat="32.210857020691037" lon="-4.796367986127734">
        <ele>1553.5999999999999</ele>
        <time>2003-04-13T18:13:04Z</time>
      </trkpt>
      <trkpt lat="32.210655016824603" lon="-4.796651965007186">
        <ele>1554</ele>
        <time>2003-04-13T18:13:05Z</time>
      </trkpt>
      <trkpt lat="32.210582010447979" lon="-4.796812981367111">
        <ele>1554.2</ele>
        <time>2003-04-13T18:13:07Z</time>
      </trkpt>
      <trkpt lat="32.210531970486045" lon="-4.796984978020191">
        <ele>1554.4000000000001</ele>
        <time>2003-04-13T18:13:08Z</time>
      </trkpt>
      <trkpt lat="32.210186971351504" lon="-4.797994997352362">
        <ele>1555.5999999999999</ele>
        <time>2003-04-13T18:13:13Z</time>
      </trkpt>
      <trkpt lat="32.209908021613955" lon="-4.798452984541655">
        <ele>1556.5</ele>
        <time>2003-04-13T18:13:16Z</time>
      </trkpt>
      <trkpt lat="32.209258005023003" lon="-4.799384968355298">
        <ele>1557.5</ele>
        <time>2003-04-13T18:13:23Z</time>
      </trkpt>
      <trkpt lat="32.20858502201736" lon="-4.80037696659565">
        <ele>1558.5999999999999</ele>
        <time>2003-04-13T18:13:28Z</time>
      </trkpt>
      <trkpt lat="32.207963000983" lon="-4.801310040056706">
        <ele>1559.5999999999999</ele>
        <time>2003-04-13T18:13:35Z</time>
      </trkpt>
      <trkpt lat="32.207317007705569" lon="-4.802261972799897">
        <ele>1560.3</ele>
        <time>2003-04-13T18:13:40Z</time>
      </trkpt>
      <trkpt lat="32.206737985834479" lon="-4.803122961893678">
        <ele>1560.9000000000001</ele>
        <time>2003-04-13T18:13:46Z</time>
      </trkpt>
      <trkpt lat="32.206138009205461" lon="-4.804038014262915">
        <ele>1561.9000000000001</ele>
        <time>2003-04-13T18:13:51Z</time>
      </trkpt>
      <trkpt lat="32.205565022304654" lon="-4.804977960884571">
        <ele>1562.8</ele>
        <time>2003-04-13T18:13:55Z</time>
      </trkpt>
      <trkpt lat="32.205005027353764" lon="-4.805944981053472">
        <ele>1563</ele>
        <time>2003-04-13T18:14:01Z</time>
      </trkpt>
      <trkpt lat="32.204421982169151" lon="-4.806904960423708">
        <ele>1562.7</ele>
        <time>2003-04-13T18:14:06Z</time>
      </trkpt>
      <trkpt lat="32.203913033008575" lon="-4.807767039164901">
        <ele>1563.2</ele>
        <time>2003-04-13T18:14:10Z</time>
      </trkpt>
      <trkpt lat="32.203680016100407" lon="-4.808159982785583">
        <ele>1563.3</ele>
        <time>2003-04-13T18:14:14Z</time>
      </trkpt>
      <trkpt lat="32.203583037480712" lon="-4.80832502245903">
        <ele>1563.3</ele>
        <time>2003-04-13T18:14:15Z</time>
      </trkpt>
      <trkpt lat="32.203511958941817" lon="-4.808437004685402">
        <ele>1563</ele>
        <time>2003-04-13T18:14:18Z</time>
      </trkpt>
      <trkpt lat="32.203369969502091" lon="-4.808606989681721">
        <ele>1562.9000000000001</ele>
        <time>2003-04-13T18:14:22Z</time>
      </trkpt>
      <trkpt lat="32.203259998932481" lon="-4.80869198217988">
        <ele>1562.5999999999999</ele>
        <time>2003-04-13T18:14:25Z</time>
      </trkpt>
      <trkpt lat="32.203144999220967" lon="-4.808742022141814">
        <ele>1562.3</ele>
        <time>2003-04-13T18:14:26Z</time>
      </trkpt>
      <trkpt lat="32.203032011166215" lon="-4.808762976899743">
        <ele>1562.3</ele>
        <time>2003-04-13T18:14:29Z</time>
      </trkpt>
      <trkpt lat="32.20293796621263" lon="-4.808767000213265">
        <ele>1562.7</ele>
        <time>2003-04-13T18:14:32Z</time>
      </trkpt>
      <trkpt lat="32.202669996768236" lon="-4.808758031576872">
        <ele>1563.4000000000001</ele>
        <time>2003-04-13T18:14:38Z</time>
      </trkpt>
      <trkpt lat="32.202402027323842" lon="-4.808727018535137">
        <ele>1563.8</ele>
        <time>2003-04-13T18:14:45Z</time>
      </trkpt>
      <trkpt lat="32.202262971550226" lon="-4.808717966079712">
        <ele>1564.3</ele>
        <time>2003-04-13T18:14:49Z</time>
      </trkpt>
      <trkpt lat="32.202128022909164" lon="-4.808707991614938">
        <ele>1564.4000000000001</ele>
        <time>2003-04-13T18:14:51Z</time>
      </trkpt>
      <trkpt lat="32.201949991285801" lon="-4.80869198217988">
        <ele>1564.5999999999999</ele>
        <time>2003-04-13T18:14:52Z</time>
      </trkpt>
      <trkpt lat="32.201744969934225" lon="-4.808670021593571">
        <ele>1564.9000000000001</ele>
        <time>2003-04-13T18:14:55Z</time>
      </trkpt>
      <trkpt lat="32.201126972213387" lon="-4.808601960539818">
        <ele>1564.4000000000001</ele>
        <time>2003-04-13T18:15:01Z</time>
      </trkpt>
      <trkpt lat="32.20102303661406" lon="-4.80858301743865">
        <ele>1564</ele>
        <time>2003-04-13T18:15:04Z</time>
      </trkpt>
      <trkpt lat="32.200652975589037" lon="-4.80849701911211">
        <ele>1562.0999999999999</ele>
        <time>2003-04-13T18:15:12Z</time>
      </trkpt>
      <trkpt lat="32.200512997806072" lon="-4.808457037433982">
        <ele>1561.2</ele>
        <time>2003-04-13T18:16:20Z</time>
      </trkpt>
      <trkpt lat="32.200388023629785" lon="-4.808425018563867">
        <ele>1560.5</ele>
        <time>2003-04-13T18:16:43Z</time>
      </trkpt>
      <trkpt lat="32.200277969241142" lon="-4.808400040492415">
        <ele>1559.8</ele>
        <time>2003-04-13T18:16:44Z</time>
      </trkpt>
      <trkpt lat="32.200091974809766" lon="-4.808353018015623">
        <ele>1558.9000000000001</ele>
        <time>2003-04-13T18:16:47Z</time>
      </trkpt>
      <trkpt lat="32.199816964566708" lon="-4.808310018852353">
        <ele>1557.0999999999999</ele>
        <time>2003-04-13T18:16:52Z</time>
      </trkpt>
      <trkpt lat="32.199700037017465" lon="-4.808328039944172">
        <ele>1556.4000000000001</ele>
        <time>2003-04-13T18:16:53Z</time>
      </trkpt>
      <trkpt lat="32.199602974578738" lon="-4.808370033279061">
        <ele>1555.5</ele>
        <time>2003-04-13T18:16:56Z</time>
      </trkpt>
      <trkpt lat="32.199522005394101" lon="-4.808419989421964">
        <ele>1554.9000000000001</ele>
        <time>2003-04-13T18:17:00Z</time>
      </trkpt>
      <trkpt lat="32.199486969038844" lon="-4.808600032702088">
        <ele>1553.7</ele>
        <time>2003-04-13T18:17:16Z</time>
      </trkpt>
      <trkpt lat="32.199559975415468" lon="-4.80869198217988">
        <ele>1553.8</ele>
        <time>2003-04-13T18:17:19Z</time>
      </trkpt>
      <trkpt lat="32.199697019532323" lon="-4.808894991874695">
        <ele>1554</ele>
        <time>2003-04-13T18:17:24Z</time>
      </trkpt>
      <trkpt lat="32.199847977608442" lon="-4.809085009619594">
        <ele>1554.3</ele>
        <time>2003-04-13T18:17:30Z</time>
      </trkpt>
      <trkpt lat="32.199972029775381" lon="-4.809230016544461">
        <ele>1554.5</ele>
        <time>2003-04-13T18:17:34Z</time>
      </trkpt>
      <trkpt lat="32.200083006173372" lon="-4.809417016804218">
        <ele>1554.8</ele>
        <time>2003-04-13T18:17:39Z</time>
      </trkpt>
      <trkpt lat="32.200146960094571" lon="-4.809515001252294">
        <ele>1555.2</ele>
        <time>2003-04-13T18:17:45Z</time>
      </trkpt>
      <trkpt lat="32.200242010876536" lon="-4.809637041762471">
        <ele>1555.5999999999999</ele>
        <time>2003-04-13T18:17:51Z</time>
      </trkpt>
      <trkpt lat="32.200288027524948" lon="-4.809735026210547">
        <ele>1555.7</ele>
        <time>2003-04-13T18:17:58Z</time>
      </trkpt>
      <trkpt lat="32.200290039181709" lon="-4.809950022026897">
        <ele>1556.7</ele>
        <time>2003-04-13T18:18:09Z</time>
      </trkpt>
      <trkpt lat="32.200311999768019" lon="-4.810102991759777">
        <ele>1557</ele>
        <time>2003-04-13T18:18:16Z</time>
      </trkpt>
      <trkpt lat="32.200360028073192" lon="-4.810231989249587">
        <ele>1557.3</ele>
        <time>2003-04-13T18:18:21Z</time>
      </trkpt>
      <trkpt lat="32.200445020571351" lon="-4.810402980074287">
        <ele>1558.2</ele>
        <time>2003-04-13T18:18:28Z</time>
      </trkpt>
      <trkpt lat="32.200560020282865" lon="-4.81075300835073">
        <ele>1559.4000000000001</ele>
        <time>2003-04-13T18:18:40Z</time>
      </trkpt>
      <trkpt lat="32.200602013617754" lon="-4.810870019719005">
        <ele>1559.2</ele>
        <time>2003-04-13T18:18:44Z</time>
      </trkpt>
      <trkpt lat="32.200645012781024" lon="-4.811046961694956">
        <ele>1559.4000000000001</ele>
        <time>2003-04-13T18:18:48Z</time>
      </trkpt>
      <trkpt lat="32.200673008337617" lon="-4.811149975284934">
        <ele>1559.7</ele>
        <time>2003-04-13T18:18:52Z</time>
      </trkpt>
      <trkpt lat="32.200803011655807" lon="-4.811487011611462">
        <ele>1559.9000000000001</ele>
        <time>2003-04-13T18:19:04Z</time>
      </trkpt>
      <trkpt lat="32.200952041894197" lon="-4.811605028808117">
        <ele>1561</ele>
        <time>2003-04-13T18:19:12Z</time>
      </trkpt>
      <trkpt lat="32.200993029400706" lon="-4.81172002851963">
        <ele>1561.2</ele>
        <time>2003-04-13T18:19:18Z</time>
      </trkpt>
      <trkpt lat="32.201060000807047" lon="-4.811845002695918">
        <ele>1561</ele>
        <time>2003-04-13T18:19:49Z</time>
      </trkpt>
      <trkpt lat="32.201148010790348" lon="-4.811965031549335">
        <ele>1562</ele>
        <time>2003-04-13T18:20:15Z</time>
      </trkpt>
      <trkpt lat="32.201286982744932" lon="-4.812095034867525">
        <ele>1562.5999999999999</ele>
        <time>2003-04-13T18:20:24Z</time>
      </trkpt>
      <trkpt lat="32.201327970251441" lon="-4.812202993780375">
        <ele>1562.3</ele>
        <time>2003-04-13T18:20:32Z</time>
      </trkpt>
      <trkpt lat="32.20136996358633" lon="-4.812307013198733">
        <ele>1562.0999999999999</ele>
        <time>2003-04-13T18:20:36Z</time>
      </trkpt>
      <trkpt lat="32.201404999941587" lon="-4.812455037608743">
        <ele>1559.5999999999999</ele>
        <time>2003-04-13T18:22:35Z</time>
      </trkpt>
      <trkpt lat="32.201510025188327" lon="-4.812480015680194">
        <ele>1560.5</ele>
        <time>2003-04-13T18:22:40Z</time>
      </trkpt>
      <trkpt lat="32.201610021293163" lon="-4.812484961003065">
        <ele>1562.9000000000001</ele>
        <time>2003-04-13T18:22:44Z</time>
      </trkpt>
      <trkpt lat="32.201723009347916" lon="-4.812616975978017">
        <ele>1567.8</ele>
        <time>2003-04-13T18:23:18Z</time>
      </trkpt>
      <trkpt lat="32.201572973281145" lon="-4.812614964321256">
        <ele>1565.2</ele>
        <time>2003-04-13T18:24:01Z</time>
      </trkpt>
      <trkpt lat="32.201441964134574" lon="-4.812531983479857">
        <ele>1562.4000000000001</ele>
        <time>2003-04-13T18:24:09Z</time>
      </trkpt>
      <trkpt lat="32.20136996358633" lon="-4.812382031232119">
        <ele>1561.9000000000001</ele>
        <time>2003-04-13T18:24:16Z</time>
      </trkpt>
      <trkpt lat="32.20128295943141" lon="-4.812331991270185">
        <ele>1561.3</ele>
        <time>2003-04-13T18:24:27Z</time>
      </trkpt>
      <trkpt lat="32.201184974983335" lon="-4.812297038733959">
        <ele>1560.5</ele>
        <time>2003-04-13T18:24:31Z</time>
      </trkpt>
      <trkpt lat="32.201086990535259" lon="-4.812233000993729">
        <ele>1560.2</ele>
        <time>2003-04-13T18:24:34Z</time>
      </trkpt>
      <trkpt lat="32.200995041057467" lon="-4.812153037637472">
        <ele>1559.8</ele>
        <time>2003-04-13T18:24:36Z</time>
      </trkpt>
      <trkpt lat="32.20093997195363" lon="-4.812065027654171">
        <ele>1559.5</ele>
        <time>2003-04-13T18:24:39Z</time>
      </trkpt>
      <trkpt lat="32.200881969183683" lon="-4.811972994357348">
        <ele>1558.5999999999999</ele>
        <time>2003-04-13T18:24:46Z</time>
      </trkpt>
      <trkpt lat="32.200762024149299" lon="-4.811782976612449">
        <ele>1558.2</ele>
        <time>2003-04-13T18:24:53Z</time>
      </trkpt>
      <trkpt lat="32.200606958940625" lon="-4.811396989971399">
        <ele>1558.3</ele>
        <time>2003-04-13T18:25:02Z</time>
      </trkpt>
      <trkpt lat="32.200579969212413" lon="-4.811262963339686">
        <ele>1558.0999999999999</ele>
        <time>2003-04-13T18:25:06Z</time>
      </trkpt>
      <trkpt lat="32.200526995584369" lon="-4.811009997501969">
        <ele>1558</ele>
        <time>2003-04-13T18:25:13Z</time>
      </trkpt>
      <trkpt lat="32.200491959229112" lon="-4.810907989740372">
        <ele>1557.9000000000001</ele>
        <time>2003-04-13T18:25:17Z</time>
      </trkpt>
      <trkpt lat="32.200442003086209" lon="-4.810789972543716">
        <ele>1557.3</ele>
        <time>2003-04-13T18:25:22Z</time>
      </trkpt>
      <trkpt lat="32.200387017801404" lon="-4.810691988095641">
        <ele>1557.0999999999999</ele>
        <time>2003-04-13T18:25:25Z</time>
      </trkpt>
      <trkpt lat="32.200343012809753" lon="-4.810546981170774">
        <ele>1556.7</ele>
        <time>2003-04-13T18:25:29Z</time>
      </trkpt>
      <trkpt lat="32.200292972847819" lon="-4.810419995337725">
        <ele>1556.5999999999999</ele>
        <time>2003-04-13T18:25:32Z</time>
      </trkpt>
      <trkpt lat="32.200187025591731" lon="-4.810137022286654">
        <ele>1556.3</ele>
        <time>2003-04-13T18:25:40Z</time>
      </trkpt>
      <trkpt lat="32.200136985629797" lon="-4.810029985383153">
        <ele>1556.5</ele>
        <time>2003-04-13T18:25:44Z</time>
      </trkpt>
      <trkpt lat="32.200076971203089" lon="-4.809929989278317">
        <ele>1556.4000000000001</ele>
        <time>2003-04-13T18:25:47Z</time>
      </trkpt>
      <trkpt lat="32.200036989524961" lon="-4.809827981516719">
        <ele>1556.2</ele>
        <time>2003-04-13T18:25:49Z</time>
      </trkpt>
      <trkpt lat="32.200015028938651" lon="-4.809717005118728">
        <ele>1556.0999999999999</ele>
        <time>2003-04-13T18:25:55Z</time>
      </trkpt>
      <trkpt lat="32.200017040595412" lon="-4.809584990143776">
        <ele>1556.2</ele>
        <time>2003-04-13T18:25:59Z</time>
      </trkpt>
      <trkpt lat="32.200022991746664" lon="-4.809477031230927">
        <ele>1555.9000000000001</ele>
        <time>2003-04-13T18:26:03Z</time>
      </trkpt>
      <trkpt lat="32.200006982311606" lon="-4.809369994327426">
        <ele>1555.3</ele>
        <time>2003-04-13T18:26:07Z</time>
      </trkpt>
      <trkpt lat="32.199987033382058" lon="-4.809243008494377">
        <ele>1555.0999999999999</ele>
        <time>2003-04-13T18:26:10Z</time>
      </trkpt>
      <trkpt lat="32.199902962893248" lon="-4.809152986854315">
        <ele>1554.5999999999999</ele>
        <time>2003-04-13T18:26:12Z</time>
      </trkpt>
      <trkpt lat="32.199795003980398" lon="-4.809037987142801">
        <ele>1554.7</ele>
        <time>2003-04-13T18:26:16Z</time>
      </trkpt>
      <trkpt lat="32.199378004297614" lon="-4.808568013831973">
        <ele>1554.3</ele>
        <time>2003-04-13T18:26:31Z</time>
      </trkpt>
      <trkpt lat="32.199263004586101" lon="-4.808606989681721">
        <ele>1554.3</ele>
        <time>2003-04-13T18:26:34Z</time>
      </trkpt>
      <trkpt lat="32.199172982946038" lon="-4.808697011321783">
        <ele>1554.3</ele>
        <time>2003-04-13T18:26:37Z</time>
      </trkpt>
      <trkpt lat="32.199057983234525" lon="-4.808806981891394">
        <ele>1554.5999999999999</ele>
        <time>2003-04-13T18:26:38Z</time>
      </trkpt>
      <trkpt lat="32.198981959372759" lon="-4.808879988268018">
        <ele>1554.8</ele>
        <time>2003-04-13T18:26:39Z</time>
      </trkpt>
      <trkpt lat="32.198812980204821" lon="-4.809058019891381">
        <ele>1555.4000000000001</ele>
        <time>2003-04-13T18:26:42Z</time>
      </trkpt>
      <trkpt lat="32.198747014626861" lon="-4.80916497297585">
        <ele>1555.9000000000001</ele>
        <time>2003-04-13T18:26:42Z</time>
      </trkpt>
      <trkpt lat="32.198648024350405" lon="-4.809392960742116">
        <ele>1556.7</ele>
        <time>2003-04-13T18:26:45Z</time>
      </trkpt>
      <trkpt lat="32.198272012174129" lon="-4.810376996174455">
        <ele>1561.4000000000001</ele>
        <time>2003-04-13T18:26:54Z</time>
      </trkpt>
      <trkpt lat="32.197845038026571" lon="-4.811436971649528">
        <ele>1566.0999999999999</ele>
        <time>2003-04-13T18:27:01Z</time>
      </trkpt>
      <trkpt lat="32.197673041373491" lon="-4.811690021306276">
        <ele>1566.2</ele>
        <time>2003-04-13T18:27:02Z</time>
      </trkpt>
      <trkpt lat="32.197438012808561" lon="-4.811912979930639">
        <ele>1566.2</ele>
        <time>2003-04-13T18:27:05Z</time>
      </trkpt>
      <trkpt lat="32.196622034534812" lon="-4.812497030943632">
        <ele>1565.4000000000001</ele>
        <time>2003-04-13T18:27:10Z</time>
      </trkpt>
      <trkpt lat="32.195768002420664" lon="-4.813140006735921">
        <ele>1565.4000000000001</ele>
        <time>2003-04-13T18:27:18Z</time>
      </trkpt>
      <trkpt lat="32.19490198418498" lon="-4.813799997791648">
        <ele>1566.7</ele>
        <time>2003-04-13T18:27:24Z</time>
      </trkpt>
      <trkpt lat="32.194132022559643" lon="-4.814368039369583">
        <ele>1566.7</ele>
        <time>2003-04-13T18:27:28Z</time>
      </trkpt>
      <trkpt lat="32.193210013210773" lon="-4.81500799767673">
        <ele>1565.5999999999999</ele>
        <time>2003-04-13T18:27:36Z</time>
      </trkpt>
      <trkpt lat="32.192348018288612" lon="-4.815621972084045">
        <ele>1565.7</ele>
        <time>2003-04-13T18:27:41Z</time>
      </trkpt>
      <trkpt lat="32.191464984789491" lon="-4.816242987290025">
        <ele>1566.3</ele>
        <time>2003-04-13T18:27:48Z</time>
      </trkpt>
      <trkpt lat="32.190678007900715" lon="-4.816798036918044">
        <ele>1566.5</ele>
        <time>2003-04-13T18:27:52Z</time>
      </trkpt>
      <trkpt lat="32.189849959686399" lon="-4.817359959706664">
        <ele>1567</ele>
        <time>2003-04-13T18:27:58Z</time>
      </trkpt>
      <trkpt lat="32.189023001119494" lon="-4.817954991012812">
        <ele>1567.8</ele>
        <time>2003-04-13T18:28:03Z</time>
      </trkpt>
      <trkpt lat="32.188196964561939" lon="-4.818524960428476">
        <ele>1568.5</ele>
        <time>2003-04-13T18:28:07Z</time>
      </trkpt>
      <trkpt lat="32.187391966581345" lon="-4.819093002006412">
        <ele>1569.3</ele>
        <time>2003-04-13T18:28:12Z</time>
      </trkpt>
      <trkpt lat="32.186619993299246" lon="-4.819645034149289">
        <ele>1570</ele>
        <time>2003-04-13T18:28:18Z</time>
      </trkpt>
      <trkpt lat="32.185690021142364" lon="-4.820290021598339">
        <ele>1570.3</ele>
        <time>2003-04-13T18:28:23Z</time>
      </trkpt>
      <trkpt lat="32.184916958212852" lon="-4.820835012942553">
        <ele>1570.4000000000001</ele>
        <time>2003-04-13T18:28:29Z</time>
      </trkpt>
      <trkpt lat="32.184116989374161" lon="-4.821397019550204">
        <ele>1570.5</ele>
        <time>2003-04-13T18:28:34Z</time>
      </trkpt>
      <trkpt lat="32.18327796086669" lon="-4.821996996179223">
        <ele>1571.2</ele>
        <time>2003-04-13T18:28:38Z</time>
      </trkpt>
      <trkpt lat="32.182401968166232" lon="-4.822620023041964">
        <ele>1571.8</ele>
        <time>2003-04-13T18:28:44Z</time>
      </trkpt>
      <trkpt lat="32.181548019871116" lon="-4.823222011327744">
        <ele>1572.9000000000001</ele>
        <time>2003-04-13T18:28:49Z</time>
      </trkpt>
      <trkpt lat="32.180685019120574" lon="-4.823834979906678">
        <ele>1573.5</ele>
        <time>2003-04-13T18:28:53Z</time>
      </trkpt>
      <trkpt lat="32.179848002269864" lon="-4.824420036748052">
        <ele>1574.0999999999999</ele>
        <time>2003-04-13T18:28:58Z</time>
      </trkpt>
      <trkpt lat="32.179022971540689" lon="-4.825010038912296">
        <ele>1574.7</ele>
        <time>2003-04-13T18:29:04Z</time>
      </trkpt>
      <trkpt lat="32.178187966346741" lon="-4.82559802941978">
        <ele>1576.0999999999999</ele>
        <time>2003-04-13T18:29:09Z</time>
      </trkpt>
      <trkpt lat="32.177372993901372" lon="-4.826167998835445">
        <ele>1577.5</ele>
        <time>2003-04-13T18:29:13Z</time>
      </trkpt>
      <trkpt lat="32.176936967298388" lon="-4.826577035710216">
        <ele>1578.8</ele>
        <time>2003-04-13T18:29:16Z</time>
      </trkpt>
      <trkpt lat="32.176822973415256" lon="-4.826751966029406">
        <ele>1579.0999999999999</ele>
        <time>2003-04-13T18:29:17Z</time>
      </trkpt>
      <trkpt lat="32.176730018109083" lon="-4.826942989602685">
        <ele>1579.5999999999999</ele>
        <time>2003-04-13T18:29:19Z</time>
      </trkpt>
      <trkpt lat="32.176312012597919" lon="-4.82789802365005">
        <ele>1580.5999999999999</ele>
        <time>2003-04-13T18:29:24Z</time>
      </trkpt>
      <trkpt lat="32.17608000151813" lon="-4.828381994739175">
        <ele>1581.0999999999999</ele>
        <time>2003-04-13T18:29:27Z</time>
      </trkpt>
      <trkpt lat="32.175842961296439" lon="-4.82873797416687">
        <ele>1580.8</ele>
        <time>2003-04-13T18:29:29Z</time>
      </trkpt>
      <trkpt lat="32.175652021542192" lon="-4.828897984698415">
        <ele>1579.8</ele>
        <time>2003-04-13T18:29:32Z</time>
      </trkpt>
      <trkpt lat="32.175482036545873" lon="-4.828990017995238">
        <ele>1578.4000000000001</ele>
        <time>2003-04-13T18:29:33Z</time>
      </trkpt>
      <trkpt lat="32.175356978550553" lon="-4.829048020765185">
        <ele>1577.5</ele>
        <time>2003-04-13T18:29:36Z</time>
      </trkpt>
      <trkpt lat="32.175271986052394" lon="-4.829127984121442">
        <ele>1577</ele>
        <time>2003-04-13T18:29:39Z</time>
      </trkpt>
      <trkpt lat="32.175137959420681" lon="-4.829222029075027">
        <ele>1576.3</ele>
        <time>2003-04-13T18:29:55Z</time>
      </trkpt>
      <trkpt lat="32.17481299303472" lon="-4.829405006021261">
        <ele>1575.9000000000001</ele>
        <time>2003-04-13T18:30:03Z</time>
      </trkpt>
      <trkpt lat="32.17468298971653" lon="-4.829635005444288">
        <ele>1575.4000000000001</ele>
        <time>2003-04-13T18:30:09Z</time>
      </trkpt>
      <trkpt lat="32.174652982503176" lon="-4.829817982390523">
        <ele>1574.7</ele>
        <time>2003-04-13T18:30:14Z</time>
      </trkpt>
      <trkpt lat="32.174633033573627" lon="-4.829929964616895">
        <ele>1574</ele>
        <time>2003-04-13T18:30:19Z</time>
      </trkpt>
      <trkpt lat="32.174634961411357" lon="-4.830055022612214">
        <ele>1574.0999999999999</ele>
        <time>2003-04-13T18:30:23Z</time>
      </trkpt>
      <trkpt lat="32.174581987783313" lon="-4.830259960144758">
        <ele>1573.9000000000001</ele>
        <time>2003-04-13T18:30:33Z</time>
      </trkpt>
      <trkpt lat="32.174669997766614" lon="-4.830327015370131">
        <ele>1574.0999999999999</ele>
        <time>2003-04-13T18:30:36Z</time>
      </trkpt>
      <trkpt lat="32.174767982214689" lon="-4.830261971801519">
        <ele>1574.5</ele>
        <time>2003-04-13T18:30:38Z</time>
      </trkpt>
      <trkpt lat="32.174907959997654" lon="-4.830077989026904">
        <ele>1575</ele>
        <time>2003-04-13T18:30:48Z</time>
      </trkpt>
      <trkpt lat="32.175041986629367" lon="-4.829895012080669">
        <ele>1575.3</ele>
        <time>2003-04-13T18:32:05Z</time>
      </trkpt>
      <trkpt lat="32.175117004662752" lon="-4.829804990440607">
        <ele>1575.9000000000001</ele>
        <time>2003-04-13T18:32:07Z</time>
      </trkpt>
      <trkpt lat="32.175118010491133" lon="-4.829934993758798">
        <ele>1577.3</ele>
        <time>2003-04-13T18:32:24Z</time>
      </trkpt>
      <trkpt lat="32.175033017992973" lon="-4.829995008185506">
        <ele>1576.7</ele>
        <time>2003-04-13T18:32:26Z</time>
      </trkpt>
      <trkpt lat="32.17502798885107" lon="-4.830106990411878">
        <ele>1576.5</ele>
        <time>2003-04-13T18:32:32Z</time>
      </trkpt>
      <trkpt lat="32.175062019377947" lon="-4.830251997336745">
        <ele>1576.9000000000001</ele>
        <time>2003-04-13T18:32:34Z</time>
      </trkpt>
      <trkpt lat="32.175152963027358" lon="-4.830452995374799">
        <ele>1577.0999999999999</ele>
        <time>2003-04-13T18:32:38Z</time>
      </trkpt>
      <trkpt lat="32.175356978550553" lon="-4.830872006714344">
        <ele>1578</ele>
        <time>2003-04-13T18:32:47Z</time>
      </trkpt>
      <trkpt lat="32.175397966057062" lon="-4.830972002819181">
        <ele>1577.9000000000001</ele>
        <time>2003-04-13T18:32:49Z</time>
      </trkpt>
      <trkpt lat="32.175454962998629" lon="-4.83107996173203">
        <ele>1578</ele>
        <time>2003-04-13T18:32:52Z</time>
      </trkpt>
      <trkpt lat="32.175493016839027" lon="-4.831196973100305">
        <ele>1578.0999999999999</ele>
        <time>2003-04-13T18:32:56Z</time>
      </trkpt>
      <trkpt lat="32.175468038767576" lon="-4.83137802220881">
        <ele>1578.3</ele>
        <time>2003-04-13T18:33:23Z</time>
      </trkpt>
      <trkpt lat="32.175378017127514" lon="-4.831332005560398">
        <ele>1578</ele>
        <time>2003-04-13T18:33:43Z</time>
      </trkpt>
      <trkpt lat="32.175431996583939" lon="-4.831432001665235">
        <ele>1578.5</ele>
        <time>2003-04-13T18:34:06Z</time>
      </trkpt>
      <trkpt lat="32.175471978262067" lon="-4.831245001405478">
        <ele>1578.5</ele>
        <time>2003-04-13T18:36:32Z</time>
      </trkpt>
      <trkpt lat="32.175548002123833" lon="-4.831167971715331">
        <ele>1578.4000000000001</ele>
        <time>2003-04-13T18:36:36Z</time>
      </trkpt>
      <trkpt lat="32.175557976588607" lon="-4.831214994192123">
        <ele>1578.7</ele>
        <time>2003-04-14T05:09:29Z</time>
      </trkpt>
    </trkseg>
  </trk>

  <trk>
    <name>030414</name>
    <extensions>
      <gpxx:TrackExtension xmlns:gpxx="http://www.garmin.com/xmlschemas/GpxExtensions/v3">
        <gpxx:DisplayColor>Green</gpxx:DisplayColor>
      </gpxx:TrackExtension>
    </extensions>
    <trkseg>
      <trkpt lat="32.175557976588607" lon="-4.831214994192123">
        <ele>1578.7</ele>
        <time>2003-04-14T05:09:29Z</time>
      </trkpt>
      <trkpt lat="32.175267962738872" lon="-4.831154979765415">
        <ele>-236.80000000000001</ele>
        <time>2003-04-14T06:01:33Z</time>
      </trkpt>
      <trkpt lat="32.175577003508806" lon="-4.831203008070588">
        <ele>1580.5999999999999</ele>
        <time>2003-04-14T06:01:37Z</time>
      </trkpt>
      <trkpt lat="32.175525035709143" lon="-4.831071998924017">
        <ele>1578.2</ele>
        <time>2003-04-14T06:08:06Z</time>
      </trkpt>
      <trkpt lat="32.175433002412319" lon="-4.831018019467592">
        <ele>1577.9000000000001</ele>
        <time>2003-04-14T06:08:07Z</time>
      </trkpt>
      <trkpt lat="32.175347004085779" lon="-4.83094803057611">
        <ele>1577.8</ele>
        <time>2003-04-14T06:08:10Z</time>
      </trkpt>
      <trkpt lat="32.17513301409781" lon="-4.830757007002831">
        <ele>1577.2</ele>
        <time>2003-04-14T06:08:15Z</time>
      </trkpt>
      <trkpt lat="32.174987001344562" lon="-4.830679977312684">
        <ele>1576.9000000000001</ele>
        <time>2003-04-14T06:08:18Z</time>
      </trkpt>
      <trkpt lat="32.17489798553288" lon="-4.830613005906344">
        <ele>1576.5999999999999</ele>
        <time>2003-04-14T06:08:19Z</time>
      </trkpt>
      <trkpt lat="32.174841994419694" lon="-4.830488031730056">
        <ele>1576.4000000000001</ele>
        <time>2003-04-14T06:08:22Z</time>
      </trkpt>
      <trkpt lat="32.174781979992986" lon="-4.830376971513033">
        <ele>1576.4000000000001</ele>
        <time>2003-04-14T06:08:23Z</time>
      </trkpt>
      <trkpt lat="32.174712996929884" lon="-4.830282004550099">
        <ele>1575.8</ele>
        <time>2003-04-14T06:08:26Z</time>
      </trkpt>
      <trkpt lat="32.17459799721837" lon="-4.830249985679984">
        <ele>1575.3</ele>
        <time>2003-04-14T06:08:27Z</time>
      </trkpt>
      <trkpt lat="32.17446799390018" lon="-4.8302629776299">
        <ele>1575</ele>
        <time>2003-04-14T06:08:30Z</time>
      </trkpt>
      <trkpt lat="32.174355005845428" lon="-4.830245040357113">
        <ele>1574.5</ele>
        <time>2003-04-14T06:08:31Z</time>
      </trkpt>
      <trkpt lat="32.174236988648772" lon="-4.830202963203192">
        <ele>1574.5</ele>
        <time>2003-04-14T06:08:34Z</time>
      </trkpt>
      <trkpt lat="32.174137998372316" lon="-4.830155018717051">
        <ele>1574.4000000000001</ele>
        <time>2003-04-14T06:08:38Z</time>
      </trkpt>
      <trkpt lat="32.174059962853789" lon="-4.830095004290342">
        <ele>1574</ele>
        <time>2003-04-14T06:08:42Z</time>
      </trkpt>
      <trkpt lat="32.173937000334263" lon="-4.830017974600196">
        <ele>1574.3</ele>
        <time>2003-04-14T06:08:45Z</time>
      </trkpt>
      <trkpt lat="32.173806997016072" lon="-4.830017974600196">
        <ele>1574.2</ele>
        <time>2003-04-14T06:08:46Z</time>
      </trkpt>
      <trkpt lat="32.173701971769333" lon="-4.830027027055621">
        <ele>1573.9000000000001</ele>
        <time>2003-04-14T06:08:50Z</time>
      </trkpt>
      <trkpt lat="32.173574985936284" lon="-4.830038007348776">
        <ele>1573.8</ele>
        <time>2003-04-14T06:08:53Z</time>
      </trkpt>
      <trkpt lat="32.173452023416758" lon="-4.830052005127072">
        <ele>1573.9000000000001</ele>
        <time>2003-04-14T06:08:54Z</time>
      </trkpt>
      <trkpt lat="32.17330701649189" lon="-4.830116964876652">
        <ele>1573.9000000000001</ele>
        <time>2003-04-14T06:08:57Z</time>
      </trkpt>
      <trkpt lat="32.173137031495571" lon="-4.83021997846663">
        <ele>1573.5</ele>
        <time>2003-04-14T06:08:58Z</time>
      </trkpt>
      <trkpt lat="32.172487014904618" lon="-4.830587022006512">
        <ele>1572.9000000000001</ele>
        <time>2003-04-14T06:09:05Z</time>
      </trkpt>
      <trkpt lat="32.172030033543706" lon="-4.830769998952746">
        <ele>1572.5999999999999</ele>
        <time>2003-04-14T06:09:09Z</time>
      </trkpt>
      <trkpt lat="32.1715899836272" lon="-4.830869995057583">
        <ele>1571.0999999999999</ele>
        <time>2003-04-14T06:09:13Z</time>
      </trkpt>
      <trkpt lat="32.170952958986163" lon="-4.831094965338707">
        <ele>1569.5999999999999</ele>
        <time>2003-04-14T06:09:17Z</time>
      </trkpt>
      <trkpt lat="32.170807030051947" lon="-4.831209965050221">
        <ele>1569.3</ele>
        <time>2003-04-14T06:09:17Z</time>
      </trkpt>
      <trkpt lat="32.170051988214254" lon="-4.831883031874895">
        <ele>1567.3</ele>
        <time>2003-04-14T06:09:23Z</time>
      </trkpt>
      <trkpt lat="32.169195022433996" lon="-4.83262499794364">
        <ele>1565.2</ele>
        <time>2003-04-14T06:09:28Z</time>
      </trkpt>
      <trkpt lat="32.1683020144701" lon="-4.83337702229619">
        <ele>1563.2</ele>
        <time>2003-04-14T06:09:32Z</time>
      </trkpt>
      <trkpt lat="32.16791502200067" lon="-4.833610039204359">
        <ele>1562.5</ele>
        <time>2003-04-14T06:09:35Z</time>
      </trkpt>
      <trkpt lat="32.16692796908319" lon="-4.834137009456754">
        <ele>1561.3</ele>
        <time>2003-04-14T06:09:40Z</time>
      </trkpt>
      <trkpt lat="32.166006965562701" lon="-4.834703039377928">
        <ele>1561.5999999999999</ele>
        <time>2003-04-14T06:09:44Z</time>
      </trkpt>
      <trkpt lat="32.165855001658201" lon="-4.83485802076757">
        <ele>1561.3</ele>
        <time>2003-04-14T06:09:45Z</time>
      </trkpt>
      <trkpt lat="32.165721980854869" lon="-4.835042003542185">
        <ele>1561.0999999999999</ele>
        <time>2003-04-14T06:09:47Z</time>
      </trkpt>
      <trkpt lat="32.165032988414168" lon="-4.835972981527448">
        <ele>1560</ele>
        <time>2003-04-14T06:09:52Z</time>
      </trkpt>
      <trkpt lat="32.164341984316707" lon="-4.836906976997852">
        <ele>1559.9000000000001</ele>
        <time>2003-04-14T06:09:56Z</time>
      </trkpt>
      <trkpt lat="32.163670007139444" lon="-4.837805014103651">
        <ele>1559.4000000000001</ele>
        <time>2003-04-14T06:10:02Z</time>
      </trkpt>
      <trkpt lat="32.16301697306335" lon="-4.838697016239166">
        <ele>1557.3</ele>
        <time>2003-04-14T06:10:07Z</time>
      </trkpt>
      <trkpt lat="32.162682032212615" lon="-4.839262962341309">
        <ele>1556.9000000000001</ele>
        <time>2003-04-14T06:10:10Z</time>
      </trkpt>
      <trkpt lat="32.162233013659716" lon="-4.840312041342259">
        <ele>1555.4000000000001</ele>
        <time>2003-04-14T06:10:15Z</time>
      </trkpt>
      <trkpt lat="32.16181299649179" lon="-4.84130303375423">
        <ele>1555.2</ele>
        <time>2003-04-14T06:10:19Z</time>
      </trkpt>
      <trkpt lat="32.161389961838722" lon="-4.842307018116117">
        <ele>1556</ele>
        <time>2003-04-14T06:10:25Z</time>
      </trkpt>
      <trkpt lat="32.160838013514876" lon="-4.843518035486341">
        <ele>1555.4000000000001</ele>
        <time>2003-04-14T06:10:30Z</time>
      </trkpt>
      <trkpt lat="32.160257985815406" lon="-4.844717988744378">
        <ele>1553</ele>
        <time>2003-04-14T06:10:37Z</time>
      </trkpt>
      <trkpt lat="32.159787006676197" lon="-4.845707975327969">
        <ele>1552.5999999999999</ele>
        <time>2003-04-14T06:10:42Z</time>
      </trkpt>
      <trkpt lat="32.159200021997094" lon="-4.846895020455122">
        <ele>1551.3</ele>
        <time>2003-04-14T06:10:48Z</time>
      </trkpt>
      <trkpt lat="32.158689983189106" lon="-4.847945021465421">
        <ele>1549.7</ele>
        <time>2003-04-14T06:10:53Z</time>
      </trkpt>
      <trkpt lat="32.158131999894977" lon="-4.849027041345835">
        <ele>1546.5999999999999</ele>
        <time>2003-04-14T06:10:57Z</time>
      </trkpt>
      <trkpt lat="32.157587008550763" lon="-4.850121969357133">
        <ele>1543.8</ele>
        <time>2003-04-14T06:11:02Z</time>
      </trkpt>
      <trkpt lat="32.157037993893027" lon="-4.850968038663268">
        <ele>1541</ele>
        <time>2003-04-14T06:11:06Z</time>
      </trkpt>
      <trkpt lat="32.156444974243641" lon="-4.851821986958385">
        <ele>1538.5</ele>
        <time>2003-04-14T06:11:11Z</time>
      </trkpt>
      <trkpt lat="32.155848015099764" lon="-4.852693034335971">
        <ele>1535.7</ele>
        <time>2003-04-14T06:11:15Z</time>
      </trkpt>
      <trkpt lat="32.155243009328842" lon="-4.853568021208048">
        <ele>1533.7</ele>
        <time>2003-04-14T06:11:19Z</time>
      </trkpt>
      <trkpt lat="32.154667004942894" lon="-4.854422975331545">
        <ele>1532.3</ele>
        <time>2003-04-14T06:11:23Z</time>
      </trkpt>
      <trkpt lat="32.154213041067123" lon="-4.854977019131184">
        <ele>1531.3</ele>
        <time>2003-04-14T06:11:25Z</time>
      </trkpt>
      <trkpt lat="32.154031991958618" lon="-4.855111967772245">
        <ele>1531.0999999999999</ele>
        <time>2003-04-14T06:11:27Z</time>
      </trkpt>
      <trkpt lat="32.153054997324944" lon="-4.855693001300097">
        <ele>1530.0999999999999</ele>
        <time>2003-04-14T06:11:32Z</time>
      </trkpt>
      <trkpt lat="32.152129970490932" lon="-4.856285015121102">
        <ele>1532.5</ele>
        <time>2003-04-14T06:11:36Z</time>
      </trkpt>
      <trkpt lat="32.151614986360073" lon="-4.856718024238944">
        <ele>1531.2</ele>
        <time>2003-04-14T06:11:40Z</time>
      </trkpt>
      <trkpt lat="32.15079196728766" lon="-4.857517993077636">
        <ele>1525.9000000000001</ele>
        <time>2003-04-14T06:11:44Z</time>
      </trkpt>
      <trkpt lat="32.150368010625243" lon="-4.858052004128695">
        <ele>1521.7</ele>
        <time>2003-04-14T06:11:47Z</time>
      </trkpt>
      <trkpt lat="32.150274971500039" lon="-4.858272029086947">
        <ele>1520.8</ele>
        <time>2003-04-14T06:11:48Z</time>
      </trkpt>
      <trkpt lat="32.149767028167844" lon="-4.859369974583387">
        <ele>1523.0999999999999</ele>
        <time>2003-04-14T06:11:54Z</time>
      </trkpt>
      <trkpt lat="32.149423034861684" lon="-4.859929969534278">
        <ele>1523.4000000000001</ele>
        <time>2003-04-14T06:11:56Z</time>
      </trkpt>
      <trkpt lat="32.149111982434988" lon="-4.860204979777336">
        <ele>1523.2</ele>
        <time>2003-04-14T06:11:59Z</time>
      </trkpt>
      <trkpt lat="32.148253004997969" lon="-4.860881986096501">
        <ele>1522.0999999999999</ele>
        <time>2003-04-14T06:12:03Z</time>
      </trkpt>
      <trkpt lat="32.148057958111167" lon="-4.860987011343241">
        <ele>1522.0999999999999</ele>
        <time>2003-04-14T06:12:05Z</time>
      </trkpt>
      <trkpt lat="32.147852014750242" lon="-4.861058006063104">
        <ele>1522.2</ele>
        <time>2003-04-14T06:12:06Z</time>
      </trkpt>
      <trkpt lat="32.146979961544275" lon="-4.861323041841388">
        <ele>1520.9000000000001</ele>
        <time>2003-04-14T06:12:10Z</time>
      </trkpt>
      <trkpt lat="32.146083014085889" lon="-4.861633004620671">
        <ele>1520.0999999999999</ele>
        <time>2003-04-14T06:12:14Z</time>
      </trkpt>
      <trkpt lat="32.145190006121993" lon="-4.862055033445358">
        <ele>1519.2</ele>
        <time>2003-04-14T06:12:18Z</time>
      </trkpt>
      <trkpt lat="32.144266990944743" lon="-4.862494999542832">
        <ele>1517.4000000000001</ele>
        <time>2003-04-14T06:12:22Z</time>
      </trkpt>
      <trkpt lat="32.143332995474339" lon="-4.862937983125448">
        <ele>1517</ele>
        <time>2003-04-14T06:12:26Z</time>
      </trkpt>
      <trkpt lat="32.142466977238655" lon="-4.863341990858316">
        <ele>1516.5</ele>
        <time>2003-04-14T06:12:30Z</time>
      </trkpt>
      <trkpt lat="32.142162965610623" lon="-4.863524967804551">
        <ele>1516.2</ele>
        <time>2003-04-14T06:12:32Z</time>
      </trkpt>
      <trkpt lat="32.142043020576239" lon="-4.863660000264645">
        <ele>1516.2</ele>
        <time>2003-04-14T06:12:33Z</time>
      </trkpt>
      <trkpt lat="32.141966996714473" lon="-4.863825039938092">
        <ele>1515.9000000000001</ele>
        <time>2003-04-14T06:12:34Z</time>
      </trkpt>
      <trkpt lat="32.141912011429667" lon="-4.864004999399185">
        <ele>1515.7</ele>
        <time>2003-04-14T06:12:34Z</time>
      </trkpt>
      <trkpt lat="32.141834981739521" lon="-4.864397021010518">
        <ele>1515.5999999999999</ele>
        <time>2003-04-14T06:12:37Z</time>
      </trkpt>
      <trkpt lat="32.141613028943539" lon="-4.865448027849197">
        <ele>1516.7</ele>
        <time>2003-04-14T06:12:41Z</time>
      </trkpt>
      <trkpt lat="32.141413036733866" lon="-4.865823034197092">
        <ele>1516.9000000000001</ele>
        <time>2003-04-14T06:12:44Z</time>
      </trkpt>
      <trkpt lat="32.141268029808998" lon="-4.865969968959689">
        <ele>1516.5</ele>
        <time>2003-04-14T06:12:45Z</time>
      </trkpt>
      <trkpt lat="32.140931999310851" lon="-4.866223018616438">
        <ele>1514.9000000000001</ele>
        <time>2003-04-14T06:12:46Z</time>
      </trkpt>
      <trkpt lat="32.140739969909191" lon="-4.866316979750991">
        <ele>1514.8</ele>
        <time>2003-04-14T06:12:48Z</time>
      </trkpt>
      <trkpt lat="32.139717964455485" lon="-4.866832969710231">
        <ele>1512.7</ele>
        <time>2003-04-14T06:12:53Z</time>
      </trkpt>
      <trkpt lat="32.139212032780051" lon="-4.867147039622068">
        <ele>1513</ele>
        <time>2003-04-14T06:12:56Z</time>
      </trkpt>
      <trkpt lat="32.13901799172163" lon="-4.867448033764958">
        <ele>1512.8</ele>
        <time>2003-04-14T06:12:57Z</time>
      </trkpt>
      <trkpt lat="32.138550030067563" lon="-4.86828999593854">
        <ele>1511.2</ele>
        <time>2003-04-14T06:13:03Z</time>
      </trkpt>
      <trkpt lat="32.138387002050877" lon="-4.868382029235363">
        <ele>1511.2</ele>
        <time>2003-04-14T06:13:04Z</time>
      </trkpt>
      <trkpt lat="32.137487959116697" lon="-4.868782013654709">
        <ele>1511.0999999999999</ele>
        <time>2003-04-14T06:13:08Z</time>
      </trkpt>
      <trkpt lat="32.136478023603559" lon="-4.869255004450679">
        <ele>1510.8</ele>
        <time>2003-04-14T06:13:13Z</time>
      </trkpt>
      <trkpt lat="32.135525001212955" lon="-4.869739981368184">
        <ele>1509.4000000000001</ele>
        <time>2003-04-14T06:13:19Z</time>
      </trkpt>
      <trkpt lat="32.135008005425334" lon="-4.869952965527773">
        <ele>1507</ele>
        <time>2003-04-14T06:13:23Z</time>
      </trkpt>
      <trkpt lat="32.134667029604316" lon="-4.869941985234618">
        <ele>1505</ele>
        <time>2003-04-14T06:13:24Z</time>
      </trkpt>
      <trkpt lat="32.134522022679448" lon="-4.869877025485039">
        <ele>1504.5</ele>
        <time>2003-04-14T06:13:26Z</time>
      </trkpt>
      <trkpt lat="32.134399982169271" lon="-4.869787003844976">
        <ele>1503.9000000000001</ele>
        <time>2003-04-14T06:13:27Z</time>
      </trkpt>
      <trkpt lat="32.134173000231385" lon="-4.869652977213264">
        <ele>1502</ele>
        <time>2003-04-14T06:13:28Z</time>
      </trkpt>
      <trkpt lat="32.134047020226717" lon="-4.869652977213264">
        <ele>1501.4000000000001</ele>
        <time>2003-04-14T06:13:30Z</time>
      </trkpt>
      <trkpt lat="32.133922968059778" lon="-4.869703017175198">
        <ele>1500.9000000000001</ele>
        <time>2003-04-14T06:13:31Z</time>
      </trkpt>
      <trkpt lat="32.133811991661787" lon="-4.869781974703074">
        <ele>1500.0999999999999</ele>
        <time>2003-04-14T06:13:31Z</time>
      </trkpt>
      <trkpt lat="32.133019985631108" lon="-4.870299976319075">
        <ele>1502.7</ele>
        <time>2003-04-14T06:13:39Z</time>
      </trkpt>
      <trkpt lat="32.132919989526272" lon="-4.870393015444279">
        <ele>1503.3</ele>
        <time>2003-04-14T06:13:39Z</time>
      </trkpt>
      <trkpt lat="32.132829967886209" lon="-4.870510026812553">
        <ele>1503.9000000000001</ele>
        <time>2003-04-14T06:13:40Z</time>
      </trkpt>
      <trkpt lat="32.132678003981709" lon="-4.87078201957047">
        <ele>1504.5999999999999</ele>
        <time>2003-04-14T06:13:43Z</time>
      </trkpt>
      <trkpt lat="32.132229991257191" lon="-4.871577965095639">
        <ele>1503.7</ele>
        <time>2003-04-14T06:13:48Z</time>
      </trkpt>
      <trkpt lat="32.132111974060535" lon="-4.871677961200476">
        <ele>1503.8</ele>
        <time>2003-04-14T06:13:50Z</time>
      </trkpt>
      <trkpt lat="32.131845010444522" lon="-4.871851969510317">
        <ele>1503.7</ele>
        <time>2003-04-14T06:13:51Z</time>
      </trkpt>
      <trkpt lat="32.130974968895316" lon="-4.872487988322973">
        <ele>1502.0999999999999</ele>
        <time>2003-04-14T06:13:58Z</time>
      </trkpt>
      <trkpt lat="32.130683027207851" lon="-4.872750006616116">
        <ele>1501.5</ele>
        <time>2003-04-14T06:13:59Z</time>
      </trkpt>
      <trkpt lat="32.130426960065961" lon="-4.873076984658837">
        <ele>1500.7</ele>
        <time>2003-04-14T06:14:02Z</time>
      </trkpt>
      <trkpt lat="32.129788007587194" lon="-4.873972004279494">
        <ele>1498.5</ele>
        <time>2003-04-14T06:14:06Z</time>
      </trkpt>
      <trkpt lat="32.129132961854339" lon="-4.874899964779615">
        <ele>1495</ele>
        <time>2003-04-14T06:14:11Z</time>
      </trkpt>
      <trkpt lat="32.128495015203953" lon="-4.875779980793595">
        <ele>1495</ele>
        <time>2003-04-14T06:14:17Z</time>
      </trkpt>
      <trkpt lat="32.128220004960895" lon="-4.876048034057021">
        <ele>1494.9000000000001</ele>
        <time>2003-04-14T06:14:18Z</time>
      </trkpt>
      <trkpt lat="32.128056976944208" lon="-4.876135038211942">
        <ele>1494.9000000000001</ele>
        <time>2003-04-14T06:14:20Z</time>
      </trkpt>
      <trkpt lat="32.127119963988662" lon="-4.876503003761172">
        <ele>1491.2</ele>
        <time>2003-04-14T06:14:25Z</time>
      </trkpt>
      <trkpt lat="32.126117991283536" lon="-4.876922015100718">
        <ele>1486.5999999999999</ele>
        <time>2003-04-14T06:14:29Z</time>
      </trkpt>
      <trkpt lat="32.125497981905937" lon="-4.877080013975501">
        <ele>1484.2</ele>
        <time>2003-04-14T06:14:33Z</time>
      </trkpt>
      <trkpt lat="32.124440018087626" lon="-4.8772700317204">
        <ele>1483.5999999999999</ele>
        <time>2003-04-14T06:14:37Z</time>
      </trkpt>
      <trkpt lat="32.123373001813889" lon="-4.877522997558117">
        <ele>1487</ele>
        <time>2003-04-14T06:14:42Z</time>
      </trkpt>
      <trkpt lat="32.122283019125462" lon="-4.877827009186149">
        <ele>1484</ele>
        <time>2003-04-14T06:14:48Z</time>
      </trkpt>
      <trkpt lat="32.121625039726496" lon="-4.877918036654592">
        <ele>1482.0999999999999</ele>
        <time>2003-04-14T06:14:51Z</time>
      </trkpt>
      <trkpt lat="32.12051996961236" lon="-4.877888029441237">
        <ele>1481.5</ele>
        <time>2003-04-14T06:14:56Z</time>
      </trkpt>
      <trkpt lat="32.11968001909554" lon="-4.877760037779808">
        <ele>1480.5</ele>
        <time>2003-04-14T06:15:00Z</time>
      </trkpt>
      <trkpt lat="32.119060009717941" lon="-4.877501958981156">
        <ele>1478.3</ele>
        <time>2003-04-14T06:15:03Z</time>
      </trkpt>
      <trkpt lat="32.118055019527674" lon="-4.877032991498709">
        <ele>1477.3</ele>
        <time>2003-04-14T06:15:08Z</time>
      </trkpt>
      <trkpt lat="32.117676995694637" lon="-4.876952022314072">
        <ele>1478.5</ele>
        <time>2003-04-14T06:15:09Z</time>
      </trkpt>
      <trkpt lat="32.117267036810517" lon="-4.876955039799213">
        <ele>1477.3</ele>
        <time>2003-04-14T06:15:12Z</time>
      </trkpt>
      <trkpt lat="32.116176970303059" lon="-4.877107003703713">
        <ele>1474.2</ele>
        <time>2003-04-14T06:15:16Z</time>
      </trkpt>
      <trkpt lat="32.115269964560866" lon="-4.877240024507046">
        <ele>1471.3</ele>
        <time>2003-04-14T06:15:20Z</time>
      </trkpt>
      <trkpt lat="32.114182999357581" lon="-4.877372961491346">
        <ele>1471.2</ele>
        <time>2003-04-14T06:15:26Z</time>
      </trkpt>
      <trkpt lat="32.113182032480836" lon="-4.877558033913374">
        <ele>1470.5999999999999</ele>
        <time>2003-04-14T06:15:31Z</time>
      </trkpt>
      <trkpt lat="32.112997965887189" lon="-4.877653000876308">
        <ele>1470</ele>
        <time>2003-04-14T06:15:31Z</time>
      </trkpt>
      <trkpt lat="32.1126330178231" lon="-4.877906972542405">
        <ele>1466.8</ele>
        <time>2003-04-14T06:15:34Z</time>
      </trkpt>
      <trkpt lat="32.111740009859204" lon="-4.878448024392128">
        <ele>1471.4000000000001</ele>
        <time>2003-04-14T06:15:39Z</time>
      </trkpt>
      <trkpt lat="32.111574970185757" lon="-4.878445006906986">
        <ele>1473.3</ele>
        <time>2003-04-14T06:15:39Z</time>
      </trkpt>
      <trkpt lat="32.111412025988102" lon="-4.878403013572097">
        <ele>1474.2</ele>
        <time>2003-04-14T06:15:41Z</time>
      </trkpt>
      <trkpt lat="32.11091497913003" lon="-4.878318021073937">
        <ele>1477.2</ele>
        <time>2003-04-14T06:15:43Z</time>
      </trkpt>
      <trkpt lat="32.110569979995489" lon="-4.878414999693632">
        <ele>1477.5</ele>
        <time>2003-04-14T06:15:46Z</time>
      </trkpt>
      <trkpt lat="32.110405024141073" lon="-4.878512984141707">
        <ele>1477.5999999999999</ele>
        <time>2003-04-14T06:15:46Z</time>
      </trkpt>
      <trkpt lat="32.109585022553802" lon="-4.879137016832829">
        <ele>1477.3</ele>
        <time>2003-04-14T06:15:51Z</time>
      </trkpt>
      <trkpt lat="32.108669970184565" lon="-4.879789967089891">
        <ele>1477.5999999999999</ele>
        <time>2003-04-14T06:15:57Z</time>
      </trkpt>
      <trkpt lat="32.107758019119501" lon="-4.880437972024083">
        <ele>1480.3</ele>
        <time>2003-04-14T06:16:02Z</time>
      </trkpt>
      <trkpt lat="32.106938017532229" lon="-4.881090000271797">
        <ele>1479.0999999999999</ele>
        <time>2003-04-14T06:16:06Z</time>
      </trkpt>
      <trkpt lat="32.10605800151825" lon="-4.881831966340542">
        <ele>1471.8</ele>
        <time>2003-04-14T06:16:12Z</time>
      </trkpt>
      <trkpt lat="32.1052420232445" lon="-4.882521964609623">
        <ele>1473.3</ele>
        <time>2003-04-14T06:16:17Z</time>
      </trkpt>
      <trkpt lat="32.104906998574734" lon="-4.882726985961199">
        <ele>1473.5999999999999</ele>
        <time>2003-04-14T06:16:18Z</time>
      </trkpt>
      <trkpt lat="32.10472502745688" lon="-4.88277199678123">
        <ele>1472.8</ele>
        <time>2003-04-14T06:16:20Z</time>
      </trkpt>
      <trkpt lat="32.104546995833516" lon="-4.882773002609611">
        <ele>1471.9000000000001</ele>
        <time>2003-04-14T06:16:21Z</time>
      </trkpt>
      <trkpt lat="32.103477967903018" lon="-4.882886996492744">
        <ele>1471.0999999999999</ele>
        <time>2003-04-14T06:16:26Z</time>
      </trkpt>
      <trkpt lat="32.102668024599552" lon="-4.88305295817554">
        <ele>1472.0999999999999</ele>
        <time>2003-04-14T06:16:32Z</time>
      </trkpt>
      <trkpt lat="32.102550007402897" lon="-4.883168041706085">
        <ele>1472.3</ele>
        <time>2003-04-14T06:16:33Z</time>
      </trkpt>
      <trkpt lat="32.102461997419596" lon="-4.883312964811921">
        <ele>1472.4000000000001</ele>
        <time>2003-04-14T06:16:33Z</time>
      </trkpt>
      <trkpt lat="32.101899990811944" lon="-4.884252995252609">
        <ele>1474.0999999999999</ele>
        <time>2003-04-14T06:16:40Z</time>
      </trkpt>
      <trkpt lat="32.101684994995594" lon="-4.884522976353765">
        <ele>1475</ele>
        <time>2003-04-14T06:16:41Z</time>
      </trkpt>
      <trkpt lat="32.101552980020642" lon="-4.884611992165446">
        <ele>1475.0999999999999</ele>
        <time>2003-04-14T06:16:43Z</time>
      </trkpt>
      <trkpt lat="32.101255003362894" lon="-4.884760016575456">
        <ele>1474.0999999999999</ele>
        <time>2003-04-14T06:16:44Z</time>
      </trkpt>
      <trkpt lat="32.100272979587317" lon="-4.885253040120006">
        <ele>1472.2</ele>
        <time>2003-04-14T06:16:51Z</time>
      </trkpt>
      <trkpt lat="32.099802000448108" lon="-4.885583035647869">
        <ele>1472.7</ele>
        <time>2003-04-14T06:16:53Z</time>
      </trkpt>
      <trkpt lat="32.099022986367345" lon="-4.886222993955016">
        <ele>1470.7</ele>
        <time>2003-04-14T06:16:59Z</time>
      </trkpt>
      <trkpt lat="32.098192004486918" lon="-4.886877033859491">
        <ele>1468.9000000000001</ele>
        <time>2003-04-14T06:17:04Z</time>
      </trkpt>
      <trkpt lat="32.097297990694642" lon="-4.887611959129572">
        <ele>1466.4000000000001</ele>
        <time>2003-04-14T06:17:08Z</time>
      </trkpt>
      <trkpt lat="32.096553007140756" lon="-4.888210007920861">
        <ele>1464.8</ele>
        <time>2003-04-14T06:17:12Z</time>
      </trkpt>
      <trkpt lat="32.095807017758489" lon="-4.888818031176925">
        <ele>1463</ele>
        <time>2003-04-14T06:17:16Z</time>
      </trkpt>
      <trkpt lat="32.094870004802942" lon="-4.889484979212284">
        <ele>1461</ele>
        <time>2003-04-14T06:17:22Z</time>
      </trkpt>
      <trkpt lat="32.094670012593269" lon="-4.889544993638992">
        <ele>1461</ele>
        <time>2003-04-14T06:17:23Z</time>
      </trkpt>
      <trkpt lat="32.093595033511519" lon="-4.889786979183555">
        <ele>1458.4000000000001</ele>
        <time>2003-04-14T06:17:27Z</time>
      </trkpt>
      <trkpt lat="32.092764973640442" lon="-4.89005696028471">
        <ele>1456.5</ele>
        <time>2003-04-14T06:17:31Z</time>
      </trkpt>
      <trkpt lat="32.092402959242463" lon="-4.890315039083362">
        <ele>1455.5999999999999</ele>
        <time>2003-04-14T06:17:34Z</time>
      </trkpt>
      <trkpt lat="32.092247977852821" lon="-4.890489969402552">
        <ele>1455</ele>
        <time>2003-04-14T06:17:34Z</time>
      </trkpt>
      <trkpt lat="32.091974979266524" lon="-4.890903029590845">
        <ele>1453.7</ele>
        <time>2003-04-14T06:17:37Z</time>
      </trkpt>
      <trkpt lat="32.091380031779408" lon="-4.891735017299652">
        <ele>1453.8</ele>
        <time>2003-04-14T06:17:41Z</time>
      </trkpt>
      <trkpt lat="32.090751975774765" lon="-4.892567005008459">
        <ele>1456.7</ele>
        <time>2003-04-14T06:17:45Z</time>
      </trkpt>
      <trkpt lat="32.090132972225547" lon="-4.893266977742314">
        <ele>1459.8</ele>
        <time>2003-04-14T06:17:49Z</time>
      </trkpt>
      <trkpt lat="32.089940020814538" lon="-4.893369991332293">
        <ele>1459.9000000000001</ele>
        <time>2003-04-14T06:17:50Z</time>
      </trkpt>
      <trkpt lat="32.088893037289381" lon="-4.893808029592037">
        <ele>1459.2</ele>
        <time>2003-04-14T06:17:54Z</time>
      </trkpt>
      <trkpt lat="32.088032970204949" lon="-4.894212037324905">
        <ele>1458.2</ele>
        <time>2003-04-14T06:17:58Z</time>
      </trkpt>
      <trkpt lat="32.087182961404324" lon="-4.894604980945587">
        <ele>1457.5</ele>
        <time>2003-04-14T06:18:02Z</time>
      </trkpt>
      <trkpt lat="32.08614201284945" lon="-4.895091969519854">
        <ele>1451.5999999999999</ele>
        <time>2003-04-14T06:18:08Z</time>
      </trkpt>
      <trkpt lat="32.085295021533966" lon="-4.89549002610147">
        <ele>1453.5</ele>
        <time>2003-04-14T06:18:12Z</time>
      </trkpt>
      <trkpt lat="32.08489797078073" lon="-4.895742991939187">
        <ele>1454.7</ele>
        <time>2003-04-14T06:18:13Z</time>
      </trkpt>
      <trkpt lat="32.084733014926314" lon="-4.895914988592267">
        <ele>1455.0999999999999</ele>
        <time>2003-04-14T06:18:14Z</time>
      </trkpt>
      <trkpt lat="32.083961963653564" lon="-4.896868010982871">
        <ele>1455.4000000000001</ele>
        <time>2003-04-14T06:18:20Z</time>
      </trkpt>
      <trkpt lat="32.083301972597837" lon="-4.897636966779828">
        <ele>1453.8</ele>
        <time>2003-04-14T06:18:24Z</time>
      </trkpt>
      <trkpt lat="32.082644999027252" lon="-4.898401983082295">
        <ele>1455.2</ele>
        <time>2003-04-14T06:18:28Z</time>
      </trkpt>
      <trkpt lat="32.081966986879706" lon="-4.89912198856473">
        <ele>1455.4000000000001</ele>
        <time>2003-04-14T06:18:32Z</time>
      </trkpt>
      <trkpt lat="32.08120197057724" lon="-4.899728000164032">
        <ele>1455.3</ele>
        <time>2003-04-14T06:18:36Z</time>
      </trkpt>
      <trkpt lat="32.080437960103154" lon="-4.900342980399728">
        <ele>1454.2</ele>
        <time>2003-04-14T06:18:40Z</time>
      </trkpt>
      <trkpt lat="32.079651989042759" lon="-4.900992996990681">
        <ele>1452.9000000000001</ele>
        <time>2003-04-14T06:18:44Z</time>
      </trkpt>
      <trkpt lat="32.078878004103899" lon="-4.901633039116859">
        <ele>1452</ele>
        <time>2003-04-14T06:18:48Z</time>
      </trkpt>
      <trkpt lat="32.078124973922968" lon="-4.902254976332188">
        <ele>1451.8</ele>
        <time>2003-04-14T06:18:52Z</time>
      </trkpt>
      <trkpt lat="32.077187960967422" lon="-4.902974981814623">
        <ele>1449.8</ele>
        <time>2003-04-14T06:18:56Z</time>
      </trkpt>
      <trkpt lat="32.076382962986827" lon="-4.903547968715429">
        <ele>1445.2</ele>
        <time>2003-04-14T06:19:00Z</time>
      </trkpt>
      <trkpt lat="32.075562961399555" lon="-4.904136965051293">
        <ele>1444.5999999999999</ele>
        <time>2003-04-14T06:19:04Z</time>
      </trkpt>
      <trkpt lat="32.074619997292757" lon="-4.904838027432561">
        <ele>1440.8</ele>
        <time>2003-04-14T06:19:10Z</time>
      </trkpt>
      <trkpt lat="32.073832014575601" lon="-4.905400034040213">
        <ele>1433.3</ele>
        <time>2003-04-14T06:19:14Z</time>
      </trkpt>
      <trkpt lat="32.07301301881671" lon="-4.90599699318409">
        <ele>1435.7</ele>
        <time>2003-04-14T06:19:18Z</time>
      </trkpt>
      <trkpt lat="32.072217995300889" lon="-4.906560005620122">
        <ele>1440.5</ele>
        <time>2003-04-14T06:19:22Z</time>
      </trkpt>
      <trkpt lat="32.071418026462197" lon="-4.907129975035787">
        <ele>1438.9000000000001</ele>
        <time>2003-04-14T06:19:26Z</time>
      </trkpt>
      <trkpt lat="32.07045704126358" lon="-4.907787032425404">
        <ele>1441</ele>
        <time>2003-04-14T06:19:30Z</time>
      </trkpt>
      <trkpt lat="32.069812975823879" lon="-4.908012002706528">
        <ele>1440</ele>
        <time>2003-04-14T06:19:34Z</time>
      </trkpt>
      <trkpt lat="32.068928014487028" lon="-4.90829698741436">
        <ele>1438.8</ele>
        <time>2003-04-14T06:19:38Z</time>
      </trkpt>
      <trkpt lat="32.067865021526814" lon="-4.908696971833706">
        <ele>1441.0999999999999</ele>
        <time>2003-04-14T06:19:42Z</time>
      </trkpt>
      <trkpt lat="32.066812003031373" lon="-4.909056974574924">
        <ele>1441.8</ele>
        <time>2003-04-14T06:19:48Z</time>
      </trkpt>
      <trkpt lat="32.065944978967309" lon="-4.909402979537845">
        <ele>1441.0999999999999</ele>
        <time>2003-04-14T06:19:52Z</time>
      </trkpt>
      <trkpt lat="32.065052976831794" lon="-4.909859960898757">
        <ele>1440.9000000000001</ele>
        <time>2003-04-14T06:19:56Z</time>
      </trkpt>
      <trkpt lat="32.064123004674911" lon="-4.910348039120436">
        <ele>1440.3</ele>
        <time>2003-04-14T06:20:00Z</time>
      </trkpt>
      <trkpt lat="32.063150033354759" lon="-4.910862017422915">
        <ele>1439.3</ele>
        <time>2003-04-14T06:20:04Z</time>
      </trkpt>
      <trkpt lat="32.062140014022589" lon="-4.911408014595509">
        <ele>1437.8</ele>
        <time>2003-04-14T06:20:08Z</time>
      </trkpt>
      <trkpt lat="32.061071991920471" lon="-4.911977984011173">
        <ele>1435.5999999999999</ele>
        <time>2003-04-14T06:20:12Z</time>
      </trkpt>
      <trkpt lat="32.059983015060425" lon="-4.912554994225502">
        <ele>1435</ele>
        <time>2003-04-14T06:20:16Z</time>
      </trkpt>
      <trkpt lat="32.058969978243113" lon="-4.913080036640167">
        <ele>1439.3</ele>
        <time>2003-04-14T06:20:20Z</time>
      </trkpt>
      <trkpt lat="32.057991977781057" lon="-4.913601977750659">
        <ele>1437.7</ele>
        <time>2003-04-14T06:20:24Z</time>
      </trkpt>
      <trkpt lat="32.057387977838516" lon="-4.913943037390709">
        <ele>1439</ele>
        <time>2003-04-14T06:20:27Z</time>
      </trkpt>
      <trkpt lat="32.057232996448874" lon="-4.91407698020339">
        <ele>1439.8</ele>
        <time>2003-04-14T06:20:28Z</time>
      </trkpt>
      <trkpt lat="32.057101987302303" lon="-4.914237996563315">
        <ele>1439.9000000000001</ele>
        <time>2003-04-14T06:20:28Z</time>
      </trkpt>
      <trkpt lat="32.05700802616775" lon="-4.914412004873157">
        <ele>1439.5</ele>
        <time>2003-04-14T06:20:29Z</time>
      </trkpt>
      <trkpt lat="32.056841980665922" lon="-4.914677040651441">
        <ele>1439.3</ele>
        <time>2003-04-14T06:20:32Z</time>
      </trkpt>
      <trkpt lat="32.05675195902586" lon="-4.914734959602356">
        <ele>1438.7</ele>
        <time>2003-04-14T06:20:32Z</time>
      </trkpt>
      <trkpt lat="32.056641988456249" lon="-4.914732025936246">
        <ele>1438.4000000000001</ele>
        <time>2003-04-14T06:20:33Z</time>
      </trkpt>
      <trkpt lat="32.056520031765103" lon="-4.91469799540937">
        <ele>1437.7</ele>
        <time>2003-04-14T06:20:35Z</time>
      </trkpt>
      <trkpt lat="32.056249966844916" lon="-4.914594981819391">
        <ele>1435.8</ele>
        <time>2003-04-14T06:20:36Z</time>
      </trkpt>
      <trkpt lat="32.055930029600859" lon="-4.914490040391684">
        <ele>1432.8</ele>
        <time>2003-04-14T06:20:39Z</time>
      </trkpt>
      <trkpt lat="32.055457038804889" lon="-4.91441996768117">
        <ele>1429.2</ele>
        <time>2003-04-14T06:20:42Z</time>
      </trkpt>
      <trkpt lat="32.055313037708402" lon="-4.914485011249781">
        <ele>1428.3</ele>
        <time>2003-04-14T06:20:43Z</time>
      </trkpt>
      <trkpt lat="32.055180016905069" lon="-4.91459196433425">
        <ele>1427.0999999999999</ele>
        <time>2003-04-14T06:20:43Z</time>
      </trkpt>
      <trkpt lat="32.054762011393905" lon="-4.914988009259105">
        <ele>1421.0999999999999</ele>
        <time>2003-04-14T06:20:47Z</time>
      </trkpt>
      <trkpt lat="32.053922982886434" lon="-4.915704997256398">
        <ele>1418.5999999999999</ele>
        <time>2003-04-14T06:20:51Z</time>
      </trkpt>
      <trkpt lat="32.053156960755587" lon="-4.916292987763882">
        <ele>1416.4000000000001</ele>
        <time>2003-04-14T06:20:55Z</time>
      </trkpt>
      <trkpt lat="32.052322961390018" lon="-4.916857006028295">
        <ele>1415.5999999999999</ele>
        <time>2003-04-14T06:20:59Z</time>
      </trkpt>
      <trkpt lat="32.051434982568026" lon="-4.91742798127234">
        <ele>1412.8</ele>
        <time>2003-04-14T06:21:03Z</time>
      </trkpt>
      <trkpt lat="32.050522025674582" lon="-4.918023012578487">
        <ele>1411.5</ele>
        <time>2003-04-14T06:21:07Z</time>
      </trkpt>
      <trkpt lat="32.049598004668951" lon="-4.918619971722364">
        <ele>1410.5999999999999</ele>
        <time>2003-04-14T06:21:11Z</time>
      </trkpt>
      <trkpt lat="32.048669960349798" lon="-4.919226989150047">
        <ele>1409.0999999999999</ele>
        <time>2003-04-14T06:21:15Z</time>
      </trkpt>
      <trkpt lat="32.047743005678058" lon="-4.919829983264208">
        <ele>1409.3</ele>
        <time>2003-04-14T06:21:19Z</time>
      </trkpt>
      <trkpt lat="32.046817978844047" lon="-4.920421997085214">
        <ele>1409.9000000000001</ele>
        <time>2003-04-14T06:21:23Z</time>
      </trkpt>
      <trkpt lat="32.045914996415377" lon="-4.921021973714232">
        <ele>1410.4000000000001</ele>
        <time>2003-04-14T06:21:27Z</time>
      </trkpt>
      <trkpt lat="32.045015031471848" lon="-4.921603007242084">
        <ele>1410.3</ele>
        <time>2003-04-14T06:21:32Z</time>
      </trkpt>
      <trkpt lat="32.044131997972727" lon="-4.922212958335877">
        <ele>1410.8</ele>
        <time>2003-04-14T06:21:36Z</time>
      </trkpt>
      <trkpt lat="32.043727990239859" lon="-4.922602968290448">
        <ele>1411.4000000000001</ele>
        <time>2003-04-14T06:21:37Z</time>
      </trkpt>
      <trkpt lat="32.042930033057928" lon="-4.923448031768203">
        <ele>1411.0999999999999</ele>
        <time>2003-04-14T06:21:41Z</time>
      </trkpt>
      <trkpt lat="32.042116988450289" lon="-4.924282031133771">
        <ele>1410.9000000000001</ele>
        <time>2003-04-14T06:21:45Z</time>
      </trkpt>
      <trkpt lat="32.041358007118106" lon="-4.925092980265617">
        <ele>1410.9000000000001</ele>
        <time>2003-04-14T06:21:49Z</time>
      </trkpt>
      <trkpt lat="32.040612017735839" lon="-4.925929997116327">
        <ele>1409.8</ele>
        <time>2003-04-14T06:21:53Z</time>
      </trkpt>
      <trkpt lat="32.039859993383288" lon="-4.926761984825134">
        <ele>1409.0999999999999</ele>
        <time>2003-04-14T06:21:57Z</time>
      </trkpt>
      <trkpt lat="32.039124984294176" lon="-4.927605036646128">
        <ele>1408.4000000000001</ele>
        <time>2003-04-14T06:22:01Z</time>
      </trkpt>
      <trkpt lat="32.038376983255148" lon="-4.928435012698174">
        <ele>1407.0999999999999</ele>
        <time>2003-04-14T06:22:05Z</time>
      </trkpt>
      <trkpt lat="32.037638034671545" lon="-4.929268006235361">
        <ele>1407</ele>
        <time>2003-04-14T06:22:09Z</time>
      </trkpt>
      <trkpt lat="32.036909982562065" lon="-4.93008297868073">
        <ele>1406.7</ele>
        <time>2003-04-14T06:22:13Z</time>
      </trkpt>
      <trkpt lat="32.036197017878294" lon="-4.93089996278286">
        <ele>1405.7</ele>
        <time>2003-04-14T06:22:17Z</time>
      </trkpt>
      <trkpt lat="32.035475000739098" lon="-4.931712001562119">
        <ele>1405.5999999999999</ele>
        <time>2003-04-14T06:22:21Z</time>
      </trkpt>
      <trkpt lat="32.034749966114759" lon="-4.932524962350726">
        <ele>1403.3</ele>
        <time>2003-04-14T06:22:26Z</time>
      </trkpt>
      <trkpt lat="32.034028032794595" lon="-4.933323003351688">
        <ele>1402.7</ele>
        <time>2003-04-14T06:22:30Z</time>
      </trkpt>
      <trkpt lat="32.033350020647049" lon="-4.934132024645805">
        <ele>1403.3</ele>
        <time>2003-04-14T06:22:34Z</time>
      </trkpt>
      <trkpt lat="32.032947018742561" lon="-4.934826968237758">
        <ele>1403.4000000000001</ele>
        <time>2003-04-14T06:22:36Z</time>
      </trkpt>
      <trkpt lat="32.03247201628983" lon="-4.935843022540212">
        <ele>1401.9000000000001</ele>
        <time>2003-04-14T06:22:40Z</time>
      </trkpt>
      <trkpt lat="32.031979998573661" lon="-4.93687198497355">
        <ele>1402.0999999999999</ele>
        <time>2003-04-14T06:22:44Z</time>
      </trkpt>
      <trkpt lat="32.03150499612093" lon="-4.937855014577508">
        <ele>1401.0999999999999</ele>
        <time>2003-04-14T06:22:48Z</time>
      </trkpt>
      <trkpt lat="32.031035022810102" lon="-4.938837038353086">
        <ele>1398.0999999999999</ele>
        <time>2003-04-14T06:22:53Z</time>
      </trkpt>
      <trkpt lat="32.030563037842512" lon="-4.939798023551703">
        <ele>1395.8</ele>
        <time>2003-04-14T06:22:57Z</time>
      </trkpt>
      <trkpt lat="32.030134974047542" lon="-4.940758002921939">
        <ele>1394.3</ele>
        <time>2003-04-14T06:23:01Z</time>
      </trkpt>
      <trkpt lat="32.029943028464913" lon="-4.941537017002702">
        <ele>1394.0999999999999</ele>
        <time>2003-04-14T06:23:03Z</time>
      </trkpt>
      <trkpt lat="32.029706994071603" lon="-4.942600009962916">
        <ele>1395.2</ele>
        <time>2003-04-14T06:23:07Z</time>
      </trkpt>
      <trkpt lat="32.029474982991815" lon="-4.94366199709475">
        <ele>1396</ele>
        <time>2003-04-14T06:23:11Z</time>
      </trkpt>
      <trkpt lat="32.029402982443571" lon="-4.944192990660667">
        <ele>1396.3</ele>
        <time>2003-04-14T06:23:14Z</time>
      </trkpt>
      <trkpt lat="32.029401976615191" lon="-4.945281967520714">
        <ele>1395.7</ele>
        <time>2003-04-14T06:23:18Z</time>
      </trkpt>
      <trkpt lat="32.029423015192151" lon="-4.946372034028173">
        <ele>1394.0999999999999</ele>
        <time>2003-04-14T06:23:22Z</time>
      </trkpt>
      <trkpt lat="32.029386973008513" lon="-4.94742002338171">
        <ele>1391.9000000000001</ele>
        <time>2003-04-14T06:23:25Z</time>
      </trkpt>
      <trkpt lat="32.029244983568788" lon="-4.94787197560072">
        <ele>1391.5999999999999</ele>
        <time>2003-04-14T06:23:28Z</time>
      </trkpt>
      <trkpt lat="32.029022024944425" lon="-4.948286963626742">
        <ele>1391.8</ele>
        <time>2003-04-14T06:23:29Z</time>
      </trkpt>
      <trkpt lat="32.028407966718078" lon="-4.949362026527524">
        <ele>1392.8</ele>
        <time>2003-04-14T06:23:34Z</time>
      </trkpt>
      <trkpt lat="32.027991972863674" lon="-4.950199965387583">
        <ele>1395.5999999999999</ele>
        <time>2003-04-14T06:23:40Z</time>
      </trkpt>
      <trkpt lat="32.027909997850657" lon="-4.950615037232637">
        <ele>1395.9000000000001</ele>
        <time>2003-04-14T06:23:41Z</time>
      </trkpt>
      <trkpt lat="32.027927013114095" lon="-4.950819974765182">
        <ele>1395.8</ele>
        <time>2003-04-14T06:23:42Z</time>
      </trkpt>
      <trkpt lat="32.027966994792223" lon="-4.950998006388545">
        <ele>1395.5</ele>
        <time>2003-04-14T06:23:44Z</time>
      </trkpt>
      <trkpt lat="32.027991972863674" lon="-4.951315009966493">
        <ele>1394.0999999999999</ele>
        <time>2003-04-14T06:23:45Z</time>
      </trkpt>
      <trkpt lat="32.027945034205914" lon="-4.951479965820909">
        <ele>1393.3</ele>
        <time>2003-04-14T06:23:47Z</time>
      </trkpt>
      <trkpt lat="32.027870016172528" lon="-4.951642993837595">
        <ele>1392.4000000000001</ele>
        <time>2003-04-14T06:23:48Z</time>
      </trkpt>
      <trkpt lat="32.027759961783886" lon="-4.951793029904366">
        <ele>1391.3</ele>
        <time>2003-04-14T06:23:48Z</time>
      </trkpt>
      <trkpt lat="32.027265010401607" lon="-4.952442962676287">
        <ele>1388.2</ele>
        <time>2003-04-14T06:23:52Z</time>
      </trkpt>
      <trkpt lat="32.026607031002641" lon="-4.953379975631833">
        <ele>1386.5</ele>
        <time>2003-04-14T06:23:57Z</time>
      </trkpt>
      <trkpt lat="32.026028009131551" lon="-4.954193020239472">
        <ele>1386.2</ele>
        <time>2003-04-14T06:24:01Z</time>
      </trkpt>
      <trkpt lat="32.025319989770651" lon="-4.955215025693178">
        <ele>1388</ele>
        <time>2003-04-14T06:24:07Z</time>
      </trkpt>
      <trkpt lat="32.024839958176017" lon="-4.955747025087476">
        <ele>1387.9000000000001</ele>
        <time>2003-04-14T06:24:09Z</time>
      </trkpt>
      <trkpt lat="32.024075025692582" lon="-4.956312971189618">
        <ele>1386.5999999999999</ele>
        <time>2003-04-14T06:24:14Z</time>
      </trkpt>
      <trkpt lat="32.023295005783439" lon="-4.956931974738836">
        <ele>1386.0999999999999</ele>
        <time>2003-04-14T06:24:18Z</time>
      </trkpt>
      <trkpt lat="32.022486990317702" lon="-4.957558019086719">
        <ele>1384.5999999999999</ele>
        <time>2003-04-14T06:24:22Z</time>
      </trkpt>
      <trkpt lat="32.021675035357475" lon="-4.958177022635937">
        <ele>1382</ele>
        <time>2003-04-14T06:24:26Z</time>
      </trkpt>
      <trkpt lat="32.020962992683053" lon="-4.958816980943084">
        <ele>1381</ele>
        <time>2003-04-14T06:24:30Z</time>
      </trkpt>
      <trkpt lat="32.020686976611614" lon="-4.959247978404164">
        <ele>1380.3</ele>
        <time>2003-04-14T06:24:31Z</time>
      </trkpt>
      <trkpt lat="32.020109966397285" lon="-4.960164958611131">
        <ele>1378.7</ele>
        <time>2003-04-14T06:24:35Z</time>
      </trkpt>
      <trkpt lat="32.019470008090138" lon="-4.961114963516593">
        <ele>1375.4000000000001</ele>
        <time>2003-04-14T06:24:39Z</time>
      </trkpt>
      <trkpt lat="32.018880005925894" lon="-4.962021969258785">
        <ele>1374.2</ele>
        <time>2003-04-14T06:24:43Z</time>
      </trkpt>
      <trkpt lat="32.018224960193038" lon="-4.963053027167916">
        <ele>1371.7</ele>
        <time>2003-04-14T06:24:49Z</time>
      </trkpt>
      <trkpt lat="32.01792698353529" lon="-4.963370030745864">
        <ele>1371.3</ele>
        <time>2003-04-14T06:24:50Z</time>
      </trkpt>
      <trkpt lat="32.017750041559339" lon="-4.963464997708798">
        <ele>1370.8</ele>
        <time>2003-04-14T06:24:51Z</time>
      </trkpt>
      <trkpt lat="32.017562035471201" lon="-4.963517971336842">
        <ele>1370.5</ele>
        <time>2003-04-14T06:24:53Z</time>
      </trkpt>
      <trkpt lat="32.016561990603805" lon="-4.963758029043675">
        <ele>1369.7</ele>
        <time>2003-04-14T06:24:58Z</time>
      </trkpt>
      <trkpt lat="32.015692032873631" lon="-4.964054999873042">
        <ele>1367.0999999999999</ele>
        <time>2003-04-14T06:25:02Z</time>
      </trkpt>
      <trkpt lat="32.015552977100015" lon="-4.964169999584556">
        <ele>1366.7</ele>
        <time>2003-04-14T06:25:03Z</time>
      </trkpt>
      <trkpt lat="32.01543303206563" lon="-4.96430997736752">
        <ele>1366.0999999999999</ele>
        <time>2003-04-14T06:25:05Z</time>
      </trkpt>
      <trkpt lat="32.01532700099051" lon="-4.96447803452611">
        <ele>1365.2</ele>
        <time>2003-04-14T06:25:06Z</time>
      </trkpt>
      <trkpt lat="32.014795001596212" lon="-4.965450000017881">
        <ele>1361.9000000000001</ele>
        <time>2003-04-14T06:25:10Z</time>
      </trkpt>
      <trkpt lat="32.014186978340149" lon="-4.96656202711165">
        <ele>1358.7</ele>
        <time>2003-04-14T06:25:16Z</time>
      </trkpt>
      <trkpt lat="32.013696972280741" lon="-4.967453023418784">
        <ele>1363.8</ele>
        <time>2003-04-14T06:25:20Z</time>
      </trkpt>
      <trkpt lat="32.013281984254718" lon="-4.968204963952303">
        <ele>1364.8</ele>
        <time>2003-04-14T06:25:24Z</time>
      </trkpt>
      <trkpt lat="32.012700028717518" lon="-4.969202997162938">
        <ele>1357.7</ele>
        <time>2003-04-14T06:25:29Z</time>
      </trkpt>
      <trkpt lat="32.012107009068131" lon="-4.970276970416307">
        <ele>1361</ele>
        <time>2003-04-14T06:25:33Z</time>
      </trkpt>
      <trkpt lat="32.01195303350687" lon="-4.970736969262362">
        <ele>1361.8</ele>
        <time>2003-04-14T06:25:36Z</time>
      </trkpt>
      <trkpt lat="32.0119100343436" lon="-4.970975015312433">
        <ele>1363.3</ele>
        <time>2003-04-14T06:25:37Z</time>
      </trkpt>
      <trkpt lat="32.011701995506883" lon="-4.972055023536086">
        <ele>1370.3</ele>
        <time>2003-04-14T06:25:41Z</time>
      </trkpt>
      <trkpt lat="32.011627983301878" lon="-4.97249498963356">
        <ele>1368.5999999999999</ele>
        <time>2003-04-14T06:25:44Z</time>
      </trkpt>
      <trkpt lat="32.011466966941953" lon="-4.973659990355372">
        <ele>1362.9000000000001</ele>
        <time>2003-04-14T06:25:48Z</time>
      </trkpt>
      <trkpt lat="32.011279966682196" lon="-4.974872013553977">
        <ele>1358.5</ele>
        <time>2003-04-14T06:25:53Z</time>
      </trkpt>
      <trkpt lat="32.011077040806413" lon="-4.97614799067378">
        <ele>1359.2</ele>
        <time>2003-04-14T06:25:59Z</time>
      </trkpt>
      <trkpt lat="32.010917030274868" lon="-4.977192962542176">
        <ele>1361.7</ele>
        <time>2003-04-14T06:26:03Z</time>
      </trkpt>
      <trkpt lat="32.010698011144996" lon="-4.978477992117405">
        <ele>1366.4000000000001</ele>
        <time>2003-04-14T06:26:07Z</time>
      </trkpt>
      <trkpt lat="32.010500030592084" lon="-4.979745000600815">
        <ele>1369.5</ele>
        <time>2003-04-14T06:26:12Z</time>
      </trkpt>
      <trkpt lat="32.01044999063015" lon="-4.980397028848529">
        <ele>1375.0999999999999</ele>
        <time>2003-04-14T06:26:15Z</time>
      </trkpt>
      <trkpt lat="32.010515034198761" lon="-4.980816962197423">
        <ele>1376.5</ele>
        <time>2003-04-14T06:26:18Z</time>
      </trkpt>
      <trkpt lat="32.010660041123629" lon="-4.981914991512895">
        <ele>1378.3</ele>
        <time>2003-04-14T06:26:23Z</time>
      </trkpt>
      <trkpt lat="32.010802030563354" lon="-4.983070017769933">
        <ele>1380.8</ele>
        <time>2003-04-14T06:26:27Z</time>
      </trkpt>
      <trkpt lat="32.010957011952996" lon="-4.984227977693081">
        <ele>1383.3</ele>
        <time>2003-04-14T06:26:33Z</time>
      </trkpt>
      <trkpt lat="32.010949971154332" lon="-4.984674984589219">
        <ele>1384.5999999999999</ele>
        <time>2003-04-14T06:26:34Z</time>
      </trkpt>
      <trkpt lat="32.01090001501143" lon="-4.984898027032614">
        <ele>1384.4000000000001</ele>
        <time>2003-04-14T06:26:35Z</time>
      </trkpt>
      <trkpt lat="32.01062198728323" lon="-4.986056992784143">
        <ele>1385.0999999999999</ele>
        <time>2003-04-14T06:26:41Z</time>
      </trkpt>
      <trkpt lat="32.010337002575397" lon="-4.987270021811128">
        <ele>1386.0999999999999</ele>
        <time>2003-04-14T06:26:46Z</time>
      </trkpt>
      <trkpt lat="32.010076995939016" lon="-4.988467041403055">
        <ele>1386.5</ele>
        <time>2003-04-14T06:26:50Z</time>
      </trkpt>
      <trkpt lat="32.009769966825843" lon="-4.989600023254752">
        <ele>1387.4000000000001</ele>
        <time>2003-04-14T06:26:56Z</time>
      </trkpt>
      <trkpt lat="32.009378029033542" lon="-4.990710038691759">
        <ele>1383.8</ele>
        <time>2003-04-14T06:27:01Z</time>
      </trkpt>
      <trkpt lat="32.009192034602165" lon="-4.991087978705764">
        <ele>1386.7</ele>
        <time>2003-04-14T06:27:02Z</time>
      </trkpt>
      <trkpt lat="32.008824991062284" lon="-4.991602040827274">
        <ele>1385.5999999999999</ele>
        <time>2003-04-14T06:27:05Z</time>
      </trkpt>
      <trkpt lat="32.008232977241278" lon="-4.992407960817218">
        <ele>1382.5</ele>
        <time>2003-04-14T06:27:10Z</time>
      </trkpt>
      <trkpt lat="32.00759201310575" lon="-4.9933120328933">
        <ele>1383</ele>
        <time>2003-04-14T06:27:17Z</time>
      </trkpt>
      <trkpt lat="32.006951970979571" lon="-4.994213003665209">
        <ele>1379.5</ele>
        <time>2003-04-14T06:27:23Z</time>
      </trkpt>
      <trkpt lat="32.006294997408986" lon="-4.995116991922259">
        <ele>1378.7</ele>
        <time>2003-04-14T06:27:28Z</time>
      </trkpt>
      <trkpt lat="32.005586978048086" lon="-4.996066996827722">
        <ele>1375.7</ele>
        <time>2003-04-14T06:27:35Z</time>
      </trkpt>
      <trkpt lat="32.004860015586019" lon="-4.99700996093452">
        <ele>1373.5999999999999</ele>
        <time>2003-04-14T06:27:40Z</time>
      </trkpt>
      <trkpt lat="32.004121989011765" lon="-4.997714962810278">
        <ele>1370.5</ele>
        <time>2003-04-14T06:27:45Z</time>
      </trkpt>
      <trkpt lat="32.003372982144356" lon="-4.998462041839957">
        <ele>1367.5</ele>
        <time>2003-04-14T06:27:51Z</time>
      </trkpt>
      <trkpt lat="32.002607965841889" lon="-4.999201996251941">
        <ele>1364.7</ele>
        <time>2003-04-14T06:27:55Z</time>
      </trkpt>
      <trkpt lat="32.001922996714711" lon="-4.999898029491305">
        <ele>1362.3</ele>
        <time>2003-04-14T06:28:00Z</time>
      </trkpt>
      <trkpt lat="32.001593001186848" lon="-5.000366996973753">
        <ele>1359.9000000000001</ele>
        <time>2003-04-14T06:28:03Z</time>
      </trkpt>
      <trkpt lat="32.001423016190529" lon="-5.000757006928325">
        <ele>1357</ele>
        <time>2003-04-14T06:28:06Z</time>
      </trkpt>
      <trkpt lat="32.001029988750815" lon="-5.00177800655365">
        <ele>1350.9000000000001</ele>
        <time>2003-04-14T06:28:11Z</time>
      </trkpt>
      <trkpt lat="32.00028701685369" lon="-5.00351800583303">
        <ele>1352.0999999999999</ele>
        <time>2003-04-14T06:28:19Z</time>
      </trkpt>
      <trkpt lat="31.9994299672544" lon="-5.003932993859053">
        <ele>1352.7</ele>
        <time>2003-04-14T06:28:26Z</time>
      </trkpt>
      <trkpt lat="31.99927699752152" lon="-5.003887983039022">
        <ele>1352.5999999999999</ele>
        <time>2003-04-14T06:28:26Z</time>
      </trkpt>
      <trkpt lat="31.998535031452775" lon="-5.003554970026016">
        <ele>1351.8</ele>
        <time>2003-04-14T06:28:33Z</time>
      </trkpt>
      <trkpt lat="31.997655015438795" lon="-5.003100000321865">
        <ele>1348.8</ele>
        <time>2003-04-14T06:28:45Z</time>
      </trkpt>
      <trkpt lat="31.997357960790396" lon="-5.00287301838398">
        <ele>1347.7</ele>
        <time>2003-04-14T06:28:48Z</time>
      </trkpt>
      <trkpt lat="31.997272968292236" lon="-5.002770004794002">
        <ele>1347.5999999999999</ele>
        <time>2003-04-14T06:28:49Z</time>
      </trkpt>
      <trkpt lat="31.996641978621483" lon="-5.001986967399716">
        <ele>1344.8</ele>
        <time>2003-04-14T06:28:57Z</time>
      </trkpt>
      <trkpt lat="31.996037978678942" lon="-5.002072965726256">
        <ele>1347.4000000000001</ele>
        <time>2003-04-14T06:29:05Z</time>
      </trkpt>
      <trkpt lat="31.995945023372769" lon="-5.002167010679841">
        <ele>1347.7</ele>
        <time>2003-04-14T06:29:13Z</time>
      </trkpt>
      <trkpt lat="31.995828012004495" lon="-5.002202969044447">
        <ele>1347.7</ele>
        <time>2003-04-14T06:29:19Z</time>
      </trkpt>
      <trkpt lat="31.994912037625909" lon="-5.002016974613071">
        <ele>1340.0999999999999</ele>
        <time>2003-04-14T06:29:40Z</time>
      </trkpt>
      <trkpt lat="31.994652030989528" lon="-5.002022003754973">
        <ele>1338.8</ele>
        <time>2003-04-14T06:29:44Z</time>
      </trkpt>
      <trkpt lat="31.994403004646301" lon="-5.002062991261482">
        <ele>1335.5999999999999</ele>
        <time>2003-04-14T06:29:47Z</time>
      </trkpt>
      <trkpt lat="31.994015006348491" lon="-5.002112025395036">
        <ele>1334.8</ele>
        <time>2003-04-14T06:29:52Z</time>
      </trkpt>
      <trkpt lat="31.993872011080384" lon="-5.002071959897876">
        <ele>1333.4000000000001</ele>
        <time>2003-04-14T06:29:55Z</time>
      </trkpt>
      <trkpt lat="31.993704959750175" lon="-5.001980010420084">
        <ele>1331.0999999999999</ele>
        <time>2003-04-14T06:29:56Z</time>
      </trkpt>
      <trkpt lat="31.993492981418967" lon="-5.001812037080526">
        <ele>1330.3</ele>
        <time>2003-04-14T06:29:59Z</time>
      </trkpt>
      <trkpt lat="31.993253007531166" lon="-5.001625036820769">
        <ele>1330.4000000000001</ele>
        <time>2003-04-14T06:30:03Z</time>
      </trkpt>
      <trkpt lat="31.993065001443028" lon="-5.001565022394061">
        <ele>1328.5</ele>
        <time>2003-04-14T06:30:07Z</time>
      </trkpt>
      <trkpt lat="31.992929968982935" lon="-5.001511964946985">
        <ele>1327.2</ele>
        <time>2003-04-14T06:30:09Z</time>
      </trkpt>
      <trkpt lat="31.992808012291789" lon="-5.001444993540645">
        <ele>1326.4000000000001</ele>
        <time>2003-04-14T06:30:10Z</time>
      </trkpt>
      <trkpt lat="31.992648001760244" lon="-5.001311972737312">
        <ele>1325.3</ele>
        <time>2003-04-14T06:30:14Z</time>
      </trkpt>
      <trkpt lat="31.992556974291801" lon="-5.001207031309605">
        <ele>1324.7</ele>
        <time>2003-04-14T06:30:15Z</time>
      </trkpt>
      <trkpt lat="31.992318006232381" lon="-5.000922968611121">
        <ele>1322.3</ele>
        <time>2003-04-14T06:30:21Z</time>
      </trkpt>
      <trkpt lat="31.9921650364995" lon="-5.000772010535002">
        <ele>1320.8</ele>
        <time>2003-04-14T06:30:23Z</time>
      </trkpt>
      <trkpt lat="31.992117008194327" lon="-5.000622980296612">
        <ele>1320.3</ele>
        <time>2003-04-14T06:30:26Z</time>
      </trkpt>
      <trkpt lat="31.992073003202677" lon="-5.000287033617497">
        <ele>1321.8</ele>
        <time>2003-04-14T06:30:30Z</time>
      </trkpt>
      <trkpt lat="31.992071997374296" lon="-5.000034989789128">
        <ele>1325</ele>
        <time>2003-04-14T06:30:33Z</time>
      </trkpt>
      <trkpt lat="31.992027992382646" lon="-4.99975997954607">
        <ele>1326.2</ele>
        <time>2003-04-14T06:30:37Z</time>
      </trkpt>
      <trkpt lat="31.992032015696168" lon="-4.999616984277964">
        <ele>1326.4000000000001</ele>
        <time>2003-04-14T06:30:38Z</time>
      </trkpt>
      <trkpt lat="31.992022041231394" lon="-4.999453034251928">
        <ele>1325.5</ele>
        <time>2003-04-14T06:30:41Z</time>
      </trkpt>
      <trkpt lat="31.991988010704517" lon="-4.999144999310374">
        <ele>1324.7</ele>
        <time>2003-04-14T06:30:45Z</time>
      </trkpt>
      <trkpt lat="31.991854989901185" lon="-4.998735040426254">
        <ele>1324.2</ele>
        <time>2003-04-14T06:30:50Z</time>
      </trkpt>
      <trkpt lat="31.991724986582994" lon="-4.998505041003227">
        <ele>1323.5</ele>
        <time>2003-04-14T06:30:54Z</time>
      </trkpt>
      <trkpt lat="31.991317039355636" lon="-4.997872961685062">
        <ele>1320.2</ele>
        <time>2003-04-14T06:31:05Z</time>
      </trkpt>
      <trkpt lat="31.991234980523586" lon="-4.997771959751844">
        <ele>1321.0999999999999</ele>
        <time>2003-04-14T06:31:08Z</time>
      </trkpt>
      <trkpt lat="31.991106988862157" lon="-4.997514970600605">
        <ele>1322</ele>
        <time>2003-04-14T06:31:12Z</time>
      </trkpt>
      <trkpt lat="31.991016967222095" lon="-4.997386978939176">
        <ele>1321.5999999999999</ele>
        <time>2003-04-14T06:31:13Z</time>
      </trkpt>
      <trkpt lat="31.990697029978037" lon="-4.996905019506812">
        <ele>1322</ele>
        <time>2003-04-14T06:31:20Z</time>
      </trkpt>
      <trkpt lat="31.990378014743328" lon="-4.996317028999329">
        <ele>1321.7</ele>
        <time>2003-04-14T06:31:28Z</time>
      </trkpt>
      <trkpt lat="31.990353036671877" lon="-4.996146960183978">
        <ele>1321</ele>
        <time>2003-04-14T06:31:31Z</time>
      </trkpt>
      <trkpt lat="31.990311965346336" lon="-4.995968006551266">
        <ele>1318.8</ele>
        <time>2003-04-14T06:31:32Z</time>
      </trkpt>
      <trkpt lat="31.9902119692415" lon="-4.995749993249774">
        <ele>1318.9000000000001</ele>
        <time>2003-04-14T06:31:35Z</time>
      </trkpt>
      <trkpt lat="31.990081965923309" lon="-4.99567698687315">
        <ele>1318.7</ele>
        <time>2003-04-14T06:31:38Z</time>
      </trkpt>
      <trkpt lat="31.989869987592101" lon="-4.995591994374991">
        <ele>1319</ele>
        <time>2003-04-14T06:31:40Z</time>
      </trkpt>
      <trkpt lat="31.989763034507632" lon="-4.995470037683845">
        <ele>1321.0999999999999</ele>
        <time>2003-04-14T06:31:43Z</time>
      </trkpt>
      <trkpt lat="31.989690028131008" lon="-4.995299968868494">
        <ele>1320.8</ele>
        <time>2003-04-14T06:31:44Z</time>
      </trkpt>
      <trkpt lat="31.989355003461242" lon="-4.994597984477878">
        <ele>1320.2</ele>
        <time>2003-04-14T06:31:54Z</time>
      </trkpt>
      <trkpt lat="31.989059960469604" lon="-4.993945034220815">
        <ele>1320.5</ele>
        <time>2003-04-14T06:32:02Z</time>
      </trkpt>
      <trkpt lat="31.988989971578121" lon="-4.993794998154044">
        <ele>1320</ele>
        <time>2003-04-14T06:32:05Z</time>
      </trkpt>
      <trkpt lat="31.988907996565104" lon="-4.993653008714318">
        <ele>1319.3</ele>
        <time>2003-04-14T06:32:06Z</time>
      </trkpt>
      <trkpt lat="31.98881302960217" lon="-4.99352702870965">
        <ele>1319.5999999999999</ele>
        <time>2003-04-14T06:32:09Z</time>
      </trkpt>
      <trkpt lat="31.988617982715368" lon="-4.993253024294972">
        <ele>1319.7</ele>
        <time>2003-04-14T06:32:13Z</time>
      </trkpt>
      <trkpt lat="31.988437017425895" lon="-4.992956975474954">
        <ele>1320.2</ele>
        <time>2003-04-14T06:32:17Z</time>
      </trkpt>
      <trkpt lat="31.988286981359124" lon="-4.992739968001843">
        <ele>1319.8</ele>
        <time>2003-04-14T06:32:20Z</time>
      </trkpt>
      <trkpt lat="31.987756993621588" lon="-4.991855006664991">
        <ele>1319.3</ele>
        <time>2003-04-14T06:32:30Z</time>
      </trkpt>
      <trkpt lat="31.987191969528794" lon="-4.990953030064702">
        <ele>1318.5999999999999</ele>
        <time>2003-04-14T06:32:41Z</time>
      </trkpt>
      <trkpt lat="31.986657036468387" lon="-4.990042001008987">
        <ele>1316.8</ele>
        <time>2003-04-14T06:32:52Z</time>
      </trkpt>
      <trkpt lat="31.98625797405839" lon="-4.989237003028393">
        <ele>1312.0999999999999</ele>
        <time>2003-04-14T06:33:04Z</time>
      </trkpt>
      <trkpt lat="31.986142974346876" lon="-4.989027958363295">
        <ele>1312</ele>
        <time>2003-04-14T06:33:07Z</time>
      </trkpt>
      <trkpt lat="31.985793029889464" lon="-4.988423036411405">
        <ele>1313.4000000000001</ele>
        <time>2003-04-14T06:33:15Z</time>
      </trkpt>
      <trkpt lat="31.985680041834712" lon="-4.988160012289882">
        <ele>1313.7</ele>
        <time>2003-04-14T06:33:18Z</time>
      </trkpt>
      <trkpt lat="31.985594965517521" lon="-4.987730020657182">
        <ele>1313.9000000000001</ele>
        <time>2003-04-14T06:33:23Z</time>
      </trkpt>
      <trkpt lat="31.985566969960928" lon="-4.987613009288907">
        <ele>1314.0999999999999</ele>
        <time>2003-04-14T06:33:24Z</time>
      </trkpt>
      <trkpt lat="31.98550502769649" lon="-4.987440006807447">
        <ele>1315.2</ele>
        <time>2003-04-14T06:33:27Z</time>
      </trkpt>
      <trkpt lat="31.985328001901507" lon="-4.987116968259215">
        <ele>1313.9000000000001</ele>
        <time>2003-04-14T06:33:32Z</time>
      </trkpt>
      <trkpt lat="31.985222976654768" lon="-4.986893003806472">
        <ele>1312.8</ele>
        <time>2003-04-14T06:33:35Z</time>
      </trkpt>
      <trkpt lat="31.985187018290162" lon="-4.986712960526347">
        <ele>1312.8</ele>
        <time>2003-04-14T06:33:38Z</time>
      </trkpt>
      <trkpt lat="31.985112000256777" lon="-4.98656501993537">
        <ele>1312.8</ele>
        <time>2003-04-14T06:33:39Z</time>
      </trkpt>
      <trkpt lat="31.984998006373644" lon="-4.986496958881617">
        <ele>1312.5</ele>
        <time>2003-04-14T06:33:43Z</time>
      </trkpt>
      <trkpt lat="31.984919970855117" lon="-4.986402997747064">
        <ele>1312.8</ele>
        <time>2003-04-14T06:33:43Z</time>
      </trkpt>
      <trkpt lat="31.984849981963634" lon="-4.986272994428873">
        <ele>1313.0999999999999</ele>
        <time>2003-04-14T06:33:46Z</time>
      </trkpt>
      <trkpt lat="31.984546976163983" lon="-4.985627001151443">
        <ele>1313.3</ele>
        <time>2003-04-14T06:33:54Z</time>
      </trkpt>
      <trkpt lat="31.984387971460819" lon="-4.985346961766481">
        <ele>1312.8</ele>
        <time>2003-04-14T06:33:59Z</time>
      </trkpt>
      <trkpt lat="31.984282024204731" lon="-4.985100030899048">
        <ele>1312.8</ele>
        <time>2003-04-14T06:34:03Z</time>
      </trkpt>
      <trkpt lat="31.9842370133847" lon="-4.984968015924096">
        <ele>1312.7</ele>
        <time>2003-04-14T06:34:10Z</time>
      </trkpt>
      <trkpt lat="31.984198037534952" lon="-4.984837006777525">
        <ele>1312.9000000000001</ele>
        <time>2003-04-14T06:34:13Z</time>
      </trkpt>
      <trkpt lat="31.984178004786372" lon="-4.984712032601237">
        <ele>1312.8</ele>
        <time>2003-04-14T06:34:14Z</time>
      </trkpt>
      <trkpt lat="31.984165012836456" lon="-4.984556967392564">
        <ele>1312.9000000000001</ele>
        <time>2003-04-14T06:34:17Z</time>
      </trkpt>
      <trkpt lat="31.984155038371682" lon="-4.984314981848002">
        <ele>1312.9000000000001</ele>
        <time>2003-04-14T06:34:18Z</time>
      </trkpt>
      <trkpt lat="31.984235001727939" lon="-4.984169974923134">
        <ele>1313.0999999999999</ele>
        <time>2003-04-14T06:34:21Z</time>
      </trkpt>
      <trkpt lat="31.984301973134279" lon="-4.984042989090085">
        <ele>1312.3</ele>
        <time>2003-04-14T06:34:24Z</time>
      </trkpt>
      <trkpt lat="31.984252016991377" lon="-4.98392203822732">
        <ele>1312.4000000000001</ele>
        <time>2003-04-14T06:34:25Z</time>
      </trkpt>
      <trkpt lat="31.984057975932956" lon="-4.983639987185597">
        <ele>1312</ele>
        <time>2003-04-14T06:34:30Z</time>
      </trkpt>
      <trkpt lat="31.984031992033124" lon="-4.983496991917491">
        <ele>1312</ele>
        <time>2003-04-14T06:34:33Z</time>
      </trkpt>
      <trkpt lat="31.984032997861505" lon="-4.983347961679101">
        <ele>1312</ele>
        <time>2003-04-14T06:34:35Z</time>
      </trkpt>
      <trkpt lat="31.984026962891221" lon="-4.983202032744885">
        <ele>1311.7</ele>
        <time>2003-04-14T06:34:37Z</time>
      </trkpt>
      <trkpt lat="31.98400198481977" lon="-4.982961975038052">
        <ele>1311.5999999999999</ele>
        <time>2003-04-14T06:34:40Z</time>
      </trkpt>
      <trkpt lat="31.984017994254827" lon="-4.982457971200347">
        <ele>1312.0999999999999</ele>
        <time>2003-04-14T06:34:48Z</time>
      </trkpt>
      <trkpt lat="31.983997039496899" lon="-4.982297038659453">
        <ele>1311.9000000000001</ele>
        <time>2003-04-14T06:34:51Z</time>
      </trkpt>
      <trkpt lat="31.983987987041473" lon="-4.982126969844103">
        <ele>1311.9000000000001</ele>
        <time>2003-04-14T06:34:52Z</time>
      </trkpt>
      <trkpt lat="31.984014976769686" lon="-4.981641992926598">
        <ele>1311.7</ele>
        <time>2003-04-14T06:34:57Z</time>
      </trkpt>
      <trkpt lat="31.984117990359664" lon="-4.981003040447831">
        <ele>1312.4000000000001</ele>
        <time>2003-04-14T06:35:04Z</time>
      </trkpt>
      <trkpt lat="31.984099969267845" lon="-4.980853004381061">
        <ele>1311.7</ele>
        <time>2003-04-14T06:35:07Z</time>
      </trkpt>
      <trkpt lat="31.984069962054491" lon="-4.98048696666956">
        <ele>1310.3</ele>
        <time>2003-04-14T06:35:11Z</time>
      </trkpt>
      <trkpt lat="31.984048001468182" lon="-4.979617008939385">
        <ele>1309.9000000000001</ele>
        <time>2003-04-14T06:35:19Z</time>
      </trkpt>
      <trkpt lat="31.984008019790053" lon="-4.979515001177788">
        <ele>1309.9000000000001</ele>
        <time>2003-04-14T06:35:19Z</time>
      </trkpt>
      <trkpt lat="31.983992010354996" lon="-4.979407964274287">
        <ele>1310.2</ele>
        <time>2003-04-14T06:35:20Z</time>
      </trkpt>
      <trkpt lat="31.983948005363345" lon="-4.978837994858623">
        <ele>1309.2</ele>
        <time>2003-04-14T06:35:26Z</time>
      </trkpt>
      <trkpt lat="31.983882961794734" lon="-4.978328039869666">
        <ele>1309</ele>
        <time>2003-04-14T06:35:31Z</time>
      </trkpt>
      <trkpt lat="31.983871981501579" lon="-4.978135004639626">
        <ele>1308.7</ele>
        <time>2003-04-14T06:35:33Z</time>
      </trkpt>
      <trkpt lat="31.983848009258509" lon="-4.977882960811257">
        <ele>1309.3</ele>
        <time>2003-04-14T06:35:35Z</time>
      </trkpt>
      <trkpt lat="31.983814984560013" lon="-4.977533016353846">
        <ele>1308.5</ele>
        <time>2003-04-14T06:35:39Z</time>
      </trkpt>
      <trkpt lat="31.983807021752" lon="-4.977034963667393">
        <ele>1310.0999999999999</ele>
        <time>2003-04-14T06:35:45Z</time>
      </trkpt>
      <trkpt lat="31.983763016760349" lon="-4.976779986172915">
        <ele>1311</ele>
        <time>2003-04-14T06:35:47Z</time>
      </trkpt>
      <trkpt lat="31.983723035082221" lon="-4.976664986461401">
        <ele>1311.3</ele>
        <time>2003-04-14T06:35:50Z</time>
      </trkpt>
      <trkpt lat="31.983696967363358" lon="-4.976559961214662">
        <ele>1309.8</ele>
        <time>2003-04-14T06:35:54Z</time>
      </trkpt>
      <trkpt lat="31.983654974028468" lon="-4.976395005360246">
        <ele>1310</ele>
        <time>2003-04-14T06:35:58Z</time>
      </trkpt>
      <trkpt lat="31.983603006228805" lon="-4.976298026740551">
        <ele>1309.5</ele>
        <time>2003-04-14T06:36:00Z</time>
      </trkpt>
      <trkpt lat="31.983508039265871" lon="-4.976112032309175">
        <ele>1309.3</ele>
        <time>2003-04-14T06:36:02Z</time>
      </trkpt>
      <trkpt lat="31.983300000429153" lon="-4.975596964359283">
        <ele>1310.4000000000001</ele>
        <time>2003-04-14T06:36:09Z</time>
      </trkpt>
      <trkpt lat="31.983247026801109" lon="-4.975339975208044">
        <ele>1310.7</ele>
        <time>2003-04-14T06:36:13Z</time>
      </trkpt>
      <trkpt lat="31.983241997659206" lon="-4.975207038223743">
        <ele>1310.5</ele>
        <time>2003-04-14T06:36:14Z</time>
      </trkpt>
      <trkpt lat="31.983206961303949" lon="-4.975033029913902">
        <ele>1310.0999999999999</ele>
        <time>2003-04-14T06:36:17Z</time>
      </trkpt>
      <trkpt lat="31.983133032917976" lon="-4.974800013005734">
        <ele>1309.3</ele>
        <time>2003-04-14T06:36:21Z</time>
      </trkpt>
      <trkpt lat="31.983058014884591" lon="-4.974482003599405">
        <ele>1309.4000000000001</ele>
        <time>2003-04-14T06:36:25Z</time>
      </trkpt>
      <trkpt lat="31.98294997215271" lon="-4.973572986200452">
        <ele>1310.5999999999999</ele>
        <time>2003-04-14T06:36:35Z</time>
      </trkpt>
      <trkpt lat="31.982913007959723" lon="-4.973392020910978">
        <ele>1310.4000000000001</ele>
        <time>2003-04-14T06:36:36Z</time>
      </trkpt>
      <trkpt lat="31.982830027118325" lon="-4.973256988450885">
        <ele>1310.3</ele>
        <time>2003-04-14T06:36:39Z</time>
      </trkpt>
      <trkpt lat="31.982781998813152" lon="-4.973103012889624">
        <ele>1310</ele>
        <time>2003-04-14T06:36:40Z</time>
      </trkpt>
      <trkpt lat="31.98277797549963" lon="-4.972930010408163">
        <ele>1309.8</ele>
        <time>2003-04-14T06:36:43Z</time>
      </trkpt>
      <trkpt lat="31.982779987156391" lon="-4.972732029855251">
        <ele>1309.5</ele>
        <time>2003-04-14T06:36:44Z</time>
      </trkpt>
      <trkpt lat="31.982703041285276" lon="-4.972543017938733">
        <ele>1309.0999999999999</ele>
        <time>2003-04-14T06:36:47Z</time>
      </trkpt>
      <trkpt lat="31.982662975788116" lon="-4.972372027114034">
        <ele>1308.9000000000001</ele>
        <time>2003-04-14T06:36:48Z</time>
      </trkpt>
      <trkpt lat="31.982622994109988" lon="-4.972031973302364">
        <ele>1309.0999999999999</ele>
        <time>2003-04-14T06:36:52Z</time>
      </trkpt>
      <trkpt lat="31.982555016875267" lon="-4.971587983891368">
        <ele>1309.9000000000001</ele>
        <time>2003-04-14T06:36:58Z</time>
      </trkpt>
      <trkpt lat="31.982515035197139" lon="-4.971297970041633">
        <ele>1310.3</ele>
        <time>2003-04-14T06:37:00Z</time>
      </trkpt>
      <trkpt lat="31.982438005506992" lon="-4.970406973734498">
        <ele>1310.3</ele>
        <time>2003-04-14T06:37:10Z</time>
      </trkpt>
      <trkpt lat="31.982180010527372" lon="-4.969320008531213">
        <ele>1312.4000000000001</ele>
        <time>2003-04-14T06:37:22Z</time>
      </trkpt>
      <trkpt lat="31.982161989435554" lon="-4.969033012166619">
        <ele>1312.5</ele>
        <time>2003-04-14T06:37:25Z</time>
      </trkpt>
      <trkpt lat="31.982142040506005" lon="-4.968871995806694">
        <ele>1312.9000000000001</ele>
        <time>2003-04-14T06:37:26Z</time>
      </trkpt>
      <trkpt lat="31.982059981673956" lon="-4.968392970040441">
        <ele>1310.9000000000001</ele>
        <time>2003-04-14T06:37:31Z</time>
      </trkpt>
      <trkpt lat="31.981953028589487" lon="-4.967732978984714">
        <ele>1309.3</ele>
        <time>2003-04-14T06:37:38Z</time>
      </trkpt>
      <trkpt lat="31.981882033869624" lon="-4.967497028410435">
        <ele>1308.7</ele>
        <time>2003-04-14T06:37:42Z</time>
      </trkpt>
      <trkpt lat="31.981652034446597" lon="-4.967008028179407">
        <ele>1308.5999999999999</ele>
        <time>2003-04-14T06:37:48Z</time>
      </trkpt>
      <trkpt lat="31.981417005881667" lon="-4.966587005183101">
        <ele>1307.7</ele>
        <time>2003-04-14T06:37:53Z</time>
      </trkpt>
      <trkpt lat="31.981287002563477" lon="-4.966336973011494">
        <ele>1308</ele>
        <time>2003-04-14T06:37:56Z</time>
      </trkpt>
      <trkpt lat="31.980836978182197" lon="-4.965314967557788">
        <ele>1310.2</ele>
        <time>2003-04-14T06:38:08Z</time>
      </trkpt>
      <trkpt lat="31.980619970709085" lon="-4.964799983426929">
        <ele>1308.8</ele>
        <time>2003-04-14T06:38:13Z</time>
      </trkpt>
      <trkpt lat="31.980097023770213" lon="-4.964004959911108">
        <ele>1308.5999999999999</ele>
        <time>2003-04-14T06:38:21Z</time>
      </trkpt>
      <trkpt lat="31.979871969670057" lon="-4.963630037382245">
        <ele>1308.3</ele>
        <time>2003-04-14T06:38:27Z</time>
      </trkpt>
      <trkpt lat="31.97974800132215" lon="-4.96349198743701">
        <ele>1308.5999999999999</ele>
        <time>2003-04-14T06:38:28Z</time>
      </trkpt>
      <trkpt lat="31.979541974142194" lon="-4.963323008269072">
        <ele>1309.5</ele>
        <time>2003-04-14T06:38:32Z</time>
      </trkpt>
      <trkpt lat="31.979307029396296" lon="-4.963186969980598">
        <ele>1307.7</ele>
        <time>2003-04-14T06:38:35Z</time>
      </trkpt>
      <trkpt lat="31.979212984442711" lon="-4.963170038536191">
        <ele>1307.2</ele>
        <time>2003-04-14T06:38:36Z</time>
      </trkpt>
      <trkpt lat="31.979024978354573" lon="-4.963170038536191">
        <ele>1306.8</ele>
        <time>2003-04-14T06:38:38Z</time>
      </trkpt>
      <trkpt lat="31.978842001408339" lon="-4.963228041306138">
        <ele>1306.2</ele>
        <time>2003-04-14T06:38:40Z</time>
      </trkpt>
      <trkpt lat="31.978579983115196" lon="-4.963374976068735">
        <ele>1305.8</ele>
        <time>2003-04-14T06:38:43Z</time>
      </trkpt>
      <trkpt lat="31.978321988135576" lon="-4.963519982993603">
        <ele>1304.3</ele>
        <time>2003-04-14T06:38:46Z</time>
      </trkpt>
      <trkpt lat="31.97822199203074" lon="-4.963538004085422">
        <ele>1304.0999999999999</ele>
        <time>2003-04-14T06:38:47Z</time>
      </trkpt>
      <trkpt lat="31.978119984269142" lon="-4.96353498660028">
        <ele>1303.8</ele>
        <time>2003-04-14T06:38:47Z</time>
      </trkpt>
      <trkpt lat="31.977804992347956" lon="-4.963486958295107">
        <ele>1303</ele>
        <time>2003-04-14T06:38:51Z</time>
      </trkpt>
      <trkpt lat="31.977410037070513" lon="-4.963337006047368">
        <ele>1302.4000000000001</ele>
        <time>2003-04-14T06:38:55Z</time>
      </trkpt>
      <trkpt lat="31.977082975208759" lon="-4.963113041594625">
        <ele>1302.7</ele>
        <time>2003-04-14T06:38:59Z</time>
      </trkpt>
      <trkpt lat="31.976973004639149" lon="-4.96306300163269">
        <ele>1302.5</ele>
        <time>2003-04-14T06:39:00Z</time>
      </trkpt>
      <trkpt lat="31.976273031905293" lon="-4.962816992774606">
        <ele>1302</ele>
        <time>2003-04-14T06:39:11Z</time>
      </trkpt>
      <trkpt lat="31.976125007495284" lon="-4.962782962247729">
        <ele>1301.5999999999999</ele>
        <time>2003-04-14T06:39:14Z</time>
      </trkpt>
      <trkpt lat="31.975877992808819" lon="-4.962729988619685">
        <ele>1301.4000000000001</ele>
        <time>2003-04-14T06:39:17Z</time>
      </trkpt>
      <trkpt lat="31.975725023075938" lon="-4.962741974741221">
        <ele>1301.2</ele>
        <time>2003-04-14T06:39:18Z</time>
      </trkpt>
      <trkpt lat="31.975357979536057" lon="-4.962744992226362">
        <ele>1299.9000000000001</ele>
        <time>2003-04-14T06:39:23Z</time>
      </trkpt>
      <trkpt lat="31.974981967359781" lon="-4.96265203692019">
        <ele>1298.5999999999999</ele>
        <time>2003-04-14T06:39:29Z</time>
      </trkpt>
      <trkpt lat="31.974793039262295" lon="-4.962618006393313">
        <ele>1298.5</ele>
        <time>2003-04-14T06:39:32Z</time>
      </trkpt>
      <trkpt lat="31.974428007379174" lon="-4.962518010288477">
        <ele>1298.5999999999999</ele>
        <time>2003-04-14T06:39:37Z</time>
      </trkpt>
      <trkpt lat="31.974313007667661" lon="-4.96243997476995">
        <ele>1298.5999999999999</ele>
        <time>2003-04-14T06:39:40Z</time>
      </trkpt>
      <trkpt lat="31.974207982420921" lon="-4.962337967008352">
        <ele>1298.5999999999999</ele>
        <time>2003-04-14T06:39:41Z</time>
      </trkpt>
      <trkpt lat="31.973949987441301" lon="-4.962115008383989">
        <ele>1298.7</ele>
        <time>2003-04-14T06:39:46Z</time>
      </trkpt>
      <trkpt lat="31.973529970273376" lon="-4.961757017299533">
        <ele>1300.5</ele>
        <time>2003-04-14T06:39:54Z</time>
      </trkpt>
      <trkpt lat="31.973450006917119" lon="-4.961612010374665">
        <ele>1300.7</ele>
        <time>2003-04-14T06:39:57Z</time>
      </trkpt>
      <trkpt lat="31.973397033289075" lon="-4.961440013721585">
        <ele>1299.9000000000001</ele>
        <time>2003-04-14T06:39:59Z</time>
      </trkpt>
      <trkpt lat="31.973378006368876" lon="-4.961267011240125">
        <ele>1299.8</ele>
        <time>2003-04-14T06:40:01Z</time>
      </trkpt>
      <trkpt lat="31.973397033289075" lon="-4.961117981001735">
        <ele>1300.3</ele>
        <time>2003-04-14T06:40:03Z</time>
      </trkpt>
      <trkpt lat="31.9734319858253" lon="-4.960895022377372">
        <ele>1301</ele>
        <time>2003-04-14T06:40:05Z</time>
      </trkpt>
      <trkpt lat="31.973425028845668" lon="-4.960746997967362">
        <ele>1302</ele>
        <time>2003-04-14T06:40:08Z</time>
      </trkpt>
      <trkpt lat="31.973416982218623" lon="-4.960442986339331">
        <ele>1299.8</ele>
        <time>2003-04-14T06:40:12Z</time>
      </trkpt>
      <trkpt lat="31.973377000540495" lon="-4.960309965535998">
        <ele>1298.0999999999999</ele>
        <time>2003-04-14T06:40:13Z</time>
      </trkpt>
      <trkpt lat="31.973262000828981" lon="-4.960208041593432">
        <ele>1296.0999999999999</ele>
        <time>2003-04-14T06:40:16Z</time>
      </trkpt>
      <trkpt lat="31.973162004724145" lon="-4.960092036053538">
        <ele>1295.2</ele>
        <time>2003-04-14T06:40:17Z</time>
      </trkpt>
      <trkpt lat="31.972996965050697" lon="-4.959911992773414">
        <ele>1294.2</ele>
        <time>2003-04-14T06:40:20Z</time>
      </trkpt>
      <trkpt lat="31.97287299670279" lon="-4.959877040237188">
        <ele>1293.5999999999999</ele>
        <time>2003-04-14T06:40:23Z</time>
      </trkpt>
      <trkpt lat="31.972817005589604" lon="-4.959785006940365">
        <ele>1291.8</ele>
        <time>2003-04-14T06:40:24Z</time>
      </trkpt>
      <trkpt lat="31.972835026681423" lon="-4.959632959216833">
        <ele>1289.9000000000001</ele>
        <time>2003-04-14T06:40:27Z</time>
      </trkpt>
      <trkpt lat="31.972903003916144" lon="-4.959412012249231">
        <ele>1289.2</ele>
        <time>2003-04-14T06:40:30Z</time>
      </trkpt>
      <trkpt lat="31.972984978929162" lon="-4.959292989224196">
        <ele>1289.5</ele>
        <time>2003-04-14T06:40:31Z</time>
      </trkpt>
      <trkpt lat="31.973125040531158" lon="-4.959121998399496">
        <ele>1289.3</ele>
        <time>2003-04-14T06:40:35Z</time>
      </trkpt>
      <trkpt lat="31.973289996385574" lon="-4.958991995081306">
        <ele>1289.3</ele>
        <time>2003-04-14T06:40:38Z</time>
      </trkpt>
      <trkpt lat="31.973487976938486" lon="-4.958835002034903">
        <ele>1289.5</ele>
        <time>2003-04-14T06:40:42Z</time>
      </trkpt>
      <trkpt lat="31.973510021343827" lon="-4.958680020645261">
        <ele>1288.8</ele>
        <time>2003-04-14T06:40:43Z</time>
      </trkpt>
      <trkpt lat="31.973492000252008" lon="-4.958544988185167">
        <ele>1288.9000000000001</ele>
        <time>2003-04-14T06:40:46Z</time>
      </trkpt>
      <trkpt lat="31.973512033000588" lon="-4.958426970988512">
        <ele>1289.2</ele>
        <time>2003-04-14T06:40:47Z</time>
      </trkpt>
      <trkpt lat="31.973576992750168" lon="-4.958339966833592">
        <ele>1290.7</ele>
        <time>2003-04-14T06:40:50Z</time>
      </trkpt>
      <trkpt lat="31.97364698164165" lon="-4.958244999870658">
        <ele>1291.9000000000001</ele>
        <time>2003-04-14T06:40:51Z</time>
      </trkpt>
      <trkpt lat="31.973767010495067" lon="-4.958093035966158">
        <ele>1293.4000000000001</ele>
        <time>2003-04-14T06:40:55Z</time>
      </trkpt>
      <trkpt lat="31.973844962194562" lon="-4.957977030426264">
        <ele>1294.3</ele>
        <time>2003-04-14T06:40:58Z</time>
      </trkpt>
      <trkpt lat="31.974058030173182" lon="-4.957677964121103">
        <ele>1296.3</ele>
        <time>2003-04-14T06:41:05Z</time>
      </trkpt>
      <trkpt lat="31.974679967388511" lon="-4.956876989454031">
        <ele>1298.9000000000001</ele>
        <time>2003-04-14T06:41:20Z</time>
      </trkpt>
      <trkpt lat="31.97497702203691" lon="-4.956427970901132">
        <ele>1299.0999999999999</ele>
        <time>2003-04-14T06:41:28Z</time>
      </trkpt>
      <trkpt lat="31.975144995376468" lon="-4.956178022548556">
        <ele>1298.5</ele>
        <time>2003-04-14T06:41:32Z</time>
      </trkpt>
      <trkpt lat="31.975268041715026" lon="-4.955981969833374">
        <ele>1298.5</ele>
        <time>2003-04-14T06:41:34Z</time>
      </trkpt>
      <trkpt lat="31.97545001283288" lon="-4.95564803481102">
        <ele>1298.3</ele>
        <time>2003-04-14T06:41:40Z</time>
      </trkpt>
      <trkpt lat="31.975617986172438" lon="-4.955364977940917">
        <ele>1296.7</ele>
        <time>2003-04-14T06:41:44Z</time>
      </trkpt>
      <trkpt lat="31.975806998088956" lon="-4.954961976036429">
        <ele>1295.0999999999999</ele>
        <time>2003-04-14T06:41:49Z</time>
      </trkpt>
      <trkpt lat="31.975827030837536" lon="-4.954780004918575">
        <ele>1295.3</ele>
        <time>2003-04-14T06:41:51Z</time>
      </trkpt>
      <trkpt lat="31.975844968110323" lon="-4.954614965245128">
        <ele>1296.0999999999999</ele>
        <time>2003-04-14T06:41:52Z</time>
      </trkpt>
      <trkpt lat="31.97592300362885" lon="-4.954210035502911">
        <ele>1296.2</ele>
        <time>2003-04-14T06:41:57Z</time>
      </trkpt>
      <trkpt lat="31.975949993357062" lon="-4.95403996668756">
        <ele>1295.7</ele>
        <time>2003-04-14T06:42:00Z</time>
      </trkpt>
      <trkpt lat="31.975910011678934" lon="-4.953878028318286">
        <ele>1295.5</ele>
        <time>2003-04-14T06:42:01Z</time>
      </trkpt>
      <trkpt lat="31.975774979218841" lon="-4.953605029731989">
        <ele>1296.3</ele>
        <time>2003-04-14T06:42:05Z</time>
      </trkpt>
      <trkpt lat="31.975668026134372" lon="-4.953463040292263">
        <ele>1298.5</ele>
        <time>2003-04-14T06:42:08Z</time>
      </trkpt>
      <trkpt lat="31.975583033636212" lon="-4.953426998108625">
        <ele>1299.5999999999999</ele>
        <time>2003-04-14T06:42:11Z</time>
      </trkpt>
      <trkpt lat="31.975465016439557" lon="-4.953506961464882">
        <ele>1299.0999999999999</ele>
        <time>2003-04-14T06:42:14Z</time>
      </trkpt>
      <trkpt lat="31.975368037819862" lon="-4.953541997820139">
        <ele>1298.9000000000001</ele>
        <time>2003-04-14T06:42:16Z</time>
      </trkpt>
      <trkpt lat="31.97525798343122" lon="-4.953496987000108">
        <ele>1298.8</ele>
        <time>2003-04-14T06:42:19Z</time>
      </trkpt>
      <trkpt lat="31.975157987326384" lon="-4.953442001715303">
        <ele>1298.9000000000001</ele>
        <time>2003-04-14T06:42:23Z</time>
      </trkpt>
      <trkpt lat="31.975044999271631" lon="-4.953288026154041">
        <ele>1298.3</ele>
        <time>2003-04-14T06:42:30Z</time>
      </trkpt>
      <trkpt lat="31.974963024258614" lon="-4.953224994242191">
        <ele>1298.5</ele>
        <time>2003-04-14T06:42:34Z</time>
      </trkpt>
      <trkpt lat="31.974871996790171" lon="-4.953185012564063">
        <ele>1298.2</ele>
        <time>2003-04-14T06:42:38Z</time>
      </trkpt>
      <trkpt lat="31.974778035655618" lon="-4.953124998137355">
        <ele>1298.0999999999999</ele>
        <time>2003-04-14T06:42:42Z</time>
      </trkpt>
      <trkpt lat="31.974664963781834" lon="-4.953015027567744">
        <ele>1297.5</ele>
        <time>2003-04-14T06:42:46Z</time>
      </trkpt>
      <trkpt lat="31.97450696490705" lon="-4.952927017584443">
        <ele>1297.5</ele>
        <time>2003-04-14T06:42:51Z</time>
      </trkpt>
      <trkpt lat="31.974372016265988" lon="-4.952885024249554">
        <ele>1297.0999999999999</ele>
        <time>2003-04-14T06:42:55Z</time>
      </trkpt>
      <trkpt lat="31.973786959424615" lon="-4.952759966254234">
        <ele>1294.4000000000001</ele>
        <time>2003-04-14T06:43:13Z</time>
      </trkpt>
      <trkpt lat="31.973546985536814" lon="-4.952716967090964">
        <ele>1293.2</ele>
        <time>2003-04-14T06:43:17Z</time>
      </trkpt>
      <trkpt lat="31.973462998867035" lon="-4.952674973756075">
        <ele>1293</ele>
        <time>2003-04-14T06:43:20Z</time>
      </trkpt>
      <trkpt lat="31.97306795977056" lon="-4.952474981546402">
        <ele>1291.0999999999999</ele>
        <time>2003-04-14T06:43:29Z</time>
      </trkpt>
      <trkpt lat="31.972971986979246" lon="-4.95246802456677">
        <ele>1291.0999999999999</ele>
        <time>2003-04-14T06:43:30Z</time>
      </trkpt>
      <trkpt lat="31.972854975610971" lon="-4.952412033453584">
        <ele>1291.0999999999999</ele>
        <time>2003-04-14T06:43:33Z</time>
      </trkpt>
      <trkpt lat="31.972741987556219" lon="-4.952374985441566">
        <ele>1291.3</ele>
        <time>2003-04-14T06:43:37Z</time>
      </trkpt>
      <trkpt lat="31.972547024488449" lon="-4.952344978228211">
        <ele>1291</ele>
        <time>2003-04-14T06:43:41Z</time>
      </trkpt>
      <trkpt lat="31.972409980371594" lon="-4.952344978228211">
        <ele>1291.3</ele>
        <time>2003-04-14T06:43:44Z</time>
      </trkpt>
      <trkpt lat="31.972224991768599" lon="-4.95229996740818">
        <ele>1291.5</ele>
        <time>2003-04-14T06:43:48Z</time>
      </trkpt>
      <trkpt lat="31.971989963203669" lon="-4.95221296325326">
        <ele>1292.5999999999999</ele>
        <time>2003-04-14T06:43:53Z</time>
      </trkpt>
      <trkpt lat="31.971859959885478" lon="-4.952172981575131">
        <ele>1293</ele>
        <time>2003-04-14T06:43:56Z</time>
      </trkpt>
      <trkpt lat="31.971658039838076" lon="-4.952144986018539">
        <ele>1292.3</ele>
        <time>2003-04-14T06:44:02Z</time>
      </trkpt>
      <trkpt lat="31.971500040963292" lon="-4.952257974073291">
        <ele>1291.5</ele>
        <time>2003-04-14T06:44:06Z</time>
      </trkpt>
      <trkpt lat="31.971268029883504" lon="-4.952357970178127">
        <ele>1290.7</ele>
        <time>2003-04-14T06:44:11Z</time>
      </trkpt>
      <trkpt lat="31.971169961616397" lon="-4.952356964349747">
        <ele>1290.4000000000001</ele>
        <time>2003-04-14T06:44:12Z</time>
      </trkpt>
      <trkpt lat="31.971080023795366" lon="-4.952304996550083">
        <ele>1290.2</ele>
        <time>2003-04-14T06:44:15Z</time>
      </trkpt>
      <trkpt lat="31.971020009368658" lon="-4.95221296325326">
        <ele>1290.0999999999999</ele>
        <time>2003-04-14T06:44:16Z</time>
      </trkpt>
      <trkpt lat="31.970933005213737" lon="-4.952074997127056">
        <ele>1289.9000000000001</ele>
        <time>2003-04-14T06:44:19Z</time>
      </trkpt>
      <trkpt lat="31.970841977745295" lon="-4.952027974650264">
        <ele>1290</ele>
        <time>2003-04-14T06:44:22Z</time>
      </trkpt>
      <trkpt lat="31.970729995518923" lon="-4.952011965215206">
        <ele>1290</ele>
        <time>2003-04-14T06:44:23Z</time>
      </trkpt>
      <trkpt lat="31.970627987757325" lon="-4.952042978256941">
        <ele>1290.0999999999999</ele>
        <time>2003-04-14T06:44:26Z</time>
      </trkpt>
      <trkpt lat="31.97055296972394" lon="-4.952129982411861">
        <ele>1290.4000000000001</ele>
        <time>2003-04-14T06:44:27Z</time>
      </trkpt>
      <trkpt lat="31.970450039952993" lon="-4.952150015160441">
        <ele>1289.9000000000001</ele>
        <time>2003-04-14T06:44:30Z</time>
      </trkpt>
      <trkpt lat="31.970285000279546" lon="-4.952112967148423">
        <ele>1289.3</ele>
        <time>2003-04-14T06:44:33Z</time>
      </trkpt>
      <trkpt lat="31.970002027228475" lon="-4.952008025720716">
        <ele>1289.4000000000001</ele>
        <time>2003-04-14T06:44:38Z</time>
      </trkpt>
      <trkpt lat="31.969915023073554" lon="-4.951927978545427">
        <ele>1289.4000000000001</ele>
        <time>2003-04-14T06:44:41Z</time>
      </trkpt>
      <trkpt lat="31.969827013090253" lon="-4.951854972168803">
        <ele>1289.3</ele>
        <time>2003-04-14T06:44:42Z</time>
      </trkpt>
      <trkpt lat="31.969717964529991" lon="-4.95182697661221">
        <ele>1289.0999999999999</ele>
        <time>2003-04-14T06:44:45Z</time>
      </trkpt>
      <trkpt lat="31.969602964818478" lon="-4.951839968562126">
        <ele>1289.2</ele>
        <time>2003-04-14T06:44:46Z</time>
      </trkpt>
      <trkpt lat="31.969480002298951" lon="-4.951837034896016">
        <ele>1289.2</ele>
        <time>2003-04-14T06:44:49Z</time>
      </trkpt>
      <trkpt lat="31.969357961788774" lon="-4.951808033511043">
        <ele>1289.3</ele>
        <time>2003-04-14T06:44:50Z</time>
      </trkpt>
      <trkpt lat="31.969093009829521" lon="-4.951748019084334">
        <ele>1289.0999999999999</ele>
        <time>2003-04-14T06:44:56Z</time>
      </trkpt>
      <trkpt lat="31.968884970992804" lon="-4.951735027134419">
        <ele>1288.5</ele>
        <time>2003-04-14T06:45:00Z</time>
      </trkpt>
      <trkpt lat="31.968756979331374" lon="-4.951705019921064">
        <ele>1288.3</ele>
        <time>2003-04-14T06:45:01Z</time>
      </trkpt>
      <trkpt lat="31.968584982678294" lon="-4.951660009101033">
        <ele>1286.9000000000001</ele>
        <time>2003-04-14T06:45:05Z</time>
      </trkpt>
      <trkpt lat="31.968481969088316" lon="-4.951686998829246">
        <ele>1286.0999999999999</ele>
        <time>2003-04-14T06:45:08Z</time>
      </trkpt>
      <trkpt lat="31.968269990757108" lon="-4.951835023239255">
        <ele>1286.2</ele>
        <time>2003-04-14T06:45:13Z</time>
      </trkpt>
      <trkpt lat="31.968103023245931" lon="-4.951996961608529">
        <ele>1286.2</ele>
        <time>2003-04-14T06:45:17Z</time>
      </trkpt>
      <trkpt lat="31.96801501326263" lon="-4.952090000733733">
        <ele>1286</ele>
        <time>2003-04-14T06:45:18Z</time>
      </trkpt>
      <trkpt lat="31.967932032421231" lon="-4.952141968533397">
        <ele>1285.5</ele>
        <time>2003-04-14T06:45:21Z</time>
      </trkpt>
      <trkpt lat="31.967612011358142" lon="-4.952308014035225">
        <ele>1285.7</ele>
        <time>2003-04-14T06:45:28Z</time>
      </trkpt>
      <trkpt lat="31.967491982504725" lon="-4.952378002926707">
        <ele>1287.5</ele>
        <time>2003-04-14T06:45:32Z</time>
      </trkpt>
      <trkpt lat="31.967385029420257" lon="-4.952335003763437">
        <ele>1288.0999999999999</ele>
        <time>2003-04-14T06:45:33Z</time>
      </trkpt>
      <trkpt lat="31.967277992516756" lon="-4.952227966859937">
        <ele>1287.3</ele>
        <time>2003-04-14T06:45:36Z</time>
      </trkpt>
      <trkpt lat="31.967122005298734" lon="-4.952078014612198">
        <ele>1286.4000000000001</ele>
        <time>2003-04-14T06:45:39Z</time>
      </trkpt>
      <trkpt lat="31.966999964788556" lon="-4.952042978256941">
        <ele>1286</ele>
        <time>2003-04-14T06:45:40Z</time>
      </trkpt>
      <trkpt lat="31.96685696952045" lon="-4.952031997963786">
        <ele>1285</ele>
        <time>2003-04-14T06:45:43Z</time>
      </trkpt>
      <trkpt lat="31.966269984841347" lon="-4.951993022114039">
        <ele>1283.8</ele>
        <time>2003-04-14T06:45:51Z</time>
      </trkpt>
      <trkpt lat="31.966137969866395" lon="-4.951950022950769">
        <ele>1283.8</ele>
        <time>2003-04-14T06:45:52Z</time>
      </trkpt>
      <trkpt lat="31.965994974598289" lon="-4.951999979093671">
        <ele>1283.7</ele>
        <time>2003-04-14T06:45:55Z</time>
      </trkpt>
      <trkpt lat="31.965640000998974" lon="-4.952177004888654">
        <ele>1284</ele>
        <time>2003-04-14T06:45:59Z</time>
      </trkpt>
      <trkpt lat="31.965513015165925" lon="-4.952242970466614">
        <ele>1283.5</ele>
        <time>2003-04-14T06:46:02Z</time>
      </trkpt>
      <trkpt lat="31.965383011847734" lon="-4.95225696824491">
        <ele>1283.5</ele>
        <time>2003-04-14T06:46:03Z</time>
      </trkpt>
      <trkpt lat="31.965261977165937" lon="-4.952287981286645">
        <ele>1283.7</ele>
        <time>2003-04-14T06:46:06Z</time>
      </trkpt>
      <trkpt lat="31.96502803824842" lon="-4.952367022633553">
        <ele>1283.5</ele>
        <time>2003-04-14T06:46:10Z</time>
      </trkpt>
      <trkpt lat="31.964913038536906" lon="-4.952332992106676">
        <ele>1283.2</ele>
        <time>2003-04-14T06:46:11Z</time>
      </trkpt>
      <trkpt lat="31.964807007461786" lon="-4.952293010428548">
        <ele>1282.9000000000001</ele>
        <time>2003-04-14T06:46:14Z</time>
      </trkpt>
      <trkpt lat="31.964726960286498" lon="-4.952217992395163">
        <ele>1282.3</ele>
        <time>2003-04-14T06:46:17Z</time>
      </trkpt>
      <trkpt lat="31.964642973616719" lon="-4.9521469976753">
        <ele>1281.4000000000001</ele>
        <time>2003-04-14T06:46:19Z</time>
      </trkpt>
      <trkpt lat="31.96453501470387" lon="-4.952074997127056">
        <ele>1281.2</ele>
        <time>2003-04-14T06:46:22Z</time>
      </trkpt>
      <trkpt lat="31.964427977800369" lon="-4.952029986307025">
        <ele>1278.8</ele>
        <time>2003-04-14T06:46:25Z</time>
      </trkpt>
      <trkpt lat="31.963867982849479" lon="-4.951877016574144">
        <ele>1277.2</ele>
        <time>2003-04-14T06:46:35Z</time>
      </trkpt>
      <trkpt lat="31.963775027543306" lon="-4.951852960512042">
        <ele>1277.0999999999999</ele>
        <time>2003-04-14T06:46:38Z</time>
      </trkpt>
      <trkpt lat="31.963667990639806" lon="-4.951824964955449">
        <ele>1277.7</ele>
        <time>2003-04-14T06:46:56Z</time>
      </trkpt>
      <trkpt lat="31.963409995660186" lon="-4.951777020469308">
        <ele>1277.5</ele>
        <time>2003-04-14T06:47:00Z</time>
      </trkpt>
      <trkpt lat="31.963170021772385" lon="-4.95173997245729">
        <ele>1277.3</ele>
        <time>2003-04-14T06:47:02Z</time>
      </trkpt>
      <trkpt lat="31.962900040671229" lon="-4.951751958578825">
        <ele>1277</ele>
        <time>2003-04-14T06:47:05Z</time>
      </trkpt>
      <trkpt lat="31.961966967210174" lon="-4.951827982440591">
        <ele>1276.5</ele>
        <time>2003-04-14T06:47:16Z</time>
      </trkpt>
      <trkpt lat="31.961796982213855" lon="-4.951884979382157">
        <ele>1276.5</ele>
        <time>2003-04-14T06:47:17Z</time>
      </trkpt>
      <trkpt lat="31.961726993322372" lon="-4.95195496827364">
        <ele>1276.4000000000001</ele>
        <time>2003-04-14T06:47:19Z</time>
      </trkpt>
      <trkpt lat="31.961537981405854" lon="-4.952142974361777">
        <ele>1276.5999999999999</ele>
        <time>2003-04-14T06:47:21Z</time>
      </trkpt>
      <trkpt lat="31.9613750372082" lon="-4.952177004888654">
        <ele>1276.5999999999999</ele>
        <time>2003-04-14T06:47:24Z</time>
      </trkpt>
      <trkpt lat="31.961145037785172" lon="-4.952222015708685">
        <ele>1276.3</ele>
        <time>2003-04-14T06:47:27Z</time>
      </trkpt>
      <trkpt lat="31.961013022810221" lon="-4.952327962964773">
        <ele>1276.0999999999999</ele>
        <time>2003-04-14T06:47:28Z</time>
      </trkpt>
      <trkpt lat="31.960829962044954" lon="-4.952513035386801">
        <ele>1276</ele>
        <time>2003-04-14T06:47:32Z</time>
      </trkpt>
      <trkpt lat="31.960746981203556" lon="-4.952646978199482">
        <ele>1276</ele>
        <time>2003-04-14T06:47:33Z</time>
      </trkpt>
      <trkpt lat="31.96071001701057" lon="-4.952789973467588">
        <ele>1276.2</ele>
        <time>2003-04-14T06:47:36Z</time>
      </trkpt>
      <trkpt lat="31.960642961785197" lon="-4.952915031462908">
        <ele>1276</ele>
        <time>2003-04-14T06:47:38Z</time>
      </trkpt>
      <trkpt lat="31.960529973730445" lon="-4.952998012304306">
        <ele>1275.2</ele>
        <time>2003-04-14T06:47:40Z</time>
      </trkpt>
      <trkpt lat="31.960416985675693" lon="-4.953104965388775">
        <ele>1275.8</ele>
        <time>2003-04-14T06:47:42Z</time>
      </trkpt>
      <trkpt lat="31.960314977914095" lon="-4.953247038647533">
        <ele>1275.8</ele>
        <time>2003-04-14T06:47:43Z</time>
      </trkpt>
      <trkpt lat="31.96002303622663" lon="-4.953635036945343">
        <ele>1275.0999999999999</ele>
        <time>2003-04-14T06:47:50Z</time>
      </trkpt>
      <trkpt lat="31.959827989339828" lon="-4.953720029443502">
        <ele>1274.7</ele>
        <time>2003-04-14T06:47:52Z</time>
      </trkpt>
      <trkpt lat="31.959672002121806" lon="-4.953796975314617">
        <ele>1274.4000000000001</ele>
        <time>2003-04-14T06:47:55Z</time>
      </trkpt>
      <trkpt lat="31.959500005468726" lon="-4.953827988356352">
        <ele>1273.8</ele>
        <time>2003-04-14T06:47:56Z</time>
      </trkpt>
      <trkpt lat="31.959348041564226" lon="-4.953882973641157">
        <ele>1274.2</ele>
        <time>2003-04-14T06:47:59Z</time>
      </trkpt>
      <trkpt lat="31.959215020760894" lon="-4.953990010544658">
        <ele>1274</ele>
        <time>2003-04-14T06:48:00Z</time>
      </trkpt>
      <trkpt lat="31.9589280243963" lon="-4.954262003302574">
        <ele>1273.5999999999999</ele>
        <time>2003-04-14T06:48:05Z</time>
      </trkpt>
      <trkpt lat="31.958572966977954" lon="-4.954574983566999">
        <ele>1273.5</ele>
        <time>2003-04-14T06:48:09Z</time>
      </trkpt>
      <trkpt lat="31.95813300088048" lon="-4.955057026818395">
        <ele>1273.5999999999999</ele>
        <time>2003-04-14T06:48:14Z</time>
      </trkpt>
      <trkpt lat="31.957971984520555" lon="-4.955128021538258">
        <ele>1273.5</ele>
        <time>2003-04-14T06:48:17Z</time>
      </trkpt>
      <trkpt lat="31.957882968708873" lon="-4.955174960196018">
        <ele>1273.4000000000001</ele>
        <time>2003-04-14T06:48:18Z</time>
      </trkpt>
      <trkpt lat="31.957803005352616" lon="-4.955237992107868">
        <ele>1273.5</ele>
        <time>2003-04-14T06:48:18Z</time>
      </trkpt>
      <trkpt lat="31.957735028117895" lon="-4.955315021798015">
        <ele>1273.5</ele>
        <time>2003-04-14T06:48:19Z</time>
      </trkpt>
      <trkpt lat="31.957569988444448" lon="-4.955417029559612">
        <ele>1273.5</ele>
        <time>2003-04-14T06:48:22Z</time>
      </trkpt>
      <trkpt lat="31.956882001832128" lon="-4.955688016489148">
        <ele>1273</ele>
        <time>2003-04-14T06:48:30Z</time>
      </trkpt>
      <trkpt lat="31.956631969660521" lon="-4.955732021480799">
        <ele>1272.8</ele>
        <time>2003-04-14T06:48:33Z</time>
      </trkpt>
      <trkpt lat="31.956549994647503" lon="-4.955782983452082">
        <ele>1272.5999999999999</ele>
        <time>2003-04-14T06:48:34Z</time>
      </trkpt>
      <trkpt lat="31.956391995772719" lon="-4.955917010083795">
        <ele>1272.5</ele>
        <time>2003-04-14T06:48:36Z</time>
      </trkpt>
      <trkpt lat="31.955950018018484" lon="-4.956331998109818">
        <ele>1271.8</ele>
        <time>2003-04-14T06:48:41Z</time>
      </trkpt>
      <trkpt lat="31.955790007486939" lon="-4.956322023645043">
        <ele>1271.5</ele>
        <time>2003-04-14T06:48:44Z</time>
      </trkpt>
      <trkpt lat="31.955686993896961" lon="-4.956365022808313">
        <ele>1271</ele>
        <time>2003-04-14T06:48:45Z</time>
      </trkpt>
      <trkpt lat="31.955584986135364" lon="-4.956393018364906">
        <ele>1271.3</ele>
        <time>2003-04-14T06:48:48Z</time>
      </trkpt>
      <trkpt lat="31.955037983134389" lon="-4.956410033628345">
        <ele>1271.4000000000001</ele>
        <time>2003-04-14T06:48:57Z</time>
      </trkpt>
      <trkpt lat="31.954319989308715" lon="-4.956507012248039">
        <ele>1271.0999999999999</ele>
        <time>2003-04-14T06:49:08Z</time>
      </trkpt>
      <trkpt lat="31.954232985153794" lon="-4.956627963110805">
        <ele>1271.2</ele>
        <time>2003-04-14T06:49:09Z</time>
      </trkpt>
      <trkpt lat="31.954084960743785" lon="-4.956868020817637">
        <ele>1270.9000000000001</ele>
        <time>2003-04-14T06:49:13Z</time>
      </trkpt>
      <trkpt lat="31.954001979902387" lon="-4.956991989165545">
        <ele>1271</ele>
        <time>2003-04-14T06:49:16Z</time>
      </trkpt>
      <trkpt lat="31.953877005726099" lon="-4.957070024684072">
        <ele>1270.9000000000001</ele>
        <time>2003-04-14T06:49:17Z</time>
      </trkpt>
      <trkpt lat="31.953738033771515" lon="-4.9571100063622">
        <ele>1271.0999999999999</ele>
        <time>2003-04-14T06:49:20Z</time>
      </trkpt>
      <trkpt lat="31.95355698466301" lon="-4.957191981375217">
        <ele>1271.2</ele>
        <time>2003-04-14T06:49:23Z</time>
      </trkpt>
      <trkpt lat="31.95329999551177" lon="-4.957403037697077">
        <ele>1271</ele>
        <time>2003-04-14T06:49:27Z</time>
      </trkpt>
      <trkpt lat="31.95293202996254" lon="-4.957726998254657">
        <ele>1270.5999999999999</ele>
        <time>2003-04-14T06:49:32Z</time>
      </trkpt>
      <trkpt lat="31.952809989452362" lon="-4.957806961610913">
        <ele>1270.5999999999999</ele>
        <time>2003-04-14T06:49:35Z</time>
      </trkpt>
      <trkpt lat="31.952713010832667" lon="-4.957935037091374">
        <ele>1270.5</ele>
        <time>2003-04-14T06:49:36Z</time>
      </trkpt>
      <trkpt lat="31.952617038041353" lon="-4.958112984895706">
        <ele>1270.2</ele>
        <time>2003-04-14T06:49:39Z</time>
      </trkpt>
      <trkpt lat="31.952513018622994" lon="-4.95842001400888">
        <ele>1269.5</ele>
        <time>2003-04-14T06:49:44Z</time>
      </trkpt>
      <trkpt lat="31.952425008639693" lon="-4.95859201066196">
        <ele>1270.8</ele>
        <time>2003-04-14T06:49:47Z</time>
      </trkpt>
      <trkpt lat="31.952249994501472" lon="-4.958761995658279">
        <ele>1270.0999999999999</ele>
        <time>2003-04-14T06:49:51Z</time>
      </trkpt>
      <trkpt lat="31.951976995915174" lon="-4.959068018943071">
        <ele>1269.8</ele>
        <time>2003-04-14T06:49:55Z</time>
      </trkpt>
      <trkpt lat="31.951620010659099" lon="-4.959340011700988">
        <ele>1269.5</ele>
        <time>2003-04-14T06:50:02Z</time>
      </trkpt>
      <trkpt lat="31.951439967378974" lon="-4.959428021684289">
        <ele>1268.3</ele>
        <time>2003-04-14T06:50:05Z</time>
      </trkpt>
      <trkpt lat="31.951332008466125" lon="-4.959455011412501">
        <ele>1268.5</ele>
        <time>2003-04-14T06:50:06Z</time>
      </trkpt>
      <trkpt lat="31.95123796351254" lon="-4.959358032792807">
        <ele>1268.5</ele>
        <time>2003-04-14T06:50:10Z</time>
      </trkpt>
      <trkpt lat="31.951137967407703" lon="-4.959247978404164">
        <ele>1268.5</ele>
        <time>2003-04-14T06:50:13Z</time>
      </trkpt>
      <trkpt lat="31.950982986018062" lon="-4.959158040583134">
        <ele>1269.7</ele>
        <time>2003-04-14T06:50:17Z</time>
      </trkpt>
      <trkpt lat="31.950888019055128" lon="-4.959167009219527">
        <ele>1270</ele>
        <time>2003-04-14T06:50:18Z</time>
      </trkpt>
      <trkpt lat="31.950781987980008" lon="-4.959149993956089">
        <ele>1270.0999999999999</ele>
        <time>2003-04-14T06:50:21Z</time>
      </trkpt>
      <trkpt lat="31.950692972168326" lon="-4.959055026993156">
        <ele>1270.5</ele>
        <time>2003-04-14T06:50:22Z</time>
      </trkpt>
      <trkpt lat="31.950596999377012" lon="-4.958991995081306">
        <ele>1271.8</ele>
        <time>2003-04-14T06:50:25Z</time>
      </trkpt>
      <trkpt lat="31.950483005493879" lon="-4.958952013403177">
        <ele>1272.0999999999999</ele>
        <time>2003-04-14T06:50:26Z</time>
      </trkpt>
      <trkpt lat="31.95031201466918" lon="-4.958927035331726">
        <ele>1271.9000000000001</ele>
        <time>2003-04-14T06:50:29Z</time>
      </trkpt>
      <trkpt lat="31.950017977505922" lon="-4.958868026733398">
        <ele>1271.7</ele>
        <time>2003-04-14T06:50:32Z</time>
      </trkpt>
      <trkpt lat="31.949727041646838" lon="-4.958753027021885">
        <ele>1271.5</ele>
        <time>2003-04-14T06:50:34Z</time>
      </trkpt>
      <trkpt lat="31.949341977015138" lon="-4.958520010113716">
        <ele>1271.3</ele>
        <time>2003-04-14T06:50:38Z</time>
      </trkpt>
      <trkpt lat="31.949092028662562" lon="-4.958303002640605">
        <ele>1271</ele>
        <time>2003-04-14T06:50:41Z</time>
      </trkpt>
      <trkpt lat="31.948956996202469" lon="-4.958132011815906">
        <ele>1270.9000000000001</ele>
        <time>2003-04-14T06:50:44Z</time>
      </trkpt>
      <trkpt lat="31.948907962068915" lon="-4.958037966862321">
        <ele>1270.5999999999999</ele>
        <time>2003-04-14T06:50:45Z</time>
      </trkpt>
      <trkpt lat="31.948857000097632" lon="-4.957851972430944">
        <ele>1271</ele>
        <time>2003-04-14T06:50:47Z</time>
      </trkpt>
      <trkpt lat="31.94883001036942" lon="-4.957697996869683">
        <ele>1271.3</ele>
        <time>2003-04-14T06:50:49Z</time>
      </trkpt>
      <trkpt lat="31.948754992336035" lon="-4.957594983279705">
        <ele>1271.4000000000001</ele>
        <time>2003-04-14T06:50:52Z</time>
      </trkpt>
      <trkpt lat="31.948645021766424" lon="-4.957590037956834">
        <ele>1271</ele>
        <time>2003-04-14T06:50:53Z</time>
      </trkpt>
      <trkpt lat="31.948447041213512" lon="-4.957600012421608">
        <ele>1270.8</ele>
        <time>2003-04-14T06:50:56Z</time>
      </trkpt>
      <trkpt lat="31.948317037895322" lon="-4.95756296440959">
        <ele>1270</ele>
        <time>2003-04-14T06:50:59Z</time>
      </trkpt>
      <trkpt lat="31.948161972686648" lon="-4.957537986338139">
        <ele>1267.2</ele>
        <time>2003-04-14T06:51:00Z</time>
      </trkpt>
      <trkpt lat="31.947921998798847" lon="-4.957488030195236">
        <ele>1266.8</ele>
        <time>2003-04-14T06:51:04Z</time>
      </trkpt>
      <trkpt lat="31.947810016572475" lon="-4.957397002726793">
        <ele>1264.5999999999999</ele>
        <time>2003-04-14T06:51:08Z</time>
      </trkpt>
      <trkpt lat="31.947785038501024" lon="-4.957274962216616">
        <ele>1265.5</ele>
        <time>2003-04-14T06:51:09Z</time>
      </trkpt>
      <trkpt lat="31.947722006589174" lon="-4.957162979990244">
        <ele>1265.5999999999999</ele>
        <time>2003-04-14T06:51:12Z</time>
      </trkpt>
      <trkpt lat="31.94758496247232" lon="-4.956992994993925">
        <ele>1265.5</ele>
        <time>2003-04-14T06:51:16Z</time>
      </trkpt>
      <trkpt lat="31.947495024651289" lon="-4.956934992223978">
        <ele>1266</ele>
        <time>2003-04-14T06:51:18Z</time>
      </trkpt>
      <trkpt lat="31.947387987747788" lon="-4.956910014152527">
        <ele>1265.9000000000001</ele>
        <time>2003-04-14T06:51:19Z</time>
      </trkpt>
      <trkpt lat="31.947286985814571" lon="-4.956931974738836">
        <ele>1266.7</ele>
        <time>2003-04-14T06:51:22Z</time>
      </trkpt>
      <trkpt lat="31.94713301025331" lon="-4.956985032185912">
        <ele>1266.9000000000001</ele>
        <time>2003-04-14T06:51:24Z</time>
      </trkpt>
      <trkpt lat="31.947005018591881" lon="-4.957036999985576">
        <ele>1268.7</ele>
        <time>2003-04-14T06:51:27Z</time>
      </trkpt>
      <trkpt lat="31.946833021938801" lon="-4.95708997361362">
        <ele>1268.5</ele>
        <time>2003-04-14T06:51:31Z</time>
      </trkpt>
      <trkpt lat="31.946607967838645" lon="-4.957161974161863">
        <ele>1268.3</ele>
        <time>2003-04-14T06:51:34Z</time>
      </trkpt>
      <trkpt lat="31.946332035586238" lon="-4.957291977480054">
        <ele>1268.0999999999999</ele>
        <time>2003-04-14T06:51:38Z</time>
      </trkpt>
      <trkpt lat="31.946237990632653" lon="-4.957385016605258">
        <ele>1267.9000000000001</ele>
        <time>2003-04-14T06:51:39Z</time>
      </trkpt>
      <trkpt lat="31.94605995900929" lon="-4.957558019086719">
        <ele>1266.3</ele>
        <time>2003-04-14T06:51:43Z</time>
      </trkpt>
      <trkpt lat="31.945938002318144" lon="-4.957613004371524">
        <ele>1264.9000000000001</ele>
        <time>2003-04-14T06:51:46Z</time>
      </trkpt>
      <trkpt lat="31.945486972108483" lon="-4.957788018509746">
        <ele>1263.0999999999999</ele>
        <time>2003-04-14T06:51:53Z</time>
      </trkpt>
      <trkpt lat="31.945278011262417" lon="-4.957852978259325">
        <ele>1262.8</ele>
        <time>2003-04-14T06:51:57Z</time>
      </trkpt>
      <trkpt lat="31.945154964923859" lon="-4.957907041534782">
        <ele>1262.8</ele>
        <time>2003-04-14T06:51:59Z</time>
      </trkpt>
      <trkpt lat="31.945022027939558" lon="-4.957952974364162">
        <ele>1263.5999999999999</ele>
        <time>2003-04-14T06:52:03Z</time>
      </trkpt>
      <trkpt lat="31.944917002692819" lon="-4.958020029589534">
        <ele>1264.3</ele>
        <time>2003-04-14T06:52:08Z</time>
      </trkpt>
      <trkpt lat="31.944807032123208" lon="-4.958105022087693">
        <ele>1264.5</ele>
        <time>2003-04-14T06:52:10Z</time>
      </trkpt>
      <trkpt lat="31.94466495886445" lon="-4.958188002929092">
        <ele>1264.9000000000001</ele>
        <time>2003-04-14T06:52:13Z</time>
      </trkpt>
      <trkpt lat="31.944475024938583" lon="-4.95829202234745">
        <ele>1265.0999999999999</ele>
        <time>2003-04-14T06:52:17Z</time>
      </trkpt>
      <trkpt lat="31.944375028833747" lon="-4.958333009853959">
        <ele>1265.3</ele>
        <time>2003-04-14T06:52:20Z</time>
      </trkpt>
      <trkpt lat="31.944249970838428" lon="-4.958344995975494">
        <ele>1265.2</ele>
        <time>2003-04-14T06:52:21Z</time>
      </trkpt>
      <trkpt lat="31.943840011954308" lon="-4.958354970440269">
        <ele>1265.0999999999999</ele>
        <time>2003-04-14T06:52:28Z</time>
      </trkpt>
      <trkpt lat="31.943689975887537" lon="-4.958342984318733">
        <ele>1264.9000000000001</ele>
        <time>2003-04-14T06:52:29Z</time>
      </trkpt>
      <trkpt lat="31.943486966192722" lon="-4.958280036225915">
        <ele>1264.8</ele>
        <time>2003-04-14T06:52:33Z</time>
      </trkpt>
      <trkpt lat="31.943235006183386" lon="-4.95820501819253">
        <ele>1264.7</ele>
        <time>2003-04-14T06:52:37Z</time>
      </trkpt>
      <trkpt lat="31.94309301674366" lon="-4.958193032070994">
        <ele>1264.4000000000001</ele>
        <time>2003-04-14T06:52:40Z</time>
      </trkpt>
      <trkpt lat="31.942999977618456" lon="-4.95812295936048">
        <ele>1264</ele>
        <time>2003-04-14T06:52:43Z</time>
      </trkpt>
      <trkpt lat="31.942863017320633" lon="-4.957962026819587">
        <ele>1262.2</ele>
        <time>2003-04-14T06:52:47Z</time>
      </trkpt>
      <trkpt lat="31.942745000123978" lon="-4.957881979644299">
        <ele>1260.5999999999999</ele>
        <time>2003-04-14T06:52:48Z</time>
      </trkpt>
      <trkpt lat="31.942645004019141" lon="-4.957758011296392">
        <ele>1260.8</ele>
        <time>2003-04-14T06:52:51Z</time>
      </trkpt>
      <trkpt lat="31.942243007943034" lon="-4.957151999697089">
        <ele>1258.7</ele>
        <time>2003-04-14T06:53:00Z</time>
      </trkpt>
      <trkpt lat="31.942137982696295" lon="-4.95708997361362">
        <ele>1258.4000000000001</ele>
        <time>2003-04-14T06:53:03Z</time>
      </trkpt>
      <trkpt lat="31.942021977156401" lon="-4.95706700719893">
        <ele>1258.0999999999999</ele>
        <time>2003-04-14T06:53:04Z</time>
      </trkpt>
      <trkpt lat="31.941917035728693" lon="-4.957061978057027">
        <ele>1257.5999999999999</ele>
        <time>2003-04-14T06:53:07Z</time>
      </trkpt>
      <trkpt lat="31.941753001883626" lon="-4.957064995542169">
        <ele>1256.5999999999999</ele>
        <time>2003-04-14T06:53:11Z</time>
      </trkpt>
      <trkpt lat="31.941612018272281" lon="-4.957070024684072">
        <ele>1256.0999999999999</ele>
        <time>2003-04-14T06:53:14Z</time>
      </trkpt>
      <trkpt lat="31.941242041066289" lon="-4.957006992772222">
        <ele>1255.4000000000001</ele>
        <time>2003-04-14T06:53:20Z</time>
      </trkpt>
      <trkpt lat="31.940718004480004" lon="-4.957100031897426">
        <ele>1257.0999999999999</ele>
        <time>2003-04-14T06:53:29Z</time>
      </trkpt>
      <trkpt lat="31.940580038353801" lon="-4.957198016345501">
        <ele>1256.5999999999999</ele>
        <time>2003-04-14T06:53:31Z</time>
      </trkpt>
      <trkpt lat="31.940482975915074" lon="-4.957343023270369">
        <ele>1256.5</ele>
        <time>2003-04-14T06:53:33Z</time>
      </trkpt>
      <trkpt lat="31.94040703587234" lon="-4.95751996524632">
        <ele>1256</ele>
        <time>2003-04-14T06:53:34Z</time>
      </trkpt>
      <trkpt lat="31.940333023667336" lon="-4.95767000131309">
        <ele>1255.3</ele>
        <time>2003-04-14T06:53:37Z</time>
      </trkpt>
      <trkpt lat="31.940037980675697" lon="-4.958267966285348">
        <ele>1252.8</ele>
        <time>2003-04-14T06:53:45Z</time>
      </trkpt>
      <trkpt lat="31.939847962930799" lon="-4.95885000564158">
        <ele>1252.7</ele>
        <time>2003-04-14T06:53:50Z</time>
      </trkpt>
      <trkpt lat="31.93959197960794" lon="-4.959934959188104">
        <ele>1251.8</ele>
        <time>2003-04-14T06:54:01Z</time>
      </trkpt>
      <trkpt lat="31.939582005143166" lon="-4.960088012740016">
        <ele>1251.5</ele>
        <time>2003-04-14T06:54:04Z</time>
      </trkpt>
      <trkpt lat="31.939646964892745" lon="-4.960214998573065">
        <ele>1251.0999999999999</ele>
        <time>2003-04-14T06:54:05Z</time>
      </trkpt>
      <trkpt lat="31.939770011231303" lon="-4.960252968594432">
        <ele>1251.7</ele>
        <time>2003-04-14T06:54:08Z</time>
      </trkpt>
      <trkpt lat="31.939904959872365" lon="-4.960302002727985">
        <ele>1252.3</ele>
        <time>2003-04-14T06:54:09Z</time>
      </trkpt>
      <trkpt lat="31.940009985119104" lon="-4.960414990782738">
        <ele>1252.7</ele>
        <time>2003-04-14T06:54:12Z</time>
      </trkpt>
      <trkpt lat="31.94006497040391" lon="-4.960584975779057">
        <ele>1253.7</ele>
        <time>2003-04-14T06:54:13Z</time>
      </trkpt>
      <trkpt lat="31.940203020349145" lon="-4.960944978520274">
        <ele>1254.3</ele>
        <time>2003-04-14T06:54:17Z</time>
      </trkpt>
      <trkpt lat="31.940435031428933" lon="-4.961492987349629">
        <ele>1254.8</ele>
        <time>2003-04-14T06:54:24Z</time>
      </trkpt>
      <trkpt lat="31.940562017261982" lon="-4.961783001199365">
        <ele>1254.5999999999999</ele>
        <time>2003-04-14T06:54:27Z</time>
      </trkpt>
      <trkpt lat="31.940914979204535" lon="-4.962414996698499">
        <ele>1254.7</ele>
        <time>2003-04-14T06:54:33Z</time>
      </trkpt>
      <trkpt lat="31.941012041643262" lon="-4.962582970038056">
        <ele>1254.9000000000001</ele>
        <time>2003-04-14T06:54:36Z</time>
      </trkpt>
      <trkpt lat="31.941182026639581" lon="-4.962908020243049">
        <ele>1255</ele>
        <time>2003-04-14T06:54:40Z</time>
      </trkpt>
      <trkpt lat="31.941207004711032" lon="-4.963084962219">
        <ele>1255.2</ele>
        <time>2003-04-14T06:54:41Z</time>
      </trkpt>
      <trkpt lat="31.941217985004187" lon="-4.963300041854382">
        <ele>1254.7</ele>
        <time>2003-04-14T06:54:44Z</time>
      </trkpt>
      <trkpt lat="31.941197030246258" lon="-4.96340699493885">
        <ele>1253.7</ele>
        <time>2003-04-14T06:54:47Z</time>
      </trkpt>
      <trkpt lat="31.941101979464293" lon="-4.96351302601397">
        <ele>1251.5</ele>
        <time>2003-04-14T06:54:50Z</time>
      </trkpt>
      <trkpt lat="31.941089993342757" lon="-4.963632971048355">
        <ele>1251.2</ele>
        <time>2003-04-14T06:54:52Z</time>
      </trkpt>
      <trkpt lat="31.941161993891001" lon="-4.963755011558533">
        <ele>1251.7</ele>
        <time>2003-04-14T06:54:54Z</time>
      </trkpt>
      <trkpt lat="31.941276993602514" lon="-4.963867999613285">
        <ele>1251.7</ele>
        <time>2003-04-14T06:54:55Z</time>
      </trkpt>
      <trkpt lat="31.941538006067276" lon="-4.964109985157847">
        <ele>1252</ele>
        <time>2003-04-14T06:54:59Z</time>
      </trkpt>
      <trkpt lat="31.942177964374423" lon="-4.964886987581849">
        <ele>1253.4000000000001</ele>
        <time>2003-04-14T06:55:11Z</time>
      </trkpt>
      <trkpt lat="31.942252982407808" lon="-4.965071976184845">
        <ele>1253.4000000000001</ele>
        <time>2003-04-14T06:55:12Z</time>
      </trkpt>
      <trkpt lat="31.942324982956052" lon="-4.965220000594854">
        <ele>1253.5</ele>
        <time>2003-04-14T06:55:15Z</time>
      </trkpt>
      <trkpt lat="31.942418022081256" lon="-4.965346986427903">
        <ele>1253.7</ele>
        <time>2003-04-14T06:55:17Z</time>
      </trkpt>
      <trkpt lat="31.942493040114641" lon="-4.965487970039249">
        <ele>1253.7</ele>
        <time>2003-04-14T06:55:19Z</time>
      </trkpt>
      <trkpt lat="31.942838039249182" lon="-4.96626497246325">
        <ele>1253.4000000000001</ele>
        <time>2003-04-14T06:55:29Z</time>
      </trkpt>
      <trkpt lat="31.942890007048845" lon="-4.966417020186782">
        <ele>1253.4000000000001</ele>
        <time>2003-04-14T06:55:30Z</time>
      </trkpt>
      <trkpt lat="31.943023027852178" lon="-4.966751961037517">
        <ele>1253.2</ele>
        <time>2003-04-14T06:55:34Z</time>
      </trkpt>
      <trkpt lat="31.943044988438487" lon="-4.966954970732331">
        <ele>1253.4000000000001</ele>
        <time>2003-04-14T06:55:37Z</time>
      </trkpt>
      <trkpt lat="31.943027973175049" lon="-4.967167032882571">
        <ele>1253.8</ele>
        <time>2003-04-14T06:55:38Z</time>
      </trkpt>
      <trkpt lat="31.942922025918961" lon="-4.967556959018111">
        <ele>1254.0999999999999</ele>
        <time>2003-04-14T06:55:42Z</time>
      </trkpt>
      <trkpt lat="31.942817000672221" lon="-4.967737002298236">
        <ele>1253.4000000000001</ele>
        <time>2003-04-14T06:55:45Z</time>
      </trkpt>
      <trkpt lat="31.942609967663884" lon="-4.968030033633113">
        <ele>1253.3</ele>
        <time>2003-04-14T06:55:48Z</time>
      </trkpt>
      <trkpt lat="31.942137982696295" lon="-4.968549963086844">
        <ele>1252.5</ele>
        <time>2003-04-14T06:55:53Z</time>
      </trkpt>
      <trkpt lat="31.941745039075613" lon="-4.968914994969964">
        <ele>1252.0999999999999</ele>
        <time>2003-04-14T06:56:00Z</time>
      </trkpt>
      <trkpt lat="31.941644959151745" lon="-4.96907701715827">
        <ele>1252</ele>
        <time>2003-04-14T06:56:01Z</time>
      </trkpt>
      <trkpt lat="31.941543035209179" lon="-4.969225041568279">
        <ele>1251.4000000000001</ele>
        <time>2003-04-14T06:56:02Z</time>
      </trkpt>
      <trkpt lat="31.941404985263944" lon="-4.969397960230708">
        <ele>1250.3</ele>
        <time>2003-04-14T06:56:06Z</time>
      </trkpt>
      <trkpt lat="31.941355029121041" lon="-4.969542967155576">
        <ele>1249.4000000000001</ele>
        <time>2003-04-14T06:56:08Z</time>
      </trkpt>
      <trkpt lat="31.941286968067288" lon="-4.969682022929192">
        <ele>1248.5999999999999</ele>
        <time>2003-04-14T06:56:09Z</time>
      </trkpt>
      <trkpt lat="31.941152019426227" lon="-4.969925014302135">
        <ele>1247.8</ele>
        <time>2003-04-14T06:56:13Z</time>
      </trkpt>
      <trkpt lat="31.941053029149771" lon="-4.970164988189936">
        <ele>1247</ele>
        <time>2003-04-14T06:56:16Z</time>
      </trkpt>
      <trkpt lat="31.94083702750504" lon="-4.970498001202941">
        <ele>1246.5</ele>
        <time>2003-04-14T06:56:20Z</time>
      </trkpt>
      <trkpt lat="31.940714986994863" lon="-4.970647031441331">
        <ele>1246.4000000000001</ele>
        <time>2003-04-14T06:56:21Z</time>
      </trkpt>
      <trkpt lat="31.94055799394846" lon="-4.970745015889406">
        <ele>1246.5</ele>
        <time>2003-04-14T06:56:24Z</time>
      </trkpt>
      <trkpt lat="31.940145017579198" lon="-4.970979960635305">
        <ele>1246.9000000000001</ele>
        <time>2003-04-14T06:56:29Z</time>
      </trkpt>
      <trkpt lat="31.939927004277706" lon="-4.971117004752159">
        <ele>1246.9000000000001</ele>
        <time>2003-04-14T06:56:32Z</time>
      </trkpt>
      <trkpt lat="31.939789960160851" lon="-4.971111975610256">
        <ele>1247.2</ele>
        <time>2003-04-14T06:56:35Z</time>
      </trkpt>
      <trkpt lat="31.939683007076383" lon="-4.971172995865345">
        <ele>1247.3</ele>
        <time>2003-04-14T06:56:36Z</time>
      </trkpt>
      <trkpt lat="31.939568007364869" lon="-4.971282966434956">
        <ele>1247.5</ele>
        <time>2003-04-14T06:56:39Z</time>
      </trkpt>
      <trkpt lat="31.939427023753524" lon="-4.97139997780323">
        <ele>1247.5</ele>
        <time>2003-04-14T06:56:40Z</time>
      </trkpt>
      <trkpt lat="31.939234994351864" lon="-4.971580021083355">
        <ele>1247</ele>
        <time>2003-04-14T06:56:43Z</time>
      </trkpt>
      <trkpt lat="31.939074983820319" lon="-4.971602987498045">
        <ele>1247</ele>
        <time>2003-04-14T06:56:46Z</time>
      </trkpt>
      <trkpt lat="31.938898041844368" lon="-4.971586978062987">
        <ele>1247.2</ele>
        <time>2003-04-14T06:56:47Z</time>
      </trkpt>
      <trkpt lat="31.938716992735863" lon="-4.971595024690032">
        <ele>1247.5999999999999</ele>
        <time>2003-04-14T06:56:50Z</time>
      </trkpt>
      <trkpt lat="31.93853996694088" lon="-4.971608016639948">
        <ele>1247.5</ele>
        <time>2003-04-14T06:56:51Z</time>
      </trkpt>
      <trkpt lat="31.93808801472187" lon="-4.971552025526762">
        <ele>1247.7</ele>
        <time>2003-04-14T06:56:56Z</time>
      </trkpt>
      <trkpt lat="31.937932027503848" lon="-4.971565017476678">
        <ele>1247.5999999999999</ele>
        <time>2003-04-14T06:56:59Z</time>
      </trkpt>
      <trkpt lat="31.93780998699367" lon="-4.971652021631599">
        <ele>1247.4000000000001</ele>
        <time>2003-04-14T06:57:00Z</time>
      </trkpt>
      <trkpt lat="31.937718037515879" lon="-4.97178697027266">
        <ele>1246.8</ele>
        <time>2003-04-14T06:57:03Z</time>
      </trkpt>
      <trkpt lat="31.937568001449108" lon="-4.971862994134426">
        <ele>1246.4000000000001</ele>
        <time>2003-04-14T06:57:05Z</time>
      </trkpt>
      <trkpt lat="31.937473034486175" lon="-4.971874980255961">
        <ele>1246.4000000000001</ele>
        <time>2003-04-14T06:57:06Z</time>
      </trkpt>
      <trkpt lat="31.937262983992696" lon="-4.97187003493309">
        <ele>1246.2</ele>
        <time>2003-04-14T06:57:07Z</time>
      </trkpt>
      <trkpt lat="31.936602992936969" lon="-4.971817983314395">
        <ele>1246</ele>
        <time>2003-04-14T06:57:14Z</time>
      </trkpt>
      <trkpt lat="31.936039980500937" lon="-4.971710024401546">
        <ele>1245.7</ele>
        <time>2003-04-14T06:57:18Z</time>
      </trkpt>
      <trkpt lat="31.935703027993441" lon="-4.971735002472997">
        <ele>1245.7</ele>
        <time>2003-04-14T06:57:22Z</time>
      </trkpt>
      <trkpt lat="31.934987967833877" lon="-4.97178697027266">
        <ele>1245.2</ele>
        <time>2003-04-14T06:57:29Z</time>
      </trkpt>
      <trkpt lat="31.934626959264278" lon="-4.971770038828254">
        <ele>1245.5</ele>
        <time>2003-04-14T06:57:33Z</time>
      </trkpt>
      <trkpt lat="31.934359995648265" lon="-4.971727961674333">
        <ele>1245.3</ele>
        <time>2003-04-14T06:57:36Z</time>
      </trkpt>
      <trkpt lat="31.933800000697374" lon="-4.971771966665983">
        <ele>1245.0999999999999</ele>
        <time>2003-04-14T06:57:41Z</time>
      </trkpt>
      <trkpt lat="31.933537982404232" lon="-4.971908004954457">
        <ele>1245</ele>
        <time>2003-04-14T06:57:45Z</time>
      </trkpt>
      <trkpt lat="31.933332961052656" lon="-4.972062986344099">
        <ele>1244.7</ele>
        <time>2003-04-14T06:57:48Z</time>
      </trkpt>
      <trkpt lat="31.933243023231626" lon="-4.972232971340418">
        <ele>1244.7</ele>
        <time>2003-04-14T06:57:49Z</time>
      </trkpt>
      <trkpt lat="31.933183008804917" lon="-4.972315030172467">
        <ele>1245.4000000000001</ele>
        <time>2003-04-14T06:57:50Z</time>
      </trkpt>
      <trkpt lat="31.932876985520124" lon="-4.972760025411844">
        <ele>1245.3</ele>
        <time>2003-04-14T06:57:56Z</time>
      </trkpt>
      <trkpt lat="31.932831974700093" lon="-4.972962029278278">
        <ele>1245.7</ele>
        <time>2003-04-14T06:57:57Z</time>
      </trkpt>
      <trkpt lat="31.932817976921797" lon="-4.973165038973093">
        <ele>1246.3</ele>
        <time>2003-04-14T06:58:00Z</time>
      </trkpt>
      <trkpt lat="31.932844966650009" lon="-4.973360002040863">
        <ele>1245.9000000000001</ele>
        <time>2003-04-14T06:58:01Z</time>
      </trkpt>
      <trkpt lat="31.932857036590576" lon="-4.973537027835846">
        <ele>1245.5</ele>
        <time>2003-04-14T06:58:04Z</time>
      </trkpt>
      <trkpt lat="31.932817976921797" lon="-4.973737020045519">
        <ele>1244.3</ele>
        <time>2003-04-14T06:58:05Z</time>
      </trkpt>
      <trkpt lat="31.932817976921797" lon="-4.97393298894167">
        <ele>1243.5</ele>
        <time>2003-04-14T06:58:08Z</time>
      </trkpt>
      <trkpt lat="31.932765003293753" lon="-4.974116971716285">
        <ele>1243</ele>
        <time>2003-04-14T06:58:09Z</time>
      </trkpt>
      <trkpt lat="31.932683028280735" lon="-4.974283017218113">
        <ele>1242.3</ele>
        <time>2003-04-14T06:58:12Z</time>
      </trkpt>
      <trkpt lat="31.932512959465384" lon="-4.974570013582707">
        <ele>1241.8</ele>
        <time>2003-04-14T06:58:15Z</time>
      </trkpt>
      <trkpt lat="31.932359989732504" lon="-4.974892968311906">
        <ele>1241.7</ele>
        <time>2003-04-14T06:58:17Z</time>
      </trkpt>
      <trkpt lat="31.932229986414313" lon="-4.975164961069822">
        <ele>1241.8</ele>
        <time>2003-04-14T06:58:20Z</time>
      </trkpt>
      <trkpt lat="31.932126972824335" lon="-4.975360007956624">
        <ele>1241.7</ele>
        <time>2003-04-14T06:58:24Z</time>
      </trkpt>
      <trkpt lat="31.93205002695322" lon="-4.975490011274815">
        <ele>1242.0999999999999</ele>
        <time>2003-04-14T06:58:27Z</time>
      </trkpt>
      <trkpt lat="31.93209202028811" lon="-4.975638035684824">
        <ele>1241.9000000000001</ele>
        <time>2003-04-14T06:58:28Z</time>
      </trkpt>
      <trkpt lat="31.932090008631349" lon="-4.975805003196001">
        <ele>1242</ele>
        <time>2003-04-14T06:58:31Z</time>
      </trkpt>
      <trkpt lat="31.932018008083105" lon="-4.975984962657094">
        <ele>1242.0999999999999</ele>
        <time>2003-04-14T06:58:32Z</time>
      </trkpt>
      <trkpt lat="31.932005016133189" lon="-4.976093005388975">
        <ele>1241.8</ele>
        <time>2003-04-14T06:58:34Z</time>
      </trkpt>
      <trkpt lat="31.932008033618331" lon="-4.976204987615347">
        <ele>1241.7</ele>
        <time>2003-04-14T06:58:35Z</time>
      </trkpt>
      <trkpt lat="31.931995041668415" lon="-4.976416965946555">
        <ele>1241.5</ele>
        <time>2003-04-14T06:58:36Z</time>
      </trkpt>
      <trkpt lat="31.931909965351224" lon="-4.976894985884428">
        <ele>1240.9000000000001</ele>
        <time>2003-04-14T06:58:42Z</time>
      </trkpt>
      <trkpt lat="31.931852968409657" lon="-4.97707000002265">
        <ele>1240.8</ele>
        <time>2003-04-14T06:58:43Z</time>
      </trkpt>
      <trkpt lat="31.931826984509826" lon="-4.977292958647013">
        <ele>1239.5</ele>
        <time>2003-04-14T06:58:46Z</time>
      </trkpt>
      <trkpt lat="31.931712990626693" lon="-4.978069961071014">
        <ele>1240.2</ele>
        <time>2003-04-14T06:58:53Z</time>
      </trkpt>
      <trkpt lat="31.93170502781868" lon="-4.978259978815913">
        <ele>1239.9000000000001</ele>
        <time>2003-04-14T06:58:55Z</time>
      </trkpt>
      <trkpt lat="31.931633027270436" lon="-4.978447984904051">
        <ele>1239.9000000000001</ele>
        <time>2003-04-14T06:58:57Z</time>
      </trkpt>
      <trkpt lat="31.931143021211028" lon="-4.979328000918031">
        <ele>1239.5999999999999</ele>
        <time>2003-04-14T06:59:06Z</time>
      </trkpt>
      <trkpt lat="31.930940011516213" lon="-4.979590019211173">
        <ele>1239.7</ele>
        <time>2003-04-14T06:59:09Z</time>
      </trkpt>
      <trkpt lat="31.930785030126572" lon="-4.979711975902319">
        <ele>1240</ele>
        <time>2003-04-14T06:59:10Z</time>
      </trkpt>
      <trkpt lat="31.930646980181336" lon="-4.979856982827187">
        <ele>1240.3</ele>
        <time>2003-04-14T06:59:13Z</time>
      </trkpt>
      <trkpt lat="31.930601969361305" lon="-4.979953039437532">
        <ele>1240</ele>
        <time>2003-04-14T06:59:14Z</time>
      </trkpt>
      <trkpt lat="31.930538015440106" lon="-4.980167029425502">
        <ele>1239.8</ele>
        <time>2003-04-14T06:59:15Z</time>
      </trkpt>
      <trkpt lat="31.930487975478172" lon="-4.980265013873577">
        <ele>1239.8</ele>
        <time>2003-04-14T06:59:17Z</time>
      </trkpt>
      <trkpt lat="31.930412035435438" lon="-4.980352018028498">
        <ele>1239.3</ele>
        <time>2003-04-14T06:59:18Z</time>
      </trkpt>
      <trkpt lat="31.930320002138615" lon="-4.980428041890264">
        <ele>1239.3</ele>
        <time>2003-04-14T06:59:18Z</time>
      </trkpt>
      <trkpt lat="31.930220006033778" lon="-4.98048696666956">
        <ele>1239.2</ele>
        <time>2003-04-14T06:59:20Z</time>
      </trkpt>
      <trkpt lat="31.929745003581047" lon="-4.98070296831429">
        <ele>1238.9000000000001</ele>
        <time>2003-04-14T06:59:25Z</time>
      </trkpt>
      <trkpt lat="31.929526990279555" lon="-4.9806800018996">
        <ele>1239.8</ele>
        <time>2003-04-14T06:59:26Z</time>
      </trkpt>
      <trkpt lat="31.929315011948347" lon="-4.980677990242839">
        <ele>1239.8</ele>
        <time>2003-04-14T06:59:29Z</time>
      </trkpt>
      <trkpt lat="31.929209986701608" lon="-4.98065996915102">
        <ele>1239.7</ele>
        <time>2003-04-14T06:59:29Z</time>
      </trkpt>
      <trkpt lat="31.929098004475236" lon="-4.980614958330989">
        <ele>1239.7</ele>
        <time>2003-04-14T06:59:30Z</time>
      </trkpt>
      <trkpt lat="31.928517976775765" lon="-4.980327961966395">
        <ele>1239.3</ele>
        <time>2003-04-14T06:59:37Z</time>
      </trkpt>
      <trkpt lat="31.928389985114336" lon="-4.980187984183431">
        <ele>1239.0999999999999</ele>
        <time>2003-04-14T06:59:38Z</time>
      </trkpt>
      <trkpt lat="31.928312033414841" lon="-4.980059992522001">
        <ele>1239.3</ele>
        <time>2003-04-14T06:59:41Z</time>
      </trkpt>
      <trkpt lat="31.928223017603159" lon="-4.980007018893957">
        <ele>1239.0999999999999</ele>
        <time>2003-04-14T06:59:42Z</time>
      </trkpt>
      <trkpt lat="31.928120004013181" lon="-4.98001498170197">
        <ele>1237.8</ele>
        <time>2003-04-14T06:59:45Z</time>
      </trkpt>
      <trkpt lat="31.92803299985826" lon="-4.980067033320665">
        <ele>1237.2</ele>
        <time>2003-04-14T06:59:47Z</time>
      </trkpt>
      <trkpt lat="31.927937027066946" lon="-4.980069966986775">
        <ele>1236.2</ele>
        <time>2003-04-14T06:59:49Z</time>
      </trkpt>
      <trkpt lat="31.927842982113361" lon="-4.980048006400466">
        <ele>1241.7</ele>
        <time>2003-04-14T07:04:52Z</time>
      </trkpt>
      <trkpt lat="31.92794700153172" lon="-4.980001989752054">
        <ele>1238.4000000000001</ele>
        <time>2003-04-14T07:05:21Z</time>
      </trkpt>
      <trkpt lat="31.927844993770123" lon="-4.980027973651886">
        <ele>1243.0999999999999</ele>
        <time>2003-04-14T07:06:19Z</time>
      </trkpt>
      <trkpt lat="31.927965022623539" lon="-4.979972988367081">
        <ele>1242.9000000000001</ele>
        <time>2003-04-14T07:06:54Z</time>
      </trkpt>
      <trkpt lat="31.927827978506684" lon="-4.979877015575767">
        <ele>1238.3</ele>
        <time>2003-04-14T07:09:23Z</time>
      </trkpt>
      <trkpt lat="31.927748015150428" lon="-4.979763021692634">
        <ele>1237.9000000000001</ele>
        <time>2003-04-14T07:09:26Z</time>
      </trkpt>
      <trkpt lat="31.927682971581817" lon="-4.979652967303991">
        <ele>1237.5999999999999</ele>
        <time>2003-04-14T07:09:28Z</time>
      </trkpt>
      <trkpt lat="31.927633015438914" lon="-4.979520030319691">
        <ele>1237.7</ele>
        <time>2003-04-14T07:09:31Z</time>
      </trkpt>
      <trkpt lat="31.927550034597516" lon="-4.979397989809513">
        <ele>1237.7</ele>
        <time>2003-04-14T07:09:35Z</time>
      </trkpt>
      <trkpt lat="31.927490020170808" lon="-4.979317020624876">
        <ele>1237.8</ele>
        <time>2003-04-14T07:09:36Z</time>
      </trkpt>
      <trkpt lat="31.92738801240921" lon="-4.979203026741743">
        <ele>1237.8</ele>
        <time>2003-04-14T07:09:39Z</time>
      </trkpt>
      <trkpt lat="31.927311988547444" lon="-4.979079980403185">
        <ele>1237.9000000000001</ele>
        <time>2003-04-14T07:09:43Z</time>
      </trkpt>
      <trkpt lat="31.927230013534427" lon="-4.978967998176813">
        <ele>1237.8</ele>
        <time>2003-04-14T07:09:46Z</time>
      </trkpt>
      <trkpt lat="31.9271519780159" lon="-4.978906977921724">
        <ele>1237.5</ele>
        <time>2003-04-14T07:09:49Z</time>
      </trkpt>
      <trkpt lat="31.927033038809896" lon="-4.97883296571672">
        <ele>1237</ele>
        <time>2003-04-14T07:09:54Z</time>
      </trkpt>
      <trkpt lat="31.926918039098382" lon="-4.978759959340096">
        <ele>1237</ele>
        <time>2003-04-14T07:09:58Z</time>
      </trkpt>
      <trkpt lat="31.926792981103063" lon="-4.978740010410547">
        <ele>1237.7</ele>
        <time>2003-04-14T07:10:02Z</time>
      </trkpt>
      <trkpt lat="31.926600029692054" lon="-4.978722995147109">
        <ele>1237.5999999999999</ele>
        <time>2003-04-14T07:10:08Z</time>
      </trkpt>
      <trkpt lat="31.926457034423947" lon="-4.978710003197193">
        <ele>1238.4000000000001</ele>
        <time>2003-04-14T07:10:10Z</time>
      </trkpt>
      <trkpt lat="31.92635502666235" lon="-4.978676978498697">
        <ele>1239</ele>
        <time>2003-04-14T07:10:13Z</time>
      </trkpt>
      <trkpt lat="31.926255030557513" lon="-4.978610007092357">
        <ele>1238.8</ele>
        <time>2003-04-14T07:10:14Z</time>
      </trkpt>
      <trkpt lat="31.926157968118787" lon="-4.97855301015079">
        <ele>1238.4000000000001</ele>
        <time>2003-04-14T07:10:17Z</time>
      </trkpt>
      <trkpt lat="31.925522033125162" lon="-4.978189989924431">
        <ele>1238.5999999999999</ele>
        <time>2003-04-14T07:10:32Z</time>
      </trkpt>
      <trkpt lat="31.925397980958223" lon="-4.978110026568174">
        <ele>1238.3</ele>
        <time>2003-04-14T07:10:35Z</time>
      </trkpt>
      <trkpt lat="31.925220033153892" lon="-4.977992009371519">
        <ele>1237.9000000000001</ele>
        <time>2003-04-14T07:10:40Z</time>
      </trkpt>
      <trkpt lat="31.925136968493462" lon="-4.97788698412478">
        <ele>1237.5</ele>
        <time>2003-04-14T07:10:43Z</time>
      </trkpt>
      <trkpt lat="31.92513202317059" lon="-4.977763015776873">
        <ele>1237.3</ele>
        <time>2003-04-14T07:10:44Z</time>
      </trkpt>
      <trkpt lat="31.925121964886785" lon="-4.977569980546832">
        <ele>1236.5</ele>
        <time>2003-04-14T07:10:48Z</time>
      </trkpt>
      <trkpt lat="31.924973018467426" lon="-4.977462021633983">
        <ele>1236.8</ele>
        <time>2003-04-14T07:10:52Z</time>
      </trkpt>
      <trkpt lat="31.924734972417355" lon="-4.977390021085739">
        <ele>1236.5999999999999</ele>
        <time>2003-04-14T07:10:57Z</time>
      </trkpt>
      <trkpt lat="31.924643022939563" lon="-4.977393038570881">
        <ele>1236.4000000000001</ele>
        <time>2003-04-14T07:11:00Z</time>
      </trkpt>
      <trkpt lat="31.924558030441403" lon="-4.977430002763867">
        <ele>1236</ele>
        <time>2003-04-14T07:11:02Z</time>
      </trkpt>
      <trkpt lat="31.924482006579638" lon="-4.977512983605266">
        <ele>1235.0999999999999</ele>
        <time>2003-04-14T07:11:04Z</time>
      </trkpt>
      <trkpt lat="31.924387961626053" lon="-4.977567968890071">
        <ele>1234.4000000000001</ele>
        <time>2003-04-14T07:11:06Z</time>
      </trkpt>
      <trkpt lat="31.924240021035075" lon="-4.977611973881722">
        <ele>1235.5999999999999</ele>
        <time>2003-04-14T07:11:08Z</time>
      </trkpt>
      <trkpt lat="31.924099959433079" lon="-4.977626977488399">
        <ele>1236.4000000000001</ele>
        <time>2003-04-14T07:11:12Z</time>
      </trkpt>
      <trkpt lat="31.923871971666813" lon="-4.977666959166527">
        <ele>1236</ele>
        <time>2003-04-14T07:11:20Z</time>
      </trkpt>
      <trkpt lat="31.923768036067486" lon="-4.977732002735138">
        <ele>1235.9000000000001</ele>
        <time>2003-04-14T07:11:23Z</time>
      </trkpt>
      <trkpt lat="31.923677008599043" lon="-4.977816995233297">
        <ele>1235.8</ele>
        <time>2003-04-14T07:11:26Z</time>
      </trkpt>
      <trkpt lat="31.923590004444122" lon="-4.977946998551488">
        <ele>1235.7</ele>
        <time>2003-04-14T07:11:27Z</time>
      </trkpt>
      <trkpt lat="31.92352001555264" lon="-4.978086976334453">
        <ele>1235.7</ele>
        <time>2003-04-14T07:11:30Z</time>
      </trkpt>
      <trkpt lat="31.923426976427436" lon="-4.978374978527427">
        <ele>1235.7</ele>
        <time>2003-04-14T07:11:34Z</time>
      </trkpt>
      <trkpt lat="31.923407027497888" lon="-4.978542029857636">
        <ele>1235.7</ele>
        <time>2003-04-14T07:11:35Z</time>
      </trkpt>
      <trkpt lat="31.923412978649139" lon="-4.978727018460631">
        <ele>1235.7</ele>
        <time>2003-04-14T07:11:38Z</time>
      </trkpt>
      <trkpt lat="31.923469975590706" lon="-4.979066988453269">
        <ele>1235.7</ele>
        <time>2003-04-14T07:11:42Z</time>
      </trkpt>
      <trkpt lat="31.923529990017414" lon="-4.979242002591491">
        <ele>1235.0999999999999</ele>
        <time>2003-04-14T07:11:45Z</time>
      </trkpt>
      <trkpt lat="31.923633003607392" lon="-4.979552971199155">
        <ele>1231.9000000000001</ele>
        <time>2003-04-14T07:11:50Z</time>
      </trkpt>
      <trkpt lat="31.923674996942282" lon="-4.979681968688965">
        <ele>1232.5</ele>
        <time>2003-04-14T07:11:51Z</time>
      </trkpt>
      <trkpt lat="31.923682037740946" lon="-4.979803003370762">
        <ele>1231.5</ele>
        <time>2003-04-14T07:11:54Z</time>
      </trkpt>
      <trkpt lat="31.923582041636109" lon="-4.980026967823505">
        <ele>1231.7</ele>
        <time>2003-04-14T07:12:01Z</time>
      </trkpt>
      <trkpt lat="31.923469975590706" lon="-4.980087988078594">
        <ele>1231.5999999999999</ele>
        <time>2003-04-14T07:12:04Z</time>
      </trkpt>
      <trkpt lat="31.923395041376352" lon="-4.980178009718657">
        <ele>1232.5</ele>
        <time>2003-04-14T07:12:06Z</time>
      </trkpt>
      <trkpt lat="31.923407027497888" lon="-4.980312958359718">
        <ele>1232.5</ele>
        <time>2003-04-14T07:12:09Z</time>
      </trkpt>
      <trkpt lat="31.923450026661158" lon="-4.980499958619475">
        <ele>1232.3</ele>
        <time>2003-04-14T07:12:13Z</time>
      </trkpt>
      <trkpt lat="31.923472993075848" lon="-4.980647983029485">
        <ele>1232.0999999999999</ele>
        <time>2003-04-14T07:12:14Z</time>
      </trkpt>
      <trkpt lat="31.923496965318918" lon="-4.980791984125972">
        <ele>1232.2</ele>
        <time>2003-04-14T07:12:17Z</time>
      </trkpt>
      <trkpt lat="31.923537030816078" lon="-4.981007985770702">
        <ele>1231.8</ele>
        <time>2003-04-14T07:12:20Z</time>
      </trkpt>
      <trkpt lat="31.923567960038781" lon="-4.981149975210428">
        <ele>1231.8</ele>
        <time>2003-04-14T07:12:21Z</time>
      </trkpt>
      <trkpt lat="31.923641972243786" lon="-4.981260029599071">
        <ele>1231.7</ele>
        <time>2003-04-14T07:12:24Z</time>
      </trkpt>
      <trkpt lat="31.923682959750295" lon="-4.981375029310584">
        <ele>1231.3</ele>
        <time>2003-04-14T07:12:25Z</time>
      </trkpt>
      <trkpt lat="31.923731993883848" lon="-4.981522969901562">
        <ele>1231.0999999999999</ele>
        <time>2003-04-14T07:12:28Z</time>
      </trkpt>
      <trkpt lat="31.923732999712229" lon="-4.981645010411739">
        <ele>1230.9000000000001</ele>
        <time>2003-04-14T07:12:31Z</time>
      </trkpt>
      <trkpt lat="31.92375797778368" lon="-4.981779959052801">
        <ele>1230.9000000000001</ele>
        <time>2003-04-14T07:12:32Z</time>
      </trkpt>
      <trkpt lat="31.923822015523911" lon="-4.981884984299541">
        <ele>1230.8</ele>
        <time>2003-04-14T07:12:35Z</time>
      </trkpt>
      <trkpt lat="31.923884963616729" lon="-4.981980035081506">
        <ele>1230.9000000000001</ele>
        <time>2003-04-14T07:12:36Z</time>
      </trkpt>
      <trkpt lat="31.923887981101871" lon="-4.982108026742935">
        <ele>1230.8</ele>
        <time>2003-04-14T07:12:39Z</time>
      </trkpt>
      <trkpt lat="31.923842970281839" lon="-4.982326962053776">
        <ele>1230.5999999999999</ele>
        <time>2003-04-14T07:12:41Z</time>
      </trkpt>
      <trkpt lat="31.923840036615729" lon="-4.982472974807024">
        <ele>1230.5</ele>
        <time>2003-04-14T07:12:44Z</time>
      </trkpt>
      <trkpt lat="31.923793014138937" lon="-4.982595015317202">
        <ele>1230.0999999999999</ele>
        <time>2003-04-14T07:12:45Z</time>
      </trkpt>
      <trkpt lat="31.923771975561976" lon="-4.982734993100166">
        <ele>1229.7</ele>
        <time>2003-04-14T07:12:48Z</time>
      </trkpt>
      <trkpt lat="31.923756971955299" lon="-4.982998017221689">
        <ele>1229.5</ele>
        <time>2003-04-14T07:12:51Z</time>
      </trkpt>
      <trkpt lat="31.923712966963649" lon="-4.983183005824685">
        <ele>1229.0999999999999</ele>
        <time>2003-04-14T07:12:52Z</time>
      </trkpt>
      <trkpt lat="31.923626968637109" lon="-4.983357014134526">
        <ele>1228.9000000000001</ele>
        <time>2003-04-14T07:12:55Z</time>
      </trkpt>
      <trkpt lat="31.92330501973629" lon="-4.98390200547874">
        <ele>1228.7</ele>
        <time>2003-04-14T07:13:02Z</time>
      </trkpt>
      <trkpt lat="31.923194965347648" lon="-4.984003007411957">
        <ele>1229</ele>
        <time>2003-04-14T07:13:03Z</time>
      </trkpt>
      <trkpt lat="31.923092035576701" lon="-4.984123036265373">
        <ele>1229</ele>
        <time>2003-04-14T07:13:06Z</time>
      </trkpt>
      <trkpt lat="31.922994973137975" lon="-4.984227977693081">
        <ele>1228.8</ele>
        <time>2003-04-14T07:13:07Z</time>
      </trkpt>
      <trkpt lat="31.922849966213107" lon="-4.984250022098422">
        <ele>1228.7</ele>
        <time>2003-04-14T07:13:10Z</time>
      </trkpt>
      <trkpt lat="31.922603035345674" lon="-4.984192019328475">
        <ele>1228.9000000000001</ele>
        <time>2003-04-14T07:13:12Z</time>
      </trkpt>
      <trkpt lat="31.922446964308619" lon="-4.984101997688413">
        <ele>1228.8</ele>
        <time>2003-04-14T07:13:15Z</time>
      </trkpt>
      <trkpt lat="31.922313021495938" lon="-4.983982974663377">
        <ele>1228.9000000000001</ele>
        <time>2003-04-14T07:13:17Z</time>
      </trkpt>
      <trkpt lat="31.9220370054245" lon="-4.983658008277416">
        <ele>1229.0999999999999</ele>
        <time>2003-04-14T07:13:22Z</time>
      </trkpt>
      <trkpt lat="31.92193198017776" lon="-4.983530016615987">
        <ele>1229.2</ele>
        <time>2003-04-14T07:13:23Z</time>
      </trkpt>
      <trkpt lat="31.921665016561747" lon="-4.983292976394296">
        <ele>1229.0999999999999</ele>
        <time>2003-04-14T07:13:29Z</time>
      </trkpt>
      <trkpt lat="31.921542976051569" lon="-4.98323799110949">
        <ele>1229.0999999999999</ele>
        <time>2003-04-14T07:13:30Z</time>
      </trkpt>
      <trkpt lat="31.921295039355755" lon="-4.983179988339543">
        <ele>1229</ele>
        <time>2003-04-14T07:13:34Z</time>
      </trkpt>
      <trkpt lat="31.921120025217533" lon="-4.983164984732866">
        <ele>1229</ele>
        <time>2003-04-14T07:13:38Z</time>
      </trkpt>
      <trkpt lat="31.921035032719374" lon="-4.98306498862803">
        <ele>1228.9000000000001</ele>
        <time>2003-04-14T07:13:39Z</time>
      </trkpt>
      <trkpt lat="31.920951968058944" lon="-4.98284999281168">
        <ele>1228.9000000000001</ele>
        <time>2003-04-14T07:13:42Z</time>
      </trkpt>
      <trkpt lat="31.920860018581152" lon="-4.982737004756928">
        <ele>1228.9000000000001</ele>
        <time>2003-04-14T07:13:45Z</time>
      </trkpt>
      <trkpt lat="31.920617027208209" lon="-4.982535000890493">
        <ele>1228.8</ele>
        <time>2003-04-14T07:13:49Z</time>
      </trkpt>
      <trkpt lat="31.920509990304708" lon="-4.982522008940578">
        <ele>1228.8</ele>
        <time>2003-04-14T07:13:52Z</time>
      </trkpt>
      <trkpt lat="31.920409994199872" lon="-4.982512034475803">
        <ele>1228.8</ele>
        <time>2003-04-14T07:13:53Z</time>
      </trkpt>
      <trkpt lat="31.920309998095036" lon="-4.982487978413701">
        <ele>1228.7</ele>
        <time>2003-04-14T07:13:56Z</time>
      </trkpt>
      <trkpt lat="31.920155016705394" lon="-4.98239804059267">
        <ele>1228.7</ele>
        <time>2003-04-14T07:13:58Z</time>
      </trkpt>
      <trkpt lat="31.91973801702261" lon="-4.982101991772652">
        <ele>1228.5999999999999</ele>
        <time>2003-04-14T07:14:05Z</time>
      </trkpt>
      <trkpt lat="31.919529978185892" lon="-4.981966959312558">
        <ele>1228.5</ele>
        <time>2003-04-14T07:14:09Z</time>
      </trkpt>
      <trkpt lat="31.919037960469723" lon="-4.981635035946965">
        <ele>1228.0999999999999</ele>
        <time>2003-04-14T07:14:16Z</time>
      </trkpt>
      <trkpt lat="31.918820030987263" lon="-4.981385003775358">
        <ele>1227.9000000000001</ele>
        <time>2003-04-14T07:14:20Z</time>
      </trkpt>
      <trkpt lat="31.918675024062395" lon="-4.981204960495234">
        <ele>1227.4000000000001</ele>
        <time>2003-04-14T07:14:24Z</time>
      </trkpt>
      <trkpt lat="31.918506966903806" lon="-4.981062971055508">
        <ele>1227.5</ele>
        <time>2003-04-14T07:14:27Z</time>
      </trkpt>
      <trkpt lat="31.918334970250726" lon="-4.9809580296278">
        <ele>1227.3</ele>
        <time>2003-04-14T07:14:29Z</time>
      </trkpt>
      <trkpt lat="31.918188035488129" lon="-4.980801958590746">
        <ele>1227</ele>
        <time>2003-04-14T07:14:32Z</time>
      </trkpt>
      <trkpt lat="31.918057026341558" lon="-4.980589980259538">
        <ele>1226.9000000000001</ele>
        <time>2003-04-14T07:14:36Z</time>
      </trkpt>
      <trkpt lat="31.917844964191318" lon="-4.979963013902307">
        <ele>1227</ele>
        <time>2003-04-14T07:14:43Z</time>
      </trkpt>
      <trkpt lat="31.917816968634725" lon="-4.979792023077607">
        <ele>1226.9000000000001</ele>
        <time>2003-04-14T07:14:44Z</time>
      </trkpt>
      <trkpt lat="31.917795008048415" lon="-4.97962698340416">
        <ele>1227.3</ele>
        <time>2003-04-14T07:14:47Z</time>
      </trkpt>
      <trkpt lat="31.917616976425052" lon="-4.97870497405529">
        <ele>1226.7</ele>
        <time>2003-04-14T07:14:58Z</time>
      </trkpt>
      <trkpt lat="31.917540030553937" lon="-4.978591986000538">
        <ele>1226.2</ele>
        <time>2003-04-14T07:14:59Z</time>
      </trkpt>
      <trkpt lat="31.917510023340583" lon="-4.978476986289024">
        <ele>1225.5</ele>
        <time>2003-04-14T07:15:02Z</time>
      </trkpt>
      <trkpt lat="31.917463000863791" lon="-4.978374978527427">
        <ele>1225.0999999999999</ele>
        <time>2003-04-14T07:15:03Z</time>
      </trkpt>
      <trkpt lat="31.917374990880489" lon="-4.978217985481024">
        <ele>1225.3</ele>
        <time>2003-04-14T07:15:07Z</time>
      </trkpt>
      <trkpt lat="31.917356969788671" lon="-4.978067027404904">
        <ele>1225.8</ele>
        <time>2003-04-14T07:15:10Z</time>
      </trkpt>
      <trkpt lat="31.9173329975456" lon="-4.977920008823276">
        <ele>1225.4000000000001</ele>
        <time>2003-04-14T07:15:14Z</time>
      </trkpt>
      <trkpt lat="31.917299972847104" lon="-4.977780031040311">
        <ele>1224.9000000000001</ele>
        <time>2003-04-14T07:15:17Z</time>
      </trkpt>
      <trkpt lat="31.917254962027073" lon="-4.977556988596916">
        <ele>1224.5999999999999</ele>
        <time>2003-04-14T07:15:22Z</time>
      </trkpt>
      <trkpt lat="31.917207017540932" lon="-4.977350039407611">
        <ele>1223.8</ele>
        <time>2003-04-14T07:15:26Z</time>
      </trkpt>
      <trkpt lat="31.917153038084507" lon="-4.977254988625646">
        <ele>1223.4000000000001</ele>
        <time>2003-04-14T07:15:30Z</time>
      </trkpt>
      <trkpt lat="31.917110038921237" lon="-4.977148035541177">
        <ele>1222.7</ele>
        <time>2003-04-14T07:15:33Z</time>
      </trkpt>
      <trkpt lat="31.917035020887852" lon="-4.977077040821314">
        <ele>1222.3</ele>
        <time>2003-04-14T07:15:36Z</time>
      </trkpt>
      <trkpt lat="31.917035020887852" lon="-4.976930022239685">
        <ele>1223.2</ele>
        <time>2003-04-14T07:15:38Z</time>
      </trkpt>
      <trkpt lat="31.917027980089188" lon="-4.97681301087141">
        <ele>1222.9000000000001</ele>
        <time>2003-04-14T07:15:41Z</time>
      </trkpt>
      <trkpt lat="31.917018005624413" lon="-4.976572031155229">
        <ele>1222.8</ele>
        <time>2003-04-14T07:15:45Z</time>
      </trkpt>
      <trkpt lat="31.917009958997369" lon="-4.976452002301812">
        <ele>1222.7</ele>
        <time>2003-04-14T07:15:46Z</time>
      </trkpt>
      <trkpt lat="31.916969977319241" lon="-4.976337002590299">
        <ele>1222.7</ele>
        <time>2003-04-14T07:15:49Z</time>
      </trkpt>
      <trkpt lat="31.916907029226422" lon="-4.976091999560595">
        <ele>1222.5999999999999</ele>
        <time>2003-04-14T07:15:53Z</time>
      </trkpt>
      <trkpt lat="31.916881967335939" lon="-4.975968031212688">
        <ele>1222.3</ele>
        <time>2003-04-14T07:15:54Z</time>
      </trkpt>
      <trkpt lat="31.916842991486192" lon="-4.975731996819377">
        <ele>1222</ele>
        <time>2003-04-14T07:15:59Z</time>
      </trkpt>
      <trkpt lat="31.916894959285855" lon="-4.975532004609704">
        <ele>1221.7</ele>
        <time>2003-04-14T07:16:03Z</time>
      </trkpt>
      <trkpt lat="31.916911974549294" lon="-4.975418010726571">
        <ele>1221.0999999999999</ele>
        <time>2003-04-14T07:16:04Z</time>
      </trkpt>
      <trkpt lat="31.916875010356307" lon="-4.97528700158">
        <ele>1220.8</ele>
        <time>2003-04-14T07:16:07Z</time>
      </trkpt>
      <trkpt lat="31.916847014799714" lon="-4.975035041570664">
        <ele>1219.8</ele>
        <time>2003-04-14T07:16:11Z</time>
      </trkpt>
      <trkpt lat="31.916866963729262" lon="-4.974915012717247">
        <ele>1219.3</ele>
        <time>2003-04-14T07:16:13Z</time>
      </trkpt>
      <trkpt lat="31.916784988716245" lon="-4.974848041310906">
        <ele>1219.2</ele>
        <time>2003-04-14T07:16:16Z</time>
      </trkpt>
      <trkpt lat="31.916694967076182" lon="-4.97470797970891">
        <ele>1219</ele>
        <time>2003-04-14T07:16:23Z</time>
      </trkpt>
      <trkpt lat="31.916642999276519" lon="-4.974572025239468">
        <ele>1219</ele>
        <time>2003-04-14T07:16:26Z</time>
      </trkpt>
      <trkpt lat="31.916573010385036" lon="-4.974489966407418">
        <ele>1218.9000000000001</ele>
        <time>2003-04-14T07:16:28Z</time>
      </trkpt>
      <trkpt lat="31.91645298153162" lon="-4.9744270183146">
        <ele>1218.9000000000001</ele>
        <time>2003-04-14T07:16:32Z</time>
      </trkpt>
      <trkpt lat="31.916264975443482" lon="-4.974292991682887">
        <ele>1218.7</ele>
        <time>2003-04-14T07:16:39Z</time>
      </trkpt>
      <trkpt lat="31.916194986552" lon="-4.974219985306263">
        <ele>1218.7</ele>
        <time>2003-04-14T07:16:40Z</time>
      </trkpt>
      <trkpt lat="31.916121980175376" lon="-4.974067015573382">
        <ele>1218.5999999999999</ele>
        <time>2003-04-14T07:16:44Z</time>
      </trkpt>
      <trkpt lat="31.916077975183725" lon="-4.973952015861869">
        <ele>1218.5999999999999</ele>
        <time>2003-04-14T07:16:47Z</time>
      </trkpt>
      <trkpt lat="31.916012009605765" lon="-4.973802985623479">
        <ele>1218.5</ele>
        <time>2003-04-14T07:16:51Z</time>
      </trkpt>
      <trkpt lat="31.915907990187407" lon="-4.973678011447191">
        <ele>1218.4000000000001</ele>
        <time>2003-04-14T07:16:55Z</time>
      </trkpt>
      <trkpt lat="31.915770024061203" lon="-4.973475001752377">
        <ele>1218.3</ele>
        <time>2003-04-14T07:17:02Z</time>
      </trkpt>
      <trkpt lat="31.915640020743012" lon="-4.973427979275584">
        <ele>1218.2</ele>
        <time>2003-04-14T07:17:05Z</time>
      </trkpt>
      <trkpt lat="31.91554999910295" lon="-4.973371988162398">
        <ele>1218.0999999999999</ele>
        <time>2003-04-14T07:17:06Z</time>
      </trkpt>
      <trkpt lat="31.915417984127998" lon="-4.973341980949044">
        <ele>1218</ele>
        <time>2003-04-14T07:17:10Z</time>
      </trkpt>
      <trkpt lat="31.915331985801458" lon="-4.973293030634522">
        <ele>1218</ele>
        <time>2003-04-14T07:17:11Z</time>
      </trkpt>
      <trkpt lat="31.914581973105669" lon="-4.972930010408163">
        <ele>1217.5</ele>
        <time>2003-04-14T07:17:30Z</time>
      </trkpt>
      <trkpt lat="31.91441198810935" lon="-4.972760025411844">
        <ele>1217.4000000000001</ele>
        <time>2003-04-14T07:17:34Z</time>
      </trkpt>
      <trkpt lat="31.914070006459951" lon="-4.972488032653928">
        <ele>1217.3</ele>
        <time>2003-04-14T07:17:41Z</time>
      </trkpt>
      <trkpt lat="31.913964981213212" lon="-4.972427012398839">
        <ele>1217.4000000000001</ele>
        <time>2003-04-14T07:17:44Z</time>
      </trkpt>
      <trkpt lat="31.913900021463633" lon="-4.972315030172467">
        <ele>1217.7</ele>
        <time>2003-04-14T07:17:45Z</time>
      </trkpt>
      <trkpt lat="31.913745040073991" lon="-4.97204496525228">
        <ele>1218.2</ele>
        <time>2003-04-14T07:17:49Z</time>
      </trkpt>
      <trkpt lat="31.913591986522079" lon="-4.971857964992523">
        <ele>1219.2</ele>
        <time>2003-04-14T07:17:52Z</time>
      </trkpt>
      <trkpt lat="31.913462989032269" lon="-4.971659984439611">
        <ele>1219.0999999999999</ele>
        <time>2003-04-14T07:17:56Z</time>
      </trkpt>
      <trkpt lat="31.913367016240954" lon="-4.971550013870001">
        <ele>1219</ele>
        <time>2003-04-14T07:17:57Z</time>
      </trkpt>
      <trkpt lat="31.913174986839294" lon="-4.971352033317089">
        <ele>1218.9000000000001</ele>
        <time>2003-04-14T07:18:01Z</time>
      </trkpt>
      <trkpt lat="31.913077002391219" lon="-4.971124967560172">
        <ele>1217.2</ele>
        <time>2003-04-14T07:18:04Z</time>
      </trkpt>
      <trkpt lat="31.913026962429285" lon="-4.970971997827292">
        <ele>1217.9000000000001</ele>
        <time>2003-04-14T07:18:07Z</time>
      </trkpt>
      <trkpt lat="31.91299301572144" lon="-4.970832020044327">
        <ele>1217.8</ele>
        <time>2003-04-14T07:18:08Z</time>
      </trkpt>
      <trkpt lat="31.912995027378201" lon="-4.970677038654685">
        <ele>1217.5</ele>
        <time>2003-04-14T07:18:11Z</time>
      </trkpt>
      <trkpt lat="31.91299301572144" lon="-4.97051996178925">
        <ele>1216.9000000000001</ele>
        <time>2003-04-14T07:18:12Z</time>
      </trkpt>
      <trkpt lat="31.912965020164847" lon="-4.970298008993268">
        <ele>1216.3</ele>
        <time>2003-04-14T07:18:16Z</time>
      </trkpt>
      <trkpt lat="31.912944987416267" lon="-4.970134980976582">
        <ele>1216</ele>
        <time>2003-04-14T07:18:19Z</time>
      </trkpt>
      <trkpt lat="31.912878016009927" lon="-4.96983197517693">
        <ele>1216.5999999999999</ele>
        <time>2003-04-14T07:18:23Z</time>
      </trkpt>
      <trkpt lat="31.912859994918108" lon="-4.969671964645386">
        <ele>1215.5999999999999</ele>
        <time>2003-04-14T07:18:24Z</time>
      </trkpt>
      <trkpt lat="31.912805009633303" lon="-4.969540033489466">
        <ele>1215.8</ele>
        <time>2003-04-14T07:18:27Z</time>
      </trkpt>
      <trkpt lat="31.912769973278046" lon="-4.969371976330876">
        <ele>1215.0999999999999</ele>
        <time>2003-04-14T07:18:28Z</time>
      </trkpt>
      <trkpt lat="31.912699984386563" lon="-4.969114987179637">
        <ele>1214.4000000000001</ele>
        <time>2003-04-14T07:18:31Z</time>
      </trkpt>
      <trkpt lat="31.912662014365196" lon="-4.968971991911531">
        <ele>1214.2</ele>
        <time>2003-04-14T07:18:32Z</time>
      </trkpt>
      <trkpt lat="31.912652039900422" lon="-4.968721959739924">
        <ele>1213.5999999999999</ele>
        <time>2003-04-14T07:18:36Z</time>
      </trkpt>
      <trkpt lat="31.912548020482063" lon="-4.968587011098862">
        <ele>1213.3</ele>
        <time>2003-04-14T07:18:39Z</time>
      </trkpt>
      <trkpt lat="31.912478031590581" lon="-4.968439992517233">
        <ele>1212.7</ele>
        <time>2003-04-14T07:18:39Z</time>
      </trkpt>
      <trkpt lat="31.912460010498762" lon="-4.968270007520914">
        <ele>1212.8</ele>
        <time>2003-04-14T07:18:42Z</time>
      </trkpt>
      <trkpt lat="31.912478031590581" lon="-4.968074960634112">
        <ele>1212.5</ele>
        <time>2003-04-14T07:18:43Z</time>
      </trkpt>
      <trkpt lat="31.912508038803935" lon="-4.967647986486554">
        <ele>1212.0999999999999</ele>
        <time>2003-04-14T07:18:50Z</time>
      </trkpt>
      <trkpt lat="31.912432014942169" lon="-4.967482024803758">
        <ele>1211.5</ele>
        <time>2003-04-14T07:18:53Z</time>
      </trkpt>
      <trkpt lat="31.912351967766881" lon="-4.967389991506934">
        <ele>1211.4000000000001</ele>
        <time>2003-04-14T07:18:54Z</time>
      </trkpt>
      <trkpt lat="31.912237973883748" lon="-4.967257976531982">
        <ele>1211.4000000000001</ele>
        <time>2003-04-14T07:18:58Z</time>
      </trkpt>
      <trkpt lat="31.912173014134169" lon="-4.967163009569049">
        <ele>1211.4000000000001</ele>
        <time>2003-04-14T07:18:59Z</time>
      </trkpt>
      <trkpt lat="31.912036975845695" lon="-4.96697198599577">
        <ele>1211.3</ele>
        <time>2003-04-14T07:19:02Z</time>
      </trkpt>
      <trkpt lat="31.911879982799292" lon="-4.966797977685928">
        <ele>1213.3</ele>
        <time>2003-04-14T07:19:06Z</time>
      </trkpt>
      <trkpt lat="31.911721983924508" lon="-4.966696975752711">
        <ele>1214.0999999999999</ele>
        <time>2003-04-14T07:19:09Z</time>
      </trkpt>
      <trkpt lat="31.911636991426349" lon="-4.966657999902964">
        <ele>1214.5</ele>
        <time>2003-04-14T07:19:10Z</time>
      </trkpt>
      <trkpt lat="31.911389976739883" lon="-4.96652196161449">
        <ele>1214.3</ele>
        <time>2003-04-14T07:19:13Z</time>
      </trkpt>
      <trkpt lat="31.911223009228706" lon="-4.966454990208149">
        <ele>1213.9000000000001</ele>
        <time>2003-04-14T07:19:14Z</time>
      </trkpt>
      <trkpt lat="31.911041960120201" lon="-4.966430012136698">
        <ele>1213.8</ele>
        <time>2003-04-14T07:19:17Z</time>
      </trkpt>
      <trkpt lat="31.910882033407688" lon="-4.966388018801808">
        <ele>1213.7</ele>
        <time>2003-04-14T07:19:18Z</time>
      </trkpt>
      <trkpt lat="31.910741971805692" lon="-4.96630797162652">
        <ele>1213.5</ele>
        <time>2003-04-14T07:19:21Z</time>
      </trkpt>
      <trkpt lat="31.910581961274147" lon="-4.966248041018844">
        <ele>1213.3</ele>
        <time>2003-04-14T07:19:22Z</time>
      </trkpt>
      <trkpt lat="31.910429997369647" lon="-4.966227002441883">
        <ele>1213.2</ele>
        <time>2003-04-14T07:19:25Z</time>
      </trkpt>
      <trkpt lat="31.910293037071824" lon="-4.966192971915007">
        <ele>1213.0999999999999</ele>
        <time>2003-04-14T07:19:26Z</time>
      </trkpt>
      <trkpt lat="31.909939991310239" lon="-4.966083001345396">
        <ele>1213</ele>
        <time>2003-04-14T07:19:32Z</time>
      </trkpt>
      <trkpt lat="31.909687025472522" lon="-4.966058023273945">
        <ele>1213.5</ele>
        <time>2003-04-14T07:19:35Z</time>
      </trkpt>
      <trkpt lat="31.909547969698906" lon="-4.965957021340728">
        <ele>1213</ele>
        <time>2003-04-14T07:19:37Z</time>
      </trkpt>
      <trkpt lat="31.909457026049495" lon="-4.965819977223873">
        <ele>1212.8</ele>
        <time>2003-04-14T07:19:39Z</time>
      </trkpt>
      <trkpt lat="31.909347977489233" lon="-4.965719981119037">
        <ele>1212.8</ele>
        <time>2003-04-14T07:19:40Z</time>
      </trkpt>
      <trkpt lat="31.909217974171042" lon="-4.965653009712696">
        <ele>1213</ele>
        <time>2003-04-14T07:19:43Z</time>
      </trkpt>
      <trkpt lat="31.909007001668215" lon="-4.965634988620877">
        <ele>1213.2</ele>
        <time>2003-04-14T07:19:45Z</time>
      </trkpt>
      <trkpt lat="31.908886972814798" lon="-4.965628031641245">
        <ele>1212.5999999999999</ele>
        <time>2003-04-14T07:19:48Z</time>
      </trkpt>
      <trkpt lat="31.908784965053201" lon="-4.965547984465957">
        <ele>1212.0999999999999</ele>
        <time>2003-04-14T07:19:49Z</time>
      </trkpt>
      <trkpt lat="31.908708019182086" lon="-4.965465003624558">
        <ele>1212.2</ele>
        <time>2003-04-14T07:19:52Z</time>
      </trkpt>
      <trkpt lat="31.908595031127334" lon="-4.965393003076315">
        <ele>1212.5</ele>
        <time>2003-04-14T07:19:53Z</time>
      </trkpt>
      <trkpt lat="31.908456981182098" lon="-4.965337011963129">
        <ele>1213.0999999999999</ele>
        <time>2003-04-14T07:19:56Z</time>
      </trkpt>
      <trkpt lat="31.908211978152394" lon="-4.965197034180164">
        <ele>1213.0999999999999</ele>
        <time>2003-04-14T07:20:00Z</time>
      </trkpt>
      <trkpt lat="31.908036964014173" lon="-4.965072982013226">
        <ele>1213.4000000000001</ele>
        <time>2003-04-14T07:20:03Z</time>
      </trkpt>
      <trkpt lat="31.907939985394478" lon="-4.965042974799871">
        <ele>1212.9000000000001</ele>
        <time>2003-04-14T07:20:04Z</time>
      </trkpt>
      <trkpt lat="31.90785700455308" lon="-4.964982038363814">
        <ele>1212.5999999999999</ele>
        <time>2003-04-14T07:20:07Z</time>
      </trkpt>
      <trkpt lat="31.907806964591146" lon="-4.964892016723752">
        <ele>1212.4000000000001</ele>
        <time>2003-04-14T07:20:08Z</time>
      </trkpt>
      <trkpt lat="31.907824985682964" lon="-4.96478003449738">
        <ele>1212.0999999999999</ele>
        <time>2003-04-14T07:20:11Z</time>
      </trkpt>
      <trkpt lat="31.907877959311008" lon="-4.964633015915752">
        <ele>1213.3</ele>
        <time>2003-04-14T07:20:14Z</time>
      </trkpt>
      <trkpt lat="31.907866979017854" lon="-4.96452203951776">
        <ele>1212.8</ele>
        <time>2003-04-14T07:20:15Z</time>
      </trkpt>
      <trkpt lat="31.90779497846961" lon="-4.964421959593892">
        <ele>1213.5999999999999</ele>
        <time>2003-04-14T07:20:19Z</time>
      </trkpt>
      <trkpt lat="31.908620009198785" lon="-4.964062040671706">
        <ele>1209.7</ele>
        <time>2003-04-14T07:21:28Z</time>
      </trkpt>
      <trkpt lat="31.908477013930678" lon="-4.96415801346302">
        <ele>1209.2</ele>
        <time>2003-04-14T07:21:29Z</time>
      </trkpt>
      <trkpt lat="31.908593019470572" lon="-4.964107973501086">
        <ele>1208.5999999999999</ele>
        <time>2003-04-14T07:21:31Z</time>
      </trkpt>
      <trkpt lat="31.908199992030859" lon="-4.964321963489056">
        <ele>1208.5999999999999</ele>
        <time>2003-04-14T07:21:32Z</time>
      </trkpt>
      <trkpt lat="31.907749967649579" lon="-4.964484991505742">
        <ele>1207.2</ele>
        <time>2003-04-14T07:21:33Z</time>
      </trkpt>
      <trkpt lat="31.908520013093948" lon="-4.964130017906427">
        <ele>1201.5</ele>
        <time>2003-04-14T07:22:03Z</time>
      </trkpt>
      <trkpt lat="31.908247014507651" lon="-4.964273013174534">
        <ele>1202.2</ele>
        <time>2003-04-14T07:22:03Z</time>
      </trkpt>
      <trkpt lat="31.907847030088305" lon="-4.964482979848981">
        <ele>1200.7</ele>
        <time>2003-04-14T07:22:07Z</time>
      </trkpt>
      <trkpt lat="31.908011985942721" lon="-4.964407961815596">
        <ele>1199.3</ele>
        <time>2003-04-14T07:22:10Z</time>
      </trkpt>
      <trkpt lat="31.908260006457567" lon="-4.96426697820425">
        <ele>1200.5</ele>
        <time>2003-04-14T07:22:12Z</time>
      </trkpt>
      <trkpt lat="31.908060014247894" lon="-4.964296985417604">
        <ele>1209.8</ele>
        <time>2003-04-14T07:22:26Z</time>
      </trkpt>
      <trkpt lat="31.90764301456511" lon="-4.964596973732114">
        <ele>1208.8</ele>
        <time>2003-04-14T07:22:27Z</time>
      </trkpt>
      <trkpt lat="31.908152969554067" lon="-4.964332021772862">
        <ele>1208.9000000000001</ele>
        <time>2003-04-14T07:22:30Z</time>
      </trkpt>
      <trkpt lat="31.908058002591133" lon="-4.96430997736752">
        <ele>1211.7</ele>
        <time>2003-04-14T07:22:34Z</time>
      </trkpt>
      <trkpt lat="31.907830014824867" lon="-4.964436963200569">
        <ele>1208.5</ele>
        <time>2003-04-14T07:22:49Z</time>
      </trkpt>
      <trkpt lat="31.907743010669947" lon="-4.964360017329454">
        <ele>1212.9000000000001</ele>
        <time>2003-04-14T07:24:13Z</time>
      </trkpt>
      <trkpt lat="31.907612001523376" lon="-4.964147033169866">
        <ele>1213.2</ele>
        <time>2003-04-14T07:24:18Z</time>
      </trkpt>
      <trkpt lat="31.907570008188486" lon="-4.964019963517785">
        <ele>1213.8</ele>
        <time>2003-04-14T07:24:19Z</time>
      </trkpt>
      <trkpt lat="31.907361969351768" lon="-4.963468015193939">
        <ele>1213.9000000000001</ele>
        <time>2003-04-14T07:24:27Z</time>
      </trkpt>
      <trkpt lat="31.907222997397184" lon="-4.963069958612323">
        <ele>1214.2</ele>
        <time>2003-04-14T07:24:33Z</time>
      </trkpt>
      <trkpt lat="31.907167006283998" lon="-4.962812969461083">
        <ele>1213.0999999999999</ele>
        <time>2003-04-14T07:24:37Z</time>
      </trkpt>
      <trkpt lat="31.907155020162463" lon="-4.962692018598318">
        <ele>1212.9000000000001</ele>
        <time>2003-04-14T07:24:38Z</time>
      </trkpt>
      <trkpt lat="31.907102968543768" lon="-4.962122971192002">
        <ele>1212.4000000000001</ele>
        <time>2003-04-14T07:24:46Z</time>
      </trkpt>
      <trkpt lat="31.907104980200529" lon="-4.961896995082498">
        <ele>1212</ele>
        <time>2003-04-14T07:24:49Z</time>
      </trkpt>
      <trkpt lat="31.907179998233914" lon="-4.961316967383027">
        <ele>1211.3</ele>
        <time>2003-04-14T07:24:57Z</time>
      </trkpt>
      <trkpt lat="31.907143034040928" lon="-4.961195010691881">
        <ele>1211.0999999999999</ele>
        <time>2003-04-14T07:25:00Z</time>
      </trkpt>
      <trkpt lat="31.907121995463967" lon="-4.961068024858832">
        <ele>1211</ele>
        <time>2003-04-14T07:25:01Z</time>
      </trkpt>
      <trkpt lat="31.90708695910871" lon="-4.960787985473871">
        <ele>1210.0999999999999</ele>
        <time>2003-04-14T07:25:05Z</time>
      </trkpt>
      <trkpt lat="31.906898031011224" lon="-4.9602269846946">
        <ele>1208.8</ele>
        <time>2003-04-14T07:25:13Z</time>
      </trkpt>
      <trkpt lat="31.906801974400878" lon="-4.96011801995337">
        <ele>1208.9000000000001</ele>
        <time>2003-04-14T07:25:16Z</time>
      </trkpt>
      <trkpt lat="31.90622303634882" lon="-4.959476971998811">
        <ele>1208.3</ele>
        <time>2003-04-14T07:25:28Z</time>
      </trkpt>
      <trkpt lat="31.906078029423952" lon="-4.959242027252913">
        <ele>1208.3</ele>
        <time>2003-04-14T07:25:31Z</time>
      </trkpt>
      <trkpt lat="31.905990019440651" lon="-4.95908503420651">
        <ele>1208.2</ele>
        <time>2003-04-14T07:25:35Z</time>
      </trkpt>
      <trkpt lat="31.905915001407266" lon="-4.958855034783483">
        <ele>1208.2</ele>
        <time>2003-04-14T07:25:39Z</time>
      </trkpt>
      <trkpt lat="31.905835038051009" lon="-4.958531996235251">
        <ele>1207.8</ele>
        <time>2003-04-14T07:25:43Z</time>
      </trkpt>
      <trkpt lat="31.905833026394248" lon="-4.958281964063644">
        <ele>1208</ele>
        <time>2003-04-14T07:25:47Z</time>
      </trkpt>
      <trkpt lat="31.905818022787571" lon="-4.958160007372499">
        <ele>1209.2</ele>
        <time>2003-04-14T07:25:50Z</time>
      </trkpt>
      <trkpt lat="31.905760020017624" lon="-4.958035033196211">
        <ele>1209.3</ele>
        <time>2003-04-14T07:25:51Z</time>
      </trkpt>
      <trkpt lat="31.905718026682734" lon="-4.957892959937453">
        <ele>1209.0999999999999</ele>
        <time>2003-04-14T07:25:54Z</time>
      </trkpt>
      <trkpt lat="31.905702017247677" lon="-4.957747031003237">
        <ele>1208.4000000000001</ele>
        <time>2003-04-14T07:25:55Z</time>
      </trkpt>
      <trkpt lat="31.905675027519464" lon="-4.957572016865015">
        <ele>1209</ele>
        <time>2003-04-14T07:25:58Z</time>
      </trkpt>
      <trkpt lat="31.905606966465712" lon="-4.957485012710095">
        <ele>1209.2</ele>
        <time>2003-04-14T07:26:01Z</time>
      </trkpt>
      <trkpt lat="31.90558198839426" lon="-4.957373030483723">
        <ele>1209.7</ele>
        <time>2003-04-14T07:26:02Z</time>
      </trkpt>
      <trkpt lat="31.905564973130822" lon="-4.957168009132147">
        <ele>1209.7</ele>
        <time>2003-04-14T07:26:06Z</time>
      </trkpt>
      <trkpt lat="31.905517028644681" lon="-4.95698201470077">
        <ele>1210.0999999999999</ele>
        <time>2003-04-14T07:26:09Z</time>
      </trkpt>
      <trkpt lat="31.905422983691096" lon="-4.95646501891315">
        <ele>1206.2</ele>
        <time>2003-04-14T07:26:17Z</time>
      </trkpt>
      <trkpt lat="31.905398005619645" lon="-4.956322023645043">
        <ele>1206.0999999999999</ele>
        <time>2003-04-14T07:26:18Z</time>
      </trkpt>
      <trkpt lat="31.905362969264388" lon="-4.956195037811995">
        <ele>1206.0999999999999</ele>
        <time>2003-04-14T07:26:21Z</time>
      </trkpt>
      <trkpt lat="31.905317958444357" lon="-4.956081965938211">
        <ele>1205.9000000000001</ele>
        <time>2003-04-14T07:26:22Z</time>
      </trkpt>
      <trkpt lat="31.905246963724494" lon="-4.955993033945561">
        <ele>1206</ele>
        <time>2003-04-14T07:26:25Z</time>
      </trkpt>
      <trkpt lat="31.905155014246702" lon="-4.955926984548569">
        <ele>1206.2</ele>
        <time>2003-04-14T07:26:26Z</time>
      </trkpt>
      <trkpt lat="31.904876986518502" lon="-4.955692961812019">
        <ele>1206.2</ele>
        <time>2003-04-14T07:26:33Z</time>
      </trkpt>
      <trkpt lat="31.904752012342215" lon="-4.955577040091157">
        <ele>1205.5999999999999</ele>
        <time>2003-04-14T07:26:36Z</time>
      </trkpt>
      <trkpt lat="31.904653022065759" lon="-4.955577040091157">
        <ele>1205.5999999999999</ele>
        <time>2003-04-14T07:26:37Z</time>
      </trkpt>
      <trkpt lat="31.904552020132542" lon="-4.955497998744249">
        <ele>1206.7</ele>
        <time>2003-04-14T07:26:41Z</time>
      </trkpt>
      <trkpt lat="31.904471972957253" lon="-4.955391967669129">
        <ele>1206.9000000000001</ele>
        <time>2003-04-14T07:26:44Z</time>
      </trkpt>
      <trkpt lat="31.904405001550913" lon="-4.955318039283156">
        <ele>1207.2</ele>
        <time>2003-04-14T07:26:45Z</time>
      </trkpt>
      <trkpt lat="31.904346998780966" lon="-4.955222988501191">
        <ele>1206.7</ele>
        <time>2003-04-14T07:26:48Z</time>
      </trkpt>
      <trkpt lat="31.904317997395992" lon="-4.9551120121032">
        <ele>1205.9000000000001</ele>
        <time>2003-04-14T07:26:49Z</time>
      </trkpt>
      <trkpt lat="31.904274998232722" lon="-4.954934986308217">
        <ele>1205.3</ele>
        <time>2003-04-14T07:26:52Z</time>
      </trkpt>
      <trkpt lat="31.904167961329222" lon="-4.954777993261814">
        <ele>1206.2</ele>
        <time>2003-04-14T07:26:56Z</time>
      </trkpt>
      <trkpt lat="31.903997976332903" lon="-4.954582024365664">
        <ele>1205.5</ele>
        <time>2003-04-14T07:27:00Z</time>
      </trkpt>
      <trkpt lat="31.903681978583336" lon="-4.954038038849831">
        <ele>1205.7</ele>
        <time>2003-04-14T07:27:08Z</time>
      </trkpt>
      <trkpt lat="31.903577959164977" lon="-4.953893031924963">
        <ele>1205.8</ele>
        <time>2003-04-14T07:27:12Z</time>
      </trkpt>
      <trkpt lat="31.903558010235429" lon="-4.953767973929644">
        <ele>1206</ele>
        <time>2003-04-14T07:27:14Z</time>
      </trkpt>
      <trkpt lat="31.903503024950624" lon="-4.953656997531653">
        <ele>1206.5</ele>
        <time>2003-04-14T07:27:16Z</time>
      </trkpt>
      <trkpt lat="31.903421971946955" lon="-4.953537974506617">
        <ele>1206.7</ele>
        <time>2003-04-14T07:27:18Z</time>
      </trkpt>
      <trkpt lat="31.903351983055472" lon="-4.953402020037174">
        <ele>1206.7</ele>
        <time>2003-04-14T07:27:19Z</time>
      </trkpt>
      <trkpt lat="31.903207981958985" lon="-4.952976973727346">
        <ele>1206.4000000000001</ele>
        <time>2003-04-14T07:27:26Z</time>
      </trkpt>
      <trkpt lat="31.90310999751091" lon="-4.952677991241217">
        <ele>1206.3</ele>
        <time>2003-04-14T07:27:30Z</time>
      </trkpt>
      <trkpt lat="31.903015030547976" lon="-4.952446985989809">
        <ele>1207.0999999999999</ele>
        <time>2003-04-14T07:27:32Z</time>
      </trkpt>
      <trkpt lat="31.902991980314255" lon="-4.952301979064941">
        <ele>1207.5</ele>
        <time>2003-04-14T07:27:35Z</time>
      </trkpt>
      <trkpt lat="31.902968008071184" lon="-4.952108021825552">
        <ele>1208.5999999999999</ele>
        <time>2003-04-14T07:27:38Z</time>
      </trkpt>
      <trkpt lat="31.902972031384706" lon="-4.951990004628897">
        <ele>1210.0999999999999</ele>
        <time>2003-04-14T07:27:39Z</time>
      </trkpt>
      <trkpt lat="31.903002960607409" lon="-4.95189000852406">
        <ele>1211.4000000000001</ele>
        <time>2003-04-14T07:27:42Z</time>
      </trkpt>
      <trkpt lat="31.903034979477525" lon="-4.951763022691011">
        <ele>1211.5</ele>
        <time>2003-04-14T07:27:43Z</time>
      </trkpt>
      <trkpt lat="31.903064986690879" lon="-4.951488012447953">
        <ele>1215</ele>
        <time>2003-04-14T07:27:47Z</time>
      </trkpt>
      <trkpt lat="31.903045037761331" lon="-4.951366977766156">
        <ele>1215.9000000000001</ele>
        <time>2003-04-14T07:27:50Z</time>
      </trkpt>
      <trkpt lat="31.903049983084202" lon="-4.951247032731772">
        <ele>1217.3</ele>
        <time>2003-04-14T07:27:51Z</time>
      </trkpt>
      <trkpt lat="31.90308996476233" lon="-4.951132033020258">
        <ele>1219</ele>
        <time>2003-04-14T07:27:54Z</time>
      </trkpt>
      <trkpt lat="31.903104968369007" lon="-4.950994988903403">
        <ele>1219.3</ele>
        <time>2003-04-14T07:27:55Z</time>
      </trkpt>
      <trkpt lat="31.903106980025768" lon="-4.950777981430292">
        <ele>1220.8</ele>
        <time>2003-04-14T07:27:58Z</time>
      </trkpt>
      <trkpt lat="31.903058029711246" lon="-4.950636997818947">
        <ele>1220.8</ele>
        <time>2003-04-14T07:28:01Z</time>
      </trkpt>
      <trkpt lat="31.902973037213087" lon="-4.950500037521124">
        <ele>1220.3</ele>
        <time>2003-04-14T07:28:02Z</time>
      </trkpt>
      <trkpt lat="31.902922997251153" lon="-4.95036500506103">
        <ele>1222.3</ele>
        <time>2003-04-14T07:28:05Z</time>
      </trkpt>
      <trkpt lat="31.902889972552657" lon="-4.950252017006278">
        <ele>1224.4000000000001</ele>
        <time>2003-04-14T07:28:06Z</time>
      </trkpt>
      <trkpt lat="31.902844961732626" lon="-4.950127964839339">
        <ele>1224.4000000000001</ele>
        <time>2003-04-14T07:28:09Z</time>
      </trkpt>
      <trkpt lat="31.902868011966348" lon="-4.949986981227994">
        <ele>1224.2</ele>
        <time>2003-04-14T07:28:10Z</time>
      </trkpt>
      <trkpt lat="31.902945041656494" lon="-4.949841974303126">
        <ele>1224.5</ele>
        <time>2003-04-14T07:28:13Z</time>
      </trkpt>
      <trkpt lat="31.90310999751091" lon="-4.949607029557228">
        <ele>1224</ele>
        <time>2003-04-14T07:28:16Z</time>
      </trkpt>
      <trkpt lat="31.903194990009069" lon="-4.949405025690794">
        <ele>1224.5999999999999</ele>
        <time>2003-04-14T07:28:17Z</time>
      </trkpt>
      <trkpt lat="31.903258021920919" lon="-4.949257001280785">
        <ele>1227</ele>
        <time>2003-04-14T07:28:20Z</time>
      </trkpt>
      <trkpt lat="31.903352988883853" lon="-4.949158011004329">
        <ele>1225.5999999999999</ele>
        <time>2003-04-14T07:28:21Z</time>
      </trkpt>
      <trkpt lat="31.903445022180676" lon="-4.949047034606338">
        <ele>1223.9000000000001</ele>
        <time>2003-04-14T07:28:24Z</time>
      </trkpt>
      <trkpt lat="31.903462959453464" lon="-4.948898004367948">
        <ele>1223.4000000000001</ele>
        <time>2003-04-14T07:28:25Z</time>
      </trkpt>
      <trkpt lat="31.903358018025756" lon="-4.948766995221376">
        <ele>1223.5999999999999</ele>
        <time>2003-04-14T07:28:28Z</time>
      </trkpt>
      <trkpt lat="31.903197001665831" lon="-4.948567003011704">
        <ele>1224.5</ele>
        <time>2003-04-14T07:28:30Z</time>
      </trkpt>
      <trkpt lat="31.903088036924601" lon="-4.948436999693513">
        <ele>1224.0999999999999</ele>
        <time>2003-04-14T07:28:33Z</time>
      </trkpt>
      <trkpt lat="31.903000026941299" lon="-4.948310013860464">
        <ele>1224.9000000000001</ele>
        <time>2003-04-14T07:28:35Z</time>
      </trkpt>
      <trkpt lat="31.902964990586042" lon="-4.948168024420738">
        <ele>1225.0999999999999</ele>
        <time>2003-04-14T07:28:37Z</time>
      </trkpt>
      <trkpt lat="31.902992986142635" lon="-4.948037015274167">
        <ele>1224.7</ele>
        <time>2003-04-14T07:28:39Z</time>
      </trkpt>
      <trkpt lat="31.90308703109622" lon="-4.94782998226583">
        <ele>1222.8</ele>
        <time>2003-04-14T07:28:43Z</time>
      </trkpt>
      <trkpt lat="31.903203036636114" lon="-4.947682963684201">
        <ele>1221.0999999999999</ele>
        <time>2003-04-14T07:28:45Z</time>
      </trkpt>
      <trkpt lat="31.903207981958985" lon="-4.947567963972688">
        <ele>1221.5</ele>
        <time>2003-04-14T07:28:48Z</time>
      </trkpt>
      <trkpt lat="31.903212005272508" lon="-4.947423040866852">
        <ele>1222</ele>
        <time>2003-04-14T07:28:51Z</time>
      </trkpt>
      <trkpt lat="31.903255004435778" lon="-4.947322038933635">
        <ele>1222</ele>
        <time>2003-04-14T07:28:52Z</time>
      </trkpt>
      <trkpt lat="31.90332499332726" lon="-4.947222964838147">
        <ele>1222.5</ele>
        <time>2003-04-14T07:28:55Z</time>
      </trkpt>
      <trkpt lat="31.903407974168658" lon="-4.947156999260187">
        <ele>1223.2</ele>
        <time>2003-04-14T07:28:56Z</time>
      </trkpt>
      <trkpt lat="31.903597991913557" lon="-4.94703303091228">
        <ele>1223.8</ele>
        <time>2003-04-14T07:29:02Z</time>
      </trkpt>
      <trkpt lat="31.903814999386668" lon="-4.946964969858527">
        <ele>1224.8</ele>
        <time>2003-04-14T07:29:06Z</time>
      </trkpt>
      <trkpt lat="31.904008034616709" lon="-4.946828009560704">
        <ele>1226.3</ele>
        <time>2003-04-14T07:29:10Z</time>
      </trkpt>
      <trkpt lat="31.904181959107518" lon="-4.946730025112629">
        <ele>1226.3</ele>
        <time>2003-04-14T07:29:12Z</time>
      </trkpt>
      <trkpt lat="31.904229987412691" lon="-4.946612007915974">
        <ele>1226.5999999999999</ele>
        <time>2003-04-14T07:29:15Z</time>
      </trkpt>
      <trkpt lat="31.904171984642744" lon="-4.946512011811137">
        <ele>1227.7</ele>
        <time>2003-04-14T07:29:16Z</time>
      </trkpt>
      <trkpt lat="31.904063019901514" lon="-4.946494996547699">
        <ele>1228.4000000000001</ele>
        <time>2003-04-14T07:29:19Z</time>
      </trkpt>
      <trkpt lat="31.903939973562956" lon="-4.94645300321281">
        <ele>1228.4000000000001</ele>
        <time>2003-04-14T07:29:20Z</time>
      </trkpt>
      <trkpt lat="31.903718020766973" lon="-4.946319982409477">
        <ele>1230.2</ele>
        <time>2003-04-14T07:29:24Z</time>
      </trkpt>
      <trkpt lat="31.90371198579669" lon="-4.946202971041203">
        <ele>1231</ele>
        <time>2003-04-14T07:29:27Z</time>
      </trkpt>
      <trkpt lat="31.903758002445102" lon="-4.946071961894631">
        <ele>1230.8</ele>
        <time>2003-04-14T07:29:29Z</time>
      </trkpt>
      <trkpt lat="31.903772000223398" lon="-4.945883033797145">
        <ele>1230.7</ele>
        <time>2003-04-14T07:29:31Z</time>
      </trkpt>
      <trkpt lat="31.903781974688172" lon="-4.945729980245233">
        <ele>1233.3</ele>
        <time>2003-04-14T07:29:33Z</time>
      </trkpt>
      <trkpt lat="31.903852969408035" lon="-4.945439966395497">
        <ele>1234.9000000000001</ele>
        <time>2003-04-14T07:29:37Z</time>
      </trkpt>
      <trkpt lat="31.904063019901514" lon="-4.944875026121736">
        <ele>1233</ele>
        <time>2003-04-14T07:29:45Z</time>
      </trkpt>
      <trkpt lat="31.904107024893165" lon="-4.944752985611558">
        <ele>1234.5999999999999</ele>
        <time>2003-04-14T07:29:46Z</time>
      </trkpt>
      <trkpt lat="31.904171984642744" lon="-4.944618036970496">
        <ele>1235.3</ele>
        <time>2003-04-14T07:29:49Z</time>
      </trkpt>
      <trkpt lat="31.904331995174289" lon="-4.94419701397419">
        <ele>1233.5999999999999</ele>
        <time>2003-04-14T07:29:54Z</time>
      </trkpt>
      <trkpt lat="31.90448303706944" lon="-4.943882022053003">
        <ele>1233.5</ele>
        <time>2003-04-14T07:29:58Z</time>
      </trkpt>
      <trkpt lat="31.904552020132542" lon="-4.943737015128136">
        <ele>1232.2</ele>
        <time>2003-04-14T07:30:00Z</time>
      </trkpt>
      <trkpt lat="31.90461304038763" lon="-4.943607011809945">
        <ele>1230.7</ele>
        <time>2003-04-14T07:30:01Z</time>
      </trkpt>
      <trkpt lat="31.904738014563918" lon="-4.94363802485168">
        <ele>1230.5999999999999</ele>
        <time>2003-04-14T07:30:05Z</time>
      </trkpt>
      <trkpt lat="31.904834993183613" lon="-4.943737015128136">
        <ele>1229.7</ele>
        <time>2003-04-14T07:30:06Z</time>
      </trkpt>
      <trkpt lat="31.904929960146546" lon="-4.943797029554844">
        <ele>1228.8</ele>
        <time>2003-04-14T07:30:09Z</time>
      </trkpt>
      <trkpt lat="31.905012018978596" lon="-4.943727040663362">
        <ele>1228.3</ele>
        <time>2003-04-14T07:30:09Z</time>
      </trkpt>
      <trkpt lat="31.90498000010848" lon="-4.943612962961197">
        <ele>1229.0999999999999</ele>
        <time>2003-04-14T07:30:13Z</time>
      </trkpt>
      <trkpt lat="31.904955022037029" lon="-4.943505004048348">
        <ele>1229.9000000000001</ele>
        <time>2003-04-14T07:30:13Z</time>
      </trkpt>
      <trkpt lat="31.904946975409985" lon="-4.943335019052029">
        <ele>1230</ele>
        <time>2003-04-14T07:30:16Z</time>
      </trkpt>
      <trkpt lat="31.904972037300467" lon="-4.94308004155755">
        <ele>1230.3</ele>
        <time>2003-04-14T07:30:20Z</time>
      </trkpt>
      <trkpt lat="31.905053006485105" lon="-4.942942997440696">
        <ele>1231.5</ele>
        <time>2003-04-14T07:30:21Z</time>
      </trkpt>
      <trkpt lat="31.905370010063052" lon="-4.942482998594642">
        <ele>1229.4000000000001</ele>
        <time>2003-04-14T07:30:28Z</time>
      </trkpt>
      <trkpt lat="31.905445028096437" lon="-4.942373028025031">
        <ele>1228.7</ele>
        <time>2003-04-14T07:30:31Z</time>
      </trkpt>
      <trkpt lat="31.905856998637319" lon="-4.94181496091187">
        <ele>1224.8</ele>
        <time>2003-04-14T07:30:40Z</time>
      </trkpt>
      <trkpt lat="31.906186994165182" lon="-4.941305005922914">
        <ele>1223.7</ele>
        <time>2003-04-14T07:30:47Z</time>
      </trkpt>
      <trkpt lat="31.906232004985213" lon="-4.941107025370002">
        <ele>1222.9000000000001</ele>
        <time>2003-04-14T07:30:48Z</time>
      </trkpt>
      <trkpt lat="31.906229993328452" lon="-4.940990014001727">
        <ele>1222.9000000000001</ele>
        <time>2003-04-14T07:30:50Z</time>
      </trkpt>
      <trkpt lat="31.906196968629956" lon="-4.940745010972023">
        <ele>1223.5</ele>
        <time>2003-04-14T07:30:52Z</time>
      </trkpt>
      <trkpt lat="31.906122034415603" lon="-4.940522974357009">
        <ele>1223.8</ele>
        <time>2003-04-14T07:30:54Z</time>
      </trkpt>
      <trkpt lat="31.905920030549169" lon="-4.940043026581407">
        <ele>1224</ele>
        <time>2003-04-14T07:30:59Z</time>
      </trkpt>
      <trkpt lat="31.905875019729137" lon="-4.939877986907959">
        <ele>1224.0999999999999</ele>
        <time>2003-04-14T07:31:00Z</time>
      </trkpt>
      <trkpt lat="31.905790027230978" lon="-4.939631978049874">
        <ele>1223.4000000000001</ele>
        <time>2003-04-14T07:31:03Z</time>
      </trkpt>
      <trkpt lat="31.905637979507446" lon="-4.939312040805817">
        <ele>1222.5</ele>
        <time>2003-04-14T07:31:07Z</time>
      </trkpt>
      <trkpt lat="31.905521973967552" lon="-4.938967963680625">
        <ele>1221.8</ele>
        <time>2003-04-14T07:31:11Z</time>
      </trkpt>
      <trkpt lat="31.905391970649362" lon="-4.938727989792824">
        <ele>1221</ele>
        <time>2003-04-14T07:31:15Z</time>
      </trkpt>
      <trkpt lat="31.905170017853379" lon="-4.938132958486676">
        <ele>1219.5999999999999</ele>
        <time>2003-04-14T07:31:22Z</time>
      </trkpt>
      <trkpt lat="31.904946975409985" lon="-4.93775300681591">
        <ele>1218.8</ele>
        <time>2003-04-14T07:31:26Z</time>
      </trkpt>
      <trkpt lat="31.904832981526852" lon="-4.937553014606237">
        <ele>1217.2</ele>
        <time>2003-04-14T07:31:30Z</time>
      </trkpt>
      <trkpt lat="31.9048270303756" lon="-4.937401972711086">
        <ele>1216.9000000000001</ele>
        <time>2003-04-14T07:31:31Z</time>
      </trkpt>
      <trkpt lat="31.90489299595356" lon="-4.93728001601994">
        <ele>1216.9000000000001</ele>
        <time>2003-04-14T07:31:34Z</time>
      </trkpt>
      <trkpt lat="31.905010007321835" lon="-4.937189994379878">
        <ele>1217.2</ele>
        <time>2003-04-14T07:31:35Z</time>
      </trkpt>
      <trkpt lat="31.90512802451849" lon="-4.937083041295409">
        <ele>1217.3</ele>
        <time>2003-04-14T07:31:38Z</time>
      </trkpt>
      <trkpt lat="31.90527998842299" lon="-4.936924958601594">
        <ele>1218.5999999999999</ele>
        <time>2003-04-14T07:31:41Z</time>
      </trkpt>
      <trkpt lat="31.905317036435008" lon="-4.936775006353855">
        <ele>1218.9000000000001</ele>
        <time>2003-04-14T07:31:42Z</time>
      </trkpt>
      <trkpt lat="31.905347965657711" lon="-4.936497984454036">
        <ele>1218.2</ele>
        <time>2003-04-14T07:31:46Z</time>
      </trkpt>
      <trkpt lat="31.905412003397942" lon="-4.935547979548574">
        <ele>1215.5</ele>
        <time>2003-04-14T07:31:57Z</time>
      </trkpt>
      <trkpt lat="31.905422983691096" lon="-4.935400038957596">
        <ele>1215</ele>
        <time>2003-04-14T07:31:58Z</time>
      </trkpt>
      <trkpt lat="31.905467994511127" lon="-4.934905003756285">
        <ele>1214.5</ele>
        <time>2003-04-14T07:32:05Z</time>
      </trkpt>
      <trkpt lat="31.905488027259707" lon="-4.934620019048452">
        <ele>1213.3</ele>
        <time>2003-04-14T07:32:09Z</time>
      </trkpt>
      <trkpt lat="31.905557010322809" lon="-4.934412986040115">
        <ele>1211.4000000000001</ele>
        <time>2003-04-14T07:32:12Z</time>
      </trkpt>
      <trkpt lat="31.905662035569549" lon="-4.934169994667172">
        <ele>1208.7</ele>
        <time>2003-04-14T07:32:16Z</time>
      </trkpt>
      <trkpt lat="31.905617024749517" lon="-4.934028005227447">
        <ele>1207.3</ele>
        <time>2003-04-14T07:32:17Z</time>
      </trkpt>
      <trkpt lat="31.905506970360875" lon="-4.933919962495565">
        <ele>1205.4000000000001</ele>
        <time>2003-04-14T07:32:20Z</time>
      </trkpt>
      <trkpt lat="31.905442010611296" lon="-4.933796999976039">
        <ele>1204.7</ele>
        <time>2003-04-14T07:32:21Z</time>
      </trkpt>
      <trkpt lat="31.905424995347857" lon="-4.933660039678216">
        <ele>1204.2</ele>
        <time>2003-04-14T07:32:24Z</time>
      </trkpt>
      <trkpt lat="31.905445028096437" lon="-4.9335400108248">
        <ele>1204</ele>
        <time>2003-04-14T07:32:25Z</time>
      </trkpt>
      <trkpt lat="31.905487021431327" lon="-4.93328302167356">
        <ele>1203.2</ele>
        <time>2003-04-14T07:32:29Z</time>
      </trkpt>
      <trkpt lat="31.905449973419309" lon="-4.933125022798777">
        <ele>1201.7</ele>
        <time>2003-04-14T07:32:32Z</time>
      </trkpt>
      <trkpt lat="31.905455002561212" lon="-4.932967023923993">
        <ele>1201.2</ele>
        <time>2003-04-14T07:32:33Z</time>
      </trkpt>
      <trkpt lat="31.905487021431327" lon="-4.9328319914639">
        <ele>1200.5</ele>
        <time>2003-04-14T07:32:36Z</time>
      </trkpt>
      <trkpt lat="31.905509987846017" lon="-4.932711962610483">
        <ele>1200.2</ele>
        <time>2003-04-14T07:32:38Z</time>
      </trkpt>
      <trkpt lat="31.905434969812632" lon="-4.932599980384111">
        <ele>1199.3</ele>
        <time>2003-04-14T07:32:40Z</time>
      </trkpt>
      <trkpt lat="31.905373027548194" lon="-4.932522028684616">
        <ele>1197.9000000000001</ele>
        <time>2003-04-14T07:32:43Z</time>
      </trkpt>
      <trkpt lat="31.905328016728163" lon="-4.93240300565958">
        <ele>1198.0999999999999</ele>
        <time>2003-04-14T07:32:46Z</time>
      </trkpt>
      <trkpt lat="31.905232965946198" lon="-4.932232014834881">
        <ele>1197.9000000000001</ele>
        <time>2003-04-14T07:32:51Z</time>
      </trkpt>
      <trkpt lat="31.905130036175251" lon="-4.932222040370107">
        <ele>1199.0999999999999</ele>
        <time>2003-04-14T07:32:52Z</time>
      </trkpt>
      <trkpt lat="31.905016964301467" lon="-4.932284988462925">
        <ele>1199.3</ele>
        <time>2003-04-14T07:32:55Z</time>
      </trkpt>
      <trkpt lat="31.904904982075095" lon="-4.932326981797814">
        <ele>1199.7</ele>
        <time>2003-04-14T07:32:56Z</time>
      </trkpt>
      <trkpt lat="31.904782019555569" lon="-4.932388002052903">
        <ele>1201.5999999999999</ele>
        <time>2003-04-14T07:32:59Z</time>
      </trkpt>
      <trkpt lat="31.904640030115843" lon="-4.932469977065921">
        <ele>1202.0999999999999</ele>
        <time>2003-04-14T07:33:00Z</time>
      </trkpt>
      <trkpt lat="31.903867973014712" lon="-4.932923018932343">
        <ele>1197</ele>
        <time>2003-04-14T07:33:11Z</time>
      </trkpt>
      <trkpt lat="31.903487015515566" lon="-4.933082023635507">
        <ele>1196.0999999999999</ele>
        <time>2003-04-14T07:33:18Z</time>
      </trkpt>
      <trkpt lat="31.903400011360645" lon="-4.933128040283918">
        <ele>1196.0999999999999</ele>
        <time>2003-04-14T07:33:19Z</time>
      </trkpt>
      <trkpt lat="31.903357012197375" lon="-4.933225018903613">
        <ele>1195.3</ele>
        <time>2003-04-14T07:33:22Z</time>
      </trkpt>
      <trkpt lat="31.90326196141541" lon="-4.933259971439838">
        <ele>1195.5999999999999</ele>
        <time>2003-04-14T07:33:23Z</time>
      </trkpt>
      <trkpt lat="31.903143022209406" lon="-4.933232981711626">
        <ele>1195.5999999999999</ele>
        <time>2003-04-14T07:33:26Z</time>
      </trkpt>
      <trkpt lat="31.902936995029449" lon="-4.933216972276568">
        <ele>1197.0999999999999</ele>
        <time>2003-04-14T07:33:29Z</time>
      </trkpt>
      <trkpt lat="31.902540028095245" lon="-4.933257037773728">
        <ele>1198.0999999999999</ele>
        <time>2003-04-14T07:33:34Z</time>
      </trkpt>
      <trkpt lat="31.902412036433816" lon="-4.933316968381405">
        <ele>1197.8</ele>
        <time>2003-04-14T07:33:37Z</time>
      </trkpt>
      <trkpt lat="31.902252025902271" lon="-4.933331971988082">
        <ele>1197.5</ele>
        <time>2003-04-14T07:33:38Z</time>
      </trkpt>
      <trkpt lat="31.902008028700948" lon="-4.933331971988082">
        <ele>1197.0999999999999</ele>
        <time>2003-04-14T07:33:41Z</time>
      </trkpt>
      <trkpt lat="31.901848018169403" lon="-4.933287966996431">
        <ele>1197</ele>
        <time>2003-04-14T07:33:44Z</time>
      </trkpt>
      <trkpt lat="31.901727989315987" lon="-4.93321998976171">
        <ele>1197.9000000000001</ele>
        <time>2003-04-14T07:33:45Z</time>
      </trkpt>
      <trkpt lat="31.901615001261234" lon="-4.933112030848861">
        <ele>1198.5</ele>
        <time>2003-04-14T07:33:48Z</time>
      </trkpt>
      <trkpt lat="31.90147502347827" lon="-4.933016980066896">
        <ele>1197.9000000000001</ele>
        <time>2003-04-14T07:33:49Z</time>
      </trkpt>
      <trkpt lat="31.901158019900322" lon="-4.93285303004086">
        <ele>1196.9000000000001</ele>
        <time>2003-04-14T07:33:53Z</time>
      </trkpt>
      <trkpt lat="31.901055006310344" lon="-4.932714980095625">
        <ele>1197</ele>
        <time>2003-04-14T07:33:56Z</time>
      </trkpt>
      <trkpt lat="31.901000021025538" lon="-4.932553041726351">
        <ele>1197.8</ele>
        <time>2003-04-14T07:33:57Z</time>
      </trkpt>
      <trkpt lat="31.901017036288977" lon="-4.932390013709664">
        <ele>1199</ele>
        <time>2003-04-14T07:34:00Z</time>
      </trkpt>
      <trkpt lat="31.901066992431879" lon="-4.932245006784797">
        <ele>1198.5999999999999</ele>
        <time>2003-04-14T07:34:01Z</time>
      </trkpt>
      <trkpt lat="31.901130024343729" lon="-4.932009978219867">
        <ele>1196.2</ele>
        <time>2003-04-14T07:34:04Z</time>
      </trkpt>
      <trkpt lat="31.901167994365096" lon="-4.931713007390499">
        <ele>1193.9000000000001</ele>
        <time>2003-04-14T07:34:08Z</time>
      </trkpt>
      <trkpt lat="31.901137987151742" lon="-4.931504968553782">
        <ele>1193.0999999999999</ele>
        <time>2003-04-14T07:34:09Z</time>
      </trkpt>
      <trkpt lat="31.901081996038556" lon="-4.931255020201206">
        <ele>1191.7</ele>
        <time>2003-04-14T07:34:12Z</time>
      </trkpt>
      <trkpt lat="31.901027010753751" lon="-4.93111303076148">
        <ele>1190.8</ele>
        <time>2003-04-14T07:34:15Z</time>
      </trkpt>
      <trkpt lat="31.900906981900334" lon="-4.931010017171502">
        <ele>1188.9000000000001</ele>
        <time>2003-04-14T07:34:16Z</time>
      </trkpt>
      <trkpt lat="31.90078703686595" lon="-4.930912032723427">
        <ele>1186.3</ele>
        <time>2003-04-14T07:34:19Z</time>
      </trkpt>
      <trkpt lat="31.900491993874311" lon="-4.930648002773523">
        <ele>1182.9000000000001</ele>
        <time>2003-04-14T07:34:24Z</time>
      </trkpt>
      <trkpt lat="31.900486964732409" lon="-4.930502995848656">
        <ele>1181.5999999999999</ele>
        <time>2003-04-14T07:34:26Z</time>
      </trkpt>
      <trkpt lat="31.900437008589506" lon="-4.93034197948873">
        <ele>1181.0999999999999</ele>
        <time>2003-04-14T07:34:28Z</time>
      </trkpt>
      <trkpt lat="31.900342041626573" lon="-4.929930008947849">
        <ele>1180.0999999999999</ele>
        <time>2003-04-14T07:34:34Z</time>
      </trkpt>
      <trkpt lat="31.900302981957793" lon="-4.929775027558208">
        <ele>1179.8</ele>
        <time>2003-04-14T07:34:36Z</time>
      </trkpt>
      <trkpt lat="31.900216983631253" lon="-4.929604958742857">
        <ele>1178.0999999999999</ele>
        <time>2003-04-14T07:34:39Z</time>
      </trkpt>
      <trkpt lat="31.900132996961474" lon="-4.929432040080428">
        <ele>1178.0999999999999</ele>
        <time>2003-04-14T07:34:43Z</time>
      </trkpt>
      <trkpt lat="31.90010298974812" lon="-4.929302036762238">
        <ele>1178.8</ele>
        <time>2003-04-14T07:34:44Z</time>
      </trkpt>
      <trkpt lat="31.90010298974812" lon="-4.929177984595299">
        <ele>1179</ele>
        <time>2003-04-14T07:34:47Z</time>
      </trkpt>
      <trkpt lat="31.9001230224967" lon="-4.928682027384639">
        <ele>1177.4000000000001</ele>
        <time>2003-04-14T07:34:55Z</time>
      </trkpt>
      <trkpt lat="31.900192005559802" lon="-4.928411962464452">
        <ele>1178.4000000000001</ele>
        <time>2003-04-14T07:34:58Z</time>
      </trkpt>
      <trkpt lat="31.900246990844607" lon="-4.928144998848438">
        <ele>1178.5999999999999</ele>
        <time>2003-04-14T07:35:02Z</time>
      </trkpt>
      <trkpt lat="31.900225030258298" lon="-4.927956992760301">
        <ele>1178.8</ele>
        <time>2003-04-14T07:35:05Z</time>
      </trkpt>
      <trkpt lat="31.900184964761138" lon="-4.927532030269504">
        <ele>1179.7</ele>
        <time>2003-04-14T07:35:09Z</time>
      </trkpt>
      <trkpt lat="31.90012201666832" lon="-4.926927024498582">
        <ele>1180.2</ele>
        <time>2003-04-14T07:35:14Z</time>
      </trkpt>
      <trkpt lat="31.900062002241611" lon="-4.92679500952363">
        <ele>1181.5999999999999</ele>
        <time>2003-04-14T07:35:17Z</time>
      </trkpt>
      <trkpt lat="31.899997964501381" lon="-4.926652014255524">
        <ele>1183.5</ele>
        <time>2003-04-14T07:35:18Z</time>
      </trkpt>
      <trkpt lat="31.899809958413243" lon="-4.926237026229501">
        <ele>1187.3</ele>
        <time>2003-04-14T07:35:24Z</time>
      </trkpt>
      <trkpt lat="31.899705016985536" lon="-4.926090007647872">
        <ele>1188</ele>
        <time>2003-04-14T07:35:25Z</time>
      </trkpt>
      <trkpt lat="31.899562021717429" lon="-4.926026975736022">
        <ele>1188.5999999999999</ele>
        <time>2003-04-14T07:35:28Z</time>
      </trkpt>
      <trkpt lat="31.899426989257336" lon="-4.926026975736022">
        <ele>1189.3</ele>
        <time>2003-04-14T07:35:29Z</time>
      </trkpt>
      <trkpt lat="31.899311989545822" lon="-4.926054971292615">
        <ele>1189.0999999999999</ele>
        <time>2003-04-14T07:35:33Z</time>
      </trkpt>
      <trkpt lat="31.8991369754076" lon="-4.926084978505969">
        <ele>1188.9000000000001</ele>
        <time>2003-04-14T07:35:36Z</time>
      </trkpt>
      <trkpt lat="31.898234998807311" lon="-4.926341967657208">
        <ele>1187.2</ele>
        <time>2003-04-14T07:35:53Z</time>
      </trkpt>
      <trkpt lat="31.898127961903811" lon="-4.926380021497607">
        <ele>1186.8</ele>
        <time>2003-04-14T07:35:56Z</time>
      </trkpt>
      <trkpt lat="31.897957976907492" lon="-4.926483035087585">
        <ele>1185.9000000000001</ele>
        <time>2003-04-14T07:35:59Z</time>
      </trkpt>
      <trkpt lat="31.897808024659753" lon="-4.926567021757364">
        <ele>1185.4000000000001</ele>
        <time>2003-04-14T07:36:01Z</time>
      </trkpt>
      <trkpt lat="31.897638039663434" lon="-4.926619995385408">
        <ele>1185</ele>
        <time>2003-04-14T07:36:04Z</time>
      </trkpt>
      <trkpt lat="31.897267978638411" lon="-4.926722003147006">
        <ele>1184.3</ele>
        <time>2003-04-14T07:36:11Z</time>
      </trkpt>
      <trkpt lat="31.897133029997349" lon="-4.926765002310276">
        <ele>1184.5</ele>
        <time>2003-04-14T07:36:12Z</time>
      </trkpt>
      <trkpt lat="31.896981988102198" lon="-4.926749998703599">
        <ele>1184.8</ele>
        <time>2003-04-14T07:36:15Z</time>
      </trkpt>
      <trkpt lat="31.896812003105879" lon="-4.926767013967037">
        <ele>1184.5</ele>
        <time>2003-04-14T07:36:16Z</time>
      </trkpt>
      <trkpt lat="31.896035000681877" lon="-4.926862986758351">
        <ele>1185.4000000000001</ele>
        <time>2003-04-14T07:36:26Z</time>
      </trkpt>
      <trkpt lat="31.895878007635474" lon="-4.926800038665533">
        <ele>1184.8</ele>
        <time>2003-04-14T07:36:27Z</time>
      </trkpt>
      <trkpt lat="31.895668040961027" lon="-4.926670035347343">
        <ele>1185.3</ele>
        <time>2003-04-14T07:36:31Z</time>
      </trkpt>
      <trkpt lat="31.895345002412796" lon="-4.926426960155368">
        <ele>1184.9000000000001</ele>
        <time>2003-04-14T07:36:35Z</time>
      </trkpt>
      <trkpt lat="31.895145010203123" lon="-4.926354959607124">
        <ele>1185.3</ele>
        <time>2003-04-14T07:36:39Z</time>
      </trkpt>
      <trkpt lat="31.894809985533357" lon="-4.926305003464222">
        <ele>1186.2</ele>
        <time>2003-04-14T07:36:43Z</time>
      </trkpt>
      <trkpt lat="31.894602030515671" lon="-4.926259992644191">
        <ele>1186.8</ele>
        <time>2003-04-14T07:36:46Z</time>
      </trkpt>
      <trkpt lat="31.894455011934042" lon="-4.926259992644191">
        <ele>1187.3</ele>
        <time>2003-04-14T07:36:47Z</time>
      </trkpt>
      <trkpt lat="31.894313022494316" lon="-4.926237026229501">
        <ele>1187</ele>
        <time>2003-04-14T07:36:50Z</time>
      </trkpt>
      <trkpt lat="31.89417296089232" lon="-4.926154967397451">
        <ele>1187.2</ele>
        <time>2003-04-14T07:36:51Z</time>
      </trkpt>
      <trkpt lat="31.8937630020082" lon="-4.925939971581101">
        <ele>1185.9000000000001</ele>
        <time>2003-04-14T07:36:58Z</time>
      </trkpt>
      <trkpt lat="31.89361497759819" lon="-4.925929997116327">
        <ele>1185.9000000000001</ele>
        <time>2003-04-14T07:36:59Z</time>
      </trkpt>
      <trkpt lat="31.893477011471987" lon="-4.925867971032858">
        <ele>1185.8</ele>
        <time>2003-04-14T07:37:02Z</time>
      </trkpt>
      <trkpt lat="31.893233014270663" lon="-4.925662027671933">
        <ele>1185.3</ele>
        <time>2003-04-14T07:37:06Z</time>
      </trkpt>
      <trkpt lat="31.893160007894039" lon="-4.92548500187695">
        <ele>1185.0999999999999</ele>
        <time>2003-04-14T07:37:08Z</time>
      </trkpt>
      <trkpt lat="31.893041990697384" lon="-4.925204962491989">
        <ele>1185.3</ele>
        <time>2003-04-14T07:37:10Z</time>
      </trkpt>
      <trkpt lat="31.892933025956154" lon="-4.925000024959445">
        <ele>1185.5</ele>
        <time>2003-04-14T07:37:13Z</time>
      </trkpt>
      <trkpt lat="31.892837975174189" lon="-4.924927018582821">
        <ele>1186.2</ele>
        <time>2003-04-14T07:37:16Z</time>
      </trkpt>
      <trkpt lat="31.892720041796565" lon="-4.924951996654272">
        <ele>1187.3</ele>
        <time>2003-04-14T07:37:17Z</time>
      </trkpt>
      <trkpt lat="31.892598001286387" lon="-4.925030032172799">
        <ele>1187.7</ele>
        <time>2003-04-14T07:37:20Z</time>
      </trkpt>
      <trkpt lat="31.892472021281719" lon="-4.925149977207184">
        <ele>1188</ele>
        <time>2003-04-14T07:37:21Z</time>
      </trkpt>
      <trkpt lat="31.892313016578555" lon="-4.925213009119034">
        <ele>1188.5999999999999</ele>
        <time>2003-04-14T07:37:24Z</time>
      </trkpt>
      <trkpt lat="31.892187036573887" lon="-4.925272017717362">
        <ele>1189.4000000000001</ele>
        <time>2003-04-14T07:37:25Z</time>
      </trkpt>
      <trkpt lat="31.89183197915554" lon="-4.925469998270273">
        <ele>1186.0999999999999</ele>
        <time>2003-04-14T07:37:30Z</time>
      </trkpt>
      <trkpt lat="31.891492009162903" lon="-4.925602013245225">
        <ele>1185.8</ele>
        <time>2003-04-14T07:37:35Z</time>
      </trkpt>
      <trkpt lat="31.891126977279782" lon="-4.925687005743384">
        <ele>1186.7</ele>
        <time>2003-04-14T07:37:39Z</time>
      </trkpt>
      <trkpt lat="31.890752976760268" lon="-4.925880040973425">
        <ele>1187.2</ele>
        <time>2003-04-14T07:37:43Z</time>
      </trkpt>
      <trkpt lat="31.890562037006021" lon="-4.925971990451217">
        <ele>1188</ele>
        <time>2003-04-14T07:37:44Z</time>
      </trkpt>
      <trkpt lat="31.890107989311218" lon="-4.92625798098743">
        <ele>1189.5999999999999</ele>
        <time>2003-04-14T07:37:49Z</time>
      </trkpt>
      <trkpt lat="31.889642961323261" lon="-4.926625024527311">
        <ele>1188.2</ele>
        <time>2003-04-14T07:37:55Z</time>
      </trkpt>
      <trkpt lat="31.88953198492527" lon="-4.926661988720298">
        <ele>1188.0999999999999</ele>
        <time>2003-04-14T07:37:56Z</time>
      </trkpt>
      <trkpt lat="31.889244988560677" lon="-4.926819987595081">
        <ele>1189.5</ele>
        <time>2003-04-14T07:37:59Z</time>
      </trkpt>
      <trkpt lat="31.888854978606105" lon="-4.927209997549653">
        <ele>1189.5</ele>
        <time>2003-04-14T07:38:04Z</time>
      </trkpt>
      <trkpt lat="31.888630008324981" lon="-4.927507974207401">
        <ele>1190.2</ele>
        <time>2003-04-14T07:38:07Z</time>
      </trkpt>
      <trkpt lat="31.888547027483582" lon="-4.927663039416075">
        <ele>1189.8</ele>
        <time>2003-04-14T07:38:10Z</time>
      </trkpt>
      <trkpt lat="31.888428004458547" lon="-4.927809974178672">
        <ele>1188.3</ele>
        <time>2003-04-14T07:38:11Z</time>
      </trkpt>
      <trkpt lat="31.88834996894002" lon="-4.927863031625748">
        <ele>1188.5</ele>
        <time>2003-04-14T07:38:12Z</time>
      </trkpt>
      <trkpt lat="31.888160035014153" lon="-4.928022958338261">
        <ele>1189.5</ele>
        <time>2003-04-14T07:38:15Z</time>
      </trkpt>
      <trkpt lat="31.888007987290621" lon="-4.928238037973642">
        <ele>1190.0999999999999</ele>
        <time>2003-04-14T07:38:19Z</time>
      </trkpt>
      <trkpt lat="31.887836996465921" lon="-4.928437024354935">
        <ele>1190.3</ele>
        <time>2003-04-14T07:38:22Z</time>
      </trkpt>
      <trkpt lat="31.887686960399151" lon="-4.928508019074798">
        <ele>1190.5999999999999</ele>
        <time>2003-04-14T07:38:23Z</time>
      </trkpt>
      <trkpt lat="31.887557040899992" lon="-4.928614972159267">
        <ele>1191.3</ele>
        <time>2003-04-14T07:38:26Z</time>
      </trkpt>
      <trkpt lat="31.887427037581801" lon="-4.928710022941232">
        <ele>1192</ele>
        <time>2003-04-14T07:38:27Z</time>
      </trkpt>
      <trkpt lat="31.887205000966787" lon="-4.928857041522861">
        <ele>1193.2</ele>
        <time>2003-04-14T07:38:31Z</time>
      </trkpt>
      <trkpt lat="31.88701699487865" lon="-4.929043035954237">
        <ele>1194.5999999999999</ele>
        <time>2003-04-14T07:38:34Z</time>
      </trkpt>
      <trkpt lat="31.886797975748777" lon="-4.929236993193626">
        <ele>1194.9000000000001</ele>
        <time>2003-04-14T07:38:37Z</time>
      </trkpt>
      <trkpt lat="31.886579962447286" lon="-4.929462969303131">
        <ele>1196.3</ele>
        <time>2003-04-14T07:38:39Z</time>
      </trkpt>
      <trkpt lat="31.886427998542786" lon="-4.929624991491437">
        <ele>1196.2</ele>
        <time>2003-04-14T07:38:42Z</time>
      </trkpt>
      <trkpt lat="31.886260025203228" lon="-4.929760023951531">
        <ele>1196.5999999999999</ele>
        <time>2003-04-14T07:38:43Z</time>
      </trkpt>
      <trkpt lat="31.88607201911509" lon="-4.929843004792929">
        <ele>1197.3</ele>
        <time>2003-04-14T07:38:46Z</time>
      </trkpt>
      <trkpt lat="31.885987026616931" lon="-4.929892960935831">
        <ele>1197.8</ele>
        <time>2003-04-14T07:38:46Z</time>
      </trkpt>
      <trkpt lat="31.885907985270023" lon="-4.929960016161203">
        <ele>1198.2</ele>
        <time>2003-04-14T07:38:47Z</time>
      </trkpt>
      <trkpt lat="31.885842019692063" lon="-4.930042997002602">
        <ele>1197.8</ele>
        <time>2003-04-14T07:38:49Z</time>
      </trkpt>
      <trkpt lat="31.885702041909099" lon="-4.930154979228973">
        <ele>1197.0999999999999</ele>
        <time>2003-04-14T07:38:50Z</time>
      </trkpt>
      <trkpt lat="31.885607996955514" lon="-4.930156990885735">
        <ele>1197</ele>
        <time>2003-04-14T07:38:51Z</time>
      </trkpt>
      <trkpt lat="31.88529803417623" lon="-4.930180041119456">
        <ele>1200.7</ele>
        <time>2003-04-14T07:38:56Z</time>
      </trkpt>
      <trkpt lat="31.885182028636336" lon="-4.930290011689067">
        <ele>1202</ele>
        <time>2003-04-14T07:38:58Z</time>
      </trkpt>
      <trkpt lat="31.884995028376579" lon="-4.930492015555501">
        <ele>1203.0999999999999</ele>
        <time>2003-04-14T07:39:01Z</time>
      </trkpt>
      <trkpt lat="31.884916992858052" lon="-4.930650014430285">
        <ele>1202.5999999999999</ele>
        <time>2003-04-14T07:39:02Z</time>
      </trkpt>
      <trkpt lat="31.884850021451712" lon="-4.93072503246367">
        <ele>1203</ele>
        <time>2003-04-14T07:39:04Z</time>
      </trkpt>
      <trkpt lat="31.884703002870083" lon="-4.930822011083365">
        <ele>1204.0999999999999</ele>
        <time>2003-04-14T07:39:05Z</time>
      </trkpt>
      <trkpt lat="31.884557995945215" lon="-4.930931981652975">
        <ele>1205.9000000000001</ele>
        <time>2003-04-14T07:39:08Z</time>
      </trkpt>
      <trkpt lat="31.884307041764259" lon="-4.931195005774498">
        <ele>1207</ele>
        <time>2003-04-14T07:39:12Z</time>
      </trkpt>
      <trkpt lat="31.883904961869121" lon="-4.931821972131729">
        <ele>1210.5999999999999</ele>
        <time>2003-04-14T07:39:20Z</time>
      </trkpt>
      <trkpt lat="31.883773030713201" lon="-4.931939989328384">
        <ele>1211.3</ele>
        <time>2003-04-14T07:39:21Z</time>
      </trkpt>
      <trkpt lat="31.883634980767965" lon="-4.932079967111349">
        <ele>1212.2</ele>
        <time>2003-04-14T07:39:24Z</time>
      </trkpt>
      <trkpt lat="31.883487962186337" lon="-4.932207958772779">
        <ele>1213.8</ele>
        <time>2003-04-14T07:39:25Z</time>
      </trkpt>
      <trkpt lat="31.883276989683509" lon="-4.932427983731031">
        <ele>1213.7</ele>
        <time>2003-04-14T07:39:28Z</time>
      </trkpt>
      <trkpt lat="31.883146986365318" lon="-4.932614983990789">
        <ele>1215.0999999999999</ele>
        <time>2003-04-14T07:39:31Z</time>
      </trkpt>
      <trkpt lat="31.882747001945972" lon="-4.933041958138347">
        <ele>1215.0999999999999</ele>
        <time>2003-04-14T07:39:36Z</time>
      </trkpt>
      <trkpt lat="31.882532006129622" lon="-4.933315040543675">
        <ele>1216.4000000000001</ele>
        <time>2003-04-14T07:39:39Z</time>
      </trkpt>
      <trkpt lat="31.882192958146334" lon="-4.933600025251508">
        <ele>1215.7</ele>
        <time>2003-04-14T07:39:43Z</time>
      </trkpt>
      <trkpt lat="31.881943009793758" lon="-4.933743020519614">
        <ele>1213.3</ele>
        <time>2003-04-14T07:39:45Z</time>
      </trkpt>
      <trkpt lat="31.8818199634552" lon="-4.933830024674535">
        <ele>1212.5999999999999</ele>
        <time>2003-04-14T07:39:48Z</time>
      </trkpt>
      <trkpt lat="31.881724996492267" lon="-4.933934966102243">
        <ele>1212.5</ele>
        <time>2003-04-14T07:39:50Z</time>
      </trkpt>
      <trkpt lat="31.881532967090607" lon="-4.934132024645805">
        <ele>1211.4000000000001</ele>
        <time>2003-04-14T07:39:52Z</time>
      </trkpt>
      <trkpt lat="31.880941959097981" lon="-4.93472202681005">
        <ele>1206.9000000000001</ele>
        <time>2003-04-14T07:40:00Z</time>
      </trkpt>
      <trkpt lat="31.880831988528371" lon="-4.934859992936254">
        <ele>1206.3</ele>
        <time>2003-04-14T07:40:03Z</time>
      </trkpt>
      <trkpt lat="31.880569970235229" lon="-4.935042969882488">
        <ele>1204.2</ele>
        <time>2003-04-14T07:40:07Z</time>
      </trkpt>
      <trkpt lat="31.880457988008857" lon="-4.935167022049427">
        <ele>1203.3</ele>
        <time>2003-04-14T07:40:08Z</time>
      </trkpt>
      <trkpt lat="31.880360003560781" lon="-4.935295013710856">
        <ele>1202.4000000000001</ele>
        <time>2003-04-14T07:40:11Z</time>
      </trkpt>
      <trkpt lat="31.880222037434578" lon="-4.935385035350919">
        <ele>1202</ele>
        <time>2003-04-14T07:40:12Z</time>
      </trkpt>
      <trkpt lat="31.880041994154453" lon="-4.935486959293485">
        <ele>1200.8</ele>
        <time>2003-04-14T07:40:15Z</time>
      </trkpt>
      <trkpt lat="31.879933029413223" lon="-4.935392998158932">
        <ele>1201</ele>
        <time>2003-04-14T07:40:18Z</time>
      </trkpt>
      <trkpt lat="31.879830015823245" lon="-4.935270035639405">
        <ele>1200.4000000000001</ele>
        <time>2003-04-14T07:40:19Z</time>
      </trkpt>
      <trkpt lat="31.879667993634939" lon="-4.935219995677471">
        <ele>1199.5999999999999</ele>
        <time>2003-04-14T07:40:22Z</time>
      </trkpt>
      <trkpt lat="31.87947797589004" lon="-4.935207003727555">
        <ele>1199.5999999999999</ele>
        <time>2003-04-14T07:40:23Z</time>
      </trkpt>
      <trkpt lat="31.879221992567182" lon="-4.935172973200679">
        <ele>1199.3</ele>
        <time>2003-04-14T07:40:26Z</time>
      </trkpt>
      <trkpt lat="31.878952011466026" lon="-4.935129974037409">
        <ele>1198.8</ele>
        <time>2003-04-14T07:40:30Z</time>
      </trkpt>
      <trkpt lat="31.878847992047668" lon="-4.935150006785989">
        <ele>1198.7</ele>
        <time>2003-04-14T07:40:30Z</time>
      </trkpt>
      <trkpt lat="31.878548003733158" lon="-4.935165010392666">
        <ele>1197.9000000000001</ele>
        <time>2003-04-14T07:40:34Z</time>
      </trkpt>
      <trkpt lat="31.878281962126493" lon="-4.935138020664454">
        <ele>1197.5999999999999</ele>
        <time>2003-04-14T07:40:37Z</time>
      </trkpt>
      <trkpt lat="31.877862028777599" lon="-4.935025032609701">
        <ele>1196.8</ele>
        <time>2003-04-14T07:40:42Z</time>
      </trkpt>
      <trkpt lat="31.877257023006678" lon="-4.934741975739598">
        <ele>1194.8</ele>
        <time>2003-04-14T07:40:49Z</time>
      </trkpt>
      <trkpt lat="31.877128025516868" lon="-4.934678021818399">
        <ele>1194.3</ele>
        <time>2003-04-14T07:40:52Z</time>
      </trkpt>
      <trkpt lat="31.877002967521548" lon="-4.934626976028085">
        <ele>1193.7</ele>
        <time>2003-04-14T07:40:53Z</time>
      </trkpt>
      <trkpt lat="31.876915041357279" lon="-4.934503007680178">
        <ele>1193.0999999999999</ele>
        <time>2003-04-14T07:40:56Z</time>
      </trkpt>
      <trkpt lat="31.876793000847101" lon="-4.934409968554974">
        <ele>1192.0999999999999</ele>
        <time>2003-04-14T07:40:57Z</time>
      </trkpt>
      <trkpt lat="31.876593008637428" lon="-4.934309972450137">
        <ele>1189.9000000000001</ele>
        <time>2003-04-14T07:41:01Z</time>
      </trkpt>
      <trkpt lat="31.87633995898068" lon="-4.934211988002062">
        <ele>1187.5</ele>
        <time>2003-04-14T07:41:05Z</time>
      </trkpt>
      <trkpt lat="31.876223031431437" lon="-4.934158008545637">
        <ele>1186.2</ele>
        <time>2003-04-14T07:41:06Z</time>
      </trkpt>
      <trkpt lat="31.876092022284865" lon="-4.934087013825774">
        <ele>1186.4000000000001</ele>
        <time>2003-04-14T07:41:09Z</time>
      </trkpt>
      <trkpt lat="31.875947015359998" lon="-4.934019958600402">
        <ele>1185.9000000000001</ele>
        <time>2003-04-14T07:41:11Z</time>
      </trkpt>
      <trkpt lat="31.87573503702879" lon="-4.933962039649487">
        <ele>1185.5999999999999</ele>
        <time>2003-04-14T07:41:13Z</time>
      </trkpt>
      <trkpt lat="31.875615008175373" lon="-4.934007972478867">
        <ele>1185.4000000000001</ele>
        <time>2003-04-14T07:41:16Z</time>
      </trkpt>
      <trkpt lat="31.875513000413775" lon="-4.934107968583703">
        <ele>1185</ele>
        <time>2003-04-14T07:41:17Z</time>
      </trkpt>
      <trkpt lat="31.875411998480558" lon="-4.93416203185916">
        <ele>1184.0999999999999</ele>
        <time>2003-04-14T07:41:20Z</time>
      </trkpt>
      <trkpt lat="31.875306973233819" lon="-4.934124983847141">
        <ele>1183.5</ele>
        <time>2003-04-14T07:41:21Z</time>
      </trkpt>
      <trkpt lat="31.875203037634492" lon="-4.934007972478867">
        <ele>1183</ele>
        <time>2003-04-14T07:41:24Z</time>
      </trkpt>
      <trkpt lat="31.875100024044514" lon="-4.933852991089225">
        <ele>1183.0999999999999</ele>
        <time>2003-04-14T07:41:25Z</time>
      </trkpt>
      <trkpt lat="31.87496499158442" lon="-4.933672025799751">
        <ele>1182.9000000000001</ele>
        <time>2003-04-14T07:41:28Z</time>
      </trkpt>
      <trkpt lat="31.87485502101481" lon="-4.933661967515945">
        <ele>1183</ele>
        <time>2003-04-14T07:41:31Z</time>
      </trkpt>
      <trkpt lat="31.874786959961057" lon="-4.93379800580442">
        <ele>1183.3</ele>
        <time>2003-04-14T07:41:32Z</time>
      </trkpt>
      <trkpt lat="31.874761981889606" lon="-4.933994980528951">
        <ele>1182.9000000000001</ele>
        <time>2003-04-14T07:41:35Z</time>
      </trkpt>
      <trkpt lat="31.874685036018491" lon="-4.934305027127266">
        <ele>1181.4000000000001</ele>
        <time>2003-04-14T07:41:39Z</time>
      </trkpt>
      <trkpt lat="31.874593002721667" lon="-4.934480041265488">
        <ele>1181.3</ele>
        <time>2003-04-14T07:41:40Z</time>
      </trkpt>
      <trkpt lat="31.874470040202141" lon="-4.934612978249788">
        <ele>1181.2</ele>
        <time>2003-04-14T07:41:43Z</time>
      </trkpt>
      <trkpt lat="31.874322015792131" lon="-4.934665029868484">
        <ele>1180.7</ele>
        <time>2003-04-14T07:41:43Z</time>
      </trkpt>
      <trkpt lat="31.874152030795813" lon="-4.934663018211722">
        <ele>1180.5999999999999</ele>
        <time>2003-04-14T07:41:46Z</time>
      </trkpt>
      <trkpt lat="31.873851958662271" lon="-4.934639967978001">
        <ele>1180.5</ele>
        <time>2003-04-14T07:41:50Z</time>
      </trkpt>
      <trkpt lat="31.873558005318046" lon="-4.934663018211722">
        <ele>1180.9000000000001</ele>
        <time>2003-04-14T07:41:51Z</time>
      </trkpt>
      <trkpt lat="31.873358013108373" lon="-4.934732001274824">
        <ele>1180.9000000000001</ele>
        <time>2003-04-14T07:41:54Z</time>
      </trkpt>
      <trkpt lat="31.873062970116735" lon="-4.934797966852784">
        <ele>1181.3</ele>
        <time>2003-04-14T07:41:58Z</time>
      </trkpt>
      <trkpt lat="31.872970014810562" lon="-4.934823028743267">
        <ele>1180.8</ele>
        <time>2003-04-14T07:41:58Z</time>
      </trkpt>
      <trkpt lat="31.872819978743792" lon="-4.934927970170975">
        <ele>1180.4000000000001</ele>
        <time>2003-04-14T07:42:00Z</time>
      </trkpt>
      <trkpt lat="31.872701961547136" lon="-4.935072977095842">
        <ele>1180.7</ele>
        <time>2003-04-14T07:42:03Z</time>
      </trkpt>
      <trkpt lat="31.872649993747473" lon="-4.935222007334232">
        <ele>1182</ele>
        <time>2003-04-14T07:42:05Z</time>
      </trkpt>
      <trkpt lat="31.872674971818924" lon="-4.935371959581971">
        <ele>1182.5999999999999</ele>
        <time>2003-04-14T07:42:07Z</time>
      </trkpt>
      <trkpt lat="31.872757030650973" lon="-4.935510009527206">
        <ele>1182.9000000000001</ele>
        <time>2003-04-14T07:42:09Z</time>
      </trkpt>
      <trkpt lat="31.872827019542456" lon="-4.935710001736879">
        <ele>1181.4000000000001</ele>
        <time>2003-04-14T07:42:10Z</time>
      </trkpt>
      <trkpt lat="31.872842023149133" lon="-4.93581997230649">
        <ele>1179.9000000000001</ele>
        <time>2003-04-14T07:42:11Z</time>
      </trkpt>
      <trkpt lat="31.872825007885695" lon="-4.935932038351893">
        <ele>1180.0999999999999</ele>
        <time>2003-04-14T07:42:13Z</time>
      </trkpt>
      <trkpt lat="31.872757030650973" lon="-4.936175029724836">
        <ele>1178.3</ele>
        <time>2003-04-14T07:42:14Z</time>
      </trkpt>
      <trkpt lat="31.87255997210741" lon="-4.936744999140501">
        <ele>1174.8</ele>
        <time>2003-04-14T07:42:19Z</time>
      </trkpt>
      <trkpt lat="31.872487971559167" lon="-4.936827979981899">
        <ele>1173.9000000000001</ele>
        <time>2003-04-14T07:42:21Z</time>
      </trkpt>
      <trkpt lat="31.872380012646317" lon="-4.937016991898418">
        <ele>1173.4000000000001</ele>
        <time>2003-04-14T07:42:22Z</time>
      </trkpt>
      <trkpt lat="31.872356962412596" lon="-4.937123022973537">
        <ele>1173.0999999999999</ele>
        <time>2003-04-14T07:42:23Z</time>
      </trkpt>
      <trkpt lat="31.872292002663016" lon="-4.937327960506082">
        <ele>1172.7</ele>
        <time>2003-04-14T07:42:26Z</time>
      </trkpt>
      <trkpt lat="31.872231988236308" lon="-4.937416976317763">
        <ele>1172.8</ele>
        <time>2003-04-14T07:42:26Z</time>
      </trkpt>
      <trkpt lat="31.872156970202923" lon="-4.937498029321432">
        <ele>1172.9000000000001</ele>
        <time>2003-04-14T07:42:27Z</time>
      </trkpt>
      <trkpt lat="31.872077006846666" lon="-4.93755997158587">
        <ele>1172.4000000000001</ele>
        <time>2003-04-14T07:42:29Z</time>
      </trkpt>
      <trkpt lat="31.871833009645343" lon="-4.937719982117415">
        <ele>1170.8</ele>
        <time>2003-04-14T07:42:32Z</time>
      </trkpt>
      <trkpt lat="31.871733013540506" lon="-4.937728028744459">
        <ele>1170.8</ele>
        <time>2003-04-14T07:42:33Z</time>
      </trkpt>
      <trkpt lat="31.871635029092431" lon="-4.937702966853976">
        <ele>1171.2</ele>
        <time>2003-04-14T07:42:34Z</time>
      </trkpt>
      <trkpt lat="31.871537966653705" lon="-4.937657034024596">
        <ele>1170.9000000000001</ele>
        <time>2003-04-14T07:42:34Z</time>
      </trkpt>
      <trkpt lat="31.871442999690771" lon="-4.937628032639623">
        <ele>1171</ele>
        <time>2003-04-14T07:42:36Z</time>
      </trkpt>
      <trkpt lat="31.871237978339195" lon="-4.93762300349772">
        <ele>1170.5</ele>
        <time>2003-04-14T07:42:37Z</time>
      </trkpt>
      <trkpt lat="31.871136976405978" lon="-4.937652004882693">
        <ele>1170.0999999999999</ele>
        <time>2003-04-14T07:42:38Z</time>
      </trkpt>
      <trkpt lat="31.871051983907819" lon="-4.937702966853976">
        <ele>1169.7</ele>
        <time>2003-04-14T07:42:40Z</time>
      </trkpt>
      <trkpt lat="31.870977971702814" lon="-4.937770022079349">
        <ele>1170</ele>
        <time>2003-04-14T07:42:41Z</time>
      </trkpt>
      <trkpt lat="31.870819972828031" lon="-4.93786197155714">
        <ele>1168.5999999999999</ele>
        <time>2003-04-14T07:42:42Z</time>
      </trkpt>
      <trkpt lat="31.870722994208336" lon="-4.937853002920747">
        <ele>1167.3</ele>
        <time>2003-04-14T07:42:44Z</time>
      </trkpt>
      <trkpt lat="31.870549991726875" lon="-4.937768010422587">
        <ele>1167.0999999999999</ele>
        <time>2003-04-14T07:42:45Z</time>
      </trkpt>
      <trkpt lat="31.870468016713858" lon="-4.937687963247299">
        <ele>1166.7</ele>
        <time>2003-04-14T07:42:46Z</time>
      </trkpt>
      <trkpt lat="31.87023701146245" lon="-4.937477996572852">
        <ele>1165.5999999999999</ele>
        <time>2003-04-14T07:42:49Z</time>
      </trkpt>
      <trkpt lat="31.869718004018068" lon="-4.937189994379878">
        <ele>1162</ele>
        <time>2003-04-14T07:42:56Z</time>
      </trkpt>
      <trkpt lat="31.869342997670174" lon="-4.937126962468028">
        <ele>1159.5</ele>
        <time>2003-04-14T07:43:00Z</time>
      </trkpt>
      <trkpt lat="31.868380000814795" lon="-4.937212960794568">
        <ele>1156.5</ele>
        <time>2003-04-14T07:43:08Z</time>
      </trkpt>
      <trkpt lat="31.868176991119981" lon="-4.937252020463347">
        <ele>1155.8</ele>
        <time>2003-04-14T07:43:11Z</time>
      </trkpt>
      <trkpt lat="31.867989990860224" lon="-4.937242968007922">
        <ele>1155.7</ele>
        <time>2003-04-14T07:43:12Z</time>
      </trkpt>
      <trkpt lat="31.86789502389729" lon="-4.937198041006923">
        <ele>1156.8</ele>
        <time>2003-04-14T07:43:13Z</time>
      </trkpt>
      <trkpt lat="31.867322036996484" lon="-4.936838038265705">
        <ele>1154.7</ele>
        <time>2003-04-14T07:43:20Z</time>
      </trkpt>
      <trkpt lat="31.867072004824877" lon="-4.936696970835328">
        <ele>1154.3</ele>
        <time>2003-04-14T07:43:24Z</time>
      </trkpt>
      <trkpt lat="31.866979971528053" lon="-4.936681967228651">
        <ele>1154.5</ele>
        <time>2003-04-14T07:43:24Z</time>
      </trkpt>
      <trkpt lat="31.86688500456512" lon="-4.936681967228651">
        <ele>1154.5</ele>
        <time>2003-04-14T07:43:26Z</time>
      </trkpt>
      <trkpt lat="31.866791965439916" lon="-4.936718009412289">
        <ele>1154.4000000000001</ele>
        <time>2003-04-14T07:43:27Z</time>
      </trkpt>
      <trkpt lat="31.866706972941756" lon="-4.936772994697094">
        <ele>1154.4000000000001</ele>
        <time>2003-04-14T07:43:28Z</time>
      </trkpt>
      <trkpt lat="31.86662801541388" lon="-4.936848012730479">
        <ele>1154.3</ele>
        <time>2003-04-14T07:43:28Z</time>
      </trkpt>
      <trkpt lat="31.866561966016889" lon="-4.936950020492077">
        <ele>1153.9000000000001</ele>
        <time>2003-04-14T07:43:30Z</time>
      </trkpt>
      <trkpt lat="31.866359962150455" lon="-4.937250008806586">
        <ele>1153.8</ele>
        <time>2003-04-14T07:43:32Z</time>
      </trkpt>
      <trkpt lat="31.866261977702379" lon="-4.937283033505082">
        <ele>1154</ele>
        <time>2003-04-14T07:43:34Z</time>
      </trkpt>
      <trkpt lat="31.866061985492706" lon="-4.937367020174861">
        <ele>1154.5</ele>
        <time>2003-04-14T07:43:35Z</time>
      </trkpt>
      <trkpt lat="31.865872973576188" lon="-4.937527030706406">
        <ele>1154.5</ele>
        <time>2003-04-14T07:43:38Z</time>
      </trkpt>
      <trkpt lat="31.86568203382194" lon="-4.937659967690706">
        <ele>1154.5999999999999</ele>
        <time>2003-04-14T07:43:39Z</time>
      </trkpt>
      <trkpt lat="31.865088008344173" lon="-4.938089959323406">
        <ele>1153.2</ele>
        <time>2003-04-14T07:43:46Z</time>
      </trkpt>
      <trkpt lat="31.864719958975911" lon="-4.938377039507031">
        <ele>1152.3</ele>
        <time>2003-04-14T07:43:50Z</time>
      </trkpt>
      <trkpt lat="31.864517033100128" lon="-4.938497990369797">
        <ele>1152.0999999999999</ele>
        <time>2003-04-14T07:43:51Z</time>
      </trkpt>
      <trkpt lat="31.864097015932202" lon="-4.938839972019196">
        <ele>1152</ele>
        <time>2003-04-14T07:43:57Z</time>
      </trkpt>
      <trkpt lat="31.864015040919185" lon="-4.938896968960762">
        <ele>1152.0999999999999</ele>
        <time>2003-04-14T07:43:58Z</time>
      </trkpt>
      <trkpt lat="31.863912027329206" lon="-4.938938040286303">
        <ele>1152.0999999999999</ele>
        <time>2003-04-14T07:43:58Z</time>
      </trkpt>
      <trkpt lat="31.86381496489048" lon="-4.938996965065599">
        <ele>1151.8</ele>
        <time>2003-04-14T07:43:59Z</time>
      </trkpt>
      <trkpt lat="31.863727960735559" lon="-4.939071983098984">
        <ele>1152.0999999999999</ele>
        <time>2003-04-14T07:44:01Z</time>
      </trkpt>
      <trkpt lat="31.862905025482178" lon="-4.939671959728003">
        <ele>1149.4000000000001</ele>
        <time>2003-04-14T07:44:10Z</time>
      </trkpt>
      <trkpt lat="31.86224696226418" lon="-4.940104968845844">
        <ele>1148.5999999999999</ele>
        <time>2003-04-14T07:44:17Z</time>
      </trkpt>
      <trkpt lat="31.861827028915286" lon="-4.940251987427473">
        <ele>1147.2</ele>
        <time>2003-04-14T07:44:22Z</time>
      </trkpt>
      <trkpt lat="31.861699959263206" lon="-4.940402023494244">
        <ele>1149.4000000000001</ele>
        <time>2003-04-14T07:44:24Z</time>
      </trkpt>
      <trkpt lat="31.861423021182418" lon="-4.940709974616766">
        <ele>1149.3</ele>
        <time>2003-04-14T07:44:28Z</time>
      </trkpt>
      <trkpt lat="31.860982971265912" lon="-4.941056985408068">
        <ele>1149.3</ele>
        <time>2003-04-14T07:44:33Z</time>
      </trkpt>
      <trkpt lat="31.860758000984788" lon="-4.941274998709559">
        <ele>1149.5999999999999</ele>
        <time>2003-04-14T07:44:37Z</time>
      </trkpt>
      <trkpt lat="31.860524984076619" lon="-4.941492006182671">
        <ele>1149.8</ele>
        <time>2003-04-14T07:44:40Z</time>
      </trkpt>
      <trkpt lat="31.859834985807538" lon="-4.942222991958261">
        <ele>1149.8</ele>
        <time>2003-04-14T07:44:48Z</time>
      </trkpt>
      <trkpt lat="31.859167031943798" lon="-4.942937968298793">
        <ele>1148.7</ele>
        <time>2003-04-14T07:44:55Z</time>
      </trkpt>
      <trkpt lat="31.858454989269376" lon="-4.94364196434617">
        <ele>1148.4000000000001</ele>
        <time>2003-04-14T07:45:03Z</time>
      </trkpt>
      <trkpt lat="31.858122982084751" lon="-4.943932984024286">
        <ele>1146.4000000000001</ele>
        <time>2003-04-14T07:45:07Z</time>
      </trkpt>
      <trkpt lat="31.857846966013312" lon="-4.944127025082707">
        <ele>1144.5</ele>
        <time>2003-04-14T07:45:09Z</time>
      </trkpt>
      <trkpt lat="31.857700031250715" lon="-4.944310002028942">
        <ele>1144.5</ele>
        <time>2003-04-14T07:45:12Z</time>
      </trkpt>
      <trkpt lat="31.857649991288781" lon="-4.94441200979054">
        <ele>1144.2</ele>
        <time>2003-04-14T07:45:12Z</time>
      </trkpt>
      <trkpt lat="31.857623001560569" lon="-4.94451804086566">
        <ele>1144.0999999999999</ele>
        <time>2003-04-14T07:45:14Z</time>
      </trkpt>
      <trkpt lat="31.857619984075427" lon="-4.94462700560689">
        <ele>1144.0999999999999</ele>
        <time>2003-04-14T07:45:15Z</time>
      </trkpt>
      <trkpt lat="31.857619984075427" lon="-4.944896986708045">
        <ele>1146</ele>
        <time>2003-04-14T07:45:18Z</time>
      </trkpt>
      <trkpt lat="31.857644962146878" lon="-4.945092033594847">
        <ele>1146.5999999999999</ele>
        <time>2003-04-14T07:45:19Z</time>
      </trkpt>
      <trkpt lat="31.857643034309149" lon="-4.945307029411197">
        <ele>1147.9000000000001</ele>
        <time>2003-04-14T07:45:22Z</time>
      </trkpt>
      <trkpt lat="31.857601962983608" lon="-4.945531999692321">
        <ele>1148.7</ele>
        <time>2003-04-14T07:45:23Z</time>
      </trkpt>
      <trkpt lat="31.857470031827688" lon="-4.94595997966826">
        <ele>1145.5999999999999</ele>
        <time>2003-04-14T07:45:27Z</time>
      </trkpt>
      <trkpt lat="31.857399959117174" lon="-4.946037009358406">
        <ele>1144.7</ele>
        <time>2003-04-14T07:45:28Z</time>
      </trkpt>
      <trkpt lat="31.857310021296144" lon="-4.946082020178437">
        <ele>1143.7</ele>
        <time>2003-04-14T07:45:30Z</time>
      </trkpt>
      <trkpt lat="31.857212958857417" lon="-4.946112027391791">
        <ele>1143.7</ele>
        <time>2003-04-14T07:45:31Z</time>
      </trkpt>
      <trkpt lat="31.857132995501161" lon="-4.946162989363074">
        <ele>1143.0999999999999</ele>
        <time>2003-04-14T07:45:31Z</time>
      </trkpt>
      <trkpt lat="31.857062000781298" lon="-4.946240019053221">
        <ele>1142.2</ele>
        <time>2003-04-14T07:45:32Z</time>
      </trkpt>
      <trkpt lat="31.856837030500174" lon="-4.946566997095943">
        <ele>1140.2</ele>
        <time>2003-04-14T07:45:36Z</time>
      </trkpt>
      <trkpt lat="31.856797970831394" lon="-4.946715021505952">
        <ele>1140.7</ele>
        <time>2003-04-14T07:45:39Z</time>
      </trkpt>
      <trkpt lat="31.856720019131899" lon="-4.946827003732324">
        <ele>1140.2</ele>
        <time>2003-04-14T07:45:41Z</time>
      </trkpt>
      <trkpt lat="31.856620023027062" lon="-4.946842007339001">
        <ele>1139.0999999999999</ele>
        <time>2003-04-14T07:45:43Z</time>
      </trkpt>
      <trkpt lat="31.856533018872142" lon="-4.946713009849191">
        <ele>1137.5</ele>
        <time>2003-04-14T07:45:45Z</time>
      </trkpt>
      <trkpt lat="31.85648700222373" lon="-4.946574959903956">
        <ele>1138.2</ele>
        <time>2003-04-14T07:45:46Z</time>
      </trkpt>
      <trkpt lat="31.856409972533584" lon="-4.946455014869571">
        <ele>1138.3</ele>
        <time>2003-04-14T07:45:49Z</time>
      </trkpt>
      <trkpt lat="31.856322968378663" lon="-4.946342026814818">
        <ele>1137.8</ele>
        <time>2003-04-14T07:45:50Z</time>
      </trkpt>
      <trkpt lat="31.856327997520566" lon="-4.946185033768416">
        <ele>1137.3</ele>
        <time>2003-04-14T07:45:53Z</time>
      </trkpt>
      <trkpt lat="31.856309976428747" lon="-4.946047989651561">
        <ele>1136.8</ele>
        <time>2003-04-14T07:45:54Z</time>
      </trkpt>
      <trkpt lat="31.856212997809052" lon="-4.945961991325021">
        <ele>1135.9000000000001</ele>
        <time>2003-04-14T07:45:57Z</time>
      </trkpt>
      <trkpt lat="31.856092968955636" lon="-4.94593801908195">
        <ele>1136.2</ele>
        <time>2003-04-14T07:45:58Z</time>
      </trkpt>
      <trkpt lat="31.855991967022419" lon="-4.945876998826861">
        <ele>1137.7</ele>
        <time>2003-04-14T07:46:02Z</time>
      </trkpt>
      <trkpt lat="31.855875039473176" lon="-4.945868030190468">
        <ele>1137.7</ele>
        <time>2003-04-14T07:46:05Z</time>
      </trkpt>
      <trkpt lat="31.855722991749644" lon="-4.945997027680278">
        <ele>1138.2</ele>
        <time>2003-04-14T07:46:09Z</time>
      </trkpt>
      <trkpt lat="31.855632970109582" lon="-4.946077996864915">
        <ele>1138.4000000000001</ele>
        <time>2003-04-14T07:46:10Z</time>
      </trkpt>
      <trkpt lat="31.855431972071528" lon="-4.946300033479929">
        <ele>1139.2</ele>
        <time>2003-04-14T07:46:14Z</time>
      </trkpt>
      <trkpt lat="31.855357037857175" lon="-4.946470018476248">
        <ele>1139.7</ele>
        <time>2003-04-14T07:46:17Z</time>
      </trkpt>
      <trkpt lat="31.855228040367365" lon="-4.946607984602451">
        <ele>1140.7</ele>
        <time>2003-04-14T07:46:18Z</time>
      </trkpt>
      <trkpt lat="31.855101976543665" lon="-4.946732958778739">
        <ele>1142.5999999999999</ele>
        <time>2003-04-14T07:46:21Z</time>
      </trkpt>
      <trkpt lat="31.85498496517539" lon="-4.946847958490253">
        <ele>1144.5999999999999</ele>
        <time>2003-04-14T07:46:22Z</time>
      </trkpt>
      <trkpt lat="31.85468296520412" lon="-4.947096984833479">
        <ele>1146.4000000000001</ele>
        <time>2003-04-14T07:46:26Z</time>
      </trkpt>
      <trkpt lat="31.854407032951713" lon="-4.947251966223121">
        <ele>1146.7</ele>
        <time>2003-04-14T07:46:29Z</time>
      </trkpt>
      <trkpt lat="31.854151971638203" lon="-4.947392027825117">
        <ele>1146.5</ele>
        <time>2003-04-14T07:46:33Z</time>
      </trkpt>
      <trkpt lat="31.853902023285627" lon="-4.947563018649817">
        <ele>1145.3</ele>
        <time>2003-04-14T07:46:36Z</time>
      </trkpt>
      <trkpt lat="31.853809989988804" lon="-4.94763501919806">
        <ele>1145.2</ele>
        <time>2003-04-14T07:46:37Z</time>
      </trkpt>
      <trkpt lat="31.853077998384833" lon="-4.948297021910548">
        <ele>1144.0999999999999</ele>
        <time>2003-04-14T07:46:44Z</time>
      </trkpt>
      <trkpt lat="31.852965010330081" lon="-4.948482010513544">
        <ele>1145.0999999999999</ele>
        <time>2003-04-14T07:46:47Z</time>
      </trkpt>
      <trkpt lat="31.852808017283678" lon="-4.948604973033071">
        <ele>1144.2</ele>
        <time>2003-04-14T07:46:48Z</time>
      </trkpt>
      <trkpt lat="31.852726964280009" lon="-4.948673034086824">
        <ele>1144</ele>
        <time>2003-04-14T07:46:49Z</time>
      </trkpt>
      <trkpt lat="31.85266301035881" lon="-4.948770012706518">
        <ele>1144.0999999999999</ele>
        <time>2003-04-14T07:46:51Z</time>
      </trkpt>
      <trkpt lat="31.852441979572177" lon="-4.949047034606338">
        <ele>1143.5999999999999</ele>
        <time>2003-04-14T07:46:53Z</time>
      </trkpt>
      <trkpt lat="31.852235030382872" lon="-4.949272004887462">
        <ele>1143.4000000000001</ele>
        <time>2003-04-14T07:46:56Z</time>
      </trkpt>
      <trkpt lat="31.852196976542473" lon="-4.949384992942214">
        <ele>1142.9000000000001</ele>
        <time>2003-04-14T07:46:57Z</time>
      </trkpt>
      <trkpt lat="31.852036966010928" lon="-4.949729992076755">
        <ele>1142.5999999999999</ele>
        <time>2003-04-14T07:47:00Z</time>
      </trkpt>
      <trkpt lat="31.851588031277061" lon="-4.950649989768863">
        <ele>1140.7</ele>
        <time>2003-04-14T07:47:07Z</time>
      </trkpt>
      <trkpt lat="31.851445036008954" lon="-4.9509899597615">
        <ele>1141.3</ele>
        <time>2003-04-14T07:47:11Z</time>
      </trkpt>
      <trkpt lat="31.851398013532162" lon="-4.951118035241962">
        <ele>1140.9000000000001</ele>
        <time>2003-04-14T07:47:11Z</time>
      </trkpt>
      <trkpt lat="31.851334981620312" lon="-4.951233034953475">
        <ele>1141</ele>
        <time>2003-04-14T07:47:12Z</time>
      </trkpt>
      <trkpt lat="31.851177988573909" lon="-4.951596977189183">
        <ele>1140.9000000000001</ele>
        <time>2003-04-14T07:47:15Z</time>
      </trkpt>
      <trkpt lat="31.851152004674077" lon="-4.951897971332073">
        <ele>1141.3</ele>
        <time>2003-04-14T07:47:18Z</time>
      </trkpt>
      <trkpt lat="31.851107999682426" lon="-4.953034976497293">
        <ele>1139.5</ele>
        <time>2003-04-14T07:47:26Z</time>
      </trkpt>
      <trkpt lat="31.851106993854046" lon="-4.953442001715303">
        <ele>1138</ele>
        <time>2003-04-14T07:47:29Z</time>
      </trkpt>
      <trkpt lat="31.851144963875413" lon="-4.95369203388691">
        <ele>1136.9000000000001</ele>
        <time>2003-04-14T07:47:31Z</time>
      </trkpt>
      <trkpt lat="31.851195003837347" lon="-4.953803010284901">
        <ele>1136</ele>
        <time>2003-04-14T07:47:31Z</time>
      </trkpt>
      <trkpt lat="31.851242026314139" lon="-4.954029992222786">
        <ele>1135.7</ele>
        <time>2003-04-14T07:47:34Z</time>
      </trkpt>
      <trkpt lat="31.851306986063719" lon="-4.954233001917601">
        <ele>1135</ele>
        <time>2003-04-14T07:47:35Z</time>
      </trkpt>
      <trkpt lat="31.851357026025653" lon="-4.954441962763667">
        <ele>1134.4000000000001</ele>
        <time>2003-04-14T07:47:38Z</time>
      </trkpt>
      <trkpt lat="31.851367000490427" lon="-4.954667016863823">
        <ele>1133.5999999999999</ele>
        <time>2003-04-14T07:47:39Z</time>
      </trkpt>
      <trkpt lat="31.851345039904118" lon="-4.954787967726588">
        <ele>1133.4000000000001</ele>
        <time>2003-04-14T07:47:41Z</time>
      </trkpt>
      <trkpt lat="31.851274967193604" lon="-4.955019978806377">
        <ele>1133.4000000000001</ele>
        <time>2003-04-14T07:47:42Z</time>
      </trkpt>
      <trkpt lat="31.851162984967232" lon="-4.955240003764629">
        <ele>1133.7</ele>
        <time>2003-04-14T07:47:45Z</time>
      </trkpt>
      <trkpt lat="31.850991994142532" lon="-4.955457011237741">
        <ele>1133.5</ele>
        <time>2003-04-14T07:47:46Z</time>
      </trkpt>
      <trkpt lat="31.850607013329864" lon="-4.955875016748905">
        <ele>1134.0999999999999</ele>
        <time>2003-04-14T07:47:51Z</time>
      </trkpt>
      <trkpt lat="31.850522020831704" lon="-4.955966966226697">
        <ele>1134.9000000000001</ele>
        <time>2003-04-14T07:47:53Z</time>
      </trkpt>
      <trkpt lat="31.850332003086805" lon="-4.956123037263751">
        <ele>1135.7</ele>
        <time>2003-04-14T07:47:54Z</time>
      </trkpt>
      <trkpt lat="31.850248016417027" lon="-4.956220015883446">
        <ele>1136.0999999999999</ele>
        <time>2003-04-14T07:47:56Z</time>
      </trkpt>
      <trkpt lat="31.849984992295504" lon="-4.956489996984601">
        <ele>1137.9000000000001</ele>
        <time>2003-04-14T07:47:58Z</time>
      </trkpt>
      <trkpt lat="31.849394990131259" lon="-4.956912025809288">
        <ele>1138.5</ele>
        <time>2003-04-14T07:48:05Z</time>
      </trkpt>
      <trkpt lat="31.849215030670166" lon="-4.957029959186912">
        <ele>1137.7</ele>
        <time>2003-04-14T07:48:06Z</time>
      </trkpt>
      <trkpt lat="31.849147975444794" lon="-4.95713297277689">
        <ele>1138.0999999999999</ele>
        <time>2003-04-14T07:48:08Z</time>
      </trkpt>
      <trkpt lat="31.848780009895563" lon="-4.957596994936466">
        <ele>1138</ele>
        <time>2003-04-14T07:48:13Z</time>
      </trkpt>
      <trkpt lat="31.848668027669191" lon="-4.957660026848316">
        <ele>1137.8</ele>
        <time>2003-04-14T07:48:13Z</time>
      </trkpt>
      <trkpt lat="31.84849301353097" lon="-4.957794975489378">
        <ele>1138.3</ele>
        <time>2003-04-14T07:48:16Z</time>
      </trkpt>
      <trkpt lat="31.848326968029141" lon="-4.957920033484697">
        <ele>1138.2</ele>
        <time>2003-04-14T07:48:17Z</time>
      </trkpt>
      <trkpt lat="31.848254967480898" lon="-4.95801298879087">
        <ele>1137.7</ele>
        <time>2003-04-14T07:48:18Z</time>
      </trkpt>
      <trkpt lat="31.848197970539331" lon="-4.958124971017242">
        <ele>1137.7</ele>
        <time>2003-04-14T07:48:20Z</time>
      </trkpt>
      <trkpt lat="31.84812999330461" lon="-4.958214992657304">
        <ele>1138.5999999999999</ele>
        <time>2003-04-14T07:48:21Z</time>
      </trkpt>
      <trkpt lat="31.847922960296273" lon="-4.958427976816893">
        <ele>1139.7</ele>
        <time>2003-04-14T07:48:24Z</time>
      </trkpt>
      <trkpt lat="31.847396995872259" lon="-4.958825027570128">
        <ele>1139.9000000000001</ele>
        <time>2003-04-14T07:48:29Z</time>
      </trkpt>
      <trkpt lat="31.847147969529033" lon="-4.959013033658266">
        <ele>1139.5999999999999</ele>
        <time>2003-04-14T07:48:32Z</time>
      </trkpt>
      <trkpt lat="31.847064988687634" lon="-4.959071958437562">
        <ele>1139.9000000000001</ele>
        <time>2003-04-14T07:48:33Z</time>
      </trkpt>
      <trkpt lat="31.846972033381462" lon="-4.959116969257593">
        <ele>1140.2</ele>
        <time>2003-04-14T07:48:35Z</time>
      </trkpt>
      <trkpt lat="31.846795007586479" lon="-4.959228029474616">
        <ele>1140.0999999999999</ele>
        <time>2003-04-14T07:48:36Z</time>
      </trkpt>
      <trkpt lat="31.846697023138404" lon="-4.959270022809506">
        <ele>1139.8</ele>
        <time>2003-04-14T07:48:37Z</time>
      </trkpt>
      <trkpt lat="31.846254961565137" lon="-4.959462974220514">
        <ele>1137.3</ele>
        <time>2003-04-14T07:48:43Z</time>
      </trkpt>
      <trkpt lat="31.846096962690353" lon="-4.959585014730692">
        <ele>1136.2</ele>
        <time>2003-04-14T07:48:44Z</time>
      </trkpt>
      <trkpt lat="31.845932006835938" lon="-4.959712000563741">
        <ele>1137.3</ele>
        <time>2003-04-14T07:48:47Z</time>
      </trkpt>
      <trkpt lat="31.845703013241291" lon="-4.959803028032184">
        <ele>1135.8</ele>
        <time>2003-04-14T07:48:48Z</time>
      </trkpt>
      <trkpt lat="31.845488017424941" lon="-4.95990201830864">
        <ele>1135.0999999999999</ele>
        <time>2003-04-14T07:48:51Z</time>
      </trkpt>
      <trkpt lat="31.845392966642976" lon="-4.959977036342025">
        <ele>1135</ele>
        <time>2003-04-14T07:48:52Z</time>
      </trkpt>
      <trkpt lat="31.845232034102082" lon="-4.960092036053538">
        <ele>1136</ele>
        <time>2003-04-14T07:48:54Z</time>
      </trkpt>
      <trkpt lat="31.845136983320117" lon="-4.960090024396777">
        <ele>1137.2</ele>
        <time>2003-04-14T07:48:55Z</time>
      </trkpt>
      <trkpt lat="31.845036987215281" lon="-4.960066974163055">
        <ele>1137.7</ele>
        <time>2003-04-14T07:48:55Z</time>
      </trkpt>
      <trkpt lat="31.844836995005608" lon="-4.960051970556378">
        <ele>1137.0999999999999</ele>
        <time>2003-04-14T07:48:58Z</time>
      </trkpt>
      <trkpt lat="31.84475501999259" lon="-4.960109973326325">
        <ele>1136.9000000000001</ele>
        <time>2003-04-14T07:48:59Z</time>
      </trkpt>
      <trkpt lat="31.844592997804284" lon="-4.96020301245153">
        <ele>1136.9000000000001</ele>
        <time>2003-04-14T07:49:00Z</time>
      </trkpt>
      <trkpt lat="31.84449702501297" lon="-4.960184991359711">
        <ele>1136.8</ele>
        <time>2003-04-14T07:49:02Z</time>
      </trkpt>
      <trkpt lat="31.844298038631678" lon="-4.960178034380078">
        <ele>1136.7</ele>
        <time>2003-04-14T07:49:03Z</time>
      </trkpt>
      <trkpt lat="31.844214973971248" lon="-4.960239976644516">
        <ele>1136.4000000000001</ele>
        <time>2003-04-14T07:49:04Z</time>
      </trkpt>
      <trkpt lat="31.844035014510155" lon="-4.96031197719276">
        <ele>1136.5999999999999</ele>
        <time>2003-04-14T07:49:07Z</time>
      </trkpt>
      <trkpt lat="31.843937030062079" lon="-4.96031197719276">
        <ele>1136.5</ele>
        <time>2003-04-14T07:49:07Z</time>
      </trkpt>
      <trkpt lat="31.843847008422017" lon="-4.960282975807786">
        <ele>1136.4000000000001</ele>
        <time>2003-04-14T07:49:08Z</time>
      </trkpt>
      <trkpt lat="31.843757992610335" lon="-4.9602269846946">
        <ele>1136.5999999999999</ele>
        <time>2003-04-14T07:49:10Z</time>
      </trkpt>
      <trkpt lat="31.843699989840388" lon="-4.960137968882918">
        <ele>1136.7</ele>
        <time>2003-04-14T07:49:11Z</time>
      </trkpt>
      <trkpt lat="31.843582978472114" lon="-4.960003020241857">
        <ele>1137.2</ele>
        <time>2003-04-14T07:49:12Z</time>
      </trkpt>
      <trkpt lat="31.843422967940569" lon="-4.959992039948702">
        <ele>1135.8</ele>
        <time>2003-04-14T07:49:15Z</time>
      </trkpt>
      <trkpt lat="31.843303022906184" lon="-4.960105028003454">
        <ele>1137.0999999999999</ele>
        <time>2003-04-14T07:49:17Z</time>
      </trkpt>
      <trkpt lat="31.843213001266122" lon="-4.960211981087923">
        <ele>1138.5</ele>
        <time>2003-04-14T07:49:19Z</time>
      </trkpt>
      <trkpt lat="31.843111999332905" lon="-4.960279958322644">
        <ele>1139.5</ele>
        <time>2003-04-14T07:49:21Z</time>
      </trkpt>
      <trkpt lat="31.843003034591675" lon="-4.960327986627817">
        <ele>1139.5999999999999</ele>
        <time>2003-04-14T07:49:22Z</time>
      </trkpt>
      <trkpt lat="31.842852998524904" lon="-4.960369979962707">
        <ele>1141.5</ele>
        <time>2003-04-14T07:49:46Z</time>
      </trkpt>
      <trkpt lat="31.842762976884842" lon="-4.960411973297596">
        <ele>1141.4000000000001</ele>
        <time>2003-04-14T07:49:49Z</time>
      </trkpt>
      <trkpt lat="31.842332985252142" lon="-4.960629986599088">
        <ele>1139.5</ele>
        <time>2003-04-14T07:49:57Z</time>
      </trkpt>
      <trkpt lat="31.842247992753983" lon="-4.960727971047163">
        <ele>1138.4000000000001</ele>
        <time>2003-04-14T07:50:00Z</time>
      </trkpt>
      <trkpt lat="31.842084964737296" lon="-4.960904996842146">
        <ele>1137.5</ele>
        <time>2003-04-14T07:50:02Z</time>
      </trkpt>
      <trkpt lat="31.841644998639822" lon="-4.961367007344961">
        <ele>1136.5</ele>
        <time>2003-04-14T07:50:09Z</time>
      </trkpt>
      <trkpt lat="31.841292958706617" lon="-4.961761962622404">
        <ele>1135.7</ele>
        <time>2003-04-14T07:50:15Z</time>
      </trkpt>
      <trkpt lat="31.841132026165724" lon="-4.961860030889511">
        <ele>1135.2</ele>
        <time>2003-04-14T07:50:16Z</time>
      </trkpt>
      <trkpt lat="31.840304983779788" lon="-4.962297985330224">
        <ele>1133.2</ele>
        <time>2003-04-14T07:50:25Z</time>
      </trkpt>
      <trkpt lat="31.840062998235226" lon="-4.962478028610349">
        <ele>1134.0999999999999</ele>
        <time>2003-04-14T07:50:28Z</time>
      </trkpt>
      <trkpt lat="31.83994498103857" lon="-4.962609959766269">
        <ele>1133.5</ele>
        <time>2003-04-14T07:50:31Z</time>
      </trkpt>
      <trkpt lat="31.839869963005185" lon="-4.962796960026026">
        <ele>1131.0999999999999</ele>
        <time>2003-04-14T07:50:32Z</time>
      </trkpt>
      <trkpt lat="31.839799974113703" lon="-4.963086973875761">
        <ele>1130.5999999999999</ele>
        <time>2003-04-14T07:50:36Z</time>
      </trkpt>
      <trkpt lat="31.839735014364123" lon="-4.963262993842363">
        <ele>1131.7</ele>
        <time>2003-04-14T07:50:38Z</time>
      </trkpt>
      <trkpt lat="31.839635018259287" lon="-4.963419986888766">
        <ele>1133.4000000000001</ele>
        <time>2003-04-14T07:50:40Z</time>
      </trkpt>
      <trkpt lat="31.839337963610888" lon="-4.963866993784905">
        <ele>1133.9000000000001</ele>
        <time>2003-04-14T07:50:44Z</time>
      </trkpt>
      <trkpt lat="31.839049961417913" lon="-4.964206963777542">
        <ele>1133.8</ele>
        <time>2003-04-14T07:50:48Z</time>
      </trkpt>
      <trkpt lat="31.838924987241626" lon="-4.964364962652326">
        <ele>1133.7</ele>
        <time>2003-04-14T07:50:51Z</time>
      </trkpt>
      <trkpt lat="31.838683001697063" lon="-4.964645002037287">
        <ele>1133.5</ele>
        <time>2003-04-14T07:50:55Z</time>
      </trkpt>
      <trkpt lat="31.838557021692395" lon="-4.96473996900022">
        <ele>1134.3</ele>
        <time>2003-04-14T07:50:56Z</time>
      </trkpt>
      <trkpt lat="31.838468005880713" lon="-4.964869972318411">
        <ele>1134.4000000000001</ele>
        <time>2003-04-14T07:50:59Z</time>
      </trkpt>
      <trkpt lat="31.838321993127465" lon="-4.965048003941774">
        <ele>1135.5999999999999</ele>
        <time>2003-04-14T07:51:02Z</time>
      </trkpt>
      <trkpt lat="31.838206993415952" lon="-4.965187981724739">
        <ele>1135.7</ele>
        <time>2003-04-14T07:51:03Z</time>
      </trkpt>
      <trkpt lat="31.837993003427982" lon="-4.965407000854611">
        <ele>1138.3</ele>
        <time>2003-04-14T07:51:07Z</time>
      </trkpt>
      <trkpt lat="31.83790298178792" lon="-4.965527029708028">
        <ele>1138.4000000000001</ele>
        <time>2003-04-14T07:51:10Z</time>
      </trkpt>
      <trkpt lat="31.837807008996606" lon="-4.965642029419541">
        <ele>1138.9000000000001</ele>
        <time>2003-04-14T07:51:11Z</time>
      </trkpt>
      <trkpt lat="31.837662002071738" lon="-4.965831963345408">
        <ele>1139.7</ele>
        <time>2003-04-14T07:51:14Z</time>
      </trkpt>
      <trkpt lat="31.837544990703464" lon="-4.96594000607729">
        <ele>1140.4000000000001</ele>
        <time>2003-04-14T07:51:17Z</time>
      </trkpt>
      <trkpt lat="31.837453041225672" lon="-4.966075038537383">
        <ele>1141.7</ele>
        <time>2003-04-14T07:51:18Z</time>
      </trkpt>
      <trkpt lat="31.837293030694127" lon="-4.96617503464222">
        <ele>1141.5999999999999</ele>
        <time>2003-04-14T07:51:21Z</time>
      </trkpt>
      <trkpt lat="31.836933027952909" lon="-4.966321969404817">
        <ele>1140.3</ele>
        <time>2003-04-14T07:51:25Z</time>
      </trkpt>
      <trkpt lat="31.836497001349926" lon="-4.966473011299968">
        <ele>1139.3</ele>
        <time>2003-04-14T07:51:30Z</time>
      </trkpt>
      <trkpt lat="31.836357023566961" lon="-4.966464964672923">
        <ele>1139.2</ele>
        <time>2003-04-14T07:51:32Z</time>
      </trkpt>
      <trkpt lat="31.836240012198687" lon="-4.96656303294003">
        <ele>1139.0999999999999</ele>
        <time>2003-04-14T07:51:34Z</time>
      </trkpt>
      <trkpt lat="31.836158037185669" lon="-4.966709967702627">
        <ele>1139</ele>
        <time>2003-04-14T07:51:36Z</time>
      </trkpt>
      <trkpt lat="31.836008001118898" lon="-4.96682002209127">
        <ele>1139.5999999999999</ele>
        <time>2003-04-14T07:51:37Z</time>
      </trkpt>
      <trkpt lat="31.835814965888858" lon="-4.966935021802783">
        <ele>1139.3</ele>
        <time>2003-04-14T07:51:40Z</time>
      </trkpt>
      <trkpt lat="31.835520006716251" lon="-4.967142976820469">
        <ele>1138.3</ele>
        <time>2003-04-14T07:51:42Z</time>
      </trkpt>
      <trkpt lat="31.835241978988051" lon="-4.967335006222129">
        <ele>1138.4000000000001</ele>
        <time>2003-04-14T07:51:45Z</time>
      </trkpt>
      <trkpt lat="31.835033018141985" lon="-4.967389991506934">
        <ele>1137.3</ele>
        <time>2003-04-14T07:51:48Z</time>
      </trkpt>
      <trkpt lat="31.83476697653532" lon="-4.967489987611771">
        <ele>1134.4000000000001</ele>
        <time>2003-04-14T07:51:50Z</time>
      </trkpt>
      <trkpt lat="31.834672009572387" lon="-4.967657960951328">
        <ele>1134.3</ele>
        <time>2003-04-14T07:51:53Z</time>
      </trkpt>
      <trkpt lat="31.834647031500936" lon="-4.96776700951159">
        <ele>1134.2</ele>
        <time>2003-04-14T07:51:53Z</time>
      </trkpt>
      <trkpt lat="31.834558015689254" lon="-4.967927020043135">
        <ele>1134.5</ele>
        <time>2003-04-14T07:51:56Z</time>
      </trkpt>
      <trkpt lat="31.834402028471231" lon="-4.968027016147971">
        <ele>1134.5999999999999</ele>
        <time>2003-04-14T07:51:57Z</time>
      </trkpt>
      <trkpt lat="31.834312006831169" lon="-4.968061968684197">
        <ele>1133.7</ele>
        <time>2003-04-14T07:51:59Z</time>
      </trkpt>
      <trkpt lat="31.834209999069571" lon="-4.968083007261157">
        <ele>1132.9000000000001</ele>
        <time>2003-04-14T07:52:00Z</time>
      </trkpt>
      <trkpt lat="31.833782019093633" lon="-4.968160036951304">
        <ele>1130.7</ele>
        <time>2003-04-14T07:52:04Z</time>
      </trkpt>
      <trkpt lat="31.833574986085296" lon="-4.968121983110905">
        <ele>1130.5</ele>
        <time>2003-04-14T07:52:05Z</time>
      </trkpt>
      <trkpt lat="31.83328497223556" lon="-4.968079989776015">
        <ele>1130.7</ele>
        <time>2003-04-14T07:52:08Z</time>
      </trkpt>
      <trkpt lat="31.832990013062954" lon="-4.968017963692546">
        <ele>1131.7</ele>
        <time>2003-04-14T07:52:12Z</time>
      </trkpt>
      <trkpt lat="31.832349970936775" lon="-4.967692997306585">
        <ele>1131</ele>
        <time>2003-04-14T07:52:19Z</time>
      </trkpt>
      <trkpt lat="31.832176968455315" lon="-4.967598030343652">
        <ele>1131</ele>
        <time>2003-04-14T07:52:20Z</time>
      </trkpt>
      <trkpt lat="31.832072027027607" lon="-4.96757498010993">
        <ele>1131</ele>
        <time>2003-04-14T07:52:21Z</time>
      </trkpt>
      <trkpt lat="31.831859964877367" lon="-4.967495016753674">
        <ele>1130.5</ele>
        <time>2003-04-14T07:52:24Z</time>
      </trkpt>
      <trkpt lat="31.831110036000609" lon="-4.967139959335327">
        <ele>1129.5999999999999</ele>
        <time>2003-04-14T07:52:31Z</time>
      </trkpt>
      <trkpt lat="31.830811975523829" lon="-4.967012973502278">
        <ele>1130.7</ele>
        <time>2003-04-14T07:52:34Z</time>
      </trkpt>
      <trkpt lat="31.830596979707479" lon="-4.966933010146022">
        <ele>1129.9000000000001</ele>
        <time>2003-04-14T07:52:35Z</time>
      </trkpt>
      <trkpt lat="31.829985016956925" lon="-4.966760007664561">
        <ele>1131.8</ele>
        <time>2003-04-14T07:52:42Z</time>
      </trkpt>
      <trkpt lat="31.82962803170085" lon="-4.966772999614477">
        <ele>1130.4000000000001</ele>
        <time>2003-04-14T07:52:44Z</time>
      </trkpt>
      <trkpt lat="31.829399960115552" lon="-4.96677802875638">
        <ele>1130.0999999999999</ele>
        <time>2003-04-14T07:52:47Z</time>
      </trkpt>
      <trkpt lat="31.829293007031083" lon="-4.966793032363057">
        <ele>1130.2</ele>
        <time>2003-04-14T07:52:47Z</time>
      </trkpt>
      <trkpt lat="31.829102989286184" lon="-4.966771993786097">
        <ele>1130.2</ele>
        <time>2003-04-14T07:52:51Z</time>
      </trkpt>
      <trkpt lat="31.829020008444786" lon="-4.966722037643194">
        <ele>1130.2</ele>
        <time>2003-04-14T07:52:51Z</time>
      </trkpt>
      <trkpt lat="31.828717002645135" lon="-4.96654199436307">
        <ele>1130.5</ele>
        <time>2003-04-14T07:52:55Z</time>
      </trkpt>
      <trkpt lat="31.828537965193391" lon="-4.96654199436307">
        <ele>1130.5999999999999</ele>
        <time>2003-04-14T07:52:57Z</time>
      </trkpt>
      <trkpt lat="31.828194977715611" lon="-4.966579964384437">
        <ele>1129</ele>
        <time>2003-04-14T07:53:01Z</time>
      </trkpt>
      <trkpt lat="31.828030021861196" lon="-4.966639978811145">
        <ele>1128.4000000000001</ele>
        <time>2003-04-14T07:53:02Z</time>
      </trkpt>
      <trkpt lat="31.827952992171049" lon="-4.966697981581092">
        <ele>1128</ele>
        <time>2003-04-14T07:53:03Z</time>
      </trkpt>
      <trkpt lat="31.82786799967289" lon="-4.966745004057884">
        <ele>1127.8</ele>
        <time>2003-04-14T07:53:06Z</time>
      </trkpt>
      <trkpt lat="31.827700026333332" lon="-4.966802000999451">
        <ele>1127.2</ele>
        <time>2003-04-14T07:53:06Z</time>
      </trkpt>
      <trkpt lat="31.827519983053207" lon="-4.966793032363057">
        <ele>1127.7</ele>
        <time>2003-04-14T07:53:09Z</time>
      </trkpt>
      <trkpt lat="31.827328037470579" lon="-4.96682002209127">
        <ele>1127.8</ele>
        <time>2003-04-14T07:53:10Z</time>
      </trkpt>
      <trkpt lat="31.826408039778471" lon="-4.967024959623814">
        <ele>1127.0999999999999</ele>
        <time>2003-04-14T07:53:22Z</time>
      </trkpt>
      <trkpt lat="31.82619497179985" lon="-4.967074999585748">
        <ele>1125.7</ele>
        <time>2003-04-14T07:53:25Z</time>
      </trkpt>
      <trkpt lat="31.826069997623563" lon="-4.967037029564381">
        <ele>1125.5</ele>
        <time>2003-04-14T07:53:28Z</time>
      </trkpt>
      <trkpt lat="31.825697002932429" lon="-4.9669099599123">
        <ele>1124.8</ele>
        <time>2003-04-14T07:53:34Z</time>
      </trkpt>
      <trkpt lat="31.825530035421252" lon="-4.966867966577411">
        <ele>1128</ele>
        <time>2003-04-14T07:53:47Z</time>
      </trkpt>
      <trkpt lat="31.825410006567836" lon="-4.966914989054203">
        <ele>1126.9000000000001</ele>
        <time>2003-04-14T07:53:49Z</time>
      </trkpt>
      <trkpt lat="31.825267011299729" lon="-4.966981960460544">
        <ele>1126</ele>
        <time>2003-04-14T07:53:51Z</time>
      </trkpt>
      <trkpt lat="31.825146982446313" lon="-4.967050021514297">
        <ele>1125.8</ele>
        <time>2003-04-14T07:53:52Z</time>
      </trkpt>
      <trkpt lat="31.825040029361844" lon="-4.967097966000438">
        <ele>1125.7</ele>
        <time>2003-04-14T07:53:55Z</time>
      </trkpt>
      <trkpt lat="31.824927041307092" lon="-4.967026971280575">
        <ele>1125.3</ele>
        <time>2003-04-14T07:53:56Z</time>
      </trkpt>
      <trkpt lat="31.824841964989901" lon="-4.966872995719314">
        <ele>1125</ele>
        <time>2003-04-14T07:53:59Z</time>
      </trkpt>
      <trkpt lat="31.824744986370206" lon="-4.966556997969747">
        <ele>1124.8</ele>
        <time>2003-04-14T07:54:03Z</time>
      </trkpt>
      <trkpt lat="31.824665023013949" lon="-4.966439986601472">
        <ele>1124.8</ele>
        <time>2003-04-14T07:54:04Z</time>
      </trkpt>
      <trkpt lat="31.824523033574224" lon="-4.966387012973428">
        <ele>1124.7</ele>
        <time>2003-04-14T07:54:07Z</time>
      </trkpt>
      <trkpt lat="31.824422031641006" lon="-4.966343007981777">
        <ele>1124.7</ele>
        <time>2003-04-14T07:54:08Z</time>
      </trkpt>
      <trkpt lat="31.824178034439683" lon="-4.966157013550401">
        <ele>1124.7</ele>
        <time>2003-04-14T07:54:15Z</time>
      </trkpt>
      <trkpt lat="31.82408700697124" lon="-4.966088030487299">
        <ele>1125</ele>
        <time>2003-04-14T07:54:16Z</time>
      </trkpt>
      <trkpt lat="31.823984999209642" lon="-4.966042013838887">
        <ele>1124.9000000000001</ele>
        <time>2003-04-14T07:54:19Z</time>
      </trkpt>
      <trkpt lat="31.823709988966584" lon="-4.965998008847237">
        <ele>1124.0999999999999</ele>
        <time>2003-04-14T07:54:23Z</time>
      </trkpt>
      <trkpt lat="31.823575040325522" lon="-4.965976970270276">
        <ele>1124.4000000000001</ele>
        <time>2003-04-14T07:54:27Z</time>
      </trkpt>
      <trkpt lat="31.823172960430384" lon="-4.965797010809183">
        <ele>1124.3</ele>
        <time>2003-04-14T07:54:35Z</time>
      </trkpt>
      <trkpt lat="31.822940027341247" lon="-4.965667007490993">
        <ele>1123.5999999999999</ele>
        <time>2003-04-14T07:54:41Z</time>
      </trkpt>
      <trkpt lat="31.822832990437746" lon="-4.965607998892665">
        <ele>1123.5</ele>
        <time>2003-04-14T07:54:43Z</time>
      </trkpt>
      <trkpt lat="31.822686977684498" lon="-4.965519988909364">
        <ele>1123.2</ele>
        <time>2003-04-14T07:54:46Z</time>
      </trkpt>
      <trkpt lat="31.822533002123237" lon="-4.965391997247934">
        <ele>1122.5999999999999</ele>
        <time>2003-04-14T07:54:50Z</time>
      </trkpt>
      <trkpt lat="31.822507018223405" lon="-4.965283032506704">
        <ele>1122.4000000000001</ele>
        <time>2003-04-14T07:54:51Z</time>
      </trkpt>
      <trkpt lat="31.82254197075963" lon="-4.965131990611553">
        <ele>1122.4000000000001</ele>
        <time>2003-04-14T07:54:54Z</time>
      </trkpt>
      <trkpt lat="31.822595028206706" lon="-4.964899979531765">
        <ele>1123.3</ele>
        <time>2003-04-14T07:54:57Z</time>
      </trkpt>
      <trkpt lat="31.822597961872816" lon="-4.964767964556813">
        <ele>1123.5999999999999</ele>
        <time>2003-04-14T07:54:58Z</time>
      </trkpt>
      <trkpt lat="31.822587987408042" lon="-4.964399999007583">
        <ele>1123.9000000000001</ele>
        <time>2003-04-14T07:55:03Z</time>
      </trkpt>
      <trkpt lat="31.822569966316223" lon="-4.964188020676374">
        <ele>1123.9000000000001</ele>
        <time>2003-04-14T07:55:06Z</time>
      </trkpt>
      <trkpt lat="31.82245496660471" lon="-4.963317979127169">
        <ele>1124</ele>
        <time>2003-04-14T07:55:13Z</time>
      </trkpt>
      <trkpt lat="31.82239000685513" lon="-4.963232986629009">
        <ele>1124</ele>
        <time>2003-04-14T07:55:14Z</time>
      </trkpt>
      <trkpt lat="31.822220021858811" lon="-4.963057972490788">
        <ele>1124.0999999999999</ele>
        <time>2003-04-14T07:55:17Z</time>
      </trkpt>
      <trkpt lat="31.822057999670506" lon="-4.962850017473102">
        <ele>1124.5999999999999</ele>
        <time>2003-04-14T07:55:18Z</time>
      </trkpt>
      <trkpt lat="31.821585008874536" lon="-4.962187008932233">
        <ele>1124.8</ele>
        <time>2003-04-14T07:55:25Z</time>
      </trkpt>
      <trkpt lat="31.821462968364358" lon="-4.962120037525892">
        <ele>1125.0999999999999</ele>
        <time>2003-04-14T07:55:25Z</time>
      </trkpt>
      <trkpt lat="31.820980003103614" lon="-4.961803033947945">
        <ele>1127</ele>
        <time>2003-04-14T07:55:29Z</time>
      </trkpt>
      <trkpt lat="31.820497959852219" lon="-4.961358038708568">
        <ele>1126.8</ele>
        <time>2003-04-14T07:55:35Z</time>
      </trkpt>
      <trkpt lat="31.820359993726015" lon="-4.96117003262043">
        <ele>1126.2</ele>
        <time>2003-04-14T07:55:37Z</time>
      </trkpt>
      <trkpt lat="31.819787006825209" lon="-4.960307031869888">
        <ele>1123.9000000000001</ele>
        <time>2003-04-14T07:55:44Z</time>
      </trkpt>
      <trkpt lat="31.819324996322393" lon="-4.959585014730692">
        <ele>1122.5</ele>
        <time>2003-04-14T07:55:52Z</time>
      </trkpt>
      <trkpt lat="31.818738011643291" lon="-4.958665017038584">
        <ele>1120.5999999999999</ele>
        <time>2003-04-14T07:56:00Z</time>
      </trkpt>
      <trkpt lat="31.818196959793568" lon="-4.957812996581197">
        <ele>1118.7</ele>
        <time>2003-04-14T07:56:08Z</time>
      </trkpt>
      <trkpt lat="31.817630007863045" lon="-4.956925017759204">
        <ele>1116.9000000000001</ele>
        <time>2003-04-14T07:56:18Z</time>
      </trkpt>
      <trkpt lat="31.817089961841702" lon="-4.956075008958578">
        <ele>1115.0999999999999</ele>
        <time>2003-04-14T07:56:26Z</time>
      </trkpt>
      <trkpt lat="31.816538013517857" lon="-4.95519801042974">
        <ele>1113.7</ele>
        <time>2003-04-14T07:56:34Z</time>
      </trkpt>
      <trkpt lat="31.815977012738585" lon="-4.954453026875854">
        <ele>1112.3</ele>
        <time>2003-04-14T07:56:41Z</time>
      </trkpt>
      <trkpt lat="31.815247032791376" lon="-4.953751964494586">
        <ele>1110.7</ele>
        <time>2003-04-14T07:56:49Z</time>
      </trkpt>
      <trkpt lat="31.814457038417459" lon="-4.953037993982434">
        <ele>1108.7</ele>
        <time>2003-04-14T07:56:57Z</time>
      </trkpt>
      <trkpt lat="31.813660003244877" lon="-4.952304996550083">
        <ele>1106.9000000000001</ele>
        <time>2003-04-14T07:57:05Z</time>
      </trkpt>
      <trkpt lat="31.812855005264282" lon="-4.951626984402537">
        <ele>1105.5999999999999</ele>
        <time>2003-04-14T07:57:13Z</time>
      </trkpt>
      <trkpt lat="31.81261301971972" lon="-4.951511984691024">
        <ele>1105.5999999999999</ele>
        <time>2003-04-14T07:57:14Z</time>
      </trkpt>
      <trkpt lat="31.8123550247401" lon="-4.95143998414278">
        <ele>1105.7</ele>
        <time>2003-04-14T07:57:17Z</time>
      </trkpt>
      <trkpt lat="31.811999967321754" lon="-4.951412994414568">
        <ele>1105.8</ele>
        <time>2003-04-14T07:57:20Z</time>
      </trkpt>
      <trkpt lat="31.811616998165846" lon="-4.951487006619573">
        <ele>1106</ele>
        <time>2003-04-14T07:57:23Z</time>
      </trkpt>
      <trkpt lat="31.810619970783591" lon="-4.951775008812547">
        <ele>1109.4000000000001</ele>
        <time>2003-04-14T07:57:31Z</time>
      </trkpt>
      <trkpt lat="31.809707013890147" lon="-4.952027974650264">
        <ele>1113.2</ele>
        <time>2003-04-14T07:57:37Z</time>
      </trkpt>
      <trkpt lat="31.808837978169322" lon="-4.952308014035225">
        <ele>1111.2</ele>
        <time>2003-04-14T07:57:44Z</time>
      </trkpt>
      <trkpt lat="31.807901971042156" lon="-4.952732976526022">
        <ele>1108.9000000000001</ele>
        <time>2003-04-14T07:57:50Z</time>
      </trkpt>
      <trkpt lat="31.806937968358397" lon="-4.953188030049205">
        <ele>1106.9000000000001</ele>
        <time>2003-04-14T07:57:55Z</time>
      </trkpt>
      <trkpt lat="31.806055018678308" lon="-4.953592959791422">
        <ele>1104.9000000000001</ele>
        <time>2003-04-14T07:58:02Z</time>
      </trkpt>
      <trkpt lat="31.805144995450974" lon="-4.954007025808096">
        <ele>1102.9000000000001</ele>
        <time>2003-04-14T07:58:07Z</time>
      </trkpt>
      <trkpt lat="31.804279983043671" lon="-4.954386977478862">
        <ele>1102.7</ele>
        <time>2003-04-14T07:58:14Z</time>
      </trkpt>
      <trkpt lat="31.803299970924854" lon="-4.954813029617071">
        <ele>1102.7</ele>
        <time>2003-04-14T07:58:21Z</time>
      </trkpt>
      <trkpt lat="31.802333034574986" lon="-4.955242015421391">
        <ele>1102.5999999999999</ele>
        <time>2003-04-14T07:58:26Z</time>
      </trkpt>
      <trkpt lat="31.801461987197399" lon="-4.955632025375962">
        <ele>1102.5</ele>
        <time>2003-04-14T07:58:31Z</time>
      </trkpt>
      <trkpt lat="31.800472000613809" lon="-4.956062017008662">
        <ele>1102.7</ele>
        <time>2003-04-14T07:58:38Z</time>
      </trkpt>
      <trkpt lat="31.799600031226873" lon="-4.956441968679428">
        <ele>1102.4000000000001</ele>
        <time>2003-04-14T07:58:42Z</time>
      </trkpt>
      <trkpt lat="31.798656983301044" lon="-4.95685301721096">
        <ele>1101.9000000000001</ele>
        <time>2003-04-14T07:58:48Z</time>
      </trkpt>
      <trkpt lat="31.797766992822289" lon="-4.95724000968039">
        <ele>1101.5999999999999</ele>
        <time>2003-04-14T07:58:53Z</time>
      </trkpt>
      <trkpt lat="31.796882031485438" lon="-4.957628007978201">
        <ele>1101.7</ele>
        <time>2003-04-14T07:58:57Z</time>
      </trkpt>
      <trkpt lat="31.795891961082816" lon="-4.958065040409565">
        <ele>1101.7</ele>
        <time>2003-04-14T07:59:04Z</time>
      </trkpt>
      <trkpt lat="31.794897029176354" lon="-4.958496959879994">
        <ele>1101.5999999999999</ele>
        <time>2003-04-14T07:59:09Z</time>
      </trkpt>
      <trkpt lat="31.794036962091923" lon="-4.958876995369792">
        <ele>1101.7</ele>
        <time>2003-04-14T07:59:15Z</time>
      </trkpt>
      <trkpt lat="31.793143032118678" lon="-4.959264993667603">
        <ele>1101.5</ele>
        <time>2003-04-14T07:59:20Z</time>
      </trkpt>
      <trkpt lat="31.792237032204866" lon="-4.95966799557209">
        <ele>1101.2</ele>
        <time>2003-04-14T07:59:24Z</time>
      </trkpt>
      <trkpt lat="31.791336983442307" lon="-4.960058005526662">
        <ele>1101</ele>
        <time>2003-04-14T07:59:29Z</time>
      </trkpt>
      <trkpt lat="31.790397958829999" lon="-4.960469976067543">
        <ele>1099.9000000000001</ele>
        <time>2003-04-14T07:59:35Z</time>
      </trkpt>
      <trkpt lat="31.789419958367944" lon="-4.960898039862514">
        <ele>1099</ele>
        <time>2003-04-14T07:59:40Z</time>
      </trkpt>
      <trkpt lat="31.78837800398469" lon="-4.961349992081523">
        <ele>1097.9000000000001</ele>
        <time>2003-04-14T07:59:44Z</time>
      </trkpt>
      <trkpt lat="31.787533024325967" lon="-4.961721980944276">
        <ele>1096.9000000000001</ele>
        <time>2003-04-14T07:59:48Z</time>
      </trkpt>
      <trkpt lat="31.786529961973429" lon="-4.962163036689162">
        <ele>1096</ele>
        <time>2003-04-14T07:59:54Z</time>
      </trkpt>
      <trkpt lat="31.785511979833245" lon="-4.962605014443398">
        <ele>1095.3</ele>
        <time>2003-04-14T07:59:59Z</time>
      </trkpt>
      <trkpt lat="31.784492991864681" lon="-4.963052021339536">
        <ele>1094.7</ele>
        <time>2003-04-14T08:00:03Z</time>
      </trkpt>
      <trkpt lat="31.783511973917484" lon="-4.963476983830333">
        <ele>1094.0999999999999</ele>
        <time>2003-04-14T08:00:09Z</time>
      </trkpt>
      <trkpt lat="31.782560041174293" lon="-4.963955003768206">
        <ele>1093.4000000000001</ele>
        <time>2003-04-14T08:00:14Z</time>
      </trkpt>
      <trkpt lat="31.78165496326983" lon="-4.964539976790547">
        <ele>1092.8</ele>
        <time>2003-04-14T08:00:18Z</time>
      </trkpt>
      <trkpt lat="31.78075198084116" lon="-4.965122016146779">
        <ele>1092.5</ele>
        <time>2003-04-14T08:00:23Z</time>
      </trkpt>
      <trkpt lat="31.779840029776096" lon="-4.965717969462276">
        <ele>1091.9000000000001</ele>
        <time>2003-04-14T08:00:29Z</time>
      </trkpt>
      <trkpt lat="31.778890024870634" lon="-4.966334961354733">
        <ele>1091.5999999999999</ele>
        <time>2003-04-14T08:00:34Z</time>
      </trkpt>
      <trkpt lat="31.777931973338127" lon="-4.966967040672898">
        <ele>1091.7</ele>
        <time>2003-04-14T08:00:38Z</time>
      </trkpt>
      <trkpt lat="31.776981968432665" lon="-4.967580009251833">
        <ele>1091.7</ele>
        <time>2003-04-14T08:00:44Z</time>
      </trkpt>
      <trkpt lat="31.776191974058747" lon="-4.968100022524595">
        <ele>1091.2</ele>
        <time>2003-04-14T08:00:48Z</time>
      </trkpt>
      <trkpt lat="31.775226965546608" lon="-4.968724977225065">
        <ele>1090.8</ele>
        <time>2003-04-14T08:00:53Z</time>
      </trkpt>
      <trkpt lat="31.774287018924952" lon="-4.969329982995987">
        <ele>1090.3</ele>
        <time>2003-04-14T08:00:57Z</time>
      </trkpt>
      <trkpt lat="31.773353023454547" lon="-4.969940017908812">
        <ele>1089.9000000000001</ele>
        <time>2003-04-14T08:01:03Z</time>
      </trkpt>
      <trkpt lat="31.772562023252249" lon="-4.970447961241007">
        <ele>1089.3</ele>
        <time>2003-04-14T08:01:07Z</time>
      </trkpt>
      <trkpt lat="31.771585028618574" lon="-4.971084985882044">
        <ele>1088.5999999999999</ele>
        <time>2003-04-14T08:01:12Z</time>
      </trkpt>
      <trkpt lat="31.77061197347939" lon="-4.971717987209559">
        <ele>1088.2</ele>
        <time>2003-04-14T08:01:16Z</time>
      </trkpt>
      <trkpt lat="31.769817033782601" lon="-4.97223699465394">
        <ele>1087.7</ele>
        <time>2003-04-14T08:01:20Z</time>
      </trkpt>
      <trkpt lat="31.768878009170294" lon="-4.972848035395145">
        <ele>1086.7</ele>
        <time>2003-04-14T08:01:26Z</time>
      </trkpt>
      <trkpt lat="31.767892967909575" lon="-4.973486987873912">
        <ele>1084.8</ele>
        <time>2003-04-14T08:01:31Z</time>
      </trkpt>
      <trkpt lat="31.76708796992898" lon="-4.974008006975055">
        <ele>1083.0999999999999</ele>
        <time>2003-04-14T08:01:35Z</time>
      </trkpt>
      <trkpt lat="31.766296969726682" lon="-4.974521985277534">
        <ele>1082.7</ele>
        <time>2003-04-14T08:01:39Z</time>
      </trkpt>
      <trkpt lat="31.765432963147759" lon="-4.974948037415743">
        <ele>1082.4000000000001</ele>
        <time>2003-04-14T08:01:43Z</time>
      </trkpt>
      <trkpt lat="31.764550013467669" lon="-4.975293036550283">
        <ele>1081.9000000000001</ele>
        <time>2003-04-14T08:01:47Z</time>
      </trkpt>
      <trkpt lat="31.763657005503774" lon="-4.975520018488169">
        <ele>1081.5999999999999</ele>
        <time>2003-04-14T08:01:51Z</time>
      </trkpt>
      <trkpt lat="31.762550007551908" lon="-4.975742977112532">
        <ele>1080.8</ele>
        <time>2003-04-14T08:01:55Z</time>
      </trkpt>
      <trkpt lat="31.761643001809716" lon="-4.975929977372289">
        <ele>1079.9000000000001</ele>
        <time>2003-04-14T08:01:59Z</time>
      </trkpt>
      <trkpt lat="31.760544972494245" lon="-4.976152013987303">
        <ele>1078.8</ele>
        <time>2003-04-14T08:02:05Z</time>
      </trkpt>
      <trkpt lat="31.759651964530349" lon="-4.976321998983622">
        <ele>1077.7</ele>
        <time>2003-04-14T08:02:09Z</time>
      </trkpt>
      <trkpt lat="31.758628031238914" lon="-4.97653498314321">
        <ele>1076.4000000000001</ele>
        <time>2003-04-14T08:02:14Z</time>
      </trkpt>
      <trkpt lat="31.757714990526438" lon="-4.976732041686773">
        <ele>1075.5</ele>
        <time>2003-04-14T08:02:18Z</time>
      </trkpt>
      <trkpt lat="31.757215010002255" lon="-4.976937985047698">
        <ele>1074.8</ele>
        <time>2003-04-14T08:02:22Z</time>
      </trkpt>
      <trkpt lat="31.757060028612614" lon="-4.97704996727407">
        <ele>1074.5</ele>
        <time>2003-04-14T08:02:22Z</time>
      </trkpt>
      <trkpt lat="31.756782000884414" lon="-4.977336963638663">
        <ele>1074.2</ele>
        <time>2003-04-14T08:02:25Z</time>
      </trkpt>
      <trkpt lat="31.756561975926161" lon="-4.977669976651669">
        <ele>1073.5</ele>
        <time>2003-04-14T08:02:26Z</time>
      </trkpt>
      <trkpt lat="31.756401965394616" lon="-4.978053029626608">
        <ele>1073.2</ele>
        <time>2003-04-14T08:02:29Z</time>
      </trkpt>
      <trkpt lat="31.756306998431683" lon="-4.978447984904051">
        <ele>1072.8</ele>
        <time>2003-04-14T08:02:30Z</time>
      </trkpt>
      <trkpt lat="31.756291994825006" lon="-4.978644959628582">
        <ele>1072.8</ele>
        <time>2003-04-14T08:02:32Z</time>
      </trkpt>
      <trkpt lat="31.75628000870347" lon="-4.979911968111992">
        <ele>1072.0999999999999</ele>
        <time>2003-04-14T08:02:37Z</time>
      </trkpt>
      <trkpt lat="31.756267016753554" lon="-4.981085015460849">
        <ele>1074</ele>
        <time>2003-04-14T08:02:44Z</time>
      </trkpt>
      <trkpt lat="31.756195016205311" lon="-4.981656996533275">
        <ele>1073.5999999999999</ele>
        <time>2003-04-14T08:02:47Z</time>
      </trkpt>
      <trkpt lat="31.756074987351894" lon="-4.982009958475828">
        <ele>1073.7</ele>
        <time>2003-04-14T08:02:49Z</time>
      </trkpt>
      <trkpt lat="31.755882035940886" lon="-4.982361998409033">
        <ele>1073.5</ele>
        <time>2003-04-14T08:02:51Z</time>
      </trkpt>
      <trkpt lat="31.755612976849079" lon="-4.982680007815361">
        <ele>1073.5</ele>
        <time>2003-04-14T08:02:52Z</time>
      </trkpt>
      <trkpt lat="31.75529002211988" lon="-4.982932973653078">
        <ele>1073.0999999999999</ele>
        <time>2003-04-14T08:02:55Z</time>
      </trkpt>
      <trkpt lat="31.755102016031742" lon="-4.98302198946476">
        <ele>1073.2</ele>
        <time>2003-04-14T08:02:56Z</time>
      </trkpt>
      <trkpt lat="31.754038017243147" lon="-4.98338702134788">
        <ele>1072.8</ele>
        <time>2003-04-14T08:03:00Z</time>
      </trkpt>
      <trkpt lat="31.753137968480587" lon="-4.983697989955545">
        <ele>1072</ele>
        <time>2003-04-14T08:03:04Z</time>
      </trkpt>
      <trkpt lat="31.752267004922032" lon="-4.98398800380528">
        <ele>1071.7</ele>
        <time>2003-04-14T08:03:08Z</time>
      </trkpt>
      <trkpt lat="31.751347007229924" lon="-4.984181961044669">
        <ele>1071.4000000000001</ele>
        <time>2003-04-14T08:03:12Z</time>
      </trkpt>
      <trkpt lat="31.750379987061024" lon="-4.984259996563196">
        <ele>1071</ele>
        <time>2003-04-14T08:03:16Z</time>
      </trkpt>
      <trkpt lat="31.749390000477433" lon="-4.984229989349842">
        <ele>1070.3</ele>
        <time>2003-04-14T08:03:20Z</time>
      </trkpt>
      <trkpt lat="31.748404959216714" lon="-4.984190007671714">
        <ele>1069.4000000000001</ele>
        <time>2003-04-14T08:03:24Z</time>
      </trkpt>
      <trkpt lat="31.747432993724942" lon="-4.984152959659696">
        <ele>1068.7</ele>
        <time>2003-04-14T08:03:28Z</time>
      </trkpt>
      <trkpt lat="31.74646002240479" lon="-4.984108032658696">
        <ele>1067.5</ele>
        <time>2003-04-14T08:03:32Z</time>
      </trkpt>
      <trkpt lat="31.745474981144071" lon="-4.984067967161536">
        <ele>1066.7</ele>
        <time>2003-04-14T08:03:36Z</time>
      </trkpt>
      <trkpt lat="31.744452975690365" lon="-4.984024967998266">
        <ele>1065.5999999999999</ele>
        <time>2003-04-14T08:03:41Z</time>
      </trkpt>
      <trkpt lat="31.74343197606504" lon="-4.983963025733829">
        <ele>1064.8</ele>
        <time>2003-04-14T08:03:45Z</time>
      </trkpt>
      <trkpt lat="31.742407036945224" lon="-4.983896976336837">
        <ele>1064.0999999999999</ele>
        <time>2003-04-14T08:03:49Z</time>
      </trkpt>
      <trkpt lat="31.741400035098195" lon="-4.983835034072399">
        <ele>1063.7</ele>
        <time>2003-04-14T08:03:53Z</time>
      </trkpt>
      <trkpt lat="31.740392027422786" lon="-4.983766973018646">
        <ele>1063.5</ele>
        <time>2003-04-14T08:03:57Z</time>
      </trkpt>
      <trkpt lat="31.739379996433854" lon="-4.983702013269067">
        <ele>1063.2</ele>
        <time>2003-04-14T08:04:01Z</time>
      </trkpt>
      <trkpt lat="31.738362014293671" lon="-4.983639987185597">
        <ele>1062.4000000000001</ele>
        <time>2003-04-14T08:04:05Z</time>
      </trkpt>
      <trkpt lat="31.737353000789881" lon="-4.983575027436018">
        <ele>1061.3</ele>
        <time>2003-04-14T08:04:09Z</time>
      </trkpt>
      <trkpt lat="31.736382963135839" lon="-4.983507972210646">
        <ele>1060</ele>
        <time>2003-04-14T08:04:13Z</time>
      </trkpt>
      <trkpt lat="31.735447961837053" lon="-4.983454998582602">
        <ele>1059.8</ele>
        <time>2003-04-14T08:04:17Z</time>
      </trkpt>
      <trkpt lat="31.734359990805387" lon="-4.983388027176261">
        <ele>1059.0999999999999</ele>
        <time>2003-04-14T08:04:21Z</time>
      </trkpt>
      <trkpt lat="31.733522973954678" lon="-4.983411999419332">
        <ele>1058.5</ele>
        <time>2003-04-14T08:04:25Z</time>
      </trkpt>
      <trkpt lat="31.732906987890601" lon="-4.983577039092779">
        <ele>1058.0999999999999</ele>
        <time>2003-04-14T08:04:29Z</time>
      </trkpt>
      <trkpt lat="31.732514966279268" lon="-4.983772002160549">
        <ele>1058.2</ele>
        <time>2003-04-14T08:04:30Z</time>
      </trkpt>
      <trkpt lat="31.731937034055591" lon="-4.984156982973218">
        <ele>1057.7</ele>
        <time>2003-04-14T08:04:33Z</time>
      </trkpt>
      <trkpt lat="31.731196995824575" lon="-4.984795013442636">
        <ele>1058</ele>
        <time>2003-04-14T08:04:37Z</time>
      </trkpt>
      <trkpt lat="31.730442959815264" lon="-4.985421979799867">
        <ele>1057.4000000000001</ele>
        <time>2003-04-14T08:04:41Z</time>
      </trkpt>
      <trkpt lat="31.729547018185258" lon="-4.986167969182134">
        <ele>1056</ele>
        <time>2003-04-14T08:04:47Z</time>
      </trkpt>
      <trkpt lat="31.729030022397637" lon="-4.986541969701648">
        <ele>1055</ele>
        <time>2003-04-14T08:04:49Z</time>
      </trkpt>
      <trkpt lat="31.728667002171278" lon="-4.986698040738702">
        <ele>1053.9000000000001</ele>
        <time>2003-04-14T08:04:52Z</time>
      </trkpt>
      <trkpt lat="31.728268023580313" lon="-4.986789990216494">
        <ele>1052.9000000000001</ele>
        <time>2003-04-14T08:04:53Z</time>
      </trkpt>
      <trkpt lat="31.727269990369678" lon="-4.986835001036525">
        <ele>1049.5</ele>
        <time>2003-04-14T08:05:00Z</time>
      </trkpt>
      <trkpt lat="31.72628503292799" lon="-4.986887974664569">
        <ele>1050.8</ele>
        <time>2003-04-14T08:05:04Z</time>
      </trkpt>
      <trkpt lat="31.725687989965081" lon="-4.986862996593118">
        <ele>1053</ele>
        <time>2003-04-14T08:05:07Z</time>
      </trkpt>
      <trkpt lat="31.725308038294315" lon="-4.986761994659901">
        <ele>1054.9000000000001</ele>
        <time>2003-04-14T08:05:10Z</time>
      </trkpt>
      <trkpt lat="31.724930014461279" lon="-4.986578011885285">
        <ele>1054.8</ele>
        <time>2003-04-14T08:05:11Z</time>
      </trkpt>
      <trkpt lat="31.724560037255287" lon="-4.986326973885298">
        <ele>1054.5</ele>
        <time>2003-04-14T08:05:14Z</time>
      </trkpt>
      <trkpt lat="31.723812036216259" lon="-4.98570797033608">
        <ele>1053.8</ele>
        <time>2003-04-14T08:05:18Z</time>
      </trkpt>
      <trkpt lat="31.723050037398934" lon="-4.985076980665326">
        <ele>1052.8</ele>
        <time>2003-04-14T08:05:22Z</time>
      </trkpt>
      <trkpt lat="31.722168009728193" lon="-4.984347000718117">
        <ele>1050.8</ele>
        <time>2003-04-14T08:05:27Z</time>
      </trkpt>
      <trkpt lat="31.721320012584329" lon="-4.983652979135513">
        <ele>1048.7</ele>
        <time>2003-04-14T08:05:31Z</time>
      </trkpt>
      <trkpt lat="31.720549967139959" lon="-4.98304202221334">
        <ele>1050.0999999999999</ele>
        <time>2003-04-14T08:05:37Z</time>
      </trkpt>
      <trkpt lat="31.720183007419109" lon="-4.982852004468441">
        <ele>1050.2</ele>
        <time>2003-04-14T08:05:38Z</time>
      </trkpt>
      <trkpt lat="31.719169970601797" lon="-4.982412960380316">
        <ele>1049.7</ele>
        <time>2003-04-14T08:05:43Z</time>
      </trkpt>
      <trkpt lat="31.718303030356765" lon="-4.982159994542599">
        <ele>1048.7</ele>
        <time>2003-04-14T08:05:47Z</time>
      </trkpt>
      <trkpt lat="31.717237019911408" lon="-4.981963019818068">
        <ele>1048.0999999999999</ele>
        <time>2003-04-14T08:05:53Z</time>
      </trkpt>
      <trkpt lat="31.716279974207282" lon="-4.981769984588027">
        <ele>1047.0999999999999</ele>
        <time>2003-04-14T08:05:58Z</time>
      </trkpt>
      <trkpt lat="31.715301973745227" lon="-4.981588013470173">
        <ele>1046.0999999999999</ele>
        <time>2003-04-14T08:06:02Z</time>
      </trkpt>
      <trkpt lat="31.714269993826747" lon="-4.981396989896894">
        <ele>1045.4000000000001</ele>
        <time>2003-04-14T08:06:09Z</time>
      </trkpt>
      <trkpt lat="31.713304985314608" lon="-4.981222981587052">
        <ele>1044.8</ele>
        <time>2003-04-14T08:06:14Z</time>
      </trkpt>
      <trkpt lat="31.712556984275579" lon="-4.981007985770702">
        <ele>1045.0999999999999</ele>
        <time>2003-04-14T08:06:20Z</time>
      </trkpt>
      <trkpt lat="31.712002018466592" lon="-4.980672039091587">
        <ele>1044.8</ele>
        <time>2003-04-14T08:06:24Z</time>
      </trkpt>
      <trkpt lat="31.711832033470273" lon="-4.980527032166719">
        <ele>1044.7</ele>
        <time>2003-04-14T08:06:25Z</time>
      </trkpt>
      <trkpt lat="31.711704963818192" lon="-4.980410020798445">
        <ele>1044.4000000000001</ele>
        <time>2003-04-14T08:06:28Z</time>
      </trkpt>
      <trkpt lat="31.711597004905343" lon="-4.980307007208467">
        <ele>1044.3</ele>
        <time>2003-04-14T08:06:29Z</time>
      </trkpt>
      <trkpt lat="31.710901977494359" lon="-4.979637041687965">
        <ele>1044.5</ele>
        <time>2003-04-14T08:06:40Z</time>
      </trkpt>
      <trkpt lat="31.710362015292048" lon="-4.979128008708358">
        <ele>1044.4000000000001</ele>
        <time>2003-04-14T08:06:48Z</time>
      </trkpt>
      <trkpt lat="31.709732031449676" lon="-4.978592991828919">
        <ele>1044.4000000000001</ele>
        <time>2003-04-14T08:06:55Z</time>
      </trkpt>
      <trkpt lat="31.709406981244683" lon="-4.978428035974503">
        <ele>1044.4000000000001</ele>
        <time>2003-04-14T08:06:58Z</time>
      </trkpt>
      <trkpt lat="31.70888202264905" lon="-4.978310018777847">
        <ele>1044</ele>
        <time>2003-04-14T08:07:02Z</time>
      </trkpt>
      <trkpt lat="31.707993037998676" lon="-4.978117989376187">
        <ele>1043.2</ele>
        <time>2003-04-14T08:07:07Z</time>
      </trkpt>
      <trkpt lat="31.707102963700891" lon="-4.977914979681373">
        <ele>1044.0999999999999</ele>
        <time>2003-04-14T08:07:14Z</time>
      </trkpt>
      <trkpt lat="31.706187995150685" lon="-4.977707024663687">
        <ele>1044.2</ele>
        <time>2003-04-14T08:07:19Z</time>
      </trkpt>
      <trkpt lat="31.705202031880617" lon="-4.97747803106904">
        <ele>1044.5</ele>
        <time>2003-04-14T08:07:26Z</time>
      </trkpt>
      <trkpt lat="31.704252026975155" lon="-4.977260017767549">
        <ele>1044.8</ele>
        <time>2003-04-14T08:07:31Z</time>
      </trkpt>
      <trkpt lat="31.703364970162511" lon="-4.977067988365889">
        <ele>1044.3</ele>
        <time>2003-04-14T08:07:38Z</time>
      </trkpt>
      <trkpt lat="31.702404990792274" lon="-4.976845029741526">
        <ele>1043.8</ele>
        <time>2003-04-14T08:07:45Z</time>
      </trkpt>
      <trkpt lat="31.701509971171618" lon="-4.976643025875092">
        <ele>1043.8</ele>
        <time>2003-04-14T08:07:52Z</time>
      </trkpt>
      <trkpt lat="31.700885016471148" lon="-4.976495001465082">
        <ele>1043.4000000000001</ele>
        <time>2003-04-14T08:07:57Z</time>
      </trkpt>
      <trkpt lat="31.700317980721593" lon="-4.976372038945556">
        <ele>1042.9000000000001</ele>
        <time>2003-04-14T08:08:04Z</time>
      </trkpt>
      <trkpt lat="31.699907016009092" lon="-4.976246980950236">
        <ele>1042</ele>
        <time>2003-04-14T08:08:09Z</time>
      </trkpt>
      <trkpt lat="31.699767960235476" lon="-4.976161988452077">
        <ele>1041.8</ele>
        <time>2003-04-14T08:08:11Z</time>
      </trkpt>
      <trkpt lat="31.699647009372711" lon="-4.976042965427041">
        <ele>1041.5999999999999</ele>
        <time>2003-04-14T08:08:13Z</time>
      </trkpt>
      <trkpt lat="31.699539972469211" lon="-4.975895024836063">
        <ele>1041.0999999999999</ele>
        <time>2003-04-14T08:08:15Z</time>
      </trkpt>
      <trkpt lat="31.699456991627812" lon="-4.975733002647758">
        <ele>1040.7</ele>
        <time>2003-04-14T08:08:16Z</time>
      </trkpt>
      <trkpt lat="31.69940703548491" lon="-4.975554971024394">
        <ele>1040.3</ele>
        <time>2003-04-14T08:08:19Z</time>
      </trkpt>
      <trkpt lat="31.699379961937666" lon="-4.97537299990654">
        <ele>1040.0999999999999</ele>
        <time>2003-04-14T08:08:20Z</time>
      </trkpt>
      <trkpt lat="31.699378034099936" lon="-4.97517803683877">
        <ele>1039.8</ele>
        <time>2003-04-14T08:08:23Z</time>
      </trkpt>
      <trkpt lat="31.699403012171388" lon="-4.974057963117957">
        <ele>1039.5</ele>
        <time>2003-04-14T08:08:33Z</time>
      </trkpt>
      <trkpt lat="31.699505019932985" lon="-4.972906960174441">
        <ele>1039.8</ele>
        <time>2003-04-14T08:08:44Z</time>
      </trkpt>
      <trkpt lat="31.699605016037822" lon="-4.971831981092691">
        <ele>1040.5</ele>
        <time>2003-04-14T08:08:55Z</time>
      </trkpt>
      <trkpt lat="31.699756979942322" lon="-4.970706962049007">
        <ele>1040.4000000000001</ele>
        <time>2003-04-14T08:09:06Z</time>
      </trkpt>
      <trkpt lat="31.699842978268862" lon="-4.970268001779914">
        <ele>1040</ele>
        <time>2003-04-14T08:09:10Z</time>
      </trkpt>
      <trkpt lat="31.699959989637136" lon="-4.969642963260412">
        <ele>1038.9000000000001</ele>
        <time>2003-04-14T08:09:15Z</time>
      </trkpt>
      <trkpt lat="31.699977004900575" lon="-4.969467027112842">
        <ele>1039</ele>
        <time>2003-04-14T08:09:18Z</time>
      </trkpt>
      <trkpt lat="31.69992302544415" lon="-4.96931497938931">
        <ele>1039.3</ele>
        <time>2003-04-14T08:09:19Z</time>
      </trkpt>
      <trkpt lat="31.699801990762353" lon="-4.969218000769615">
        <ele>1039.5</ele>
        <time>2003-04-14T08:09:22Z</time>
      </trkpt>
      <trkpt lat="31.69964499771595" lon="-4.969152035191655">
        <ele>1039.7</ele>
        <time>2003-04-14T08:09:23Z</time>
      </trkpt>
      <trkpt lat="31.699436958879232" lon="-4.969052039086819">
        <ele>1039.7</ele>
        <time>2003-04-14T08:09:26Z</time>
      </trkpt>
      <trkpt lat="31.699324976652861" lon="-4.968909965828061">
        <ele>1039.5999999999999</ele>
        <time>2003-04-14T08:09:29Z</time>
      </trkpt>
      <trkpt lat="31.699256999418139" lon="-4.968748027458787">
        <ele>1039.2</ele>
        <time>2003-04-14T08:09:30Z</time>
      </trkpt>
      <trkpt lat="31.699233027175069" lon="-4.968560021370649">
        <ele>1039.5999999999999</ele>
        <time>2003-04-14T08:09:33Z</time>
      </trkpt>
      <trkpt lat="31.699254987761378" lon="-4.968457007780671">
        <ele>1039.8</ele>
        <time>2003-04-14T08:09:34Z</time>
      </trkpt>
      <trkpt lat="31.699363030493259" lon="-4.968134975060821">
        <ele>1040.3</ele>
        <time>2003-04-14T08:09:37Z</time>
      </trkpt>
      <trkpt lat="31.699465038254857" lon="-4.967834986746311">
        <ele>1040.7</ele>
        <time>2003-04-14T08:09:40Z</time>
      </trkpt>
      <trkpt lat="31.699469983577728" lon="-4.967723004519939">
        <ele>1040.8</ele>
        <time>2003-04-14T08:09:41Z</time>
      </trkpt>
      <trkpt lat="31.699460009112954" lon="-4.967604987323284">
        <ele>1040.9000000000001</ele>
        <time>2003-04-14T08:09:41Z</time>
      </trkpt>
      <trkpt lat="31.699384991079569" lon="-4.967253031209111">
        <ele>1041.4000000000001</ele>
        <time>2003-04-14T08:09:45Z</time>
      </trkpt>
      <trkpt lat="31.699296981096268" lon="-4.967065025120974">
        <ele>1040.9000000000001</ele>
        <time>2003-04-14T08:09:46Z</time>
      </trkpt>
      <trkpt lat="31.699217017740011" lon="-4.96695002540946">
        <ele>1040.7</ele>
        <time>2003-04-14T08:09:49Z</time>
      </trkpt>
      <trkpt lat="31.698954999446869" lon="-4.966657999902964">
        <ele>1040.3</ele>
        <time>2003-04-14T08:09:53Z</time>
      </trkpt>
      <trkpt lat="31.698781996965408" lon="-4.966439986601472">
        <ele>1039.9000000000001</ele>
        <time>2003-04-14T08:09:57Z</time>
      </trkpt>
      <trkpt lat="31.698688035830855" lon="-4.966272013261914">
        <ele>1039.5</ele>
        <time>2003-04-14T08:09:59Z</time>
      </trkpt>
      <trkpt lat="31.698610000312328" lon="-4.966057017445564">
        <ele>1039.2</ele>
        <time>2003-04-14T08:10:01Z</time>
      </trkpt>
      <trkpt lat="31.698528025299311" lon="-4.965670024976134">
        <ele>1038.4000000000001</ele>
        <time>2003-04-14T08:10:04Z</time>
      </trkpt>
      <trkpt lat="31.698389975354075" lon="-4.965052027255297">
        <ele>1037.5999999999999</ele>
        <time>2003-04-14T08:10:08Z</time>
      </trkpt>
      <trkpt lat="31.698165005072951" lon="-4.964292040094733">
        <ele>1036.9000000000001</ele>
        <time>2003-04-14T08:10:12Z</time>
      </trkpt>
      <trkpt lat="31.698017986491323" lon="-4.964033039286733">
        <ele>1037</ele>
        <time>2003-04-14T08:10:15Z</time>
      </trkpt>
      <trkpt lat="31.697652032598853" lon="-4.963308004662395">
        <ele>1036.5999999999999</ele>
        <time>2003-04-14T08:10:20Z</time>
      </trkpt>
      <trkpt lat="31.697595035657287" lon="-4.963035006076098">
        <ele>1036.4000000000001</ele>
        <time>2003-04-14T08:10:23Z</time>
      </trkpt>
      <trkpt lat="31.697593024000525" lon="-4.962759995833039">
        <ele>1036.2</ele>
        <time>2003-04-14T08:10:24Z</time>
      </trkpt>
      <trkpt lat="31.697639962658286" lon="-4.962499989196658">
        <ele>1036.3</ele>
        <time>2003-04-14T08:10:27Z</time>
      </trkpt>
      <trkpt lat="31.697914972901344" lon="-4.961472032591701">
        <ele>1035.9000000000001</ele>
        <time>2003-04-14T08:10:34Z</time>
      </trkpt>
      <trkpt lat="31.697935005649924" lon="-4.961137007921934">
        <ele>1035.8</ele>
        <time>2003-04-14T08:10:35Z</time>
      </trkpt>
      <trkpt lat="31.697914972901344" lon="-4.960961993783712">
        <ele>1036.0999999999999</ele>
        <time>2003-04-14T08:10:36Z</time>
      </trkpt>
      <trkpt lat="31.697741970419884" lon="-4.960015006363392">
        <ele>1035.9000000000001</ele>
        <time>2003-04-14T08:10:43Z</time>
      </trkpt>
      <trkpt lat="31.697593024000525" lon="-4.959509996697307">
        <ele>1035.8</ele>
        <time>2003-04-14T08:10:47Z</time>
      </trkpt>
      <trkpt lat="31.697448017075658" lon="-4.959261976182461">
        <ele>1035.5999999999999</ele>
        <time>2003-04-14T08:10:48Z</time>
      </trkpt>
      <trkpt lat="31.697207037359476" lon="-4.958938015624881">
        <ele>1035.7</ele>
        <time>2003-04-14T08:10:51Z</time>
      </trkpt>
      <trkpt lat="31.696577975526452" lon="-4.958117008209229">
        <ele>1035.2</ele>
        <time>2003-04-14T08:10:59Z</time>
      </trkpt>
      <trkpt lat="31.695985039696097" lon="-4.957259958609939">
        <ele>1034.8</ele>
        <time>2003-04-14T08:11:06Z</time>
      </trkpt>
      <trkpt lat="31.69554297812283" lon="-4.956602985039353">
        <ele>1033.0999999999999</ele>
        <time>2003-04-14T08:11:13Z</time>
      </trkpt>
      <trkpt lat="31.695281965658069" lon="-4.956262009218335">
        <ele>1032.2</ele>
        <time>2003-04-14T08:11:17Z</time>
      </trkpt>
      <trkpt lat="31.695193033665419" lon="-4.956137035042048">
        <ele>1031.8</ele>
        <time>2003-04-14T08:11:18Z</time>
      </trkpt>
      <trkpt lat="31.695007961243391" lon="-4.955922039225698">
        <ele>1031.4000000000001</ele>
        <time>2003-04-14T08:11:22Z</time>
      </trkpt>
      <trkpt lat="31.69491701759398" lon="-4.955815002322197">
        <ele>1030.9000000000001</ele>
        <time>2003-04-14T08:11:25Z</time>
      </trkpt>
      <trkpt lat="31.694843005388975" lon="-4.955727998167276">
        <ele>1031.2</ele>
        <time>2003-04-14T08:11:29Z</time>
      </trkpt>
      <trkpt lat="31.694754995405674" lon="-4.955637976527214">
        <ele>1029.5999999999999</ele>
        <time>2003-04-14T08:11:44Z</time>
      </trkpt>
      <trkpt lat="31.694585010409355" lon="-4.955409988760948">
        <ele>1029.0999999999999</ele>
        <time>2003-04-14T08:11:49Z</time>
      </trkpt>
      <trkpt lat="31.694406978785992" lon="-4.955170014873147">
        <ele>1028.9000000000001</ele>
        <time>2003-04-14T08:11:52Z</time>
      </trkpt>
      <trkpt lat="31.693883026018739" lon="-4.954407010227442">
        <ele>1029.5999999999999</ele>
        <time>2003-04-14T08:12:04Z</time>
      </trkpt>
      <trkpt lat="31.693511959165335" lon="-4.953745007514954">
        <ele>1029.0999999999999</ele>
        <time>2003-04-14T08:12:14Z</time>
      </trkpt>
      <trkpt lat="31.693269973620772" lon="-4.953407971188426">
        <ele>1028.8</ele>
        <time>2003-04-14T08:12:19Z</time>
      </trkpt>
      <trkpt lat="31.692965039983392" lon="-4.952979991212487">
        <ele>1028.5</ele>
        <time>2003-04-14T08:12:26Z</time>
      </trkpt>
      <trkpt lat="31.692881975322962" lon="-4.952867003157735">
        <ele>1028.5999999999999</ele>
        <time>2003-04-14T08:12:28Z</time>
      </trkpt>
      <trkpt lat="31.692775022238493" lon="-4.952806988731027">
        <ele>1028.5999999999999</ele>
        <time>2003-04-14T08:12:32Z</time>
      </trkpt>
      <trkpt lat="31.692652981728315" lon="-4.952832972630858">
        <ele>1028.7</ele>
        <time>2003-04-14T08:12:35Z</time>
      </trkpt>
      <trkpt lat="31.69253203086555" lon="-4.952932968735695">
        <ele>1028.8</ele>
        <time>2003-04-14T08:12:36Z</time>
      </trkpt>
      <trkpt lat="31.692277975380421" lon="-4.953160034492612">
        <ele>1028.8</ele>
        <time>2003-04-14T08:12:41Z</time>
      </trkpt>
      <trkpt lat="31.6915019787848" lon="-4.953805021941662">
        <ele>1029.5</ele>
        <time>2003-04-14T08:12:53Z</time>
      </trkpt>
      <trkpt lat="31.690726988017559" lon="-4.954450009390712">
        <ele>1029.4000000000001</ele>
        <time>2003-04-14T08:13:02Z</time>
      </trkpt>
      <trkpt lat="31.689931964501739" lon="-4.955115029588342">
        <ele>1029.5999999999999</ele>
        <time>2003-04-14T08:13:13Z</time>
      </trkpt>
      <trkpt lat="31.689122021198273" lon="-4.955788012593985">
        <ele>1029.8</ele>
        <time>2003-04-14T08:13:22Z</time>
      </trkpt>
      <trkpt lat="31.68830000795424" lon="-4.956477005034685">
        <ele>1028.9000000000001</ele>
        <time>2003-04-14T08:13:33Z</time>
      </trkpt>
      <trkpt lat="31.687487969174981" lon="-4.957162979990244">
        <ele>1028.5999999999999</ele>
        <time>2003-04-14T08:13:40Z</time>
      </trkpt>
      <trkpt lat="31.686672996729612" lon="-4.957848032936454">
        <ele>1028.9000000000001</ele>
        <time>2003-04-14T08:13:48Z</time>
      </trkpt>
      <trkpt lat="31.686341995373368" lon="-4.958137040957809">
        <ele>1029.5</ele>
        <time>2003-04-14T08:13:52Z</time>
      </trkpt>
      <trkpt lat="31.686124987900257" lon="-4.958317000418901">
        <ele>1029.7</ele>
        <time>2003-04-14T08:13:56Z</time>
      </trkpt>
      <trkpt lat="31.686021974310279" lon="-4.958407022058964">
        <ele>1029.9000000000001</ele>
        <time>2003-04-14T08:13:57Z</time>
      </trkpt>
      <trkpt lat="31.685521993786097" lon="-4.958816980943084">
        <ele>1029.7</ele>
        <time>2003-04-14T08:14:06Z</time>
      </trkpt>
      <trkpt lat="31.684787990525365" lon="-4.95943003334105">
        <ele>1030</ele>
        <time>2003-04-14T08:14:15Z</time>
      </trkpt>
      <trkpt lat="31.684181978926063" lon="-4.959947029128671">
        <ele>1030.5</ele>
        <time>2003-04-14T08:14:23Z</time>
      </trkpt>
      <trkpt lat="31.683385027572513" lon="-4.960616994649172">
        <ele>1031</ele>
        <time>2003-04-14T08:14:31Z</time>
      </trkpt>
      <trkpt lat="31.68262998573482" lon="-4.961257958784699">
        <ele>1030.7</ele>
        <time>2003-04-14T08:14:38Z</time>
      </trkpt>
      <trkpt lat="31.681867986917496" lon="-4.961902024224401">
        <ele>1029.8</ele>
        <time>2003-04-14T08:14:43Z</time>
      </trkpt>
      <trkpt lat="31.681065000593662" lon="-4.962557991966605">
        <ele>1029.3</ele>
        <time>2003-04-14T08:14:50Z</time>
      </trkpt>
      <trkpt lat="31.6802669595927" lon="-4.96317196637392">
        <ele>1028.8</ele>
        <time>2003-04-14T08:14:54Z</time>
      </trkpt>
      <trkpt lat="31.679355008527637" lon="-4.963782001286745">
        <ele>1029.3</ele>
        <time>2003-04-14T08:15:00Z</time>
      </trkpt>
      <trkpt lat="31.678378013893962" lon="-4.964358005672693">
        <ele>1029.5</ele>
        <time>2003-04-14T08:15:05Z</time>
      </trkpt>
      <trkpt lat="31.677366988733411" lon="-4.964854968711734">
        <ele>1028.4000000000001</ele>
        <time>2003-04-14T08:15:09Z</time>
      </trkpt>
      <trkpt lat="31.676341965794563" lon="-4.965272974222899">
        <ele>1027.5999999999999</ele>
        <time>2003-04-14T08:15:14Z</time>
      </trkpt>
      <trkpt lat="31.675267992541194" lon="-4.965643035247922">
        <ele>1026.5999999999999</ele>
        <time>2003-04-14T08:15:20Z</time>
      </trkpt>
      <trkpt lat="31.674341959878802" lon="-4.965889966115356">
        <ele>1025.8</ele>
        <time>2003-04-14T08:15:24Z</time>
      </trkpt>
      <trkpt lat="31.673384997993708" lon="-4.966147961094976">
        <ele>1025.3</ele>
        <time>2003-04-14T08:15:28Z</time>
      </trkpt>
      <trkpt lat="31.672389982268214" lon="-4.966415008530021">
        <ele>1025.0999999999999</ele>
        <time>2003-04-14T08:15:32Z</time>
      </trkpt>
      <trkpt lat="31.671364959329367" lon="-4.966681972146034">
        <ele>1024.4000000000001</ele>
        <time>2003-04-14T08:15:36Z</time>
      </trkpt>
      <trkpt lat="31.670340020209551" lon="-4.966959999874234">
        <ele>1023.7</ele>
        <time>2003-04-14T08:15:40Z</time>
      </trkpt>
      <trkpt lat="31.669305022805929" lon="-4.967237021774054">
        <ele>1022.9</ele>
        <time>2003-04-14T08:15:44Z</time>
      </trkpt>
      <trkpt lat="31.66825502179563" lon="-4.967522006481886">
        <ele>1022.3</ele>
        <time>2003-04-14T08:15:48Z</time>
      </trkpt>
      <trkpt lat="31.667197979986668" lon="-4.967798022553325">
        <ele>1021.8</ele>
        <time>2003-04-14T08:15:52Z</time>
      </trkpt>
      <trkpt lat="31.666113026440144" lon="-4.968089964240789">
        <ele>1021.1</ele>
        <time>2003-04-14T08:15:55Z</time>
      </trkpt>
      <trkpt lat="31.66500804014504" lon="-4.968388024717569">
        <ele>1021.2</ele>
        <time>2003-04-14T08:15:59Z</time>
      </trkpt>
      <trkpt lat="31.663886960595846" lon="-4.968682983890176">
        <ele>1021.9</ele>
        <time>2003-04-14T08:16:03Z</time>
      </trkpt>
      <trkpt lat="31.662724977359176" lon="-4.968924969434738">
        <ele>1022.1</ele>
        <time>2003-04-14T08:16:07Z</time>
      </trkpt>
      <trkpt lat="31.661827024072409" lon="-4.96905698440969">
        <ele>1021.7</ele>
        <time>2003-04-14T08:16:11Z</time>
      </trkpt>
      <trkpt lat="31.660924963653088" lon="-4.969178019091487">
        <ele>1021.3</ele>
        <time>2003-04-14T08:16:14Z</time>
      </trkpt>
      <trkpt lat="31.659783013164997" lon="-4.969340041279793">
        <ele>1020.5</ele>
        <time>2003-04-14T08:16:18Z</time>
      </trkpt>
      <trkpt lat="31.65873502381146" lon="-4.969516983255744">
        <ele>1020.5</ele>
        <time>2003-04-14T08:16:22Z</time>
      </trkpt>
      <trkpt lat="31.657717041671276" lon="-4.969812026247382">
        <ele>1020.4</ele>
        <time>2003-04-14T08:16:26Z</time>
      </trkpt>
      <trkpt lat="31.656729988753796" lon="-4.970264984294772">
        <ele>1020.5</ele>
        <time>2003-04-14T08:16:30Z</time>
      </trkpt>
      <trkpt lat="31.655819965526462" lon="-4.970788015052676">
        <ele>1020.7</ele>
        <time>2003-04-14T08:16:34Z</time>
      </trkpt>
      <trkpt lat="31.654902985319495" lon="-4.971299981698394">
        <ele>1020.7</ele>
        <time>2003-04-14T08:16:38Z</time>
      </trkpt>
      <trkpt lat="31.653957003727555" lon="-4.971797028556466">
        <ele>1020.3</ele>
        <time>2003-04-14T08:16:42Z</time>
      </trkpt>
      <trkpt lat="31.652938015758991" lon="-4.972179997712374">
        <ele>1019.9</ele>
        <time>2003-04-14T08:16:46Z</time>
      </trkpt>
      <trkpt lat="31.6518600191921" lon="-4.972434975206852">
        <ele>1018.8</ele>
        <time>2003-04-14T08:16:49Z</time>
      </trkpt>
      <trkpt lat="31.650740029290318" lon="-4.972664974629879">
        <ele>1017.8</ele>
        <time>2003-04-14T08:16:53Z</time>
      </trkpt>
      <trkpt lat="31.649596989154816" lon="-4.972911989316344">
        <ele>1016.7</ele>
        <time>2003-04-14T08:16:57Z</time>
      </trkpt>
      <trkpt lat="31.648420002311468" lon="-4.973156992346048">
        <ele>1015.4</ele>
        <time>2003-04-14T08:17:01Z</time>
      </trkpt>
      <trkpt lat="31.647528000175953" lon="-4.973341980949044">
        <ele>1015.7</ele>
        <time>2003-04-14T08:17:05Z</time>
      </trkpt>
      <trkpt lat="31.646642033010721" lon="-4.973537027835846">
        <ele>1016.4</ele>
        <time>2003-04-14T08:17:08Z</time>
      </trkpt>
      <trkpt lat="31.645533023402095" lon="-4.973769960924983">
        <ele>1017.2</ele>
        <time>2003-04-14T08:17:12Z</time>
      </trkpt>
      <trkpt lat="31.64442996494472" lon="-4.974010018631816">
        <ele>1017.8</ele>
        <time>2003-04-14T08:17:16Z</time>
      </trkpt>
      <trkpt lat="31.64337501861155" lon="-4.97423498891294">
        <ele>1018.3</ele>
        <time>2003-04-14T08:17:20Z</time>
      </trkpt>
      <trkpt lat="31.642298027873039" lon="-4.974458031356335">
        <ele>1018.5</ele>
        <time>2003-04-14T08:17:24Z</time>
      </trkpt>
      <trkpt lat="31.641207961365581" lon="-4.974694987758994">
        <ele>1019</ele>
        <time>2003-04-14T08:17:28Z</time>
      </trkpt>
      <trkpt lat="31.64015200920403" lon="-4.974930016323924">
        <ele>1018.6</ele>
        <time>2003-04-14T08:17:32Z</time>
      </trkpt>
      <trkpt lat="31.639067977666855" lon="-4.975241990759969">
        <ele>1018.4</ele>
        <time>2003-04-14T08:17:36Z</time>
      </trkpt>
      <trkpt lat="31.637970032170415" lon="-4.975610040128231">
        <ele>1018.2</ele>
        <time>2003-04-14T08:17:40Z</time>
      </trkpt>
      <trkpt lat="31.636860016733408" lon="-4.976032990962267">
        <ele>1017.7</ele>
        <time>2003-04-14T08:17:44Z</time>
      </trkpt>
      <trkpt lat="31.63577196188271" lon="-4.976449990645051">
        <ele>1017.5</ele>
        <time>2003-04-14T08:17:48Z</time>
      </trkpt>
      <trkpt lat="31.634667981415987" lon="-4.976861961185932">
        <ele>1017.6</ele>
        <time>2003-04-14T08:17:52Z</time>
      </trkpt>
      <trkpt lat="31.633561989292502" lon="-4.977282984182239">
        <ele>1017.1</ele>
        <time>2003-04-14T08:17:56Z</time>
      </trkpt>
      <trkpt lat="31.632437976077199" lon="-4.977701995521784">
        <ele>1016.3</ele>
        <time>2003-04-14T08:18:00Z</time>
      </trkpt>
      <trkpt lat="31.631307005882263" lon="-4.978127963840962">
        <ele>1016.7</ele>
        <time>2003-04-14T08:18:05Z</time>
      </trkpt>
      <trkpt lat="31.630448028445244" lon="-4.978455025702715">
        <ele>1016.8</ele>
        <time>2003-04-14T08:18:07Z</time>
      </trkpt>
      <trkpt lat="31.629583016037941" lon="-4.978773035109043">
        <ele>1017.4</ele>
        <time>2003-04-14T08:18:10Z</time>
      </trkpt>
      <trkpt lat="31.628448022529483" lon="-4.979205038398504">
        <ele>1018.1</ele>
        <time>2003-04-14T08:18:14Z</time>
      </trkpt>
      <trkpt lat="31.62732501514256" lon="-4.979620026424527">
        <ele>1018.4</ele>
        <time>2003-04-14T08:18:18Z</time>
      </trkpt>
      <trkpt lat="31.626218017190695" lon="-4.980033002793789">
        <ele>1018.8</ele>
        <time>2003-04-14T08:18:22Z</time>
      </trkpt>
      <trkpt lat="31.625110013410449" lon="-4.980455031618476">
        <ele>1018.9</ele>
        <time>2003-04-14T08:18:26Z</time>
      </trkpt>
      <trkpt lat="31.623988011851907" lon="-4.980876976624131">
        <ele>1018.6</ele>
        <time>2003-04-14T08:18:30Z</time>
      </trkpt>
      <trkpt lat="31.622908003628254" lon="-4.981279978528619">
        <ele>1018.4</ele>
        <time>2003-04-14T08:18:34Z</time>
      </trkpt>
      <trkpt lat="31.621807962656021" lon="-4.981692032888532">
        <ele>1018.3</ele>
        <time>2003-04-14T08:18:38Z</time>
      </trkpt>
      <trkpt lat="31.6207280382514" lon="-4.982095034793019">
        <ele>1018</ele>
        <time>2003-04-14T08:18:42Z</time>
      </trkpt>
      <trkpt lat="31.619630008935928" lon="-4.982508011162281">
        <ele>1017.8</ele>
        <time>2003-04-14T08:18:46Z</time>
      </trkpt>
      <trkpt lat="31.618552012369037" lon="-4.982906989753246">
        <ele>1017.8</ele>
        <time>2003-04-14T08:18:50Z</time>
      </trkpt>
      <trkpt lat="31.617482984438539" lon="-4.983309991657734">
        <ele>1017.7</ele>
        <time>2003-04-14T08:18:54Z</time>
      </trkpt>
      <trkpt lat="31.616402976214886" lon="-4.983715005218983">
        <ele>1017.8</ele>
        <time>2003-04-14T08:18:59Z</time>
      </trkpt>
      <trkpt lat="31.615326991304755" lon="-4.984120018780232">
        <ele>1018</ele>
        <time>2003-04-14T08:19:03Z</time>
      </trkpt>
      <trkpt lat="31.614313032478094" lon="-4.984493013471365">
        <ele>1018.4</ele>
        <time>2003-04-14T08:19:07Z</time>
      </trkpt>
      <trkpt lat="31.61331701092422" lon="-4.98486801981926">
        <ele>1018.8</ele>
        <time>2003-04-14T08:19:11Z</time>
      </trkpt>
      <trkpt lat="31.61232803016901" lon="-4.985317038372159">
        <ele>1019</ele>
        <time>2003-04-14T08:19:15Z</time>
      </trkpt>
      <trkpt lat="31.611333014443517" lon="-4.985833028331399">
        <ele>1018.9</ele>
        <time>2003-04-14T08:19:19Z</time>
      </trkpt>
      <trkpt lat="31.610304974019527" lon="-4.986365027725697">
        <ele>1018.4</ele>
        <time>2003-04-14T08:19:23Z</time>
      </trkpt>
      <trkpt lat="31.609267964959145" lon="-4.986895015463233">
        <ele>1018</ele>
        <time>2003-04-14T08:19:27Z</time>
      </trkpt>
      <trkpt lat="31.608246965333819" lon="-4.987425003200769">
        <ele>1017.5</ele>
        <time>2003-04-14T08:19:31Z</time>
      </trkpt>
      <trkpt lat="31.607280028983951" lon="-4.987911991775036">
        <ele>1017.5</ele>
        <time>2003-04-14T08:19:35Z</time>
      </trkpt>
      <trkpt lat="31.606302028521895" lon="-4.988314993679524">
        <ele>1017.1</ele>
        <time>2003-04-14T08:19:39Z</time>
      </trkpt>
      <trkpt lat="31.605231994763017" lon="-4.988577011972666">
        <ele>1015.1</ele>
        <time>2003-04-14T08:19:43Z</time>
      </trkpt>
      <trkpt lat="31.604064982384443" lon="-4.988763006404042">
        <ele>1011.1</ele>
        <time>2003-04-14T08:19:47Z</time>
      </trkpt>
      <trkpt lat="31.603163005784154" lon="-4.988899966701865">
        <ele>1010.1</ele>
        <time>2003-04-14T08:19:50Z</time>
      </trkpt>
      <trkpt lat="31.602266980335116" lon="-4.989042961969972">
        <ele>1008.8</ele>
        <time>2003-04-14T08:19:53Z</time>
      </trkpt>
      <trkpt lat="31.601101979613304" lon="-4.989232979714871">
        <ele>1007.6</ele>
        <time>2003-04-14T08:19:57Z</time>
      </trkpt>
      <trkpt lat="31.599958017468452" lon="-4.989417968317866">
        <ele>1006.6</ele>
        <time>2003-04-14T08:20:01Z</time>
      </trkpt>
      <trkpt lat="31.598812965676188" lon="-4.989603040739894">
        <ele>1005.8</ele>
        <time>2003-04-14T08:20:05Z</time>
      </trkpt>
      <trkpt lat="31.597657017409801" lon="-4.989783000200987">
        <ele>1004.8</ele>
        <time>2003-04-14T08:20:09Z</time>
      </trkpt>
      <trkpt lat="31.596484975889325" lon="-4.989975029602647">
        <ele>1003.8</ele>
        <time>2003-04-14T08:20:13Z</time>
      </trkpt>
      <trkpt lat="31.595581993460655" lon="-4.990121964365244">
        <ele>1003.3</ele>
        <time>2003-04-14T08:20:15Z</time>
      </trkpt>
      <trkpt lat="31.59466702491045" lon="-4.990260014310479">
        <ele>1002.8</ele>
        <time>2003-04-14T08:20:18Z</time>
      </trkpt>
      <trkpt lat="31.59376697614789" lon="-4.990388005971909">
        <ele>1002.5</ele>
        <time>2003-04-14T08:20:22Z</time>
      </trkpt>
      <trkpt lat="31.592859970405698" lon="-4.990523038432002">
        <ele>1002</ele>
        <time>2003-04-14T08:20:25Z</time>
      </trkpt>
      <trkpt lat="31.591967968270183" lon="-4.990669973194599">
        <ele>1001.5</ele>
        <time>2003-04-14T08:20:28Z</time>
      </trkpt>
      <trkpt lat="31.591074960306287" lon="-4.990811962634325">
        <ele>1001.3</ele>
        <time>2003-04-14T08:20:30Z</time>
      </trkpt>
      <trkpt lat="31.589914988726377" lon="-4.991025030612946">
        <ele>1000.6</ele>
        <time>2003-04-14T08:20:34Z</time>
      </trkpt>
      <trkpt lat="31.588772032409906" lon="-4.9912070017308">
        <ele>1000.1</ele>
        <time>2003-04-14T08:20:38Z</time>
      </trkpt>
      <trkpt lat="31.587647013366222" lon="-4.991386961191893">
        <ele>999.39999999999998</ele>
        <time>2003-04-14T08:20:42Z</time>
      </trkpt>
      <trkpt lat="31.586513025686145" lon="-4.991564992815256">
        <ele>998.79999999999995</ele>
        <time>2003-04-14T08:20:47Z</time>
      </trkpt>
      <trkpt lat="31.585373003035784" lon="-4.99176699668169">
        <ele>999.79999999999995</ele>
        <time>2003-04-14T08:20:51Z</time>
      </trkpt>
      <trkpt lat="31.584274973720312" lon="-4.992018034681678">
        <ele>1001.5</ele>
        <time>2003-04-14T08:20:55Z</time>
      </trkpt>
      <trkpt lat="31.583269983530045" lon="-4.992296984419227">
        <ele>999.60000000000002</ele>
        <time>2003-04-14T08:20:59Z</time>
      </trkpt>
      <trkpt lat="31.582262981683016" lon="-4.992641983553767">
        <ele>998.39999999999998</ele>
        <time>2003-04-14T08:21:03Z</time>
      </trkpt>
      <trkpt lat="31.581244999542832" lon="-4.993087984621525">
        <ele>998</ele>
        <time>2003-04-14T08:21:07Z</time>
      </trkpt>
      <trkpt lat="31.580197010189295" lon="-4.993547983467579">
        <ele>997.70000000000005</ele>
        <time>2003-04-14T08:21:11Z</time>
      </trkpt>
      <trkpt lat="31.579109961166978" lon="-4.99402298592031">
        <ele>997.70000000000005</ele>
        <time>2003-04-14T08:21:15Z</time>
      </trkpt>
      <trkpt lat="31.577985025942326" lon="-4.994509974494577">
        <ele>998.89999999999998</ele>
        <time>2003-04-14T08:21:19Z</time>
      </trkpt>
      <trkpt lat="31.577131999656558" lon="-4.994887998327613">
        <ele>998.89999999999998</ele>
        <time>2003-04-14T08:21:22Z</time>
      </trkpt>
      <trkpt lat="31.576287019997835" lon="-4.995259987190366">
        <ele>998.20000000000005</ele>
        <time>2003-04-14T08:21:24Z</time>
      </trkpt>
      <trkpt lat="31.57518002204597" lon="-4.995742030441761">
        <ele>998</ele>
        <time>2003-04-14T08:21:28Z</time>
      </trkpt>
      <trkpt lat="31.574057014659047" lon="-4.996228013187647">
        <ele>997.60000000000002</ele>
        <time>2003-04-14T08:21:32Z</time>
      </trkpt>
      <trkpt lat="31.572941970080137" lon="-4.996711984276772">
        <ele>997.29999999999995</ele>
        <time>2003-04-14T08:21:36Z</time>
      </trkpt>
      <trkpt lat="31.571870008483529" lon="-4.997175000607967">
        <ele>996.89999999999998</ele>
        <time>2003-04-14T08:21:41Z</time>
      </trkpt>
      <trkpt lat="31.570782037451863" lon="-4.997686967253685">
        <ele>995.70000000000005</ele>
        <time>2003-04-14T08:21:45Z</time>
      </trkpt>
      <trkpt lat="31.569951977580786" lon="-4.998128022998571">
        <ele>993.70000000000005</ele>
        <time>2003-04-14T08:21:47Z</time>
      </trkpt>
      <trkpt lat="31.569108003750443" lon="-4.998570000752807">
        <ele>992.10000000000002</ele>
        <time>2003-04-14T08:21:50Z</time>
      </trkpt>
      <trkpt lat="31.568277021870017" lon="-4.999003009870648">
        <ele>991.89999999999998</ele>
        <time>2003-04-14T08:21:54Z</time>
      </trkpt>
      <trkpt lat="31.567185027524829" lon="-4.9995650164783">
        <ele>991.79999999999995</ele>
        <time>2003-04-14T08:21:58Z</time>
      </trkpt>
      <trkpt lat="31.566145000979304" lon="-5.000106990337372">
        <ele>992.29999999999995</ele>
        <time>2003-04-14T08:22:02Z</time>
      </trkpt>
      <trkpt lat="31.565106986090541" lon="-5.000637983903289">
        <ele>991.70000000000005</ele>
        <time>2003-04-14T08:22:06Z</time>
      </trkpt>
      <trkpt lat="31.564056985080242" lon="-5.001097982749343">
        <ele>990.29999999999995</ele>
        <time>2003-04-14T08:22:10Z</time>
      </trkpt>
      <trkpt lat="31.563010001555085" lon="-5.001537026837468">
        <ele>990.89999999999998</ele>
        <time>2003-04-14T08:22:13Z</time>
      </trkpt>
      <trkpt lat="31.561967041343451" lon="-5.001989984884858">
        <ele>991.20000000000005</ele>
        <time>2003-04-14T08:22:17Z</time>
      </trkpt>
      <trkpt lat="31.560882003977895" lon="-5.002449983730912">
        <ele>990.39999999999998</ele>
        <time>2003-04-14T08:22:21Z</time>
      </trkpt>
      <trkpt lat="31.55977500602603" lon="-5.002922974526882">
        <ele>991.29999999999995</ele>
        <time>2003-04-14T08:22:25Z</time>
      </trkpt>
      <trkpt lat="31.558661973103881" lon="-5.003397976979613">
        <ele>992.20000000000005</ele>
        <time>2003-04-14T08:22:29Z</time>
      </trkpt>
      <trkpt lat="31.557548018172383" lon="-5.003880020231009">
        <ele>992.60000000000002</ele>
        <time>2003-04-14T08:22:33Z</time>
      </trkpt>
      <trkpt lat="31.556513020768762" lon="-5.00431302934885">
        <ele>992.79999999999995</ele>
        <time>2003-04-14T08:22:37Z</time>
      </trkpt>
      <trkpt lat="31.555467965081334" lon="-5.004761964082718">
        <ele>993.29999999999995</ele>
        <time>2003-04-14T08:22:41Z</time>
      </trkpt>
      <trkpt lat="31.554394997656345" lon="-5.005224980413914">
        <ele>992.10000000000002</ele>
        <time>2003-04-14T08:22:45Z</time>
      </trkpt>
      <trkpt lat="31.553318006917834" lon="-5.005681961774826">
        <ele>991.29999999999995</ele>
        <time>2003-04-14T08:22:49Z</time>
      </trkpt>
      <trkpt lat="31.552247973158956" lon="-5.006135003641248">
        <ele>990.5</ele>
        <time>2003-04-14T08:22:53Z</time>
      </trkpt>
      <trkpt lat="31.551152039319277" lon="-5.006602965295315">
        <ele>989.70000000000005</ele>
        <time>2003-04-14T08:22:57Z</time>
      </trkpt>
      <trkpt lat="31.550047975033522" lon="-5.007075034081936">
        <ele>992</ele>
        <time>2003-04-14T08:23:02Z</time>
      </trkpt>
      <trkpt lat="31.548932008445263" lon="-5.007556993514299">
        <ele>993.10000000000002</ele>
        <time>2003-04-14T08:23:06Z</time>
      </trkpt>
      <trkpt lat="31.548083005473018" lon="-5.007923031225801">
        <ele>993.79999999999995</ele>
        <time>2003-04-14T08:23:08Z</time>
      </trkpt>
      <trkpt lat="31.547227967530489" lon="-5.008284961804748">
        <ele>994</ele>
        <time>2003-04-14T08:23:11Z</time>
      </trkpt>
      <trkpt lat="31.546118035912514" lon="-5.00876197591424">
        <ele>993.79999999999995</ele>
        <time>2003-04-14T08:23:15Z</time>
      </trkpt>
      <trkpt lat="31.54503702186048" lon="-5.009219963103533">
        <ele>994.10000000000002</ele>
        <time>2003-04-14T08:23:19Z</time>
      </trkpt>
      <trkpt lat="31.543960031121969" lon="-5.009678034111857">
        <ele>994.5</ele>
        <time>2003-04-14T08:23:23Z</time>
      </trkpt>
      <trkpt lat="31.542908018454909" lon="-5.010131997987628">
        <ele>994.79999999999995</ele>
        <time>2003-04-14T08:23:27Z</time>
      </trkpt>
      <trkpt lat="31.541934963315725" lon="-5.010546986013651">
        <ele>995.5</ele>
        <time>2003-04-14T08:23:31Z</time>
      </trkpt>
      <trkpt lat="31.540962997823954" lon="-5.010916963219643">
        <ele>995.89999999999998</ele>
        <time>2003-04-14T08:23:35Z</time>
      </trkpt>
      <trkpt lat="31.540232012048364" lon="-5.011076973751187">
        <ele>996.5</ele>
        <time>2003-04-14T08:23:38Z</time>
      </trkpt>
      <trkpt lat="31.5392130240798" lon="-5.011131959035993">
        <ele>995.79999999999995</ele>
        <time>2003-04-14T08:23:42Z</time>
      </trkpt>
      <trkpt lat="31.538209961727262" lon="-5.011004973202944">
        <ele>994.79999999999995</ele>
        <time>2003-04-14T08:23:46Z</time>
      </trkpt>
      <trkpt lat="31.537270015105605" lon="-5.010729962959886">
        <ele>993.70000000000005</ele>
        <time>2003-04-14T08:23:50Z</time>
      </trkpt>
      <trkpt lat="31.536326967179775" lon="-5.010312041267753">
        <ele>992</ele>
        <time>2003-04-14T08:23:54Z</time>
      </trkpt>
      <trkpt lat="31.535422978922725" lon="-5.009903004392982">
        <ele>992</ele>
        <time>2003-04-14T08:23:58Z</time>
      </trkpt>
      <trkpt lat="31.534550003707409" lon="-5.00951299443841">
        <ele>992.10000000000002</ele>
        <time>2003-04-14T08:24:02Z</time>
      </trkpt>
      <trkpt lat="31.533492961898446" lon="-5.009077973663807">
        <ele>994.20000000000005</ele>
        <time>2003-04-14T08:24:08Z</time>
      </trkpt>
      <trkpt lat="31.532612023875117" lon="-5.008810004219413">
        <ele>994.29999999999995</ele>
        <time>2003-04-14T08:24:12Z</time>
      </trkpt>
      <trkpt lat="31.531530003994703" lon="-5.008461987599731">
        <ele>994.60000000000002</ele>
        <time>2003-04-14T08:24:17Z</time>
      </trkpt>
      <trkpt lat="31.530495006591082" lon="-5.008041970431805">
        <ele>994.79999999999995</ele>
        <time>2003-04-14T08:24:21Z</time>
      </trkpt>
      <trkpt lat="31.529517006129026" lon="-5.007744999602437">
        <ele>995</ele>
        <time>2003-04-14T08:24:27Z</time>
      </trkpt>
      <trkpt lat="31.529106963425875" lon="-5.007739970460534">
        <ele>995</ele>
        <time>2003-04-14T08:24:28Z</time>
      </trkpt>
      <trkpt lat="31.528688035905361" lon="-5.007814988493919">
        <ele>995.29999999999995</ele>
        <time>2003-04-14T08:24:31Z</time>
      </trkpt>
      <trkpt lat="31.527641974389553" lon="-5.008062003180385">
        <ele>995.60000000000002</ele>
        <time>2003-04-14T08:24:36Z</time>
      </trkpt>
      <trkpt lat="31.526622986420989" lon="-5.008289990946651">
        <ele>995.79999999999995</ele>
        <time>2003-04-14T08:24:40Z</time>
      </trkpt>
      <trkpt lat="31.525689996778965" lon="-5.008482020348311">
        <ele>996.20000000000005</ele>
        <time>2003-04-14T08:24:45Z</time>
      </trkpt>
      <trkpt lat="31.525127990171313" lon="-5.008467016741633">
        <ele>996</ele>
        <time>2003-04-14T08:24:48Z</time>
      </trkpt>
      <trkpt lat="31.524552991613746" lon="-5.008335001766682">
        <ele>995.39999999999998</ele>
        <time>2003-04-14T08:24:52Z</time>
      </trkpt>
      <trkpt lat="31.523571973666549" lon="-5.008029984310269">
        <ele>995.10000000000002</ele>
        <time>2003-04-14T08:24:56Z</time>
      </trkpt>
      <trkpt lat="31.522633032873273" lon="-5.007724966853857">
        <ele>995.60000000000002</ele>
        <time>2003-04-14T08:25:02Z</time>
      </trkpt>
      <trkpt lat="31.522073037922382" lon="-5.007622959092259">
        <ele>995.70000000000005</ele>
        <time>2003-04-14T08:25:04Z</time>
      </trkpt>
      <trkpt lat="31.521693002432585" lon="-5.007641986012459">
        <ele>995.29999999999995</ele>
        <time>2003-04-14T08:25:07Z</time>
      </trkpt>
      <trkpt lat="31.521150022745132" lon="-5.007778024300933">
        <ele>994</ele>
        <time>2003-04-14T08:25:10Z</time>
      </trkpt>
      <trkpt lat="31.520648030564189" lon="-5.008029984310269">
        <ele>993.89999999999998</ele>
        <time>2003-04-14T08:25:12Z</time>
      </trkpt>
      <trkpt lat="31.520327003672719" lon="-5.008271969854832">
        <ele>994.10000000000002</ele>
        <time>2003-04-14T08:25:15Z</time>
      </trkpt>
      <trkpt lat="31.520037995651364" lon="-5.008585033938289">
        <ele>994.20000000000005</ele>
        <time>2003-04-14T08:25:17Z</time>
      </trkpt>
      <trkpt lat="31.519776983186603" lon="-5.008957022801042">
        <ele>994.70000000000005</ele>
        <time>2003-04-14T08:25:19Z</time>
      </trkpt>
      <trkpt lat="31.519153034314513" lon="-5.009980034083128">
        <ele>995.39999999999998</ele>
        <time>2003-04-14T08:25:23Z</time>
      </trkpt>
      <trkpt lat="31.518607959151268" lon="-5.01084303483367">
        <ele>995.60000000000002</ele>
        <time>2003-04-14T08:25:27Z</time>
      </trkpt>
      <trkpt lat="31.517997002229095" lon="-5.011884989216924">
        <ele>996.20000000000005</ele>
        <time>2003-04-14T08:25:33Z</time>
      </trkpt>
      <trkpt lat="31.517438013106585" lon="-5.0127980299294">
        <ele>996.70000000000005</ele>
        <time>2003-04-14T08:25:38Z</time>
      </trkpt>
      <trkpt lat="31.516865026205778" lon="-5.013754991814494">
        <ele>997.39999999999998</ele>
        <time>2003-04-14T08:25:44Z</time>
      </trkpt>
      <trkpt lat="31.516560008749366" lon="-5.014320015907288">
        <ele>997.60000000000002</ele>
        <time>2003-04-14T08:25:48Z</time>
      </trkpt>
      <trkpt lat="31.516377031803131" lon="-5.014677001163364">
        <ele>998</ele>
        <time>2003-04-14T08:25:50Z</time>
      </trkpt>
      <trkpt lat="31.516133034601808" lon="-5.015212018042803">
        <ele>998.20000000000005</ele>
        <time>2003-04-14T08:25:56Z</time>
      </trkpt>
      <trkpt lat="31.515843020752072" lon="-5.015905033797026">
        <ele>999</ele>
        <time>2003-04-14T08:26:01Z</time>
      </trkpt>
      <trkpt lat="31.515655014663935" lon="-5.016395039856434">
        <ele>999.60000000000002</ele>
        <time>2003-04-14T08:26:05Z</time>
      </trkpt>
      <trkpt lat="31.515189986675978" lon="-5.017504971474409">
        <ele>1000.5</ele>
        <time>2003-04-14T08:26:11Z</time>
      </trkpt>
      <trkpt lat="31.514769969508052" lon="-5.018518008291721">
        <ele>1001.3</ele>
        <time>2003-04-14T08:26:16Z</time>
      </trkpt>
      <trkpt lat="31.514307959005237" lon="-5.019606985151768">
        <ele>1002.8</ele>
        <time>2003-04-14T08:26:20Z</time>
      </trkpt>
      <trkpt lat="31.513843014836311" lon="-5.020678024739027">
        <ele>1003</ele>
        <time>2003-04-14T08:26:25Z</time>
      </trkpt>
      <trkpt lat="31.513400031253695" lon="-5.021810000762343">
        <ele>1003.9</ele>
        <time>2003-04-14T08:26:31Z</time>
      </trkpt>
      <trkpt lat="31.512983031570911" lon="-5.022778026759625">
        <ele>1004.9</ele>
        <time>2003-04-14T08:26:36Z</time>
      </trkpt>
      <trkpt lat="31.5125070232898" lon="-5.023921988904476">
        <ele>1005.2</ele>
        <time>2003-04-14T08:26:42Z</time>
      </trkpt>
      <trkpt lat="31.5120580047369" lon="-5.024941982701421">
        <ele>1005</ele>
        <time>2003-04-14T08:26:47Z</time>
      </trkpt>
      <trkpt lat="31.511602029204369" lon="-5.026000030338764">
        <ele>1006.2</ele>
        <time>2003-04-14T08:26:52Z</time>
      </trkpt>
      <trkpt lat="31.511158039793372" lon="-5.027018012478948">
        <ele>1006.6</ele>
        <time>2003-04-14T08:26:59Z</time>
      </trkpt>
      <trkpt lat="31.510770041495562" lon="-5.027922000735998">
        <ele>1006</ele>
        <time>2003-04-14T08:27:05Z</time>
      </trkpt>
      <trkpt lat="31.510517997667193" lon="-5.028606969863176">
        <ele>1006</ele>
        <time>2003-04-14T08:27:10Z</time>
      </trkpt>
      <trkpt lat="31.510156989097595" lon="-5.029712039977312">
        <ele>1006.9</ele>
        <time>2003-04-14T08:27:17Z</time>
      </trkpt>
      <trkpt lat="31.509827999398112" lon="-5.03080696798861">
        <ele>1008.3</ele>
        <time>2003-04-14T08:27:25Z</time>
      </trkpt>
      <trkpt lat="31.509512001648545" lon="-5.03185797482729">
        <ele>1009.6</ele>
        <time>2003-04-14T08:27:33Z</time>
      </trkpt>
      <trkpt lat="31.509210001677275" lon="-5.032872017472982">
        <ele>1011</ele>
        <time>2003-04-14T08:27:41Z</time>
      </trkpt>
      <trkpt lat="31.508874977007508" lon="-5.033967029303312">
        <ele>1011.9</ele>
        <time>2003-04-14T08:27:49Z</time>
      </trkpt>
      <trkpt lat="31.508608013391495" lon="-5.034881997853518">
        <ele>1012.1</ele>
        <time>2003-04-14T08:27:57Z</time>
      </trkpt>
      <trkpt lat="31.508450014516711" lon="-5.035396981984377">
        <ele>1012.3</ele>
        <time>2003-04-14T08:28:01Z</time>
      </trkpt>
      <trkpt lat="31.508123036473989" lon="-5.036459974944592">
        <ele>1013.1</ele>
        <time>2003-04-14T08:28:09Z</time>
      </trkpt>
      <trkpt lat="31.507894964888692" lon="-5.037232032045722">
        <ele>1013.3</ele>
        <time>2003-04-14T08:28:16Z</time>
      </trkpt>
      <trkpt lat="31.507590031251311" lon="-5.038301981985569">
        <ele>1014.2</ele>
        <time>2003-04-14T08:28:23Z</time>
      </trkpt>
      <trkpt lat="31.507434966042638" lon="-5.038800034672022">
        <ele>1014.2</ele>
        <time>2003-04-14T08:28:27Z</time>
      </trkpt>
      <trkpt lat="31.507343016564846" lon="-5.039115026593208">
        <ele>1014.5</ele>
        <time>2003-04-14T08:28:31Z</time>
      </trkpt>
      <trkpt lat="31.507261963561177" lon="-5.039385007694364">
        <ele>1014.8</ele>
        <time>2003-04-14T08:28:32Z</time>
      </trkpt>
      <trkpt lat="31.507057026028633" lon="-5.040024966001511">
        <ele>1015.4</ele>
        <time>2003-04-14T08:28:40Z</time>
      </trkpt>
      <trkpt lat="31.506930040195584" lon="-5.040420005097985">
        <ele>1015.6</ele>
        <time>2003-04-14T08:28:43Z</time>
      </trkpt>
      <trkpt lat="31.50670800358057" lon="-5.041200025007129">
        <ele>1015.8</ele>
        <time>2003-04-14T08:28:47Z</time>
      </trkpt>
      <trkpt lat="31.506393011659384" lon="-5.042284978553653">
        <ele>1015.9</ele>
        <time>2003-04-14T08:28:55Z</time>
      </trkpt>
      <trkpt lat="31.506069973111153" lon="-5.043357023969293">
        <ele>1015.9</ele>
        <time>2003-04-14T08:29:02Z</time>
      </trkpt>
      <trkpt lat="31.50574198924005" lon="-5.044396966695786">
        <ele>1016.3</ele>
        <time>2003-04-14T08:29:10Z</time>
      </trkpt>
      <trkpt lat="31.505434960126877" lon="-5.045477980747819">
        <ele>1016.9</ele>
        <time>2003-04-14T08:29:17Z</time>
      </trkpt>
      <trkpt lat="31.505209989845753" lon="-5.046550026163459">
        <ele>1017.3</ele>
        <time>2003-04-14T08:29:24Z</time>
      </trkpt>
      <trkpt lat="31.504979990422726" lon="-5.047594998031855">
        <ele>1017.8</ele>
        <time>2003-04-14T08:29:30Z</time>
      </trkpt>
      <trkpt lat="31.504936991259456" lon="-5.047818040475249">
        <ele>1017.8</ele>
        <time>2003-04-14T08:29:33Z</time>
      </trkpt>
      <trkpt lat="31.504755020141602" lon="-5.048675006255508">
        <ele>1018.1</ele>
        <time>2003-04-14T08:29:40Z</time>
      </trkpt>
      <trkpt lat="31.504627028480172" lon="-5.049287974834442">
        <ele>1018.2</ele>
        <time>2003-04-14T08:29:45Z</time>
      </trkpt>
      <trkpt lat="31.504414966329932" lon="-5.050258012488484">
        <ele>1018.6</ele>
        <time>2003-04-14T08:29:52Z</time>
      </trkpt>
      <trkpt lat="31.504169963300228" lon="-5.051402980461717">
        <ele>1018.4</ele>
        <time>2003-04-14T08:30:00Z</time>
      </trkpt>
      <trkpt lat="31.503916997462511" lon="-5.052533028647304">
        <ele>1018.6</ele>
        <time>2003-04-14T08:30:08Z</time>
      </trkpt>
      <trkpt lat="31.503654979169369" lon="-5.053682019934058">
        <ele>1018.5</ele>
        <time>2003-04-14T08:30:16Z</time>
      </trkpt>
      <trkpt lat="31.503291958943009" lon="-5.054711988195777">
        <ele>1018.8</ele>
        <time>2003-04-14T08:30:24Z</time>
      </trkpt>
      <trkpt lat="31.502917036414146" lon="-5.055695017799735">
        <ele>1019.2</ele>
        <time>2003-04-14T08:30:32Z</time>
      </trkpt>
      <trkpt lat="31.502523003146052" lon="-5.056745018810034">
        <ele>1019.4</ele>
        <time>2003-04-14T08:30:39Z</time>
      </trkpt>
      <trkpt lat="31.502150008454919" lon="-5.057732993736863">
        <ele>1019.2</ele>
        <time>2003-04-14T08:30:46Z</time>
      </trkpt>
      <trkpt lat="31.501754969358444" lon="-5.058792969211936">
        <ele>1019.5</ele>
        <time>2003-04-14T08:30:54Z</time>
      </trkpt>
      <trkpt lat="31.501407958567142" lon="-5.059665022417903">
        <ele>1019.6</ele>
        <time>2003-04-14T08:31:02Z</time>
      </trkpt>
      <trkpt lat="31.501111993566155" lon="-5.060513019561768">
        <ele>1019.9</ele>
        <time>2003-04-14T08:31:08Z</time>
      </trkpt>
      <trkpt lat="31.500758025795221" lon="-5.061496971175075">
        <ele>1020.3</ele>
        <time>2003-04-14T08:31:14Z</time>
      </trkpt>
      <trkpt lat="31.500522997230291" lon="-5.062491986900568">
        <ele>1020.5</ele>
        <time>2003-04-14T08:31:21Z</time>
      </trkpt>
      <trkpt lat="31.500380001962185" lon="-5.063603008165956">
        <ele>1020.9</ele>
        <time>2003-04-14T08:31:29Z</time>
      </trkpt>
      <trkpt lat="31.500372961163521" lon="-5.064604980871081">
        <ele>1021.2</ele>
        <time>2003-04-14T08:31:37Z</time>
      </trkpt>
      <trkpt lat="31.500406991690397" lon="-5.065709967166185">
        <ele>1021.3</ele>
        <time>2003-04-14T08:31:44Z</time>
      </trkpt>
      <trkpt lat="31.500423001125455" lon="-5.066278008744121">
        <ele>1021.4</ele>
        <time>2003-04-14T08:31:48Z</time>
      </trkpt>
      <trkpt lat="31.500440016388893" lon="-5.067262966185808">
        <ele>1021.1</ele>
        <time>2003-04-14T08:31:55Z</time>
      </trkpt>
      <trkpt lat="31.500392993912101" lon="-5.067942989990115">
        <ele>1020.6</ele>
        <time>2003-04-14T08:31:59Z</time>
      </trkpt>
      <trkpt lat="31.500191995874047" lon="-5.068976981565356">
        <ele>1019.5</ele>
        <time>2003-04-14T08:32:04Z</time>
      </trkpt>
      <trkpt lat="31.49996199645102" lon="-5.070002004504204">
        <ele>1018.9</ele>
        <time>2003-04-14T08:32:11Z</time>
      </trkpt>
      <trkpt lat="31.499699978157878" lon="-5.071104979142547">
        <ele>1017.2</ele>
        <time>2003-04-14T08:32:16Z</time>
      </trkpt>
      <trkpt lat="31.4994450006634" lon="-5.072252964600921">
        <ele>1017.9</ele>
        <time>2003-04-14T08:32:23Z</time>
      </trkpt>
      <trkpt lat="31.499193040654063" lon="-5.073347976431251">
        <ele>1018.5</ele>
        <time>2003-04-14T08:32:29Z</time>
      </trkpt>
      <trkpt lat="31.499018026515841" lon="-5.074127996340394">
        <ele>1019.2</ele>
        <time>2003-04-14T08:32:34Z</time>
      </trkpt>
      <trkpt lat="31.498928004875779" lon="-5.074522029608488">
        <ele>1019.1</ele>
        <time>2003-04-14T08:32:37Z</time>
      </trkpt>
      <trkpt lat="31.498747039586306" lon="-5.075612012296915">
        <ele>1018.3</ele>
        <time>2003-04-14T08:32:46Z</time>
      </trkpt>
      <trkpt lat="31.498702028766274" lon="-5.076810037717223">
        <ele>1019</ele>
        <time>2003-04-14T08:32:54Z</time>
      </trkpt>
      <trkpt lat="31.498742010444403" lon="-5.077927010133863">
        <ele>1020.4</ele>
        <time>2003-04-14T08:33:01Z</time>
      </trkpt>
      <trkpt lat="31.498775035142899" lon="-5.079068038612604">
        <ele>1022.5</ele>
        <time>2003-04-14T08:33:09Z</time>
      </trkpt>
      <trkpt lat="31.498809987679124" lon="-5.080203032121062">
        <ele>1023.3</ele>
        <time>2003-04-14T08:33:16Z</time>
      </trkpt>
      <trkpt lat="31.498852986842394" lon="-5.081386975944042">
        <ele>1023.7</ele>
        <time>2003-04-14T08:33:23Z</time>
      </trkpt>
      <trkpt lat="31.498896991834044" lon="-5.082566980272532">
        <ele>1024.5999999999999</ele>
        <time>2003-04-14T08:33:29Z</time>
      </trkpt>
      <trkpt lat="31.498928004875779" lon="-5.083716977387667">
        <ele>1025.5999999999999</ele>
        <time>2003-04-14T08:33:36Z</time>
      </trkpt>
      <trkpt lat="31.498877964913845" lon="-5.084685003384948">
        <ele>1026</ele>
        <time>2003-04-14T08:33:43Z</time>
      </trkpt>
      <trkpt lat="31.498692976310849" lon="-5.085771968588233">
        <ele>1026.3</ele>
        <time>2003-04-14T08:33:50Z</time>
      </trkpt>
      <trkpt lat="31.498442022129893" lon="-5.086622983217239">
        <ele>1026</ele>
        <time>2003-04-14T08:33:55Z</time>
      </trkpt>
      <trkpt lat="31.498129963874817" lon="-5.087447008118033">
        <ele>1026.2</ele>
        <time>2003-04-14T08:33:59Z</time>
      </trkpt>
      <trkpt lat="31.497712964192033" lon="-5.088645033538342">
        <ele>1026.0999999999999</ele>
        <time>2003-04-14T08:34:03Z</time>
      </trkpt>
      <trkpt lat="31.497342986986041" lon="-5.08965496905148">
        <ele>1026.3</ele>
        <time>2003-04-14T08:34:07Z</time>
      </trkpt>
      <trkpt lat="31.496957000344992" lon="-5.090722991153598">
        <ele>1027</ele>
        <time>2003-04-14T08:34:11Z</time>
      </trkpt>
      <trkpt lat="31.496562967076898" lon="-5.091771986335516">
        <ele>1027.2</ele>
        <time>2003-04-14T08:34:15Z</time>
      </trkpt>
      <trkpt lat="31.496176980435848" lon="-5.092813018709421">
        <ele>1027.3</ele>
        <time>2003-04-14T08:34:19Z</time>
      </trkpt>
      <trkpt lat="31.495791999623179" lon="-5.093912975862622">
        <ele>1027.4000000000001</ele>
        <time>2003-04-14T08:34:23Z</time>
      </trkpt>
      <trkpt lat="31.495392015203834" lon="-5.094977980479598">
        <ele>1027.9000000000001</ele>
        <time>2003-04-14T08:34:27Z</time>
      </trkpt>
      <trkpt lat="31.495003011077642" lon="-5.096011972054839">
        <ele>1027.9000000000001</ele>
        <time>2003-04-14T08:34:31Z</time>
      </trkpt>
      <trkpt lat="31.494603026658297" lon="-5.097087034955621">
        <ele>1028.3</ele>
        <time>2003-04-14T08:34:35Z</time>
      </trkpt>
      <trkpt lat="31.494207987561822" lon="-5.09820300154388">
        <ele>1028.9000000000001</ele>
        <time>2003-04-14T08:34:39Z</time>
      </trkpt>
      <trkpt lat="31.493797022849321" lon="-5.099317962303758">
        <ele>1029.5999999999999</ele>
        <time>2003-04-14T08:34:44Z</time>
      </trkpt>
      <trkpt lat="31.493405001237988" lon="-5.100386990234256">
        <ele>1030.2</ele>
        <time>2003-04-14T08:34:48Z</time>
      </trkpt>
      <trkpt lat="31.49297802709043" lon="-5.101579986512661">
        <ele>1030.7</ele>
        <time>2003-04-14T08:34:53Z</time>
      </trkpt>
      <trkpt lat="31.492867972701788" lon="-5.102078039199114">
        <ele>1030.9000000000001</ele>
        <time>2003-04-14T08:34:54Z</time>
      </trkpt>
      <trkpt lat="31.492773005738854" lon="-5.102889994159341">
        <ele>1030.5999999999999</ele>
        <time>2003-04-14T08:34:57Z</time>
      </trkpt>
      <trkpt lat="31.492788009345531" lon="-5.104039991274476">
        <ele>1030.2</ele>
        <time>2003-04-14T08:35:01Z</time>
      </trkpt>
      <trkpt lat="31.492807036265731" lon="-5.105213038623333">
        <ele>1030.5</ele>
        <time>2003-04-14T08:35:05Z</time>
      </trkpt>
      <trkpt lat="31.492811981588602" lon="-5.106392959132791">
        <ele>1030.5</ele>
        <time>2003-04-14T08:35:09Z</time>
      </trkpt>
      <trkpt lat="31.4927620254457" lon="-5.107202986255288">
        <ele>1031</ele>
        <time>2003-04-14T08:35:13Z</time>
      </trkpt>
      <trkpt lat="31.492606960237026" lon="-5.107738003134728">
        <ele>1031.7</ele>
        <time>2003-04-14T08:35:15Z</time>
      </trkpt>
      <trkpt lat="31.49218300357461" lon="-5.108835026621819">
        <ele>1032.0999999999999</ele>
        <time>2003-04-14T08:35:19Z</time>
      </trkpt>
      <trkpt lat="31.49173297919333" lon="-5.109988041222096">
        <ele>1032.7</ele>
        <time>2003-04-14T08:35:23Z</time>
      </trkpt>
      <trkpt lat="31.491283038631082" lon="-5.111167961731553">
        <ele>1033.4000000000001</ele>
        <time>2003-04-14T08:35:27Z</time>
      </trkpt>
      <trkpt lat="31.490837037563324" lon="-5.112334974110127">
        <ele>1034.0999999999999</ele>
        <time>2003-04-14T08:35:31Z</time>
      </trkpt>
      <trkpt lat="31.490387013182044" lon="-5.113499974831939">
        <ele>1035</ele>
        <time>2003-04-14T08:35:35Z</time>
      </trkpt>
      <trkpt lat="31.489936988800764" lon="-5.11468299664557">
        <ele>1035</ele>
        <time>2003-04-14T08:35:39Z</time>
      </trkpt>
      <trkpt lat="31.489502973854542" lon="-5.115897031500936">
        <ele>1035.8</ele>
        <time>2003-04-14T08:35:43Z</time>
      </trkpt>
      <trkpt lat="31.489177001640201" lon="-5.117202010005713">
        <ele>1036.9000000000001</ele>
        <time>2003-04-14T08:35:47Z</time>
      </trkpt>
      <trkpt lat="31.488863015547395" lon="-5.118530038744211">
        <ele>1037.8</ele>
        <time>2003-04-14T08:35:51Z</time>
      </trkpt>
      <trkpt lat="31.488554980605841" lon="-5.119884973391891">
        <ele>1039</ele>
        <time>2003-04-14T08:35:55Z</time>
      </trkpt>
      <trkpt lat="31.488317018374801" lon="-5.120909996330738">
        <ele>1039.7</ele>
        <time>2003-04-14T08:35:58Z</time>
      </trkpt>
      <trkpt lat="31.488077966496348" lon="-5.121942982077599">
        <ele>1040</ele>
        <time>2003-04-14T08:36:00Z</time>
      </trkpt>
      <trkpt lat="31.48784201592207" lon="-5.122961970046163">
        <ele>1040.4000000000001</ele>
        <time>2003-04-14T08:36:03Z</time>
      </trkpt>
      <trkpt lat="31.487528029829264" lon="-5.1242879871279">
        <ele>1041.9000000000001</ele>
        <time>2003-04-14T08:36:07Z</time>
      </trkpt>
      <trkpt lat="31.487227035686374" lon="-5.125600006431341">
        <ele>1044.4000000000001</ele>
        <time>2003-04-14T08:36:11Z</time>
      </trkpt>
      <trkpt lat="31.486914977431297" lon="-5.12688796967268">
        <ele>1046.5999999999999</ele>
        <time>2003-04-14T08:36:15Z</time>
      </trkpt>
      <trkpt lat="31.486635021865368" lon="-5.128120025619865">
        <ele>1048.5</ele>
        <time>2003-04-14T08:36:19Z</time>
      </trkpt>
      <trkpt lat="31.486341990530491" lon="-5.129372030496597">
        <ele>1049.5</ele>
        <time>2003-04-14T08:36:23Z</time>
      </trkpt>
      <trkpt lat="31.486034961417317" lon="-5.130668040364981">
        <ele>1048.8</ele>
        <time>2003-04-14T08:36:27Z</time>
      </trkpt>
      <trkpt lat="31.485734973102808" lon="-5.131962038576603">
        <ele>1048.4000000000001</ele>
        <time>2003-04-14T08:36:32Z</time>
      </trkpt>
      <trkpt lat="31.48543800227344" lon="-5.133240027353168">
        <ele>1047</ele>
        <time>2003-04-14T08:36:36Z</time>
      </trkpt>
      <trkpt lat="31.485140025615692" lon="-5.13453796505928">
        <ele>1047.3</ele>
        <time>2003-04-14T08:36:40Z</time>
      </trkpt>
      <trkpt lat="31.484832996502519" lon="-5.135857025161386">
        <ele>1048.4000000000001</ele>
        <time>2003-04-14T08:36:44Z</time>
      </trkpt>
      <trkpt lat="31.484593022614717" lon="-5.136875007301569">
        <ele>1049</ele>
        <time>2003-04-14T08:36:46Z</time>
      </trkpt>
      <trkpt lat="31.484348019585013" lon="-5.137913022190332">
        <ele>1049.4000000000001</ele>
        <time>2003-04-14T08:36:49Z</time>
      </trkpt>
      <trkpt lat="31.484066974371672" lon="-5.138969980180264">
        <ele>1050.0999999999999</ele>
        <time>2003-04-14T08:36:53Z</time>
      </trkpt>
      <trkpt lat="31.48373999632895" lon="-5.140034984797239">
        <ele>1049.9000000000001</ele>
        <time>2003-04-14T08:36:56Z</time>
      </trkpt>
      <trkpt lat="31.483417963609099" lon="-5.14110803604126">
        <ele>1050.3</ele>
        <time>2003-04-14T08:36:59Z</time>
      </trkpt>
      <trkpt lat="31.483097020536661" lon="-5.142176980152726">
        <ele>1050.5</ele>
        <time>2003-04-14T08:37:01Z</time>
      </trkpt>
      <trkpt lat="31.482793008908629" lon="-5.143202003091574">
        <ele>1050.5999999999999</ele>
        <time>2003-04-14T08:37:04Z</time>
      </trkpt>
      <trkpt lat="31.482386989519" lon="-5.144472029060125">
        <ele>1050.8</ele>
        <time>2003-04-14T08:37:08Z</time>
      </trkpt>
      <trkpt lat="31.481851972639561" lon="-5.145667036995292">
        <ele>1052.2</ele>
        <time>2003-04-14T08:37:12Z</time>
      </trkpt>
      <trkpt lat="31.481172032654285" lon="-5.146819967776537">
        <ele>1053</ele>
        <time>2003-04-14T08:37:16Z</time>
      </trkpt>
      <trkpt lat="31.480644978582859" lon="-5.147699983790517">
        <ele>1054.3</ele>
        <time>2003-04-14T08:37:20Z</time>
      </trkpt>
      <trkpt lat="31.480112979188561" lon="-5.148600032553077">
        <ele>1055</ele>
        <time>2003-04-14T08:37:23Z</time>
      </trkpt>
      <trkpt lat="31.479567987844348" lon="-5.149503014981747">
        <ele>1055.7</ele>
        <time>2003-04-14T08:37:26Z</time>
      </trkpt>
      <trkpt lat="31.479042023420334" lon="-5.150404991582036">
        <ele>1056.2</ele>
        <time>2003-04-14T08:37:28Z</time>
      </trkpt>
      <trkpt lat="31.478508012369275" lon="-5.151287019252777">
        <ele>1056.8</ele>
        <time>2003-04-14T08:37:31Z</time>
      </trkpt>
      <trkpt lat="31.477986993268132" lon="-5.152167035266757">
        <ele>1057.5</ele>
        <time>2003-04-14T08:37:35Z</time>
      </trkpt>
      <trkpt lat="31.47746798582375" lon="-5.153031963855028">
        <ele>1058.2</ele>
        <time>2003-04-14T08:37:38Z</time>
      </trkpt>
      <trkpt lat="31.476949984207749" lon="-5.153897982090712">
        <ele>1059.2</ele>
        <time>2003-04-14T08:37:40Z</time>
      </trkpt>
      <trkpt lat="31.476431982591748" lon="-5.15477498061955">
        <ele>1059.5</ele>
        <time>2003-04-14T08:37:43Z</time>
      </trkpt>
      <trkpt lat="31.475901994854212" lon="-5.155647033825517">
        <ele>1059.5999999999999</ele>
        <time>2003-04-14T08:37:47Z</time>
      </trkpt>
      <trkpt lat="31.475221971049905" lon="-5.156795019283891">
        <ele>1059.9000000000001</ele>
        <time>2003-04-14T08:37:51Z</time>
      </trkpt>
      <trkpt lat="31.474540019407868" lon="-5.157941998913884">
        <ele>1059.9000000000001</ele>
        <time>2003-04-14T08:37:55Z</time>
      </trkpt>
      <trkpt lat="31.473871981725097" lon="-5.15907003544271">
        <ele>1059.8</ele>
        <time>2003-04-14T08:37:58Z</time>
      </trkpt>
      <trkpt lat="31.473220037296414" lon="-5.160173010081053">
        <ele>1060.2</ele>
        <time>2003-04-14T08:38:02Z</time>
      </trkpt>
      <trkpt lat="31.472562979906797" lon="-5.161280008032918">
        <ele>1060.4000000000001</ele>
        <time>2003-04-14T08:38:06Z</time>
      </trkpt>
      <trkpt lat="31.471883039921522" lon="-5.162411984056234">
        <ele>1061.0999999999999</ele>
        <time>2003-04-14T08:38:10Z</time>
      </trkpt>
      <trkpt lat="31.47136302664876" lon="-5.163283031433821">
        <ele>1061.5</ele>
        <time>2003-04-14T08:38:14Z</time>
      </trkpt>
      <trkpt lat="31.470839995890856" lon="-5.164162963628769">
        <ele>1061.9000000000001</ele>
        <time>2003-04-14T08:38:17Z</time>
      </trkpt>
      <trkpt lat="31.470312019810081" lon="-5.165052032098174">
        <ele>1062.2</ele>
        <time>2003-04-14T08:38:20Z</time>
      </trkpt>
      <trkpt lat="31.469782032072544" lon="-5.165940010920167">
        <ele>1062.7</ele>
        <time>2003-04-14T08:38:22Z</time>
      </trkpt>
      <trkpt lat="31.469254978001118" lon="-5.16682798974216">
        <ele>1063.2</ele>
        <time>2003-04-14T08:38:25Z</time>
      </trkpt>
      <trkpt lat="31.46872297860682" lon="-5.167719991877675">
        <ele>1063.7</ele>
        <time>2003-04-14T08:38:29Z</time>
      </trkpt>
      <trkpt lat="31.468187039718032" lon="-5.168609982356429">
        <ele>1064.2</ele>
        <time>2003-04-14T08:38:32Z</time>
      </trkpt>
      <trkpt lat="31.467656968161464" lon="-5.169510031118989">
        <ele>1064.7</ele>
        <time>2003-04-14T08:38:34Z</time>
      </trkpt>
      <trkpt lat="31.467129997909069" lon="-5.170400021597743">
        <ele>1065.2</ele>
        <time>2003-04-14T08:38:37Z</time>
      </trkpt>
      <trkpt lat="31.466596992686391" lon="-5.171282971277833">
        <ele>1065.8</ele>
        <time>2003-04-14T08:38:41Z</time>
      </trkpt>
      <trkpt lat="31.466067004948854" lon="-5.172168016433716">
        <ele>1066.7</ele>
        <time>2003-04-14T08:38:44Z</time>
      </trkpt>
      <trkpt lat="31.465556966140866" lon="-5.17303797416389">
        <ele>1067.8</ele>
        <time>2003-04-14T08:38:47Z</time>
      </trkpt>
      <trkpt lat="31.464917007833719" lon="-5.174099961295724">
        <ele>1068.8</ele>
        <time>2003-04-14T08:38:51Z</time>
      </trkpt>
      <trkpt lat="31.464370004832745" lon="-5.175091959536076">
        <ele>1069.7</ele>
        <time>2003-04-14T08:38:55Z</time>
      </trkpt>
      <trkpt lat="31.464094994589686" lon="-5.175853036344051">
        <ele>1070.3</ele>
        <time>2003-04-14T08:38:57Z</time>
      </trkpt>
      <trkpt lat="31.463931966573" lon="-5.176707990467548">
        <ele>1070.0999999999999</ele>
        <time>2003-04-14T08:39:00Z</time>
      </trkpt>
      <trkpt lat="31.463801963254809" lon="-5.177931999787688">
        <ele>1070.7</ele>
        <time>2003-04-14T08:39:04Z</time>
      </trkpt>
      <trkpt lat="31.463657040148973" lon="-5.179207976907492">
        <ele>1072</ele>
        <time>2003-04-14T08:39:08Z</time>
      </trkpt>
      <trkpt lat="31.463512033224106" lon="-5.180537011474371">
        <ele>1073.4000000000001</ele>
        <time>2003-04-14T08:39:12Z</time>
      </trkpt>
      <trkpt lat="31.463357973843813" lon="-5.18191197887063">
        <ele>1074.2</ele>
        <time>2003-04-14T08:39:16Z</time>
      </trkpt>
      <trkpt lat="31.463242974132299" lon="-5.18296298570931">
        <ele>1074.8</ele>
        <time>2003-04-14T08:39:19Z</time>
      </trkpt>
      <trkpt lat="31.463095033541322" lon="-5.184329990297556">
        <ele>1076.5999999999999</ele>
        <time>2003-04-14T08:39:23Z</time>
      </trkpt>
      <trkpt lat="31.462937034666538" lon="-5.185696994885802">
        <ele>1078.0999999999999</ele>
        <time>2003-04-14T08:39:27Z</time>
      </trkpt>
      <trkpt lat="31.462782975286245" lon="-5.187025023624301">
        <ele>1079.8</ele>
        <time>2003-04-14T08:39:31Z</time>
      </trkpt>
      <trkpt lat="31.462647020816803" lon="-5.188241992145777">
        <ele>1080.8</ele>
        <time>2003-04-14T08:39:35Z</time>
      </trkpt>
      <trkpt lat="31.462520034983754" lon="-5.18938796594739">
        <ele>1081.8</ele>
        <time>2003-04-14T08:39:39Z</time>
      </trkpt>
      <trkpt lat="31.462396988645196" lon="-5.190586997196078">
        <ele>1082.7</ele>
        <time>2003-04-14T08:39:43Z</time>
      </trkpt>
      <trkpt lat="31.462243013083935" lon="-5.191852999851108">
        <ele>1083</ele>
        <time>2003-04-14T08:39:47Z</time>
      </trkpt>
      <trkpt lat="31.462102029472589" lon="-5.193184968084097">
        <ele>1083.4000000000001</ele>
        <time>2003-04-14T08:39:51Z</time>
      </trkpt>
      <trkpt lat="31.461946964263916" lon="-5.194551972672343">
        <ele>1084.5999999999999</ele>
        <time>2003-04-14T08:39:55Z</time>
      </trkpt>
      <trkpt lat="31.461791982874274" lon="-5.195925012230873">
        <ele>1085.5</ele>
        <time>2003-04-14T08:39:59Z</time>
      </trkpt>
      <trkpt lat="31.461644964292645" lon="-5.19725002348423">
        <ele>1086.5999999999999</ele>
        <time>2003-04-14T08:40:03Z</time>
      </trkpt>
      <trkpt lat="31.461487971246243" lon="-5.198590038344264">
        <ele>1086.8</ele>
        <time>2003-04-14T08:40:08Z</time>
      </trkpt>
      <trkpt lat="31.461347993463278" lon="-5.199899962171912">
        <ele>1087.2</ele>
        <time>2003-04-14T08:40:12Z</time>
      </trkpt>
      <trkpt lat="31.461274987086654" lon="-5.201220028102398">
        <ele>1086.8</ele>
        <time>2003-04-14T08:40:16Z</time>
      </trkpt>
      <trkpt lat="31.461307005956769" lon="-5.202615028247237">
        <ele>1086.4000000000001</ele>
        <time>2003-04-14T08:40:21Z</time>
      </trkpt>
      <trkpt lat="31.461329972371459" lon="-5.203692018985748">
        <ele>1086</ele>
        <time>2003-04-14T08:40:24Z</time>
      </trkpt>
      <trkpt lat="31.461359979584813" lon="-5.204779990017414">
        <ele>1086</ele>
        <time>2003-04-14T08:40:25Z</time>
      </trkpt>
      <trkpt lat="31.461383029818535" lon="-5.205886987969279">
        <ele>1087.0999999999999</ele>
        <time>2003-04-14T08:40:29Z</time>
      </trkpt>
      <trkpt lat="31.461398033425212" lon="-5.207007983699441">
        <ele>1088.4000000000001</ele>
        <time>2003-04-14T08:40:33Z</time>
      </trkpt>
      <trkpt lat="31.461428040638566" lon="-5.208125039935112">
        <ele>1090.4000000000001</ele>
        <time>2003-04-14T08:40:36Z</time>
      </trkpt>
      <trkpt lat="31.461452012881637" lon="-5.209234971553087">
        <ele>1092.3</ele>
        <time>2003-04-14T08:40:39Z</time>
      </trkpt>
      <trkpt lat="31.461474979296327" lon="-5.210340041667223">
        <ele>1093.7</ele>
        <time>2003-04-14T08:40:41Z</time>
      </trkpt>
      <trkpt lat="31.461506998166442" lon="-5.211434969678521">
        <ele>1095.7</ele>
        <time>2003-04-14T08:40:44Z</time>
      </trkpt>
      <trkpt lat="31.461532982066274" lon="-5.21252503618598">
        <ele>1097.2</ele>
        <time>2003-04-14T08:40:48Z</time>
      </trkpt>
      <trkpt lat="31.461555026471615" lon="-5.213587023317814">
        <ele>1098.0999999999999</ele>
        <time>2003-04-14T08:40:51Z</time>
      </trkpt>
      <trkpt lat="31.461582016199827" lon="-5.214892001822591">
        <ele>1099.7</ele>
        <time>2003-04-14T08:40:55Z</time>
      </trkpt>
      <trkpt lat="31.46161001175642" lon="-5.216148030012846">
        <ele>1102</ele>
        <time>2003-04-14T08:40:59Z</time>
      </trkpt>
      <trkpt lat="31.461621997877955" lon="-5.217295009642839">
        <ele>1104.5</ele>
        <time>2003-04-14T08:41:03Z</time>
      </trkpt>
      <trkpt lat="31.461512027308345" lon="-5.218154992908239">
        <ele>1105.0999999999999</ele>
        <time>2003-04-14T08:41:06Z</time>
      </trkpt>
      <trkpt lat="31.461272975429893" lon="-5.219010030850768">
        <ele>1106.2</ele>
        <time>2003-04-14T08:41:08Z</time>
      </trkpt>
      <trkpt lat="31.460847007110715" lon="-5.220158016309142">
        <ele>1107.5999999999999</ele>
        <time>2003-04-14T08:41:12Z</time>
      </trkpt>
      <trkpt lat="31.460397988557816" lon="-5.221344977617264">
        <ele>1107.8</ele>
        <time>2003-04-14T08:41:16Z</time>
      </trkpt>
      <trkpt lat="31.459952993318439" lon="-5.222532022744417">
        <ele>1108.0999999999999</ele>
        <time>2003-04-14T08:41:20Z</time>
      </trkpt>
      <trkpt lat="31.459513027220964" lon="-5.223722001537681">
        <ele>1108</ele>
        <time>2003-04-14T08:41:24Z</time>
      </trkpt>
      <trkpt lat="31.459063002839684" lon="-5.224939975887537">
        <ele>1107.0999999999999</ele>
        <time>2003-04-14T08:41:29Z</time>
      </trkpt>
      <trkpt lat="31.458596969023347" lon="-5.226177982985973">
        <ele>1106.0999999999999</ele>
        <time>2003-04-14T08:41:33Z</time>
      </trkpt>
      <trkpt lat="31.458143005147576" lon="-5.227405009791255">
        <ele>1104.8</ele>
        <time>2003-04-14T08:41:37Z</time>
      </trkpt>
      <trkpt lat="31.457691974937916" lon="-5.228627007454634">
        <ele>1105</ele>
        <time>2003-04-14T08:41:41Z</time>
      </trkpt>
      <trkpt lat="31.457232981920242" lon="-5.229846993461251">
        <ele>1106.2</ele>
        <time>2003-04-14T08:41:45Z</time>
      </trkpt>
      <trkpt lat="31.456782035529613" lon="-5.231079971417785">
        <ele>1107.5999999999999</ele>
        <time>2003-04-14T08:41:49Z</time>
      </trkpt>
      <trkpt lat="31.456318013370037" lon="-5.232310015708208">
        <ele>1109.3</ele>
        <time>2003-04-14T08:41:53Z</time>
      </trkpt>
      <trkpt lat="31.455854997038841" lon="-5.233547016978264">
        <ele>1110.5</ele>
        <time>2003-04-14T08:41:57Z</time>
      </trkpt>
      <trkpt lat="31.455392986536026" lon="-5.234791981056333">
        <ele>1111.7</ele>
        <time>2003-04-14T08:42:01Z</time>
      </trkpt>
      <trkpt lat="31.454927958548069" lon="-5.236038034781814">
        <ele>1112.5</ele>
        <time>2003-04-14T08:42:05Z</time>
      </trkpt>
      <trkpt lat="31.454463014379144" lon="-5.237272018566728">
        <ele>1113.4000000000001</ele>
        <time>2003-04-14T08:42:09Z</time>
      </trkpt>
      <trkpt lat="31.454051965847611" lon="-5.238389996811748">
        <ele>1114.0999999999999</ele>
        <time>2003-04-14T08:42:13Z</time>
      </trkpt>
      <trkpt lat="31.453715013340116" lon="-5.239366991445422">
        <ele>1114.8</ele>
        <time>2003-04-14T08:42:17Z</time>
      </trkpt>
      <trkpt lat="31.453557014465332" lon="-5.240152040496469">
        <ele>1115.4000000000001</ele>
        <time>2003-04-14T08:42:20Z</time>
      </trkpt>
      <trkpt lat="31.453506974503398" lon="-5.240997020155191">
        <ele>1115.9000000000001</ele>
        <time>2003-04-14T08:42:23Z</time>
      </trkpt>
      <trkpt lat="31.453500017523766" lon="-5.242182975634933">
        <ele>1116.7</ele>
        <time>2003-04-14T08:42:27Z</time>
      </trkpt>
      <trkpt lat="31.45348803140223" lon="-5.243436992168427">
        <ele>1117.5999999999999</ele>
        <time>2003-04-14T08:42:31Z</time>
      </trkpt>
      <trkpt lat="31.453473027795553" lon="-5.244748005643487">
        <ele>1117.9000000000001</ele>
        <time>2003-04-14T08:42:35Z</time>
      </trkpt>
      <trkpt lat="31.453461963683367" lon="-5.246092965826392">
        <ele>1117.5999999999999</ele>
        <time>2003-04-14T08:42:39Z</time>
      </trkpt>
      <trkpt lat="31.45344796590507" lon="-5.247472040355206">
        <ele>1117.5</ele>
        <time>2003-04-14T08:42:43Z</time>
      </trkpt>
      <trkpt lat="31.453428016975522" lon="-5.248863017186523">
        <ele>1118.7</ele>
        <time>2003-04-14T08:42:47Z</time>
      </trkpt>
      <trkpt lat="31.453417036682367" lon="-5.249917963519692">
        <ele>1119.8</ele>
        <time>2003-04-14T08:42:50Z</time>
      </trkpt>
      <trkpt lat="31.4534049667418" lon="-5.25130701251328">
        <ele>1121.4000000000001</ele>
        <time>2003-04-14T08:42:54Z</time>
      </trkpt>
      <trkpt lat="31.453388035297394" lon="-5.25261802598834">
        <ele>1123.2</ele>
        <time>2003-04-14T08:42:58Z</time>
      </trkpt>
      <trkpt lat="31.45331796258688" lon="-5.253853015601635">
        <ele>1124.5999999999999</ele>
        <time>2003-04-14T08:43:02Z</time>
      </trkpt>
      <trkpt lat="31.453127022832632" lon="-5.254711993038654">
        <ele>1125.3</ele>
        <time>2003-04-14T08:43:04Z</time>
      </trkpt>
      <trkpt lat="31.452692002058029" lon="-5.255846986547113">
        <ele>1125.4000000000001</ele>
        <time>2003-04-14T08:43:08Z</time>
      </trkpt>
      <trkpt lat="31.452203001827002" lon="-5.257030008360744">
        <ele>1124.3</ele>
        <time>2003-04-14T08:43:12Z</time>
      </trkpt>
      <trkpt lat="31.45172799937427" lon="-5.258227027952671">
        <ele>1123.0999999999999</ele>
        <time>2003-04-14T08:43:17Z</time>
      </trkpt>
      <trkpt lat="31.451279986649752" lon="-5.259356992319226">
        <ele>1122.0999999999999</ele>
        <time>2003-04-14T08:43:21Z</time>
      </trkpt>
      <trkpt lat="31.450842032209039" lon="-5.260443035513163">
        <ele>1123.2</ele>
        <time>2003-04-14T08:43:25Z</time>
      </trkpt>
      <trkpt lat="31.450474988669157" lon="-5.261508040130138">
        <ele>1124.0999999999999</ele>
        <time>2003-04-14T08:43:29Z</time>
      </trkpt>
      <trkpt lat="31.450369963422418" lon="-5.262080021202564">
        <ele>1124.8</ele>
        <time>2003-04-14T08:43:30Z</time>
      </trkpt>
      <trkpt lat="31.450312966480851" lon="-5.262968000024557">
        <ele>1125.5</ele>
        <time>2003-04-14T08:43:34Z</time>
      </trkpt>
      <trkpt lat="31.450341967865825" lon="-5.264207012951374">
        <ele>1126.7</ele>
        <time>2003-04-14T08:43:38Z</time>
      </trkpt>
      <trkpt lat="31.450354959815741" lon="-5.265500005334616">
        <ele>1127.3</ele>
        <time>2003-04-14T08:43:42Z</time>
      </trkpt>
      <trkpt lat="31.450377004221082" lon="-5.266814958304167">
        <ele>1128.2</ele>
        <time>2003-04-14T08:43:46Z</time>
      </trkpt>
      <trkpt lat="31.450397958979011" lon="-5.268147010356188">
        <ele>1128.8</ele>
        <time>2003-04-14T08:43:49Z</time>
      </trkpt>
      <trkpt lat="31.450408017262816" lon="-5.269496999680996">
        <ele>1129.4000000000001</ele>
        <time>2003-04-14T08:43:53Z</time>
      </trkpt>
      <trkpt lat="31.450353031978011" lon="-5.270871967077255">
        <ele>1131.0999999999999</ele>
        <time>2003-04-14T08:43:57Z</time>
      </trkpt>
      <trkpt lat="31.450293017551303" lon="-5.272269984707236">
        <ele>1132.8</ele>
        <time>2003-04-14T08:44:01Z</time>
      </trkpt>
      <trkpt lat="31.450241971760988" lon="-5.273340018466115">
        <ele>1133.4000000000001</ele>
        <time>2003-04-14T08:44:05Z</time>
      </trkpt>
      <trkpt lat="31.450199978426099" lon="-5.274414997547865">
        <ele>1133.9000000000001</ele>
        <time>2003-04-14T08:44:08Z</time>
      </trkpt>
      <trkpt lat="31.450138036161661" lon="-5.275817960500717">
        <ele>1134</ele>
        <time>2003-04-14T08:44:12Z</time>
      </trkpt>
      <trkpt lat="31.450086990371346" lon="-5.277177002280951">
        <ele>1135.7</ele>
        <time>2003-04-14T08:44:16Z</time>
      </trkpt>
      <trkpt lat="31.450017001479864" lon="-5.278428001329303">
        <ele>1137</ele>
        <time>2003-04-14T08:44:20Z</time>
      </trkpt>
      <trkpt lat="31.449924968183041" lon="-5.27902303263545">
        <ele>1138.0999999999999</ele>
        <time>2003-04-14T08:44:21Z</time>
      </trkpt>
      <trkpt lat="31.449664961546659" lon="-5.279895002022386">
        <ele>1139.2</ele>
        <time>2003-04-14T08:44:24Z</time>
      </trkpt>
      <trkpt lat="31.449277969077229" lon="-5.28104298748076">
        <ele>1140.8</ele>
        <time>2003-04-14T08:44:28Z</time>
      </trkpt>
      <trkpt lat="31.448992984369397" lon="-5.28213799931109">
        <ele>1141.9000000000001</ele>
        <time>2003-04-14T08:44:32Z</time>
      </trkpt>
      <trkpt lat="31.448915032669902" lon="-5.283027989789844">
        <ele>1142.7</ele>
        <time>2003-04-14T08:44:36Z</time>
      </trkpt>
      <trkpt lat="31.448906986042857" lon="-5.284272031858563">
        <ele>1143.0999999999999</ele>
        <time>2003-04-14T08:44:40Z</time>
      </trkpt>
      <trkpt lat="31.44889198243618" lon="-5.285529987886548">
        <ele>1142.9000000000001</ele>
        <time>2003-04-14T08:44:43Z</time>
      </trkpt>
      <trkpt lat="31.448853006586432" lon="-5.286792973056436">
        <ele>1142.5999999999999</ele>
        <time>2003-04-14T08:44:47Z</time>
      </trkpt>
      <trkpt lat="31.448670029640198" lon="-5.288057969883084">
        <ele>1142.8</ele>
        <time>2003-04-14T08:44:51Z</time>
      </trkpt>
      <trkpt lat="31.448422009125352" lon="-5.289327995851636">
        <ele>1142.2</ele>
        <time>2003-04-14T08:44:55Z</time>
      </trkpt>
      <trkpt lat="31.448177006095648" lon="-5.290659964084625">
        <ele>1140.9000000000001</ele>
        <time>2003-04-14T08:44:59Z</time>
      </trkpt>
      <trkpt lat="31.44792496226728" lon="-5.291984975337982">
        <ele>1140</ele>
        <time>2003-04-14T08:45:03Z</time>
      </trkpt>
      <trkpt lat="31.447681970894337" lon="-5.293328007683158">
        <ele>1140.3</ele>
        <time>2003-04-14T08:45:07Z</time>
      </trkpt>
      <trkpt lat="31.447420036420226" lon="-5.29468503780663">
        <ele>1140.3</ele>
        <time>2003-04-14T08:45:11Z</time>
      </trkpt>
      <trkpt lat="31.447175033390522" lon="-5.296026980504394">
        <ele>1140.3</ele>
        <time>2003-04-14T08:45:15Z</time>
      </trkpt>
      <trkpt lat="31.446925001218915" lon="-5.297381998971105">
        <ele>1139.8</ele>
        <time>2003-04-14T08:45:19Z</time>
      </trkpt>
      <trkpt lat="31.446676980704069" lon="-5.298693012446165">
        <ele>1139.0999999999999</ele>
        <time>2003-04-14T08:45:23Z</time>
      </trkpt>
      <trkpt lat="31.446447987109423" lon="-5.299917021766305">
        <ele>1140.5</ele>
        <time>2003-04-14T08:45:27Z</time>
      </trkpt>
      <trkpt lat="31.446278002113104" lon="-5.301129966974258">
        <ele>1140.3</ele>
        <time>2003-04-14T08:45:32Z</time>
      </trkpt>
      <trkpt lat="31.446198038756847" lon="-5.302447015419602">
        <ele>1139.8</ele>
        <time>2003-04-14T08:45:36Z</time>
      </trkpt>
      <trkpt lat="31.446107011288404" lon="-5.303832963109016">
        <ele>1138.7</ele>
        <time>2003-04-14T08:45:40Z</time>
      </trkpt>
      <trkpt lat="31.446040039882064" lon="-5.304896961897612">
        <ele>1139.0999999999999</ele>
        <time>2003-04-14T08:45:42Z</time>
      </trkpt>
      <trkpt lat="31.445942977443337" lon="-5.30628701671958">
        <ele>1139.5999999999999</ele>
        <time>2003-04-14T08:45:46Z</time>
      </trkpt>
      <trkpt lat="31.445854967460036" lon="-5.307665001600981">
        <ele>1141</ele>
        <time>2003-04-14T08:45:50Z</time>
      </trkpt>
      <trkpt lat="31.445763017982244" lon="-5.309044998139143">
        <ele>1142</ele>
        <time>2003-04-14T08:45:54Z</time>
      </trkpt>
      <trkpt lat="31.445671990513802" lon="-5.310421977192164">
        <ele>1141.4000000000001</ele>
        <time>2003-04-14T08:45:59Z</time>
      </trkpt>
      <trkpt lat="31.445578029379249" lon="-5.311762997880578">
        <ele>1141</ele>
        <time>2003-04-14T08:46:03Z</time>
      </trkpt>
      <trkpt lat="31.445482978597283" lon="-5.31316302716732">
        <ele>1139.5999999999999</ele>
        <time>2003-04-14T08:46:07Z</time>
      </trkpt>
      <trkpt lat="31.44541198387742" lon="-5.314261978492141">
        <ele>1138.3</ele>
        <time>2003-04-14T08:46:09Z</time>
      </trkpt>
      <trkpt lat="31.445341994985938" lon="-5.315369982272387">
        <ele>1137.8</ele>
        <time>2003-04-14T08:46:12Z</time>
      </trkpt>
      <trkpt lat="31.445266976952553" lon="-5.316464994102716">
        <ele>1138.8</ele>
        <time>2003-04-14T08:46:16Z</time>
      </trkpt>
      <trkpt lat="31.44519698806107" lon="-5.317527987062931">
        <ele>1139.3</ele>
        <time>2003-04-14T08:46:19Z</time>
      </trkpt>
      <trkpt lat="31.445124987512827" lon="-5.318591985851526">
        <ele>1138.4000000000001</ele>
        <time>2003-04-14T08:46:21Z</time>
      </trkpt>
      <trkpt lat="31.445049969479442" lon="-5.31967299990356">
        <ele>1138.3</ele>
        <time>2003-04-14T08:46:24Z</time>
      </trkpt>
      <trkpt lat="31.444975035265088" lon="-5.320752002298832">
        <ele>1138</ele>
        <time>2003-04-14T08:46:28Z</time>
      </trkpt>
      <trkpt lat="31.444907980039716" lon="-5.321829998865724">
        <ele>1138</ele>
        <time>2003-04-14T08:46:31Z</time>
      </trkpt>
      <trkpt lat="31.444834973663092" lon="-5.322883017361164">
        <ele>1137.9000000000001</ele>
        <time>2003-04-14T08:46:34Z</time>
      </trkpt>
      <trkpt lat="31.444734977558255" lon="-5.324182966724038">
        <ele>1138.3</ele>
        <time>2003-04-14T08:46:38Z</time>
      </trkpt>
      <trkpt lat="31.444719973951578" lon="-5.32538702711463">
        <ele>1139.3</ele>
        <time>2003-04-14T08:46:42Z</time>
      </trkpt>
      <trkpt lat="31.444849977269769" lon="-5.326308030635119">
        <ele>1140</ele>
        <time>2003-04-14T08:46:44Z</time>
      </trkpt>
      <trkpt lat="31.445048041641712" lon="-5.327572021633387">
        <ele>1140.8</ele>
        <time>2003-04-14T08:46:48Z</time>
      </trkpt>
      <trkpt lat="31.445249961689115" lon="-5.328878005966544">
        <ele>1140.4000000000001</ele>
        <time>2003-04-14T08:46:53Z</time>
      </trkpt>
      <trkpt lat="31.445448026061058" lon="-5.330188013613224">
        <ele>1140.5999999999999</ele>
        <time>2003-04-14T08:46:57Z</time>
      </trkpt>
      <trkpt lat="31.445648018270731" lon="-5.331498021259904">
        <ele>1141.7</ele>
        <time>2003-04-14T08:47:01Z</time>
      </trkpt>
      <trkpt lat="31.44584197551012" lon="-5.332747008651495">
        <ele>1144.8</ele>
        <time>2003-04-14T08:47:05Z</time>
      </trkpt>
      <trkpt lat="31.446017995476723" lon="-5.333937993273139">
        <ele>1149.4000000000001</ele>
        <time>2003-04-14T08:47:09Z</time>
      </trkpt>
      <trkpt lat="31.446207007393241" lon="-5.335148004814982">
        <ele>1150.9000000000001</ele>
        <time>2003-04-14T08:47:13Z</time>
      </trkpt>
      <trkpt lat="31.446393001824617" lon="-5.336343012750149">
        <ele>1148.0999999999999</ele>
        <time>2003-04-14T08:47:17Z</time>
      </trkpt>
      <trkpt lat="31.446576984599233" lon="-5.337541960179806">
        <ele>1148.0999999999999</ele>
        <time>2003-04-14T08:47:21Z</time>
      </trkpt>
      <trkpt lat="31.446853000670671" lon="-5.3386249858886">
        <ele>1152.5999999999999</ele>
        <time>2003-04-14T08:47:25Z</time>
      </trkpt>
      <trkpt lat="31.447081994265318" lon="-5.339137958362699">
        <ele>1154.5</ele>
        <time>2003-04-14T08:47:26Z</time>
      </trkpt>
      <trkpt lat="31.447679959237576" lon="-5.340098021551967">
        <ele>1157.4000000000001</ele>
        <time>2003-04-14T08:47:30Z</time>
      </trkpt>
      <trkpt lat="31.448338022455573" lon="-5.34105196595192">
        <ele>1159.4000000000001</ele>
        <time>2003-04-14T08:47:34Z</time>
      </trkpt>
      <trkpt lat="31.449004970490932" lon="-5.342023009434342">
        <ele>1161</ele>
        <time>2003-04-14T08:47:38Z</time>
      </trkpt>
      <trkpt lat="31.449678037315607" lon="-5.343017019331455">
        <ele>1162.9000000000001</ele>
        <time>2003-04-14T08:47:42Z</time>
      </trkpt>
      <trkpt lat="31.450369963422418" lon="-5.344031983986497">
        <ele>1163.8</ele>
        <time>2003-04-14T08:47:47Z</time>
      </trkpt>
      <trkpt lat="31.451049987226725" lon="-5.345036974176765">
        <ele>1164.8</ele>
        <time>2003-04-14T08:47:51Z</time>
      </trkpt>
      <trkpt lat="31.451697992160916" lon="-5.345987984910607">
        <ele>1165</ele>
        <time>2003-04-14T08:47:55Z</time>
      </trkpt>
      <trkpt lat="31.452284976840019" lon="-5.346898008137941">
        <ele>1164.5999999999999</ele>
        <time>2003-04-14T08:47:59Z</time>
      </trkpt>
      <trkpt lat="31.452622013166547" lon="-5.347678028047085">
        <ele>1164.5</ele>
        <time>2003-04-14T08:48:01Z</time>
      </trkpt>
      <trkpt lat="31.452859975397587" lon="-5.348543040454388">
        <ele>1164.2</ele>
        <time>2003-04-14T08:48:04Z</time>
      </trkpt>
      <trkpt lat="31.453098021447659" lon="-5.34979697316885">
        <ele>1163.9000000000001</ele>
        <time>2003-04-14T08:48:08Z</time>
      </trkpt>
      <trkpt lat="31.453362973406911" lon="-5.351103041321039">
        <ele>1164</ele>
        <time>2003-04-14T08:48:12Z</time>
      </trkpt>
      <trkpt lat="31.453637983649969" lon="-5.35243802703917">
        <ele>1164.0999999999999</ele>
        <time>2003-04-14T08:48:16Z</time>
      </trkpt>
      <trkpt lat="31.45391701720655" lon="-5.353807965293527">
        <ele>1164.0999999999999</ele>
        <time>2003-04-14T08:48:20Z</time>
      </trkpt>
      <trkpt lat="31.454190015792847" lon="-5.355170024558902">
        <ele>1163.5999999999999</ele>
        <time>2003-04-14T08:48:24Z</time>
      </trkpt>
      <trkpt lat="31.454462008550763" lon="-5.356512973085046">
        <ele>1163.2</ele>
        <time>2003-04-14T08:48:28Z</time>
      </trkpt>
      <trkpt lat="31.454722015187144" lon="-5.357812000438571">
        <ele>1162.3</ele>
        <time>2003-04-14T08:48:32Z</time>
      </trkpt>
      <trkpt lat="31.454982021823525" lon="-5.359071968123317">
        <ele>1162</ele>
        <time>2003-04-14T08:48:36Z</time>
      </trkpt>
      <trkpt lat="31.455244962126017" lon="-5.360266976058483">
        <ele>1162</ele>
        <time>2003-04-14T08:48:41Z</time>
      </trkpt>
      <trkpt lat="31.455555008724332" lon="-5.361389983445406">
        <ele>1162.4000000000001</ele>
        <time>2003-04-14T08:48:45Z</time>
      </trkpt>
      <trkpt lat="31.455770004540682" lon="-5.36251500248909">
        <ele>1162.9000000000001</ele>
        <time>2003-04-14T08:48:49Z</time>
      </trkpt>
      <trkpt lat="31.455775033682585" lon="-5.363095030188561">
        <ele>1163.3</ele>
        <time>2003-04-14T08:48:50Z</time>
      </trkpt>
      <trkpt lat="31.455704960972071" lon="-5.363689977675676">
        <ele>1163</ele>
        <time>2003-04-14T08:48:53Z</time>
      </trkpt>
      <trkpt lat="31.45548501983285" lon="-5.364826982840896">
        <ele>1162.5999999999999</ele>
        <time>2003-04-14T08:48:57Z</time>
      </trkpt>
      <trkpt lat="31.455436991527677" lon="-5.365653019398451">
        <ele>1162.4000000000001</ele>
        <time>2003-04-14T08:48:59Z</time>
      </trkpt>
      <trkpt lat="31.455506980419159" lon="-5.366198010742664">
        <ele>1162.3</ele>
        <time>2003-04-14T08:49:02Z</time>
      </trkpt>
      <trkpt lat="31.455687023699284" lon="-5.366965038701892">
        <ele>1162.5</ele>
        <time>2003-04-14T08:49:05Z</time>
      </trkpt>
      <trkpt lat="31.456087008118629" lon="-5.368000036105514">
        <ele>1163.3</ele>
        <time>2003-04-14T08:49:09Z</time>
      </trkpt>
      <trkpt lat="31.456522028893232" lon="-5.369079960510135">
        <ele>1164.5</ele>
        <time>2003-04-14T08:49:13Z</time>
      </trkpt>
      <trkpt lat="31.456987978890538" lon="-5.370159968733788">
        <ele>1165.5</ele>
        <time>2003-04-14T08:49:17Z</time>
      </trkpt>
      <trkpt lat="31.457474967464805" lon="-5.37128297612071">
        <ele>1166.5999999999999</ele>
        <time>2003-04-14T08:49:21Z</time>
      </trkpt>
      <trkpt lat="31.457962039858103" lon="-5.372401960194111">
        <ele>1167.8</ele>
        <time>2003-04-14T08:49:25Z</time>
      </trkpt>
      <trkpt lat="31.458439975976944" lon="-5.373484985902906">
        <ele>1169</ele>
        <time>2003-04-14T08:49:29Z</time>
      </trkpt>
      <trkpt lat="31.458911960944533" lon="-5.374561976641417">
        <ele>1170.2</ele>
        <time>2003-04-14T08:49:33Z</time>
      </trkpt>
      <trkpt lat="31.459387969225645" lon="-5.375662017613649">
        <ele>1171.0999999999999</ele>
        <time>2003-04-14T08:49:37Z</time>
      </trkpt>
      <trkpt lat="31.459881998598576" lon="-5.376817965880036">
        <ele>1172.2</ele>
        <time>2003-04-14T08:49:40Z</time>
      </trkpt>
      <trkpt lat="31.460397988557816" lon="-5.377980032935739">
        <ele>1173.5999999999999</ele>
        <time>2003-04-14T08:49:44Z</time>
      </trkpt>
      <trkpt lat="31.46094499155879" lon="-5.379164982587099">
        <ele>1174.7</ele>
        <time>2003-04-14T08:49:48Z</time>
      </trkpt>
      <trkpt lat="31.461482020094991" lon="-5.380314979702234">
        <ele>1174.5999999999999</ele>
        <time>2003-04-14T08:49:52Z</time>
      </trkpt>
      <trkpt lat="31.462024999782443" lon="-5.38150797598064">
        <ele>1174.3</ele>
        <time>2003-04-14T08:49:56Z</time>
      </trkpt>
      <trkpt lat="31.462581977248192" lon="-5.382712036371231">
        <ele>1175.4000000000001</ele>
        <time>2003-04-14T08:50:00Z</time>
      </trkpt>
      <trkpt lat="31.463144989684224" lon="-5.383930010721088">
        <ele>1176.8</ele>
        <time>2003-04-14T08:50:04Z</time>
      </trkpt>
      <trkpt lat="31.463708002120256" lon="-5.385165000334382">
        <ele>1178.4000000000001</ele>
        <time>2003-04-14T08:50:08Z</time>
      </trkpt>
      <trkpt lat="31.464264979586005" lon="-5.386377023532987">
        <ele>1179.8</ele>
        <time>2003-04-14T08:50:12Z</time>
      </trkpt>
      <trkpt lat="31.464817011728883" lon="-5.387562979012728">
        <ele>1181.2</ele>
        <time>2003-04-14T08:50:16Z</time>
      </trkpt>
      <trkpt lat="31.465356973931193" lon="-5.388739965856075">
        <ele>1181.9000000000001</ele>
        <time>2003-04-14T08:50:20Z</time>
      </trkpt>
      <trkpt lat="31.46590699441731" lon="-5.389942014589906">
        <ele>1182.7</ele>
        <time>2003-04-14T08:50:24Z</time>
      </trkpt>
      <trkpt lat="31.466470006853342" lon="-5.391154959797859">
        <ele>1183.5999999999999</ele>
        <time>2003-04-14T08:50:29Z</time>
      </trkpt>
      <trkpt lat="31.467027990147471" lon="-5.392391961067915">
        <ele>1184.3</ele>
        <time>2003-04-14T08:50:33Z</time>
      </trkpt>
      <trkpt lat="31.467418000102043" lon="-5.39334699511528">
        <ele>1185.3</ele>
        <time>2003-04-14T08:50:35Z</time>
      </trkpt>
      <trkpt lat="31.467804992571473" lon="-5.394307980313897">
        <ele>1186.0999999999999</ele>
        <time>2003-04-14T08:50:38Z</time>
      </trkpt>
      <trkpt lat="31.468187039718032" lon="-5.395278017967939">
        <ele>1186.5999999999999</ele>
        <time>2003-04-14T08:50:42Z</time>
      </trkpt>
      <trkpt lat="31.468567997217178" lon="-5.396246965974569">
        <ele>1187.0999999999999</ele>
        <time>2003-04-14T08:50:45Z</time>
      </trkpt>
      <trkpt lat="31.468954989686608" lon="-5.397212980315089">
        <ele>1188.2</ele>
        <time>2003-04-14T08:50:47Z</time>
      </trkpt>
      <trkpt lat="31.469339970499277" lon="-5.398187041282654">
        <ele>1189.2</ele>
        <time>2003-04-14T08:50:50Z</time>
      </trkpt>
      <trkpt lat="31.469729980453849" lon="-5.399151965975761">
        <ele>1190</ele>
        <time>2003-04-14T08:50:54Z</time>
      </trkpt>
      <trkpt lat="31.470116972923279" lon="-5.400117980316281">
        <ele>1191</ele>
        <time>2003-04-14T08:50:57Z</time>
      </trkpt>
      <trkpt lat="31.470619970932603" lon="-5.401390017941594">
        <ele>1192.3</ele>
        <time>2003-04-14T08:51:01Z</time>
      </trkpt>
      <trkpt lat="31.471126992255449" lon="-5.402664989233017">
        <ele>1193.4000000000001</ele>
        <time>2003-04-14T08:51:05Z</time>
      </trkpt>
      <trkpt lat="31.471507027745247" lon="-5.403623040765524">
        <ele>1193.7</ele>
        <time>2003-04-14T08:51:08Z</time>
      </trkpt>
      <trkpt lat="31.472007008269429" lon="-5.404877979308367">
        <ele>1194.5</ele>
        <time>2003-04-14T08:51:12Z</time>
      </trkpt>
      <trkpt lat="31.472492991015315" lon="-5.406095031648874">
        <ele>1195.5</ele>
        <time>2003-04-14T08:51:16Z</time>
      </trkpt>
      <trkpt lat="31.472952989861369" lon="-5.407239999622107">
        <ele>1196.4000000000001</ele>
        <time>2003-04-14T08:51:20Z</time>
      </trkpt>
      <trkpt lat="31.473382981494069" lon="-5.408342974260449">
        <ele>1197.0999999999999</ele>
        <time>2003-04-14T08:51:24Z</time>
      </trkpt>
      <trkpt lat="31.473816996440291" lon="-5.409362968057394">
        <ele>1198.0999999999999</ele>
        <time>2003-04-14T08:51:28Z</time>
      </trkpt>
      <trkpt lat="31.474376991391182" lon="-5.41034298017621">
        <ele>1199</ele>
        <time>2003-04-14T08:51:32Z</time>
      </trkpt>
      <trkpt lat="31.474966993555427" lon="-5.411383006721735">
        <ele>1199.7</ele>
        <time>2003-04-14T08:51:36Z</time>
      </trkpt>
      <trkpt lat="31.475545009598136" lon="-5.412396965548396">
        <ele>1200.8</ele>
        <time>2003-04-14T08:51:40Z</time>
      </trkpt>
      <trkpt lat="31.47606804035604" lon="-5.41332702152431">
        <ele>1201.7</ele>
        <time>2003-04-14T08:51:44Z</time>
      </trkpt>
      <trkpt lat="31.47658696398139" lon="-5.414239978417754">
        <ele>1202.3</ele>
        <time>2003-04-14T08:51:48Z</time>
      </trkpt>
      <trkpt lat="31.47712298668921" lon="-5.415191994979978">
        <ele>1203</ele>
        <time>2003-04-14T08:51:52Z</time>
      </trkpt>
      <trkpt lat="31.477669989690185" lon="-5.416145017370582">
        <ele>1204</ele>
        <time>2003-04-14T08:51:55Z</time>
      </trkpt>
      <trkpt lat="31.478182040154934" lon="-5.417050011456013">
        <ele>1204.5</ele>
        <time>2003-04-14T08:51:59Z</time>
      </trkpt>
      <trkpt lat="31.47869199514389" lon="-5.41798803023994">
        <ele>1205.2</ele>
        <time>2003-04-14T08:52:03Z</time>
      </trkpt>
      <trkpt lat="31.479183007031679" lon="-5.418882966041565">
        <ele>1205.9000000000001</ele>
        <time>2003-04-14T08:52:07Z</time>
      </trkpt>
      <trkpt lat="31.479482995346189" lon="-5.41940800845623">
        <ele>1206.3</ele>
        <time>2003-04-14T08:52:11Z</time>
      </trkpt>
      <trkpt lat="31.480096969753504" lon="-5.420449962839484">
        <ele>1207.4000000000001</ele>
        <time>2003-04-14T08:52:17Z</time>
      </trkpt>
      <trkpt lat="31.480661993846297" lon="-5.421446990221739">
        <ele>1209.0999999999999</ele>
        <time>2003-04-14T08:52:22Z</time>
      </trkpt>
      <trkpt lat="31.481282003223896" lon="-5.422534961253405">
        <ele>1210.8</ele>
        <time>2003-04-14T08:52:27Z</time>
      </trkpt>
      <trkpt lat="31.481781983748078" lon="-5.423444984480739">
        <ele>1212.4000000000001</ele>
        <time>2003-04-14T08:52:31Z</time>
      </trkpt>
      <trkpt lat="31.482296967878938" lon="-5.424391971901059">
        <ele>1214</ele>
        <time>2003-04-14T08:52:35Z</time>
      </trkpt>
      <trkpt lat="31.482868026942015" lon="-5.425384975969791">
        <ele>1215.4000000000001</ele>
        <time>2003-04-14T08:52:39Z</time>
      </trkpt>
      <trkpt lat="31.483483007177711" lon="-5.426415028050542">
        <ele>1216.5999999999999</ele>
        <time>2003-04-14T08:52:44Z</time>
      </trkpt>
      <trkpt lat="31.48408499546349" lon="-5.427501993253827">
        <ele>1217.5</ele>
        <time>2003-04-14T08:52:48Z</time>
      </trkpt>
      <trkpt lat="31.484653037041426" lon="-5.428627012297511">
        <ele>1217.9000000000001</ele>
        <time>2003-04-14T08:52:52Z</time>
      </trkpt>
      <trkpt lat="31.485237004235387" lon="-5.429811961948872">
        <ele>1218.0999999999999</ele>
        <time>2003-04-14T08:52:56Z</time>
      </trkpt>
      <trkpt lat="31.485847039148211" lon="-5.431017028167844">
        <ele>1218.0999999999999</ele>
        <time>2003-04-14T08:53:00Z</time>
      </trkpt>
      <trkpt lat="31.486450033262372" lon="-5.432219998911023">
        <ele>1218.7</ele>
        <time>2003-04-14T08:53:04Z</time>
      </trkpt>
      <trkpt lat="31.487041963264346" lon="-5.433409977704287">
        <ele>1220.0999999999999</ele>
        <time>2003-04-14T08:53:08Z</time>
      </trkpt>
      <trkpt lat="31.487547978758812" lon="-5.434423014521599">
        <ele>1221.7</ele>
        <time>2003-04-14T08:53:12Z</time>
      </trkpt>
      <trkpt lat="31.487721987068653" lon="-5.434761978685856">
        <ele>1222</ele>
        <time>2003-04-14T08:53:13Z</time>
      </trkpt>
      <trkpt lat="31.487858025357127" lon="-5.435030031949282">
        <ele>1222.3</ele>
        <time>2003-04-14T08:53:16Z</time>
      </trkpt>
      <trkpt lat="31.488384995609522" lon="-5.436090007424355">
        <ele>1223.3</ele>
        <time>2003-04-14T08:53:23Z</time>
      </trkpt>
      <trkpt lat="31.488878019154072" lon="-5.437072031199932">
        <ele>1224.0999999999999</ele>
        <time>2003-04-14T08:53:28Z</time>
      </trkpt>
      <trkpt lat="31.489450000226498" lon="-5.438212975859642">
        <ele>1225</ele>
        <time>2003-04-14T08:53:32Z</time>
      </trkpt>
      <trkpt lat="31.489951992407441" lon="-5.439216960221529">
        <ele>1225.9000000000001</ele>
        <time>2003-04-14T08:53:36Z</time>
      </trkpt>
      <trkpt lat="31.490475023165345" lon="-5.440257992595434">
        <ele>1226.3</ele>
        <time>2003-04-14T08:53:40Z</time>
      </trkpt>
      <trkpt lat="31.491012973710895" lon="-5.441330038011074">
        <ele>1227.2</ele>
        <time>2003-04-14T08:53:44Z</time>
      </trkpt>
      <trkpt lat="31.491565005853772" lon="-5.442437035962939">
        <ele>1228</ele>
        <time>2003-04-14T08:53:48Z</time>
      </trkpt>
      <trkpt lat="31.49211703799665" lon="-5.443545039743185">
        <ele>1229.8</ele>
        <time>2003-04-14T08:53:52Z</time>
      </trkpt>
      <trkpt lat="31.492672003805637" lon="-5.44465497136116">
        <ele>1231.5999999999999</ele>
        <time>2003-04-14T08:53:56Z</time>
      </trkpt>
      <trkpt lat="31.493231998756528" lon="-5.445768004283309">
        <ele>1233.3</ele>
        <time>2003-04-14T08:54:00Z</time>
      </trkpt>
      <trkpt lat="31.493771960958838" lon="-5.446902997791767">
        <ele>1234.9000000000001</ele>
        <time>2003-04-14T08:54:05Z</time>
      </trkpt>
      <trkpt lat="31.49426699616015" lon="-5.448087025433779">
        <ele>1236.4000000000001</ele>
        <time>2003-04-14T08:54:09Z</time>
      </trkpt>
      <trkpt lat="31.494764965027571" lon="-5.449286978691816">
        <ele>1236.8</ele>
        <time>2003-04-14T08:54:13Z</time>
      </trkpt>
      <trkpt lat="31.495237033814192" lon="-5.450424989685416">
        <ele>1238.4000000000001</ele>
        <time>2003-04-14T08:54:17Z</time>
      </trkpt>
      <trkpt lat="31.495655039325356" lon="-5.451477002352476">
        <ele>1239.7</ele>
        <time>2003-04-14T08:54:21Z</time>
      </trkpt>
      <trkpt lat="31.495857965201139" lon="-5.452298009768128">
        <ele>1239.8</ele>
        <time>2003-04-14T08:54:23Z</time>
      </trkpt>
      <trkpt lat="31.49596500210464" lon="-5.453195041045547">
        <ele>1239.9000000000001</ele>
        <time>2003-04-14T08:54:26Z</time>
      </trkpt>
      <trkpt lat="31.495955027639866" lon="-5.454460037872195">
        <ele>1240.2</ele>
        <time>2003-04-14T08:54:30Z</time>
      </trkpt>
      <trkpt lat="31.495929965749383" lon="-5.455732997506857">
        <ele>1239.8</ele>
        <time>2003-04-14T08:54:34Z</time>
      </trkpt>
      <trkpt lat="31.495914962142706" lon="-5.456911996006966">
        <ele>1240.5</ele>
        <time>2003-04-14T08:54:38Z</time>
      </trkpt>
      <trkpt lat="31.495992997661233" lon="-5.457805003970861">
        <ele>1240.4000000000001</ele>
        <time>2003-04-14T08:54:41Z</time>
      </trkpt>
      <trkpt lat="31.496264990419149" lon="-5.459011998027563">
        <ele>1241.3</ele>
        <time>2003-04-14T08:54:45Z</time>
      </trkpt>
      <trkpt lat="31.496560033410788" lon="-5.460247993469238">
        <ele>1242.4000000000001</ele>
        <time>2003-04-14T08:54:49Z</time>
      </trkpt>
      <trkpt lat="31.496877958998084" lon="-5.461492035537958">
        <ele>1243.8</ele>
        <time>2003-04-14T08:54:53Z</time>
      </trkpt>
      <trkpt lat="31.497196974232793" lon="-5.462758038192987">
        <ele>1245.2</ele>
        <time>2003-04-14T08:54:57Z</time>
      </trkpt>
      <trkpt lat="31.497507020831108" lon="-5.463982969522476">
        <ele>1247</ele>
        <time>2003-04-14T08:55:01Z</time>
      </trkpt>
      <trkpt lat="31.497804997488856" lon="-5.465172026306391">
        <ele>1247.9000000000001</ele>
        <time>2003-04-14T08:55:05Z</time>
      </trkpt>
      <trkpt lat="31.49811202660203" lon="-5.46635203063488">
        <ele>1248.7</ele>
        <time>2003-04-14T08:55:09Z</time>
      </trkpt>
      <trkpt lat="31.498506981879473" lon="-5.4674700088799">
        <ele>1250.3</ele>
        <time>2003-04-14T08:55:13Z</time>
      </trkpt>
      <trkpt lat="31.498967986553907" lon="-5.468502994626761">
        <ele>1252.2</ele>
        <time>2003-04-14T08:55:17Z</time>
      </trkpt>
      <trkpt lat="31.499484982341528" lon="-5.469677969813347">
        <ele>1254.0999999999999</ele>
        <time>2003-04-14T08:55:23Z</time>
      </trkpt>
      <trkpt lat="31.499908016994596" lon="-5.470648007467389">
        <ele>1255.3</ele>
        <time>2003-04-14T08:55:27Z</time>
      </trkpt>
      <trkpt lat="31.500321999192238" lon="-5.471602035686374">
        <ele>1256.3</ele>
        <time>2003-04-14T08:55:31Z</time>
      </trkpt>
      <trkpt lat="31.500747967511415" lon="-5.472569977864623">
        <ele>1257.5</ele>
        <time>2003-04-14T08:55:35Z</time>
      </trkpt>
      <trkpt lat="31.50118499994278" lon="-5.473579997196794">
        <ele>1258.5</ele>
        <time>2003-04-14T08:55:39Z</time>
      </trkpt>
      <trkpt lat="31.501641981303692" lon="-5.474620023742318">
        <ele>1259.5999999999999</ele>
        <time>2003-04-14T08:55:43Z</time>
      </trkpt>
      <trkpt lat="31.502110026776791" lon="-5.475689973682165">
        <ele>1261</ele>
        <time>2003-04-14T08:55:47Z</time>
      </trkpt>
      <trkpt lat="31.502568013966084" lon="-5.47675003297627">
        <ele>1262.2</ele>
        <time>2003-04-14T08:55:51Z</time>
      </trkpt>
      <trkpt lat="31.503027006983757" lon="-5.477797016501427">
        <ele>1263.0999999999999</ele>
        <time>2003-04-14T08:55:55Z</time>
      </trkpt>
      <trkpt lat="31.503493040800095" lon="-5.47887803055346">
        <ele>1264.3</ele>
        <time>2003-04-14T08:55:58Z</time>
      </trkpt>
      <trkpt lat="31.503967959433794" lon="-5.479959966614842">
        <ele>1265.9000000000001</ele>
        <time>2003-04-14T08:56:02Z</time>
      </trkpt>
      <trkpt lat="31.504442039877176" lon="-5.481063025072217">
        <ele>1268</ele>
        <time>2003-04-14T08:56:06Z</time>
      </trkpt>
      <trkpt lat="31.504916958510876" lon="-5.482149990275502">
        <ele>1270.2</ele>
        <time>2003-04-14T08:56:10Z</time>
      </trkpt>
      <trkpt lat="31.505387015640736" lon="-5.483237039297819">
        <ele>1271.4000000000001</ele>
        <time>2003-04-14T08:56:14Z</time>
      </trkpt>
      <trkpt lat="31.505850031971931" lon="-5.484301960095763">
        <ele>1272.3</ele>
        <time>2003-04-14T08:56:18Z</time>
      </trkpt>
      <trkpt lat="31.50629997253418" lon="-5.485335029661655">
        <ele>1273</ele>
        <time>2003-04-14T08:56:22Z</time>
      </trkpt>
      <trkpt lat="31.506747985258698" lon="-5.486358040943742">
        <ele>1275.0999999999999</ele>
        <time>2003-04-14T08:56:26Z</time>
      </trkpt>
      <trkpt lat="31.507209995761514" lon="-5.487411981448531">
        <ele>1277.0999999999999</ele>
        <time>2003-04-14T08:56:30Z</time>
      </trkpt>
      <trkpt lat="31.507648034021258" lon="-5.488412026315928">
        <ele>1278.9000000000001</ele>
        <time>2003-04-14T08:56:34Z</time>
      </trkpt>
      <trkpt lat="31.508086994290352" lon="-5.489437971264124">
        <ele>1280.0999999999999</ele>
        <time>2003-04-14T08:56:38Z</time>
      </trkpt>
      <trkpt lat="31.508538024500012" lon="-5.49048000946641">
        <ele>1281.4000000000001</ele>
        <time>2003-04-14T08:56:42Z</time>
      </trkpt>
      <trkpt lat="31.508977990597486" lon="-5.491488017141819">
        <ele>1281.8</ele>
        <time>2003-04-14T08:56:47Z</time>
      </trkpt>
      <trkpt lat="31.509422985836864" lon="-5.492514967918396">
        <ele>1282.5</ele>
        <time>2003-04-14T08:56:51Z</time>
      </trkpt>
      <trkpt lat="31.509967977181077" lon="-5.493503026664257">
        <ele>1283.0999999999999</ele>
        <time>2003-04-14T08:56:55Z</time>
      </trkpt>
      <trkpt lat="31.510644983500242" lon="-5.494441967457533">
        <ele>1284.3</ele>
        <time>2003-04-14T08:56:59Z</time>
      </trkpt>
      <trkpt lat="31.511310003697872" lon="-5.495364982634783">
        <ele>1285.5999999999999</ele>
        <time>2003-04-14T08:57:03Z</time>
      </trkpt>
      <trkpt lat="31.511937975883484" lon="-5.496262013912201">
        <ele>1286.3</ele>
        <time>2003-04-14T08:57:07Z</time>
      </trkpt>
      <trkpt lat="31.512556979432702" lon="-5.497121997177601">
        <ele>1286.8</ele>
        <time>2003-04-14T08:57:11Z</time>
      </trkpt>
      <trkpt lat="31.513186963275075" lon="-5.498017016798258">
        <ele>1287.7</ele>
        <time>2003-04-14T08:57:15Z</time>
      </trkpt>
      <trkpt lat="31.513824993744493" lon="-5.498919999226928">
        <ele>1289.5</ele>
        <time>2003-04-14T08:57:19Z</time>
      </trkpt>
      <trkpt lat="31.514454977586865" lon="-5.499812001362443">
        <ele>1291</ele>
        <time>2003-04-14T08:57:23Z</time>
      </trkpt>
      <trkpt lat="31.515083033591509" lon="-5.50068698823452">
        <ele>1291.5999999999999</ele>
        <time>2003-04-14T08:57:27Z</time>
      </trkpt>
      <trkpt lat="31.515702959150076" lon="-5.501564992591739">
        <ele>1291.8</ele>
        <time>2003-04-14T08:57:31Z</time>
      </trkpt>
      <trkpt lat="31.516326991841197" lon="-5.502450037747622">
        <ele>1292.3</ele>
        <time>2003-04-14T08:57:35Z</time>
      </trkpt>
      <trkpt lat="31.516963010653853" lon="-5.503347991034389">
        <ele>1293.0999999999999</ele>
        <time>2003-04-14T08:57:39Z</time>
      </trkpt>
      <trkpt lat="31.517591988667846" lon="-5.504233036190271">
        <ele>1293.5999999999999</ele>
        <time>2003-04-14T08:57:43Z</time>
      </trkpt>
      <trkpt lat="31.518237981945276" lon="-5.505142975598574">
        <ele>1293.9000000000001</ele>
        <time>2003-04-14T08:57:46Z</time>
      </trkpt>
      <trkpt lat="31.518877018243074" lon="-5.506049981340766">
        <ele>1294.9000000000001</ele>
        <time>2003-04-14T08:57:50Z</time>
      </trkpt>
      <trkpt lat="31.519523011520505" lon="-5.506952963769436">
        <ele>1295</ele>
        <time>2003-04-14T08:57:54Z</time>
      </trkpt>
      <trkpt lat="31.520098010078073" lon="-5.507780006155372">
        <ele>1295.5</ele>
        <time>2003-04-14T08:57:58Z</time>
      </trkpt>
      <trkpt lat="31.520793037489057" lon="-5.508751971647143">
        <ele>1296.7</ele>
        <time>2003-04-14T08:58:03Z</time>
      </trkpt>
      <trkpt lat="31.521529974415898" lon="-5.509697031229734">
        <ele>1297.5</ele>
        <time>2003-04-14T08:58:09Z</time>
      </trkpt>
      <trkpt lat="31.522403033450246" lon="-5.510524995625019">
        <ele>1298.3</ele>
        <time>2003-04-14T08:58:13Z</time>
      </trkpt>
      <trkpt lat="31.523256981745362" lon="-5.511354971677065">
        <ele>1299.3</ele>
        <time>2003-04-14T08:58:18Z</time>
      </trkpt>
      <trkpt lat="31.523962989449501" lon="-5.512014962732792">
        <ele>1300.0999999999999</ele>
        <time>2003-04-14T08:58:22Z</time>
      </trkpt>
      <trkpt lat="31.524817021563649" lon="-5.512800011783838">
        <ele>1301.5</ele>
        <time>2003-04-14T08:58:28Z</time>
      </trkpt>
      <trkpt lat="31.525663007050753" lon="-5.513562010601163">
        <ele>1303.0999999999999</ele>
        <time>2003-04-14T08:58:33Z</time>
      </trkpt>
      <trkpt lat="31.526549980044365" lon="-5.514367008581758">
        <ele>1304.4000000000001</ele>
        <time>2003-04-14T08:58:37Z</time>
      </trkpt>
      <trkpt lat="31.5272699855268" lon="-5.515018031001091">
        <ele>1305.8</ele>
        <time>2003-04-14T08:58:41Z</time>
      </trkpt>
      <trkpt lat="31.528110019862652" lon="-5.515777012333274">
        <ele>1307.9000000000001</ele>
        <time>2003-04-14T08:58:47Z</time>
      </trkpt>
      <trkpt lat="31.528943013399839" lon="-5.516529958695173">
        <ele>1309.9000000000001</ele>
        <time>2003-04-14T08:58:52Z</time>
      </trkpt>
      <trkpt lat="31.529696965590119" lon="-5.517226997762919">
        <ele>1311</ele>
        <time>2003-04-14T08:58:56Z</time>
      </trkpt>
      <trkpt lat="31.530495006591082" lon="-5.517984973266721">
        <ele>1311.4000000000001</ele>
        <time>2003-04-14T08:59:03Z</time>
      </trkpt>
      <trkpt lat="31.530731962993741" lon="-5.51828496158123">
        <ele>1310.5</ele>
        <time>2003-04-14T08:59:04Z</time>
      </trkpt>
      <trkpt lat="31.531021976843476" lon="-5.518773039802909">
        <ele>1307.8</ele>
        <time>2003-04-14T08:59:07Z</time>
      </trkpt>
      <trkpt lat="31.531252982094884" lon="-5.519319958984852">
        <ele>1304.8</ele>
        <time>2003-04-14T08:59:11Z</time>
      </trkpt>
      <trkpt lat="31.531512988731265" lon="-5.520284967496991">
        <ele>1300.3</ele>
        <time>2003-04-14T08:59:15Z</time>
      </trkpt>
      <trkpt lat="31.531792022287846" lon="-5.521387020125985">
        <ele>1300.7</ele>
        <time>2003-04-14T08:59:22Z</time>
      </trkpt>
      <trkpt lat="31.531901992857456" lon="-5.521824974566698">
        <ele>1301.9000000000001</ele>
        <time>2003-04-14T08:59:24Z</time>
      </trkpt>
      <trkpt lat="31.532199969515204" lon="-5.523015037178993">
        <ele>1304.4000000000001</ele>
        <time>2003-04-14T08:59:31Z</time>
      </trkpt>
      <trkpt lat="31.532438015565276" lon="-5.52412698045373">
        <ele>1306</ele>
        <time>2003-04-14T08:59:38Z</time>
      </trkpt>
      <trkpt lat="31.532495012506843" lon="-5.52490197122097">
        <ele>1307.4000000000001</ele>
        <time>2003-04-14T08:59:42Z</time>
      </trkpt>
      <trkpt lat="31.532457964494824" lon="-5.52567302249372">
        <ele>1309.3</ele>
        <time>2003-04-14T08:59:46Z</time>
      </trkpt>
      <trkpt lat="31.53227498754859" lon="-5.526847997680306">
        <ele>1314.4000000000001</ele>
        <time>2003-04-14T08:59:51Z</time>
      </trkpt>
      <trkpt lat="31.53221296146512" lon="-5.527346972376108">
        <ele>1316.3</ele>
        <time>2003-04-14T08:59:54Z</time>
      </trkpt>
      <trkpt lat="31.532068038359284" lon="-5.528393033891916">
        <ele>1318.5</ele>
        <time>2003-04-14T09:00:01Z</time>
      </trkpt>
      <trkpt lat="31.531890006735921" lon="-5.529232984408736">
        <ele>1319.5999999999999</ele>
        <time>2003-04-14T09:00:08Z</time>
      </trkpt>
      <trkpt lat="31.531741982325912" lon="-5.529470024630427">
        <ele>1318.7</ele>
        <time>2003-04-14T09:00:09Z</time>
      </trkpt>
      <trkpt lat="31.53165003284812" lon="-5.5295629799366">
        <ele>1318.0999999999999</ele>
        <time>2003-04-14T09:00:10Z</time>
      </trkpt>
      <trkpt lat="31.531547019258142" lon="-5.529637997969985">
        <ele>1317.0999999999999</ele>
        <time>2003-04-14T09:00:12Z</time>
      </trkpt>
      <trkpt lat="31.530877975746989" lon="-5.529988026246429">
        <ele>1310.7</ele>
        <time>2003-04-14T09:00:17Z</time>
      </trkpt>
      <trkpt lat="31.530755013227463" lon="-5.529998000711203">
        <ele>1309.7</ele>
        <time>2003-04-14T09:00:18Z</time>
      </trkpt>
      <trkpt lat="31.530631966888905" lon="-5.529958019033074">
        <ele>1308.5999999999999</ele>
        <time>2003-04-14T09:00:20Z</time>
      </trkpt>
      <trkpt lat="31.530521996319294" lon="-5.529877971857786">
        <ele>1307.5999999999999</ele>
        <time>2003-04-14T09:00:21Z</time>
      </trkpt>
      <trkpt lat="31.530434992164373" lon="-5.529766995459795">
        <ele>1306.7</ele>
        <time>2003-04-14T09:00:21Z</time>
      </trkpt>
      <trkpt lat="31.530371960252523" lon="-5.529637997969985">
        <ele>1306</ele>
        <time>2003-04-14T09:00:23Z</time>
      </trkpt>
      <trkpt lat="31.529856976121664" lon="-5.528814978897572">
        <ele>1299.7</ele>
        <time>2003-04-14T09:00:29Z</time>
      </trkpt>
      <trkpt lat="31.529778018593788" lon="-5.528741972520948">
        <ele>1299</ele>
        <time>2003-04-14T09:00:32Z</time>
      </trkpt>
      <trkpt lat="31.529687996953726" lon="-5.52868296392262">
        <ele>1298.0999999999999</ele>
        <time>2003-04-14T09:00:32Z</time>
      </trkpt>
      <trkpt lat="31.529581965878606" lon="-5.528654968366027">
        <ele>1297.2</ele>
        <time>2003-04-14T09:00:32Z</time>
      </trkpt>
      <trkpt lat="31.529462020844221" lon="-5.528662009164691">
        <ele>1296.5</ele>
        <time>2003-04-14T09:00:33Z</time>
      </trkpt>
      <trkpt lat="31.529332017526031" lon="-5.528701990842819">
        <ele>1295.8</ele>
        <time>2003-04-14T09:00:35Z</time>
      </trkpt>
      <trkpt lat="31.528673032298684" lon="-5.528983036056161">
        <ele>1294.4000000000001</ele>
        <time>2003-04-14T09:00:40Z</time>
      </trkpt>
      <trkpt lat="31.527714980766177" lon="-5.529361981898546">
        <ele>1293.3</ele>
        <time>2003-04-14T09:00:47Z</time>
      </trkpt>
      <trkpt lat="31.526885004714131" lon="-5.529677979648113">
        <ele>1291.5999999999999</ele>
        <time>2003-04-14T09:00:54Z</time>
      </trkpt>
      <trkpt lat="31.526052011176944" lon="-5.529975034296513">
        <ele>1289.9000000000001</ele>
        <time>2003-04-14T09:01:02Z</time>
      </trkpt>
      <trkpt lat="31.52595997788012" lon="-5.529977967962623">
        <ele>1290.3</ele>
        <time>2003-04-14T09:01:03Z</time>
      </trkpt>
      <trkpt lat="31.525802984833717" lon="-5.52990697324276">
        <ele>1290.5</ele>
        <time>2003-04-14T09:01:04Z</time>
      </trkpt>
      <trkpt lat="31.525732995942235" lon="-5.529834972694516">
        <ele>1290.8</ele>
        <time>2003-04-14T09:01:06Z</time>
      </trkpt>
      <trkpt lat="31.52557197958231" lon="-5.529715027660132">
        <ele>1291.5</ele>
        <time>2003-04-14T09:01:07Z</time>
      </trkpt>
      <trkpt lat="31.52535798959434" lon="-5.529572032392025">
        <ele>1292.0999999999999</ele>
        <time>2003-04-14T09:01:11Z</time>
      </trkpt>
      <trkpt lat="31.524794977158308" lon="-5.529246982187033">
        <ele>1292.8</ele>
        <time>2003-04-14T09:01:18Z</time>
      </trkpt>
      <trkpt lat="31.524613006040454" lon="-5.529249999672175">
        <ele>1292.8</ele>
        <time>2003-04-14T09:01:19Z</time>
      </trkpt>
      <trkpt lat="31.5244120080024" lon="-5.529292998835445">
        <ele>1292.9000000000001</ele>
        <time>2003-04-14T09:01:22Z</time>
      </trkpt>
      <trkpt lat="31.524191983044147" lon="-5.52930498495698">
        <ele>1293.4000000000001</ele>
        <time>2003-04-14T09:01:23Z</time>
      </trkpt>
      <trkpt lat="31.523795016109943" lon="-5.529234996065497">
        <ele>1297</ele>
        <time>2003-04-14T09:01:27Z</time>
      </trkpt>
      <trkpt lat="31.523416992276907" lon="-5.529216974973679">
        <ele>1301.2</ele>
        <time>2003-04-14T09:01:31Z</time>
      </trkpt>
      <trkpt lat="31.523267962038517" lon="-5.529277995228767">
        <ele>1303.4000000000001</ele>
        <time>2003-04-14T09:01:34Z</time>
      </trkpt>
      <trkpt lat="31.523147011175752" lon="-5.529416967183352">
        <ele>1305.4000000000001</ele>
        <time>2003-04-14T09:01:35Z</time>
      </trkpt>
      <trkpt lat="31.522936960682273" lon="-5.529651995748282">
        <ele>1306.5</ele>
        <time>2003-04-14T09:01:38Z</time>
      </trkpt>
      <trkpt lat="31.522673014551401" lon="-5.529936980456114">
        <ele>1306.9000000000001</ele>
        <time>2003-04-14T09:01:42Z</time>
      </trkpt>
      <trkpt lat="31.522451983764768" lon="-5.530172009021044">
        <ele>1306</ele>
        <time>2003-04-14T09:01:45Z</time>
      </trkpt>
      <trkpt lat="31.522342013195157" lon="-5.530290026217699">
        <ele>1305.3</ele>
        <time>2003-04-14T09:01:46Z</time>
      </trkpt>
      <trkpt lat="31.522094998508692" lon="-5.53055003285408">
        <ele>1303.2</ele>
        <time>2003-04-14T09:01:53Z</time>
      </trkpt>
      <trkpt lat="31.521829962730408" lon="-5.530854966491461">
        <ele>1301.7</ele>
        <time>2003-04-14T09:01:57Z</time>
      </trkpt>
      <trkpt lat="31.521354960277677" lon="-5.531676979735494">
        <ele>1300.7</ele>
        <time>2003-04-14T09:02:06Z</time>
      </trkpt>
      <trkpt lat="31.520857997238636" lon="-5.532587002962828">
        <ele>1300.7</ele>
        <time>2003-04-14T09:02:17Z</time>
      </trkpt>
      <trkpt lat="31.5207580011338" lon="-5.532765034586191">
        <ele>1300.7</ele>
        <time>2003-04-14T09:02:20Z</time>
      </trkpt>
      <trkpt lat="31.520711984485388" lon="-5.532857989892364">
        <ele>1303.4000000000001</ele>
        <time>2003-04-14T09:02:38Z</time>
      </trkpt>
      <trkpt lat="31.520607965067029" lon="-5.533078014850617">
        <ele>1302.5999999999999</ele>
        <time>2003-04-14T09:02:46Z</time>
      </trkpt>
      <trkpt lat="31.52069304138422" lon="-5.533225033432245">
        <ele>1306.5999999999999</ele>
        <time>2003-04-14T09:02:59Z</time>
      </trkpt>
      <trkpt lat="31.520185014232993" lon="-5.533148003742099">
        <ele>1311.2</ele>
        <time>2003-04-14T09:34:56Z</time>
      </trkpt>
      <trkpt lat="31.520296996459365" lon="-5.533159989863634">
        <ele>1307.2</ele>
        <time>2003-04-14T09:35:02Z</time>
      </trkpt>
      <trkpt lat="31.520376959815621" lon="-5.533072985708714">
        <ele>1306</ele>
        <time>2003-04-14T09:35:07Z</time>
      </trkpt>
      <trkpt lat="31.520485002547503" lon="-5.532911969348788">
        <ele>1305.5999999999999</ele>
        <time>2003-04-14T09:35:27Z</time>
      </trkpt>
      <trkpt lat="31.520639983937144" lon="-5.533140040934086">
        <ele>1308.3</ele>
        <time>2003-04-14T09:35:58Z</time>
      </trkpt>
      <trkpt lat="31.520760012790561" lon="-5.533302985131741">
        <ele>1310.9000000000001</ele>
        <time>2003-04-14T09:36:05Z</time>
      </trkpt>
      <trkpt lat="31.52067300863564" lon="-5.533410022035241">
        <ele>1311.5</ele>
        <time>2003-04-14T09:36:32Z</time>
      </trkpt>
      <trkpt lat="31.520445020869374" lon="-5.533425025641918">
        <ele>1312.7</ele>
        <time>2003-04-14T09:42:43Z</time>
      </trkpt>
      <trkpt lat="31.520345024764538" lon="-5.533457966521382">
        <ele>1311.8</ele>
        <time>2003-04-14T09:42:49Z</time>
      </trkpt>
      <trkpt lat="31.520218038931489" lon="-5.533522004261613">
        <ele>1311.2</ele>
        <time>2003-04-14T09:42:51Z</time>
      </trkpt>
      <trkpt lat="31.520121982321143" lon="-5.533608002588153">
        <ele>1310.5999999999999</ele>
        <time>2003-04-14T09:42:54Z</time>
      </trkpt>
      <trkpt lat="31.519927019253373" lon="-5.533783016726375">
        <ele>1309.8</ele>
        <time>2003-04-14T09:42:58Z</time>
      </trkpt>
      <trkpt lat="31.519822999835014" lon="-5.533874966204166">
        <ele>1309.5</ele>
        <time>2003-04-14T09:43:01Z</time>
      </trkpt>
      <trkpt lat="31.519612027332187" lon="-5.534060038626194">
        <ele>1308.7</ele>
        <time>2003-04-14T09:43:06Z</time>
      </trkpt>
      <trkpt lat="31.519029987975955" lon="-5.534597989171743">
        <ele>1308.4000000000001</ele>
        <time>2003-04-14T09:43:22Z</time>
      </trkpt>
      <trkpt lat="31.518950024619699" lon="-5.534672001376748">
        <ele>1308.8</ele>
        <time>2003-04-14T09:43:26Z</time>
      </trkpt>
      <trkpt lat="31.518829995766282" lon="-5.534703014418483">
        <ele>1308.5999999999999</ele>
        <time>2003-04-14T09:43:30Z</time>
      </trkpt>
      <trkpt lat="31.518727988004684" lon="-5.534656997770071">
        <ele>1308.5999999999999</ele>
        <time>2003-04-14T09:43:33Z</time>
      </trkpt>
      <trkpt lat="31.518607037141919" lon="-5.534627996385098">
        <ele>1308.5</ele>
        <time>2003-04-14T09:43:37Z</time>
      </trkpt>
      <trkpt lat="31.518307970836759" lon="-5.534596983343363">
        <ele>1308.5</ele>
        <time>2003-04-14T09:43:44Z</time>
      </trkpt>
      <trkpt lat="31.518213003873825" lon="-5.534582985565066">
        <ele>1308.4000000000001</ele>
        <time>2003-04-14T09:43:45Z</time>
      </trkpt>
      <trkpt lat="31.517968000844121" lon="-5.53454702720046">
        <ele>1307.5</ele>
        <time>2003-04-14T09:43:52Z</time>
      </trkpt>
      <trkpt lat="31.517659965902567" lon="-5.534512996673584">
        <ele>1307</ele>
        <time>2003-04-14T09:43:57Z</time>
      </trkpt>
      <trkpt lat="31.517347991466522" lon="-5.534479971975088">
        <ele>1309.0999999999999</ele>
        <time>2003-04-14T09:44:04Z</time>
      </trkpt>
      <trkpt lat="31.517178006470203" lon="-5.534447031095624">
        <ele>1309.5</ele>
        <time>2003-04-14T09:44:07Z</time>
      </trkpt>
      <trkpt lat="31.516611976549029" lon="-5.534377964213491">
        <ele>1309.7</ele>
        <time>2003-04-14T09:44:15Z</time>
      </trkpt>
      <trkpt lat="31.516422964632511" lon="-5.534332031384111">
        <ele>1309.7</ele>
        <time>2003-04-14T09:44:16Z</time>
      </trkpt>
      <trkpt lat="31.515749981626868" lon="-5.534106977283955">
        <ele>1309.5</ele>
        <time>2003-04-14T09:44:24Z</time>
      </trkpt>
      <trkpt lat="31.515564993023872" lon="-5.534037994220853">
        <ele>1309.5</ele>
        <time>2003-04-14T09:44:27Z</time>
      </trkpt>
      <trkpt lat="31.515095019713044" lon="-5.533874966204166">
        <ele>1310.5</ele>
        <time>2003-04-14T09:44:35Z</time>
      </trkpt>
      <trkpt lat="31.514716995880008" lon="-5.533789973706007">
        <ele>1309.9000000000001</ele>
        <time>2003-04-14T09:44:38Z</time>
      </trkpt>
      <trkpt lat="31.514520021155477" lon="-5.533798020333052">
        <ele>1309.7</ele>
        <time>2003-04-14T09:44:41Z</time>
      </trkpt>
      <trkpt lat="31.51360203512013" lon="-5.533936992287636">
        <ele>1304.5999999999999</ele>
        <time>2003-04-14T09:44:50Z</time>
      </trkpt>
      <trkpt lat="31.513277990743518" lon="-5.533992983400822">
        <ele>1304.3</ele>
        <time>2003-04-14T09:44:54Z</time>
      </trkpt>
      <trkpt lat="31.512511968612671" lon="-5.534092979505658">
        <ele>1303.5</ele>
        <time>2003-04-14T09:45:02Z</time>
      </trkpt>
      <trkpt lat="31.511685010045767" lon="-5.534177972003818">
        <ele>1302.0999999999999</ele>
        <time>2003-04-14T09:45:12Z</time>
      </trkpt>
      <trkpt lat="31.511588031426072" lon="-5.534136984497309">
        <ele>1302</ele>
        <time>2003-04-14T09:45:13Z</time>
      </trkpt>
      <trkpt lat="31.510761994868517" lon="-5.53381503559649">
        <ele>1298.0999999999999</ele>
        <time>2003-04-14T09:45:21Z</time>
      </trkpt>
      <trkpt lat="31.509833028540015" lon="-5.533491997048259">
        <ele>1297.5</ele>
        <time>2003-04-14T09:45:28Z</time>
      </trkpt>
      <trkpt lat="31.509321983903646" lon="-5.533307008445263">
        <ele>1296.7</ele>
        <time>2003-04-14T09:45:33Z</time>
      </trkpt>
      <trkpt lat="31.508411960676312" lon="-5.532942982390523">
        <ele>1297.0999999999999</ele>
        <time>2003-04-14T09:45:43Z</time>
      </trkpt>
      <trkpt lat="31.50756698101759" lon="-5.532443001866341">
        <ele>1296.8</ele>
        <time>2003-04-14T09:45:52Z</time>
      </trkpt>
      <trkpt lat="31.506723007187247" lon="-5.531955007463694">
        <ele>1295.4000000000001</ele>
        <time>2003-04-14T09:45:59Z</time>
      </trkpt>
      <trkpt lat="31.505824970081449" lon="-5.531528033316135">
        <ele>1294.0999999999999</ele>
        <time>2003-04-14T09:46:08Z</time>
      </trkpt>
      <trkpt lat="31.5049450378865" lon="-5.53121698088944">
        <ele>1293.5999999999999</ele>
        <time>2003-04-14T09:46:17Z</time>
      </trkpt>
      <trkpt lat="31.503992015495896" lon="-5.53089302033186">
        <ele>1292.4000000000001</ele>
        <time>2003-04-14T09:46:26Z</time>
      </trkpt>
      <trkpt lat="31.503119962289929" lon="-5.530648017302156">
        <ele>1291.8</ele>
        <time>2003-04-14T09:46:34Z</time>
      </trkpt>
      <trkpt lat="31.502904966473579" lon="-5.530632007867098">
        <ele>1291.4000000000001</ele>
        <time>2003-04-14T09:46:35Z</time>
      </trkpt>
      <trkpt lat="31.501954961568117" lon="-5.530567970126867">
        <ele>1290.2</ele>
        <time>2003-04-14T09:46:44Z</time>
      </trkpt>
      <trkpt lat="31.501254988834262" lon="-5.530522037297487">
        <ele>1289.2</ele>
        <time>2003-04-14T09:46:49Z</time>
      </trkpt>
      <trkpt lat="31.500306995585561" lon="-5.530462022870779">
        <ele>1288</ele>
        <time>2003-04-14T09:46:56Z</time>
      </trkpt>
      <trkpt lat="31.50011002086103" lon="-5.530441990122199">
        <ele>1287.5999999999999</ele>
        <time>2003-04-14T09:46:57Z</time>
      </trkpt>
      <trkpt lat="31.499753035604954" lon="-5.530427992343903">
        <ele>1287.9000000000001</ele>
        <time>2003-04-14T09:47:01Z</time>
      </trkpt>
      <trkpt lat="31.499036969617009" lon="-5.530362026765943">
        <ele>1287.2</ele>
        <time>2003-04-14T09:47:09Z</time>
      </trkpt>
      <trkpt lat="31.498100040480494" lon="-5.530321961268783">
        <ele>1285.3</ele>
        <time>2003-04-14T09:47:17Z</time>
      </trkpt>
      <trkpt lat="31.497184988111258" lon="-5.530239986255765">
        <ele>1284.8</ele>
        <time>2003-04-14T09:47:28Z</time>
      </trkpt>
      <trkpt lat="31.497056996449828" lon="-5.530232023447752">
        <ele>1285.4000000000001</ele>
        <time>2003-04-14T09:47:29Z</time>
      </trkpt>
      <trkpt lat="31.496962029486895" lon="-5.530220037326217">
        <ele>1284.5999999999999</ele>
        <time>2003-04-14T09:47:32Z</time>
      </trkpt>
      <trkpt lat="31.496785003691912" lon="-5.530202016234398">
        <ele>1284</ele>
        <time>2003-04-14T09:47:36Z</time>
      </trkpt>
      <trkpt lat="31.496675033122301" lon="-5.530181983485818">
        <ele>1282.2</ele>
        <time>2003-04-14T09:47:39Z</time>
      </trkpt>
      <trkpt lat="31.496587023139" lon="-5.530092967674136">
        <ele>1281.4000000000001</ele>
        <time>2003-04-14T09:47:40Z</time>
      </trkpt>
      <trkpt lat="31.496528014540672" lon="-5.529988026246429">
        <ele>1281.0999999999999</ele>
        <time>2003-04-14T09:47:43Z</time>
      </trkpt>
      <trkpt lat="31.496479986235499" lon="-5.529872020706534">
        <ele>1280.8</ele>
        <time>2003-04-14T09:47:44Z</time>
      </trkpt>
      <trkpt lat="31.496417038142681" lon="-5.529772024601698">
        <ele>1280.5999999999999</ele>
        <time>2003-04-14T09:47:47Z</time>
      </trkpt>
      <trkpt lat="31.496325004845858" lon="-5.529694994911552">
        <ele>1280.2</ele>
        <time>2003-04-14T09:47:48Z</time>
      </trkpt>
      <trkpt lat="31.496212016791105" lon="-5.529645038768649">
        <ele>1280</ele>
        <time>2003-04-14T09:47:51Z</time>
      </trkpt>
      <trkpt lat="31.496076984331012" lon="-5.529672028496862">
        <ele>1279.2</ele>
        <time>2003-04-14T09:47:52Z</time>
      </trkpt>
      <trkpt lat="31.495952010154724" lon="-5.529651995748282">
        <ele>1278.8</ele>
        <time>2003-04-14T09:47:55Z</time>
      </trkpt>
      <trkpt lat="31.495837010443211" lon="-5.529536996036768">
        <ele>1278.5999999999999</ele>
        <time>2003-04-14T09:47:56Z</time>
      </trkpt>
      <trkpt lat="31.495668031275272" lon="-5.529506988823414">
        <ele>1278.4000000000001</ele>
        <time>2003-04-14T09:47:59Z</time>
      </trkpt>
      <trkpt lat="31.495392015203834" lon="-5.529492991045117">
        <ele>1277.8</ele>
        <time>2003-04-14T09:48:02Z</time>
      </trkpt>
      <trkpt lat="31.495050033554435" lon="-5.529429959133267">
        <ele>1277</ele>
        <time>2003-04-14T09:48:06Z</time>
      </trkpt>
      <trkpt lat="31.49489002302289" lon="-5.529400035738945">
        <ele>1276.7</ele>
        <time>2003-04-14T09:48:07Z</time>
      </trkpt>
      <trkpt lat="31.494472017511725" lon="-5.529310014098883">
        <ele>1276.3</ele>
        <time>2003-04-14T09:48:13Z</time>
      </trkpt>
      <trkpt lat="31.494227014482021" lon="-5.529280006885529">
        <ele>1275.7</ele>
        <time>2003-04-14T09:48:15Z</time>
      </trkpt>
      <trkpt lat="31.493952004238963" lon="-5.529249999672175">
        <ele>1275.2</ele>
        <time>2003-04-14T09:48:19Z</time>
      </trkpt>
      <trkpt lat="31.493832981213927" lon="-5.529253017157316">
        <ele>1275</ele>
        <time>2003-04-14T09:48:22Z</time>
      </trkpt>
      <trkpt lat="31.493671964854002" lon="-5.529312025755644">
        <ele>1275.5</ele>
        <time>2003-04-14T09:48:30Z</time>
      </trkpt>
      <trkpt lat="31.493527041748166" lon="-5.529344966635108">
        <ele>1275.4000000000001</ele>
        <time>2003-04-14T09:48:36Z</time>
      </trkpt>
      <trkpt lat="31.493416987359524" lon="-5.529382014647126">
        <ele>1275.0999999999999</ele>
        <time>2003-04-14T09:48:40Z</time>
      </trkpt>
      <trkpt lat="31.493254965171218" lon="-5.529385032132268">
        <ele>1274.7</ele>
        <time>2003-04-14T09:48:45Z</time>
      </trkpt>
      <trkpt lat="31.493118004873395" lon="-5.529346978291869">
        <ele>1274</ele>
        <time>2003-04-14T09:48:49Z</time>
      </trkpt>
      <trkpt lat="31.492927987128496" lon="-5.529312025755644">
        <ele>1273.7</ele>
        <time>2003-04-14T09:48:52Z</time>
      </trkpt>
      <trkpt lat="31.492161964997649" lon="-5.529231978580356">
        <ele>1271.5999999999999</ele>
        <time>2003-04-14T09:49:01Z</time>
      </trkpt>
      <trkpt lat="31.491240039467812" lon="-5.529129970818758">
        <ele>1269.0999999999999</ele>
        <time>2003-04-14T09:49:13Z</time>
      </trkpt>
      <trkpt lat="31.490920018404722" lon="-5.529125025495887">
        <ele>1269.3</ele>
        <time>2003-04-14T09:49:19Z</time>
      </trkpt>
      <trkpt lat="31.490769982337952" lon="-5.529125025495887">
        <ele>1270.8</ele>
        <time>2003-04-14T09:49:20Z</time>
      </trkpt>
      <trkpt lat="31.490582982078195" lon="-5.529137011617422">
        <ele>1270.9000000000001</ele>
        <time>2003-04-14T09:49:23Z</time>
      </trkpt>
      <trkpt lat="31.490482985973358" lon="-5.529159978032112">
        <ele>1270.7</ele>
        <time>2003-04-14T09:49:24Z</time>
      </trkpt>
      <trkpt lat="31.489568017423153" lon="-5.529423002153635">
        <ele>1270.9000000000001</ele>
        <time>2003-04-14T09:49:34Z</time>
      </trkpt>
      <trkpt lat="31.488626981154084" lon="-5.529674962162972">
        <ele>1271.4000000000001</ele>
        <time>2003-04-14T09:49:43Z</time>
      </trkpt>
      <trkpt lat="31.488448027521372" lon="-5.529770012944937">
        <ele>1271.2</ele>
        <time>2003-04-14T09:49:46Z</time>
      </trkpt>
      <trkpt lat="31.488275025039911" lon="-5.529912002384663">
        <ele>1271.3</ele>
        <time>2003-04-14T09:49:47Z</time>
      </trkpt>
      <trkpt lat="31.488102022558451" lon="-5.530048040673137">
        <ele>1271.3</ele>
        <time>2003-04-14T09:49:50Z</time>
      </trkpt>
      <trkpt lat="31.487225024029613" lon="-5.530499992892146">
        <ele>1270.4000000000001</ele>
        <time>2003-04-14T09:49:58Z</time>
      </trkpt>
      <trkpt lat="31.486671986058354" lon="-5.530762011185288">
        <ele>1269.0999999999999</ele>
        <time>2003-04-14T09:50:02Z</time>
      </trkpt>
      <trkpt lat="31.486457996070385" lon="-5.530832000076771">
        <ele>1268.7</ele>
        <time>2003-04-14T09:50:05Z</time>
      </trkpt>
      <trkpt lat="31.486375015228987" lon="-5.530905006453395">
        <ele>1268.5999999999999</ele>
        <time>2003-04-14T09:50:06Z</time>
      </trkpt>
      <trkpt lat="31.486307960003614" lon="-5.530984969809651">
        <ele>1268.4000000000001</ele>
        <time>2003-04-14T09:50:06Z</time>
      </trkpt>
      <trkpt lat="31.486233025789261" lon="-5.531046995893121">
        <ele>1269</ele>
        <time>2003-04-14T09:50:07Z</time>
      </trkpt>
      <trkpt lat="31.486075026914477" lon="-5.531142968684435">
        <ele>1267.9000000000001</ele>
        <time>2003-04-14T09:50:10Z</time>
      </trkpt>
      <trkpt lat="31.485936976969242" lon="-5.531165013089776">
        <ele>1267.7</ele>
        <time>2003-04-14T09:50:11Z</time>
      </trkpt>
      <trkpt lat="31.485698008909822" lon="-5.531176999211311">
        <ele>1268.0999999999999</ele>
        <time>2003-04-14T09:50:15Z</time>
      </trkpt>
      <trkpt lat="31.485470021143556" lon="-5.531144980341196">
        <ele>1268.5</ele>
        <time>2003-04-14T09:50:18Z</time>
      </trkpt>
      <trkpt lat="31.485316967591643" lon="-5.531038027256727">
        <ele>1268.3</ele>
        <time>2003-04-14T09:50:21Z</time>
      </trkpt>
      <trkpt lat="31.485142959281802" lon="-5.53093702532351">
        <ele>1268.0999999999999</ele>
        <time>2003-04-14T09:50:22Z</time>
      </trkpt>
      <trkpt lat="31.485044974833727" lon="-5.530914980918169">
        <ele>1268.0999999999999</ele>
        <time>2003-04-14T09:50:24Z</time>
      </trkpt>
      <trkpt lat="31.484842970967293" lon="-5.530908023938537">
        <ele>1267.8</ele>
        <time>2003-04-14T09:50:25Z</time>
      </trkpt>
      <trkpt lat="31.484665023162961" lon="-5.530871981754899">
        <ele>1267.7</ele>
        <time>2003-04-14T09:50:28Z</time>
      </trkpt>
      <trkpt lat="31.484503000974655" lon="-5.530822025611997">
        <ele>1267.4000000000001</ele>
        <time>2003-04-14T09:50:29Z</time>
      </trkpt>
      <trkpt lat="31.48434198461473" lon="-5.530865024775267">
        <ele>1266.8</ele>
        <time>2003-04-14T09:50:32Z</time>
      </trkpt>
      <trkpt lat="31.483960021287203" lon="-5.530993016436696">
        <ele>1267.7</ele>
        <time>2003-04-14T09:50:36Z</time>
      </trkpt>
      <trkpt lat="31.483028037473559" lon="-5.531247993931174">
        <ele>1269.5</ele>
        <time>2003-04-14T09:50:45Z</time>
      </trkpt>
      <trkpt lat="31.482542976737022" lon="-5.531370034441352">
        <ele>1271</ele>
        <time>2003-04-14T09:50:49Z</time>
      </trkpt>
      <trkpt lat="31.481627002358437" lon="-5.531638003885746">
        <ele>1273.2</ele>
        <time>2003-04-14T09:50:56Z</time>
      </trkpt>
      <trkpt lat="31.480701975524426" lon="-5.531889963895083">
        <ele>1277.7</ele>
        <time>2003-04-14T09:51:03Z</time>
      </trkpt>
      <trkpt lat="31.479803016409278" lon="-5.532124992460012">
        <ele>1277.9000000000001</ele>
        <time>2003-04-14T09:51:09Z</time>
      </trkpt>
      <trkpt lat="31.479375036433339" lon="-5.5322499666363">
        <ele>1278.5</ele>
        <time>2003-04-14T09:51:14Z</time>
      </trkpt>
      <trkpt lat="31.479260036721826" lon="-5.532273016870022">
        <ele>1279.5</ele>
        <time>2003-04-14T09:51:15Z</time>
      </trkpt>
      <trkpt lat="31.478656958788633" lon="-5.532452976331115">
        <ele>1280.5999999999999</ele>
        <time>2003-04-14T09:51:20Z</time>
      </trkpt>
      <trkpt lat="31.47838999517262" lon="-5.532520031556487">
        <ele>1279.5</ele>
        <time>2003-04-14T09:51:23Z</time>
      </trkpt>
      <trkpt lat="31.478231996297836" lon="-5.532535035163164">
        <ele>1280.7</ele>
        <time>2003-04-14T09:51:26Z</time>
      </trkpt>
      <trkpt lat="31.478071985766292" lon="-5.532650034874678">
        <ele>1279.9000000000001</ele>
        <time>2003-04-14T09:51:27Z</time>
      </trkpt>
      <trkpt lat="31.477914992719889" lon="-5.532756987959147">
        <ele>1280.2</ele>
        <time>2003-04-14T09:51:30Z</time>
      </trkpt>
      <trkpt lat="31.477824971079826" lon="-5.532780038192868">
        <ele>1281.2</ele>
        <time>2003-04-14T09:51:31Z</time>
      </trkpt>
      <trkpt lat="31.477367989718914" lon="-5.532890008762479">
        <ele>1279.7</ele>
        <time>2003-04-14T09:51:35Z</time>
      </trkpt>
      <trkpt lat="31.477224994450808" lon="-5.533005008473992">
        <ele>1279.3</ele>
        <time>2003-04-14T09:51:38Z</time>
      </trkpt>
      <trkpt lat="31.47707998752594" lon="-5.533063011243939">
        <ele>1279.3</ele>
        <time>2003-04-14T09:51:39Z</time>
      </trkpt>
      <trkpt lat="31.476913020014763" lon="-5.533039961010218">
        <ele>1277.7</ele>
        <time>2003-04-14T09:51:42Z</time>
      </trkpt>
      <trkpt lat="31.476682014763355" lon="-5.533016994595528">
        <ele>1279.0999999999999</ele>
        <time>2003-04-14T09:51:45Z</time>
      </trkpt>
      <trkpt lat="31.47626300342381" lon="-5.533097963780165">
        <ele>1279.5999999999999</ele>
        <time>2003-04-14T09:51:50Z</time>
      </trkpt>
      <trkpt lat="31.475975001230836" lon="-5.533195026218891">
        <ele>1279.5999999999999</ele>
        <time>2003-04-14T09:51:53Z</time>
      </trkpt>
      <trkpt lat="31.475481977686286" lon="-5.533332992345095">
        <ele>1278.7</ele>
        <time>2003-04-14T09:51:58Z</time>
      </trkpt>
      <trkpt lat="31.475088028237224" lon="-5.533431982621551">
        <ele>1279.4000000000001</ele>
        <time>2003-04-14T09:52:02Z</time>
      </trkpt>
      <trkpt lat="31.474538007751107" lon="-5.533597022294998">
        <ele>1278.2</ele>
        <time>2003-04-14T09:52:08Z</time>
      </trkpt>
      <trkpt lat="31.474353019148111" lon="-5.533644966781139">
        <ele>1278.9000000000001</ele>
        <time>2003-04-14T09:52:10Z</time>
      </trkpt>
      <trkpt lat="31.474169958382845" lon="-5.533700035884976">
        <ele>1278.3</ele>
        <time>2003-04-14T09:52:12Z</time>
      </trkpt>
      <trkpt lat="31.473826970905066" lon="-5.533747980371118">
        <ele>1277.3</ele>
        <time>2003-04-14T09:52:16Z</time>
      </trkpt>
      <trkpt lat="31.473571993410587" lon="-5.533723002299666">
        <ele>1277.0999999999999</ele>
        <time>2003-04-14T09:52:18Z</time>
      </trkpt>
      <trkpt lat="31.47263003513217" lon="-5.533885024487972">
        <ele>1280.9000000000001</ele>
        <time>2003-04-14T09:52:29Z</time>
      </trkpt>
      <trkpt lat="31.472432976588607" lon="-5.533882007002831">
        <ele>1281.5</ele>
        <time>2003-04-14T09:52:30Z</time>
      </trkpt>
      <trkpt lat="31.472014971077442" lon="-5.533906985074282">
        <ele>1282.2</ele>
        <time>2003-04-14T09:52:35Z</time>
      </trkpt>
      <trkpt lat="31.471741972491145" lon="-5.533988038077951">
        <ele>1283.5999999999999</ele>
        <time>2003-04-14T09:52:37Z</time>
      </trkpt>
      <trkpt lat="31.471560001373291" lon="-5.533998012542725">
        <ele>1283.7</ele>
        <time>2003-04-14T09:52:40Z</time>
      </trkpt>
      <trkpt lat="31.471354980021715" lon="-5.533964987844229">
        <ele>1283.5999999999999</ele>
        <time>2003-04-14T09:52:41Z</time>
      </trkpt>
      <trkpt lat="31.471152976155281" lon="-5.533949984237552">
        <ele>1283.2</ele>
        <time>2003-04-14T09:52:44Z</time>
      </trkpt>
      <trkpt lat="31.471058009192348" lon="-5.533964987844229">
        <ele>1283</ele>
        <time>2003-04-14T09:52:44Z</time>
      </trkpt>
      <trkpt lat="31.470781993120909" lon="-5.534036988392472">
        <ele>1282.8</ele>
        <time>2003-04-14T09:52:48Z</time>
      </trkpt>
      <trkpt lat="31.470417967066169" lon="-5.53418199531734">
        <ele>1283.5999999999999</ele>
        <time>2003-04-14T09:52:52Z</time>
      </trkpt>
      <trkpt lat="31.469692010432482" lon="-5.534517019987106">
        <ele>1286</ele>
        <time>2003-04-14T09:53:00Z</time>
      </trkpt>
      <trkpt lat="31.469366960227489" lon="-5.534566976130009">
        <ele>1285.5999999999999</ele>
        <time>2003-04-14T09:53:03Z</time>
      </trkpt>
      <trkpt lat="31.468353001400828" lon="-5.534639982506633">
        <ele>1285.0999999999999</ele>
        <time>2003-04-14T09:53:11Z</time>
      </trkpt>
      <trkpt lat="31.467525037005544" lon="-5.534543003886938">
        <ele>1283.9000000000001</ele>
        <time>2003-04-14T09:53:19Z</time>
      </trkpt>
      <trkpt lat="31.467305012047291" lon="-5.534448036924005">
        <ele>1283.4000000000001</ele>
        <time>2003-04-14T09:53:20Z</time>
      </trkpt>
      <trkpt lat="31.466409992426634" lon="-5.534025002270937">
        <ele>1280.4000000000001</ele>
        <time>2003-04-14T09:53:29Z</time>
      </trkpt>
      <trkpt lat="31.466098017990589" lon="-5.533915031701326">
        <ele>1279.5</ele>
        <time>2003-04-14T09:53:31Z</time>
      </trkpt>
      <trkpt lat="31.465898025780916" lon="-5.53383800201118">
        <ele>1279.5</ele>
        <time>2003-04-14T09:53:34Z</time>
      </trkpt>
      <trkpt lat="31.465787971392274" lon="-5.533840013667941">
        <ele>1279.2</ele>
        <time>2003-04-14T09:53:34Z</time>
      </trkpt>
      <trkpt lat="31.465589990839362" lon="-5.533832972869277">
        <ele>1278.2</ele>
        <time>2003-04-14T09:53:37Z</time>
      </trkpt>
      <trkpt lat="31.46549703553319" lon="-5.533785028383136">
        <ele>1277.4000000000001</ele>
        <time>2003-04-14T09:53:38Z</time>
      </trkpt>
      <trkpt lat="31.465412965044379" lon="-5.533719984814525">
        <ele>1278.2</ele>
        <time>2003-04-14T09:53:38Z</time>
      </trkpt>
      <trkpt lat="31.46524197421968" lon="-5.533652007579804">
        <ele>1278.4000000000001</ele>
        <time>2003-04-14T09:53:41Z</time>
      </trkpt>
      <trkpt lat="31.464767977595329" lon="-5.533529967069626">
        <ele>1279.4000000000001</ele>
        <time>2003-04-14T09:53:46Z</time>
      </trkpt>
      <trkpt lat="31.464543007314205" lon="-5.533468024805188">
        <ele>1279.7</ele>
        <time>2003-04-14T09:53:47Z</time>
      </trkpt>
      <trkpt lat="31.464019976556301" lon="-5.533272977918387">
        <ele>1279.5</ele>
        <time>2003-04-14T09:53:53Z</time>
      </trkpt>
      <trkpt lat="31.463721999898553" lon="-5.533141968771815">
        <ele>1280.0999999999999</ele>
        <time>2003-04-14T09:53:56Z</time>
      </trkpt>
      <trkpt lat="31.463610017672181" lon="-5.533141968771815">
        <ele>1280.3</ele>
        <time>2003-04-14T09:53:57Z</time>
      </trkpt>
      <trkpt lat="31.463387981057167" lon="-5.533116990700364">
        <ele>1280.5999999999999</ele>
        <time>2003-04-14T09:53:58Z</time>
      </trkpt>
      <trkpt lat="31.463190000504255" lon="-5.533025041222572">
        <ele>1280.7</ele>
        <time>2003-04-14T09:54:01Z</time>
      </trkpt>
      <trkpt lat="31.462751962244511" lon="-5.532857989892364">
        <ele>1280.3</ele>
        <time>2003-04-14T09:54:05Z</time>
      </trkpt>
      <trkpt lat="31.462656995281577" lon="-5.532820019870997">
        <ele>1280.0999999999999</ele>
        <time>2003-04-14T09:54:05Z</time>
      </trkpt>
      <trkpt lat="31.462563034147024" lon="-5.532805016264319">
        <ele>1280</ele>
        <time>2003-04-14T09:54:06Z</time>
      </trkpt>
      <trkpt lat="31.462375028058887" lon="-5.532805016264319">
        <ele>1279.9000000000001</ele>
        <time>2003-04-14T09:54:09Z</time>
      </trkpt>
      <trkpt lat="31.462196996435523" lon="-5.532788001000881">
        <ele>1279.8</ele>
        <time>2003-04-14T09:54:10Z</time>
      </trkpt>
      <trkpt lat="31.462030028924346" lon="-5.532708037644625">
        <ele>1279.8</ele>
        <time>2003-04-14T09:54:13Z</time>
      </trkpt>
      <trkpt lat="31.46171503700316" lon="-5.532524976879358">
        <ele>1279.7</ele>
        <time>2003-04-14T09:54:17Z</time>
      </trkpt>
      <trkpt lat="31.461621997877955" lon="-5.532524976879358">
        <ele>1279.7</ele>
        <time>2003-04-14T09:54:17Z</time>
      </trkpt>
      <trkpt lat="31.461442960426211" lon="-5.532566970214248">
        <ele>1279.7</ele>
        <time>2003-04-14T09:54:20Z</time>
      </trkpt>
      <trkpt lat="31.461168034002185" lon="-5.532622961327434">
        <ele>1279.5999999999999</ele>
        <time>2003-04-14T09:54:23Z</time>
      </trkpt>
      <trkpt lat="31.460281983017921" lon="-5.532696973532438">
        <ele>1279.5999999999999</ele>
        <time>2003-04-14T09:54:32Z</time>
      </trkpt>
      <trkpt lat="31.459960034117103" lon="-5.532767968252301">
        <ele>1278.8</ele>
        <time>2003-04-14T09:54:36Z</time>
      </trkpt>
      <trkpt lat="31.459692986682057" lon="-5.532866958528757">
        <ele>1279.7</ele>
        <time>2003-04-14T09:54:40Z</time>
      </trkpt>
      <trkpt lat="31.459534987807274" lon="-5.532959997653961">
        <ele>1279.5999999999999</ele>
        <time>2003-04-14T09:54:41Z</time>
      </trkpt>
      <trkpt lat="31.459398027509451" lon="-5.533093018457294">
        <ele>1279.0999999999999</ele>
        <time>2003-04-14T09:54:44Z</time>
      </trkpt>
      <trkpt lat="31.45873200148344" lon="-5.533864991739392">
        <ele>1276</ele>
        <time>2003-04-14T09:54:54Z</time>
      </trkpt>
      <trkpt lat="31.458609960973263" lon="-5.53398996591568">
        <ele>1277</ele>
        <time>2003-04-14T09:54:55Z</time>
      </trkpt>
      <trkpt lat="31.458209976553917" lon="-5.534490030258894">
        <ele>1276.5999999999999</ele>
        <time>2003-04-14T09:55:03Z</time>
      </trkpt>
      <trkpt lat="31.457777973264456" lon="-5.53512797690928">
        <ele>1274.5</ele>
        <time>2003-04-14T09:55:11Z</time>
      </trkpt>
      <trkpt lat="31.457472033798695" lon="-5.535465013235807">
        <ele>1274.5999999999999</ele>
        <time>2003-04-14T09:55:18Z</time>
      </trkpt>
      <trkpt lat="31.457282016053796" lon="-5.535623012110591">
        <ele>1274.7</ele>
        <time>2003-04-14T09:55:22Z</time>
      </trkpt>
      <trkpt lat="31.457200041040778" lon="-5.535704987123609">
        <ele>1274</ele>
        <time>2003-04-14T09:55:23Z</time>
      </trkpt>
      <trkpt lat="31.45716299302876" lon="-5.535843037068844">
        <ele>1273.9000000000001</ele>
        <time>2003-04-14T09:55:26Z</time>
      </trkpt>
      <trkpt lat="31.457157041877508" lon="-5.53596499375999">
        <ele>1273.5</ele>
        <time>2003-04-14T09:55:27Z</time>
      </trkpt>
      <trkpt lat="31.457171961665154" lon="-5.536100026220083">
        <ele>1273.7</ele>
        <time>2003-04-14T09:55:30Z</time>
      </trkpt>
      <trkpt lat="31.457174979150295" lon="-5.536232963204384">
        <ele>1273.3</ele>
        <time>2003-04-14T09:55:31Z</time>
      </trkpt>
      <trkpt lat="31.45714296028018" lon="-5.536387022584677">
        <ele>1272.5999999999999</ele>
        <time>2003-04-14T09:55:34Z</time>
      </trkpt>
      <trkpt lat="31.457067020237446" lon="-5.536539992317557">
        <ele>1274.4000000000001</ele>
        <time>2003-04-14T09:55:35Z</time>
      </trkpt>
      <trkpt lat="31.457013040781021" lon="-5.536643005907536">
        <ele>1273.9000000000001</ele>
        <time>2003-04-14T09:55:37Z</time>
      </trkpt>
      <trkpt lat="31.456883037462831" lon="-5.536862025037408">
        <ele>1273.4000000000001</ele>
        <time>2003-04-14T09:55:38Z</time>
      </trkpt>
      <trkpt lat="31.456281971186399" lon="-5.537722008302808">
        <ele>1272.3</ele>
        <time>2003-04-14T09:55:46Z</time>
      </trkpt>
      <trkpt lat="31.455690041184425" lon="-5.538551984354854">
        <ele>1270.8</ele>
        <time>2003-04-14T09:55:53Z</time>
      </trkpt>
      <trkpt lat="31.455161981284618" lon="-5.539437029510737">
        <ele>1269.5</ele>
        <time>2003-04-14T09:56:01Z</time>
      </trkpt>
      <trkpt lat="31.455044969916344" lon="-5.539597040042281">
        <ele>1269.4000000000001</ele>
        <time>2003-04-14T09:56:02Z</time>
      </trkpt>
      <trkpt lat="31.454959977418184" lon="-5.539732994511724">
        <ele>1268.5999999999999</ele>
        <time>2003-04-14T09:56:05Z</time>
      </trkpt>
      <trkpt lat="31.454793009907007" lon="-5.539953019469976">
        <ele>1268.5999999999999</ele>
        <time>2003-04-14T09:56:08Z</time>
      </trkpt>
      <trkpt lat="31.454622019082308" lon="-5.540098026394844">
        <ele>1268.5999999999999</ele>
        <time>2003-04-14T09:56:09Z</time>
      </trkpt>
      <trkpt lat="31.454314989969134" lon="-5.540332971140742">
        <ele>1268.3</ele>
        <time>2003-04-14T09:56:13Z</time>
      </trkpt>
      <trkpt lat="31.453664973378181" lon="-5.540845021605492">
        <ele>1267.5</ele>
        <time>2003-04-14T09:56:20Z</time>
      </trkpt>
      <trkpt lat="31.45305996760726" lon="-5.541345002129674">
        <ele>1266.3</ele>
        <time>2003-04-14T09:56:27Z</time>
      </trkpt>
      <trkpt lat="31.452752016484737" lon="-5.541641972959042">
        <ele>1266.5999999999999</ele>
        <time>2003-04-14T09:56:31Z</time>
      </trkpt>
      <trkpt lat="31.452182969078422" lon="-5.542004993185401">
        <ele>1266.8</ele>
        <time>2003-04-14T09:56:36Z</time>
      </trkpt>
      <trkpt lat="31.452022036537528" lon="-5.542114963755012">
        <ele>1266.5999999999999</ele>
        <time>2003-04-14T09:56:39Z</time>
      </trkpt>
      <trkpt lat="31.451741997152567" lon="-5.542327025905252">
        <ele>1266.3</ele>
        <time>2003-04-14T09:56:43Z</time>
      </trkpt>
      <trkpt lat="31.451654992997646" lon="-5.54243003949523">
        <ele>1265.3</ele>
        <time>2003-04-14T09:56:44Z</time>
      </trkpt>
      <trkpt lat="31.451624985784292" lon="-5.542574962601066">
        <ele>1265.2</ele>
        <time>2003-04-14T09:56:47Z</time>
      </trkpt>
      <trkpt lat="31.45157502964139" lon="-5.54269197396934">
        <ele>1265.7</ele>
        <time>2003-04-14T09:56:50Z</time>
      </trkpt>
      <trkpt lat="31.451466986909509" lon="-5.542674958705902">
        <ele>1265.2</ele>
        <time>2003-04-14T09:56:54Z</time>
      </trkpt>
      <trkpt lat="31.451347963884473" lon="-5.542662972584367">
        <ele>1266.0999999999999</ele>
        <time>2003-04-14T09:56:56Z</time>
      </trkpt>
      <trkpt lat="31.451237993314862" lon="-5.542715024203062">
        <ele>1266.3</ele>
        <time>2003-04-14T09:56:59Z</time>
      </trkpt>
      <trkpt lat="31.451155012473464" lon="-5.542834969237447">
        <ele>1266.4000000000001</ele>
        <time>2003-04-14T09:57:00Z</time>
      </trkpt>
      <trkpt lat="31.450886959210038" lon="-5.543179968371987">
        <ele>1268</ele>
        <time>2003-04-14T09:57:07Z</time>
      </trkpt>
      <trkpt lat="31.450623013079166" lon="-5.543492026627064">
        <ele>1267.5999999999999</ele>
        <time>2003-04-14T09:57:14Z</time>
      </trkpt>
      <trkpt lat="31.450583031401038" lon="-5.543590011075139">
        <ele>1267.5</ele>
        <time>2003-04-14T09:57:15Z</time>
      </trkpt>
      <trkpt lat="31.450550006702542" lon="-5.543727977201343">
        <ele>1267.5999999999999</ele>
        <time>2003-04-14T09:57:18Z</time>
      </trkpt>
      <trkpt lat="31.450532991439104" lon="-5.543882036581636">
        <ele>1267.5</ele>
        <time>2003-04-14T09:57:21Z</time>
      </trkpt>
      <trkpt lat="31.450646985322237" lon="-5.544007010757923">
        <ele>1267.7</ele>
        <time>2003-04-14T09:57:48Z</time>
      </trkpt>
      <trkpt lat="31.450727032497525" lon="-5.544184958562255">
        <ele>1267.9000000000001</ele>
        <time>2003-04-14T09:58:00Z</time>
      </trkpt>
      <trkpt lat="31.450801966711879" lon="-5.544282021000981">
        <ele>1268.4000000000001</ele>
        <time>2003-04-14T09:58:05Z</time>
      </trkpt>
      <trkpt lat="31.450702976435423" lon="-5.544432979077101">
        <ele>1268.9000000000001</ele>
        <time>2003-04-14T09:58:11Z</time>
      </trkpt>
      <trkpt lat="31.450580013915896" lon="-5.544477989897132">
        <ele>1269</ele>
        <time>2003-04-14T09:58:12Z</time>
      </trkpt>
      <trkpt lat="31.450414974242449" lon="-5.54453699849546">
        <ele>1268.8</ele>
        <time>2003-04-14T09:58:15Z</time>
      </trkpt>
      <trkpt lat="31.450167037546635" lon="-5.544642023742199">
        <ele>1268.9000000000001</ele>
        <time>2003-04-14T09:58:17Z</time>
      </trkpt>
      <trkpt lat="31.449322979897261" lon="-5.545091964304447">
        <ele>1268.5</ele>
        <time>2003-04-14T09:58:28Z</time>
      </trkpt>
      <trkpt lat="31.448852000758052" lon="-5.545363035053015">
        <ele>1267.8</ele>
        <time>2003-04-14T09:58:32Z</time>
      </trkpt>
      <trkpt lat="31.448425026610494" lon="-5.545542994514108">
        <ele>1267.0999999999999</ele>
        <time>2003-04-14T09:58:36Z</time>
      </trkpt>
      <trkpt lat="31.447579963132739" lon="-5.54597700946033">
        <ele>1266.0999999999999</ele>
        <time>2003-04-14T09:58:43Z</time>
      </trkpt>
      <trkpt lat="31.447032960131764" lon="-5.546271968632937">
        <ele>1265.8</ele>
        <time>2003-04-14T09:58:48Z</time>
      </trkpt>
      <trkpt lat="31.446917038410902" lon="-5.546322008594871">
        <ele>1265.7</ele>
        <time>2003-04-14T09:58:51Z</time>
      </trkpt>
      <trkpt lat="31.446815030649304" lon="-5.546370036900044">
        <ele>1266.3</ele>
        <time>2003-04-14T09:58:55Z</time>
      </trkpt>
      <trkpt lat="31.44663498736918" lon="-5.546457963064313">
        <ele>1267</ele>
        <time>2003-04-14T09:58:59Z</time>
      </trkpt>
      <trkpt lat="31.446425020694733" lon="-5.546552008017898">
        <ele>1267.3</ele>
        <time>2003-04-14T09:59:03Z</time>
      </trkpt>
      <trkpt lat="31.44588497467339" lon="-5.546722998842597">
        <ele>1266.3</ele>
        <time>2003-04-14T09:59:14Z</time>
      </trkpt>
      <trkpt lat="31.44506698474288" lon="-5.546752000227571">
        <ele>1267.3</ele>
        <time>2003-04-14T09:59:25Z</time>
      </trkpt>
      <trkpt lat="31.444372963160276" lon="-5.546777984127402">
        <ele>1268.0999999999999</ele>
        <time>2003-04-14T09:59:34Z</time>
      </trkpt>
      <trkpt lat="31.44420700147748" lon="-5.546804973855615">
        <ele>1268.0999999999999</ele>
        <time>2003-04-14T09:59:37Z</time>
      </trkpt>
      <trkpt lat="31.444046990945935" lon="-5.546819977462292">
        <ele>1267.9000000000001</ele>
        <time>2003-04-14T09:59:38Z</time>
      </trkpt>
      <trkpt lat="31.443072007969022" lon="-5.546889966353774">
        <ele>1268</ele>
        <time>2003-04-14T09:59:51Z</time>
      </trkpt>
      <trkpt lat="31.442728014662862" lon="-5.546913016587496">
        <ele>1267.8</ele>
        <time>2003-04-14T09:59:53Z</time>
      </trkpt>
      <trkpt lat="31.441725036129355" lon="-5.546958027407527">
        <ele>1266.9000000000001</ele>
        <time>2003-04-14T10:00:01Z</time>
      </trkpt>
      <trkpt lat="31.441267970949411" lon="-5.546988034620881">
        <ele>1264.0999999999999</ele>
        <time>2003-04-14T10:00:05Z</time>
      </trkpt>
      <trkpt lat="31.44087502732873" lon="-5.546936988830566">
        <ele>1262.2</ele>
        <time>2003-04-14T10:00:09Z</time>
      </trkpt>
      <trkpt lat="31.440739994868636" lon="-5.546931959688664">
        <ele>1259.7</ele>
        <time>2003-04-14T10:00:12Z</time>
      </trkpt>
      <trkpt lat="31.440600017085671" lon="-5.54690295830369">
        <ele>1260.5999999999999</ele>
        <time>2003-04-14T10:00:14Z</time>
      </trkpt>
      <trkpt lat="31.440129959955812" lon="-5.546831963583827">
        <ele>1261.8</ele>
        <time>2003-04-14T10:00:19Z</time>
      </trkpt>
      <trkpt lat="31.440032981336117" lon="-5.546798016875982">
        <ele>1262.3</ele>
        <time>2003-04-14T10:00:20Z</time>
      </trkpt>
      <trkpt lat="31.439825026318431" lon="-5.546761974692345">
        <ele>1262</ele>
        <time>2003-04-14T10:00:23Z</time>
      </trkpt>
      <trkpt lat="31.439297972247005" lon="-5.546691985800862">
        <ele>1262.9000000000001</ele>
        <time>2003-04-14T10:00:27Z</time>
      </trkpt>
      <trkpt lat="31.43900997005403" lon="-5.546628031879664">
        <ele>1263.0999999999999</ele>
        <time>2003-04-14T10:00:31Z</time>
      </trkpt>
      <trkpt lat="31.438805032521486" lon="-5.546617973595858">
        <ele>1263.3</ele>
        <time>2003-04-14T10:00:32Z</time>
      </trkpt>
      <trkpt lat="31.437813034281135" lon="-5.546462992206216">
        <ele>1261.9000000000001</ele>
        <time>2003-04-14T10:00:42Z</time>
      </trkpt>
      <trkpt lat="31.437559984624386" lon="-5.546423010528088">
        <ele>1262.4000000000001</ele>
        <time>2003-04-14T10:00:43Z</time>
      </trkpt>
      <trkpt lat="31.436927989125252" lon="-5.546327959746122">
        <ele>1263.7</ele>
        <time>2003-04-14T10:00:49Z</time>
      </trkpt>
      <trkpt lat="31.436697989702225" lon="-5.54627800360322">
        <ele>1262.5</ele>
        <time>2003-04-14T10:00:50Z</time>
      </trkpt>
      <trkpt lat="31.436587013304234" lon="-5.546272974461317">
        <ele>1263.3</ele>
        <time>2003-04-14T10:00:51Z</time>
      </trkpt>
      <trkpt lat="31.436376962810755" lon="-5.546247996389866">
        <ele>1262.7</ele>
        <time>2003-04-14T10:00:54Z</time>
      </trkpt>
      <trkpt lat="31.436285013332963" lon="-5.546207008883357">
        <ele>1262.5</ele>
        <time>2003-04-14T10:00:54Z</time>
      </trkpt>
      <trkpt lat="31.436098013073206" lon="-5.546183036640286">
        <ele>1262.2</ele>
        <time>2003-04-14T10:00:57Z</time>
      </trkpt>
      <trkpt lat="31.43578302115202" lon="-5.546163003891707">
        <ele>1262.2</ele>
        <time>2003-04-14T10:00:59Z</time>
      </trkpt>
      <trkpt lat="31.435495018959045" lon="-5.546093015000224">
        <ele>1261.3</ele>
        <time>2003-04-14T10:01:02Z</time>
      </trkpt>
      <trkpt lat="31.43520500510931" lon="-5.546057978644967">
        <ele>1260.9000000000001</ele>
        <time>2003-04-14T10:01:06Z</time>
      </trkpt>
      <trkpt lat="31.434984980151057" lon="-5.546010034158826">
        <ele>1261.3</ele>
        <time>2003-04-14T10:01:08Z</time>
      </trkpt>
      <trkpt lat="31.434637969359756" lon="-5.545959994196892">
        <ele>1260.9000000000001</ele>
        <time>2003-04-14T10:01:10Z</time>
      </trkpt>
      <trkpt lat="31.434405036270618" lon="-5.545911965891719">
        <ele>1261.2</ele>
        <time>2003-04-14T10:01:13Z</time>
      </trkpt>
      <trkpt lat="31.433853004127741" lon="-5.545829990878701">
        <ele>1261.8</ele>
        <time>2003-04-14T10:01:17Z</time>
      </trkpt>
      <trkpt lat="31.433547986671329" lon="-5.545777017250657">
        <ele>1263.5999999999999</ele>
        <time>2003-04-14T10:01:21Z</time>
      </trkpt>
      <trkpt lat="31.433283034712076" lon="-5.545752039179206">
        <ele>1262.0999999999999</ele>
        <time>2003-04-14T10:01:24Z</time>
      </trkpt>
      <trkpt lat="31.432875003665686" lon="-5.545593034476042">
        <ele>1264.8</ele>
        <time>2003-04-14T10:01:29Z</time>
      </trkpt>
      <trkpt lat="31.432678028941154" lon="-5.545573001727462">
        <ele>1265.8</ele>
        <time>2003-04-14T10:01:30Z</time>
      </trkpt>
      <trkpt lat="31.432066988199949" lon="-5.545514998957515">
        <ele>1267.7</ele>
        <time>2003-04-14T10:01:37Z</time>
      </trkpt>
      <trkpt lat="31.431437004357576" lon="-5.545421959832311">
        <ele>1269.0999999999999</ele>
        <time>2003-04-14T10:01:43Z</time>
      </trkpt>
      <trkpt lat="31.431210022419691" lon="-5.545441992580891">
        <ele>1269.2</ele>
        <time>2003-04-14T10:01:44Z</time>
      </trkpt>
      <trkpt lat="31.430980022996664" lon="-5.545424977317452">
        <ele>1269.5999999999999</ele>
        <time>2003-04-14T10:01:47Z</time>
      </trkpt>
      <trkpt lat="31.43000696785748" lon="-5.545249963179231">
        <ele>1271.2</ele>
        <time>2003-04-14T10:01:56Z</time>
      </trkpt>
      <trkpt lat="31.429455019533634" lon="-5.545169999822974">
        <ele>1272.0999999999999</ele>
        <time>2003-04-14T10:02:00Z</time>
      </trkpt>
      <trkpt lat="31.429114965721965" lon="-5.545111997053027">
        <ele>1272.3</ele>
        <time>2003-04-14T10:02:04Z</time>
      </trkpt>
      <trkpt lat="31.428744988515973" lon="-5.5450529884547">
        <ele>1273.9000000000001</ele>
        <time>2003-04-14T10:02:07Z</time>
      </trkpt>
      <trkpt lat="31.428508032113314" lon="-5.545022981241345">
        <ele>1273.7</ele>
        <time>2003-04-14T10:02:08Z</time>
      </trkpt>
      <trkpt lat="31.428290018811822" lon="-5.544992974027991">
        <ele>1273.2</ele>
        <time>2003-04-14T10:02:11Z</time>
      </trkpt>
      <trkpt lat="31.428067982196808" lon="-5.544962966814637">
        <ele>1273.8</ele>
        <time>2003-04-14T10:02:12Z</time>
      </trkpt>
      <trkpt lat="31.42774997279048" lon="-5.544915022328496">
        <ele>1274.5999999999999</ele>
        <time>2003-04-14T10:02:15Z</time>
      </trkpt>
      <trkpt lat="31.427430035546422" lon="-5.544855007901788">
        <ele>1275.5999999999999</ele>
        <time>2003-04-14T10:02:19Z</time>
      </trkpt>
      <trkpt lat="31.427119988948107" lon="-5.544830029830337">
        <ele>1275.0999999999999</ele>
        <time>2003-04-14T10:02:22Z</time>
      </trkpt>
      <trkpt lat="31.426822012290359" lon="-5.544760040938854">
        <ele>1275.5</ele>
        <time>2003-04-14T10:02:24Z</time>
      </trkpt>
      <trkpt lat="31.426712963730097" lon="-5.54477303288877">
        <ele>1275.5999999999999</ele>
        <time>2003-04-14T10:02:26Z</time>
      </trkpt>
      <trkpt lat="31.426608022302389" lon="-5.544758029282093">
        <ele>1276</ele>
        <time>2003-04-14T10:02:27Z</time>
      </trkpt>
      <trkpt lat="31.426501991227269" lon="-5.544715030118823">
        <ele>1276.3</ele>
        <time>2003-04-14T10:02:27Z</time>
      </trkpt>
      <trkpt lat="31.42626796849072" lon="-5.544673036783934">
        <ele>1276.5</ele>
        <time>2003-04-14T10:02:30Z</time>
      </trkpt>
      <trkpt lat="31.426033023744822" lon="-5.544634982943535">
        <ele>1277</ele>
        <time>2003-04-14T10:02:31Z</time>
      </trkpt>
      <trkpt lat="31.425662962719798" lon="-5.544583015143871">
        <ele>1277.7</ele>
        <time>2003-04-14T10:02:34Z</time>
      </trkpt>
      <trkpt lat="31.425304971635342" lon="-5.54453800432384">
        <ele>1277.2</ele>
        <time>2003-04-14T10:02:38Z</time>
      </trkpt>
      <trkpt lat="31.425115037709475" lon="-5.544498022645712">
        <ele>1277.3</ele>
        <time>2003-04-14T10:02:39Z</time>
      </trkpt>
      <trkpt lat="31.424940023571253" lon="-5.544497016817331">
        <ele>1276.5999999999999</ele>
        <time>2003-04-14T10:02:42Z</time>
      </trkpt>
      <trkpt lat="31.424802979454398" lon="-5.544491987675428">
        <ele>1276.8</ele>
        <time>2003-04-14T10:02:43Z</time>
      </trkpt>
      <trkpt lat="31.42454800195992" lon="-5.544421998783946">
        <ele>1277.0999999999999</ele>
        <time>2003-04-14T10:02:46Z</time>
      </trkpt>
      <trkpt lat="31.424456974491477" lon="-5.544423004612327">
        <ele>1277.5999999999999</ele>
        <time>2003-04-14T10:02:47Z</time>
      </trkpt>
      <trkpt lat="31.424169978126884" lon="-5.544397020712495">
        <ele>1278.7</ele>
        <time>2003-04-14T10:02:50Z</time>
      </trkpt>
      <trkpt lat="31.423206981271505" lon="-5.544229969382286">
        <ele>1280.8</ele>
        <time>2003-04-14T10:03:01Z</time>
      </trkpt>
      <trkpt lat="31.422852007672191" lon="-5.544162997975946">
        <ele>1281.8</ele>
        <time>2003-04-14T10:03:05Z</time>
      </trkpt>
      <trkpt lat="31.422668024897575" lon="-5.544138019904494">
        <ele>1282</ele>
        <time>2003-04-14T10:03:06Z</time>
      </trkpt>
      <trkpt lat="31.42227197997272" lon="-5.544068031013012">
        <ele>1283.0999999999999</ele>
        <time>2003-04-14T10:03:10Z</time>
      </trkpt>
      <trkpt lat="31.422054972499609" lon="-5.544041963294148">
        <ele>1283</ele>
        <time>2003-04-14T10:03:13Z</time>
      </trkpt>
      <trkpt lat="31.421113014221191" lon="-5.543897040188313">
        <ele>1283.8</ele>
        <time>2003-04-14T10:03:21Z</time>
      </trkpt>
      <trkpt lat="31.42087304033339" lon="-5.54389201104641">
        <ele>1283.5</ele>
        <time>2003-04-14T10:03:25Z</time>
      </trkpt>
      <trkpt lat="31.420708000659943" lon="-5.54385001771152">
        <ele>1283.2</ele>
        <time>2003-04-14T10:03:27Z</time>
      </trkpt>
      <trkpt lat="31.420512031763792" lon="-5.543787991628051">
        <ele>1285.0999999999999</ele>
        <time>2003-04-14T10:03:28Z</time>
      </trkpt>
      <trkpt lat="31.420274991542101" lon="-5.543765025213361">
        <ele>1285</ele>
        <time>2003-04-14T10:03:31Z</time>
      </trkpt>
      <trkpt lat="31.419262960553169" lon="-5.543624963611364">
        <ele>1285.4000000000001</ele>
        <time>2003-04-14T10:03:39Z</time>
      </trkpt>
      <trkpt lat="31.418298035860062" lon="-5.543469982221723">
        <ele>1281.8</ele>
        <time>2003-04-14T10:03:47Z</time>
      </trkpt>
      <trkpt lat="31.417997041717172" lon="-5.543469982221723">
        <ele>1282.0999999999999</ele>
        <time>2003-04-14T10:03:50Z</time>
      </trkpt>
      <trkpt lat="31.417912971228361" lon="-5.543522033840418">
        <ele>1282.5</ele>
        <time>2003-04-14T10:03:51Z</time>
      </trkpt>
      <trkpt lat="31.417833007872105" lon="-5.543605014681816">
        <ele>1282.5</ele>
        <time>2003-04-14T10:03:52Z</time>
      </trkpt>
      <trkpt lat="31.417737035080791" lon="-5.543669974431396">
        <ele>1283.2</ele>
        <time>2003-04-14T10:03:52Z</time>
      </trkpt>
      <trkpt lat="31.417633015662432" lon="-5.543710039928556">
        <ele>1283.2</ele>
        <time>2003-04-14T10:03:54Z</time>
      </trkpt>
      <trkpt lat="31.417518015950918" lon="-5.543722026050091">
        <ele>1283.5</ele>
        <time>2003-04-14T10:03:55Z</time>
      </trkpt>
      <trkpt lat="31.417162958532572" lon="-5.543810036033392">
        <ele>1284.5</ele>
        <time>2003-04-14T10:03:58Z</time>
      </trkpt>
      <trkpt lat="31.416960032656789" lon="-5.543869966641069">
        <ele>1285.7</ele>
        <time>2003-04-14T10:03:59Z</time>
      </trkpt>
      <trkpt lat="31.416752999648452" lon="-5.543927969411016">
        <ele>1286</ele>
        <time>2003-04-14T10:04:02Z</time>
      </trkpt>
      <trkpt lat="31.41649198718369" lon="-5.544012961909175">
        <ele>1286.8</ele>
        <time>2003-04-14T10:04:04Z</time>
      </trkpt>
      <trkpt lat="31.416306998580694" lon="-5.543977003544569">
        <ele>1287.0999999999999</ele>
        <time>2003-04-14T10:04:07Z</time>
      </trkpt>
      <trkpt lat="31.416208008304238" lon="-5.543986978009343">
        <ele>1286.4000000000001</ele>
        <time>2003-04-14T10:04:07Z</time>
      </trkpt>
      <trkpt lat="31.416107006371021" lon="-5.544020002707839">
        <ele>1286.0999999999999</ele>
        <time>2003-04-14T10:04:08Z</time>
      </trkpt>
      <trkpt lat="31.416008016094565" lon="-5.544032994657755">
        <ele>1286.7</ele>
        <time>2003-04-14T10:04:10Z</time>
      </trkpt>
      <trkpt lat="31.415662011131644" lon="-5.544040035456419">
        <ele>1287</ele>
        <time>2003-04-14T10:04:14Z</time>
      </trkpt>
      <trkpt lat="31.41539697535336" lon="-5.543948002159596">
        <ele>1289.5</ele>
        <time>2003-04-14T10:04:17Z</time>
      </trkpt>
      <trkpt lat="31.415233025327325" lon="-5.543952025473118">
        <ele>1289.5</ele>
        <time>2003-04-14T10:04:19Z</time>
      </trkpt>
      <trkpt lat="31.415081983432174" lon="-5.544038023799658">
        <ele>1289.5</ele>
        <time>2003-04-14T10:04:21Z</time>
      </trkpt>
      <trkpt lat="31.414832035079598" lon="-5.544257964938879">
        <ele>1290.5</ele>
        <time>2003-04-14T10:04:23Z</time>
      </trkpt>
      <trkpt lat="31.414047991856933" lon="-5.544862970709801">
        <ele>1292.9000000000001</ele>
        <time>2003-04-14T10:04:33Z</time>
      </trkpt>
      <trkpt lat="31.413855040445924" lon="-5.544996997341514">
        <ele>1293.5</ele>
        <time>2003-04-14T10:04:34Z</time>
      </trkpt>
      <trkpt lat="31.413466958329082" lon="-5.545290028676391">
        <ele>1294.4000000000001</ele>
        <time>2003-04-14T10:04:38Z</time>
      </trkpt>
      <trkpt lat="31.413082983344793" lon="-5.545594962313771">
        <ele>1295.5</ele>
        <time>2003-04-14T10:04:42Z</time>
      </trkpt>
      <trkpt lat="31.412791963666677" lon="-5.545820016413927">
        <ele>1296.4000000000001</ele>
        <time>2003-04-14T10:04:46Z</time>
      </trkpt>
      <trkpt lat="31.412598006427288" lon="-5.545965023338795">
        <ele>1297</ele>
        <time>2003-04-14T10:04:48Z</time>
      </trkpt>
      <trkpt lat="31.412206990644336" lon="-5.546270040795207">
        <ele>1297.5999999999999</ele>
        <time>2003-04-14T10:04:52Z</time>
      </trkpt>
      <trkpt lat="31.411771969869733" lon="-5.546767003834248">
        <ele>1298.9000000000001</ele>
        <time>2003-04-14T10:04:57Z</time>
      </trkpt>
      <trkpt lat="31.411616988480091" lon="-5.546970013529062">
        <ele>1299.7</ele>
        <time>2003-04-14T10:04:58Z</time>
      </trkpt>
      <trkpt lat="31.41135698184371" lon="-5.547237982973456">
        <ele>1299.9000000000001</ele>
        <time>2003-04-14T10:05:01Z</time>
      </trkpt>
      <trkpt lat="31.410662960261106" lon="-5.548074999824166">
        <ele>1303.5</ele>
        <time>2003-04-14T10:05:09Z</time>
      </trkpt>
      <trkpt lat="31.410485012456775" lon="-5.548252025619149">
        <ele>1304.2</ele>
        <time>2003-04-14T10:05:12Z</time>
      </trkpt>
      <trkpt lat="31.410309998318553" lon="-5.5484479945153">
        <ele>1304.0999999999999</ele>
        <time>2003-04-14T10:05:13Z</time>
      </trkpt>
      <trkpt lat="31.410031970590353" lon="-5.548755023628473">
        <ele>1305.0999999999999</ele>
        <time>2003-04-14T10:05:16Z</time>
      </trkpt>
      <trkpt lat="31.409586975350976" lon="-5.549251986667514">
        <ele>1305.5</ele>
        <time>2003-04-14T10:05:21Z</time>
      </trkpt>
      <trkpt lat="31.409256979823112" lon="-5.549684995785356">
        <ele>1307</ele>
        <time>2003-04-14T10:05:25Z</time>
      </trkpt>
      <trkpt lat="31.408787006512284" lon="-5.550154969096184">
        <ele>1309.7</ele>
        <time>2003-04-14T10:05:31Z</time>
      </trkpt>
      <trkpt lat="31.408667983487248" lon="-5.550212971866131">
        <ele>1310</ele>
        <time>2003-04-14T10:05:32Z</time>
      </trkpt>
      <trkpt lat="31.408252995461226" lon="-5.550440037623048">
        <ele>1312.8</ele>
        <time>2003-04-14T10:05:36Z</time>
      </trkpt>
      <trkpt lat="31.408179989084601" lon="-5.550529975444078">
        <ele>1313.0999999999999</ele>
        <time>2003-04-14T10:05:36Z</time>
      </trkpt>
      <trkpt lat="31.408125003799796" lon="-5.550625026226044">
        <ele>1313.5</ele>
        <time>2003-04-14T10:05:38Z</time>
      </trkpt>
      <trkpt lat="31.408092984929681" lon="-5.550728039816022">
        <ele>1313.9000000000001</ele>
        <time>2003-04-14T10:05:39Z</time>
      </trkpt>
      <trkpt lat="31.408064989373088" lon="-5.550929959863424">
        <ele>1314.5</ele>
        <time>2003-04-14T10:05:40Z</time>
      </trkpt>
      <trkpt lat="31.408019978553057" lon="-5.551162976771593">
        <ele>1314.7</ele>
        <time>2003-04-14T10:05:43Z</time>
      </trkpt>
      <trkpt lat="31.40796197578311" lon="-5.551266996189952">
        <ele>1314.9000000000001</ele>
        <time>2003-04-14T10:05:43Z</time>
      </trkpt>
      <trkpt lat="31.407887963578105" lon="-5.551351988688111">
        <ele>1314.8</ele>
        <time>2003-04-14T10:05:44Z</time>
      </trkpt>
      <trkpt lat="31.407808000221848" lon="-5.551419965922833">
        <ele>1314.5999999999999</ele>
        <time>2003-04-14T10:05:46Z</time>
      </trkpt>
      <trkpt lat="31.407474987208843" lon="-5.551682990044355">
        <ele>1318</ele>
        <time>2003-04-14T10:05:50Z</time>
      </trkpt>
      <trkpt lat="31.40731799416244" lon="-5.551717020571232">
        <ele>1318.9000000000001</ele>
        <time>2003-04-14T10:05:51Z</time>
      </trkpt>
      <trkpt lat="31.407172987237573" lon="-5.551706962287426">
        <ele>1319.3</ele>
        <time>2003-04-14T10:05:54Z</time>
      </trkpt>
      <trkpt lat="31.407050024718046" lon="-5.551803018897772">
        <ele>1318.5999999999999</ele>
        <time>2003-04-14T10:05:55Z</time>
      </trkpt>
      <trkpt lat="31.407022029161453" lon="-5.551984990015626">
        <ele>1317.3</ele>
        <time>2003-04-14T10:05:58Z</time>
      </trkpt>
      <trkpt lat="31.407071985304356" lon="-5.55216696113348">
        <ele>1315.9000000000001</ele>
        <time>2003-04-14T10:05:59Z</time>
      </trkpt>
      <trkpt lat="31.407150020822883" lon="-5.552310040220618">
        <ele>1317.4000000000001</ele>
        <time>2003-04-14T10:06:02Z</time>
      </trkpt>
      <trkpt lat="31.40710299834609" lon="-5.552456974983215">
        <ele>1318.4000000000001</ele>
        <time>2003-04-14T10:06:03Z</time>
      </trkpt>
      <trkpt lat="31.407003002241254" lon="-5.552612040191889">
        <ele>1318.8</ele>
        <time>2003-04-14T10:06:06Z</time>
      </trkpt>
      <trkpt lat="31.40690996311605" lon="-5.552807003259659">
        <ele>1319.3</ele>
        <time>2003-04-14T10:06:07Z</time>
      </trkpt>
      <trkpt lat="31.406803010031581" lon="-5.552983023226261">
        <ele>1320.5</ele>
        <time>2003-04-14T10:06:10Z</time>
      </trkpt>
      <trkpt lat="31.406654985621572" lon="-5.553146973252296">
        <ele>1321.8</ele>
        <time>2003-04-14T10:06:11Z</time>
      </trkpt>
      <trkpt lat="31.406492963433266" lon="-5.553372027352452">
        <ele>1324</ele>
        <time>2003-04-14T10:06:14Z</time>
      </trkpt>
      <trkpt lat="31.406403025612235" lon="-5.553485015407205">
        <ele>1324.7</ele>
        <time>2003-04-14T10:06:17Z</time>
      </trkpt>
      <trkpt lat="31.406267993152142" lon="-5.553479986265302">
        <ele>1325.5999999999999</ele>
        <time>2003-04-14T10:06:18Z</time>
      </trkpt>
      <trkpt lat="31.406145030632615" lon="-5.553432041779161">
        <ele>1326.8</ele>
        <time>2003-04-14T10:06:21Z</time>
      </trkpt>
      <trkpt lat="31.406061965972185" lon="-5.553312012925744">
        <ele>1327.9000000000001</ele>
        <time>2003-04-14T10:06:22Z</time>
      </trkpt>
      <trkpt lat="31.405940009281039" lon="-5.553253004327416">
        <ele>1328.8</ele>
        <time>2003-04-14T10:06:25Z</time>
      </trkpt>
      <trkpt lat="31.405821992084384" lon="-5.553321987390518">
        <ele>1329.7</ele>
        <time>2003-04-14T10:06:26Z</time>
      </trkpt>
      <trkpt lat="31.40566298738122" lon="-5.553415026515722">
        <ele>1331.5999999999999</ele>
        <time>2003-04-14T10:06:30Z</time>
      </trkpt>
      <trkpt lat="31.405657036229968" lon="-5.553566990420222">
        <ele>1332.8</ele>
        <time>2003-04-14T10:06:32Z</time>
      </trkpt>
      <trkpt lat="31.40574999153614" lon="-5.553809981793165">
        <ele>1334.4000000000001</ele>
        <time>2003-04-14T10:06:36Z</time>
      </trkpt>
      <trkpt lat="31.405876977369189" lon="-5.553843006491661">
        <ele>1335.5999999999999</ele>
        <time>2003-04-14T10:06:37Z</time>
      </trkpt>
      <trkpt lat="31.405900027602911" lon="-5.553963035345078">
        <ele>1336.0999999999999</ele>
        <time>2003-04-14T10:06:40Z</time>
      </trkpt>
      <trkpt lat="31.405843030661345" lon="-5.554097983986139">
        <ele>1337.5</ele>
        <time>2003-04-14T10:06:41Z</time>
      </trkpt>
      <trkpt lat="31.405721995979548" lon="-5.554317003116012">
        <ele>1338.5</ele>
        <time>2003-04-14T10:06:45Z</time>
      </trkpt>
      <trkpt lat="31.405574977397919" lon="-5.554380035027862">
        <ele>1340.0999999999999</ele>
        <time>2003-04-14T10:06:46Z</time>
      </trkpt>
      <trkpt lat="31.405432987958193" lon="-5.55435698479414">
        <ele>1341.0999999999999</ele>
        <time>2003-04-14T10:06:49Z</time>
      </trkpt>
      <trkpt lat="31.405304996296763" lon="-5.554263023659587">
        <ele>1342.7</ele>
        <time>2003-04-14T10:06:50Z</time>
      </trkpt>
      <trkpt lat="31.40516803599894" lon="-5.554235028102994">
        <ele>1343.9000000000001</ele>
        <time>2003-04-14T10:06:53Z</time>
      </trkpt>
      <trkpt lat="31.405065022408962" lon="-5.554182976484299">
        <ele>1345.5999999999999</ele>
        <time>2003-04-14T10:06:54Z</time>
      </trkpt>
      <trkpt lat="31.405005007982254" lon="-5.554054984822869">
        <ele>1346.3</ele>
        <time>2003-04-14T10:06:57Z</time>
      </trkpt>
      <trkpt lat="31.404916997998953" lon="-5.553921964019537">
        <ele>1347.0999999999999</ele>
        <time>2003-04-14T10:06:59Z</time>
      </trkpt>
      <trkpt lat="31.404763022437692" lon="-5.553897991776466">
        <ele>1348</ele>
        <time>2003-04-14T10:07:01Z</time>
      </trkpt>
      <trkpt lat="31.404607035219669" lon="-5.55394995957613">
        <ele>1348.8</ele>
        <time>2003-04-14T10:07:03Z</time>
      </trkpt>
      <trkpt lat="31.404458004981279" lon="-5.554032018408179">
        <ele>1350</ele>
        <time>2003-04-14T10:07:04Z</time>
      </trkpt>
      <trkpt lat="31.404339987784624" lon="-5.554075017571449">
        <ele>1351.4000000000001</ele>
        <time>2003-04-14T10:07:07Z</time>
      </trkpt>
      <trkpt lat="31.404234962537885" lon="-5.554020032286644">
        <ele>1353.2</ele>
        <time>2003-04-14T10:07:08Z</time>
      </trkpt>
      <trkpt lat="31.404130021110177" lon="-5.553966974839568">
        <ele>1354.5</ele>
        <time>2003-04-14T10:07:11Z</time>
      </trkpt>
      <trkpt lat="31.404032036662102" lon="-5.554048027843237">
        <ele>1355</ele>
        <time>2003-04-14T10:07:12Z</time>
      </trkpt>
      <trkpt lat="31.403962969779968" lon="-5.554136959835887">
        <ele>1356.5999999999999</ele>
        <time>2003-04-14T10:07:15Z</time>
      </trkpt>
      <trkpt lat="31.403843024745584" lon="-5.554088009521365">
        <ele>1357.4000000000001</ele>
        <time>2003-04-14T10:07:16Z</time>
      </trkpt>
      <trkpt lat="31.403712015599012" lon="-5.554005028679967">
        <ele>1358.3</ele>
        <time>2003-04-14T10:07:19Z</time>
      </trkpt>
      <trkpt lat="31.40351302921772" lon="-5.553948031738401">
        <ele>1360.4000000000001</ele>
        <time>2003-04-14T10:07:21Z</time>
      </trkpt>
      <trkpt lat="31.403414960950613" lon="-5.553978038951755">
        <ele>1361.5</ele>
        <time>2003-04-14T10:07:24Z</time>
      </trkpt>
      <trkpt lat="31.403344972059131" lon="-5.554082980379462">
        <ele>1362.4000000000001</ele>
        <time>2003-04-14T10:07:26Z</time>
      </trkpt>
      <trkpt lat="31.403401969000697" lon="-5.554235028102994">
        <ele>1362.9000000000001</ele>
        <time>2003-04-14T10:07:28Z</time>
      </trkpt>
      <trkpt lat="31.403476987034082" lon="-5.554395038634539">
        <ele>1363.5999999999999</ele>
        <time>2003-04-14T10:07:30Z</time>
      </trkpt>
      <trkpt lat="31.403528032824397" lon="-5.554646998643875">
        <ele>1365.0999999999999</ele>
        <time>2003-04-14T10:07:32Z</time>
      </trkpt>
      <trkpt lat="31.403504982590675" lon="-5.554756969213486">
        <ele>1365.8</ele>
        <time>2003-04-14T10:07:35Z</time>
      </trkpt>
      <trkpt lat="31.403414960950613" lon="-5.554804997518659">
        <ele>1366.7</ele>
        <time>2003-04-14T10:07:36Z</time>
      </trkpt>
      <trkpt lat="31.403304990381002" lon="-5.554816983640194">
        <ele>1367.5999999999999</ele>
        <time>2003-04-14T10:07:39Z</time>
      </trkpt>
      <trkpt lat="31.403146991506219" lon="-5.554816983640194">
        <ele>1368.7</ele>
        <time>2003-04-14T10:07:42Z</time>
      </trkpt>
      <trkpt lat="31.402986980974674" lon="-5.554835004732013">
        <ele>1369.7</ele>
        <time>2003-04-14T10:07:44Z</time>
      </trkpt>
      <trkpt lat="31.402920009568334" lon="-5.554962996393442">
        <ele>1370.5999999999999</ele>
        <time>2003-04-14T10:07:47Z</time>
      </trkpt>
      <trkpt lat="31.402929984033108" lon="-5.555117977783084">
        <ele>1370.8</ele>
        <time>2003-04-14T10:07:48Z</time>
      </trkpt>
      <trkpt lat="31.402882039546967" lon="-5.55521696805954">
        <ele>1371.5999999999999</ele>
        <time>2003-04-14T10:07:51Z</time>
      </trkpt>
      <trkpt lat="31.402767961844802" lon="-5.555225014686585">
        <ele>1372.4000000000001</ele>
        <time>2003-04-14T10:07:53Z</time>
      </trkpt>
      <trkpt lat="31.402665032073855" lon="-5.555144967511296">
        <ele>1373.2</ele>
        <time>2003-04-14T10:07:55Z</time>
      </trkpt>
      <trkpt lat="31.402545003220439" lon="-5.555059975013137">
        <ele>1374.7</ele>
        <time>2003-04-14T10:07:57Z</time>
      </trkpt>
      <trkpt lat="31.402235040441155" lon="-5.554840033873916">
        <ele>1379.0999999999999</ele>
        <time>2003-04-14T10:08:02Z</time>
      </trkpt>
      <trkpt lat="31.402120040729642" lon="-5.554837016388774">
        <ele>1379.5999999999999</ele>
        <time>2003-04-14T10:08:05Z</time>
      </trkpt>
      <trkpt lat="31.402033036574721" lon="-5.554944975301623">
        <ele>1380</ele>
        <time>2003-04-14T10:08:06Z</time>
      </trkpt>
      <trkpt lat="31.401972016319633" lon="-5.555113032460213">
        <ele>1380.2</ele>
        <time>2003-04-14T10:08:09Z</time>
      </trkpt>
      <trkpt lat="31.401867996901274" lon="-5.555246975272894">
        <ele>1380.3</ele>
        <time>2003-04-14T10:08:10Z</time>
      </trkpt>
      <trkpt lat="31.401440016925335" lon="-5.555632961913943">
        <ele>1377.8</ele>
        <time>2003-04-14T10:08:18Z</time>
      </trkpt>
      <trkpt lat="31.401359969750047" lon="-5.555807976052165">
        <ele>1376.9000000000001</ele>
        <time>2003-04-14T10:08:20Z</time>
      </trkpt>
      <trkpt lat="31.401242958381772" lon="-5.556048033758998">
        <ele>1376.2</ele>
        <time>2003-04-14T10:08:22Z</time>
      </trkpt>
      <trkpt lat="31.401101974770427" lon="-5.556102013215423">
        <ele>1376</ele>
        <time>2003-04-14T10:08:25Z</time>
      </trkpt>
      <trkpt lat="31.400952022522688" lon="-5.556173007935286">
        <ele>1375</ele>
        <time>2003-04-14T10:08:26Z</time>
      </trkpt>
      <trkpt lat="31.400877004489303" lon="-5.556233022361994">
        <ele>1374.3</ele>
        <time>2003-04-14T10:08:28Z</time>
      </trkpt>
      <trkpt lat="31.400792011991143" lon="-5.556279961019754">
        <ele>1373.9000000000001</ele>
        <time>2003-04-14T10:08:29Z</time>
      </trkpt>
      <trkpt lat="31.400696961209178" lon="-5.556308040395379">
        <ele>1373.3</ele>
        <time>2003-04-14T10:08:29Z</time>
      </trkpt>
      <trkpt lat="31.400263030081987" lon="-5.556457992643118">
        <ele>1371.2</ele>
        <time>2003-04-14T10:08:34Z</time>
      </trkpt>
      <trkpt lat="31.400182982906699" lon="-5.556514989584684">
        <ele>1370.5999999999999</ele>
        <time>2003-04-14T10:08:36Z</time>
      </trkpt>
      <trkpt lat="31.400006962940097" lon="-5.556605011224747">
        <ele>1368.9000000000001</ele>
        <time>2003-04-14T10:08:37Z</time>
      </trkpt>
      <trkpt lat="31.399909984320402" lon="-5.556629989296198">
        <ele>1368.2</ele>
        <time>2003-04-14T10:08:38Z</time>
      </trkpt>
      <trkpt lat="31.399489967152476" lon="-5.556768039241433">
        <ele>1364.7</ele>
        <time>2003-04-14T10:08:44Z</time>
      </trkpt>
      <trkpt lat="31.399321993812919" lon="-5.556897036731243">
        <ele>1363.3</ele>
        <time>2003-04-14T10:08:45Z</time>
      </trkpt>
      <trkpt lat="31.398838022723794" lon="-5.557249998673797">
        <ele>1359.3</ele>
        <time>2003-04-14T10:08:52Z</time>
      </trkpt>
      <trkpt lat="31.398674994707108" lon="-5.557237006723881">
        <ele>1358.2</ele>
        <time>2003-04-14T10:08:53Z</time>
      </trkpt>
      <trkpt lat="31.398441977798939" lon="-5.557147990912199">
        <ele>1356.8</ele>
        <time>2003-04-14T10:08:57Z</time>
      </trkpt>
      <trkpt lat="31.398093039169908" lon="-5.55699996650219">
        <ele>1356.5</ele>
        <time>2003-04-14T10:09:00Z</time>
      </trkpt>
      <trkpt lat="31.397470012307167" lon="-5.55678203701973">
        <ele>1353.7</ele>
        <time>2003-04-14T10:09:08Z</time>
      </trkpt>
      <trkpt lat="31.396563006564975" lon="-5.556452963501215">
        <ele>1350.4000000000001</ele>
        <time>2003-04-14T10:09:16Z</time>
      </trkpt>
      <trkpt lat="31.395848030224442" lon="-5.556164961308241">
        <ele>1348</ele>
        <time>2003-04-14T10:09:22Z</time>
      </trkpt>
      <trkpt lat="31.395462965592742" lon="-5.556024983525276">
        <ele>1346.7</ele>
        <time>2003-04-14T10:09:24Z</time>
      </trkpt>
      <trkpt lat="31.394542967900634" lon="-5.555637991055846">
        <ele>1344.9000000000001</ele>
        <time>2003-04-14T10:09:32Z</time>
      </trkpt>
      <trkpt lat="31.394437020644546" lon="-5.555577976629138">
        <ele>1344.9000000000001</ele>
        <time>2003-04-14T10:09:35Z</time>
      </trkpt>
      <trkpt lat="31.394350016489625" lon="-5.555542018264532">
        <ele>1344.7</ele>
        <time>2003-04-14T10:09:36Z</time>
      </trkpt>
      <trkpt lat="31.394214984029531" lon="-5.555502036586404">
        <ele>1345</ele>
        <time>2003-04-14T10:09:39Z</time>
      </trkpt>
      <trkpt lat="31.393966963514686" lon="-5.555425006896257">
        <ele>1345</ele>
        <time>2003-04-14T10:09:42Z</time>
      </trkpt>
      <trkpt lat="31.393758002668619" lon="-5.555353006348014">
        <ele>1344.9000000000001</ele>
        <time>2003-04-14T10:09:43Z</time>
      </trkpt>
      <trkpt lat="31.393175041303039" lon="-5.555153014138341">
        <ele>1344.2</ele>
        <time>2003-04-14T10:09:49Z</time>
      </trkpt>
      <trkpt lat="31.392377000302076" lon="-5.554859982803464">
        <ele>1342.7</ele>
        <time>2003-04-14T10:09:54Z</time>
      </trkpt>
      <trkpt lat="31.391512993723154" lon="-5.554537028074265">
        <ele>1341.5</ele>
        <time>2003-04-14T10:10:01Z</time>
      </trkpt>
      <trkpt lat="31.390612022951245" lon="-5.55418498814106">
        <ele>1339.5999999999999</ele>
        <time>2003-04-14T10:10:08Z</time>
      </trkpt>
      <trkpt lat="31.390395015478134" lon="-5.554075017571449">
        <ele>1339.7</ele>
        <time>2003-04-14T10:10:10Z</time>
      </trkpt>
      <trkpt lat="31.390053033828735" lon="-5.553905032575131">
        <ele>1339.4000000000001</ele>
        <time>2003-04-14T10:10:13Z</time>
      </trkpt>
      <trkpt lat="31.38911702670157" lon="-5.55349700152874">
        <ele>1339.4000000000001</ele>
        <time>2003-04-14T10:10:21Z</time>
      </trkpt>
      <trkpt lat="31.388683011755347" lon="-5.553316958248615">
        <ele>1339.3</ele>
        <time>2003-04-14T10:10:25Z</time>
      </trkpt>
      <trkpt lat="31.387741975486279" lon="-5.552982017397881">
        <ele>1338.8</ele>
        <time>2003-04-14T10:10:33Z</time>
      </trkpt>
      <trkpt lat="31.386817032471299" lon="-5.552612040191889">
        <ele>1339.0999999999999</ele>
        <time>2003-04-14T10:10:43Z</time>
      </trkpt>
      <trkpt lat="31.386537998914719" lon="-5.552505003288388">
        <ele>1339.8</ele>
        <time>2003-04-14T10:10:45Z</time>
      </trkpt>
      <trkpt lat="31.386286960914731" lon="-5.552399978041649">
        <ele>1339.5999999999999</ele>
        <time>2003-04-14T10:10:48Z</time>
      </trkpt>
      <trkpt lat="31.385520016774535" lon="-5.552156986668706">
        <ele>1341.2</ele>
        <time>2003-04-14T10:10:57Z</time>
      </trkpt>
      <trkpt lat="31.385281970724463" lon="-5.55205699056387">
        <ele>1341.8</ele>
        <time>2003-04-14T10:11:00Z</time>
      </trkpt>
      <trkpt lat="31.384977959096432" lon="-5.551952971145511">
        <ele>1342.5999999999999</ele>
        <time>2003-04-14T10:11:04Z</time>
      </trkpt>
      <trkpt lat="31.384034994989634" lon="-5.551575031131506">
        <ele>1345</ele>
        <time>2003-04-14T10:11:12Z</time>
      </trkpt>
      <trkpt lat="31.38349000364542" lon="-5.551372021436691">
        <ele>1346.7</ele>
        <time>2003-04-14T10:11:18Z</time>
      </trkpt>
      <trkpt lat="31.383160008117557" lon="-5.551243023946881">
        <ele>1347.3</ele>
        <time>2003-04-14T10:11:20Z</time>
      </trkpt>
      <trkpt lat="31.382927997037768" lon="-5.551170017570257">
        <ele>1347.5999999999999</ele>
        <time>2003-04-14T10:11:23Z</time>
      </trkpt>
      <trkpt lat="31.382398009300232" lon="-5.55098201148212">
        <ele>1348.8</ele>
        <time>2003-04-14T10:11:27Z</time>
      </trkpt>
      <trkpt lat="31.382294995710254" lon="-5.550991985946894">
        <ele>1349.0999999999999</ele>
        <time>2003-04-14T10:11:29Z</time>
      </trkpt>
      <trkpt lat="31.382194999605417" lon="-5.551032973453403">
        <ele>1348.7</ele>
        <time>2003-04-14T10:11:30Z</time>
      </trkpt>
      <trkpt lat="31.382087962701917" lon="-5.551059963181615">
        <ele>1348.5999999999999</ele>
        <time>2003-04-14T10:11:31Z</time>
      </trkpt>
      <trkpt lat="31.381883025169373" lon="-5.551046971231699">
        <ele>1347.8</ele>
        <time>2003-04-14T10:11:33Z</time>
      </trkpt>
      <trkpt lat="31.381713040173054" lon="-5.55106800980866">
        <ele>1349.3</ele>
        <time>2003-04-14T10:11:34Z</time>
      </trkpt>
      <trkpt lat="31.381565015763044" lon="-5.551122995093465">
        <ele>1349.5</ele>
        <time>2003-04-14T10:11:37Z</time>
      </trkpt>
      <trkpt lat="31.381417997181416" lon="-5.551097011193633">
        <ele>1348.7</ele>
        <time>2003-04-14T10:11:38Z</time>
      </trkpt>
      <trkpt lat="31.381267961114645" lon="-5.551142022013664">
        <ele>1349.5999999999999</ele>
        <time>2003-04-14T10:11:41Z</time>
      </trkpt>
      <trkpt lat="31.381177017465234" lon="-5.551132969558239">
        <ele>1349.5</ele>
        <time>2003-04-14T10:11:43Z</time>
      </trkpt>
      <trkpt lat="31.381047014147043" lon="-5.551116960123181">
        <ele>1349.2</ele>
        <time>2003-04-14T10:11:46Z</time>
      </trkpt>
      <trkpt lat="31.380867976695299" lon="-5.551089970394969">
        <ele>1349.8</ele>
        <time>2003-04-14T10:11:50Z</time>
      </trkpt>
      <trkpt lat="31.380752976983786" lon="-5.551059963181615">
        <ele>1350</ele>
        <time>2003-04-14T10:11:51Z</time>
      </trkpt>
      <trkpt lat="31.380573017522693" lon="-5.551030039787293">
        <ele>1349.4000000000001</ele>
        <time>2003-04-14T10:11:54Z</time>
      </trkpt>
      <trkpt lat="31.380443014204502" lon="-5.551031967625022">
        <ele>1351.8</ele>
        <time>2003-04-14T10:11:57Z</time>
      </trkpt>
      <trkpt lat="31.380275040864944" lon="-5.551053006201983">
        <ele>1351.5999999999999</ele>
        <time>2003-04-14T10:11:58Z</time>
      </trkpt>
      <trkpt lat="31.379895005375147" lon="-5.551046971231699">
        <ele>1352.5999999999999</ele>
        <time>2003-04-14T10:12:02Z</time>
      </trkpt>
      <trkpt lat="31.37945001013577" lon="-5.551058035343885">
        <ele>1354.2</ele>
        <time>2003-04-14T10:12:08Z</time>
      </trkpt>
      <trkpt lat="31.379247000440955" lon="-5.551058035343885">
        <ele>1355</ele>
        <time>2003-04-14T10:12:10Z</time>
      </trkpt>
      <trkpt lat="31.379090007394552" lon="-5.551046971231699">
        <ele>1355.7</ele>
        <time>2003-04-14T10:12:13Z</time>
      </trkpt>
      <trkpt lat="31.378980036824942" lon="-5.551049988716841">
        <ele>1356.0999999999999</ele>
        <time>2003-04-14T10:12:17Z</time>
      </trkpt>
      <trkpt lat="31.379182040691376" lon="-5.551058035343885">
        <ele>1355.7</ele>
        <time>2003-04-14T10:13:14Z</time>
      </trkpt>
      <trkpt lat="31.379327969625592" lon="-5.551070021465421">
        <ele>1355.5999999999999</ele>
        <time>2003-04-14T10:13:15Z</time>
      </trkpt>
      <trkpt lat="31.379420002922416" lon="-5.55106800980866">
        <ele>1355.4000000000001</ele>
        <time>2003-04-14T10:13:17Z</time>
      </trkpt>
      <trkpt lat="31.379813030362129" lon="-5.551049988716841">
        <ele>1354.5999999999999</ele>
        <time>2003-04-14T10:13:21Z</time>
      </trkpt>
      <trkpt lat="31.380107989534736" lon="-5.55104797706008">
        <ele>1354.2</ele>
        <time>2003-04-14T10:13:23Z</time>
      </trkpt>
      <trkpt lat="31.3802669942379" lon="-5.551055017858744">
        <ele>1353.9000000000001</ele>
        <time>2003-04-14T10:13:26Z</time>
      </trkpt>
      <trkpt lat="31.380372019484639" lon="-5.551044959574938">
        <ele>1353.7</ele>
        <time>2003-04-14T10:13:27Z</time>
      </trkpt>
      <trkpt lat="31.380488025024533" lon="-5.551038002595305">
        <ele>1353.7</ele>
        <time>2003-04-14T10:13:30Z</time>
      </trkpt>
      <trkpt lat="31.380597995594144" lon="-5.551007995381951">
        <ele>1353.5</ele>
        <time>2003-04-14T10:13:52Z</time>
      </trkpt>
      <trkpt lat="31.380703020840883" lon="-5.550949992612004">
        <ele>1353.8</ele>
        <time>2003-04-14T10:13:54Z</time>
      </trkpt>
      <trkpt lat="31.380797987803817" lon="-5.550925014540553">
        <ele>1353.5999999999999</ele>
        <time>2003-04-14T10:13:57Z</time>
      </trkpt>
      <trkpt lat="31.380907036364079" lon="-5.550900036469102">
        <ele>1353.4000000000001</ele>
        <time>2003-04-14T10:13:58Z</time>
      </trkpt>
      <trkpt lat="31.380992028862238" lon="-5.550847984850407">
        <ele>1353.7</ele>
        <time>2003-04-14T10:14:01Z</time>
      </trkpt>
      <trkpt lat="31.381081966683269" lon="-5.550822000950575">
        <ele>1353.9000000000001</ele>
        <time>2003-04-14T10:14:06Z</time>
      </trkpt>
      <trkpt lat="31.381096970289946" lon="-5.550716975703836">
        <ele>1353.7</ele>
        <time>2003-04-14T10:14:11Z</time>
      </trkpt>
      <trkpt lat="31.381067968904972" lon="-5.550616979598999">
        <ele>1354</ele>
        <time>2003-04-14T10:14:13Z</time>
      </trkpt>
      <trkpt lat="31.381042990833521" lon="-5.550471972674131">
        <ele>1353.7</ele>
        <time>2003-04-14T10:14:15Z</time>
      </trkpt>
      <trkpt lat="31.381003009155393" lon="-5.550147006288171">
        <ele>1354.2</ele>
        <time>2003-04-14T10:14:19Z</time>
      </trkpt>
      <trkpt lat="31.380892032757401" lon="-5.549707040190697">
        <ele>1354.8</ele>
        <time>2003-04-14T10:14:24Z</time>
      </trkpt>
      <trkpt lat="31.380837969481945" lon="-5.549454996362329">
        <ele>1355.3</ele>
        <time>2003-04-14T10:14:27Z</time>
      </trkpt>
      <trkpt lat="31.380787007510662" lon="-5.549145033583045">
        <ele>1355.2</ele>
        <time>2003-04-14T10:14:29Z</time>
      </trkpt>
      <trkpt lat="31.380796981975436" lon="-5.548957027494907">
        <ele>1355.5</ele>
        <time>2003-04-14T10:14:32Z</time>
      </trkpt>
      <trkpt lat="31.380802011117339" lon="-5.548849990591407">
        <ele>1355.2</ele>
        <time>2003-04-14T10:14:33Z</time>
      </trkpt>
      <trkpt lat="31.380766974762082" lon="-5.548591995611787">
        <ele>1354.4000000000001</ele>
        <time>2003-04-14T10:14:38Z</time>
      </trkpt>
      <trkpt lat="31.380652980878949" lon="-5.548182036727667">
        <ele>1354.5999999999999</ele>
        <time>2003-04-14T10:14:43Z</time>
      </trkpt>
      <trkpt lat="31.380537981167436" lon="-5.54782303981483">
        <ele>1354.3</ele>
        <time>2003-04-14T10:14:50Z</time>
      </trkpt>
      <trkpt lat="31.380485007539392" lon="-5.547692030668259">
        <ele>1355.4000000000001</ele>
        <time>2003-04-14T10:14:52Z</time>
      </trkpt>
      <trkpt lat="31.380449971184134" lon="-5.547554986551404">
        <ele>1354.0999999999999</ele>
        <time>2003-04-14T10:14:56Z</time>
      </trkpt>
      <trkpt lat="31.380394985899329" lon="-5.547407967969775">
        <ele>1355.3</ele>
        <time>2003-04-14T10:14:59Z</time>
      </trkpt>
      <trkpt lat="31.380347041413188" lon="-5.547275030985475">
        <ele>1355.2</ele>
        <time>2003-04-14T10:15:02Z</time>
      </trkpt>
      <trkpt lat="31.380275040864944" lon="-5.547124994918704">
        <ele>1355.2</ele>
        <time>2003-04-14T10:15:03Z</time>
      </trkpt>
      <trkpt lat="31.380116958171129" lon="-5.546861970797181">
        <ele>1354.0999999999999</ele>
        <time>2003-04-14T10:15:07Z</time>
      </trkpt>
      <trkpt lat="31.379912020638585" lon="-5.546442959457636">
        <ele>1354.5999999999999</ele>
        <time>2003-04-14T10:15:14Z</time>
      </trkpt>
      <trkpt lat="31.379862986505032" lon="-5.546347992494702">
        <ele>1354.8</ele>
        <time>2003-04-14T10:15:15Z</time>
      </trkpt>
      <trkpt lat="31.379907997325063" lon="-5.546240033581853">
        <ele>1354.8</ele>
        <time>2003-04-14T10:15:18Z</time>
      </trkpt>
      <trkpt lat="31.380000030621886" lon="-5.546141965314746">
        <ele>1354.2</ele>
        <time>2003-04-14T10:15:19Z</time>
      </trkpt>
      <trkpt lat="31.380106983706355" lon="-5.546029983088374">
        <ele>1353.2</ele>
        <time>2003-04-14T10:15:22Z</time>
      </trkpt>
      <trkpt lat="31.380189964547753" lon="-5.545877013355494">
        <ele>1352.8</ele>
        <time>2003-04-14T10:15:23Z</time>
      </trkpt>
      <trkpt lat="31.380340000614524" lon="-5.545657994225621">
        <ele>1352</ele>
        <time>2003-04-14T10:15:26Z</time>
      </trkpt>
      <trkpt lat="31.380688017234206" lon="-5.545177040621638">
        <ele>1350.2</ele>
        <time>2003-04-14T10:15:33Z</time>
      </trkpt>
      <trkpt lat="31.38071802444756" lon="-5.54507302120328">
        <ele>1349.4000000000001</ele>
        <time>2003-04-14T10:15:34Z</time>
      </trkpt>
      <trkpt lat="31.380863031372428" lon="-5.544616961851716">
        <ele>1347.7</ele>
        <time>2003-04-14T10:15:38Z</time>
      </trkpt>
      <trkpt lat="31.380866970866919" lon="-5.544506991282105">
        <ele>1347.3</ele>
        <time>2003-04-14T10:15:40Z</time>
      </trkpt>
      <trkpt lat="31.380884991958737" lon="-5.544398026540875">
        <ele>1347.0999999999999</ele>
        <time>2003-04-14T10:15:41Z</time>
      </trkpt>
      <trkpt lat="31.380945006385446" lon="-5.544201973825693">
        <ele>1346.7</ele>
        <time>2003-04-14T10:15:42Z</time>
      </trkpt>
      <trkpt lat="31.381150027737021" lon="-5.543667040765286">
        <ele>1346.0999999999999</ele>
        <time>2003-04-14T10:15:49Z</time>
      </trkpt>
      <trkpt lat="31.381486980244517" lon="-5.543175023049116">
        <ele>1344.5</ele>
        <time>2003-04-14T10:15:54Z</time>
      </trkpt>
      <trkpt lat="31.381523022428155" lon="-5.543063040822744">
        <ele>1344.2</ele>
        <time>2003-04-14T10:15:56Z</time>
      </trkpt>
      <trkpt lat="31.381608014926314" lon="-5.542892972007394">
        <ele>1343.9000000000001</ele>
        <time>2003-04-14T10:15:57Z</time>
      </trkpt>
      <trkpt lat="31.381774982437491" lon="-5.542555013671517">
        <ele>1342.0999999999999</ele>
        <time>2003-04-14T10:16:01Z</time>
      </trkpt>
      <trkpt lat="31.38185502961278" lon="-5.54236801341176">
        <ele>1341.9000000000001</ele>
        <time>2003-04-14T10:16:04Z</time>
      </trkpt>
      <trkpt lat="31.382230035960674" lon="-5.541408034041524">
        <ele>1338.5999999999999</ele>
        <time>2003-04-14T10:16:13Z</time>
      </trkpt>
      <trkpt lat="31.382496999576688" lon="-5.540781989693642">
        <ele>1336.8</ele>
        <time>2003-04-14T10:16:20Z</time>
      </trkpt>
      <trkpt lat="31.382579980418086" lon="-5.540588032454252">
        <ele>1336.5999999999999</ele>
        <time>2003-04-14T10:16:21Z</time>
      </trkpt>
      <trkpt lat="31.382721969857812" lon="-5.540327019989491">
        <ele>1335.9000000000001</ele>
        <time>2003-04-14T10:16:24Z</time>
      </trkpt>
      <trkpt lat="31.382817020639777" lon="-5.540172960609198">
        <ele>1335.4000000000001</ele>
        <time>2003-04-14T10:16:27Z</time>
      </trkpt>
      <trkpt lat="31.382864965125918" lon="-5.539971962571144">
        <ele>1335</ele>
        <time>2003-04-14T10:16:28Z</time>
      </trkpt>
      <trkpt lat="31.382915005087852" lon="-5.539786973968148">
        <ele>1334.5</ele>
        <time>2003-04-14T10:16:31Z</time>
      </trkpt>
      <trkpt lat="31.383092030882835" lon="-5.539022041484714">
        <ele>1332.9000000000001</ele>
        <time>2003-04-14T10:16:39Z</time>
      </trkpt>
      <trkpt lat="31.383154978975654" lon="-5.538809979334474">
        <ele>1332.4000000000001</ele>
        <time>2003-04-14T10:16:40Z</time>
      </trkpt>
      <trkpt lat="31.383227985352278" lon="-5.538475038483739">
        <ele>1332</ele>
        <time>2003-04-14T10:16:43Z</time>
      </trkpt>
      <trkpt lat="31.383335022255778" lon="-5.538079999387264">
        <ele>1332.2</ele>
        <time>2003-04-14T10:16:47Z</time>
      </trkpt>
      <trkpt lat="31.383401993662119" lon="-5.537786968052387">
        <ele>1332.0999999999999</ele>
        <time>2003-04-14T10:16:51Z</time>
      </trkpt>
      <trkpt lat="31.383463013917208" lon="-5.53746703080833">
        <ele>1331.4000000000001</ele>
        <time>2003-04-14T10:16:54Z</time>
      </trkpt>
      <trkpt lat="31.383589999750257" lon="-5.53708297200501">
        <ele>1330.5</ele>
        <time>2003-04-14T10:16:58Z</time>
      </trkpt>
      <trkpt lat="31.383580025285482" lon="-5.536878034472466">
        <ele>1330.2</ele>
        <time>2003-04-14T10:16:59Z</time>
      </trkpt>
      <trkpt lat="31.383607015013695" lon="-5.536675024777651">
        <ele>1329.8</ele>
        <time>2003-04-14T10:17:02Z</time>
      </trkpt>
      <trkpt lat="31.383620006963611" lon="-5.536242015659809">
        <ele>1329.0999999999999</ele>
        <time>2003-04-14T10:17:06Z</time>
      </trkpt>
      <trkpt lat="31.383637022227049" lon="-5.535957030951977">
        <ele>1329</ele>
        <time>2003-04-14T10:17:09Z</time>
      </trkpt>
      <trkpt lat="31.383701981976628" lon="-5.535670034587383">
        <ele>1328.7</ele>
        <time>2003-04-14T10:17:11Z</time>
      </trkpt>
      <trkpt lat="31.383789991959929" lon="-5.535468030720949">
        <ele>1328.0999999999999</ele>
        <time>2003-04-14T10:17:14Z</time>
      </trkpt>
      <trkpt lat="31.383859980851412" lon="-5.535263009369373">
        <ele>1327.3</ele>
        <time>2003-04-14T10:17:15Z</time>
      </trkpt>
      <trkpt lat="31.383929969742894" lon="-5.534957991912961">
        <ele>1327</ele>
        <time>2003-04-14T10:17:18Z</time>
      </trkpt>
      <trkpt lat="31.383980009704828" lon="-5.534660015255213">
        <ele>1326.9000000000001</ele>
        <time>2003-04-14T10:17:22Z</time>
      </trkpt>
      <trkpt lat="31.383957965299487" lon="-5.533597022294998">
        <ele>1326.0999999999999</ele>
        <time>2003-04-14T10:17:32Z</time>
      </trkpt>
      <trkpt lat="31.383923012763262" lon="-5.533378003165126">
        <ele>1325.8</ele>
        <time>2003-04-14T10:17:33Z</time>
      </trkpt>
      <trkpt lat="31.383914966136217" lon="-5.533171975985169">
        <ele>1325.5</ele>
        <time>2003-04-14T10:17:36Z</time>
      </trkpt>
      <trkpt lat="31.383904991671443" lon="-5.532948011532426">
        <ele>1324.9000000000001</ele>
        <time>2003-04-14T10:17:37Z</time>
      </trkpt>
      <trkpt lat="31.383898034691811" lon="-5.532536963000894">
        <ele>1324.5</ele>
        <time>2003-04-14T10:17:41Z</time>
      </trkpt>
      <trkpt lat="31.383952014148235" lon="-5.532147958874703">
        <ele>1324.2</ele>
        <time>2003-04-14T10:17:45Z</time>
      </trkpt>
      <trkpt lat="31.384113030508161" lon="-5.531725008040667">
        <ele>1323.3</ele>
        <time>2003-04-14T10:17:49Z</time>
      </trkpt>
      <trkpt lat="31.384232975542545" lon="-5.53141001611948">
        <ele>1322.5</ele>
        <time>2003-04-14T10:17:52Z</time>
      </trkpt>
      <trkpt lat="31.384310005232692" lon="-5.531241958960891">
        <ele>1321.9000000000001</ele>
        <time>2003-04-14T10:17:55Z</time>
      </trkpt>
      <trkpt lat="31.384445037692785" lon="-5.53110801614821">
        <ele>1321.3</ele>
        <time>2003-04-14T10:17:56Z</time>
      </trkpt>
      <trkpt lat="31.384507985785604" lon="-5.531007014214993">
        <ele>1320.8</ele>
        <time>2003-04-14T10:17:57Z</time>
      </trkpt>
      <trkpt lat="31.384649975225329" lon="-5.530733009800315">
        <ele>1320.0999999999999</ele>
        <time>2003-04-14T10:18:00Z</time>
      </trkpt>
      <trkpt lat="31.38475701212883" lon="-5.530580040067434">
        <ele>1319.0999999999999</ele>
        <time>2003-04-14T10:18:03Z</time>
      </trkpt>
      <trkpt lat="31.384984999895096" lon="-5.530321961268783">
        <ele>1318.7</ele>
        <time>2003-04-14T10:18:07Z</time>
      </trkpt>
      <trkpt lat="31.385232014581561" lon="-5.530049968510866">
        <ele>1318.4000000000001</ele>
        <time>2003-04-14T10:18:11Z</time>
      </trkpt>
      <trkpt lat="31.385780023410916" lon="-5.529452003538609">
        <ele>1317.5999999999999</ele>
        <time>2003-04-14T10:18:19Z</time>
      </trkpt>
      <trkpt lat="31.38602796010673" lon="-5.529214963316917">
        <ele>1316.7</ele>
        <time>2003-04-14T10:18:23Z</time>
      </trkpt>
      <trkpt lat="31.386165004223585" lon="-5.528989993035793">
        <ele>1316.3</ele>
        <time>2003-04-14T10:18:26Z</time>
      </trkpt>
      <trkpt lat="31.386277992278337" lon="-5.528742978349328">
        <ele>1316.0999999999999</ele>
        <time>2003-04-14T10:18:28Z</time>
      </trkpt>
      <trkpt lat="31.386298025026917" lon="-5.528581961989403">
        <ele>1315.8</ele>
        <time>2003-04-14T10:18:31Z</time>
      </trkpt>
      <trkpt lat="31.386361978948116" lon="-5.528466962277889">
        <ele>1315.5999999999999</ele>
        <time>2003-04-14T10:18:32Z</time>
      </trkpt>
      <trkpt lat="31.38649801723659" lon="-5.528375012800098">
        <ele>1315.4000000000001</ele>
        <time>2003-04-14T10:18:35Z</time>
      </trkpt>
      <trkpt lat="31.386803034693003" lon="-5.528178038075566">
        <ele>1314.5</ele>
        <time>2003-04-14T10:18:39Z</time>
      </trkpt>
      <trkpt lat="31.386876963078976" lon="-5.528115006163716">
        <ele>1313.9000000000001</ele>
        <time>2003-04-14T10:18:39Z</time>
      </trkpt>
      <trkpt lat="31.387037979438901" lon="-5.52801501005888">
        <ele>1314.7</ele>
        <time>2003-04-14T10:18:42Z</time>
      </trkpt>
      <trkpt lat="31.387584982439876" lon="-5.5275649856776">
        <ele>1313.4000000000001</ele>
        <time>2003-04-14T10:18:49Z</time>
      </trkpt>
      <trkpt lat="31.387999970465899" lon="-5.527019994333386">
        <ele>1312.4000000000001</ele>
        <time>2003-04-14T10:18:54Z</time>
      </trkpt>
      <trkpt lat="31.388093009591103" lon="-5.52694296464324">
        <ele>1312.4000000000001</ele>
        <time>2003-04-14T10:18:55Z</time>
      </trkpt>
      <trkpt lat="31.38866700232029" lon="-5.526492018252611">
        <ele>1311.9000000000001</ele>
        <time>2003-04-14T10:19:02Z</time>
      </trkpt>
      <trkpt lat="31.389072015881538" lon="-5.526241986081004">
        <ele>1311.5</ele>
        <time>2003-04-14T10:19:06Z</time>
      </trkpt>
      <trkpt lat="31.389362029731274" lon="-5.526050040498376">
        <ele>1311.2</ele>
        <time>2003-04-14T10:19:09Z</time>
      </trkpt>
      <trkpt lat="31.389809958636761" lon="-5.525790033861995">
        <ele>1310.0999999999999</ele>
        <time>2003-04-14T10:19:13Z</time>
      </trkpt>
      <trkpt lat="31.389897968620062" lon="-5.525766983628273">
        <ele>1310.0999999999999</ele>
        <time>2003-04-14T10:19:14Z</time>
      </trkpt>
      <trkpt lat="31.390761975198984" lon="-5.525447968393564">
        <ele>1309.4000000000001</ele>
        <time>2003-04-14T10:19:24Z</time>
      </trkpt>
      <trkpt lat="31.390915028750896" lon="-5.52539499476552">
        <ele>1309.4000000000001</ele>
        <time>2003-04-14T10:19:25Z</time>
      </trkpt>
      <trkpt lat="31.391043020412326" lon="-5.525359958410263">
        <ele>1309.4000000000001</ele>
        <time>2003-04-14T10:19:28Z</time>
      </trkpt>
      <trkpt lat="31.391139999032021" lon="-5.525300027802587">
        <ele>1308.5</ele>
        <time>2003-04-14T10:19:29Z</time>
      </trkpt>
      <trkpt lat="31.391260027885437" lon="-5.525310002267361">
        <ele>1307.8</ele>
        <time>2003-04-14T10:19:33Z</time>
      </trkpt>
      <trkpt lat="31.391496984288096" lon="-5.525462972000241">
        <ele>1308.3</ele>
        <time>2003-04-14T10:19:39Z</time>
      </trkpt>
      <trkpt lat="31.391603015363216" lon="-5.525509994477034">
        <ele>1308.5</ele>
        <time>2003-04-14T10:19:40Z</time>
      </trkpt>
      <trkpt lat="31.39189001172781" lon="-5.525636980310082">
        <ele>1309</ele>
        <time>2003-04-14T10:19:44Z</time>
      </trkpt>
      <trkpt lat="31.392026972025633" lon="-5.525607978925109">
        <ele>1309.5999999999999</ele>
        <time>2003-04-14T10:19:47Z</time>
      </trkpt>
      <trkpt lat="31.392169967293739" lon="-5.525517035275698">
        <ele>1309.7</ele>
        <time>2003-04-14T10:19:48Z</time>
      </trkpt>
      <trkpt lat="31.392398038879037" lon="-5.52533196285367">
        <ele>1310.3</ele>
        <time>2003-04-14T10:19:52Z</time>
      </trkpt>
      <trkpt lat="31.392525024712086" lon="-5.525143034756184">
        <ele>1310.3</ele>
        <time>2003-04-14T10:19:53Z</time>
      </trkpt>
      <trkpt lat="31.39270699582994" lon="-5.524768028408289">
        <ele>1309.5999999999999</ele>
        <time>2003-04-14T10:19:57Z</time>
      </trkpt>
      <trkpt lat="31.392797017470002" lon="-5.524499975144863">
        <ele>1309.2</ele>
        <time>2003-04-14T10:20:02Z</time>
      </trkpt>
      <trkpt lat="31.392862983047962" lon="-5.524423029273748">
        <ele>1309</ele>
        <time>2003-04-14T10:20:02Z</time>
      </trkpt>
      <trkpt lat="31.392945041880012" lon="-5.524359997361898">
        <ele>1308.3</ele>
        <time>2003-04-14T10:20:04Z</time>
      </trkpt>
      <trkpt lat="31.393036991357803" lon="-5.524318004027009">
        <ele>1308.3</ele>
        <time>2003-04-14T10:20:04Z</time>
      </trkpt>
      <trkpt lat="31.393142016604543" lon="-5.524290008470416">
        <ele>1309.0999999999999</ele>
        <time>2003-04-14T10:20:04Z</time>
      </trkpt>
      <trkpt lat="31.393247963860631" lon="-5.524239968508482">
        <ele>1308.7</ele>
        <time>2003-04-14T10:20:06Z</time>
      </trkpt>
      <trkpt lat="31.393684996291995" lon="-5.524017009884119">
        <ele>1309.9000000000001</ele>
        <time>2003-04-14T10:20:11Z</time>
      </trkpt>
      <trkpt lat="31.393882976844907" lon="-5.523918019607663">
        <ele>1310.2</ele>
        <time>2003-04-14T10:20:14Z</time>
      </trkpt>
      <trkpt lat="31.393980039283633" lon="-5.523902010172606">
        <ele>1310.5999999999999</ele>
        <time>2003-04-14T10:20:15Z</time>
      </trkpt>
      <trkpt lat="31.394150024279952" lon="-5.523835038766265">
        <ele>1311</ele>
        <time>2003-04-14T10:20:19Z</time>
      </trkpt>
      <trkpt lat="31.394282039254904" lon="-5.523741999641061">
        <ele>1311</ele>
        <time>2003-04-14T10:20:20Z</time>
      </trkpt>
      <trkpt lat="31.394399972632527" lon="-5.523626999929547">
        <ele>1311</ele>
        <time>2003-04-14T10:20:23Z</time>
      </trkpt>
      <trkpt lat="31.394650004804134" lon="-5.523332040756941">
        <ele>1311.2</ele>
        <time>2003-04-14T10:20:27Z</time>
      </trkpt>
      <trkpt lat="31.394759975373745" lon="-5.523130036890507">
        <ele>1311.2</ele>
        <time>2003-04-14T10:20:29Z</time>
      </trkpt>
      <trkpt lat="31.39489802531898" lon="-5.522759975865483">
        <ele>1310.4000000000001</ele>
        <time>2003-04-14T10:20:31Z</time>
      </trkpt>
      <trkpt lat="31.394997015595436" lon="-5.522525031119585">
        <ele>1310.5999999999999</ele>
        <time>2003-04-14T10:20:34Z</time>
      </trkpt>
      <trkpt lat="31.39528501778841" lon="-5.521815000101924">
        <ele>1308.7</ele>
        <time>2003-04-14T10:20:39Z</time>
      </trkpt>
      <trkpt lat="31.395351989194751" lon="-5.521641997620463">
        <ele>1308</ele>
        <time>2003-04-14T10:20:42Z</time>
      </trkpt>
      <trkpt lat="31.395381996408105" lon="-5.521524986252189">
        <ele>1307</ele>
        <time>2003-04-14T10:20:45Z</time>
      </trkpt>
      <trkpt lat="31.395464977249503" lon="-5.521454997360706">
        <ele>1306</ele>
        <time>2003-04-14T10:20:50Z</time>
      </trkpt>
      <trkpt lat="31.395530020818114" lon="-5.521317031234503">
        <ele>1306.5999999999999</ele>
        <time>2003-04-14T10:20:53Z</time>
      </trkpt>
      <trkpt lat="31.395572014153004" lon="-5.52116297185421">
        <ele>1306</ele>
        <time>2003-04-14T10:20:54Z</time>
      </trkpt>
      <trkpt lat="31.395673016086221" lon="-5.520932972431183">
        <ele>1305.2</ele>
        <time>2003-04-14T10:20:58Z</time>
      </trkpt>
      <trkpt lat="31.395877031609416" lon="-5.520459981635213">
        <ele>1302.7</ele>
        <time>2003-04-14T10:21:05Z</time>
      </trkpt>
      <trkpt lat="31.395947020500898" lon="-5.52032302133739">
        <ele>1301.4000000000001</ele>
        <time>2003-04-14T10:21:05Z</time>
      </trkpt>
      <trkpt lat="31.395975016057491" lon="-5.520187988877296">
        <ele>1300.5999999999999</ele>
        <time>2003-04-14T10:21:08Z</time>
      </trkpt>
      <trkpt lat="31.396105019375682" lon="-5.520027978345752">
        <ele>1300.5</ele>
        <time>2003-04-14T10:21:12Z</time>
      </trkpt>
      <trkpt lat="31.396156987175345" lon="-5.519880037754774">
        <ele>1300.0999999999999</ele>
        <time>2003-04-14T10:21:14Z</time>
      </trkpt>
      <trkpt lat="31.396233011037111" lon="-5.519732013344765">
        <ele>1300.0999999999999</ele>
        <time>2003-04-14T10:21:16Z</time>
      </trkpt>
      <trkpt lat="31.396474996581674" lon="-5.519243013113737">
        <ele>1298.5999999999999</ele>
        <time>2003-04-14T10:21:21Z</time>
      </trkpt>
      <trkpt lat="31.396680017933249" lon="-5.518831964582205">
        <ele>1297.8</ele>
        <time>2003-04-14T10:21:28Z</time>
      </trkpt>
      <trkpt lat="31.396752018481493" lon="-5.518730040639639">
        <ele>1297.3</ele>
        <time>2003-04-14T10:21:28Z</time>
      </trkpt>
      <trkpt lat="31.396937007084489" lon="-5.518446983769536">
        <ele>1296.9000000000001</ele>
        <time>2003-04-14T10:21:36Z</time>
      </trkpt>
      <trkpt lat="31.396971959620714" lon="-5.518319997936487">
        <ele>1297.5</ele>
        <time>2003-04-14T10:21:37Z</time>
      </trkpt>
      <trkpt lat="31.397014958783984" lon="-5.518169961869717">
        <ele>1296.8</ele>
        <time>2003-04-14T10:21:40Z</time>
      </trkpt>
      <trkpt lat="31.396992998197675" lon="-5.517962006852031">
        <ele>1297.0999999999999</ele>
        <time>2003-04-14T10:21:41Z</time>
      </trkpt>
      <trkpt lat="31.396972965449095" lon="-5.517733013257384">
        <ele>1296.7</ele>
        <time>2003-04-14T10:21:44Z</time>
      </trkpt>
      <trkpt lat="31.396998027339578" lon="-5.517535032704473">
        <ele>1296.3</ele>
        <time>2003-04-14T10:21:45Z</time>
      </trkpt>
      <trkpt lat="31.397087965160608" lon="-5.517003033310175">
        <ele>1296.4000000000001</ele>
        <time>2003-04-14T10:21:51Z</time>
      </trkpt>
      <trkpt lat="31.397343026474118" lon="-5.51619996316731">
        <ele>1296.0999999999999</ele>
        <time>2003-04-14T10:21:58Z</time>
      </trkpt>
      <trkpt lat="31.397379990667105" lon="-5.516095021739602">
        <ele>1295.8</ele>
        <time>2003-04-14T10:21:59Z</time>
      </trkpt>
      <trkpt lat="31.397512005642056" lon="-5.515696965157986">
        <ele>1295.5</ele>
        <time>2003-04-14T10:22:03Z</time>
      </trkpt>
      <trkpt lat="31.397566990926862" lon="-5.515547012910247">
        <ele>1294.9000000000001</ele>
        <time>2003-04-14T10:22:04Z</time>
      </trkpt>
      <trkpt lat="31.397657012566924" lon="-5.515390019863844">
        <ele>1294.8</ele>
        <time>2003-04-14T10:22:07Z</time>
      </trkpt>
      <trkpt lat="31.397791961207986" lon="-5.515209976583719">
        <ele>1294.7</ele>
        <time>2003-04-14T10:22:08Z</time>
      </trkpt>
      <trkpt lat="31.397848036140203" lon="-5.515112997964025">
        <ele>1294.2</ele>
        <time>2003-04-14T10:22:10Z</time>
      </trkpt>
      <trkpt lat="31.398437032476068" lon="-5.514240022748709">
        <ele>1292.5999999999999</ele>
        <time>2003-04-14T10:22:19Z</time>
      </trkpt>
      <trkpt lat="31.398533005267382" lon="-5.514061991125345">
        <ele>1293.0999999999999</ele>
        <time>2003-04-14T10:22:21Z</time>
      </trkpt>
      <trkpt lat="31.398657979443669" lon="-5.513877002522349">
        <ele>1292.9000000000001</ele>
        <time>2003-04-14T10:22:22Z</time>
      </trkpt>
      <trkpt lat="31.399292992427945" lon="-5.512920040637255">
        <ele>1291.0999999999999</ele>
        <time>2003-04-14T10:22:34Z</time>
      </trkpt>
      <trkpt lat="31.399447973817587" lon="-5.512694986537099">
        <ele>1290.3</ele>
        <time>2003-04-14T10:22:38Z</time>
      </trkpt>
      <trkpt lat="31.399615025147796" lon="-5.512428022921085">
        <ele>1289.5</ele>
        <time>2003-04-14T10:22:42Z</time>
      </trkpt>
      <trkpt lat="31.399732958525419" lon="-5.512259965762496">
        <ele>1289.3</ele>
        <time>2003-04-14T10:22:45Z</time>
      </trkpt>
      <trkpt lat="31.399785010144114" lon="-5.512170027941465">
        <ele>1288.9000000000001</ele>
        <time>2003-04-14T10:22:46Z</time>
      </trkpt>
      <trkpt lat="31.40014199540019" lon="-5.511597041040659">
        <ele>1288.0999999999999</ele>
        <time>2003-04-14T10:22:52Z</time>
      </trkpt>
      <trkpt lat="31.400402002036572" lon="-5.51117199473083">
        <ele>1286.8</ele>
        <time>2003-04-14T10:22:57Z</time>
      </trkpt>
      <trkpt lat="31.400465033948421" lon="-5.511082978919148">
        <ele>1286.9000000000001</ele>
        <time>2003-04-14T10:22:58Z</time>
      </trkpt>
      <trkpt lat="31.400827970355749" lon="-5.510466992855072">
        <ele>1285.5999999999999</ele>
        <time>2003-04-14T10:23:11Z</time>
      </trkpt>
      <trkpt lat="31.400916986167431" lon="-5.510327015072107">
        <ele>1285.4000000000001</ele>
        <time>2003-04-14T10:23:13Z</time>
      </trkpt>
      <trkpt lat="31.401012958958745" lon="-5.510172033682466">
        <ele>1285.3</ele>
        <time>2003-04-14T10:23:17Z</time>
      </trkpt>
      <trkpt lat="31.401110021397471" lon="-5.510015040636063">
        <ele>1285.2</ele>
        <time>2003-04-14T10:23:21Z</time>
      </trkpt>
      <trkpt lat="31.401186967268586" lon="-5.509885037317872">
        <ele>1285</ele>
        <time>2003-04-14T10:23:24Z</time>
      </trkpt>
      <trkpt lat="31.401317976415157" lon="-5.509682027623057">
        <ele>1285.5999999999999</ele>
        <time>2003-04-14T10:23:27Z</time>
      </trkpt>
      <trkpt lat="31.40147203579545" lon="-5.509462002664805">
        <ele>1285</ele>
        <time>2003-04-14T10:23:31Z</time>
      </trkpt>
      <trkpt lat="31.40151796862483" lon="-5.509310038760305">
        <ele>1285.3</ele>
        <time>2003-04-14T10:23:32Z</time>
      </trkpt>
      <trkpt lat="31.401775041595101" lon="-5.508618028834462">
        <ele>1284.2</ele>
        <time>2003-04-14T10:23:43Z</time>
      </trkpt>
      <trkpt lat="31.401892974972725" lon="-5.508361961692572">
        <ele>1283.3</ele>
        <time>2003-04-14T10:23:47Z</time>
      </trkpt>
      <trkpt lat="31.40196698717773" lon="-5.508155012503266">
        <ele>1282.3</ele>
        <time>2003-04-14T10:23:48Z</time>
      </trkpt>
      <trkpt lat="31.402072012424469" lon="-5.507898023352027">
        <ele>1282.3</ele>
        <time>2003-04-14T10:23:51Z</time>
      </trkpt>
      <trkpt lat="31.402106964960694" lon="-5.507782017812133">
        <ele>1282</ele>
        <time>2003-04-14T10:23:54Z</time>
      </trkpt>
      <trkpt lat="31.402157004922628" lon="-5.507598035037518">
        <ele>1281.7</ele>
        <time>2003-04-14T10:23:55Z</time>
      </trkpt>
      <trkpt lat="31.402258006855845" lon="-5.507290000095964">
        <ele>1282</ele>
        <time>2003-04-14T10:23:59Z</time>
      </trkpt>
      <trkpt lat="31.402321960777044" lon="-5.507138036191464">
        <ele>1281.7</ele>
        <time>2003-04-14T10:24:02Z</time>
      </trkpt>
      <trkpt lat="31.402327995747328" lon="-5.506935026496649">
        <ele>1281.0999999999999</ele>
        <time>2003-04-14T10:24:03Z</time>
      </trkpt>
      <trkpt lat="31.402348028495908" lon="-5.5066819768399">
        <ele>1280.3</ele>
        <time>2003-04-14T10:24:07Z</time>
      </trkpt>
      <trkpt lat="31.402347022667527" lon="-5.506445020437241">
        <ele>1280.9000000000001</ele>
        <time>2003-04-14T10:24:10Z</time>
      </trkpt>
      <trkpt lat="31.402366971597075" lon="-5.50633697770536">
        <ele>1280.4000000000001</ele>
        <time>2003-04-14T10:24:10Z</time>
      </trkpt>
      <trkpt lat="31.402435032650828" lon="-5.506034977734089">
        <ele>1280.4000000000001</ele>
        <time>2003-04-14T10:24:14Z</time>
      </trkpt>
      <trkpt lat="31.402539974078536" lon="-5.505916960537434">
        <ele>1280.5</ele>
        <time>2003-04-14T10:24:15Z</time>
      </trkpt>
      <trkpt lat="31.402647010982037" lon="-5.505757033824921">
        <ele>1280</ele>
        <time>2003-04-14T10:24:18Z</time>
      </trkpt>
      <trkpt lat="31.402716999873519" lon="-5.505685033276677">
        <ele>1280.2</ele>
        <time>2003-04-14T10:24:18Z</time>
      </trkpt>
      <trkpt lat="31.402895031496882" lon="-5.505442963913083">
        <ele>1279.4000000000001</ele>
        <time>2003-04-14T10:24:22Z</time>
      </trkpt>
      <trkpt lat="31.402925038710237" lon="-5.50526300445199">
        <ele>1279.0999999999999</ele>
        <time>2003-04-14T10:24:23Z</time>
      </trkpt>
      <trkpt lat="31.402908023446798" lon="-5.505152028053999">
        <ele>1279</ele>
        <time>2003-04-14T10:24:25Z</time>
      </trkpt>
      <trkpt lat="31.402878016233444" lon="-5.505041973665357">
        <ele>1278.9000000000001</ele>
        <time>2003-04-14T10:24:26Z</time>
      </trkpt>
      <trkpt lat="31.4028699696064" lon="-5.504926973953843">
        <ele>1279.0999999999999</ele>
        <time>2003-04-14T10:24:26Z</time>
      </trkpt>
      <trkpt lat="31.402874998748302" lon="-5.504814991727471">
        <ele>1278.9000000000001</ele>
        <time>2003-04-14T10:24:27Z</time>
      </trkpt>
      <trkpt lat="31.402916992083192" lon="-5.504524977877736">
        <ele>1278.7</ele>
        <time>2003-04-14T10:24:30Z</time>
      </trkpt>
      <trkpt lat="31.403035009279847" lon="-5.504385000094771">
        <ele>1279.0999999999999</ele>
        <time>2003-04-14T10:24:33Z</time>
      </trkpt>
      <trkpt lat="31.403129976242781" lon="-5.504233036190271">
        <ele>1280.4000000000001</ele>
        <time>2003-04-14T10:24:34Z</time>
      </trkpt>
      <trkpt lat="31.403270037844777" lon="-5.504127005115151">
        <ele>1281.2</ele>
        <time>2003-04-14T10:24:37Z</time>
      </trkpt>
      <trkpt lat="31.403417978435755" lon="-5.504002030938864">
        <ele>1282</ele>
        <time>2003-04-14T10:24:38Z</time>
      </trkpt>
      <trkpt lat="31.403474975377321" lon="-5.503917038440704">
        <ele>1282.0999999999999</ele>
        <time>2003-04-14T10:24:40Z</time>
      </trkpt>
      <trkpt lat="31.403517974540591" lon="-5.503821987658739">
        <ele>1282.5</ele>
        <time>2003-04-14T10:24:41Z</time>
      </trkpt>
      <trkpt lat="31.403574971482158" lon="-5.503734983503819">
        <ele>1282.7</ele>
        <time>2003-04-14T10:24:41Z</time>
      </trkpt>
      <trkpt lat="31.403706986457109" lon="-5.503517976030707">
        <ele>1281.4000000000001</ele>
        <time>2003-04-14T10:24:45Z</time>
      </trkpt>
      <trkpt lat="31.403812011703849" lon="-5.503347991034389">
        <ele>1280.0999999999999</ele>
        <time>2003-04-14T10:24:48Z</time>
      </trkpt>
      <trkpt lat="31.403877977281809" lon="-5.503272973001003">
        <ele>1279.5999999999999</ele>
        <time>2003-04-14T10:24:49Z</time>
      </trkpt>
      <trkpt lat="31.403961963951588" lon="-5.503227040171623">
        <ele>1279</ele>
        <time>2003-04-14T10:24:53Z</time>
      </trkpt>
      <trkpt lat="31.404017033055425" lon="-5.503342039883137">
        <ele>1279.0999999999999</ele>
        <time>2003-04-14T10:24:57Z</time>
      </trkpt>
      <trkpt lat="31.404124991968274" lon="-5.503401970490813">
        <ele>1279.0999999999999</ele>
        <time>2003-04-14T10:25:01Z</time>
      </trkpt>
      <trkpt lat="31.404132032766938" lon="-5.503189992159605">
        <ele>1279.4000000000001</ele>
        <time>2003-04-14T10:25:04Z</time>
      </trkpt>
      <trkpt lat="31.404128009453416" lon="-5.503077004104853">
        <ele>1279</ele>
        <time>2003-04-14T10:25:07Z</time>
      </trkpt>
      <trkpt lat="31.404181988909841" lon="-5.502967033535242">
        <ele>1278.9000000000001</ele>
        <time>2003-04-14T10:25:08Z</time>
      </trkpt>
      <trkpt lat="31.404291959479451" lon="-5.502780033275485">
        <ele>1279.7</ele>
        <time>2003-04-14T10:25:12Z</time>
      </trkpt>
      <trkpt lat="31.40435297973454" lon="-5.502607030794025">
        <ele>1280.2</ele>
        <time>2003-04-14T10:25:13Z</time>
      </trkpt>
      <trkpt lat="31.404436966404319" lon="-5.502441991120577">
        <ele>1280.8</ele>
        <time>2003-04-14T10:25:16Z</time>
      </trkpt>
      <trkpt lat="31.404844997450709" lon="-5.50191200338304">
        <ele>1280.8</ele>
        <time>2003-04-14T10:25:23Z</time>
      </trkpt>
      <trkpt lat="31.405107015743852" lon="-5.501732965931296">
        <ele>1278.9000000000001</ele>
        <time>2003-04-14T10:25:27Z</time>
      </trkpt>
      <trkpt lat="31.405182033777237" lon="-5.501622995361686">
        <ele>1278.0999999999999</ele>
        <time>2003-04-14T10:25:28Z</time>
      </trkpt>
      <trkpt lat="31.405259985476732" lon="-5.501532973721623">
        <ele>1279.0999999999999</ele>
        <time>2003-04-14T10:25:31Z</time>
      </trkpt>
      <trkpt lat="31.405352018773556" lon="-5.501429960131645">
        <ele>1278.4000000000001</ele>
        <time>2003-04-14T10:25:34Z</time>
      </trkpt>
      <trkpt lat="31.405508005991578" lon="-5.501242959871888">
        <ele>1278.9000000000001</ele>
        <time>2003-04-14T10:25:38Z</time>
      </trkpt>
      <trkpt lat="31.405617976561189" lon="-5.501107005402446">
        <ele>1278.9000000000001</ele>
        <time>2003-04-14T10:25:39Z</time>
      </trkpt>
      <trkpt lat="31.405767006799579" lon="-5.500868037343025">
        <ele>1279.4000000000001</ele>
        <time>2003-04-14T10:25:43Z</time>
      </trkpt>
      <trkpt lat="31.405873037874699" lon="-5.500742979347706">
        <ele>1280.2</ele>
        <time>2003-04-14T10:25:44Z</time>
      </trkpt>
      <trkpt lat="31.406017960980535" lon="-5.500554973259568">
        <ele>1278.7</ele>
        <time>2003-04-14T10:25:47Z</time>
      </trkpt>
      <trkpt lat="31.406046962365508" lon="-5.500403009355068">
        <ele>1278.2</ele>
        <time>2003-04-14T10:25:50Z</time>
      </trkpt>
      <trkpt lat="31.406097002327442" lon="-5.500245010480285">
        <ele>1279</ele>
        <time>2003-04-14T10:25:51Z</time>
      </trkpt>
      <trkpt lat="31.406155005097389" lon="-5.500162029638887">
        <ele>1279.3</ele>
        <time>2003-04-14T10:25:53Z</time>
      </trkpt>
      <trkpt lat="31.406433032825589" lon="-5.499800015240908">
        <ele>1277.0999999999999</ele>
        <time>2003-04-14T10:25:58Z</time>
      </trkpt>
      <trkpt lat="31.406736960634589" lon="-5.499558029696345">
        <ele>1274.3</ele>
        <time>2003-04-14T10:26:02Z</time>
      </trkpt>
      <trkpt lat="31.406805021688342" lon="-5.499431965872645">
        <ele>1273.3</ele>
        <time>2003-04-14T10:26:05Z</time>
      </trkpt>
      <trkpt lat="31.406869981437922" lon="-5.499327024444938">
        <ele>1274.3</ele>
        <time>2003-04-14T10:26:06Z</time>
      </trkpt>
      <trkpt lat="31.406975006684661" lon="-5.499187968671322">
        <ele>1275.3</ele>
        <time>2003-04-14T10:26:09Z</time>
      </trkpt>
      <trkpt lat="31.407157983630896" lon="-5.498953023925424">
        <ele>1277.5</ele>
        <time>2003-04-14T10:26:13Z</time>
      </trkpt>
      <trkpt lat="31.407253034412861" lon="-5.498893009498715">
        <ele>1277.3</ele>
        <time>2003-04-14T10:26:14Z</time>
      </trkpt>
      <trkpt lat="31.407341966405511" lon="-5.498827965930104">
        <ele>1276.5</ele>
        <time>2003-04-14T10:26:17Z</time>
      </trkpt>
      <trkpt lat="31.407512035220861" lon="-5.498638032004237">
        <ele>1274.5999999999999</ele>
        <time>2003-04-14T10:26:21Z</time>
      </trkpt>
      <trkpt lat="31.407655030488968" lon="-5.498456982895732">
        <ele>1272.8</ele>
        <time>2003-04-14T10:26:24Z</time>
      </trkpt>
      <trkpt lat="31.407797019928694" lon="-5.498293032869697">
        <ele>1272</ele>
        <time>2003-04-14T10:26:26Z</time>
      </trkpt>
      <trkpt lat="31.407882012426853" lon="-5.498103015124798">
        <ele>1271.7</ele>
        <time>2003-04-14T10:26:29Z</time>
      </trkpt>
      <trkpt lat="31.408013021573424" lon="-5.497860023751855">
        <ele>1271.3</ele>
        <time>2003-04-14T10:26:32Z</time>
      </trkpt>
      <trkpt lat="31.408173032104969" lon="-5.497645027935505">
        <ele>1272.0999999999999</ele>
        <time>2003-04-14T10:26:34Z</time>
      </trkpt>
      <trkpt lat="31.408422980457544" lon="-5.49742198549211">
        <ele>1270.5999999999999</ele>
        <time>2003-04-14T10:26:38Z</time>
      </trkpt>
      <trkpt lat="31.408581985160708" lon="-5.497212018817663">
        <ele>1270.3</ele>
        <time>2003-04-14T10:26:41Z</time>
      </trkpt>
      <trkpt lat="31.408735038712621" lon="-5.496982019394636">
        <ele>1269.5</ele>
        <time>2003-04-14T10:26:45Z</time>
      </trkpt>
      <trkpt lat="31.408852972090244" lon="-5.496755037456751">
        <ele>1269</ele>
        <time>2003-04-14T10:26:47Z</time>
      </trkpt>
      <trkpt lat="31.408986998721957" lon="-5.496468041092157">
        <ele>1267.9000000000001</ele>
        <time>2003-04-14T10:26:49Z</time>
      </trkpt>
      <trkpt lat="31.409101998433471" lon="-5.49623703584075">
        <ele>1266.3</ele>
        <time>2003-04-14T10:26:52Z</time>
      </trkpt>
      <trkpt lat="31.409203000366688" lon="-5.496122958138585">
        <ele>1266.0999999999999</ele>
        <time>2003-04-14T10:26:55Z</time>
      </trkpt>
      <trkpt lat="31.40927298925817" lon="-5.49598298035562">
        <ele>1265.2</ele>
        <time>2003-04-14T10:26:56Z</time>
      </trkpt>
      <trkpt lat="31.409302996471524" lon="-5.495836967602372">
        <ele>1264.5999999999999</ele>
        <time>2003-04-14T10:26:59Z</time>
      </trkpt>
      <trkpt lat="31.409341972321272" lon="-5.495694978162646">
        <ele>1263.9000000000001</ele>
        <time>2003-04-14T10:27:00Z</time>
      </trkpt>
      <trkpt lat="31.409423025324941" lon="-5.495576960965991">
        <ele>1263.0999999999999</ele>
        <time>2003-04-14T10:27:03Z</time>
      </trkpt>
      <trkpt lat="31.409574989229441" lon="-5.495364982634783">
        <ele>1262.0999999999999</ele>
        <time>2003-04-14T10:27:07Z</time>
      </trkpt>
      <trkpt lat="31.409699963405728" lon="-5.495092989876866">
        <ele>1261.5999999999999</ele>
        <time>2003-04-14T10:27:11Z</time>
      </trkpt>
      <trkpt lat="31.409757966175675" lon="-5.494900038465858">
        <ele>1261.9000000000001</ele>
        <time>2003-04-14T10:27:12Z</time>
      </trkpt>
      <trkpt lat="31.409989977255464" lon="-5.494223032146692">
        <ele>1261.3</ele>
        <time>2003-04-14T10:27:20Z</time>
      </trkpt>
      <trkpt lat="31.41008703969419" lon="-5.493894964456558">
        <ele>1259.7</ele>
        <time>2003-04-14T10:27:26Z</time>
      </trkpt>
      <trkpt lat="31.410149987787008" lon="-5.493766972795129">
        <ele>1259.4000000000001</ele>
        <time>2003-04-14T10:27:27Z</time>
      </trkpt>
      <trkpt lat="31.410272028297186" lon="-5.493585001677275">
        <ele>1257.8</ele>
        <time>2003-04-14T10:27:31Z</time>
      </trkpt>
      <trkpt lat="31.4103680010885" lon="-5.493502020835877">
        <ele>1257.3</ele>
        <time>2003-04-14T10:27:32Z</time>
      </trkpt>
      <trkpt lat="31.410437989979982" lon="-5.493332035839558">
        <ele>1256.7</ele>
        <time>2003-04-14T10:27:35Z</time>
      </trkpt>
      <trkpt lat="31.410547960549593" lon="-5.493194991722703">
        <ele>1256</ele>
        <time>2003-04-14T10:27:36Z</time>
      </trkpt>
      <trkpt lat="31.410773014649749" lon="-5.492947977036238">
        <ele>1255</ele>
        <time>2003-04-14T10:27:41Z</time>
      </trkpt>
      <trkpt lat="31.410877034068108" lon="-5.492852004244924">
        <ele>1254.4000000000001</ele>
        <time>2003-04-14T10:27:43Z</time>
      </trkpt>
      <trkpt lat="31.411109967157245" lon="-5.49258504062891">
        <ele>1254.7</ele>
        <time>2003-04-14T10:27:46Z</time>
      </trkpt>
      <trkpt lat="31.411237036809325" lon="-5.492476997897029">
        <ele>1254.4000000000001</ele>
        <time>2003-04-14T10:27:49Z</time>
      </trkpt>
      <trkpt lat="31.411341978237033" lon="-5.492365015670657">
        <ele>1253.8</ele>
        <time>2003-04-14T10:27:50Z</time>
      </trkpt>
      <trkpt lat="31.41137701459229" lon="-5.492187989875674">
        <ele>1253.5999999999999</ele>
        <time>2003-04-14T10:27:53Z</time>
      </trkpt>
      <trkpt lat="31.411480028182268" lon="-5.491578038781881">
        <ele>1253.7</ele>
        <time>2003-04-14T10:28:01Z</time>
      </trkpt>
      <trkpt lat="31.411520009860396" lon="-5.491381986066699">
        <ele>1253.2</ele>
        <time>2003-04-14T10:28:05Z</time>
      </trkpt>
      <trkpt lat="31.411541970446706" lon="-5.491270003840327">
        <ele>1254.2</ele>
        <time>2003-04-14T10:28:10Z</time>
      </trkpt>
      <trkpt lat="31.411559991538525" lon="-5.491149974986911">
        <ele>1254.4000000000001</ele>
        <time>2003-04-14T10:28:14Z</time>
      </trkpt>
      <trkpt lat="31.411583041772246" lon="-5.491037992760539">
        <ele>1254.7</ele>
        <time>2003-04-14T10:28:25Z</time>
      </trkpt>
      <trkpt lat="31.411605002358556" lon="-5.490894997492433">
        <ele>1254.7</ele>
        <time>2003-04-14T10:28:35Z</time>
      </trkpt>
      <trkpt lat="31.411631992086768" lon="-5.490692993625999">
        <ele>1257.2</ele>
        <time>2003-04-14T10:29:49Z</time>
      </trkpt>
      <trkpt lat="31.411661999300122" lon="-5.490483026951551">
        <ele>1258.2</ele>
        <time>2003-04-14T10:29:58Z</time>
      </trkpt>
      <trkpt lat="31.411683037877083" lon="-5.490341959521174">
        <ele>1257.9000000000001</ele>
        <time>2003-04-14T10:30:02Z</time>
      </trkpt>
      <trkpt lat="31.411723019555211" lon="-5.490011963993311">
        <ele>1256.7</ele>
        <time>2003-04-14T10:30:17Z</time>
      </trkpt>
      <trkpt lat="31.411801977083087" lon="-5.489805014804006">
        <ele>1255.9000000000001</ele>
        <time>2003-04-14T10:30:35Z</time>
      </trkpt>
      <trkpt lat="31.411819998174906" lon="-5.489688003435731">
        <ele>1255.9000000000001</ele>
        <time>2003-04-14T10:30:36Z</time>
      </trkpt>
      <trkpt lat="31.411817986518145" lon="-5.489565040916205">
        <ele>1256</ele>
        <time>2003-04-14T10:30:39Z</time>
      </trkpt>
      <trkpt lat="31.411823015660048" lon="-5.489424979314208">
        <ele>1256</ele>
        <time>2003-04-14T10:30:40Z</time>
      </trkpt>
      <trkpt lat="31.411861991509795" lon="-5.489252982661128">
        <ele>1255.9000000000001</ele>
        <time>2003-04-14T10:30:43Z</time>
      </trkpt>
      <trkpt lat="31.411901973187923" lon="-5.489028012380004">
        <ele>1255.5999999999999</ele>
        <time>2003-04-14T10:30:44Z</time>
      </trkpt>
      <trkpt lat="31.411991994827986" lon="-5.488521996885538">
        <ele>1255.4000000000001</ele>
        <time>2003-04-14T10:30:48Z</time>
      </trkpt>
      <trkpt lat="31.412201961502433" lon="-5.48740703612566">
        <ele>1255.8</ele>
        <time>2003-04-14T10:30:56Z</time>
      </trkpt>
      <trkpt lat="31.412440007552505" lon="-5.486270030960441">
        <ele>1255</ele>
        <time>2003-04-14T10:31:03Z</time>
      </trkpt>
      <trkpt lat="31.412658020853996" lon="-5.48528297804296">
        <ele>1254</ele>
        <time>2003-04-14T10:31:10Z</time>
      </trkpt>
      <trkpt lat="31.412981981411576" lon="-5.484232977032661">
        <ele>1252.5</ele>
        <time>2003-04-14T10:31:17Z</time>
      </trkpt>
      <trkpt lat="31.413049958646297" lon="-5.48401496373117">
        <ele>1252.3</ele>
        <time>2003-04-14T10:31:19Z</time>
      </trkpt>
      <trkpt lat="31.413237964734435" lon="-5.483475001528859">
        <ele>1252.8</ele>
        <time>2003-04-14T10:31:22Z</time>
      </trkpt>
      <trkpt lat="31.413384983316064" lon="-5.482860021293163">
        <ele>1252.9000000000001</ele>
        <time>2003-04-14T10:31:26Z</time>
      </trkpt>
      <trkpt lat="31.41359000466764" lon="-5.481692003086209">
        <ele>1252.9000000000001</ele>
        <time>2003-04-14T10:31:34Z</time>
      </trkpt>
      <trkpt lat="31.41374297440052" lon="-5.480522979050875">
        <ele>1252.7</ele>
        <time>2003-04-14T10:31:41Z</time>
      </trkpt>
      <trkpt lat="31.413820004090667" lon="-5.479629971086979">
        <ele>1251.7</ele>
        <time>2003-04-14T10:31:46Z</time>
      </trkpt>
      <trkpt lat="31.413822015747428" lon="-5.47930802218616">
        <ele>1251.5</ele>
        <time>2003-04-14T10:31:49Z</time>
      </trkpt>
      <trkpt lat="31.413971967995167" lon="-5.47851299867034">
        <ele>1251.5</ele>
        <time>2003-04-14T10:31:53Z</time>
      </trkpt>
      <trkpt lat="31.414077999070287" lon="-5.478264978155494">
        <ele>1251.9000000000001</ele>
        <time>2003-04-14T10:31:56Z</time>
      </trkpt>
      <trkpt lat="31.414155028760433" lon="-5.478032967075706">
        <ele>1252.0999999999999</ele>
        <time>2003-04-14T10:31:57Z</time>
      </trkpt>
      <trkpt lat="31.414147987961769" lon="-5.477915033698082">
        <ele>1252.3</ele>
        <time>2003-04-14T10:31:58Z</time>
      </trkpt>
      <trkpt lat="31.414095014333725" lon="-5.477606998756528">
        <ele>1251.9000000000001</ele>
        <time>2003-04-14T10:32:01Z</time>
      </trkpt>
      <trkpt lat="31.414050003513694" lon="-5.477499961853027">
        <ele>1251.8</ele>
        <time>2003-04-14T10:32:02Z</time>
      </trkpt>
      <trkpt lat="31.413971967995167" lon="-5.477254958823323">
        <ele>1251</ele>
        <time>2003-04-14T10:32:05Z</time>
      </trkpt>
      <trkpt lat="31.4139149710536" lon="-5.476971985772252">
        <ele>1250.3</ele>
        <time>2003-04-14T10:32:06Z</time>
      </trkpt>
      <trkpt lat="31.413865014910698" lon="-5.476607037708163">
        <ele>1249.4000000000001</ele>
        <time>2003-04-14T10:32:09Z</time>
      </trkpt>
      <trkpt lat="31.413672985509038" lon="-5.475846966728568">
        <ele>1248.5</ele>
        <time>2003-04-14T10:32:16Z</time>
      </trkpt>
      <trkpt lat="31.41361297108233" lon="-5.475625013932586">
        <ele>1247.4000000000001</ele>
        <time>2003-04-14T10:32:19Z</time>
      </trkpt>
      <trkpt lat="31.413422031328082" lon="-5.474645001813769">
        <ele>1247</ele>
        <time>2003-04-14T10:32:27Z</time>
      </trkpt>
      <trkpt lat="31.41344198025763" lon="-5.474536959081888">
        <ele>1246.8</ele>
        <time>2003-04-14T10:32:28Z</time>
      </trkpt>
      <trkpt lat="31.413475004956126" lon="-5.474318023771048">
        <ele>1246.8</ele>
        <time>2003-04-14T10:32:29Z</time>
      </trkpt>
      <trkpt lat="31.41343804076314" lon="-5.474212998524308">
        <ele>1246.7</ele>
        <time>2003-04-14T10:32:31Z</time>
      </trkpt>
      <trkpt lat="31.413341984152794" lon="-5.473837992176414">
        <ele>1246.4000000000001</ele>
        <time>2003-04-14T10:32:33Z</time>
      </trkpt>
      <trkpt lat="31.413292028009892" lon="-5.47350799664855">
        <ele>1246</ele>
        <time>2003-04-14T10:32:36Z</time>
      </trkpt>
      <trkpt lat="31.413211980834603" lon="-5.473357038572431">
        <ele>1246.2</ele>
        <time>2003-04-14T10:32:39Z</time>
      </trkpt>
      <trkpt lat="31.413166970014572" lon="-5.473261987790465">
        <ele>1245.7</ele>
        <time>2003-04-14T10:32:40Z</time>
      </trkpt>
      <trkpt lat="31.413077032193542" lon="-5.473032994195819">
        <ele>1245.3</ele>
        <time>2003-04-14T10:32:42Z</time>
      </trkpt>
      <trkpt lat="31.412957003340125" lon="-5.472633009776473">
        <ele>1244.5999999999999</ele>
        <time>2003-04-14T10:32:46Z</time>
      </trkpt>
      <trkpt lat="31.412897994741797" lon="-5.472307037562132">
        <ele>1245.3</ele>
        <time>2003-04-14T10:32:48Z</time>
      </trkpt>
      <trkpt lat="31.41288299113512" lon="-5.47189699485898">
        <ele>1245.2</ele>
        <time>2003-04-14T10:32:51Z</time>
      </trkpt>
      <trkpt lat="31.412905035540462" lon="-5.471612010151148">
        <ele>1244.7</ele>
        <time>2003-04-14T10:32:54Z</time>
      </trkpt>
      <trkpt lat="31.412964966148138" lon="-5.470762001350522">
        <ele>1244.0999999999999</ele>
        <time>2003-04-14T10:32:59Z</time>
      </trkpt>
      <trkpt lat="31.412934958934784" lon="-5.470618000254035">
        <ele>1244.0999999999999</ele>
        <time>2003-04-14T10:33:00Z</time>
      </trkpt>
      <trkpt lat="31.412845021113753" lon="-5.470073008909822">
        <ele>1243.5999999999999</ele>
        <time>2003-04-14T10:33:05Z</time>
      </trkpt>
      <trkpt lat="31.412848038598895" lon="-5.46970303170383">
        <ele>1243.4000000000001</ele>
        <time>2003-04-14T10:33:07Z</time>
      </trkpt>
      <trkpt lat="31.412932025268674" lon="-5.469164997339249">
        <ele>1243.3</ele>
        <time>2003-04-14T10:33:13Z</time>
      </trkpt>
      <trkpt lat="31.412977036088705" lon="-5.469006998464465">
        <ele>1243</ele>
        <time>2003-04-14T10:33:15Z</time>
      </trkpt>
      <trkpt lat="31.413048030808568" lon="-5.468853022903204">
        <ele>1242.5</ele>
        <time>2003-04-14T10:33:18Z</time>
      </trkpt>
      <trkpt lat="31.413084995001554" lon="-5.468652024865151">
        <ele>1242.2</ele>
        <time>2003-04-14T10:33:19Z</time>
      </trkpt>
      <trkpt lat="31.413167975842953" lon="-5.468030003830791">
        <ele>1241.8</ele>
        <time>2003-04-14T10:33:26Z</time>
      </trkpt>
      <trkpt lat="31.41309698112309" lon="-5.46787996776402">
        <ele>1241.8</ele>
        <time>2003-04-14T10:33:27Z</time>
      </trkpt>
      <trkpt lat="31.412932025268674" lon="-5.467643011361361">
        <ele>1241.3</ele>
        <time>2003-04-14T10:33:32Z</time>
      </trkpt>
      <trkpt lat="31.412892965599895" lon="-5.467536980286241">
        <ele>1240.0999999999999</ele>
        <time>2003-04-14T10:33:34Z</time>
      </trkpt>
      <trkpt lat="31.41288198530674" lon="-5.467366995289922">
        <ele>1240</ele>
        <time>2003-04-14T10:33:36Z</time>
      </trkpt>
      <trkpt lat="31.412888020277023" lon="-5.467106988653541">
        <ele>1240.9000000000001</ele>
        <time>2003-04-14T10:33:38Z</time>
      </trkpt>
      <trkpt lat="31.412977036088705" lon="-5.466944966465235">
        <ele>1242</ele>
        <time>2003-04-14T10:33:41Z</time>
      </trkpt>
      <trkpt lat="31.413049958646297" lon="-5.466883024200797">
        <ele>1241.8</ele>
        <time>2003-04-14T10:33:41Z</time>
      </trkpt>
      <trkpt lat="31.413166970014572" lon="-5.466759977862239">
        <ele>1241.0999999999999</ele>
        <time>2003-04-14T10:33:44Z</time>
      </trkpt>
      <trkpt lat="31.413403004407883" lon="-5.46645998954773">
        <ele>1239.8</ele>
        <time>2003-04-14T10:33:49Z</time>
      </trkpt>
      <trkpt lat="31.413507023826241" lon="-5.466238036751747">
        <ele>1239.5999999999999</ele>
        <time>2003-04-14T10:33:49Z</time>
      </trkpt>
      <trkpt lat="31.413571983575821" lon="-5.465994961559773">
        <ele>1238.3</ele>
        <time>2003-04-14T10:33:52Z</time>
      </trkpt>
      <trkpt lat="31.413575001060963" lon="-5.465877028182149">
        <ele>1238.2</ele>
        <time>2003-04-14T10:33:53Z</time>
      </trkpt>
      <trkpt lat="31.413557985797524" lon="-5.465762028470635">
        <ele>1237.9000000000001</ele>
        <time>2003-04-14T10:33:53Z</time>
      </trkpt>
      <trkpt lat="31.413567960262299" lon="-5.465517025440931">
        <ele>1238.8</ele>
        <time>2003-04-14T10:33:56Z</time>
      </trkpt>
      <trkpt lat="31.413669968023896" lon="-5.46499801799655">
        <ele>1238.5999999999999</ele>
        <time>2003-04-14T10:34:00Z</time>
      </trkpt>
      <trkpt lat="31.413744986057281" lon="-5.464737005531788">
        <ele>1238.0999999999999</ele>
        <time>2003-04-14T10:34:01Z</time>
      </trkpt>
      <trkpt lat="31.41382796689868" lon="-5.464082965627313">
        <ele>1237</ele>
        <time>2003-04-14T10:34:07Z</time>
      </trkpt>
      <trkpt lat="31.413850011304021" lon="-5.4639230389148">
        <ele>1236.0999999999999</ele>
        <time>2003-04-14T10:34:08Z</time>
      </trkpt>
      <trkpt lat="31.413904996588826" lon="-5.463718017563224">
        <ele>1236.5</ele>
        <time>2003-04-14T10:34:11Z</time>
      </trkpt>
      <trkpt lat="31.414004992693663" lon="-5.463490029796958">
        <ele>1236.8</ele>
        <time>2003-04-14T10:34:13Z</time>
      </trkpt>
      <trkpt lat="31.414168020710349" lon="-5.463094990700483">
        <ele>1236.5999999999999</ele>
        <time>2003-04-14T10:34:16Z</time>
      </trkpt>
      <trkpt lat="31.414444958791137" lon="-5.462317988276482">
        <ele>1235.8</ele>
        <time>2003-04-14T10:34:23Z</time>
      </trkpt>
      <trkpt lat="31.414530035108328" lon="-5.462095029652119">
        <ele>1234.8</ele>
        <time>2003-04-14T10:34:24Z</time>
      </trkpt>
      <trkpt lat="31.414587032049894" lon="-5.461739972233772">
        <ele>1235.7</ele>
        <time>2003-04-14T10:34:28Z</time>
      </trkpt>
      <trkpt lat="31.414534980431199" lon="-5.461047040298581">
        <ele>1234.9000000000001</ele>
        <time>2003-04-14T10:34:32Z</time>
      </trkpt>
      <trkpt lat="31.414531962946057" lon="-5.460377996787429">
        <ele>1234.3</ele>
        <time>2003-04-14T10:34:38Z</time>
      </trkpt>
      <trkpt lat="31.414521988481283" lon="-5.460232989862561">
        <ele>1234.3</ele>
        <time>2003-04-14T10:34:39Z</time>
      </trkpt>
      <trkpt lat="31.414528023451567" lon="-5.459696967154741">
        <ele>1234.0999999999999</ele>
        <time>2003-04-14T10:34:43Z</time>
      </trkpt>
      <trkpt lat="31.414588037878275" lon="-5.459581967443228">
        <ele>1234.2</ele>
        <time>2003-04-14T10:34:43Z</time>
      </trkpt>
      <trkpt lat="31.41468501649797" lon="-5.459315003827214">
        <ele>1234</ele>
        <time>2003-04-14T10:34:46Z</time>
      </trkpt>
      <trkpt lat="31.414709994569421" lon="-5.459157004952431">
        <ele>1233.9000000000001</ele>
        <time>2003-04-14T10:34:47Z</time>
      </trkpt>
      <trkpt lat="31.414847038686275" lon="-5.457972977310419">
        <ele>1232.9000000000001</ele>
        <time>2003-04-14T10:34:54Z</time>
      </trkpt>
      <trkpt lat="31.414902023971081" lon="-5.457665026187897">
        <ele>1232.5999999999999</ele>
        <time>2003-04-14T10:34:55Z</time>
      </trkpt>
      <trkpt lat="31.414973018690944" lon="-5.457241991534829">
        <ele>1232.0999999999999</ele>
        <time>2003-04-14T10:34:58Z</time>
      </trkpt>
      <trkpt lat="31.414991961792111" lon="-5.456709992140532">
        <ele>1232</ele>
        <time>2003-04-14T10:35:02Z</time>
      </trkpt>
      <trkpt lat="31.414996990934014" lon="-5.456589963287115">
        <ele>1231.7</ele>
        <time>2003-04-14T10:35:03Z</time>
      </trkpt>
      <trkpt lat="31.415020041167736" lon="-5.456458032131195">
        <ele>1231.7</ele>
        <time>2003-04-14T10:35:05Z</time>
      </trkpt>
      <trkpt lat="31.415103022009134" lon="-5.456161983311176">
        <ele>1231.4000000000001</ele>
        <time>2003-04-14T10:35:06Z</time>
      </trkpt>
      <trkpt lat="31.415227996185422" lon="-5.455876998603344">
        <ele>1231.3</ele>
        <time>2003-04-14T10:35:09Z</time>
      </trkpt>
      <trkpt lat="31.415627980604768" lon="-5.454902015626431">
        <ele>1230.5999999999999</ele>
        <time>2003-04-14T10:35:14Z</time>
      </trkpt>
      <trkpt lat="31.416108012199402" lon="-5.453897025436163">
        <ele>1229.0999999999999</ele>
        <time>2003-04-14T10:35:22Z</time>
      </trkpt>
      <trkpt lat="31.416722992435098" lon="-5.452927993610501">
        <ele>1227</ele>
        <time>2003-04-14T10:35:29Z</time>
      </trkpt>
      <trkpt lat="31.417292039841413" lon="-5.452074967324734">
        <ele>1225.9000000000001</ele>
        <time>2003-04-14T10:35:34Z</time>
      </trkpt>
      <trkpt lat="31.417777016758919" lon="-5.451239962130785">
        <ele>1224.5999999999999</ele>
        <time>2003-04-14T10:35:41Z</time>
      </trkpt>
      <trkpt lat="31.418112963438034" lon="-5.450362963601947">
        <ele>1223.8</ele>
        <time>2003-04-14T10:35:47Z</time>
      </trkpt>
      <trkpt lat="31.418280014768243" lon="-5.449644969776273">
        <ele>1223.2</ele>
        <time>2003-04-14T10:35:52Z</time>
      </trkpt>
      <trkpt lat="31.418513031676412" lon="-5.44925001449883">
        <ele>1223</ele>
        <time>2003-04-14T10:35:55Z</time>
      </trkpt>
      <trkpt lat="31.419106973335147" lon="-5.448343008756638">
        <ele>1222</ele>
        <time>2003-04-14T10:36:01Z</time>
      </trkpt>
      <trkpt lat="31.419472005218267" lon="-5.447898013517261">
        <ele>1221.2</ele>
        <time>2003-04-14T10:36:05Z</time>
      </trkpt>
      <trkpt lat="31.419556997716427" lon="-5.447794999927282">
        <ele>1221</ele>
        <time>2003-04-14T10:36:07Z</time>
      </trkpt>
      <trkpt lat="31.419632015749812" lon="-5.447668014094234">
        <ele>1221.0999999999999</ele>
        <time>2003-04-14T10:36:08Z</time>
      </trkpt>
      <trkpt lat="31.419690018519759" lon="-5.447525018826127">
        <ele>1220.9000000000001</ele>
        <time>2003-04-14T10:36:08Z</time>
      </trkpt>
      <trkpt lat="31.419818010181189" lon="-5.447278004139662">
        <ele>1220.5</ele>
        <time>2003-04-14T10:36:11Z</time>
      </trkpt>
      <trkpt lat="31.419999981299043" lon="-5.446923030540347">
        <ele>1220.0999999999999</ele>
        <time>2003-04-14T10:36:14Z</time>
      </trkpt>
      <trkpt lat="31.420024959370494" lon="-5.44680199585855">
        <ele>1219.9000000000001</ele>
        <time>2003-04-14T10:36:15Z</time>
      </trkpt>
      <trkpt lat="31.42001498490572" lon="-5.446677021682262">
        <ele>1219.7</ele>
        <time>2003-04-14T10:36:16Z</time>
      </trkpt>
      <trkpt lat="31.419999981299043" lon="-5.446175029501319">
        <ele>1219.5</ele>
        <time>2003-04-14T10:36:19Z</time>
      </trkpt>
      <trkpt lat="31.420059995725751" lon="-5.445967996492982">
        <ele>1219.2</ele>
        <time>2003-04-14T10:36:22Z</time>
      </trkpt>
      <trkpt lat="31.420114981010556" lon="-5.44587797485292">
        <ele>1219.0999999999999</ele>
        <time>2003-04-14T10:36:23Z</time>
      </trkpt>
      <trkpt lat="31.42035998404026" lon="-5.445561977103353">
        <ele>1218.5</ele>
        <time>2003-04-14T10:36:27Z</time>
      </trkpt>
      <trkpt lat="31.420540027320385" lon="-5.445347987115383">
        <ele>1218</ele>
        <time>2003-04-14T10:36:30Z</time>
      </trkpt>
      <trkpt lat="31.420614961534739" lon="-5.445202980190516">
        <ele>1217.3</ele>
        <time>2003-04-14T10:36:31Z</time>
      </trkpt>
      <trkpt lat="31.420716969296336" lon="-5.445095021277666">
        <ele>1216.8</ele>
        <time>2003-04-14T10:36:34Z</time>
      </trkpt>
      <trkpt lat="31.42081000842154" lon="-5.445047998800874">
        <ele>1216</ele>
        <time>2003-04-14T10:36:35Z</time>
      </trkpt>
      <trkpt lat="31.42093800008297" lon="-5.44506199657917">
        <ele>1214.5</ele>
        <time>2003-04-14T10:36:39Z</time>
      </trkpt>
      <trkpt lat="31.421060040593147" lon="-5.444987984374166">
        <ele>1214</ele>
        <time>2003-04-14T10:36:42Z</time>
      </trkpt>
      <trkpt lat="31.421170011162758" lon="-5.444871978834271">
        <ele>1213.4000000000001</ele>
        <time>2003-04-14T10:36:43Z</time>
      </trkpt>
      <trkpt lat="31.42130303196609" lon="-5.444787992164493">
        <ele>1214.9000000000001</ele>
        <time>2003-04-14T10:36:46Z</time>
      </trkpt>
      <trkpt lat="31.421428006142378" lon="-5.444660000503063">
        <ele>1215.3</ele>
        <time>2003-04-14T10:36:47Z</time>
      </trkpt>
      <trkpt lat="31.421532025560737" lon="-5.444471994414926">
        <ele>1215.4000000000001</ele>
        <time>2003-04-14T10:36:50Z</time>
      </trkpt>
      <trkpt lat="31.421622969210148" lon="-5.444297986105084">
        <ele>1214.9000000000001</ele>
        <time>2003-04-14T10:36:51Z</time>
      </trkpt>
      <trkpt lat="31.421792032197118" lon="-5.444090031087399">
        <ele>1213.7</ele>
        <time>2003-04-14T10:36:54Z</time>
      </trkpt>
      <trkpt lat="31.421945001929998" lon="-5.44400998391211">
        <ele>1214.0999999999999</ele>
        <time>2003-04-14T10:36:57Z</time>
      </trkpt>
      <trkpt lat="31.422322019934654" lon="-5.443845028057694">
        <ele>1214.9000000000001</ele>
        <time>2003-04-14T10:37:01Z</time>
      </trkpt>
      <trkpt lat="31.422810014337301" lon="-5.443482007831335">
        <ele>1215.0999999999999</ele>
        <time>2003-04-14T10:37:06Z</time>
      </trkpt>
      <trkpt lat="31.42300195991993" lon="-5.443297019228339">
        <ele>1213.9000000000001</ele>
        <time>2003-04-14T10:37:10Z</time>
      </trkpt>
      <trkpt lat="31.423183009028435" lon="-5.443078000098467">
        <ele>1214</ele>
        <time>2003-04-14T10:37:13Z</time>
      </trkpt>
      <trkpt lat="31.423328015953302" lon="-5.442940033972263">
        <ele>1214.5999999999999</ele>
        <time>2003-04-14T10:37:14Z</time>
      </trkpt>
      <trkpt lat="31.423673015087843" lon="-5.44265303760767">
        <ele>1213.8</ele>
        <time>2003-04-14T10:37:20Z</time>
      </trkpt>
      <trkpt lat="31.423902008682489" lon="-5.442452039569616">
        <ele>1214.3</ele>
        <time>2003-04-14T10:37:24Z</time>
      </trkpt>
      <trkpt lat="31.423963028937578" lon="-5.442265039309859">
        <ele>1214.5999999999999</ele>
        <time>2003-04-14T10:37:25Z</time>
      </trkpt>
      <trkpt lat="31.424096971750259" lon="-5.441952981054783">
        <ele>1214.0999999999999</ele>
        <time>2003-04-14T10:37:29Z</time>
      </trkpt>
      <trkpt lat="31.424335017800331" lon="-5.441503040492535">
        <ele>1212.5</ele>
        <time>2003-04-14T10:37:33Z</time>
      </trkpt>
      <trkpt lat="31.424459991976619" lon="-5.441246973350644">
        <ele>1212.7</ele>
        <time>2003-04-14T10:37:37Z</time>
      </trkpt>
      <trkpt lat="31.424593012779951" lon="-5.441137002781034">
        <ele>1211.5999999999999</ele>
        <time>2003-04-14T10:37:39Z</time>
      </trkpt>
      <trkpt lat="31.424701977521181" lon="-5.440999958664179">
        <ele>1211.5</ele>
        <time>2003-04-14T10:37:40Z</time>
      </trkpt>
      <trkpt lat="31.424750005826354" lon="-5.440904991701245">
        <ele>1211.3</ele>
        <time>2003-04-14T10:37:41Z</time>
      </trkpt>
      <trkpt lat="31.424814965575933" lon="-5.44082704000175">
        <ele>1211.4000000000001</ele>
        <time>2003-04-14T10:37:43Z</time>
      </trkpt>
      <trkpt lat="31.424961984157562" lon="-5.440729977563024">
        <ele>1211.4000000000001</ele>
        <time>2003-04-14T10:37:44Z</time>
      </trkpt>
      <trkpt lat="31.425091987475753" lon="-5.440683038905263">
        <ele>1210.8</ele>
        <time>2003-04-14T10:37:47Z</time>
      </trkpt>
      <trkpt lat="31.425633039325476" lon="-5.440432000905275">
        <ele>1212.3</ele>
        <time>2003-04-14T10:37:55Z</time>
      </trkpt>
      <trkpt lat="31.425705039873719" lon="-5.440357988700271">
        <ele>1211.9000000000001</ele>
        <time>2003-04-14T10:37:56Z</time>
      </trkpt>
      <trkpt lat="31.425769999623299" lon="-5.440267967060208">
        <ele>1212</ele>
        <time>2003-04-14T10:37:56Z</time>
      </trkpt>
      <trkpt lat="31.425935039296746" lon="-5.440112985670567">
        <ele>1212.0999999999999</ele>
        <time>2003-04-14T10:37:59Z</time>
      </trkpt>
      <trkpt lat="31.426103012636304" lon="-5.439933026209474">
        <ele>1211.2</ele>
        <time>2003-04-14T10:38:00Z</time>
      </trkpt>
      <trkpt lat="31.426235027611256" lon="-5.439751977100968">
        <ele>1210.7</ele>
        <time>2003-04-14T10:38:03Z</time>
      </trkpt>
      <trkpt lat="31.42663199454546" lon="-5.43915300630033">
        <ele>1209.5999999999999</ele>
        <time>2003-04-14T10:38:10Z</time>
      </trkpt>
      <trkpt lat="31.42680499702692" lon="-5.438829967752099">
        <ele>1209.2</ele>
        <time>2003-04-14T10:38:14Z</time>
      </trkpt>
      <trkpt lat="31.426904993131757" lon="-5.438671968877316">
        <ele>1209.2</ele>
        <time>2003-04-14T10:38:15Z</time>
      </trkpt>
      <trkpt lat="31.42704295925796" lon="-5.438517993316054">
        <ele>1208.9000000000001</ele>
        <time>2003-04-14T10:38:18Z</time>
      </trkpt>
      <trkpt lat="31.427195006981492" lon="-5.438390001654625">
        <ele>1208.7</ele>
        <time>2003-04-14T10:38:19Z</time>
      </trkpt>
      <trkpt lat="31.4274069853127" lon="-5.438208030536771">
        <ele>1207.9000000000001</ele>
        <time>2003-04-14T10:38:23Z</time>
      </trkpt>
      <trkpt lat="31.427472028881311" lon="-5.438123038038611">
        <ele>1208.2</ele>
        <time>2003-04-14T10:38:23Z</time>
      </trkpt>
      <trkpt lat="31.427549980580807" lon="-5.438048020005226">
        <ele>1208.0999999999999</ele>
        <time>2003-04-14T10:38:24Z</time>
      </trkpt>
      <trkpt lat="31.427688030526042" lon="-5.437877029180527">
        <ele>1208.0999999999999</ele>
        <time>2003-04-14T10:38:27Z</time>
      </trkpt>
      <trkpt lat="31.427839994430542" lon="-5.437706960365176">
        <ele>1207.2</ele>
        <time>2003-04-14T10:38:29Z</time>
      </trkpt>
      <trkpt lat="31.428160015493631" lon="-5.437403032556176">
        <ele>1206.3</ele>
        <time>2003-04-14T10:38:33Z</time>
      </trkpt>
      <trkpt lat="31.428302004933357" lon="-5.437230030074716">
        <ele>1205.5999999999999</ele>
        <time>2003-04-14T10:38:34Z</time>
      </trkpt>
      <trkpt lat="31.428499985486269" lon="-5.437036994844675">
        <ele>1205.3</ele>
        <time>2003-04-14T10:38:38Z</time>
      </trkpt>
      <trkpt lat="31.428622025996447" lon="-5.436970023438335">
        <ele>1205.2</ele>
        <time>2003-04-14T10:38:39Z</time>
      </trkpt>
      <trkpt lat="31.428848002105951" lon="-5.436819987371564">
        <ele>1205.0999999999999</ele>
        <time>2003-04-14T10:38:42Z</time>
      </trkpt>
      <trkpt lat="31.429176991805434" lon="-5.436612032353878">
        <ele>1204.5999999999999</ele>
        <time>2003-04-14T10:38:46Z</time>
      </trkpt>
      <trkpt lat="31.429401962086558" lon="-5.436447998508811">
        <ele>1203.8</ele>
        <time>2003-04-14T10:38:50Z</time>
      </trkpt>
      <trkpt lat="31.429937984794378" lon="-5.436035022139549">
        <ele>1202.8</ele>
        <time>2003-04-14T10:38:56Z</time>
      </trkpt>
      <trkpt lat="31.43026202917099" lon="-5.435777027159929">
        <ele>1202.4000000000001</ele>
        <time>2003-04-14T10:39:00Z</time>
      </trkpt>
      <trkpt lat="31.430637035518885" lon="-5.435332031920552">
        <ele>1200.9000000000001</ele>
        <time>2003-04-14T10:39:05Z</time>
      </trkpt>
      <trkpt lat="31.431207004934549" lon="-5.434925006702542">
        <ele>1201.3</ele>
        <time>2003-04-14T10:39:10Z</time>
      </trkpt>
      <trkpt lat="31.431297026574612" lon="-5.434816963970661">
        <ele>1201.4000000000001</ele>
        <time>2003-04-14T10:39:13Z</time>
      </trkpt>
      <trkpt lat="31.431427029892802" lon="-5.434661982581019">
        <ele>1201.2</ele>
        <time>2003-04-14T10:39:14Z</time>
      </trkpt>
      <trkpt lat="31.431506993249059" lon="-5.434606997296214">
        <ele>1201.2</ele>
        <time>2003-04-14T10:39:16Z</time>
      </trkpt>
      <trkpt lat="31.431655017659068" lon="-5.434546982869506">
        <ele>1201.0999999999999</ele>
        <time>2003-04-14T10:39:17Z</time>
      </trkpt>
      <trkpt lat="31.431792983785272" lon="-5.434462996199727">
        <ele>1201</ele>
        <time>2003-04-14T10:39:20Z</time>
      </trkpt>
      <trkpt lat="31.431927010416985" lon="-5.434347996488214">
        <ele>1201.5</ele>
        <time>2003-04-14T10:39:21Z</time>
      </trkpt>
      <trkpt lat="31.432073023170233" lon="-5.434250012040138">
        <ele>1202.5</ele>
        <time>2003-04-14T10:39:24Z</time>
      </trkpt>
      <trkpt lat="31.432221969589591" lon="-5.434131994843483">
        <ele>1201.2</ele>
        <time>2003-04-14T10:39:25Z</time>
      </trkpt>
      <trkpt lat="31.43232699483633" lon="-5.434001991525292">
        <ele>1201.5</ele>
        <time>2003-04-14T10:39:28Z</time>
      </trkpt>
      <trkpt lat="31.4323699939996" lon="-5.433799987658858">
        <ele>1202</ele>
        <time>2003-04-14T10:39:29Z</time>
      </trkpt>
      <trkpt lat="31.432407964020967" lon="-5.433690017089248">
        <ele>1202.3</ele>
        <time>2003-04-14T10:39:31Z</time>
      </trkpt>
      <trkpt lat="31.432522041723132" lon="-5.433449959382415">
        <ele>1201.5999999999999</ele>
        <time>2003-04-14T10:39:32Z</time>
      </trkpt>
      <trkpt lat="31.432594964280725" lon="-5.433343006297946">
        <ele>1201.2</ele>
        <time>2003-04-14T10:39:33Z</time>
      </trkpt>
      <trkpt lat="31.433033002540469" lon="-5.432767001911998">
        <ele>1201.0999999999999</ele>
        <time>2003-04-14T10:39:40Z</time>
      </trkpt>
      <trkpt lat="31.433341959491372" lon="-5.432419991120696">
        <ele>1199.2</ele>
        <time>2003-04-14T10:39:44Z</time>
      </trkpt>
      <trkpt lat="31.433397028595209" lon="-5.43229702860117">
        <ele>1199.3</ele>
        <time>2003-04-14T10:39:44Z</time>
      </trkpt>
      <trkpt lat="31.433437010273337" lon="-5.43216803111136">
        <ele>1199.2</ele>
        <time>2003-04-14T10:39:45Z</time>
      </trkpt>
      <trkpt lat="31.433543041348457" lon="-5.431969966739416">
        <ele>1199.7</ele>
        <time>2003-04-14T10:39:48Z</time>
      </trkpt>
      <trkpt lat="31.433619987219572" lon="-5.431911963969469">
        <ele>1199.5999999999999</ele>
        <time>2003-04-14T10:39:48Z</time>
      </trkpt>
      <trkpt lat="31.433712020516396" lon="-5.431884974241257">
        <ele>1199.7</ele>
        <time>2003-04-14T10:39:50Z</time>
      </trkpt>
      <trkpt lat="31.433897009119391" lon="-5.431797970086336">
        <ele>1199.5999999999999</ele>
        <time>2003-04-14T10:39:52Z</time>
      </trkpt>
      <trkpt lat="31.434077974408865" lon="-5.431666960939765">
        <ele>1199.3</ele>
        <time>2003-04-14T10:39:54Z</time>
      </trkpt>
      <trkpt lat="31.43445298075676" lon="-5.431422963738442">
        <ele>1199.2</ele>
        <time>2003-04-14T10:39:58Z</time>
      </trkpt>
      <trkpt lat="31.435016999021173" lon="-5.431152982637286">
        <ele>1198.7</ele>
        <time>2003-04-14T10:40:03Z</time>
      </trkpt>
      <trkpt lat="31.435217997059226" lon="-5.430990038439632">
        <ele>1198.3</ele>
        <time>2003-04-14T10:40:07Z</time>
      </trkpt>
      <trkpt lat="31.435265019536018" lon="-5.430888030678034">
        <ele>1198.0999999999999</ele>
        <time>2003-04-14T10:40:08Z</time>
      </trkpt>
      <trkpt lat="31.435220008715987" lon="-5.430746963247657">
        <ele>1198.5</ele>
        <time>2003-04-14T10:40:11Z</time>
      </trkpt>
      <trkpt lat="31.435150019824505" lon="-5.430591981858015">
        <ele>1198.0999999999999</ele>
        <time>2003-04-14T10:40:12Z</time>
      </trkpt>
      <trkpt lat="31.435102997347713" lon="-5.430417973548174">
        <ele>1197.9000000000001</ele>
        <time>2003-04-14T10:40:15Z</time>
      </trkpt>
      <trkpt lat="31.43501297570765" lon="-5.430174982175231">
        <ele>1198.0999999999999</ele>
        <time>2003-04-14T10:40:18Z</time>
      </trkpt>
      <trkpt lat="31.434866962954402" lon="-5.429917993023992">
        <ele>1198.0999999999999</ele>
        <time>2003-04-14T10:40:22Z</time>
      </trkpt>
      <trkpt lat="31.434852965176105" lon="-5.429780026897788">
        <ele>1198.0999999999999</ele>
        <time>2003-04-14T10:40:23Z</time>
      </trkpt>
      <trkpt lat="31.434865035116673" lon="-5.429612975567579">
        <ele>1198.0999999999999</ele>
        <time>2003-04-14T10:40:26Z</time>
      </trkpt>
      <trkpt lat="31.43486000597477" lon="-5.429337965324521">
        <ele>1198.0999999999999</ele>
        <time>2003-04-14T10:40:29Z</time>
      </trkpt>
      <trkpt lat="31.434811977669597" lon="-5.429175021126866">
        <ele>1198.0999999999999</ele>
        <time>2003-04-14T10:40:30Z</time>
      </trkpt>
      <trkpt lat="31.434794962406158" lon="-5.429026996716857">
        <ele>1198</ele>
        <time>2003-04-14T10:40:33Z</time>
      </trkpt>
      <trkpt lat="31.434832010418177" lon="-5.428896993398666">
        <ele>1197.8</ele>
        <time>2003-04-14T10:40:34Z</time>
      </trkpt>
      <trkpt lat="31.434918008744717" lon="-5.428798003122211">
        <ele>1197.4000000000001</ele>
        <time>2003-04-14T10:40:38Z</time>
      </trkpt>
      <trkpt lat="31.434993026778102" lon="-5.428722985088825">
        <ele>1197.0999999999999</ele>
        <time>2003-04-14T10:40:42Z</time>
      </trkpt>
      <trkpt lat="31.435147002339363" lon="-5.428525004535914">
        <ele>1196.0999999999999</ele>
        <time>2003-04-14T10:40:52Z</time>
      </trkpt>
      <trkpt lat="31.43526996485889" lon="-5.428364994004369">
        <ele>1195.5</ele>
        <time>2003-04-14T10:40:54Z</time>
      </trkpt>
      <trkpt lat="31.435380019247532" lon="-5.428302967920899">
        <ele>1195.3</ele>
        <time>2003-04-14T10:40:57Z</time>
      </trkpt>
      <trkpt lat="31.43550499342382" lon="-5.428268015384674">
        <ele>1195.2</ele>
        <time>2003-04-14T10:40:58Z</time>
      </trkpt>
      <trkpt lat="31.435601972043514" lon="-5.428257035091519">
        <ele>1195</ele>
        <time>2003-04-14T10:41:01Z</time>
      </trkpt>
      <trkpt lat="31.43569702282548" lon="-5.428191991522908">
        <ele>1195.2</ele>
        <time>2003-04-14T10:41:05Z</time>
      </trkpt>
      <trkpt lat="31.435604989528656" lon="-5.428108004853129">
        <ele>1195.2</ele>
        <time>2003-04-14T10:41:08Z</time>
      </trkpt>
      <trkpt lat="31.435513040050864" lon="-5.428072968497872">
        <ele>1195.2</ele>
        <time>2003-04-14T10:41:09Z</time>
      </trkpt>
      <trkpt lat="31.435407008975744" lon="-5.428008008748293">
        <ele>1195</ele>
        <time>2003-04-14T10:41:12Z</time>
      </trkpt>
      <trkpt lat="31.435271976515651" lon="-5.427865013480187">
        <ele>1194.4000000000001</ele>
        <time>2003-04-14T10:41:15Z</time>
      </trkpt>
      <trkpt lat="31.435201987624168" lon="-5.427778009325266">
        <ele>1194.3</ele>
        <time>2003-04-14T10:41:16Z</time>
      </trkpt>
      <trkpt lat="31.435157982632518" lon="-5.427650017663837">
        <ele>1193.8</ele>
        <time>2003-04-14T10:41:19Z</time>
      </trkpt>
      <trkpt lat="31.435150019824505" lon="-5.427481960505247">
        <ele>1193.8</ele>
        <time>2003-04-14T10:41:20Z</time>
      </trkpt>
      <trkpt lat="31.435186984017491" lon="-5.427320022135973">
        <ele>1193.8</ele>
        <time>2003-04-14T10:41:23Z</time>
      </trkpt>
      <trkpt lat="31.435274994000793" lon="-5.427178032696247">
        <ele>1193.5999999999999</ele>
        <time>2003-04-14T10:41:24Z</time>
      </trkpt>
      <trkpt lat="31.435342971235514" lon="-5.427035037428141">
        <ele>1193.5999999999999</ele>
        <time>2003-04-14T10:41:27Z</time>
      </trkpt>
      <trkpt lat="31.43550499342382" lon="-5.426739994436503">
        <ele>1193.5</ele>
        <time>2003-04-14T10:41:31Z</time>
      </trkpt>
      <trkpt lat="31.435921993106604" lon="-5.426155021414161">
        <ele>1192.5</ele>
        <time>2003-04-14T10:41:39Z</time>
      </trkpt>
      <trkpt lat="31.436228016391397" lon="-5.425817985087633">
        <ele>1192.2</ele>
        <time>2003-04-14T10:41:43Z</time>
      </trkpt>
      <trkpt lat="31.436660019680858" lon="-5.425416994839907">
        <ele>1191.9000000000001</ele>
        <time>2003-04-14T10:41:51Z</time>
      </trkpt>
      <trkpt lat="31.436760015785694" lon="-5.425263019278646">
        <ele>1191.5</ele>
        <time>2003-04-14T10:41:52Z</time>
      </trkpt>
      <trkpt lat="31.436839979141951" lon="-5.425109965726733">
        <ele>1190.8</ele>
        <time>2003-04-14T10:41:55Z</time>
      </trkpt>
      <trkpt lat="31.436852971091866" lon="-5.424932017922401">
        <ele>1190.5999999999999</ele>
        <time>2003-04-14T10:41:56Z</time>
      </trkpt>
      <trkpt lat="31.436842996627092" lon="-5.42452298104763">
        <ele>1191</ele>
        <time>2003-04-14T10:42:00Z</time>
      </trkpt>
      <trkpt lat="31.436817012727261" lon="-5.424303039908409">
        <ele>1190.9000000000001</ele>
        <time>2003-04-14T10:42:03Z</time>
      </trkpt>
      <trkpt lat="31.436779964715242" lon="-5.424200026318431">
        <ele>1190.5999999999999</ele>
        <time>2003-04-14T10:42:03Z</time>
      </trkpt>
      <trkpt lat="31.436736965551972" lon="-5.424010008573532">
        <ele>1190.5999999999999</ele>
        <time>2003-04-14T10:42:06Z</time>
      </trkpt>
      <trkpt lat="31.436727996915579" lon="-5.423842035233975">
        <ele>1190.7</ele>
        <time>2003-04-14T10:42:07Z</time>
      </trkpt>
      <trkpt lat="31.436745012179017" lon="-5.423546992242336">
        <ele>1190.7</ele>
        <time>2003-04-14T10:42:11Z</time>
      </trkpt>
      <trkpt lat="31.436764961108565" lon="-5.423311963677406">
        <ele>1190.7</ele>
        <time>2003-04-14T10:42:14Z</time>
      </trkpt>
      <trkpt lat="31.436790022999048" lon="-5.422957995906472">
        <ele>1190.5999999999999</ele>
        <time>2003-04-14T10:42:18Z</time>
      </trkpt>
      <trkpt lat="31.436822041869164" lon="-5.422796979546547">
        <ele>1190.5</ele>
        <time>2003-04-14T10:42:21Z</time>
      </trkpt>
      <trkpt lat="31.436848025768995" lon="-5.422649960964918">
        <ele>1190.3</ele>
        <time>2003-04-14T10:42:22Z</time>
      </trkpt>
      <trkpt lat="31.436893036589026" lon="-5.422204965725541">
        <ele>1189.5999999999999</ele>
        <time>2003-04-14T10:42:29Z</time>
      </trkpt>
      <trkpt lat="31.436997978016734" lon="-5.421855021268129">
        <ele>1189.3</ele>
        <time>2003-04-14T10:42:34Z</time>
      </trkpt>
      <trkpt lat="31.437108032405376" lon="-5.421642037108541">
        <ele>1189.5999999999999</ele>
        <time>2003-04-14T10:42:37Z</time>
      </trkpt>
      <trkpt lat="31.437150025740266" lon="-5.421501975506544">
        <ele>1189.5999999999999</ele>
        <time>2003-04-14T10:42:38Z</time>
      </trkpt>
      <trkpt lat="31.437141979113221" lon="-5.42134297080338">
        <ele>1189.7</ele>
        <time>2003-04-14T10:42:41Z</time>
      </trkpt>
      <trkpt lat="31.437107026576996" lon="-5.421169968321919">
        <ele>1190.0999999999999</ele>
        <time>2003-04-14T10:42:42Z</time>
      </trkpt>
      <trkpt lat="31.437033014371991" lon="-5.420872997492552">
        <ele>1191.2</ele>
        <time>2003-04-14T10:42:46Z</time>
      </trkpt>
      <trkpt lat="31.436918014660478" lon="-5.420678034424782">
        <ele>1191.0999999999999</ele>
        <time>2003-04-14T10:42:49Z</time>
      </trkpt>
      <trkpt lat="31.436775019392371" lon="-5.420451974496245">
        <ele>1190.9000000000001</ele>
        <time>2003-04-14T10:42:53Z</time>
      </trkpt>
      <trkpt lat="31.436762027442455" lon="-5.420336974784732">
        <ele>1190.8</ele>
        <time>2003-04-14T10:42:53Z</time>
      </trkpt>
      <trkpt lat="31.436718022450805" lon="-5.420121978968382">
        <ele>1190.9000000000001</ele>
        <time>2003-04-14T10:42:56Z</time>
      </trkpt>
      <trkpt lat="31.436706958338618" lon="-5.419912012293935">
        <ele>1191</ele>
        <time>2003-04-14T10:42:57Z</time>
      </trkpt>
      <trkpt lat="31.436718022450805" lon="-5.419538011774421">
        <ele>1191.5</ele>
        <time>2003-04-14T10:43:01Z</time>
      </trkpt>
      <trkpt lat="31.436692038550973" lon="-5.419292002916336">
        <ele>1191.0999999999999</ele>
        <time>2003-04-14T10:43:03Z</time>
      </trkpt>
      <trkpt lat="31.436652978882194" lon="-5.419168034568429">
        <ele>1190.9000000000001</ele>
        <time>2003-04-14T10:43:04Z</time>
      </trkpt>
      <trkpt lat="31.436482993885875" lon="-5.41854701936245">
        <ele>1190.3</ele>
        <time>2003-04-14T10:43:08Z</time>
      </trkpt>
      <trkpt lat="31.436418034136295" lon="-5.417855009436607">
        <ele>1190.7</ele>
        <time>2003-04-14T10:43:13Z</time>
      </trkpt>
      <trkpt lat="31.436237990856171" lon="-5.416780030354857">
        <ele>1190.5999999999999</ele>
        <time>2003-04-14T10:43:21Z</time>
      </trkpt>
      <trkpt lat="31.436112010851502" lon="-5.416387002915144">
        <ele>1189.8</ele>
        <time>2003-04-14T10:43:24Z</time>
      </trkpt>
      <trkpt lat="31.436032969504595" lon="-5.416032029315829">
        <ele>1190.0999999999999</ele>
        <time>2003-04-14T10:43:28Z</time>
      </trkpt>
      <trkpt lat="31.436068005859852" lon="-5.415924992412329">
        <ele>1189.7</ele>
        <time>2003-04-14T10:43:28Z</time>
      </trkpt>
      <trkpt lat="31.436127014458179" lon="-5.415717037394643">
        <ele>1190.5999999999999</ele>
        <time>2003-04-14T10:43:31Z</time>
      </trkpt>
      <trkpt lat="31.436125002801418" lon="-5.415602959692478">
        <ele>1190.7</ele>
        <time>2003-04-14T10:43:31Z</time>
      </trkpt>
      <trkpt lat="31.43610798753798" lon="-5.415482008829713">
        <ele>1190.5999999999999</ele>
        <time>2003-04-14T10:43:32Z</time>
      </trkpt>
      <trkpt lat="31.436053002253175" lon="-5.414935005828738">
        <ele>1190.9000000000001</ele>
        <time>2003-04-14T10:43:36Z</time>
      </trkpt>
      <trkpt lat="31.436053002253175" lon="-5.414647003635764">
        <ele>1190.7</ele>
        <time>2003-04-14T10:43:39Z</time>
      </trkpt>
      <trkpt lat="31.436025006696582" lon="-5.414102012291551">
        <ele>1190.5999999999999</ele>
        <time>2003-04-14T10:43:43Z</time>
      </trkpt>
      <trkpt lat="31.435898020863533" lon="-5.413334984332323">
        <ele>1190.0999999999999</ele>
        <time>2003-04-14T10:43:47Z</time>
      </trkpt>
      <trkpt lat="31.435743039473891" lon="-5.412239972501993">
        <ele>1189.3</ele>
        <time>2003-04-14T10:43:55Z</time>
      </trkpt>
      <trkpt lat="31.435738010331988" lon="-5.412099994719029">
        <ele>1189.0999999999999</ele>
        <time>2003-04-14T10:43:55Z</time>
      </trkpt>
      <trkpt lat="31.43569802865386" lon="-5.411852980032563">
        <ele>1189</ele>
        <time>2003-04-14T10:43:58Z</time>
      </trkpt>
      <trkpt lat="31.43561203032732" lon="-5.411497000604868">
        <ele>1188.8</ele>
        <time>2003-04-14T10:44:01Z</time>
      </trkpt>
      <trkpt lat="31.435587974265218" lon="-5.411377977579832">
        <ele>1188.8</ele>
        <time>2003-04-14T10:44:02Z</time>
      </trkpt>
      <trkpt lat="31.435519997030497" lon="-5.411164993420243">
        <ele>1189</ele>
        <time>2003-04-14T10:44:03Z</time>
      </trkpt>
      <trkpt lat="31.435368033125997" lon="-5.410742964595556">
        <ele>1189.2</ele>
        <time>2003-04-14T10:44:07Z</time>
      </trkpt>
      <trkpt lat="31.435371972620487" lon="-5.410635005682707">
        <ele>1189.0999999999999</ele>
        <time>2003-04-14T10:44:09Z</time>
      </trkpt>
      <trkpt lat="31.435392005369067" lon="-5.410523023456335">
        <ele>1189.2</ele>
        <time>2003-04-14T10:44:10Z</time>
      </trkpt>
      <trkpt lat="31.435437016189098" lon="-5.410417998209596">
        <ele>1189.4000000000001</ele>
        <time>2003-04-14T10:44:10Z</time>
      </trkpt>
      <trkpt lat="31.435619993135333" lon="-5.410003010183573">
        <ele>1189</ele>
        <time>2003-04-14T10:44:14Z</time>
      </trkpt>
      <trkpt lat="31.435628039762378" lon="-5.409887004643679">
        <ele>1188.8</ele>
        <time>2003-04-14T10:44:15Z</time>
      </trkpt>
      <trkpt lat="31.43561496399343" lon="-5.409764964133501">
        <ele>1189.0999999999999</ele>
        <time>2003-04-14T10:44:17Z</time>
      </trkpt>
      <trkpt lat="31.435583028942347" lon="-5.409645019099116">
        <ele>1188.9000000000001</ele>
        <time>2003-04-14T10:44:18Z</time>
      </trkpt>
      <trkpt lat="31.435455037280917" lon="-5.409279987215996">
        <ele>1188.2</ele>
        <time>2003-04-14T10:44:21Z</time>
      </trkpt>
      <trkpt lat="31.435372978448868" lon="-5.409015035256743">
        <ele>1188</ele>
        <time>2003-04-14T10:44:22Z</time>
      </trkpt>
      <trkpt lat="31.435133004561067" lon="-5.407948018983007">
        <ele>1187.3</ele>
        <time>2003-04-14T10:44:30Z</time>
      </trkpt>
      <trkpt lat="31.435127975419164" lon="-5.407733023166657">
        <ele>1187.5</ele>
        <time>2003-04-14T10:44:33Z</time>
      </trkpt>
      <trkpt lat="31.435192013159394" lon="-5.407652975991368">
        <ele>1187.2</ele>
        <time>2003-04-14T10:44:33Z</time>
      </trkpt>
      <trkpt lat="31.435305001214147" lon="-5.40748299099505">
        <ele>1186.8</ele>
        <time>2003-04-14T10:44:36Z</time>
      </trkpt>
      <trkpt lat="31.43533299677074" lon="-5.407367991283536">
        <ele>1186.5999999999999</ele>
        <time>2003-04-14T10:44:37Z</time>
      </trkpt>
      <trkpt lat="31.435402985662222" lon="-5.407146960496903">
        <ele>1186.7</ele>
        <time>2003-04-14T10:44:38Z</time>
      </trkpt>
      <trkpt lat="31.435456965118647" lon="-5.407047970220447">
        <ele>1186.5999999999999</ele>
        <time>2003-04-14T10:44:40Z</time>
      </trkpt>
      <trkpt lat="31.43552795983851" lon="-5.406974963843823">
        <ele>1186.7</ele>
        <time>2003-04-14T10:44:41Z</time>
      </trkpt>
      <trkpt lat="31.435602977871895" lon="-5.406916961073875">
        <ele>1186.5</ele>
        <time>2003-04-14T10:44:41Z</time>
      </trkpt>
      <trkpt lat="31.435687970370054" lon="-5.406746976077557">
        <ele>1186.0999999999999</ele>
        <time>2003-04-14T10:44:44Z</time>
      </trkpt>
      <trkpt lat="31.435787966474891" lon="-5.406310027465224">
        <ele>1185.5999999999999</ele>
        <time>2003-04-14T10:44:48Z</time>
      </trkpt>
      <trkpt lat="31.436067000031471" lon="-5.405515003949404">
        <ele>1185.3</ele>
        <time>2003-04-14T10:44:55Z</time>
      </trkpt>
      <trkpt lat="31.436137994751334" lon="-5.405427999794483">
        <ele>1185</ele>
        <time>2003-04-14T10:44:56Z</time>
      </trkpt>
      <trkpt lat="31.436520041897893" lon="-5.404985016211867">
        <ele>1184.4000000000001</ele>
        <time>2003-04-14T10:45:00Z</time>
      </trkpt>
      <trkpt lat="31.436563041061163" lon="-5.404868004843593">
        <ele>1184</ele>
        <time>2003-04-14T10:45:01Z</time>
      </trkpt>
      <trkpt lat="31.436630012467504" lon="-5.404600035399199">
        <ele>1183.8</ele>
        <time>2003-04-14T10:45:04Z</time>
      </trkpt>
      <trkpt lat="31.436654990538955" lon="-5.404299963265657">
        <ele>1183.7</ele>
        <time>2003-04-14T10:45:05Z</time>
      </trkpt>
      <trkpt lat="31.436736965551972" lon="-5.403181985020638">
        <ele>1183.0999999999999</ele>
        <time>2003-04-14T10:45:14Z</time>
      </trkpt>
      <trkpt lat="31.43670997582376" lon="-5.402353014796972">
        <ele>1182.3</ele>
        <time>2003-04-14T10:45:19Z</time>
      </trkpt>
      <trkpt lat="31.436796979978681" lon="-5.401967028155923">
        <ele>1182.3</ele>
        <time>2003-04-14T10:45:23Z</time>
      </trkpt>
      <trkpt lat="31.436848025768995" lon="-5.40176703594625">
        <ele>1181.9000000000001</ele>
        <time>2003-04-14T10:45:24Z</time>
      </trkpt>
      <trkpt lat="31.436935029923916" lon="-5.401665028184652">
        <ele>1181.4000000000001</ele>
        <time>2003-04-14T10:45:27Z</time>
      </trkpt>
      <trkpt lat="31.437084982171655" lon="-5.401612976565957">
        <ele>1182.4000000000001</ele>
        <time>2003-04-14T10:45:28Z</time>
      </trkpt>
      <trkpt lat="31.437578005716205" lon="-5.40138297714293">
        <ele>1182</ele>
        <time>2003-04-14T10:45:35Z</time>
      </trkpt>
      <trkpt lat="31.437671966850758" lon="-5.401230007410049">
        <ele>1182.8</ele>
        <time>2003-04-14T10:45:38Z</time>
      </trkpt>
      <trkpt lat="31.438038004562259" lon="-5.400549983605743">
        <ele>1182.0999999999999</ele>
        <time>2003-04-14T10:45:46Z</time>
      </trkpt>
      <trkpt lat="31.438185023143888" lon="-5.400432972237468">
        <ele>1181.8</ele>
        <time>2003-04-14T10:45:47Z</time>
      </trkpt>
      <trkpt lat="31.438327012583613" lon="-5.400321995839477">
        <ele>1181.5</ele>
        <time>2003-04-14T10:45:50Z</time>
      </trkpt>
      <trkpt lat="31.43838501535356" lon="-5.400229962542653">
        <ele>1181.5999999999999</ele>
        <time>2003-04-14T10:45:50Z</time>
      </trkpt>
      <trkpt lat="31.438472019508481" lon="-5.40002703666687">
        <ele>1181.5</ele>
        <time>2003-04-14T10:45:53Z</time>
      </trkpt>
      <trkpt lat="31.438496997579932" lon="-5.399923017248511">
        <ele>1181.8</ele>
        <time>2003-04-14T10:45:54Z</time>
      </trkpt>
      <trkpt lat="31.438562963157892" lon="-5.399746997281909">
        <ele>1182.0999999999999</ele>
        <time>2003-04-14T10:45:55Z</time>
      </trkpt>
      <trkpt lat="31.438667988404632" lon="-5.399627974256873">
        <ele>1181.8</ele>
        <time>2003-04-14T10:45:58Z</time>
      </trkpt>
      <trkpt lat="31.438952973112464" lon="-5.399337960407138">
        <ele>1181.2</ele>
        <time>2003-04-14T10:46:02Z</time>
      </trkpt>
      <trkpt lat="31.439124969765544" lon="-5.399063033983111">
        <ele>1180.5</ele>
        <time>2003-04-14T10:46:06Z</time>
      </trkpt>
      <trkpt lat="31.439318004995584" lon="-5.398691967129707">
        <ele>1179.9000000000001</ele>
        <time>2003-04-14T10:46:12Z</time>
      </trkpt>
      <trkpt lat="31.439312975853682" lon="-5.398494992405176">
        <ele>1179.7</ele>
        <time>2003-04-14T10:46:13Z</time>
      </trkpt>
      <trkpt lat="31.439281962811947" lon="-5.398388039320707">
        <ele>1179.7</ele>
        <time>2003-04-14T10:46:14Z</time>
      </trkpt>
      <trkpt lat="31.439193030819297" lon="-5.397993000224233">
        <ele>1179.8</ele>
        <time>2003-04-14T10:46:18Z</time>
      </trkpt>
      <trkpt lat="31.439199987798929" lon="-5.397789990529418">
        <ele>1179.9000000000001</ele>
        <time>2003-04-14T10:46:21Z</time>
      </trkpt>
      <trkpt lat="31.439194958657026" lon="-5.397424958646298">
        <ele>1179.5999999999999</ele>
        <time>2003-04-14T10:46:24Z</time>
      </trkpt>
      <trkpt lat="31.439162017777562" lon="-5.397322028875351">
        <ele>1179.4000000000001</ele>
        <time>2003-04-14T10:46:25Z</time>
      </trkpt>
      <trkpt lat="31.439077025279403" lon="-5.397141985595226">
        <ele>1179.4000000000001</ele>
        <time>2003-04-14T10:46:26Z</time>
      </trkpt>
      <trkpt lat="31.4390719961375" lon="-5.396948028355837">
        <ele>1179.0999999999999</ele>
        <time>2003-04-14T10:46:29Z</time>
      </trkpt>
      <trkpt lat="31.4390719961375" lon="-5.396609986200929">
        <ele>1178.9000000000001</ele>
        <time>2003-04-14T10:46:32Z</time>
      </trkpt>
      <trkpt lat="31.439036959782243" lon="-5.396506972610951">
        <ele>1178.9000000000001</ele>
        <time>2003-04-14T10:46:33Z</time>
      </trkpt>
      <trkpt lat="31.438978035002947" lon="-5.396415023133159">
        <ele>1178.8</ele>
        <time>2003-04-14T10:46:33Z</time>
      </trkpt>
      <trkpt lat="31.43887803889811" lon="-5.396212013438344">
        <ele>1178.9000000000001</ele>
        <time>2003-04-14T10:46:36Z</time>
      </trkpt>
      <trkpt lat="31.438667988404632" lon="-5.395567025989294">
        <ele>1178.3</ele>
        <time>2003-04-14T10:46:41Z</time>
      </trkpt>
      <trkpt lat="31.438532033935189" lon="-5.395477004349232">
        <ele>1178.2</ele>
        <time>2003-04-14T10:46:44Z</time>
      </trkpt>
      <trkpt lat="31.438432037830353" lon="-5.395367033779621">
        <ele>1178.3</ele>
        <time>2003-04-14T10:46:45Z</time>
      </trkpt>
      <trkpt lat="31.438372023403645" lon="-5.395169975236058">
        <ele>1178.0999999999999</ele>
        <time>2003-04-14T10:46:48Z</time>
      </trkpt>
      <trkpt lat="31.43832198344171" lon="-5.395067967474461">
        <ele>1178.3</ele>
        <time>2003-04-14T10:46:48Z</time>
      </trkpt>
      <trkpt lat="31.438260041177273" lon="-5.394980041310191">
        <ele>1178.2</ele>
        <time>2003-04-14T10:46:49Z</time>
      </trkpt>
      <trkpt lat="31.438198015093803" lon="-5.394818019121885">
        <ele>1178.3</ele>
        <time>2003-04-14T10:46:52Z</time>
      </trkpt>
      <trkpt lat="31.438210001215339" lon="-5.394639987498522">
        <ele>1178.2</ele>
        <time>2003-04-14T10:46:53Z</time>
      </trkpt>
      <trkpt lat="31.438230033963919" lon="-5.394458016380668">
        <ele>1178.5</ele>
        <time>2003-04-14T10:46:56Z</time>
      </trkpt>
      <trkpt lat="31.438207989558578" lon="-5.394343016669154">
        <ele>1177.8</ele>
        <time>2003-04-14T10:46:56Z</time>
      </trkpt>
      <trkpt lat="31.438067005947232" lon="-5.39366802200675">
        <ele>1177.9000000000001</ele>
        <time>2003-04-14T10:47:04Z</time>
      </trkpt>
      <trkpt lat="31.437970027327538" lon="-5.393519997596741">
        <ele>1178</ele>
        <time>2003-04-14T10:47:07Z</time>
      </trkpt>
      <trkpt lat="31.437817979604006" lon="-5.39341002702713">
        <ele>1177.9000000000001</ele>
        <time>2003-04-14T10:47:08Z</time>
      </trkpt>
      <trkpt lat="31.437676995992661" lon="-5.393312964588404">
        <ele>1177.8</ele>
        <time>2003-04-14T10:47:11Z</time>
      </trkpt>
      <trkpt lat="31.437622010707855" lon="-5.393112972378731">
        <ele>1177.5999999999999</ele>
        <time>2003-04-14T10:47:12Z</time>
      </trkpt>
      <trkpt lat="31.437544981017709" lon="-5.39289303123951">
        <ele>1177.4000000000001</ele>
        <time>2003-04-14T10:47:15Z</time>
      </trkpt>
      <trkpt lat="31.437425035983324" lon="-5.392560018226504">
        <ele>1177.4000000000001</ele>
        <time>2003-04-14T10:47:18Z</time>
      </trkpt>
      <trkpt lat="31.437282962724566" lon="-5.392106976360083">
        <ele>1177</ele>
        <time>2003-04-14T10:47:22Z</time>
      </trkpt>
      <trkpt lat="31.437095040455461" lon="-5.391697017475963">
        <ele>1176.5</ele>
        <time>2003-04-14T10:47:26Z</time>
      </trkpt>
      <trkpt lat="31.436784993857145" lon="-5.391312958672643">
        <ele>1176.3</ele>
        <time>2003-04-14T10:47:31Z</time>
      </trkpt>
      <trkpt lat="31.436724979430437" lon="-5.391227966174483">
        <ele>1176.3</ele>
        <time>2003-04-14T10:47:31Z</time>
      </trkpt>
      <trkpt lat="31.436522975564003" lon="-5.390892019495368">
        <ele>1176.2</ele>
        <time>2003-04-14T10:47:35Z</time>
      </trkpt>
      <trkpt lat="31.436476958915591" lon="-5.39070300757885">
        <ele>1176.0999999999999</ele>
        <time>2003-04-14T10:47:38Z</time>
      </trkpt>
      <trkpt lat="31.436418034136295" lon="-5.390536962077022">
        <ele>1175.9000000000001</ele>
        <time>2003-04-14T10:47:39Z</time>
      </trkpt>
      <trkpt lat="31.436317032203078" lon="-5.390392038971186">
        <ele>1176</ele>
        <time>2003-04-14T10:47:42Z</time>
      </trkpt>
      <trkpt lat="31.436272021383047" lon="-5.390226999297738">
        <ele>1175.5</ele>
        <time>2003-04-14T10:47:43Z</time>
      </trkpt>
      <trkpt lat="31.436303034424782" lon="-5.390034969896078">
        <ele>1175.5</ele>
        <time>2003-04-14T10:47:46Z</time>
      </trkpt>
      <trkpt lat="31.436222987249494" lon="-5.389852998778224">
        <ele>1175</ele>
        <time>2003-04-14T10:47:47Z</time>
      </trkpt>
      <trkpt lat="31.436046967282891" lon="-5.389553010463715">
        <ele>1175</ele>
        <time>2003-04-14T10:47:50Z</time>
      </trkpt>
      <trkpt lat="31.435777992010117" lon="-5.388926966115832">
        <ele>1174.5</ele>
        <time>2003-04-14T10:47:56Z</time>
      </trkpt>
      <trkpt lat="31.43533299677074" lon="-5.38797696121037">
        <ele>1173.5999999999999</ele>
        <time>2003-04-14T10:48:02Z</time>
      </trkpt>
      <trkpt lat="31.435190001502633" lon="-5.387622993439436">
        <ele>1173.3</ele>
        <time>2003-04-14T10:48:05Z</time>
      </trkpt>
      <trkpt lat="31.435111965984106" lon="-5.387534983456135">
        <ele>1173.0999999999999</ele>
        <time>2003-04-14T10:48:06Z</time>
      </trkpt>
      <trkpt lat="31.434966959059238" lon="-5.387332979589701">
        <ele>1173.0999999999999</ele>
        <time>2003-04-14T10:48:09Z</time>
      </trkpt>
      <trkpt lat="31.434784987941384" lon="-5.386914974078536">
        <ele>1173</ele>
        <time>2003-04-14T10:48:12Z</time>
      </trkpt>
      <trkpt lat="31.434530010446906" lon="-5.386265041306615">
        <ele>1172.7</ele>
        <time>2003-04-14T10:48:17Z</time>
      </trkpt>
      <trkpt lat="31.434396989643574" lon="-5.385903026908636">
        <ele>1172.4000000000001</ele>
        <time>2003-04-14T10:48:20Z</time>
      </trkpt>
      <trkpt lat="31.434190040454268" lon="-5.38546297699213">
        <ele>1172.0999999999999</ele>
        <time>2003-04-14T10:48:24Z</time>
      </trkpt>
      <trkpt lat="31.434158021584153" lon="-5.385253010317683">
        <ele>1171.9000000000001</ele>
        <time>2003-04-14T10:48:25Z</time>
      </trkpt>
      <trkpt lat="31.434158021584153" lon="-5.385146979242563">
        <ele>1172</ele>
        <time>2003-04-14T10:48:27Z</time>
      </trkpt>
      <trkpt lat="31.434118039906025" lon="-5.384596958756447">
        <ele>1170.7</ele>
        <time>2003-04-14T10:48:32Z</time>
      </trkpt>
      <trkpt lat="31.434076968580484" lon="-5.38438799791038">
        <ele>1170.4000000000001</ele>
        <time>2003-04-14T10:48:33Z</time>
      </trkpt>
      <trkpt lat="31.434047967195511" lon="-5.384107958525419">
        <ele>1170.4000000000001</ele>
        <time>2003-04-14T10:48:36Z</time>
      </trkpt>
      <trkpt lat="31.433989964425564" lon="-5.383682996034622">
        <ele>1169.9000000000001</ele>
        <time>2003-04-14T10:48:40Z</time>
      </trkpt>
      <trkpt lat="31.433859961107373" lon="-5.382622014731169">
        <ele>1169.3</ele>
        <time>2003-04-14T10:48:50Z</time>
      </trkpt>
      <trkpt lat="31.433825008571148" lon="-5.382208032533526">
        <ele>1169.5999999999999</ele>
        <time>2003-04-14T10:48:54Z</time>
      </trkpt>
      <trkpt lat="31.433789972215891" lon="-5.381643008440733">
        <ele>1168.7</ele>
        <time>2003-04-14T10:48:59Z</time>
      </trkpt>
      <trkpt lat="31.433668015524745" lon="-5.381575031206012">
        <ele>1169.2</ele>
        <time>2003-04-14T10:49:02Z</time>
      </trkpt>
      <trkpt lat="31.433519991114736" lon="-5.381575031206012">
        <ele>1168.9000000000001</ele>
        <time>2003-04-14T10:49:03Z</time>
      </trkpt>
      <trkpt lat="31.433171974495053" lon="-5.381590034812689">
        <ele>1169</ele>
        <time>2003-04-14T10:49:08Z</time>
      </trkpt>
      <trkpt lat="31.432965025305748" lon="-5.381606966257095">
        <ele>1169.4000000000001</ele>
        <time>2003-04-14T10:49:11Z</time>
      </trkpt>
      <trkpt lat="31.43284298479557" lon="-5.381633033975959">
        <ele>1169.8</ele>
        <time>2003-04-14T10:49:14Z</time>
      </trkpt>
      <trkpt lat="31.432705018669367" lon="-5.381705034524202">
        <ele>1170.2</ele>
        <time>2003-04-14T10:49:17Z</time>
      </trkpt>
      <trkpt lat="31.432624971494079" lon="-5.381772005930543">
        <ele>1170.3</ele>
        <time>2003-04-14T10:49:19Z</time>
      </trkpt>
      <trkpt lat="31.432426990941167" lon="-5.381922964006662">
        <ele>1170.3</ele>
        <time>2003-04-14T10:49:22Z</time>
      </trkpt>
      <trkpt lat="31.432305034250021" lon="-5.381917012855411">
        <ele>1169.9000000000001</ele>
        <time>2003-04-14T10:49:25Z</time>
      </trkpt>
      <trkpt lat="31.432058019563556" lon="-5.381926987320185">
        <ele>1170.4000000000001</ele>
        <time>2003-04-14T10:49:30Z</time>
      </trkpt>
      <trkpt lat="31.431936984881759" lon="-5.381927993148565">
        <ele>1170.5</ele>
        <time>2003-04-14T10:49:33Z</time>
      </trkpt>
      <trkpt lat="31.431812010705471" lon="-5.381932016462088">
        <ele>1170.7</ele>
        <time>2003-04-14T10:49:34Z</time>
      </trkpt>
      <trkpt lat="31.431655017659068" lon="-5.381937967613339">
        <ele>1170.7</ele>
        <time>2003-04-14T10:49:37Z</time>
      </trkpt>
      <trkpt lat="31.431521996855736" lon="-5.381918018683791">
        <ele>1171</ele>
        <time>2003-04-14T10:49:38Z</time>
      </trkpt>
      <trkpt lat="31.431283028796315" lon="-5.381822967901826">
        <ele>1171</ele>
        <time>2003-04-14T10:49:42Z</time>
      </trkpt>
      <trkpt lat="31.431112959980965" lon="-5.381806958466768">
        <ele>1171.2</ele>
        <time>2003-04-14T10:49:44Z</time>
      </trkpt>
      <trkpt lat="31.430927971377969" lon="-5.381822967901826">
        <ele>1171.4000000000001</ele>
        <time>2003-04-14T10:49:46Z</time>
      </trkpt>
      <trkpt lat="31.429970003664494" lon="-5.381866972893477">
        <ele>1172.0999999999999</ele>
        <time>2003-04-14T10:49:57Z</time>
      </trkpt>
      <trkpt lat="31.429383018985391" lon="-5.381887005642057">
        <ele>1172.7</ele>
        <time>2003-04-14T10:50:05Z</time>
      </trkpt>
      <trkpt lat="31.429292997345328" lon="-5.381896980106831">
        <ele>1172.7</ele>
        <time>2003-04-14T10:50:06Z</time>
      </trkpt>
      <trkpt lat="31.429177997633815" lon="-5.381917012855411">
        <ele>1172.7</ele>
        <time>2003-04-14T10:50:09Z</time>
      </trkpt>
      <trkpt lat="31.429056962952018" lon="-5.381945008412004">
        <ele>1172.9000000000001</ele>
        <time>2003-04-14T10:50:11Z</time>
      </trkpt>
      <trkpt lat="31.428765021264553" lon="-5.381963029503822">
        <ele>1173</ele>
        <time>2003-04-14T10:50:15Z</time>
      </trkpt>
      <trkpt lat="31.428407030180097" lon="-5.381971998140216">
        <ele>1173.2</ele>
        <time>2003-04-14T10:50:19Z</time>
      </trkpt>
      <trkpt lat="31.427476974204183" lon="-5.381903015077114">
        <ele>1173.9000000000001</ele>
        <time>2003-04-14T10:50:28Z</time>
      </trkpt>
      <trkpt lat="31.426535015925765" lon="-5.381887005642057">
        <ele>1173.5999999999999</ele>
        <time>2003-04-14T10:50:39Z</time>
      </trkpt>
      <trkpt lat="31.426392020657659" lon="-5.381836965680122">
        <ele>1173.8</ele>
        <time>2003-04-14T10:50:40Z</time>
      </trkpt>
      <trkpt lat="31.42630803398788" lon="-5.38178700953722">
        <ele>1173.5999999999999</ele>
        <time>2003-04-14T10:50:43Z</time>
      </trkpt>
      <trkpt lat="31.426212983205914" lon="-5.381728000938892">
        <ele>1173.4000000000001</ele>
        <time>2003-04-14T10:50:46Z</time>
      </trkpt>
      <trkpt lat="31.426079962402582" lon="-5.381651977077127">
        <ele>1172.7</ele>
        <time>2003-04-14T10:50:50Z</time>
      </trkpt>
      <trkpt lat="31.425997987389565" lon="-5.381552986800671">
        <ele>1173.5999999999999</ele>
        <time>2003-04-14T10:50:52Z</time>
      </trkpt>
      <trkpt lat="31.425930010154843" lon="-5.3814219776541">
        <ele>1173.5</ele>
        <time>2003-04-14T10:50:55Z</time>
      </trkpt>
      <trkpt lat="31.42588198184967" lon="-5.381257021799684">
        <ele>1173.2</ele>
        <time>2003-04-14T10:50:56Z</time>
      </trkpt>
      <trkpt lat="31.425877958536148" lon="-5.381068009883165">
        <ele>1173</ele>
        <time>2003-04-14T10:50:59Z</time>
      </trkpt>
      <trkpt lat="31.425927998498082" lon="-5.380341969430447">
        <ele>1171.7</ele>
        <time>2003-04-14T10:51:06Z</time>
      </trkpt>
      <trkpt lat="31.425943002104759" lon="-5.379899991676211">
        <ele>1171.0999999999999</ele>
        <time>2003-04-14T10:51:10Z</time>
      </trkpt>
      <trkpt lat="31.425900002941489" lon="-5.379679966717959">
        <ele>1170.9000000000001</ele>
        <time>2003-04-14T10:51:11Z</time>
      </trkpt>
      <trkpt lat="31.425834959372878" lon="-5.379491960629821">
        <ele>1170.5</ele>
        <time>2003-04-14T10:51:14Z</time>
      </trkpt>
      <trkpt lat="31.425760025158525" lon="-5.379360029473901">
        <ele>1170.0999999999999</ele>
        <time>2003-04-14T10:51:15Z</time>
      </trkpt>
      <trkpt lat="31.425685007125139" lon="-5.379147967323661">
        <ele>1168.5999999999999</ele>
        <time>2003-04-14T10:51:26Z</time>
      </trkpt>
      <trkpt lat="31.425688024610281" lon="-5.379002038389444">
        <ele>1168.4000000000001</ele>
        <time>2003-04-14T10:51:29Z</time>
      </trkpt>
      <trkpt lat="31.425707973539829" lon="-5.378816965967417">
        <ele>1168.0999999999999</ele>
        <time>2003-04-14T10:51:30Z</time>
      </trkpt>
      <trkpt lat="31.425733035430312" lon="-5.378441959619522">
        <ele>1167.5</ele>
        <time>2003-04-14T10:51:36Z</time>
      </trkpt>
      <trkpt lat="31.425722977146506" lon="-5.378327965736389">
        <ele>1166.9000000000001</ele>
        <time>2003-04-14T10:51:40Z</time>
      </trkpt>
      <trkpt lat="31.425690036267042" lon="-5.37819997407496">
        <ele>1166.0999999999999</ele>
        <time>2003-04-14T10:51:42Z</time>
      </trkpt>
      <trkpt lat="31.425634967163205" lon="-5.378084974363446">
        <ele>1166.3</ele>
        <time>2003-04-14T10:51:45Z</time>
      </trkpt>
      <trkpt lat="31.425596997141838" lon="-5.377950025722385">
        <ele>1166</ele>
        <time>2003-04-14T10:51:46Z</time>
      </trkpt>
      <trkpt lat="31.425547963008285" lon="-5.377782974392176">
        <ele>1166</ele>
        <time>2003-04-14T10:51:49Z</time>
      </trkpt>
      <trkpt lat="31.425530025735497" lon="-5.377665041014552">
        <ele>1165.7</ele>
        <time>2003-04-14T10:51:53Z</time>
      </trkpt>
      <trkpt lat="31.425521979108453" lon="-5.377560015767813">
        <ele>1165.7</ele>
        <time>2003-04-14T10:51:54Z</time>
      </trkpt>
      <trkpt lat="31.425522984936833" lon="-5.377294979989529">
        <ele>1165.0999999999999</ele>
        <time>2003-04-14T10:51:59Z</time>
      </trkpt>
      <trkpt lat="31.42555701546371" lon="-5.377070009708405">
        <ele>1165.2</ele>
        <time>2003-04-14T10:52:01Z</time>
      </trkpt>
      <trkpt lat="31.425582999363542" lon="-5.376870017498732">
        <ele>1165</ele>
        <time>2003-04-14T10:52:04Z</time>
      </trkpt>
      <trkpt lat="31.425630021840334" lon="-5.376685028895736">
        <ele>1164.8</ele>
        <time>2003-04-14T10:52:05Z</time>
      </trkpt>
      <trkpt lat="31.425679977983236" lon="-5.376413036137819">
        <ele>1164.5999999999999</ele>
        <time>2003-04-14T10:52:08Z</time>
      </trkpt>
      <trkpt lat="31.425675032660365" lon="-5.376240033656359">
        <ele>1164.4000000000001</ele>
        <time>2003-04-14T10:52:11Z</time>
      </trkpt>
      <trkpt lat="31.425624992698431" lon="-5.376038029789925">
        <ele>1164.2</ele>
        <time>2003-04-14T10:52:12Z</time>
      </trkpt>
      <trkpt lat="31.425443021580577" lon="-5.375466970726848">
        <ele>1164</ele>
        <time>2003-04-14T10:52:19Z</time>
      </trkpt>
      <trkpt lat="31.425347970798612" lon="-5.375347025692463">
        <ele>1164</ele>
        <time>2003-04-14T10:52:20Z</time>
      </trkpt>
      <trkpt lat="31.425267001613975" lon="-5.375196989625692">
        <ele>1164.3</ele>
        <time>2003-04-14T10:52:23Z</time>
      </trkpt>
      <trkpt lat="31.425212016329169" lon="-5.375017030164599">
        <ele>1164.0999999999999</ele>
        <time>2003-04-14T10:52:24Z</time>
      </trkpt>
      <trkpt lat="31.425142027437687" lon="-5.374789964407682">
        <ele>1164.0999999999999</ele>
        <time>2003-04-14T10:52:28Z</time>
      </trkpt>
      <trkpt lat="31.425037002190948" lon="-5.374602964147925">
        <ele>1164.3</ele>
        <time>2003-04-14T10:52:31Z</time>
      </trkpt>
      <trkpt lat="31.424927031621337" lon="-5.374421998858452">
        <ele>1164.0999999999999</ele>
        <time>2003-04-14T10:52:34Z</time>
      </trkpt>
      <trkpt lat="31.424828041344881" lon="-5.374213038012385">
        <ele>1163.9000000000001</ele>
        <time>2003-04-14T10:52:36Z</time>
      </trkpt>
      <trkpt lat="31.424757968634367" lon="-5.374076999723911">
        <ele>1164.3</ele>
        <time>2003-04-14T10:52:39Z</time>
      </trkpt>
      <trkpt lat="31.424704995006323" lon="-5.373950013890863">
        <ele>1163.8</ele>
        <time>2003-04-14T10:52:40Z</time>
      </trkpt>
      <trkpt lat="31.42467699944973" lon="-5.373820010572672">
        <ele>1163.9000000000001</ele>
        <time>2003-04-14T10:52:43Z</time>
      </trkpt>
      <trkpt lat="31.424647998064756" lon="-5.373714985325933">
        <ele>1163.8</ele>
        <time>2003-04-14T10:52:44Z</time>
      </trkpt>
      <trkpt lat="31.424563005566597" lon="-5.373637033626437">
        <ele>1163.5999999999999</ele>
        <time>2003-04-14T10:52:47Z</time>
      </trkpt>
      <trkpt lat="31.424529980868101" lon="-5.37353795953095">
        <ele>1163.3</ele>
        <time>2003-04-14T10:52:50Z</time>
      </trkpt>
      <trkpt lat="31.424471978098154" lon="-5.373424971476197">
        <ele>1163.3</ele>
        <time>2003-04-14T10:52:51Z</time>
      </trkpt>
      <trkpt lat="31.424431996420026" lon="-5.373317012563348">
        <ele>1163.0999999999999</ele>
        <time>2003-04-14T10:52:54Z</time>
      </trkpt>
      <trkpt lat="31.424356978386641" lon="-5.373192960396409">
        <ele>1163.4000000000001</ele>
        <time>2003-04-14T10:52:55Z</time>
      </trkpt>
      <trkpt lat="31.424105018377304" lon="-5.372809991240501">
        <ele>1163.4000000000001</ele>
        <time>2003-04-14T10:53:02Z</time>
      </trkpt>
      <trkpt lat="31.423754990100861" lon="-5.372404977679253">
        <ele>1163.3</ele>
        <time>2003-04-14T10:53:07Z</time>
      </trkpt>
      <trkpt lat="31.423654993996024" lon="-5.372231975197792">
        <ele>1162.9000000000001</ele>
        <time>2003-04-14T10:53:10Z</time>
      </trkpt>
      <trkpt lat="31.423539994284511" lon="-5.372017985209823">
        <ele>1163.0999999999999</ele>
        <time>2003-04-14T10:53:13Z</time>
      </trkpt>
      <trkpt lat="31.423506969586015" lon="-5.371897034347057">
        <ele>1163.0999999999999</ele>
        <time>2003-04-14T10:53:14Z</time>
      </trkpt>
      <trkpt lat="31.423433041200042" lon="-5.3717100340873">
        <ele>1162.8</ele>
        <time>2003-04-14T10:53:18Z</time>
      </trkpt>
      <trkpt lat="31.423391969874501" lon="-5.371586987748742">
        <ele>1162.5999999999999</ele>
        <time>2003-04-14T10:53:20Z</time>
      </trkpt>
      <trkpt lat="31.423388030380011" lon="-5.371448015794158">
        <ele>1162.5999999999999</ele>
        <time>2003-04-14T10:53:22Z</time>
      </trkpt>
      <trkpt lat="31.423372020944953" lon="-5.37128297612071">
        <ele>1162.4000000000001</ele>
        <time>2003-04-14T10:53:24Z</time>
      </trkpt>
      <trkpt lat="31.423321980983019" lon="-5.371147021651268">
        <ele>1162.2</ele>
        <time>2003-04-14T10:53:25Z</time>
      </trkpt>
      <trkpt lat="31.42319499514997" lon="-5.371041996404529">
        <ele>1162.2</ele>
        <time>2003-04-14T10:53:28Z</time>
      </trkpt>
      <trkpt lat="31.423042025417089" lon="-5.370912998914719">
        <ele>1162.4000000000001</ele>
        <time>2003-04-14T10:53:29Z</time>
      </trkpt>
      <trkpt lat="31.422598036006093" lon="-5.370494993403554">
        <ele>1161.9000000000001</ele>
        <time>2003-04-14T10:53:36Z</time>
      </trkpt>
      <trkpt lat="31.422423021867871" lon="-5.370417041704059">
        <ele>1162.4000000000001</ele>
        <time>2003-04-14T10:53:37Z</time>
      </trkpt>
      <trkpt lat="31.422252031043172" lon="-5.37040002644062">
        <ele>1162.3</ele>
        <time>2003-04-14T10:53:40Z</time>
      </trkpt>
      <trkpt lat="31.42196998000145" lon="-5.370355015620589">
        <ele>1161.9000000000001</ele>
        <time>2003-04-14T10:53:42Z</time>
      </trkpt>
      <trkpt lat="31.421433035284281" lon="-5.370106995105743">
        <ele>1161.9000000000001</ele>
        <time>2003-04-14T10:53:49Z</time>
      </trkpt>
      <trkpt lat="31.421185014769435" lon="-5.36997196264565">
        <ele>1162.4000000000001</ele>
        <time>2003-04-14T10:53:52Z</time>
      </trkpt>
      <trkpt lat="31.420792993158102" lon="-5.369856962934136">
        <ele>1162</ele>
        <time>2003-04-14T10:53:56Z</time>
      </trkpt>
      <trkpt lat="31.420519994571805" lon="-5.369786974042654">
        <ele>1162</ele>
        <time>2003-04-14T10:53:59Z</time>
      </trkpt>
      <trkpt lat="31.420435002073646" lon="-5.369735006242991">
        <ele>1162.0999999999999</ele>
        <time>2003-04-14T10:54:00Z</time>
      </trkpt>
      <trkpt lat="31.420274991542101" lon="-5.3696050029248">
        <ele>1162.2</ele>
        <time>2003-04-14T10:54:01Z</time>
      </trkpt>
      <trkpt lat="31.42010198906064" lon="-5.369482040405273">
        <ele>1162.4000000000001</ele>
        <time>2003-04-14T10:54:04Z</time>
      </trkpt>
      <trkpt lat="31.420005010440946" lon="-5.369448009878397">
        <ele>1162.7</ele>
        <time>2003-04-14T10:54:04Z</time>
      </trkpt>
      <trkpt lat="31.419794959947467" lon="-5.369405010715127">
        <ele>1162.9000000000001</ele>
        <time>2003-04-14T10:54:07Z</time>
      </trkpt>
      <trkpt lat="31.419047964736819" lon="-5.369196971878409">
        <ele>1164</ele>
        <time>2003-04-14T10:54:14Z</time>
      </trkpt>
      <trkpt lat="31.418883008882403" lon="-5.369152966886759">
        <ele>1164.0999999999999</ele>
        <time>2003-04-14T10:54:16Z</time>
      </trkpt>
      <trkpt lat="31.418736996129155" lon="-5.369124971330166">
        <ele>1163.5</ele>
        <time>2003-04-14T10:54:18Z</time>
      </trkpt>
      <trkpt lat="31.418559970334172" lon="-5.369075015187264">
        <ele>1163.4000000000001</ele>
        <time>2003-04-14T10:54:20Z</time>
      </trkpt>
      <trkpt lat="31.417952030897141" lon="-5.368962027132511">
        <ele>1164</ele>
        <time>2003-04-14T10:54:31Z</time>
      </trkpt>
      <trkpt lat="31.417723037302494" lon="-5.368866976350546">
        <ele>1164.5</ele>
        <time>2003-04-14T10:54:35Z</time>
      </trkpt>
      <trkpt lat="31.417637038975954" lon="-5.368792964145541">
        <ele>1164.7</ele>
        <time>2003-04-14T10:54:36Z</time>
      </trkpt>
      <trkpt lat="31.417539976537228" lon="-5.368742002174258">
        <ele>1163.7</ele>
        <time>2003-04-14T10:54:39Z</time>
      </trkpt>
      <trkpt lat="31.417354987934232" lon="-5.368642006069422">
        <ele>1164.5</ele>
        <time>2003-04-14T10:54:43Z</time>
      </trkpt>
      <trkpt lat="31.417224984616041" lon="-5.368582997471094">
        <ele>1164.8</ele>
        <time>2003-04-14T10:54:46Z</time>
      </trkpt>
      <trkpt lat="31.417088024318218" lon="-5.368581991642714">
        <ele>1164.9000000000001</ele>
        <time>2003-04-14T10:54:47Z</time>
      </trkpt>
      <trkpt lat="31.416967995464802" lon="-5.368621973320842">
        <ele>1165.0999999999999</ele>
        <time>2003-04-14T10:54:50Z</time>
      </trkpt>
      <trkpt lat="31.416862970218062" lon="-5.368615016341209">
        <ele>1165.2</ele>
        <time>2003-04-14T10:54:51Z</time>
      </trkpt>
      <trkpt lat="31.416782001033425" lon="-5.368522983044386">
        <ele>1164.9000000000001</ele>
        <time>2003-04-14T10:54:54Z</time>
      </trkpt>
      <trkpt lat="31.416715029627085" lon="-5.368413012474775">
        <ele>1164.5</ele>
        <time>2003-04-14T10:54:55Z</time>
      </trkpt>
      <trkpt lat="31.416613021865487" lon="-5.368327014148235">
        <ele>1164.5999999999999</ele>
        <time>2003-04-14T10:54:58Z</time>
      </trkpt>
      <trkpt lat="31.416453011333942" lon="-5.368221988901496">
        <ele>1164.3</ele>
        <time>2003-04-14T10:55:01Z</time>
      </trkpt>
      <trkpt lat="31.416301969438791" lon="-5.36816499195993">
        <ele>1164.3</ele>
        <time>2003-04-14T10:55:02Z</time>
      </trkpt>
      <trkpt lat="31.415554974228144" lon="-5.36792803555727">
        <ele>1165.9000000000001</ele>
        <time>2003-04-14T10:55:12Z</time>
      </trkpt>
      <trkpt lat="31.415378032252192" lon="-5.367953013628721">
        <ele>1166.0999999999999</ele>
        <time>2003-04-14T10:55:13Z</time>
      </trkpt>
      <trkpt lat="31.415097992867231" lon="-5.36797296255827">
        <ele>1166</ele>
        <time>2003-04-14T10:55:17Z</time>
      </trkpt>
      <trkpt lat="31.415000008419156" lon="-5.367944967001677">
        <ele>1166.0999999999999</ele>
        <time>2003-04-14T10:55:17Z</time>
      </trkpt>
      <trkpt lat="31.414796998724341" lon="-5.367859974503517">
        <ele>1166.3</ele>
        <time>2003-04-14T10:55:20Z</time>
      </trkpt>
      <trkpt lat="31.414400031790137" lon="-5.367604997009039">
        <ele>1166.7</ele>
        <time>2003-04-14T10:55:24Z</time>
      </trkpt>
      <trkpt lat="31.414113035425544" lon="-5.367386983707547">
        <ele>1166.7</ele>
        <time>2003-04-14T10:55:26Z</time>
      </trkpt>
      <trkpt lat="31.41393500380218" lon="-5.367247005924583">
        <ele>1166.5999999999999</ele>
        <time>2003-04-14T10:55:29Z</time>
      </trkpt>
      <trkpt lat="31.413769964128733" lon="-5.367065034806728">
        <ele>1166.7</ele>
        <time>2003-04-14T10:55:30Z</time>
      </trkpt>
      <trkpt lat="31.413512974977493" lon="-5.366820031777024">
        <ele>1166.5999999999999</ele>
        <time>2003-04-14T10:55:33Z</time>
      </trkpt>
      <trkpt lat="31.413294961676002" lon="-5.366709977388382">
        <ele>1166.3</ele>
        <time>2003-04-14T10:55:36Z</time>
      </trkpt>
      <trkpt lat="31.412992961704731" lon="-5.36651199683547">
        <ele>1166</ele>
        <time>2003-04-14T10:55:39Z</time>
      </trkpt>
      <trkpt lat="31.412806967273355" lon="-5.366342011839151">
        <ele>1166.2</ele>
        <time>2003-04-14T10:55:40Z</time>
      </trkpt>
      <trkpt lat="31.41236700117588" lon="-5.365872960537672">
        <ele>1166</ele>
        <time>2003-04-14T10:55:45Z</time>
      </trkpt>
      <trkpt lat="31.412234986200929" lon="-5.365616977214813">
        <ele>1165.5999999999999</ele>
        <time>2003-04-14T10:55:48Z</time>
      </trkpt>
      <trkpt lat="31.411778004840016" lon="-5.36466303281486">
        <ele>1165</ele>
        <time>2003-04-14T10:55:55Z</time>
      </trkpt>
      <trkpt lat="31.411305014044046" lon="-5.363727025687695">
        <ele>1163.7</ele>
        <time>2003-04-14T10:56:02Z</time>
      </trkpt>
      <trkpt lat="31.410832023248076" lon="-5.362782971933484">
        <ele>1163</ele>
        <time>2003-04-14T10:56:08Z</time>
      </trkpt>
      <trkpt lat="31.410547960549593" lon="-5.362227000296116">
        <ele>1162.8</ele>
        <time>2003-04-14T10:56:14Z</time>
      </trkpt>
      <trkpt lat="31.410373030230403" lon="-5.361983003094792">
        <ele>1162.5</ele>
        <time>2003-04-14T10:56:16Z</time>
      </trkpt>
      <trkpt lat="31.410202039405704" lon="-5.361942015588284">
        <ele>1162.5999999999999</ele>
        <time>2003-04-14T10:56:19Z</time>
      </trkpt>
      <trkpt lat="31.410028031095862" lon="-5.361967999488115">
        <ele>1162.7</ele>
        <time>2003-04-14T10:56:20Z</time>
      </trkpt>
      <trkpt lat="31.409944966435432" lon="-5.362009992823005">
        <ele>1162.8</ele>
        <time>2003-04-14T10:56:22Z</time>
      </trkpt>
      <trkpt lat="31.409783028066158" lon="-5.362124992534518">
        <ele>1163.0999999999999</ele>
        <time>2003-04-14T10:56:23Z</time>
      </trkpt>
      <trkpt lat="31.409320011734962" lon="-5.362421963363886">
        <ele>1164.0999999999999</ele>
        <time>2003-04-14T10:56:30Z</time>
      </trkpt>
      <trkpt lat="31.409109961241484" lon="-5.362482983618975">
        <ele>1164.5999999999999</ele>
        <time>2003-04-14T10:56:33Z</time>
      </trkpt>
      <trkpt lat="31.408988004550338" lon="-5.362441996112466">
        <ele>1164.7</ele>
        <time>2003-04-14T10:56:34Z</time>
      </trkpt>
      <trkpt lat="31.408462040126324" lon="-5.362164974212647">
        <ele>1164.2</ele>
        <time>2003-04-14T10:56:45Z</time>
      </trkpt>
      <trkpt lat="31.408357014879584" lon="-5.362091967836022">
        <ele>1164.5999999999999</ele>
        <time>2003-04-14T10:56:50Z</time>
      </trkpt>
      <trkpt lat="31.408255007117987" lon="-5.362037988379598">
        <ele>1164.3</ele>
        <time>2003-04-14T10:56:51Z</time>
      </trkpt>
      <trkpt lat="31.408098014071584" lon="-5.361961964517832">
        <ele>1163.8</ele>
        <time>2003-04-14T10:56:54Z</time>
      </trkpt>
      <trkpt lat="31.407959964126348" lon="-5.361921982839704">
        <ele>1164.8</ele>
        <time>2003-04-14T10:56:58Z</time>
      </trkpt>
      <trkpt lat="31.407880000770092" lon="-5.361815029755235">
        <ele>1165.0999999999999</ele>
        <time>2003-04-14T10:57:00Z</time>
      </trkpt>
      <trkpt lat="31.407777993008494" lon="-5.361644960939884">
        <ele>1165.3</ele>
        <time>2003-04-14T10:57:02Z</time>
      </trkpt>
      <trkpt lat="31.407610019668937" lon="-5.361291998997331">
        <ele>1165.3</ele>
        <time>2003-04-14T10:57:08Z</time>
      </trkpt>
      <trkpt lat="31.407516980543733" lon="-5.361122014001012">
        <ele>1164.5999999999999</ele>
        <time>2003-04-14T10:57:09Z</time>
      </trkpt>
      <trkpt lat="31.407393012195826" lon="-5.36096703261137">
        <ele>1164.8</ele>
        <time>2003-04-14T10:57:12Z</time>
      </trkpt>
      <trkpt lat="31.407220009714365" lon="-5.360771985724568">
        <ele>1164.9000000000001</ele>
        <time>2003-04-14T10:57:14Z</time>
      </trkpt>
      <trkpt lat="31.40708296559751" lon="-5.360633013769984">
        <ele>1164.5999999999999</ele>
        <time>2003-04-14T10:57:17Z</time>
      </trkpt>
      <trkpt lat="31.406971989199519" lon="-5.360492030158639">
        <ele>1164.4000000000001</ele>
        <time>2003-04-14T10:57:18Z</time>
      </trkpt>
      <trkpt lat="31.406832011416554" lon="-5.360407959669828">
        <ele>1163.8</ele>
        <time>2003-04-14T10:57:21Z</time>
      </trkpt>
      <trkpt lat="31.406662026420236" lon="-5.36038801074028">
        <ele>1163.9000000000001</ele>
        <time>2003-04-14T10:57:23Z</time>
      </trkpt>
      <trkpt lat="31.406366983428597" lon="-5.360330007970333">
        <ele>1163.9000000000001</ele>
        <time>2003-04-14T10:57:25Z</time>
      </trkpt>
      <trkpt lat="31.406055008992553" lon="-5.3602350410074">
        <ele>1163.9000000000001</ele>
        <time>2003-04-14T10:57:28Z</time>
      </trkpt>
      <trkpt lat="31.405736999586225" lon="-5.360177960246801">
        <ele>1164.2</ele>
        <time>2003-04-14T10:57:32Z</time>
      </trkpt>
      <trkpt lat="31.404987992718816" lon="-5.35997997969389">
        <ele>1164.7</ele>
        <time>2003-04-14T10:57:39Z</time>
      </trkpt>
      <trkpt lat="31.40476000495255" lon="-5.35997997969389">
        <ele>1164.7</ele>
        <time>2003-04-14T10:57:40Z</time>
      </trkpt>
      <trkpt lat="31.403807988390326" lon="-5.360054997727275">
        <ele>1165.3</ele>
        <time>2003-04-14T10:57:48Z</time>
      </trkpt>
      <trkpt lat="31.403457960113883" lon="-5.36004301160574">
        <ele>1165.7</ele>
        <time>2003-04-14T10:57:52Z</time>
      </trkpt>
      <trkpt lat="31.403102986514568" lon="-5.360013004392386">
        <ele>1165.8</ele>
        <time>2003-04-14T10:57:55Z</time>
      </trkpt>
      <trkpt lat="31.402662014588714" lon="-5.359992971643806">
        <ele>1165.5</ele>
        <time>2003-04-14T10:57:59Z</time>
      </trkpt>
      <trkpt lat="31.402205033227801" lon="-5.359937986359">
        <ele>1166.7</ele>
        <time>2003-04-14T10:58:03Z</time>
      </trkpt>
      <trkpt lat="31.401282018050551" lon="-5.360024990513921">
        <ele>1167.3</ele>
        <time>2003-04-14T10:58:11Z</time>
      </trkpt>
      <trkpt lat="31.400932995602489" lon="-5.360021973028779">
        <ele>1167.3</ele>
        <time>2003-04-14T10:58:14Z</time>
      </trkpt>
      <trkpt lat="31.400725040584803" lon="-5.360036976635456">
        <ele>1167.7</ele>
        <time>2003-04-14T10:58:15Z</time>
      </trkpt>
      <trkpt lat="31.400397978723049" lon="-5.360062038525939">
        <ele>1167.3</ele>
        <time>2003-04-14T10:58:19Z</time>
      </trkpt>
      <trkpt lat="31.400279961526394" lon="-5.360032031312585">
        <ele>1167</ele>
        <time>2003-04-14T10:58:19Z</time>
      </trkpt>
      <trkpt lat="31.399792972952127" lon="-5.359982997179031">
        <ele>1166.2</ele>
        <time>2003-04-14T10:58:23Z</time>
      </trkpt>
      <trkpt lat="31.399425007402897" lon="-5.360005041584373">
        <ele>1165.5999999999999</ele>
        <time>2003-04-14T10:58:26Z</time>
      </trkpt>
      <trkpt lat="31.399019993841648" lon="-5.360106965526938">
        <ele>1164.8</ele>
        <time>2003-04-14T10:58:30Z</time>
      </trkpt>
      <trkpt lat="31.398855037987232" lon="-5.360126998275518">
        <ele>1164.4000000000001</ele>
        <time>2003-04-14T10:58:33Z</time>
      </trkpt>
      <trkpt lat="31.39870198443532" lon="-5.360028007999063">
        <ele>1164.7</ele>
        <time>2003-04-14T10:58:34Z</time>
      </trkpt>
      <trkpt lat="31.398516995832324" lon="-5.359904961660504">
        <ele>1164</ele>
        <time>2003-04-14T10:58:37Z</time>
      </trkpt>
      <trkpt lat="31.398007962852716" lon="-5.359583012759686">
        <ele>1163.2</ele>
        <time>2003-04-14T10:58:42Z</time>
      </trkpt>
      <trkpt lat="31.397866979241371" lon="-5.359534984454513">
        <ele>1162.5999999999999</ele>
        <time>2003-04-14T10:58:45Z</time>
      </trkpt>
      <trkpt lat="31.397749967873096" lon="-5.359512018039823">
        <ele>1161.5999999999999</ele>
        <time>2003-04-14T10:58:46Z</time>
      </trkpt>
      <trkpt lat="31.39760697260499" lon="-5.359482010826469">
        <ele>1162.7</ele>
        <time>2003-04-14T10:58:49Z</time>
      </trkpt>
      <trkpt lat="31.397351995110512" lon="-5.35939802415669">
        <ele>1163</ele>
        <time>2003-04-14T10:58:52Z</time>
      </trkpt>
      <trkpt lat="31.396468039602041" lon="-5.359131982550025">
        <ele>1164.2</ele>
        <time>2003-04-14T10:59:01Z</time>
      </trkpt>
      <trkpt lat="31.395860016345978" lon="-5.358935007825494">
        <ele>1166.2</ele>
        <time>2003-04-14T10:59:09Z</time>
      </trkpt>
      <trkpt lat="31.395696988329291" lon="-5.358902988955379">
        <ele>1167</ele>
        <time>2003-04-14T10:59:11Z</time>
      </trkpt>
      <trkpt lat="31.394776990637183" lon="-5.358614986762404">
        <ele>1169.5</ele>
        <time>2003-04-14T10:59:21Z</time>
      </trkpt>
      <trkpt lat="31.394369965419173" lon="-5.358503004536033">
        <ele>1168.4000000000001</ele>
        <time>2003-04-14T10:59:27Z</time>
      </trkpt>
      <trkpt lat="31.393488021567464" lon="-5.358247021213174">
        <ele>1166.8</ele>
        <time>2003-04-14T10:59:39Z</time>
      </trkpt>
      <trkpt lat="31.393318036571145" lon="-5.358199998736382">
        <ele>1167.3</ele>
        <time>2003-04-14T10:59:42Z</time>
      </trkpt>
      <trkpt lat="31.392462998628616" lon="-5.357969999313355">
        <ele>1166.5999999999999</ele>
        <time>2003-04-14T10:59:59Z</time>
      </trkpt>
      <trkpt lat="31.39221497811377" lon="-5.357892969623208">
        <ele>1167.3</ele>
        <time>2003-04-14T11:00:02Z</time>
      </trkpt>
      <trkpt lat="31.391328005120158" lon="-5.357634974643588">
        <ele>1167.7</ele>
        <time>2003-04-14T11:00:11Z</time>
      </trkpt>
      <trkpt lat="31.390383029356599" lon="-5.357370022684336">
        <ele>1167.3</ele>
        <time>2003-04-14T11:00:22Z</time>
      </trkpt>
      <trkpt lat="31.389433024451137" lon="-5.357102975249291">
        <ele>1167.5999999999999</ele>
        <time>2003-04-14T11:00:32Z</time>
      </trkpt>
      <trkpt lat="31.388943018391728" lon="-5.356967020779848">
        <ele>1167.7</ele>
        <time>2003-04-14T11:00:37Z</time>
      </trkpt>
      <trkpt lat="31.388423005118966" lon="-5.356857972219586">
        <ele>1168.2</ele>
        <time>2003-04-14T11:00:45Z</time>
      </trkpt>
      <trkpt lat="31.388101978227496" lon="-5.356916980817914">
        <ele>1168.4000000000001</ele>
        <time>2003-04-14T11:00:49Z</time>
      </trkpt>
      <trkpt lat="31.387946996837854" lon="-5.356869958341122">
        <ele>1168.5999999999999</ele>
        <time>2003-04-14T11:00:50Z</time>
      </trkpt>
      <trkpt lat="31.387708028778434" lon="-5.356777003034949">
        <ele>1168.4000000000001</ele>
        <time>2003-04-14T11:00:53Z</time>
      </trkpt>
      <trkpt lat="31.387332016602159" lon="-5.356687987223268">
        <ele>1168.5</ele>
        <time>2003-04-14T11:00:59Z</time>
      </trkpt>
      <trkpt lat="31.387235037982464" lon="-5.356689998880029">
        <ele>1167.8</ele>
        <time>2003-04-14T11:01:01Z</time>
      </trkpt>
      <trkpt lat="31.387145016342402" lon="-5.356732998043299">
        <ele>1167.5999999999999</ele>
        <time>2003-04-14T11:01:03Z</time>
      </trkpt>
      <trkpt lat="31.387067986652255" lon="-5.356857972219586">
        <ele>1167.4000000000001</ele>
        <time>2003-04-14T11:01:04Z</time>
      </trkpt>
      <trkpt lat="31.386911999434233" lon="-5.357089983299375">
        <ele>1167.7</ele>
        <time>2003-04-14T11:01:08Z</time>
      </trkpt>
      <trkpt lat="31.386785013601184" lon="-5.35710004158318">
        <ele>1168.4000000000001</ele>
        <time>2003-04-14T11:01:11Z</time>
      </trkpt>
      <trkpt lat="31.386636989191175" lon="-5.357057964429259">
        <ele>1169.0999999999999</ele>
        <time>2003-04-14T11:01:12Z</time>
      </trkpt>
      <trkpt lat="31.386252008378506" lon="-5.35690700635314">
        <ele>1168.5</ele>
        <time>2003-04-14T11:01:17Z</time>
      </trkpt>
      <trkpt lat="31.386147988960147" lon="-5.356786977499723">
        <ele>1168.2</ele>
        <time>2003-04-14T11:01:20Z</time>
      </trkpt>
      <trkpt lat="31.386065008118749" lon="-5.356695028021932">
        <ele>1168.3</ele>
        <time>2003-04-14T11:01:21Z</time>
      </trkpt>
      <trkpt lat="31.385946990922093" lon="-5.356607018038631">
        <ele>1167.9000000000001</ele>
        <time>2003-04-14T11:01:24Z</time>
      </trkpt>
      <trkpt lat="31.38585302978754" lon="-5.356596959754825">
        <ele>1167.5999999999999</ele>
        <time>2003-04-14T11:01:27Z</time>
      </trkpt>
      <trkpt lat="31.385629987344146" lon="-5.356577010825276">
        <ele>1167.5999999999999</ele>
        <time>2003-04-14T11:01:31Z</time>
      </trkpt>
      <trkpt lat="31.38540300540626" lon="-5.356574999168515">
        <ele>1167.0999999999999</ele>
        <time>2003-04-14T11:01:35Z</time>
      </trkpt>
      <trkpt lat="31.385267972946167" lon="-5.356635013595223">
        <ele>1168</ele>
        <time>2003-04-14T11:01:36Z</time>
      </trkpt>
      <trkpt lat="31.385120032355189" lon="-5.356659991666675">
        <ele>1168</ele>
        <time>2003-04-14T11:01:39Z</time>
      </trkpt>
      <trkpt lat="31.384920040145516" lon="-5.356635013595223">
        <ele>1167.5</ele>
        <time>2003-04-14T11:01:42Z</time>
      </trkpt>
      <trkpt lat="31.384776961058378" lon="-5.356552032753825">
        <ele>1168.4000000000001</ele>
        <time>2003-04-14T11:01:43Z</time>
      </trkpt>
      <trkpt lat="31.384558025747538" lon="-5.356447007507086">
        <ele>1168.5</ele>
        <time>2003-04-14T11:01:47Z</time>
      </trkpt>
      <trkpt lat="31.384389968588948" lon="-5.356420017778873">
        <ele>1168.3</ele>
        <time>2003-04-14T11:01:48Z</time>
      </trkpt>
      <trkpt lat="31.384231969714165" lon="-5.356392022222281">
        <ele>1167.5999999999999</ele>
        <time>2003-04-14T11:01:51Z</time>
      </trkpt>
      <trkpt lat="31.383726960048079" lon="-5.356209967285395">
        <ele>1167.8</ele>
        <time>2003-04-14T11:01:58Z</time>
      </trkpt>
      <trkpt lat="31.38359796255827" lon="-5.356218013912439">
        <ele>1167.5999999999999</ele>
        <time>2003-04-14T11:01:59Z</time>
      </trkpt>
      <trkpt lat="31.383492015302181" lon="-5.356217008084059">
        <ele>1167.5999999999999</ele>
        <time>2003-04-14T11:02:02Z</time>
      </trkpt>
      <trkpt lat="31.383396964520216" lon="-5.356248021125794">
        <ele>1166.8</ele>
        <time>2003-04-14T11:02:03Z</time>
      </trkpt>
      <trkpt lat="31.383348014205694" lon="-5.356378024443984">
        <ele>1166.8</ele>
        <time>2003-04-14T11:02:06Z</time>
      </trkpt>
      <trkpt lat="31.383281964808702" lon="-5.356572987511754">
        <ele>1166.9000000000001</ele>
        <time>2003-04-14T11:02:09Z</time>
      </trkpt>
      <trkpt lat="31.383150033652782" lon="-5.356633001938462">
        <ele>1167.0999999999999</ele>
        <time>2003-04-14T11:02:10Z</time>
      </trkpt>
      <trkpt lat="31.383042996749282" lon="-5.356748001649976">
        <ele>1166.9000000000001</ele>
        <time>2003-04-14T11:02:13Z</time>
      </trkpt>
      <trkpt lat="31.382958004251122" lon="-5.356837017461658">
        <ele>1167</ele>
        <time>2003-04-14T11:02:14Z</time>
      </trkpt>
      <trkpt lat="31.382826995104551" lon="-5.356859983876348">
        <ele>1166.7</ele>
        <time>2003-04-14T11:02:17Z</time>
      </trkpt>
      <trkpt lat="31.382700009271502" lon="-5.356962997466326">
        <ele>1167.8</ele>
        <time>2003-04-14T11:02:18Z</time>
      </trkpt>
      <trkpt lat="31.382591966539621" lon="-5.357125019654632">
        <ele>1168.5999999999999</ele>
        <time>2003-04-14T11:02:21Z</time>
      </trkpt>
      <trkpt lat="31.382524995133281" lon="-5.357270026579499">
        <ele>1168.5999999999999</ele>
        <time>2003-04-14T11:02:22Z</time>
      </trkpt>
      <trkpt lat="31.382475038990378" lon="-5.35742299631238">
        <ele>1168.7</ele>
        <time>2003-04-14T11:02:25Z</time>
      </trkpt>
      <trkpt lat="31.382476966828108" lon="-5.357621982693672">
        <ele>1168.9000000000001</ele>
        <time>2003-04-14T11:02:26Z</time>
      </trkpt>
      <trkpt lat="31.382445031777024" lon="-5.357834966853261">
        <ele>1169.0999999999999</ele>
        <time>2003-04-14T11:02:29Z</time>
      </trkpt>
      <trkpt lat="31.382421981543303" lon="-5.358149958774447">
        <ele>1169.3</ele>
        <time>2003-04-14T11:02:32Z</time>
      </trkpt>
      <trkpt lat="31.382402032613754" lon="-5.358450030907989">
        <ele>1169.5999999999999</ele>
        <time>2003-04-14T11:02:34Z</time>
      </trkpt>
      <trkpt lat="31.382345035672188" lon="-5.358533011749387">
        <ele>1169.7</ele>
        <time>2003-04-14T11:02:36Z</time>
      </trkpt>
      <trkpt lat="31.382101960480213" lon="-5.358917992562056">
        <ele>1170.2</ele>
        <time>2003-04-14T11:02:40Z</time>
      </trkpt>
      <trkpt lat="31.381435012444854" lon="-5.359776969999075">
        <ele>1171.5</ele>
        <time>2003-04-14T11:02:49Z</time>
      </trkpt>
      <trkpt lat="31.381197972223163" lon="-5.360100008547306">
        <ele>1172.2</ele>
        <time>2003-04-14T11:02:52Z</time>
      </trkpt>
      <trkpt lat="31.381047014147043" lon="-5.360206961631775">
        <ele>1172.5</ele>
        <time>2003-04-14T11:02:55Z</time>
      </trkpt>
      <trkpt lat="31.380922961980104" lon="-5.360337970778346">
        <ele>1172.7</ele>
        <time>2003-04-14T11:02:56Z</time>
      </trkpt>
      <trkpt lat="31.380827995017171" lon="-5.360494963824749">
        <ele>1172.7</ele>
        <time>2003-04-14T11:02:59Z</time>
      </trkpt>
      <trkpt lat="31.380663039162755" lon="-5.360782966017723">
        <ele>1173.3</ele>
        <time>2003-04-14T11:03:03Z</time>
      </trkpt>
      <trkpt lat="31.380617022514343" lon="-5.361027969047427">
        <ele>1173.5999999999999</ele>
        <time>2003-04-14T11:03:05Z</time>
      </trkpt>
      <trkpt lat="31.380539992824197" lon="-5.361180016770959">
        <ele>1173.8</ele>
        <time>2003-04-14T11:03:08Z</time>
      </trkpt>
      <trkpt lat="31.380400015041232" lon="-5.361428037285805">
        <ele>1174</ele>
        <time>2003-04-14T11:03:11Z</time>
      </trkpt>
      <trkpt lat="31.380142020061612" lon="-5.362058021128178">
        <ele>1174.2</ele>
        <time>2003-04-14T11:03:18Z</time>
      </trkpt>
      <trkpt lat="31.38007203117013" lon="-5.362334959208965">
        <ele>1174.9000000000001</ele>
        <time>2003-04-14T11:03:20Z</time>
      </trkpt>
      <trkpt lat="31.379962982609868" lon="-5.362751958891749">
        <ele>1175.2</ele>
        <time>2003-04-14T11:03:24Z</time>
      </trkpt>
      <trkpt lat="31.37985703535378" lon="-5.363237019628286">
        <ele>1176</ele>
        <time>2003-04-14T11:03:30Z</time>
      </trkpt>
      <trkpt lat="31.379804983735085" lon="-5.363461989909411">
        <ele>1176.5</ele>
        <time>2003-04-14T11:03:32Z</time>
      </trkpt>
      <trkpt lat="31.379713034257293" lon="-5.364043023437262">
        <ele>1177.4000000000001</ele>
        <time>2003-04-14T11:03:39Z</time>
      </trkpt>
      <trkpt lat="31.379727032035589" lon="-5.36440696567297">
        <ele>1177.8</ele>
        <time>2003-04-14T11:03:45Z</time>
      </trkpt>
      <trkpt lat="31.379674980416894" lon="-5.364535041153431">
        <ele>1178</ele>
        <time>2003-04-14T11:03:47Z</time>
      </trkpt>
      <trkpt lat="31.379571966826916" lon="-5.364554990082979">
        <ele>1178.0999999999999</ele>
        <time>2003-04-14T11:03:50Z</time>
      </trkpt>
      <trkpt lat="31.379452021792531" lon="-5.364526994526386">
        <ele>1178.0999999999999</ele>
        <time>2003-04-14T11:03:51Z</time>
      </trkpt>
      <trkpt lat="31.379348002374172" lon="-5.364505033940077">
        <ele>1178.0999999999999</ele>
        <time>2003-04-14T11:03:54Z</time>
      </trkpt>
      <trkpt lat="31.379267033189535" lon="-5.364675018936396">
        <ele>1178</ele>
        <time>2003-04-14T11:03:59Z</time>
      </trkpt>
      <trkpt lat="31.379274995997548" lon="-5.364811979234219">
        <ele>1178.0999999999999</ele>
        <time>2003-04-14T11:04:02Z</time>
      </trkpt>
      <trkpt lat="31.379247000440955" lon="-5.364952040836215">
        <ele>1178.2</ele>
        <time>2003-04-14T11:04:03Z</time>
      </trkpt>
      <trkpt lat="31.37919201515615" lon="-5.365056982263923">
        <ele>1178.4000000000001</ele>
        <time>2003-04-14T11:04:06Z</time>
      </trkpt>
      <trkpt lat="31.37908698990941" lon="-5.365090006962419">
        <ele>1178.0999999999999</ele>
        <time>2003-04-14T11:04:09Z</time>
      </trkpt>
      <trkpt lat="31.378984982147813" lon="-5.365054970607162">
        <ele>1177.8</ele>
        <time>2003-04-14T11:04:10Z</time>
      </trkpt>
      <trkpt lat="31.37889202684164" lon="-5.365047007799149">
        <ele>1177.8</ele>
        <time>2003-04-14T11:04:13Z</time>
      </trkpt>
      <trkpt lat="31.378756994381547" lon="-5.365035021677613">
        <ele>1178.8</ele>
        <time>2003-04-14T11:04:16Z</time>
      </trkpt>
      <trkpt lat="31.378639983013272" lon="-5.365003002807498">
        <ele>1178.7</ele>
        <time>2003-04-14T11:04:17Z</time>
      </trkpt>
      <trkpt lat="31.378491958603263" lon="-5.364981964230537">
        <ele>1179</ele>
        <time>2003-04-14T11:04:20Z</time>
      </trkpt>
      <trkpt lat="31.378275034949183" lon="-5.36496302112937">
        <ele>1179.8</ele>
        <time>2003-04-14T11:04:22Z</time>
      </trkpt>
      <trkpt lat="31.378146959468722" lon="-5.364905018359423">
        <ele>1180.5</ele>
        <time>2003-04-14T11:04:25Z</time>
      </trkpt>
      <trkpt lat="31.377985021099448" lon="-5.364808039739728">
        <ele>1181.0999999999999</ele>
        <time>2003-04-14T11:04:28Z</time>
      </trkpt>
      <trkpt lat="31.377915032207966" lon="-5.364675018936396">
        <ele>1181.3</ele>
        <time>2003-04-14T11:04:29Z</time>
      </trkpt>
      <trkpt lat="31.377623006701469" lon="-5.364242009818554">
        <ele>1180.9000000000001</ele>
        <time>2003-04-14T11:04:37Z</time>
      </trkpt>
      <trkpt lat="31.377485040575266" lon="-5.364098008722067">
        <ele>1180.5</ele>
        <time>2003-04-14T11:04:41Z</time>
      </trkpt>
      <trkpt lat="31.377419997006655" lon="-5.36401997320354">
        <ele>1180.5999999999999</ele>
        <time>2003-04-14T11:04:45Z</time>
      </trkpt>
      <trkpt lat="31.377363000065088" lon="-5.363936992362142">
        <ele>1180.8</ele>
        <time>2003-04-14T11:04:48Z</time>
      </trkpt>
      <trkpt lat="31.377267027273774" lon="-5.363843031227589">
        <ele>1180.5999999999999</ele>
        <time>2003-04-14T11:04:49Z</time>
      </trkpt>
      <trkpt lat="31.377129983156919" lon="-5.363752003759146">
        <ele>1180.2</ele>
        <time>2003-04-14T11:04:52Z</time>
      </trkpt>
      <trkpt lat="31.376712983474135" lon="-5.363459978252649">
        <ele>1180.5</ele>
        <time>2003-04-14T11:04:57Z</time>
      </trkpt>
      <trkpt lat="31.376562025398016" lon="-5.363359982147813">
        <ele>1180.5</ele>
        <time>2003-04-14T11:05:00Z</time>
      </trkpt>
      <trkpt lat="31.376402014866471" lon="-5.363307008519769">
        <ele>1180.8</ele>
        <time>2003-04-14T11:05:02Z</time>
      </trkpt>
      <trkpt lat="31.376285003498197" lon="-5.363263003528118">
        <ele>1181.0999999999999</ele>
        <time>2003-04-14T11:05:04Z</time>
      </trkpt>
      <trkpt lat="31.376192970201373" lon="-5.363225033506751">
        <ele>1181</ele>
        <time>2003-04-14T11:05:06Z</time>
      </trkpt>
      <trkpt lat="31.376076964661479" lon="-5.363141968846321">
        <ele>1181.5999999999999</ele>
        <time>2003-04-14T11:05:07Z</time>
      </trkpt>
      <trkpt lat="31.375736994668841" lon="-5.362809961661696">
        <ele>1181.7</ele>
        <time>2003-04-14T11:05:15Z</time>
      </trkpt>
      <trkpt lat="31.375662982463837" lon="-5.362703008577228">
        <ele>1181.2</ele>
        <time>2003-04-14T11:05:18Z</time>
      </trkpt>
      <trkpt lat="31.375613026320934" lon="-5.362594965845347">
        <ele>1181.9000000000001</ele>
        <time>2003-04-14T11:05:19Z</time>
      </trkpt>
      <trkpt lat="31.375531973317266" lon="-5.362462028861046">
        <ele>1181.7</ele>
        <time>2003-04-14T11:05:22Z</time>
      </trkpt>
      <trkpt lat="31.375310020521283" lon="-5.362124992534518">
        <ele>1182.0999999999999</ele>
        <time>2003-04-14T11:05:27Z</time>
      </trkpt>
      <trkpt lat="31.375186974182725" lon="-5.362024996429682">
        <ele>1182.2</ele>
        <time>2003-04-14T11:05:29Z</time>
      </trkpt>
      <trkpt lat="31.374822026118636" lon="-5.361712016165257">
        <ele>1183.2</ele>
        <time>2003-04-14T11:05:34Z</time>
      </trkpt>
      <trkpt lat="31.374733010306954" lon="-5.361628029495478">
        <ele>1183.5</ele>
        <time>2003-04-14T11:05:37Z</time>
      </trkpt>
      <trkpt lat="31.374627985060215" lon="-5.361572960391641">
        <ele>1184.0999999999999</ele>
        <time>2003-04-14T11:05:39Z</time>
      </trkpt>
      <trkpt lat="31.37455296702683" lon="-5.361395012587309">
        <ele>1183.9000000000001</ele>
        <time>2003-04-14T11:05:53Z</time>
      </trkpt>
      <trkpt lat="31.374581968411803" lon="-5.361291998997331">
        <ele>1183.5</ele>
        <time>2003-04-14T11:05:57Z</time>
      </trkpt>
      <trkpt lat="31.374611975625157" lon="-5.361183034256101">
        <ele>1182.7</ele>
        <time>2003-04-14T11:06:12Z</time>
      </trkpt>
      <trkpt lat="31.374539975076914" lon="-5.361050013452768">
        <ele>1181.2</ele>
        <time>2003-04-14T11:06:44Z</time>
      </trkpt>
      <trkpt lat="31.374448025599122" lon="-5.361027969047427">
        <ele>1181.4000000000001</ele>
        <time>2003-04-14T11:06:48Z</time>
      </trkpt>
      <trkpt lat="31.374260019510984" lon="-5.36103199236095">
        <ele>1182.5999999999999</ele>
        <time>2003-04-14T11:06:52Z</time>
      </trkpt>
      <trkpt lat="31.374182989820838" lon="-5.361087983474135">
        <ele>1182.8</ele>
        <time>2003-04-14T11:06:55Z</time>
      </trkpt>
      <trkpt lat="31.374111995100975" lon="-5.361176999285817">
        <ele>1183</ele>
        <time>2003-04-14T11:06:56Z</time>
      </trkpt>
      <trkpt lat="31.373919965699315" lon="-5.361425019800663">
        <ele>1183.5999999999999</ele>
        <time>2003-04-14T11:07:02Z</time>
      </trkpt>
      <trkpt lat="31.37380002066493" lon="-5.361485034227371">
        <ele>1183.8</ele>
        <time>2003-04-14T11:07:03Z</time>
      </trkpt>
      <trkpt lat="31.373647972941399" lon="-5.361528033390641">
        <ele>1184.4000000000001</ele>
        <time>2003-04-14T11:07:07Z</time>
      </trkpt>
      <trkpt lat="31.373472036793828" lon="-5.361617971211672">
        <ele>1184</ele>
        <time>2003-04-14T11:07:11Z</time>
      </trkpt>
      <trkpt lat="31.373343039304018" lon="-5.361623000353575">
        <ele>1184.3</ele>
        <time>2003-04-14T11:07:12Z</time>
      </trkpt>
      <trkpt lat="31.373237008228898" lon="-5.361592993140221">
        <ele>1184.5999999999999</ele>
        <time>2003-04-14T11:07:15Z</time>
      </trkpt>
      <trkpt lat="31.373059982433915" lon="-5.361557034775615">
        <ele>1185.3</ele>
        <time>2003-04-14T11:07:18Z</time>
      </trkpt>
      <trkpt lat="31.372817996889353" lon="-5.361521998420358">
        <ele>1185.9000000000001</ele>
        <time>2003-04-14T11:07:22Z</time>
      </trkpt>
      <trkpt lat="31.372722024098039" lon="-5.361468018963933">
        <ele>1186.2</ele>
        <time>2003-04-14T11:07:23Z</time>
      </trkpt>
      <trkpt lat="31.372624961659312" lon="-5.361412027850747">
        <ele>1186.2</ele>
        <time>2003-04-14T11:07:26Z</time>
      </trkpt>
      <trkpt lat="31.372529994696379" lon="-5.361412027850747">
        <ele>1186.7</ele>
        <time>2003-04-14T11:07:27Z</time>
      </trkpt>
      <trkpt lat="31.372427986934781" lon="-5.361431976780295">
        <ele>1187</ele>
        <time>2003-04-14T11:07:30Z</time>
      </trkpt>
      <trkpt lat="31.37233997695148" lon="-5.36146298982203">
        <ele>1187.4000000000001</ele>
        <time>2003-04-14T11:07:31Z</time>
      </trkpt>
      <trkpt lat="31.372160017490387" lon="-5.361558040603995">
        <ele>1188.2</ele>
        <time>2003-04-14T11:07:37Z</time>
      </trkpt>
      <trkpt lat="31.372069995850325" lon="-5.361642027273774">
        <ele>1188.5</ele>
        <time>2003-04-14T11:07:38Z</time>
      </trkpt>
      <trkpt lat="31.371919959783554" lon="-5.361764989793301">
        <ele>1188.5999999999999</ele>
        <time>2003-04-14T11:07:42Z</time>
      </trkpt>
      <trkpt lat="31.371824992820621" lon="-5.361889963969588">
        <ele>1188.8</ele>
        <time>2003-04-14T11:07:45Z</time>
      </trkpt>
      <trkpt lat="31.371730025857687" lon="-5.362075036391616">
        <ele>1189</ele>
        <time>2003-04-14T11:07:48Z</time>
      </trkpt>
      <trkpt lat="31.371588036417961" lon="-5.362200010567904">
        <ele>1189.2</ele>
        <time>2003-04-14T11:07:50Z</time>
      </trkpt>
      <trkpt lat="31.371338004246354" lon="-5.36232003942132">
        <ele>1189.4000000000001</ele>
        <time>2003-04-14T11:07:54Z</time>
      </trkpt>
      <trkpt lat="31.371119990944862" lon="-5.362384999170899">
        <ele>1189.9000000000001</ele>
        <time>2003-04-14T11:07:57Z</time>
      </trkpt>
      <trkpt lat="31.370587991550565" lon="-5.362441996112466">
        <ele>1191.4000000000001</ele>
        <time>2003-04-14T11:08:05Z</time>
      </trkpt>
      <trkpt lat="31.370482966303825" lon="-5.362415006384254">
        <ele>1191.5</ele>
        <time>2003-04-14T11:08:08Z</time>
      </trkpt>
      <trkpt lat="31.370277022942901" lon="-5.362403020262718">
        <ele>1192.2</ele>
        <time>2003-04-14T11:08:12Z</time>
      </trkpt>
      <trkpt lat="31.370107959955931" lon="-5.362381981685758">
        <ele>1192.5</ele>
        <time>2003-04-14T11:08:15Z</time>
      </trkpt>
      <trkpt lat="31.370002012699842" lon="-5.362406959757209">
        <ele>1192.8</ele>
        <time>2003-04-14T11:08:16Z</time>
      </trkpt>
      <trkpt lat="31.369818029925227" lon="-5.362488012760878">
        <ele>1193.3</ele>
        <time>2003-04-14T11:08:20Z</time>
      </trkpt>
      <trkpt lat="31.369706969708204" lon="-5.362484995275736">
        <ele>1193.4000000000001</ele>
        <time>2003-04-14T11:08:21Z</time>
      </trkpt>
      <trkpt lat="31.36958702467382" lon="-5.362517014145851">
        <ele>1193.8</ele>
        <time>2003-04-14T11:08:24Z</time>
      </trkpt>
      <trkpt lat="31.36935199610889" lon="-5.36268699914217">
        <ele>1194.5</ele>
        <time>2003-04-14T11:08:28Z</time>
      </trkpt>
      <trkpt lat="31.369255017489195" lon="-5.362751958891749">
        <ele>1194.5999999999999</ele>
        <time>2003-04-14T11:08:29Z</time>
      </trkpt>
      <trkpt lat="31.368986964225769" lon="-5.362820019945502">
        <ele>1195.0999999999999</ele>
        <time>2003-04-14T11:08:33Z</time>
      </trkpt>
      <trkpt lat="31.368714971467853" lon="-5.362895037978888">
        <ele>1195.5999999999999</ele>
        <time>2003-04-14T11:08:38Z</time>
      </trkpt>
      <trkpt lat="31.368610030040145" lon="-5.362929990515113">
        <ele>1196.0999999999999</ele>
        <time>2003-04-14T11:08:40Z</time>
      </trkpt>
      <trkpt lat="31.368448007851839" lon="-5.362911969423294">
        <ele>1196.8</ele>
        <time>2003-04-14T11:08:46Z</time>
      </trkpt>
      <trkpt lat="31.368354968726635" lon="-5.362959997728467">
        <ele>1197.2</ele>
        <time>2003-04-14T11:08:47Z</time>
      </trkpt>
      <trkpt lat="31.368282968178391" lon="-5.363029986619949">
        <ele>1197.2</ele>
        <time>2003-04-14T11:08:50Z</time>
      </trkpt>
      <trkpt lat="31.368139972910285" lon="-5.363186979666352">
        <ele>1197.9000000000001</ele>
        <time>2003-04-14T11:08:55Z</time>
      </trkpt>
      <trkpt lat="31.367988009005785" lon="-5.363371968269348">
        <ele>1198.5999999999999</ele>
        <time>2003-04-14T11:08:59Z</time>
      </trkpt>
      <trkpt lat="31.367887007072568" lon="-5.363444974645972">
        <ele>1199</ele>
        <time>2003-04-14T11:09:03Z</time>
      </trkpt>
      <trkpt lat="31.367751974612474" lon="-5.363547988235951">
        <ele>1199.5999999999999</ele>
        <time>2003-04-14T11:09:06Z</time>
      </trkpt>
      <trkpt lat="31.36767796240747" lon="-5.363647984340787">
        <ele>1200</ele>
        <time>2003-04-14T11:09:07Z</time>
      </trkpt>
      <trkpt lat="31.367621971294284" lon="-5.363787040114403">
        <ele>1200.3</ele>
        <time>2003-04-14T11:09:10Z</time>
      </trkpt>
      <trkpt lat="31.367557011544704" lon="-5.363925006240606">
        <ele>1201.0999999999999</ele>
        <time>2003-04-14T11:09:14Z</time>
      </trkpt>
      <trkpt lat="31.367447040975094" lon="-5.364140002056956">
        <ele>1200.9000000000001</ele>
        <time>2003-04-14T11:09:18Z</time>
      </trkpt>
      <trkpt lat="31.36733204126358" lon="-5.364375030621886">
        <ele>1203.3</ele>
        <time>2003-04-14T11:09:25Z</time>
      </trkpt>
      <trkpt lat="31.367231961339712" lon="-5.364548033103347">
        <ele>1204</ele>
        <time>2003-04-14T11:09:32Z</time>
      </trkpt>
      <trkpt lat="31.367200026288629" lon="-5.364650040864945">
        <ele>1204.7</ele>
        <time>2003-04-14T11:09:36Z</time>
      </trkpt>
      <trkpt lat="31.36720203794539" lon="-5.36477199755609">
        <ele>1205.0999999999999</ele>
        <time>2003-04-14T11:09:40Z</time>
      </trkpt>
      <trkpt lat="31.367255011573434" lon="-5.364886997267604">
        <ele>1204.3</ele>
        <time>2003-04-14T11:09:42Z</time>
      </trkpt>
      <trkpt lat="31.367302034050226" lon="-5.365005014464259">
        <ele>1203.3</ele>
        <time>2003-04-14T11:09:45Z</time>
      </trkpt>
      <trkpt lat="31.367370011284947" lon="-5.365086989477277">
        <ele>1202.5</ele>
        <time>2003-04-14T11:09:49Z</time>
      </trkpt>
      <trkpt lat="31.367422984912992" lon="-5.365195032209158">
        <ele>1204.8</ele>
        <time>2003-04-14T11:10:01Z</time>
      </trkpt>
      <trkpt lat="31.367447040975094" lon="-5.365311959758401">
        <ele>1205.0999999999999</ele>
        <time>2003-04-14T11:10:03Z</time>
      </trkpt>
      <trkpt lat="31.367447962984443" lon="-5.365438023582101">
        <ele>1205.3</ele>
        <time>2003-04-14T11:10:04Z</time>
      </trkpt>
      <trkpt lat="31.367427008226514" lon="-5.365661988034844">
        <ele>1205.9000000000001</ele>
        <time>2003-04-14T11:10:08Z</time>
      </trkpt>
      <trkpt lat="31.367364982143044" lon="-5.365787968039513">
        <ele>1206.5999999999999</ele>
        <time>2003-04-14T11:10:09Z</time>
      </trkpt>
      <trkpt lat="31.367249982431531" lon="-5.366021990776062">
        <ele>1207.2</ele>
        <time>2003-04-14T11:10:12Z</time>
      </trkpt>
      <trkpt lat="31.36722500436008" lon="-5.366194993257523">
        <ele>1207.8</ele>
        <time>2003-04-14T11:10:15Z</time>
      </trkpt>
      <trkpt lat="31.367237996309996" lon="-5.366375036537647">
        <ele>1208.4000000000001</ele>
        <time>2003-04-14T11:10:16Z</time>
      </trkpt>
      <trkpt lat="31.367306979373097" lon="-5.366551978513598">
        <ele>1208.2</ele>
        <time>2003-04-14T11:10:19Z</time>
      </trkpt>
      <trkpt lat="31.367389960214496" lon="-5.36679002456367">
        <ele>1209</ele>
        <time>2003-04-14T11:10:21Z</time>
      </trkpt>
      <trkpt lat="31.367327012121677" lon="-5.366947017610073">
        <ele>1208.9000000000001</ele>
        <time>2003-04-14T11:10:24Z</time>
      </trkpt>
      <trkpt lat="31.367236990481615" lon="-5.367205012589693">
        <ele>1207.5999999999999</ele>
        <time>2003-04-14T11:10:28Z</time>
      </trkpt>
      <trkpt lat="31.36718301102519" lon="-5.367314983159304">
        <ele>1207.8</ele>
        <time>2003-04-14T11:10:31Z</time>
      </trkpt>
      <trkpt lat="31.367091983556747" lon="-5.367399975657463">
        <ele>1207.2</ele>
        <time>2003-04-14T11:10:34Z</time>
      </trkpt>
      <trkpt lat="31.367019983008504" lon="-5.367472982034087">
        <ele>1207.9000000000001</ele>
        <time>2003-04-14T11:10:35Z</time>
      </trkpt>
      <trkpt lat="31.366957034915686" lon="-5.367614971473813">
        <ele>1208.5</ele>
        <time>2003-04-14T11:10:39Z</time>
      </trkpt>
      <trkpt lat="31.366876987740397" lon="-5.367762995883822">
        <ele>1209.3</ele>
        <time>2003-04-14T11:10:42Z</time>
      </trkpt>
      <trkpt lat="31.366698034107685" lon="-5.368049992248416">
        <ele>1210.0999999999999</ele>
        <time>2003-04-14T11:10:47Z</time>
      </trkpt>
      <trkpt lat="31.366629973053932" lon="-5.368258031085134">
        <ele>1210.8</ele>
        <time>2003-04-14T11:10:50Z</time>
      </trkpt>
      <trkpt lat="31.366555038839579" lon="-5.368434973061085">
        <ele>1211.3</ele>
        <time>2003-04-14T11:10:53Z</time>
      </trkpt>
      <trkpt lat="31.366482032462955" lon="-5.368513008579612">
        <ele>1211.5999999999999</ele>
        <time>2003-04-14T11:10:55Z</time>
      </trkpt>
      <trkpt lat="31.366354962810874" lon="-5.368611998856068">
        <ele>1212.3</ele>
        <time>2003-04-14T11:10:58Z</time>
      </trkpt>
      <trkpt lat="31.366282040253282" lon="-5.368711994960904">
        <ele>1212.9000000000001</ele>
        <time>2003-04-14T11:11:02Z</time>
      </trkpt>
      <trkpt lat="31.366084981709719" lon="-5.368736973032355">
        <ele>1213.5999999999999</ele>
        <time>2003-04-14T11:11:10Z</time>
      </trkpt>
      <trkpt lat="31.365993032231927" lon="-5.368758011609316">
        <ele>1214.3</ele>
        <time>2003-04-14T11:11:14Z</time>
      </trkpt>
      <trkpt lat="31.365905022248626" lon="-5.368866976350546">
        <ele>1215.2</ele>
        <time>2003-04-14T11:11:18Z</time>
      </trkpt>
      <trkpt lat="31.365835033357143" lon="-5.368945011869073">
        <ele>1215.8</ele>
        <time>2003-04-14T11:11:20Z</time>
      </trkpt>
      <trkpt lat="31.365727996453643" lon="-5.369032016023994">
        <ele>1216.4000000000001</ele>
        <time>2003-04-14T11:11:25Z</time>
      </trkpt>
      <trkpt lat="31.365684997290373" lon="-5.369156990200281">
        <ele>1216.8</ele>
        <time>2003-04-14T11:11:32Z</time>
      </trkpt>
      <trkpt lat="31.365624982863665" lon="-5.369293028488755">
        <ele>1217.5999999999999</ele>
        <time>2003-04-14T11:11:36Z</time>
      </trkpt>
      <trkpt lat="31.365551976487041" lon="-5.369402999058366">
        <ele>1218.0999999999999</ele>
        <time>2003-04-14T11:11:40Z</time>
      </trkpt>
      <trkpt lat="31.365454997867346" lon="-5.369472987949848">
        <ele>1218.5999999999999</ele>
        <time>2003-04-14T11:11:42Z</time>
      </trkpt>
      <trkpt lat="31.365324994549155" lon="-5.369554962962866">
        <ele>1219.8</ele>
        <time>2003-04-14T11:11:48Z</time>
      </trkpt>
      <trkpt lat="31.365283001214266" lon="-5.369654959067702">
        <ele>1220.8</ele>
        <time>2003-04-14T11:11:51Z</time>
      </trkpt>
      <trkpt lat="31.365207983180881" lon="-5.369753027334809">
        <ele>1221.8</ele>
        <time>2003-04-14T11:11:55Z</time>
      </trkpt>
      <trkpt lat="31.365113016217947" lon="-5.36979703232646">
        <ele>1222.5999999999999</ele>
        <time>2003-04-14T11:11:59Z</time>
      </trkpt>
      <trkpt lat="31.365036992356181" lon="-5.369859980419278">
        <ele>1222.9000000000001</ele>
        <time>2003-04-14T11:12:01Z</time>
      </trkpt>
      <trkpt lat="31.36501201428473" lon="-5.369980009272695">
        <ele>1223.2</ele>
        <time>2003-04-14T11:12:04Z</time>
      </trkpt>
      <trkpt lat="31.364973038434982" lon="-5.370085034519434">
        <ele>1223.5</ele>
        <time>2003-04-14T11:12:08Z</time>
      </trkpt>
      <trkpt lat="31.364910006523132" lon="-5.370162986218929">
        <ele>1223.8</ele>
        <time>2003-04-14T11:12:11Z</time>
      </trkpt>
      <trkpt lat="31.364786960184574" lon="-5.370157035067678">
        <ele>1224</ele>
        <time>2003-04-14T11:12:14Z</time>
      </trkpt>
      <trkpt lat="31.364717977121472" lon="-5.370287960395217">
        <ele>1224.4000000000001</ele>
        <time>2003-04-14T11:12:16Z</time>
      </trkpt>
      <trkpt lat="31.364680007100105" lon="-5.370415030047298">
        <ele>1224.8</ele>
        <time>2003-04-14T11:12:19Z</time>
      </trkpt>
      <trkpt lat="31.364619992673397" lon="-5.370513014495373">
        <ele>1225</ele>
        <time>2003-04-14T11:12:20Z</time>
      </trkpt>
      <trkpt lat="31.364557966589928" lon="-5.370645029470325">
        <ele>1225.5</ele>
        <time>2003-04-14T11:12:23Z</time>
      </trkpt>
      <trkpt lat="31.364489989355206" lon="-5.370718035846949">
        <ele>1226.0999999999999</ele>
        <time>2003-04-14T11:12:27Z</time>
      </trkpt>
      <trkpt lat="31.364401979371905" lon="-5.370772015303373">
        <ele>1227.0999999999999</ele>
        <time>2003-04-14T11:12:30Z</time>
      </trkpt>
      <trkpt lat="31.364282034337521" lon="-5.370800010859966">
        <ele>1227.4000000000001</ele>
        <time>2003-04-14T11:12:34Z</time>
      </trkpt>
      <trkpt lat="31.364177009090781" lon="-5.370777966454625">
        <ele>1227.9000000000001</ele>
        <time>2003-04-14T11:12:38Z</time>
      </trkpt>
      <trkpt lat="31.364072989672422" lon="-5.370790036395192">
        <ele>1229.0999999999999</ele>
        <time>2003-04-14T11:12:42Z</time>
      </trkpt>
      <trkpt lat="31.363995037972927" lon="-5.370903024449945">
        <ele>1229.9000000000001</ele>
        <time>2003-04-14T11:12:45Z</time>
      </trkpt>
      <trkpt lat="31.363935023546219" lon="-5.370996985584498">
        <ele>1230.5</ele>
        <time>2003-04-14T11:12:46Z</time>
      </trkpt>
      <trkpt lat="31.363811977207661" lon="-5.371139980852604">
        <ele>1231.5</ele>
        <time>2003-04-14T11:12:50Z</time>
      </trkpt>
      <trkpt lat="31.363726984709501" lon="-5.371187003329396">
        <ele>1232.2</ele>
        <time>2003-04-14T11:12:51Z</time>
      </trkpt>
      <trkpt lat="31.363451974466443" lon="-5.371309965848923">
        <ele>1233</ele>
        <time>2003-04-14T11:12:57Z</time>
      </trkpt>
      <trkpt lat="31.363311996683478" lon="-5.3713249694556">
        <ele>1233.2</ele>
        <time>2003-04-14T11:12:58Z</time>
      </trkpt>
      <trkpt lat="31.363147962838411" lon="-5.37132203578949">
        <ele>1233.3</ele>
        <time>2003-04-14T11:13:02Z</time>
      </trkpt>
      <trkpt lat="31.362874964252114" lon="-5.371307032182813">
        <ele>1233.4000000000001</ele>
        <time>2003-04-14T11:13:06Z</time>
      </trkpt>
      <trkpt lat="31.362740015611053" lon="-5.37126000970602">
        <ele>1233.0999999999999</ele>
        <time>2003-04-14T11:13:08Z</time>
      </trkpt>
      <trkpt lat="31.362452013418078" lon="-5.371115002781153">
        <ele>1232.8</ele>
        <time>2003-04-14T11:13:12Z</time>
      </trkpt>
      <trkpt lat="31.36185203678906" lon="-5.370662966743112">
        <ele>1232.9000000000001</ele>
        <time>2003-04-14T11:13:20Z</time>
      </trkpt>
      <trkpt lat="31.361756986007094" lon="-5.370649974793196">
        <ele>1232.9000000000001</ele>
        <time>2003-04-14T11:13:21Z</time>
      </trkpt>
      <trkpt lat="31.361454986035824" lon="-5.37065701559186">
        <ele>1233</ele>
        <time>2003-04-14T11:13:24Z</time>
      </trkpt>
      <trkpt lat="31.361164972186089" lon="-5.370664978399873">
        <ele>1235.5999999999999</ele>
        <time>2003-04-14T11:13:26Z</time>
      </trkpt>
      <trkpt lat="31.360947964712977" lon="-5.370598006993532">
        <ele>1235.0999999999999</ele>
        <time>2003-04-14T11:13:29Z</time>
      </trkpt>
      <trkpt lat="31.360467011108994" lon="-5.370500022545457">
        <ele>1234.4000000000001</ele>
        <time>2003-04-14T11:13:33Z</time>
      </trkpt>
      <trkpt lat="31.359463026747108" lon="-5.370407989248633">
        <ele>1232.2</ele>
        <time>2003-04-14T11:13:41Z</time>
      </trkpt>
      <trkpt lat="31.358700022101402" lon="-5.370272034779191">
        <ele>1231.4000000000001</ele>
        <time>2003-04-14T11:13:48Z</time>
      </trkpt>
      <trkpt lat="31.358421994373202" lon="-5.370216965675354">
        <ele>1231.2</ele>
        <time>2003-04-14T11:13:52Z</time>
      </trkpt>
      <trkpt lat="31.358227031305432" lon="-5.370170027017593">
        <ele>1231.2</ele>
        <time>2003-04-14T11:13:53Z</time>
      </trkpt>
      <trkpt lat="31.358012035489082" lon="-5.370138008147478">
        <ele>1231</ele>
        <time>2003-04-14T11:13:56Z</time>
      </trkpt>
      <trkpt lat="31.3571269903332" lon="-5.37005502730608">
        <ele>1230.5999999999999</ele>
        <time>2003-04-14T11:14:04Z</time>
      </trkpt>
      <trkpt lat="31.357020037248731" lon="-5.370053015649319">
        <ele>1230.3</ele>
        <time>2003-04-14T11:14:06Z</time>
      </trkpt>
      <trkpt lat="31.356592979282141" lon="-5.370025020092726">
        <ele>1229.9000000000001</ele>
        <time>2003-04-14T11:14:10Z</time>
      </trkpt>
      <trkpt lat="31.355840032920241" lon="-5.369902979582548">
        <ele>1229.2</ele>
        <time>2003-04-14T11:14:18Z</time>
      </trkpt>
      <trkpt lat="31.355612967163324" lon="-5.369904991239309">
        <ele>1229.5999999999999</ele>
        <time>2003-04-14T11:14:20Z</time>
      </trkpt>
      <trkpt lat="31.355487992987037" lon="-5.369993001222611">
        <ele>1228.5999999999999</ele>
        <time>2003-04-14T11:14:23Z</time>
      </trkpt>
      <trkpt lat="31.355169983580709" lon="-5.370273040607572">
        <ele>1228.3</ele>
        <time>2003-04-14T11:14:27Z</time>
      </trkpt>
      <trkpt lat="31.35476497001946" lon="-5.370562970638275">
        <ele>1228</ele>
        <time>2003-04-14T11:14:33Z</time>
      </trkpt>
      <trkpt lat="31.35450697503984" lon="-5.370747959241271">
        <ele>1227.7</ele>
        <time>2003-04-14T11:14:35Z</time>
      </trkpt>
      <trkpt lat="31.354042030870914" lon="-5.371084995567799">
        <ele>1226</ele>
        <time>2003-04-14T11:14:42Z</time>
      </trkpt>
      <trkpt lat="31.353900041431189" lon="-5.371164958924055">
        <ele>1225.5</ele>
        <time>2003-04-14T11:14:43Z</time>
      </trkpt>
      <trkpt lat="31.353771965950727" lon="-5.371254980564117">
        <ele>1225.2</ele>
        <time>2003-04-14T11:14:46Z</time>
      </trkpt>
      <trkpt lat="31.353456974029541" lon="-5.371457990258932">
        <ele>1225.4000000000001</ele>
        <time>2003-04-14T11:14:50Z</time>
      </trkpt>
      <trkpt lat="31.353311967104673" lon="-5.371457990258932">
        <ele>1225.0999999999999</ele>
        <time>2003-04-14T11:14:53Z</time>
      </trkpt>
      <trkpt lat="31.352992029860616" lon="-5.371465031057596">
        <ele>1225.5999999999999</ele>
        <time>2003-04-14T11:14:57Z</time>
      </trkpt>
      <trkpt lat="31.352718025445938" lon="-5.371503001078963">
        <ele>1228.5</ele>
        <time>2003-04-14T11:15:01Z</time>
      </trkpt>
      <trkpt lat="31.352622974663973" lon="-5.371571984142065">
        <ele>1229</ele>
        <time>2003-04-14T11:15:02Z</time>
      </trkpt>
      <trkpt lat="31.352433040738106" lon="-5.371771976351738">
        <ele>1228.8</ele>
        <time>2003-04-14T11:15:06Z</time>
      </trkpt>
      <trkpt lat="31.352367997169495" lon="-5.371935004368424">
        <ele>1229</ele>
        <time>2003-04-14T11:15:09Z</time>
      </trkpt>
      <trkpt lat="31.352288033813238" lon="-5.372101971879602">
        <ele>1229.2</ele>
        <time>2003-04-14T11:15:10Z</time>
      </trkpt>
      <trkpt lat="31.352031966671348" lon="-5.372576974332333">
        <ele>1229.7</ele>
        <time>2003-04-14T11:15:17Z</time>
      </trkpt>
      <trkpt lat="31.351957032456994" lon="-5.372745031490922">
        <ele>1229.5</ele>
        <time>2003-04-14T11:15:18Z</time>
      </trkpt>
      <trkpt lat="31.351885031908751" lon="-5.373037979006767">
        <ele>1229.3</ele>
        <time>2003-04-14T11:15:21Z</time>
      </trkpt>
      <trkpt lat="31.351857958361506" lon="-5.373432012274861">
        <ele>1229</ele>
        <time>2003-04-14T11:15:25Z</time>
      </trkpt>
      <trkpt lat="31.351840021088719" lon="-5.373617000877857">
        <ele>1228.8</ele>
        <time>2003-04-14T11:15:28Z</time>
      </trkpt>
      <trkpt lat="31.351828034967184" lon="-5.373938027769327">
        <ele>1227.5</ele>
        <time>2003-04-14T11:15:32Z</time>
      </trkpt>
      <trkpt lat="31.351817976683378" lon="-5.374046992510557">
        <ele>1227.3</ele>
        <time>2003-04-14T11:15:40Z</time>
      </trkpt>
      <trkpt lat="31.351713035255671" lon="-5.37407498806715">
        <ele>1226.2</ele>
        <time>2003-04-14T11:15:44Z</time>
      </trkpt>
      <trkpt lat="31.351653020828962" lon="-5.373992007225752">
        <ele>1225.8</ele>
        <time>2003-04-14T11:15:45Z</time>
      </trkpt>
      <trkpt lat="31.351567022502422" lon="-5.373889999464154">
        <ele>1225.4000000000001</ele>
        <time>2003-04-14T11:15:48Z</time>
      </trkpt>
      <trkpt lat="31.351510025560856" lon="-5.373744992539287">
        <ele>1225</ele>
        <time>2003-04-14T11:15:50Z</time>
      </trkpt>
      <trkpt lat="31.351408017799258" lon="-5.373633010312915">
        <ele>1224.5</ele>
        <time>2003-04-14T11:15:52Z</time>
      </trkpt>
      <trkpt lat="31.351263010874391" lon="-5.37353795953095">
        <ele>1224</ele>
        <time>2003-04-14T11:15:54Z</time>
      </trkpt>
      <trkpt lat="31.351142982020974" lon="-5.373427988961339">
        <ele>1223.9000000000001</ele>
        <time>2003-04-14T11:15:55Z</time>
      </trkpt>
      <trkpt lat="31.351108029484749" lon="-5.3732780367136">
        <ele>1224.0999999999999</ele>
        <time>2003-04-14T11:15:58Z</time>
      </trkpt>
      <trkpt lat="31.351127978414297" lon="-5.37310503423214">
        <ele>1223.4000000000001</ele>
        <time>2003-04-14T11:15:59Z</time>
      </trkpt>
      <trkpt lat="31.351172989234328" lon="-5.372555013746023">
        <ele>1222.9000000000001</ele>
        <time>2003-04-14T11:16:06Z</time>
      </trkpt>
      <trkpt lat="31.351138036698103" lon="-5.372410006821156">
        <ele>1222.8</ele>
        <time>2003-04-14T11:16:07Z</time>
      </trkpt>
      <trkpt lat="31.351037034764886" lon="-5.372292995452881">
        <ele>1222.5999999999999</ele>
        <time>2003-04-14T11:16:10Z</time>
      </trkpt>
      <trkpt lat="31.350939972326159" lon="-5.372134996578097">
        <ele>1221.5</ele>
        <time>2003-04-14T11:16:11Z</time>
      </trkpt>
      <trkpt lat="31.35087501257658" lon="-5.371976997703314">
        <ele>1221.3</ele>
        <time>2003-04-14T11:16:14Z</time>
      </trkpt>
      <trkpt lat="31.350775016471744" lon="-5.371868032962084">
        <ele>1220.9000000000001</ele>
        <time>2003-04-14T11:16:15Z</time>
      </trkpt>
      <trkpt lat="31.350681977346539" lon="-5.371772982180119">
        <ele>1220.9000000000001</ele>
        <time>2003-04-14T11:16:18Z</time>
      </trkpt>
      <trkpt lat="31.350626992061734" lon="-5.371639961376786">
        <ele>1220.7</ele>
        <time>2003-04-14T11:16:19Z</time>
      </trkpt>
      <trkpt lat="31.350618023425341" lon="-5.371480034664273">
        <ele>1220.5999999999999</ele>
        <time>2003-04-14T11:16:22Z</time>
      </trkpt>
      <trkpt lat="31.350569995120168" lon="-5.371241988614202">
        <ele>1220.3</ele>
        <time>2003-04-14T11:16:25Z</time>
      </trkpt>
      <trkpt lat="31.350500006228685" lon="-5.371107961982489">
        <ele>1220.4000000000001</ele>
        <time>2003-04-14T11:16:26Z</time>
      </trkpt>
      <trkpt lat="31.350352987647057" lon="-5.370934959501028">
        <ele>1219.8</ele>
        <time>2003-04-14T11:16:30Z</time>
      </trkpt>
      <trkpt lat="31.350282998755574" lon="-5.370866982266307">
        <ele>1218.5999999999999</ele>
        <time>2003-04-14T11:16:33Z</time>
      </trkpt>
      <trkpt lat="31.350212004035711" lon="-5.370719963684678">
        <ele>1218.8</ele>
        <time>2003-04-14T11:16:34Z</time>
      </trkpt>
      <trkpt lat="31.350170010700822" lon="-5.370621979236603">
        <ele>1219</ele>
        <time>2003-04-14T11:16:35Z</time>
      </trkpt>
      <trkpt lat="31.350115025416017" lon="-5.370407989248633">
        <ele>1218.7</ele>
        <time>2003-04-14T11:16:38Z</time>
      </trkpt>
      <trkpt lat="31.350077977403998" lon="-5.370307993143797">
        <ele>1218.5999999999999</ele>
        <time>2003-04-14T11:16:38Z</time>
      </trkpt>
      <trkpt lat="31.350022992119193" lon="-5.370112024247646">
        <ele>1218.3</ele>
        <time>2003-04-14T11:16:41Z</time>
      </trkpt>
      <trkpt lat="31.349942022934556" lon="-5.36962796933949">
        <ele>1217.4000000000001</ele>
        <time>2003-04-14T11:16:46Z</time>
      </trkpt>
      <trkpt lat="31.349968006834388" lon="-5.369214992970228">
        <ele>1216.8</ele>
        <time>2003-04-14T11:16:50Z</time>
      </trkpt>
      <trkpt lat="31.349947974085808" lon="-5.369105022400618">
        <ele>1216.8</ele>
        <time>2003-04-14T11:16:53Z</time>
      </trkpt>
      <trkpt lat="31.3498430326581" lon="-5.369048025459051">
        <ele>1216.9000000000001</ele>
        <time>2003-04-14T11:16:54Z</time>
      </trkpt>
      <trkpt lat="31.349749993532896" lon="-5.369099993258715">
        <ele>1217</ele>
        <time>2003-04-14T11:16:57Z</time>
      </trkpt>
      <trkpt lat="31.349661983549595" lon="-5.369192026555538">
        <ele>1217.0999999999999</ele>
        <time>2003-04-14T11:17:00Z</time>
      </trkpt>
      <trkpt lat="31.349561987444758" lon="-5.369247011840344">
        <ele>1217.7</ele>
        <time>2003-04-14T11:17:04Z</time>
      </trkpt>
      <trkpt lat="31.349427038803697" lon="-5.369232008233666">
        <ele>1216.8</ele>
        <time>2003-04-14T11:17:06Z</time>
      </trkpt>
      <trkpt lat="31.349284965544939" lon="-5.369220022112131">
        <ele>1217.2</ele>
        <time>2003-04-14T11:17:09Z</time>
      </trkpt>
      <trkpt lat="31.349207013845444" lon="-5.369151961058378">
        <ele>1217.3</ele>
        <time>2003-04-14T11:17:12Z</time>
      </trkpt>
      <trkpt lat="31.349110035225749" lon="-5.369096975773573">
        <ele>1217.5</ele>
        <time>2003-04-14T11:17:13Z</time>
      </trkpt>
      <trkpt lat="31.349007021635771" lon="-5.369057999923825">
        <ele>1217.7</ele>
        <time>2003-04-14T11:17:16Z</time>
      </trkpt>
      <trkpt lat="31.348922029137611" lon="-5.368978036567569">
        <ele>1216.8</ele>
        <time>2003-04-14T11:17:19Z</time>
      </trkpt>
      <trkpt lat="31.348871989175677" lon="-5.368845015764237">
        <ele>1217.3</ele>
        <time>2003-04-14T11:17:20Z</time>
      </trkpt>
      <trkpt lat="31.34881298057735" lon="-5.368688022717834">
        <ele>1216.8</ele>
        <time>2003-04-14T11:17:23Z</time>
      </trkpt>
      <trkpt lat="31.348778028041124" lon="-5.368506973609328">
        <ele>1216.3</ele>
        <time>2003-04-14T11:17:24Z</time>
      </trkpt>
      <trkpt lat="31.348709966987371" lon="-5.368198016658425">
        <ele>1215.8</ele>
        <time>2003-04-14T11:17:28Z</time>
      </trkpt>
      <trkpt lat="31.348636960610747" lon="-5.367964999750257">
        <ele>1215</ele>
        <time>2003-04-14T11:17:31Z</time>
      </trkpt>
      <trkpt lat="31.348609970882535" lon="-5.367832984775305">
        <ele>1214.5</ele>
        <time>2003-04-14T11:17:33Z</time>
      </trkpt>
      <trkpt lat="31.34864198975265" lon="-5.367689989507198">
        <ele>1214.7</ele>
        <time>2003-04-14T11:17:38Z</time>
      </trkpt>
      <trkpt lat="31.348660010844469" lon="-5.367584964260459">
        <ele>1214.8</ele>
        <time>2003-04-14T11:17:40Z</time>
      </trkpt>
      <trkpt lat="31.348639978095889" lon="-5.367480022832751">
        <ele>1214.8</ele>
        <time>2003-04-14T11:17:42Z</time>
      </trkpt>
      <trkpt lat="31.34857501834631" lon="-5.367401987314224">
        <ele>1214.3</ele>
        <time>2003-04-14T11:17:44Z</time>
      </trkpt>
      <trkpt lat="31.348502011969686" lon="-5.367307020351291">
        <ele>1213.4000000000001</ele>
        <time>2003-04-14T11:17:47Z</time>
      </trkpt>
      <trkpt lat="31.348427999764681" lon="-5.367167964577675">
        <ele>1213.4000000000001</ele>
        <time>2003-04-14T11:17:51Z</time>
      </trkpt>
      <trkpt lat="31.348279975354671" lon="-5.366848027333617">
        <ele>1213.4000000000001</ele>
        <time>2003-04-14T11:17:56Z</time>
      </trkpt>
      <trkpt lat="31.348192971199751" lon="-5.366449970752001">
        <ele>1212.5999999999999</ele>
        <time>2003-04-14T11:18:02Z</time>
      </trkpt>
      <trkpt lat="31.348147038370371" lon="-5.366234974935651">
        <ele>1212.4000000000001</ele>
        <time>2003-04-14T11:18:03Z</time>
      </trkpt>
      <trkpt lat="31.34806296788156" lon="-5.36595200188458">
        <ele>1211.8</ele>
        <time>2003-04-14T11:18:07Z</time>
      </trkpt>
      <trkpt lat="31.348018040880561" lon="-5.365859968587756">
        <ele>1211.5999999999999</ele>
        <time>2003-04-14T11:18:07Z</time>
      </trkpt>
      <trkpt lat="31.347919972613454" lon="-5.365559980273247">
        <ele>1210.9000000000001</ele>
        <time>2003-04-14T11:18:10Z</time>
      </trkpt>
      <trkpt lat="31.347807990387082" lon="-5.365102998912334">
        <ele>1210.5</ele>
        <time>2003-04-14T11:18:15Z</time>
      </trkpt>
      <trkpt lat="31.347734984010458" lon="-5.364307975396514">
        <ele>1210.2</ele>
        <time>2003-04-14T11:18:25Z</time>
      </trkpt>
      <trkpt lat="31.347702965140343" lon="-5.364128015935421">
        <ele>1209.5</ele>
        <time>2003-04-14T11:18:26Z</time>
      </trkpt>
      <trkpt lat="31.347597017884254" lon="-5.363537007942796">
        <ele>1208.9000000000001</ele>
        <time>2003-04-14T11:18:33Z</time>
      </trkpt>
      <trkpt lat="31.347527028992772" lon="-5.363178011029959">
        <ele>1208.4000000000001</ele>
        <time>2003-04-14T11:18:36Z</time>
      </trkpt>
      <trkpt lat="31.347283031791449" lon="-5.362132033333182">
        <ele>1207.3</ele>
        <time>2003-04-14T11:18:45Z</time>
      </trkpt>
      <trkpt lat="31.347274985164404" lon="-5.361932963132858">
        <ele>1207.2</ele>
        <time>2003-04-14T11:18:46Z</time>
      </trkpt>
      <trkpt lat="31.347252018749714" lon="-5.361731965094805">
        <ele>1207.3</ele>
        <time>2003-04-14T11:18:49Z</time>
      </trkpt>
      <trkpt lat="31.347199967131019" lon="-5.361555023118854">
        <ele>1207.2</ele>
        <time>2003-04-14T11:18:50Z</time>
      </trkpt>
      <trkpt lat="31.347059989348054" lon="-5.361116984859109">
        <ele>1206.4000000000001</ele>
        <time>2003-04-14T11:18:56Z</time>
      </trkpt>
      <trkpt lat="31.346997963264585" lon="-5.360793024301529">
        <ele>1205.8</ele>
        <time>2003-04-14T11:18:59Z</time>
      </trkpt>
      <trkpt lat="31.346942977979779" lon="-5.36068799905479">
        <ele>1205.7</ele>
        <time>2003-04-14T11:19:00Z</time>
      </trkpt>
      <trkpt lat="31.346533019095659" lon="-5.359858023002744">
        <ele>1205.5</ele>
        <time>2003-04-14T11:19:08Z</time>
      </trkpt>
      <trkpt lat="31.346467975527048" lon="-5.35961301997304">
        <ele>1205</ele>
        <time>2003-04-14T11:19:09Z</time>
      </trkpt>
      <trkpt lat="31.346288016065955" lon="-5.35886300727725">
        <ele>1205.3</ele>
        <time>2003-04-14T11:19:16Z</time>
      </trkpt>
      <trkpt lat="31.346260020509362" lon="-5.358742978423834">
        <ele>1205.2</ele>
        <time>2003-04-14T11:19:16Z</time>
      </trkpt>
      <trkpt lat="31.34621299803257" lon="-5.358629990369082">
        <ele>1205</ele>
        <time>2003-04-14T11:19:17Z</time>
      </trkpt>
      <trkpt lat="31.346054999157786" lon="-5.358139984309673">
        <ele>1204.8</ele>
        <time>2003-04-14T11:19:21Z</time>
      </trkpt>
      <trkpt lat="31.34597503580153" lon="-5.35791995935142">
        <ele>1204.9000000000001</ele>
        <time>2003-04-14T11:19:24Z</time>
      </trkpt>
      <trkpt lat="31.345742018893361" lon="-5.357367005199194">
        <ele>1204.7</ele>
        <time>2003-04-14T11:19:28Z</time>
      </trkpt>
      <trkpt lat="31.345613021403551" lon="-5.357191991060972">
        <ele>1204.5999999999999</ele>
        <time>2003-04-14T11:19:31Z</time>
      </trkpt>
      <trkpt lat="31.345468014478683" lon="-5.357042960822582">
        <ele>1204.5999999999999</ele>
        <time>2003-04-14T11:19:32Z</time>
      </trkpt>
      <trkpt lat="31.345400037243962" lon="-5.356955034658313">
        <ele>1204.5</ele>
        <time>2003-04-14T11:19:34Z</time>
      </trkpt>
      <trkpt lat="31.345344968140125" lon="-5.356861995533109">
        <ele>1204.4000000000001</ele>
        <time>2003-04-14T11:19:35Z</time>
      </trkpt>
      <trkpt lat="31.345259975641966" lon="-5.35669201053679">
        <ele>1204.3</ele>
        <time>2003-04-14T11:19:36Z</time>
      </trkpt>
      <trkpt lat="31.345228040590882" lon="-5.356496963649988">
        <ele>1204.5</ele>
        <time>2003-04-14T11:19:39Z</time>
      </trkpt>
      <trkpt lat="31.345180012285709" lon="-5.356280039995909">
        <ele>1204.2</ele>
        <time>2003-04-14T11:19:40Z</time>
      </trkpt>
      <trkpt lat="31.344893015921116" lon="-5.355498008430004">
        <ele>1204.0999999999999</ele>
        <time>2003-04-14T11:19:48Z</time>
      </trkpt>
      <trkpt lat="31.34483995847404" lon="-5.355334980413318">
        <ele>1204.0999999999999</ele>
        <time>2003-04-14T11:19:51Z</time>
      </trkpt>
      <trkpt lat="31.344747003167868" lon="-5.355147980153561">
        <ele>1203.5999999999999</ele>
        <time>2003-04-14T11:19:53Z</time>
      </trkpt>
      <trkpt lat="31.344580035656691" lon="-5.354827959090471">
        <ele>1203.8</ele>
        <time>2003-04-14T11:19:55Z</time>
      </trkpt>
      <trkpt lat="31.344460006803274" lon="-5.354510033503175">
        <ele>1203.3</ele>
        <time>2003-04-14T11:19:58Z</time>
      </trkpt>
      <trkpt lat="31.344348024576902" lon="-5.354223037138581">
        <ele>1202.7</ele>
        <time>2003-04-14T11:20:02Z</time>
      </trkpt>
      <trkpt lat="31.344124982133508" lon="-5.353733031079173">
        <ele>1201.8</ele>
        <time>2003-04-14T11:20:07Z</time>
      </trkpt>
      <trkpt lat="31.344067985191941" lon="-5.353579977527261">
        <ele>1201.8</ele>
        <time>2003-04-14T11:20:10Z</time>
      </trkpt>
      <trkpt lat="31.344048036262393" lon="-5.353387026116252">
        <ele>1201.4000000000001</ele>
        <time>2003-04-14T11:20:11Z</time>
      </trkpt>
      <trkpt lat="31.344003025442362" lon="-5.352637013420463">
        <ele>1201.2</ele>
        <time>2003-04-14T11:20:18Z</time>
      </trkpt>
      <trkpt lat="31.343862041831017" lon="-5.351927988231182">
        <ele>1200.5</ele>
        <time>2003-04-14T11:20:25Z</time>
      </trkpt>
      <trkpt lat="31.343813007697463" lon="-5.351667981594801">
        <ele>1200.2</ele>
        <time>2003-04-14T11:20:26Z</time>
      </trkpt>
      <trkpt lat="31.34359197691083" lon="-5.350572969764471">
        <ele>1199.8</ele>
        <time>2003-04-14T11:20:34Z</time>
      </trkpt>
      <trkpt lat="31.343485023826361" lon="-5.35026996396482">
        <ele>1199.5</ele>
        <time>2003-04-14T11:20:37Z</time>
      </trkpt>
      <trkpt lat="31.343425009399652" lon="-5.35009503364563">
        <ele>1199.2</ele>
        <time>2003-04-14T11:20:40Z</time>
      </trkpt>
      <trkpt lat="31.343373041599989" lon="-5.349852964282036">
        <ele>1198.5999999999999</ele>
        <time>2003-04-14T11:20:42Z</time>
      </trkpt>
      <trkpt lat="31.343331970274448" lon="-5.3495819773525">
        <ele>1198.4000000000001</ele>
        <time>2003-04-14T11:20:47Z</time>
      </trkpt>
      <trkpt lat="31.343255024403334" lon="-5.349400006234646">
        <ele>1198.0999999999999</ele>
        <time>2003-04-14T11:20:49Z</time>
      </trkpt>
      <trkpt lat="31.34318302385509" lon="-5.349187022075057">
        <ele>1197.8</ele>
        <time>2003-04-14T11:20:52Z</time>
      </trkpt>
      <trkpt lat="31.343172965571284" lon="-5.349058024585247">
        <ele>1197.5</ele>
        <time>2003-04-14T11:20:55Z</time>
      </trkpt>
      <trkpt lat="31.343132983893156" lon="-5.348934978246689">
        <ele>1197.7</ele>
        <time>2003-04-14T11:20:56Z</time>
      </trkpt>
      <trkpt lat="31.343077998608351" lon="-5.348743032664061">
        <ele>1197.7</ele>
        <time>2003-04-14T11:21:00Z</time>
      </trkpt>
      <trkpt lat="31.343040028586984" lon="-5.348627027124167">
        <ele>1197.4000000000001</ele>
        <time>2003-04-14T11:21:01Z</time>
      </trkpt>
      <trkpt lat="31.342970039695501" lon="-5.348537005484104">
        <ele>1197.2</ele>
        <time>2003-04-14T11:21:04Z</time>
      </trkpt>
      <trkpt lat="31.342955036088824" lon="-5.348404990509152">
        <ele>1196.7</ele>
        <time>2003-04-14T11:21:07Z</time>
      </trkpt>
      <trkpt lat="31.342937014997005" lon="-5.348282027989626">
        <ele>1196.5</ele>
        <time>2003-04-14T11:21:08Z</time>
      </trkpt>
      <trkpt lat="31.342859985306859" lon="-5.34816300496459">
        <ele>1196.7</ele>
        <time>2003-04-14T11:21:11Z</time>
      </trkpt>
      <trkpt lat="31.342767030000687" lon="-5.348001988604665">
        <ele>1196.9000000000001</ele>
        <time>2003-04-14T11:21:12Z</time>
      </trkpt>
      <trkpt lat="31.342508029192686" lon="-5.347578031942248">
        <ele>1197.2</ele>
        <time>2003-04-14T11:21:18Z</time>
      </trkpt>
      <trkpt lat="31.342395041137934" lon="-5.347392959520221">
        <ele>1197.3</ele>
        <time>2003-04-14T11:21:19Z</time>
      </trkpt>
      <trkpt lat="31.342142997309566" lon="-5.347030023112893">
        <ele>1197.7</ele>
        <time>2003-04-14T11:21:23Z</time>
      </trkpt>
      <trkpt lat="31.341885002329946" lon="-5.346710002049804">
        <ele>1197.0999999999999</ele>
        <time>2003-04-14T11:21:27Z</time>
      </trkpt>
      <trkpt lat="31.341819958761334" lon="-5.346634984016419">
        <ele>1197</ele>
        <time>2003-04-14T11:21:28Z</time>
      </trkpt>
      <trkpt lat="31.341691967099905" lon="-5.34650799818337">
        <ele>1196.8</ele>
        <time>2003-04-14T11:21:31Z</time>
      </trkpt>
      <trkpt lat="31.341482000425458" lon="-5.346367014572024">
        <ele>1196.7</ele>
        <time>2003-04-14T11:21:34Z</time>
      </trkpt>
      <trkpt lat="31.341361971572042" lon="-5.346268024295569">
        <ele>1196.9000000000001</ele>
        <time>2003-04-14T11:21:35Z</time>
      </trkpt>
      <trkpt lat="31.341217970475554" lon="-5.346183031797409">
        <ele>1197.0999999999999</ele>
        <time>2003-04-14T11:21:38Z</time>
      </trkpt>
      <trkpt lat="31.341115040704608" lon="-5.346095021814108">
        <ele>1197.3</ele>
        <time>2003-04-14T11:21:39Z</time>
      </trkpt>
      <trkpt lat="31.340938014909625" lon="-5.345978010445833">
        <ele>1197.5999999999999</ele>
        <time>2003-04-14T11:21:43Z</time>
      </trkpt>
      <trkpt lat="31.340850004926324" lon="-5.345872985199094">
        <ele>1198</ele>
        <time>2003-04-14T11:21:45Z</time>
      </trkpt>
      <trkpt lat="31.340782027691603" lon="-5.345767959952354">
        <ele>1198.5</ele>
        <time>2003-04-14T11:21:46Z</time>
      </trkpt>
      <trkpt lat="31.340701980516315" lon="-5.345675004646182">
        <ele>1198.4000000000001</ele>
        <time>2003-04-14T11:21:49Z</time>
      </trkpt>
      <trkpt lat="31.34062796831131" lon="-5.345554975792766">
        <ele>1199.5</ele>
        <time>2003-04-14T11:21:50Z</time>
      </trkpt>
      <trkpt lat="31.340511962771416" lon="-5.345320031046867">
        <ele>1200.3</ele>
        <time>2003-04-14T11:21:54Z</time>
      </trkpt>
      <trkpt lat="31.340395035222173" lon="-5.345290023833513">
        <ele>1199.5999999999999</ele>
        <time>2003-04-14T11:21:57Z</time>
      </trkpt>
      <trkpt lat="31.340271988883615" lon="-5.345217017456889">
        <ele>1198.7</ele>
        <time>2003-04-14T11:21:58Z</time>
      </trkpt>
      <trkpt lat="31.339926989749074" lon="-5.344942007213831">
        <ele>1198.2</ele>
        <time>2003-04-14T11:22:05Z</time>
      </trkpt>
      <trkpt lat="31.339721968397498" lon="-5.34474796615541">
        <ele>1197.7</ele>
        <time>2003-04-14T11:22:09Z</time>
      </trkpt>
      <trkpt lat="31.339624989777803" lon="-5.344636989757419">
        <ele>1197.5</ele>
        <time>2003-04-14T11:22:10Z</time>
      </trkpt>
      <trkpt lat="31.339447963982821" lon="-5.34435804001987">
        <ele>1197.9000000000001</ele>
        <time>2003-04-14T11:22:14Z</time>
      </trkpt>
      <trkpt lat="31.339387027546763" lon="-5.344200041145086">
        <ele>1197.8</ele>
        <time>2003-04-14T11:22:17Z</time>
      </trkpt>
      <trkpt lat="31.339307986199856" lon="-5.343961995095015">
        <ele>1198.7</ele>
        <time>2003-04-14T11:22:20Z</time>
      </trkpt>
      <trkpt lat="31.339287031441927" lon="-5.34380198456347">
        <ele>1198.4000000000001</ele>
        <time>2003-04-14T11:22:21Z</time>
      </trkpt>
      <trkpt lat="31.339219976216555" lon="-5.343278031796217">
        <ele>1197.8</ele>
        <time>2003-04-14T11:22:29Z</time>
      </trkpt>
      <trkpt lat="31.339204972609878" lon="-5.343154985457659">
        <ele>1198</ele>
        <time>2003-04-14T11:22:30Z</time>
      </trkpt>
      <trkpt lat="31.339189969003201" lon="-5.34298500046134">
        <ele>1197.8</ele>
        <time>2003-04-14T11:22:33Z</time>
      </trkpt>
      <trkpt lat="31.339197009801865" lon="-5.342824989929795">
        <ele>1197.4000000000001</ele>
        <time>2003-04-14T11:22:35Z</time>
      </trkpt>
      <trkpt lat="31.339285019785166" lon="-5.342132980003953">
        <ele>1196.8</ele>
        <time>2003-04-14T11:22:44Z</time>
      </trkpt>
      <trkpt lat="31.339303040876985" lon="-5.342004988342524">
        <ele>1196.5999999999999</ele>
        <time>2003-04-14T11:22:45Z</time>
      </trkpt>
      <trkpt lat="31.339260041713715" lon="-5.341874985024333">
        <ele>1196</ele>
        <time>2003-04-14T11:22:48Z</time>
      </trkpt>
      <trkpt lat="31.33925199508667" lon="-5.341755039989948">
        <ele>1195.7</ele>
        <time>2003-04-14T11:22:49Z</time>
      </trkpt>
      <trkpt lat="31.339300023391843" lon="-5.341627970337868">
        <ele>1195</ele>
        <time>2003-04-14T11:22:52Z</time>
      </trkpt>
      <trkpt lat="31.339332964271307" lon="-5.341472988948226">
        <ele>1194.8</ele>
        <time>2003-04-14T11:22:55Z</time>
      </trkpt>
      <trkpt lat="31.339355008676648" lon="-5.341163026168943">
        <ele>1194.9000000000001</ele>
        <time>2003-04-14T11:22:59Z</time>
      </trkpt>
      <trkpt lat="31.339362971484661" lon="-5.341012990102172">
        <ele>1194.4000000000001</ele>
        <time>2003-04-14T11:23:00Z</time>
      </trkpt>
      <trkpt lat="31.339387027546763" lon="-5.340687017887831">
        <ele>1193.8</ele>
        <time>2003-04-14T11:23:04Z</time>
      </trkpt>
      <trkpt lat="31.33946699090302" lon="-5.340573024004698">
        <ele>1193.8</ele>
        <time>2003-04-14T11:23:08Z</time>
      </trkpt>
      <trkpt lat="31.339532034471631" lon="-5.340476967394352">
        <ele>1193.8</ele>
        <time>2003-04-14T11:23:11Z</time>
      </trkpt>
      <trkpt lat="31.339551983401179" lon="-5.340362973511219">
        <ele>1193.9000000000001</ele>
        <time>2003-04-14T11:23:14Z</time>
      </trkpt>
      <trkpt lat="31.339547960087657" lon="-5.340187037363648">
        <ele>1194</ele>
        <time>2003-04-14T11:23:19Z</time>
      </trkpt>
      <trkpt lat="31.339545026421547" lon="-5.34006298519671">
        <ele>1193.9000000000001</ele>
        <time>2003-04-14T11:23:22Z</time>
      </trkpt>
      <trkpt lat="31.339560030028224" lon="-5.339947985485196">
        <ele>1193.5</ele>
        <time>2003-04-14T11:23:24Z</time>
      </trkpt>
      <trkpt lat="31.33955298922956" lon="-5.339813036844134">
        <ele>1193.3</ele>
        <time>2003-04-14T11:23:27Z</time>
      </trkpt>
      <trkpt lat="31.339517030864954" lon="-5.339531991630793">
        <ele>1193.0999999999999</ele>
        <time>2003-04-14T11:23:34Z</time>
      </trkpt>
      <trkpt lat="31.339500015601516" lon="-5.339402994140983">
        <ele>1193.0999999999999</ele>
        <time>2003-04-14T11:23:38Z</time>
      </trkpt>
      <trkpt lat="31.339464979246259" lon="-5.339254969730973">
        <ele>1192.0999999999999</ele>
        <time>2003-04-14T11:23:41Z</time>
      </trkpt>
      <trkpt lat="31.339389961212873" lon="-5.338822966441512">
        <ele>1192.2</ele>
        <time>2003-04-14T11:23:50Z</time>
      </trkpt>
      <trkpt lat="31.339383004233241" lon="-5.338628003373742">
        <ele>1192.2</ele>
        <time>2003-04-14T11:23:57Z</time>
      </trkpt>
      <trkpt lat="31.339476965367794" lon="-5.33855801448226">
        <ele>1192.2</ele>
        <time>2003-04-14T11:24:01Z</time>
      </trkpt>
      <trkpt lat="31.339592970907688" lon="-5.338505040854216">
        <ele>1192.2</ele>
        <time>2003-04-14T11:24:04Z</time>
      </trkpt>
      <trkpt lat="31.33966295979917" lon="-5.338424993678927">
        <ele>1191.9000000000001</ele>
        <time>2003-04-14T11:24:05Z</time>
      </trkpt>
      <trkpt lat="31.33970201946795" lon="-5.338319968432188">
        <ele>1192.0999999999999</ele>
        <time>2003-04-14T11:24:08Z</time>
      </trkpt>
      <trkpt lat="31.339697996154428" lon="-5.33817496150732">
        <ele>1192.4000000000001</ele>
        <time>2003-04-14T11:24:10Z</time>
      </trkpt>
      <trkpt lat="31.33966295979917" lon="-5.338028026744723">
        <ele>1192.4000000000001</ele>
        <time>2003-04-14T11:24:14Z</time>
      </trkpt>
      <trkpt lat="31.339606968685985" lon="-5.337791992351413">
        <ele>1191.4000000000001</ele>
        <time>2003-04-14T11:24:21Z</time>
      </trkpt>
      <trkpt lat="31.339645022526383" lon="-5.337670035660267">
        <ele>1190.8</ele>
        <time>2003-04-14T11:24:24Z</time>
      </trkpt>
      <trkpt lat="31.339630018919706" lon="-5.337552018463612">
        <ele>1190.5</ele>
        <time>2003-04-14T11:24:27Z</time>
      </trkpt>
      <trkpt lat="31.339579978957772" lon="-5.337380021810532">
        <ele>1190.7</ele>
        <time>2003-04-14T11:24:40Z</time>
      </trkpt>
      <trkpt lat="31.339587019756436" lon="-5.337247001007199">
        <ele>1190.8</ele>
        <time>2003-04-14T11:24:47Z</time>
      </trkpt>
      <trkpt lat="31.339557012543082" lon="-5.337052037939429">
        <ele>1191.0999999999999</ele>
        <time>2003-04-14T11:24:55Z</time>
      </trkpt>
      <trkpt lat="31.339551983401179" lon="-5.336899990215898">
        <ele>1191.2</ele>
        <time>2003-04-14T11:24:58Z</time>
      </trkpt>
      <trkpt lat="31.33955298922956" lon="-5.336752971634269">
        <ele>1191.4000000000001</ele>
        <time>2003-04-14T11:25:00Z</time>
      </trkpt>
      <trkpt lat="31.339603029191494" lon="-5.336651969701052">
        <ele>1191.5999999999999</ele>
        <time>2003-04-14T11:25:03Z</time>
      </trkpt>
      <trkpt lat="31.339622978121042" lon="-5.336521966382861">
        <ele>1191.5</ele>
        <time>2003-04-14T11:25:07Z</time>
      </trkpt>
      <trkpt lat="31.339651979506016" lon="-5.336349969729781">
        <ele>1191.2</ele>
        <time>2003-04-14T11:25:10Z</time>
      </trkpt>
      <trkpt lat="31.339732026681304" lon="-5.336122987791896">
        <ele>1191.2</ele>
        <time>2003-04-14T11:25:14Z</time>
      </trkpt>
      <trkpt lat="31.339758010581136" lon="-5.336017962545157">
        <ele>1191.2</ele>
        <time>2003-04-14T11:25:15Z</time>
      </trkpt>
      <trkpt lat="31.33981199003756" lon="-5.335801960900426">
        <ele>1190.4000000000001</ele>
        <time>2003-04-14T11:25:19Z</time>
      </trkpt>
      <trkpt lat="31.339830011129379" lon="-5.335695007815957">
        <ele>1191</ele>
        <time>2003-04-14T11:25:22Z</time>
      </trkpt>
      <trkpt lat="31.339862029999495" lon="-5.335593000054359">
        <ele>1190.5999999999999</ele>
        <time>2003-04-14T11:25:23Z</time>
      </trkpt>
      <trkpt lat="31.339909974485636" lon="-5.335468025878072">
        <ele>1190.7</ele>
        <time>2003-04-14T11:25:27Z</time>
      </trkpt>
      <trkpt lat="31.340051963925362" lon="-5.335372975096107">
        <ele>1190.7</ele>
        <time>2003-04-14T11:25:46Z</time>
      </trkpt>
      <trkpt lat="31.340084988623857" lon="-5.335267027840018">
        <ele>1190.7</ele>
        <time>2003-04-14T11:25:49Z</time>
      </trkpt>
      <trkpt lat="31.340127987787127" lon="-5.335168037563562">
        <ele>1190.2</ele>
        <time>2003-04-14T11:25:50Z</time>
      </trkpt>
      <trkpt lat="31.340199988335371" lon="-5.335062006488442">
        <ele>1189.8</ele>
        <time>2003-04-14T11:25:53Z</time>
      </trkpt>
      <trkpt lat="31.340316999703646" lon="-5.335022024810314">
        <ele>1189.5</ele>
        <time>2003-04-14T11:25:54Z</time>
      </trkpt>
      <trkpt lat="31.340441973879933" lon="-5.334947006776929">
        <ele>1189.4000000000001</ele>
        <time>2003-04-14T11:25:57Z</time>
      </trkpt>
      <trkpt lat="31.340623022988439" lon="-5.334790013730526">
        <ele>1189.4000000000001</ele>
        <time>2003-04-14T11:26:00Z</time>
      </trkpt>
      <trkpt lat="31.340720001608133" lon="-5.334665039554238">
        <ele>1189.2</ele>
        <time>2003-04-14T11:26:01Z</time>
      </trkpt>
      <trkpt lat="31.340893004089594" lon="-5.334421964362264">
        <ele>1189.0999999999999</ele>
        <time>2003-04-14T11:26:05Z</time>
      </trkpt>
      <trkpt lat="31.340912031009793" lon="-5.334230018779635">
        <ele>1188.8</ele>
        <time>2003-04-14T11:26:13Z</time>
      </trkpt>
      <trkpt lat="31.340982019901276" lon="-5.334081994369626">
        <ele>1188.5999999999999</ele>
        <time>2003-04-14T11:26:16Z</time>
      </trkpt>
      <trkpt lat="31.340986965224147" lon="-5.333958026021719">
        <ele>1188.4000000000001</ele>
        <time>2003-04-14T11:26:17Z</time>
      </trkpt>
      <trkpt lat="31.340968022122979" lon="-5.333797009661794">
        <ele>1188.0999999999999</ele>
        <time>2003-04-14T11:26:20Z</time>
      </trkpt>
      <trkpt lat="31.340910019353032" lon="-5.333636999130249">
        <ele>1187.8</ele>
        <time>2003-04-14T11:26:21Z</time>
      </trkpt>
      <trkpt lat="31.340825026854873" lon="-5.333502972498536">
        <ele>1187.3</ele>
        <time>2003-04-14T11:26:24Z</time>
      </trkpt>
      <trkpt lat="31.340682031586766" lon="-5.333350002765656">
        <ele>1185.0999999999999</ele>
        <time>2003-04-14T11:26:27Z</time>
      </trkpt>
      <trkpt lat="31.3406250346452" lon="-5.333229973912239">
        <ele>1184.7</ele>
        <time>2003-04-14T11:26:28Z</time>
      </trkpt>
      <trkpt lat="31.34062796831131" lon="-5.333054959774017">
        <ele>1184.7</ele>
        <time>2003-04-14T11:26:31Z</time>
      </trkpt>
      <trkpt lat="31.340611958876252" lon="-5.332841975614429">
        <ele>1184.9000000000001</ele>
        <time>2003-04-14T11:26:32Z</time>
      </trkpt>
      <trkpt lat="31.340535013005137" lon="-5.331828016787767">
        <ele>1184.4000000000001</ele>
        <time>2003-04-14T11:26:42Z</time>
      </trkpt>
      <trkpt lat="31.340511962771416" lon="-5.331604974344373">
        <ele>1184.5</ele>
        <time>2003-04-14T11:26:43Z</time>
      </trkpt>
      <trkpt lat="31.340501988306642" lon="-5.331155033782125">
        <ele>1184</ele>
        <time>2003-04-14T11:26:47Z</time>
      </trkpt>
      <trkpt lat="31.340517997741699" lon="-5.330961998552084">
        <ele>1183.8</ele>
        <time>2003-04-14T11:26:50Z</time>
      </trkpt>
      <trkpt lat="31.340465024113655" lon="-5.330769969150424">
        <ele>1183.2</ele>
        <time>2003-04-14T11:26:51Z</time>
      </trkpt>
      <trkpt lat="31.340429987758398" lon="-5.330557990819216">
        <ele>1182.5</ele>
        <time>2003-04-14T11:26:54Z</time>
      </trkpt>
      <trkpt lat="31.340393023565412" lon="-5.330017022788525">
        <ele>1182.4000000000001</ele>
        <time>2003-04-14T11:26:59Z</time>
      </trkpt>
      <trkpt lat="31.340378019958735" lon="-5.329719968140125">
        <ele>1181.9000000000001</ele>
        <time>2003-04-14T11:27:02Z</time>
      </trkpt>
      <trkpt lat="31.340359998866916" lon="-5.329510001465678">
        <ele>1181.5999999999999</ele>
        <time>2003-04-14T11:27:03Z</time>
      </trkpt>
      <trkpt lat="31.340353041887283" lon="-5.328665021806955">
        <ele>1181.4000000000001</ele>
        <time>2003-04-14T11:27:11Z</time>
      </trkpt>
      <trkpt lat="31.340393023565412" lon="-5.328522026538849">
        <ele>1181.7</ele>
        <time>2003-04-14T11:27:14Z</time>
      </trkpt>
      <trkpt lat="31.340514980256557" lon="-5.328447008505464">
        <ele>1181.8</ele>
        <time>2003-04-14T11:27:15Z</time>
      </trkpt>
      <trkpt lat="31.340623022988439" lon="-5.328323040157557">
        <ele>1181.0999999999999</ele>
        <time>2003-04-14T11:27:18Z</time>
      </trkpt>
      <trkpt lat="31.340683037415147" lon="-5.328154982998967">
        <ele>1181</ele>
        <time>2003-04-14T11:27:19Z</time>
      </trkpt>
      <trkpt lat="31.340693011879921" lon="-5.327984998002648">
        <ele>1180.9000000000001</ele>
        <time>2003-04-14T11:27:22Z</time>
      </trkpt>
      <trkpt lat="31.340683037415147" lon="-5.327673023566604">
        <ele>1180.9000000000001</ele>
        <time>2003-04-14T11:27:25Z</time>
      </trkpt>
      <trkpt lat="31.34071203880012" lon="-5.327430032193661">
        <ele>1181.2</ele>
        <time>2003-04-14T11:27:26Z</time>
      </trkpt>
      <trkpt lat="31.340768029913306" lon="-5.326808011159301">
        <ele>1180.4000000000001</ele>
        <time>2003-04-14T11:27:32Z</time>
      </trkpt>
      <trkpt lat="31.340784961357713" lon="-5.326702985912561">
        <ele>1181</ele>
        <time>2003-04-14T11:27:33Z</time>
      </trkpt>
      <trkpt lat="31.340841958299279" lon="-5.326550016179681">
        <ele>1180.5</ele>
        <time>2003-04-14T11:27:34Z</time>
      </trkpt>
      <trkpt lat="31.340957963839173" lon="-5.326252039521933">
        <ele>1180.2</ele>
        <time>2003-04-14T11:27:37Z</time>
      </trkpt>
      <trkpt lat="31.341158039867878" lon="-5.325782988220453">
        <ele>1179.7</ele>
        <time>2003-04-14T11:27:41Z</time>
      </trkpt>
      <trkpt lat="31.341210007667542" lon="-5.32551703043282">
        <ele>1179.4000000000001</ele>
        <time>2003-04-14T11:27:44Z</time>
      </trkpt>
      <trkpt lat="31.341295000165701" lon="-5.325242020189762">
        <ele>1179</ele>
        <time>2003-04-14T11:27:45Z</time>
      </trkpt>
      <trkpt lat="31.341555006802082" lon="-5.324555039405823">
        <ele>1178.4000000000001</ele>
        <time>2003-04-14T11:27:50Z</time>
      </trkpt>
      <trkpt lat="31.341647962108254" lon="-5.324296960607171">
        <ele>1178.5</ele>
        <time>2003-04-14T11:27:53Z</time>
      </trkpt>
      <trkpt lat="31.341797998175025" lon="-5.324027985334396">
        <ele>1178.3</ele>
        <time>2003-04-14T11:27:54Z</time>
      </trkpt>
      <trkpt lat="31.342292027547956" lon="-5.323028024286032">
        <ele>1177.2</ele>
        <time>2003-04-14T11:28:01Z</time>
      </trkpt>
      <trkpt lat="31.34255999699235" lon="-5.322557967156172">
        <ele>1176.9000000000001</ele>
        <time>2003-04-14T11:28:05Z</time>
      </trkpt>
      <trkpt lat="31.342699974775314" lon="-5.322365015745163">
        <ele>1176.4000000000001</ele>
        <time>2003-04-14T11:28:08Z</time>
      </trkpt>
      <trkpt lat="31.343187969177961" lon="-5.321473013609648">
        <ele>1175.8</ele>
        <time>2003-04-14T11:28:16Z</time>
      </trkpt>
      <trkpt lat="31.343372035771608" lon="-5.32111301086843">
        <ele>1175.5999999999999</ele>
        <time>2003-04-14T11:28:19Z</time>
      </trkpt>
      <trkpt lat="31.343459961935878" lon="-5.320879993960261">
        <ele>1175.3</ele>
        <time>2003-04-14T11:28:20Z</time>
      </trkpt>
      <trkpt lat="31.343536991626024" lon="-5.320667009800673">
        <ele>1175.5999999999999</ele>
        <time>2003-04-14T11:28:23Z</time>
      </trkpt>
      <trkpt lat="31.34361301548779" lon="-5.320591991767287">
        <ele>1175.5999999999999</ele>
        <time>2003-04-14T11:28:24Z</time>
      </trkpt>
      <trkpt lat="31.343709994107485" lon="-5.320527032017708">
        <ele>1175.5</ele>
        <time>2003-04-14T11:28:24Z</time>
      </trkpt>
      <trkpt lat="31.344130011275411" lon="-5.320287980139256">
        <ele>1174.5</ele>
        <time>2003-04-14T11:28:28Z</time>
      </trkpt>
      <trkpt lat="31.344327991828322" lon="-5.320195024833083">
        <ele>1174.0999999999999</ele>
        <time>2003-04-14T11:28:31Z</time>
      </trkpt>
      <trkpt lat="31.344403009861708" lon="-5.320129981264472">
        <ele>1173.7</ele>
        <time>2003-04-14T11:28:31Z</time>
      </trkpt>
      <trkpt lat="31.344486996531487" lon="-5.320082036778331">
        <ele>1173.8</ele>
        <time>2003-04-14T11:28:32Z</time>
      </trkpt>
      <trkpt lat="31.344848005101085" lon="-5.319860000163317">
        <ele>1173.2</ele>
        <time>2003-04-14T11:28:36Z</time>
      </trkpt>
      <trkpt lat="31.344912964850664" lon="-5.31978196464479">
        <ele>1172.9000000000001</ele>
        <time>2003-04-14T11:28:38Z</time>
      </trkpt>
      <trkpt lat="31.34552501142025" lon="-5.319009991362691">
        <ele>1172.7</ele>
        <time>2003-04-14T11:28:46Z</time>
      </trkpt>
      <trkpt lat="31.345619978383183" lon="-5.318937990814447">
        <ele>1172.5999999999999</ele>
        <time>2003-04-14T11:28:47Z</time>
      </trkpt>
      <trkpt lat="31.345800021663308" lon="-5.318794995546341">
        <ele>1172.3</ele>
        <time>2003-04-14T11:28:48Z</time>
      </trkpt>
      <trkpt lat="31.34593203663826" lon="-5.318619981408119">
        <ele>1172.3</ele>
        <time>2003-04-14T11:28:51Z</time>
      </trkpt>
      <trkpt lat="31.346081988885999" lon="-5.318517973646522">
        <ele>1172.0999999999999</ele>
        <time>2003-04-14T11:28:53Z</time>
      </trkpt>
      <trkpt lat="31.346245016902685" lon="-5.318519985303283">
        <ele>1172.5</ele>
        <time>2003-04-14T11:28:55Z</time>
      </trkpt>
      <trkpt lat="31.346358004957438" lon="-5.31838696449995">
        <ele>1172.2</ele>
        <time>2003-04-14T11:28:57Z</time>
      </trkpt>
      <trkpt lat="31.346582975238562" lon="-5.31795697286725">
        <ele>1171.5</ele>
        <time>2003-04-14T11:29:02Z</time>
      </trkpt>
      <trkpt lat="31.346602002158761" lon="-5.31784800812602">
        <ele>1171.4000000000001</ele>
        <time>2003-04-14T11:29:02Z</time>
      </trkpt>
      <trkpt lat="31.346681965515018" lon="-5.317212995141745">
        <ele>1170.9000000000001</ele>
        <time>2003-04-14T11:29:09Z</time>
      </trkpt>
      <trkpt lat="31.346732005476952" lon="-5.317122973501682">
        <ele>1170.5999999999999</ele>
        <time>2003-04-14T11:29:10Z</time>
      </trkpt>
      <trkpt lat="31.347178006544709" lon="-5.316270031034946">
        <ele>1169.9000000000001</ele>
        <time>2003-04-14T11:29:18Z</time>
      </trkpt>
      <trkpt lat="31.347177000716329" lon="-5.316065009683371">
        <ele>1169.8</ele>
        <time>2003-04-14T11:29:21Z</time>
      </trkpt>
      <trkpt lat="31.347192004323006" lon="-5.315693020820618">
        <ele>1169.5</ele>
        <time>2003-04-14T11:29:24Z</time>
      </trkpt>
      <trkpt lat="31.34724497795105" lon="-5.31490202061832">
        <ele>1170.4000000000001</ele>
        <time>2003-04-14T11:29:30Z</time>
      </trkpt>
      <trkpt lat="31.347257969900966" lon="-5.314612006768584">
        <ele>1170.5</ele>
        <time>2003-04-14T11:29:33Z</time>
      </trkpt>
      <trkpt lat="31.347268028184772" lon="-5.314327022060752">
        <ele>1169.9000000000001</ele>
        <time>2003-04-14T11:29:37Z</time>
      </trkpt>
      <trkpt lat="31.347322007641196" lon="-5.313972970470786">
        <ele>1168.7</ele>
        <time>2003-04-14T11:29:41Z</time>
      </trkpt>
      <trkpt lat="31.347241960465908" lon="-5.313827963545919">
        <ele>1169</ele>
        <time>2003-04-14T11:29:42Z</time>
      </trkpt>
      <trkpt lat="31.347238020971417" lon="-5.313659990206361">
        <ele>1169.8</ele>
        <time>2003-04-14T11:29:45Z</time>
      </trkpt>
      <trkpt lat="31.347317984327674" lon="-5.313497968018055">
        <ele>1170.5999999999999</ele>
        <time>2003-04-14T11:29:47Z</time>
      </trkpt>
      <trkpt lat="31.347383027896285" lon="-5.313309961929917">
        <ele>1170.7</ele>
        <time>2003-04-14T11:29:49Z</time>
      </trkpt>
      <trkpt lat="31.347397025674582" lon="-5.31320502050221">
        <ele>1171.2</ele>
        <time>2003-04-14T11:29:49Z</time>
      </trkpt>
      <trkpt lat="31.347401970997453" lon="-5.312992036342621">
        <ele>1172.7</ele>
        <time>2003-04-14T11:29:52Z</time>
      </trkpt>
      <trkpt lat="31.347410017624497" lon="-5.312430029734969">
        <ele>1174.7</ele>
        <time>2003-04-14T11:29:56Z</time>
      </trkpt>
      <trkpt lat="31.347446981817484" lon="-5.312322992831469">
        <ele>1175.3</ele>
        <time>2003-04-14T11:29:57Z</time>
      </trkpt>
      <trkpt lat="31.34775803424418" lon="-5.31146502122283">
        <ele>1174.2</ele>
        <time>2003-04-14T11:30:05Z</time>
      </trkpt>
      <trkpt lat="31.347807990387082" lon="-5.311277015134692">
        <ele>1174</ele>
        <time>2003-04-14T11:30:08Z</time>
      </trkpt>
      <trkpt lat="31.347827017307281" lon="-5.311054978519678">
        <ele>1172.9000000000001</ele>
        <time>2003-04-14T11:30:09Z</time>
      </trkpt>
      <trkpt lat="31.347840009257197" lon="-5.310566984117031">
        <ele>1172.8</ele>
        <time>2003-04-14T11:30:15Z</time>
      </trkpt>
      <trkpt lat="31.347864987328649" lon="-5.310277976095676">
        <ele>1173.9000000000001</ele>
        <time>2003-04-14T11:30:18Z</time>
      </trkpt>
      <trkpt lat="31.347931958734989" lon="-5.310097010806203">
        <ele>1173.0999999999999</ele>
        <time>2003-04-14T11:30:19Z</time>
      </trkpt>
      <trkpt lat="31.348049975931644" lon="-5.309757040813565">
        <ele>1173.2</ele>
        <time>2003-04-14T11:30:23Z</time>
      </trkpt>
      <trkpt lat="31.348247034475207" lon="-5.309026977047324">
        <ele>1171.2</ele>
        <time>2003-04-14T11:30:28Z</time>
      </trkpt>
      <trkpt lat="31.348320040851831" lon="-5.30856697820127">
        <ele>1168.9000000000001</ele>
        <time>2003-04-14T11:30:32Z</time>
      </trkpt>
      <trkpt lat="31.34833998978138" lon="-5.30845700763166">
        <ele>1168.2</ele>
        <time>2003-04-14T11:30:34Z</time>
      </trkpt>
      <trkpt lat="31.348472004756331" lon="-5.307413041591644">
        <ele>1169.7</ele>
        <time>2003-04-14T11:30:43Z</time>
      </trkpt>
      <trkpt lat="31.348573006689548" lon="-5.307282032445073">
        <ele>1168.3</ele>
        <time>2003-04-14T11:30:45Z</time>
      </trkpt>
      <trkpt lat="31.34872698225081" lon="-5.307216988876462">
        <ele>1167.9000000000001</ele>
        <time>2003-04-14T11:30:46Z</time>
      </trkpt>
      <trkpt lat="31.348878024145961" lon="-5.3071269672364">
        <ele>1167.0999999999999</ele>
        <time>2003-04-14T11:30:49Z</time>
      </trkpt>
      <trkpt lat="31.349171977490187" lon="-5.306918006390333">
        <ele>1166.7</ele>
        <time>2003-04-14T11:30:53Z</time>
      </trkpt>
      <trkpt lat="31.349314972758293" lon="-5.306832008063793">
        <ele>1166.2</ele>
        <time>2003-04-14T11:30:54Z</time>
      </trkpt>
      <trkpt lat="31.349491998553276" lon="-5.306687001138926">
        <ele>1165.8</ele>
        <time>2003-04-14T11:30:58Z</time>
      </trkpt>
      <trkpt lat="31.34967003017664" lon="-5.306457001715899">
        <ele>1165.5</ele>
        <time>2003-04-14T11:31:02Z</time>
      </trkpt>
      <trkpt lat="31.349712023511529" lon="-5.306307971477509">
        <ele>1166.3</ele>
        <time>2003-04-14T11:31:03Z</time>
      </trkpt>
      <trkpt lat="31.349777989089489" lon="-5.305907987058163">
        <ele>1166</ele>
        <time>2003-04-14T11:31:09Z</time>
      </trkpt>
      <trkpt lat="31.349742030724883" lon="-5.30579499900341">
        <ele>1165.5999999999999</ele>
        <time>2003-04-14T11:31:10Z</time>
      </trkpt>
      <trkpt lat="31.34964999742806" lon="-5.305716963484883">
        <ele>1165.5999999999999</ele>
        <time>2003-04-14T11:31:13Z</time>
      </trkpt>
      <trkpt lat="31.349552012979984" lon="-5.30560296960175">
        <ele>1165.8</ele>
        <time>2003-04-14T11:31:17Z</time>
      </trkpt>
      <trkpt lat="31.349508007988334" lon="-5.305457040667534">
        <ele>1166.4000000000001</ele>
        <time>2003-04-14T11:31:18Z</time>
      </trkpt>
      <trkpt lat="31.349519994109869" lon="-5.305271968245506">
        <ele>1167.2</ele>
        <time>2003-04-14T11:31:21Z</time>
      </trkpt>
      <trkpt lat="31.349510019645095" lon="-5.305071976035833">
        <ele>1167</ele>
        <time>2003-04-14T11:31:22Z</time>
      </trkpt>
      <trkpt lat="31.349508007988334" lon="-5.304792020469904">
        <ele>1168.8</ele>
        <time>2003-04-14T11:31:25Z</time>
      </trkpt>
      <trkpt lat="31.349553018808365" lon="-5.304582975804806">
        <ele>1169.0999999999999</ele>
        <time>2003-04-14T11:31:29Z</time>
      </trkpt>
      <trkpt lat="31.349613033235073" lon="-5.304473005235195">
        <ele>1168.5999999999999</ele>
        <time>2003-04-14T11:31:30Z</time>
      </trkpt>
      <trkpt lat="31.349682016298175" lon="-5.304351970553398">
        <ele>1167.8</ele>
        <time>2003-04-14T11:31:33Z</time>
      </trkpt>
      <trkpt lat="31.349697019904852" lon="-5.304205035790801">
        <ele>1167.2</ele>
        <time>2003-04-14T11:31:35Z</time>
      </trkpt>
      <trkpt lat="31.349742030724883" lon="-5.304070003330708">
        <ele>1166.5</ele>
        <time>2003-04-14T11:31:37Z</time>
      </trkpt>
      <trkpt lat="31.349787963554263" lon="-5.303921978920698">
        <ele>1165.4000000000001</ele>
        <time>2003-04-14T11:31:39Z</time>
      </trkpt>
      <trkpt lat="31.34982299990952" lon="-5.303632970899344">
        <ele>1164.7</ele>
        <time>2003-04-14T11:31:41Z</time>
      </trkpt>
      <trkpt lat="31.349900029599667" lon="-5.303219994530082">
        <ele>1163.7</ele>
        <time>2003-04-14T11:31:47Z</time>
      </trkpt>
      <trkpt lat="31.349943028762937" lon="-5.303037017583847">
        <ele>1164.7</ele>
        <time>2003-04-14T11:31:49Z</time>
      </trkpt>
      <trkpt lat="31.350034978240728" lon="-5.302662011235952">
        <ele>1164.3</ele>
        <time>2003-04-14T11:31:56Z</time>
      </trkpt>
      <trkpt lat="31.350085018202662" lon="-5.302452966570854">
        <ele>1163.9000000000001</ele>
        <time>2003-04-14T11:31:57Z</time>
      </trkpt>
      <trkpt lat="31.350264977663755" lon="-5.301843015477061">
        <ele>1164.3</ele>
        <time>2003-04-14T11:32:04Z</time>
      </trkpt>
      <trkpt lat="31.350360028445721" lon="-5.301719969138503">
        <ele>1164.3</ele>
        <time>2003-04-14T11:32:07Z</time>
      </trkpt>
      <trkpt lat="31.350592039525509" lon="-5.30143297277391">
        <ele>1163.0999999999999</ele>
        <time>2003-04-14T11:32:11Z</time>
      </trkpt>
      <trkpt lat="31.350924968719482" lon="-5.300955036655068">
        <ele>1161</ele>
        <time>2003-04-14T11:32:16Z</time>
      </trkpt>
      <trkpt lat="31.351042985916138" lon="-5.300627974793315">
        <ele>1160.5</ele>
        <time>2003-04-14T11:32:19Z</time>
      </trkpt>
      <trkpt lat="31.351192016154528" lon="-5.300214998424053">
        <ele>1159.9000000000001</ele>
        <time>2003-04-14T11:32:23Z</time>
      </trkpt>
      <trkpt lat="31.351290000602603" lon="-5.300039984285832">
        <ele>1160</ele>
        <time>2003-04-14T11:32:26Z</time>
      </trkpt>
      <trkpt lat="31.351425033062696" lon="-5.299891959875822">
        <ele>1159.8</ele>
        <time>2003-04-14T11:32:27Z</time>
      </trkpt>
      <trkpt lat="31.351559981703758" lon="-5.299796992912889">
        <ele>1160.4000000000001</ele>
        <time>2003-04-14T11:32:30Z</time>
      </trkpt>
      <trkpt lat="31.351667018607259" lon="-5.299694985151291">
        <ele>1161.5</ele>
        <time>2003-04-14T11:32:31Z</time>
      </trkpt>
      <trkpt lat="31.351959966123104" lon="-5.299432966858149">
        <ele>1162.2</ele>
        <time>2003-04-14T11:32:37Z</time>
      </trkpt>
      <trkpt lat="31.352067003026605" lon="-5.299340011551976">
        <ele>1162.2</ele>
        <time>2003-04-14T11:32:38Z</time>
      </trkpt>
      <trkpt lat="31.352161969989538" lon="-5.299189975485206">
        <ele>1162.7</ele>
        <time>2003-04-14T11:32:41Z</time>
      </trkpt>
      <trkpt lat="31.352372020483017" lon="-5.298774987459183">
        <ele>1162.5999999999999</ele>
        <time>2003-04-14T11:32:46Z</time>
      </trkpt>
      <trkpt lat="31.352736968547106" lon="-5.297815008088946">
        <ele>1161.0999999999999</ele>
        <time>2003-04-14T11:32:57Z</time>
      </trkpt>
      <trkpt lat="31.352854985743761" lon="-5.297603029757738">
        <ele>1159.7</ele>
        <time>2003-04-14T11:33:00Z</time>
      </trkpt>
      <trkpt lat="31.353102000430226" lon="-5.297053009271622">
        <ele>1159.8</ele>
        <time>2003-04-14T11:33:06Z</time>
      </trkpt>
      <trkpt lat="31.353177018463612" lon="-5.296895010396838">
        <ele>1159.5999999999999</ele>
        <time>2003-04-14T11:33:09Z</time>
      </trkpt>
      <trkpt lat="31.353307021781802" lon="-5.296483039855957">
        <ele>1161.5</ele>
        <time>2003-04-14T11:33:13Z</time>
      </trkpt>
      <trkpt lat="31.353396959602833" lon="-5.296203000470996">
        <ele>1161.3</ele>
        <time>2003-04-14T11:33:17Z</time>
      </trkpt>
      <trkpt lat="31.353542972356081" lon="-5.295926984399557">
        <ele>1160.8</ele>
        <time>2003-04-14T11:33:20Z</time>
      </trkpt>
      <trkpt lat="31.353919990360737" lon="-5.29485703445971">
        <ele>1159.5999999999999</ele>
        <time>2003-04-14T11:33:29Z</time>
      </trkpt>
      <trkpt lat="31.354100033640862" lon="-5.294335009530187">
        <ele>1157.8</ele>
        <time>2003-04-14T11:33:35Z</time>
      </trkpt>
      <trkpt lat="31.354234982281923" lon="-5.293505033478141">
        <ele>1157.2</ele>
        <time>2003-04-14T11:33:41Z</time>
      </trkpt>
      <trkpt lat="31.354251997545362" lon="-5.293075041845441">
        <ele>1157.2</ele>
        <time>2003-04-14T11:33:45Z</time>
      </trkpt>
      <trkpt lat="31.354276975616813" lon="-5.29296699911356">
        <ele>1156.7</ele>
        <time>2003-04-14T11:33:47Z</time>
      </trkpt>
      <trkpt lat="31.354283010587096" lon="-5.292847976088524">
        <ele>1156.3</ele>
        <time>2003-04-14T11:33:48Z</time>
      </trkpt>
      <trkpt lat="31.354325003921986" lon="-5.292549999430776">
        <ele>1156.8</ele>
        <time>2003-04-14T11:33:51Z</time>
      </trkpt>
      <trkpt lat="31.354328021407127" lon="-5.292367022484541">
        <ele>1157.2</ele>
        <time>2003-04-14T11:33:52Z</time>
      </trkpt>
      <trkpt lat="31.354351993650198" lon="-5.292077008634806">
        <ele>1158.5</ele>
        <time>2003-04-14T11:33:55Z</time>
      </trkpt>
      <trkpt lat="31.354379989206791" lon="-5.291895037516952">
        <ele>1158.0999999999999</ele>
        <time>2003-04-14T11:33:58Z</time>
      </trkpt>
      <trkpt lat="31.354357022792101" lon="-5.291711976751685">
        <ele>1158.2</ele>
        <time>2003-04-14T11:33:59Z</time>
      </trkpt>
      <trkpt lat="31.354304971173406" lon="-5.291436966508627">
        <ele>1158.5</ele>
        <time>2003-04-14T11:34:03Z</time>
      </trkpt>
      <trkpt lat="31.354197012260556" lon="-5.291187018156052">
        <ele>1157.5999999999999</ele>
        <time>2003-04-14T11:34:06Z</time>
      </trkpt>
      <trkpt lat="31.354182008653879" lon="-5.291000017896295">
        <ele>1157.7</ele>
        <time>2003-04-14T11:34:07Z</time>
      </trkpt>
      <trkpt lat="31.35420698672533" lon="-5.290897004306316">
        <ele>1157.4000000000001</ele>
        <time>2003-04-14T11:34:08Z</time>
      </trkpt>
      <trkpt lat="31.354288039728999" lon="-5.290687037631869">
        <ele>1156.5</ele>
        <time>2003-04-14T11:34:11Z</time>
      </trkpt>
      <trkpt lat="31.354374960064888" lon="-5.290465001016855">
        <ele>1155.9000000000001</ele>
        <time>2003-04-14T11:34:12Z</time>
      </trkpt>
      <trkpt lat="31.354555003345013" lon="-5.290010031312704">
        <ele>1156.2</ele>
        <time>2003-04-14T11:34:17Z</time>
      </trkpt>
      <trkpt lat="31.354647036641836" lon="-5.289795035496354">
        <ele>1155.7</ele>
        <time>2003-04-14T11:34:19Z</time>
      </trkpt>
      <trkpt lat="31.354672014713287" lon="-5.289671989157796">
        <ele>1155.5999999999999</ele>
        <time>2003-04-14T11:34:19Z</time>
      </trkpt>
      <trkpt lat="31.354736974462867" lon="-5.289439978078008">
        <ele>1155.5</ele>
        <time>2003-04-14T11:34:22Z</time>
      </trkpt>
      <trkpt lat="31.35485197417438" lon="-5.289152981713414">
        <ele>1155.7</ele>
        <time>2003-04-14T11:34:25Z</time>
      </trkpt>
      <trkpt lat="31.354927998036146" lon="-5.289003029465675">
        <ele>1155</ele>
        <time>2003-04-14T11:34:26Z</time>
      </trkpt>
      <trkpt lat="31.355007039383054" lon="-5.288855005055666">
        <ele>1155.0999999999999</ele>
        <time>2003-04-14T11:34:29Z</time>
      </trkpt>
      <trkpt lat="31.355060013011098" lon="-5.28869197703898">
        <ele>1154.8</ele>
        <time>2003-04-14T11:34:30Z</time>
      </trkpt>
      <trkpt lat="31.355058001354337" lon="-5.288532972335815">
        <ele>1154.4000000000001</ele>
        <time>2003-04-14T11:34:33Z</time>
      </trkpt>
      <trkpt lat="31.354972003027797" lon="-5.288386959582567">
        <ele>1154.9000000000001</ele>
        <time>2003-04-14T11:34:34Z</time>
      </trkpt>
      <trkpt lat="31.354817021638155" lon="-5.288298027589917">
        <ele>1155.2</ele>
        <time>2003-04-14T11:34:37Z</time>
      </trkpt>
      <trkpt lat="31.354521978646517" lon="-5.288125025108457">
        <ele>1156.0999999999999</ele>
        <time>2003-04-14T11:34:41Z</time>
      </trkpt>
      <trkpt lat="31.354409996420145" lon="-5.287978006526828">
        <ele>1156.7</ele>
        <time>2003-04-14T11:34:44Z</time>
      </trkpt>
      <trkpt lat="31.354234982281923" lon="-5.287757981568575">
        <ele>1156.8</ele>
        <time>2003-04-14T11:34:46Z</time>
      </trkpt>
      <trkpt lat="31.354087041690946" lon="-5.287650022655726">
        <ele>1157.0999999999999</ele>
        <time>2003-04-14T11:34:48Z</time>
      </trkpt>
      <trkpt lat="31.35366702452302" lon="-5.28733997605741">
        <ele>1158.4000000000001</ele>
        <time>2003-04-14T11:34:53Z</time>
      </trkpt>
      <trkpt lat="31.353035029023886" lon="-5.286851981654763">
        <ele>1160.2</ele>
        <time>2003-04-14T11:35:00Z</time>
      </trkpt>
      <trkpt lat="31.352907037362456" lon="-5.286722984164953">
        <ele>1160.7</ele>
        <time>2003-04-14T11:35:01Z</time>
      </trkpt>
      <trkpt lat="31.35274501517415" lon="-5.286637991666794">
        <ele>1161.0999999999999</ele>
        <time>2003-04-14T11:35:04Z</time>
      </trkpt>
      <trkpt lat="31.352602019906044" lon="-5.286532966420054">
        <ele>1161.3</ele>
        <time>2003-04-14T11:35:05Z</time>
      </trkpt>
      <trkpt lat="31.352477967739105" lon="-5.286419978365302">
        <ele>1161.5999999999999</ele>
        <time>2003-04-14T11:35:08Z</time>
      </trkpt>
      <trkpt lat="31.352291973307729" lon="-5.286252005025744">
        <ele>1161.9000000000001</ele>
        <time>2003-04-14T11:35:11Z</time>
      </trkpt>
      <trkpt lat="31.352068008854985" lon="-5.286138011142612">
        <ele>1162.5999999999999</ele>
        <time>2003-04-14T11:35:13Z</time>
      </trkpt>
      <trkpt lat="31.35175796225667" lon="-5.286034997552633">
        <ele>1162.9000000000001</ele>
        <time>2003-04-14T11:35:17Z</time>
      </trkpt>
      <trkpt lat="31.351417992264032" lon="-5.285965008661151">
        <ele>1163.7</ele>
        <time>2003-04-14T11:35:21Z</time>
      </trkpt>
      <trkpt lat="31.351235015317798" lon="-5.285937013104558">
        <ele>1164.5</ele>
        <time>2003-04-14T11:35:24Z</time>
      </trkpt>
      <trkpt lat="31.350694969296455" lon="-5.28585503809154">
        <ele>1166.3</ele>
        <time>2003-04-14T11:35:29Z</time>
      </trkpt>
      <trkpt lat="31.35050998069346" lon="-5.285865012556315">
        <ele>1166.5</ele>
        <time>2003-04-14T11:35:32Z</time>
      </trkpt>
      <trkpt lat="31.35007998906076" lon="-5.285874987021089">
        <ele>1167</ele>
        <time>2003-04-14T11:35:36Z</time>
      </trkpt>
      <trkpt lat="31.349917966872454" lon="-5.285801980644465">
        <ele>1166.5</ele>
        <time>2003-04-14T11:35:39Z</time>
      </trkpt>
      <trkpt lat="31.349744964390993" lon="-5.285740038380027">
        <ele>1166.9000000000001</ele>
        <time>2003-04-14T11:35:40Z</time>
      </trkpt>
      <trkpt lat="31.349646979942918" lon="-5.285732997581363">
        <ele>1167.3</ele>
        <time>2003-04-14T11:35:42Z</time>
      </trkpt>
      <trkpt lat="31.349387979134917" lon="-5.285707013681531">
        <ele>1167.5</ele>
        <time>2003-04-14T11:35:44Z</time>
      </trkpt>
      <trkpt lat="31.34896301664412" lon="-5.285587990656495">
        <ele>1168.5999999999999</ele>
        <time>2003-04-14T11:35:50Z</time>
      </trkpt>
      <trkpt lat="31.348337978124619" lon="-5.285542979836464">
        <ele>1170.5999999999999</ele>
        <time>2003-04-14T11:35:55Z</time>
      </trkpt>
      <trkpt lat="31.347414962947369" lon="-5.28542697429657">
        <ele>1173</ele>
        <time>2003-04-14T11:36:05Z</time>
      </trkpt>
      <trkpt lat="31.346458001062274" lon="-5.285320021212101">
        <ele>1175.5999999999999</ele>
        <time>2003-04-14T11:36:13Z</time>
      </trkpt>
      <trkpt lat="31.346124988049269" lon="-5.285266963765025">
        <ele>1176.7</ele>
        <time>2003-04-14T11:36:15Z</time>
      </trkpt>
      <trkpt lat="31.345782000571489" lon="-5.285303005948663">
        <ele>1177.9000000000001</ele>
        <time>2003-04-14T11:36:18Z</time>
      </trkpt>
      <trkpt lat="31.344892010092735" lon="-5.28555303812027">
        <ele>1179.4000000000001</ele>
        <time>2003-04-14T11:36:26Z</time>
      </trkpt>
      <trkpt lat="31.343919960781932" lon="-5.28579200617969">
        <ele>1182.7</ele>
        <time>2003-04-14T11:36:34Z</time>
      </trkpt>
      <trkpt lat="31.343587031587958" lon="-5.285786977037787">
        <ele>1183.7</ele>
        <time>2003-04-14T11:36:37Z</time>
      </trkpt>
      <trkpt lat="31.343104988336563" lon="-5.285759987309575">
        <ele>1184.4000000000001</ele>
        <time>2003-04-14T11:36:41Z</time>
      </trkpt>
      <trkpt lat="31.342203011736274" lon="-5.285769961774349">
        <ele>1187.8</ele>
        <time>2003-04-14T11:36:50Z</time>
      </trkpt>
      <trkpt lat="31.342033026739955" lon="-5.285761998966336">
        <ele>1188.5999999999999</ele>
        <time>2003-04-14T11:36:53Z</time>
      </trkpt>
      <trkpt lat="31.341947028413415" lon="-5.285726962611079">
        <ele>1188.8</ele>
        <time>2003-04-14T11:36:53Z</time>
      </trkpt>
      <trkpt lat="31.341652991250157" lon="-5.285665020346642">
        <ele>1189.8</ele>
        <time>2003-04-14T11:36:57Z</time>
      </trkpt>
      <trkpt lat="31.340878000482917" lon="-5.285580027848482">
        <ele>1194.7</ele>
        <time>2003-04-14T11:37:04Z</time>
      </trkpt>
      <trkpt lat="31.33996001444757" lon="-5.285281967371702">
        <ele>1198.8</ele>
        <time>2003-04-14T11:37:12Z</time>
      </trkpt>
      <trkpt lat="31.339285019785166" lon="-5.285063032060862">
        <ele>1201.3</ele>
        <time>2003-04-14T11:37:17Z</time>
      </trkpt>
      <trkpt lat="31.338834995403886" lon="-5.284987008199096">
        <ele>1203.0999999999999</ele>
        <time>2003-04-14T11:37:21Z</time>
      </trkpt>
      <trkpt lat="31.338537018746138" lon="-5.284920036792755">
        <ele>1204.2</ele>
        <time>2003-04-14T11:37:24Z</time>
      </trkpt>
      <trkpt lat="31.338329985737801" lon="-5.284875025972724">
        <ele>1205.9000000000001</ele>
        <time>2003-04-14T11:37:27Z</time>
      </trkpt>
      <trkpt lat="31.338114989921451" lon="-5.284779975190759">
        <ele>1207.5999999999999</ele>
        <time>2003-04-14T11:37:28Z</time>
      </trkpt>
      <trkpt lat="31.337762027978897" lon="-5.284664975479245">
        <ele>1210.2</ele>
        <time>2003-04-14T11:37:31Z</time>
      </trkpt>
      <trkpt lat="31.337128020823002" lon="-5.284445034340024">
        <ele>1215.9000000000001</ele>
        <time>2003-04-14T11:37:38Z</time>
      </trkpt>
      <trkpt lat="31.336915036663413" lon="-5.284428019076586">
        <ele>1216.9000000000001</ele>
        <time>2003-04-14T11:37:39Z</time>
      </trkpt>
      <trkpt lat="31.336698029190302" lon="-5.284485016018152">
        <ele>1218.5</ele>
        <time>2003-04-14T11:37:42Z</time>
      </trkpt>
      <trkpt lat="31.336484961211681" lon="-5.284607978537679">
        <ele>1219.7</ele>
        <time>2003-04-14T11:37:43Z</time>
      </trkpt>
      <trkpt lat="31.33615798316896" lon="-5.284777041524649">
        <ele>1222.8</ele>
        <time>2003-04-14T11:37:47Z</time>
      </trkpt>
      <trkpt lat="31.33585799485445" lon="-5.284922970458865">
        <ele>1225.5999999999999</ele>
        <time>2003-04-14T11:37:50Z</time>
      </trkpt>
      <trkpt lat="31.33577199652791" lon="-5.285002011805773">
        <ele>1226.9000000000001</ele>
        <time>2003-04-14T11:37:51Z</time>
      </trkpt>
      <trkpt lat="31.335694966837764" lon="-5.285093039274216">
        <ele>1227.8</ele>
        <time>2003-04-14T11:37:51Z</time>
      </trkpt>
      <trkpt lat="31.335633024573326" lon="-5.285202004015446">
        <ele>1228.8</ele>
        <time>2003-04-14T11:37:53Z</time>
      </trkpt>
      <trkpt lat="31.335433032363653" lon="-5.285507021471858">
        <ele>1230.4000000000001</ele>
        <time>2003-04-14T11:37:55Z</time>
      </trkpt>
      <trkpt lat="31.335027012974024" lon="-5.285865012556315">
        <ele>1233.3</ele>
        <time>2003-04-14T11:38:01Z</time>
      </trkpt>
      <trkpt lat="31.334879994392395" lon="-5.285993004217744">
        <ele>1234.2</ele>
        <time>2003-04-14T11:38:02Z</time>
      </trkpt>
      <trkpt lat="31.334822997450829" lon="-5.286082020029426">
        <ele>1234.8</ele>
        <time>2003-04-14T11:38:03Z</time>
      </trkpt>
      <trkpt lat="31.334680002182722" lon="-5.286237001419067">
        <ele>1236</ele>
        <time>2003-04-14T11:38:06Z</time>
      </trkpt>
      <trkpt lat="31.334498031064868" lon="-5.28634998947382">
        <ele>1237.2</ele>
        <time>2003-04-14T11:38:07Z</time>
      </trkpt>
      <trkpt lat="31.33441798388958" lon="-5.286415033042431">
        <ele>1237.9000000000001</ele>
        <time>2003-04-14T11:38:09Z</time>
      </trkpt>
      <trkpt lat="31.334356963634491" lon="-5.286512011662126">
        <ele>1238.0999999999999</ele>
        <time>2003-04-14T11:38:10Z</time>
      </trkpt>
      <trkpt lat="31.33431295864284" lon="-5.286627011373639">
        <ele>1238.7</ele>
        <time>2003-04-14T11:38:10Z</time>
      </trkpt>
      <trkpt lat="31.334197036921978" lon="-5.286830021068454">
        <ele>1240.3</ele>
        <time>2003-04-14T11:38:13Z</time>
      </trkpt>
      <trkpt lat="31.334114978089929" lon="-5.286913001909852">
        <ele>1241.4000000000001</ele>
        <time>2003-04-14T11:38:14Z</time>
      </trkpt>
      <trkpt lat="31.334022022783756" lon="-5.286979973316193">
        <ele>1242.3</ele>
        <time>2003-04-14T11:38:14Z</time>
      </trkpt>
      <trkpt lat="31.33392202667892" lon="-5.287022972479463">
        <ele>1243.3</ele>
        <time>2003-04-14T11:38:15Z</time>
      </trkpt>
      <trkpt lat="31.333663025870919" lon="-5.287151969969273">
        <ele>1246.3</ele>
        <time>2003-04-14T11:38:18Z</time>
      </trkpt>
      <trkpt lat="31.333603011444211" lon="-5.287235034629703">
        <ele>1246.5</ele>
        <time>2003-04-14T11:38:20Z</time>
      </trkpt>
      <trkpt lat="31.33357803337276" lon="-5.287341987714171">
        <ele>1247.4000000000001</ele>
        <time>2003-04-14T11:38:21Z</time>
      </trkpt>
      <trkpt lat="31.333587002009153" lon="-5.287451958283782">
        <ele>1248.5999999999999</ele>
        <time>2003-04-14T11:38:22Z</time>
      </trkpt>
      <trkpt lat="31.333588007837534" lon="-5.287795029580593">
        <ele>1250.0999999999999</ele>
        <time>2003-04-14T11:38:25Z</time>
      </trkpt>
      <trkpt lat="31.333539979532361" lon="-5.287977000698447">
        <ele>1251.3</ele>
        <time>2003-04-14T11:38:26Z</time>
      </trkpt>
      <trkpt lat="31.333420034497976" lon="-5.288104992359877">
        <ele>1252.7</ele>
        <time>2003-04-14T11:38:29Z</time>
      </trkpt>
      <trkpt lat="31.333281984552741" lon="-5.288195013999939">
        <ele>1254.5</ele>
        <time>2003-04-14T11:38:30Z</time>
      </trkpt>
      <trkpt lat="31.333145024254918" lon="-5.288238013163209">
        <ele>1256.3</ele>
        <time>2003-04-14T11:38:33Z</time>
      </trkpt>
      <trkpt lat="31.333004962652922" lon="-5.288232984021306">
        <ele>1258.2</ele>
        <time>2003-04-14T11:38:34Z</time>
      </trkpt>
      <trkpt lat="31.33237699046731" lon="-5.288222003728151">
        <ele>1266.7</ele>
        <time>2003-04-14T11:38:44Z</time>
      </trkpt>
      <trkpt lat="31.332244975492358" lon="-5.288117984309793">
        <ele>1268.3</ele>
        <time>2003-04-14T11:38:45Z</time>
      </trkpt>
      <trkpt lat="31.332157971337438" lon="-5.287944981828332">
        <ele>1270.2</ele>
        <time>2003-04-14T11:38:48Z</time>
      </trkpt>
      <trkpt lat="31.332132993265986" lon="-5.287842974066734">
        <ele>1270.8</ele>
        <time>2003-04-14T11:38:49Z</time>
      </trkpt>
      <trkpt lat="31.332125030457973" lon="-5.287735015153885">
        <ele>1271.5999999999999</ele>
        <time>2003-04-14T11:38:49Z</time>
      </trkpt>
      <trkpt lat="31.332132993265986" lon="-5.287626972422004">
        <ele>1272.4000000000001</ele>
        <time>2003-04-14T11:38:51Z</time>
      </trkpt>
      <trkpt lat="31.332137016579509" lon="-5.287194969132543">
        <ele>1278.5</ele>
        <time>2003-04-14T11:38:55Z</time>
      </trkpt>
      <trkpt lat="31.332157971337438" lon="-5.287009980529547">
        <ele>1280.5999999999999</ele>
        <time>2003-04-14T11:38:56Z</time>
      </trkpt>
      <trkpt lat="31.33218496106565" lon="-5.286767994984984">
        <ele>1283.2</ele>
        <time>2003-04-14T11:39:00Z</time>
      </trkpt>
      <trkpt lat="31.332097034901381" lon="-5.286643020808697">
        <ele>1284</ele>
        <time>2003-04-14T11:39:01Z</time>
      </trkpt>
      <trkpt lat="31.331968037411571" lon="-5.286572026088834">
        <ele>1284.9000000000001</ele>
        <time>2003-04-14T11:39:04Z</time>
      </trkpt>
      <trkpt lat="31.331727979704738" lon="-5.286445040255785">
        <ele>1286.5</ele>
        <time>2003-04-14T11:39:08Z</time>
      </trkpt>
      <trkpt lat="31.331588001921773" lon="-5.286347977817059">
        <ele>1287.5</ele>
        <time>2003-04-14T11:39:09Z</time>
      </trkpt>
      <trkpt lat="31.331369988620281" lon="-5.286231972277165">
        <ele>1288.0999999999999</ele>
        <time>2003-04-14T11:39:12Z</time>
      </trkpt>
      <trkpt lat="31.331218024715781" lon="-5.286149997264147">
        <ele>1287.0999999999999</ele>
        <time>2003-04-14T11:39:15Z</time>
      </trkpt>
      <trkpt lat="31.330561973154545" lon="-5.285699972882867">
        <ele>1279.7</ele>
        <time>2003-04-14T11:39:23Z</time>
      </trkpt>
      <trkpt lat="31.330238012596965" lon="-5.28540501371026">
        <ele>1276</ele>
        <time>2003-04-14T11:39:27Z</time>
      </trkpt>
      <trkpt lat="31.329956967383623" lon="-5.285022966563702">
        <ele>1272.5</ele>
        <time>2003-04-14T11:39:31Z</time>
      </trkpt>
      <trkpt lat="31.329623032361269" lon="-5.284445034340024">
        <ele>1268.0999999999999</ele>
        <time>2003-04-14T11:39:35Z</time>
      </trkpt>
      <trkpt lat="31.329552037641406" lon="-5.28433196246624">
        <ele>1266.7</ele>
        <time>2003-04-14T11:39:36Z</time>
      </trkpt>
      <trkpt lat="31.329193040728569" lon="-5.283752018585801">
        <ele>1260.9000000000001</ele>
        <time>2003-04-14T11:39:42Z</time>
      </trkpt>
      <trkpt lat="31.328892968595028" lon="-5.283227981999517">
        <ele>1255.3</ele>
        <time>2003-04-14T11:39:46Z</time>
      </trkpt>
      <trkpt lat="31.328560039401054" lon="-5.28265499509871">
        <ele>1252.3</ele>
        <time>2003-04-14T11:39:50Z</time>
      </trkpt>
      <trkpt lat="31.328176986426115" lon="-5.281944964081049">
        <ele>1247.8</ele>
        <time>2003-04-14T11:39:54Z</time>
      </trkpt>
      <trkpt lat="31.327697038650513" lon="-5.281247003003955">
        <ele>1243.5</ele>
        <time>2003-04-14T11:40:01Z</time>
      </trkpt>
      <trkpt lat="31.327507020905614" lon="-5.281001999974251">
        <ele>1242.7</ele>
        <time>2003-04-14T11:40:03Z</time>
      </trkpt>
      <trkpt lat="31.327407024800777" lon="-5.280932011082768">
        <ele>1243.4000000000001</ele>
        <time>2003-04-14T11:40:06Z</time>
      </trkpt>
      <trkpt lat="31.327309962362051" lon="-5.280852969735861">
        <ele>1242.9000000000001</ele>
        <time>2003-04-14T11:40:08Z</time>
      </trkpt>
      <trkpt lat="31.32717702537775" lon="-5.280777029693127">
        <ele>1243.0999999999999</ele>
        <time>2003-04-14T11:40:10Z</time>
      </trkpt>
      <trkpt lat="31.32700796239078" lon="-5.280711986124516">
        <ele>1242.5</ele>
        <time>2003-04-14T11:40:12Z</time>
      </trkpt>
      <trkpt lat="31.326805036514997" lon="-5.280603021383286">
        <ele>1241.5999999999999</ele>
        <time>2003-04-14T11:40:13Z</time>
      </trkpt>
      <trkpt lat="31.32659800350666" lon="-5.280487015843391">
        <ele>1241.3</ele>
        <time>2003-04-14T11:40:16Z</time>
      </trkpt>
      <trkpt lat="31.326300026848912" lon="-5.280237989500165">
        <ele>1239.7</ele>
        <time>2003-04-14T11:40:18Z</time>
      </trkpt>
      <trkpt lat="31.326016969978809" lon="-5.279974965378642">
        <ele>1238.9000000000001</ele>
        <time>2003-04-14T11:40:21Z</time>
      </trkpt>
      <trkpt lat="31.325441971421242" lon="-5.279507003724575">
        <ele>1239</ele>
        <time>2003-04-14T11:40:28Z</time>
      </trkpt>
      <trkpt lat="31.325256982818246" lon="-5.279382029548287">
        <ele>1237.5</ele>
        <time>2003-04-14T11:40:29Z</time>
      </trkpt>
      <trkpt lat="31.325156986713409" lon="-5.279312962666154">
        <ele>1238</ele>
        <time>2003-04-14T11:40:30Z</time>
      </trkpt>
      <trkpt lat="31.324618030339479" lon="-5.27893996797502">
        <ele>1236.8</ele>
        <time>2003-04-14T11:40:36Z</time>
      </trkpt>
      <trkpt lat="31.324072033166885" lon="-5.278645008802414">
        <ele>1234.5999999999999</ele>
        <time>2003-04-14T11:40:40Z</time>
      </trkpt>
      <trkpt lat="31.323414975777268" lon="-5.278160031884909">
        <ele>1233.0999999999999</ele>
        <time>2003-04-14T11:40:44Z</time>
      </trkpt>
      <trkpt lat="31.3227519672364" lon="-5.277532981708646">
        <ele>1232.2</ele>
        <time>2003-04-14T11:40:51Z</time>
      </trkpt>
      <trkpt lat="31.322400011122227" lon="-5.277174990624189">
        <ele>1230.8</ele>
        <time>2003-04-14T11:40:55Z</time>
      </trkpt>
      <trkpt lat="31.322173029184341" lon="-5.276972986757755">
        <ele>1230.2</ele>
        <time>2003-04-14T11:40:57Z</time>
      </trkpt>
      <trkpt lat="31.32206498645246" lon="-5.2768549695611">
        <ele>1229.5999999999999</ele>
        <time>2003-04-14T11:41:00Z</time>
      </trkpt>
      <trkpt lat="31.32191201671958" lon="-5.276720020920038">
        <ele>1228.9000000000001</ele>
        <time>2003-04-14T11:41:03Z</time>
      </trkpt>
      <trkpt lat="31.321723004803061" lon="-5.276548024266958">
        <ele>1229.3</ele>
        <time>2003-04-14T11:41:06Z</time>
      </trkpt>
      <trkpt lat="31.321565005928278" lon="-5.276373010128737">
        <ele>1228.3</ele>
        <time>2003-04-14T11:41:07Z</time>
      </trkpt>
      <trkpt lat="31.321352021768689" lon="-5.276173017919064">
        <ele>1227.3</ele>
        <time>2003-04-14T11:41:10Z</time>
      </trkpt>
      <trkpt lat="31.320957988500595" lon="-5.275870012119412">
        <ele>1226</ele>
        <time>2003-04-14T11:41:12Z</time>
      </trkpt>
      <trkpt lat="31.320134969428182" lon="-5.275180013850331">
        <ele>1222.5</ele>
        <time>2003-04-14T11:41:19Z</time>
      </trkpt>
      <trkpt lat="31.319372970610857" lon="-5.274565033614636">
        <ele>1219.8</ele>
        <time>2003-04-14T11:41:24Z</time>
      </trkpt>
      <trkpt lat="31.31894800812006" lon="-5.274282982572913">
        <ele>1217.8</ele>
        <time>2003-04-14T11:41:27Z</time>
      </trkpt>
      <trkpt lat="31.318079978227615" lon="-5.273734973743558">
        <ele>1216.5</ele>
        <time>2003-04-14T11:41:34Z</time>
      </trkpt>
      <trkpt lat="31.317485030740499" lon="-5.273446971550584">
        <ele>1214.5999999999999</ele>
        <time>2003-04-14T11:41:38Z</time>
      </trkpt>
      <trkpt lat="31.316486997529864" lon="-5.273104989901185">
        <ele>1213.5999999999999</ele>
        <time>2003-04-14T11:41:43Z</time>
      </trkpt>
      <trkpt lat="31.316172005608678" lon="-5.272914972156286">
        <ele>1214.2</ele>
        <time>2003-04-14T11:41:46Z</time>
      </trkpt>
      <trkpt lat="31.315585020929575" lon="-5.272648008540273">
        <ele>1213.0999999999999</ele>
        <time>2003-04-14T11:41:50Z</time>
      </trkpt>
      <trkpt lat="31.315444959327579" lon="-5.272635016590357">
        <ele>1212.7</ele>
        <time>2003-04-14T11:41:50Z</time>
      </trkpt>
      <trkpt lat="31.315185036510229" lon="-5.272571984678507">
        <ele>1214.2</ele>
        <time>2003-04-14T11:41:53Z</time>
      </trkpt>
      <trkpt lat="31.314322035759687" lon="-5.272124977782369">
        <ele>1213.3</ele>
        <time>2003-04-14T11:41:58Z</time>
      </trkpt>
      <trkpt lat="31.313949963077903" lon="-5.271942000836134">
        <ele>1214</ele>
        <time>2003-04-14T11:42:01Z</time>
      </trkpt>
      <trkpt lat="31.313828006386757" lon="-5.271926997229457">
        <ele>1214.3</ele>
        <time>2003-04-14T11:42:02Z</time>
      </trkpt>
      <trkpt lat="31.313592977821827" lon="-5.27187000028789">
        <ele>1213.0999999999999</ele>
        <time>2003-04-14T11:42:05Z</time>
      </trkpt>
      <trkpt lat="31.313349986448884" lon="-5.271755000576377">
        <ele>1212.8</ele>
        <time>2003-04-14T11:42:06Z</time>
      </trkpt>
      <trkpt lat="31.313062990084291" lon="-5.271561965346336">
        <ele>1212.5999999999999</ele>
        <time>2003-04-14T11:42:09Z</time>
      </trkpt>
      <trkpt lat="31.312891999259591" lon="-5.271437996998429">
        <ele>1210.5999999999999</ele>
        <time>2003-04-14T11:42:12Z</time>
      </trkpt>
      <trkpt lat="31.312792003154755" lon="-5.271442020311952">
        <ele>1210.4000000000001</ele>
        <time>2003-04-14T11:42:13Z</time>
      </trkpt>
      <trkpt lat="31.312593016773462" lon="-5.271394997835159">
        <ele>1211.5999999999999</ele>
        <time>2003-04-14T11:42:14Z</time>
      </trkpt>
      <trkpt lat="31.312033021822572" lon="-5.271225012838841">
        <ele>1210.0999999999999</ele>
        <time>2003-04-14T11:42:20Z</time>
      </trkpt>
      <trkpt lat="31.311806961894035" lon="-5.271253008395433">
        <ele>1210.2</ele>
        <time>2003-04-14T11:42:21Z</time>
      </trkpt>
      <trkpt lat="31.311697997152805" lon="-5.271244961768389">
        <ele>1210.3</ele>
        <time>2003-04-14T11:42:23Z</time>
      </trkpt>
      <trkpt lat="31.311388034373522" lon="-5.271255020052195">
        <ele>1209.9000000000001</ele>
        <time>2003-04-14T11:42:25Z</time>
      </trkpt>
      <trkpt lat="31.311285020783544" lon="-5.271297013387084">
        <ele>1210.2</ele>
        <time>2003-04-14T11:42:27Z</time>
      </trkpt>
      <trkpt lat="31.310997018590569" lon="-5.271400026977062">
        <ele>1212.7</ele>
        <time>2003-04-14T11:42:29Z</time>
      </trkpt>
      <trkpt lat="31.310885036364198" lon="-5.271391980350018">
        <ele>1213.4000000000001</ele>
        <time>2003-04-14T11:42:31Z</time>
      </trkpt>
      <trkpt lat="31.310169976204634" lon="-5.271412013098598">
        <ele>1214.5</ele>
        <time>2003-04-14T11:42:36Z</time>
      </trkpt>
      <trkpt lat="31.309794969856739" lon="-5.27148200199008">
        <ele>1215.8</ele>
        <time>2003-04-14T11:42:40Z</time>
      </trkpt>
      <trkpt lat="31.309462040662766" lon="-5.271437996998429">
        <ele>1215.9000000000001</ele>
        <time>2003-04-14T11:42:43Z</time>
      </trkpt>
      <trkpt lat="31.309355003759265" lon="-5.271317968145013">
        <ele>1217.0999999999999</ele>
        <time>2003-04-14T11:42:44Z</time>
      </trkpt>
      <trkpt lat="31.309162974357605" lon="-5.271065002307296">
        <ele>1218.2</ele>
        <time>2003-04-14T11:42:48Z</time>
      </trkpt>
      <trkpt lat="31.308895004913211" lon="-5.270798038691282">
        <ele>1219.4000000000001</ele>
        <time>2003-04-14T11:42:51Z</time>
      </trkpt>
      <trkpt lat="31.308504994958639" lon="-5.270377015694976">
        <ele>1222.8</ele>
        <time>2003-04-14T11:42:55Z</time>
      </trkpt>
      <trkpt lat="31.308350013568997" lon="-5.270292023196816">
        <ele>1223.0999999999999</ele>
        <time>2003-04-14T11:42:58Z</time>
      </trkpt>
      <trkpt lat="31.308080032467842" lon="-5.270173000171781">
        <ele>1224.7</ele>
        <time>2003-04-14T11:43:00Z</time>
      </trkpt>
      <trkpt lat="31.307975007221103" lon="-5.270156990736723">
        <ele>1225.5999999999999</ele>
        <time>2003-04-14T11:43:02Z</time>
      </trkpt>
      <trkpt lat="31.30762699060142" lon="-5.27006302960217">
        <ele>1225.0999999999999</ele>
        <time>2003-04-14T11:43:04Z</time>
      </trkpt>
      <trkpt lat="31.307522971183062" lon="-5.270007038488984">
        <ele>1225.2</ele>
        <time>2003-04-14T11:43:06Z</time>
      </trkpt>
      <trkpt lat="31.307318033650517" lon="-5.26995699852705">
        <ele>1225.0999999999999</ele>
        <time>2003-04-14T11:43:07Z</time>
      </trkpt>
      <trkpt lat="31.307221977040172" lon="-5.26997703127563">
        <ele>1225.3</ele>
        <time>2003-04-14T11:43:08Z</time>
      </trkpt>
      <trkpt lat="31.307042017579079" lon="-5.26995699852705">
        <ele>1224.5</ele>
        <time>2003-04-14T11:43:11Z</time>
      </trkpt>
      <trkpt lat="31.30687303841114" lon="-5.269854990765452">
        <ele>1224.5</ele>
        <time>2003-04-14T11:43:12Z</time>
      </trkpt>
      <trkpt lat="31.306707998737693" lon="-5.26978500187397">
        <ele>1224.5</ele>
        <time>2003-04-14T11:43:15Z</time>
      </trkpt>
      <trkpt lat="31.306525021791458" lon="-5.269757006317377">
        <ele>1223.9000000000001</ele>
        <time>2003-04-14T11:43:17Z</time>
      </trkpt>
      <trkpt lat="31.306244982406497" lon="-5.269732028245926">
        <ele>1225.8</ele>
        <time>2003-04-14T11:43:19Z</time>
      </trkpt>
      <trkpt lat="31.305948011577129" lon="-5.269594984129071">
        <ele>1226.0999999999999</ele>
        <time>2003-04-14T11:43:22Z</time>
      </trkpt>
      <trkpt lat="31.305662021040916" lon="-5.269447965547442">
        <ele>1225.5</ele>
        <time>2003-04-14T11:43:26Z</time>
      </trkpt>
      <trkpt lat="31.305411988869309" lon="-5.269312011078">
        <ele>1224.8</ele>
        <time>2003-04-14T11:43:29Z</time>
      </trkpt>
      <trkpt lat="31.305343005806208" lon="-5.269231963902712">
        <ele>1224.4000000000001</ele>
        <time>2003-04-14T11:43:30Z</time>
      </trkpt>
      <trkpt lat="31.305215014144778" lon="-5.269040018320084">
        <ele>1224</ele>
        <time>2003-04-14T11:43:31Z</time>
      </trkpt>
      <trkpt lat="31.305172014981508" lon="-5.268931975588203">
        <ele>1223.4000000000001</ele>
        <time>2003-04-14T11:43:33Z</time>
      </trkpt>
      <trkpt lat="31.305143013596535" lon="-5.268816975876689">
        <ele>1222.9000000000001</ele>
        <time>2003-04-14T11:43:34Z</time>
      </trkpt>
      <trkpt lat="31.305032959207892" lon="-5.268399976193905">
        <ele>1221.4000000000001</ele>
        <time>2003-04-14T11:43:38Z</time>
      </trkpt>
      <trkpt lat="31.304912008345127" lon="-5.268127983435988">
        <ele>1220.5</ele>
        <time>2003-04-14T11:43:41Z</time>
      </trkpt>
      <trkpt lat="31.304802959784865" lon="-5.267796982079744">
        <ele>1219.4000000000001</ele>
        <time>2003-04-14T11:43:45Z</time>
      </trkpt>
      <trkpt lat="31.304676979780197" lon="-5.267702015116811">
        <ele>1218.8</ele>
        <time>2003-04-14T11:43:46Z</time>
      </trkpt>
      <trkpt lat="31.304410016164184" lon="-5.267591960728169">
        <ele>1219</ele>
        <time>2003-04-14T11:43:49Z</time>
      </trkpt>
      <trkpt lat="31.304223015904427" lon="-5.267515014857054">
        <ele>1219.5999999999999</ele>
        <time>2003-04-14T11:43:52Z</time>
      </trkpt>
      <trkpt lat="31.304125031456351" lon="-5.26750504039228">
        <ele>1218.2</ele>
        <time>2003-04-14T11:43:53Z</time>
      </trkpt>
      <trkpt lat="31.304032998159528" lon="-5.267527000978589">
        <ele>1217.7</ele>
        <time>2003-04-14T11:43:53Z</time>
      </trkpt>
      <trkpt lat="31.303890002891421" lon="-5.267492970451713">
        <ele>1217.3</ele>
        <time>2003-04-14T11:43:56Z</time>
      </trkpt>
      <trkpt lat="31.303635025396943" lon="-5.267330026254058">
        <ele>1215.0999999999999</ele>
        <time>2003-04-14T11:43:58Z</time>
      </trkpt>
      <trkpt lat="31.30354299210012" lon="-5.267302030697465">
        <ele>1214.3</ele>
        <time>2003-04-14T11:44:00Z</time>
      </trkpt>
      <trkpt lat="31.303373007103801" lon="-5.267242016270757">
        <ele>1214.4000000000001</ele>
        <time>2003-04-14T11:44:01Z</time>
      </trkpt>
      <trkpt lat="31.303269993513823" lon="-5.26707798242569">
        <ele>1214</ele>
        <time>2003-04-14T11:44:04Z</time>
      </trkpt>
      <trkpt lat="31.303172009065747" lon="-5.266846977174282">
        <ele>1213.3</ele>
        <time>2003-04-14T11:44:06Z</time>
      </trkpt>
      <trkpt lat="31.303036976605654" lon="-5.26688695885241">
        <ele>1213.0999999999999</ele>
        <time>2003-04-14T11:44:09Z</time>
      </trkpt>
      <trkpt lat="31.302943015471101" lon="-5.26701201684773">
        <ele>1213</ele>
        <time>2003-04-14T11:44:11Z</time>
      </trkpt>
      <trkpt lat="31.302807983011007" lon="-5.267092986032367">
        <ele>1213.2</ele>
        <time>2003-04-14T11:44:13Z</time>
      </trkpt>
      <trkpt lat="31.302617965266109" lon="-5.267158029600978">
        <ele>1214.5</ele>
        <time>2003-04-14T11:44:16Z</time>
      </trkpt>
      <trkpt lat="31.302501959726214" lon="-5.26712198741734">
        <ele>1214.4000000000001</ele>
        <time>2003-04-14T11:44:17Z</time>
      </trkpt>
      <trkpt lat="31.302325017750263" lon="-5.267045041546226">
        <ele>1215.5999999999999</ele>
        <time>2003-04-14T11:44:20Z</time>
      </trkpt>
      <trkpt lat="31.302087977528572" lon="-5.266989972442389">
        <ele>1214.5999999999999</ele>
        <time>2003-04-14T11:44:24Z</time>
      </trkpt>
      <trkpt lat="31.301899971440434" lon="-5.266882013529539">
        <ele>1214</ele>
        <time>2003-04-14T11:44:25Z</time>
      </trkpt>
      <trkpt lat="31.30150300450623" lon="-5.266595017164946">
        <ele>1212.4000000000001</ele>
        <time>2003-04-14T11:44:29Z</time>
      </trkpt>
      <trkpt lat="31.301314998418093" lon="-5.266425032168627">
        <ele>1211.3</ele>
        <time>2003-04-14T11:44:32Z</time>
      </trkpt>
      <trkpt lat="31.301248027011752" lon="-5.266317995265126">
        <ele>1211.0999999999999</ele>
        <time>2003-04-14T11:44:32Z</time>
      </trkpt>
      <trkpt lat="31.301112994551659" lon="-5.266123032197356">
        <ele>1210.7</ele>
        <time>2003-04-14T11:44:35Z</time>
      </trkpt>
      <trkpt lat="31.300990032032132" lon="-5.265942988917232">
        <ele>1209.9000000000001</ele>
        <time>2003-04-14T11:44:36Z</time>
      </trkpt>
      <trkpt lat="31.300977040082216" lon="-5.265830000862479">
        <ele>1209.8</ele>
        <time>2003-04-14T11:44:38Z</time>
      </trkpt>
      <trkpt lat="31.300913002341986" lon="-5.265505034476519">
        <ele>1209.0999999999999</ele>
        <time>2003-04-14T11:44:40Z</time>
      </trkpt>
      <trkpt lat="31.300818035379052" lon="-5.265196999534965">
        <ele>1209.3</ele>
        <time>2003-04-14T11:44:43Z</time>
      </trkpt>
      <trkpt lat="31.300749974325299" lon="-5.264843031764031">
        <ele>1207.2</ele>
        <time>2003-04-14T11:44:47Z</time>
      </trkpt>
      <trkpt lat="31.300687026232481" lon="-5.264742029830813">
        <ele>1208</ele>
        <time>2003-04-14T11:44:47Z</time>
      </trkpt>
      <trkpt lat="31.300636986270547" lon="-5.264552012085915">
        <ele>1206.7</ele>
        <time>2003-04-14T11:44:50Z</time>
      </trkpt>
      <trkpt lat="31.300715021789074" lon="-5.264427037909627">
        <ele>1206.0999999999999</ele>
        <time>2003-04-14T11:44:51Z</time>
      </trkpt>
      <trkpt lat="31.30079498514533" lon="-5.264325030148029">
        <ele>1204.5</ele>
        <time>2003-04-14T11:44:54Z</time>
      </trkpt>
      <trkpt lat="31.300796996802092" lon="-5.264201983809471">
        <ele>1203.0999999999999</ele>
        <time>2003-04-14T11:44:55Z</time>
      </trkpt>
      <trkpt lat="31.300676967948675" lon="-5.264122020453215">
        <ele>1202.9000000000001</ele>
        <time>2003-04-14T11:44:58Z</time>
      </trkpt>
      <trkpt lat="31.300522992387414" lon="-5.264062006026506">
        <ele>1202.5</ele>
        <time>2003-04-14T11:44:59Z</time>
      </trkpt>
      <trkpt lat="31.300332974642515" lon="-5.263969972729683">
        <ele>1201.2</ele>
        <time>2003-04-14T11:45:02Z</time>
      </trkpt>
      <trkpt lat="31.300137005746365" lon="-5.263838041573763">
        <ele>1199.8</ele>
        <time>2003-04-14T11:45:03Z</time>
      </trkpt>
      <trkpt lat="31.299991998821497" lon="-5.263667972758412">
        <ele>1198.3</ele>
        <time>2003-04-14T11:45:06Z</time>
      </trkpt>
      <trkpt lat="31.299947993829846" lon="-5.263556996360421">
        <ele>1197.5999999999999</ele>
        <time>2003-04-14T11:45:07Z</time>
      </trkpt>
      <trkpt lat="31.299840034916997" lon="-5.263358009979129">
        <ele>1195.3</ele>
        <time>2003-04-14T11:45:09Z</time>
      </trkpt>
      <trkpt lat="31.29974196664989" lon="-5.263324985280633">
        <ele>1196.2</ele>
        <time>2003-04-14T11:45:10Z</time>
      </trkpt>
      <trkpt lat="31.299644988030195" lon="-5.263275029137731">
        <ele>1196.2</ele>
        <time>2003-04-14T11:45:10Z</time>
      </trkpt>
      <trkpt lat="31.299452958628535" lon="-5.263130022212863">
        <ele>1194.7</ele>
        <time>2003-04-14T11:45:13Z</time>
      </trkpt>
      <trkpt lat="31.298649972304702" lon="-5.262477993965149">
        <ele>1188.3</ele>
        <time>2003-04-14T11:45:21Z</time>
      </trkpt>
      <trkpt lat="31.298532038927078" lon="-5.262438012287021">
        <ele>1187.3</ele>
        <time>2003-04-14T11:45:22Z</time>
      </trkpt>
      <trkpt lat="31.298289969563484" lon="-5.26239300146699">
        <ele>1185.3</ele>
        <time>2003-04-14T11:45:23Z</time>
      </trkpt>
      <trkpt lat="31.298179998993874" lon="-5.262399958446622">
        <ele>1184.0999999999999</ele>
        <time>2003-04-14T11:45:25Z</time>
      </trkpt>
      <trkpt lat="31.29808503203094" lon="-5.262385038658977">
        <ele>1183.5</ele>
        <time>2003-04-14T11:45:26Z</time>
      </trkpt>
      <trkpt lat="31.297987969592214" lon="-5.262332987040281">
        <ele>1182.4000000000001</ele>
        <time>2003-04-14T11:45:26Z</time>
      </trkpt>
      <trkpt lat="31.297780014574528" lon="-5.262268027290702">
        <ele>1180.7</ele>
        <time>2003-04-14T11:45:29Z</time>
      </trkpt>
      <trkpt lat="31.297574993222952" lon="-5.26217800565064">
        <ele>1178</ele>
        <time>2003-04-14T11:45:30Z</time>
      </trkpt>
      <trkpt lat="31.297478014603257" lon="-5.262107010930777">
        <ele>1177.3</ele>
        <time>2003-04-14T11:45:32Z</time>
      </trkpt>
      <trkpt lat="31.2973100412637" lon="-5.261927973479033">
        <ele>1175.3</ele>
        <time>2003-04-14T11:45:34Z</time>
      </trkpt>
      <trkpt lat="31.29724801518023" lon="-5.261811967939138">
        <ele>1174.5999999999999</ele>
        <time>2003-04-14T11:45:34Z</time>
      </trkpt>
      <trkpt lat="31.297065038233995" lon="-5.261547015979886">
        <ele>1172.0999999999999</ele>
        <time>2003-04-14T11:45:37Z</time>
      </trkpt>
      <trkpt lat="31.296933023259044" lon="-5.261377030983567">
        <ele>1171</ele>
        <time>2003-04-14T11:45:40Z</time>
      </trkpt>
      <trkpt lat="31.296747028827667" lon="-5.261157006025314">
        <ele>1169.8</ele>
        <time>2003-04-14T11:45:42Z</time>
      </trkpt>
      <trkpt lat="31.296636974439025" lon="-5.261047035455704">
        <ele>1169.0999999999999</ele>
        <time>2003-04-14T11:45:45Z</time>
      </trkpt>
      <trkpt lat="31.296630017459393" lon="-5.260887024924159">
        <ele>1168.9000000000001</ele>
        <time>2003-04-14T11:45:46Z</time>
      </trkpt>
      <trkpt lat="31.296628005802631" lon="-5.26074000634253">
        <ele>1167.5</ele>
        <time>2003-04-14T11:45:49Z</time>
      </trkpt>
      <trkpt lat="31.29656296223402" lon="-5.260602040216327">
        <ele>1166.3</ele>
        <time>2003-04-14T11:45:50Z</time>
      </trkpt>
      <trkpt lat="31.296418039128184" lon="-5.26054797694087">
        <ele>1165.5</ele>
        <time>2003-04-14T11:45:53Z</time>
      </trkpt>
      <trkpt lat="31.296270014718175" lon="-5.26048201136291">
        <ele>1164.3</ele>
        <time>2003-04-14T11:45:54Z</time>
      </trkpt>
      <trkpt lat="31.295934990048409" lon="-5.260302973911166">
        <ele>1161.9000000000001</ele>
        <time>2003-04-14T11:45:59Z</time>
      </trkpt>
      <trkpt lat="31.29499202594161" lon="-5.26003198698163">
        <ele>1156.7</ele>
        <time>2003-04-14T11:46:08Z</time>
      </trkpt>
      <trkpt lat="31.29482296295464" lon="-5.26003198698163">
        <ele>1155.7</ele>
        <time>2003-04-14T11:46:09Z</time>
      </trkpt>
      <trkpt lat="31.294732019305229" lon="-5.259961998090148">
        <ele>1154.7</ele>
        <time>2003-04-14T11:46:12Z</time>
      </trkpt>
      <trkpt lat="31.294684996828437" lon="-5.259841969236732">
        <ele>1154</ele>
        <time>2003-04-14T11:46:13Z</time>
      </trkpt>
      <trkpt lat="31.294611990451813" lon="-5.259716995060444">
        <ele>1153.5</ele>
        <time>2003-04-14T11:46:16Z</time>
      </trkpt>
      <trkpt lat="31.294494979083538" lon="-5.259620016440749">
        <ele>1152.7</ele>
        <time>2003-04-14T11:46:17Z</time>
      </trkpt>
      <trkpt lat="31.294347960501909" lon="-5.259603001177311">
        <ele>1151.8</ele>
        <time>2003-04-14T11:46:20Z</time>
      </trkpt>
      <trkpt lat="31.294189961627126" lon="-5.259537035599351">
        <ele>1151.0999999999999</ele>
        <time>2003-04-14T11:46:21Z</time>
      </trkpt>
      <trkpt lat="31.294117039069533" lon="-5.25947299785912">
        <ele>1150.7</ele>
        <time>2003-04-14T11:46:23Z</time>
      </trkpt>
      <trkpt lat="31.2940479721874" lon="-5.259393034502864">
        <ele>1150.3</ele>
        <time>2003-04-14T11:46:24Z</time>
      </trkpt>
      <trkpt lat="31.293932972475886" lon="-5.259232018142939">
        <ele>1149</ele>
        <time>2003-04-14T11:46:26Z</time>
      </trkpt>
      <trkpt lat="31.2938769813627" lon="-5.259052980691195">
        <ele>1147.9000000000001</ele>
        <time>2003-04-14T11:46:28Z</time>
      </trkpt>
      <trkpt lat="31.293895002454519" lon="-5.258876960724592">
        <ele>1146.7</ele>
        <time>2003-04-14T11:46:30Z</time>
      </trkpt>
      <trkpt lat="31.293906988576055" lon="-5.258713010698557">
        <ele>1145.5999999999999</ele>
        <time>2003-04-14T11:46:31Z</time>
      </trkpt>
      <trkpt lat="31.293938001617789" lon="-5.258558029308915">
        <ele>1144.5</ele>
        <time>2003-04-14T11:46:34Z</time>
      </trkpt>
      <trkpt lat="31.294036991894245" lon="-5.258451998233795">
        <ele>1143.8</ele>
        <time>2003-04-14T11:46:35Z</time>
      </trkpt>
      <trkpt lat="31.29417797550559" lon="-5.258286958560348">
        <ele>1141.9000000000001</ele>
        <time>2003-04-14T11:46:39Z</time>
      </trkpt>
      <trkpt lat="31.294215023517609" lon="-5.258122002705932">
        <ele>1140.5999999999999</ele>
        <time>2003-04-14T11:46:40Z</time>
      </trkpt>
      <trkpt lat="31.294183004647493" lon="-5.257941959425807">
        <ele>1139.2</ele>
        <time>2003-04-14T11:46:43Z</time>
      </trkpt>
      <trkpt lat="31.294076973572373" lon="-5.257799969986081">
        <ele>1138.4000000000001</ele>
        <time>2003-04-14T11:46:44Z</time>
      </trkpt>
      <trkpt lat="31.293928027153015" lon="-5.257757976651192">
        <ele>1137.7</ele>
        <time>2003-04-14T11:46:47Z</time>
      </trkpt>
      <trkpt lat="31.293764999136329" lon="-5.257744984701276">
        <ele>1136.5999999999999</ele>
        <time>2003-04-14T11:46:48Z</time>
      </trkpt>
      <trkpt lat="31.29340298473835" lon="-5.257738027721643">
        <ele>1133.5</ele>
        <time>2003-04-14T11:46:53Z</time>
      </trkpt>
      <trkpt lat="31.29295296035707" lon="-5.257622022181749">
        <ele>1129.7</ele>
        <time>2003-04-14T11:46:58Z</time>
      </trkpt>
      <trkpt lat="31.292781969532371" lon="-5.25760299526155">
        <ele>1128.8</ele>
        <time>2003-04-14T11:46:59Z</time>
      </trkpt>
      <trkpt lat="31.292621959000826" lon="-5.257584974169731">
        <ele>1127.5999999999999</ele>
        <time>2003-04-14T11:47:02Z</time>
      </trkpt>
      <trkpt lat="31.292454991489649" lon="-5.257586985826492">
        <ele>1126.5999999999999</ele>
        <time>2003-04-14T11:47:03Z</time>
      </trkpt>
      <trkpt lat="31.292281989008188" lon="-5.25758296251297">
        <ele>1125.5999999999999</ele>
        <time>2003-04-14T11:47:06Z</time>
      </trkpt>
      <trkpt lat="31.292109992355108" lon="-5.257610036060214">
        <ele>1124.5</ele>
        <time>2003-04-14T11:47:07Z</time>
      </trkpt>
      <trkpt lat="31.291937995702028" lon="-5.257610036060214">
        <ele>1123.7</ele>
        <time>2003-04-14T11:47:10Z</time>
      </trkpt>
      <trkpt lat="31.291785025969148" lon="-5.257631996646524">
        <ele>1122.7</ele>
        <time>2003-04-14T11:47:11Z</time>
      </trkpt>
      <trkpt lat="31.291621997952461" lon="-5.257716989144683">
        <ele>1121.9000000000001</ele>
        <time>2003-04-14T11:47:14Z</time>
      </trkpt>
      <trkpt lat="31.291459975764155" lon="-5.257835006341338">
        <ele>1121.3</ele>
        <time>2003-04-14T11:47:15Z</time>
      </trkpt>
      <trkpt lat="31.291329972445965" lon="-5.257986970245838">
        <ele>1121.2</ele>
        <time>2003-04-14T11:47:18Z</time>
      </trkpt>
      <trkpt lat="31.291068037971854" lon="-5.25826801545918">
        <ele>1121.4000000000001</ele>
        <time>2003-04-14T11:47:22Z</time>
      </trkpt>
      <trkpt lat="31.290980027988553" lon="-5.258307997137308">
        <ele>1121.5999999999999</ele>
        <time>2003-04-14T11:47:22Z</time>
      </trkpt>
      <trkpt lat="31.29082303494215" lon="-5.258413022384048">
        <ele>1120.7</ele>
        <time>2003-04-14T11:47:25Z</time>
      </trkpt>
      <trkpt lat="31.290603009983897" lon="-5.258577978238463">
        <ele>1118.3</ele>
        <time>2003-04-14T11:47:28Z</time>
      </trkpt>
      <trkpt lat="31.290420033037663" lon="-5.258585019037128">
        <ele>1116.8</ele>
        <time>2003-04-14T11:47:29Z</time>
      </trkpt>
      <trkpt lat="31.290152985602617" lon="-5.258528022095561">
        <ele>1114</ele>
        <time>2003-04-14T11:47:33Z</time>
      </trkpt>
      <trkpt lat="31.290021976456046" lon="-5.258413022384048">
        <ele>1112.7</ele>
        <time>2003-04-14T11:47:36Z</time>
      </trkpt>
      <trkpt lat="31.289876969531178" lon="-5.258428025990725">
        <ele>1111.0999999999999</ele>
        <time>2003-04-14T11:47:37Z</time>
      </trkpt>
      <trkpt lat="31.289521995931864" lon="-5.258557023480535">
        <ele>1107.5999999999999</ele>
        <time>2003-04-14T11:47:42Z</time>
      </trkpt>
      <trkpt lat="31.289446977898479" lon="-5.25846297852695">
        <ele>1106.7</ele>
        <time>2003-04-14T11:47:45Z</time>
      </trkpt>
      <trkpt lat="31.289421999827027" lon="-5.258325012400746">
        <ele>1106</ele>
        <time>2003-04-14T11:47:47Z</time>
      </trkpt>
      <trkpt lat="31.289301970973611" lon="-5.258217975497246">
        <ele>1104.8</ele>
        <time>2003-04-14T11:47:48Z</time>
      </trkpt>
      <trkpt lat="31.289138020947576" lon="-5.258186962455511">
        <ele>1104.5</ele>
        <time>2003-04-14T11:47:49Z</time>
      </trkpt>
      <trkpt lat="31.289050010964274" lon="-5.258210012689233">
        <ele>1103.8</ele>
        <time>2003-04-14T11:47:52Z</time>
      </trkpt>
      <trkpt lat="31.288863010704517" lon="-5.258295005187392">
        <ele>1103.0999999999999</ele>
        <time>2003-04-14T11:47:53Z</time>
      </trkpt>
      <trkpt lat="31.288669975474477" lon="-5.258417967706919">
        <ele>1102.0999999999999</ele>
        <time>2003-04-14T11:47:56Z</time>
      </trkpt>
      <trkpt lat="31.288445005193353" lon="-5.258621983230114">
        <ele>1100.7</ele>
        <time>2003-04-14T11:47:59Z</time>
      </trkpt>
      <trkpt lat="31.288394965231419" lon="-5.258713010698557">
        <ele>1100.2</ele>
        <time>2003-04-14T11:48:00Z</time>
      </trkpt>
      <trkpt lat="31.288369987159967" lon="-5.258907973766327">
        <ele>1099.4000000000001</ele>
        <time>2003-04-14T11:48:01Z</time>
      </trkpt>
      <trkpt lat="31.288326987996697" lon="-5.259096985682845">
        <ele>1098.5999999999999</ele>
        <time>2003-04-14T11:48:04Z</time>
      </trkpt>
      <trkpt lat="31.288275020197034" lon="-5.259187007322907">
        <ele>1097.8</ele>
        <time>2003-04-14T11:48:04Z</time>
      </trkpt>
      <trkpt lat="31.288107968866825" lon="-5.259420024231076">
        <ele>1096.7</ele>
        <time>2003-04-14T11:48:08Z</time>
      </trkpt>
      <trkpt lat="31.287949969992042" lon="-5.259490013122559">
        <ele>1096</ele>
        <time>2003-04-14T11:48:09Z</time>
      </trkpt>
      <trkpt lat="31.287721982225776" lon="-5.259552961215377">
        <ele>1095.7</ele>
        <time>2003-04-14T11:48:12Z</time>
      </trkpt>
      <trkpt lat="31.287632966414094" lon="-5.259523037821055">
        <ele>1095.5</ele>
        <time>2003-04-14T11:48:14Z</time>
      </trkpt>
      <trkpt lat="31.28753699362278" lon="-5.25947299785912">
        <ele>1094.7</ele>
        <time>2003-04-14T11:48:15Z</time>
      </trkpt>
      <trkpt lat="31.287272041663527" lon="-5.259330002591014">
        <ele>1094.2</ele>
        <time>2003-04-14T11:48:18Z</time>
      </trkpt>
      <trkpt lat="31.286782035604119" lon="-5.259221959859133">
        <ele>1094.2</ele>
        <time>2003-04-14T11:48:23Z</time>
      </trkpt>
      <trkpt lat="31.286657983437181" lon="-5.259284991770983">
        <ele>1094.5999999999999</ele>
        <time>2003-04-14T11:48:26Z</time>
      </trkpt>
      <trkpt lat="31.286478023976088" lon="-5.259252972900868">
        <ele>1094.0999999999999</ele>
        <time>2003-04-14T11:48:27Z</time>
      </trkpt>
      <trkpt lat="31.285926997661591" lon="-5.259141996502876">
        <ele>1092.8</ele>
        <time>2003-04-14T11:48:34Z</time>
      </trkpt>
      <trkpt lat="31.285661961883307" lon="-5.259154988452792">
        <ele>1091.5999999999999</ele>
        <time>2003-04-14T11:48:36Z</time>
      </trkpt>
      <trkpt lat="31.285447971895337" lon="-5.259077958762646">
        <ele>1091.4000000000001</ele>
        <time>2003-04-14T11:48:39Z</time>
      </trkpt>
      <trkpt lat="31.285330038517714" lon="-5.259012999013066">
        <ele>1090.7</ele>
        <time>2003-04-14T11:48:42Z</time>
      </trkpt>
      <trkpt lat="31.285189976915717" lon="-5.258981985971332">
        <ele>1089.7</ele>
        <time>2003-04-14T11:48:43Z</time>
      </trkpt>
      <trkpt lat="31.285034995526075" lon="-5.258977962657809">
        <ele>1090.5999999999999</ele>
        <time>2003-04-14T11:48:46Z</time>
      </trkpt>
      <trkpt lat="31.284533003345132" lon="-5.259036971256137">
        <ele>1089.7</ele>
        <time>2003-04-14T11:48:51Z</time>
      </trkpt>
      <trkpt lat="31.284362012520432" lon="-5.259052980691195">
        <ele>1089</ele>
        <time>2003-04-14T11:48:54Z</time>
      </trkpt>
      <trkpt lat="31.283709984272718" lon="-5.259175021201372">
        <ele>1088.9000000000001</ele>
        <time>2003-04-14T11:49:02Z</time>
      </trkpt>
      <trkpt lat="31.283545028418303" lon="-5.25912799872458">
        <ele>1089.3</ele>
        <time>2003-04-14T11:49:03Z</time>
      </trkpt>
      <trkpt lat="31.283268006518483" lon="-5.258981985971332">
        <ele>1088.2</ele>
        <time>2003-04-14T11:49:06Z</time>
      </trkpt>
      <trkpt lat="31.282998025417328" lon="-5.258824992924929">
        <ele>1087.7</ele>
        <time>2003-04-14T11:49:10Z</time>
      </trkpt>
      <trkpt lat="31.282693007960916" lon="-5.258727008476853">
        <ele>1087.3</ele>
        <time>2003-04-14T11:49:13Z</time>
      </trkpt>
      <trkpt lat="31.282489998266101" lon="-5.258640004321933">
        <ele>1086.3</ele>
        <time>2003-04-14T11:49:14Z</time>
      </trkpt>
      <trkpt lat="31.282103005796671" lon="-5.258507989346981">
        <ele>1085.5999999999999</ele>
        <time>2003-04-14T11:49:18Z</time>
      </trkpt>
      <trkpt lat="31.281721964478493" lon="-5.258498014882207">
        <ele>1084.9000000000001</ele>
        <time>2003-04-14T11:49:21Z</time>
      </trkpt>
      <trkpt lat="31.281097009778023" lon="-5.258436994627118">
        <ele>1084.3</ele>
        <time>2003-04-14T11:49:26Z</time>
      </trkpt>
      <trkpt lat="31.280882013961673" lon="-5.258343033492565">
        <ele>1084.3</ele>
        <time>2003-04-14T11:49:29Z</time>
      </trkpt>
      <trkpt lat="31.280777994543314" lon="-5.258272038772702">
        <ele>1084.2</ele>
        <time>2003-04-14T11:49:29Z</time>
      </trkpt>
      <trkpt lat="31.280311960726976" lon="-5.258008008822799">
        <ele>1082.9000000000001</ele>
        <time>2003-04-14T11:49:35Z</time>
      </trkpt>
      <trkpt lat="31.280222022905946" lon="-5.257983030751348">
        <ele>1082.5999999999999</ele>
        <time>2003-04-14T11:49:36Z</time>
      </trkpt>
      <trkpt lat="31.279978025704622" lon="-5.257893009111285">
        <ele>1082</ele>
        <time>2003-04-14T11:49:39Z</time>
      </trkpt>
      <trkpt lat="31.279836958274245" lon="-5.257768034934998">
        <ele>1081.8</ele>
        <time>2003-04-14T11:49:40Z</time>
      </trkpt>
      <trkpt lat="31.279771998524666" lon="-5.257693016901612">
        <ele>1081.7</ele>
        <time>2003-04-14T11:49:41Z</time>
      </trkpt>
      <trkpt lat="31.279660016298294" lon="-5.257526971399784">
        <ele>1081.2</ele>
        <time>2003-04-14T11:49:44Z</time>
      </trkpt>
      <trkpt lat="31.279534958302975" lon="-5.257366960868239">
        <ele>1080.9000000000001</ele>
        <time>2003-04-14T11:49:45Z</time>
      </trkpt>
      <trkpt lat="31.279367990791798" lon="-5.257237041369081">
        <ele>1080.5</ele>
        <time>2003-04-14T11:49:48Z</time>
      </trkpt>
      <trkpt lat="31.279227007180452" lon="-5.25708700530231">
        <ele>1079.9000000000001</ele>
        <time>2003-04-14T11:49:49Z</time>
      </trkpt>
      <trkpt lat="31.279175039380789" lon="-5.256996983662248">
        <ele>1079.5999999999999</ele>
        <time>2003-04-14T11:49:51Z</time>
      </trkpt>
      <trkpt lat="31.278943028301001" lon="-5.256647961214185">
        <ele>1078.5</ele>
        <time>2003-04-14T11:49:55Z</time>
      </trkpt>
      <trkpt lat="31.278777988627553" lon="-5.256576966494322">
        <ele>1078.0999999999999</ele>
        <time>2003-04-14T11:49:56Z</time>
      </trkpt>
      <trkpt lat="31.278612026944757" lon="-5.256564980372787">
        <ele>1077.8</ele>
        <time>2003-04-14T11:49:59Z</time>
      </trkpt>
      <trkpt lat="31.278467020019889" lon="-5.256615020334721">
        <ele>1077.4000000000001</ele>
        <time>2003-04-14T11:50:00Z</time>
      </trkpt>
      <trkpt lat="31.278361994773149" lon="-5.256677968427539">
        <ele>1076.5999999999999</ele>
        <time>2003-04-14T11:50:03Z</time>
      </trkpt>
      <trkpt lat="31.278253030031919" lon="-5.256718033924699">
        <ele>1075.7</ele>
        <time>2003-04-14T11:50:04Z</time>
      </trkpt>
      <trkpt lat="31.278097964823246" lon="-5.256758015602827">
        <ele>1074.8</ele>
        <time>2003-04-14T11:50:07Z</time>
      </trkpt>
      <trkpt lat="31.277999980375171" lon="-5.256776958703995">
        <ele>1074.5</ele>
        <time>2003-04-14T11:50:10Z</time>
      </trkpt>
      <trkpt lat="31.277893027290702" lon="-5.256734965369105">
        <ele>1074.0999999999999</ele>
        <time>2003-04-14T11:50:11Z</time>
      </trkpt>
      <trkpt lat="31.277786996215582" lon="-5.256717028096318">
        <ele>1074.7</ele>
        <time>2003-04-14T11:50:14Z</time>
      </trkpt>
      <trkpt lat="31.277682976797223" lon="-5.25672297924757">
        <ele>1074.5999999999999</ele>
        <time>2003-04-14T11:50:15Z</time>
      </trkpt>
      <trkpt lat="31.277581974864006" lon="-5.256775030866265">
        <ele>1074.2</ele>
        <time>2003-04-14T11:50:18Z</time>
      </trkpt>
      <trkpt lat="31.277484996244311" lon="-5.256836973130703">
        <ele>1074.3</ele>
        <time>2003-04-14T11:50:19Z</time>
      </trkpt>
      <trkpt lat="31.277382988482714" lon="-5.256833033636212">
        <ele>1074.2</ele>
        <time>2003-04-14T11:50:22Z</time>
      </trkpt>
      <trkpt lat="31.277285004034638" lon="-5.256834961473942">
        <ele>1074.2</ele>
        <time>2003-04-14T11:50:23Z</time>
      </trkpt>
      <trkpt lat="31.277209986001253" lon="-5.256905034184456">
        <ele>1074.0999999999999</ele>
        <time>2003-04-14T11:50:26Z</time>
      </trkpt>
      <trkpt lat="31.277096997946501" lon="-5.256943004205823">
        <ele>1074.0999999999999</ele>
        <time>2003-04-14T11:50:29Z</time>
      </trkpt>
      <trkpt lat="31.277003036811948" lon="-5.256879972293973">
        <ele>1072.9000000000001</ele>
        <time>2003-04-14T11:50:31Z</time>
      </trkpt>
      <trkpt lat="31.276866998523474" lon="-5.257096979767084">
        <ele>1104.4000000000001</ele>
        <time>2003-04-14T11:51:17Z</time>
      </trkpt>
      <trkpt lat="31.276931958273053" lon="-5.256977034732699">
        <ele>1084.2</ele>
        <time>2003-04-14T11:51:28Z</time>
      </trkpt>
      <trkpt lat="31.276868004351854" lon="-5.256875026971102">
        <ele>1100</ele>
        <time>2003-04-14T11:57:47Z</time>
      </trkpt>
      <trkpt lat="31.276960037648678" lon="-5.256897993385792">
        <ele>1089.9000000000001</ele>
        <time>2003-04-14T11:59:22Z</time>
      </trkpt>
      <trkpt lat="31.277176961302757" lon="-5.257009975612164">
        <ele>1012.2</ele>
        <time>2003-04-14T12:33:12Z</time>
      </trkpt>
      <trkpt lat="31.277060033753514" lon="-5.256905034184456">
        <ele>1050.3</ele>
        <time>2003-04-14T12:33:35Z</time>
      </trkpt>
      <trkpt lat="31.277124993503094" lon="-5.256982985883951">
        <ele>1027.0999999999999</ele>
        <time>2003-04-14T12:34:13Z</time>
      </trkpt>
      <trkpt lat="31.276979986578226" lon="-5.256879972293973">
        <ele>1068</ele>
        <time>2003-04-14T12:37:34Z</time>
      </trkpt>
      <trkpt lat="31.277083000168204" lon="-5.256909979507327">
        <ele>1037.0999999999999</ele>
        <time>2003-04-14T12:42:46Z</time>
      </trkpt>
      <trkpt lat="31.276612021028996" lon="-5.256807971745729">
        <ele>1070.9000000000001</ele>
        <time>2003-04-14T12:43:56Z</time>
      </trkpt>
      <trkpt lat="31.276713022962213" lon="-5.256909979507327">
        <ele>1079.5999999999999</ele>
        <time>2003-04-14T12:44:00Z</time>
      </trkpt>
      <trkpt lat="31.276804972440004" lon="-5.256941998377442">
        <ele>1081</ele>
        <time>2003-04-14T12:44:03Z</time>
      </trkpt>
      <trkpt lat="31.276892982423306" lon="-5.256909979507327">
        <ele>1079.2</ele>
        <time>2003-04-14T12:44:07Z</time>
      </trkpt>
      <trkpt lat="31.277000019326806" lon="-5.256920037791133">
        <ele>1061.3</ele>
        <time>2003-04-14T12:46:07Z</time>
      </trkpt>
      <trkpt lat="31.276828022673726" lon="-5.257084993645549">
        <ele>1068.8</ele>
        <time>2003-04-14T13:13:48Z</time>
      </trkpt>
      <trkpt lat="31.27687999047339" lon="-5.256992960348725">
        <ele>1069.2</ele>
        <time>2003-04-14T13:13:53Z</time>
      </trkpt>
      <trkpt lat="31.276964982971549" lon="-5.256845019757748">
        <ele>1069.9000000000001</ele>
        <time>2003-04-14T13:14:15Z</time>
      </trkpt>
      <trkpt lat="31.276855012401938" lon="-5.257342988625169">
        <ele>1070.0999999999999</ele>
        <time>2003-04-14T13:14:23Z</time>
      </trkpt>
      <trkpt lat="31.276988033205271" lon="-5.256639998406172">
        <ele>1070.3</ele>
        <time>2003-04-14T13:14:24Z</time>
      </trkpt>
      <trkpt lat="31.276958025991917" lon="-5.256770001724362">
        <ele>1070.3</ele>
        <time>2003-04-14T13:14:25Z</time>
      </trkpt>
      <trkpt lat="31.276949979364872" lon="-5.257007963955402">
        <ele>1070.8</ele>
        <time>2003-04-14T13:14:51Z</time>
      </trkpt>
      <trkpt lat="31.277027009055018" lon="-5.256803026422858">
        <ele>1071.0999999999999</ele>
        <time>2003-04-14T13:15:02Z</time>
      </trkpt>
      <trkpt lat="31.277147037908435" lon="-5.256197014823556">
        <ele>1071.4000000000001</ele>
        <time>2003-04-14T13:15:36Z</time>
      </trkpt>
      <trkpt lat="31.277045030146837" lon="-5.256462972611189">
        <ele>1071.3</ele>
        <time>2003-04-14T13:15:38Z</time>
      </trkpt>
      <trkpt lat="31.276979986578226" lon="-5.256628012284637">
        <ele>1071.3</ele>
        <time>2003-04-14T13:15:41Z</time>
      </trkpt>
      <trkpt lat="31.276927012950182" lon="-5.256848037242889">
        <ele>1071.5</ele>
        <time>2003-04-14T13:15:48Z</time>
      </trkpt>
      <trkpt lat="31.276912009343505" lon="-5.256951972842217">
        <ele>1072</ele>
        <time>2003-04-14T13:15:56Z</time>
      </trkpt>
      <trkpt lat="31.276979986578226" lon="-5.256807971745729">
        <ele>1073.3</ele>
        <time>2003-04-14T13:16:43Z</time>
      </trkpt>
      <trkpt lat="31.277055004611611" lon="-5.256498008966446">
        <ele>1076.3</ele>
        <time>2003-04-14T13:18:31Z</time>
      </trkpt>
      <trkpt lat="31.277043018490076" lon="-5.256615020334721">
        <ele>1076.3</ele>
        <time>2003-04-14T13:18:32Z</time>
      </trkpt>
      <trkpt lat="31.277015022933483" lon="-5.256782993674278">
        <ele>1076.3</ele>
        <time>2003-04-14T13:18:35Z</time>
      </trkpt>
      <trkpt lat="31.27696699462831" lon="-5.256875026971102">
        <ele>1076.4000000000001</ele>
        <time>2003-04-14T13:18:38Z</time>
      </trkpt>
      <trkpt lat="31.276897005736828" lon="-5.256583001464605">
        <ele>1077.5999999999999</ele>
        <time>2003-04-14T13:18:55Z</time>
      </trkpt>
      <trkpt lat="31.276912009343505" lon="-5.25672197341919">
        <ele>1077.8</ele>
        <time>2003-04-14T13:18:59Z</time>
      </trkpt>
      <trkpt lat="31.276932964101434" lon="-5.256828004494309">
        <ele>1078</ele>
        <time>2003-04-14T13:19:02Z</time>
      </trkpt>
      <trkpt lat="31.277019968256354" lon="-5.256905034184456">
        <ele>1081.5</ele>
        <time>2003-04-14T13:20:42Z</time>
      </trkpt>
      <trkpt lat="31.276985015720129" lon="-5.256389966234565">
        <ele>1088.2</ele>
        <time>2003-04-14T13:22:44Z</time>
      </trkpt>
      <trkpt lat="31.276945034042001" lon="-5.256749968975782">
        <ele>1088.2</ele>
        <time>2003-04-14T13:22:45Z</time>
      </trkpt>
      <trkpt lat="31.276972023770213" lon="-5.256863040849567">
        <ele>1088.3</ele>
        <time>2003-04-14T13:22:49Z</time>
      </trkpt>
      <trkpt lat="31.276994990184903" lon="-5.257033025845885">
        <ele>1065.5999999999999</ele>
        <time>2003-04-14T13:34:12Z</time>
      </trkpt>
      <trkpt lat="31.276976969093084" lon="-5.257142996415496">
        <ele>1067.0999999999999</ele>
        <time>2003-04-14T13:34:15Z</time>
      </trkpt>
      <trkpt lat="31.276940004900098" lon="-5.257239975035191">
        <ele>1068.0999999999999</ele>
        <time>2003-04-14T13:34:17Z</time>
      </trkpt>
      <trkpt lat="31.276845037937164" lon="-5.257307030260563">
        <ele>1068.5</ele>
        <time>2003-04-14T13:34:20Z</time>
      </trkpt>
      <trkpt lat="31.276706987991929" lon="-5.25736796669662">
        <ele>1068.0999999999999</ele>
        <time>2003-04-14T13:34:24Z</time>
      </trkpt>
      <trkpt lat="31.27662300132215" lon="-5.257318010553718">
        <ele>1067.7</ele>
        <time>2003-04-14T13:34:28Z</time>
      </trkpt>
      <trkpt lat="31.276534991338849" lon="-5.257241986691952">
        <ele>1067.5</ele>
        <time>2003-04-14T13:34:31Z</time>
      </trkpt>
      <trkpt lat="31.276440024375916" lon="-5.257212985306978">
        <ele>1067.9000000000001</ele>
        <time>2003-04-14T13:34:34Z</time>
      </trkpt>
      <trkpt lat="31.276259981095791" lon="-5.257293032482266">
        <ele>1069.5</ele>
        <time>2003-04-14T13:34:44Z</time>
      </trkpt>
      <trkpt lat="31.276135006919503" lon="-5.257266964763403">
        <ele>1070</ele>
        <time>2003-04-14T13:34:47Z</time>
      </trkpt>
      <trkpt lat="31.275969967246056" lon="-5.257239975035191">
        <ele>1070.5999999999999</ele>
        <time>2003-04-14T13:34:51Z</time>
      </trkpt>
      <trkpt lat="31.275782966986299" lon="-5.257207034155726">
        <ele>1070.9000000000001</ele>
        <time>2003-04-14T13:34:54Z</time>
      </trkpt>
      <trkpt lat="31.275657992810011" lon="-5.257147019729018">
        <ele>1071.3</ele>
        <time>2003-04-14T13:34:55Z</time>
      </trkpt>
      <trkpt lat="31.275550033897161" lon="-5.25706697255373">
        <ele>1071.4000000000001</ele>
        <time>2003-04-14T13:34:58Z</time>
      </trkpt>
      <trkpt lat="31.275350041687489" lon="-5.256854994222522">
        <ele>1070</ele>
        <time>2003-04-14T13:35:02Z</time>
      </trkpt>
      <trkpt lat="31.275241998955607" lon="-5.256673023104668">
        <ele>1069.0999999999999</ele>
        <time>2003-04-14T13:35:05Z</time>
      </trkpt>
      <trkpt lat="31.275162035599351" lon="-5.256561962887645">
        <ele>1068.5999999999999</ele>
        <time>2003-04-14T13:35:06Z</time>
      </trkpt>
      <trkpt lat="31.275043012574315" lon="-5.256492979824543">
        <ele>1068.4000000000001</ele>
        <time>2003-04-14T13:35:09Z</time>
      </trkpt>
      <trkpt lat="31.274900017306209" lon="-5.256457021459937">
        <ele>1068.5999999999999</ele>
        <time>2003-04-14T13:35:10Z</time>
      </trkpt>
      <trkpt lat="31.273999968543649" lon="-5.256197014823556">
        <ele>1068.5</ele>
        <time>2003-04-14T13:35:24Z</time>
      </trkpt>
      <trkpt lat="31.273659998551011" lon="-5.256123002618551">
        <ele>1068.5</ele>
        <time>2003-04-14T13:35:29Z</time>
      </trkpt>
      <trkpt lat="31.273541981354356" lon="-5.256167007610202">
        <ele>1068.2</ele>
        <time>2003-04-14T13:35:30Z</time>
      </trkpt>
      <trkpt lat="31.273426981642842" lon="-5.256179999560118">
        <ele>1067.9000000000001</ele>
        <time>2003-04-14T13:35:33Z</time>
      </trkpt>
      <trkpt lat="31.273302007466555" lon="-5.256138006225228">
        <ele>1067.9000000000001</ele>
        <time>2003-04-14T13:35:34Z</time>
      </trkpt>
      <trkpt lat="31.273167980834842" lon="-5.256147980690002">
        <ele>1067.8</ele>
        <time>2003-04-14T13:35:37Z</time>
      </trkpt>
      <trkpt lat="31.273042000830173" lon="-5.256128031760454">
        <ele>1068</ele>
        <time>2003-04-14T13:35:38Z</time>
      </trkpt>
      <trkpt lat="31.272773025557399" lon="-5.256002973765135">
        <ele>1065.4000000000001</ele>
        <time>2003-04-14T13:35:44Z</time>
      </trkpt>
      <trkpt lat="31.272606980055571" lon="-5.255897026509047">
        <ele>1065.4000000000001</ele>
        <time>2003-04-14T13:35:47Z</time>
      </trkpt>
      <trkpt lat="31.272488040849566" lon="-5.255901971831918">
        <ele>1065.0999999999999</ele>
        <time>2003-04-14T13:35:49Z</time>
      </trkpt>
      <trkpt lat="31.272367006167769" lon="-5.255859978497028">
        <ele>1064.4000000000001</ele>
        <time>2003-04-14T13:35:51Z</time>
      </trkpt>
      <trkpt lat="31.272249994799495" lon="-5.255789989605546">
        <ele>1064.3</ele>
        <time>2003-04-14T13:35:53Z</time>
      </trkpt>
      <trkpt lat="31.272122003138065" lon="-5.255684964358807">
        <ele>1063.3</ele>
        <time>2003-04-14T13:35:56Z</time>
      </trkpt>
      <trkpt lat="31.271993005648255" lon="-5.2555419690907">
        <ele>1062</ele>
        <time>2003-04-14T13:35:59Z</time>
      </trkpt>
      <trkpt lat="31.271863002330065" lon="-5.255414983257651">
        <ele>1061.7</ele>
        <time>2003-04-14T13:36:01Z</time>
      </trkpt>
      <trkpt lat="31.271807011216879" lon="-5.25530300103128">
        <ele>1061.2</ele>
        <time>2003-04-14T13:36:04Z</time>
      </trkpt>
      <trkpt lat="31.27168002538383" lon="-5.255014998838306">
        <ele>1058.9000000000001</ele>
        <time>2003-04-14T13:36:08Z</time>
      </trkpt>
      <trkpt lat="31.271569970995188" lon="-5.254936963319778">
        <ele>1059</ele>
        <time>2003-04-14T13:36:12Z</time>
      </trkpt>
      <trkpt lat="31.271454971283674" lon="-5.254839984700084">
        <ele>1059.2</ele>
        <time>2003-04-14T13:36:12Z</time>
      </trkpt>
      <trkpt lat="31.271403003484011" lon="-5.254679974168539">
        <ele>1059</ele>
        <time>2003-04-14T13:36:15Z</time>
      </trkpt>
      <trkpt lat="31.271403003484011" lon="-5.254515018314123">
        <ele>1059.4000000000001</ele>
        <time>2003-04-14T13:36:16Z</time>
      </trkpt>
      <trkpt lat="31.271386994048953" lon="-5.254355007782579">
        <ele>1059.3</ele>
        <time>2003-04-14T13:36:19Z</time>
      </trkpt>
      <trkpt lat="31.271305019035935" lon="-5.253980001434684">
        <ele>1058.4000000000001</ele>
        <time>2003-04-14T13:36:24Z</time>
      </trkpt>
      <trkpt lat="31.271222038194537" lon="-5.253882016986609">
        <ele>1058.8</ele>
        <time>2003-04-14T13:36:27Z</time>
      </trkpt>
      <trkpt lat="31.271092034876347" lon="-5.253825020045042">
        <ele>1059.0999999999999</ele>
        <time>2003-04-14T13:36:28Z</time>
      </trkpt>
      <trkpt lat="31.270958008244634" lon="-5.253728041425347">
        <ele>1058.9000000000001</ele>
        <time>2003-04-14T13:36:31Z</time>
      </trkpt>
      <trkpt lat="31.270704958587885" lon="-5.25358303450048">
        <ele>1059.0999999999999</ele>
        <time>2003-04-14T13:36:34Z</time>
      </trkpt>
      <trkpt lat="31.270579984411597" lon="-5.253593008965254">
        <ele>1060.5</ele>
        <time>2003-04-14T13:36:36Z</time>
      </trkpt>
      <trkpt lat="31.270289970561862" lon="-5.253582028672099">
        <ele>1061.7</ele>
        <time>2003-04-14T13:36:41Z</time>
      </trkpt>
      <trkpt lat="31.270161978900433" lon="-5.253646988421679">
        <ele>1062</ele>
        <time>2003-04-14T13:36:43Z</time>
      </trkpt>
      <trkpt lat="31.269870037212968" lon="-5.253814961761236">
        <ele>1061.5999999999999</ele>
        <time>2003-04-14T13:36:46Z</time>
      </trkpt>
      <trkpt lat="31.269371984526515" lon="-5.254153003916144">
        <ele>1060.5</ele>
        <time>2003-04-14T13:36:54Z</time>
      </trkpt>
      <trkpt lat="31.269237035885453" lon="-5.254255011677742">
        <ele>1059.5999999999999</ele>
        <time>2003-04-14T13:36:55Z</time>
      </trkpt>
      <trkpt lat="31.268879966810346" lon="-5.254539996385574">
        <ele>1057.3</ele>
        <time>2003-04-14T13:37:01Z</time>
      </trkpt>
      <trkpt lat="31.268767984583974" lon="-5.254733031615615">
        <ele>1055.8</ele>
        <time>2003-04-14T13:37:02Z</time>
      </trkpt>
      <trkpt lat="31.268618032336235" lon="-5.255056992173195">
        <ele>1053.5999999999999</ele>
        <time>2003-04-14T13:37:06Z</time>
      </trkpt>
      <trkpt lat="31.26852298155427" lon="-5.255248015746474">
        <ele>1053.7</ele>
        <time>2003-04-14T13:37:09Z</time>
      </trkpt>
      <trkpt lat="31.268300022929907" lon="-5.255653029307723">
        <ele>1051.3</ele>
        <time>2003-04-14T13:37:13Z</time>
      </trkpt>
      <trkpt lat="31.268106987699866" lon="-5.256112022325397">
        <ele>1049.2</ele>
        <time>2003-04-14T13:37:17Z</time>
      </trkpt>
      <trkpt lat="31.268030041828752" lon="-5.256285024806857">
        <ele>1048.4000000000001</ele>
        <time>2003-04-14T13:37:20Z</time>
      </trkpt>
      <trkpt lat="31.26785502769053" lon="-5.256540002301335">
        <ele>1046.7</ele>
        <time>2003-04-14T13:37:22Z</time>
      </trkpt>
      <trkpt lat="31.267625028267503" lon="-5.256833033636212">
        <ele>1044</ele>
        <time>2003-04-14T13:37:26Z</time>
      </trkpt>
      <trkpt lat="31.267507011070848" lon="-5.256963036954403">
        <ele>1043.3</ele>
        <time>2003-04-14T13:37:29Z</time>
      </trkpt>
      <trkpt lat="31.267352029681206" lon="-5.257109971717">
        <ele>1043.0999999999999</ele>
        <time>2003-04-14T13:37:32Z</time>
      </trkpt>
      <trkpt lat="31.267278017476201" lon="-5.257262019440532">
        <ele>1042.7</ele>
        <time>2003-04-14T13:37:33Z</time>
      </trkpt>
      <trkpt lat="31.267178021371365" lon="-5.257414989173412">
        <ele>1042.7</ele>
        <time>2003-04-14T13:37:36Z</time>
      </trkpt>
      <trkpt lat="31.267054975032806" lon="-5.257548009976745">
        <ele>1043</ele>
        <time>2003-04-14T13:37:37Z</time>
      </trkpt>
      <trkpt lat="31.266649961471558" lon="-5.258001973852515">
        <ele>1043.5</ele>
        <time>2003-04-14T13:37:44Z</time>
      </trkpt>
      <trkpt lat="31.26637302339077" lon="-5.258359964936972">
        <ele>1043.4000000000001</ele>
        <time>2003-04-14T13:37:48Z</time>
      </trkpt>
      <trkpt lat="31.266130032017827" lon="-5.25876497849822">
        <ele>1043.8</ele>
        <time>2003-04-14T13:37:52Z</time>
      </trkpt>
      <trkpt lat="31.266022995114326" lon="-5.25897704064846">
        <ele>1044</ele>
        <time>2003-04-14T13:37:53Z</time>
      </trkpt>
      <trkpt lat="31.265889974310994" lon="-5.259135039523244">
        <ele>1043.7</ele>
        <time>2003-04-14T13:37:56Z</time>
      </trkpt>
      <trkpt lat="31.265163011848927" lon="-5.259854961186647">
        <ele>1050.5</ele>
        <time>2003-04-14T13:38:07Z</time>
      </trkpt>
      <trkpt lat="31.264880038797855" lon="-5.260125026106834">
        <ele>1052.3</ele>
        <time>2003-04-14T13:38:11Z</time>
      </trkpt>
      <trkpt lat="31.26471801660955" lon="-5.260347984731197">
        <ele>1053.9000000000001</ele>
        <time>2003-04-14T13:38:14Z</time>
      </trkpt>
      <trkpt lat="31.264539984986186" lon="-5.260517969727516">
        <ele>1054.5999999999999</ele>
        <time>2003-04-14T13:38:16Z</time>
      </trkpt>
      <trkpt lat="31.264445018023252" lon="-5.260668005794287">
        <ele>1054.8</ele>
        <time>2003-04-14T13:38:19Z</time>
      </trkpt>
      <trkpt lat="31.264403024688363" lon="-5.260842014104128">
        <ele>1055.7</ele>
        <time>2003-04-14T13:38:20Z</time>
      </trkpt>
      <trkpt lat="31.264315014705062" lon="-5.261249961331487">
        <ele>1056.7</ele>
        <time>2003-04-14T13:38:26Z</time>
      </trkpt>
      <trkpt lat="31.264272015541792" lon="-5.261424975469708">
        <ele>1055.9000000000001</ele>
        <time>2003-04-14T13:38:27Z</time>
      </trkpt>
      <trkpt lat="31.264276960864663" lon="-5.261593032628298">
        <ele>1054.4000000000001</ele>
        <time>2003-04-14T13:38:30Z</time>
      </trkpt>
      <trkpt lat="31.264302022755146" lon="-5.261697974056006">
        <ele>1053.4000000000001</ele>
        <time>2003-04-14T13:38:31Z</time>
      </trkpt>
      <trkpt lat="31.264300011098385" lon="-5.261823032051325">
        <ele>1052</ele>
        <time>2003-04-14T13:38:34Z</time>
      </trkpt>
      <trkpt lat="31.26420202665031" lon="-5.261962004005909">
        <ele>1051</ele>
        <time>2003-04-14T13:38:35Z</time>
      </trkpt>
      <trkpt lat="31.264046961441636" lon="-5.262056970968843">
        <ele>1050.7</ele>
        <time>2003-04-14T13:38:38Z</time>
      </trkpt>
      <trkpt lat="31.263832971453667" lon="-5.262187980115414">
        <ele>1049.7</ele>
        <time>2003-04-14T13:38:41Z</time>
      </trkpt>
      <trkpt lat="31.263664998114109" lon="-5.262406999245286">
        <ele>1049.5</ele>
        <time>2003-04-14T13:38:43Z</time>
      </trkpt>
      <trkpt lat="31.263586962595582" lon="-5.262547982856631">
        <ele>1051.9000000000001</ele>
        <time>2003-04-14T13:38:46Z</time>
      </trkpt>
      <trkpt lat="31.263477997854352" lon="-5.262615038082004">
        <ele>1053.7</ele>
        <time>2003-04-14T13:38:47Z</time>
      </trkpt>
      <trkpt lat="31.263346988707781" lon="-5.262602968141437">
        <ele>1053.7</ele>
        <time>2003-04-14T13:38:50Z</time>
      </trkpt>
      <trkpt lat="31.263195024803281" lon="-5.262644961476326">
        <ele>1052.9000000000001</ele>
        <time>2003-04-14T13:38:51Z</time>
      </trkpt>
      <trkpt lat="31.263116989284754" lon="-5.262702964246273">
        <ele>1052.5</ele>
        <time>2003-04-14T13:38:53Z</time>
      </trkpt>
      <trkpt lat="31.262863017618656" lon="-5.262903040274978">
        <ele>1052.4000000000001</ele>
        <time>2003-04-14T13:38:56Z</time>
      </trkpt>
      <trkpt lat="31.262360019609332" lon="-5.263297995552421">
        <ele>1052.3</ele>
        <time>2003-04-14T13:39:01Z</time>
      </trkpt>
      <trkpt lat="31.262172013521194" lon="-5.263422969728708">
        <ele>1051.5</ele>
        <time>2003-04-14T13:39:04Z</time>
      </trkpt>
      <trkpt lat="31.26151998527348" lon="-5.263796970248222">
        <ele>1048.8</ele>
        <time>2003-04-14T13:39:09Z</time>
      </trkpt>
      <trkpt lat="31.260672993957996" lon="-5.264168037101626">
        <ele>1044.9000000000001</ele>
        <time>2003-04-14T13:39:17Z</time>
      </trkpt>
      <trkpt lat="31.260333023965359" lon="-5.264295022934675">
        <ele>1043.3</ele>
        <time>2003-04-14T13:39:20Z</time>
      </trkpt>
      <trkpt lat="31.26012297347188" lon="-5.264378003776074">
        <ele>1041.9000000000001</ele>
        <time>2003-04-14T13:39:21Z</time>
      </trkpt>
      <trkpt lat="31.259555015712976" lon="-5.264680003747344">
        <ele>1038.8</ele>
        <time>2003-04-14T13:39:27Z</time>
      </trkpt>
      <trkpt lat="31.258976999670267" lon="-5.264983009546995">
        <ele>1036.5999999999999</ele>
        <time>2003-04-14T13:39:32Z</time>
      </trkpt>
      <trkpt lat="31.258612973615527" lon="-5.265203034505248">
        <ele>1035.4000000000001</ele>
        <time>2003-04-14T13:39:35Z</time>
      </trkpt>
      <trkpt lat="31.258033029735088" lon="-5.265579968690872">
        <ele>1032.9000000000001</ele>
        <time>2003-04-14T13:39:40Z</time>
      </trkpt>
      <trkpt lat="31.257572025060654" lon="-5.265794964507222">
        <ele>1030.5999999999999</ele>
        <time>2003-04-14T13:39:44Z</time>
      </trkpt>
      <trkpt lat="31.257344959303737" lon="-5.265890015289187">
        <ele>1029.7</ele>
        <time>2003-04-14T13:39:45Z</time>
      </trkpt>
      <trkpt lat="31.256633000448346" lon="-5.266287988051772">
        <ele>1026</ele>
        <time>2003-04-14T13:39:52Z</time>
      </trkpt>
      <trkpt lat="31.256365031003952" lon="-5.266471970826387">
        <ele>1024.5999999999999</ele>
        <time>2003-04-14T13:39:55Z</time>
      </trkpt>
      <trkpt lat="31.256269980221987" lon="-5.266498038545251">
        <ele>1024.0999999999999</ele>
        <time>2003-04-14T13:39:56Z</time>
      </trkpt>
      <trkpt lat="31.255872007459402" lon="-5.266595017164946">
        <ele>1020.1</ele>
        <time>2003-04-14T13:40:00Z</time>
      </trkpt>
      <trkpt lat="31.255649970844388" lon="-5.266550006344914">
        <ele>1019.5</ele>
        <time>2003-04-14T13:40:03Z</time>
      </trkpt>
      <trkpt lat="31.255317041650414" lon="-5.266482029110193">
        <ele>1018.4</ele>
        <time>2003-04-14T13:40:06Z</time>
      </trkpt>
      <trkpt lat="31.254983022809029" lon="-5.266437018290162">
        <ele>1016.6</ele>
        <time>2003-04-14T13:40:08Z</time>
      </trkpt>
      <trkpt lat="31.254874980077147" lon="-5.266380021348596">
        <ele>1015.7</ele>
        <time>2003-04-14T13:40:10Z</time>
      </trkpt>
      <trkpt lat="31.254563005641103" lon="-5.266192015260458">
        <ele>1015.4</ele>
        <time>2003-04-14T13:40:12Z</time>
      </trkpt>
      <trkpt lat="31.254242984578013" lon="-5.266009960323572">
        <ele>1014.8</ele>
        <time>2003-04-14T13:40:15Z</time>
      </trkpt>
      <trkpt lat="31.254133014008403" lon="-5.265999985858798">
        <ele>1014.7</ele>
        <time>2003-04-14T13:40:17Z</time>
      </trkpt>
      <trkpt lat="31.253918018192053" lon="-5.265947012230754">
        <ele>1013.8</ele>
        <time>2003-04-14T13:40:19Z</time>
      </trkpt>
      <trkpt lat="31.25359196215868" lon="-5.265830000862479">
        <ele>1013.3</ele>
        <time>2003-04-14T13:40:22Z</time>
      </trkpt>
      <trkpt lat="31.253381995484233" lon="-5.265775015577674">
        <ele>1013.3</ele>
        <time>2003-04-14T13:40:23Z</time>
      </trkpt>
      <trkpt lat="31.253200024366379" lon="-5.265675019472837">
        <ele>1012.5</ele>
        <time>2003-04-14T13:40:26Z</time>
      </trkpt>
      <trkpt lat="31.253128023818135" lon="-5.265606958419085">
        <ele>1013.2</ele>
        <time>2003-04-14T13:40:26Z</time>
      </trkpt>
      <trkpt lat="31.253040013834834" lon="-5.265557002276182">
        <ele>1013</ele>
        <time>2003-04-14T13:40:27Z</time>
      </trkpt>
      <trkpt lat="31.25253701582551" lon="-5.265348041430116">
        <ele>1012.2</ele>
        <time>2003-04-14T13:40:33Z</time>
      </trkpt>
      <trkpt lat="31.251912983134389" lon="-5.265166992321611">
        <ele>1010.2</ele>
        <time>2003-04-14T13:40:38Z</time>
      </trkpt>
      <trkpt lat="31.25182799063623" lon="-5.265087028965354">
        <ele>1010</ele>
        <time>2003-04-14T13:40:39Z</time>
      </trkpt>
      <trkpt lat="31.251735035330057" lon="-5.265025002881885">
        <ele>1009.6</ele>
        <time>2003-04-14T13:40:41Z</time>
      </trkpt>
      <trkpt lat="31.25163302756846" lon="-5.264982003718615">
        <ele>1009.4</ele>
        <time>2003-04-14T13:40:42Z</time>
      </trkpt>
      <trkpt lat="31.250780001282692" lon="-5.264652008190751">
        <ele>1007.8</ele>
        <time>2003-04-14T13:40:49Z</time>
      </trkpt>
      <trkpt lat="31.250534998252988" lon="-5.264638010412455">
        <ele>1007.6</ele>
        <time>2003-04-14T13:40:52Z</time>
      </trkpt>
      <trkpt lat="31.249532019719481" lon="-5.26462996378541">
        <ele>1007.6</ele>
        <time>2003-04-14T13:41:00Z</time>
      </trkpt>
      <trkpt lat="31.249282993376255" lon="-5.264657037332654">
        <ele>1007</ele>
        <time>2003-04-14T13:41:01Z</time>
      </trkpt>
      <trkpt lat="31.249058023095131" lon="-5.26467002928257">
        <ele>1006.8</ele>
        <time>2003-04-14T13:41:04Z</time>
      </trkpt>
      <trkpt lat="31.248082034289837" lon="-5.264634992927313">
        <ele>1006.1</ele>
        <time>2003-04-14T13:41:12Z</time>
      </trkpt>
      <trkpt lat="31.247990000993013" lon="-5.264634992927313">
        <ele>1006.8</ele>
        <time>2003-04-14T13:41:13Z</time>
      </trkpt>
      <trkpt lat="31.247838037088513" lon="-5.264622000977397">
        <ele>1007.5</ele>
        <time>2003-04-14T13:41:15Z</time>
      </trkpt>
      <trkpt lat="31.24751198105514" lon="-5.264700036495924">
        <ele>1006.7</ele>
        <time>2003-04-14T13:41:19Z</time>
      </trkpt>
      <trkpt lat="31.247212998569012" lon="-5.264755021780729">
        <ele>1004.8</ele>
        <time>2003-04-14T13:41:21Z</time>
      </trkpt>
      <trkpt lat="31.247127000242472" lon="-5.264817969873548">
        <ele>1004</ele>
        <time>2003-04-14T13:41:23Z</time>
      </trkpt>
      <trkpt lat="31.24632703140378" lon="-5.265343012288213">
        <ele>1002</ele>
        <time>2003-04-14T13:41:32Z</time>
      </trkpt>
      <trkpt lat="31.245462018996477" lon="-5.265733022242785">
        <ele>1001.8</ele>
        <time>2003-04-14T13:41:40Z</time>
      </trkpt>
      <trkpt lat="31.244545038789511" lon="-5.266102999448776">
        <ele>999</ele>
        <time>2003-04-14T13:41:50Z</time>
      </trkpt>
      <trkpt lat="31.243869960308075" lon="-5.266341967508197">
        <ele>998.89999999999998</ele>
        <time>2003-04-14T13:41:56Z</time>
      </trkpt>
      <trkpt lat="31.243762001395226" lon="-5.26636803522706">
        <ele>999.5</ele>
        <time>2003-04-14T13:41:59Z</time>
      </trkpt>
      <trkpt lat="31.243677008897066" lon="-5.266442969441414">
        <ele>1000.2</ele>
        <time>2003-04-14T13:42:00Z</time>
      </trkpt>
      <trkpt lat="31.243586987257004" lon="-5.266474988311529">
        <ele>1000.8</ele>
        <time>2003-04-14T13:42:03Z</time>
      </trkpt>
      <trkpt lat="31.243456983938813" lon="-5.26649703271687">
        <ele>1001.7</ele>
        <time>2003-04-14T13:42:05Z</time>
      </trkpt>
      <trkpt lat="31.243365034461021" lon="-5.266514969989657">
        <ele>1001.5</ele>
        <time>2003-04-14T13:42:06Z</time>
      </trkpt>
      <trkpt lat="31.243260009214282" lon="-5.266537014394999">
        <ele>1000.9</ele>
        <time>2003-04-14T13:42:07Z</time>
      </trkpt>
      <trkpt lat="31.242679981514812" lon="-5.266632987186313">
        <ele>999.10000000000002</ele>
        <time>2003-04-14T13:42:13Z</time>
      </trkpt>
      <trkpt lat="31.24250203371048" lon="-5.266674980521202">
        <ele>999.20000000000005</ele>
        <time>2003-04-14T13:42:14Z</time>
      </trkpt>
      <trkpt lat="31.242357026785612" lon="-5.266706999391317">
        <ele>998.79999999999995</ele>
        <time>2003-04-14T13:42:17Z</time>
      </trkpt>
      <trkpt lat="31.241617994382977" lon="-5.266882013529539">
        <ele>998.39999999999998</ele>
        <time>2003-04-14T13:42:26Z</time>
      </trkpt>
      <trkpt lat="31.241424959152937" lon="-5.266976980492473">
        <ele>998.89999999999998</ele>
        <time>2003-04-14T13:42:30Z</time>
      </trkpt>
      <trkpt lat="31.240866975858808" lon="-5.267246961593628">
        <ele>999.70000000000005</ele>
        <time>2003-04-14T13:42:38Z</time>
      </trkpt>
      <trkpt lat="31.240707971155643" lon="-5.267373025417328">
        <ele>1000.1</ele>
        <time>2003-04-14T13:42:41Z</time>
      </trkpt>
      <trkpt lat="31.240092990919948" lon="-5.267839981243014">
        <ele>1002.6</ele>
        <time>2003-04-14T13:42:49Z</time>
      </trkpt>
      <trkpt lat="31.23994798399508" lon="-5.267990017309785">
        <ele>1003.5</ele>
        <time>2003-04-14T13:42:50Z</time>
      </trkpt>
      <trkpt lat="31.239686971530318" lon="-5.268233008682728">
        <ele>1004.8</ele>
        <time>2003-04-14T13:42:53Z</time>
      </trkpt>
      <trkpt lat="31.239051958546042" lon="-5.269068013876677">
        <ele>1007.7</ele>
        <time>2003-04-14T13:43:03Z</time>
      </trkpt>
      <trkpt lat="31.238922039046884" lon="-5.269282003864646">
        <ele>1008.8</ele>
        <time>2003-04-14T13:43:04Z</time>
      </trkpt>
      <trkpt lat="31.238762028515339" lon="-5.269466992467642">
        <ele>1008.7</ele>
        <time>2003-04-14T13:43:07Z</time>
      </trkpt>
      <trkpt lat="31.238634958863258" lon="-5.269647035747767">
        <ele>1009.5</ele>
        <time>2003-04-14T13:43:08Z</time>
      </trkpt>
      <trkpt lat="31.238545021042228" lon="-5.269815009087324">
        <ele>1010.1</ele>
        <time>2003-04-14T13:43:11Z</time>
      </trkpt>
      <trkpt lat="31.238462962210178" lon="-5.269948029890657">
        <ele>1009.7</ele>
        <time>2003-04-14T13:43:12Z</time>
      </trkpt>
      <trkpt lat="31.238297000527382" lon="-5.270107034593821">
        <ele>1008.6</ele>
        <time>2003-04-14T13:43:16Z</time>
      </trkpt>
      <trkpt lat="31.238217959180474" lon="-5.27027802541852">
        <ele>1007.1</ele>
        <time>2003-04-14T13:43:17Z</time>
      </trkpt>
      <trkpt lat="31.238104971125722" lon="-5.270416997373104">
        <ele>1006</ele>
        <time>2003-04-14T13:43:20Z</time>
      </trkpt>
      <trkpt lat="31.237932974472642" lon="-5.270529985427856">
        <ele>1005.4</ele>
        <time>2003-04-14T13:43:21Z</time>
      </trkpt>
      <trkpt lat="31.237665005028248" lon="-5.270742969587445">
        <ele>1005.4</ele>
        <time>2003-04-14T13:43:26Z</time>
      </trkpt>
      <trkpt lat="31.23758202418685" lon="-5.270895017310977">
        <ele>1005</ele>
        <time>2003-04-14T13:43:28Z</time>
      </trkpt>
      <trkpt lat="31.237508011981845" lon="-5.271121999248862">
        <ele>1004</ele>
        <time>2003-04-14T13:43:30Z</time>
      </trkpt>
      <trkpt lat="31.237363005056977" lon="-5.271564982831478">
        <ele>1003.9</ele>
        <time>2003-04-14T13:43:34Z</time>
      </trkpt>
      <trkpt lat="31.23711297288537" lon="-5.272133024409413">
        <ele>1003.1</ele>
        <time>2003-04-14T13:43:39Z</time>
      </trkpt>
      <trkpt lat="31.236997973173857" lon="-5.272435024380684">
        <ele>1004.3</ele>
        <time>2003-04-14T13:43:42Z</time>
      </trkpt>
      <trkpt lat="31.236935025081038" lon="-5.27262001298368">
        <ele>1003.6</ele>
        <time>2003-04-14T13:43:43Z</time>
      </trkpt>
      <trkpt lat="31.236817007884383" lon="-5.272992001846433">
        <ele>1003.1</ele>
        <time>2003-04-14T13:43:47Z</time>
      </trkpt>
      <trkpt lat="31.236718017607927" lon="-5.273122005164623">
        <ele>1002.8</ele>
        <time>2003-04-14T13:43:50Z</time>
      </trkpt>
      <trkpt lat="31.236588014289737" lon="-5.273238010704517">
        <ele>1003.3</ele>
        <time>2003-04-14T13:43:51Z</time>
      </trkpt>
      <trkpt lat="31.23631501570344" lon="-5.273398021236062">
        <ele>1002.9</ele>
        <time>2003-04-14T13:43:55Z</time>
      </trkpt>
      <trkpt lat="31.236224994063377" lon="-5.273532969877124">
        <ele>1003.5</ele>
        <time>2003-04-14T13:43:58Z</time>
      </trkpt>
      <trkpt lat="31.236091973260045" lon="-5.273649981245399">
        <ele>1005.2</ele>
        <time>2003-04-14T13:43:59Z</time>
      </trkpt>
      <trkpt lat="31.235987031832337" lon="-5.273775039240718">
        <ele>1006.9</ele>
        <time>2003-04-14T13:44:02Z</time>
      </trkpt>
      <trkpt lat="31.235827021300793" lon="-5.273947035893798">
        <ele>1008.3</ele>
        <time>2003-04-14T13:44:05Z</time>
      </trkpt>
      <trkpt lat="31.235710009932518" lon="-5.274091958999634">
        <ele>1007.9</ele>
        <time>2003-04-14T13:44:06Z</time>
      </trkpt>
      <trkpt lat="31.235437011346221" lon="-5.274590011686087">
        <ele>1010.4</ele>
        <time>2003-04-14T13:44:13Z</time>
      </trkpt>
      <trkpt lat="31.235387977212667" lon="-5.274732001125813">
        <ele>1013.7</ele>
        <time>2003-04-14T13:44:14Z</time>
      </trkpt>
      <trkpt lat="31.235246993601322" lon="-5.27481003664434">
        <ele>1014.4</ele>
        <time>2003-04-14T13:44:17Z</time>
      </trkpt>
      <trkpt lat="31.235117996111512" lon="-5.274929981678724">
        <ele>1015.8</ele>
        <time>2003-04-14T13:44:18Z</time>
      </trkpt>
      <trkpt lat="31.23509201221168" lon="-5.275037018582225">
        <ele>1015</ele>
        <time>2003-04-14T13:44:20Z</time>
      </trkpt>
      <trkpt lat="31.23506803996861" lon="-5.275265006348491">
        <ele>1017.5</ele>
        <time>2003-04-14T13:44:22Z</time>
      </trkpt>
      <trkpt lat="31.235078014433384" lon="-5.275536999106407">
        <ele>1016.9</ele>
        <time>2003-04-14T13:44:24Z</time>
      </trkpt>
      <trkpt lat="31.235126964747906" lon="-5.276077967137098">
        <ele>1016</ele>
        <time>2003-04-14T13:44:28Z</time>
      </trkpt>
      <trkpt lat="31.235141968354583" lon="-5.276330010965467">
        <ele>1015.6</ele>
        <time>2003-04-14T13:44:29Z</time>
      </trkpt>
      <trkpt lat="31.235120007768273" lon="-5.276696970686317">
        <ele>1016.2</ele>
        <time>2003-04-14T13:44:33Z</time>
      </trkpt>
      <trkpt lat="31.235082037746906" lon="-5.276814987882972">
        <ele>1016.5</ele>
        <time>2003-04-14T13:44:33Z</time>
      </trkpt>
      <trkpt lat="31.234953040257096" lon="-5.277150012552738">
        <ele>1018.5</ele>
        <time>2003-04-14T13:44:37Z</time>
      </trkpt>
      <trkpt lat="31.234832005575299" lon="-5.277338018640876">
        <ele>1020</ele>
        <time>2003-04-14T13:44:38Z</time>
      </trkpt>
      <trkpt lat="31.234590020030737" lon="-5.277662985026836">
        <ele>1022.6</ele>
        <time>2003-04-14T13:44:42Z</time>
      </trkpt>
      <trkpt lat="31.234377035871148" lon="-5.277876975014806">
        <ele>1023.4</ele>
        <time>2003-04-14T13:44:45Z</time>
      </trkpt>
      <trkpt lat="31.234267987310886" lon="-5.278064981102943">
        <ele>1022.3</ele>
        <time>2003-04-14T13:44:48Z</time>
      </trkpt>
      <trkpt lat="31.233891975134611" lon="-5.278802001848817">
        <ele>1019.6</ele>
        <time>2003-04-14T13:44:56Z</time>
      </trkpt>
      <trkpt lat="31.233870014548302" lon="-5.278922030702233">
        <ele>1019.1</ele>
        <time>2003-04-14T13:44:56Z</time>
      </trkpt>
      <trkpt lat="31.233768006786704" lon="-5.279211960732937">
        <ele>1017.4</ele>
        <time>2003-04-14T13:45:00Z</time>
      </trkpt>
      <trkpt lat="31.233659964054823" lon="-5.279412036761642">
        <ele>1015.4</ele>
        <time>2003-04-14T13:45:01Z</time>
      </trkpt>
      <trkpt lat="31.233544964343309" lon="-5.279565006494522">
        <ele>1013.6</ele>
        <time>2003-04-14T13:45:04Z</time>
      </trkpt>
      <trkpt lat="31.23328797519207" lon="-5.279795005917549">
        <ele>1011.7</ele>
        <time>2003-04-14T13:45:07Z</time>
      </trkpt>
      <trkpt lat="31.232871981337667" lon="-5.280137993395329">
        <ele>1010</ele>
        <time>2003-04-14T13:45:11Z</time>
      </trkpt>
      <trkpt lat="31.232493035495281" lon="-5.280409986153245">
        <ele>1008</ele>
        <time>2003-04-14T13:45:15Z</time>
      </trkpt>
      <trkpt lat="31.23234199360013" lon="-5.280520040541887">
        <ele>1006.5</ele>
        <time>2003-04-14T13:45:16Z</time>
      </trkpt>
      <trkpt lat="31.232079975306988" lon="-5.280697988346219">
        <ele>1001.8</ele>
        <time>2003-04-14T13:45:19Z</time>
      </trkpt>
      <trkpt lat="31.231917031109333" lon="-5.280779963359237">
        <ele>1001.2</ele>
        <time>2003-04-14T13:45:22Z</time>
      </trkpt>
      <trkpt lat="31.231832038611174" lon="-5.28093796223402">
        <ele>1002.9</ele>
        <time>2003-04-14T13:45:23Z</time>
      </trkpt>
      <trkpt lat="31.231746962293983" lon="-5.281041981652379">
        <ele>1003.2</ele>
        <time>2003-04-14T13:45:26Z</time>
      </trkpt>
      <trkpt lat="31.231628023087978" lon="-5.281078023836017">
        <ele>1002.8</ele>
        <time>2003-04-14T13:45:28Z</time>
      </trkpt>
      <trkpt lat="31.231528026983142" lon="-5.281071988865733">
        <ele>1001.9</ele>
        <time>2003-04-14T13:45:31Z</time>
      </trkpt>
      <trkpt lat="31.231225021183491" lon="-5.281007029116154">
        <ele>997.89999999999998</ele>
        <time>2003-04-14T13:45:36Z</time>
      </trkpt>
      <trkpt lat="31.231131982058287" lon="-5.28102002106607">
        <ele>998.10000000000002</ele>
        <time>2003-04-14T13:45:39Z</time>
      </trkpt>
      <trkpt lat="31.231047995388508" lon="-5.281082969158888">
        <ele>998.10000000000002</ele>
        <time>2003-04-14T13:45:43Z</time>
      </trkpt>
      <trkpt lat="31.23105201870203" lon="-5.281205009669066">
        <ele>997.89999999999998</ele>
        <time>2003-04-14T13:45:46Z</time>
      </trkpt>
      <trkpt lat="31.231112033128738" lon="-5.281290002167225">
        <ele>998.5</ele>
        <time>2003-04-14T13:45:50Z</time>
      </trkpt>
      <trkpt lat="31.231219992041588" lon="-5.281397961080074">
        <ele>998.70000000000005</ele>
        <time>2003-04-14T13:45:53Z</time>
      </trkpt>
      <trkpt lat="31.231306996196508" lon="-5.281502986326814">
        <ele>998.79999999999995</ele>
        <time>2003-04-14T13:45:54Z</time>
      </trkpt>
      <trkpt lat="31.231377990916371" lon="-5.281627038493753">
        <ele>998.89999999999998</ele>
        <time>2003-04-14T13:45:57Z</time>
      </trkpt>
      <trkpt lat="31.231492990627885" lon="-5.281872041523457">
        <ele>999</ele>
        <time>2003-04-14T13:46:01Z</time>
      </trkpt>
      <trkpt lat="31.231436999514699" lon="-5.282059963792563">
        <ele>998</ele>
        <time>2003-04-14T13:46:08Z</time>
      </trkpt>
      <trkpt lat="31.231359969824553" lon="-5.282187033444643">
        <ele>998.5</ele>
        <time>2003-04-14T13:46:12Z</time>
      </trkpt>
      <trkpt lat="31.231268020346761" lon="-5.282279988750815">
        <ele>998.5</ele>
        <time>2003-04-14T13:46:14Z</time>
      </trkpt>
      <trkpt lat="31.231123013421893" lon="-5.282394988462329">
        <ele>998.60000000000002</ele>
        <time>2003-04-14T13:46:18Z</time>
      </trkpt>
      <trkpt lat="31.230914974585176" lon="-5.282515017315745">
        <ele>999.5</ele>
        <time>2003-04-14T13:46:25Z</time>
      </trkpt>
      <trkpt lat="31.230827970430255" lon="-5.282551981508732">
        <ele>999.39999999999998</ele>
        <time>2003-04-14T13:46:26Z</time>
      </trkpt>
      <trkpt lat="31.230723029002547" lon="-5.282477969303727">
        <ele>999.39999999999998</ele>
        <time>2003-04-14T13:46:29Z</time>
      </trkpt>
      <trkpt lat="31.230637030676007" lon="-5.28235299512744">
        <ele>999.20000000000005</ele>
        <time>2003-04-14T13:46:32Z</time>
      </trkpt>
      <trkpt lat="31.230456987395883" lon="-5.282155014574528">
        <ele>997.89999999999998</ele>
        <time>2003-04-14T13:46:36Z</time>
      </trkpt>
      <trkpt lat="31.23034299351275" lon="-5.282112015411258">
        <ele>997.39999999999998</ele>
        <time>2003-04-14T13:46:37Z</time>
      </trkpt>
      <trkpt lat="31.230247020721436" lon="-5.282043032348156">
        <ele>997.10000000000002</ele>
        <time>2003-04-14T13:46:40Z</time>
      </trkpt>
      <trkpt lat="31.230136966332793" lon="-5.282016964629293">
        <ele>996.79999999999995</ele>
        <time>2003-04-14T13:46:41Z</time>
      </trkpt>
      <trkpt lat="31.2296980060637" lon="-5.281998021528125">
        <ele>997.10000000000002</ele>
        <time>2003-04-14T13:46:49Z</time>
      </trkpt>
      <trkpt lat="31.229457026347518" lon="-5.282049989327788">
        <ele>997</ele>
        <time>2003-04-14T13:46:55Z</time>
      </trkpt>
      <trkpt lat="31.229370022192597" lon="-5.281998021528125">
        <ele>996.89999999999998</ele>
        <time>2003-04-14T13:46:56Z</time>
      </trkpt>
      <trkpt lat="31.229172041639686" lon="-5.28190003708005">
        <ele>996.70000000000005</ele>
        <time>2003-04-14T13:47:00Z</time>
      </trkpt>
      <trkpt lat="31.228972971439362" lon="-5.281812027096748">
        <ele>997.20000000000005</ele>
        <time>2003-04-14T13:47:06Z</time>
      </trkpt>
      <trkpt lat="31.228853026404977" lon="-5.281631983816624">
        <ele>996</ele>
        <time>2003-04-14T13:47:29Z</time>
      </trkpt>
      <trkpt lat="31.228737020865083" lon="-5.281655034050345">
        <ele>996.10000000000002</ele>
        <time>2003-04-14T13:47:31Z</time>
      </trkpt>
      <trkpt lat="31.228372994810343" lon="-5.281727034598589">
        <ele>996.20000000000005</ele>
        <time>2003-04-14T13:47:37Z</time>
      </trkpt>
      <trkpt lat="31.227924982085824" lon="-5.281770033761859">
        <ele>995.5</ele>
        <time>2003-04-14T13:47:42Z</time>
      </trkpt>
      <trkpt lat="31.227707974612713" lon="-5.281770033761859">
        <ele>995.39999999999998</ele>
        <time>2003-04-14T13:47:46Z</time>
      </trkpt>
      <trkpt lat="31.227618036791682" lon="-5.281682023778558">
        <ele>995.29999999999995</ele>
        <time>2003-04-14T13:47:47Z</time>
      </trkpt>
      <trkpt lat="31.227546958252788" lon="-5.281607005745173">
        <ele>995.5</ele>
        <time>2003-04-14T13:47:50Z</time>
      </trkpt>
      <trkpt lat="31.227477975189686" lon="-5.281512960791588">
        <ele>995.70000000000005</ele>
        <time>2003-04-14T13:47:53Z</time>
      </trkpt>
      <trkpt lat="31.227546958252788" lon="-5.281438026577234">
        <ele>995.79999999999995</ele>
        <time>2003-04-14T13:47:54Z</time>
      </trkpt>
      <trkpt lat="31.227617030963302" lon="-5.281329983845353">
        <ele>995.70000000000005</ele>
        <time>2003-04-14T13:47:58Z</time>
      </trkpt>
      <trkpt lat="31.227715015411377" lon="-5.281210038810968">
        <ele>995.5</ele>
        <time>2003-04-14T13:47:58Z</time>
      </trkpt>
      <trkpt lat="31.227792967110872" lon="-5.281080035492778">
        <ele>995.10000000000002</ele>
        <time>2003-04-14T13:48:01Z</time>
      </trkpt>
      <trkpt lat="31.227812999859452" lon="-5.280927987769246">
        <ele>995.39999999999998</ele>
        <time>2003-04-14T13:48:02Z</time>
      </trkpt>
      <trkpt lat="31.227834960445762" lon="-5.280779963359237">
        <ele>996.29999999999995</ele>
        <time>2003-04-14T13:48:05Z</time>
      </trkpt>
      <trkpt lat="31.227888017892838" lon="-5.280600003898144">
        <ele>996.10000000000002</ele>
        <time>2003-04-14T13:48:06Z</time>
      </trkpt>
      <trkpt lat="31.227933028712869" lon="-5.280364975333214">
        <ele>995.10000000000002</ele>
        <time>2003-04-14T13:48:09Z</time>
      </trkpt>
      <trkpt lat="31.227936968207359" lon="-5.280243018642068">
        <ele>995</ele>
        <time>2003-04-14T13:48:09Z</time>
      </trkpt>
      <trkpt lat="31.227947026491165" lon="-5.280028022825718">
        <ele>994.20000000000005</ele>
        <time>2003-04-14T13:48:12Z</time>
      </trkpt>
      <trkpt lat="31.227927999570966" lon="-5.279816966503859">
        <ele>993.60000000000002</ele>
        <time>2003-04-14T13:48:13Z</time>
      </trkpt>
      <trkpt lat="31.22789497487247" lon="-5.279587972909212">
        <ele>993.20000000000005</ele>
        <time>2003-04-14T13:48:16Z</time>
      </trkpt>
      <trkpt lat="31.227857004851103" lon="-5.279053039848805">
        <ele>992.39999999999998</ele>
        <time>2003-04-14T13:48:21Z</time>
      </trkpt>
      <trkpt lat="31.227737981826067" lon="-5.278890011832118">
        <ele>992.70000000000005</ele>
        <time>2003-04-14T13:48:23Z</time>
      </trkpt>
      <trkpt lat="31.227606972679496" lon="-5.2786819729954">
        <ele>992.79999999999995</ele>
        <time>2003-04-14T13:48:25Z</time>
      </trkpt>
      <trkpt lat="31.22746498323977" lon="-5.278472006320953">
        <ele>992.70000000000005</ele>
        <time>2003-04-14T13:48:27Z</time>
      </trkpt>
      <trkpt lat="31.227342020720243" lon="-5.278266984969378">
        <ele>993.10000000000002</ele>
        <time>2003-04-14T13:48:28Z</time>
      </trkpt>
      <trkpt lat="31.227221991866827" lon="-5.278075039386749">
        <ele>993</ele>
        <time>2003-04-14T13:48:31Z</time>
      </trkpt>
      <trkpt lat="31.227128030732274" lon="-5.277888039126992">
        <ele>993.10000000000002</ele>
        <time>2003-04-14T13:48:33Z</time>
      </trkpt>
      <trkpt lat="31.227038009092212" lon="-5.277736997231841">
        <ele>993</ele>
        <time>2003-04-14T13:48:35Z</time>
      </trkpt>
      <trkpt lat="31.226937007158995" lon="-5.277601964771748">
        <ele>993.89999999999998</ele>
        <time>2003-04-14T13:48:36Z</time>
      </trkpt>
      <trkpt lat="31.226902976632118" lon="-5.277487970888615">
        <ele>993.5</ele>
        <time>2003-04-14T13:48:37Z</time>
      </trkpt>
      <trkpt lat="31.226808009669185" lon="-5.277287978678942">
        <ele>993.10000000000002</ele>
        <time>2003-04-14T13:48:40Z</time>
      </trkpt>
      <trkpt lat="31.226427974179387" lon="-5.276765031740069">
        <ele>992.70000000000005</ele>
        <time>2003-04-14T13:48:45Z</time>
      </trkpt>
      <trkpt lat="31.226217001676559" lon="-5.276493038982153">
        <ele>992.10000000000002</ele>
        <time>2003-04-14T13:48:50Z</time>
      </trkpt>
      <trkpt lat="31.22617500834167" lon="-5.276388013735414">
        <ele>992.10000000000002</ele>
        <time>2003-04-14T13:48:51Z</time>
      </trkpt>
      <trkpt lat="31.226147012785077" lon="-5.276182992383838">
        <ele>992</ele>
        <time>2003-04-14T13:48:52Z</time>
      </trkpt>
      <trkpt lat="31.226105019450188" lon="-5.275979982689023">
        <ele>991.89999999999998</ele>
        <time>2003-04-14T13:48:55Z</time>
      </trkpt>
      <trkpt lat="31.226097978651524" lon="-5.275873029604554">
        <ele>991.89999999999998</ele>
        <time>2003-04-14T13:48:55Z</time>
      </trkpt>
      <trkpt lat="31.226108036935329" lon="-5.275553008541465">
        <ele>994.20000000000005</ele>
        <time>2003-04-14T13:48:59Z</time>
      </trkpt>
      <trkpt lat="31.22611197642982" lon="-5.275347987189889">
        <ele>994.60000000000002</ele>
        <time>2003-04-14T13:49:00Z</time>
      </trkpt>
      <trkpt lat="31.226102001965046" lon="-5.275138020515442">
        <ele>995</ele>
        <time>2003-04-14T13:49:03Z</time>
      </trkpt>
      <trkpt lat="31.226097978651524" lon="-5.274974992498756">
        <ele>995.20000000000005</ele>
        <time>2003-04-14T13:49:04Z</time>
      </trkpt>
      <trkpt lat="31.226093033328652" lon="-5.274767959490418">
        <ele>991.5</ele>
        <time>2003-04-14T13:49:07Z</time>
      </trkpt>
      <trkpt lat="31.226105019450188" lon="-5.274523040279746">
        <ele>992.70000000000005</ele>
        <time>2003-04-14T13:49:08Z</time>
      </trkpt>
      <trkpt lat="31.226122034713626" lon="-5.274215005338192">
        <ele>993.79999999999995</ele>
        <time>2003-04-14T13:49:11Z</time>
      </trkpt>
      <trkpt lat="31.226108036935329" lon="-5.274011995643377">
        <ele>992.70000000000005</ele>
        <time>2003-04-14T13:49:14Z</time>
      </trkpt>
      <trkpt lat="31.226166961714625" lon="-5.273597007617354">
        <ele>993.10000000000002</ele>
        <time>2003-04-14T13:49:18Z</time>
      </trkpt>
      <trkpt lat="31.226203003898263" lon="-5.273412019014359">
        <ele>991.79999999999995</ele>
        <time>2003-04-14T13:49:19Z</time>
      </trkpt>
      <trkpt lat="31.226160004734993" lon="-5.273246979340911">
        <ele>992.20000000000005</ele>
        <time>2003-04-14T13:49:22Z</time>
      </trkpt>
      <trkpt lat="31.226211972534657" lon="-5.273035001009703">
        <ele>992.20000000000005</ele>
        <time>2003-04-14T13:49:23Z</time>
      </trkpt>
      <trkpt lat="31.226511960849166" lon="-5.272117014974356">
        <ele>991.10000000000002</ele>
        <time>2003-04-14T13:49:31Z</time>
      </trkpt>
      <trkpt lat="31.226640036329627" lon="-5.271882992237806">
        <ele>990.70000000000005</ele>
        <time>2003-04-14T13:49:34Z</time>
      </trkpt>
      <trkpt lat="31.226810021325946" lon="-5.271527012810111">
        <ele>990.29999999999995</ele>
        <time>2003-04-14T13:49:37Z</time>
      </trkpt>
      <trkpt lat="31.226893002167344" lon="-5.271262982860208">
        <ele>989.60000000000002</ele>
        <time>2003-04-14T13:49:38Z</time>
      </trkpt>
      <trkpt lat="31.227143034338951" lon="-5.270248018205166">
        <ele>987.79999999999995</ele>
        <time>2003-04-14T13:49:46Z</time>
      </trkpt>
      <trkpt lat="31.227092994377017" lon="-5.270088007673621">
        <ele>987.29999999999995</ele>
        <time>2003-04-14T13:49:49Z</time>
      </trkpt>
      <trkpt lat="31.22701495885849" lon="-5.269905030727387">
        <ele>986.79999999999995</ele>
        <time>2003-04-14T13:49:50Z</time>
      </trkpt>
      <trkpt lat="31.227000039070845" lon="-5.269791958853602">
        <ele>986.60000000000002</ele>
        <time>2003-04-14T13:49:52Z</time>
      </trkpt>
      <trkpt lat="31.226947987452149" lon="-5.269603030756116">
        <ele>986.60000000000002</ele>
        <time>2003-04-14T13:49:53Z</time>
      </trkpt>
      <trkpt lat="31.226838016882539" lon="-5.269470009952784">
        <ele>986</ele>
        <time>2003-04-14T13:49:56Z</time>
      </trkpt>
      <trkpt lat="31.226674988865852" lon="-5.269230036064982">
        <ele>983.5</ele>
        <time>2003-04-14T13:49:58Z</time>
      </trkpt>
      <trkpt lat="31.22662796638906" lon="-5.269127022475004">
        <ele>983.5</ele>
        <time>2003-04-14T13:50:00Z</time>
      </trkpt>
      <trkpt lat="31.226599970832467" lon="-5.269016968086362">
        <ele>983.79999999999995</ele>
        <time>2003-04-14T13:50:01Z</time>
      </trkpt>
      <trkpt lat="31.226583039388061" lon="-5.268897023051977">
        <ele>983.79999999999995</ele>
        <time>2003-04-14T13:50:01Z</time>
      </trkpt>
      <trkpt lat="31.226586978882551" lon="-5.268762996420264">
        <ele>983.70000000000005</ele>
        <time>2003-04-14T13:50:02Z</time>
      </trkpt>
      <trkpt lat="31.226569963619113" lon="-5.268627963960171">
        <ele>983.20000000000005</ele>
        <time>2003-04-14T13:50:04Z</time>
      </trkpt>
      <trkpt lat="31.226548003032804" lon="-5.268262010067701">
        <ele>983.20000000000005</ele>
        <time>2003-04-14T13:50:06Z</time>
      </trkpt>
      <trkpt lat="31.226602988317609" lon="-5.267732022330165">
        <ele>983.5</ele>
        <time>2003-04-14T13:50:12Z</time>
      </trkpt>
      <trkpt lat="31.226693009957671" lon="-5.267558014020324">
        <ele>985.20000000000005</ele>
        <time>2003-04-14T13:50:13Z</time>
      </trkpt>
      <trkpt lat="31.226893002167344" lon="-5.267110001295805">
        <ele>985.10000000000002</ele>
        <time>2003-04-14T13:50:19Z</time>
      </trkpt>
      <trkpt lat="31.226876992732286" lon="-5.266957031562924">
        <ele>985.60000000000002</ele>
        <time>2003-04-14T13:50:20Z</time>
      </trkpt>
      <trkpt lat="31.226808009669185" lon="-5.266665006056428">
        <ele>986</ele>
        <time>2003-04-14T13:50:24Z</time>
      </trkpt>
      <trkpt lat="31.226746989414096" lon="-5.266482029110193">
        <ele>984.39999999999998</ele>
        <time>2003-04-14T13:50:27Z</time>
      </trkpt>
      <trkpt lat="31.226744977757335" lon="-5.26636996306479">
        <ele>983.70000000000005</ele>
        <time>2003-04-14T13:50:28Z</time>
      </trkpt>
      <trkpt lat="31.226716982200742" lon="-5.266018006950617">
        <ele>983.89999999999998</ele>
        <time>2003-04-14T13:50:31Z</time>
      </trkpt>
      <trkpt lat="31.226686974987388" lon="-5.265669990330935">
        <ele>983.79999999999995</ele>
        <time>2003-04-14T13:50:33Z</time>
      </trkpt>
      <trkpt lat="31.226640036329627" lon="-5.265306970104575">
        <ele>983.79999999999995</ele>
        <time>2003-04-14T13:50:36Z</time>
      </trkpt>
      <trkpt lat="31.22654196806252" lon="-5.264973035082221">
        <ele>983.5</ele>
        <time>2003-04-14T13:50:40Z</time>
      </trkpt>
      <trkpt lat="31.226416993886232" lon="-5.264757033437491">
        <ele>983.39999999999998</ele>
        <time>2003-04-14T13:50:42Z</time>
      </trkpt>
      <trkpt lat="31.225999994203448" lon="-5.264140041545034">
        <ele>983.39999999999998</ele>
        <time>2003-04-14T13:50:47Z</time>
      </trkpt>
      <trkpt lat="31.225978033617139" lon="-5.264011966064572">
        <ele>983.39999999999998</ele>
        <time>2003-04-14T13:50:48Z</time>
      </trkpt>
      <trkpt lat="31.225907038897276" lon="-5.263763023540378">
        <ele>982.89999999999998</ele>
        <time>2003-04-14T13:50:51Z</time>
      </trkpt>
      <trkpt lat="31.225805031135678" lon="-5.26355498470366">
        <ele>982.5</ele>
        <time>2003-04-14T13:50:52Z</time>
      </trkpt>
      <trkpt lat="31.225777035579085" lon="-5.263452976942062">
        <ele>982.70000000000005</ele>
        <time>2003-04-14T13:50:54Z</time>
      </trkpt>
      <trkpt lat="31.225733030587435" lon="-5.263287015259266">
        <ele>982.39999999999998</ele>
        <time>2003-04-14T13:50:55Z</time>
      </trkpt>
      <trkpt lat="31.225663041695952" lon="-5.263087023049593">
        <ele>981.89999999999998</ele>
        <time>2003-04-14T13:50:59Z</time>
      </trkpt>
      <trkpt lat="31.225685002282262" lon="-5.262970011681318">
        <ele>982.20000000000005</ele>
        <time>2003-04-14T13:51:03Z</time>
      </trkpt>
      <trkpt lat="31.225763037800789" lon="-5.262891976162791">
        <ele>981.60000000000002</ele>
        <time>2003-04-14T13:51:05Z</time>
      </trkpt>
      <trkpt lat="31.225899998098612" lon="-5.262746969237924">
        <ele>981.29999999999995</ele>
        <time>2003-04-14T13:51:07Z</time>
      </trkpt>
      <trkpt lat="31.225969986990094" lon="-5.262602968141437">
        <ele>981.29999999999995</ele>
        <time>2003-04-14T13:51:10Z</time>
      </trkpt>
      <trkpt lat="31.22611197642982" lon="-5.262182028964162">
        <ele>980.89999999999998</ele>
        <time>2003-04-14T13:51:14Z</time>
      </trkpt>
      <trkpt lat="31.226201998069882" lon="-5.261669978499413">
        <ele>980.39999999999998</ele>
        <time>2003-04-14T13:51:21Z</time>
      </trkpt>
      <trkpt lat="31.2261320091784" lon="-5.261581968516111">
        <ele>980.10000000000002</ele>
        <time>2003-04-14T13:51:25Z</time>
      </trkpt>
      <trkpt lat="31.226024972274899" lon="-5.261602001264691">
        <ele>980.29999999999995</ele>
        <time>2003-04-14T13:51:26Z</time>
      </trkpt>
      <trkpt lat="31.225875020027161" lon="-5.261596972122788">
        <ele>980.39999999999998</ele>
        <time>2003-04-14T13:51:29Z</time>
      </trkpt>
      <trkpt lat="31.225617025047541" lon="-5.261594960466027">
        <ele>980.39999999999998</ele>
        <time>2003-04-14T13:51:32Z</time>
      </trkpt>
      <trkpt lat="31.225307984277606" lon="-5.261596972122788">
        <ele>978.79999999999995</ele>
        <time>2003-04-14T13:51:34Z</time>
      </trkpt>
      <trkpt lat="31.225012019276619" lon="-5.261582974344492">
        <ele>980.79999999999995</ele>
        <time>2003-04-14T13:51:37Z</time>
      </trkpt>
      <trkpt lat="31.224495023488998" lon="-5.261488007381558">
        <ele>982.5</ele>
        <time>2003-04-14T13:51:44Z</time>
      </trkpt>
      <trkpt lat="31.22417701408267" lon="-5.261336965486407">
        <ele>982.20000000000005</ele>
        <time>2003-04-14T13:51:48Z</time>
      </trkpt>
      <trkpt lat="31.224042987450957" lon="-5.261221965774894">
        <ele>981.5</ele>
        <time>2003-04-14T13:51:49Z</time>
      </trkpt>
      <trkpt lat="31.223922036588192" lon="-5.261054998263717">
        <ele>980.5</ele>
        <time>2003-04-14T13:51:52Z</time>
      </trkpt>
      <trkpt lat="31.223654989153147" lon="-5.260668005794287">
        <ele>979.39999999999998</ele>
        <time>2003-04-14T13:51:56Z</time>
      </trkpt>
      <trkpt lat="31.223600003868341" lon="-5.260557029396296">
        <ele>979.70000000000005</ele>
        <time>2003-04-14T13:51:57Z</time>
      </trkpt>
      <trkpt lat="31.22348802164197" lon="-5.260362988337874">
        <ele>980.89999999999998</ele>
        <time>2003-04-14T13:51:59Z</time>
      </trkpt>
      <trkpt lat="31.223272019997239" lon="-5.260035004466772">
        <ele>980.89999999999998</ele>
        <time>2003-04-14T13:52:03Z</time>
      </trkpt>
      <trkpt lat="31.223212005570531" lon="-5.259886980056763">
        <ele>980.70000000000005</ele>
        <time>2003-04-14T13:52:04Z</time>
      </trkpt>
      <trkpt lat="31.223128018900752" lon="-5.25968698784709">
        <ele>980.29999999999995</ele>
        <time>2003-04-14T13:52:07Z</time>
      </trkpt>
      <trkpt lat="31.223027016967535" lon="-5.259488001465797">
        <ele>980.29999999999995</ele>
        <time>2003-04-14T13:52:08Z</time>
      </trkpt>
      <trkpt lat="31.22295300476253" lon="-5.259399991482496">
        <ele>979.89999999999998</ele>
        <time>2003-04-14T13:52:09Z</time>
      </trkpt>
      <trkpt lat="31.222868012264371" lon="-5.259330002591014">
        <ele>979.89999999999998</ele>
        <time>2003-04-14T13:52:11Z</time>
      </trkpt>
      <trkpt lat="31.222683023661375" lon="-5.259224977344275">
        <ele>979.29999999999995</ele>
        <time>2003-04-14T13:52:12Z</time>
      </trkpt>
      <trkpt lat="31.222599959000945" lon="-5.259162029251456">
        <ele>979.10000000000002</ele>
        <time>2003-04-14T13:52:13Z</time>
      </trkpt>
      <trkpt lat="31.222532987594604" lon="-5.259063038975">
        <ele>979.29999999999995</ele>
        <time>2003-04-14T13:52:15Z</time>
      </trkpt>
      <trkpt lat="31.222478002309799" lon="-5.258952984586358">
        <ele>979.79999999999995</ele>
        <time>2003-04-14T13:52:16Z</time>
      </trkpt>
      <trkpt lat="31.222407007589936" lon="-5.258860029280186">
        <ele>979.89999999999998</ele>
        <time>2003-04-14T13:52:16Z</time>
      </trkpt>
      <trkpt lat="31.222232999280095" lon="-5.258692977949977">
        <ele>979.5</ele>
        <time>2003-04-14T13:52:19Z</time>
      </trkpt>
      <trkpt lat="31.22215798124671" lon="-5.258603040128946">
        <ele>979.29999999999995</ele>
        <time>2003-04-14T13:52:20Z</time>
      </trkpt>
      <trkpt lat="31.222102995961905" lon="-5.258500026538968">
        <ele>978.89999999999998</ele>
        <time>2003-04-14T13:52:20Z</time>
      </trkpt>
      <trkpt lat="31.222062008455396" lon="-5.258389972150326">
        <ele>978.89999999999998</ele>
        <time>2003-04-14T13:52:21Z</time>
      </trkpt>
      <trkpt lat="31.221869979053736" lon="-5.257919998839498">
        <ele>978</ele>
        <time>2003-04-14T13:52:26Z</time>
      </trkpt>
      <trkpt lat="31.221366981044412" lon="-5.257030008360744">
        <ele>977.89999999999998</ele>
        <time>2003-04-14T13:52:34Z</time>
      </trkpt>
      <trkpt lat="31.221207976341248" lon="-5.256833033636212">
        <ele>977.5</ele>
        <time>2003-04-14T13:52:35Z</time>
      </trkpt>
      <trkpt lat="31.22099700383842" lon="-5.256666988134384">
        <ele>978.20000000000005</ele>
        <time>2003-04-14T13:52:38Z</time>
      </trkpt>
      <trkpt lat="31.220491994172335" lon="-5.256272032856941">
        <ele>978.89999999999998</ele>
        <time>2003-04-14T13:52:43Z</time>
      </trkpt>
      <trkpt lat="31.220391998067498" lon="-5.256198020651937">
        <ele>978.89999999999998</ele>
        <time>2003-04-14T13:52:43Z</time>
      </trkpt>
      <trkpt lat="31.220283033326268" lon="-5.256143035367131">
        <ele>977.89999999999998</ele>
        <time>2003-04-14T13:52:44Z</time>
      </trkpt>
      <trkpt lat="31.21957803145051" lon="-5.255720000714064">
        <ele>974.70000000000005</ele>
        <time>2003-04-14T13:52:51Z</time>
      </trkpt>
      <trkpt lat="31.219351971521974" lon="-5.255463011562824">
        <ele>975.89999999999998</ele>
        <time>2003-04-14T13:52:55Z</time>
      </trkpt>
      <trkpt lat="31.219317018985748" lon="-5.255352035164833">
        <ele>975.60000000000002</ele>
        <time>2003-04-14T13:52:55Z</time>
      </trkpt>
      <trkpt lat="31.219218028709292" lon="-5.255114994943142">
        <ele>975.10000000000002</ele>
        <time>2003-04-14T13:52:58Z</time>
      </trkpt>
      <trkpt lat="31.219143010675907" lon="-5.255036959424615">
        <ele>974.60000000000002</ele>
        <time>2003-04-14T13:52:58Z</time>
      </trkpt>
      <trkpt lat="31.219009989872575" lon="-5.254911985248327">
        <ele>974.60000000000002</ele>
        <time>2003-04-14T13:53:01Z</time>
      </trkpt>
      <trkpt lat="31.218927009031177" lon="-5.254863034933806">
        <ele>975.79999999999995</ele>
        <time>2003-04-14T13:53:02Z</time>
      </trkpt>
      <trkpt lat="31.218557031825185" lon="-5.254639992490411">
        <ele>976.29999999999995</ele>
        <time>2003-04-14T13:53:06Z</time>
      </trkpt>
      <trkpt lat="31.218187976628542" lon="-5.254346961155534">
        <ele>976.20000000000005</ele>
        <time>2003-04-14T13:53:10Z</time>
      </trkpt>
      <trkpt lat="31.217959988862276" lon="-5.254058036953211">
        <ele>975.29999999999995</ele>
        <time>2003-04-14T13:53:13Z</time>
      </trkpt>
      <trkpt lat="31.217877008020878" lon="-5.253968015313149">
        <ele>976</ele>
        <time>2003-04-14T13:53:14Z</time>
      </trkpt>
      <trkpt lat="31.21775203384459" lon="-5.253812028095126">
        <ele>976.79999999999995</ele>
        <time>2003-04-14T13:53:15Z</time>
      </trkpt>
      <trkpt lat="31.217609960585833" lon="-5.253683030605316">
        <ele>978.10000000000002</ele>
        <time>2003-04-14T13:53:18Z</time>
      </trkpt>
      <trkpt lat="31.217503007501364" lon="-5.253640031442046">
        <ele>978</ele>
        <time>2003-04-14T13:53:18Z</time>
      </trkpt>
      <trkpt lat="31.217162031680346" lon="-5.25347800925374">
        <ele>978.29999999999995</ele>
        <time>2003-04-14T13:53:22Z</time>
      </trkpt>
      <trkpt lat="31.216347981244326" lon="-5.253067966550589">
        <ele>979</ele>
        <time>2003-04-14T13:53:29Z</time>
      </trkpt>
      <trkpt lat="31.215678015723825" lon="-5.252802008762956">
        <ele>979.10000000000002</ele>
        <time>2003-04-14T13:53:37Z</time>
      </trkpt>
      <trkpt lat="31.215000003576279" lon="-5.252520041540265">
        <ele>979.60000000000002</ele>
        <time>2003-04-14T13:53:44Z</time>
      </trkpt>
      <trkpt lat="31.214087968692183" lon="-5.252098012715578">
        <ele>979.60000000000002</ele>
        <time>2003-04-14T13:53:52Z</time>
      </trkpt>
      <trkpt lat="31.213260004296899" lon="-5.251486971974373">
        <ele>980.70000000000005</ele>
        <time>2003-04-14T13:54:00Z</time>
      </trkpt>
      <trkpt lat="31.212621973827481" lon="-5.250982968136668">
        <ele>979.89999999999998</ele>
        <time>2003-04-14T13:54:07Z</time>
      </trkpt>
      <trkpt lat="31.212579980492592" lon="-5.250881966203451">
        <ele>980.10000000000002</ele>
        <time>2003-04-14T13:54:08Z</time>
      </trkpt>
      <trkpt lat="31.212451988831162" lon="-5.25068499147892">
        <ele>980.29999999999995</ele>
        <time>2003-04-14T13:54:09Z</time>
      </trkpt>
      <trkpt lat="31.212110007181764" lon="-5.250282995402813">
        <ele>981.60000000000002</ele>
        <time>2003-04-14T13:54:14Z</time>
      </trkpt>
      <trkpt lat="31.211687978357077" lon="-5.249797012656927">
        <ele>983.79999999999995</ele>
        <time>2003-04-14T13:54:19Z</time>
      </trkpt>
      <trkpt lat="31.210979958996177" lon="-5.249041970819235">
        <ele>982.5</ele>
        <time>2003-04-14T13:54:26Z</time>
      </trkpt>
      <trkpt lat="31.21031703427434" lon="-5.24834300391376">
        <ele>982.5</ele>
        <time>2003-04-14T13:54:32Z</time>
      </trkpt>
      <trkpt lat="31.209593005478382" lon="-5.24756801314652">
        <ele>981.70000000000005</ele>
        <time>2003-04-14T13:54:41Z</time>
      </trkpt>
      <trkpt lat="31.2090930249542" lon="-5.247016986832023">
        <ele>981.39999999999998</ele>
        <time>2003-04-14T13:54:46Z</time>
      </trkpt>
      <trkpt lat="31.208627996966243" lon="-5.246522035449743">
        <ele>981.39999999999998</ele>
        <time>2003-04-14T13:54:51Z</time>
      </trkpt>
      <trkpt lat="31.208068002015352" lon="-5.245913006365299">
        <ele>982.20000000000005</ele>
        <time>2003-04-14T13:54:57Z</time>
      </trkpt>
      <trkpt lat="31.207407005131245" lon="-5.245223008096218">
        <ele>982.10000000000002</ele>
        <time>2003-04-14T13:55:02Z</time>
      </trkpt>
      <trkpt lat="31.2072469945997" lon="-5.245047993957996">
        <ele>982.10000000000002</ele>
        <time>2003-04-14T13:55:05Z</time>
      </trkpt>
      <trkpt lat="31.207133000716567" lon="-5.245007006451488">
        <ele>981.70000000000005</ele>
        <time>2003-04-14T13:55:06Z</time>
      </trkpt>
      <trkpt lat="31.206937031820416" lon="-5.244889995083213">
        <ele>981.60000000000002</ele>
        <time>2003-04-14T13:55:08Z</time>
      </trkpt>
      <trkpt lat="31.206594966351986" lon="-5.244641974568367">
        <ele>980.79999999999995</ele>
        <time>2003-04-14T13:55:10Z</time>
      </trkpt>
      <trkpt lat="31.206104960292578" lon="-5.244324970990419">
        <ele>980.10000000000002</ele>
        <time>2003-04-14T13:55:14Z</time>
      </trkpt>
      <trkpt lat="31.205983003601432" lon="-5.244247019290924">
        <ele>980.39999999999998</ele>
        <time>2003-04-14T13:55:16Z</time>
      </trkpt>
      <trkpt lat="31.205755015835166" lon="-5.244048032909632">
        <ele>980.10000000000002</ele>
        <time>2003-04-14T13:55:17Z</time>
      </trkpt>
      <trkpt lat="31.205437006428838" lon="-5.243758019059897">
        <ele>979</ele>
        <time>2003-04-14T13:55:21Z</time>
      </trkpt>
      <trkpt lat="31.204581968486309" lon="-5.243138009682298">
        <ele>975</ele>
        <time>2003-04-14T13:55:28Z</time>
      </trkpt>
      <trkpt lat="31.20441198348999" lon="-5.24297003634274">
        <ele>974.60000000000002</ele>
        <time>2003-04-14T13:55:29Z</time>
      </trkpt>
      <trkpt lat="31.204228000715375" lon="-5.242684967815876">
        <ele>971.79999999999995</ele>
        <time>2003-04-14T13:55:33Z</time>
      </trkpt>
      <trkpt lat="31.204194976016879" lon="-5.242565022781491">
        <ele>971.20000000000005</ele>
        <time>2003-04-14T13:55:33Z</time>
      </trkpt>
      <trkpt lat="31.204115012660623" lon="-5.242352960631251">
        <ele>969.79999999999995</ele>
        <time>2003-04-14T13:55:36Z</time>
      </trkpt>
      <trkpt lat="31.204049969092011" lon="-5.24226201698184">
        <ele>970.79999999999995</ele>
        <time>2003-04-14T13:55:37Z</time>
      </trkpt>
      <trkpt lat="31.203806977719069" lon="-5.241926992312074">
        <ele>969.79999999999995</ele>
        <time>2003-04-14T13:55:40Z</time>
      </trkpt>
      <trkpt lat="31.203542025759816" lon="-5.241428017616272">
        <ele>969.20000000000005</ele>
        <time>2003-04-14T13:55:44Z</time>
      </trkpt>
      <trkpt lat="31.203397018834949" lon="-5.241204975172877">
        <ele>968.5</ele>
        <time>2003-04-14T13:55:45Z</time>
      </trkpt>
      <trkpt lat="31.203125026077032" lon="-5.240914961323142">
        <ele>966.60000000000002</ele>
        <time>2003-04-14T13:55:48Z</time>
      </trkpt>
      <trkpt lat="31.20275798253715" lon="-5.240622013807297">
        <ele>966.79999999999995</ele>
        <time>2003-04-14T13:55:52Z</time>
      </trkpt>
      <trkpt lat="31.202405020594597" lon="-5.240441970527172">
        <ele>966.70000000000005</ele>
        <time>2003-04-14T13:55:56Z</time>
      </trkpt>
      <trkpt lat="31.201500026509166" lon="-5.239927992224693">
        <ele>964.29999999999995</ele>
        <time>2003-04-14T13:56:03Z</time>
      </trkpt>
      <trkpt lat="31.201264997944236" lon="-5.23981299251318">
        <ele>964.60000000000002</ele>
        <time>2003-04-14T13:56:04Z</time>
      </trkpt>
      <trkpt lat="31.201153015717864" lon="-5.2397480327636">
        <ele>965</ele>
        <time>2003-04-14T13:56:06Z</time>
      </trkpt>
      <trkpt lat="31.201042039319873" lon="-5.239657005295157">
        <ele>964.29999999999995</ele>
        <time>2003-04-14T13:56:07Z</time>
      </trkpt>
      <trkpt lat="31.200265036895871" lon="-5.238970024511218">
        <ele>962.20000000000005</ele>
        <time>2003-04-14T13:56:14Z</time>
      </trkpt>
      <trkpt lat="31.199957001954317" lon="-5.238638017326593">
        <ele>961.39999999999998</ele>
        <time>2003-04-14T13:56:16Z</time>
      </trkpt>
      <trkpt lat="31.19944796897471" lon="-5.238092020153999">
        <ele>961.89999999999998</ele>
        <time>2003-04-14T13:56:22Z</time>
      </trkpt>
      <trkpt lat="31.199027029797435" lon="-5.237609976902604">
        <ele>960.10000000000002</ele>
        <time>2003-04-14T13:56:27Z</time>
      </trkpt>
      <trkpt lat="31.198816979303956" lon="-5.237330021336675">
        <ele>959.79999999999995</ele>
        <time>2003-04-14T13:56:30Z</time>
      </trkpt>
      <trkpt lat="31.198714971542358" lon="-5.237260032445192">
        <ele>959.39999999999998</ele>
        <time>2003-04-14T13:56:31Z</time>
      </trkpt>
      <trkpt lat="31.198601983487606" lon="-5.237207980826497">
        <ele>959.29999999999995</ele>
        <time>2003-04-14T13:56:31Z</time>
      </trkpt>
      <trkpt lat="31.198352035135031" lon="-5.237136986106634">
        <ele>959.39999999999998</ele>
        <time>2003-04-14T13:56:34Z</time>
      </trkpt>
      <trkpt lat="31.198229994624853" lon="-5.237085018306971">
        <ele>959.60000000000002</ele>
        <time>2003-04-14T13:56:34Z</time>
      </trkpt>
      <trkpt lat="31.198108037933707" lon="-5.237010000273585">
        <ele>958.89999999999998</ele>
        <time>2003-04-14T13:56:35Z</time>
      </trkpt>
      <trkpt lat="31.197805032134056" lon="-5.236743036657572">
        <ele>958.5</ele>
        <time>2003-04-14T13:56:38Z</time>
      </trkpt>
      <trkpt lat="31.197609985247254" lon="-5.236553018912673">
        <ele>958.39999999999998</ele>
        <time>2003-04-14T13:56:41Z</time>
      </trkpt>
      <trkpt lat="31.196816973388195" lon="-5.235990006476641">
        <ele>956.20000000000005</ele>
        <time>2003-04-14T13:56:47Z</time>
      </trkpt>
      <trkpt lat="31.196725023910403" lon="-5.235909959301353">
        <ele>956</ele>
        <time>2003-04-14T13:56:49Z</time>
      </trkpt>
      <trkpt lat="31.19665696285665" lon="-5.235803006216884">
        <ele>955.70000000000005</ele>
        <time>2003-04-14T13:56:50Z</time>
      </trkpt>
      <trkpt lat="31.196607006713748" lon="-5.235681971535087">
        <ele>955.5</ele>
        <time>2003-04-14T13:56:50Z</time>
      </trkpt>
      <trkpt lat="31.196431992575526" lon="-5.235333032906056">
        <ele>955.20000000000005</ele>
        <time>2003-04-14T13:56:54Z</time>
      </trkpt>
      <trkpt lat="31.196244992315769" lon="-5.235124994069338">
        <ele>954.70000000000005</ele>
        <time>2003-04-14T13:56:56Z</time>
      </trkpt>
      <trkpt lat="31.196129992604256" lon="-5.235037989914417">
        <ele>954.60000000000002</ele>
        <time>2003-04-14T13:56:57Z</time>
      </trkpt>
      <trkpt lat="31.195564968511462" lon="-5.234640017151833">
        <ele>953.29999999999995</ele>
        <time>2003-04-14T13:57:01Z</time>
      </trkpt>
      <trkpt lat="31.195406969636679" lon="-5.234498027712107">
        <ele>952.20000000000005</ele>
        <time>2003-04-14T13:57:04Z</time>
      </trkpt>
      <trkpt lat="31.194823002442718" lon="-5.234026964753866">
        <ele>952</ele>
        <time>2003-04-14T13:57:09Z</time>
      </trkpt>
      <trkpt lat="31.194099979475141" lon="-5.233562020584941">
        <ele>951.60000000000002</ele>
        <time>2003-04-14T13:57:16Z</time>
      </trkpt>
      <trkpt lat="31.193682979792356" lon="-5.233378037810326">
        <ele>951</ele>
        <time>2003-04-14T13:57:18Z</time>
      </trkpt>
      <trkpt lat="31.193434959277511" lon="-5.233247028663755">
        <ele>950.5</ele>
        <time>2003-04-14T13:57:21Z</time>
      </trkpt>
      <trkpt lat="31.193062970414758" lon="-5.233097998425365">
        <ele>950</ele>
        <time>2003-04-14T13:57:24Z</time>
      </trkpt>
      <trkpt lat="31.192497024312615" lon="-5.232794992625713">
        <ele>948.70000000000005</ele>
        <time>2003-04-14T13:57:28Z</time>
      </trkpt>
      <trkpt lat="31.192427035421133" lon="-5.232706982642412">
        <ele>948.5</ele>
        <time>2003-04-14T13:57:29Z</time>
      </trkpt>
      <trkpt lat="31.191787999123335" lon="-5.231952024623752">
        <ele>946.29999999999995</ele>
        <time>2003-04-14T13:57:37Z</time>
      </trkpt>
      <trkpt lat="31.191696971654892" lon="-5.231907013803721">
        <ele>945.70000000000005</ele>
        <time>2003-04-14T13:57:39Z</time>
      </trkpt>
      <trkpt lat="31.191511983051896" lon="-5.231769969686866">
        <ele>945.5</ele>
        <time>2003-04-14T13:57:40Z</time>
      </trkpt>
      <trkpt lat="31.191328000277281" lon="-5.231599984690547">
        <ele>945.10000000000002</ele>
        <time>2003-04-14T13:57:43Z</time>
      </trkpt>
      <trkpt lat="31.191203026100993" lon="-5.231422036886215">
        <ele>946.29999999999995</ele>
        <time>2003-04-14T13:57:44Z</time>
      </trkpt>
      <trkpt lat="31.191157009452581" lon="-5.231311982497573">
        <ele>945.70000000000005</ele>
        <time>2003-04-14T13:57:45Z</time>
      </trkpt>
      <trkpt lat="31.190909994766116" lon="-5.230819964781404">
        <ele>946.10000000000002</ele>
        <time>2003-04-14T13:57:50Z</time>
      </trkpt>
      <trkpt lat="31.1904670111835" lon="-5.229998035356402">
        <ele>945.79999999999995</ele>
        <time>2003-04-14T13:57:56Z</time>
      </trkpt>
      <trkpt lat="31.190457958728075" lon="-5.229871971532702">
        <ele>946.60000000000002</ele>
        <time>2003-04-14T13:57:58Z</time>
      </trkpt>
      <trkpt lat="31.190419988706708" lon="-5.229424964636564">
        <ele>946.20000000000005</ele>
        <time>2003-04-14T13:58:02Z</time>
      </trkpt>
      <trkpt lat="31.19040003977716" lon="-5.229320023208857">
        <ele>945.89999999999998</ele>
        <time>2003-04-14T13:58:04Z</time>
      </trkpt>
      <trkpt lat="31.190372966229916" lon="-5.229073008522391">
        <ele>946.10000000000002</ele>
        <time>2003-04-14T13:58:35Z</time>
      </trkpt>
      <trkpt lat="31.190323010087013" lon="-5.228912997990847">
        <ele>945.39999999999998</ele>
        <time>2003-04-14T13:58:38Z</time>
      </trkpt>
      <trkpt lat="31.190212033689022" lon="-5.228752987459302">
        <ele>944.70000000000005</ele>
        <time>2003-04-14T13:58:39Z</time>
      </trkpt>
      <trkpt lat="31.189989997074008" lon="-5.228542014956474">
        <ele>945.70000000000005</ele>
        <time>2003-04-14T13:58:42Z</time>
      </trkpt>
      <trkpt lat="31.189895030111074" lon="-5.228482000529766">
        <ele>945.60000000000002</ele>
        <time>2003-04-14T13:58:44Z</time>
      </trkpt>
      <trkpt lat="31.189654972404242" lon="-5.228313021361828">
        <ele>944.60000000000002</ele>
        <time>2003-04-14T13:58:46Z</time>
      </trkpt>
      <trkpt lat="31.189596969634295" lon="-5.22821000777185">
        <ele>944</ele>
        <time>2003-04-14T13:58:48Z</time>
      </trkpt>
      <trkpt lat="31.189550030976534" lon="-5.228092996403575">
        <ele>943.39999999999998</ele>
        <time>2003-04-14T13:58:49Z</time>
      </trkpt>
      <trkpt lat="31.189397983253002" lon="-5.227747997269034">
        <ele>943.70000000000005</ele>
        <time>2003-04-14T13:58:52Z</time>
      </trkpt>
      <trkpt lat="31.189233027398586" lon="-5.227365028113127">
        <ele>942.20000000000005</ele>
        <time>2003-04-14T13:58:54Z</time>
      </trkpt>
      <trkpt lat="31.189175024628639" lon="-5.227235024794936">
        <ele>941.20000000000005</ele>
        <time>2003-04-14T13:58:56Z</time>
      </trkpt>
      <trkpt lat="31.189107969403267" lon="-5.227124970406294">
        <ele>941.39999999999998</ele>
        <time>2003-04-14T13:58:57Z</time>
      </trkpt>
      <trkpt lat="31.188996993005276" lon="-5.22687996737659">
        <ele>942.5</ele>
        <time>2003-04-14T13:58:58Z</time>
      </trkpt>
      <trkpt lat="31.188600026071072" lon="-5.225897021591663">
        <ele>940.70000000000005</ele>
        <time>2003-04-14T13:59:06Z</time>
      </trkpt>
      <trkpt lat="31.188485026359558" lon="-5.225627962499857">
        <ele>939.39999999999998</ele>
        <time>2003-04-14T13:59:09Z</time>
      </trkpt>
      <trkpt lat="31.188217978924513" lon="-5.225133011117578">
        <ele>939.10000000000002</ele>
        <time>2003-04-14T13:59:13Z</time>
      </trkpt>
      <trkpt lat="31.187993008643389" lon="-5.22470997646451">
        <ele>937.89999999999998</ele>
        <time>2003-04-14T13:59:16Z</time>
      </trkpt>
      <trkpt lat="31.187514988705516" lon="-5.223904978483915">
        <ele>936.89999999999998</ele>
        <time>2003-04-14T13:59:21Z</time>
      </trkpt>
      <trkpt lat="31.187126990407705" lon="-5.223519997671247">
        <ele>936.5</ele>
        <time>2003-04-14T13:59:25Z</time>
      </trkpt>
      <trkpt lat="31.186949964612722" lon="-5.223410027101636">
        <ele>936.70000000000005</ele>
        <time>2003-04-14T13:59:28Z</time>
      </trkpt>
      <trkpt lat="31.186788026243448" lon="-5.223335009068251">
        <ele>936.39999999999998</ele>
        <time>2003-04-14T13:59:29Z</time>
      </trkpt>
      <trkpt lat="31.186687024310231" lon="-5.223320005461574">
        <ele>936.20000000000005</ele>
        <time>2003-04-14T13:59:31Z</time>
      </trkpt>
      <trkpt lat="31.186572024598718" lon="-5.223327968269587">
        <ele>935.79999999999995</ele>
        <time>2003-04-14T13:59:32Z</time>
      </trkpt>
      <trkpt lat="31.186336996033788" lon="-5.223327968269587">
        <ele>935.39999999999998</ele>
        <time>2003-04-14T13:59:33Z</time>
      </trkpt>
      <trkpt lat="31.186044970527291" lon="-5.223301984369755">
        <ele>935.70000000000005</ele>
        <time>2003-04-14T13:59:36Z</time>
      </trkpt>
      <trkpt lat="31.185081973671913" lon="-5.223259991034865">
        <ele>935.39999999999998</ele>
        <time>2003-04-14T13:59:46Z</time>
      </trkpt>
      <trkpt lat="31.184452995657921" lon="-5.223222021013498">
        <ele>935.70000000000005</ele>
        <time>2003-04-14T13:59:51Z</time>
      </trkpt>
      <trkpt lat="31.183495027944446" lon="-5.223196959123015">
        <ele>935</ele>
        <time>2003-04-14T14:00:02Z</time>
      </trkpt>
      <trkpt lat="31.182951964437962" lon="-5.223180027678609">
        <ele>935.10000000000002</ele>
        <time>2003-04-14T14:00:07Z</time>
      </trkpt>
      <trkpt lat="31.182812992483377" lon="-5.22316200658679">
        <ele>935.60000000000002</ele>
        <time>2003-04-14T14:00:10Z</time>
      </trkpt>
      <trkpt lat="31.182712996378541" lon="-5.223148008808494">
        <ele>935.70000000000005</ele>
        <time>2003-04-14T14:00:11Z</time>
      </trkpt>
      <trkpt lat="31.182370008900762" lon="-5.223129987716675">
        <ele>935.39999999999998</ele>
        <time>2003-04-14T14:00:18Z</time>
      </trkpt>
      <trkpt lat="31.181714963167906" lon="-5.22309503518045">
        <ele>935</ele>
        <time>2003-04-14T14:00:34Z</time>
      </trkpt>
      <trkpt lat="31.181627037003636" lon="-5.2230320032686">
        <ele>934.79999999999995</ele>
        <time>2003-04-14T14:00:37Z</time>
      </trkpt>
      <trkpt lat="31.181553024798632" lon="-5.222965031862259">
        <ele>934.89999999999998</ele>
        <time>2003-04-14T14:00:38Z</time>
      </trkpt>
      <trkpt lat="31.181453028693795" lon="-5.222927983850241">
        <ele>934.79999999999995</ele>
        <time>2003-04-14T14:00:41Z</time>
      </trkpt>
      <trkpt lat="31.181352026760578" lon="-5.222933012992144">
        <ele>935</ele>
        <time>2003-04-14T14:00:42Z</time>
      </trkpt>
      <trkpt lat="31.181118004024029" lon="-5.222950028255582">
        <ele>934.60000000000002</ele>
        <time>2003-04-14T14:00:48Z</time>
      </trkpt>
      <trkpt lat="31.181078022345901" lon="-5.222852965816855">
        <ele>934.29999999999995</ele>
        <time>2003-04-14T14:00:49Z</time>
      </trkpt>
      <trkpt lat="31.181018007919192" lon="-5.222742995247245">
        <ele>934</ele>
        <time>2003-04-14T14:00:52Z</time>
      </trkpt>
      <trkpt lat="31.180890016257763" lon="-5.222718017175794">
        <ele>934.10000000000002</ele>
        <time>2003-04-14T14:00:53Z</time>
      </trkpt>
      <trkpt lat="31.179987033829093" lon="-5.22264501079917">
        <ele>935.20000000000005</ele>
        <time>2003-04-14T14:01:08Z</time>
      </trkpt>
      <trkpt lat="31.179759968072176" lon="-5.222567981109023">
        <ele>935.20000000000005</ele>
        <time>2003-04-14T14:01:13Z</time>
      </trkpt>
      <trkpt lat="31.17963801138103" lon="-5.222530011087656">
        <ele>935.39999999999998</ele>
        <time>2003-04-14T14:01:16Z</time>
      </trkpt>
      <trkpt lat="31.179516976699233" lon="-5.222477959468961">
        <ele>935.70000000000005</ele>
        <time>2003-04-14T14:01:20Z</time>
      </trkpt>
      <trkpt lat="31.179063012823462" lon="-5.222291965037584">
        <ele>936.20000000000005</ele>
        <time>2003-04-14T14:01:30Z</time>
      </trkpt>
      <trkpt lat="31.178811974823475" lon="-5.222175037488341">
        <ele>936.79999999999995</ele>
        <time>2003-04-14T14:01:34Z</time>
      </trkpt>
      <trkpt lat="31.178449960425496" lon="-5.221997005864978">
        <ele>937.70000000000005</ele>
        <time>2003-04-14T14:01:39Z</time>
      </trkpt>
      <trkpt lat="31.178292967379093" lon="-5.221885023638606">
        <ele>937.10000000000002</ele>
        <time>2003-04-14T14:01:40Z</time>
      </trkpt>
      <trkpt lat="31.177552007138729" lon="-5.221252022311091">
        <ele>935.79999999999995</ele>
        <time>2003-04-14T14:01:51Z</time>
      </trkpt>
      <trkpt lat="31.177072981372476" lon="-5.220809960737824">
        <ele>935</ele>
        <time>2003-04-14T14:01:57Z</time>
      </trkpt>
      <trkpt lat="31.176317017525434" lon="-5.220066988840699">
        <ele>932.70000000000005</ele>
        <time>2003-04-14T14:02:06Z</time>
      </trkpt>
      <trkpt lat="31.176269995048642" lon="-5.219868002459407">
        <ele>932.5</ele>
        <time>2003-04-14T14:02:07Z</time>
      </trkpt>
      <trkpt lat="31.176192965358496" lon="-5.219546975567937">
        <ele>931.39999999999998</ele>
        <time>2003-04-14T14:02:10Z</time>
      </trkpt>
      <trkpt lat="31.176105039194226" lon="-5.219340026378632">
        <ele>931.20000000000005</ele>
        <time>2003-04-14T14:02:13Z</time>
      </trkpt>
      <trkpt lat="31.175710000097752" lon="-5.21854299120605">
        <ele>930.10000000000002</ele>
        <time>2003-04-14T14:02:20Z</time>
      </trkpt>
      <trkpt lat="31.175217982381582" lon="-5.217572031542659">
        <ele>928.70000000000005</ele>
        <time>2003-04-14T14:02:28Z</time>
      </trkpt>
      <trkpt lat="31.175102982670069" lon="-5.217300038784742">
        <ele>927.89999999999998</ele>
        <time>2003-04-14T14:02:29Z</time>
      </trkpt>
      <trkpt lat="31.174977002665401" lon="-5.217067021876574">
        <ele>927.79999999999995</ele>
        <time>2003-04-14T14:02:32Z</time>
      </trkpt>
      <trkpt lat="31.174872983247042" lon="-5.216854959726334">
        <ele>927.70000000000005</ele>
        <time>2003-04-14T14:02:33Z</time>
      </trkpt>
      <trkpt lat="31.174427988007665" lon="-5.215902021154761">
        <ele>927.20000000000005</ele>
        <time>2003-04-14T14:02:41Z</time>
      </trkpt>
      <trkpt lat="31.17418197914958" lon="-5.21549298427999">
        <ele>927.29999999999995</ele>
        <time>2003-04-14T14:02:45Z</time>
      </trkpt>
      <trkpt lat="31.174092041328549" lon="-5.215407991781831">
        <ele>927.20000000000005</ele>
        <time>2003-04-14T14:02:47Z</time>
      </trkpt>
      <trkpt lat="31.173545038327575" lon="-5.215025022625923">
        <ele>925.60000000000002</ele>
        <time>2003-04-14T14:02:52Z</time>
      </trkpt>
      <trkpt lat="31.172687988728285" lon="-5.214501991868019">
        <ele>926.39999999999998</ele>
        <time>2003-04-14T14:03:00Z</time>
      </trkpt>
      <trkpt lat="31.171897994354367" lon="-5.214047022163868">
        <ele>926.5</ele>
        <time>2003-04-14T14:03:08Z</time>
      </trkpt>
      <trkpt lat="31.171694984659553" lon="-5.213922969996929">
        <ele>926.5</ele>
        <time>2003-04-14T14:03:09Z</time>
      </trkpt>
      <trkpt lat="31.171592976897955" lon="-5.213875025510788">
        <ele>926</ele>
        <time>2003-04-14T14:03:11Z</time>
      </trkpt>
      <trkpt lat="31.170716984197497" lon="-5.213374961167574">
        <ele>925.89999999999998</ele>
        <time>2003-04-14T14:03:19Z</time>
      </trkpt>
      <trkpt lat="31.16988499648869" lon="-5.212880009785295">
        <ele>926</ele>
        <time>2003-04-14T14:03:26Z</time>
      </trkpt>
      <trkpt lat="31.169082010164857" lon="-5.212442977353931">
        <ele>925.10000000000002</ele>
        <time>2003-04-14T14:03:32Z</time>
      </trkpt>
      <trkpt lat="31.168861985206604" lon="-5.212362008169293">
        <ele>925.10000000000002</ele>
        <time>2003-04-14T14:03:35Z</time>
      </trkpt>
      <trkpt lat="31.168759977445006" lon="-5.212311968207359">
        <ele>924.79999999999995</ele>
        <time>2003-04-14T14:03:35Z</time>
      </trkpt>
      <trkpt lat="31.168165029957891" lon="-5.212035030126572">
        <ele>924.5</ele>
        <time>2003-04-14T14:03:41Z</time>
      </trkpt>
      <trkpt lat="31.167258024215698" lon="-5.211809976026416">
        <ele>923.5</ele>
        <time>2003-04-14T14:03:46Z</time>
      </trkpt>
      <trkpt lat="31.166583029553294" lon="-5.211657006293535">
        <ele>923.60000000000002</ele>
        <time>2003-04-14T14:03:51Z</time>
      </trkpt>
      <trkpt lat="31.166244987398386" lon="-5.211647031828761">
        <ele>924</ele>
        <time>2003-04-14T14:03:54Z</time>
      </trkpt>
      <trkpt lat="31.165918009355664" lon="-5.211639991030097">
        <ele>923.79999999999995</ele>
        <time>2003-04-14T14:03:58Z</time>
      </trkpt>
      <trkpt lat="31.165426997467875" lon="-5.211649965494871">
        <ele>923</ele>
        <time>2003-04-14T14:04:02Z</time>
      </trkpt>
      <trkpt lat="31.165306968614459" lon="-5.211643008515239">
        <ele>922.70000000000005</ele>
        <time>2003-04-14T14:04:02Z</time>
      </trkpt>
      <trkpt lat="31.164949983358383" lon="-5.211647031828761">
        <ele>922.70000000000005</ele>
        <time>2003-04-14T14:04:06Z</time>
      </trkpt>
      <trkpt lat="31.164717972278595" lon="-5.211645020172">
        <ele>925.5</ele>
        <time>2003-04-14T14:04:08Z</time>
      </trkpt>
      <trkpt lat="31.163852037861943" lon="-5.211647031828761">
        <ele>926.5</ele>
        <time>2003-04-14T14:04:14Z</time>
      </trkpt>
      <trkpt lat="31.16371700540185" lon="-5.211639991030097">
        <ele>926.5</ele>
        <time>2003-04-14T14:04:16Z</time>
      </trkpt>
      <trkpt lat="31.162725007161498" lon="-5.211634961888194">
        <ele>926.10000000000002</ele>
        <time>2003-04-14T14:04:22Z</time>
      </trkpt>
      <trkpt lat="31.161838034167886" lon="-5.211649965494871">
        <ele>925.70000000000005</ele>
        <time>2003-04-14T14:04:29Z</time>
      </trkpt>
      <trkpt lat="31.161720016971231" lon="-5.211647031828761">
        <ele>925.70000000000005</ele>
        <time>2003-04-14T14:04:30Z</time>
      </trkpt>
      <trkpt lat="31.161424973979592" lon="-5.211632028222084">
        <ele>926.79999999999995</ele>
        <time>2003-04-14T14:04:33Z</time>
      </trkpt>
      <trkpt lat="31.161281978711486" lon="-5.211630016565323">
        <ele>926.89999999999998</ele>
        <time>2003-04-14T14:04:36Z</time>
      </trkpt>
      <trkpt lat="31.161172008141875" lon="-5.211639991030097">
        <ele>926.79999999999995</ele>
        <time>2003-04-14T14:04:37Z</time>
      </trkpt>
      <trkpt lat="31.160949971526861" lon="-5.211645020172">
        <ele>926.20000000000005</ele>
        <time>2003-04-14T14:04:40Z</time>
      </trkpt>
      <trkpt lat="31.160668004304171" lon="-5.211651977151632">
        <ele>926.20000000000005</ele>
        <time>2003-04-14T14:04:44Z</time>
      </trkpt>
      <trkpt lat="31.160247987136245" lon="-5.211694976314902">
        <ele>925.29999999999995</ele>
        <time>2003-04-14T14:04:48Z</time>
      </trkpt>
      <trkpt lat="31.159812966361642" lon="-5.211741998791695">
        <ele>926.39999999999998</ele>
        <time>2003-04-14T14:04:52Z</time>
      </trkpt>
      <trkpt lat="31.159437960013747" lon="-5.211648037657142">
        <ele>926.29999999999995</ele>
        <time>2003-04-14T14:04:55Z</time>
      </trkpt>
      <trkpt lat="31.158543024212122" lon="-5.211394988000393">
        <ele>929.29999999999995</ele>
        <time>2003-04-14T14:05:02Z</time>
      </trkpt>
      <trkpt lat="31.157595030963421" lon="-5.211102962493897">
        <ele>926.20000000000005</ele>
        <time>2003-04-14T14:05:08Z</time>
      </trkpt>
      <trkpt lat="31.156609989702702" lon="-5.210887966677547">
        <ele>923.20000000000005</ele>
        <time>2003-04-14T14:05:15Z</time>
      </trkpt>
      <trkpt lat="31.155637018382549" lon="-5.210682023316622">
        <ele>920.5</ele>
        <time>2003-04-14T14:05:23Z</time>
      </trkpt>
      <trkpt lat="31.154706962406635" lon="-5.210459986701608">
        <ele>923.29999999999995</ele>
        <time>2003-04-14T14:05:30Z</time>
      </trkpt>
      <trkpt lat="31.154491966590285" lon="-5.210348004475236">
        <ele>924.29999999999995</ele>
        <time>2003-04-14T14:05:31Z</time>
      </trkpt>
      <trkpt lat="31.153631983324885" lon="-5.209836959838867">
        <ele>919.29999999999995</ele>
        <time>2003-04-14T14:05:38Z</time>
      </trkpt>
      <trkpt lat="31.153259994462132" lon="-5.209632022306323">
        <ele>918.70000000000005</ele>
        <time>2003-04-14T14:05:42Z</time>
      </trkpt>
      <trkpt lat="31.15301700308919" lon="-5.209460025653243">
        <ele>919</ele>
        <time>2003-04-14T14:05:43Z</time>
      </trkpt>
      <trkpt lat="31.152643002569675" lon="-5.209091976284981">
        <ele>921.20000000000005</ele>
        <time>2003-04-14T14:05:47Z</time>
      </trkpt>
      <trkpt lat="31.1525450181216" lon="-5.209030034020543">
        <ele>921.79999999999995</ele>
        <time>2003-04-14T14:05:49Z</time>
      </trkpt>
      <trkpt lat="31.152262967079878" lon="-5.208919979631901">
        <ele>921.79999999999995</ele>
        <time>2003-04-14T14:05:51Z</time>
      </trkpt>
      <trkpt lat="31.152164982631803" lon="-5.208919979631901">
        <ele>921.79999999999995</ele>
        <time>2003-04-14T14:05:53Z</time>
      </trkpt>
      <trkpt lat="31.15207202732563" lon="-5.208940012380481">
        <ele>921.79999999999995</ele>
        <time>2003-04-14T14:05:54Z</time>
      </trkpt>
      <trkpt lat="31.151873040944338" lon="-5.209021987393498">
        <ele>921.60000000000002</ele>
        <time>2003-04-14T14:05:56Z</time>
      </trkpt>
      <trkpt lat="31.151776984333992" lon="-5.209094993770123">
        <ele>921.89999999999998</ele>
        <time>2003-04-14T14:05:57Z</time>
      </trkpt>
      <trkpt lat="31.151585038751364" lon="-5.209292974323034">
        <ele>920.89999999999998</ele>
        <time>2003-04-14T14:05:58Z</time>
      </trkpt>
      <trkpt lat="31.150872996076941" lon="-5.210080035030842">
        <ele>920.60000000000002</ele>
        <time>2003-04-14T14:06:05Z</time>
      </trkpt>
      <trkpt lat="31.150130024179816" lon="-5.210806997492909">
        <ele>922.60000000000002</ele>
        <time>2003-04-14T14:06:13Z</time>
      </trkpt>
      <trkpt lat="31.149851996451616" lon="-5.211019981652498">
        <ele>923.10000000000002</ele>
        <time>2003-04-14T14:06:16Z</time>
      </trkpt>
      <trkpt lat="31.149749988690019" lon="-5.211040014401078">
        <ele>923.60000000000002</ele>
        <time>2003-04-14T14:06:17Z</time>
      </trkpt>
      <trkpt lat="31.149644963443279" lon="-5.211021993309259">
        <ele>923.89999999999998</ele>
        <time>2003-04-14T14:06:17Z</time>
      </trkpt>
      <trkpt lat="31.149542033672333" lon="-5.210983017459512">
        <ele>924.39999999999998</ele>
        <time>2003-04-14T14:06:18Z</time>
      </trkpt>
      <trkpt lat="31.149446982890368" lon="-5.210929960012436">
        <ele>925</ele>
        <time>2003-04-14T14:06:20Z</time>
      </trkpt>
      <trkpt lat="31.149122016504407" lon="-5.210680011659861">
        <ele>923.29999999999995</ele>
        <time>2003-04-14T14:06:23Z</time>
      </trkpt>
      <trkpt lat="31.148916995152831" lon="-5.210482031106949">
        <ele>922.89999999999998</ele>
        <time>2003-04-14T14:06:25Z</time>
      </trkpt>
      <trkpt lat="31.148648019880056" lon="-5.210211966186762">
        <ele>922.29999999999995</ele>
        <time>2003-04-14T14:06:28Z</time>
      </trkpt>
      <trkpt lat="31.148257004097104" lon="-5.209842994809151">
        <ele>921.10000000000002</ele>
        <time>2003-04-14T14:06:32Z</time>
      </trkpt>
      <trkpt lat="31.148091964423656" lon="-5.209662029519677">
        <ele>919.29999999999995</ele>
        <time>2003-04-14T14:06:33Z</time>
      </trkpt>
      <trkpt lat="31.147987022995949" lon="-5.209602015092969">
        <ele>918.70000000000005</ele>
        <time>2003-04-14T14:06:35Z</time>
      </trkpt>
      <trkpt lat="31.147889960557222" lon="-5.209507970139384">
        <ele>917.10000000000002</ele>
        <time>2003-04-14T14:06:36Z</time>
      </trkpt>
      <trkpt lat="31.147353015840054" lon="-5.209040008485317">
        <ele>915.39999999999998</ele>
        <time>2003-04-14T14:06:41Z</time>
      </trkpt>
      <trkpt lat="31.147261988371611" lon="-5.208992986008525">
        <ele>915.39999999999998</ele>
        <time>2003-04-14T14:06:43Z</time>
      </trkpt>
      <trkpt lat="31.147072976455092" lon="-5.20887203514576">
        <ele>914.70000000000005</ele>
        <time>2003-04-14T14:06:44Z</time>
      </trkpt>
      <trkpt lat="31.14678799174726" lon="-5.208653016015887">
        <ele>916.79999999999995</ele>
        <time>2003-04-14T14:06:48Z</time>
      </trkpt>
      <trkpt lat="31.146584982052445" lon="-5.208514966070652">
        <ele>916.39999999999998</ele>
        <time>2003-04-14T14:06:50Z</time>
      </trkpt>
      <trkpt lat="31.145839998498559" lon="-5.207922030240297">
        <ele>914.60000000000002</ele>
        <time>2003-04-14T14:06:56Z</time>
      </trkpt>
      <trkpt lat="31.14500499330461" lon="-5.20732800476253">
        <ele>913</ele>
        <time>2003-04-14T14:07:03Z</time>
      </trkpt>
      <trkpt lat="31.144496966153383" lon="-5.206946963444352">
        <ele>912.10000000000002</ele>
        <time>2003-04-14T14:07:08Z</time>
      </trkpt>
      <trkpt lat="31.144329998642206" lon="-5.206842022016645">
        <ele>910.70000000000005</ele>
        <time>2003-04-14T14:07:11Z</time>
      </trkpt>
      <trkpt lat="31.144220028072596" lon="-5.206755017861724">
        <ele>910.39999999999998</ele>
        <time>2003-04-14T14:07:12Z</time>
      </trkpt>
      <trkpt lat="31.144018024206161" lon="-5.206546979025006">
        <ele>910.20000000000005</ele>
        <time>2003-04-14T14:07:15Z</time>
      </trkpt>
      <trkpt lat="31.143957003951073" lon="-5.206442959606648">
        <ele>910.39999999999998</ele>
        <time>2003-04-14T14:07:17Z</time>
      </trkpt>
      <trkpt lat="31.143794981762767" lon="-5.2062520198524">
        <ele>910.60000000000002</ele>
        <time>2003-04-14T14:07:19Z</time>
      </trkpt>
      <trkpt lat="31.143632037565112" lon="-5.20603702403605">
        <ele>910.89999999999998</ele>
        <time>2003-04-14T14:07:21Z</time>
      </trkpt>
      <trkpt lat="31.14309299737215" lon="-5.205192966386676">
        <ele>910.10000000000002</ele>
        <time>2003-04-14T14:07:27Z</time>
      </trkpt>
      <trkpt lat="31.142689995467663" lon="-5.204519983381033">
        <ele>909.5</ele>
        <time>2003-04-14T14:07:34Z</time>
      </trkpt>
      <trkpt lat="31.142607014626265" lon="-5.204440020024777">
        <ele>909.79999999999995</ele>
        <time>2003-04-14T14:07:34Z</time>
      </trkpt>
      <trkpt lat="31.142356982454658" lon="-5.20416802726686">
        <ele>909.20000000000005</ele>
        <time>2003-04-14T14:07:38Z</time>
      </trkpt>
      <trkpt lat="31.142045008018613" lon="-5.203774999827147">
        <ele>908.79999999999995</ele>
        <time>2003-04-14T14:07:42Z</time>
      </trkpt>
      <trkpt lat="31.141362972557545" lon="-5.202951980754733">
        <ele>908.60000000000002</ele>
        <time>2003-04-14T14:07:50Z</time>
      </trkpt>
      <trkpt lat="31.141162980347872" lon="-5.202718041837215">
        <ele>908.79999999999995</ele>
        <time>2003-04-14T14:07:53Z</time>
      </trkpt>
      <trkpt lat="31.140997018665075" lon="-5.202522994950414">
        <ele>908.39999999999998</ele>
        <time>2003-04-14T14:07:57Z</time>
      </trkpt>
      <trkpt lat="31.140846982598305" lon="-5.202419981360436">
        <ele>908.39999999999998</ele>
        <time>2003-04-14T14:07:58Z</time>
      </trkpt>
      <trkpt lat="31.14055504091084" lon="-5.202270029112697">
        <ele>908.60000000000002</ele>
        <time>2003-04-14T14:08:01Z</time>
      </trkpt>
      <trkpt lat="31.140312971547246" lon="-5.202142037451267">
        <ele>908.89999999999998</ele>
        <time>2003-04-14T14:08:05Z</time>
      </trkpt>
      <trkpt lat="31.140192020684481" lon="-5.202029971405864">
        <ele>909.60000000000002</ele>
        <time>2003-04-14T14:08:06Z</time>
      </trkpt>
      <trkpt lat="31.140129994601011" lon="-5.201941961422563">
        <ele>908.89999999999998</ele>
        <time>2003-04-14T14:08:08Z</time>
      </trkpt>
      <trkpt lat="31.139952968806028" lon="-5.201639961451292">
        <ele>909.39999999999998</ele>
        <time>2003-04-14T14:08:11Z</time>
      </trkpt>
      <trkpt lat="31.139773009344935" lon="-5.201363023370504">
        <ele>909.79999999999995</ele>
        <time>2003-04-14T14:08:13Z</time>
      </trkpt>
      <trkpt lat="31.139279985800385" lon="-5.200706971809268">
        <ele>909.39999999999998</ele>
        <time>2003-04-14T14:08:21Z</time>
      </trkpt>
      <trkpt lat="31.139188036322594" lon="-5.200647041201592">
        <ele>909.39999999999998</ele>
        <time>2003-04-14T14:08:23Z</time>
      </trkpt>
      <trkpt lat="31.138819986954331" lon="-5.200368007645011">
        <ele>908.89999999999998</ele>
        <time>2003-04-14T14:08:27Z</time>
      </trkpt>
      <trkpt lat="31.138671962544322" lon="-5.20017203874886">
        <ele>908.70000000000005</ele>
        <time>2003-04-14T14:08:28Z</time>
      </trkpt>
      <trkpt lat="31.138184973970056" lon="-5.199554963037372">
        <ele>908.79999999999995</ele>
        <time>2003-04-14T14:08:36Z</time>
      </trkpt>
      <trkpt lat="31.13795799203217" lon="-5.199371986091137">
        <ele>908.20000000000005</ele>
        <time>2003-04-14T14:08:39Z</time>
      </trkpt>
      <trkpt lat="31.137766968458891" lon="-5.199286993592978">
        <ele>907.79999999999995</ele>
        <time>2003-04-14T14:08:40Z</time>
      </trkpt>
      <trkpt lat="31.137543004006147" lon="-5.19916201941669">
        <ele>905.79999999999995</ele>
        <time>2003-04-14T14:08:43Z</time>
      </trkpt>
      <trkpt lat="31.136867003515363" lon="-5.19879799336195">
        <ele>905.39999999999998</ele>
        <time>2003-04-14T14:08:48Z</time>
      </trkpt>
      <trkpt lat="31.1363469902426" lon="-5.19856296479702">
        <ele>904.70000000000005</ele>
        <time>2003-04-14T14:08:54Z</time>
      </trkpt>
      <trkpt lat="31.136244982481003" lon="-5.198407983407378">
        <ele>904.70000000000005</ele>
        <time>2003-04-14T14:08:55Z</time>
      </trkpt>
      <trkpt lat="31.13621799275279" lon="-5.198294995352626">
        <ele>905.5</ele>
        <time>2003-04-14T14:08:56Z</time>
      </trkpt>
      <trkpt lat="31.136144986376166" lon="-5.198072036728263">
        <ele>905.79999999999995</ele>
        <time>2003-04-14T14:08:59Z</time>
      </trkpt>
      <trkpt lat="31.136038033291698" lon="-5.197857962921262">
        <ele>905.79999999999995</ele>
        <time>2003-04-14T14:09:00Z</time>
      </trkpt>
      <trkpt lat="31.13595999777317" lon="-5.197750004008412">
        <ele>905.10000000000002</ele>
        <time>2003-04-14T14:09:02Z</time>
      </trkpt>
      <trkpt lat="31.135588008910418" lon="-5.197256980463862">
        <ele>904</ele>
        <time>2003-04-14T14:09:07Z</time>
      </trkpt>
      <trkpt lat="31.135502010583878" lon="-5.197205012664199">
        <ele>903.5</ele>
        <time>2003-04-14T14:09:07Z</time>
      </trkpt>
      <trkpt lat="31.135272011160851" lon="-5.1970149949193">
        <ele>902.70000000000005</ele>
        <time>2003-04-14T14:09:10Z</time>
      </trkpt>
      <trkpt lat="31.135232029482722" lon="-5.196894966065884">
        <ele>902.60000000000002</ele>
        <time>2003-04-14T14:09:11Z</time>
      </trkpt>
      <trkpt lat="31.13516204059124" lon="-5.196621967479587">
        <ele>902.70000000000005</ele>
        <time>2003-04-14T14:09:14Z</time>
      </trkpt>
      <trkpt lat="31.134985014796257" lon="-5.196157023310661">
        <ele>902.60000000000002</ele>
        <time>2003-04-14T14:09:17Z</time>
      </trkpt>
      <trkpt lat="31.134698018431664" lon="-5.195256974548101">
        <ele>901</ele>
        <time>2003-04-14T14:09:22Z</time>
      </trkpt>
      <trkpt lat="31.134564997628331" lon="-5.194878028705716">
        <ele>900.29999999999995</ele>
        <time>2003-04-14T14:09:26Z</time>
      </trkpt>
      <trkpt lat="31.134482016786933" lon="-5.194792030379176">
        <ele>899.79999999999995</ele>
        <time>2003-04-14T14:09:26Z</time>
      </trkpt>
      <trkpt lat="31.134331980720162" lon="-5.194602012634277">
        <ele>899.79999999999995</ele>
        <time>2003-04-14T14:09:29Z</time>
      </trkpt>
      <trkpt lat="31.134287975728512" lon="-5.194473015144467">
        <ele>899.89999999999998</ele>
        <time>2003-04-14T14:09:30Z</time>
      </trkpt>
      <trkpt lat="31.134265009313822" lon="-5.194336976855993">
        <ele>899.89999999999998</ele>
        <time>2003-04-14T14:09:30Z</time>
      </trkpt>
      <trkpt lat="31.134223015978932" lon="-5.194209991022945">
        <ele>899.89999999999998</ele>
        <time>2003-04-14T14:09:32Z</time>
      </trkpt>
      <trkpt lat="31.134152021259069" lon="-5.193930035457015">
        <ele>899.20000000000005</ele>
        <time>2003-04-14T14:09:34Z</time>
      </trkpt>
      <trkpt lat="31.13404699601233" lon="-5.193138029426336">
        <ele>899.29999999999995</ele>
        <time>2003-04-14T14:09:40Z</time>
      </trkpt>
      <trkpt lat="31.133989999070764" lon="-5.193033004179597">
        <ele>899.10000000000002</ele>
        <time>2003-04-14T14:09:41Z</time>
      </trkpt>
      <trkpt lat="31.13385496661067" lon="-5.192842986434698">
        <ele>898.5</ele>
        <time>2003-04-14T14:09:42Z</time>
      </trkpt>
      <trkpt lat="31.133693028241396" lon="-5.19271700643003">
        <ele>898.70000000000005</ele>
        <time>2003-04-14T14:09:45Z</time>
      </trkpt>
      <trkpt lat="31.133599989116192" lon="-5.192690016701818">
        <ele>898.60000000000002</ele>
        <time>2003-04-14T14:09:45Z</time>
      </trkpt>
      <trkpt lat="31.133363032713532" lon="-5.192542998120189">
        <ele>897.60000000000002</ele>
        <time>2003-04-14T14:09:49Z</time>
      </trkpt>
      <trkpt lat="31.133336964994669" lon="-5.192436967045069">
        <ele>897.89999999999998</ele>
        <time>2003-04-14T14:09:49Z</time>
      </trkpt>
      <trkpt lat="31.133332019671798" lon="-5.192311992868781">
        <ele>897.89999999999998</ele>
        <time>2003-04-14T14:09:50Z</time>
      </trkpt>
      <trkpt lat="31.133342999964952" lon="-5.192057015374303">
        <ele>898.5</ele>
        <time>2003-04-14T14:09:53Z</time>
      </trkpt>
      <trkpt lat="31.133348029106855" lon="-5.191806983202696">
        <ele>898.39999999999998</ele>
        <time>2003-04-14T14:09:54Z</time>
      </trkpt>
      <trkpt lat="31.133324978873134" lon="-5.191697012633085">
        <ele>898.20000000000005</ele>
        <time>2003-04-14T14:09:56Z</time>
      </trkpt>
      <trkpt lat="31.133236968889832" lon="-5.191485034301877">
        <ele>898.10000000000002</ele>
        <time>2003-04-14T14:09:57Z</time>
      </trkpt>
      <trkpt lat="31.133162034675479" lon="-5.191380009055138">
        <ele>897.70000000000005</ele>
        <time>2003-04-14T14:09:59Z</time>
      </trkpt>
      <trkpt lat="31.132894987240434" lon="-5.191031992435455">
        <ele>897.29999999999995</ele>
        <time>2003-04-14T14:10:01Z</time>
      </trkpt>
      <trkpt lat="31.132428031414747" lon="-5.190351968631148">
        <ele>896.29999999999995</ele>
        <time>2003-04-14T14:10:07Z</time>
      </trkpt>
      <trkpt lat="31.131889997050166" lon="-5.189400035887957">
        <ele>896.29999999999995</ele>
        <time>2003-04-14T14:10:15Z</time>
      </trkpt>
      <trkpt lat="31.131712971255183" lon="-5.189219992607832">
        <ele>895.70000000000005</ele>
        <time>2003-04-14T14:10:16Z</time>
      </trkpt>
      <trkpt lat="31.131327990442514" lon="-5.188968032598496">
        <ele>896.10000000000002</ele>
        <time>2003-04-14T14:10:20Z</time>
      </trkpt>
      <trkpt lat="31.13121198490262" lon="-5.1889350079">
        <ele>895.89999999999998</ele>
        <time>2003-04-14T14:10:20Z</time>
      </trkpt>
      <trkpt lat="31.131090028211474" lon="-5.188925033435226">
        <ele>896.10000000000002</ele>
        <time>2003-04-14T14:10:21Z</time>
      </trkpt>
      <trkpt lat="31.130615025758743" lon="-5.188941964879632">
        <ele>895.79999999999995</ele>
        <time>2003-04-14T14:10:26Z</time>
      </trkpt>
      <trkpt lat="31.130298022180796" lon="-5.188938025385141">
        <ele>895.79999999999995</ele>
        <time>2003-04-14T14:10:28Z</time>
      </trkpt>
      <trkpt lat="31.13020297139883" lon="-5.188908018171787">
        <ele>895.89999999999998</ele>
        <time>2003-04-14T14:10:30Z</time>
      </trkpt>
      <trkpt lat="31.130114961415529" lon="-5.188854960724711">
        <ele>895.5</ele>
        <time>2003-04-14T14:10:31Z</time>
      </trkpt>
      <trkpt lat="31.130031980574131" lon="-5.188782038167119">
        <ele>895.89999999999998</ele>
        <time>2003-04-14T14:10:31Z</time>
      </trkpt>
      <trkpt lat="31.129784965887666" lon="-5.188582967966795">
        <ele>897</ele>
        <time>2003-04-14T14:10:35Z</time>
      </trkpt>
      <trkpt lat="31.129695028066635" lon="-5.188554972410202">
        <ele>896.60000000000002</ele>
        <time>2003-04-14T14:10:35Z</time>
      </trkpt>
      <trkpt lat="31.129601988941431" lon="-5.1885050162673">
        <ele>896.89999999999998</ele>
        <time>2003-04-14T14:10:38Z</time>
      </trkpt>
      <trkpt lat="31.128703029826283" lon="-5.187972011044622">
        <ele>896.5</ele>
        <time>2003-04-14T14:10:47Z</time>
      </trkpt>
      <trkpt lat="31.128427013754845" lon="-5.187836978584528">
        <ele>898.10000000000002</ele>
        <time>2003-04-14T14:10:50Z</time>
      </trkpt>
      <trkpt lat="31.128164995461702" lon="-5.187728013843298">
        <ele>899.39999999999998</ele>
        <time>2003-04-14T14:10:53Z</time>
      </trkpt>
      <trkpt lat="31.128077991306782" lon="-5.187574960291386">
        <ele>899.70000000000005</ele>
        <time>2003-04-14T14:10:55Z</time>
      </trkpt>
      <trkpt lat="31.12809500657022" lon="-5.18738703802228">
        <ele>900.10000000000002</ele>
        <time>2003-04-14T14:10:57Z</time>
      </trkpt>
      <trkpt lat="31.128104981034994" lon="-5.187074979767203">
        <ele>899.89999999999998</ele>
        <time>2003-04-14T14:10:59Z</time>
      </trkpt>
      <trkpt lat="31.128022000193596" lon="-5.186761999502778">
        <ele>898.79999999999995</ele>
        <time>2003-04-14T14:11:02Z</time>
      </trkpt>
      <trkpt lat="31.127949999645352" lon="-5.186644988134503">
        <ele>898.5</ele>
        <time>2003-04-14T14:11:05Z</time>
      </trkpt>
      <trkpt lat="31.127870036289096" lon="-5.186537029221654">
        <ele>898</ele>
        <time>2003-04-14T14:11:07Z</time>
      </trkpt>
      <trkpt lat="31.127746989950538" lon="-5.186409959569573">
        <ele>897.60000000000002</ele>
        <time>2003-04-14T14:11:10Z</time>
      </trkpt>
      <trkpt lat="31.127652022987604" lon="-5.18633795902133">
        <ele>897.29999999999995</ele>
        <time>2003-04-14T14:11:13Z</time>
      </trkpt>
      <trkpt lat="31.127516990527511" lon="-5.186263024806976">
        <ele>897.70000000000005</ele>
        <time>2003-04-14T14:11:15Z</time>
      </trkpt>
      <trkpt lat="31.127356979995966" lon="-5.186241986230016">
        <ele>897.79999999999995</ele>
        <time>2003-04-14T14:11:18Z</time>
      </trkpt>
      <trkpt lat="31.127169979736209" lon="-5.186224970966578">
        <ele>898.10000000000002</ele>
        <time>2003-04-14T14:11:20Z</time>
      </trkpt>
      <trkpt lat="31.126963030546904" lon="-5.186150036752224">
        <ele>898</ele>
        <time>2003-04-14T14:11:22Z</time>
      </trkpt>
      <trkpt lat="31.126458020880818" lon="-5.185918025672436">
        <ele>898.60000000000002</ele>
        <time>2003-04-14T14:11:26Z</time>
      </trkpt>
      <trkpt lat="31.126298010349274" lon="-5.185785004869103">
        <ele>898.5</ele>
        <time>2003-04-14T14:11:29Z</time>
      </trkpt>
      <trkpt lat="31.126232966780663" lon="-5.185682997107506">
        <ele>898.20000000000005</ele>
        <time>2003-04-14T14:11:29Z</time>
      </trkpt>
      <trkpt lat="31.126177981495857" lon="-5.185562968254089">
        <ele>897.5</ele>
        <time>2003-04-14T14:11:30Z</time>
      </trkpt>
      <trkpt lat="31.12590498290956" lon="-5.184899959713221">
        <ele>896.29999999999995</ele>
        <time>2003-04-14T14:11:36Z</time>
      </trkpt>
      <trkpt lat="31.125862989574671" lon="-5.184612963348627">
        <ele>896.89999999999998</ele>
        <time>2003-04-14T14:11:37Z</time>
      </trkpt>
      <trkpt lat="31.125843040645123" lon="-5.184117006137967">
        <ele>899.20000000000005</ele>
        <time>2003-04-14T14:11:41Z</time>
      </trkpt>
      <trkpt lat="31.125832982361317" lon="-5.18380000256002">
        <ele>899.20000000000005</ele>
        <time>2003-04-14T14:11:45Z</time>
      </trkpt>
      <trkpt lat="31.12575201317668" lon="-5.183213017880917">
        <ele>897.29999999999995</ele>
        <time>2003-04-14T14:11:51Z</time>
      </trkpt>
      <trkpt lat="31.125613041222095" lon="-5.183083014562726">
        <ele>897.29999999999995</ele>
        <time>2003-04-14T14:11:52Z</time>
      </trkpt>
      <trkpt lat="31.125448001548648" lon="-5.182987041771412">
        <ele>897.39999999999998</ele>
        <time>2003-04-14T14:11:55Z</time>
      </trkpt>
      <trkpt lat="31.1253019887954" lon="-5.182944964617491">
        <ele>897.5</ele>
        <time>2003-04-14T14:11:56Z</time>
      </trkpt>
      <trkpt lat="31.125208027660847" lon="-5.182786965742707">
        <ele>897.39999999999998</ele>
        <time>2003-04-14T14:11:59Z</time>
      </trkpt>
      <trkpt lat="31.125096967443824" lon="-5.182602982968092">
        <ele>897.10000000000002</ele>
        <time>2003-04-14T14:12:00Z</time>
      </trkpt>
      <trkpt lat="31.124942991882563" lon="-5.182414976879954">
        <ele>897.29999999999995</ele>
        <time>2003-04-14T14:12:03Z</time>
      </trkpt>
      <trkpt lat="31.124687008559704" lon="-5.182066960260272">
        <ele>896.39999999999998</ele>
        <time>2003-04-14T14:12:05Z</time>
      </trkpt>
      <trkpt lat="31.124367993324995" lon="-5.181662030518055">
        <ele>896.10000000000002</ele>
        <time>2003-04-14T14:12:09Z</time>
      </trkpt>
      <trkpt lat="31.12381998449564" lon="-5.18100799061358">
        <ele>896.10000000000002</ele>
        <time>2003-04-14T14:12:16Z</time>
      </trkpt>
      <trkpt lat="31.123672965914011" lon="-5.180864995345473">
        <ele>896.10000000000002</ele>
        <time>2003-04-14T14:12:19Z</time>
      </trkpt>
      <trkpt lat="31.123627033084631" lon="-5.18077296204865">
        <ele>896.20000000000005</ele>
        <time>2003-04-14T14:12:19Z</time>
      </trkpt>
      <trkpt lat="31.123587973415852" lon="-5.18059803172946">
        <ele>895.89999999999998</ele>
        <time>2003-04-14T14:12:22Z</time>
      </trkpt>
      <trkpt lat="31.123607000336051" lon="-5.18042704090476">
        <ele>895.89999999999998</ele>
        <time>2003-04-14T14:12:23Z</time>
      </trkpt>
      <trkpt lat="31.1235820222646" lon="-5.180222019553185">
        <ele>895.10000000000002</ele>
        <time>2003-04-14T14:12:26Z</time>
      </trkpt>
      <trkpt lat="31.123601971194148" lon="-5.180038036778569">
        <ele>895.60000000000002</ele>
        <time>2003-04-14T14:12:27Z</time>
      </trkpt>
      <trkpt lat="31.123672965914011" lon="-5.179771995171905">
        <ele>895.79999999999995</ele>
        <time>2003-04-14T14:12:31Z</time>
      </trkpt>
      <trkpt lat="31.123657040297985" lon="-5.179563034325838">
        <ele>895.20000000000005</ele>
        <time>2003-04-14T14:12:32Z</time>
      </trkpt>
      <trkpt lat="31.123665003105998" lon="-5.179443005472422">
        <ele>894.70000000000005</ele>
        <time>2003-04-14T14:12:34Z</time>
      </trkpt>
      <trkpt lat="31.123744966462255" lon="-5.178331984207034">
        <ele>895</ele>
        <time>2003-04-14T14:12:43Z</time>
      </trkpt>
      <trkpt lat="31.123722000047565" lon="-5.178141966462135">
        <ele>897.10000000000002</ele>
        <time>2003-04-14T14:12:45Z</time>
      </trkpt>
      <trkpt lat="31.123685035854578" lon="-5.177974998950958">
        <ele>897.89999999999998</ele>
        <time>2003-04-14T14:12:46Z</time>
      </trkpt>
      <trkpt lat="31.12360498867929" lon="-5.177832003682852">
        <ele>898</ele>
        <time>2003-04-14T14:12:49Z</time>
      </trkpt>
      <trkpt lat="31.123504992574453" lon="-5.177647015079856">
        <ele>897.20000000000005</ele>
        <time>2003-04-14T14:12:50Z</time>
      </trkpt>
      <trkpt lat="31.123295025900006" lon="-5.17720302566886">
        <ele>896.79999999999995</ele>
        <time>2003-04-14T14:12:54Z</time>
      </trkpt>
      <trkpt lat="31.122847013175488" lon="-5.176210021600127">
        <ele>897.60000000000002</ele>
        <time>2003-04-14T14:13:03Z</time>
      </trkpt>
      <trkpt lat="31.122518023476005" lon="-5.175505019724369">
        <ele>898.39999999999998</ele>
        <time>2003-04-14T14:13:10Z</time>
      </trkpt>
      <trkpt lat="31.122132958844304" lon="-5.17469298094511">
        <ele>897.29999999999995</ele>
        <time>2003-04-14T14:13:17Z</time>
      </trkpt>
      <trkpt lat="31.122028017416596" lon="-5.174470022320747">
        <ele>897</ele>
        <time>2003-04-14T14:13:20Z</time>
      </trkpt>
      <trkpt lat="31.121952999383211" lon="-5.174364997074008">
        <ele>896.60000000000002</ele>
        <time>2003-04-14T14:13:21Z</time>
      </trkpt>
      <trkpt lat="31.121568018570542" lon="-5.173759991303086">
        <ele>895.39999999999998</ele>
        <time>2003-04-14T14:13:25Z</time>
      </trkpt>
      <trkpt lat="31.121044987812638" lon="-5.172882992774248">
        <ele>894.70000000000005</ele>
        <time>2003-04-14T14:13:33Z</time>
      </trkpt>
      <trkpt lat="31.120656989514828" lon="-5.172213027253747">
        <ele>893.39999999999998</ele>
        <time>2003-04-14T14:13:39Z</time>
      </trkpt>
      <trkpt lat="31.120390025898814" lon="-5.171505007892847">
        <ele>893</ele>
        <time>2003-04-14T14:13:44Z</time>
      </trkpt>
      <trkpt lat="31.120326993986964" lon="-5.171412974596024">
        <ele>892.79999999999995</ele>
        <time>2003-04-14T14:13:45Z</time>
      </trkpt>
      <trkpt lat="31.120249964296818" lon="-5.171337034553289">
        <ele>892.70000000000005</ele>
        <time>2003-04-14T14:13:47Z</time>
      </trkpt>
      <trkpt lat="31.12008199095726" lon="-5.171208037063479">
        <ele>892.60000000000002</ele>
        <time>2003-04-14T14:13:48Z</time>
      </trkpt>
      <trkpt lat="31.119457958266139" lon="-5.170666985213757">
        <ele>893</ele>
        <time>2003-04-14T14:13:56Z</time>
      </trkpt>
      <trkpt lat="31.119298031553626" lon="-5.170557014644146">
        <ele>893.10000000000002</ele>
        <time>2003-04-14T14:13:59Z</time>
      </trkpt>
      <trkpt lat="31.119116982445121" lon="-5.170498006045818">
        <ele>893.20000000000005</ele>
        <time>2003-04-14T14:14:00Z</time>
      </trkpt>
      <trkpt lat="31.118638040497899" lon="-5.170342018827796">
        <ele>893.79999999999995</ele>
        <time>2003-04-14T14:14:07Z</time>
      </trkpt>
      <trkpt lat="31.11771997064352" lon="-5.169983021914959">
        <ele>893.89999999999998</ele>
        <time>2003-04-14T14:14:18Z</time>
      </trkpt>
      <trkpt lat="31.117410007864237" lon="-5.169838014990091">
        <ele>894.39999999999998</ele>
        <time>2003-04-14T14:14:22Z</time>
      </trkpt>
      <trkpt lat="31.117359967902303" lon="-5.169744975864887">
        <ele>894.10000000000002</ele>
        <time>2003-04-14T14:14:24Z</time>
      </trkpt>
      <trkpt lat="31.117467004805803" lon="-5.169684961438179">
        <ele>893.5</ele>
        <time>2003-04-14T14:14:27Z</time>
      </trkpt>
      <trkpt lat="31.117557026445866" lon="-5.169667024165392">
        <ele>893.39999999999998</ele>
        <time>2003-04-14T14:14:30Z</time>
      </trkpt>
      <trkpt lat="31.117619974538684" lon="-5.169569961726666">
        <ele>892.79999999999995</ele>
        <time>2003-04-14T14:14:31Z</time>
      </trkpt>
      <trkpt lat="31.11763003282249" lon="-5.169435013085604">
        <ele>892.10000000000002</ele>
        <time>2003-04-14T14:14:34Z</time>
      </trkpt>
      <trkpt lat="31.11758996732533" lon="-5.169310038909316">
        <ele>891.60000000000002</ele>
        <time>2003-04-14T14:14:35Z</time>
      </trkpt>
      <trkpt lat="31.117521990090609" lon="-5.169209958985448">
        <ele>891</ele>
        <time>2003-04-14T14:14:38Z</time>
      </trkpt>
      <trkpt lat="31.117444960400462" lon="-5.169132007285953">
        <ele>890.39999999999998</ele>
        <time>2003-04-14T14:14:39Z</time>
      </trkpt>
      <trkpt lat="31.117319986224174" lon="-5.169037040323019">
        <ele>889.79999999999995</ele>
        <time>2003-04-14T14:14:42Z</time>
      </trkpt>
      <trkpt lat="31.117104990407825" lon="-5.168884992599487">
        <ele>889.70000000000005</ele>
        <time>2003-04-14T14:14:47Z</time>
      </trkpt>
      <trkpt lat="31.117055034264922" lon="-5.1687600184232">
        <ele>889.5</ele>
        <time>2003-04-14T14:14:50Z</time>
      </trkpt>
      <trkpt lat="31.117061991244555" lon="-5.168645018711686">
        <ele>888.5</ele>
        <time>2003-04-14T14:14:54Z</time>
      </trkpt>
      <trkpt lat="31.117029972374439" lon="-5.168473022058606">
        <ele>886.39999999999998</ele>
        <time>2003-04-14T14:15:23Z</time>
      </trkpt>
      <trkpt lat="31.116947997361422" lon="-5.168402027338743">
        <ele>886</ele>
        <time>2003-04-14T14:15:27Z</time>
      </trkpt>
      <trkpt lat="31.116838026791811" lon="-5.168360034003854">
        <ele>886</ele>
        <time>2003-04-14T14:15:29Z</time>
      </trkpt>
      <trkpt lat="31.11662495881319" lon="-5.16828702762723">
        <ele>888</ele>
        <time>2003-04-14T14:15:36Z</time>
      </trkpt>
      <trkpt lat="31.116527980193496" lon="-5.168240005150437">
        <ele>888.89999999999998</ele>
        <time>2003-04-14T14:15:40Z</time>
      </trkpt>
      <trkpt lat="31.116399988532066" lon="-5.168191976845264">
        <ele>889</ele>
        <time>2003-04-14T14:15:47Z</time>
      </trkpt>
      <trkpt lat="31.116292029619217" lon="-5.168176973238587">
        <ele>890.39999999999998</ele>
        <time>2003-04-14T14:15:50Z</time>
      </trkpt>
      <trkpt lat="31.116117015480995" lon="-5.168134979903698">
        <ele>892.60000000000002</ele>
        <time>2003-04-14T14:15:55Z</time>
      </trkpt>
      <trkpt lat="31.116006961092353" lon="-5.16811503097415">
        <ele>893</ele>
        <time>2003-04-14T14:15:59Z</time>
      </trkpt>
      <trkpt lat="31.115830019116402" lon="-5.16809499822557">
        <ele>894.29999999999995</ele>
        <time>2003-04-14T14:16:03Z</time>
      </trkpt>
      <trkpt lat="31.116332011297345" lon="-5.167572973296046">
        <ele>-236.80000000000001</ele>
        <time>2003-04-14T14:18:30Z</time>
      </trkpt>
      <trkpt lat="31.116027999669313" lon="-5.167819987982512">
        <ele>889</ele>
        <time>2003-04-14T14:18:30Z</time>
      </trkpt>
      <trkpt lat="31.11600000411272" lon="-5.167919984087348">
        <ele>889</ele>
        <time>2003-04-14T14:18:34Z</time>
      </trkpt>
      <trkpt lat="31.115852985531092" lon="-5.167976981028915">
        <ele>905.79999999999995</ele>
        <time>2003-04-14T14:19:17Z</time>
      </trkpt>
      <trkpt lat="31.115807974711061" lon="-5.167827028781176">
        <ele>907.20000000000005</ele>
        <time>2003-04-14T14:50:19Z</time>
      </trkpt>
      <trkpt lat="31.115800011903048" lon="-5.167677998542786">
        <ele>906.5</ele>
        <time>2003-04-14T14:50:24Z</time>
      </trkpt>
      <trkpt lat="31.115792971104383" lon="-5.167446993291378">
        <ele>904.89999999999998</ele>
        <time>2003-04-14T14:50:30Z</time>
      </trkpt>
      <trkpt lat="31.115788025781512" lon="-5.167310032993555">
        <ele>903.5</ele>
        <time>2003-04-14T14:50:34Z</time>
      </trkpt>
      <trkpt lat="31.115782996639609" lon="-5.167142981663346">
        <ele>902.70000000000005</ele>
        <time>2003-04-14T14:50:38Z</time>
      </trkpt>
      <trkpt lat="31.115779979154468" lon="-5.16693796031177">
        <ele>902</ele>
        <time>2003-04-14T14:50:41Z</time>
      </trkpt>
      <trkpt lat="31.115773022174835" lon="-5.165836997330189">
        <ele>900.29999999999995</ele>
        <time>2003-04-14T14:50:54Z</time>
      </trkpt>
      <trkpt lat="31.115749971941113" lon="-5.165050020441413">
        <ele>899.70000000000005</ele>
        <time>2003-04-14T14:51:05Z</time>
      </trkpt>
      <trkpt lat="31.115766987204552" lon="-5.164666967466474">
        <ele>899.70000000000005</ele>
        <time>2003-04-14T14:51:09Z</time>
      </trkpt>
      <trkpt lat="31.115796994417906" lon="-5.164507040753961">
        <ele>899.79999999999995</ele>
        <time>2003-04-14T14:51:12Z</time>
      </trkpt>
      <trkpt lat="31.115906964987516" lon="-5.164049975574017">
        <ele>899.79999999999995</ele>
        <time>2003-04-14T14:51:17Z</time>
      </trkpt>
      <trkpt lat="31.115967985242605" lon="-5.1637779828161">
        <ele>900</ele>
        <time>2003-04-14T14:51:21Z</time>
      </trkpt>
      <trkpt lat="31.11589296720922" lon="-5.163661977276206">
        <ele>899.89999999999998</ele>
        <time>2003-04-14T14:51:25Z</time>
      </trkpt>
      <trkpt lat="31.115788025781512" lon="-5.163655020296574">
        <ele>899.39999999999998</ele>
        <time>2003-04-14T14:51:27Z</time>
      </trkpt>
      <trkpt lat="31.115664979442954" lon="-5.163736995309591">
        <ele>898.89999999999998</ele>
        <time>2003-04-14T14:51:28Z</time>
      </trkpt>
      <trkpt lat="31.115468004718423" lon="-5.163827016949654">
        <ele>899</ele>
        <time>2003-04-14T14:51:32Z</time>
      </trkpt>
      <trkpt lat="31.1152049805969" lon="-5.163858029991388">
        <ele>898.89999999999998</ele>
        <time>2003-04-14T14:51:36Z</time>
      </trkpt>
      <trkpt lat="31.114995013922453" lon="-5.163846965879202">
        <ele>898.89999999999998</ele>
        <time>2003-04-14T14:51:39Z</time>
      </trkpt>
      <trkpt lat="31.114870039746165" lon="-5.163842020556331">
        <ele>898.29999999999995</ele>
        <time>2003-04-14T14:51:40Z</time>
      </trkpt>
      <trkpt lat="31.114738024771214" lon="-5.163857024163008">
        <ele>897.79999999999995</ele>
        <time>2003-04-14T14:51:43Z</time>
      </trkpt>
      <trkpt lat="31.114627970382571" lon="-5.163913015276194">
        <ele>897.5</ele>
        <time>2003-04-14T14:51:44Z</time>
      </trkpt>
      <trkpt lat="31.114523028954864" lon="-5.163960037752986">
        <ele>897.29999999999995</ele>
        <time>2003-04-14T14:51:47Z</time>
      </trkpt>
      <trkpt lat="31.114403000101447" lon="-5.163987027481198">
        <ele>896.79999999999995</ele>
        <time>2003-04-14T14:51:48Z</time>
      </trkpt>
      <trkpt lat="31.114224968478084" lon="-5.16405500471592">
        <ele>896</ele>
        <time>2003-04-14T14:51:52Z</time>
      </trkpt>
      <trkpt lat="31.11410703510046" lon="-5.164104960858822">
        <ele>896.20000000000005</ele>
        <time>2003-04-14T14:51:54Z</time>
      </trkpt>
      <trkpt lat="31.113967979326844" lon="-5.164152989163995">
        <ele>895.29999999999995</ele>
        <time>2003-04-14T14:51:55Z</time>
      </trkpt>
      <trkpt lat="31.113577969372272" lon="-5.164320040494204">
        <ele>893.39999999999998</ele>
        <time>2003-04-14T14:52:02Z</time>
      </trkpt>
      <trkpt lat="31.113437991589308" lon="-5.164372008293867">
        <ele>892.60000000000002</ele>
        <time>2003-04-14T14:52:03Z</time>
      </trkpt>
      <trkpt lat="31.113300025463104" lon="-5.16442196443677">
        <ele>892.39999999999998</ele>
        <time>2003-04-14T14:52:06Z</time>
      </trkpt>
      <trkpt lat="31.113153006881475" lon="-5.164411989971995">
        <ele>892.20000000000005</ele>
        <time>2003-04-14T14:52:07Z</time>
      </trkpt>
      <trkpt lat="31.113004982471466" lon="-5.164339989423752">
        <ele>892.5</ele>
        <time>2003-04-14T14:52:10Z</time>
      </trkpt>
      <trkpt lat="31.112871961668134" lon="-5.164218032732606">
        <ele>892.79999999999995</ele>
        <time>2003-04-14T14:52:11Z</time>
      </trkpt>
      <trkpt lat="31.112640034407377" lon="-5.163962971419096">
        <ele>893</ele>
        <time>2003-04-14T14:52:15Z</time>
      </trkpt>
      <trkpt lat="31.11241296865046" lon="-5.163843026384711">
        <ele>892.70000000000005</ele>
        <time>2003-04-14T14:52:19Z</time>
      </trkpt>
      <trkpt lat="31.112242983654141" lon="-5.163845038041472">
        <ele>893</ele>
        <time>2003-04-14T14:52:21Z</time>
      </trkpt>
      <trkpt lat="31.112077021971345" lon="-5.16390698030591">
        <ele>893.39999999999998</ele>
        <time>2003-04-14T14:52:22Z</time>
      </trkpt>
      <trkpt lat="31.111932015046477" lon="-5.163997001945972">
        <ele>893.89999999999998</ele>
        <time>2003-04-14T14:52:25Z</time>
      </trkpt>
      <trkpt lat="31.111812992021441" lon="-5.164117030799389">
        <ele>894.60000000000002</ele>
        <time>2003-04-14T14:52:26Z</time>
      </trkpt>
      <trkpt lat="31.1116580106318" lon="-5.164177967235446">
        <ele>894.20000000000005</ele>
        <time>2003-04-14T14:52:29Z</time>
      </trkpt>
      <trkpt lat="31.111364979296923" lon="-5.164273018017411">
        <ele>893.39999999999998</ele>
        <time>2003-04-14T14:52:31Z</time>
      </trkpt>
      <trkpt lat="31.110587976872921" lon="-5.164569988846779">
        <ele>894.5</ele>
        <time>2003-04-14T14:52:38Z</time>
      </trkpt>
      <trkpt lat="31.109923040494323" lon="-5.164818009361625">
        <ele>893.20000000000005</ele>
        <time>2003-04-14T14:52:44Z</time>
      </trkpt>
      <trkpt lat="31.109548034146428" lon="-5.164947006851435">
        <ele>894.60000000000002</ele>
        <time>2003-04-14T14:52:46Z</time>
      </trkpt>
      <trkpt lat="31.108791986480355" lon="-5.165223022922874">
        <ele>895</ele>
        <time>2003-04-14T14:52:53Z</time>
      </trkpt>
      <trkpt lat="31.108341962099075" lon="-5.165357971563935">
        <ele>895.79999999999995</ele>
        <time>2003-04-14T14:52:57Z</time>
      </trkpt>
      <trkpt lat="31.107435040175915" lon="-5.165559975430369">
        <ele>893.29999999999995</ele>
        <time>2003-04-14T14:53:05Z</time>
      </trkpt>
      <trkpt lat="31.107224989682436" lon="-5.165542960166931">
        <ele>893.79999999999995</ele>
        <time>2003-04-14T14:53:06Z</time>
      </trkpt>
      <trkpt lat="31.107107978314161" lon="-5.165557041764259">
        <ele>893.5</ele>
        <time>2003-04-14T14:53:08Z</time>
      </trkpt>
      <trkpt lat="31.106883008033037" lon="-5.165602974593639">
        <ele>893.60000000000002</ele>
        <time>2003-04-14T14:53:09Z</time>
      </trkpt>
      <trkpt lat="31.106785023584962" lon="-5.165649997070432">
        <ele>894.10000000000002</ele>
        <time>2003-04-14T14:53:11Z</time>
      </trkpt>
      <trkpt lat="31.10643801279366" lon="-5.165728032588959">
        <ele>894.10000000000002</ele>
        <time>2003-04-14T14:53:15Z</time>
      </trkpt>
      <trkpt lat="31.106268027797341" lon="-5.165715040639043">
        <ele>894.39999999999998</ele>
        <time>2003-04-14T14:53:16Z</time>
      </trkpt>
      <trkpt lat="31.106080021709204" lon="-5.165734989568591">
        <ele>896</ele>
        <time>2003-04-14T14:53:19Z</time>
      </trkpt>
      <trkpt lat="31.105980025604367" lon="-5.165795003995299">
        <ele>895.79999999999995</ele>
        <time>2003-04-14T14:53:20Z</time>
      </trkpt>
      <trkpt lat="31.105303019285202" lon="-5.16616003587842">
        <ele>894.5</ele>
        <time>2003-04-14T14:53:27Z</time>
      </trkpt>
      <trkpt lat="31.105158012360334" lon="-5.16618300229311">
        <ele>894.5</ele>
        <time>2003-04-14T14:53:28Z</time>
      </trkpt>
      <trkpt lat="31.105027003213763" lon="-5.166255002841353">
        <ele>895.10000000000002</ele>
        <time>2003-04-14T14:53:31Z</time>
      </trkpt>
      <trkpt lat="31.104773031547666" lon="-5.166373020038009">
        <ele>895.39999999999998</ele>
        <time>2003-04-14T14:53:33Z</time>
      </trkpt>
      <trkpt lat="31.10446197912097" lon="-5.166537975892425">
        <ele>895.70000000000005</ele>
        <time>2003-04-14T14:53:36Z</time>
      </trkpt>
      <trkpt lat="31.104027964174747" lon="-5.166854979470372">
        <ele>896</ele>
        <time>2003-04-14T14:53:40Z</time>
      </trkpt>
      <trkpt lat="31.103938026353717" lon="-5.166965033859015">
        <ele>895.60000000000002</ele>
        <time>2003-04-14T14:53:42Z</time>
      </trkpt>
      <trkpt lat="31.103537958115339" lon="-5.167392008006573">
        <ele>895</ele>
        <time>2003-04-14T14:53:46Z</time>
      </trkpt>
      <trkpt lat="31.103164963424206" lon="-5.167671963572502">
        <ele>894.70000000000005</ele>
        <time>2003-04-14T14:53:48Z</time>
      </trkpt>
      <trkpt lat="31.102645033970475" lon="-5.167942028492689">
        <ele>893.20000000000005</ele>
        <time>2003-04-14T14:53:52Z</time>
      </trkpt>
      <trkpt lat="31.102407993748784" lon="-5.168049987405539">
        <ele>892.39999999999998</ele>
        <time>2003-04-14T14:53:55Z</time>
      </trkpt>
      <trkpt lat="31.102187968790531" lon="-5.168128022924066">
        <ele>892.5</ele>
        <time>2003-04-14T14:53:56Z</time>
      </trkpt>
      <trkpt lat="31.102077998220921" lon="-5.168131962418556">
        <ele>891.70000000000005</ele>
        <time>2003-04-14T14:53:58Z</time>
      </trkpt>
      <trkpt lat="31.101967021822929" lon="-5.168166998773813">
        <ele>892.20000000000005</ele>
        <time>2003-04-14T14:53:59Z</time>
      </trkpt>
      <trkpt lat="31.101631997153163" lon="-5.168336983770132">
        <ele>891.39999999999998</ele>
        <time>2003-04-14T14:54:02Z</time>
      </trkpt>
      <trkpt lat="31.101403003558517" lon="-5.168466987088323">
        <ele>891.60000000000002</ele>
        <time>2003-04-14T14:54:03Z</time>
      </trkpt>
      <trkpt lat="31.101275011897087" lon="-5.16850302927196">
        <ele>891.5</ele>
        <time>2003-04-14T14:54:05Z</time>
      </trkpt>
      <trkpt lat="31.100394995883107" lon="-5.168712995946407">
        <ele>890.89999999999998</ele>
        <time>2003-04-14T14:54:11Z</time>
      </trkpt>
      <trkpt lat="31.099472986534238" lon="-5.168930003419519">
        <ele>892.20000000000005</ele>
        <time>2003-04-14T14:54:18Z</time>
      </trkpt>
      <trkpt lat="31.098941992968321" lon="-5.169152040034533">
        <ele>892.29999999999995</ele>
        <time>2003-04-14T14:54:22Z</time>
      </trkpt>
      <trkpt lat="31.098677963018417" lon="-5.169322025030851">
        <ele>892.29999999999995</ele>
        <time>2003-04-14T14:54:25Z</time>
      </trkpt>
      <trkpt lat="31.098242020234466" lon="-5.169553030282259">
        <ele>892.10000000000002</ele>
        <time>2003-04-14T14:54:27Z</time>
      </trkpt>
      <trkpt lat="31.097798030823469" lon="-5.169701976701617">
        <ele>892.10000000000002</ele>
        <time>2003-04-14T14:54:30Z</time>
      </trkpt>
      <trkpt lat="31.097641959786415" lon="-5.169719997793436">
        <ele>892.20000000000005</ele>
        <time>2003-04-14T14:54:32Z</time>
      </trkpt>
      <trkpt lat="31.09670695848763" lon="-5.16981496475637">
        <ele>892.89999999999998</ele>
        <time>2003-04-14T14:54:37Z</time>
      </trkpt>
      <trkpt lat="31.096579972654581" lon="-5.169767020270228">
        <ele>893.10000000000002</ele>
        <time>2003-04-14T14:54:38Z</time>
      </trkpt>
      <trkpt lat="31.096028024330735" lon="-5.169574990868568">
        <ele>892.29999999999995</ele>
        <time>2003-04-14T14:54:44Z</time>
      </trkpt>
      <trkpt lat="31.095936996862292" lon="-5.169608015567064">
        <ele>891.70000000000005</ele>
        <time>2003-04-14T14:54:45Z</time>
      </trkpt>
      <trkpt lat="31.095714960247278" lon="-5.169741958379746">
        <ele>891.20000000000005</ele>
        <time>2003-04-14T14:54:48Z</time>
      </trkpt>
      <trkpt lat="31.095614964142442" lon="-5.169782023876905">
        <ele>891.39999999999998</ele>
        <time>2003-04-14T14:54:49Z</time>
      </trkpt>
      <trkpt lat="31.095263008028269" lon="-5.169914960861206">
        <ele>890</ele>
        <time>2003-04-14T14:54:53Z</time>
      </trkpt>
      <trkpt lat="31.095152031630278" lon="-5.169940022751689">
        <ele>890.60000000000002</ele>
        <time>2003-04-14T14:54:54Z</time>
      </trkpt>
      <trkpt lat="31.094909962266684" lon="-5.169998025521636">
        <ele>890.10000000000002</ele>
        <time>2003-04-14T14:54:57Z</time>
      </trkpt>
      <trkpt lat="31.094436971470714" lon="-5.17011696472764">
        <ele>890.29999999999995</ele>
        <time>2003-04-14T14:55:03Z</time>
      </trkpt>
      <trkpt lat="31.094155004248023" lon="-5.170174967497587">
        <ele>890</ele>
        <time>2003-04-14T14:55:05Z</time>
      </trkpt>
      <trkpt lat="31.093640020117164" lon="-5.170315029099584">
        <ele>889.89999999999998</ele>
        <time>2003-04-14T14:55:11Z</time>
      </trkpt>
      <trkpt lat="31.093337014317513" lon="-5.170364985242486">
        <ele>889.70000000000005</ele>
        <time>2003-04-14T14:55:13Z</time>
      </trkpt>
      <trkpt lat="31.093193013221025" lon="-5.170464981347323">
        <ele>890.20000000000005</ele>
        <time>2003-04-14T14:55:16Z</time>
      </trkpt>
      <trkpt lat="31.09309502877295" lon="-5.170481996610761">
        <ele>892</ele>
        <time>2003-04-14T14:55:16Z</time>
      </trkpt>
      <trkpt lat="31.09288296662271" lon="-5.17050001770258">
        <ele>891.5</ele>
        <time>2003-04-14T14:55:19Z</time>
      </trkpt>
      <trkpt lat="31.092790011316538" lon="-5.170483002439141">
        <ele>891.39999999999998</ele>
        <time>2003-04-14T14:55:20Z</time>
      </trkpt>
      <trkpt lat="31.092588007450104" lon="-5.170492976903915">
        <ele>890.89999999999998</ele>
        <time>2003-04-14T14:55:21Z</time>
      </trkpt>
      <trkpt lat="31.091767000034451" lon="-5.170676959678531">
        <ele>891.60000000000002</ele>
        <time>2003-04-14T14:55:28Z</time>
      </trkpt>
      <trkpt lat="31.090914979577065" lon="-5.170864965766668">
        <ele>892.10000000000002</ele>
        <time>2003-04-14T14:55:35Z</time>
      </trkpt>
      <trkpt lat="31.089960029348731" lon="-5.171048026531935">
        <ele>892.89999999999998</ele>
        <time>2003-04-14T14:55:40Z</time>
      </trkpt>
      <trkpt lat="31.088989991694689" lon="-5.171235026791692">
        <ele>894.10000000000002</ele>
        <time>2003-04-14T14:55:47Z</time>
      </trkpt>
      <trkpt lat="31.087988018989563" lon="-5.171437030658126">
        <ele>894.89999999999998</ele>
        <time>2003-04-14T14:55:55Z</time>
      </trkpt>
      <trkpt lat="31.087053017690778" lon="-5.171646997332573">
        <ele>895.60000000000002</ele>
        <time>2003-04-14T14:56:01Z</time>
      </trkpt>
      <trkpt lat="31.086393026635051" lon="-5.171883031725884">
        <ele>895.89999999999998</ele>
        <time>2003-04-14T14:56:05Z</time>
      </trkpt>
      <trkpt lat="31.08540496788919" lon="-5.172259965911508">
        <ele>896.10000000000002</ele>
        <time>2003-04-14T14:56:10Z</time>
      </trkpt>
      <trkpt lat="31.084497040137649" lon="-5.172658022493124">
        <ele>895.10000000000002</ele>
        <time>2003-04-14T14:56:17Z</time>
      </trkpt>
      <trkpt lat="31.083539994433522" lon="-5.172969996929169">
        <ele>895.39999999999998</ele>
        <time>2003-04-14T14:56:24Z</time>
      </trkpt>
      <trkpt lat="31.083017969503999" lon="-5.173172000795603">
        <ele>895.70000000000005</ele>
        <time>2003-04-14T14:56:28Z</time>
      </trkpt>
      <trkpt lat="31.082797022536397" lon="-5.173345003277063">
        <ele>895.70000000000005</ele>
        <time>2003-04-14T14:56:29Z</time>
      </trkpt>
      <trkpt lat="31.082477001473308" lon="-5.173569973558188">
        <ele>895.39999999999998</ele>
        <time>2003-04-14T14:56:33Z</time>
      </trkpt>
      <trkpt lat="31.082372982054949" lon="-5.173605009913445">
        <ele>896.39999999999998</ele>
        <time>2003-04-14T14:56:33Z</time>
      </trkpt>
      <trkpt lat="31.082201991230249" lon="-5.173690002411604">
        <ele>897.10000000000002</ele>
        <time>2003-04-14T14:56:36Z</time>
      </trkpt>
      <trkpt lat="31.082012979313731" lon="-5.173707017675042">
        <ele>896.79999999999995</ele>
        <time>2003-04-14T14:56:37Z</time>
      </trkpt>
      <trkpt lat="31.081911977380514" lon="-5.173733001574874">
        <ele>897.10000000000002</ele>
        <time>2003-04-14T14:56:38Z</time>
      </trkpt>
      <trkpt lat="31.081563038751483" lon="-5.173840038478375">
        <ele>897.89999999999998</ele>
        <time>2003-04-14T14:56:41Z</time>
      </trkpt>
      <trkpt lat="31.081367991864681" lon="-5.173914972692728">
        <ele>899</ele>
        <time>2003-04-14T14:56:44Z</time>
      </trkpt>
      <trkpt lat="31.081282999366522" lon="-5.173974987119436">
        <ele>899.70000000000005</ele>
        <time>2003-04-14T14:56:45Z</time>
      </trkpt>
      <trkpt lat="31.080910004675388" lon="-5.174237005412579">
        <ele>900.39999999999998</ele>
        <time>2003-04-14T14:56:49Z</time>
      </trkpt>
      <trkpt lat="31.080540027469397" lon="-5.174387041479349">
        <ele>900.60000000000002</ele>
        <time>2003-04-14T14:56:52Z</time>
      </trkpt>
      <trkpt lat="31.079675015062094" lon="-5.174847962334752">
        <ele>899</ele>
        <time>2003-04-14T14:56:59Z</time>
      </trkpt>
      <trkpt lat="31.079551968723536" lon="-5.174873024225235">
        <ele>899.5</ele>
        <time>2003-04-14T14:57:00Z</time>
      </trkpt>
      <trkpt lat="31.079436969012022" lon="-5.174922980368137">
        <ele>899.60000000000002</ele>
        <time>2003-04-14T14:57:00Z</time>
      </trkpt>
      <trkpt lat="31.079221973195672" lon="-5.17499003559351">
        <ele>899.89999999999998</ele>
        <time>2003-04-14T14:57:03Z</time>
      </trkpt>
      <trkpt lat="31.079121977090836" lon="-5.174979977309704">
        <ele>900</ele>
        <time>2003-04-14T14:57:04Z</time>
      </trkpt>
      <trkpt lat="31.078662984073162" lon="-5.174962962046266">
        <ele>901.89999999999998</ele>
        <time>2003-04-14T14:57:08Z</time>
      </trkpt>
      <trkpt lat="31.078538009896874" lon="-5.175007972866297">
        <ele>901.89999999999998</ele>
        <time>2003-04-14T14:57:08Z</time>
      </trkpt>
      <trkpt lat="31.078423010185361" lon="-5.175073016434908">
        <ele>901.29999999999995</ele>
        <time>2003-04-14T14:57:09Z</time>
      </trkpt>
      <trkpt lat="31.078231986612082" lon="-5.175217017531395">
        <ele>902.70000000000005</ele>
        <time>2003-04-14T14:57:12Z</time>
      </trkpt>
      <trkpt lat="31.07807700522244" lon="-5.175393037497997">
        <ele>901.10000000000002</ele>
        <time>2003-04-14T14:57:14Z</time>
      </trkpt>
      <trkpt lat="31.077978014945984" lon="-5.175447016954422">
        <ele>901.10000000000002</ele>
        <time>2003-04-14T14:57:15Z</time>
      </trkpt>
      <trkpt lat="31.077871983870864" lon="-5.175480041652918">
        <ele>901.39999999999998</ele>
        <time>2003-04-14T14:57:16Z</time>
      </trkpt>
      <trkpt lat="31.077333027496934" lon="-5.175652038305998">
        <ele>901.5</ele>
        <time>2003-04-14T14:57:20Z</time>
      </trkpt>
      <trkpt lat="31.076945029199123" lon="-5.175801990553737">
        <ele>901.70000000000005</ele>
        <time>2003-04-14T14:57:23Z</time>
      </trkpt>
      <trkpt lat="31.076213037595153" lon="-5.176095021888614">
        <ele>901.20000000000005</ele>
        <time>2003-04-14T14:57:28Z</time>
      </trkpt>
      <trkpt lat="31.075350036844611" lon="-5.176521996036172">
        <ele>902</ele>
        <time>2003-04-14T14:57:35Z</time>
      </trkpt>
      <trkpt lat="31.074502039700747" lon="-5.176873030140996">
        <ele>901.70000000000005</ele>
        <time>2003-04-14T14:57:41Z</time>
      </trkpt>
      <trkpt lat="31.074310010299087" lon="-5.17694503068924">
        <ele>901.79999999999995</ele>
        <time>2003-04-14T14:57:43Z</time>
      </trkpt>
      <trkpt lat="31.074155028909445" lon="-5.177022982388735">
        <ele>900.5</ele>
        <time>2003-04-14T14:57:45Z</time>
      </trkpt>
      <trkpt lat="31.074062995612621" lon="-5.177006972953677">
        <ele>900.39999999999998</ele>
        <time>2003-04-14T14:57:46Z</time>
      </trkpt>
      <trkpt lat="31.073957970365882" lon="-5.177082996815443">
        <ele>902</ele>
        <time>2003-04-14T14:57:50Z</time>
      </trkpt>
      <trkpt lat="31.073831990361214" lon="-5.17711702734232">
        <ele>902.20000000000005</ele>
        <time>2003-04-14T14:57:51Z</time>
      </trkpt>
      <trkpt lat="31.073662005364895" lon="-5.177170000970364">
        <ele>902</ele>
        <time>2003-04-14T14:57:54Z</time>
      </trkpt>
      <trkpt lat="31.073580030351877" lon="-5.177218029275537">
        <ele>902.20000000000005</ele>
        <time>2003-04-14T14:57:54Z</time>
      </trkpt>
      <trkpt lat="31.073305020108819" lon="-5.177402012050152">
        <ele>901.60000000000002</ele>
        <time>2003-04-14T14:57:58Z</time>
      </trkpt>
      <trkpt lat="31.073117014020681" lon="-5.177460014820099">
        <ele>902.10000000000002</ele>
        <time>2003-04-14T14:58:01Z</time>
      </trkpt>
      <trkpt lat="31.072897994890809" lon="-5.177536960691214">
        <ele>901.79999999999995</ele>
        <time>2003-04-14T14:58:02Z</time>
      </trkpt>
      <trkpt lat="31.072602029889822" lon="-5.177633017301559">
        <ele>901.89999999999998</ele>
        <time>2003-04-14T14:58:06Z</time>
      </trkpt>
      <trkpt lat="31.072119986638427" lon="-5.177792022004724">
        <ele>902.29999999999995</ele>
        <time>2003-04-14T14:58:10Z</time>
      </trkpt>
      <trkpt lat="31.07195301912725" lon="-5.177939962595701">
        <ele>902.70000000000005</ele>
        <time>2003-04-14T14:58:13Z</time>
      </trkpt>
      <trkpt lat="31.071853023022413" lon="-5.177987990900874">
        <ele>901.89999999999998</ele>
        <time>2003-04-14T14:58:13Z</time>
      </trkpt>
      <trkpt lat="31.071752021089196" lon="-5.178016992285848">
        <ele>901.79999999999995</ele>
        <time>2003-04-14T14:58:14Z</time>
      </trkpt>
      <trkpt lat="31.071568038314581" lon="-5.178114976733923">
        <ele>902</ele>
        <time>2003-04-14T14:58:17Z</time>
      </trkpt>
      <trkpt lat="31.070762034505606" lon="-5.178640019148588">
        <ele>902.29999999999995</ele>
        <time>2003-04-14T14:58:25Z</time>
      </trkpt>
      <trkpt lat="31.070412006229162" lon="-5.178828025236726">
        <ele>902.39999999999998</ele>
        <time>2003-04-14T14:58:28Z</time>
      </trkpt>
      <trkpt lat="31.069708010181785" lon="-5.179112004116178">
        <ele>902.89999999999998</ele>
        <time>2003-04-14T14:58:33Z</time>
      </trkpt>
      <trkpt lat="31.069069979712367" lon="-5.17943998798728">
        <ele>903.89999999999998</ele>
        <time>2003-04-14T14:58:37Z</time>
      </trkpt>
      <trkpt lat="31.068227011710405" lon="-5.1799569837749">
        <ele>904.89999999999998</ele>
        <time>2003-04-14T14:58:44Z</time>
      </trkpt>
      <trkpt lat="31.067974967882037" lon="-5.180133003741503">
        <ele>905.10000000000002</ele>
        <time>2003-04-14T14:58:47Z</time>
      </trkpt>
      <trkpt lat="31.067235013470054" lon="-5.180819984525442">
        <ele>906</ele>
        <time>2003-04-14T14:58:53Z</time>
      </trkpt>
      <trkpt lat="31.06699001044035" lon="-5.180970020592213">
        <ele>905.79999999999995</ele>
        <time>2003-04-14T14:58:56Z</time>
      </trkpt>
      <trkpt lat="31.066070012748241" lon="-5.181492967531085">
        <ele>906.20000000000005</ele>
        <time>2003-04-14T14:59:03Z</time>
      </trkpt>
      <trkpt lat="31.065855016931891" lon="-5.181621965020895">
        <ele>906.5</ele>
        <time>2003-04-14T14:59:04Z</time>
      </trkpt>
      <trkpt lat="31.065776981413364" lon="-5.181712992489338">
        <ele>906.70000000000005</ele>
        <time>2003-04-14T14:59:06Z</time>
      </trkpt>
      <trkpt lat="31.065608002245426" lon="-5.18186797387898">
        <ele>905.60000000000002</ele>
        <time>2003-04-14T14:59:07Z</time>
      </trkpt>
      <trkpt lat="31.065267026424408" lon="-5.18208003602922">
        <ele>907.10000000000002</ele>
        <time>2003-04-14T14:59:11Z</time>
      </trkpt>
      <trkpt lat="31.064439984038472" lon="-5.182529976591468">
        <ele>907.60000000000002</ele>
        <time>2003-04-14T14:59:16Z</time>
      </trkpt>
      <trkpt lat="31.063797008246183" lon="-5.182867012917996">
        <ele>909.10000000000002</ele>
        <time>2003-04-14T14:59:22Z</time>
      </trkpt>
      <trkpt lat="31.062937024980783" lon="-5.183443017303944">
        <ele>909.5</ele>
        <time>2003-04-14T14:59:29Z</time>
      </trkpt>
      <trkpt lat="31.062030019238591" lon="-5.1838200353086">
        <ele>910.70000000000005</ele>
        <time>2003-04-14T14:59:35Z</time>
      </trkpt>
      <trkpt lat="31.061677979305387" lon="-5.18405799753964">
        <ele>911.10000000000002</ele>
        <time>2003-04-14T14:59:38Z</time>
      </trkpt>
      <trkpt lat="31.061346977949142" lon="-5.184193029999733">
        <ele>910.89999999999998</ele>
        <time>2003-04-14T14:59:42Z</time>
      </trkpt>
      <trkpt lat="31.06127698905766" lon="-5.184263018891215">
        <ele>911</ele>
        <time>2003-04-14T14:59:42Z</time>
      </trkpt>
      <trkpt lat="31.061223009601235" lon="-5.184371983632445">
        <ele>910.70000000000005</ele>
        <time>2003-04-14T14:59:43Z</time>
      </trkpt>
      <trkpt lat="31.061076996847987" lon="-5.18457499332726">
        <ele>911.39999999999998</ele>
        <time>2003-04-14T14:59:46Z</time>
      </trkpt>
      <trkpt lat="31.060968032106757" lon="-5.184661997482181">
        <ele>911.70000000000005</ele>
        <time>2003-04-14T14:59:46Z</time>
      </trkpt>
      <trkpt lat="31.060723029077053" lon="-5.184817984700203">
        <ele>911.89999999999998</ele>
        <time>2003-04-14T14:59:49Z</time>
      </trkpt>
      <trkpt lat="31.059806970879436" lon="-5.185362976044416">
        <ele>912.89999999999998</ele>
        <time>2003-04-14T14:59:56Z</time>
      </trkpt>
      <trkpt lat="31.058982023969293" lon="-5.185997989028692">
        <ele>913.70000000000005</ele>
        <time>2003-04-14T15:00:01Z</time>
      </trkpt>
      <trkpt lat="31.058178031817079" lon="-5.186584973707795">
        <ele>914.29999999999995</ele>
        <time>2003-04-14T15:00:08Z</time>
      </trkpt>
      <trkpt lat="31.05768701992929" lon="-5.186827965080738">
        <ele>914.10000000000002</ele>
        <time>2003-04-14T15:00:12Z</time>
      </trkpt>
      <trkpt lat="31.057572020217776" lon="-5.186850009486079">
        <ele>914.10000000000002</ele>
        <time>2003-04-14T15:00:13Z</time>
      </trkpt>
      <trkpt lat="31.057357024401426" lon="-5.186867024749517">
        <ele>914.10000000000002</ele>
        <time>2003-04-14T15:00:14Z</time>
      </trkpt>
      <trkpt lat="31.057243030518293" lon="-5.186835005879402">
        <ele>914.20000000000005</ele>
        <time>2003-04-14T15:00:16Z</time>
      </trkpt>
      <trkpt lat="31.057038009166718" lon="-5.186748001724482">
        <ele>914.29999999999995</ele>
        <time>2003-04-14T15:00:18Z</time>
      </trkpt>
      <trkpt lat="31.05695703998208" lon="-5.186686981469393">
        <ele>914.60000000000002</ele>
        <time>2003-04-14T15:00:20Z</time>
      </trkpt>
      <trkpt lat="31.056857965886593" lon="-5.186635013669729">
        <ele>914.70000000000005</ele>
        <time>2003-04-14T15:00:20Z</time>
      </trkpt>
      <trkpt lat="31.056241979822516" lon="-5.186232011765242">
        <ele>915.70000000000005</ele>
        <time>2003-04-14T15:00:27Z</time>
      </trkpt>
      <trkpt lat="31.055830009281635" lon="-5.185879971832037">
        <ele>916.10000000000002</ele>
        <time>2003-04-14T15:00:31Z</time>
      </trkpt>
      <trkpt lat="31.055673016235232" lon="-5.185826998203993">
        <ele>916.20000000000005</ele>
        <time>2003-04-14T15:00:32Z</time>
      </trkpt>
      <trkpt lat="31.055500013753772" lon="-5.185857005417347">
        <ele>916.5</ele>
        <time>2003-04-14T15:00:35Z</time>
      </trkpt>
      <trkpt lat="31.055321982130408" lon="-5.185836972668767">
        <ele>917.20000000000005</ele>
        <time>2003-04-14T15:00:37Z</time>
      </trkpt>
      <trkpt lat="31.055016964673996" lon="-5.185718033462763">
        <ele>917.29999999999995</ele>
        <time>2003-04-14T15:00:40Z</time>
      </trkpt>
      <trkpt lat="31.054704990237951" lon="-5.185583001002669">
        <ele>917.79999999999995</ele>
        <time>2003-04-14T15:00:44Z</time>
      </trkpt>
      <trkpt lat="31.054107025265694" lon="-5.185387032106519">
        <ele>918.89999999999998</ele>
        <time>2003-04-14T15:00:50Z</time>
      </trkpt>
      <trkpt lat="31.054029995575547" lon="-5.185267003253102">
        <ele>919</ele>
        <time>2003-04-14T15:00:52Z</time>
      </trkpt>
      <trkpt lat="31.053956989198923" lon="-5.185172958299518">
        <ele>919.29999999999995</ele>
        <time>2003-04-14T15:00:54Z</time>
      </trkpt>
      <trkpt lat="31.053850036114454" lon="-5.185095006600022">
        <ele>919.20000000000005</ele>
        <time>2003-04-14T15:00:55Z</time>
      </trkpt>
      <trkpt lat="31.053687008097768" lon="-5.185000039637089">
        <ele>919.29999999999995</ele>
        <time>2003-04-14T15:00:58Z</time>
      </trkpt>
      <trkpt lat="31.053402023389935" lon="-5.184871964156628">
        <ele>919.70000000000005</ele>
        <time>2003-04-14T15:01:00Z</time>
      </trkpt>
      <trkpt lat="31.05300203897059" lon="-5.184795018285513">
        <ele>920</ele>
        <time>2003-04-14T15:01:04Z</time>
      </trkpt>
      <trkpt lat="31.05244698934257" lon="-5.184761993587017">
        <ele>920.60000000000002</ele>
        <time>2003-04-14T15:01:10Z</time>
      </trkpt>
      <trkpt lat="31.052044993266463" lon="-5.184665014967322">
        <ele>920.60000000000002</ele>
        <time>2003-04-14T15:01:14Z</time>
      </trkpt>
      <trkpt lat="31.051956983283162" lon="-5.184597037732601">
        <ele>920.79999999999995</ele>
        <time>2003-04-14T15:01:15Z</time>
      </trkpt>
      <trkpt lat="31.051754979416728" lon="-5.184478014707565">
        <ele>921.20000000000005</ele>
        <time>2003-04-14T15:01:17Z</time>
      </trkpt>
      <trkpt lat="31.051526991650462" lon="-5.184401990845799">
        <ele>921.60000000000002</ele>
        <time>2003-04-14T15:01:19Z</time>
      </trkpt>
      <trkpt lat="31.051294980570674" lon="-5.184352034702897">
        <ele>922</ele>
        <time>2003-04-14T15:01:21Z</time>
      </trkpt>
      <trkpt lat="31.05064001865685" lon="-5.184184983372688">
        <ele>922.39999999999998</ele>
        <time>2003-04-14T15:01:26Z</time>
      </trkpt>
      <trkpt lat="31.050035012885928" lon="-5.18393000587821">
        <ele>923.20000000000005</ele>
        <time>2003-04-14T15:01:30Z</time>
      </trkpt>
      <trkpt lat="31.049927975982428" lon="-5.18388700671494">
        <ele>923.20000000000005</ele>
        <time>2003-04-14T15:01:31Z</time>
      </trkpt>
      <trkpt lat="31.049809958785772" lon="-5.18386303447187">
        <ele>923.29999999999995</ele>
        <time>2003-04-14T15:01:33Z</time>
      </trkpt>
      <trkpt lat="31.049569984897971" lon="-5.183766977861524">
        <ele>923.39999999999998</ele>
        <time>2003-04-14T15:01:34Z</time>
      </trkpt>
      <trkpt lat="31.049292962998152" lon="-5.183582995086908">
        <ele>924</ele>
        <time>2003-04-14T15:01:38Z</time>
      </trkpt>
      <trkpt lat="31.04913798160851" lon="-5.183502025902271">
        <ele>924.29999999999995</ele>
        <time>2003-04-14T15:01:39Z</time>
      </trkpt>
      <trkpt lat="31.048996997997165" lon="-5.183388032019138">
        <ele>924.60000000000002</ele>
        <time>2003-04-14T15:01:42Z</time>
      </trkpt>
      <trkpt lat="31.048731962218881" lon="-5.183168007060885">
        <ele>924.79999999999995</ele>
        <time>2003-04-14T15:01:46Z</time>
      </trkpt>
      <trkpt lat="31.048622997477651" lon="-5.183067005127668">
        <ele>924.89999999999998</ele>
        <time>2003-04-14T15:01:48Z</time>
      </trkpt>
      <trkpt lat="31.048447983339429" lon="-5.182865001261234">
        <ele>925</ele>
        <time>2003-04-14T15:01:50Z</time>
      </trkpt>
      <trkpt lat="31.04814799502492" lon="-5.182574987411499">
        <ele>925.70000000000005</ele>
        <time>2003-04-14T15:01:54Z</time>
      </trkpt>
      <trkpt lat="31.04769503697753" lon="-5.182239962741733">
        <ele>926.39999999999998</ele>
        <time>2003-04-14T15:02:00Z</time>
      </trkpt>
      <trkpt lat="31.047550030052662" lon="-5.182156981900334">
        <ele>926.39999999999998</ele>
        <time>2003-04-14T15:02:01Z</time>
      </trkpt>
      <trkpt lat="31.047236965969205" lon="-5.18199797719717">
        <ele>928.60000000000002</ele>
        <time>2003-04-14T15:02:05Z</time>
      </trkpt>
      <trkpt lat="31.046845028176904" lon="-5.18182497471571">
        <ele>927.89999999999998</ele>
        <time>2003-04-14T15:02:09Z</time>
      </trkpt>
      <trkpt lat="31.046002982184291" lon="-5.181532027199864">
        <ele>929.60000000000002</ele>
        <time>2003-04-14T15:02:17Z</time>
      </trkpt>
      <trkpt lat="31.045741969719529" lon="-5.181464971974492">
        <ele>932.10000000000002</ele>
        <time>2003-04-14T15:02:20Z</time>
      </trkpt>
      <trkpt lat="31.045624958351254" lon="-5.181436976417899">
        <ele>932.89999999999998</ele>
        <time>2003-04-14T15:02:23Z</time>
      </trkpt>
      <trkpt lat="31.045308038592339" lon="-5.181362964212894">
        <ele>932</ele>
        <time>2003-04-14T15:02:27Z</time>
      </trkpt>
      <trkpt lat="31.044751983135939" lon="-5.181260034441948">
        <ele>933.60000000000002</ele>
        <time>2003-04-14T15:02:32Z</time>
      </trkpt>
      <trkpt lat="31.044216966256499" lon="-5.181002961471677">
        <ele>932.5</ele>
        <time>2003-04-14T15:02:39Z</time>
      </trkpt>
      <trkpt lat="31.044038012623787" lon="-5.180910006165505">
        <ele>931.70000000000005</ele>
        <time>2003-04-14T15:02:42Z</time>
      </trkpt>
      <trkpt lat="31.043250029906631" lon="-5.180570036172867">
        <ele>934.60000000000002</ele>
        <time>2003-04-14T15:02:54Z</time>
      </trkpt>
      <trkpt lat="31.043126983568072" lon="-5.180476997047663">
        <ele>933.20000000000005</ele>
        <time>2003-04-14T15:02:56Z</time>
      </trkpt>
      <trkpt lat="31.043021958321333" lon="-5.180422011762857">
        <ele>934.10000000000002</ele>
        <time>2003-04-14T15:03:03Z</time>
      </trkpt>
      <trkpt lat="31.042869994416833" lon="-5.180441960692406">
        <ele>934.60000000000002</ele>
        <time>2003-04-14T15:03:13Z</time>
      </trkpt>
      <trkpt lat="31.042769998311996" lon="-5.1803869754076">
        <ele>934.79999999999995</ele>
        <time>2003-04-14T15:03:14Z</time>
      </trkpt>
      <trkpt lat="31.04269296862185" lon="-5.180289996787906">
        <ele>936.10000000000002</ele>
        <time>2003-04-14T15:03:17Z</time>
      </trkpt>
      <trkpt lat="31.042321985587478" lon="-5.179792027920485">
        <ele>932.20000000000005</ele>
        <time>2003-04-14T15:03:26Z</time>
      </trkpt>
      <trkpt lat="31.042202962562442" lon="-5.17963302321732">
        <ele>932</ele>
        <time>2003-04-14T15:03:27Z</time>
      </trkpt>
      <trkpt lat="31.042012022808194" lon="-5.179415009915829">
        <ele>932</ele>
        <time>2003-04-14T15:03:30Z</time>
      </trkpt>
      <trkpt lat="31.041931975632906" lon="-5.179357007145882">
        <ele>932.20000000000005</ele>
        <time>2003-04-14T15:03:32Z</time>
      </trkpt>
      <trkpt lat="31.041770037263632" lon="-5.179275032132864">
        <ele>932.29999999999995</ele>
        <time>2003-04-14T15:03:34Z</time>
      </trkpt>
      <trkpt lat="31.041742041707039" lon="-5.179109992459416">
        <ele>932</ele>
        <time>2003-04-14T15:03:52Z</time>
      </trkpt>
      <trkpt lat="31.041647996753454" lon="-5.179028017446399">
        <ele>931.5</ele>
        <time>2003-04-14T15:03:54Z</time>
      </trkpt>
      <trkpt lat="31.04151195846498" lon="-5.179034974426031">
        <ele>931.79999999999995</ele>
        <time>2003-04-14T15:03:57Z</time>
      </trkpt>
      <trkpt lat="31.041278019547462" lon="-5.179046960547566">
        <ele>931.70000000000005</ele>
        <time>2003-04-14T15:04:00Z</time>
      </trkpt>
      <trkpt lat="31.041082972660661" lon="-5.179024999961257">
        <ele>932.10000000000002</ele>
        <time>2003-04-14T15:04:01Z</time>
      </trkpt>
      <trkpt lat="31.040722969919443" lon="-5.178951993584633">
        <ele>932.29999999999995</ele>
        <time>2003-04-14T15:04:05Z</time>
      </trkpt>
      <trkpt lat="31.040572011843324" lon="-5.178867001086474">
        <ele>932.70000000000005</ele>
        <time>2003-04-14T15:04:08Z</time>
      </trkpt>
      <trkpt lat="31.040297001600266" lon="-5.178719982504845">
        <ele>933.10000000000002</ele>
        <time>2003-04-14T15:04:11Z</time>
      </trkpt>
      <trkpt lat="31.04009298607707" lon="-5.178642030805349">
        <ele>933.20000000000005</ele>
        <time>2003-04-14T15:04:12Z</time>
      </trkpt>
      <trkpt lat="31.039976980537176" lon="-5.178637001663446">
        <ele>933.39999999999998</ele>
        <time>2003-04-14T15:04:13Z</time>
      </trkpt>
      <trkpt lat="31.039861980825663" lon="-5.178652005270124">
        <ele>933.39999999999998</ele>
        <time>2003-04-14T15:04:15Z</time>
      </trkpt>
      <trkpt lat="31.039753016084433" lon="-5.178689975291491">
        <ele>933.39999999999998</ele>
        <time>2003-04-14T15:04:16Z</time>
      </trkpt>
      <trkpt lat="31.03966198861599" lon="-5.178758036345244">
        <ele>933.39999999999998</ele>
        <time>2003-04-14T15:04:16Z</time>
      </trkpt>
      <trkpt lat="31.039582025259733" lon="-5.178845040500164">
        <ele>933.60000000000002</ele>
        <time>2003-04-14T15:04:17Z</time>
      </trkpt>
      <trkpt lat="31.039416985586286" lon="-5.178998010233045">
        <ele>933.79999999999995</ele>
        <time>2003-04-14T15:04:20Z</time>
      </trkpt>
      <trkpt lat="31.039310032501817" lon="-5.179028017446399">
        <ele>933.79999999999995</ele>
        <time>2003-04-14T15:04:20Z</time>
      </trkpt>
      <trkpt lat="31.039199978113174" lon="-5.179034974426031">
        <ele>934</ele>
        <time>2003-04-14T15:04:21Z</time>
      </trkpt>
      <trkpt lat="31.039090007543564" lon="-5.179015025496483">
        <ele>933.79999999999995</ele>
        <time>2003-04-14T15:04:23Z</time>
      </trkpt>
      <trkpt lat="31.038866965100169" lon="-5.179004967212677">
        <ele>933.79999999999995</ele>
        <time>2003-04-14T15:04:24Z</time>
      </trkpt>
      <trkpt lat="31.038600001484156" lon="-5.178991975262761">
        <ele>934.10000000000002</ele>
        <time>2003-04-14T15:04:28Z</time>
      </trkpt>
      <trkpt lat="31.038433033972979" lon="-5.179012008011341">
        <ele>934.29999999999995</ele>
        <time>2003-04-14T15:04:30Z</time>
      </trkpt>
      <trkpt lat="31.03824301622808" lon="-5.179021982476115">
        <ele>934.70000000000005</ele>
        <time>2003-04-14T15:04:31Z</time>
      </trkpt>
      <trkpt lat="31.037912014871836" lon="-5.179022988304496">
        <ele>934.89999999999998</ele>
        <time>2003-04-14T15:04:35Z</time>
      </trkpt>
      <trkpt lat="31.037583025172353" lon="-5.179072022438049">
        <ele>934.79999999999995</ele>
        <time>2003-04-14T15:04:38Z</time>
      </trkpt>
      <trkpt lat="31.037244983017445" lon="-5.179222980514169">
        <ele>935.10000000000002</ele>
        <time>2003-04-14T15:04:40Z</time>
      </trkpt>
      <trkpt lat="31.036671996116638" lon="-5.179451974108815">
        <ele>935.5</ele>
        <time>2003-04-14T15:04:46Z</time>
      </trkpt>
      <trkpt lat="31.036392040550709" lon="-5.179515006020665">
        <ele>935.39999999999998</ele>
        <time>2003-04-14T15:04:48Z</time>
      </trkpt>
      <trkpt lat="31.036262959241867" lon="-5.179494973272085">
        <ele>936.20000000000005</ele>
        <time>2003-04-14T15:04:51Z</time>
      </trkpt>
      <trkpt lat="31.036122981458902" lon="-5.179473012685776">
        <ele>936.29999999999995</ele>
        <time>2003-04-14T15:04:53Z</time>
      </trkpt>
      <trkpt lat="31.036028014495969" lon="-5.179479969665408">
        <ele>936.20000000000005</ele>
        <time>2003-04-14T15:04:54Z</time>
      </trkpt>
      <trkpt lat="31.035813018679619" lon="-5.179512994363904">
        <ele>936.39999999999998</ele>
        <time>2003-04-14T15:04:55Z</time>
      </trkpt>
      <trkpt lat="31.035112040117383" lon="-5.179593041539192">
        <ele>936.70000000000005</ele>
        <time>2003-04-14T15:05:02Z</time>
      </trkpt>
      <trkpt lat="31.034466968849301" lon="-5.179602010175586">
        <ele>937.20000000000005</ele>
        <time>2003-04-14T15:05:07Z</time>
      </trkpt>
      <trkpt lat="31.034309975802898" lon="-5.179594969376922">
        <ele>937.60000000000002</ele>
        <time>2003-04-14T15:05:10Z</time>
      </trkpt>
      <trkpt lat="31.03418298996985" lon="-5.179592035710812">
        <ele>937.89999999999998</ele>
        <time>2003-04-14T15:05:11Z</time>
      </trkpt>
      <trkpt lat="31.033939998596907" lon="-5.179599998518825">
        <ele>938.29999999999995</ele>
        <time>2003-04-14T15:05:14Z</time>
      </trkpt>
      <trkpt lat="31.033637998625636" lon="-5.179618019610643">
        <ele>938.89999999999998</ele>
        <time>2003-04-14T15:05:18Z</time>
      </trkpt>
      <trkpt lat="31.032665027305484" lon="-5.179648026823998">
        <ele>940.5</ele>
        <time>2003-04-14T15:05:26Z</time>
      </trkpt>
      <trkpt lat="31.032290020957589" lon="-5.179708041250706">
        <ele>942</ele>
        <time>2003-04-14T15:05:30Z</time>
      </trkpt>
      <trkpt lat="31.032157000154257" lon="-5.179722039029002">
        <ele>944.10000000000002</ele>
        <time>2003-04-14T15:05:33Z</time>
      </trkpt>
      <trkpt lat="31.032081982120872" lon="-5.179650038480759">
        <ele>944.89999999999998</ele>
        <time>2003-04-14T15:05:36Z</time>
      </trkpt>
      <trkpt lat="31.032021967694163" lon="-5.179447028785944">
        <ele>945.60000000000002</ele>
        <time>2003-04-14T15:05:40Z</time>
      </trkpt>
      <trkpt lat="31.031962037086487" lon="-5.179337980225682">
        <ele>946.79999999999995</ele>
        <time>2003-04-14T15:05:41Z</time>
      </trkpt>
      <trkpt lat="31.031875032931566" lon="-5.179270002990961">
        <ele>946.10000000000002</ele>
        <time>2003-04-14T15:05:44Z</time>
      </trkpt>
      <trkpt lat="31.031672023236752" lon="-5.179102029651403">
        <ele>943.39999999999998</ele>
        <time>2003-04-14T15:05:48Z</time>
      </trkpt>
      <trkpt lat="31.03160304017365" lon="-5.178982000797987">
        <ele>944.39999999999998</ele>
        <time>2003-04-14T15:05:49Z</time>
      </trkpt>
      <trkpt lat="31.031382009387016" lon="-5.1785599719733">
        <ele>945.5</ele>
        <time>2003-04-14T15:05:56Z</time>
      </trkpt>
      <trkpt lat="31.031272960826755" lon="-5.178299965336919">
        <ele>943.89999999999998</ele>
        <time>2003-04-14T15:06:00Z</time>
      </trkpt>
      <trkpt lat="31.031099958345294" lon="-5.177956977859139">
        <ele>943.79999999999995</ele>
        <time>2003-04-14T15:06:04Z</time>
      </trkpt>
      <trkpt lat="31.031044973060489" lon="-5.177823035046458">
        <ele>943.5</ele>
        <time>2003-04-14T15:06:07Z</time>
      </trkpt>
      <trkpt lat="31.030995016917586" lon="-5.177733013406396">
        <ele>943.79999999999995</ele>
        <time>2003-04-14T15:06:12Z</time>
      </trkpt>
      <trkpt lat="31.030929973348975" lon="-5.177605021744967">
        <ele>943.60000000000002</ele>
        <time>2003-04-14T15:06:14Z</time>
      </trkpt>
      <trkpt lat="31.030868031084538" lon="-5.177494967356324">
        <ele>943.29999999999995</ele>
        <time>2003-04-14T15:06:16Z</time>
      </trkpt>
      <trkpt lat="31.030783038586378" lon="-5.177339985966682">
        <ele>942.89999999999998</ele>
        <time>2003-04-14T15:06:20Z</time>
      </trkpt>
      <trkpt lat="31.030672984197736" lon="-5.177166983485222">
        <ele>943.89999999999998</ele>
        <time>2003-04-14T15:06:23Z</time>
      </trkpt>
      <trkpt lat="31.03053200058639" lon="-5.176943019032478">
        <ele>944.10000000000002</ele>
        <time>2003-04-14T15:06:27Z</time>
      </trkpt>
      <trkpt lat="31.030211979523301" lon="-5.17647497355938">
        <ele>944.79999999999995</ele>
        <time>2003-04-14T15:06:32Z</time>
      </trkpt>
      <trkpt lat="31.03016696870327" lon="-5.176268024370074">
        <ele>945.89999999999998</ele>
        <time>2003-04-14T15:06:35Z</time>
      </trkpt>
      <trkpt lat="31.030052974820137" lon="-5.175938028842211">
        <ele>945.79999999999995</ele>
        <time>2003-04-14T15:06:38Z</time>
      </trkpt>
      <trkpt lat="31.030024979263544" lon="-5.175739964470267">
        <ele>945.79999999999995</ele>
        <time>2003-04-14T15:06:39Z</time>
      </trkpt>
      <trkpt lat="31.029977034777403" lon="-5.175527986139059">
        <ele>945.79999999999995</ele>
        <time>2003-04-14T15:06:42Z</time>
      </trkpt>
      <trkpt lat="31.029847031459212" lon="-5.175018031150103">
        <ele>945.89999999999998</ele>
        <time>2003-04-14T15:06:46Z</time>
      </trkpt>
      <trkpt lat="31.029848037287593" lon="-5.17490797676146">
        <ele>945.70000000000005</ele>
        <time>2003-04-14T15:06:47Z</time>
      </trkpt>
      <trkpt lat="31.029873015359044" lon="-5.174532970413566">
        <ele>945.70000000000005</ele>
        <time>2003-04-14T15:06:51Z</time>
      </trkpt>
      <trkpt lat="31.029947027564049" lon="-5.174374971538782">
        <ele>945.79999999999995</ele>
        <time>2003-04-14T15:06:54Z</time>
      </trkpt>
      <trkpt lat="31.029996983706951" lon="-5.17421999014914">
        <ele>944.89999999999998</ele>
        <time>2003-04-14T15:06:55Z</time>
      </trkpt>
      <trkpt lat="31.0299720056355" lon="-5.174076994881034">
        <ele>943.70000000000005</ele>
        <time>2003-04-14T15:06:58Z</time>
      </trkpt>
      <trkpt lat="31.029890030622482" lon="-5.173931987956166">
        <ele>944</ele>
        <time>2003-04-14T15:06:59Z</time>
      </trkpt>
      <trkpt lat="31.029803026467562" lon="-5.173759991303086">
        <ele>943.70000000000005</ele>
        <time>2003-04-14T15:07:02Z</time>
      </trkpt>
      <trkpt lat="31.029702024534345" lon="-5.173466959968209">
        <ele>944.70000000000005</ele>
        <time>2003-04-14T15:07:05Z</time>
      </trkpt>
      <trkpt lat="31.029606973752379" lon="-5.173060018569231">
        <ele>944.60000000000002</ele>
        <time>2003-04-14T15:07:09Z</time>
      </trkpt>
      <trkpt lat="31.029581995680928" lon="-5.172952981665731">
        <ele>944.60000000000002</ele>
        <time>2003-04-14T15:07:10Z</time>
      </trkpt>
      <trkpt lat="31.029572021216154" lon="-5.172847034409642">
        <ele>944.79999999999995</ele>
        <time>2003-04-14T15:07:10Z</time>
      </trkpt>
      <trkpt lat="31.029596999287605" lon="-5.172703033313155">
        <ele>944.39999999999998</ele>
        <time>2003-04-14T15:07:13Z</time>
      </trkpt>
      <trkpt lat="31.029622983187437" lon="-5.172573029994965">
        <ele>945.10000000000002</ele>
        <time>2003-04-14T15:07:14Z</time>
      </trkpt>
      <trkpt lat="31.029670005664229" lon="-5.172267006710172">
        <ele>945</ele>
        <time>2003-04-14T15:07:18Z</time>
      </trkpt>
      <trkpt lat="31.029594987630844" lon="-5.172101967036724">
        <ele>947.29999999999995</ele>
        <time>2003-04-14T15:07:21Z</time>
      </trkpt>
      <trkpt lat="31.029432965442538" lon="-5.172008005902171">
        <ele>947.39999999999998</ele>
        <time>2003-04-14T15:07:22Z</time>
      </trkpt>
      <trkpt lat="31.029267003759742" lon="-5.171910021454096">
        <ele>946.89999999999998</ele>
        <time>2003-04-14T15:07:25Z</time>
      </trkpt>
      <trkpt lat="31.028819996863604" lon="-5.171477012336254">
        <ele>947.70000000000005</ele>
        <time>2003-04-14T15:07:30Z</time>
      </trkpt>
      <trkpt lat="31.028698040172458" lon="-5.171292023733258">
        <ele>948.60000000000002</ele>
        <time>2003-04-14T15:07:33Z</time>
      </trkpt>
      <trkpt lat="31.028557978570461" lon="-5.17112497240305">
        <ele>948.70000000000005</ele>
        <time>2003-04-14T15:07:35Z</time>
      </trkpt>
      <trkpt lat="31.028465023264289" lon="-5.171096976846457">
        <ele>947.70000000000005</ele>
        <time>2003-04-14T15:07:36Z</time>
      </trkpt>
      <trkpt lat="31.028372989967465" lon="-5.17110301181674">
        <ele>949.20000000000005</ele>
        <time>2003-04-14T15:07:37Z</time>
      </trkpt>
      <trkpt lat="31.028229994699359" lon="-5.171182975172997">
        <ele>949.5</ele>
        <time>2003-04-14T15:07:39Z</time>
      </trkpt>
      <trkpt lat="31.028063027188182" lon="-5.171266961842775">
        <ele>948</ele>
        <time>2003-04-14T15:07:40Z</time>
      </trkpt>
      <trkpt lat="31.027897987514734" lon="-5.171278025954962">
        <ele>947.29999999999995</ele>
        <time>2003-04-14T15:07:43Z</time>
      </trkpt>
      <trkpt lat="31.027461960911751" lon="-5.171344997361302">
        <ele>948.39999999999998</ele>
        <time>2003-04-14T15:07:48Z</time>
      </trkpt>
      <trkpt lat="31.027217963710427" lon="-5.171427978202701">
        <ele>948.10000000000002</ele>
        <time>2003-04-14T15:07:51Z</time>
      </trkpt>
      <trkpt lat="31.027010008692741" lon="-5.1714470051229">
        <ele>948.29999999999995</ele>
        <time>2003-04-14T15:07:52Z</time>
      </trkpt>
      <trkpt lat="31.026641959324479" lon="-5.171462008729577">
        <ele>948.70000000000005</ele>
        <time>2003-04-14T15:07:56Z</time>
      </trkpt>
      <trkpt lat="31.026531988754869" lon="-5.171439964324236">
        <ele>948.79999999999995</ele>
        <time>2003-04-14T15:07:56Z</time>
      </trkpt>
      <trkpt lat="31.026337025687099" lon="-5.171420015394688">
        <ele>949.39999999999998</ele>
        <time>2003-04-14T15:07:59Z</time>
      </trkpt>
      <trkpt lat="31.02616997435689" lon="-5.171484975144267">
        <ele>948.79999999999995</ele>
        <time>2003-04-14T15:08:00Z</time>
      </trkpt>
      <trkpt lat="31.026007030159235" lon="-5.171486986801028">
        <ele>949.79999999999995</ele>
        <time>2003-04-14T15:08:03Z</time>
      </trkpt>
      <trkpt lat="31.025794968008995" lon="-5.171450022608042">
        <ele>949.79999999999995</ele>
        <time>2003-04-14T15:08:04Z</time>
      </trkpt>
      <trkpt lat="31.025424990803003" lon="-5.171403000131249">
        <ele>950.5</ele>
        <time>2003-04-14T15:08:07Z</time>
      </trkpt>
      <trkpt lat="31.025296999141574" lon="-5.171416997909546">
        <ele>950.39999999999998</ele>
        <time>2003-04-14T15:08:08Z</time>
      </trkpt>
      <trkpt lat="31.024936996400356" lon="-5.171418003737927">
        <ele>952</ele>
        <time>2003-04-14T15:08:11Z</time>
      </trkpt>
      <trkpt lat="31.024786960333586" lon="-5.171472989022732">
        <ele>952.70000000000005</ele>
        <time>2003-04-14T15:08:14Z</time>
      </trkpt>
      <trkpt lat="31.024650000035763" lon="-5.171599974855781">
        <ele>952.89999999999998</ele>
        <time>2003-04-14T15:08:15Z</time>
      </trkpt>
      <trkpt lat="31.024476997554302" lon="-5.171717992052436">
        <ele>951.89999999999998</ele>
        <time>2003-04-14T15:08:18Z</time>
      </trkpt>
      <trkpt lat="31.02438798174262" lon="-5.171746993437409">
        <ele>951.10000000000002</ele>
        <time>2003-04-14T15:08:19Z</time>
      </trkpt>
      <trkpt lat="31.024297038093209" lon="-5.171757973730564">
        <ele>951.29999999999995</ele>
        <time>2003-04-14T15:08:19Z</time>
      </trkpt>
      <trkpt lat="31.02408698759973" lon="-5.171746993437409">
        <ele>952.29999999999995</ele>
        <time>2003-04-14T15:08:22Z</time>
      </trkpt>
      <trkpt lat="31.023675017058849" lon="-5.171657977625728">
        <ele>952.70000000000005</ele>
        <time>2003-04-14T15:08:26Z</time>
      </trkpt>
      <trkpt lat="31.023462032899261" lon="-5.171612966805697">
        <ele>951.60000000000002</ele>
        <time>2003-04-14T15:08:27Z</time>
      </trkpt>
      <trkpt lat="31.02311703376472" lon="-5.171538032591343">
        <ele>952.60000000000002</ele>
        <time>2003-04-14T15:08:31Z</time>
      </trkpt>
      <trkpt lat="31.022600037977099" lon="-5.171367041766644">
        <ele>952.89999999999998</ele>
        <time>2003-04-14T15:08:34Z</time>
      </trkpt>
      <trkpt lat="31.021862011402845" lon="-5.171003015711904">
        <ele>954.10000000000002</ele>
        <time>2003-04-14T15:08:41Z</time>
      </trkpt>
      <trkpt lat="31.021608039736748" lon="-5.170960016548634">
        <ele>954.60000000000002</ele>
        <time>2003-04-14T15:08:42Z</time>
      </trkpt>
      <trkpt lat="31.021288018673658" lon="-5.170927997678518">
        <ele>954.79999999999995</ele>
        <time>2003-04-14T15:08:46Z</time>
      </trkpt>
      <trkpt lat="31.02120696566999" lon="-5.170875024050474">
        <ele>955</ele>
        <time>2003-04-14T15:08:46Z</time>
      </trkpt>
      <trkpt lat="31.02111803367734" lon="-5.170852979645133">
        <ele>955.5</ele>
        <time>2003-04-14T15:08:47Z</time>
      </trkpt>
      <trkpt lat="31.0210320353508" lon="-5.170791959390044">
        <ele>955.89999999999998</ele>
        <time>2003-04-14T15:08:49Z</time>
      </trkpt>
      <trkpt lat="31.020940002053976" lon="-5.170752983540297">
        <ele>956.20000000000005</ele>
        <time>2003-04-14T15:08:50Z</time>
      </trkpt>
      <trkpt lat="31.020794995129108" lon="-5.17073797993362">
        <ele>956.10000000000002</ele>
        <time>2003-04-14T15:08:51Z</time>
      </trkpt>
      <trkpt lat="31.020644959062338" lon="-5.170726999640465">
        <ele>956.60000000000002</ele>
        <time>2003-04-14T15:08:54Z</time>
      </trkpt>
      <trkpt lat="31.020557032898068" lon="-5.170692969113588">
        <ele>957.10000000000002</ele>
        <time>2003-04-14T15:08:54Z</time>
      </trkpt>
      <trkpt lat="31.020468017086387" lon="-5.170642007142305">
        <ele>957.60000000000002</ele>
        <time>2003-04-14T15:08:56Z</time>
      </trkpt>
      <trkpt lat="31.020270036533475" lon="-5.170506974682212">
        <ele>957.70000000000005</ele>
        <time>2003-04-14T15:08:58Z</time>
      </trkpt>
      <trkpt lat="31.02015201933682" lon="-5.17045802436769">
        <ele>957.79999999999995</ele>
        <time>2003-04-14T15:08:58Z</time>
      </trkpt>
      <trkpt lat="31.019901987165213" lon="-5.170402033254504">
        <ele>957.89999999999998</ele>
        <time>2003-04-14T15:09:01Z</time>
      </trkpt>
      <trkpt lat="31.019318019971251" lon="-5.17022299580276">
        <ele>959.29999999999995</ele>
        <time>2003-04-14T15:09:05Z</time>
      </trkpt>
      <trkpt lat="31.018789960071445" lon="-5.169989978894591">
        <ele>960.89999999999998</ele>
        <time>2003-04-14T15:09:09Z</time>
      </trkpt>
      <trkpt lat="31.018029972910881" lon="-5.169416991993785">
        <ele>961.89999999999998</ele>
        <time>2003-04-14T15:09:14Z</time>
      </trkpt>
      <trkpt lat="31.017716992646456" lon="-5.169175006449223">
        <ele>961.70000000000005</ele>
        <time>2003-04-14T15:09:17Z</time>
      </trkpt>
      <trkpt lat="31.017578020691872" lon="-5.169033017009497">
        <ele>960.89999999999998</ele>
        <time>2003-04-14T15:09:20Z</time>
      </trkpt>
      <trkpt lat="31.017486993223429" lon="-5.168960010632873">
        <ele>962</ele>
        <time>2003-04-14T15:09:21Z</time>
      </trkpt>
      <trkpt lat="31.017309967428446" lon="-5.168884992599487">
        <ele>961.5</ele>
        <time>2003-04-14T15:09:23Z</time>
      </trkpt>
      <trkpt lat="31.017154986038804" lon="-5.168822966516018">
        <ele>961.60000000000002</ele>
        <time>2003-04-14T15:09:25Z</time>
      </trkpt>
      <trkpt lat="31.017057001590729" lon="-5.168672008439899">
        <ele>963.20000000000005</ele>
        <time>2003-04-14T15:09:27Z</time>
      </trkpt>
      <trkpt lat="31.016992041841149" lon="-5.168596990406513">
        <ele>963.70000000000005</ele>
        <time>2003-04-14T15:09:28Z</time>
      </trkpt>
      <trkpt lat="31.016819961369038" lon="-5.168455000966787">
        <ele>964</ele>
        <time>2003-04-14T15:09:29Z</time>
      </trkpt>
      <trkpt lat="31.016512010246515" lon="-5.168215027078986">
        <ele>964.89999999999998</ele>
        <time>2003-04-14T15:09:32Z</time>
      </trkpt>
      <trkpt lat="31.016297014430165" lon="-5.168100027367473">
        <ele>965</ele>
        <time>2003-04-14T15:09:35Z</time>
      </trkpt>
      <trkpt lat="31.016207998618484" lon="-5.168038001284003">
        <ele>965.10000000000002</ele>
        <time>2003-04-14T15:09:36Z</time>
      </trkpt>
      <trkpt lat="31.016044970601797" lon="-5.167883019894362">
        <ele>966</ele>
        <time>2003-04-14T15:09:37Z</time>
      </trkpt>
      <trkpt lat="31.015942962840199" lon="-5.167801966890693">
        <ele>965.89999999999998</ele>
        <time>2003-04-14T15:09:39Z</time>
      </trkpt>
      <trkpt lat="31.015329994261265" lon="-5.167340040206909">
        <ele>967.29999999999995</ele>
        <time>2003-04-14T15:09:44Z</time>
      </trkpt>
      <trkpt lat="31.015266962349415" lon="-5.167238032445312">
        <ele>966.5</ele>
        <time>2003-04-14T15:09:45Z</time>
      </trkpt>
      <trkpt lat="31.01512698456645" lon="-5.16706301830709">
        <ele>965.60000000000002</ele>
        <time>2003-04-14T15:09:48Z</time>
      </trkpt>
      <trkpt lat="31.014926992356777" lon="-5.166927985846996">
        <ele>966.20000000000005</ele>
        <time>2003-04-14T15:09:50Z</time>
      </trkpt>
      <trkpt lat="31.014658017084002" lon="-5.166775016114116">
        <ele>966.60000000000002</ele>
        <time>2003-04-14T15:09:52Z</time>
      </trkpt>
      <trkpt lat="31.014590039849281" lon="-5.166643001139164">
        <ele>966.89999999999998</ele>
        <time>2003-04-14T15:09:55Z</time>
      </trkpt>
      <trkpt lat="31.01456698961556" lon="-5.166445020586252">
        <ele>967</ele>
        <time>2003-04-14T15:09:56Z</time>
      </trkpt>
      <trkpt lat="31.014507981017232" lon="-5.166222983971238">
        <ele>967.39999999999998</ele>
        <time>2003-04-14T15:09:59Z</time>
      </trkpt>
      <trkpt lat="31.014427011832595" lon="-5.166055010631681">
        <ele>967.29999999999995</ele>
        <time>2003-04-14T15:10:00Z</time>
      </trkpt>
      <trkpt lat="31.014255015179515" lon="-5.165977980941534">
        <ele>966.89999999999998</ele>
        <time>2003-04-14T15:10:03Z</time>
      </trkpt>
      <trkpt lat="31.01415703073144" lon="-5.165972029790282">
        <ele>966.70000000000005</ele>
        <time>2003-04-14T15:10:03Z</time>
      </trkpt>
      <trkpt lat="31.013810019940138" lon="-5.165959959849715">
        <ele>967.5</ele>
        <time>2003-04-14T15:10:07Z</time>
      </trkpt>
      <trkpt lat="31.013712035492063" lon="-5.165916960686445">
        <ele>966.79999999999995</ele>
        <time>2003-04-14T15:10:10Z</time>
      </trkpt>
      <trkpt lat="31.013571973890066" lon="-5.165800033137202">
        <ele>967.89999999999998</ele>
        <time>2003-04-14T15:10:12Z</time>
      </trkpt>
      <trkpt lat="31.013284977525473" lon="-5.165643040090799">
        <ele>967.70000000000005</ele>
        <time>2003-04-14T15:10:18Z</time>
      </trkpt>
      <trkpt lat="31.013114992529154" lon="-5.165583025664091">
        <ele>967.89999999999998</ele>
        <time>2003-04-14T15:10:19Z</time>
      </trkpt>
      <trkpt lat="31.012630015611649" lon="-5.165371969342232">
        <ele>968.79999999999995</ele>
        <time>2003-04-14T15:10:25Z</time>
      </trkpt>
      <trkpt lat="31.012424994260073" lon="-5.165293011814356">
        <ele>969.39999999999998</ele>
        <time>2003-04-14T15:10:26Z</time>
      </trkpt>
      <trkpt lat="31.012198012322187" lon="-5.165267027914524">
        <ele>969.29999999999995</ele>
        <time>2003-04-14T15:10:29Z</time>
      </trkpt>
      <trkpt lat="31.011972036212683" lon="-5.165208019316196">
        <ele>970.29999999999995</ele>
        <time>2003-04-14T15:10:30Z</time>
      </trkpt>
      <trkpt lat="31.011631982401013" lon="-5.165142975747585">
        <ele>969.79999999999995</ele>
        <time>2003-04-14T15:10:34Z</time>
      </trkpt>
      <trkpt lat="31.011423021554947" lon="-5.165096959099174">
        <ele>970.10000000000002</ele>
        <time>2003-04-14T15:10:35Z</time>
      </trkpt>
      <trkpt lat="31.011332999914885" lon="-5.165014984086156">
        <ele>970.39999999999998</ele>
        <time>2003-04-14T15:10:37Z</time>
      </trkpt>
      <trkpt lat="31.011116998270154" lon="-5.164763024076819">
        <ele>970.70000000000005</ele>
        <time>2003-04-14T15:10:39Z</time>
      </trkpt>
      <trkpt lat="31.010988000780344" lon="-5.16467803157866">
        <ele>970.70000000000005</ele>
        <time>2003-04-14T15:10:42Z</time>
      </trkpt>
      <trkpt lat="31.01089202798903" lon="-5.16455196775496">
        <ele>971.20000000000005</ele>
        <time>2003-04-14T15:10:44Z</time>
      </trkpt>
      <trkpt lat="31.010792031884193" lon="-5.164396986365318">
        <ele>972</ele>
        <time>2003-04-14T15:10:46Z</time>
      </trkpt>
      <trkpt lat="31.010718019679189" lon="-5.164326997473836">
        <ele>972.29999999999995</ele>
        <time>2003-04-14T15:10:48Z</time>
      </trkpt>
      <trkpt lat="31.010624980553985" lon="-5.164277963340282">
        <ele>972.29999999999995</ele>
        <time>2003-04-14T15:10:48Z</time>
      </trkpt>
      <trkpt lat="31.010521966964006" lon="-5.164243010804057">
        <ele>972.70000000000005</ele>
        <time>2003-04-14T15:10:49Z</time>
      </trkpt>
      <trkpt lat="31.0102270077914" lon="-5.16411803662777">
        <ele>973.10000000000002</ele>
        <time>2003-04-14T15:10:52Z</time>
      </trkpt>
      <trkpt lat="31.01007797755301" lon="-5.164000019431114">
        <ele>972.89999999999998</ele>
        <time>2003-04-14T15:10:53Z</time>
      </trkpt>
      <trkpt lat="31.009974963963032" lon="-5.163987027481198">
        <ele>973.60000000000002</ele>
        <time>2003-04-14T15:10:54Z</time>
      </trkpt>
      <trkpt lat="31.009617978706956" lon="-5.163934975862503">
        <ele>974.39999999999998</ele>
        <time>2003-04-14T15:10:57Z</time>
      </trkpt>
      <trkpt lat="31.009353026747704" lon="-5.163842020556331">
        <ele>974.60000000000002</ele>
        <time>2003-04-14T15:11:00Z</time>
      </trkpt>
      <trkpt lat="31.008992018178105" lon="-5.163613026961684">
        <ele>974.70000000000005</ele>
        <time>2003-04-14T15:11:02Z</time>
      </trkpt>
      <trkpt lat="31.008578035980463" lon="-5.163295017555356">
        <ele>975.29999999999995</ele>
        <time>2003-04-14T15:11:06Z</time>
      </trkpt>
      <trkpt lat="31.008115019649267" lon="-5.162863014265895">
        <ele>976</ele>
        <time>2003-04-14T15:11:12Z</time>
      </trkpt>
      <trkpt lat="31.007813019677997" lon="-5.162629997357726">
        <ele>977</ele>
        <time>2003-04-14T15:11:15Z</time>
      </trkpt>
      <trkpt lat="31.007168032228947" lon="-5.162277035415173">
        <ele>977.79999999999995</ele>
        <time>2003-04-14T15:11:20Z</time>
      </trkpt>
      <trkpt lat="31.006239987909794" lon="-5.161851989105344">
        <ele>978.89999999999998</ele>
        <time>2003-04-14T15:11:25Z</time>
      </trkpt>
      <trkpt lat="31.005382016301155" lon="-5.161464996635914">
        <ele>979.70000000000005</ele>
        <time>2003-04-14T15:11:32Z</time>
      </trkpt>
      <trkpt lat="31.0051120352" lon="-5.161376986652613">
        <ele>979.39999999999998</ele>
        <time>2003-04-14T15:11:33Z</time>
      </trkpt>
      <trkpt lat="31.004844987764955" lon="-5.161342034116387">
        <ele>977.70000000000005</ele>
        <time>2003-04-14T15:11:36Z</time>
      </trkpt>
      <trkpt lat="31.004607025533915" lon="-5.161289982497692">
        <ele>976.60000000000002</ele>
        <time>2003-04-14T15:11:38Z</time>
      </trkpt>
      <trkpt lat="31.003809990361333" lon="-5.161061994731426">
        <ele>974.79999999999995</ele>
        <time>2003-04-14T15:11:44Z</time>
      </trkpt>
      <trkpt lat="31.003621984273195" lon="-5.160931991413236">
        <ele>974.60000000000002</ele>
        <time>2003-04-14T15:11:47Z</time>
      </trkpt>
      <trkpt lat="31.003530034795403" lon="-5.160884968936443">
        <ele>974.70000000000005</ele>
        <time>2003-04-14T15:11:47Z</time>
      </trkpt>
      <trkpt lat="31.003183024004102" lon="-5.160702997818589">
        <ele>973.70000000000005</ele>
        <time>2003-04-14T15:11:51Z</time>
      </trkpt>
      <trkpt lat="31.003080010414124" lon="-5.16070500947535">
        <ele>974.5</ele>
        <time>2003-04-14T15:11:54Z</time>
      </trkpt>
      <trkpt lat="31.002971967682242" lon="-5.160580035299063">
        <ele>973.70000000000005</ele>
        <time>2003-04-14T15:11:55Z</time>
      </trkpt>
      <trkpt lat="31.002784967422485" lon="-5.160424970090389">
        <ele>972.60000000000002</ele>
        <time>2003-04-14T15:11:59Z</time>
      </trkpt>
      <trkpt lat="31.002669967710972" lon="-5.160417007282376">
        <ele>971.60000000000002</ele>
        <time>2003-04-14T15:12:02Z</time>
      </trkpt>
      <trkpt lat="31.002538036555052" lon="-5.16033997759223">
        <ele>972.29999999999995</ele>
        <time>2003-04-14T15:12:03Z</time>
      </trkpt>
      <trkpt lat="31.002248022705317" lon="-5.160182984545827">
        <ele>970.79999999999995</ele>
        <time>2003-04-14T15:12:07Z</time>
      </trkpt>
      <trkpt lat="31.002094969153404" lon="-5.160192037001252">
        <ele>970.60000000000002</ele>
        <time>2003-04-14T15:12:09Z</time>
      </trkpt>
      <trkpt lat="31.001732032746077" lon="-5.160192037001252">
        <ele>969.89999999999998</ele>
        <time>2003-04-14T15:12:14Z</time>
      </trkpt>
      <trkpt lat="31.001404970884323" lon="-5.160136967897415">
        <ele>969.20000000000005</ele>
        <time>2003-04-14T15:12:17Z</time>
      </trkpt>
      <trkpt lat="31.00101001560688" lon="-5.160033032298088">
        <ele>968.60000000000002</ele>
        <time>2003-04-14T15:12:21Z</time>
      </trkpt>
      <trkpt lat="31.00083701312542" lon="-5.159918032586575">
        <ele>968.10000000000002</ele>
        <time>2003-04-14T15:12:22Z</time>
      </trkpt>
      <trkpt lat="31.000554962083697" lon="-5.159749975427985">
        <ele>968.39999999999998</ele>
        <time>2003-04-14T15:12:25Z</time>
      </trkpt>
      <trkpt lat="31.000209962949157" lon="-5.159679986536503">
        <ele>967.10000000000002</ele>
        <time>2003-04-14T15:12:27Z</time>
      </trkpt>
      <trkpt lat="31.0000229626894" lon="-5.159652996808291">
        <ele>966.70000000000005</ele>
        <time>2003-04-14T15:12:30Z</time>
      </trkpt>
      <trkpt lat="30.999362971633673" lon="-5.159564986824989">
        <ele>964.79999999999995</ele>
        <time>2003-04-14T15:12:38Z</time>
      </trkpt>
      <trkpt lat="30.999288037419319" lon="-5.15950002707541">
        <ele>965.20000000000005</ele>
        <time>2003-04-14T15:12:40Z</time>
      </trkpt>
      <trkpt lat="30.999191980808973" lon="-5.15945996157825">
        <ele>965</ele>
        <time>2003-04-14T15:12:41Z</time>
      </trkpt>
      <trkpt lat="30.998814962804317" lon="-5.15930799767375">
        <ele>964.20000000000005</ele>
        <time>2003-04-14T15:12:45Z</time>
      </trkpt>
      <trkpt lat="30.998614970594645" lon="-5.15930799767375">
        <ele>964</ele>
        <time>2003-04-14T15:12:46Z</time>
      </trkpt>
      <trkpt lat="30.998416990041733" lon="-5.159347979351878">
        <ele>963.39999999999998</ele>
        <time>2003-04-14T15:12:49Z</time>
      </trkpt>
      <trkpt lat="30.99823803640902" lon="-5.159346973523498">
        <ele>963.29999999999995</ele>
        <time>2003-04-14T15:12:50Z</time>
      </trkpt>
      <trkpt lat="30.998084982857108" lon="-5.159257035702467">
        <ele>963.10000000000002</ele>
        <time>2003-04-14T15:12:53Z</time>
      </trkpt>
      <trkpt lat="30.997922038659453" lon="-5.159228034317493">
        <ele>962.60000000000002</ele>
        <time>2003-04-14T15:12:54Z</time>
      </trkpt>
      <trkpt lat="30.997727997601032" lon="-5.159229962155223">
        <ele>962.10000000000002</ele>
        <time>2003-04-14T15:12:57Z</time>
      </trkpt>
      <trkpt lat="30.997437983751297" lon="-5.159237002953887">
        <ele>962.29999999999995</ele>
        <time>2003-04-14T15:13:00Z</time>
      </trkpt>
      <trkpt lat="30.996674979105592" lon="-5.159134995192289">
        <ele>960.60000000000002</ele>
        <time>2003-04-14T15:13:08Z</time>
      </trkpt>
      <trkpt lat="30.996178016066551" lon="-5.159237002953887">
        <ele>959.39999999999998</ele>
        <time>2003-04-14T15:13:12Z</time>
      </trkpt>
      <trkpt lat="30.996084976941347" lon="-5.159246977418661">
        <ele>959.70000000000005</ele>
        <time>2003-04-14T15:13:13Z</time>
      </trkpt>
      <trkpt lat="30.995995039120317" lon="-5.159240020439029">
        <ele>959.60000000000002</ele>
        <time>2003-04-14T15:13:15Z</time>
      </trkpt>
      <trkpt lat="30.995818013325334" lon="-5.159249994903803">
        <ele>959.29999999999995</ele>
        <time>2003-04-14T15:13:16Z</time>
      </trkpt>
      <trkpt lat="30.995651967823505" lon="-5.159325012937188">
        <ele>958.60000000000002</ele>
        <time>2003-04-14T15:13:19Z</time>
      </trkpt>
      <trkpt lat="30.995348040014505" lon="-5.159482005983591">
        <ele>958.10000000000002</ele>
        <time>2003-04-14T15:13:21Z</time>
      </trkpt>
      <trkpt lat="30.99458696320653" lon="-5.159830022603273">
        <ele>956.70000000000005</ele>
        <time>2003-04-14T15:13:28Z</time>
      </trkpt>
      <trkpt lat="30.994301978498697" lon="-5.159913003444672">
        <ele>955.39999999999998</ele>
        <time>2003-04-14T15:13:31Z</time>
      </trkpt>
      <trkpt lat="30.993693033233285" lon="-5.160069996491075">
        <ele>954.20000000000005</ele>
        <time>2003-04-14T15:13:38Z</time>
      </trkpt>
      <trkpt lat="30.993277039378881" lon="-5.160221960395575">
        <ele>953.79999999999995</ele>
        <time>2003-04-14T15:13:42Z</time>
      </trkpt>
      <trkpt lat="30.992864985018969" lon="-5.160333020612598">
        <ele>953.10000000000002</ele>
        <time>2003-04-14T15:13:46Z</time>
      </trkpt>
      <trkpt lat="30.992772029712796" lon="-5.160350035876036">
        <ele>953.20000000000005</ele>
        <time>2003-04-14T15:13:47Z</time>
      </trkpt>
      <trkpt lat="30.992613025009632" lon="-5.160450031980872">
        <ele>954.39999999999998</ele>
        <time>2003-04-14T15:13:48Z</time>
      </trkpt>
      <trkpt lat="30.99252300336957" lon="-5.160493031144142">
        <ele>956.20000000000005</ele>
        <time>2003-04-14T15:13:50Z</time>
      </trkpt>
      <trkpt lat="30.99220298230648" lon="-5.160654969513416">
        <ele>955.5</ele>
        <time>2003-04-14T15:13:53Z</time>
      </trkpt>
      <trkpt lat="30.991812972351909" lon="-5.160862002521753">
        <ele>954.20000000000005</ele>
        <time>2003-04-14T15:13:55Z</time>
      </trkpt>
      <trkpt lat="30.991107970476151" lon="-5.161186968907714">
        <ele>952.29999999999995</ele>
        <time>2003-04-14T15:14:01Z</time>
      </trkpt>
      <trkpt lat="30.990116978064179" lon="-5.161487041041255">
        <ele>949.79999999999995</ele>
        <time>2003-04-14T15:14:07Z</time>
      </trkpt>
      <trkpt lat="30.989920003339648" lon="-5.161558035761118">
        <ele>949.20000000000005</ele>
        <time>2003-04-14T15:14:10Z</time>
      </trkpt>
      <trkpt lat="30.989808021113276" lon="-5.16164998523891">
        <ele>948.89999999999998</ele>
        <time>2003-04-14T15:14:11Z</time>
      </trkpt>
      <trkpt lat="30.989607023075223" lon="-5.161813013255596">
        <ele>946.60000000000002</ele>
        <time>2003-04-14T15:14:14Z</time>
      </trkpt>
      <trkpt lat="30.989508032798767" lon="-5.161834973841906">
        <ele>947.5</ele>
        <time>2003-04-14T15:14:15Z</time>
      </trkpt>
      <trkpt lat="30.989281972870231" lon="-5.161840002983809">
        <ele>946.70000000000005</ele>
        <time>2003-04-14T15:14:18Z</time>
      </trkpt>
      <trkpt lat="30.989164961501956" lon="-5.16180002130568">
        <ele>947.5</ele>
        <time>2003-04-14T15:14:18Z</time>
      </trkpt>
      <trkpt lat="30.988443028181791" lon="-5.161487041041255">
        <ele>947.10000000000002</ele>
        <time>2003-04-14T15:14:25Z</time>
      </trkpt>
      <trkpt lat="30.988202970474958" lon="-5.16141302883625">
        <ele>944.39999999999998</ele>
        <time>2003-04-14T15:14:29Z</time>
      </trkpt>
      <trkpt lat="30.988002978265285" lon="-5.161331975832582">
        <ele>944.79999999999995</ele>
        <time>2003-04-14T15:14:32Z</time>
      </trkpt>
      <trkpt lat="30.98786199465394" lon="-5.161271961405873">
        <ele>944.5</ele>
        <time>2003-04-14T15:14:33Z</time>
      </trkpt>
      <trkpt lat="30.987524958327413" lon="-5.161170037463307">
        <ele>946.29999999999995</ele>
        <time>2003-04-14T15:14:37Z</time>
      </trkpt>
      <trkpt lat="30.986797995865345" lon="-5.16094297170639">
        <ele>944.10000000000002</ele>
        <time>2003-04-14T15:14:45Z</time>
      </trkpt>
      <trkpt lat="30.985917979851365" lon="-5.160695035010576">
        <ele>944.5</ele>
        <time>2003-04-14T15:14:53Z</time>
      </trkpt>
      <trkpt lat="30.985825024545193" lon="-5.160697968676686">
        <ele>943.29999999999995</ele>
        <time>2003-04-14T15:14:55Z</time>
      </trkpt>
      <trkpt lat="30.985586978495121" lon="-5.160678019747138">
        <ele>942.70000000000005</ele>
        <time>2003-04-14T15:14:57Z</time>
      </trkpt>
      <trkpt lat="30.98543300293386" lon="-5.160608030855656">
        <ele>942.70000000000005</ele>
        <time>2003-04-14T15:15:00Z</time>
      </trkpt>
      <trkpt lat="30.984877031296492" lon="-5.160424970090389">
        <ele>943.60000000000002</ele>
        <time>2003-04-14T15:15:07Z</time>
      </trkpt>
      <trkpt lat="30.983932977542281" lon="-5.160118024796248">
        <ele>942.79999999999995</ele>
        <time>2003-04-14T15:15:16Z</time>
      </trkpt>
      <trkpt lat="30.983616979792714" lon="-5.160024985671043">
        <ele>941.89999999999998</ele>
        <time>2003-04-14T15:15:19Z</time>
      </trkpt>
      <trkpt lat="30.983522012829781" lon="-5.160022974014282">
        <ele>941.89999999999998</ele>
        <time>2003-04-14T15:15:20Z</time>
      </trkpt>
      <trkpt lat="30.982850035652518" lon="-5.160002019256353">
        <ele>941.5</ele>
        <time>2003-04-14T15:15:27Z</time>
      </trkpt>
      <trkpt lat="30.982227008789778" lon="-5.159918032586575">
        <ele>940.29999999999995</ele>
        <time>2003-04-14T15:15:31Z</time>
      </trkpt>
      <trkpt lat="30.981742031872272" lon="-5.159862963482738">
        <ele>939.5</ele>
        <time>2003-04-14T15:15:35Z</time>
      </trkpt>
      <trkpt lat="30.981412958353758" lon="-5.159766990691423">
        <ele>940.29999999999995</ele>
        <time>2003-04-14T15:15:39Z</time>
      </trkpt>
      <trkpt lat="30.981312962248921" lon="-5.159692978486419">
        <ele>940.20000000000005</ele>
        <time>2003-04-14T15:15:39Z</time>
      </trkpt>
      <trkpt lat="30.981220006942749" lon="-5.159600023180246">
        <ele>940</ele>
        <time>2003-04-14T15:15:41Z</time>
      </trkpt>
      <trkpt lat="30.981142977252603" lon="-5.159497009590268">
        <ele>940.10000000000002</ele>
        <time>2003-04-14T15:15:42Z</time>
      </trkpt>
      <trkpt lat="30.980941979214549" lon="-5.159249994903803">
        <ele>939.10000000000002</ele>
        <time>2003-04-14T15:15:45Z</time>
      </trkpt>
      <trkpt lat="30.980287017300725" lon="-5.158523032441735">
        <ele>939.5</ele>
        <time>2003-04-14T15:15:54Z</time>
      </trkpt>
      <trkpt lat="30.979586960747838" lon="-5.157794980332255">
        <ele>937.60000000000002</ele>
        <time>2003-04-14T15:16:01Z</time>
      </trkpt>
      <trkpt lat="30.978925041854382" lon="-5.157168013975024">
        <ele>936.29999999999995</ele>
        <time>2003-04-14T15:16:08Z</time>
      </trkpt>
      <trkpt lat="30.978117026388645" lon="-5.156533000990748">
        <ele>934.70000000000005</ele>
        <time>2003-04-14T15:16:17Z</time>
      </trkpt>
      <trkpt lat="30.977937988936901" lon="-5.156380031257868">
        <ele>934.70000000000005</ele>
        <time>2003-04-14T15:16:20Z</time>
      </trkpt>
      <trkpt lat="30.977670019492507" lon="-5.156137039884925">
        <ele>935.60000000000002</ele>
        <time>2003-04-14T15:16:24Z</time>
      </trkpt>
      <trkpt lat="30.977122010663152" lon="-5.155581990256906">
        <ele>935.39999999999998</ele>
        <time>2003-04-14T15:16:30Z</time>
      </trkpt>
      <trkpt lat="30.976635022088885" lon="-5.15494798310101">
        <ele>934.10000000000002</ele>
        <time>2003-04-14T15:16:37Z</time>
      </trkpt>
      <trkpt lat="30.976000009104609" lon="-5.154122030362487">
        <ele>932.89999999999998</ele>
        <time>2003-04-14T15:16:48Z</time>
      </trkpt>
      <trkpt lat="30.975353009998798" lon="-5.153285013511777">
        <ele>931.60000000000002</ele>
        <time>2003-04-14T15:16:56Z</time>
      </trkpt>
      <trkpt lat="30.974772982299328" lon="-5.152427041903138">
        <ele>930.39999999999998</ele>
        <time>2003-04-14T15:17:03Z</time>
      </trkpt>
      <trkpt lat="30.974516998976469" lon="-5.151932006701827">
        <ele>930.70000000000005</ele>
        <time>2003-04-14T15:17:07Z</time>
      </trkpt>
      <trkpt lat="30.974305020645261" lon="-5.151572003960609">
        <ele>928.79999999999995</ele>
        <time>2003-04-14T15:17:10Z</time>
      </trkpt>
      <trkpt lat="30.973905036225915" lon="-5.151107981801033">
        <ele>928.39999999999998</ele>
        <time>2003-04-14T15:17:15Z</time>
      </trkpt>
      <trkpt lat="30.973055027425289" lon="-5.150517979636788">
        <ele>927</ele>
        <time>2003-04-14T15:17:23Z</time>
      </trkpt>
      <trkpt lat="30.972659988328815" lon="-5.150378001853824">
        <ele>926.60000000000002</ele>
        <time>2003-04-14T15:17:27Z</time>
      </trkpt>
      <trkpt lat="30.971722975373268" lon="-5.150126963853836">
        <ele>925.10000000000002</ele>
        <time>2003-04-14T15:17:34Z</time>
      </trkpt>
      <trkpt lat="30.970842959359288" lon="-5.149803003296256">
        <ele>924.79999999999995</ele>
        <time>2003-04-14T15:17:41Z</time>
      </trkpt>
      <trkpt lat="30.970535008236766" lon="-5.149702001363039">
        <ele>923.5</ele>
        <time>2003-04-14T15:17:43Z</time>
      </trkpt>
      <trkpt lat="30.970275001600385" lon="-5.149607034400106">
        <ele>923.70000000000005</ele>
        <time>2003-04-14T15:17:46Z</time>
      </trkpt>
      <trkpt lat="30.970117002725601" lon="-5.149497985839844">
        <ele>923.70000000000005</ele>
        <time>2003-04-14T15:17:49Z</time>
      </trkpt>
      <trkpt lat="30.970037039369345" lon="-5.149437971413136">
        <ele>923.60000000000002</ele>
        <time>2003-04-14T15:17:50Z</time>
      </trkpt>
      <trkpt lat="30.969978030771017" lon="-5.149341998621821">
        <ele>923.39999999999998</ele>
        <time>2003-04-14T15:17:50Z</time>
      </trkpt>
      <trkpt lat="30.96972799859941" lon="-5.14895198866725">
        <ele>923.60000000000002</ele>
        <time>2003-04-14T15:17:54Z</time>
      </trkpt>
      <trkpt lat="30.969649963080883" lon="-5.148892980068922">
        <ele>923.20000000000005</ele>
        <time>2003-04-14T15:17:56Z</time>
      </trkpt>
      <trkpt lat="30.969407977536321" lon="-5.148655017837882">
        <ele>923.39999999999998</ele>
        <time>2003-04-14T15:17:58Z</time>
      </trkpt>
      <trkpt lat="30.969257019460201" lon="-5.148529959842563">
        <ele>923.10000000000002</ele>
        <time>2003-04-14T15:18:01Z</time>
      </trkpt>
      <trkpt lat="30.969132967293262" lon="-5.148444967344403">
        <ele>923.20000000000005</ele>
        <time>2003-04-14T15:18:02Z</time>
      </trkpt>
      <trkpt lat="30.969113018363714" lon="-5.148297026753426">
        <ele>923.39999999999998</ele>
        <time>2003-04-14T15:18:05Z</time>
      </trkpt>
      <trkpt lat="30.969046968966722" lon="-5.148153025656939">
        <ele>923.79999999999995</ele>
        <time>2003-04-14T15:18:06Z</time>
      </trkpt>
      <trkpt lat="30.968915037810802" lon="-5.148101979866624">
        <ele>923.89999999999998</ele>
        <time>2003-04-14T15:18:09Z</time>
      </trkpt>
      <trkpt lat="30.968806995078921" lon="-5.148031990975142">
        <ele>923.89999999999998</ele>
        <time>2003-04-14T15:18:10Z</time>
      </trkpt>
      <trkpt lat="30.968656959012151" lon="-5.147929983213544">
        <ele>924.79999999999995</ele>
        <time>2003-04-14T15:18:13Z</time>
      </trkpt>
      <trkpt lat="30.968516981229186" lon="-5.147862005978823">
        <ele>923.60000000000002</ele>
        <time>2003-04-14T15:18:16Z</time>
      </trkpt>
      <trkpt lat="30.968425031751394" lon="-5.147799979895353">
        <ele>924.10000000000002</ele>
        <time>2003-04-14T15:18:17Z</time>
      </trkpt>
      <trkpt lat="30.968197965994477" lon="-5.147654972970486">
        <ele>923.70000000000005</ele>
        <time>2003-04-14T15:18:21Z</time>
      </trkpt>
      <trkpt lat="30.967826982960105" lon="-5.147394966334105">
        <ele>925</ele>
        <time>2003-04-14T15:18:27Z</time>
      </trkpt>
      <trkpt lat="30.967477960512042" lon="-5.147109981626272">
        <ele>923.70000000000005</ele>
        <time>2003-04-14T15:18:31Z</time>
      </trkpt>
      <trkpt lat="30.967015027999878" lon="-5.146777974441648">
        <ele>923.20000000000005</ele>
        <time>2003-04-14T15:18:36Z</time>
      </trkpt>
      <trkpt lat="30.966917965561152" lon="-5.14676003716886">
        <ele>923</ele>
        <time>2003-04-14T15:18:36Z</time>
      </trkpt>
      <trkpt lat="30.966731971129775" lon="-5.146697005257011">
        <ele>922.70000000000005</ele>
        <time>2003-04-14T15:18:39Z</time>
      </trkpt>
      <trkpt lat="30.966642033308744" lon="-5.146621987223625">
        <ele>922.60000000000002</ele>
        <time>2003-04-14T15:18:40Z</time>
      </trkpt>
      <trkpt lat="30.966444974765182" lon="-5.146502964198589">
        <ele>922.39999999999998</ele>
        <time>2003-04-14T15:18:41Z</time>
      </trkpt>
      <trkpt lat="30.966240037232637" lon="-5.146452002227306">
        <ele>922.29999999999995</ele>
        <time>2003-04-14T15:18:44Z</time>
      </trkpt>
      <trkpt lat="30.966126965358853" lon="-5.146457031369209">
        <ele>922.29999999999995</ele>
        <time>2003-04-14T15:18:44Z</time>
      </trkpt>
      <trkpt lat="30.965611981227994" lon="-5.146498018875718">
        <ele>922.5</ele>
        <time>2003-04-14T15:18:48Z</time>
      </trkpt>
      <trkpt lat="30.964991971850395" lon="-5.146513022482395">
        <ele>921.60000000000002</ele>
        <time>2003-04-14T15:18:52Z</time>
      </trkpt>
      <trkpt lat="30.963957980275154" lon="-5.146506987512112">
        <ele>920</ele>
        <time>2003-04-14T15:18:59Z</time>
      </trkpt>
      <trkpt lat="30.962934968993068" lon="-5.146543029695749">
        <ele>918.29999999999995</ele>
        <time>2003-04-14T15:19:04Z</time>
      </trkpt>
      <trkpt lat="30.961912041530013" lon="-5.146527020260692">
        <ele>917.70000000000005</ele>
        <time>2003-04-14T15:19:11Z</time>
      </trkpt>
      <trkpt lat="30.96087503246963" lon="-5.146452002227306">
        <ele>915.79999999999995</ele>
        <time>2003-04-14T15:19:17Z</time>
      </trkpt>
      <trkpt lat="30.959859983995557" lon="-5.146413026377559">
        <ele>916</ele>
        <time>2003-04-14T15:19:22Z</time>
      </trkpt>
      <trkpt lat="30.9589200373739" lon="-5.146372960880399">
        <ele>915.10000000000002</ele>
        <time>2003-04-14T15:19:29Z</time>
      </trkpt>
      <trkpt lat="30.957891996949911" lon="-5.146198030561209">
        <ele>913.20000000000005</ele>
        <time>2003-04-14T15:19:35Z</time>
      </trkpt>
      <trkpt lat="30.957066966220737" lon="-5.14600801281631">
        <ele>913</ele>
        <time>2003-04-14T15:19:42Z</time>
      </trkpt>
      <trkpt lat="30.956534966826439" lon="-5.146032990887761">
        <ele>912.60000000000002</ele>
        <time>2003-04-14T15:19:46Z</time>
      </trkpt>
      <trkpt lat="30.956400018185377" lon="-5.146027039736509">
        <ele>912.60000000000002</ele>
        <time>2003-04-14T15:19:46Z</time>
      </trkpt>
      <trkpt lat="30.955793000757694" lon="-5.145984962582588">
        <ele>912.5</ele>
        <time>2003-04-14T15:19:52Z</time>
      </trkpt>
      <trkpt lat="30.955685041844845" lon="-5.146016981452704">
        <ele>912</ele>
        <time>2003-04-14T15:19:53Z</time>
      </trkpt>
      <trkpt lat="30.95556702464819" lon="-5.146031985059381">
        <ele>912</ele>
        <time>2003-04-14T15:19:53Z</time>
      </trkpt>
      <trkpt lat="30.955440038815141" lon="-5.14600801281631">
        <ele>911.70000000000005</ele>
        <time>2003-04-14T15:19:54Z</time>
      </trkpt>
      <trkpt lat="30.955169973894954" lon="-5.146007006987929">
        <ele>911.10000000000002</ele>
        <time>2003-04-14T15:19:57Z</time>
      </trkpt>
      <trkpt lat="30.954892029985785" lon="-5.146061992272735">
        <ele>910.79999999999995</ele>
        <time>2003-04-14T15:19:58Z</time>
      </trkpt>
      <trkpt lat="30.954485004767776" lon="-5.146214962005615">
        <ele>910.29999999999995</ele>
        <time>2003-04-14T15:20:01Z</time>
      </trkpt>
      <trkpt lat="30.954109998419881" lon="-5.146342031657696">
        <ele>909.79999999999995</ele>
        <time>2003-04-14T15:20:05Z</time>
      </trkpt>
      <trkpt lat="30.95400002785027" lon="-5.146397016942501">
        <ele>909.79999999999995</ele>
        <time>2003-04-14T15:20:05Z</time>
      </trkpt>
      <trkpt lat="30.953710014000535" lon="-5.146536994725466">
        <ele>910.10000000000002</ele>
        <time>2003-04-14T15:20:09Z</time>
      </trkpt>
      <trkpt lat="30.9535270370543" lon="-5.14663003385067">
        <ele>909.5</ele>
        <time>2003-04-14T15:20:11Z</time>
      </trkpt>
      <trkpt lat="30.953363003209233" lon="-5.146700022742152">
        <ele>910.10000000000002</ele>
        <time>2003-04-14T15:20:13Z</time>
      </trkpt>
      <trkpt lat="30.953265018761158" lon="-5.146692981943488">
        <ele>910.39999999999998</ele>
        <time>2003-04-14T15:20:13Z</time>
      </trkpt>
      <trkpt lat="30.953059997409582" lon="-5.146702034398913">
        <ele>910.29999999999995</ele>
        <time>2003-04-14T15:20:16Z</time>
      </trkpt>
      <trkpt lat="30.952950026839972" lon="-5.146732041612268">
        <ele>910.20000000000005</ele>
        <time>2003-04-14T15:20:16Z</time>
      </trkpt>
      <trkpt lat="30.952349966391921" lon="-5.146904960274696">
        <ele>909.29999999999995</ele>
        <time>2003-04-14T15:20:21Z</time>
      </trkpt>
      <trkpt lat="30.95172300003469" lon="-5.14706295914948">
        <ele>908.79999999999995</ele>
        <time>2003-04-14T15:20:27Z</time>
      </trkpt>
      <trkpt lat="30.951280016452074" lon="-5.147069999948144">
        <ele>908.10000000000002</ele>
        <time>2003-04-14T15:20:31Z</time>
      </trkpt>
      <trkpt lat="30.950896963477135" lon="-5.147066982463002">
        <ele>906.70000000000005</ele>
        <time>2003-04-14T15:20:35Z</time>
      </trkpt>
      <trkpt lat="30.950675010681152" lon="-5.147006968036294">
        <ele>906.89999999999998</ele>
        <time>2003-04-14T15:20:38Z</time>
      </trkpt>
      <trkpt lat="30.950556993484497" lon="-5.147072011604905">
        <ele>906.10000000000002</ele>
        <time>2003-04-14T15:20:40Z</time>
      </trkpt>
      <trkpt lat="30.950472000986338" lon="-5.147124985232949">
        <ele>906.60000000000002</ele>
        <time>2003-04-14T15:20:43Z</time>
      </trkpt>
      <trkpt lat="30.950275026261806" lon="-5.147269992157817">
        <ele>906.39999999999998</ele>
        <time>2003-04-14T15:20:47Z</time>
      </trkpt>
      <trkpt lat="30.949955005198717" lon="-5.147607028484345">
        <ele>906.39999999999998</ele>
        <time>2003-04-14T15:20:54Z</time>
      </trkpt>
      <trkpt lat="30.94972500577569" lon="-5.1478579826653">
        <ele>905.20000000000005</ele>
        <time>2003-04-14T15:20:58Z</time>
      </trkpt>
      <trkpt lat="30.949516966938972" lon="-5.14802997931838">
        <ele>906</ele>
        <time>2003-04-14T15:21:00Z</time>
      </trkpt>
      <trkpt lat="30.949325021356344" lon="-5.148087982088327">
        <ele>905.39999999999998</ele>
        <time>2003-04-14T15:21:03Z</time>
      </trkpt>
      <trkpt lat="30.948882037773728" lon="-5.14820197597146">
        <ele>904.39999999999998</ele>
        <time>2003-04-14T15:21:07Z</time>
      </trkpt>
      <trkpt lat="30.948593029752374" lon="-5.148271964862943">
        <ele>904</ele>
        <time>2003-04-14T15:21:10Z</time>
      </trkpt>
      <trkpt lat="30.948277032002807" lon="-5.14841697178781">
        <ele>903.10000000000002</ele>
        <time>2003-04-14T15:21:14Z</time>
      </trkpt>
      <trkpt lat="30.948073016479611" lon="-5.148549992591143">
        <ele>902.60000000000002</ele>
        <time>2003-04-14T15:21:18Z</time>
      </trkpt>
      <trkpt lat="30.947981989011168" lon="-5.148644959554076">
        <ele>902.39999999999998</ele>
        <time>2003-04-14T15:21:19Z</time>
      </trkpt>
      <trkpt lat="30.947864977642894" lon="-5.148719977587462">
        <ele>902.39999999999998</ele>
        <time>2003-04-14T15:21:22Z</time>
      </trkpt>
      <trkpt lat="30.947715025395155" lon="-5.148785021156073">
        <ele>902.20000000000005</ele>
        <time>2003-04-14T15:21:25Z</time>
      </trkpt>
      <trkpt lat="30.947495000436902" lon="-5.148873031139374">
        <ele>901.70000000000005</ele>
        <time>2003-04-14T15:21:29Z</time>
      </trkpt>
      <trkpt lat="30.947410007938743" lon="-5.148912006989121">
        <ele>901.60000000000002</ele>
        <time>2003-04-14T15:21:32Z</time>
      </trkpt>
      <trkpt lat="30.947594996541739" lon="-5.148872025310993">
        <ele>902</ele>
        <time>2003-04-14T15:21:48Z</time>
      </trkpt>
      <trkpt lat="30.947473039850593" lon="-5.148891974240542">
        <ele>921.60000000000002</ele>
        <time>2003-04-14T15:33:51Z</time>
      </trkpt>
      <trkpt lat="30.94738301821053" lon="-5.148934973403812">
        <ele>917.70000000000005</ele>
        <time>2003-04-14T15:33:54Z</time>
      </trkpt>
      <trkpt lat="30.947208004072309" lon="-5.149019965901971">
        <ele>917</ele>
        <time>2003-04-14T15:33:57Z</time>
      </trkpt>
      <trkpt lat="30.94686702825129" lon="-5.149137983098626">
        <ele>916.20000000000005</ele>
        <time>2003-04-14T15:34:02Z</time>
      </trkpt>
      <trkpt lat="30.946648009121418" lon="-5.149232028052211">
        <ele>916.10000000000002</ele>
        <time>2003-04-14T15:34:05Z</time>
      </trkpt>
      <trkpt lat="30.946418009698391" lon="-5.149330012500286">
        <ele>916</ele>
        <time>2003-04-14T15:34:08Z</time>
      </trkpt>
      <trkpt lat="30.946066975593567" lon="-5.149548025801778">
        <ele>916.10000000000002</ele>
        <time>2003-04-14T15:34:13Z</time>
      </trkpt>
      <trkpt lat="30.94594300724566" lon="-5.149609968066216">
        <ele>916</ele>
        <time>2003-04-14T15:34:14Z</time>
      </trkpt>
      <trkpt lat="30.94532199203968" lon="-5.149954967200756">
        <ele>915.79999999999995</ele>
        <time>2003-04-14T15:34:24Z</time>
      </trkpt>
      <trkpt lat="30.945180002599955" lon="-5.150044988840818">
        <ele>915.89999999999998</ele>
        <time>2003-04-14T15:34:25Z</time>
      </trkpt>
      <trkpt lat="30.945016974583268" lon="-5.15011003240943">
        <ele>915.79999999999995</ele>
        <time>2003-04-14T15:34:28Z</time>
      </trkpt>
      <trkpt lat="30.944842966273427" lon="-5.150150014087558">
        <ele>915.39999999999998</ele>
        <time>2003-04-14T15:34:29Z</time>
      </trkpt>
      <trkpt lat="30.944752022624016" lon="-5.150184966623783">
        <ele>915.5</ele>
        <time>2003-04-14T15:34:30Z</time>
      </trkpt>
      <trkpt lat="30.944357989355922" lon="-5.150367021560669">
        <ele>915.20000000000005</ele>
        <time>2003-04-14T15:34:35Z</time>
      </trkpt>
      <trkpt lat="30.944169983267784" lon="-5.1504569593817">
        <ele>914.79999999999995</ele>
        <time>2003-04-14T15:34:37Z</time>
      </trkpt>
      <trkpt lat="30.943907964974642" lon="-5.150589980185032">
        <ele>914.5</ele>
        <time>2003-04-14T15:34:40Z</time>
      </trkpt>
      <trkpt lat="30.94304203055799" lon="-5.151092978194356">
        <ele>913.5</ele>
        <time>2003-04-14T15:34:52Z</time>
      </trkpt>
      <trkpt lat="30.94267699867487" lon="-5.151222981512547">
        <ele>912.5</ele>
        <time>2003-04-14T15:34:56Z</time>
      </trkpt>
      <trkpt lat="30.942478012293577" lon="-5.151279978454113">
        <ele>912</ele>
        <time>2003-04-14T15:35:00Z</time>
      </trkpt>
      <trkpt lat="30.94231003895402" lon="-5.151262963190675">
        <ele>912.70000000000005</ele>
        <time>2003-04-14T15:35:02Z</time>
      </trkpt>
      <trkpt lat="30.942132007330656" lon="-5.151288025081158">
        <ele>912.89999999999998</ele>
        <time>2003-04-14T15:35:04Z</time>
      </trkpt>
      <trkpt lat="30.94160201959312" lon="-5.151430014520884">
        <ele>911.70000000000005</ele>
        <time>2003-04-14T15:35:10Z</time>
      </trkpt>
      <trkpt lat="30.941521972417831" lon="-5.151479970663786">
        <ele>911.60000000000002</ele>
        <time>2003-04-14T15:35:11Z</time>
      </trkpt>
      <trkpt lat="30.941447038203478" lon="-5.151548031717539">
        <ele>911.60000000000002</ele>
        <time>2003-04-14T15:35:11Z</time>
      </trkpt>
      <trkpt lat="30.94126196578145" lon="-5.151675017550588">
        <ele>911.39999999999998</ele>
        <time>2003-04-14T15:35:14Z</time>
      </trkpt>
      <trkpt lat="30.940414974465966" lon="-5.15221799723804">
        <ele>911.10000000000002</ele>
        <time>2003-04-14T15:35:23Z</time>
      </trkpt>
      <trkpt lat="30.940329981967807" lon="-5.152287986129522">
        <ele>911.10000000000002</ele>
        <time>2003-04-14T15:35:23Z</time>
      </trkpt>
      <trkpt lat="30.94014298170805" lon="-5.152399968355894">
        <ele>910.89999999999998</ele>
        <time>2003-04-14T15:35:26Z</time>
      </trkpt>
      <trkpt lat="30.940029993653297" lon="-5.152438022196293">
        <ele>911</ele>
        <time>2003-04-14T15:35:27Z</time>
      </trkpt>
      <trkpt lat="30.939537975937128" lon="-5.152614964172244">
        <ele>911</ele>
        <time>2003-04-14T15:35:31Z</time>
      </trkpt>
      <trkpt lat="30.939421970397234" lon="-5.152697023004293">
        <ele>910</ele>
        <time>2003-04-14T15:35:34Z</time>
      </trkpt>
      <trkpt lat="30.939255002886057" lon="-5.152802970260382">
        <ele>909</ele>
        <time>2003-04-14T15:35:35Z</time>
      </trkpt>
      <trkpt lat="30.939058028161526" lon="-5.152936996892095">
        <ele>907.39999999999998</ele>
        <time>2003-04-14T15:35:38Z</time>
      </trkpt>
      <trkpt lat="30.93883297406137" lon="-5.153155010193586">
        <ele>905.70000000000005</ele>
        <time>2003-04-14T15:35:42Z</time>
      </trkpt>
      <trkpt lat="30.938674975186586" lon="-5.153277972713113">
        <ele>905.10000000000002</ele>
        <time>2003-04-14T15:35:45Z</time>
      </trkpt>
      <trkpt lat="30.938372975215316" lon="-5.153428008779883">
        <ele>904.10000000000002</ele>
        <time>2003-04-14T15:35:47Z</time>
      </trkpt>
      <trkpt lat="30.938157979398966" lon="-5.153475031256676">
        <ele>903.79999999999995</ele>
        <time>2003-04-14T15:35:50Z</time>
      </trkpt>
      <trkpt lat="30.937881963327527" lon="-5.153524987399578">
        <ele>902.79999999999995</ele>
        <time>2003-04-14T15:35:53Z</time>
      </trkpt>
      <trkpt lat="30.937747014686465" lon="-5.153560023754835">
        <ele>902.39999999999998</ele>
        <time>2003-04-14T15:35:54Z</time>
      </trkpt>
      <trkpt lat="30.937614999711514" lon="-5.15363504178822">
        <ele>902.60000000000002</ele>
        <time>2003-04-14T15:35:57Z</time>
      </trkpt>
      <trkpt lat="30.937463035807014" lon="-5.153632024303079">
        <ele>902.39999999999998</ele>
        <time>2003-04-14T15:35:58Z</time>
      </trkpt>
      <trkpt lat="30.937205040827394" lon="-5.153639987111092">
        <ele>901.20000000000005</ele>
        <time>2003-04-14T15:36:01Z</time>
      </trkpt>
      <trkpt lat="30.936582013964653" lon="-5.153750041499734">
        <ele>900.39999999999998</ele>
        <time>2003-04-14T15:36:09Z</time>
      </trkpt>
      <trkpt lat="30.936217987909913" lon="-5.15385003760457">
        <ele>899.70000000000005</ele>
        <time>2003-04-14T15:36:12Z</time>
      </trkpt>
      <trkpt lat="30.936001986265182" lon="-5.153905022889376">
        <ele>899.5</ele>
        <time>2003-04-14T15:36:13Z</time>
      </trkpt>
      <trkpt lat="30.935236969962716" lon="-5.154287992045283">
        <ele>899</ele>
        <time>2003-04-14T15:36:21Z</time>
      </trkpt>
      <trkpt lat="30.934709999710321" lon="-5.154755031690002">
        <ele>898.89999999999998</ele>
        <time>2003-04-14T15:36:28Z</time>
      </trkpt>
      <trkpt lat="30.934252012521029" lon="-5.155104976147413">
        <ele>897.89999999999998</ele>
        <time>2003-04-14T15:36:35Z</time>
      </trkpt>
      <trkpt lat="30.934122009202838" lon="-5.15520203858614">
        <ele>897.60000000000002</ele>
        <time>2003-04-14T15:36:36Z</time>
      </trkpt>
      <trkpt lat="30.933969961479306" lon="-5.155279990285635">
        <ele>897.5</ele>
        <time>2003-04-14T15:36:39Z</time>
      </trkpt>
      <trkpt lat="30.93386703170836" lon="-5.155409993603826">
        <ele>897.5</ele>
        <time>2003-04-14T15:36:40Z</time>
      </trkpt>
      <trkpt lat="30.933768041431904" lon="-5.155490040779114">
        <ele>897.60000000000002</ele>
        <time>2003-04-14T15:36:43Z</time>
      </trkpt>
      <trkpt lat="30.933584980666637" lon="-5.155560029670596">
        <ele>897.89999999999998</ele>
        <time>2003-04-14T15:36:45Z</time>
      </trkpt>
      <trkpt lat="30.933327991515398" lon="-5.155702019110322">
        <ele>897.39999999999998</ele>
        <time>2003-04-14T15:36:50Z</time>
      </trkpt>
      <trkpt lat="30.933184996247292" lon="-5.155777037143707">
        <ele>898.10000000000002</ele>
        <time>2003-04-14T15:36:52Z</time>
      </trkpt>
      <trkpt lat="30.932942004874349" lon="-5.155917014926672">
        <ele>897.5</ele>
        <time>2003-04-14T15:36:55Z</time>
      </trkpt>
      <trkpt lat="30.93225703574717" lon="-5.156357986852527">
        <ele>895.70000000000005</ele>
        <time>2003-04-14T15:37:03Z</time>
      </trkpt>
      <trkpt lat="30.932044973596931" lon="-5.156552027910948">
        <ele>895.5</ele>
        <time>2003-04-14T15:37:06Z</time>
      </trkpt>
      <trkpt lat="30.93193500302732" lon="-5.156599972397089">
        <ele>895.39999999999998</ele>
        <time>2003-04-14T15:37:07Z</time>
      </trkpt>
      <trkpt lat="30.931780021637678" lon="-5.15668697655201">
        <ele>897</ele>
        <time>2003-04-14T15:37:11Z</time>
      </trkpt>
      <trkpt lat="30.931648006662726" lon="-5.156776998192072">
        <ele>896.79999999999995</ele>
        <time>2003-04-14T15:37:12Z</time>
      </trkpt>
      <trkpt lat="30.931533006951213" lon="-5.156891997903585">
        <ele>897.29999999999995</ele>
        <time>2003-04-14T15:37:15Z</time>
      </trkpt>
      <trkpt lat="30.93146201223135" lon="-5.15707204118371">
        <ele>897.89999999999998</ele>
        <time>2003-04-14T15:37:17Z</time>
      </trkpt>
      <trkpt lat="30.931372996419668" lon="-5.157236997038126">
        <ele>898.20000000000005</ele>
        <time>2003-04-14T15:37:19Z</time>
      </trkpt>
      <trkpt lat="30.931245004758239" lon="-5.15735300257802">
        <ele>895.79999999999995</ele>
        <time>2003-04-14T15:37:21Z</time>
      </trkpt>
      <trkpt lat="30.931150037795305" lon="-5.157446963712573">
        <ele>895</ele>
        <time>2003-04-14T15:37:22Z</time>
      </trkpt>
      <trkpt lat="30.931006958708167" lon="-5.157570010051131">
        <ele>896</ele>
        <time>2003-04-14T15:37:26Z</time>
      </trkpt>
      <trkpt lat="30.930867986753583" lon="-5.157690038904548">
        <ele>896.29999999999995</ele>
        <time>2003-04-14T15:37:27Z</time>
      </trkpt>
      <trkpt lat="30.930742006748915" lon="-5.157764973118901">
        <ele>896.20000000000005</ele>
        <time>2003-04-14T15:37:30Z</time>
      </trkpt>
      <trkpt lat="30.930615020915866" lon="-5.157800009474158">
        <ele>895.89999999999998</ele>
        <time>2003-04-14T15:37:31Z</time>
      </trkpt>
      <trkpt lat="30.930434977635741" lon="-5.157813001424074">
        <ele>896.10000000000002</ele>
        <time>2003-04-14T15:37:34Z</time>
      </trkpt>
      <trkpt lat="30.930289970710874" lon="-5.157767990604043">
        <ele>895.5</ele>
        <time>2003-04-14T15:37:35Z</time>
      </trkpt>
      <trkpt lat="30.930167008191347" lon="-5.157642010599375">
        <ele>896.89999999999998</ele>
        <time>2003-04-14T15:37:38Z</time>
      </trkpt>
      <trkpt lat="30.930004986003041" lon="-5.157513013109565">
        <ele>896.70000000000005</ele>
        <time>2003-04-14T15:37:39Z</time>
      </trkpt>
      <trkpt lat="30.929535012692213" lon="-5.157244959846139">
        <ele>895.89999999999998</ele>
        <time>2003-04-14T15:37:45Z</time>
      </trkpt>
      <trkpt lat="30.929075013846159" lon="-5.157067012041807">
        <ele>894.89999999999998</ele>
        <time>2003-04-14T15:37:49Z</time>
      </trkpt>
      <trkpt lat="30.928979963064194" lon="-5.157065000385046">
        <ele>894.89999999999998</ele>
        <time>2003-04-14T15:37:50Z</time>
      </trkpt>
      <trkpt lat="30.928705036640167" lon="-5.157104982063174">
        <ele>894.79999999999995</ele>
        <time>2003-04-14T15:37:53Z</time>
      </trkpt>
      <trkpt lat="30.928609985858202" lon="-5.157152004539967">
        <ele>894.70000000000005</ele>
        <time>2003-04-14T15:37:54Z</time>
      </trkpt>
      <trkpt lat="30.92813297174871" lon="-5.15743799507618">
        <ele>893.79999999999995</ele>
        <time>2003-04-14T15:38:00Z</time>
      </trkpt>
      <trkpt lat="30.927855027839541" lon="-5.157728008925915">
        <ele>893.60000000000002</ele>
        <time>2003-04-14T15:38:02Z</time>
      </trkpt>
      <trkpt lat="30.927072996273637" lon="-5.158467963337898">
        <ele>889.79999999999995</ele>
        <time>2003-04-14T15:38:11Z</time>
      </trkpt>
      <trkpt lat="30.926419962197542" lon="-5.158917987719178">
        <ele>888.29999999999995</ele>
        <time>2003-04-14T15:38:16Z</time>
      </trkpt>
      <trkpt lat="30.925486972555518" lon="-5.159334987401962">
        <ele>886.60000000000002</ele>
        <time>2003-04-14T15:38:24Z</time>
      </trkpt>
      <trkpt lat="30.924669988453388" lon="-5.159655008465052">
        <ele>883.39999999999998</ele>
        <time>2003-04-14T15:38:32Z</time>
      </trkpt>
      <trkpt lat="30.924479970708489" lon="-5.159676969051361">
        <ele>882.79999999999995</ele>
        <time>2003-04-14T15:38:33Z</time>
      </trkpt>
      <trkpt lat="30.923797013238072" lon="-5.159755004569888">
        <ele>881</ele>
        <time>2003-04-14T15:38:40Z</time>
      </trkpt>
      <trkpt lat="30.923710009083152" lon="-5.159803032875061">
        <ele>880.5</ele>
        <time>2003-04-14T15:38:42Z</time>
      </trkpt>
      <trkpt lat="30.923638008534908" lon="-5.159882996231318">
        <ele>879.79999999999995</ele>
        <time>2003-04-14T15:38:43Z</time>
      </trkpt>
      <trkpt lat="30.923580005764961" lon="-5.159981986507773">
        <ele>879.70000000000005</ele>
        <time>2003-04-14T15:38:43Z</time>
      </trkpt>
      <trkpt lat="30.923432987183332" lon="-5.160166975110769">
        <ele>878</ele>
        <time>2003-04-14T15:38:46Z</time>
      </trkpt>
      <trkpt lat="30.923214973881841" lon="-5.160463023930788">
        <ele>878</ele>
        <time>2003-04-14T15:38:48Z</time>
      </trkpt>
      <trkpt lat="30.923020010814071" lon="-5.160754965618253">
        <ele>877.89999999999998</ele>
        <time>2003-04-14T15:38:51Z</time>
      </trkpt>
      <trkpt lat="30.922942981123924" lon="-5.1608129683882">
        <ele>878</ele>
        <time>2003-04-14T15:38:52Z</time>
      </trkpt>
      <trkpt lat="30.922769978642464" lon="-5.160838030278683">
        <ele>878</ele>
        <time>2003-04-14T15:38:55Z</time>
      </trkpt>
      <trkpt lat="30.922680040821433" lon="-5.160814980044961">
        <ele>877.79999999999995</ele>
        <time>2003-04-14T15:38:55Z</time>
      </trkpt>
      <trkpt lat="30.922584990039468" lon="-5.160808023065329">
        <ele>876.79999999999995</ele>
        <time>2003-04-14T15:38:56Z</time>
      </trkpt>
      <trkpt lat="30.921981995925307" lon="-5.160714983940125">
        <ele>877.5</ele>
        <time>2003-04-14T15:39:03Z</time>
      </trkpt>
      <trkpt lat="30.9214280359447" lon="-5.160481967031956">
        <ele>877.39999999999998</ele>
        <time>2003-04-14T15:39:07Z</time>
      </trkpt>
      <trkpt lat="30.921207005158067" lon="-5.160330003127456">
        <ele>877</ele>
        <time>2003-04-14T15:39:10Z</time>
      </trkpt>
      <trkpt lat="30.920445006340742" lon="-5.159870004281402">
        <ele>877.5</ele>
        <time>2003-04-14T15:39:15Z</time>
      </trkpt>
      <trkpt lat="30.919567001983523" lon="-5.159400030970573">
        <ele>875.29999999999995</ele>
        <time>2003-04-14T15:39:22Z</time>
      </trkpt>
      <trkpt lat="30.918895024806261" lon="-5.159042961895466">
        <ele>873.89999999999998</ele>
        <time>2003-04-14T15:39:26Z</time>
      </trkpt>
      <trkpt lat="30.918769966810942" lon="-5.158982025459409">
        <ele>872.29999999999995</ele>
        <time>2003-04-14T15:39:29Z</time>
      </trkpt>
      <trkpt lat="30.918508032336831" lon="-5.158841963857412">
        <ele>873.20000000000005</ele>
        <time>2003-04-14T15:39:32Z</time>
      </trkpt>
      <trkpt lat="30.918293036520481" lon="-5.158723024651408">
        <ele>873.10000000000002</ele>
        <time>2003-04-14T15:39:34Z</time>
      </trkpt>
      <trkpt lat="30.917907971888781" lon="-5.158518003299832">
        <ele>873</ele>
        <time>2003-04-14T15:39:37Z</time>
      </trkpt>
      <trkpt lat="30.917470017448068" lon="-5.158269982784987">
        <ele>872</ele>
        <time>2003-04-14T15:39:41Z</time>
      </trkpt>
      <trkpt lat="30.917202970013022" lon="-5.158137967810035">
        <ele>872.39999999999998</ele>
        <time>2003-04-14T15:39:44Z</time>
      </trkpt>
      <trkpt lat="30.916665019467473" lon="-5.157821970060468">
        <ele>873.89999999999998</ele>
        <time>2003-04-14T15:39:49Z</time>
      </trkpt>
      <trkpt lat="30.916184987872839" lon="-5.157562969252467">
        <ele>873.5</ele>
        <time>2003-04-14T15:39:53Z</time>
      </trkpt>
      <trkpt lat="30.915360040962696" lon="-5.157107999548316">
        <ele>872.5</ele>
        <time>2003-04-14T15:40:00Z</time>
      </trkpt>
      <trkpt lat="30.914901969954371" lon="-5.156853022053838">
        <ele>871.79999999999995</ele>
        <time>2003-04-14T15:40:04Z</time>
      </trkpt>
      <trkpt lat="30.914572980254889" lon="-5.156741961836815">
        <ele>871.39999999999998</ele>
        <time>2003-04-14T15:40:07Z</time>
      </trkpt>
      <trkpt lat="30.914437025785446" lon="-5.156747996807098">
        <ele>871.5</ele>
        <time>2003-04-14T15:40:08Z</time>
      </trkpt>
      <trkpt lat="30.914137959480286" lon="-5.156727964058518">
        <ele>871.5</ele>
        <time>2003-04-14T15:40:09Z</time>
      </trkpt>
      <trkpt lat="30.913127018138766" lon="-5.156650012359023">
        <ele>870.60000000000002</ele>
        <time>2003-04-14T15:40:16Z</time>
      </trkpt>
      <trkpt lat="30.91264296323061" lon="-5.156623022630811">
        <ele>869.5</ele>
        <time>2003-04-14T15:40:20Z</time>
      </trkpt>
      <trkpt lat="30.912487981840968" lon="-5.156550016254187">
        <ele>869.70000000000005</ele>
        <time>2003-04-14T15:40:23Z</time>
      </trkpt>
      <trkpt lat="30.912127979099751" lon="-5.156305013224483">
        <ele>868.29999999999995</ele>
        <time>2003-04-14T15:40:27Z</time>
      </trkpt>
      <trkpt lat="30.911969980224967" lon="-5.156205017119646">
        <ele>868.20000000000005</ele>
        <time>2003-04-14T15:40:28Z</time>
      </trkpt>
      <trkpt lat="30.911899991333485" lon="-5.156050035730004">
        <ele>868.10000000000002</ele>
        <time>2003-04-14T15:40:31Z</time>
      </trkpt>
      <trkpt lat="30.911812987178564" lon="-5.155845014378429">
        <ele>867</ele>
        <time>2003-04-14T15:40:32Z</time>
      </trkpt>
      <trkpt lat="30.911477962508798" lon="-5.155230034142733">
        <ele>867</ele>
        <time>2003-04-14T15:40:39Z</time>
      </trkpt>
      <trkpt lat="30.911337984725833" lon="-5.155230034142733">
        <ele>867.20000000000005</ele>
        <time>2003-04-14T15:40:42Z</time>
      </trkpt>
      <trkpt lat="30.911204963922501" lon="-5.155168008059263">
        <ele>867.5</ele>
        <time>2003-04-14T15:40:43Z</time>
      </trkpt>
      <trkpt lat="30.911036990582943" lon="-5.155104976147413">
        <ele>866.29999999999995</ele>
        <time>2003-04-14T15:40:47Z</time>
      </trkpt>
      <trkpt lat="30.910834986716509" lon="-5.154998023062944">
        <ele>867.20000000000005</ele>
        <time>2003-04-14T15:40:50Z</time>
      </trkpt>
      <trkpt lat="30.910574980080128" lon="-5.154865002259612">
        <ele>868.10000000000002</ele>
        <time>2003-04-14T15:40:53Z</time>
      </trkpt>
      <trkpt lat="30.91025797650218" lon="-5.154717983677983">
        <ele>867.29999999999995</ele>
        <time>2003-04-14T15:40:55Z</time>
      </trkpt>
      <trkpt lat="30.909760007634759" lon="-5.154484966769815">
        <ele>866.89999999999998</ele>
        <time>2003-04-14T15:40:59Z</time>
      </trkpt>
      <trkpt lat="30.908807991072536" lon="-5.154026979580522">
        <ele>866.39999999999998</ele>
        <time>2003-04-14T15:41:06Z</time>
      </trkpt>
      <trkpt lat="30.907948007807136" lon="-5.153609979897738">
        <ele>864.70000000000005</ele>
        <time>2003-04-14T15:41:14Z</time>
      </trkpt>
      <trkpt lat="30.907780034467578" lon="-5.153558012098074">
        <ele>865</ele>
        <time>2003-04-14T15:41:15Z</time>
      </trkpt>
      <trkpt lat="30.907557997852564" lon="-5.153488023206592">
        <ele>862.20000000000005</ele>
        <time>2003-04-14T15:41:18Z</time>
      </trkpt>
      <trkpt lat="30.907432017847896" lon="-5.153460027649999">
        <ele>860.89999999999998</ele>
        <time>2003-04-14T15:41:18Z</time>
      </trkpt>
      <trkpt lat="30.906936982646585" lon="-5.153318038210273">
        <ele>862.39999999999998</ele>
        <time>2003-04-14T15:41:22Z</time>
      </trkpt>
      <trkpt lat="30.906815025955439" lon="-5.153298005461693">
        <ele>862.5</ele>
        <time>2003-04-14T15:41:24Z</time>
      </trkpt>
      <trkpt lat="30.90632501989603" lon="-5.153157021850348">
        <ele>863.5</ele>
        <time>2003-04-14T15:41:28Z</time>
      </trkpt>
      <trkpt lat="30.906204991042614" lon="-5.153136989101768">
        <ele>863.10000000000002</ele>
        <time>2003-04-14T15:41:29Z</time>
      </trkpt>
      <trkpt lat="30.905995024368167" lon="-5.153073035180569">
        <ele>863.70000000000005</ele>
        <time>2003-04-14T15:41:30Z</time>
      </trkpt>
      <trkpt lat="30.905908020213246" lon="-5.153015032410622">
        <ele>864</ele>
        <time>2003-04-14T15:41:32Z</time>
      </trkpt>
      <trkpt lat="30.90568003244698" lon="-5.152885029092431">
        <ele>862.70000000000005</ele>
        <time>2003-04-14T15:41:34Z</time>
      </trkpt>
      <trkpt lat="30.905522033572197" lon="-5.152955017983913">
        <ele>862.39999999999998</ele>
        <time>2003-04-14T15:41:37Z</time>
      </trkpt>
      <trkpt lat="30.905427988618612" lon="-5.152979996055365">
        <ele>862.20000000000005</ele>
        <time>2003-04-14T15:41:37Z</time>
      </trkpt>
      <trkpt lat="30.905324975028634" lon="-5.152989970520139">
        <ele>861.60000000000002</ele>
        <time>2003-04-14T15:41:38Z</time>
      </trkpt>
      <trkpt lat="30.905232019722462" lon="-5.153022995218635">
        <ele>860.89999999999998</ele>
        <time>2003-04-14T15:41:40Z</time>
      </trkpt>
      <trkpt lat="30.90505700558424" lon="-5.153053002431989">
        <ele>860.39999999999998</ele>
        <time>2003-04-14T15:41:41Z</time>
      </trkpt>
      <trkpt lat="30.904887020587921" lon="-5.153000028803945">
        <ele>860.29999999999995</ele>
        <time>2003-04-14T15:41:44Z</time>
      </trkpt>
      <trkpt lat="30.904707983136177" lon="-5.153021989390254">
        <ele>859.39999999999998</ele>
        <time>2003-04-14T15:41:45Z</time>
      </trkpt>
      <trkpt lat="30.904619973152876" lon="-5.15307798050344">
        <ele>859.79999999999995</ele>
        <time>2003-04-14T15:41:47Z</time>
      </trkpt>
      <trkpt lat="30.904415035620332" lon="-5.15320697799325">
        <ele>859.79999999999995</ele>
        <time>2003-04-14T15:41:49Z</time>
      </trkpt>
      <trkpt lat="30.903567038476467" lon="-5.153760015964508">
        <ele>859</ele>
        <time>2003-04-14T15:41:56Z</time>
      </trkpt>
      <trkpt lat="30.903169987723231" lon="-5.153982974588871">
        <ele>858.5</ele>
        <time>2003-04-14T15:42:00Z</time>
      </trkpt>
      <trkpt lat="30.902819959446788" lon="-5.154050029814243">
        <ele>858.20000000000005</ele>
        <time>2003-04-14T15:42:04Z</time>
      </trkpt>
      <trkpt lat="30.902696996927261" lon="-5.154033014550805">
        <ele>858.10000000000002</ele>
        <time>2003-04-14T15:42:04Z</time>
      </trkpt>
      <trkpt lat="30.902310004457831" lon="-5.154042989015579">
        <ele>857.39999999999998</ele>
        <time>2003-04-14T15:42:08Z</time>
      </trkpt>
      <trkpt lat="30.902043040841818" lon="-5.15402203425765">
        <ele>857.5</ele>
        <time>2003-04-14T15:42:09Z</time>
      </trkpt>
      <trkpt lat="30.901698041707277" lon="-5.153932012617588">
        <ele>856.79999999999995</ele>
        <time>2003-04-14T15:42:12Z</time>
      </trkpt>
      <trkpt lat="30.90136201120913" lon="-5.153715005144477">
        <ele>856.10000000000002</ele>
        <time>2003-04-14T15:42:16Z</time>
      </trkpt>
      <trkpt lat="30.90121197514236" lon="-5.153607968240976">
        <ele>856</ele>
        <time>2003-04-14T15:42:19Z</time>
      </trkpt>
      <trkpt lat="30.901120025664568" lon="-5.153596987947822">
        <ele>856</ele>
        <time>2003-04-14T15:42:19Z</time>
      </trkpt>
      <trkpt lat="30.90071702376008" lon="-5.153612997382879">
        <ele>855.60000000000002</ele>
        <time>2003-04-14T15:42:23Z</time>
      </trkpt>
      <trkpt lat="30.900440001860261" lon="-5.153705030679703">
        <ele>855.39999999999998</ele>
        <time>2003-04-14T15:42:27Z</time>
      </trkpt>
      <trkpt lat="30.900016967207193" lon="-5.153924971818924">
        <ele>855.10000000000002</ele>
        <time>2003-04-14T15:42:31Z</time>
      </trkpt>
      <trkpt lat="30.899908002465963" lon="-5.154041983187199">
        <ele>855.5</ele>
        <time>2003-04-14T15:42:34Z</time>
      </trkpt>
      <trkpt lat="30.899823009967804" lon="-5.154127981513739">
        <ele>855.60000000000002</ele>
        <time>2003-04-14T15:42:35Z</time>
      </trkpt>
      <trkpt lat="30.899646990001202" lon="-5.154062015935779">
        <ele>855.70000000000005</ele>
        <time>2003-04-14T15:42:50Z</time>
      </trkpt>
      <trkpt lat="30.899563003331423" lon="-5.153984986245632">
        <ele>855.60000000000002</ele>
        <time>2003-04-14T15:42:51Z</time>
      </trkpt>
      <trkpt lat="30.899344990029931" lon="-5.153736965730786">
        <ele>855.10000000000002</ele>
        <time>2003-04-14T15:42:57Z</time>
      </trkpt>
      <trkpt lat="30.899269971996546" lon="-5.153597993776202">
        <ele>855.5</ele>
        <time>2003-04-14T15:42:58Z</time>
      </trkpt>
      <trkpt lat="30.89917198754847" lon="-5.153361959382892">
        <ele>855.60000000000002</ele>
        <time>2003-04-14T15:43:02Z</time>
      </trkpt>
      <trkpt lat="30.899096969515085" lon="-5.153137994930148">
        <ele>856.89999999999998</ele>
        <time>2003-04-14T15:43:05Z</time>
      </trkpt>
      <trkpt lat="30.898992028087378" lon="-5.152974966913462">
        <ele>857.60000000000002</ele>
        <time>2003-04-14T15:43:06Z</time>
      </trkpt>
      <trkpt lat="30.898545021191239" lon="-5.152499964460731">
        <ele>856.60000000000002</ele>
        <time>2003-04-14T15:43:13Z</time>
      </trkpt>
      <trkpt lat="30.898264981806278" lon="-5.152368033304811">
        <ele>857.5</ele>
        <time>2003-04-14T15:43:17Z</time>
      </trkpt>
      <trkpt lat="30.898047974333167" lon="-5.152363004162908">
        <ele>857.79999999999995</ele>
        <time>2003-04-14T15:43:18Z</time>
      </trkpt>
      <trkpt lat="30.897702975198627" lon="-5.152357975021005">
        <ele>857.79999999999995</ele>
        <time>2003-04-14T15:43:21Z</time>
      </trkpt>
      <trkpt lat="30.897474987432361" lon="-5.152284968644381">
        <ele>857.29999999999995</ele>
        <time>2003-04-14T15:43:24Z</time>
      </trkpt>
      <trkpt lat="30.897153038531542" lon="-5.152184972539544">
        <ele>856.89999999999998</ele>
        <time>2003-04-14T15:43:26Z</time>
      </trkpt>
      <trkpt lat="30.896941982209682" lon="-5.152168041095138">
        <ele>856.39999999999998</ele>
        <time>2003-04-14T15:43:29Z</time>
      </trkpt>
      <trkpt lat="30.896779960021377" lon="-5.152153037488461">
        <ele>855.70000000000005</ele>
        <time>2003-04-14T15:43:30Z</time>
      </trkpt>
      <trkpt lat="30.89639799669385" lon="-5.152177009731531">
        <ele>856</ele>
        <time>2003-04-14T15:43:35Z</time>
      </trkpt>
      <trkpt lat="30.896306969225407" lon="-5.152165023609996">
        <ele>856</ele>
        <time>2003-04-14T15:43:36Z</time>
      </trkpt>
      <trkpt lat="30.896146958693862" lon="-5.152118001133204">
        <ele>855.70000000000005</ele>
        <time>2003-04-14T15:43:37Z</time>
      </trkpt>
      <trkpt lat="30.895989965647459" lon="-5.152029991149902">
        <ele>856.10000000000002</ele>
        <time>2003-04-14T15:43:40Z</time>
      </trkpt>
      <trkpt lat="30.895670028403401" lon="-5.151852965354919">
        <ele>856.89999999999998</ele>
        <time>2003-04-14T15:43:44Z</time>
      </trkpt>
      <trkpt lat="30.895456960424781" lon="-5.151793034747243">
        <ele>856.89999999999998</ele>
        <time>2003-04-14T15:43:47Z</time>
      </trkpt>
      <trkpt lat="30.895282030105591" lon="-5.151805020868778">
        <ele>856.70000000000005</ele>
        <time>2003-04-14T15:43:48Z</time>
      </trkpt>
      <trkpt lat="30.895184967666864" lon="-5.151837039738894">
        <ele>856.79999999999995</ele>
        <time>2003-04-14T15:43:49Z</time>
      </trkpt>
      <trkpt lat="30.89508798904717" lon="-5.151892025023699">
        <ele>856.60000000000002</ele>
        <time>2003-04-14T15:43:51Z</time>
      </trkpt>
      <trkpt lat="30.894607035443187" lon="-5.152120012789965">
        <ele>855.60000000000002</ele>
        <time>2003-04-14T15:43:56Z</time>
      </trkpt>
      <trkpt lat="30.894502010196447" lon="-5.152133004739881">
        <ele>855.39999999999998</ele>
        <time>2003-04-14T15:43:56Z</time>
      </trkpt>
      <trkpt lat="30.894018039107323" lon="-5.152182960882783">
        <ele>854.79999999999995</ele>
        <time>2003-04-14T15:44:00Z</time>
      </trkpt>
      <trkpt lat="30.893758032470942" lon="-5.152177009731531">
        <ele>854.70000000000005</ele>
        <time>2003-04-14T15:44:03Z</time>
      </trkpt>
      <trkpt lat="30.893495008349419" lon="-5.152114983648062">
        <ele>854.5</ele>
        <time>2003-04-14T15:44:04Z</time>
      </trkpt>
      <trkpt lat="30.893216980621219" lon="-5.152075001969934">
        <ele>854.5</ele>
        <time>2003-04-14T15:44:07Z</time>
      </trkpt>
      <trkpt lat="30.893080020323396" lon="-5.152082964777947">
        <ele>854.29999999999995</ele>
        <time>2003-04-14T15:44:07Z</time>
      </trkpt>
      <trkpt lat="30.892239985987544" lon="-5.152172986418009">
        <ele>854.10000000000002</ele>
        <time>2003-04-14T15:44:14Z</time>
      </trkpt>
      <trkpt lat="30.891282018274069" lon="-5.152398040518165">
        <ele>853.29999999999995</ele>
        <time>2003-04-14T15:44:19Z</time>
      </trkpt>
      <trkpt lat="30.891010025516152" lon="-5.152547992765904">
        <ele>853</ele>
        <time>2003-04-14T15:44:22Z</time>
      </trkpt>
      <trkpt lat="30.89068204164505" lon="-5.152804981917143">
        <ele>853</ele>
        <time>2003-04-14T15:44:24Z</time>
      </trkpt>
      <trkpt lat="30.890488000586629" lon="-5.153037998825312">
        <ele>852.60000000000002</ele>
        <time>2003-04-14T15:44:27Z</time>
      </trkpt>
      <trkpt lat="30.890405019745231" lon="-5.153177976608276">
        <ele>852.60000000000002</ele>
        <time>2003-04-14T15:44:27Z</time>
      </trkpt>
      <trkpt lat="30.890121962875128" lon="-5.153582990169525">
        <ele>852.5</ele>
        <time>2003-04-14T15:44:31Z</time>
      </trkpt>
      <trkpt lat="30.889873020350933" lon="-5.153920026496053">
        <ele>852</ele>
        <time>2003-04-14T15:44:34Z</time>
      </trkpt>
      <trkpt lat="30.889766989275813" lon="-5.154090011492372">
        <ele>851.39999999999998</ele>
        <time>2003-04-14T15:44:35Z</time>
      </trkpt>
      <trkpt lat="30.889598010107875" lon="-5.154211968183518">
        <ele>851.20000000000005</ele>
        <time>2003-04-14T15:44:39Z</time>
      </trkpt>
      <trkpt lat="30.889379996806383" lon="-5.154272988438606">
        <ele>850.79999999999995</ele>
        <time>2003-04-14T15:44:42Z</time>
      </trkpt>
      <trkpt lat="30.889183022081852" lon="-5.154316993430257">
        <ele>850.60000000000002</ele>
        <time>2003-04-14T15:44:46Z</time>
      </trkpt>
      <trkpt lat="30.88877197355032" lon="-5.154438028112054">
        <ele>850.29999999999995</ele>
        <time>2003-04-14T15:44:49Z</time>
      </trkpt>
      <trkpt lat="30.88857801631093" lon="-5.154567025601864">
        <ele>849.89999999999998</ele>
        <time>2003-04-14T15:44:50Z</time>
      </trkpt>
      <trkpt lat="30.88840501382947" lon="-5.154729969799519">
        <ele>849.70000000000005</ele>
        <time>2003-04-14T15:44:53Z</time>
      </trkpt>
      <trkpt lat="30.888352040201426" lon="-5.154831977561116">
        <ele>849.5</ele>
        <time>2003-04-14T15:44:54Z</time>
      </trkpt>
      <trkpt lat="30.88832002133131" lon="-5.154942031949759">
        <ele>849</ele>
        <time>2003-04-14T15:44:54Z</time>
      </trkpt>
      <trkpt lat="30.888266963884234" lon="-5.155036998912692">
        <ele>848.39999999999998</ele>
        <time>2003-04-14T15:44:56Z</time>
      </trkpt>
      <trkpt lat="30.888193035498261" lon="-5.155125008895993">
        <ele>847.39999999999998</ele>
        <time>2003-04-14T15:44:57Z</time>
      </trkpt>
      <trkpt lat="30.888093039393425" lon="-5.155197009444237">
        <ele>847.70000000000005</ele>
        <time>2003-04-14T15:44:58Z</time>
      </trkpt>
      <trkpt lat="30.88763203471899" lon="-5.155502026900649">
        <ele>847.89999999999998</ele>
        <time>2003-04-14T15:45:02Z</time>
      </trkpt>
      <trkpt lat="30.887201959267259" lon="-5.15567796304822">
        <ele>846.79999999999995</ele>
        <time>2003-04-14T15:45:06Z</time>
      </trkpt>
      <trkpt lat="30.887029962614179" lon="-5.155787011608481">
        <ele>846.29999999999995</ele>
        <time>2003-04-14T15:45:09Z</time>
      </trkpt>
      <trkpt lat="30.886937007308006" lon="-5.155797991901636">
        <ele>846.20000000000005</ele>
        <time>2003-04-14T15:45:09Z</time>
      </trkpt>
      <trkpt lat="30.886656967923045" lon="-5.155851971358061">
        <ele>845.60000000000002</ele>
        <time>2003-04-14T15:45:13Z</time>
      </trkpt>
      <trkpt lat="30.886584967374802" lon="-5.155922966077924">
        <ele>845.89999999999998</ele>
        <time>2003-04-14T15:45:13Z</time>
      </trkpt>
      <trkpt lat="30.886492012068629" lon="-5.155973006039858">
        <ele>846.39999999999998</ele>
        <time>2003-04-14T15:45:14Z</time>
      </trkpt>
      <trkpt lat="30.886280033737421" lon="-5.156051963567734">
        <ele>845.70000000000005</ele>
        <time>2003-04-14T15:45:17Z</time>
      </trkpt>
      <trkpt lat="30.88608699850738" lon="-5.156090017408133">
        <ele>845.5</ele>
        <time>2003-04-14T15:45:18Z</time>
      </trkpt>
      <trkpt lat="30.885992031544447" lon="-5.156139973551035">
        <ele>845.20000000000005</ele>
        <time>2003-04-14T15:45:20Z</time>
      </trkpt>
      <trkpt lat="30.885894969105721" lon="-5.156212979927659">
        <ele>845.20000000000005</ele>
        <time>2003-04-14T15:45:21Z</time>
      </trkpt>
      <trkpt lat="30.885476963594556" lon="-5.156605001538992">
        <ele>844.79999999999995</ele>
        <time>2003-04-14T15:45:25Z</time>
      </trkpt>
      <trkpt lat="30.885270014405251" lon="-5.156789990141988">
        <ele>844.60000000000002</ele>
        <time>2003-04-14T15:45:28Z</time>
      </trkpt>
      <trkpt lat="30.884762993082404" lon="-5.157101964578033">
        <ele>844.79999999999995</ele>
        <time>2003-04-14T15:45:32Z</time>
      </trkpt>
      <trkpt lat="30.883924970403314" lon="-5.15756699256599">
        <ele>843.70000000000005</ele>
        <time>2003-04-14T15:45:37Z</time>
      </trkpt>
      <trkpt lat="30.883213011547923" lon="-5.157960020005703">
        <ele>842.79999999999995</ele>
        <time>2003-04-14T15:45:43Z</time>
      </trkpt>
      <trkpt lat="30.882829958572984" lon="-5.158179961144924">
        <ele>842.60000000000002</ele>
        <time>2003-04-14T15:45:47Z</time>
      </trkpt>
      <trkpt lat="30.882470039650798" lon="-5.158303007483482">
        <ele>842.60000000000002</ele>
        <time>2003-04-14T15:45:50Z</time>
      </trkpt>
      <trkpt lat="30.8823680318892" lon="-5.158366961404681">
        <ele>842.5</ele>
        <time>2003-04-14T15:45:51Z</time>
      </trkpt>
      <trkpt lat="30.882086986675858" lon="-5.158537030220032">
        <ele>841.5</ele>
        <time>2003-04-14T15:45:52Z</time>
      </trkpt>
      <trkpt lat="30.881975004449487" lon="-5.158550022169948">
        <ele>840.89999999999998</ele>
        <time>2003-04-14T15:45:55Z</time>
      </trkpt>
      <trkpt lat="30.88159304112196" lon="-5.158596960827708">
        <ele>840.79999999999995</ele>
        <time>2003-04-14T15:45:56Z</time>
      </trkpt>
      <trkpt lat="30.881167994812131" lon="-5.158726964145899">
        <ele>840.79999999999995</ele>
        <time>2003-04-14T15:46:00Z</time>
      </trkpt>
      <trkpt lat="30.880658039823174" lon="-5.158937014639378">
        <ele>839.89999999999998</ele>
        <time>2003-04-14T15:46:04Z</time>
      </trkpt>
      <trkpt lat="30.880282027646899" lon="-5.15907296910882">
        <ele>839.29999999999995</ele>
        <time>2003-04-14T15:46:07Z</time>
      </trkpt>
      <trkpt lat="30.879937028512359" lon="-5.159114962443709">
        <ele>838.89999999999998</ele>
        <time>2003-04-14T15:46:11Z</time>
      </trkpt>
      <trkpt lat="30.879617007449269" lon="-5.159146981313825">
        <ele>838</ele>
        <time>2003-04-14T15:46:14Z</time>
      </trkpt>
      <trkpt lat="30.879526985809207" lon="-5.159187968820334">
        <ele>838</ele>
        <time>2003-04-14T15:46:15Z</time>
      </trkpt>
      <trkpt lat="30.879439981654286" lon="-5.159257035702467">
        <ele>838.10000000000002</ele>
        <time>2003-04-14T15:46:15Z</time>
      </trkpt>
      <trkpt lat="30.87893002666533" lon="-5.159657020121813">
        <ele>838.89999999999998</ele>
        <time>2003-04-14T15:46:22Z</time>
      </trkpt>
      <trkpt lat="30.878862971439958" lon="-5.159767996519804">
        <ele>838.60000000000002</ele>
        <time>2003-04-14T15:46:22Z</time>
      </trkpt>
      <trkpt lat="30.878819972276688" lon="-5.159892970696092">
        <ele>838.79999999999995</ele>
        <time>2003-04-14T15:46:23Z</time>
      </trkpt>
      <trkpt lat="30.878792982548475" lon="-5.160022974014282">
        <ele>838.89999999999998</ele>
        <time>2003-04-14T15:46:25Z</time>
      </trkpt>
      <trkpt lat="30.87865199893713" lon="-5.160497976467013">
        <ele>838.60000000000002</ele>
        <time>2003-04-14T15:46:29Z</time>
      </trkpt>
      <trkpt lat="30.878513026982546" lon="-5.160733005031943">
        <ele>837.89999999999998</ele>
        <time>2003-04-14T15:46:30Z</time>
      </trkpt>
      <trkpt lat="30.878337007015944" lon="-5.160922016948462">
        <ele>838.29999999999995</ele>
        <time>2003-04-14T15:46:33Z</time>
      </trkpt>
      <trkpt lat="30.878227958455682" lon="-5.160986976698041">
        <ele>838.70000000000005</ele>
        <time>2003-04-14T15:46:34Z</time>
      </trkpt>
      <trkpt lat="30.877759996801615" lon="-5.161185041069984">
        <ele>839.39999999999998</ele>
        <time>2003-04-14T15:46:38Z</time>
      </trkpt>
      <trkpt lat="30.877545000985265" lon="-5.161322001367807">
        <ele>838.5</ele>
        <time>2003-04-14T15:46:39Z</time>
      </trkpt>
      <trkpt lat="30.876882998272777" lon="-5.161887025460601">
        <ele>837.5</ele>
        <time>2003-04-14T15:46:46Z</time>
      </trkpt>
      <trkpt lat="30.876837987452745" lon="-5.161987021565437">
        <ele>837.39999999999998</ele>
        <time>2003-04-14T15:46:48Z</time>
      </trkpt>
      <trkpt lat="30.876657022163272" lon="-5.162332020699978">
        <ele>837.5</ele>
        <time>2003-04-14T15:46:50Z</time>
      </trkpt>
      <trkpt lat="30.876506986096501" lon="-5.162514997646213">
        <ele>837.70000000000005</ele>
        <time>2003-04-14T15:46:53Z</time>
      </trkpt>
      <trkpt lat="30.876340018585324" lon="-5.162654975429177">
        <ele>837.20000000000005</ele>
        <time>2003-04-14T15:46:54Z</time>
      </trkpt>
      <trkpt lat="30.876242034137249" lon="-5.16268196515739">
        <ele>837</ele>
        <time>2003-04-14T15:46:56Z</time>
      </trkpt>
      <trkpt lat="30.876144971698523" lon="-5.162739967927337">
        <ele>837.29999999999995</ele>
        <time>2003-04-14T15:46:57Z</time>
      </trkpt>
      <trkpt lat="30.875971969217062" lon="-5.162838036194444">
        <ele>837.29999999999995</ele>
        <time>2003-04-14T15:46:58Z</time>
      </trkpt>
      <trkpt lat="30.875801984220743" lon="-5.16287500038743">
        <ele>837.10000000000002</ele>
        <time>2003-04-14T15:47:01Z</time>
      </trkpt>
      <trkpt lat="30.875648008659482" lon="-5.162841975688934">
        <ele>836.89999999999998</ele>
        <time>2003-04-14T15:47:02Z</time>
      </trkpt>
      <trkpt lat="30.875467965379357" lon="-5.162757989019156">
        <ele>837.20000000000005</ele>
        <time>2003-04-14T15:47:05Z</time>
      </trkpt>
      <trkpt lat="30.875317007303238" lon="-5.162737034261227">
        <ele>836.39999999999998</ele>
        <time>2003-04-14T15:47:08Z</time>
      </trkpt>
      <trkpt lat="30.875156996771693" lon="-5.162718007341027">
        <ele>836</ele>
        <time>2003-04-14T15:47:09Z</time>
      </trkpt>
      <trkpt lat="30.875036967918277" lon="-5.162647012621164">
        <ele>836.10000000000002</ele>
        <time>2003-04-14T15:47:12Z</time>
      </trkpt>
      <trkpt lat="30.874952981248498" lon="-5.162578029558063">
        <ele>836.39999999999998</ele>
        <time>2003-04-14T15:47:13Z</time>
      </trkpt>
      <trkpt lat="30.874777967110276" lon="-5.162497982382774">
        <ele>837.39999999999998</ele>
        <time>2003-04-14T15:47:17Z</time>
      </trkpt>
      <trkpt lat="30.874636983498931" lon="-5.162478033453226">
        <ele>836.79999999999995</ele>
        <time>2003-04-14T15:47:20Z</time>
      </trkpt>
      <trkpt lat="30.874489964917302" lon="-5.162447020411491">
        <ele>836.5</ele>
        <time>2003-04-14T15:47:23Z</time>
      </trkpt>
      <trkpt lat="30.874392986297607" lon="-5.162377031520009">
        <ele>836.89999999999998</ele>
        <time>2003-04-14T15:47:24Z</time>
      </trkpt>
      <trkpt lat="30.874262982979417" lon="-5.162341995164752">
        <ele>836.79999999999995</ele>
        <time>2003-04-14T15:47:28Z</time>
      </trkpt>
      <trkpt lat="30.874104984104633" lon="-5.162382982671261">
        <ele>836.5</ele>
        <time>2003-04-14T15:47:31Z</time>
      </trkpt>
      <trkpt lat="30.873953020200133" lon="-5.162458000704646">
        <ele>836.20000000000005</ele>
        <time>2003-04-14T15:47:32Z</time>
      </trkpt>
      <trkpt lat="30.873804995790124" lon="-5.162582974880934">
        <ele>835.89999999999998</ele>
        <time>2003-04-14T15:47:35Z</time>
      </trkpt>
      <trkpt lat="30.873699970543385" lon="-5.162739967927337">
        <ele>835.89999999999998</ele>
        <time>2003-04-14T15:47:36Z</time>
      </trkpt>
      <trkpt lat="30.873552029952407" lon="-5.16313198953867">
        <ele>835.70000000000005</ele>
        <time>2003-04-14T15:47:40Z</time>
      </trkpt>
      <trkpt lat="30.873512970283628" lon="-5.163338016718626">
        <ele>835.60000000000002</ele>
        <time>2003-04-14T15:47:43Z</time>
      </trkpt>
      <trkpt lat="30.873423032462597" lon="-5.163642028346658">
        <ele>835.29999999999995</ele>
        <time>2003-04-14T15:47:46Z</time>
      </trkpt>
      <trkpt lat="30.873367041349411" lon="-5.163847971707583">
        <ele>835.5</ele>
        <time>2003-04-14T15:47:47Z</time>
      </trkpt>
      <trkpt lat="30.87319697253406" lon="-5.164492037147284">
        <ele>835.39999999999998</ele>
        <time>2003-04-14T15:47:54Z</time>
      </trkpt>
      <trkpt lat="30.873137963935733" lon="-5.164714995771647">
        <ele>835.29999999999995</ele>
        <time>2003-04-14T15:47:55Z</time>
      </trkpt>
      <trkpt lat="30.872909976169467" lon="-5.165327964350581">
        <ele>834.70000000000005</ele>
        <time>2003-04-14T15:48:00Z</time>
      </trkpt>
      <trkpt lat="30.872582998126745" lon="-5.166362039744854">
        <ele>834.60000000000002</ele>
        <time>2003-04-14T15:48:09Z</time>
      </trkpt>
      <trkpt lat="30.872204974293709" lon="-5.167422015219927">
        <ele>834</ele>
        <time>2003-04-14T15:48:17Z</time>
      </trkpt>
      <trkpt lat="30.872044963762164" lon="-5.168140009045601">
        <ele>834.10000000000002</ele>
        <time>2003-04-14T15:48:22Z</time>
      </trkpt>
      <trkpt lat="30.871885037049651" lon="-5.168736968189478">
        <ele>832.79999999999995</ele>
        <time>2003-04-14T15:48:26Z</time>
      </trkpt>
      <trkpt lat="30.871855029836297" lon="-5.168902007862926">
        <ele>833</ele>
        <time>2003-04-14T15:48:29Z</time>
      </trkpt>
      <trkpt lat="30.871817981824279" lon="-5.169002003967762">
        <ele>833.29999999999995</ele>
        <time>2003-04-14T15:48:30Z</time>
      </trkpt>
      <trkpt lat="30.871865004301071" lon="-5.169096970930696">
        <ele>851.20000000000005</ele>
        <time>2003-04-14T15:49:16Z</time>
      </trkpt>
      <trkpt lat="30.87184002622962" lon="-5.169248012825847">
        <ele>848.89999999999998</ele>
        <time>2003-04-14T15:49:21Z</time>
      </trkpt>
      <trkpt lat="30.871778000146151" lon="-5.169417997822166">
        <ele>848</ele>
        <time>2003-04-14T15:49:27Z</time>
      </trkpt>
      <trkpt lat="30.871710022911429" lon="-5.169565016403794">
        <ele>847.29999999999995</ele>
        <time>2003-04-14T15:49:35Z</time>
      </trkpt>
      <trkpt lat="30.871642967686057" lon="-5.169697031378746">
        <ele>847.20000000000005</ele>
        <time>2003-04-14T15:49:39Z</time>
      </trkpt>
      <trkpt lat="30.871568033471704" lon="-5.169908003881574">
        <ele>847</ele>
        <time>2003-04-14T15:49:43Z</time>
      </trkpt>
      <trkpt lat="30.871507013216615" lon="-5.170034989714623">
        <ele>846.89999999999998</ele>
        <time>2003-04-14T15:49:44Z</time>
      </trkpt>
      <trkpt lat="30.871472982689738" lon="-5.170182008296251">
        <ele>846.70000000000005</ele>
        <time>2003-04-14T15:49:47Z</time>
      </trkpt>
      <trkpt lat="30.871459990739822" lon="-5.170319974422455">
        <ele>846.70000000000005</ele>
        <time>2003-04-14T15:49:48Z</time>
      </trkpt>
      <trkpt lat="30.871414979919791" lon="-5.17054301686585">
        <ele>846.5</ele>
        <time>2003-04-14T15:49:51Z</time>
      </trkpt>
      <trkpt lat="30.871407017111778" lon="-5.170703027397394">
        <ele>846.70000000000005</ele>
        <time>2003-04-14T15:49:54Z</time>
      </trkpt>
      <trkpt lat="30.871429983526468" lon="-5.171416997909546">
        <ele>846.20000000000005</ele>
        <time>2003-04-14T15:50:02Z</time>
      </trkpt>
      <trkpt lat="30.871601980179548" lon="-5.171889988705516">
        <ele>846.10000000000002</ele>
        <time>2003-04-14T15:50:06Z</time>
      </trkpt>
      <trkpt lat="30.871626958250999" lon="-5.171998031437397">
        <ele>846.10000000000002</ele>
        <time>2003-04-14T15:50:07Z</time>
      </trkpt>
      <trkpt lat="30.871761990711093" lon="-5.172462975606322">
        <ele>845.70000000000005</ele>
        <time>2003-04-14T15:50:11Z</time>
      </trkpt>
      <trkpt lat="30.872038006782532" lon="-5.173271996900439">
        <ele>844.70000000000005</ele>
        <time>2003-04-14T15:50:18Z</time>
      </trkpt>
      <trkpt lat="30.872047981247306" lon="-5.17348799854517">
        <ele>844.70000000000005</ele>
        <time>2003-04-14T15:50:21Z</time>
      </trkpt>
      <trkpt lat="30.872076982632279" lon="-5.173710035160184">
        <ele>844.5</ele>
        <time>2003-04-14T15:50:22Z</time>
      </trkpt>
      <trkpt lat="30.872152000665665" lon="-5.173878008499742">
        <ele>844.5</ele>
        <time>2003-04-14T15:50:25Z</time>
      </trkpt>
      <trkpt lat="30.872216960415244" lon="-5.17402502708137">
        <ele>844.29999999999995</ele>
        <time>2003-04-14T15:50:26Z</time>
      </trkpt>
      <trkpt lat="30.872232969850302" lon="-5.174191994592547">
        <ele>843.60000000000002</ele>
        <time>2003-04-14T15:50:29Z</time>
      </trkpt>
      <trkpt lat="30.872279992327094" lon="-5.174847040325403">
        <ele>843.39999999999998</ele>
        <time>2003-04-14T15:50:36Z</time>
      </trkpt>
      <trkpt lat="30.872402032837272" lon="-5.175514994189143">
        <ele>843</ele>
        <time>2003-04-14T15:50:41Z</time>
      </trkpt>
      <trkpt lat="30.872432040050626" lon="-5.175887988880277">
        <ele>842.89999999999998</ele>
        <time>2003-04-14T15:50:45Z</time>
      </trkpt>
      <trkpt lat="30.872409995645285" lon="-5.176385035738349">
        <ele>842.60000000000002</ele>
        <time>2003-04-14T15:50:49Z</time>
      </trkpt>
      <trkpt lat="30.87224998511374" lon="-5.177475018426776">
        <ele>841.39999999999998</ele>
        <time>2003-04-14T15:50:57Z</time>
      </trkpt>
      <trkpt lat="30.872177984565496" lon="-5.178063008934259">
        <ele>840.70000000000005</ele>
        <time>2003-04-14T15:51:03Z</time>
      </trkpt>
      <trkpt lat="30.872001964598894" lon="-5.17855703830719">
        <ele>840.39999999999998</ele>
        <time>2003-04-14T15:51:07Z</time>
      </trkpt>
      <trkpt lat="30.871698036789894" lon="-5.179157014936209">
        <ele>839.39999999999998</ele>
        <time>2003-04-14T15:51:12Z</time>
      </trkpt>
      <trkpt lat="30.871583037078381" lon="-5.179391959682107">
        <ele>839.29999999999995</ele>
        <time>2003-04-14T15:51:14Z</time>
      </trkpt>
      <trkpt lat="30.871497038751841" lon="-5.179581977427006">
        <ele>839</ele>
        <time>2003-04-14T15:51:16Z</time>
      </trkpt>
      <trkpt lat="30.871426966041327" lon="-5.179669987410307">
        <ele>839</ele>
        <time>2003-04-14T15:51:16Z</time>
      </trkpt>
      <trkpt lat="30.871380027383566" lon="-5.179778030142188">
        <ele>838.39999999999998</ele>
        <time>2003-04-14T15:51:18Z</time>
      </trkpt>
      <trkpt lat="30.871314983814955" lon="-5.179884983226657">
        <ele>838.5</ele>
        <time>2003-04-14T15:51:19Z</time>
      </trkpt>
      <trkpt lat="30.870812991634011" lon="-5.180710013955832">
        <ele>837.79999999999995</ele>
        <time>2003-04-14T15:51:26Z</time>
      </trkpt>
      <trkpt lat="30.870381994172931" lon="-5.18135298974812">
        <ele>837.29999999999995</ele>
        <time>2003-04-14T15:51:31Z</time>
      </trkpt>
      <trkpt lat="30.869857035577297" lon="-5.18225496634841">
        <ele>836.39999999999998</ele>
        <time>2003-04-14T15:51:36Z</time>
      </trkpt>
      <trkpt lat="30.869441963732243" lon="-5.182912023738027">
        <ele>836.10000000000002</ele>
        <time>2003-04-14T15:51:42Z</time>
      </trkpt>
      <trkpt lat="30.869320007041097" lon="-5.183143028989434">
        <ele>835.79999999999995</ele>
        <time>2003-04-14T15:51:43Z</time>
      </trkpt>
      <trkpt lat="30.869150022044778" lon="-5.183430025354028">
        <ele>835.60000000000002</ele>
        <time>2003-04-14T15:51:46Z</time>
      </trkpt>
      <trkpt lat="30.869011972099543" lon="-5.183697994798422">
        <ele>835.39999999999998</ele>
        <time>2003-04-14T15:51:50Z</time>
      </trkpt>
      <trkpt lat="30.868999985978007" lon="-5.183805031701922">
        <ele>835</ele>
        <time>2003-04-14T15:51:50Z</time>
      </trkpt>
      <trkpt lat="30.868937959894538" lon="-5.184129998087883">
        <ele>835</ele>
        <time>2003-04-14T15:51:54Z</time>
      </trkpt>
      <trkpt lat="30.868869982659817" lon="-5.184410037472844">
        <ele>834.5</ele>
        <time>2003-04-14T15:51:57Z</time>
      </trkpt>
      <trkpt lat="30.868814997375011" lon="-5.184605000540614">
        <ele>834.60000000000002</ele>
        <time>2003-04-14T15:51:58Z</time>
      </trkpt>
      <trkpt lat="30.868722964078188" lon="-5.184928039088845">
        <ele>834.60000000000002</ele>
        <time>2003-04-14T15:52:02Z</time>
      </trkpt>
      <trkpt lat="30.868679964914918" lon="-5.185337997972965">
        <ele>835</ele>
        <time>2003-04-14T15:52:05Z</time>
      </trkpt>
      <trkpt lat="30.868648029863834" lon="-5.186173003166914">
        <ele>835</ele>
        <time>2003-04-14T15:52:10Z</time>
      </trkpt>
      <trkpt lat="30.868707038462162" lon="-5.187331968918443">
        <ele>833.5</ele>
        <time>2003-04-14T15:52:21Z</time>
      </trkpt>
      <trkpt lat="30.868679964914918" lon="-5.187568003311753">
        <ele>833.10000000000002</ele>
        <time>2003-04-14T15:52:22Z</time>
      </trkpt>
      <trkpt lat="30.868627997115254" lon="-5.18799296580255">
        <ele>832.29999999999995</ele>
        <time>2003-04-14T15:52:26Z</time>
      </trkpt>
      <trkpt lat="30.868652975186706" lon="-5.188100002706051">
        <ele>832.10000000000002</ele>
        <time>2003-04-14T15:52:28Z</time>
      </trkpt>
      <trkpt lat="30.868748025968671" lon="-5.188642982393503">
        <ele>831.39999999999998</ele>
        <time>2003-04-14T15:52:33Z</time>
      </trkpt>
      <trkpt lat="30.868730004876852" lon="-5.189261985942721">
        <ele>831.10000000000002</ele>
        <time>2003-04-14T15:52:37Z</time>
      </trkpt>
      <trkpt lat="30.868678037077188" lon="-5.18949500285089">
        <ele>830.89999999999998</ele>
        <time>2003-04-14T15:52:40Z</time>
      </trkpt>
      <trkpt lat="30.868592038750648" lon="-5.18966699950397">
        <ele>830.5</ele>
        <time>2003-04-14T15:52:41Z</time>
      </trkpt>
      <trkpt lat="30.868522971868515" lon="-5.189797002822161">
        <ele>830</ele>
        <time>2003-04-14T15:52:44Z</time>
      </trkpt>
      <trkpt lat="30.868512997403741" lon="-5.189919965341687">
        <ele>829</ele>
        <time>2003-04-14T15:52:48Z</time>
      </trkpt>
      <trkpt lat="30.868447031825781" lon="-5.189998000860214">
        <ele>829.10000000000002</ele>
        <time>2003-04-14T15:52:49Z</time>
      </trkpt>
      <trkpt lat="30.868377964943647" lon="-5.190102020278573">
        <ele>828.29999999999995</ele>
        <time>2003-04-14T15:52:52Z</time>
      </trkpt>
      <trkpt lat="30.86827696301043" lon="-5.190257001668215">
        <ele>828.10000000000002</ele>
        <time>2003-04-14T15:52:55Z</time>
      </trkpt>
      <trkpt lat="30.868198005482554" lon="-5.190407959744334">
        <ele>827.70000000000005</ele>
        <time>2003-04-14T15:52:57Z</time>
      </trkpt>
      <trkpt lat="30.868140002712607" lon="-5.190539974719286">
        <ele>827.29999999999995</ele>
        <time>2003-04-14T15:53:00Z</time>
      </trkpt>
      <trkpt lat="30.868021985515952" lon="-5.190782966092229">
        <ele>826.79999999999995</ele>
        <time>2003-04-14T15:53:03Z</time>
      </trkpt>
      <trkpt lat="30.86782299913466" lon="-5.191147997975349">
        <ele>826.10000000000002</ele>
        <time>2003-04-14T15:53:07Z</time>
      </trkpt>
      <trkpt lat="30.867740018293262" lon="-5.191370034590364">
        <ele>826</ele>
        <time>2003-04-14T15:53:08Z</time>
      </trkpt>
      <trkpt lat="30.867546983063221" lon="-5.191958025097847">
        <ele>825.60000000000002</ele>
        <time>2003-04-14T15:53:15Z</time>
      </trkpt>
      <trkpt lat="30.867514964193106" lon="-5.192490024492145">
        <ele>825.39999999999998</ele>
        <time>2003-04-14T15:53:19Z</time>
      </trkpt>
      <trkpt lat="30.867491997778416" lon="-5.192860001698136">
        <ele>825.10000000000002</ele>
        <time>2003-04-14T15:53:23Z</time>
      </trkpt>
      <trkpt lat="30.867432989180088" lon="-5.193156972527504">
        <ele>825.10000000000002</ele>
        <time>2003-04-14T15:53:27Z</time>
      </trkpt>
      <trkpt lat="30.867327963933349" lon="-5.193371968343854">
        <ele>825.10000000000002</ele>
        <time>2003-04-14T15:53:29Z</time>
      </trkpt>
      <trkpt lat="30.866801999509335" lon="-5.194330019876361">
        <ele>824.10000000000002</ele>
        <time>2003-04-14T15:53:38Z</time>
      </trkpt>
      <trkpt lat="30.866377959027886" lon="-5.195190003141761">
        <ele>823.89999999999998</ele>
        <time>2003-04-14T15:53:45Z</time>
      </trkpt>
      <trkpt lat="30.865843025967479" lon="-5.196188036352396">
        <ele>823.20000000000005</ele>
        <time>2003-04-14T15:53:51Z</time>
      </trkpt>
      <trkpt lat="30.865262998268008" lon="-5.197177017107606">
        <ele>822.29999999999995</ele>
        <time>2003-04-14T15:53:58Z</time>
      </trkpt>
      <trkpt lat="30.864917999133468" lon="-5.197802977636457">
        <ele>822.39999999999998</ele>
        <time>2003-04-14T15:54:04Z</time>
      </trkpt>
      <trkpt lat="30.864439979195595" lon="-5.198715012520552">
        <ele>822.20000000000005</ele>
        <time>2003-04-14T15:54:10Z</time>
      </trkpt>
      <trkpt lat="30.863902028650045" lon="-5.199712961912155">
        <ele>821.20000000000005</ele>
        <time>2003-04-14T15:54:17Z</time>
      </trkpt>
      <trkpt lat="30.863798009231687" lon="-5.199789991602302">
        <ele>821.20000000000005</ele>
        <time>2003-04-14T15:54:18Z</time>
      </trkpt>
      <trkpt lat="30.863452004268765" lon="-5.200104983523488">
        <ele>821</ele>
        <time>2003-04-14T15:54:23Z</time>
      </trkpt>
      <trkpt lat="30.863383021205664" lon="-5.200210008770227">
        <ele>820.70000000000005</ele>
        <time>2003-04-14T15:54:24Z</time>
      </trkpt>
      <trkpt lat="30.863261986523867" lon="-5.200447971001267">
        <ele>820.79999999999995</ele>
        <time>2003-04-14T15:54:25Z</time>
      </trkpt>
      <trkpt lat="30.863177999854088" lon="-5.200700014829636">
        <ele>820.89999999999998</ele>
        <time>2003-04-14T15:54:28Z</time>
      </trkpt>
      <trkpt lat="30.862887986004353" lon="-5.201601991429925">
        <ele>820.5</ele>
        <time>2003-04-14T15:54:35Z</time>
      </trkpt>
      <trkpt lat="30.862841969355941" lon="-5.201750015839934">
        <ele>820.20000000000005</ele>
        <time>2003-04-14T15:54:36Z</time>
      </trkpt>
      <trkpt lat="30.862523037940264" lon="-5.202662972733378">
        <ele>819.39999999999998</ele>
        <time>2003-04-14T15:54:41Z</time>
      </trkpt>
      <trkpt lat="30.862373001873493" lon="-5.202918034046888">
        <ele>819.60000000000002</ele>
        <time>2003-04-14T15:54:44Z</time>
      </trkpt>
      <trkpt lat="30.862141996622086" lon="-5.203348025679588">
        <ele>819.60000000000002</ele>
        <time>2003-04-14T15:54:47Z</time>
      </trkpt>
      <trkpt lat="30.86159298196435" lon="-5.204382017254829">
        <ele>818.89999999999998</ele>
        <time>2003-04-14T15:54:54Z</time>
      </trkpt>
      <trkpt lat="30.860935002565384" lon="-5.205151978880167">
        <ele>818.70000000000005</ele>
        <time>2003-04-14T15:54:59Z</time>
      </trkpt>
      <trkpt lat="30.860150037333369" lon="-5.205937027931213">
        <ele>818.79999999999995</ele>
        <time>2003-04-14T15:55:06Z</time>
      </trkpt>
      <trkpt lat="30.859382003545761" lon="-5.206642029806972">
        <ele>818.79999999999995</ele>
        <time>2003-04-14T15:55:11Z</time>
      </trkpt>
      <trkpt lat="30.858631990849972" lon="-5.207337979227305">
        <ele>818.20000000000005</ele>
        <time>2003-04-14T15:55:18Z</time>
      </trkpt>
      <trkpt lat="30.858410038053989" lon="-5.207578036934137">
        <ele>817.79999999999995</ele>
        <time>2003-04-14T15:55:19Z</time>
      </trkpt>
      <trkpt lat="30.858017010614276" lon="-5.208007022738457">
        <ele>817.5</ele>
        <time>2003-04-14T15:55:23Z</time>
      </trkpt>
      <trkpt lat="30.857826992869377" lon="-5.208197040483356">
        <ele>817.29999999999995</ele>
        <time>2003-04-14T15:55:26Z</time>
      </trkpt>
      <trkpt lat="30.857247970998287" lon="-5.208752006292343">
        <ele>817.20000000000005</ele>
        <time>2003-04-14T15:55:31Z</time>
      </trkpt>
      <trkpt lat="30.85637197829783" lon="-5.209309989586473">
        <ele>815.89999999999998</ele>
        <time>2003-04-14T15:55:38Z</time>
      </trkpt>
      <trkpt lat="30.856252033263445" lon="-5.209373021498323">
        <ele>815.20000000000005</ele>
        <time>2003-04-14T15:55:39Z</time>
      </trkpt>
      <trkpt lat="30.856050029397011" lon="-5.209512999281287">
        <ele>815.29999999999995</ele>
        <time>2003-04-14T15:55:42Z</time>
      </trkpt>
      <trkpt lat="30.855562034994364" lon="-5.210038041695952">
        <ele>815.5</ele>
        <time>2003-04-14T15:55:46Z</time>
      </trkpt>
      <trkpt lat="30.854983013123274" lon="-5.210901964455843">
        <ele>815.5</ele>
        <time>2003-04-14T15:55:53Z</time>
      </trkpt>
      <trkpt lat="30.854274993762374" lon="-5.212081968784332">
        <ele>815.20000000000005</ele>
        <time>2003-04-14T15:56:01Z</time>
      </trkpt>
      <trkpt lat="30.853769984096289" lon="-5.213014958426356">
        <ele>811.79999999999995</ele>
        <time>2003-04-14T15:56:08Z</time>
      </trkpt>
      <trkpt lat="30.85340796969831" lon="-5.213542012497783">
        <ele>810.79999999999995</ele>
        <time>2003-04-14T15:56:12Z</time>
      </trkpt>
      <trkpt lat="30.85332297720015" lon="-5.213679978623986">
        <ele>810.5</ele>
        <time>2003-04-14T15:56:13Z</time>
      </trkpt>
      <trkpt lat="30.853100018575788" lon="-5.214157998561859">
        <ele>810.89999999999998</ele>
        <time>2003-04-14T15:56:16Z</time>
      </trkpt>
      <trkpt lat="30.852691987529397" lon="-5.215219985693693">
        <ele>810.60000000000002</ele>
        <time>2003-04-14T15:56:21Z</time>
      </trkpt>
      <trkpt lat="30.852316981181502" lon="-5.216305023059249">
        <ele>809.89999999999998</ele>
        <time>2003-04-14T15:56:28Z</time>
      </trkpt>
      <trkpt lat="30.852012969553471" lon="-5.217214962467551">
        <ele>809.20000000000005</ele>
        <time>2003-04-14T15:56:32Z</time>
      </trkpt>
      <trkpt lat="30.851756986230612" lon="-5.218321960419416">
        <ele>808.70000000000005</ele>
        <time>2003-04-14T15:56:39Z</time>
      </trkpt>
      <trkpt lat="30.85145004093647" lon="-5.219383025541902">
        <ele>807.79999999999995</ele>
        <time>2003-04-14T15:56:44Z</time>
      </trkpt>
      <trkpt lat="30.851133037358522" lon="-5.220472002401948">
        <ele>807.20000000000005</ele>
        <time>2003-04-14T15:56:51Z</time>
      </trkpt>
      <trkpt lat="30.850987024605274" lon="-5.220718011260033">
        <ele>807</ele>
        <time>2003-04-14T15:56:54Z</time>
      </trkpt>
      <trkpt lat="30.850776974111795" lon="-5.221017999574542">
        <ele>807.20000000000005</ele>
        <time>2003-04-14T15:56:58Z</time>
      </trkpt>
      <trkpt lat="30.850687958300114" lon="-5.221101986244321">
        <ele>807.29999999999995</ele>
        <time>2003-04-14T15:56:59Z</time>
      </trkpt>
      <trkpt lat="30.850359974429011" lon="-5.221427036449313">
        <ele>806.89999999999998</ele>
        <time>2003-04-14T15:57:03Z</time>
      </trkpt>
      <trkpt lat="30.850095022469759" lon="-5.2217420283705">
        <ele>806.29999999999995</ele>
        <time>2003-04-14T15:57:06Z</time>
      </trkpt>
      <trkpt lat="30.849565034732223" lon="-5.222411993891001">
        <ele>805.39999999999998</ele>
        <time>2003-04-14T15:57:11Z</time>
      </trkpt>
      <trkpt lat="30.849021971225739" lon="-5.22324699908495">
        <ele>804.89999999999998</ele>
        <time>2003-04-14T15:57:18Z</time>
      </trkpt>
      <trkpt lat="30.848907977342606" lon="-5.22335303016007">
        <ele>804.79999999999995</ele>
        <time>2003-04-14T15:57:18Z</time>
      </trkpt>
      <trkpt lat="30.848676972091198" lon="-5.223523015156388">
        <ele>804.60000000000002</ele>
        <time>2003-04-14T15:57:22Z</time>
      </trkpt>
      <trkpt lat="30.84786300547421" lon="-5.224032970145345">
        <ele>804.20000000000005</ele>
        <time>2003-04-14T15:57:29Z</time>
      </trkpt>
      <trkpt lat="30.847654966637492" lon="-5.224240003153682">
        <ele>803.79999999999995</ele>
        <time>2003-04-14T15:57:30Z</time>
      </trkpt>
      <trkpt lat="30.847463021054864" lon="-5.224485006183386">
        <ele>804</ele>
        <time>2003-04-14T15:57:33Z</time>
      </trkpt>
      <trkpt lat="30.846760030835867" lon="-5.225635003298521">
        <ele>803.89999999999998</ele>
        <time>2003-04-14T15:57:41Z</time>
      </trkpt>
      <trkpt lat="30.846676966175437" lon="-5.225802976638079">
        <ele>804.29999999999995</ele>
        <time>2003-04-14T15:57:44Z</time>
      </trkpt>
      <trkpt lat="30.846587028354406" lon="-5.225986959412694">
        <ele>804.20000000000005</ele>
        <time>2003-04-14T15:57:45Z</time>
      </trkpt>
      <trkpt lat="30.846515027806163" lon="-5.226253001019359">
        <ele>804.29999999999995</ele>
        <time>2003-04-14T15:57:49Z</time>
      </trkpt>
      <trkpt lat="30.846434980630875" lon="-5.226391972973943">
        <ele>804</ele>
        <time>2003-04-14T15:57:50Z</time>
      </trkpt>
      <trkpt lat="30.84635803475976" lon="-5.226562963798642">
        <ele>804.20000000000005</ele>
        <time>2003-04-14T15:57:53Z</time>
      </trkpt>
      <trkpt lat="30.846289973706007" lon="-5.22672800347209">
        <ele>804</ele>
        <time>2003-04-14T15:57:54Z</time>
      </trkpt>
      <trkpt lat="30.846204981207848" lon="-5.226945010945201">
        <ele>803.70000000000005</ele>
        <time>2003-04-14T15:57:57Z</time>
      </trkpt>
      <trkpt lat="30.846112025901675" lon="-5.226994967088103">
        <ele>804</ele>
        <time>2003-04-14T15:58:00Z</time>
      </trkpt>
      <trkpt lat="30.846047988161445" lon="-5.227087000384927">
        <ele>804</ele>
        <time>2003-04-14T15:58:01Z</time>
      </trkpt>
      <trkpt lat="30.845937011763453" lon="-5.227137040346861">
        <ele>804.29999999999995</ele>
        <time>2003-04-14T15:58:04Z</time>
      </trkpt>
      <trkpt lat="30.845841960981488" lon="-5.227278023958206">
        <ele>807.20000000000005</ele>
        <time>2003-04-14T16:00:03Z</time>
      </trkpt>
      <trkpt lat="30.845768032595515" lon="-5.227356981486082">
        <ele>807.10000000000002</ele>
        <time>2003-04-14T16:00:04Z</time>
      </trkpt>
      <trkpt lat="30.845669964328408" lon="-5.227472987025976">
        <ele>807.5</ele>
        <time>2003-04-14T16:00:08Z</time>
      </trkpt>
      <trkpt lat="30.845631994307041" lon="-5.227582035586238">
        <ele>807.20000000000005</ele>
        <time>2003-04-14T16:00:09Z</time>
      </trkpt>
      <trkpt lat="30.84562998265028" lon="-5.227693011984229">
        <ele>807.20000000000005</ele>
        <time>2003-04-14T16:00:12Z</time>
      </trkpt>
      <trkpt lat="30.845608022063971" lon="-5.227913036942482">
        <ele>805.39999999999998</ele>
        <time>2003-04-14T16:00:15Z</time>
      </trkpt>
      <trkpt lat="30.845590000972152" lon="-5.228132978081703">
        <ele>805</ele>
        <time>2003-04-14T16:00:19Z</time>
      </trkpt>
      <trkpt lat="30.845522023737431" lon="-5.228331964462996">
        <ele>803.70000000000005</ele>
        <time>2003-04-14T16:00:31Z</time>
      </trkpt>
      <trkpt lat="30.845441976562142" lon="-5.228437995538116">
        <ele>803.79999999999995</ele>
        <time>2003-04-14T16:00:35Z</time>
      </trkpt>
      <trkpt lat="30.845338040962815" lon="-5.228615021333098">
        <ele>803.39999999999998</ele>
        <time>2003-04-14T16:00:39Z</time>
      </trkpt>
      <trkpt lat="30.845352960750461" lon="-5.228734966367483">
        <ele>803.5</ele>
        <time>2003-04-14T16:00:41Z</time>
      </trkpt>
      <trkpt lat="30.845378022640944" lon="-5.228958008810878">
        <ele>803.70000000000005</ele>
        <time>2003-04-14T16:00:55Z</time>
      </trkpt>
      <trkpt lat="30.845386991277337" lon="-5.229107039049268">
        <ele>803.60000000000002</ele>
        <time>2003-04-14T16:00:58Z</time>
      </trkpt>
      <trkpt lat="30.845395037904382" lon="-5.229288004338741">
        <ele>803.70000000000005</ele>
        <time>2003-04-14T16:00:59Z</time>
      </trkpt>
      <trkpt lat="30.845397971570492" lon="-5.229507023468614">
        <ele>803.60000000000002</ele>
        <time>2003-04-14T16:01:02Z</time>
      </trkpt>
      <trkpt lat="30.845384979620576" lon="-5.229711961001158">
        <ele>803.5</ele>
        <time>2003-04-14T16:01:03Z</time>
      </trkpt>
      <trkpt lat="30.845322031527758" lon="-5.229893010109663">
        <ele>803.20000000000005</ele>
        <time>2003-04-14T16:01:06Z</time>
      </trkpt>
      <trkpt lat="30.845262017101049" lon="-5.229974985122681">
        <ele>803.20000000000005</ele>
        <time>2003-04-14T16:01:06Z</time>
      </trkpt>
      <trkpt lat="30.845120027661324" lon="-5.230104988440871">
        <ele>802.79999999999995</ele>
        <time>2003-04-14T16:01:09Z</time>
      </trkpt>
      <trkpt lat="30.844717025756836" lon="-5.230513019487262">
        <ele>803.10000000000002</ele>
        <time>2003-04-14T16:01:13Z</time>
      </trkpt>
      <trkpt lat="30.84449197165668" lon="-5.230817031115294">
        <ele>803.5</ele>
        <time>2003-04-14T16:01:17Z</time>
      </trkpt>
      <trkpt lat="30.844391975551844" lon="-5.231072008609772">
        <ele>803.60000000000002</ele>
        <time>2003-04-14T16:01:18Z</time>
      </trkpt>
      <trkpt lat="30.844187960028648" lon="-5.231590010225773">
        <ele>803.60000000000002</ele>
        <time>2003-04-14T16:01:22Z</time>
      </trkpt>
      <trkpt lat="30.84410497918725" lon="-5.231697969138622">
        <ele>803.60000000000002</ele>
        <time>2003-04-14T16:01:24Z</time>
      </trkpt>
      <trkpt lat="30.843822006136179" lon="-5.232010027393699">
        <ele>803.5</ele>
        <time>2003-04-14T16:01:26Z</time>
      </trkpt>
      <trkpt lat="30.843569962307811" lon="-5.232308004051447">
        <ele>803.10000000000002</ele>
        <time>2003-04-14T16:01:29Z</time>
      </trkpt>
      <trkpt lat="30.843474995344877" lon="-5.232492992654443">
        <ele>802.89999999999998</ele>
        <time>2003-04-14T16:01:32Z</time>
      </trkpt>
      <trkpt lat="30.843302998691797" lon="-5.2327870298177">
        <ele>802.60000000000002</ele>
        <time>2003-04-14T16:01:35Z</time>
      </trkpt>
      <trkpt lat="30.843208031728864" lon="-5.232846960425377">
        <ele>802.70000000000005</ele>
        <time>2003-04-14T16:01:36Z</time>
      </trkpt>
      <trkpt lat="30.842915000393987" lon="-5.232976963743568">
        <ele>802.10000000000002</ele>
        <time>2003-04-14T16:01:39Z</time>
      </trkpt>
      <trkpt lat="30.842811986804008" lon="-5.232962965965271">
        <ele>802.10000000000002</ele>
        <time>2003-04-14T16:01:40Z</time>
      </trkpt>
      <trkpt lat="30.842715008184314" lon="-5.232973024249077">
        <ele>801.79999999999995</ele>
        <time>2003-04-14T16:01:40Z</time>
      </trkpt>
      <trkpt lat="30.842603025957942" lon="-5.23300495930016">
        <ele>801.5</ele>
        <time>2003-04-14T16:01:41Z</time>
      </trkpt>
      <trkpt lat="30.842381995171309" lon="-5.233103027567267">
        <ele>801.20000000000005</ele>
        <time>2003-04-14T16:01:44Z</time>
      </trkpt>
      <trkpt lat="30.84227797575295" lon="-5.233182990923524">
        <ele>800.89999999999998</ele>
        <time>2003-04-14T16:01:44Z</time>
      </trkpt>
      <trkpt lat="30.842185020446777" lon="-5.233279969543219">
        <ele>801.10000000000002</ele>
        <time>2003-04-14T16:01:45Z</time>
      </trkpt>
      <trkpt lat="30.841880002990365" lon="-5.233527990058065">
        <ele>800.89999999999998</ele>
        <time>2003-04-14T16:01:48Z</time>
      </trkpt>
      <trkpt lat="30.841662995517254" lon="-5.233627986162901">
        <ele>800.79999999999995</ele>
        <time>2003-04-14T16:01:51Z</time>
      </trkpt>
      <trkpt lat="30.841432996094227" lon="-5.233671991154552">
        <ele>800.70000000000005</ele>
        <time>2003-04-14T16:01:52Z</time>
      </trkpt>
      <trkpt lat="30.841192016378045" lon="-5.233708033338189">
        <ele>800.70000000000005</ele>
        <time>2003-04-14T16:01:55Z</time>
      </trkpt>
      <trkpt lat="30.840969979763031" lon="-5.233823033049703">
        <ele>800.20000000000005</ele>
        <time>2003-04-14T16:01:56Z</time>
      </trkpt>
      <trkpt lat="30.840070014819503" lon="-5.234307004138827">
        <ele>799.29999999999995</ele>
        <time>2003-04-14T16:02:04Z</time>
      </trkpt>
      <trkpt lat="30.839289994910359" lon="-5.234598023816943">
        <ele>798.20000000000005</ele>
        <time>2003-04-14T16:02:11Z</time>
      </trkpt>
      <trkpt lat="30.839069969952106" lon="-5.234557036310434">
        <ele>797.89999999999998</ele>
        <time>2003-04-14T16:02:14Z</time>
      </trkpt>
      <trkpt lat="30.838952958583832" lon="-5.234553012996912">
        <ele>797.60000000000002</ele>
        <time>2003-04-14T16:02:15Z</time>
      </trkpt>
      <trkpt lat="30.838607037439942" lon="-5.234512025490403">
        <ele>797.29999999999995</ele>
        <time>2003-04-14T16:02:18Z</time>
      </trkpt>
      <trkpt lat="30.838490026071668" lon="-5.234502973034978">
        <ele>797.5</ele>
        <time>2003-04-14T16:02:19Z</time>
      </trkpt>
      <trkpt lat="30.837940005585551" lon="-5.234531974419951">
        <ele>797.39999999999998</ele>
        <time>2003-04-14T16:02:23Z</time>
      </trkpt>
      <trkpt lat="30.837845038622618" lon="-5.23459198884666">
        <ele>797.20000000000005</ele>
        <time>2003-04-14T16:02:24Z</time>
      </trkpt>
      <trkpt lat="30.83765996620059" lon="-5.2346779871732">
        <ele>796.89999999999998</ele>
        <time>2003-04-14T16:02:27Z</time>
      </trkpt>
      <trkpt lat="30.837562987580895" lon="-5.234728027135134">
        <ele>796.70000000000005</ele>
        <time>2003-04-14T16:02:27Z</time>
      </trkpt>
      <trkpt lat="30.837462991476059" lon="-5.234759962186217">
        <ele>796.89999999999998</ele>
        <time>2003-04-14T16:02:29Z</time>
      </trkpt>
      <trkpt lat="30.837365007027984" lon="-5.234772032126784">
        <ele>796.79999999999995</ele>
        <time>2003-04-14T16:02:30Z</time>
      </trkpt>
      <trkpt lat="30.836993018165231" lon="-5.234812013804913">
        <ele>796.60000000000002</ele>
        <time>2003-04-14T16:02:34Z</time>
      </trkpt>
      <trkpt lat="30.836563026532531" lon="-5.234787035733461">
        <ele>796.39999999999998</ele>
        <time>2003-04-14T16:02:38Z</time>
      </trkpt>
      <trkpt lat="30.836042007431388" lon="-5.234715035185218">
        <ele>796.20000000000005</ele>
        <time>2003-04-14T16:02:42Z</time>
      </trkpt>
      <trkpt lat="30.835117986425757" lon="-5.234485035762191">
        <ele>795.89999999999998</ele>
        <time>2003-04-14T16:02:49Z</time>
      </trkpt>
      <trkpt lat="30.834769969806075" lon="-5.234331982210279">
        <ele>795.5</ele>
        <time>2003-04-14T16:02:51Z</time>
      </trkpt>
      <trkpt lat="30.83426202647388" lon="-5.233982037752867">
        <ele>794.79999999999995</ele>
        <time>2003-04-14T16:02:57Z</time>
      </trkpt>
      <trkpt lat="30.8340900298208" lon="-5.23388497531414">
        <ele>794.79999999999995</ele>
        <time>2003-04-14T16:02:58Z</time>
      </trkpt>
      <trkpt lat="30.833761962130666" lon="-5.233769975602627">
        <ele>794</ele>
        <time>2003-04-14T16:03:02Z</time>
      </trkpt>
      <trkpt lat="30.833413023501635" lon="-5.233726976439357">
        <ele>793.89999999999998</ele>
        <time>2003-04-14T16:03:06Z</time>
      </trkpt>
      <trkpt lat="30.833231974393129" lon="-5.233769975602627">
        <ele>794</ele>
        <time>2003-04-14T16:03:09Z</time>
      </trkpt>
      <trkpt lat="30.832712966948748" lon="-5.233842981979251">
        <ele>794.20000000000005</ele>
        <time>2003-04-14T16:03:13Z</time>
      </trkpt>
      <trkpt lat="30.832418007776141" lon="-5.233781961724162">
        <ele>794.10000000000002</ele>
        <time>2003-04-14T16:03:17Z</time>
      </trkpt>
      <trkpt lat="30.831497004255652" lon="-5.233514998108149">
        <ele>794.10000000000002</ele>
        <time>2003-04-14T16:03:25Z</time>
      </trkpt>
      <trkpt lat="30.830922005698085" lon="-5.233269995078445">
        <ele>793.5</ele>
        <time>2003-04-14T16:03:32Z</time>
      </trkpt>
      <trkpt lat="30.83071799017489" lon="-5.233192965388298">
        <ele>793.39999999999998</ele>
        <time>2003-04-14T16:03:33Z</time>
      </trkpt>
      <trkpt lat="30.830602990463376" lon="-5.233179973438382">
        <ele>793.29999999999995</ele>
        <time>2003-04-14T16:03:35Z</time>
      </trkpt>
      <trkpt lat="30.830377014353871" lon="-5.233185002580285">
        <ele>793.20000000000005</ele>
        <time>2003-04-14T16:03:36Z</time>
      </trkpt>
      <trkpt lat="30.830041989684105" lon="-5.23317301645875">
        <ele>793</ele>
        <time>2003-04-14T16:03:40Z</time>
      </trkpt>
      <trkpt lat="30.829827999696136" lon="-5.233076959848404">
        <ele>793</ele>
        <time>2003-04-14T16:03:41Z</time>
      </trkpt>
      <trkpt lat="30.829513007774949" lon="-5.232947040349245">
        <ele>793</ele>
        <time>2003-04-14T16:03:44Z</time>
      </trkpt>
      <trkpt lat="30.82930002361536" lon="-5.232932036742568">
        <ele>792.79999999999995</ele>
        <time>2003-04-14T16:03:47Z</time>
      </trkpt>
      <trkpt lat="30.829110005870461" lon="-5.232907980680466">
        <ele>792.89999999999998</ele>
        <time>2003-04-14T16:03:48Z</time>
      </trkpt>
      <trkpt lat="30.828405003994703" lon="-5.232782000675798">
        <ele>792.60000000000002</ele>
        <time>2003-04-14T16:03:56Z</time>
      </trkpt>
      <trkpt lat="30.828265026211739" lon="-5.232732966542244">
        <ele>792.60000000000002</ele>
        <time>2003-04-14T16:03:59Z</time>
      </trkpt>
      <trkpt lat="30.828105015680194" lon="-5.23272299207747">
        <ele>792.39999999999998</ele>
        <time>2003-04-14T16:04:00Z</time>
      </trkpt>
      <trkpt lat="30.827758004888892" lon="-5.232745036482811">
        <ele>791.89999999999998</ele>
        <time>2003-04-14T16:04:04Z</time>
      </trkpt>
      <trkpt lat="30.82760201767087" lon="-5.232673035934568">
        <ele>791.70000000000005</ele>
        <time>2003-04-14T16:04:07Z</time>
      </trkpt>
      <trkpt lat="30.826837001368403" lon="-5.232262993231416">
        <ele>790.79999999999995</ele>
        <time>2003-04-14T16:04:15Z</time>
      </trkpt>
      <trkpt lat="30.826527960598469" lon="-5.232159979641438">
        <ele>790.70000000000005</ele>
        <time>2003-04-14T16:04:19Z</time>
      </trkpt>
      <trkpt lat="30.826312964782119" lon="-5.232146987691522">
        <ele>790.60000000000002</ele>
        <time>2003-04-14T16:04:21Z</time>
      </trkpt>
      <trkpt lat="30.826210035011172" lon="-5.232171965762973">
        <ele>790.79999999999995</ele>
        <time>2003-04-14T16:04:22Z</time>
      </trkpt>
      <trkpt lat="30.825894959270954" lon="-5.23218504153192">
        <ele>790.60000000000002</ele>
        <time>2003-04-14T16:04:25Z</time>
      </trkpt>
      <trkpt lat="30.825522970408201" lon="-5.232161991298199">
        <ele>790.60000000000002</ele>
        <time>2003-04-14T16:04:29Z</time>
      </trkpt>
      <trkpt lat="30.825094990432262" lon="-5.232214964926243">
        <ele>790.39999999999998</ele>
        <time>2003-04-14T16:04:33Z</time>
      </trkpt>
      <trkpt lat="30.824598027393222" lon="-5.232268022373319">
        <ele>790.39999999999998</ele>
        <time>2003-04-14T16:04:37Z</time>
      </trkpt>
      <trkpt lat="30.824235007166862" lon="-5.23222996853292">
        <ele>790.20000000000005</ele>
        <time>2003-04-14T16:04:39Z</time>
      </trkpt>
      <trkpt lat="30.823847008869052" lon="-5.232176994904876">
        <ele>789.70000000000005</ele>
        <time>2003-04-14T16:04:42Z</time>
      </trkpt>
      <trkpt lat="30.823427997529507" lon="-5.232198033481836">
        <ele>789.60000000000002</ele>
        <time>2003-04-14T16:04:46Z</time>
      </trkpt>
      <trkpt lat="30.822559967637062" lon="-5.232304986566305">
        <ele>789.10000000000002</ele>
        <time>2003-04-14T16:04:52Z</time>
      </trkpt>
      <trkpt lat="30.822050012648106" lon="-5.232328036800027">
        <ele>788.60000000000002</ele>
        <time>2003-04-14T16:04:56Z</time>
      </trkpt>
      <trkpt lat="30.82126697525382" lon="-5.232431972399354">
        <ele>788.20000000000005</ele>
        <time>2003-04-14T16:05:01Z</time>
      </trkpt>
      <trkpt lat="30.820338008925319" lon="-5.23240003734827">
        <ele>788.10000000000002</ele>
        <time>2003-04-14T16:05:09Z</time>
      </trkpt>
      <trkpt lat="30.819496968761086" lon="-5.23227003403008">
        <ele>788.10000000000002</ele>
        <time>2003-04-14T16:05:15Z</time>
      </trkpt>
      <trkpt lat="30.818561967462301" lon="-5.232053026556969">
        <ele>788.60000000000002</ele>
        <time>2003-04-14T16:05:20Z</time>
      </trkpt>
      <trkpt lat="30.817601988092065" lon="-5.23177701048553">
        <ele>788.20000000000005</ele>
        <time>2003-04-14T16:05:27Z</time>
      </trkpt>
      <trkpt lat="30.817157998681068" lon="-5.23162798024714">
        <ele>788.10000000000002</ele>
        <time>2003-04-14T16:05:29Z</time>
      </trkpt>
      <trkpt lat="30.816697999835014" lon="-5.23156201466918">
        <ele>787.79999999999995</ele>
        <time>2003-04-14T16:05:32Z</time>
      </trkpt>
      <trkpt lat="30.815746989101171" lon="-5.231575006619096">
        <ele>787.79999999999995</ele>
        <time>2003-04-14T16:05:39Z</time>
      </trkpt>
      <trkpt lat="30.814778041094542" lon="-5.231744991615415">
        <ele>787.10000000000002</ele>
        <time>2003-04-14T16:05:44Z</time>
      </trkpt>
      <trkpt lat="30.813834993168712" lon="-5.231952024623752">
        <ele>786.70000000000005</ele>
        <time>2003-04-14T16:05:51Z</time>
      </trkpt>
      <trkpt lat="30.812924969941378" lon="-5.232131984084845">
        <ele>785.70000000000005</ele>
        <time>2003-04-14T16:05:56Z</time>
      </trkpt>
      <trkpt lat="30.812317030504346" lon="-5.232287971302867">
        <ele>785.60000000000002</ele>
        <time>2003-04-14T16:06:00Z</time>
      </trkpt>
      <trkpt lat="30.812034979462624" lon="-5.232382016256452">
        <ele>785</ele>
        <time>2003-04-14T16:06:03Z</time>
      </trkpt>
      <trkpt lat="30.811904976144433" lon="-5.232412023469806">
        <ele>785.10000000000002</ele>
        <time>2003-04-14T16:06:03Z</time>
      </trkpt>
      <trkpt lat="30.811791988089681" lon="-5.232412023469806">
        <ele>784.89999999999998</ele>
        <time>2003-04-14T16:06:05Z</time>
      </trkpt>
      <trkpt lat="30.811677994206548" lon="-5.232391990721226">
        <ele>784.89999999999998</ele>
        <time>2003-04-14T16:06:06Z</time>
      </trkpt>
      <trkpt lat="30.811310028657317" lon="-5.232374975457788">
        <ele>784.60000000000002</ele>
        <time>2003-04-14T16:06:09Z</time>
      </trkpt>
      <trkpt lat="30.810917001217604" lon="-5.232329964637756">
        <ele>784.5</ele>
        <time>2003-04-14T16:06:11Z</time>
      </trkpt>
      <trkpt lat="30.80998501740396" lon="-5.232140030711889">
        <ele>783.89999999999998</ele>
        <time>2003-04-14T16:06:18Z</time>
      </trkpt>
      <trkpt lat="30.809202985838056" lon="-5.23201203905046">
        <ele>783.89999999999998</ele>
        <time>2003-04-14T16:06:23Z</time>
      </trkpt>
      <trkpt lat="30.808164970949292" lon="-5.231874994933605">
        <ele>783.70000000000005</ele>
        <time>2003-04-14T16:06:30Z</time>
      </trkpt>
      <trkpt lat="30.807238016277552" lon="-5.231742979958654">
        <ele>782.89999999999998</ele>
        <time>2003-04-14T16:06:36Z</time>
      </trkpt>
      <trkpt lat="30.80708303488791" lon="-5.231759995222092">
        <ele>783.20000000000005</ele>
        <time>2003-04-14T16:06:37Z</time>
      </trkpt>
      <trkpt lat="30.806777011603117" lon="-5.231747003272176">
        <ele>783.10000000000002</ele>
        <time>2003-04-14T16:06:38Z</time>
      </trkpt>
      <trkpt lat="30.806480040773749" lon="-5.231702998280525">
        <ele>782.70000000000005</ele>
        <time>2003-04-14T16:06:41Z</time>
      </trkpt>
      <trkpt lat="30.806211987510324" lon="-5.231578024104238">
        <ele>782.5</ele>
        <time>2003-04-14T16:06:42Z</time>
      </trkpt>
      <trkpt lat="30.805951980873942" lon="-5.231475010514259">
        <ele>782.29999999999995</ele>
        <time>2003-04-14T16:06:45Z</time>
      </trkpt>
      <trkpt lat="30.805442025884986" lon="-5.231233024969697">
        <ele>782.29999999999995</ele>
        <time>2003-04-14T16:06:49Z</time>
      </trkpt>
      <trkpt lat="30.805189982056618" lon="-5.231096986681223">
        <ele>782.20000000000005</ele>
        <time>2003-04-14T16:06:50Z</time>
      </trkpt>
      <trkpt lat="30.804778011515737" lon="-5.231011994183064">
        <ele>782.29999999999995</ele>
        <time>2003-04-14T16:06:53Z</time>
      </trkpt>
      <trkpt lat="30.804414991289377" lon="-5.231026997789741">
        <ele>782.5</ele>
        <time>2003-04-14T16:06:57Z</time>
      </trkpt>
      <trkpt lat="30.804327987134457" lon="-5.231092963367701">
        <ele>782.70000000000005</ele>
        <time>2003-04-14T16:06:57Z</time>
      </trkpt>
      <trkpt lat="30.804137969389558" lon="-5.231192959472537">
        <ele>782.60000000000002</ele>
        <time>2003-04-14T16:07:00Z</time>
      </trkpt>
      <trkpt lat="30.80403202213347" lon="-5.231205029413104">
        <ele>782.70000000000005</ele>
        <time>2003-04-14T16:07:01Z</time>
      </trkpt>
      <trkpt lat="30.803342023864388" lon="-5.231236964464188">
        <ele>782.20000000000005</ele>
        <time>2003-04-14T16:07:08Z</time>
      </trkpt>
      <trkpt lat="30.80323800444603" lon="-5.231209974735975">
        <ele>782.10000000000002</ele>
        <time>2003-04-14T16:07:08Z</time>
      </trkpt>
      <trkpt lat="30.802946984767914" lon="-5.23117502219975">
        <ele>781.39999999999998</ele>
        <time>2003-04-14T16:07:12Z</time>
      </trkpt>
      <trkpt lat="30.802471982315183" lon="-5.231188014149666">
        <ele>781.39999999999998</ele>
        <time>2003-04-14T16:07:16Z</time>
      </trkpt>
      <trkpt lat="30.80156497657299" lon="-5.231311982497573">
        <ele>781.10000000000002</ele>
        <time>2003-04-14T16:07:23Z</time>
      </trkpt>
      <trkpt lat="30.800563003867865" lon="-5.231529995799065">
        <ele>780.79999999999995</ele>
        <time>2003-04-14T16:07:30Z</time>
      </trkpt>
      <trkpt lat="30.800071991980076" lon="-5.231647007167339">
        <ele>780.5</ele>
        <time>2003-04-14T16:07:34Z</time>
      </trkpt>
      <trkpt lat="30.799764962866902" lon="-5.231782961636782">
        <ele>779.5</ele>
        <time>2003-04-14T16:07:36Z</time>
      </trkpt>
      <trkpt lat="30.799527000635862" lon="-5.231984965503216">
        <ele>780.10000000000002</ele>
        <time>2003-04-14T16:07:39Z</time>
      </trkpt>
      <trkpt lat="30.799388028681278" lon="-5.232068030163646">
        <ele>778.89999999999998</ele>
        <time>2003-04-14T16:07:42Z</time>
      </trkpt>
      <trkpt lat="30.799230029806495" lon="-5.232070041820407">
        <ele>779.10000000000002</ele>
        <time>2003-04-14T16:07:43Z</time>
      </trkpt>
      <trkpt lat="30.799073036760092" lon="-5.232038022950292">
        <ele>779</ele>
        <time>2003-04-14T16:07:46Z</time>
      </trkpt>
      <trkpt lat="30.798921994864941" lon="-5.232022013515234">
        <ele>779.10000000000002</ele>
        <time>2003-04-14T16:07:47Z</time>
      </trkpt>
      <trkpt lat="30.798729965463281" lon="-5.232017990201712">
        <ele>779</ele>
        <time>2003-04-14T16:07:50Z</time>
      </trkpt>
      <trkpt lat="30.7984250318259" lon="-5.231968034058809">
        <ele>779</ele>
        <time>2003-04-14T16:07:53Z</time>
      </trkpt>
      <trkpt lat="30.798101993277669" lon="-5.231926962733269">
        <ele>779</ele>
        <time>2003-04-14T16:07:55Z</time>
      </trkpt>
      <trkpt lat="30.797779960557818" lon="-5.231937021017075">
        <ele>778.70000000000005</ele>
        <time>2003-04-14T16:07:58Z</time>
      </trkpt>
      <trkpt lat="30.797494975849986" lon="-5.231954958289862">
        <ele>779.10000000000002</ele>
        <time>2003-04-14T16:08:02Z</time>
      </trkpt>
      <trkpt lat="30.797217031940818" lon="-5.231946995481849">
        <ele>779.10000000000002</ele>
        <time>2003-04-14T16:08:05Z</time>
      </trkpt>
      <trkpt lat="30.796592999249697" lon="-5.231839958578348">
        <ele>779.29999999999995</ele>
        <time>2003-04-14T16:08:10Z</time>
      </trkpt>
      <trkpt lat="30.796205000951886" lon="-5.231752032414079">
        <ele>779.5</ele>
        <time>2003-04-14T16:08:14Z</time>
      </trkpt>
      <trkpt lat="30.795318027958274" lon="-5.231581963598728">
        <ele>779.89999999999998</ele>
        <time>2003-04-14T16:08:20Z</time>
      </trkpt>
      <trkpt lat="30.794621994718909" lon="-5.231408039107919">
        <ele>779.79999999999995</ele>
        <time>2003-04-14T16:08:25Z</time>
      </trkpt>
      <trkpt lat="30.794386966153979" lon="-5.231282981112599">
        <ele>779.60000000000002</ele>
        <time>2003-04-14T16:08:26Z</time>
      </trkpt>
      <trkpt lat="30.793922021985054" lon="-5.231087012216449">
        <ele>779.39999999999998</ele>
        <time>2003-04-14T16:08:30Z</time>
      </trkpt>
      <trkpt lat="30.793790007010102" lon="-5.231077037751675">
        <ele>779.39999999999998</ele>
        <time>2003-04-14T16:08:32Z</time>
      </trkpt>
      <trkpt lat="30.793511979281902" lon="-5.231002019718289">
        <ele>779.60000000000002</ele>
        <time>2003-04-14T16:08:33Z</time>
      </trkpt>
      <trkpt lat="30.793085005134344" lon="-5.230906968936324">
        <ele>779.29999999999995</ele>
        <time>2003-04-14T16:08:37Z</time>
      </trkpt>
      <trkpt lat="30.792619977146387" lon="-5.230928007513285">
        <ele>779.39999999999998</ele>
        <time>2003-04-14T16:08:40Z</time>
      </trkpt>
      <trkpt lat="30.792295010760427" lon="-5.230937981978059">
        <ele>779.39999999999998</ele>
        <time>2003-04-14T16:08:41Z</time>
      </trkpt>
      <trkpt lat="30.791863007470965" lon="-5.23098299279809">
        <ele>779.20000000000005</ele>
        <time>2003-04-14T16:08:45Z</time>
      </trkpt>
      <trkpt lat="30.790918031707406" lon="-5.231147026643157">
        <ele>779</ele>
        <time>2003-04-14T16:08:52Z</time>
      </trkpt>
      <trkpt lat="30.790385026484728" lon="-5.231077959761024">
        <ele>778.60000000000002</ele>
        <time>2003-04-14T16:08:56Z</time>
      </trkpt>
      <trkpt lat="30.790137005969882" lon="-5.231062034144998">
        <ele>778.5</ele>
        <time>2003-04-14T16:08:57Z</time>
      </trkpt>
      <trkpt lat="30.789152970537543" lon="-5.231005037203431">
        <ele>778</ele>
        <time>2003-04-14T16:09:04Z</time>
      </trkpt>
      <trkpt lat="30.788734965026379" lon="-5.230962038040161">
        <ele>777.79999999999995</ele>
        <time>2003-04-14T16:09:08Z</time>
      </trkpt>
      <trkpt lat="30.788472024723887" lon="-5.230858018621802">
        <ele>777.60000000000002</ele>
        <time>2003-04-14T16:09:09Z</time>
      </trkpt>
      <trkpt lat="30.788353001698852" lon="-5.230775037780404">
        <ele>777.60000000000002</ele>
        <time>2003-04-14T16:09:11Z</time>
      </trkpt>
      <trkpt lat="30.788100035861135" lon="-5.230652997270227">
        <ele>777.5</ele>
        <time>2003-04-14T16:09:12Z</time>
      </trkpt>
      <trkpt lat="30.787571975961328" lon="-5.230504972860217">
        <ele>777.29999999999995</ele>
        <time>2003-04-14T16:09:16Z</time>
      </trkpt>
      <trkpt lat="30.787301994860172" lon="-5.230491980910301">
        <ele>776.79999999999995</ele>
        <time>2003-04-14T16:09:19Z</time>
      </trkpt>
      <trkpt lat="30.787030002102256" lon="-5.230545038357377">
        <ele>776.79999999999995</ele>
        <time>2003-04-14T16:09:20Z</time>
      </trkpt>
      <trkpt lat="30.786628006026149" lon="-5.230649979785085">
        <ele>776.60000000000002</ele>
        <time>2003-04-14T16:09:23Z</time>
      </trkpt>
      <trkpt lat="30.786247970536351" lon="-5.230860030278564">
        <ele>776.20000000000005</ele>
        <time>2003-04-14T16:09:27Z</time>
      </trkpt>
      <trkpt lat="30.785411959514022" lon="-5.231544999405742">
        <ele>776</ele>
        <time>2003-04-14T16:09:34Z</time>
      </trkpt>
      <trkpt lat="30.785248009487987" lon="-5.231741974130273">
        <ele>776</ele>
        <time>2003-04-14T16:09:35Z</time>
      </trkpt>
      <trkpt lat="30.7850849814713" lon="-5.232056966051459">
        <ele>776.29999999999995</ele>
        <time>2003-04-14T16:09:39Z</time>
      </trkpt>
      <trkpt lat="30.784947015345097" lon="-5.232261987403035">
        <ele>777</ele>
        <time>2003-04-14T16:09:41Z</time>
      </trkpt>
      <trkpt lat="30.784854982048273" lon="-5.232327030971646">
        <ele>776.89999999999998</ele>
        <time>2003-04-14T16:09:42Z</time>
      </trkpt>
      <trkpt lat="30.784364975988865" lon="-5.232664989307523">
        <ele>776.89999999999998</ele>
        <time>2003-04-14T16:09:47Z</time>
      </trkpt>
      <trkpt lat="30.78426799736917" lon="-5.232734978199005">
        <ele>776.29999999999995</ele>
        <time>2003-04-14T16:09:50Z</time>
      </trkpt>
      <trkpt lat="30.784155009314418" lon="-5.232772026211023">
        <ele>776.5</ele>
        <time>2003-04-14T16:09:53Z</time>
      </trkpt>
      <trkpt lat="30.783974966034293" lon="-5.232806978747249">
        <ele>776.39999999999998</ele>
        <time>2003-04-14T16:09:54Z</time>
      </trkpt>
      <trkpt lat="30.783783020451665" lon="-5.232817959040403">
        <ele>776</ele>
        <time>2003-04-14T16:09:57Z</time>
      </trkpt>
      <trkpt lat="30.783591996878386" lon="-5.232860036194325">
        <ele>775.89999999999998</ele>
        <time>2003-04-14T16:09:58Z</time>
      </trkpt>
      <trkpt lat="30.783440032973886" lon="-5.232928013429046">
        <ele>776</ele>
        <time>2003-04-14T16:10:01Z</time>
      </trkpt>
      <trkpt lat="30.783317992463708" lon="-5.232952991500497">
        <ele>776.10000000000002</ele>
        <time>2003-04-14T16:10:02Z</time>
      </trkpt>
      <trkpt lat="30.783227970823646" lon="-5.232949974015355">
        <ele>775.79999999999995</ele>
        <time>2003-04-14T16:10:05Z</time>
      </trkpt>
      <trkpt lat="30.783125041052699" lon="-5.232898006215692">
        <ele>775.5</ele>
        <time>2003-04-14T16:10:08Z</time>
      </trkpt>
      <trkpt lat="30.783027978613973" lon="-5.232846960425377">
        <ele>774.89999999999998</ele>
        <time>2003-04-14T16:10:12Z</time>
      </trkpt>
      <trkpt lat="30.782929994165897" lon="-5.232802033424377">
        <ele>774.79999999999995</ele>
        <time>2003-04-14T16:10:14Z</time>
      </trkpt>
      <trkpt lat="30.782829998061061" lon="-5.23280999623239">
        <ele>775.10000000000002</ele>
        <time>2003-04-14T16:10:17Z</time>
      </trkpt>
      <trkpt lat="30.782702006399632" lon="-5.232858024537563">
        <ele>774.79999999999995</ele>
        <time>2003-04-14T16:10:18Z</time>
      </trkpt>
      <trkpt lat="30.782579965889454" lon="-5.232883002609015">
        <ele>775</ele>
        <time>2003-04-14T16:10:21Z</time>
      </trkpt>
      <trkpt lat="30.782460020855069" lon="-5.232921978458762">
        <ele>775</ele>
        <time>2003-04-14T16:10:22Z</time>
      </trkpt>
      <trkpt lat="30.78231300227344" lon="-5.232988027855754">
        <ele>775</ele>
        <time>2003-04-14T16:10:25Z</time>
      </trkpt>
      <trkpt lat="30.782058024778962" lon="-5.2331099845469">
        <ele>774.89999999999998</ele>
        <time>2003-04-14T16:10:28Z</time>
      </trkpt>
      <trkpt lat="30.781715037301183" lon="-5.233205035328865">
        <ele>774.5</ele>
        <time>2003-04-14T16:10:32Z</time>
      </trkpt>
      <trkpt lat="30.781508004292846" lon="-5.233248034492135">
        <ele>774.29999999999995</ele>
        <time>2003-04-14T16:10:33Z</time>
      </trkpt>
      <trkpt lat="30.780826974660158" lon="-5.23345498368144">
        <ele>774.10000000000002</ele>
        <time>2003-04-14T16:10:40Z</time>
      </trkpt>
      <trkpt lat="30.779903037473559" lon="-5.233807023614645">
        <ele>773.70000000000005</ele>
        <time>2003-04-14T16:10:48Z</time>
      </trkpt>
      <trkpt lat="30.778959989547729" lon="-5.234008021652699">
        <ele>773.70000000000005</ele>
        <time>2003-04-14T16:10:56Z</time>
      </trkpt>
      <trkpt lat="30.778371999040246" lon="-5.234065018594265">
        <ele>773.70000000000005</ele>
        <time>2003-04-14T16:11:00Z</time>
      </trkpt>
      <trkpt lat="30.777979977428913" lon="-5.234048003330827">
        <ele>773.60000000000002</ele>
        <time>2003-04-14T16:11:04Z</time>
      </trkpt>
      <trkpt lat="30.777888027951121" lon="-5.234086979180574">
        <ele>773.70000000000005</ele>
        <time>2003-04-14T16:11:06Z</time>
      </trkpt>
      <trkpt lat="30.777797000482678" lon="-5.234105000272393">
        <ele>773.89999999999998</ele>
        <time>2003-04-14T16:11:07Z</time>
      </trkpt>
      <trkpt lat="30.777540011331439" lon="-5.234132995828986">
        <ele>773.89999999999998</ele>
        <time>2003-04-14T16:11:10Z</time>
      </trkpt>
      <trkpt lat="30.77730699442327" lon="-5.234178006649017">
        <ele>773.5</ele>
        <time>2003-04-14T16:11:12Z</time>
      </trkpt>
      <trkpt lat="30.777041958644986" lon="-5.234342962503433">
        <ele>773.10000000000002</ele>
        <time>2003-04-14T16:11:16Z</time>
      </trkpt>
      <trkpt lat="30.776974987238646" lon="-5.234495010226965">
        <ele>772.5</ele>
        <time>2003-04-14T16:11:19Z</time>
      </trkpt>
      <trkpt lat="30.776932993903756" lon="-5.234646974131465">
        <ele>773.20000000000005</ele>
        <time>2003-04-14T16:11:20Z</time>
      </trkpt>
      <trkpt lat="30.776882031932473" lon="-5.234774965792894">
        <ele>773</ele>
        <time>2003-04-14T16:11:23Z</time>
      </trkpt>
      <trkpt lat="30.776654966175556" lon="-5.2352150157094">
        <ele>773.39999999999998</ele>
        <time>2003-04-14T16:11:30Z</time>
      </trkpt>
      <trkpt lat="30.776562010869384" lon="-5.235358010977507">
        <ele>773.29999999999995</ele>
        <time>2003-04-14T16:11:31Z</time>
      </trkpt>
      <trkpt lat="30.776493027806282" lon="-5.235552974045277">
        <ele>773.5</ele>
        <time>2003-04-14T16:11:34Z</time>
      </trkpt>
      <trkpt lat="30.776478024199605" lon="-5.235675014555454">
        <ele>773.29999999999995</ele>
        <time>2003-04-14T16:11:34Z</time>
      </trkpt>
      <trkpt lat="30.776480035856366" lon="-5.235803006216884">
        <ele>773.39999999999998</ele>
        <time>2003-04-14T16:11:35Z</time>
      </trkpt>
      <trkpt lat="30.776463020592928" lon="-5.23635202087462">
        <ele>774.20000000000005</ele>
        <time>2003-04-14T16:11:39Z</time>
      </trkpt>
      <trkpt lat="30.776271997019649" lon="-5.237521966919303">
        <ele>774.5</ele>
        <time>2003-04-14T16:11:47Z</time>
      </trkpt>
      <trkpt lat="30.776002015918493" lon="-5.238542966544628">
        <ele>774.29999999999995</ele>
        <time>2003-04-14T16:11:54Z</time>
      </trkpt>
      <trkpt lat="30.775588033720851" lon="-5.239600008353591">
        <ele>774.5</ele>
        <time>2003-04-14T16:12:01Z</time>
      </trkpt>
      <trkpt lat="30.775306988507509" lon="-5.240647997707129">
        <ele>774.79999999999995</ele>
        <time>2003-04-14T16:12:08Z</time>
      </trkpt>
      <trkpt lat="30.775176985189319" lon="-5.241291979327798">
        <ele>775</ele>
        <time>2003-04-14T16:12:12Z</time>
      </trkpt>
      <trkpt lat="30.775110013782978" lon="-5.24166296236217">
        <ele>774.89999999999998</ele>
        <time>2003-04-14T16:12:14Z</time>
      </trkpt>
      <trkpt lat="30.775089981034398" lon="-5.241794977337122">
        <ele>774.89999999999998</ele>
        <time>2003-04-14T16:12:17Z</time>
      </trkpt>
      <trkpt lat="30.775153012946248" lon="-5.241902014240623">
        <ele>775</ele>
        <time>2003-04-14T16:12:18Z</time>
      </trkpt>
      <trkpt lat="30.77528796158731" lon="-5.241972003132105">
        <ele>775.10000000000002</ele>
        <time>2003-04-14T16:12:21Z</time>
      </trkpt>
      <trkpt lat="30.775407990440726" lon="-5.24204702116549">
        <ele>775.20000000000005</ele>
        <time>2003-04-14T16:12:23Z</time>
      </trkpt>
      <trkpt lat="30.775568000972271" lon="-5.242157997563481">
        <ele>775.70000000000005</ele>
        <time>2003-04-14T16:12:25Z</time>
      </trkpt>
      <trkpt lat="30.77601701952517" lon="-5.242514982819557">
        <ele>776.89999999999998</ele>
        <time>2003-04-14T16:12:33Z</time>
      </trkpt>
      <trkpt lat="30.776202008128166" lon="-5.242740036919713">
        <ele>777.29999999999995</ele>
        <time>2003-04-14T16:12:36Z</time>
      </trkpt>
      <trkpt lat="30.776378028094769" lon="-5.243002977222204">
        <ele>777.89999999999998</ele>
        <time>2003-04-14T16:12:40Z</time>
      </trkpt>
      <trkpt lat="30.776467965915799" lon="-5.243132980540395">
        <ele>778.29999999999995</ele>
        <time>2003-04-14T16:12:41Z</time>
      </trkpt>
      <trkpt lat="30.776501996442676" lon="-5.243274969980121">
        <ele>778.29999999999995</ele>
        <time>2003-04-14T16:12:44Z</time>
      </trkpt>
      <trkpt lat="30.776482969522476" lon="-5.243447972461581">
        <ele>778.70000000000005</ele>
        <time>2003-04-14T16:12:45Z</time>
      </trkpt>
      <trkpt lat="30.776475006714463" lon="-5.243657017126679">
        <ele>778.89999999999998</ele>
        <time>2003-04-14T16:12:48Z</time>
      </trkpt>
      <trkpt lat="30.776452040299773" lon="-5.243760030716658">
        <ele>779.20000000000005</ele>
        <time>2003-04-14T16:12:48Z</time>
      </trkpt>
      <trkpt lat="30.776402000337839" lon="-5.243858015164733">
        <ele>779.20000000000005</ele>
        <time>2003-04-14T16:12:50Z</time>
      </trkpt>
      <trkpt lat="30.776371993124485" lon="-5.243960022926331">
        <ele>779.29999999999995</ele>
        <time>2003-04-14T16:12:51Z</time>
      </trkpt>
      <trkpt lat="30.776377022266388" lon="-5.244173007085919">
        <ele>779</ele>
        <time>2003-04-14T16:12:52Z</time>
      </trkpt>
      <trkpt lat="30.776405017822981" lon="-5.244278032332659">
        <ele>778.79999999999995</ele>
        <time>2003-04-14T16:12:54Z</time>
      </trkpt>
      <trkpt lat="30.776412980630994" lon="-5.244396971538663">
        <ele>778.89999999999998</ele>
        <time>2003-04-14T16:12:55Z</time>
      </trkpt>
      <trkpt lat="30.776465032249689" lon="-5.244808020070195">
        <ele>778.5</ele>
        <time>2003-04-14T16:12:59Z</time>
      </trkpt>
      <trkpt lat="30.776547007262707" lon="-5.245089987292886">
        <ele>778.29999999999995</ele>
        <time>2003-04-14T16:13:02Z</time>
      </trkpt>
      <trkpt lat="30.777272041887045" lon="-5.249882005155087">
        <ele>-236.80000000000001</ele>
        <time>2003-04-14T16:14:33Z</time>
      </trkpt>
      <trkpt lat="30.777186965569854" lon="-5.249982001259923">
        <ele>787.60000000000002</ele>
        <time>2003-04-14T16:14:39Z</time>
      </trkpt>
      <trkpt lat="30.777070038020611" lon="-5.250058025121689">
        <ele>788.79999999999995</ele>
        <time>2003-04-14T16:14:42Z</time>
      </trkpt>
      <trkpt lat="30.776968030259013" lon="-5.250124996528029">
        <ele>789.39999999999998</ele>
        <time>2003-04-14T16:14:43Z</time>
      </trkpt>
      <trkpt lat="30.776874991133809" lon="-5.250230021774769">
        <ele>788.70000000000005</ele>
        <time>2003-04-14T16:14:46Z</time>
      </trkpt>
      <trkpt lat="30.776696959510446" lon="-5.250492040067911">
        <ele>788.89999999999998</ele>
        <time>2003-04-14T16:14:51Z</time>
      </trkpt>
      <trkpt lat="30.776556981727481" lon="-5.2507050242275">
        <ele>788.39999999999998</ele>
        <time>2003-04-14T16:14:55Z</time>
      </trkpt>
      <trkpt lat="30.776390014216304" lon="-5.250863023102284">
        <ele>788.20000000000005</ele>
        <time>2003-04-14T16:15:03Z</time>
      </trkpt>
      <trkpt lat="30.776278031989932" lon="-5.250878026708961">
        <ele>788.39999999999998</ele>
        <time>2003-04-14T16:15:07Z</time>
      </trkpt>
      <trkpt lat="30.776117015630007" lon="-5.251008030027151">
        <ele>787</ele>
        <time>2003-04-14T16:15:54Z</time>
      </trkpt>
      <trkpt lat="30.776107963174582" lon="-5.251125041395426">
        <ele>787.39999999999998</ele>
        <time>2003-04-14T16:15:57Z</time>
      </trkpt>
      <trkpt lat="30.776000004261732" lon="-5.251196958124638">
        <ele>787.60000000000002</ele>
        <time>2003-04-14T16:16:01Z</time>
      </trkpt>
      <trkpt lat="30.775782996788621" lon="-5.251322016119957">
        <ele>788.10000000000002</ele>
        <time>2003-04-14T16:16:04Z</time>
      </trkpt>
      <trkpt lat="30.775607982650399" lon="-5.251456964761019">
        <ele>788.79999999999995</ele>
        <time>2003-04-14T16:16:08Z</time>
      </trkpt>
      <trkpt lat="30.775519972667098" lon="-5.251583028584719">
        <ele>788.79999999999995</ele>
        <time>2003-04-14T16:16:09Z</time>
      </trkpt>
      <trkpt lat="30.775476973503828" lon="-5.251752007752657">
        <ele>789.20000000000005</ele>
        <time>2003-04-14T16:16:12Z</time>
      </trkpt>
      <trkpt lat="30.775427017360926" lon="-5.252051996067166">
        <ele>790.20000000000005</ele>
        <time>2003-04-14T16:16:15Z</time>
      </trkpt>
      <trkpt lat="30.77537203207612" lon="-5.25223296135664">
        <ele>790.79999999999995</ele>
        <time>2003-04-14T16:16:16Z</time>
      </trkpt>
      <trkpt lat="30.775195006281137" lon="-5.252712992951274">
        <ele>792.89999999999998</ele>
        <time>2003-04-14T16:16:23Z</time>
      </trkpt>
      <trkpt lat="30.775091992691159" lon="-5.252863029018045">
        <ele>793.29999999999995</ele>
        <time>2003-04-14T16:16:26Z</time>
      </trkpt>
      <trkpt lat="30.775034995749593" lon="-5.252965036779642">
        <ele>793.39999999999998</ele>
        <time>2003-04-14T16:16:30Z</time>
      </trkpt>
      <trkpt lat="30.77498503960669" lon="-5.253077019006014">
        <ele>789.5</ele>
        <time>2003-04-14T16:19:08Z</time>
      </trkpt>
      <trkpt lat="30.775023009628057" lon="-5.253184977918863">
        <ele>788.89999999999998</ele>
        <time>2003-04-14T16:19:18Z</time>
      </trkpt>
      <trkpt lat="30.774919996038079" lon="-5.2532849740237">
        <ele>787.20000000000005</ele>
        <time>2003-04-14T16:19:44Z</time>
      </trkpt>
      <trkpt lat="30.774817988276482" lon="-5.253286985680461">
        <ele>787</ele>
        <time>2003-04-14T16:19:51Z</time>
      </trkpt>
      <trkpt lat="30.774716986343265" lon="-5.253247004002333">
        <ele>785.5</ele>
        <time>2003-04-14T16:19:56Z</time>
      </trkpt>
      <trkpt lat="30.774611961096525" lon="-5.25322001427412">
        <ele>783.89999999999998</ele>
        <time>2003-04-14T16:20:00Z</time>
      </trkpt>
      <trkpt lat="30.774407023563981" lon="-5.253193024545908">
        <ele>782.89999999999998</ele>
        <time>2003-04-14T16:20:07Z</time>
      </trkpt>
      <trkpt lat="30.774278026074171" lon="-5.2531330101192">
        <ele>783.20000000000005</ele>
        <time>2003-04-14T16:20:12Z</time>
      </trkpt>
      <trkpt lat="30.774007961153984" lon="-5.253080036491156">
        <ele>784.5</ele>
        <time>2003-04-14T16:20:20Z</time>
      </trkpt>
      <trkpt lat="30.773732028901577" lon="-5.253071989864111">
        <ele>783.60000000000002</ele>
        <time>2003-04-14T16:20:29Z</time>
      </trkpt>
      <trkpt lat="30.773657010868192" lon="-5.253186989575625">
        <ele>786.29999999999995</ele>
        <time>2003-04-14T16:21:29Z</time>
      </trkpt>
      <trkpt lat="30.773636978119612" lon="-5.253307018429041">
        <ele>785.39999999999998</ele>
        <time>2003-04-14T16:25:01Z</time>
      </trkpt>
      <trkpt lat="30.773647958412766" lon="-5.253461999818683">
        <ele>785.60000000000002</ele>
        <time>2003-04-14T16:25:04Z</time>
      </trkpt>
      <trkpt lat="30.773652987554669" lon="-5.253727035596967">
        <ele>785.5</ele>
        <time>2003-04-14T16:25:07Z</time>
      </trkpt>
      <trkpt lat="30.773657010868192" lon="-5.254243025556207">
        <ele>785.5</ele>
        <time>2003-04-14T16:25:12Z</time>
      </trkpt>
      <trkpt lat="30.773681988939643" lon="-5.254432959482074">
        <ele>785.5</ele>
        <time>2003-04-14T16:25:13Z</time>
      </trkpt>
      <trkpt lat="30.773670002818108" lon="-5.254618031904101">
        <ele>785.89999999999998</ele>
        <time>2003-04-14T16:25:16Z</time>
      </trkpt>
      <trkpt lat="30.773647958412766" lon="-5.254872003570199">
        <ele>786</ele>
        <time>2003-04-14T16:25:20Z</time>
      </trkpt>
      <trkpt lat="30.773687018081546" lon="-5.255041988566518">
        <ele>786.20000000000005</ele>
        <time>2003-04-14T16:25:20Z</time>
      </trkpt>
      <trkpt lat="30.773764969781041" lon="-5.255214991047978">
        <ele>785.29999999999995</ele>
        <time>2003-04-14T16:25:24Z</time>
      </trkpt>
      <trkpt lat="30.773918023332953" lon="-5.255572982132435">
        <ele>785.5</ele>
        <time>2003-04-14T16:25:28Z</time>
      </trkpt>
      <trkpt lat="30.773921962827444" lon="-5.255678007379174">
        <ele>786.20000000000005</ele>
        <time>2003-04-14T16:25:28Z</time>
      </trkpt>
      <trkpt lat="30.773951970040798" lon="-5.256037004292011">
        <ele>788.5</ele>
        <time>2003-04-14T16:25:32Z</time>
      </trkpt>
      <trkpt lat="30.774022964760661" lon="-5.256167007610202">
        <ele>790.20000000000005</ele>
        <time>2003-04-14T16:25:35Z</time>
      </trkpt>
      <trkpt lat="30.774118015542626" lon="-5.256331963464618">
        <ele>790.39999999999998</ele>
        <time>2003-04-14T16:25:36Z</time>
      </trkpt>
      <trkpt lat="30.774312978610396" lon="-5.256717028096318">
        <ele>791</ele>
        <time>2003-04-14T16:25:42Z</time>
      </trkpt>
      <trkpt lat="30.774452034384012" lon="-5.257284985855222">
        <ele>791</ele>
        <time>2003-04-14T16:25:48Z</time>
      </trkpt>
      <trkpt lat="30.774486986920238" lon="-5.257571982219815">
        <ele>790.89999999999998</ele>
        <time>2003-04-14T16:25:51Z</time>
      </trkpt>
      <trkpt lat="30.774484975263476" lon="-5.257720006629825">
        <ele>791</ele>
        <time>2003-04-14T16:25:54Z</time>
      </trkpt>
      <trkpt lat="30.774482963606715" lon="-5.257904995232821">
        <ele>790.89999999999998</ele>
        <time>2003-04-14T16:25:57Z</time>
      </trkpt>
      <trkpt lat="30.774499978870153" lon="-5.25818201713264">
        <ele>791.10000000000002</ele>
        <time>2003-04-14T16:26:01Z</time>
      </trkpt>
      <trkpt lat="30.774482041597366" lon="-5.258368011564016">
        <ele>791</ele>
        <time>2003-04-14T16:26:02Z</time>
      </trkpt>
      <trkpt lat="30.774447005242109" lon="-5.258587030693889">
        <ele>791.20000000000005</ele>
        <time>2003-04-14T16:26:05Z</time>
      </trkpt>
      <trkpt lat="30.774380033835769" lon="-5.259351963177323">
        <ele>791.10000000000002</ele>
        <time>2003-04-14T16:26:11Z</time>
      </trkpt>
      <trkpt lat="30.77436301857233" lon="-5.259654968976975">
        <ele>791.20000000000005</ele>
        <time>2003-04-14T16:26:14Z</time>
      </trkpt>
      <trkpt lat="30.774265034124255" lon="-5.260329963639379">
        <ele>791.70000000000005</ele>
        <time>2003-04-14T16:26:21Z</time>
      </trkpt>
      <trkpt lat="30.774108041077852" lon="-5.261471997946501">
        <ele>793.10000000000002</ele>
        <time>2003-04-14T16:26:29Z</time>
      </trkpt>
      <trkpt lat="30.773945013061166" lon="-5.262572038918734">
        <ele>793.60000000000002</ele>
        <time>2003-04-14T16:26:38Z</time>
      </trkpt>
      <trkpt lat="30.773779973387718" lon="-5.263641988858581">
        <ele>795.10000000000002</ele>
        <time>2003-04-14T16:26:48Z</time>
      </trkpt>
      <trkpt lat="30.773615017533302" lon="-5.264772037044168">
        <ele>795.39999999999998</ele>
        <time>2003-04-14T16:26:56Z</time>
      </trkpt>
      <trkpt lat="30.773590039461851" lon="-5.265151988714933">
        <ele>796.20000000000005</ele>
        <time>2003-04-14T16:27:00Z</time>
      </trkpt>
      <trkpt lat="30.773633038625121" lon="-5.265526995062828">
        <ele>796.10000000000002</ele>
        <time>2003-04-14T16:27:03Z</time>
      </trkpt>
      <trkpt lat="30.773721970617771" lon="-5.26641002856195">
        <ele>795.5</ele>
        <time>2003-04-14T16:27:09Z</time>
      </trkpt>
      <trkpt lat="30.773737980052829" lon="-5.266586970537901">
        <ele>795.20000000000005</ele>
        <time>2003-04-14T16:27:12Z</time>
      </trkpt>
      <trkpt lat="30.773811992257833" lon="-5.266727032139897">
        <ele>795.60000000000002</ele>
        <time>2003-04-14T16:27:14Z</time>
      </trkpt>
      <trkpt lat="30.773877035826445" lon="-5.266806995496154">
        <ele>795</ele>
        <time>2003-04-14T16:27:15Z</time>
      </trkpt>
      <trkpt lat="30.773958005011082" lon="-5.266876984387636">
        <ele>794.39999999999998</ele>
        <time>2003-04-14T16:27:16Z</time>
      </trkpt>
      <trkpt lat="30.774047020822763" lon="-5.266919983550906">
        <ele>795.10000000000002</ele>
        <time>2003-04-14T16:27:16Z</time>
      </trkpt>
      <trkpt lat="30.774160008877516" lon="-5.266979997977614">
        <ele>795.29999999999995</ele>
        <time>2003-04-14T16:27:19Z</time>
      </trkpt>
      <trkpt lat="30.774371987208724" lon="-5.267155012115836">
        <ele>795.10000000000002</ele>
        <time>2003-04-14T16:27:23Z</time>
      </trkpt>
      <trkpt lat="30.774408029392362" lon="-5.267342012375593">
        <ele>795.70000000000005</ele>
        <time>2003-04-14T16:27:24Z</time>
      </trkpt>
      <trkpt lat="30.774420015513897" lon="-5.267536975443363">
        <ele>795.5</ele>
        <time>2003-04-14T16:27:27Z</time>
      </trkpt>
      <trkpt lat="30.774597963318229" lon="-5.268395030871034">
        <ele>796.79999999999995</ele>
        <time>2003-04-14T16:27:35Z</time>
      </trkpt>
      <trkpt lat="30.7745770085603" lon="-5.268497038632631">
        <ele>796.39999999999998</ele>
        <time>2003-04-14T16:27:36Z</time>
      </trkpt>
      <trkpt lat="30.774527974426746" lon="-5.268783029168844">
        <ele>796.79999999999995</ele>
        <time>2003-04-14T16:27:39Z</time>
      </trkpt>
      <trkpt lat="30.774499978870153" lon="-5.268965000286698">
        <ele>796.70000000000005</ele>
        <time>2003-04-14T16:27:42Z</time>
      </trkpt>
      <trkpt lat="30.774482041597366" lon="-5.269149988889694">
        <ele>796.89999999999998</ele>
        <time>2003-04-14T16:27:43Z</time>
      </trkpt>
      <trkpt lat="30.774465026333928" lon="-5.269328020513058">
        <ele>797.20000000000005</ele>
        <time>2003-04-14T16:27:46Z</time>
      </trkpt>
      <trkpt lat="30.774441976100206" lon="-5.269667990505695">
        <ele>797.60000000000002</ele>
        <time>2003-04-14T16:27:50Z</time>
      </trkpt>
      <trkpt lat="30.774411968886852" lon="-5.269836969673634">
        <ele>796.89999999999998</ele>
        <time>2003-04-14T16:27:51Z</time>
      </trkpt>
      <trkpt lat="30.774324964731932" lon="-5.269982982426882">
        <ele>797.20000000000005</ele>
        <time>2003-04-14T16:27:54Z</time>
      </trkpt>
      <trkpt lat="30.774182975292206" lon="-5.270232008770108">
        <ele>797.60000000000002</ele>
        <time>2003-04-14T16:27:57Z</time>
      </trkpt>
      <trkpt lat="30.774162020534277" lon="-5.270335022360086">
        <ele>798.10000000000002</ele>
        <time>2003-04-14T16:27:58Z</time>
      </trkpt>
      <trkpt lat="30.7741470169276" lon="-5.270542977377772">
        <ele>800.29999999999995</ele>
        <time>2003-04-14T16:27:59Z</time>
      </trkpt>
      <trkpt lat="30.774124972522259" lon="-5.270646996796131">
        <ele>801.39999999999998</ele>
        <time>2003-04-14T16:28:01Z</time>
      </trkpt>
      <trkpt lat="30.774026988074183" lon="-5.271204980090261">
        <ele>803.60000000000002</ele>
        <time>2003-04-14T16:28:06Z</time>
      </trkpt>
      <trkpt lat="30.773967979475856" lon="-5.271534975618124">
        <ele>804.79999999999995</ele>
        <time>2003-04-14T16:28:09Z</time>
      </trkpt>
      <trkpt lat="30.773922968655825" lon="-5.271645030006766">
        <ele>805.39999999999998</ele>
        <time>2003-04-14T16:28:10Z</time>
      </trkpt>
      <trkpt lat="30.773575035855174" lon="-5.272422032430768">
        <ele>809.20000000000005</ele>
        <time>2003-04-14T16:28:17Z</time>
      </trkpt>
      <trkpt lat="30.773489959537983" lon="-5.272652031853795">
        <ele>810</ele>
        <time>2003-04-14T16:28:18Z</time>
      </trkpt>
      <trkpt lat="30.773458024486899" lon="-5.272874990478158">
        <ele>810.89999999999998</ele>
        <time>2003-04-14T16:28:21Z</time>
      </trkpt>
      <trkpt lat="30.773419970646501" lon="-5.273027960211039">
        <ele>812.10000000000002</ele>
        <time>2003-04-14T16:28:22Z</time>
      </trkpt>
      <trkpt lat="30.773394992575049" lon="-5.273210015147924">
        <ele>812.5</ele>
        <time>2003-04-14T16:28:25Z</time>
      </trkpt>
      <trkpt lat="30.773413013666868" lon="-5.273317974060774">
        <ele>812.79999999999995</ele>
        <time>2003-04-14T16:28:25Z</time>
      </trkpt>
      <trkpt lat="30.773409996181726" lon="-5.273427022621036">
        <ele>813.20000000000005</ele>
        <time>2003-04-14T16:28:26Z</time>
      </trkpt>
      <trkpt lat="30.773392980918288" lon="-5.273537999019027">
        <ele>813.29999999999995</ele>
        <time>2003-04-14T16:28:28Z</time>
      </trkpt>
      <trkpt lat="30.773336989805102" lon="-5.27376196347177">
        <ele>813.5</ele>
        <time>2003-04-14T16:28:29Z</time>
      </trkpt>
      <trkpt lat="30.773028032854199" lon="-5.274807019159198">
        <ele>813.60000000000002</ele>
        <time>2003-04-14T16:28:39Z</time>
      </trkpt>
      <trkpt lat="30.773010011762381" lon="-5.275031989440322">
        <ele>813.70000000000005</ele>
        <time>2003-04-14T16:28:40Z</time>
      </trkpt>
      <trkpt lat="30.773008000105619" lon="-5.275313034653664">
        <ele>814.10000000000002</ele>
        <time>2003-04-14T16:28:44Z</time>
      </trkpt>
      <trkpt lat="30.772980004549026" lon="-5.27549802325666">
        <ele>813.89999999999998</ele>
        <time>2003-04-14T16:28:45Z</time>
      </trkpt>
      <trkpt lat="30.772937005385756" lon="-5.275630038231611">
        <ele>814.29999999999995</ele>
        <time>2003-04-14T16:28:48Z</time>
      </trkpt>
      <trkpt lat="30.77290004119277" lon="-5.275730034336448">
        <ele>814.5</ele>
        <time>2003-04-14T16:28:49Z</time>
      </trkpt>
      <trkpt lat="30.77288000844419" lon="-5.27584201656282">
        <ele>814.70000000000005</ele>
        <time>2003-04-14T16:28:52Z</time>
      </trkpt>
      <trkpt lat="30.772891994565725" lon="-5.276007978245616">
        <ele>815.20000000000005</ele>
        <time>2003-04-14T16:28:56Z</time>
      </trkpt>
      <trkpt lat="30.772917978465557" lon="-5.276366975158453">
        <ele>816.89999999999998</ele>
        <time>2003-04-14T16:29:00Z</time>
      </trkpt>
      <trkpt lat="30.772919990122318" lon="-5.276545006781817">
        <ele>817.89999999999998</ele>
        <time>2003-04-14T16:29:03Z</time>
      </trkpt>
      <trkpt lat="30.772906998172402" lon="-5.276744998991489">
        <ele>818.5</ele>
        <time>2003-04-14T16:29:04Z</time>
      </trkpt>
      <trkpt lat="30.772842960432172" lon="-5.277035012841225">
        <ele>819.60000000000002</ele>
        <time>2003-04-14T16:29:07Z</time>
      </trkpt>
      <trkpt lat="30.772797027602792" lon="-5.277129979804158">
        <ele>819.79999999999995</ele>
        <time>2003-04-14T16:29:08Z</time>
      </trkpt>
      <trkpt lat="30.772767020389438" lon="-5.277235005050898">
        <ele>820</ele>
        <time>2003-04-14T16:29:10Z</time>
      </trkpt>
      <trkpt lat="30.772762997075915" lon="-5.277344975620508">
        <ele>820.60000000000002</ele>
        <time>2003-04-14T16:29:11Z</time>
      </trkpt>
      <trkpt lat="30.772727038711309" lon="-5.277557959780097">
        <ele>822.79999999999995</ele>
        <time>2003-04-14T16:29:12Z</time>
      </trkpt>
      <trkpt lat="30.772474994882941" lon="-5.278362035751343">
        <ele>827.29999999999995</ele>
        <time>2003-04-14T16:29:20Z</time>
      </trkpt>
      <trkpt lat="30.772367035970092" lon="-5.278526991605759">
        <ele>828.39999999999998</ele>
        <time>2003-04-14T16:29:23Z</time>
      </trkpt>
      <trkpt lat="30.772222029045224" lon="-5.278633022680879">
        <ele>829.5</ele>
        <time>2003-04-14T16:29:24Z</time>
      </trkpt>
      <trkpt lat="30.771945007145405" lon="-5.278832009062171">
        <ele>830.39999999999998</ele>
        <time>2003-04-14T16:29:29Z</time>
      </trkpt>
      <trkpt lat="30.771812992170453" lon="-5.27891700156033">
        <ele>831.20000000000005</ele>
        <time>2003-04-14T16:29:31Z</time>
      </trkpt>
      <trkpt lat="30.771687012165785" lon="-5.279016997665167">
        <ele>831.39999999999998</ele>
        <time>2003-04-14T16:29:33Z</time>
      </trkpt>
      <trkpt lat="30.771609982475638" lon="-5.279071982949972">
        <ele>832.20000000000005</ele>
        <time>2003-04-14T16:29:34Z</time>
      </trkpt>
      <trkpt lat="30.771513003855944" lon="-5.279141971841455">
        <ele>832.29999999999995</ele>
        <time>2003-04-14T16:29:38Z</time>
      </trkpt>
      <trkpt lat="30.771415019407868" lon="-5.279232999309897">
        <ele>832.60000000000002</ele>
        <time>2003-04-14T16:29:39Z</time>
      </trkpt>
      <trkpt lat="30.77126800082624" lon="-5.279408013448119">
        <ele>833.60000000000002</ele>
        <time>2003-04-14T16:29:42Z</time>
      </trkpt>
      <trkpt lat="30.771209998056293" lon="-5.279508009552956">
        <ele>834.5</ele>
        <time>2003-04-14T16:29:46Z</time>
      </trkpt>
      <trkpt lat="30.771136991679668" lon="-5.27964698150754">
        <ele>835.39999999999998</ele>
        <time>2003-04-14T16:29:50Z</time>
      </trkpt>
      <trkpt lat="30.771094998344779" lon="-5.279782013967633">
        <ele>836</ele>
        <time>2003-04-14T16:29:53Z</time>
      </trkpt>
      <trkpt lat="30.771017968654633" lon="-5.280130030587316">
        <ele>837.89999999999998</ele>
        <time>2003-04-14T16:30:00Z</time>
      </trkpt>
      <trkpt lat="30.771031966432929" lon="-5.2802499756217">
        <ele>838.5</ele>
        <time>2003-04-14T16:30:01Z</time>
      </trkpt>
      <trkpt lat="30.771028026938438" lon="-5.280362963676453">
        <ele>839.10000000000002</ele>
        <time>2003-04-14T16:30:04Z</time>
      </trkpt>
      <trkpt lat="30.770949991419911" lon="-5.28044200502336">
        <ele>839.29999999999995</ele>
        <time>2003-04-14T16:30:05Z</time>
      </trkpt>
      <trkpt lat="30.770886959508061" lon="-5.280543006956577">
        <ele>839.5</ele>
        <time>2003-04-14T16:30:08Z</time>
      </trkpt>
      <trkpt lat="30.770880002528429" lon="-5.280692037194967">
        <ele>839.89999999999998</ele>
        <time>2003-04-14T16:30:09Z</time>
      </trkpt>
      <trkpt lat="30.770846977829933" lon="-5.280822040513158">
        <ele>840.5</ele>
        <time>2003-04-14T16:30:12Z</time>
      </trkpt>
      <trkpt lat="30.770846977829933" lon="-5.280932011082768">
        <ele>840.89999999999998</ele>
        <time>2003-04-14T16:30:13Z</time>
      </trkpt>
      <trkpt lat="30.770870028063655" lon="-5.281272986903787">
        <ele>840.89999999999998</ele>
        <time>2003-04-14T16:30:18Z</time>
      </trkpt>
      <trkpt lat="30.77081797644496" lon="-5.281422017142177">
        <ele>841</ele>
        <time>2003-04-14T16:30:21Z</time>
      </trkpt>
      <trkpt lat="30.770780006423593" lon="-5.281593007966876">
        <ele>841.10000000000002</ele>
        <time>2003-04-14T16:30:23Z</time>
      </trkpt>
      <trkpt lat="30.770698031410575" lon="-5.281940018758178">
        <ele>841</ele>
        <time>2003-04-14T16:30:27Z</time>
      </trkpt>
      <trkpt lat="30.770593006163836" lon="-5.282097011804581">
        <ele>840.70000000000005</ele>
        <time>2003-04-14T16:30:28Z</time>
      </trkpt>
      <trkpt lat="30.770263010635972" lon="-5.282498002052307">
        <ele>837.29999999999995</ele>
        <time>2003-04-14T16:30:33Z</time>
      </trkpt>
      <trkpt lat="30.770175000652671" lon="-5.282705035060644">
        <ele>836.20000000000005</ele>
        <time>2003-04-14T16:30:36Z</time>
      </trkpt>
      <trkpt lat="30.770116997882724" lon="-5.282805031165481">
        <ele>836.10000000000002</ele>
        <time>2003-04-14T16:30:36Z</time>
      </trkpt>
      <trkpt lat="30.769924968481064" lon="-5.283060008659959">
        <ele>835.5</ele>
        <time>2003-04-14T16:30:40Z</time>
      </trkpt>
      <trkpt lat="30.769639983773232" lon="-5.283401990309358">
        <ele>834.29999999999995</ele>
        <time>2003-04-14T16:30:44Z</time>
      </trkpt>
      <trkpt lat="30.769526995718479" lon="-5.283499974757433">
        <ele>833.60000000000002</ele>
        <time>2003-04-14T16:30:47Z</time>
      </trkpt>
      <trkpt lat="30.769170010462403" lon="-5.283701978623867">
        <ele>831.89999999999998</ele>
        <time>2003-04-14T16:30:52Z</time>
      </trkpt>
      <trkpt lat="30.768758039921522" lon="-5.283898031339049">
        <ele>830.5</ele>
        <time>2003-04-14T16:31:00Z</time>
      </trkpt>
      <trkpt lat="30.768659971654415" lon="-5.283952010795474">
        <ele>830.39999999999998</ele>
        <time>2003-04-14T16:31:03Z</time>
      </trkpt>
      <trkpt lat="30.768483029678464" lon="-5.284029962494969">
        <ele>831.29999999999995</ele>
        <time>2003-04-14T16:31:06Z</time>
      </trkpt>
      <trkpt lat="30.76806996949017" lon="-5.28420003131032">
        <ele>830.70000000000005</ele>
        <time>2003-04-14T16:31:11Z</time>
      </trkpt>
      <trkpt lat="30.767947006970644" lon="-5.284294998273253">
        <ele>831</ele>
        <time>2003-04-14T16:31:14Z</time>
      </trkpt>
      <trkpt lat="30.767687000334263" lon="-5.28454695828259">
        <ele>831.79999999999995</ele>
        <time>2003-04-14T16:31:18Z</time>
      </trkpt>
      <trkpt lat="30.767448032274842" lon="-5.284796990454197">
        <ele>831.5</ele>
        <time>2003-04-14T16:31:22Z</time>
      </trkpt>
      <trkpt lat="30.766977975144982" lon="-5.285284984856844">
        <ele>830.60000000000002</ele>
        <time>2003-04-14T16:31:30Z</time>
      </trkpt>
      <trkpt lat="30.766802038997412" lon="-5.285537028685212">
        <ele>830.39999999999998</ele>
        <time>2003-04-14T16:31:34Z</time>
      </trkpt>
      <trkpt lat="30.766589976847172" lon="-5.285825030878186">
        <ele>832.70000000000005</ele>
        <time>2003-04-14T16:31:38Z</time>
      </trkpt>
      <trkpt lat="30.766342962160707" lon="-5.286059975624085">
        <ele>833.70000000000005</ele>
        <time>2003-04-14T16:31:41Z</time>
      </trkpt>
      <trkpt lat="30.765933003276587" lon="-5.286389971151948">
        <ele>836.10000000000002</ele>
        <time>2003-04-14T16:31:45Z</time>
      </trkpt>
      <trkpt lat="30.765490019693971" lon="-5.286689959466457">
        <ele>838.79999999999995</ele>
        <time>2003-04-14T16:31:49Z</time>
      </trkpt>
      <trkpt lat="30.764904962852597" lon="-5.28705800883472">
        <ele>842.39999999999998</ele>
        <time>2003-04-14T16:31:53Z</time>
      </trkpt>
      <trkpt lat="30.764655014500022" lon="-5.287311980500817">
        <ele>842.89999999999998</ele>
        <time>2003-04-14T16:31:57Z</time>
      </trkpt>
      <trkpt lat="30.76443700119853" lon="-5.28759696520865">
        <ele>842.79999999999995</ele>
        <time>2003-04-14T16:32:00Z</time>
      </trkpt>
      <trkpt lat="30.764380004256964" lon="-5.287720011547208">
        <ele>842.79999999999995</ele>
        <time>2003-04-14T16:32:01Z</time>
      </trkpt>
      <trkpt lat="30.764219993725419" lon="-5.28813298791647">
        <ele>843.5</ele>
        <time>2003-04-14T16:32:05Z</time>
      </trkpt>
      <trkpt lat="30.764153022319078" lon="-5.288271959871054">
        <ele>842.70000000000005</ele>
        <time>2003-04-14T16:32:06Z</time>
      </trkpt>
      <trkpt lat="30.764084961265326" lon="-5.288459965959191">
        <ele>844</ele>
        <time>2003-04-14T16:32:09Z</time>
      </trkpt>
      <trkpt lat="30.764068029820919" lon="-5.288573037832975">
        <ele>844</ele>
        <time>2003-04-14T16:32:09Z</time>
      </trkpt>
      <trkpt lat="30.764008015394211" lon="-5.2887980081141">
        <ele>843</ele>
        <time>2003-04-14T16:32:12Z</time>
      </trkpt>
      <trkpt lat="30.763854961842299" lon="-5.289254989475012">
        <ele>844.70000000000005</ele>
        <time>2003-04-14T16:32:16Z</time>
      </trkpt>
      <trkpt lat="30.763757983222604" lon="-5.289539974182844">
        <ele>843.39999999999998</ele>
        <time>2003-04-14T16:32:19Z</time>
      </trkpt>
      <trkpt lat="30.76370500959456" lon="-5.289750024676323">
        <ele>843.10000000000002</ele>
        <time>2003-04-14T16:32:20Z</time>
      </trkpt>
      <trkpt lat="30.763539969921112" lon="-5.290549993515015">
        <ele>840.39999999999998</ele>
        <time>2003-04-14T16:32:28Z</time>
      </trkpt>
      <trkpt lat="30.763550028204918" lon="-5.290667004883289">
        <ele>840.20000000000005</ele>
        <time>2003-04-14T16:32:28Z</time>
      </trkpt>
      <trkpt lat="30.763586992397904" lon="-5.29154802672565">
        <ele>837.60000000000002</ele>
        <time>2003-04-14T16:32:36Z</time>
      </trkpt>
      <trkpt lat="30.763466963544488" lon="-5.292700035497546">
        <ele>836.79999999999995</ele>
        <time>2003-04-14T16:32:44Z</time>
      </trkpt>
      <trkpt lat="30.763373002409935" lon="-5.293794963508844">
        <ele>835.60000000000002</ele>
        <time>2003-04-14T16:32:54Z</time>
      </trkpt>
      <trkpt lat="30.763227995485067" lon="-5.294925011694431">
        <ele>831.60000000000002</ele>
        <time>2003-04-14T16:33:03Z</time>
      </trkpt>
      <trkpt lat="30.76323201879859" lon="-5.295507973060012">
        <ele>829.79999999999995</ele>
        <time>2003-04-14T16:33:07Z</time>
      </trkpt>
      <trkpt lat="30.763222966343164" lon="-5.295994961634278">
        <ele>830.39999999999998</ele>
        <time>2003-04-14T16:33:11Z</time>
      </trkpt>
      <trkpt lat="30.763167981058359" lon="-5.296310037374497">
        <ele>830.5</ele>
        <time>2003-04-14T16:33:14Z</time>
      </trkpt>
      <trkpt lat="30.763141997158527" lon="-5.296532995998859">
        <ele>830.60000000000002</ele>
        <time>2003-04-14T16:33:17Z</time>
      </trkpt>
      <trkpt lat="30.763100003823638" lon="-5.297127021476626">
        <ele>830.79999999999995</ele>
        <time>2003-04-14T16:33:22Z</time>
      </trkpt>
      <trkpt lat="30.763148032128811" lon="-5.297347968444228">
        <ele>831.39999999999998</ele>
        <time>2003-04-14T16:33:23Z</time>
      </trkpt>
      <trkpt lat="30.763199999928474" lon="-5.297446958720684">
        <ele>831.39999999999998</ele>
        <time>2003-04-14T16:33:25Z</time>
      </trkpt>
      <trkpt lat="30.763266971334815" lon="-5.297658015042543">
        <ele>831.29999999999995</ele>
        <time>2003-04-14T16:33:26Z</time>
      </trkpt>
      <trkpt lat="30.763290021568537" lon="-5.297884996980429">
        <ele>831.5</ele>
        <time>2003-04-14T16:33:29Z</time>
      </trkpt>
      <trkpt lat="30.763339977711439" lon="-5.298220021650195">
        <ele>831.89999999999998</ele>
        <time>2003-04-14T16:33:32Z</time>
      </trkpt>
      <trkpt lat="30.763578023761511" lon="-5.299279997125268">
        <ele>834.70000000000005</ele>
        <time>2003-04-14T16:33:41Z</time>
      </trkpt>
      <trkpt lat="30.763659998774529" lon="-5.299500022083521">
        <ele>833.79999999999995</ele>
        <time>2003-04-14T16:33:42Z</time>
      </trkpt>
      <trkpt lat="30.76407196931541" lon="-5.300552034750581">
        <ele>829.89999999999998</ele>
        <time>2003-04-14T16:33:52Z</time>
      </trkpt>
      <trkpt lat="30.764380004256964" lon="-5.301387961953878">
        <ele>832.70000000000005</ele>
        <time>2003-04-14T16:33:59Z</time>
      </trkpt>
      <trkpt lat="30.764402970671654" lon="-5.301655009388924">
        <ele>832</ele>
        <time>2003-04-14T16:34:01Z</time>
      </trkpt>
      <trkpt lat="30.76460799202323" lon="-5.302782040089369">
        <ele>826.70000000000005</ele>
        <time>2003-04-14T16:34:09Z</time>
      </trkpt>
      <trkpt lat="30.76473698951304" lon="-5.303084962069988">
        <ele>826</ele>
        <time>2003-04-14T16:34:12Z</time>
      </trkpt>
      <trkpt lat="30.764766996726394" lon="-5.303193004801869">
        <ele>825.70000000000005</ele>
        <time>2003-04-14T16:34:13Z</time>
      </trkpt>
      <trkpt lat="30.764776971191168" lon="-5.303310016170144">
        <ele>825.20000000000005</ele>
        <time>2003-04-14T16:34:15Z</time>
      </trkpt>
      <trkpt lat="30.764772025868297" lon="-5.303438007831574">
        <ele>824.70000000000005</ele>
        <time>2003-04-14T16:34:16Z</time>
      </trkpt>
      <trkpt lat="30.764785017818213" lon="-5.3036870341748">
        <ele>823.89999999999998</ele>
        <time>2003-04-14T16:34:17Z</time>
      </trkpt>
      <trkpt lat="30.764817036688328" lon="-5.303804967552424">
        <ele>823.70000000000005</ele>
        <time>2003-04-14T16:34:19Z</time>
      </trkpt>
      <trkpt lat="30.764849977567792" lon="-5.304015018045902">
        <ele>823.39999999999998</ele>
        <time>2003-04-14T16:34:20Z</time>
      </trkpt>
      <trkpt lat="30.764894988387823" lon="-5.304284999147058">
        <ele>822.89999999999998</ele>
        <time>2003-04-14T16:34:24Z</time>
      </trkpt>
      <trkpt lat="30.764932036399841" lon="-5.304424976930022">
        <ele>823</ele>
        <time>2003-04-14T16:34:26Z</time>
      </trkpt>
      <trkpt lat="30.764939999207854" lon="-5.304566966369748">
        <ele>822.70000000000005</ele>
        <time>2003-04-14T16:34:28Z</time>
      </trkpt>
      <trkpt lat="30.764979980885983" lon="-5.304901991039515">
        <ele>822.20000000000005</ele>
        <time>2003-04-14T16:34:31Z</time>
      </trkpt>
      <trkpt lat="30.765027003362775" lon="-5.305265011265874">
        <ele>821.39999999999998</ele>
        <time>2003-04-14T16:34:35Z</time>
      </trkpt>
      <trkpt lat="30.765064973384142" lon="-5.305474977940321">
        <ele>820.70000000000005</ele>
        <time>2003-04-14T16:34:38Z</time>
      </trkpt>
      <trkpt lat="30.765094980597496" lon="-5.305704977363348">
        <ele>821.10000000000002</ele>
        <time>2003-04-14T16:34:39Z</time>
      </trkpt>
      <trkpt lat="30.765077965334058" lon="-5.305958027020097">
        <ele>820.79999999999995</ele>
        <time>2003-04-14T16:34:42Z</time>
      </trkpt>
      <trkpt lat="30.765024991706014" lon="-5.306279975920916">
        <ele>820.29999999999995</ele>
        <time>2003-04-14T16:34:44Z</time>
      </trkpt>
      <trkpt lat="30.765018034726381" lon="-5.306387012824416">
        <ele>820.20000000000005</ele>
        <time>2003-04-14T16:34:46Z</time>
      </trkpt>
      <trkpt lat="30.764961959794164" lon="-5.306969974189997">
        <ele>819.60000000000002</ele>
        <time>2003-04-14T16:34:51Z</time>
      </trkpt>
      <trkpt lat="30.764817036688328" lon="-5.307872034609318">
        <ele>818.60000000000002</ele>
        <time>2003-04-14T16:34:58Z</time>
      </trkpt>
      <trkpt lat="30.764797003939748" lon="-5.309023037552834">
        <ele>818.29999999999995</ele>
        <time>2003-04-14T16:35:06Z</time>
      </trkpt>
      <trkpt lat="30.764766996726394" lon="-5.309401983395219">
        <ele>818</ele>
        <time>2003-04-14T16:35:09Z</time>
      </trkpt>
      <trkpt lat="30.764746963977814" lon="-5.30970498919487">
        <ele>817.79999999999995</ele>
        <time>2003-04-14T16:35:11Z</time>
      </trkpt>
      <trkpt lat="30.76473698951304" lon="-5.309872040525079">
        <ele>817.60000000000002</ele>
        <time>2003-04-14T16:35:14Z</time>
      </trkpt>
      <trkpt lat="30.764734977856278" lon="-5.310002965852618">
        <ele>817.5</ele>
        <time>2003-04-14T16:35:15Z</time>
      </trkpt>
      <trkpt lat="30.764707988128066" lon="-5.310247968882322">
        <ele>817.5</ele>
        <time>2003-04-14T16:35:18Z</time>
      </trkpt>
      <trkpt lat="30.764668006449938" lon="-5.310507975518704">
        <ele>817.39999999999998</ele>
        <time>2003-04-14T16:35:22Z</time>
      </trkpt>
      <trkpt lat="30.764583013951778" lon="-5.310732023790479">
        <ele>816.79999999999995</ele>
        <time>2003-04-14T16:35:24Z</time>
      </trkpt>
      <trkpt lat="30.76452199369669" lon="-5.311009967699647">
        <ele>816.89999999999998</ele>
        <time>2003-04-14T16:35:25Z</time>
      </trkpt>
      <trkpt lat="30.764297023415565" lon="-5.312038008123636">
        <ele>816.20000000000005</ele>
        <time>2003-04-14T16:35:33Z</time>
      </trkpt>
      <trkpt lat="30.764291994273663" lon="-5.312143033370376">
        <ele>815.70000000000005</ele>
        <time>2003-04-14T16:35:33Z</time>
      </trkpt>
      <trkpt lat="30.764227034524083" lon="-5.312802018597722">
        <ele>814.89999999999998</ele>
        <time>2003-04-14T16:35:38Z</time>
      </trkpt>
      <trkpt lat="30.763955041766167" lon="-5.313844978809357">
        <ele>813.70000000000005</ele>
        <time>2003-04-14T16:35:45Z</time>
      </trkpt>
      <trkpt lat="30.763677014037967" lon="-5.314822979271412">
        <ele>812.60000000000002</ele>
        <time>2003-04-14T16:35:52Z</time>
      </trkpt>
      <trkpt lat="30.763616999611259" lon="-5.314933033660054">
        <ele>812.5</ele>
        <time>2003-04-14T16:35:53Z</time>
      </trkpt>
      <trkpt lat="30.763584980741143" lon="-5.315051972866058">
        <ele>812.20000000000005</ele>
        <time>2003-04-14T16:35:55Z</time>
      </trkpt>
      <trkpt lat="30.763457994908094" lon="-5.315452963113785">
        <ele>812</ele>
        <time>2003-04-14T16:35:59Z</time>
      </trkpt>
      <trkpt lat="30.763407032936811" lon="-5.315674999728799">
        <ele>812.39999999999998</ele>
        <time>2003-04-14T16:36:01Z</time>
      </trkpt>
      <trkpt lat="30.763390017673373" lon="-5.31578497029841">
        <ele>812.20000000000005</ele>
        <time>2003-04-14T16:36:05Z</time>
      </trkpt>
      <trkpt lat="30.763381971046329" lon="-5.315927965566516">
        <ele>812.60000000000002</ele>
        <time>2003-04-14T16:36:07Z</time>
      </trkpt>
      <trkpt lat="30.763381971046329" lon="-5.316113037988544">
        <ele>813.29999999999995</ele>
        <time>2003-04-14T16:36:09Z</time>
      </trkpt>
      <trkpt lat="30.763407032936811" lon="-5.316319987177849">
        <ele>812.5</ele>
        <time>2003-04-14T16:36:12Z</time>
      </trkpt>
      <trkpt lat="30.763439973816276" lon="-5.316430041566491">
        <ele>812.39999999999998</ele>
        <time>2003-04-14T16:36:12Z</time>
      </trkpt>
      <trkpt lat="30.763623034581542" lon="-5.316877970471978">
        <ele>812.5</ele>
        <time>2003-04-14T16:36:16Z</time>
      </trkpt>
      <trkpt lat="30.763927968218923" lon="-5.317387003451586">
        <ele>812</ele>
        <time>2003-04-14T16:36:22Z</time>
      </trkpt>
      <trkpt lat="30.76411203481257" lon="-5.317641980946064">
        <ele>811.70000000000005</ele>
        <time>2003-04-14T16:36:24Z</time>
      </trkpt>
      <trkpt lat="30.764377992600203" lon="-5.318180015310645">
        <ele>812.20000000000005</ele>
        <time>2003-04-14T16:36:30Z</time>
      </trkpt>
      <trkpt lat="30.764764985069633" lon="-5.319132031872869">
        <ele>811.20000000000005</ele>
        <time>2003-04-14T16:36:38Z</time>
      </trkpt>
      <trkpt lat="30.764836985617876" lon="-5.319377034902573">
        <ele>810.89999999999998</ele>
        <time>2003-04-14T16:36:39Z</time>
      </trkpt>
      <trkpt lat="30.764845032244921" lon="-5.319511983543634">
        <ele>810.60000000000002</ele>
        <time>2003-04-14T16:36:41Z</time>
      </trkpt>
      <trkpt lat="30.7649099919945" lon="-5.320456959307194">
        <ele>810.20000000000005</ele>
        <time>2003-04-14T16:36:47Z</time>
      </trkpt>
      <trkpt lat="30.764991967007518" lon="-5.320891980081797">
        <ele>810.70000000000005</ele>
        <time>2003-04-14T16:36:50Z</time>
      </trkpt>
      <trkpt lat="30.765149965882301" lon="-5.321351978927851">
        <ele>810.20000000000005</ele>
        <time>2003-04-14T16:36:54Z</time>
      </trkpt>
      <trkpt lat="30.765550034120679" lon="-5.322027979418635">
        <ele>809.60000000000002</ele>
        <time>2003-04-14T16:36:58Z</time>
      </trkpt>
      <trkpt lat="30.766122015193105" lon="-5.322901960462332">
        <ele>809.39999999999998</ele>
        <time>2003-04-14T16:37:05Z</time>
      </trkpt>
      <trkpt lat="30.766655020415783" lon="-5.323826987296343">
        <ele>808.89999999999998</ele>
        <time>2003-04-14T16:37:10Z</time>
      </trkpt>
      <trkpt lat="30.767085012048483" lon="-5.324387988075614">
        <ele>808.79999999999995</ele>
        <time>2003-04-14T16:37:14Z</time>
      </trkpt>
      <trkpt lat="30.767545010894537" lon="-5.324838012456894">
        <ele>809.89999999999998</ele>
        <time>2003-04-14T16:37:18Z</time>
      </trkpt>
      <trkpt lat="30.767769981175661" lon="-5.324974972754717">
        <ele>812</ele>
        <time>2003-04-14T16:37:21Z</time>
      </trkpt>
      <trkpt lat="30.767954969778657" lon="-5.325068011879921">
        <ele>813.70000000000005</ele>
        <time>2003-04-14T16:37:22Z</time>
      </trkpt>
      <trkpt lat="30.76811196282506" lon="-5.325122997164726">
        <ele>814.60000000000002</ele>
        <time>2003-04-14T16:37:25Z</time>
      </trkpt>
      <trkpt lat="30.768329976126552" lon="-5.325249982997775">
        <ele>815.10000000000002</ele>
        <time>2003-04-14T16:37:28Z</time>
      </trkpt>
      <trkpt lat="30.768507001921535" lon="-5.32538702711463">
        <ele>813.89999999999998</ele>
        <time>2003-04-14T16:37:30Z</time>
      </trkpt>
      <trkpt lat="30.76866801828146" lon="-5.325555000454187">
        <ele>812.79999999999995</ele>
        <time>2003-04-14T16:37:35Z</time>
      </trkpt>
      <trkpt lat="30.768737001344562" lon="-5.325709981843829">
        <ele>812.29999999999995</ele>
        <time>2003-04-14T16:37:37Z</time>
      </trkpt>
      <trkpt lat="30.768787041306496" lon="-5.325902011245489">
        <ele>811.39999999999998</ele>
        <time>2003-04-14T16:37:39Z</time>
      </trkpt>
      <trkpt lat="30.768902963027358" lon="-5.326448008418083">
        <ele>810.29999999999995</ele>
        <time>2003-04-14T16:37:44Z</time>
      </trkpt>
      <trkpt lat="30.768994996324182" lon="-5.326932985335589">
        <ele>809.60000000000002</ele>
        <time>2003-04-14T16:37:48Z</time>
      </trkpt>
      <trkpt lat="30.769051993265748" lon="-5.328005030751228">
        <ele>808.70000000000005</ele>
        <time>2003-04-14T16:37:56Z</time>
      </trkpt>
      <trkpt lat="30.769031960517168" lon="-5.329108005389571">
        <ele>807.20000000000005</ele>
        <time>2003-04-14T16:38:04Z</time>
      </trkpt>
      <trkpt lat="30.769013017416" lon="-5.330194970592856">
        <ele>806.79999999999995</ele>
        <time>2003-04-14T16:38:11Z</time>
      </trkpt>
      <trkpt lat="30.768985021859407" lon="-5.331317977979779">
        <ele>806.29999999999995</ele>
        <time>2003-04-14T16:38:19Z</time>
      </trkpt>
      <trkpt lat="30.768989967182279" lon="-5.331452004611492">
        <ele>806.39999999999998</ele>
        <time>2003-04-14T16:38:22Z</time>
      </trkpt>
      <trkpt lat="30.768998013809323" lon="-5.331721985712647">
        <ele>806</ele>
        <time>2003-04-14T16:38:24Z</time>
      </trkpt>
      <trkpt lat="30.769013017416" lon="-5.332142002880573">
        <ele>805.89999999999998</ele>
        <time>2003-04-14T16:38:29Z</time>
      </trkpt>
      <trkpt lat="30.769115025177598" lon="-5.332867037504911">
        <ele>805.5</ele>
        <time>2003-04-14T16:38:34Z</time>
      </trkpt>
      <trkpt lat="30.769198006018996" lon="-5.333759961649776">
        <ele>805.60000000000002</ele>
        <time>2003-04-14T16:38:42Z</time>
      </trkpt>
      <trkpt lat="30.769175039604306" lon="-5.333972023800015">
        <ele>805.89999999999998</ele>
        <time>2003-04-14T16:38:43Z</time>
      </trkpt>
      <trkpt lat="30.769103039056063" lon="-5.334179978817701">
        <ele>805.70000000000005</ele>
        <time>2003-04-14T16:38:46Z</time>
      </trkpt>
      <trkpt lat="30.76899298466742" lon="-5.334460018202663">
        <ele>805.60000000000002</ele>
        <time>2003-04-14T16:38:49Z</time>
      </trkpt>
      <trkpt lat="30.768987033516169" lon="-5.334578035399318">
        <ele>805.60000000000002</ele>
        <time>2003-04-14T16:38:50Z</time>
      </trkpt>
      <trkpt lat="30.768989967182279" lon="-5.334975002333522">
        <ele>806</ele>
        <time>2003-04-14T16:38:53Z</time>
      </trkpt>
      <trkpt lat="30.769009999930859" lon="-5.336157018318772">
        <ele>806.89999999999998</ele>
        <time>2003-04-14T16:39:01Z</time>
      </trkpt>
      <trkpt lat="30.768942022696137" lon="-5.337293017655611">
        <ele>807.79999999999995</ele>
        <time>2003-04-14T16:39:09Z</time>
      </trkpt>
      <trkpt lat="30.769021986052394" lon="-5.338418036699295">
        <ele>807.10000000000002</ele>
        <time>2003-04-14T16:39:17Z</time>
      </trkpt>
      <trkpt lat="30.769085017964244" lon="-5.339156985282898">
        <ele>807.60000000000002</ele>
        <time>2003-04-14T16:39:23Z</time>
      </trkpt>
      <trkpt lat="30.769236981868744" lon="-5.339580019935966">
        <ele>807.29999999999995</ele>
        <time>2003-04-14T16:39:25Z</time>
      </trkpt>
      <trkpt lat="30.769702009856701" lon="-5.340582998469472">
        <ele>808.10000000000002</ele>
        <time>2003-04-14T16:39:32Z</time>
      </trkpt>
      <trkpt lat="30.770118003711104" lon="-5.341657977551222">
        <ele>808.39999999999998</ele>
        <time>2003-04-14T16:39:40Z</time>
      </trkpt>
      <trkpt lat="30.770327970385551" lon="-5.342057039961219">
        <ele>808.39999999999998</ele>
        <time>2003-04-14T16:39:43Z</time>
      </trkpt>
      <trkpt lat="30.77066701836884" lon="-5.342660034075379">
        <ele>808.79999999999995</ele>
        <time>2003-04-14T16:39:48Z</time>
      </trkpt>
      <trkpt lat="30.771012017503381" lon="-5.343251964077354">
        <ele>808.79999999999995</ele>
        <time>2003-04-14T16:39:52Z</time>
      </trkpt>
      <trkpt lat="30.771494982764125" lon="-5.344225019216538">
        <ele>809.5</ele>
        <time>2003-04-14T16:39:59Z</time>
      </trkpt>
      <trkpt lat="30.771926986053586" lon="-5.345190027728677">
        <ele>810</ele>
        <time>2003-04-14T16:40:06Z</time>
      </trkpt>
      <trkpt lat="30.772384973242879" lon="-5.346142966300249">
        <ele>809.60000000000002</ele>
        <time>2003-04-14T16:40:11Z</time>
      </trkpt>
      <trkpt lat="30.772949997335672" lon="-5.347151979804039">
        <ele>810.5</ele>
        <time>2003-04-14T16:40:19Z</time>
      </trkpt>
      <trkpt lat="30.773530025035143" lon="-5.348132997751236">
        <ele>811.5</ele>
        <time>2003-04-14T16:40:26Z</time>
      </trkpt>
      <trkpt lat="30.774078033864498" lon="-5.349079985171557">
        <ele>812.39999999999998</ele>
        <time>2003-04-14T16:40:33Z</time>
      </trkpt>
      <trkpt lat="30.774617996066809" lon="-5.349982967600226">
        <ele>813.29999999999995</ele>
        <time>2003-04-14T16:40:39Z</time>
      </trkpt>
      <trkpt lat="30.775228030979633" lon="-5.350868012756109">
        <ele>813.70000000000005</ele>
        <time>2003-04-14T16:40:46Z</time>
      </trkpt>
      <trkpt lat="30.775615023449063" lon="-5.351597992703319">
        <ele>813.89999999999998</ele>
        <time>2003-04-14T16:40:52Z</time>
      </trkpt>
      <trkpt lat="30.776009978726506" lon="-5.352561995387077">
        <ele>814.70000000000005</ele>
        <time>2003-04-14T16:40:57Z</time>
      </trkpt>
      <trkpt lat="30.77642697840929" lon="-5.353547036647797">
        <ele>815.29999999999995</ele>
        <time>2003-04-14T16:41:04Z</time>
      </trkpt>
      <trkpt lat="30.776884965598583" lon="-5.354490000754595">
        <ele>815.79999999999995</ele>
        <time>2003-04-14T16:41:09Z</time>
      </trkpt>
      <trkpt lat="30.777353011071682" lon="-5.35542500205338">
        <ele>816.39999999999998</ele>
        <time>2003-04-14T16:41:16Z</time>
      </trkpt>
      <trkpt lat="30.777813009917736" lon="-5.356352040544152">
        <ele>817.10000000000002</ele>
        <time>2003-04-14T16:41:21Z</time>
      </trkpt>
      <trkpt lat="30.778264962136745" lon="-5.357287041842938">
        <ele>817.39999999999998</ele>
        <time>2003-04-14T16:41:28Z</time>
      </trkpt>
      <trkpt lat="30.778729990124702" lon="-5.358236962929368">
        <ele>817.89999999999998</ele>
        <time>2003-04-14T16:41:33Z</time>
      </trkpt>
      <trkpt lat="30.779208010062575" lon="-5.359202977269888">
        <ele>818.20000000000005</ele>
        <time>2003-04-14T16:41:40Z</time>
      </trkpt>
      <trkpt lat="30.779700027778745" lon="-5.360207967460156">
        <ele>818.70000000000005</ele>
        <time>2003-04-14T16:41:46Z</time>
      </trkpt>
      <trkpt lat="30.780262034386396" lon="-5.361214969307184">
        <ele>819.29999999999995</ele>
        <time>2003-04-14T16:41:51Z</time>
      </trkpt>
      <trkpt lat="30.780726978555322" lon="-5.361977973952889">
        <ele>819.89999999999998</ele>
        <time>2003-04-14T16:41:56Z</time>
      </trkpt>
      <trkpt lat="30.781083041802049" lon="-5.362552972510457">
        <ele>820.79999999999995</ele>
        <time>2003-04-14T16:42:00Z</time>
      </trkpt>
      <trkpt lat="30.781442960724235" lon="-5.36311699077487">
        <ele>821.20000000000005</ele>
        <time>2003-04-14T16:42:05Z</time>
      </trkpt>
      <trkpt lat="30.78203497454524" lon="-5.364032965153456">
        <ele>821.39999999999998</ele>
        <time>2003-04-14T16:42:11Z</time>
      </trkpt>
      <trkpt lat="30.78246203251183" lon="-5.364787001162767">
        <ele>822.29999999999995</ele>
        <time>2003-04-14T16:42:18Z</time>
      </trkpt>
      <trkpt lat="30.782530009746552" lon="-5.364927984774113">
        <ele>822.5</ele>
        <time>2003-04-14T16:42:19Z</time>
      </trkpt>
      <trkpt lat="30.782739976420999" lon="-5.365392006933689">
        <ele>823.5</ele>
        <time>2003-04-14T16:42:25Z</time>
      </trkpt>
      <trkpt lat="30.782867968082428" lon="-5.36575997248292">
        <ele>823.29999999999995</ele>
        <time>2003-04-14T16:42:27Z</time>
      </trkpt>
      <trkpt lat="30.78299998305738" lon="-5.365976979956031">
        <ele>823.60000000000002</ele>
        <time>2003-04-14T16:42:30Z</time>
      </trkpt>
      <trkpt lat="30.783165022730827" lon="-5.366132967174053">
        <ele>823.20000000000005</ele>
        <time>2003-04-14T16:42:32Z</time>
      </trkpt>
      <trkpt lat="30.783241968601942" lon="-5.366228017956018">
        <ele>823.39999999999998</ele>
        <time>2003-04-14T16:42:33Z</time>
      </trkpt>
      <trkpt lat="30.783384963870049" lon="-5.366443013772368">
        <ele>823.29999999999995</ele>
        <time>2003-04-14T16:42:34Z</time>
      </trkpt>
      <trkpt lat="30.783770028501749" lon="-5.367067968472838">
        <ele>824.5</ele>
        <time>2003-04-14T16:42:40Z</time>
      </trkpt>
      <trkpt lat="30.784147968515754" lon="-5.367512963712215">
        <ele>824.20000000000005</ele>
        <time>2003-04-14T16:42:44Z</time>
      </trkpt>
      <trkpt lat="30.784507971256971" lon="-5.367931975051761">
        <ele>825.29999999999995</ele>
        <time>2003-04-14T16:42:48Z</time>
      </trkpt>
      <trkpt lat="30.784839978441596" lon="-5.368528012186289">
        <ele>824.79999999999995</ele>
        <time>2003-04-14T16:42:53Z</time>
      </trkpt>
      <trkpt lat="30.785142984241247" lon="-5.369041990488768">
        <ele>826</ele>
        <time>2003-04-14T16:42:57Z</time>
      </trkpt>
      <trkpt lat="30.785432998090982" lon="-5.369402999058366">
        <ele>826.5</ele>
        <time>2003-04-14T16:43:00Z</time>
      </trkpt>
      <trkpt lat="30.785923004150391" lon="-5.369987972080708">
        <ele>826.29999999999995</ele>
        <time>2003-04-14T16:43:04Z</time>
      </trkpt>
      <trkpt lat="30.786231961101294" lon="-5.370347974821925">
        <ele>826.70000000000005</ele>
        <time>2003-04-14T16:43:08Z</time>
      </trkpt>
      <trkpt lat="30.786745017394423" lon="-5.370963038876653">
        <ele>827.5</ele>
        <time>2003-04-14T16:43:12Z</time>
      </trkpt>
      <trkpt lat="30.787186995148659" lon="-5.371668040752411">
        <ele>827.5</ele>
        <time>2003-04-14T16:43:17Z</time>
      </trkpt>
      <trkpt lat="30.787508022040129" lon="-5.372244967147708">
        <ele>827.70000000000005</ele>
        <time>2003-04-14T16:43:21Z</time>
      </trkpt>
      <trkpt lat="30.787656968459487" lon="-5.372537998482585">
        <ele>828.10000000000002</ele>
        <time>2003-04-14T16:43:24Z</time>
      </trkpt>
      <trkpt lat="30.787968020886183" lon="-5.37310796789825">
        <ele>828.39999999999998</ele>
        <time>2003-04-14T16:43:28Z</time>
      </trkpt>
      <trkpt lat="30.788258034735918" lon="-5.37347199395299">
        <ele>828.89999999999998</ele>
        <time>2003-04-14T16:43:31Z</time>
      </trkpt>
      <trkpt lat="30.78843698836863" lon="-5.373705010861158">
        <ele>829.20000000000005</ele>
        <time>2003-04-14T16:43:32Z</time>
      </trkpt>
      <trkpt lat="30.789120029658079" lon="-5.374558037146926">
        <ele>830.10000000000002</ele>
        <time>2003-04-14T16:43:39Z</time>
      </trkpt>
      <trkpt lat="30.789625039324164" lon="-5.375462025403976">
        <ele>831</ele>
        <time>2003-04-14T16:43:46Z</time>
      </trkpt>
      <trkpt lat="30.790108004584908" lon="-5.376347992569208">
        <ele>830.79999999999995</ele>
        <time>2003-04-14T16:43:51Z</time>
      </trkpt>
      <trkpt lat="30.790295004844666" lon="-5.376994991675019">
        <ele>832.60000000000002</ele>
        <time>2003-04-14T16:43:55Z</time>
      </trkpt>
      <trkpt lat="30.790402963757515" lon="-5.37742699496448">
        <ele>831.79999999999995</ele>
        <time>2003-04-14T16:43:58Z</time>
      </trkpt>
      <trkpt lat="30.790461972355843" lon="-5.377535037696362">
        <ele>831.5</ele>
        <time>2003-04-14T16:43:59Z</time>
      </trkpt>
      <trkpt lat="30.79075500369072" lon="-5.377977015450597">
        <ele>832.5</ele>
        <time>2003-04-14T16:44:03Z</time>
      </trkpt>
      <trkpt lat="30.791202010586858" lon="-5.37860699929297">
        <ele>833.29999999999995</ele>
        <time>2003-04-14T16:44:09Z</time>
      </trkpt>
      <trkpt lat="30.791835011914372" lon="-5.379460025578737">
        <ele>834.20000000000005</ele>
        <time>2003-04-14T16:44:14Z</time>
      </trkpt>
      <trkpt lat="30.792504977434874" lon="-5.380356973037124">
        <ele>835.5</ele>
        <time>2003-04-14T16:44:21Z</time>
      </trkpt>
      <trkpt lat="30.792755009606481" lon="-5.38075502961874">
        <ele>835.79999999999995</ele>
        <time>2003-04-14T16:44:24Z</time>
      </trkpt>
      <trkpt lat="30.792791973799467" lon="-5.380913028493524">
        <ele>835.79999999999995</ele>
        <time>2003-04-14T16:44:25Z</time>
      </trkpt>
      <trkpt lat="30.792836984619498" lon="-5.381255010142922">
        <ele>836.29999999999995</ele>
        <time>2003-04-14T16:44:26Z</time>
      </trkpt>
      <trkpt lat="30.793006969615817" lon="-5.382178025320172">
        <ele>836.79999999999995</ele>
        <time>2003-04-14T16:44:32Z</time>
      </trkpt>
      <trkpt lat="30.793187012895942" lon="-5.382856959477067">
        <ele>837.70000000000005</ele>
        <time>2003-04-14T16:44:36Z</time>
      </trkpt>
      <trkpt lat="30.793258007615805" lon="-5.383255016058683">
        <ele>837.89999999999998</ele>
        <time>2003-04-14T16:44:38Z</time>
      </trkpt>
      <trkpt lat="30.793442996218801" lon="-5.384212983772159">
        <ele>838.39999999999998</ele>
        <time>2003-04-14T16:44:45Z</time>
      </trkpt>
      <trkpt lat="30.793457999825478" lon="-5.384348016232252">
        <ele>838.5</ele>
        <time>2003-04-14T16:44:47Z</time>
      </trkpt>
      <trkpt lat="30.793497981503606" lon="-5.384562006220222">
        <ele>838.39999999999998</ele>
        <time>2003-04-14T16:44:49Z</time>
      </trkpt>
      <trkpt lat="30.793465040624142" lon="-5.384717993438244">
        <ele>838.89999999999998</ele>
        <time>2003-04-14T16:44:51Z</time>
      </trkpt>
      <trkpt lat="30.793430004268885" lon="-5.384820001199842">
        <ele>837.89999999999998</ele>
        <time>2003-04-14T16:44:53Z</time>
      </trkpt>
      <trkpt lat="30.793411983177066" lon="-5.384942041710019">
        <ele>838.20000000000005</ele>
        <time>2003-04-14T16:44:56Z</time>
      </trkpt>
      <trkpt lat="30.793420029804111" lon="-5.385152008384466">
        <ele>838.10000000000002</ele>
        <time>2003-04-14T16:44:59Z</time>
      </trkpt>
      <trkpt lat="30.79344199039042" lon="-5.385400028899312">
        <ele>838.39999999999998</ele>
        <time>2003-04-14T16:45:01Z</time>
      </trkpt>
      <trkpt lat="30.793463028967381" lon="-5.385552998632193">
        <ele>839</ele>
        <time>2003-04-14T16:45:04Z</time>
      </trkpt>
      <trkpt lat="30.793475015088916" lon="-5.385700017213821">
        <ele>839</ele>
        <time>2003-04-14T16:45:05Z</time>
      </trkpt>
      <trkpt lat="30.79344199039042" lon="-5.385842006653547">
        <ele>838.70000000000005</ele>
        <time>2003-04-14T16:45:08Z</time>
      </trkpt>
      <trkpt lat="30.793263036757708" lon="-5.386744989082217">
        <ele>839</ele>
        <time>2003-04-14T16:45:19Z</time>
      </trkpt>
      <trkpt lat="30.793151976540685" lon="-5.387410009279847">
        <ele>839.10000000000002</ele>
        <time>2003-04-14T16:45:27Z</time>
      </trkpt>
      <trkpt lat="30.793130015954375" lon="-5.388537039980292">
        <ele>839.70000000000005</ele>
        <time>2003-04-14T16:45:36Z</time>
      </trkpt>
      <trkpt lat="30.793121969327331" lon="-5.389380007982254">
        <ele>839.10000000000002</ele>
        <time>2003-04-14T16:45:45Z</time>
      </trkpt>
      <trkpt lat="30.793157005682588" lon="-5.389782004058361">
        <ele>838.89999999999998</ele>
        <time>2003-04-14T16:45:50Z</time>
      </trkpt>
      <trkpt lat="30.793228000402451" lon="-5.390039999037981">
        <ele>839.39999999999998</ele>
        <time>2003-04-14T16:45:51Z</time>
      </trkpt>
      <trkpt lat="30.793336965143681" lon="-5.390354990959168">
        <ele>839.70000000000005</ele>
        <time>2003-04-14T16:45:54Z</time>
      </trkpt>
      <trkpt lat="30.793358003720641" lon="-5.390577027574182">
        <ele>841.20000000000005</ele>
        <time>2003-04-14T16:45:57Z</time>
      </trkpt>
      <trkpt lat="30.793303018435836" lon="-5.391202988103032">
        <ele>840.79999999999995</ele>
        <time>2003-04-14T16:46:02Z</time>
      </trkpt>
      <trkpt lat="30.793260019272566" lon="-5.392094990238547">
        <ele>840.39999999999998</ele>
        <time>2003-04-14T16:46:09Z</time>
      </trkpt>
      <trkpt lat="30.793254990130663" lon="-5.392707958817482">
        <ele>840.79999999999995</ele>
        <time>2003-04-14T16:46:13Z</time>
      </trkpt>
      <trkpt lat="30.793169997632504" lon="-5.393097968772054">
        <ele>841.10000000000002</ele>
        <time>2003-04-14T16:46:17Z</time>
      </trkpt>
      <trkpt lat="30.793106965720654" lon="-5.393225038424134">
        <ele>841</ele>
        <time>2003-04-14T16:46:17Z</time>
      </trkpt>
      <trkpt lat="30.793062038719654" lon="-5.393361998721957">
        <ele>841.20000000000005</ele>
        <time>2003-04-14T16:46:18Z</time>
      </trkpt>
      <trkpt lat="30.792752997949719" lon="-5.394373023882508">
        <ele>841</ele>
        <time>2003-04-14T16:46:25Z</time>
      </trkpt>
      <trkpt lat="30.792666999623179" lon="-5.394797986373305">
        <ele>840.5</ele>
        <time>2003-04-14T16:46:29Z</time>
      </trkpt>
      <trkpt lat="30.792628023773432" lon="-5.394908040761948">
        <ele>841.5</ele>
        <time>2003-04-14T16:46:29Z</time>
      </trkpt>
      <trkpt lat="30.792530039325356" lon="-5.39508699439466">
        <ele>840.10000000000002</ele>
        <time>2003-04-14T16:46:32Z</time>
      </trkpt>
      <trkpt lat="30.792357036843896" lon="-5.39536502212286">
        <ele>842.10000000000002</ele>
        <time>2003-04-14T16:46:36Z</time>
      </trkpt>
      <trkpt lat="30.792122008278966" lon="-5.395610025152564">
        <ele>841.60000000000002</ele>
        <time>2003-04-14T16:46:37Z</time>
      </trkpt>
      <trkpt lat="30.791790001094341" lon="-5.395902972668409">
        <ele>840.5</ele>
        <time>2003-04-14T16:46:41Z</time>
      </trkpt>
      <trkpt lat="30.791731998324394" lon="-5.396017972379923">
        <ele>840.29999999999995</ele>
        <time>2003-04-14T16:46:43Z</time>
      </trkpt>
      <trkpt lat="30.791490012779832" lon="-5.396409993991256">
        <ele>840.5</ele>
        <time>2003-04-14T16:46:47Z</time>
      </trkpt>
      <trkpt lat="30.791437039151788" lon="-5.39650303311646">
        <ele>840.29999999999995</ele>
        <time>2003-04-14T16:46:48Z</time>
      </trkpt>
      <trkpt lat="30.791252972558141" lon="-5.396777959540486">
        <ele>840.60000000000002</ele>
        <time>2003-04-14T16:46:52Z</time>
      </trkpt>
      <trkpt lat="30.790834967046976" lon="-5.397265031933785">
        <ele>841.20000000000005</ele>
        <time>2003-04-14T16:46:56Z</time>
      </trkpt>
      <trkpt lat="30.790747962892056" lon="-5.39749301970005">
        <ele>841.39999999999998</ele>
        <time>2003-04-14T16:46:59Z</time>
      </trkpt>
      <trkpt lat="30.790502959862351" lon="-5.398131972178817">
        <ele>842.39999999999998</ele>
        <time>2003-04-14T16:47:04Z</time>
      </trkpt>
      <trkpt lat="30.790323000401258" lon="-5.398430032655597">
        <ele>842.20000000000005</ele>
        <time>2003-04-14T16:47:07Z</time>
      </trkpt>
      <trkpt lat="30.79019702039659" lon="-5.398718034848571">
        <ele>842.10000000000002</ele>
        <time>2003-04-14T16:47:11Z</time>
      </trkpt>
      <trkpt lat="30.790093000978231" lon="-5.398936970159411">
        <ele>842.5</ele>
        <time>2003-04-14T16:47:11Z</time>
      </trkpt>
      <trkpt lat="30.790013037621975" lon="-5.399022968485951">
        <ele>843.20000000000005</ele>
        <time>2003-04-14T16:47:12Z</time>
      </trkpt>
      <trkpt lat="30.789878005161881" lon="-5.399224972352386">
        <ele>843.5</ele>
        <time>2003-04-14T16:47:15Z</time>
      </trkpt>
      <trkpt lat="30.78963803127408" lon="-5.399680025875568">
        <ele>843.70000000000005</ele>
        <time>2003-04-14T16:47:19Z</time>
      </trkpt>
      <trkpt lat="30.78955496661365" lon="-5.399927962571383">
        <ele>844.20000000000005</ele>
        <time>2003-04-14T16:47:22Z</time>
      </trkpt>
      <trkpt lat="30.789514984935522" lon="-5.400082021951675">
        <ele>844.20000000000005</ele>
        <time>2003-04-14T16:47:23Z</time>
      </trkpt>
      <trkpt lat="30.789486989378929" lon="-5.400200039148331">
        <ele>844.79999999999995</ele>
        <time>2003-04-14T16:47:26Z</time>
      </trkpt>
      <trkpt lat="30.78944499604404" lon="-5.400447975844145">
        <ele>844.70000000000005</ele>
        <time>2003-04-14T16:47:29Z</time>
      </trkpt>
      <trkpt lat="30.789412977173924" lon="-5.400658026337624">
        <ele>845.20000000000005</ele>
        <time>2003-04-14T16:47:31Z</time>
      </trkpt>
      <trkpt lat="30.789392022415996" lon="-5.400796998292208">
        <ele>845.10000000000002</ele>
        <time>2003-04-14T16:47:33Z</time>
      </trkpt>
      <trkpt lat="30.78938196413219" lon="-5.400917027145624">
        <ele>845.29999999999995</ele>
        <time>2003-04-14T16:47:34Z</time>
      </trkpt>
      <trkpt lat="30.789372995495796" lon="-5.401105033233762">
        <ele>844.79999999999995</ele>
        <time>2003-04-14T16:47:37Z</time>
      </trkpt>
      <trkpt lat="30.789375007152557" lon="-5.401322962716222">
        <ele>845.5</ele>
        <time>2003-04-14T16:47:38Z</time>
      </trkpt>
      <trkpt lat="30.789411971345544" lon="-5.401624962687492">
        <ele>845.79999999999995</ele>
        <time>2003-04-14T16:47:42Z</time>
      </trkpt>
      <trkpt lat="30.789510039612651" lon="-5.40179000236094">
        <ele>846.70000000000005</ele>
        <time>2003-04-14T16:47:43Z</time>
      </trkpt>
      <trkpt lat="30.78959796577692" lon="-5.401980020105839">
        <ele>846.29999999999995</ele>
        <time>2003-04-14T16:47:46Z</time>
      </trkpt>
      <trkpt lat="30.789612969383597" lon="-5.402084961533546">
        <ele>846.79999999999995</ele>
        <time>2003-04-14T16:47:46Z</time>
      </trkpt>
      <trkpt lat="30.789607018232346" lon="-5.40219702757895">
        <ele>846.5</ele>
        <time>2003-04-14T16:47:47Z</time>
      </trkpt>
      <trkpt lat="30.789542980492115" lon="-5.402691978961229">
        <ele>847.5</ele>
        <time>2003-04-14T16:47:51Z</time>
      </trkpt>
      <trkpt lat="30.789418006315827" lon="-5.403801994398236">
        <ele>847.60000000000002</ele>
        <time>2003-04-14T16:48:01Z</time>
      </trkpt>
      <trkpt lat="30.789175014942884" lon="-5.404904969036579">
        <ele>848.79999999999995</ele>
        <time>2003-04-14T16:48:09Z</time>
      </trkpt>
      <trkpt lat="30.788826998323202" lon="-5.405939966440201">
        <ele>848.79999999999995</ele>
        <time>2003-04-14T16:48:17Z</time>
      </trkpt>
      <trkpt lat="30.788449980318546" lon="-5.406913021579385">
        <ele>849.60000000000002</ele>
        <time>2003-04-14T16:48:25Z</time>
      </trkpt>
      <trkpt lat="30.78802996315062" lon="-5.407924968749285">
        <ele>849.89999999999998</ele>
        <time>2003-04-14T16:48:32Z</time>
      </trkpt>
      <trkpt lat="30.787729974836111" lon="-5.408723009750247">
        <ele>850.60000000000002</ele>
        <time>2003-04-14T16:48:37Z</time>
      </trkpt>
      <trkpt lat="30.787454964593053" lon="-5.409496994689107">
        <ele>854.60000000000002</ele>
        <time>2003-04-14T16:48:44Z</time>
      </trkpt>
      <trkpt lat="30.787350023165345" lon="-5.409621968865395">
        <ele>856.60000000000002</ele>
        <time>2003-04-14T16:48:47Z</time>
      </trkpt>
      <trkpt lat="30.787148019298911" lon="-5.409856997430325">
        <ele>855.89999999999998</ele>
        <time>2003-04-14T16:48:50Z</time>
      </trkpt>
      <trkpt lat="30.786660024896264" lon="-5.410511959344149">
        <ele>855.20000000000005</ele>
        <time>2003-04-14T16:48:56Z</time>
      </trkpt>
      <trkpt lat="30.786167001351714" lon="-5.411015041172504">
        <ele>852.10000000000002</ele>
        <time>2003-04-14T16:49:03Z</time>
      </trkpt>
      <trkpt lat="30.786121990531683" lon="-5.411110008135438">
        <ele>851.70000000000005</ele>
        <time>2003-04-14T16:49:03Z</time>
      </trkpt>
      <trkpt lat="30.786083014681935" lon="-5.411302037537098">
        <ele>850.89999999999998</ele>
        <time>2003-04-14T16:49:06Z</time>
      </trkpt>
      <trkpt lat="30.786017971113324" lon="-5.41150001809001">
        <ele>850.29999999999995</ele>
        <time>2003-04-14T16:49:07Z</time>
      </trkpt>
      <trkpt lat="30.785885034129024" lon="-5.41169498115778">
        <ele>849.5</ele>
        <time>2003-04-14T16:49:10Z</time>
      </trkpt>
      <trkpt lat="30.785791995003819" lon="-5.411777961999178">
        <ele>848.89999999999998</ele>
        <time>2003-04-14T16:49:11Z</time>
      </trkpt>
      <trkpt lat="30.785684958100319" lon="-5.411848034709692">
        <ele>848.39999999999998</ele>
        <time>2003-04-14T16:49:11Z</time>
      </trkpt>
      <trkpt lat="30.785284973680973" lon="-5.412157997488976">
        <ele>847.5</ele>
        <time>2003-04-14T16:49:15Z</time>
      </trkpt>
      <trkpt lat="30.785107025876641" lon="-5.412386991083622">
        <ele>845.79999999999995</ele>
        <time>2003-04-14T16:49:18Z</time>
      </trkpt>
      <trkpt lat="30.784822041168809" lon="-5.412707012146711">
        <ele>845.60000000000002</ele>
        <time>2003-04-14T16:49:21Z</time>
      </trkpt>
      <trkpt lat="30.784328011795878" lon="-5.41330698877573">
        <ele>844.5</ele>
        <time>2003-04-14T16:49:26Z</time>
      </trkpt>
      <trkpt lat="30.784015031531453" lon="-5.413785008713603">
        <ele>844.89999999999998</ele>
        <time>2003-04-14T16:49:30Z</time>
      </trkpt>
      <trkpt lat="30.783827025443316" lon="-5.413973014801741">
        <ele>844.10000000000002</ele>
        <time>2003-04-14T16:49:31Z</time>
      </trkpt>
      <trkpt lat="30.783556960523129" lon="-5.414299992844462">
        <ele>843.20000000000005</ele>
        <time>2003-04-14T16:49:34Z</time>
      </trkpt>
      <trkpt lat="30.783312041312456" lon="-5.414612973108888">
        <ele>844.20000000000005</ele>
        <time>2003-04-14T16:49:38Z</time>
      </trkpt>
      <trkpt lat="30.783057985827327" lon="-5.414878008887172">
        <ele>845.10000000000002</ele>
        <time>2003-04-14T16:49:41Z</time>
      </trkpt>
      <trkpt lat="30.782856987789273" lon="-5.415142038837075">
        <ele>844.39999999999998</ele>
        <time>2003-04-14T16:49:44Z</time>
      </trkpt>
      <trkpt lat="30.78259002417326" lon="-5.415361979976296">
        <ele>843</ele>
        <time>2003-04-14T16:49:46Z</time>
      </trkpt>
      <trkpt lat="30.782330017536879" lon="-5.415597008541226">
        <ele>841.29999999999995</ele>
        <time>2003-04-14T16:49:49Z</time>
      </trkpt>
      <trkpt lat="30.781976971775293" lon="-5.415958017110825">
        <ele>840.10000000000002</ele>
        <time>2003-04-14T16:49:54Z</time>
      </trkpt>
      <trkpt lat="30.781791983172297" lon="-5.416118027642369">
        <ele>840.10000000000002</ele>
        <time>2003-04-14T16:49:57Z</time>
      </trkpt>
      <trkpt lat="30.781610012054443" lon="-5.416273009032011">
        <ele>839.10000000000002</ele>
        <time>2003-04-14T16:50:01Z</time>
      </trkpt>
      <trkpt lat="30.781319998204708" lon="-5.41659202426672">
        <ele>838.39999999999998</ele>
        <time>2003-04-14T16:50:05Z</time>
      </trkpt>
      <trkpt lat="30.780986985191703" lon="-5.416938029229641">
        <ele>837.60000000000002</ele>
        <time>2003-04-14T16:50:11Z</time>
      </trkpt>
      <trkpt lat="30.780902998521924" lon="-5.416983040049672">
        <ele>837</ele>
        <time>2003-04-14T16:50:12Z</time>
      </trkpt>
      <trkpt lat="30.780036980286241" lon="-5.417492995038629">
        <ele>834.10000000000002</ele>
        <time>2003-04-14T16:50:21Z</time>
      </trkpt>
      <trkpt lat="30.779337007552385" lon="-5.418027006089687">
        <ele>831.89999999999998</ele>
        <time>2003-04-14T16:50:29Z</time>
      </trkpt>
      <trkpt lat="30.778652960434556" lon="-5.418835021555424">
        <ele>831.29999999999995</ele>
        <time>2003-04-14T16:50:39Z</time>
      </trkpt>
      <trkpt lat="30.778302010148764" lon="-5.41930197738111">
        <ele>831.10000000000002</ele>
        <time>2003-04-14T16:50:43Z</time>
      </trkpt>
      <trkpt lat="30.778284994885325" lon="-5.419404990971088">
        <ele>831.70000000000005</ele>
        <time>2003-04-14T16:50:44Z</time>
      </trkpt>
      <trkpt lat="30.778281977400184" lon="-5.419514961540699">
        <ele>831.5</ele>
        <time>2003-04-14T16:50:46Z</time>
      </trkpt>
      <trkpt lat="30.778269991278648" lon="-5.419898014515638">
        <ele>831.29999999999995</ele>
        <time>2003-04-14T16:50:48Z</time>
      </trkpt>
      <trkpt lat="30.778236966580153" lon="-5.420572003349662">
        <ele>830.60000000000002</ele>
        <time>2003-04-14T16:50:54Z</time>
      </trkpt>
      <trkpt lat="30.778266973793507" lon="-5.421695010736585">
        <ele>829.20000000000005</ele>
        <time>2003-04-14T16:51:02Z</time>
      </trkpt>
      <trkpt lat="30.778348026797175" lon="-5.422766972333193">
        <ele>828.29999999999995</ele>
        <time>2003-04-14T16:51:09Z</time>
      </trkpt>
      <trkpt lat="30.778462020680308" lon="-5.423823008313775">
        <ele>827.60000000000002</ele>
        <time>2003-04-14T16:51:15Z</time>
      </trkpt>
      <trkpt lat="30.778447017073631" lon="-5.424260040745139">
        <ele>826.5</ele>
        <time>2003-04-14T16:51:18Z</time>
      </trkpt>
      <trkpt lat="30.778388008475304" lon="-5.425096973776817">
        <ele>825</ele>
        <time>2003-04-14T16:51:25Z</time>
      </trkpt>
      <trkpt lat="30.778454979881644" lon="-5.425759982317686">
        <ele>824.29999999999995</ele>
        <time>2003-04-14T16:51:30Z</time>
      </trkpt>
      <trkpt lat="30.778716998174787" lon="-5.426811994984746">
        <ele>823.79999999999995</ele>
        <time>2003-04-14T16:51:37Z</time>
      </trkpt>
      <trkpt lat="30.779020003974438" lon="-5.427799969911575">
        <ele>824</ele>
        <time>2003-04-14T16:51:45Z</time>
      </trkpt>
      <trkpt lat="30.779302977025509" lon="-5.428852988407016">
        <ele>823.60000000000002</ele>
        <time>2003-04-14T16:51:53Z</time>
      </trkpt>
      <trkpt lat="30.779585028067231" lon="-5.429905001074076">
        <ele>823.89999999999998</ele>
        <time>2003-04-14T16:52:01Z</time>
      </trkpt>
      <trkpt lat="30.779852997511625" lon="-5.43096799403429">
        <ele>824.39999999999998</ele>
        <time>2003-04-14T16:52:11Z</time>
      </trkpt>
      <trkpt lat="30.7801219727844" lon="-5.431892015039921">
        <ele>824.70000000000005</ele>
        <time>2003-04-14T16:52:19Z</time>
      </trkpt>
      <trkpt lat="30.780384996905923" lon="-5.432743029668927">
        <ele>825.10000000000002</ele>
        <time>2003-04-14T16:52:26Z</time>
      </trkpt>
      <trkpt lat="30.780384996905923" lon="-5.432972023263574">
        <ele>825.39999999999998</ele>
        <time>2003-04-14T16:52:28Z</time>
      </trkpt>
      <trkpt lat="30.780343003571033" lon="-5.433167992159724">
        <ele>824.10000000000002</ele>
        <time>2003-04-14T16:52:30Z</time>
      </trkpt>
      <trkpt lat="30.780260022729635" lon="-5.433454988524318">
        <ele>824.79999999999995</ele>
        <time>2003-04-14T16:52:32Z</time>
      </trkpt>
      <trkpt lat="30.780090037733316" lon="-5.433908030390739">
        <ele>824.89999999999998</ele>
        <time>2003-04-14T16:52:38Z</time>
      </trkpt>
      <trkpt lat="30.780103029683232" lon="-5.434059994295239">
        <ele>824.29999999999995</ele>
        <time>2003-04-14T16:52:39Z</time>
      </trkpt>
      <trkpt lat="30.780030023306608" lon="-5.434222016483545">
        <ele>824.39999999999998</ele>
        <time>2003-04-14T16:52:42Z</time>
      </trkpt>
      <trkpt lat="30.77994997613132" lon="-5.43440499342978">
        <ele>824.60000000000002</ele>
        <time>2003-04-14T16:52:43Z</time>
      </trkpt>
      <trkpt lat="30.779819972813129" lon="-5.434795003384352">
        <ele>824</ele>
        <time>2003-04-14T16:52:47Z</time>
      </trkpt>
      <trkpt lat="30.779688041657209" lon="-5.434958031401038">
        <ele>823.89999999999998</ele>
        <time>2003-04-14T16:52:50Z</time>
      </trkpt>
      <trkpt lat="30.779404984787107" lon="-5.435298001393676">
        <ele>822.79999999999995</ele>
        <time>2003-04-14T16:52:54Z</time>
      </trkpt>
      <trkpt lat="30.779116982594132" lon="-5.435877023264766">
        <ele>822.79999999999995</ele>
        <time>2003-04-14T16:52:59Z</time>
      </trkpt>
      <trkpt lat="30.779007012024522" lon="-5.436180029064417">
        <ele>822.60000000000002</ele>
        <time>2003-04-14T16:53:02Z</time>
      </trkpt>
      <trkpt lat="30.778856975957751" lon="-5.436916965991259">
        <ele>822</ele>
        <time>2003-04-14T16:53:10Z</time>
      </trkpt>
      <trkpt lat="30.778833003714681" lon="-5.437247967347503">
        <ele>821.70000000000005</ele>
        <time>2003-04-14T16:53:13Z</time>
      </trkpt>
      <trkpt lat="30.778869967907667" lon="-5.43760797008872">
        <ele>821.60000000000002</ele>
        <time>2003-04-14T16:53:15Z</time>
      </trkpt>
      <trkpt lat="30.778931993991137" lon="-5.437845010310412">
        <ele>821.70000000000005</ele>
        <time>2003-04-14T16:53:18Z</time>
      </trkpt>
      <trkpt lat="30.778942974284291" lon="-5.437969984486699">
        <ele>821.79999999999995</ele>
        <time>2003-04-14T16:53:18Z</time>
      </trkpt>
      <trkpt lat="30.778974993154407" lon="-5.438088001683354">
        <ele>821.39999999999998</ele>
        <time>2003-04-14T16:53:20Z</time>
      </trkpt>
      <trkpt lat="30.779042970389128" lon="-5.438453033566475">
        <ele>821.29999999999995</ele>
        <time>2003-04-14T16:53:22Z</time>
      </trkpt>
      <trkpt lat="30.779029978439212" lon="-5.438689989969134">
        <ele>821.20000000000005</ele>
        <time>2003-04-14T16:53:25Z</time>
      </trkpt>
      <trkpt lat="30.778982033953071" lon="-5.438791997730732">
        <ele>821.60000000000002</ele>
        <time>2003-04-14T16:53:25Z</time>
      </trkpt>
      <trkpt lat="30.778848007321358" lon="-5.438983021304011">
        <ele>821.60000000000002</ele>
        <time>2003-04-14T16:53:28Z</time>
      </trkpt>
      <trkpt lat="30.778590012341738" lon="-5.439298013225198">
        <ele>821.39999999999998</ele>
        <time>2003-04-14T16:53:32Z</time>
      </trkpt>
      <trkpt lat="30.778390020132065" lon="-5.439542010426521">
        <ele>821.10000000000002</ele>
        <time>2003-04-14T16:53:34Z</time>
      </trkpt>
      <trkpt lat="30.778303015977144" lon="-5.439733033999801">
        <ele>820.79999999999995</ele>
        <time>2003-04-14T16:53:37Z</time>
      </trkpt>
      <trkpt lat="30.778277032077312" lon="-5.439933026209474">
        <ele>820.60000000000002</ele>
        <time>2003-04-14T16:53:38Z</time>
      </trkpt>
      <trkpt lat="30.7782949693501" lon="-5.440139975398779">
        <ele>820.39999999999998</ele>
        <time>2003-04-14T16:53:41Z</time>
      </trkpt>
      <trkpt lat="30.778322964906693" lon="-5.440239971503615">
        <ele>820.39999999999998</ele>
        <time>2003-04-14T16:53:41Z</time>
      </trkpt>
      <trkpt lat="30.778377028182149" lon="-5.440507018938661">
        <ele>820.29999999999995</ele>
        <time>2003-04-14T16:53:45Z</time>
      </trkpt>
      <trkpt lat="30.778375016525388" lon="-5.440659988671541">
        <ele>820.39999999999998</ele>
        <time>2003-04-14T16:53:47Z</time>
      </trkpt>
      <trkpt lat="30.778362024575472" lon="-5.440937010571361">
        <ele>821.20000000000005</ele>
        <time>2003-04-14T16:53:51Z</time>
      </trkpt>
      <trkpt lat="30.778356995433569" lon="-5.441104983910918">
        <ele>820.89999999999998</ele>
        <time>2003-04-14T16:53:52Z</time>
      </trkpt>
      <trkpt lat="30.778356995433569" lon="-5.441273041069508">
        <ele>821</ele>
        <time>2003-04-14T16:53:55Z</time>
      </trkpt>
      <trkpt lat="30.778418015688658" lon="-5.441453000530601">
        <ele>821.5</ele>
        <time>2003-04-14T16:53:56Z</time>
      </trkpt>
      <trkpt lat="30.778494961559772" lon="-5.441618040204048">
        <ele>821.5</ele>
        <time>2003-04-14T16:53:59Z</time>
      </trkpt>
      <trkpt lat="30.7786800339818" lon="-5.441570011898875">
        <ele>822</ele>
        <time>2003-04-14T16:54:12Z</time>
      </trkpt>
      <trkpt lat="30.778778018429875" lon="-5.441612005233765">
        <ele>822.10000000000002</ele>
        <time>2003-04-14T16:54:14Z</time>
      </trkpt>
      <trkpt lat="30.778893018141389" lon="-5.441706972196698">
        <ele>822.20000000000005</ele>
        <time>2003-04-14T16:54:16Z</time>
      </trkpt>
      <trkpt lat="30.779032995924354" lon="-5.441821971908212">
        <ele>822.20000000000005</ele>
        <time>2003-04-14T16:54:18Z</time>
      </trkpt>
      <trkpt lat="30.779357040300965" lon="-5.442136963829398">
        <ele>822.39999999999998</ele>
        <time>2003-04-14T16:54:23Z</time>
      </trkpt>
      <trkpt lat="30.779427029192448" lon="-5.442309966310859">
        <ele>822.89999999999998</ele>
        <time>2003-04-14T16:54:24Z</time>
      </trkpt>
      <trkpt lat="30.779510010033846" lon="-5.442403005436063">
        <ele>821.89999999999998</ele>
        <time>2003-04-14T16:54:27Z</time>
      </trkpt>
      <trkpt lat="30.779622998088598" lon="-5.442557986825705">
        <ele>822.20000000000005</ele>
        <time>2003-04-14T16:54:30Z</time>
      </trkpt>
      <trkpt lat="30.779759958386421" lon="-5.442746998742223">
        <ele>822.5</ele>
        <time>2003-04-14T16:54:32Z</time>
      </trkpt>
      <trkpt lat="30.779827013611794" lon="-5.442916983738542">
        <ele>822.70000000000005</ele>
        <time>2003-04-14T16:54:35Z</time>
      </trkpt>
      <trkpt lat="30.779912006109953" lon="-5.443272041156888">
        <ele>823.60000000000002</ele>
        <time>2003-04-14T16:54:39Z</time>
      </trkpt>
      <trkpt lat="30.779973026365042" lon="-5.443434985354543">
        <ele>824</ele>
        <time>2003-04-14T16:54:49Z</time>
      </trkpt>
      <trkpt lat="30.780047038570046" lon="-5.443504974246025">
        <ele>824.39999999999998</ele>
        <time>2003-04-14T16:54:50Z</time>
      </trkpt>
      <trkpt lat="30.780132031068206" lon="-5.443540010601282">
        <ele>823.79999999999995</ele>
        <time>2003-04-14T16:54:53Z</time>
      </trkpt>
      <trkpt lat="30.780296986922622" lon="-5.443606982007623">
        <ele>824</ele>
        <time>2003-04-14T16:54:55Z</time>
      </trkpt>
      <trkpt lat="30.780579959973693" lon="-5.443700021132827">
        <ele>824.70000000000005</ele>
        <time>2003-04-14T16:55:02Z</time>
      </trkpt>
      <trkpt lat="30.780752962455153" lon="-5.443742014467716">
        <ele>824.70000000000005</ele>
        <time>2003-04-14T16:56:04Z</time>
      </trkpt>
      <trkpt lat="30.780905010178685" lon="-5.443777972832322">
        <ele>825.5</ele>
        <time>2003-04-14T16:56:07Z</time>
      </trkpt>
      <trkpt lat="30.781097961589694" lon="-5.44383698143065">
        <ele>825.5</ele>
        <time>2003-04-14T16:56:11Z</time>
      </trkpt>
      <trkpt lat="30.781276999041438" lon="-5.443934965878725">
        <ele>825.70000000000005</ele>
        <time>2003-04-14T16:56:14Z</time>
      </trkpt>
      <trkpt lat="30.781446984037757" lon="-5.444090031087399">
        <ele>825.89999999999998</ele>
        <time>2003-04-14T16:56:16Z</time>
      </trkpt>
      <trkpt lat="30.781574975699186" lon="-5.444192960858345">
        <ele>826.39999999999998</ele>
        <time>2003-04-14T16:56:19Z</time>
      </trkpt>
      <trkpt lat="30.782179981470108" lon="-5.44469797052443">
        <ele>829.70000000000005</ele>
        <time>2003-04-14T16:56:29Z</time>
      </trkpt>
      <trkpt lat="30.782319959253073" lon="-5.44480299577117">
        <ele>830.79999999999995</ele>
        <time>2003-04-14T16:56:30Z</time>
      </trkpt>
      <trkpt lat="30.782447028905153" lon="-5.44493199326098">
        <ele>830.89999999999998</ele>
        <time>2003-04-14T16:56:31Z</time>
      </trkpt>
      <trkpt lat="30.782533027231693" lon="-5.445069959387183">
        <ele>832</ele>
        <time>2003-04-14T16:56:34Z</time>
      </trkpt>
      <trkpt lat="30.782582983374596" lon="-5.445193005725741">
        <ele>832</ele>
        <time>2003-04-14T16:56:35Z</time>
      </trkpt>
      <trkpt lat="30.782669987529516" lon="-5.44525302015245">
        <ele>831.5</ele>
        <time>2003-04-14T16:56:38Z</time>
      </trkpt>
      <trkpt lat="30.782824968919158" lon="-5.445306999608874">
        <ele>832.70000000000005</ele>
        <time>2003-04-14T16:56:42Z</time>
      </trkpt>
      <trkpt lat="30.782937034964561" lon="-5.44538201764226">
        <ele>834.10000000000002</ele>
        <time>2003-04-14T16:56:43Z</time>
      </trkpt>
      <trkpt lat="30.783044993877411" lon="-5.445516966283321">
        <ele>834.60000000000002</ele>
        <time>2003-04-14T16:56:46Z</time>
      </trkpt>
      <trkpt lat="30.783126968890429" lon="-5.445691980421543">
        <ele>835</ele>
        <time>2003-04-14T16:56:47Z</time>
      </trkpt>
      <trkpt lat="30.783147001639009" lon="-5.445794994011521">
        <ele>835.29999999999995</ele>
        <time>2003-04-14T16:56:49Z</time>
      </trkpt>
      <trkpt lat="30.783197963610291" lon="-5.445977970957756">
        <ele>837</ele>
        <time>2003-04-14T16:56:50Z</time>
      </trkpt>
      <trkpt lat="30.78334498219192" lon="-5.446407040581107">
        <ele>840.29999999999995</ele>
        <time>2003-04-14T16:56:56Z</time>
      </trkpt>
      <trkpt lat="30.783471968024969" lon="-5.446620024740696">
        <ele>841</ele>
        <time>2003-04-14T16:56:58Z</time>
      </trkpt>
      <trkpt lat="30.783634996041656" lon="-5.446818005293608">
        <ele>841.70000000000005</ele>
        <time>2003-04-14T16:57:02Z</time>
      </trkpt>
      <trkpt lat="30.784002039581537" lon="-5.447242967784405">
        <ele>846.60000000000002</ele>
        <time>2003-04-14T16:57:09Z</time>
      </trkpt>
      <trkpt lat="30.784127013757825" lon="-5.447361990809441">
        <ele>847.29999999999995</ele>
        <time>2003-04-14T16:57:12Z</time>
      </trkpt>
      <trkpt lat="30.78467502258718" lon="-5.447825007140636">
        <ele>851.89999999999998</ele>
        <time>2003-04-14T16:57:20Z</time>
      </trkpt>
      <trkpt lat="30.78480301424861" lon="-5.44791704043746">
        <ele>854.29999999999995</ele>
        <time>2003-04-14T16:57:21Z</time>
      </trkpt>
      <trkpt lat="30.785087998956442" lon="-5.448157014325261">
        <ele>856</ele>
        <time>2003-04-14T16:57:25Z</time>
      </trkpt>
      <trkpt lat="30.785157987847924" lon="-5.448339991271496">
        <ele>857</ele>
        <time>2003-04-14T16:57:28Z</time>
      </trkpt>
      <trkpt lat="30.785171985626221" lon="-5.448447028174996">
        <ele>857.60000000000002</ele>
        <time>2003-04-14T16:57:28Z</time>
      </trkpt>
      <trkpt lat="30.785178020596504" lon="-5.448662023991346">
        <ele>858.89999999999998</ele>
        <time>2003-04-14T16:57:29Z</time>
      </trkpt>
      <trkpt lat="30.785278016701341" lon="-5.448835026472807">
        <ele>859.70000000000005</ele>
        <time>2003-04-14T16:57:32Z</time>
      </trkpt>
      <trkpt lat="30.785655034705997" lon="-5.449350010603666">
        <ele>863.20000000000005</ele>
        <time>2003-04-14T16:57:39Z</time>
      </trkpt>
      <trkpt lat="30.785695016384125" lon="-5.449468027800322">
        <ele>863.20000000000005</ele>
        <time>2003-04-14T16:57:40Z</time>
      </trkpt>
      <trkpt lat="30.785846980288625" lon="-5.449798023328185">
        <ele>863.39999999999998</ele>
        <time>2003-04-14T16:57:43Z</time>
      </trkpt>
      <trkpt lat="30.78617999330163" lon="-5.450552981346846">
        <ele>864</ele>
        <time>2003-04-14T16:57:48Z</time>
      </trkpt>
      <trkpt lat="30.786197008565068" lon="-5.450694970786572">
        <ele>864.39999999999998</ele>
        <time>2003-04-14T16:57:50Z</time>
      </trkpt>
      <trkpt lat="30.786272026598454" lon="-5.450967969372869">
        <ele>864.29999999999995</ele>
        <time>2003-04-14T16:57:52Z</time>
      </trkpt>
      <trkpt lat="30.786334974691272" lon="-5.451087998226285">
        <ele>864.39999999999998</ele>
        <time>2003-04-14T16:57:52Z</time>
      </trkpt>
      <trkpt lat="30.786651978269219" lon="-5.451812027022243">
        <ele>865.60000000000002</ele>
        <time>2003-04-14T16:57:59Z</time>
      </trkpt>
      <trkpt lat="30.786881977692246" lon="-5.452457014471293">
        <ele>865.5</ele>
        <time>2003-04-14T16:58:03Z</time>
      </trkpt>
      <trkpt lat="30.787327978760004" lon="-5.45344197191298">
        <ele>866.20000000000005</ele>
        <time>2003-04-14T16:58:11Z</time>
      </trkpt>
      <trkpt lat="30.787457982078195" lon="-5.453807003796101">
        <ele>866.79999999999995</ele>
        <time>2003-04-14T16:58:15Z</time>
      </trkpt>
      <trkpt lat="30.787572981789708" lon="-5.454187039285898">
        <ele>867</ele>
        <time>2003-04-14T16:58:18Z</time>
      </trkpt>
      <trkpt lat="30.787737015634775" lon="-5.454532038420439">
        <ele>867.70000000000005</ele>
        <time>2003-04-14T16:58:21Z</time>
      </trkpt>
      <trkpt lat="30.788158038631082" lon="-5.455381963402033">
        <ele>869.70000000000005</ele>
        <time>2003-04-14T16:58:29Z</time>
      </trkpt>
      <trkpt lat="30.788176981732249" lon="-5.455495035275817">
        <ele>870.29999999999995</ele>
        <time>2003-04-14T16:58:30Z</time>
      </trkpt>
      <trkpt lat="30.788110010325909" lon="-5.455608023330569">
        <ele>870.60000000000002</ele>
        <time>2003-04-14T16:58:33Z</time>
      </trkpt>
      <trkpt lat="30.788008002564311" lon="-5.455737020820379">
        <ele>870.5</ele>
        <time>2003-04-14T16:58:34Z</time>
      </trkpt>
      <trkpt lat="30.787965003401041" lon="-5.455901976674795">
        <ele>870.60000000000002</ele>
        <time>2003-04-14T16:58:37Z</time>
      </trkpt>
      <trkpt lat="30.78789995983243" lon="-5.456093000248075">
        <ele>870.79999999999995</ele>
        <time>2003-04-14T16:58:38Z</time>
      </trkpt>
      <trkpt lat="30.787759982049465" lon="-5.456402041018009">
        <ele>871.20000000000005</ele>
        <time>2003-04-14T16:58:42Z</time>
      </trkpt>
      <trkpt lat="30.787692004814744" lon="-5.456528021022677">
        <ele>871.60000000000002</ele>
        <time>2003-04-14T16:58:46Z</time>
      </trkpt>
      <trkpt lat="30.787612041458488" lon="-5.456632962450385">
        <ele>871.70000000000005</ele>
        <time>2003-04-14T16:58:48Z</time>
      </trkpt>
      <trkpt lat="30.787463011220098" lon="-5.456827003508806">
        <ele>871.5</ele>
        <time>2003-04-14T16:58:50Z</time>
      </trkpt>
      <trkpt lat="30.787347005680203" lon="-5.456977961584926">
        <ele>871.5</ele>
        <time>2003-04-14T16:58:53Z</time>
      </trkpt>
      <trkpt lat="30.787267964333296" lon="-5.45713503845036">
        <ele>871.60000000000002</ele>
        <time>2003-04-14T16:58:54Z</time>
      </trkpt>
      <trkpt lat="30.786942997947335" lon="-5.45784498564899">
        <ele>872</ele>
        <time>2003-04-14T16:59:02Z</time>
      </trkpt>
      <trkpt lat="30.786866974085569" lon="-5.458162995055318">
        <ele>871.89999999999998</ele>
        <time>2003-04-14T16:59:05Z</time>
      </trkpt>
      <trkpt lat="30.786807965487242" lon="-5.458357958123088">
        <ele>871.89999999999998</ele>
        <time>2003-04-14T16:59:08Z</time>
      </trkpt>
      <trkpt lat="30.786685002967715" lon="-5.458677979186177">
        <ele>871.60000000000002</ele>
        <time>2003-04-14T16:59:12Z</time>
      </trkpt>
      <trkpt lat="30.786554999649525" lon="-5.458840001374483">
        <ele>871.70000000000005</ele>
        <time>2003-04-14T16:59:15Z</time>
      </trkpt>
      <trkpt lat="30.786285018548369" lon="-5.459121968597174">
        <ele>871.29999999999995</ele>
        <time>2003-04-14T16:59:20Z</time>
      </trkpt>
      <trkpt lat="30.785870030522346" lon="-5.459393039345741">
        <ele>870.20000000000005</ele>
        <time>2003-04-14T16:59:27Z</time>
      </trkpt>
      <trkpt lat="30.785774979740381" lon="-5.459427991881967">
        <ele>869.89999999999998</ele>
        <time>2003-04-14T16:59:29Z</time>
      </trkpt>
      <trkpt lat="30.785680012777448" lon="-5.459441989660263">
        <ele>869.89999999999998</ele>
        <time>2003-04-14T16:59:32Z</time>
      </trkpt>
      <trkpt lat="30.785544980317354" lon="-5.459482977166772">
        <ele>868.70000000000005</ele>
        <time>2003-04-14T16:59:36Z</time>
      </trkpt>
      <trkpt lat="30.785401985049248" lon="-5.459535028785467">
        <ele>870.60000000000002</ele>
        <time>2003-04-14T16:59:40Z</time>
      </trkpt>
      <trkpt lat="30.785308023914695" lon="-5.45954299159348">
        <ele>870.60000000000002</ele>
        <time>2003-04-14T16:59:43Z</time>
      </trkpt>
      <trkpt lat="30.784994959831238" lon="-5.459566963836551">
        <ele>871.5</ele>
        <time>2003-04-14T16:59:48Z</time>
      </trkpt>
      <trkpt lat="30.784866968169808" lon="-5.459654973819852">
        <ele>871.60000000000002</ele>
        <time>2003-04-14T16:59:51Z</time>
      </trkpt>
      <trkpt lat="30.78471701592207" lon="-5.459752036258578">
        <ele>871.70000000000005</ele>
        <time>2003-04-14T16:59:52Z</time>
      </trkpt>
      <trkpt lat="30.784447034820914" lon="-5.459948005154729">
        <ele>871.39999999999998</ele>
        <time>2003-04-14T16:59:56Z</time>
      </trkpt>
      <trkpt lat="30.783701967447996" lon="-5.460540018975735">
        <ele>870.10000000000002</ele>
        <time>2003-04-14T17:00:07Z</time>
      </trkpt>
      <trkpt lat="30.783099979162216" lon="-5.461034970358014">
        <ele>870</ele>
        <time>2003-04-14T17:00:17Z</time>
      </trkpt>
      <trkpt lat="30.782937034964561" lon="-5.461077969521284">
        <ele>869.89999999999998</ele>
        <time>2003-04-14T17:00:18Z</time>
      </trkpt>
      <trkpt lat="30.78276202082634" lon="-5.461134966462851">
        <ele>869.89999999999998</ele>
        <time>2003-04-14T17:00:21Z</time>
      </trkpt>
      <trkpt lat="30.781836993992329" lon="-5.461452975869179">
        <ele>870.60000000000002</ele>
        <time>2003-04-14T17:00:30Z</time>
      </trkpt>
      <trkpt lat="30.780931999906898" lon="-5.461766961961985">
        <ele>870.5</ele>
        <time>2003-04-14T17:00:38Z</time>
      </trkpt>
      <trkpt lat="30.780152985826135" lon="-5.461953040212393">
        <ele>870.10000000000002</ele>
        <time>2003-04-14T17:00:45Z</time>
      </trkpt>
      <trkpt lat="30.779183031991124" lon="-5.4620770085603">
        <ele>869.70000000000005</ele>
        <time>2003-04-14T17:00:54Z</time>
      </trkpt>
      <trkpt lat="30.778871979564428" lon="-5.46214004047215">
        <ele>869.60000000000002</ele>
        <time>2003-04-14T17:00:57Z</time>
      </trkpt>
      <trkpt lat="30.777990035712719" lon="-5.462482022121549">
        <ele>869</ele>
        <time>2003-04-14T17:01:05Z</time>
      </trkpt>
      <trkpt lat="30.777089986950159" lon="-5.462802965193987">
        <ele>868.5</ele>
        <time>2003-04-14T17:01:13Z</time>
      </trkpt>
      <trkpt lat="30.7765750028193" lon="-5.462953001260757">
        <ele>867.79999999999995</ele>
        <time>2003-04-14T17:01:19Z</time>
      </trkpt>
      <trkpt lat="30.775657016783953" lon="-5.46315299347043">
        <ele>867.20000000000005</ele>
        <time>2003-04-14T17:01:28Z</time>
      </trkpt>
      <trkpt lat="30.775129962712526" lon="-5.4632150195539">
        <ele>866.70000000000005</ele>
        <time>2003-04-14T17:01:34Z</time>
      </trkpt>
      <trkpt lat="30.774931982159615" lon="-5.463202027603984">
        <ele>866.5</ele>
        <time>2003-04-14T17:01:35Z</time>
      </trkpt>
      <trkpt lat="30.77468303963542" lon="-5.463143019005656">
        <ele>866.20000000000005</ele>
        <time>2003-04-14T17:01:39Z</time>
      </trkpt>
      <trkpt lat="30.774607015773654" lon="-5.463075041770935">
        <ele>866</ele>
        <time>2003-04-14T17:01:39Z</time>
      </trkpt>
      <trkpt lat="30.774423032999039" lon="-5.462931962683797">
        <ele>865.60000000000002</ele>
        <time>2003-04-14T17:01:42Z</time>
      </trkpt>
      <trkpt lat="30.774015001952648" lon="-5.462649995461106">
        <ele>865.20000000000005</ele>
        <time>2003-04-14T17:01:46Z</time>
      </trkpt>
      <trkpt lat="30.773215033113956" lon="-5.461908029392362">
        <ele>863.60000000000002</ele>
        <time>2003-04-14T17:01:54Z</time>
      </trkpt>
      <trkpt lat="30.772853018715978" lon="-5.461515001952648">
        <ele>863</ele>
        <time>2003-04-14T17:01:58Z</time>
      </trkpt>
      <trkpt lat="30.772583037614822" lon="-5.461245020851493">
        <ele>862.60000000000002</ele>
        <time>2003-04-14T17:02:01Z</time>
      </trkpt>
      <trkpt lat="30.772362006828189" lon="-5.460897004231811">
        <ele>861.89999999999998</ele>
        <time>2003-04-14T17:02:03Z</time>
      </trkpt>
      <trkpt lat="30.772208031266928" lon="-5.460672033950687">
        <ele>861.70000000000005</ele>
        <time>2003-04-14T17:02:06Z</time>
      </trkpt>
      <trkpt lat="30.771542005240917" lon="-5.459807021543384">
        <ele>860.60000000000002</ele>
        <time>2003-04-14T17:02:14Z</time>
      </trkpt>
      <trkpt lat="30.770953008905053" lon="-5.459066983312368">
        <ele>860.20000000000005</ele>
        <time>2003-04-14T17:02:21Z</time>
      </trkpt>
      <trkpt lat="30.770555036142468" lon="-5.458712009713054">
        <ele>860</ele>
        <time>2003-04-14T17:02:25Z</time>
      </trkpt>
      <trkpt lat="30.769784990698099" lon="-5.457942970097065">
        <ele>859.29999999999995</ele>
        <time>2003-04-14T17:02:33Z</time>
      </trkpt>
      <trkpt lat="30.769304959103465" lon="-5.457471990957856">
        <ele>858.79999999999995</ele>
        <time>2003-04-14T17:02:37Z</time>
      </trkpt>
      <trkpt lat="30.769007988274097" lon="-5.457203015685082">
        <ele>858.79999999999995</ele>
        <time>2003-04-14T17:02:41Z</time>
      </trkpt>
      <trkpt lat="30.768657959997654" lon="-5.456766989082098">
        <ele>858.29999999999995</ele>
        <time>2003-04-14T17:02:45Z</time>
      </trkpt>
      <trkpt lat="30.7683049980551" lon="-5.456325011327863">
        <ele>857.89999999999998</ele>
        <time>2003-04-14T17:02:49Z</time>
      </trkpt>
      <trkpt lat="30.767865031957626" lon="-5.455787982791662">
        <ele>857.20000000000005</ele>
        <time>2003-04-14T17:02:53Z</time>
      </trkpt>
      <trkpt lat="30.767602007836103" lon="-5.455475002527237">
        <ele>856.89999999999998</ele>
        <time>2003-04-14T17:02:56Z</time>
      </trkpt>
      <trkpt lat="30.767155000939965" lon="-5.454967981204391">
        <ele>856.20000000000005</ele>
        <time>2003-04-14T17:03:01Z</time>
      </trkpt>
      <trkpt lat="30.766972023993731" lon="-5.454770000651479">
        <ele>855.89999999999998</ele>
        <time>2003-04-14T17:03:04Z</time>
      </trkpt>
      <trkpt lat="30.766327036544681" lon="-5.454204976558685">
        <ele>855</ele>
        <time>2003-04-14T17:03:11Z</time>
      </trkpt>
      <trkpt lat="30.766077004373074" lon="-5.454023005440831">
        <ele>854.39999999999998</ele>
        <time>2003-04-14T17:03:14Z</time>
      </trkpt>
      <trkpt lat="30.76598497107625" lon="-5.453965002670884">
        <ele>854.70000000000005</ele>
        <time>2003-04-14T17:03:15Z</time>
      </trkpt>
      <trkpt lat="30.765396980568767" lon="-5.45356996357441">
        <ele>852.89999999999998</ele>
        <time>2003-04-14T17:03:22Z</time>
      </trkpt>
      <trkpt lat="30.765269994735718" lon="-5.453487988561392">
        <ele>852.20000000000005</ele>
        <time>2003-04-14T17:03:23Z</time>
      </trkpt>
      <trkpt lat="30.764897000044584" lon="-5.453244997188449">
        <ele>849.70000000000005</ele>
        <time>2003-04-14T17:03:28Z</time>
      </trkpt>
      <trkpt lat="30.764431972056627" lon="-5.452990019693971">
        <ele>846.29999999999995</ele>
        <time>2003-04-14T17:03:35Z</time>
      </trkpt>
      <trkpt lat="30.7639429718256" lon="-5.45266798697412">
        <ele>841.60000000000002</ele>
        <time>2003-04-14T17:03:42Z</time>
      </trkpt>
      <trkpt lat="30.763810034841299" lon="-5.452594980597496">
        <ele>840.60000000000002</ele>
        <time>2003-04-14T17:03:43Z</time>
      </trkpt>
      <trkpt lat="30.763653041794896" lon="-5.452517028898001">
        <ele>838</ele>
        <time>2003-04-14T17:04:52Z</time>
      </trkpt>
      <trkpt lat="30.7635129801929" lon="-5.452445028349757">
        <ele>837.79999999999995</ele>
        <time>2003-04-14T17:04:55Z</time>
      </trkpt>
      <trkpt lat="30.763157000765204" lon="-5.452277977019548">
        <ele>835.5</ele>
        <time>2003-04-14T17:05:02Z</time>
      </trkpt>
      <trkpt lat="30.762973017990589" lon="-5.452255010604858">
        <ele>835</ele>
        <time>2003-04-14T17:05:04Z</time>
      </trkpt>
      <trkpt lat="30.762870004400611" lon="-5.452187033370137">
        <ele>835.29999999999995</ele>
        <time>2003-04-14T17:05:07Z</time>
      </trkpt>
      <trkpt lat="30.762713011354208" lon="-5.45204496011138">
        <ele>833.89999999999998</ele>
        <time>2003-04-14T17:05:10Z</time>
      </trkpt>
      <trkpt lat="30.762400031089783" lon="-5.451737008988857">
        <ele>830</ele>
        <time>2003-04-14T17:05:15Z</time>
      </trkpt>
      <trkpt lat="30.762155028060079" lon="-5.451584961265326">
        <ele>828.10000000000002</ele>
        <time>2003-04-14T17:05:19Z</time>
      </trkpt>
      <trkpt lat="30.762017983943224" lon="-5.451576998457313">
        <ele>828</ele>
        <time>2003-04-14T17:05:22Z</time>
      </trkpt>
      <trkpt lat="30.761802988126874" lon="-5.451629972085357">
        <ele>829.39999999999998</ele>
        <time>2003-04-14T17:05:24Z</time>
      </trkpt>
      <trkpt lat="30.761695029214025" lon="-5.45163500122726">
        <ele>830.60000000000002</ele>
        <time>2003-04-14T17:05:27Z</time>
      </trkpt>
      <trkpt lat="30.761582963168621" lon="-5.451650004833937">
        <ele>831.39999999999998</ele>
        <time>2003-04-14T17:05:41Z</time>
      </trkpt>
      <trkpt lat="30.761477015912533" lon="-5.451661990955472">
        <ele>831</ele>
        <time>2003-04-14T17:05:45Z</time>
      </trkpt>
      <trkpt lat="30.761337960138917" lon="-5.451695015653968">
        <ele>830.20000000000005</ele>
        <time>2003-04-14T17:05:49Z</time>
      </trkpt>
      <trkpt lat="30.761150037869811" lon="-5.45174203813076">
        <ele>829.29999999999995</ele>
        <time>2003-04-14T17:05:53Z</time>
      </trkpt>
      <trkpt lat="30.761024979874492" lon="-5.451767016202211">
        <ele>828.60000000000002</ele>
        <time>2003-04-14T17:05:54Z</time>
      </trkpt>
      <trkpt lat="30.76089296489954" lon="-5.451793000102043">
        <ele>829.29999999999995</ele>
        <time>2003-04-14T17:05:57Z</time>
      </trkpt>
      <trkpt lat="30.760555006563663" lon="-5.451861983165145">
        <ele>829.29999999999995</ele>
        <time>2003-04-14T17:06:02Z</time>
      </trkpt>
      <trkpt lat="30.760417962446809" lon="-5.451708007603884">
        <ele>828.89999999999998</ele>
        <time>2003-04-14T17:06:10Z</time>
      </trkpt>
      <trkpt lat="30.760364988818765" lon="-5.451619997620583">
        <ele>828</ele>
        <time>2003-04-14T17:06:13Z</time>
      </trkpt>
      <trkpt lat="30.760349985212088" lon="-5.451489994302392">
        <ele>827.20000000000005</ele>
        <time>2003-04-14T17:06:16Z</time>
      </trkpt>
      <trkpt lat="30.760367000475526" lon="-5.451333001255989">
        <ele>826.60000000000002</ele>
        <time>2003-04-14T17:06:18Z</time>
      </trkpt>
      <trkpt lat="30.760402036830783" lon="-5.451190005987883">
        <ele>826.20000000000005</ele>
        <time>2003-04-14T17:06:21Z</time>
      </trkpt>
      <trkpt lat="30.760513013228774" lon="-5.450878031551838">
        <ele>826.39999999999998</ele>
        <time>2003-04-14T17:06:25Z</time>
      </trkpt>
      <trkpt lat="30.760649973526597" lon="-5.450567984953523">
        <ele>826.39999999999998</ele>
        <time>2003-04-14T17:06:28Z</time>
      </trkpt>
      <trkpt lat="30.760713005438447" lon="-5.450407974421978">
        <ele>826.39999999999998</ele>
        <time>2003-04-14T17:06:31Z</time>
      </trkpt>
      <trkpt lat="30.760779976844788" lon="-5.450294986367226">
        <ele>826.10000000000002</ele>
        <time>2003-04-14T17:06:32Z</time>
      </trkpt>
      <trkpt lat="30.760806966573" lon="-5.4501529969275">
        <ele>826.29999999999995</ele>
        <time>2003-04-14T17:06:35Z</time>
      </trkpt>
      <trkpt lat="30.760777965188026" lon="-5.450013019144535">
        <ele>826.5</ele>
        <time>2003-04-14T17:06:36Z</time>
      </trkpt>
      <trkpt lat="30.760667994618416" lon="-5.44991503469646">
        <ele>827.29999999999995</ele>
        <time>2003-04-14T17:06:40Z</time>
      </trkpt>
      <trkpt lat="30.760600017383695" lon="-5.449812021106482">
        <ele>827.89999999999998</ele>
        <time>2003-04-14T17:06:41Z</time>
      </trkpt>
      <trkpt lat="30.760522987693548" lon="-5.44965997338295">
        <ele>827.29999999999995</ele>
        <time>2003-04-14T17:06:44Z</time>
      </trkpt>
      <trkpt lat="30.760331964120269" lon="-5.449453024193645">
        <ele>827.70000000000005</ele>
        <time>2003-04-14T17:06:47Z</time>
      </trkpt>
      <trkpt lat="30.760187963023782" lon="-5.449344981461763">
        <ele>828.29999999999995</ele>
        <time>2003-04-14T17:06:48Z</time>
      </trkpt>
      <trkpt lat="30.759684965014458" lon="-5.449047004804015">
        <ele>828.10000000000002</ele>
        <time>2003-04-14T17:06:55Z</time>
      </trkpt>
      <trkpt lat="30.759477009996772" lon="-5.448978021740913">
        <ele>827.5</ele>
        <time>2003-04-14T17:06:59Z</time>
      </trkpt>
      <trkpt lat="30.759338038042188" lon="-5.448875008150935">
        <ele>826.89999999999998</ele>
        <time>2003-04-14T17:07:00Z</time>
      </trkpt>
      <trkpt lat="30.759132010862231" lon="-5.448656994849443">
        <ele>825.70000000000005</ele>
        <time>2003-04-14T17:07:03Z</time>
      </trkpt>
      <trkpt lat="30.758630018681288" lon="-5.447979988530278">
        <ele>824.29999999999995</ele>
        <time>2003-04-14T17:07:11Z</time>
      </trkpt>
      <trkpt lat="30.758591964840889" lon="-5.447873035445809">
        <ele>824.20000000000005</ele>
        <time>2003-04-14T17:07:12Z</time>
      </trkpt>
      <trkpt lat="30.758477970957756" lon="-5.447423011064529">
        <ele>821.5</ele>
        <time>2003-04-14T17:07:17Z</time>
      </trkpt>
      <trkpt lat="30.758419968187809" lon="-5.447207009419799">
        <ele>822.5</ele>
        <time>2003-04-14T17:07:19Z</time>
      </trkpt>
      <trkpt lat="30.758358025923371" lon="-5.447112964466214">
        <ele>821.89999999999998</ele>
        <time>2003-04-14T17:07:21Z</time>
      </trkpt>
      <trkpt lat="30.758016966283321" lon="-5.446614995598793">
        <ele>819.79999999999995</ele>
        <time>2003-04-14T17:07:26Z</time>
      </trkpt>
      <trkpt lat="30.757927028462291" lon="-5.44643796980381">
        <ele>819</ele>
        <time>2003-04-14T17:07:29Z</time>
      </trkpt>
      <trkpt lat="30.75779995881021" lon="-5.446317018941045">
        <ele>818.60000000000002</ele>
        <time>2003-04-14T17:07:30Z</time>
      </trkpt>
      <trkpt lat="30.757635002955794" lon="-5.446167988702655">
        <ele>817.70000000000005</ele>
        <time>2003-04-14T17:07:34Z</time>
      </trkpt>
      <trkpt lat="30.757553027942777" lon="-5.446019964292646">
        <ele>817.70000000000005</ele>
        <time>2003-04-14T17:07:34Z</time>
      </trkpt>
      <trkpt lat="30.757448002696037" lon="-5.445876969024539">
        <ele>817.5</ele>
        <time>2003-04-14T17:07:38Z</time>
      </trkpt>
      <trkpt lat="30.757327973842621" lon="-5.445773033425212">
        <ele>817.29999999999995</ele>
        <time>2003-04-14T17:07:39Z</time>
      </trkpt>
      <trkpt lat="30.757207022979856" lon="-5.445658033713698">
        <ele>817.10000000000002</ele>
        <time>2003-04-14T17:07:42Z</time>
      </trkpt>
      <trkpt lat="30.757012981921434" lon="-5.445444965735078">
        <ele>816.79999999999995</ele>
        <time>2003-04-14T17:07:45Z</time>
      </trkpt>
      <trkpt lat="30.756822964176536" lon="-5.445217983797193">
        <ele>816.39999999999998</ele>
        <time>2003-04-14T17:07:46Z</time>
      </trkpt>
      <trkpt lat="30.756717016920447" lon="-5.445074988529086">
        <ele>816.39999999999998</ele>
        <time>2003-04-14T17:07:49Z</time>
      </trkpt>
      <trkpt lat="30.756666976958513" lon="-5.444907015189529">
        <ele>816.5</ele>
        <time>2003-04-14T17:07:52Z</time>
      </trkpt>
      <trkpt lat="30.756622971966863" lon="-5.44469696469605">
        <ele>815.39999999999998</ele>
        <time>2003-04-14T17:07:53Z</time>
      </trkpt>
      <trkpt lat="30.756569998338819" lon="-5.444595040753484">
        <ele>815.39999999999998</ele>
        <time>2003-04-14T17:07:54Z</time>
      </trkpt>
      <trkpt lat="30.756376963108778" lon="-5.44424501247704">
        <ele>815</ele>
        <time>2003-04-14T17:07:58Z</time>
      </trkpt>
      <trkpt lat="30.755706997588277" lon="-5.443443031981587">
        <ele>814.5</ele>
        <time>2003-04-14T17:08:09Z</time>
      </trkpt>
      <trkpt lat="30.755608007311821" lon="-5.443289978429675">
        <ele>813.5</ele>
        <time>2003-04-14T17:08:12Z</time>
      </trkpt>
      <trkpt lat="30.755042983219028" lon="-5.442454973235726">
        <ele>813.10000000000002</ele>
        <time>2003-04-14T17:08:21Z</time>
      </trkpt>
      <trkpt lat="30.754878027364612" lon="-5.442326981574297">
        <ele>812.29999999999995</ele>
        <time>2003-04-14T17:08:24Z</time>
      </trkpt>
      <trkpt lat="30.75481197796762" lon="-5.442224973812699">
        <ele>811.89999999999998</ele>
        <time>2003-04-14T17:08:24Z</time>
      </trkpt>
      <trkpt lat="30.754654984921217" lon="-5.442043002694845">
        <ele>811.79999999999995</ele>
        <time>2003-04-14T17:08:27Z</time>
      </trkpt>
      <trkpt lat="30.754345022141933" lon="-5.441685011610389">
        <ele>811.10000000000002</ele>
        <time>2003-04-14T17:08:31Z</time>
      </trkpt>
      <trkpt lat="30.754191968590021" lon="-5.441521983593702">
        <ele>811.5</ele>
        <time>2003-04-14T17:08:32Z</time>
      </trkpt>
      <trkpt lat="30.753987031057477" lon="-5.441313022747636">
        <ele>811.60000000000002</ele>
        <time>2003-04-14T17:08:36Z</time>
      </trkpt>
      <trkpt lat="30.753543041646481" lon="-5.440686978399754">
        <ele>811.10000000000002</ele>
        <time>2003-04-14T17:08:43Z</time>
      </trkpt>
      <trkpt lat="30.75337297283113" lon="-5.440424960106611">
        <ele>810.60000000000002</ele>
        <time>2003-04-14T17:08:47Z</time>
      </trkpt>
      <trkpt lat="30.753265013918281" lon="-5.440202001482248">
        <ele>810.39999999999998</ele>
        <time>2003-04-14T17:08:51Z</time>
      </trkpt>
      <trkpt lat="30.753167029470205" lon="-5.440203007310629">
        <ele>810.60000000000002</ele>
        <time>2003-04-14T17:08:52Z</time>
      </trkpt>
      <trkpt lat="30.753065021708608" lon="-5.44024701230228">
        <ele>809.79999999999995</ele>
        <time>2003-04-14T17:08:55Z</time>
      </trkpt>
      <trkpt lat="30.752947004511952" lon="-5.440296968445182">
        <ele>809.60000000000002</ele>
        <time>2003-04-14T17:08:56Z</time>
      </trkpt>
      <trkpt lat="30.752790011465549" lon="-5.440303003415465">
        <ele>809.79999999999995</ele>
        <time>2003-04-14T17:08:59Z</time>
      </trkpt>
      <trkpt lat="30.752627989277244" lon="-5.440241983160377">
        <ele>810.10000000000002</ele>
        <time>2003-04-14T17:09:00Z</time>
      </trkpt>
      <trkpt lat="30.752458004280925" lon="-5.440186997875571">
        <ele>810</ele>
        <time>2003-04-14T17:09:03Z</time>
      </trkpt>
      <trkpt lat="30.752363037317991" lon="-5.440202001482248">
        <ele>809.70000000000005</ele>
        <time>2003-04-14T17:09:03Z</time>
      </trkpt>
      <trkpt lat="30.751613024622202" lon="-5.440354971215129">
        <ele>810.89999999999998</ele>
        <time>2003-04-14T17:09:11Z</time>
      </trkpt>
      <trkpt lat="30.751256961375475" lon="-5.440514981746674">
        <ele>811</ele>
        <time>2003-04-14T17:09:15Z</time>
      </trkpt>
      <trkpt lat="30.751037020236254" lon="-5.440650014206767">
        <ele>811.5</ele>
        <time>2003-04-14T17:09:18Z</time>
      </trkpt>
      <trkpt lat="30.750920008867979" lon="-5.440686978399754">
        <ele>811.39999999999998</ele>
        <time>2003-04-14T17:09:21Z</time>
      </trkpt>
      <trkpt lat="30.750811966136098" lon="-5.440693013370037">
        <ele>810.79999999999995</ele>
        <time>2003-04-14T17:09:22Z</time>
      </trkpt>
      <trkpt lat="30.750637035816908" lon="-5.440704999491572">
        <ele>810.79999999999995</ele>
        <time>2003-04-14T17:09:26Z</time>
      </trkpt>
      <trkpt lat="30.750263035297394" lon="-5.440768031403422">
        <ele>811.5</ele>
        <time>2003-04-14T17:09:32Z</time>
      </trkpt>
      <trkpt lat="30.750088021159172" lon="-5.440727965906262">
        <ele>811.29999999999995</ele>
        <time>2003-04-14T17:09:34Z</time>
      </trkpt>
      <trkpt lat="30.749212028458714" lon="-5.440438035875559">
        <ele>811.79999999999995</ele>
        <time>2003-04-14T17:09:44Z</time>
      </trkpt>
      <trkpt lat="30.748835010454059" lon="-5.440375003963709">
        <ele>812.29999999999995</ele>
        <time>2003-04-14T17:09:48Z</time>
      </trkpt>
      <trkpt lat="30.748590007424355" lon="-5.440401993691921">
        <ele>812.89999999999998</ele>
        <time>2003-04-14T17:09:50Z</time>
      </trkpt>
      <trkpt lat="30.748248025774956" lon="-5.440435018390417">
        <ele>812.39999999999998</ele>
        <time>2003-04-14T17:09:54Z</time>
      </trkpt>
      <trkpt lat="30.748084997758269" lon="-5.44046200811863">
        <ele>812.79999999999995</ele>
        <time>2003-04-14T17:09:57Z</time>
      </trkpt>
      <trkpt lat="30.747907971963286" lon="-5.440477011725307">
        <ele>812.89999999999998</ele>
        <time>2003-04-14T17:09:59Z</time>
      </trkpt>
      <trkpt lat="30.747617036104202" lon="-5.440508024767041">
        <ele>813.29999999999995</ele>
        <time>2003-04-14T17:10:01Z</time>
      </trkpt>
      <trkpt lat="30.747434981167316" lon="-5.44052797369659">
        <ele>814.10000000000002</ele>
        <time>2003-04-14T17:10:04Z</time>
      </trkpt>
      <trkpt lat="30.747117977589369" lon="-5.440553035587072">
        <ele>814</ele>
        <time>2003-04-14T17:10:08Z</time>
      </trkpt>
      <trkpt lat="30.746857970952988" lon="-5.440631993114948">
        <ele>814.20000000000005</ele>
        <time>2003-04-14T17:10:11Z</time>
      </trkpt>
      <trkpt lat="30.746060013771057" lon="-5.440901974216104">
        <ele>813.60000000000002</ele>
        <time>2003-04-14T17:10:20Z</time>
      </trkpt>
      <trkpt lat="30.745174968615174" lon="-5.440977998077869">
        <ele>811.39999999999998</ele>
        <time>2003-04-14T17:10:28Z</time>
      </trkpt>
      <trkpt lat="30.74475696310401" lon="-5.441061984747648">
        <ele>812.5</ele>
        <time>2003-04-14T17:10:31Z</time>
      </trkpt>
      <trkpt lat="30.744380028918386" lon="-5.441121999174357">
        <ele>812</ele>
        <time>2003-04-14T17:10:35Z</time>
      </trkpt>
      <trkpt lat="30.743470005691051" lon="-5.441351998597384">
        <ele>813.10000000000002</ele>
        <time>2003-04-14T17:10:46Z</time>
      </trkpt>
      <trkpt lat="30.742642963305116" lon="-5.441576968878508">
        <ele>812.79999999999995</ele>
        <time>2003-04-14T17:10:55Z</time>
      </trkpt>
      <trkpt lat="30.742502985522151" lon="-5.441576968878508">
        <ele>814</ele>
        <time>2003-04-14T17:10:57Z</time>
      </trkpt>
      <trkpt lat="30.742317996919155" lon="-5.441521983593702">
        <ele>813.29999999999995</ele>
        <time>2003-04-14T17:10:59Z</time>
      </trkpt>
      <trkpt lat="30.74217801913619" lon="-5.441477978602052">
        <ele>812.39999999999998</ele>
        <time>2003-04-14T17:11:10Z</time>
      </trkpt>
      <trkpt lat="30.742057990282774" lon="-5.441436991095543">
        <ele>812.10000000000002</ele>
        <time>2003-04-14T17:11:13Z</time>
      </trkpt>
      <trkpt lat="30.741860009729862" lon="-5.441349986940622">
        <ele>811.39999999999998</ele>
        <time>2003-04-14T17:11:15Z</time>
      </trkpt>
      <trkpt lat="30.741717014461756" lon="-5.441319979727268">
        <ele>811.10000000000002</ele>
        <time>2003-04-14T17:11:18Z</time>
      </trkpt>
      <trkpt lat="30.741602014750242" lon="-5.441287038847804">
        <ele>811.10000000000002</ele>
        <time>2003-04-14T17:11:20Z</time>
      </trkpt>
      <trkpt lat="30.741506963968277" lon="-5.441182013601065">
        <ele>811</ele>
        <time>2003-04-14T17:11:22Z</time>
      </trkpt>
      <trkpt lat="30.741390036419034" lon="-5.441110013052821">
        <ele>810.29999999999995</ele>
        <time>2003-04-14T17:11:24Z</time>
      </trkpt>
      <trkpt lat="30.741261960938573" lon="-5.441055027768016">
        <ele>808.39999999999998</ele>
        <time>2003-04-14T17:11:25Z</time>
      </trkpt>
      <trkpt lat="30.741117037832737" lon="-5.441140020266175">
        <ele>807.89999999999998</ele>
        <time>2003-04-14T17:11:28Z</time>
      </trkpt>
      <trkpt lat="30.741034979000688" lon="-5.441186958923936">
        <ele>808.29999999999995</ele>
        <time>2003-04-14T17:11:29Z</time>
      </trkpt>
      <trkpt lat="30.740782013162971" lon="-5.441315034404397">
        <ele>808</ele>
        <time>2003-04-14T17:11:32Z</time>
      </trkpt>
      <trkpt lat="30.740205002948642" lon="-5.441513014957309">
        <ele>807.70000000000005</ele>
        <time>2003-04-14T17:11:38Z</time>
      </trkpt>
      <trkpt lat="30.739865032956004" lon="-5.44166699051857">
        <ele>807.60000000000002</ele>
        <time>2003-04-14T17:11:42Z</time>
      </trkpt>
      <trkpt lat="30.739015024155378" lon="-5.442084996029735">
        <ele>808.20000000000005</ele>
        <time>2003-04-14T17:11:52Z</time>
      </trkpt>
      <trkpt lat="30.738150011748075" lon="-5.442581959068775">
        <ele>808.20000000000005</ele>
        <time>2003-04-14T17:12:00Z</time>
      </trkpt>
      <trkpt lat="30.737992012873292" lon="-5.442712968215346">
        <ele>808.10000000000002</ele>
        <time>2003-04-14T17:12:03Z</time>
      </trkpt>
      <trkpt lat="30.737877013161778" lon="-5.442869961261749">
        <ele>809.20000000000005</ele>
        <time>2003-04-14T17:12:04Z</time>
      </trkpt>
      <trkpt lat="30.737437969073653" lon="-5.443549985066056">
        <ele>809.29999999999995</ele>
        <time>2003-04-14T17:12:12Z</time>
      </trkpt>
      <trkpt lat="30.737333027645946" lon="-5.443770010024309">
        <ele>809.5</ele>
        <time>2003-04-14T17:12:14Z</time>
      </trkpt>
      <trkpt lat="30.737072015181184" lon="-5.444342996925116">
        <ele>811.70000000000005</ele>
        <time>2003-04-14T17:12:19Z</time>
      </trkpt>
      <trkpt lat="30.736821983009577" lon="-5.444922018796206">
        <ele>813.79999999999995</ele>
        <time>2003-04-14T17:12:23Z</time>
      </trkpt>
      <trkpt lat="30.736746964976192" lon="-5.445280009880662">
        <ele>813.79999999999995</ele>
        <time>2003-04-14T17:12:27Z</time>
      </trkpt>
      <trkpt lat="30.736587960273027" lon="-5.445975037291646">
        <ele>814.29999999999995</ele>
        <time>2003-04-14T17:12:31Z</time>
      </trkpt>
      <trkpt lat="30.736193004995584" lon="-5.447025038301945">
        <ele>815.10000000000002</ele>
        <time>2003-04-14T17:12:39Z</time>
      </trkpt>
      <trkpt lat="30.736057972535491" lon="-5.447253026068211">
        <ele>815.39999999999998</ele>
        <time>2003-04-14T17:12:42Z</time>
      </trkpt>
      <trkpt lat="30.735718002542853" lon="-5.447782007977366">
        <ele>816.10000000000002</ele>
        <time>2003-04-14T17:12:46Z</time>
      </trkpt>
      <trkpt lat="30.735587999224663" lon="-5.447994992136955">
        <ele>815.79999999999995</ele>
        <time>2003-04-14T17:12:49Z</time>
      </trkpt>
      <trkpt lat="30.735356993973255" lon="-5.448260027915239">
        <ele>815.10000000000002</ele>
        <time>2003-04-14T17:12:51Z</time>
      </trkpt>
      <trkpt lat="30.735258003696799" lon="-5.448315013200045">
        <ele>814.79999999999995</ele>
        <time>2003-04-14T17:12:53Z</time>
      </trkpt>
      <trkpt lat="30.734947035089135" lon="-5.448512993752956">
        <ele>813.39999999999998</ele>
        <time>2003-04-14T17:12:55Z</time>
      </trkpt>
      <trkpt lat="30.734770009294152" lon="-5.448702005669475">
        <ele>812.89999999999998</ele>
        <time>2003-04-14T17:12:58Z</time>
      </trkpt>
      <trkpt lat="30.734521988779306" lon="-5.448982967063785">
        <ele>812.60000000000002</ele>
        <time>2003-04-14T17:13:01Z</time>
      </trkpt>
      <trkpt lat="30.734422998502851" lon="-5.449033007025719">
        <ele>812.60000000000002</ele>
        <time>2003-04-14T17:13:02Z</time>
      </trkpt>
      <trkpt lat="30.734257958829403" lon="-5.449157981202006">
        <ele>812</ele>
        <time>2003-04-14T17:13:03Z</time>
      </trkpt>
      <trkpt lat="30.734004992991686" lon="-5.449326960369945">
        <ele>812.29999999999995</ele>
        <time>2003-04-14T17:13:06Z</time>
      </trkpt>
      <trkpt lat="30.733105028048158" lon="-5.449764998629689">
        <ele>816.20000000000005</ele>
        <time>2003-04-14T17:13:16Z</time>
      </trkpt>
      <trkpt lat="30.732712000608444" lon="-5.449988041073084">
        <ele>818.29999999999995</ele>
        <time>2003-04-14T17:13:20Z</time>
      </trkpt>
      <trkpt lat="30.732540003955364" lon="-5.450107986107469">
        <ele>817.60000000000002</ele>
        <time>2003-04-14T17:13:21Z</time>
      </trkpt>
      <trkpt lat="30.732460040599108" lon="-5.45017696917057">
        <ele>818.70000000000005</ele>
        <time>2003-04-14T17:13:22Z</time>
      </trkpt>
      <trkpt lat="30.732244960963726" lon="-5.450382996350527">
        <ele>822.60000000000002</ele>
        <time>2003-04-14T17:13:25Z</time>
      </trkpt>
      <trkpt lat="30.732213025912642" lon="-5.450494978576899">
        <ele>823.29999999999995</ele>
        <time>2003-04-14T17:13:26Z</time>
      </trkpt>
      <trkpt lat="30.732200033962727" lon="-5.450611989945173">
        <ele>824.10000000000002</ele>
        <time>2003-04-14T17:13:28Z</time>
      </trkpt>
      <trkpt lat="30.73212300427258" lon="-5.450912984088063">
        <ele>825.39999999999998</ele>
        <time>2003-04-14T17:13:30Z</time>
      </trkpt>
      <trkpt lat="30.732061984017491" lon="-5.450997976586223">
        <ele>825.70000000000005</ele>
        <time>2003-04-14T17:13:32Z</time>
      </trkpt>
      <trkpt lat="30.731983026489615" lon="-5.451075006276369">
        <ele>826</ele>
        <time>2003-04-14T17:13:33Z</time>
      </trkpt>
      <trkpt lat="30.73184497654438" lon="-5.451265024021268">
        <ele>826.39999999999998</ele>
        <time>2003-04-14T17:13:35Z</time>
      </trkpt>
      <trkpt lat="30.73179803788662" lon="-5.45137700624764">
        <ele>826.29999999999995</ele>
        <time>2003-04-14T17:13:36Z</time>
      </trkpt>
      <trkpt lat="30.731716984882951" lon="-5.451556965708733">
        <ele>826.29999999999995</ele>
        <time>2003-04-14T17:13:37Z</time>
      </trkpt>
      <trkpt lat="30.731608020141721" lon="-5.451641958206892">
        <ele>826.70000000000005</ele>
        <time>2003-04-14T17:13:40Z</time>
      </trkpt>
      <trkpt lat="30.731511963531375" lon="-5.451652016490698">
        <ele>826.70000000000005</ele>
        <time>2003-04-14T17:13:41Z</time>
      </trkpt>
      <trkpt lat="30.731338039040565" lon="-5.451535005122423">
        <ele>827.20000000000005</ele>
        <time>2003-04-14T17:13:52Z</time>
      </trkpt>
      <trkpt lat="30.7312429882586" lon="-5.451567023992539">
        <ele>826.89999999999998</ele>
        <time>2003-04-14T17:13:53Z</time>
      </trkpt>
      <trkpt lat="30.731237959116697" lon="-5.451674982905388">
        <ele>826.79999999999995</ele>
        <time>2003-04-14T17:13:56Z</time>
      </trkpt>
      <trkpt lat="30.731203006580472" lon="-5.451802974566817">
        <ele>827.29999999999995</ele>
        <time>2003-04-14T17:13:57Z</time>
      </trkpt>
      <trkpt lat="30.731237037107348" lon="-5.451983017846942">
        <ele>827.5</ele>
        <time>2003-04-14T17:14:00Z</time>
      </trkpt>
      <trkpt lat="30.73128498159349" lon="-5.452076978981495">
        <ele>827.5</ele>
        <time>2003-04-14T17:14:00Z</time>
      </trkpt>
      <trkpt lat="30.731411967426538" lon="-5.452398005872965">
        <ele>827.10000000000002</ele>
        <time>2003-04-14T17:14:04Z</time>
      </trkpt>
      <trkpt lat="30.731686977669597" lon="-5.453272992745042">
        <ele>827</ele>
        <time>2003-04-14T17:14:11Z</time>
      </trkpt>
      <trkpt lat="30.731780016794801" lon="-5.453554959967732">
        <ele>827.39999999999998</ele>
        <time>2003-04-14T17:14:12Z</time>
      </trkpt>
      <trkpt lat="30.732082016766071" lon="-5.454594986513257">
        <ele>826.29999999999995</ele>
        <time>2003-04-14T17:14:19Z</time>
      </trkpt>
      <trkpt lat="30.732436990365386" lon="-5.455716988071799">
        <ele>826.89999999999998</ele>
        <time>2003-04-14T17:14:27Z</time>
      </trkpt>
      <trkpt lat="30.732762040570378" lon="-5.456794984638691">
        <ele>826</ele>
        <time>2003-04-14T17:14:34Z</time>
      </trkpt>
      <trkpt lat="30.732824988663197" lon="-5.457009980455041">
        <ele>826.10000000000002</ele>
        <time>2003-04-14T17:14:37Z</time>
      </trkpt>
      <trkpt lat="30.732862036675215" lon="-5.457126991823316">
        <ele>825.29999999999995</ele>
        <time>2003-04-14T17:14:38Z</time>
      </trkpt>
      <trkpt lat="30.732907969504595" lon="-5.457265041768551">
        <ele>826.60000000000002</ele>
        <time>2003-04-14T17:15:43Z</time>
      </trkpt>
      <trkpt lat="30.732954991981387" lon="-5.45739303342998">
        <ele>826.60000000000002</ele>
        <time>2003-04-14T17:15:45Z</time>
      </trkpt>
      <trkpt lat="30.733006959781051" lon="-5.457569975405932">
        <ele>826.5</ele>
        <time>2003-04-14T17:15:47Z</time>
      </trkpt>
      <trkpt lat="30.733064962550998" lon="-5.457790000364184">
        <ele>825.60000000000002</ele>
        <time>2003-04-14T17:15:48Z</time>
      </trkpt>
      <trkpt lat="30.73336998000741" lon="-5.458719972521067">
        <ele>826.5</ele>
        <time>2003-04-14T17:15:56Z</time>
      </trkpt>
      <trkpt lat="30.733752027153969" lon="-5.459763016551733">
        <ele>826.39999999999998</ele>
        <time>2003-04-14T17:16:04Z</time>
      </trkpt>
      <trkpt lat="30.73405503295362" lon="-5.460757026448846">
        <ele>826.20000000000005</ele>
        <time>2003-04-14T17:16:11Z</time>
      </trkpt>
      <trkpt lat="30.734329959377646" lon="-5.461817001923919">
        <ele>826.5</ele>
        <time>2003-04-14T17:16:19Z</time>
      </trkpt>
      <trkpt lat="30.734473038464785" lon="-5.462371967732906">
        <ele>827.20000000000005</ele>
        <time>2003-04-14T17:16:23Z</time>
      </trkpt>
      <trkpt lat="30.734553001821041" lon="-5.462716966867447">
        <ele>828.20000000000005</ele>
        <time>2003-04-14T17:16:26Z</time>
      </trkpt>
      <trkpt lat="30.73465802706778" lon="-5.463092979043722">
        <ele>828.20000000000005</ele>
        <time>2003-04-14T17:16:29Z</time>
      </trkpt>
      <trkpt lat="30.734919961541891" lon="-5.464107021689415">
        <ele>829.79999999999995</ele>
        <time>2003-04-14T17:16:37Z</time>
      </trkpt>
      <trkpt lat="30.735179968178272" lon="-5.465142019093037">
        <ele>830.79999999999995</ele>
        <time>2003-04-14T17:16:42Z</time>
      </trkpt>
      <trkpt lat="30.735341990366578" lon="-5.465850038453937">
        <ele>831.29999999999995</ele>
        <time>2003-04-14T17:16:49Z</time>
      </trkpt>
      <trkpt lat="30.735397981479764" lon="-5.466109961271286">
        <ele>832.10000000000002</ele>
        <time>2003-04-14T17:16:49Z</time>
      </trkpt>
      <trkpt lat="30.735469982028008" lon="-5.466501982882619">
        <ele>832.5</ele>
        <time>2003-04-14T17:16:53Z</time>
      </trkpt>
      <trkpt lat="30.735737029463053" lon="-5.467360038310289">
        <ele>833.89999999999998</ele>
        <time>2003-04-14T17:17:01Z</time>
      </trkpt>
      <trkpt lat="30.735850017517805" lon="-5.467582996934652">
        <ele>834.60000000000002</ele>
        <time>2003-04-14T17:17:01Z</time>
      </trkpt>
      <trkpt lat="30.736052021384239" lon="-5.468022041022778">
        <ele>835.10000000000002</ele>
        <time>2003-04-14T17:17:05Z</time>
      </trkpt>
      <trkpt lat="30.736101977527142" lon="-5.468218009918928">
        <ele>835.79999999999995</ele>
        <time>2003-04-14T17:17:13Z</time>
      </trkpt>
      <trkpt lat="30.736172972247005" lon="-5.468341978266835">
        <ele>835.70000000000005</ele>
        <time>2003-04-14T17:17:16Z</time>
      </trkpt>
      <trkpt lat="30.736256958916783" lon="-5.468495031818748">
        <ele>836</ele>
        <time>2003-04-14T17:17:19Z</time>
      </trkpt>
      <trkpt lat="30.736340023577213" lon="-5.468699969351292">
        <ele>836.10000000000002</ele>
        <time>2003-04-14T17:17:20Z</time>
      </trkpt>
      <trkpt lat="30.736491987481713" lon="-5.469037005677819">
        <ele>836.79999999999995</ele>
        <time>2003-04-14T17:17:23Z</time>
      </trkpt>
      <trkpt lat="30.736722992733121" lon="-5.469558024778962">
        <ele>838</ele>
        <time>2003-04-14T17:17:27Z</time>
      </trkpt>
      <trkpt lat="30.737090036273003" lon="-5.470278030261397">
        <ele>838.79999999999995</ele>
        <time>2003-04-14T17:17:33Z</time>
      </trkpt>
      <trkpt lat="30.73732296936214" lon="-5.470547005534172">
        <ele>838.89999999999998</ele>
        <time>2003-04-14T17:17:36Z</time>
      </trkpt>
      <trkpt lat="30.737499995157123" lon="-5.470742974430323">
        <ele>838.79999999999995</ele>
        <time>2003-04-14T17:17:39Z</time>
      </trkpt>
      <trkpt lat="30.737765030935407" lon="-5.471068024635315">
        <ele>838.89999999999998</ele>
        <time>2003-04-14T17:17:42Z</time>
      </trkpt>
      <trkpt lat="30.738082034513354" lon="-5.471546966582537">
        <ele>840.20000000000005</ele>
        <time>2003-04-14T17:17:46Z</time>
      </trkpt>
      <trkpt lat="30.73833298869431" lon="-5.471847960725427">
        <ele>839</ele>
        <time>2003-04-14T17:17:48Z</time>
      </trkpt>
      <trkpt lat="30.738887032493949" lon="-5.472817998379469">
        <ele>838.89999999999998</ele>
        <time>2003-04-14T17:17:55Z</time>
      </trkpt>
      <trkpt lat="30.738983005285263" lon="-5.472935009747744">
        <ele>839.29999999999995</ele>
        <time>2003-04-14T17:17:56Z</time>
      </trkpt>
      <trkpt lat="30.7396200299263" lon="-5.473745036870241">
        <ele>842.60000000000002</ele>
        <time>2003-04-14T17:18:03Z</time>
      </trkpt>
      <trkpt lat="30.740295024588704" lon="-5.47460300847888">
        <ele>844.79999999999995</ele>
        <time>2003-04-14T17:18:11Z</time>
      </trkpt>
      <trkpt lat="30.740589983761311" lon="-5.474957982078195">
        <ele>846.20000000000005</ele>
        <time>2003-04-14T17:18:15Z</time>
      </trkpt>
      <trkpt lat="30.740643041208386" lon="-5.475063007324934">
        <ele>846.5</ele>
        <time>2003-04-14T17:18:17Z</time>
      </trkpt>
      <trkpt lat="30.740902964025736" lon="-5.475602969527245">
        <ele>846.29999999999995</ele>
        <time>2003-04-14T17:18:22Z</time>
      </trkpt>
      <trkpt lat="30.741134975105524" lon="-5.476311994716525">
        <ele>842.60000000000002</ele>
        <time>2003-04-14T17:18:27Z</time>
      </trkpt>
      <trkpt lat="30.741228014230728" lon="-5.476512992754579">
        <ele>842.5</ele>
        <time>2003-04-14T17:18:30Z</time>
      </trkpt>
      <trkpt lat="30.74123203754425" lon="-5.476620029658079">
        <ele>841.79999999999995</ele>
        <time>2003-04-14T17:18:30Z</time>
      </trkpt>
      <trkpt lat="30.741221979260445" lon="-5.477114981040359">
        <ele>840.39999999999998</ele>
        <time>2003-04-14T17:18:34Z</time>
      </trkpt>
      <trkpt lat="30.741204963997006" lon="-5.478313006460667">
        <ele>838</ele>
        <time>2003-04-14T17:18:42Z</time>
      </trkpt>
      <trkpt lat="30.741166993975639" lon="-5.479212971404195">
        <ele>835.60000000000002</ele>
        <time>2003-04-14T17:18:49Z</time>
      </trkpt>
      <trkpt lat="30.741191972047091" lon="-5.479431990534067">
        <ele>834.60000000000002</ele>
        <time>2003-04-14T17:18:50Z</time>
      </trkpt>
      <trkpt lat="30.741328010335565" lon="-5.479580014944077">
        <ele>835.10000000000002</ele>
        <time>2003-04-14T17:18:53Z</time>
      </trkpt>
      <trkpt lat="30.741477040573955" lon="-5.479755029082298">
        <ele>835.60000000000002</ele>
        <time>2003-04-14T17:18:54Z</time>
      </trkpt>
      <trkpt lat="30.741648031398654" lon="-5.479938006028533">
        <ele>835.89999999999998</ele>
        <time>2003-04-14T17:18:57Z</time>
      </trkpt>
      <trkpt lat="30.741739980876446" lon="-5.479982011020184">
        <ele>836.5</ele>
        <time>2003-04-14T17:18:57Z</time>
      </trkpt>
      <trkpt lat="30.742078023031354" lon="-5.48012500628829">
        <ele>837.70000000000005</ele>
        <time>2003-04-14T17:19:01Z</time>
      </trkpt>
      <trkpt lat="30.742257982492447" lon="-5.480170017108321">
        <ele>838.20000000000005</ele>
        <time>2003-04-14T17:19:04Z</time>
      </trkpt>
      <trkpt lat="30.742422016337514" lon="-5.48018803820014">
        <ele>838.89999999999998</ele>
        <time>2003-04-14T17:19:05Z</time>
      </trkpt>
      <trkpt lat="30.742580015212297" lon="-5.480177979916334">
        <ele>839.39999999999998</ele>
        <time>2003-04-14T17:19:08Z</time>
      </trkpt>
      <trkpt lat="30.742752011865377" lon="-5.480194995179772">
        <ele>839.89999999999998</ele>
        <time>2003-04-14T17:19:09Z</time>
      </trkpt>
      <trkpt lat="30.742840021848679" lon="-5.48023296520114">
        <ele>839.89999999999998</ele>
        <time>2003-04-14T17:19:11Z</time>
      </trkpt>
      <trkpt lat="30.742925014346838" lon="-5.480289962142706">
        <ele>840.20000000000005</ele>
        <time>2003-04-14T17:19:12Z</time>
      </trkpt>
      <trkpt lat="30.743102040141821" lon="-5.480443015694618">
        <ele>840</ele>
        <time>2003-04-14T17:19:13Z</time>
      </trkpt>
      <trkpt lat="30.743815004825592" lon="-5.481126978993416">
        <ele>842.60000000000002</ele>
        <time>2003-04-14T17:19:21Z</time>
      </trkpt>
      <trkpt lat="30.744220018386841" lon="-5.481531992554665">
        <ele>843.79999999999995</ele>
        <time>2003-04-14T17:19:26Z</time>
      </trkpt>
      <trkpt lat="30.74471496976912" lon="-5.482042031362653">
        <ele>844</ele>
        <time>2003-04-14T17:19:31Z</time>
      </trkpt>
      <trkpt lat="30.745366998016834" lon="-5.482603032141924">
        <ele>843.79999999999995</ele>
        <time>2003-04-14T17:19:36Z</time>
      </trkpt>
      <trkpt lat="30.745532037690282" lon="-5.482700010761619">
        <ele>844.29999999999995</ele>
        <time>2003-04-14T17:19:39Z</time>
      </trkpt>
      <trkpt lat="30.745760025456548" lon="-5.482869995757937">
        <ele>843.89999999999998</ele>
        <time>2003-04-14T17:19:42Z</time>
      </trkpt>
      <trkpt lat="30.745918024331331" lon="-5.482964962720871">
        <ele>843.79999999999995</ele>
        <time>2003-04-14T17:19:43Z</time>
      </trkpt>
      <trkpt lat="30.745982984080911" lon="-5.483037969097495">
        <ele>844.20000000000005</ele>
        <time>2003-04-14T17:19:44Z</time>
      </trkpt>
      <trkpt lat="30.746037969365716" lon="-5.483130002394319">
        <ele>843.70000000000005</ele>
        <time>2003-04-14T17:19:46Z</time>
      </trkpt>
      <trkpt lat="30.746081974357367" lon="-5.483237039297819">
        <ele>843.70000000000005</ele>
        <time>2003-04-14T17:19:47Z</time>
      </trkpt>
      <trkpt lat="30.746224969625473" lon="-5.483567034825683">
        <ele>842.70000000000005</ele>
        <time>2003-04-14T17:19:50Z</time>
      </trkpt>
      <trkpt lat="30.746492017060518" lon="-5.483916979283094">
        <ele>841.70000000000005</ele>
        <time>2003-04-14T17:19:54Z</time>
      </trkpt>
      <trkpt lat="30.746578015387058" lon="-5.483962995931506">
        <ele>841.5</ele>
        <time>2003-04-14T17:19:55Z</time>
      </trkpt>
      <trkpt lat="30.747138010337949" lon="-5.48427295871079">
        <ele>842.20000000000005</ele>
        <time>2003-04-14T17:20:01Z</time>
      </trkpt>
      <trkpt lat="30.747283017262816" lon="-5.484458031132817">
        <ele>842.20000000000005</ele>
        <time>2003-04-14T17:20:02Z</time>
      </trkpt>
      <trkpt lat="30.747446967288852" lon="-5.484640002250671">
        <ele>842.39999999999998</ele>
        <time>2003-04-14T17:20:05Z</time>
      </trkpt>
      <trkpt lat="30.747945019975305" lon="-5.485203014686704">
        <ele>840.70000000000005</ele>
        <time>2003-04-14T17:20:10Z</time>
      </trkpt>
      <trkpt lat="30.748003022745252" lon="-5.485314996913075">
        <ele>842.20000000000005</ele>
        <time>2003-04-14T17:20:11Z</time>
      </trkpt>
      <trkpt lat="30.748175019398332" lon="-5.485607022419572">
        <ele>842.10000000000002</ele>
        <time>2003-04-14T17:20:14Z</time>
      </trkpt>
      <trkpt lat="30.748811960220337" lon="-5.48639802262187">
        <ele>839.20000000000005</ele>
        <time>2003-04-14T17:20:22Z</time>
      </trkpt>
      <trkpt lat="30.749234994873405" lon="-5.486943013966084">
        <ele>842.5</ele>
        <time>2003-04-14T17:20:28Z</time>
      </trkpt>
      <trkpt lat="30.749457031488419" lon="-5.487087015062571">
        <ele>842.5</ele>
        <time>2003-04-14T17:20:29Z</time>
      </trkpt>
      <trkpt lat="30.749642020091414" lon="-5.487272003665566">
        <ele>842.5</ele>
        <time>2003-04-14T17:20:32Z</time>
      </trkpt>
      <trkpt lat="30.749703040346503" lon="-5.487396977841854">
        <ele>843.10000000000002</ele>
        <time>2003-04-14T17:20:33Z</time>
      </trkpt>
      <trkpt lat="30.749781997874379" lon="-5.487505020573735">
        <ele>843.5</ele>
        <time>2003-04-14T17:20:33Z</time>
      </trkpt>
      <trkpt lat="30.749882999807596" lon="-5.487593030557036">
        <ele>843.89999999999998</ele>
        <time>2003-04-14T17:20:34Z</time>
      </trkpt>
      <trkpt lat="30.74999799951911" lon="-5.487660001963377">
        <ele>843.29999999999995</ele>
        <time>2003-04-14T17:20:36Z</time>
      </trkpt>
      <trkpt lat="30.750905005261302" lon="-5.488140033558011">
        <ele>843.89999999999998</ele>
        <time>2003-04-14T17:20:44Z</time>
      </trkpt>
      <trkpt lat="30.751012964174151" lon="-5.488147996366024">
        <ele>844.29999999999995</ele>
        <time>2003-04-14T17:20:45Z</time>
      </trkpt>
      <trkpt lat="30.751110026612878" lon="-5.488182026892901">
        <ele>844.79999999999995</ele>
        <time>2003-04-14T17:20:45Z</time>
      </trkpt>
      <trkpt lat="30.751208011060953" lon="-5.488247992470861">
        <ele>845</ele>
        <time>2003-04-14T17:20:47Z</time>
      </trkpt>
      <trkpt lat="30.751532977446914" lon="-5.488422000780702">
        <ele>844.70000000000005</ele>
        <time>2003-04-14T17:20:49Z</time>
      </trkpt>
      <trkpt lat="30.75208299793303" lon="-5.488564996048808">
        <ele>842.89999999999998</ele>
        <time>2003-04-14T17:20:53Z</time>
      </trkpt>
      <trkpt lat="30.753052029758692" lon="-5.488851992413402">
        <ele>843</ele>
        <time>2003-04-14T17:21:00Z</time>
      </trkpt>
      <trkpt lat="30.75358503498137" lon="-5.488972021266818">
        <ele>842.79999999999995</ele>
        <time>2003-04-14T17:21:04Z</time>
      </trkpt>
      <trkpt lat="30.754115022718906" lon="-5.489019965752959">
        <ele>842.10000000000002</ele>
        <time>2003-04-14T17:21:08Z</time>
      </trkpt>
      <trkpt lat="30.754327001050115" lon="-5.489012002944946">
        <ele>842.20000000000005</ele>
        <time>2003-04-14T17:21:11Z</time>
      </trkpt>
      <trkpt lat="30.754448035731912" lon="-5.489017032086849">
        <ele>842.70000000000005</ele>
        <time>2003-04-14T17:21:12Z</time>
      </trkpt>
      <trkpt lat="30.754582984372973" lon="-5.489032035693526">
        <ele>842.89999999999998</ele>
        <time>2003-04-14T17:21:15Z</time>
      </trkpt>
      <trkpt lat="30.754767972975969" lon="-5.489043015986681">
        <ele>843.29999999999995</ele>
        <time>2003-04-14T17:21:16Z</time>
      </trkpt>
      <trkpt lat="30.755096962675452" lon="-5.489060031250119">
        <ele>844</ele>
        <time>2003-04-14T17:21:19Z</time>
      </trkpt>
      <trkpt lat="30.755987958982587" lon="-5.48914804123342">
        <ele>844.79999999999995</ele>
        <time>2003-04-14T17:21:27Z</time>
      </trkpt>
      <trkpt lat="30.756790023297071" lon="-5.489285001531243">
        <ele>845.29999999999995</ele>
        <time>2003-04-14T17:21:32Z</time>
      </trkpt>
      <trkpt lat="30.757744973525405" lon="-5.48966302536428">
        <ele>846</ele>
        <time>2003-04-14T17:21:39Z</time>
      </trkpt>
      <trkpt lat="30.758739989250898" lon="-5.490023028105497">
        <ele>846.20000000000005</ele>
        <time>2003-04-14T17:21:46Z</time>
      </trkpt>
      <trkpt lat="30.759637020528316" lon="-5.490302983671427">
        <ele>846.5</ele>
        <time>2003-04-14T17:21:53Z</time>
      </trkpt>
      <trkpt lat="30.760575039312243" lon="-5.490704979747534">
        <ele>847.10000000000002</ele>
        <time>2003-04-14T17:21:58Z</time>
      </trkpt>
      <trkpt lat="30.761532001197338" lon="-5.49110496416688">
        <ele>848</ele>
        <time>2003-04-14T17:22:05Z</time>
      </trkpt>
      <trkpt lat="30.761992000043392" lon="-5.491354996338487">
        <ele>848.29999999999995</ele>
        <time>2003-04-14T17:22:08Z</time>
      </trkpt>
      <trkpt lat="30.762903029099107" lon="-5.491872997954488">
        <ele>848.89999999999998</ele>
        <time>2003-04-14T17:22:13Z</time>
      </trkpt>
      <trkpt lat="30.763797964900732" lon="-5.492389993742108">
        <ele>849.79999999999995</ele>
        <time>2003-04-14T17:22:20Z</time>
      </trkpt>
      <trkpt lat="30.764643028378487" lon="-5.492859967052937">
        <ele>850.5</ele>
        <time>2003-04-14T17:22:25Z</time>
      </trkpt>
      <trkpt lat="30.765522960573435" lon="-5.493394983932376">
        <ele>851.39999999999998</ele>
        <time>2003-04-14T17:22:33Z</time>
      </trkpt>
      <trkpt lat="30.765814986079931" lon="-5.493552982807159">
        <ele>852.10000000000002</ele>
        <time>2003-04-14T17:22:36Z</time>
      </trkpt>
      <trkpt lat="30.766116986051202" lon="-5.493745012208819">
        <ele>852.10000000000002</ele>
        <time>2003-04-14T17:22:39Z</time>
      </trkpt>
      <trkpt lat="30.766962971538305" lon="-5.494224959984422">
        <ele>852.5</ele>
        <time>2003-04-14T17:22:47Z</time>
      </trkpt>
      <trkpt lat="30.767792025581002" lon="-5.494731981307268">
        <ele>853.39999999999998</ele>
        <time>2003-04-14T17:22:55Z</time>
      </trkpt>
      <trkpt lat="30.768007021397352" lon="-5.494831977412105">
        <ele>853.5</ele>
        <time>2003-04-14T17:22:56Z</time>
      </trkpt>
      <trkpt lat="30.768441958352923" lon="-5.495082009583712">
        <ele>853.89999999999998</ele>
        <time>2003-04-14T17:23:00Z</time>
      </trkpt>
      <trkpt lat="30.769349969923496" lon="-5.49559498205781">
        <ele>854.89999999999998</ele>
        <time>2003-04-14T17:23:08Z</time>
      </trkpt>
      <trkpt lat="30.770182963460684" lon="-5.496103009209037">
        <ele>855.5</ele>
        <time>2003-04-14T17:23:15Z</time>
      </trkpt>
      <trkpt lat="30.771046970039606" lon="-5.496614975854754">
        <ele>856.70000000000005</ele>
        <time>2003-04-14T17:23:23Z</time>
      </trkpt>
      <trkpt lat="30.771894967183471" lon="-5.49709701910615">
        <ele>857.60000000000002</ele>
        <time>2003-04-14T17:23:30Z</time>
      </trkpt>
      <trkpt lat="30.772742964327335" lon="-5.497573027387261">
        <ele>858.20000000000005</ele>
        <time>2003-04-14T17:23:37Z</time>
      </trkpt>
      <trkpt lat="30.773202041164041" lon="-5.497794980183244">
        <ele>858.29999999999995</ele>
        <time>2003-04-14T17:23:41Z</time>
      </trkpt>
      <trkpt lat="30.773355010896921" lon="-5.497833034023643">
        <ele>858.5</ele>
        <time>2003-04-14T17:23:42Z</time>
      </trkpt>
      <trkpt lat="30.773446960374713" lon="-5.497867986559868">
        <ele>858.60000000000002</ele>
        <time>2003-04-14T17:23:46Z</time>
      </trkpt>
      <trkpt lat="30.773670002818108" lon="-5.497947027906776">
        <ele>858.79999999999995</ele>
        <time>2003-04-14T17:23:50Z</time>
      </trkpt>
      <trkpt lat="30.773737980052829" lon="-5.498056998476386">
        <ele>858.60000000000002</ele>
        <time>2003-04-14T17:23:54Z</time>
      </trkpt>
      <trkpt lat="30.773743009194732" lon="-5.498163029551506">
        <ele>857.60000000000002</ele>
        <time>2003-04-14T17:23:57Z</time>
      </trkpt>
      <trkpt lat="30.77358802780509" lon="-5.498218014836311">
        <ele>857.39999999999998</ele>
        <time>2003-04-14T17:24:09Z</time>
      </trkpt>
      <trkpt lat="30.77354502864182" lon="-5.498312981799245">
        <ele>856.89999999999998</ele>
        <time>2003-04-14T17:24:12Z</time>
      </trkpt>
      <trkpt lat="30.773590039461851" lon="-5.498452037572861">
        <ele>856.79999999999995</ele>
        <time>2003-04-14T17:24:14Z</time>
      </trkpt>
      <trkpt lat="30.773672014474869" lon="-5.498569970950484">
        <ele>856.89999999999998</ele>
        <time>2003-04-14T17:24:17Z</time>
      </trkpt>
      <trkpt lat="30.773724988102913" lon="-5.498727969825268">
        <ele>856.79999999999995</ele>
        <time>2003-04-14T17:24:21Z</time>
      </trkpt>
      <trkpt lat="30.773824984207749" lon="-5.498907007277012">
        <ele>858</ele>
        <time>2003-04-14T17:24:24Z</time>
      </trkpt>
      <trkpt lat="30.774017013609409" lon="-5.499258041381836">
        <ele>858.89999999999998</ele>
        <time>2003-04-14T17:24:28Z</time>
      </trkpt>
      <trkpt lat="30.774150034412742" lon="-5.499410005286336">
        <ele>859.20000000000005</ele>
        <time>2003-04-14T17:24:31Z</time>
      </trkpt>
      <trkpt lat="30.774454968050122" lon="-5.499727008864284">
        <ele>859.20000000000005</ele>
        <time>2003-04-14T17:24:35Z</time>
      </trkpt>
      <trkpt lat="30.774810025468469" lon="-5.500209974125028">
        <ele>859.89999999999998</ele>
        <time>2003-04-14T17:24:40Z</time>
      </trkpt>
      <trkpt lat="30.774882026016712" lon="-5.500296978279948">
        <ele>860</ele>
        <time>2003-04-14T17:24:40Z</time>
      </trkpt>
      <trkpt lat="30.775489965453744" lon="-5.501107005402446">
        <ele>861.5</ele>
        <time>2003-04-14T17:24:48Z</time>
      </trkpt>
      <trkpt lat="30.77612497843802" lon="-5.501972017809749">
        <ele>862.60000000000002</ele>
        <time>2003-04-14T17:24:56Z</time>
      </trkpt>
      <trkpt lat="30.776759991422296" lon="-5.502807023003697">
        <ele>862.89999999999998</ele>
        <time>2003-04-14T17:25:04Z</time>
      </trkpt>
      <trkpt lat="30.777382012456656" lon="-5.503601962700486">
        <ele>863.20000000000005</ele>
        <time>2003-04-14T17:25:11Z</time>
      </trkpt>
      <trkpt lat="30.778087014332414" lon="-5.504363039508462">
        <ele>864.10000000000002</ele>
        <time>2003-04-14T17:25:19Z</time>
      </trkpt>
      <trkpt lat="30.778850018978119" lon="-5.505116991698742">
        <ele>864.39999999999998</ele>
        <time>2003-04-14T17:25:26Z</time>
      </trkpt>
      <trkpt lat="30.779616963118315" lon="-5.505817970260978">
        <ele>864.89999999999998</ele>
        <time>2003-04-14T17:25:34Z</time>
      </trkpt>
      <trkpt lat="30.780127001926303" lon="-5.506349969655275">
        <ele>865.20000000000005</ele>
        <time>2003-04-14T17:25:39Z</time>
      </trkpt>
      <trkpt lat="30.780272008851171" lon="-5.506582986563444">
        <ele>864.60000000000002</ele>
        <time>2003-04-14T17:25:42Z</time>
      </trkpt>
      <trkpt lat="30.780435036867857" lon="-5.506992023438215">
        <ele>864.89999999999998</ele>
        <time>2003-04-14T17:25:45Z</time>
      </trkpt>
      <trkpt lat="30.780837032943964" lon="-5.507959965616465">
        <ele>865</ele>
        <time>2003-04-14T17:25:52Z</time>
      </trkpt>
      <trkpt lat="30.781016992405057" lon="-5.508332038298249">
        <ele>864.70000000000005</ele>
        <time>2003-04-14T17:25:54Z</time>
      </trkpt>
      <trkpt lat="30.78104498796165" lon="-5.508451983332634">
        <ele>864.39999999999998</ele>
        <time>2003-04-14T17:25:56Z</time>
      </trkpt>
      <trkpt lat="30.781126962974668" lon="-5.508664967492223">
        <ele>863.70000000000005</ele>
        <time>2003-04-14T17:25:57Z</time>
      </trkpt>
      <trkpt lat="30.781261995434761" lon="-5.508858002722263">
        <ele>863.70000000000005</ele>
        <time>2003-04-14T17:26:00Z</time>
      </trkpt>
      <trkpt lat="30.781902959570289" lon="-5.509635005146265">
        <ele>863.70000000000005</ele>
        <time>2003-04-14T17:26:09Z</time>
      </trkpt>
      <trkpt lat="30.781992981210351" lon="-5.509762996807694">
        <ele>864.10000000000002</ele>
        <time>2003-04-14T17:26:11Z</time>
      </trkpt>
      <trkpt lat="30.782067999243736" lon="-5.509940022602677">
        <ele>864.29999999999995</ele>
        <time>2003-04-14T17:26:13Z</time>
      </trkpt>
      <trkpt lat="30.782051989808679" lon="-5.510052004829049">
        <ele>864.20000000000005</ele>
        <time>2003-04-14T17:26:13Z</time>
      </trkpt>
      <trkpt lat="30.781973032280803" lon="-5.510415025055409">
        <ele>863.70000000000005</ele>
        <time>2003-04-14T17:26:16Z</time>
      </trkpt>
      <trkpt lat="30.78188301064074" lon="-5.511133018881083">
        <ele>861.39999999999998</ele>
        <time>2003-04-14T17:26:23Z</time>
      </trkpt>
      <trkpt lat="30.781813021749258" lon="-5.511335022747517">
        <ele>860.5</ele>
        <time>2003-04-14T17:26:24Z</time>
      </trkpt>
      <trkpt lat="30.78166801482439" lon="-5.511802984401584">
        <ele>856.5</ele>
        <time>2003-04-14T17:26:28Z</time>
      </trkpt>
      <trkpt lat="30.781583022326231" lon="-5.511914966627955">
        <ele>856.60000000000002</ele>
        <time>2003-04-14T17:26:29Z</time>
      </trkpt>
      <trkpt lat="30.781477997079492" lon="-5.512010017409921">
        <ele>856.5</ele>
        <time>2003-04-14T17:26:31Z</time>
      </trkpt>
      <trkpt lat="30.781137021258473" lon="-5.512322997674346">
        <ele>856</ele>
        <time>2003-04-14T17:26:35Z</time>
      </trkpt>
      <trkpt lat="30.781071977689862" lon="-5.512513015419245">
        <ele>855.5</ele>
        <time>2003-04-14T17:26:36Z</time>
      </trkpt>
      <trkpt lat="30.780986985191703" lon="-5.512875029817224">
        <ele>855.70000000000005</ele>
        <time>2003-04-14T17:26:40Z</time>
      </trkpt>
      <trkpt lat="30.780848013237119" lon="-5.514004994183779">
        <ele>857.89999999999998</ele>
        <time>2003-04-14T17:26:47Z</time>
      </trkpt>
      <trkpt lat="30.78080995939672" lon="-5.514134997501969">
        <ele>857.70000000000005</ele>
        <time>2003-04-14T17:26:48Z</time>
      </trkpt>
      <trkpt lat="30.780445011332631" lon="-5.515206959098578">
        <ele>855.5</ele>
        <time>2003-04-14T17:26:56Z</time>
      </trkpt>
      <trkpt lat="30.780133036896586" lon="-5.516195017844439">
        <ele>855</ele>
        <time>2003-04-14T17:27:03Z</time>
      </trkpt>
      <trkpt lat="30.77994997613132" lon="-5.516722993925214">
        <ele>854.89999999999998</ele>
        <time>2003-04-14T17:27:07Z</time>
      </trkpt>
      <trkpt lat="30.779857020825148" lon="-5.51697202026844">
        <ele>853.29999999999995</ele>
        <time>2003-04-14T17:27:10Z</time>
      </trkpt>
      <trkpt lat="30.779840005561709" lon="-5.517102023586631">
        <ele>853.5</ele>
        <time>2003-04-14T17:27:10Z</time>
      </trkpt>
      <trkpt lat="30.779807986691594" lon="-5.517228003591299">
        <ele>853.29999999999995</ele>
        <time>2003-04-14T17:27:11Z</time>
      </trkpt>
      <trkpt lat="30.779702039435506" lon="-5.51755296997726">
        <ele>853.10000000000002</ele>
        <time>2003-04-14T17:27:14Z</time>
      </trkpt>
      <trkpt lat="30.779644958674908" lon="-5.517720021307468">
        <ele>853.60000000000002</ele>
        <time>2003-04-14T17:27:17Z</time>
      </trkpt>
      <trkpt lat="30.7795400172472" lon="-5.518116988241673">
        <ele>853.20000000000005</ele>
        <time>2003-04-14T17:27:21Z</time>
      </trkpt>
      <trkpt lat="30.779572958126664" lon="-5.518301976844668">
        <ele>854.79999999999995</ele>
        <time>2003-04-14T17:27:22Z</time>
      </trkpt>
      <trkpt lat="30.779643030837178" lon="-5.51841001957655">
        <ele>854.5</ele>
        <time>2003-04-14T17:27:25Z</time>
      </trkpt>
      <trkpt lat="30.779742021113634" lon="-5.518486965447664">
        <ele>854.60000000000002</ele>
        <time>2003-04-14T17:27:26Z</time>
      </trkpt>
      <trkpt lat="30.779940001666546" lon="-5.518587967380881">
        <ele>854.29999999999995</ele>
        <time>2003-04-14T17:27:30Z</time>
      </trkpt>
      <trkpt lat="30.780220041051507" lon="-5.518752001225948">
        <ele>854.10000000000002</ele>
        <time>2003-04-14T17:27:34Z</time>
      </trkpt>
      <trkpt lat="30.780282989144325" lon="-5.518827019259334">
        <ele>854.20000000000005</ele>
        <time>2003-04-14T17:27:34Z</time>
      </trkpt>
      <trkpt lat="30.780333029106259" lon="-5.518919974565506">
        <ele>854.10000000000002</ele>
        <time>2003-04-14T17:27:36Z</time>
      </trkpt>
      <trkpt lat="30.780372004956007" lon="-5.519017959013581">
        <ele>854.10000000000002</ele>
        <time>2003-04-14T17:27:37Z</time>
      </trkpt>
      <trkpt lat="30.780652966350317" lon="-5.519552975893021">
        <ele>854.29999999999995</ele>
        <time>2003-04-14T17:27:42Z</time>
      </trkpt>
      <trkpt lat="30.780822029337287" lon="-5.519956983625889">
        <ele>854.70000000000005</ele>
        <time>2003-04-14T17:27:46Z</time>
      </trkpt>
      <trkpt lat="30.781010035425425" lon="-5.520570036023855">
        <ele>855.29999999999995</ele>
        <time>2003-04-14T17:27:53Z</time>
      </trkpt>
      <trkpt lat="30.78102202154696" lon="-5.520772961899638">
        <ele>855.20000000000005</ele>
        <time>2003-04-14T17:27:54Z</time>
      </trkpt>
      <trkpt lat="30.780954966321588" lon="-5.521715003997088">
        <ele>857.5</ele>
        <time>2003-04-14T17:28:04Z</time>
      </trkpt>
      <trkpt lat="30.780907021835446" lon="-5.522292014211416">
        <ele>855.89999999999998</ele>
        <time>2003-04-14T17:28:08Z</time>
      </trkpt>
      <trkpt lat="30.780942980200052" lon="-5.522535005584359">
        <ele>855.39999999999998</ele>
        <time>2003-04-14T17:28:11Z</time>
      </trkpt>
      <trkpt lat="30.781038030982018" lon="-5.523079996928573">
        <ele>853.89999999999998</ele>
        <time>2003-04-14T17:28:16Z</time>
      </trkpt>
      <trkpt lat="30.781074995175004" lon="-5.523242019116879">
        <ele>853.39999999999998</ele>
        <time>2003-04-14T17:28:19Z</time>
      </trkpt>
      <trkpt lat="30.781078012660146" lon="-5.52335299551487">
        <ele>853.5</ele>
        <time>2003-04-14T17:28:20Z</time>
      </trkpt>
      <trkpt lat="30.781042976304889" lon="-5.52356799133122">
        <ele>852.5</ele>
        <time>2003-04-14T17:28:31Z</time>
      </trkpt>
      <trkpt lat="30.781020009890199" lon="-5.523700006306171">
        <ele>852.60000000000002</ele>
        <time>2003-04-14T17:28:32Z</time>
      </trkpt>
      <trkpt lat="30.780952032655478" lon="-5.5238470248878">
        <ele>852.5</ele>
        <time>2003-04-14T17:28:35Z</time>
      </trkpt>
      <trkpt lat="30.780848013237119" lon="-5.524035030975938">
        <ele>852.60000000000002</ele>
        <time>2003-04-14T17:28:36Z</time>
      </trkpt>
      <trkpt lat="30.780726978555322" lon="-5.524260001257062">
        <ele>852.5</ele>
        <time>2003-04-14T17:28:39Z</time>
      </trkpt>
      <trkpt lat="30.780451968312263" lon="-5.524768028408289">
        <ele>852.5</ele>
        <time>2003-04-14T17:28:43Z</time>
      </trkpt>
      <trkpt lat="30.7799700088799" lon="-5.525660030543804">
        <ele>853.70000000000005</ele>
        <time>2003-04-14T17:28:48Z</time>
      </trkpt>
      <trkpt lat="30.779487965628505" lon="-5.526712965220213">
        <ele>854.5</ele>
        <time>2003-04-14T17:28:55Z</time>
      </trkpt>
      <trkpt lat="30.779389981180429" lon="-5.527106998488307">
        <ele>854.89999999999998</ele>
        <time>2003-04-14T17:28:57Z</time>
      </trkpt>
      <trkpt lat="30.779327033087611" lon="-5.527519974857569">
        <ele>855.29999999999995</ele>
        <time>2003-04-14T17:28:58Z</time>
      </trkpt>
      <trkpt lat="30.779323009774089" lon="-5.528394961729646">
        <ele>856.10000000000002</ele>
        <time>2003-04-14T17:29:02Z</time>
      </trkpt>
      <trkpt lat="30.779353016987443" lon="-5.52861699834466">
        <ele>855.89999999999998</ele>
        <time>2003-04-14T17:29:03Z</time>
      </trkpt>
      <trkpt lat="30.779457036405802" lon="-5.529044978320599">
        <ele>855.60000000000002</ele>
        <time>2003-04-14T17:29:06Z</time>
      </trkpt>
      <trkpt lat="30.779674965888262" lon="-5.529653001576662">
        <ele>855.20000000000005</ele>
        <time>2003-04-14T17:29:09Z</time>
      </trkpt>
      <trkpt lat="30.780137982219458" lon="-5.530652040615678">
        <ele>855.10000000000002</ele>
        <time>2003-04-14T17:29:14Z</time>
      </trkpt>
      <trkpt lat="30.780597981065512" lon="-5.531683014705777">
        <ele>855.5</ele>
        <time>2003-04-14T17:29:18Z</time>
      </trkpt>
      <trkpt lat="30.781059991568327" lon="-5.532686999067664">
        <ele>855.89999999999998</ele>
        <time>2003-04-14T17:29:24Z</time>
      </trkpt>
      <trkpt lat="30.781516972929239" lon="-5.533683020621538">
        <ele>856.29999999999995</ele>
        <time>2003-04-14T17:29:29Z</time>
      </trkpt>
      <trkpt lat="30.781906982883811" lon="-5.53467501886189">
        <ele>856.70000000000005</ele>
        <time>2003-04-14T17:29:33Z</time>
      </trkpt>
      <trkpt lat="30.781982000917196" lon="-5.535110039636493">
        <ele>856.79999999999995</ele>
        <time>2003-04-14T17:29:36Z</time>
      </trkpt>
      <trkpt lat="30.782152991741896" lon="-5.536252995952964">
        <ele>857</ele>
        <time>2003-04-14T17:29:41Z</time>
      </trkpt>
      <trkpt lat="30.782330017536879" lon="-5.537386983633041">
        <ele>857.5</ele>
        <time>2003-04-14T17:29:45Z</time>
      </trkpt>
      <trkpt lat="30.78250796534121" lon="-5.538528012111783">
        <ele>858.10000000000002</ele>
        <time>2003-04-14T17:29:51Z</time>
      </trkpt>
      <trkpt lat="30.782702006399632" lon="-5.539761995896697">
        <ele>858.79999999999995</ele>
        <time>2003-04-14T17:29:56Z</time>
      </trkpt>
      <trkpt lat="30.782862016931176" lon="-5.540792969986796">
        <ele>859.79999999999995</ele>
        <time>2003-04-14T17:30:00Z</time>
      </trkpt>
      <trkpt lat="30.783026972785592" lon="-5.541846994310617">
        <ele>861.70000000000005</ele>
        <time>2003-04-14T17:30:04Z</time>
      </trkpt>
      <trkpt lat="30.783186983317137" lon="-5.542887020856142">
        <ele>865</ele>
        <time>2003-04-14T17:30:08Z</time>
      </trkpt>
      <trkpt lat="30.783368032425642" lon="-5.54404498077929">
        <ele>870.29999999999995</ele>
        <time>2003-04-14T17:30:12Z</time>
      </trkpt>
      <trkpt lat="30.783556960523129" lon="-5.545248035341501">
        <ele>874.39999999999998</ele>
        <time>2003-04-14T17:30:19Z</time>
      </trkpt>
      <trkpt lat="30.783740021288395" lon="-5.546461986377835">
        <ele>877.39999999999998</ele>
        <time>2003-04-14T17:30:24Z</time>
      </trkpt>
      <trkpt lat="30.78392299823463" lon="-5.547626987099648">
        <ele>879.70000000000005</ele>
        <time>2003-04-14T17:30:31Z</time>
      </trkpt>
      <trkpt lat="30.784059958532453" lon="-5.548700038343668">
        <ele>878.20000000000005</ele>
        <time>2003-04-14T17:30:36Z</time>
      </trkpt>
      <trkpt lat="30.784036992117763" lon="-5.548847978934646">
        <ele>877.70000000000005</ele>
        <time>2003-04-14T17:30:38Z</time>
      </trkpt>
      <trkpt lat="30.783947976306081" lon="-5.549142016097903">
        <ele>876.60000000000002</ele>
        <time>2003-04-14T17:30:39Z</time>
      </trkpt>
      <trkpt lat="30.783697022125125" lon="-5.549703016877174">
        <ele>873.60000000000002</ele>
        <time>2003-04-14T17:30:43Z</time>
      </trkpt>
      <trkpt lat="30.783178014680743" lon="-5.550687974318862">
        <ele>870.79999999999995</ele>
        <time>2003-04-14T17:30:51Z</time>
      </trkpt>
      <trkpt lat="30.783077012747526" lon="-5.551072033122182">
        <ele>870.79999999999995</ele>
        <time>2003-04-14T17:30:54Z</time>
      </trkpt>
      <trkpt lat="30.783067960292101" lon="-5.55119801312685">
        <ele>870.70000000000005</ele>
        <time>2003-04-14T17:30:55Z</time>
      </trkpt>
      <trkpt lat="30.783080030232668" lon="-5.551664968952537">
        <ele>870.29999999999995</ele>
        <time>2003-04-14T17:30:59Z</time>
      </trkpt>
      <trkpt lat="30.783202992752194" lon="-5.552725028246641">
        <ele>868.29999999999995</ele>
        <time>2003-04-14T17:31:09Z</time>
      </trkpt>
      <trkpt lat="30.783335007727146" lon="-5.553792966529727">
        <ele>867.5</ele>
        <time>2003-04-14T17:31:17Z</time>
      </trkpt>
      <trkpt lat="30.78342704102397" lon="-5.554493023082614">
        <ele>867.5</ele>
        <time>2003-04-14T17:31:22Z</time>
      </trkpt>
      <trkpt lat="30.783561989665031" lon="-5.555555010214448">
        <ele>867.60000000000002</ele>
        <time>2003-04-14T17:31:29Z</time>
      </trkpt>
      <trkpt lat="30.783662991598248" lon="-5.556717999279499">
        <ele>868.20000000000005</ele>
        <time>2003-04-14T17:31:37Z</time>
      </trkpt>
      <trkpt lat="30.783738009631634" lon="-5.557821979746223">
        <ele>868.60000000000002</ele>
        <time>2003-04-14T17:31:44Z</time>
      </trkpt>
      <trkpt lat="30.783812021836638" lon="-5.558882961049676">
        <ele>868.89999999999998</ele>
        <time>2003-04-14T17:31:51Z</time>
      </trkpt>
      <trkpt lat="30.783819984644651" lon="-5.559391994029284">
        <ele>870.20000000000005</ele>
        <time>2003-04-14T17:31:55Z</time>
      </trkpt>
      <trkpt lat="30.783802969381213" lon="-5.559583017602563">
        <ele>870.29999999999995</ele>
        <time>2003-04-14T17:31:56Z</time>
      </trkpt>
      <trkpt lat="30.78370800241828" lon="-5.560147035866976">
        <ele>870.60000000000002</ele>
        <time>2003-04-14T17:32:03Z</time>
      </trkpt>
      <trkpt lat="30.783576993271708" lon="-5.560545008629561">
        <ele>871.10000000000002</ele>
        <time>2003-04-14T17:32:07Z</time>
      </trkpt>
      <trkpt lat="30.783190000802279" lon="-5.561370039358735">
        <ele>871.29999999999995</ele>
        <time>2003-04-14T17:32:15Z</time>
      </trkpt>
      <trkpt lat="30.783039964735508" lon="-5.561668016016483">
        <ele>871.89999999999998</ele>
        <time>2003-04-14T17:32:19Z</time>
      </trkpt>
      <trkpt lat="30.782952960580587" lon="-5.561840012669563">
        <ele>872.29999999999995</ele>
        <time>2003-04-14T17:32:23Z</time>
      </trkpt>
      <trkpt lat="30.782895041629672" lon="-5.561922993510962">
        <ele>872.60000000000002</ele>
        <time>2003-04-14T17:32:24Z</time>
      </trkpt>
      <trkpt lat="30.782845001667738" lon="-5.562022989615798">
        <ele>872.79999999999995</ele>
        <time>2003-04-14T17:32:27Z</time>
      </trkpt>
      <trkpt lat="30.782391959801316" lon="-5.562963020056486">
        <ele>874.20000000000005</ele>
        <time>2003-04-14T17:32:43Z</time>
      </trkpt>
      <trkpt lat="30.781934978440404" lon="-5.563913024961948">
        <ele>874</ele>
        <time>2003-04-14T17:32:58Z</time>
      </trkpt>
      <trkpt lat="30.781468022614717" lon="-5.564779965206981">
        <ele>874.5</ele>
        <time>2003-04-14T17:33:13Z</time>
      </trkpt>
      <trkpt lat="30.781304994598031" lon="-5.564962020143867">
        <ele>874.5</ele>
        <time>2003-04-14T17:33:16Z</time>
      </trkpt>
      <trkpt lat="30.781231988221407" lon="-5.565024968236685">
        <ele>874.5</ele>
        <time>2003-04-14T17:33:17Z</time>
      </trkpt>
      <trkpt lat="30.781067032366991" lon="-5.56514197960496">
        <ele>874.89999999999998</ele>
        <time>2003-04-14T17:33:21Z</time>
      </trkpt>
      <trkpt lat="30.780795039609075" lon="-5.565327974036336">
        <ele>874.79999999999995</ele>
        <time>2003-04-14T17:33:25Z</time>
      </trkpt>
      <trkpt lat="30.780667969956994" lon="-5.565463006496429">
        <ele>874.89999999999998</ele>
        <time>2003-04-14T17:33:27Z</time>
      </trkpt>
      <trkpt lat="30.7804000005126" lon="-5.565838012844324">
        <ele>874.70000000000005</ele>
        <time>2003-04-14T17:33:32Z</time>
      </trkpt>
      <trkpt lat="30.780064975842834" lon="-5.566391972824931">
        <ele>873.29999999999995</ele>
        <time>2003-04-14T17:33:37Z</time>
      </trkpt>
      <trkpt lat="30.779482014477253" lon="-5.567303001880646">
        <ele>870.29999999999995</ele>
        <time>2003-04-14T17:33:47Z</time>
      </trkpt>
      <trkpt lat="30.77902696095407" lon="-5.567980008199811">
        <ele>870.39999999999998</ele>
        <time>2003-04-14T17:33:54Z</time>
      </trkpt>
      <trkpt lat="30.778953032568097" lon="-5.568117974326015">
        <ele>871</ele>
        <time>2003-04-14T17:33:55Z</time>
      </trkpt>
      <trkpt lat="30.77891799621284" lon="-5.568225011229515">
        <ele>871.5</ele>
        <time>2003-04-14T17:33:58Z</time>
      </trkpt>
      <trkpt lat="30.778814982622862" lon="-5.568274967372417">
        <ele>872</ele>
        <time>2003-04-14T17:34:00Z</time>
      </trkpt>
      <trkpt lat="30.778690008446574" lon="-5.568358032032847">
        <ele>872.79999999999995</ele>
        <time>2003-04-14T17:34:04Z</time>
      </trkpt>
      <trkpt lat="30.778565034270287" lon="-5.568473031744361">
        <ele>873.29999999999995</ele>
        <time>2003-04-14T17:34:07Z</time>
      </trkpt>
      <trkpt lat="30.778452968224883" lon="-5.568573027849197">
        <ele>873.60000000000002</ele>
        <time>2003-04-14T17:34:11Z</time>
      </trkpt>
      <trkpt lat="30.778367975726724" lon="-5.568615021184087">
        <ele>873.70000000000005</ele>
        <time>2003-04-14T17:34:12Z</time>
      </trkpt>
      <trkpt lat="30.778241995722055" lon="-5.568598005920649">
        <ele>873.79999999999995</ele>
        <time>2003-04-14T17:34:15Z</time>
      </trkpt>
      <trkpt lat="30.778039991855621" lon="-5.568500021472573">
        <ele>872.79999999999995</ele>
        <time>2003-04-14T17:34:22Z</time>
      </trkpt>
      <trkpt lat="30.777927003800869" lon="-5.568479988723993">
        <ele>872.70000000000005</ele>
        <time>2003-04-14T17:34:25Z</time>
      </trkpt>
      <trkpt lat="30.777858020737767" lon="-5.568577973172069">
        <ele>872.39999999999998</ele>
        <time>2003-04-14T17:34:27Z</time>
      </trkpt>
    </trkseg>
  </trk>

  <trk>
    <name>030415</name>
    <extensions>
      <gpxx:TrackExtension xmlns:gpxx="http://www.garmin.com/xmlschemas/GpxExtensions/v3">
        <gpxx:DisplayColor>Yellow</gpxx:DisplayColor>
      </gpxx:TrackExtension>
    </extensions>
    <trkseg>
      <trkpt lat="30.77803798019886" lon="-5.56860001757741">
        <ele>869.70000000000005</ele>
        <time>2003-04-15T09:37:29Z</time>
      </trkpt>
      <trkpt lat="30.778128001838923" lon="-5.568524999544025">
        <ele>873.70000000000005</ele>
        <time>2003-04-15T09:38:50Z</time>
      </trkpt>
      <trkpt lat="30.778233027085662" lon="-5.568534974008799">
        <ele>874.89999999999998</ele>
        <time>2003-04-15T09:38:54Z</time>
      </trkpt>
      <trkpt lat="30.778354983776808" lon="-5.56860001757741">
        <ele>874.39999999999998</ele>
        <time>2003-04-15T09:39:22Z</time>
      </trkpt>
      <trkpt lat="30.778456991538405" lon="-5.568562969565392">
        <ele>874.5</ele>
        <time>2003-04-15T09:39:26Z</time>
      </trkpt>
      <trkpt lat="30.778547013178468" lon="-5.568498009815812">
        <ele>874.60000000000002</ele>
        <time>2003-04-15T09:39:27Z</time>
      </trkpt>
      <trkpt lat="30.778666958212852" lon="-5.568392984569073">
        <ele>874.70000000000005</ele>
        <time>2003-04-15T09:39:30Z</time>
      </trkpt>
      <trkpt lat="30.778948003426194" lon="-5.56812803260982">
        <ele>873.5</ele>
        <time>2003-04-15T09:39:34Z</time>
      </trkpt>
      <trkpt lat="30.779035007581115" lon="-5.567983025684953">
        <ele>872.89999999999998</ele>
        <time>2003-04-15T09:39:37Z</time>
      </trkpt>
      <trkpt lat="30.779229970648885" lon="-5.567646995186806">
        <ele>872.5</ele>
        <time>2003-04-15T09:39:41Z</time>
      </trkpt>
      <trkpt lat="30.779489977285266" lon="-5.567257991060615">
        <ele>872.70000000000005</ele>
        <time>2003-04-15T09:39:45Z</time>
      </trkpt>
      <trkpt lat="30.779858026653528" lon="-5.566685004159808">
        <ele>874.5</ele>
        <time>2003-04-15T09:39:49Z</time>
      </trkpt>
      <trkpt lat="30.780124990269542" lon="-5.566261969506741">
        <ele>875.39999999999998</ele>
        <time>2003-04-15T09:39:53Z</time>
      </trkpt>
      <trkpt lat="30.780686996877193" lon="-5.565401986241341">
        <ele>877.10000000000002</ele>
        <time>2003-04-15T09:39:59Z</time>
      </trkpt>
      <trkpt lat="30.780884977430105" lon="-5.565214985981584">
        <ele>877</ele>
        <time>2003-04-15T09:40:01Z</time>
      </trkpt>
      <trkpt lat="30.781398033723235" lon="-5.564860012382269">
        <ele>877</ele>
        <time>2003-04-15T09:40:05Z</time>
      </trkpt>
      <trkpt lat="30.781467016786337" lon="-5.56477501988411">
        <ele>876.5</ele>
        <time>2003-04-15T09:40:07Z</time>
      </trkpt>
      <trkpt lat="30.781583022326231" lon="-5.564577039331198">
        <ele>877</ele>
        <time>2003-04-15T09:40:08Z</time>
      </trkpt>
      <trkpt lat="30.781770022585988" lon="-5.564209995791316">
        <ele>877.10000000000002</ele>
        <time>2003-04-15T09:40:12Z</time>
      </trkpt>
      <trkpt lat="30.781972026452422" lon="-5.563819985836744">
        <ele>876.79999999999995</ele>
        <time>2003-04-15T09:40:17Z</time>
      </trkpt>
      <trkpt lat="30.781989963725209" lon="-5.56368000805378">
        <ele>876.79999999999995</ele>
        <time>2003-04-15T09:40:20Z</time>
      </trkpt>
      <trkpt lat="30.781949982047081" lon="-5.563550004735589">
        <ele>876.79999999999995</ele>
        <time>2003-04-15T09:40:24Z</time>
      </trkpt>
      <trkpt lat="30.78198803588748" lon="-5.563455037772656">
        <ele>876.79999999999995</ele>
        <time>2003-04-15T09:40:26Z</time>
      </trkpt>
      <trkpt lat="30.782102029770613" lon="-5.563567019999027">
        <ele>883.79999999999995</ele>
        <time>2003-04-15T09:40:50Z</time>
      </trkpt>
      <trkpt lat="30.782046960666776" lon="-5.563446991145611">
        <ele>878.20000000000005</ele>
        <time>2003-04-15T09:40:54Z</time>
      </trkpt>
      <trkpt lat="30.781994992867112" lon="-5.563356969505549">
        <ele>877.39999999999998</ele>
        <time>2003-04-15T09:41:18Z</time>
      </trkpt>
      <trkpt lat="30.78164798207581" lon="-5.562818013131619">
        <ele>-236.80000000000001</ele>
        <time>2003-04-15T09:42:49Z</time>
      </trkpt>
      <trkpt lat="30.781949982047081" lon="-5.563365016132593">
        <ele>878.29999999999995</ele>
        <time>2003-04-15T09:42:50Z</time>
      </trkpt>
      <trkpt lat="30.782045032829046" lon="-5.563327968120575">
        <ele>877.5</ele>
        <time>2003-04-15T09:43:29Z</time>
      </trkpt>
      <trkpt lat="30.782107980921865" lon="-5.563427964225411">
        <ele>876.60000000000002</ele>
        <time>2003-04-15T09:43:56Z</time>
      </trkpt>
      <trkpt lat="30.782094988971949" lon="-5.563565008342266">
        <ele>876.79999999999995</ele>
        <time>2003-04-15T09:44:00Z</time>
      </trkpt>
      <trkpt lat="30.781952999532223" lon="-5.56387497112155">
        <ele>876.20000000000005</ele>
        <time>2003-04-15T09:44:08Z</time>
      </trkpt>
      <trkpt lat="30.78188200481236" lon="-5.564053002744913">
        <ele>876.20000000000005</ele>
        <time>2003-04-15T09:44:57Z</time>
      </trkpt>
      <trkpt lat="30.781827019527555" lon="-5.564160039648414">
        <ele>876.10000000000002</ele>
        <time>2003-04-15T09:44:58Z</time>
      </trkpt>
      <trkpt lat="30.781721994280815" lon="-5.564366988837719">
        <ele>876.20000000000005</ele>
        <time>2003-04-15T09:45:01Z</time>
      </trkpt>
      <trkpt lat="30.781508004292846" lon="-5.564778037369251">
        <ele>875.70000000000005</ele>
        <time>2003-04-15T09:45:06Z</time>
      </trkpt>
      <trkpt lat="30.781370038166642" lon="-5.56494802236557">
        <ele>875.5</ele>
        <time>2003-04-15T09:45:09Z</time>
      </trkpt>
      <trkpt lat="30.781204998493195" lon="-5.565084982663393">
        <ele>875.39999999999998</ele>
        <time>2003-04-15T09:45:10Z</time>
      </trkpt>
      <trkpt lat="30.780680039897561" lon="-5.565482033416629">
        <ele>875.5</ele>
        <time>2003-04-15T09:45:17Z</time>
      </trkpt>
      <trkpt lat="30.780530003830791" lon="-5.565692000091076">
        <ele>875.70000000000005</ele>
        <time>2003-04-15T09:45:18Z</time>
      </trkpt>
      <trkpt lat="30.779928015545011" lon="-5.566657008603215">
        <ele>873.60000000000002</ele>
        <time>2003-04-15T09:45:27Z</time>
      </trkpt>
      <trkpt lat="30.779747972264886" lon="-5.566939981654286">
        <ele>872.79999999999995</ele>
        <time>2003-04-15T09:45:29Z</time>
      </trkpt>
      <trkpt lat="30.779659962281585" lon="-5.567081971094012">
        <ele>871.89999999999998</ele>
        <time>2003-04-15T09:45:41Z</time>
      </trkpt>
      <trkpt lat="30.779576981440187" lon="-5.567199988290668">
        <ele>871.89999999999998</ele>
        <time>2003-04-15T09:45:44Z</time>
      </trkpt>
      <trkpt lat="30.779461981728673" lon="-5.567367961630225">
        <ele>871.89999999999998</ele>
        <time>2003-04-15T09:45:45Z</time>
      </trkpt>
      <trkpt lat="30.779323009774089" lon="-5.56756803765893">
        <ele>872</ele>
        <time>2003-04-15T09:45:48Z</time>
      </trkpt>
      <trkpt lat="30.779097033664584" lon="-5.56791203096509">
        <ele>872</ele>
        <time>2003-04-15T09:45:52Z</time>
      </trkpt>
      <trkpt lat="30.779029978439212" lon="-5.568038010969758">
        <ele>872</ele>
        <time>2003-04-15T09:45:54Z</time>
      </trkpt>
      <trkpt lat="30.778887988999486" lon="-5.568252000957727">
        <ele>872</ele>
        <time>2003-04-15T09:45:58Z</time>
      </trkpt>
      <trkpt lat="30.778796961531043" lon="-5.568319978192449">
        <ele>872</ele>
        <time>2003-04-15T09:45:59Z</time>
      </trkpt>
      <trkpt lat="30.778545001521707" lon="-5.568532962352037">
        <ele>873.29999999999995</ele>
        <time>2003-04-15T09:46:06Z</time>
      </trkpt>
      <trkpt lat="30.778327994048595" lon="-5.568734966218472">
        <ele>873.60000000000002</ele>
        <time>2003-04-15T09:46:11Z</time>
      </trkpt>
      <trkpt lat="30.778106963261962" lon="-5.568888019770384">
        <ele>873.70000000000005</ele>
        <time>2003-04-15T09:46:14Z</time>
      </trkpt>
      <trkpt lat="30.777762969955802" lon="-5.569118019193411">
        <ele>873.70000000000005</ele>
        <time>2003-04-15T09:46:18Z</time>
      </trkpt>
      <trkpt lat="30.777346976101398" lon="-5.569399986416102">
        <ele>873.79999999999995</ele>
        <time>2003-04-15T09:46:22Z</time>
      </trkpt>
      <trkpt lat="30.776503002271056" lon="-5.569917988032103">
        <ele>874.10000000000002</ele>
        <time>2003-04-15T09:46:29Z</time>
      </trkpt>
      <trkpt lat="30.775594990700483" lon="-5.570446969941258">
        <ele>874.89999999999998</ele>
        <time>2003-04-15T09:46:35Z</time>
      </trkpt>
      <trkpt lat="30.775077994912863" lon="-5.570721980184317">
        <ele>875.20000000000005</ele>
        <time>2003-04-15T09:46:39Z</time>
      </trkpt>
      <trkpt lat="30.774934999644756" lon="-5.570757016539574">
        <ele>875.39999999999998</ele>
        <time>2003-04-15T09:46:41Z</time>
      </trkpt>
      <trkpt lat="30.774211976677179" lon="-5.57085701264441">
        <ele>875.10000000000002</ele>
        <time>2003-04-15T09:46:46Z</time>
      </trkpt>
      <trkpt lat="30.773733034729958" lon="-5.570832034572959">
        <ele>875.39999999999998</ele>
        <time>2003-04-15T09:46:49Z</time>
      </trkpt>
      <trkpt lat="30.772713040933013" lon="-5.570657020434737">
        <ele>876.29999999999995</ele>
        <time>2003-04-15T09:46:54Z</time>
      </trkpt>
      <trkpt lat="30.771737974137068" lon="-5.570488041266799">
        <ele>878.10000000000002</ele>
        <time>2003-04-15T09:47:01Z</time>
      </trkpt>
      <trkpt lat="30.77077497728169" lon="-5.570316966623068">
        <ele>877.5</ele>
        <time>2003-04-15T09:47:06Z</time>
      </trkpt>
      <trkpt lat="30.769737968221307" lon="-5.570110017433763">
        <ele>875.89999999999998</ele>
        <time>2003-04-15T09:47:13Z</time>
      </trkpt>
      <trkpt lat="30.768697019666433" lon="-5.569925028830767">
        <ele>874</ele>
        <time>2003-04-15T09:47:19Z</time>
      </trkpt>
      <trkpt lat="30.76766001060605" lon="-5.569731993600726">
        <ele>873.5</ele>
        <time>2003-04-15T09:47:24Z</time>
      </trkpt>
      <trkpt lat="30.76671302318573" lon="-5.569553039968014">
        <ele>873.89999999999998</ele>
        <time>2003-04-15T09:47:31Z</time>
      </trkpt>
      <trkpt lat="30.766453016549349" lon="-5.569448014721274">
        <ele>874.10000000000002</ele>
        <time>2003-04-15T09:47:32Z</time>
      </trkpt>
      <trkpt lat="30.766223017126322" lon="-5.569296972826123">
        <ele>874.60000000000002</ele>
        <time>2003-04-15T09:47:35Z</time>
      </trkpt>
      <trkpt lat="30.765737034380436" lon="-5.568918026983738">
        <ele>875.5</ele>
        <time>2003-04-15T09:47:40Z</time>
      </trkpt>
      <trkpt lat="30.765411984175444" lon="-5.568602029234171">
        <ele>875.5</ele>
        <time>2003-04-15T09:47:43Z</time>
      </trkpt>
      <trkpt lat="30.765013005584478" lon="-5.568059971556068">
        <ele>875.10000000000002</ele>
        <time>2003-04-15T09:47:48Z</time>
      </trkpt>
      <trkpt lat="30.764531968161464" lon="-5.567190013825893">
        <ele>874.29999999999995</ele>
        <time>2003-04-15T09:47:55Z</time>
      </trkpt>
      <trkpt lat="30.76398303732276" lon="-5.566179994493723">
        <ele>874.20000000000005</ele>
        <time>2003-04-15T09:48:02Z</time>
      </trkpt>
      <trkpt lat="30.763508034870028" lon="-5.56514298543334">
        <ele>874.10000000000002</ele>
        <time>2003-04-15T09:48:09Z</time>
      </trkpt>
      <trkpt lat="30.763088017702103" lon="-5.564158027991653">
        <ele>873.29999999999995</ele>
        <time>2003-04-15T09:48:14Z</time>
      </trkpt>
      <trkpt lat="30.762712005525827" lon="-5.563182039186359">
        <ele>872.39999999999998</ele>
        <time>2003-04-15T09:48:21Z</time>
      </trkpt>
      <trkpt lat="30.762232979759574" lon="-5.562097001820803">
        <ele>870.60000000000002</ele>
        <time>2003-04-15T09:48:27Z</time>
      </trkpt>
      <trkpt lat="30.761737022548914" lon="-5.561074996367097">
        <ele>868.79999999999995</ele>
        <time>2003-04-15T09:48:34Z</time>
      </trkpt>
      <trkpt lat="30.761571982875466" lon="-5.56086796335876">
        <ele>868.70000000000005</ele>
        <time>2003-04-15T09:48:37Z</time>
      </trkpt>
      <trkpt lat="30.760964965447783" lon="-5.560076963156462">
        <ele>868.20000000000005</ele>
        <time>2003-04-15T09:48:44Z</time>
      </trkpt>
      <trkpt lat="30.760316960513592" lon="-5.55934002622962">
        <ele>868.29999999999995</ele>
        <time>2003-04-15T09:48:50Z</time>
      </trkpt>
      <trkpt lat="30.759625034406781" lon="-5.558517007157207">
        <ele>867.79999999999995</ele>
        <time>2003-04-15T09:48:57Z</time>
      </trkpt>
      <trkpt lat="30.75891500338912" lon="-5.557649983093143">
        <ele>867.29999999999995</ele>
        <time>2003-04-15T09:49:04Z</time>
      </trkpt>
      <trkpt lat="30.758257023990154" lon="-5.556716993451119">
        <ele>866.5</ele>
        <time>2003-04-15T09:49:12Z</time>
      </trkpt>
      <trkpt lat="30.757631985470653" lon="-5.555736981332302">
        <ele>866.5</ele>
        <time>2003-04-15T09:49:19Z</time>
      </trkpt>
      <trkpt lat="30.75706796720624" lon="-5.554831987246871">
        <ele>865.60000000000002</ele>
        <time>2003-04-15T09:49:24Z</time>
      </trkpt>
      <trkpt lat="30.756491962820292" lon="-5.553917018696666">
        <ele>864.79999999999995</ele>
        <time>2003-04-15T09:49:31Z</time>
      </trkpt>
      <trkpt lat="30.755916964262724" lon="-5.553012024611235">
        <ele>863.70000000000005</ele>
        <time>2003-04-15T09:49:36Z</time>
      </trkpt>
      <trkpt lat="30.755308018997312" lon="-5.55205799639225">
        <ele>863.29999999999995</ele>
        <time>2003-04-15T09:49:43Z</time>
      </trkpt>
      <trkpt lat="30.754765039309859" lon="-5.55119801312685">
        <ele>862.60000000000002</ele>
        <time>2003-04-15T09:49:51Z</time>
      </trkpt>
      <trkpt lat="30.754219964146614" lon="-5.550357978790999">
        <ele>862.70000000000005</ele>
        <time>2003-04-15T09:49:58Z</time>
      </trkpt>
      <trkpt lat="30.753642031922936" lon="-5.549433035776019">
        <ele>862</ele>
        <time>2003-04-15T09:50:07Z</time>
      </trkpt>
      <trkpt lat="30.75311497785151" lon="-5.548606999218464">
        <ele>861.39999999999998</ele>
        <time>2003-04-15T09:50:15Z</time>
      </trkpt>
      <trkpt lat="30.752771990373731" lon="-5.548078017309308">
        <ele>861.29999999999995</ele>
        <time>2003-04-15T09:50:20Z</time>
      </trkpt>
      <trkpt lat="30.752151980996132" lon="-5.547106973826885">
        <ele>860.89999999999998</ele>
        <time>2003-04-15T09:50:26Z</time>
      </trkpt>
      <trkpt lat="30.751553010195494" lon="-5.546150011941791">
        <ele>860.10000000000002</ele>
        <time>2003-04-15T09:50:33Z</time>
      </trkpt>
      <trkpt lat="30.751014975830913" lon="-5.545287011191249">
        <ele>860</ele>
        <time>2003-04-15T09:50:40Z</time>
      </trkpt>
      <trkpt lat="30.750411981716752" lon="-5.54432200267911">
        <ele>859.5</ele>
        <time>2003-04-15T09:50:47Z</time>
      </trkpt>
      <trkpt lat="30.749860033392906" lon="-5.543456990271807">
        <ele>859.10000000000002</ele>
        <time>2003-04-15T09:50:52Z</time>
      </trkpt>
      <trkpt lat="30.749317975714803" lon="-5.542619973421097">
        <ele>858.29999999999995</ele>
        <time>2003-04-15T09:51:00Z</time>
      </trkpt>
      <trkpt lat="30.748650021851063" lon="-5.541720008477569">
        <ele>857.20000000000005</ele>
        <time>2003-04-15T09:51:07Z</time>
      </trkpt>
      <trkpt lat="30.747875031083822" lon="-5.540951974689961">
        <ele>855.79999999999995</ele>
        <time>2003-04-15T09:51:14Z</time>
      </trkpt>
      <trkpt lat="30.747065003961325" lon="-5.540232975035906">
        <ele>854.60000000000002</ele>
        <time>2003-04-15T09:51:20Z</time>
      </trkpt>
      <trkpt lat="30.746311973780394" lon="-5.539541970938444">
        <ele>854.39999999999998</ele>
        <time>2003-04-15T09:51:27Z</time>
      </trkpt>
      <trkpt lat="30.745481997728348" lon="-5.5388000048697">
        <ele>853.89999999999998</ele>
        <time>2003-04-15T09:51:32Z</time>
      </trkpt>
      <trkpt lat="30.744683034718037" lon="-5.538059966638684">
        <ele>853.60000000000002</ele>
        <time>2003-04-15T09:51:39Z</time>
      </trkpt>
      <trkpt lat="30.744220018386841" lon="-5.537623018026352">
        <ele>853.29999999999995</ele>
        <time>2003-04-15T09:51:43Z</time>
      </trkpt>
      <trkpt lat="30.743392976000905" lon="-5.536884991452098">
        <ele>853.39999999999998</ele>
        <time>2003-04-15T09:51:50Z</time>
      </trkpt>
      <trkpt lat="30.742657966911793" lon="-5.536249978467822">
        <ele>852.39999999999998</ele>
        <time>2003-04-15T09:51:55Z</time>
      </trkpt>
      <trkpt lat="30.741847017779946" lon="-5.535608008503914">
        <ele>852.60000000000002</ele>
        <time>2003-04-15T09:52:02Z</time>
      </trkpt>
      <trkpt lat="30.741252992302179" lon="-5.535238031297922">
        <ele>852.5</ele>
        <time>2003-04-15T09:52:09Z</time>
      </trkpt>
      <trkpt lat="30.741007989272475" lon="-5.535133006051183">
        <ele>852.20000000000005</ele>
        <time>2003-04-15T09:52:12Z</time>
      </trkpt>
      <trkpt lat="30.740864994004369" lon="-5.535132000222802">
        <ele>851.70000000000005</ele>
        <time>2003-04-15T09:52:13Z</time>
      </trkpt>
      <trkpt lat="30.740692997351289" lon="-5.535110039636493">
        <ele>851.60000000000002</ele>
        <time>2003-04-15T09:52:16Z</time>
      </trkpt>
      <trkpt lat="30.740482024848461" lon="-5.535081960260868">
        <ele>851.39999999999998</ele>
        <time>2003-04-15T09:52:17Z</time>
      </trkpt>
      <trkpt lat="30.739877019077539" lon="-5.535033009946346">
        <ele>850.60000000000002</ele>
        <time>2003-04-15T09:52:22Z</time>
      </trkpt>
      <trkpt lat="30.739077972248197" lon="-5.534972995519638">
        <ele>849.5</ele>
        <time>2003-04-15T09:52:29Z</time>
      </trkpt>
      <trkpt lat="30.738112963736057" lon="-5.534896971657872">
        <ele>849.39999999999998</ele>
        <time>2003-04-15T09:52:39Z</time>
      </trkpt>
      <trkpt lat="30.737162958830595" lon="-5.534832011908293">
        <ele>848.29999999999995</ele>
        <time>2003-04-15T09:52:47Z</time>
      </trkpt>
      <trkpt lat="30.736170038580894" lon="-5.534766968339682">
        <ele>848.20000000000005</ele>
        <time>2003-04-15T09:52:55Z</time>
      </trkpt>
      <trkpt lat="30.735251968726516" lon="-5.534684993326664">
        <ele>847.70000000000005</ele>
        <time>2003-04-15T09:53:03Z</time>
      </trkpt>
      <trkpt lat="30.73429299518466" lon="-5.534618021920323">
        <ele>847</ele>
        <time>2003-04-15T09:53:11Z</time>
      </trkpt>
      <trkpt lat="30.733318012207747" lon="-5.534539986401796">
        <ele>845.39999999999998</ele>
        <time>2003-04-15T09:53:20Z</time>
      </trkpt>
      <trkpt lat="30.733203012496233" lon="-5.534520037472248">
        <ele>845.20000000000005</ele>
        <time>2003-04-15T09:53:22Z</time>
      </trkpt>
      <trkpt lat="30.732791963964701" lon="-5.534467985853553">
        <ele>845.39999999999998</ele>
        <time>2003-04-15T09:53:26Z</time>
      </trkpt>
      <trkpt lat="30.732089979574084" lon="-5.534437978640199">
        <ele>844.10000000000002</ele>
        <time>2003-04-15T09:53:33Z</time>
      </trkpt>
      <trkpt lat="30.731678009033203" lon="-5.534405037760735">
        <ele>843.5</ele>
        <time>2003-04-15T09:53:37Z</time>
      </trkpt>
      <trkpt lat="30.73074996471405" lon="-5.534333037212491">
        <ele>843.10000000000002</ele>
        <time>2003-04-15T09:53:45Z</time>
      </trkpt>
      <trkpt lat="30.729740029200912" lon="-5.534247038885951">
        <ele>842.39999999999998</ele>
        <time>2003-04-15T09:53:54Z</time>
      </trkpt>
      <trkpt lat="30.728769991546869" lon="-5.534175038337708">
        <ele>842.10000000000002</ele>
        <time>2003-04-15T09:54:01Z</time>
      </trkpt>
      <trkpt lat="30.727867009118199" lon="-5.534136984497309">
        <ele>840.39999999999998</ele>
        <time>2003-04-15T09:54:09Z</time>
      </trkpt>
      <trkpt lat="30.72713702917099" lon="-5.534089962020516">
        <ele>837.79999999999995</ele>
        <time>2003-04-15T09:54:14Z</time>
      </trkpt>
      <trkpt lat="30.726935025304556" lon="-5.534103037789464">
        <ele>836.89999999999998</ele>
        <time>2003-04-15T09:54:17Z</time>
      </trkpt>
      <trkpt lat="30.726835029199719" lon="-5.534132961183786">
        <ele>836.20000000000005</ele>
        <time>2003-04-15T09:54:17Z</time>
      </trkpt>
      <trkpt lat="30.726737966760993" lon="-5.534179983660579">
        <ele>835.79999999999995</ele>
        <time>2003-04-15T09:54:18Z</time>
      </trkpt>
      <trkpt lat="30.725810006260872" lon="-5.534648029133678">
        <ele>833.39999999999998</ele>
        <time>2003-04-15T09:54:28Z</time>
      </trkpt>
      <trkpt lat="30.72494700551033" lon="-5.535065028816462">
        <ele>834.70000000000005</ele>
        <time>2003-04-15T09:54:36Z</time>
      </trkpt>
      <trkpt lat="30.724599994719028" lon="-5.535237025469542">
        <ele>836.60000000000002</ele>
        <time>2003-04-15T09:54:39Z</time>
      </trkpt>
      <trkpt lat="30.723655018955469" lon="-5.535717979073525">
        <ele>841.10000000000002</ele>
        <time>2003-04-15T09:54:47Z</time>
      </trkpt>
      <trkpt lat="30.722765028476715" lon="-5.536173032596707">
        <ele>847</ele>
        <time>2003-04-15T09:54:54Z</time>
      </trkpt>
      <trkpt lat="30.722315004095435" lon="-5.536376964300871">
        <ele>850.20000000000005</ele>
        <time>2003-04-15T09:54:58Z</time>
      </trkpt>
      <trkpt lat="30.722077041864395" lon="-5.53650202229619">
        <ele>850.5</ele>
        <time>2003-04-15T09:54:59Z</time>
      </trkpt>
      <trkpt lat="30.721229966729879" lon="-5.536905024200678">
        <ele>847.89999999999998</ele>
        <time>2003-04-15T09:55:07Z</time>
      </trkpt>
      <trkpt lat="30.720371995121241" lon="-5.537308026105166">
        <ele>845.79999999999995</ele>
        <time>2003-04-15T09:55:14Z</time>
      </trkpt>
      <trkpt lat="30.719491979107261" lon="-5.53774799220264">
        <ele>843.39999999999998</ele>
        <time>2003-04-15T09:55:22Z</time>
      </trkpt>
      <trkpt lat="30.719085037708282" lon="-5.537931974977255">
        <ele>842.20000000000005</ele>
        <time>2003-04-15T09:55:26Z</time>
      </trkpt>
      <trkpt lat="30.718792006373405" lon="-5.5380729585886">
        <ele>841.79999999999995</ele>
        <time>2003-04-15T09:55:29Z</time>
      </trkpt>
      <trkpt lat="30.717932023108006" lon="-5.538481995463371">
        <ele>840.70000000000005</ele>
        <time>2003-04-15T09:55:37Z</time>
      </trkpt>
      <trkpt lat="30.717008002102375" lon="-5.538932019844651">
        <ele>839.10000000000002</ele>
        <time>2003-04-15T09:55:45Z</time>
      </trkpt>
      <trkpt lat="30.71609697304666" lon="-5.5393819604069">
        <ele>837.39999999999998</ele>
        <time>2003-04-15T09:55:53Z</time>
      </trkpt>
      <trkpt lat="30.715210000053048" lon="-5.539813041687012">
        <ele>836.39999999999998</ele>
        <time>2003-04-15T09:56:01Z</time>
      </trkpt>
      <trkpt lat="30.714308023452759" lon="-5.54026298224926">
        <ele>834.79999999999995</ele>
        <time>2003-04-15T09:56:11Z</time>
      </trkpt>
      <trkpt lat="30.713485004380345" lon="-5.540685011073947">
        <ele>834.10000000000002</ele>
        <time>2003-04-15T09:56:19Z</time>
      </trkpt>
      <trkpt lat="30.71257296949625" lon="-5.541147021576762">
        <ele>832.79999999999995</ele>
        <time>2003-04-15T09:56:27Z</time>
      </trkpt>
      <trkpt lat="30.712172985076904" lon="-5.541329998522997">
        <ele>831.70000000000005</ele>
        <time>2003-04-15T09:56:31Z</time>
      </trkpt>
      <trkpt lat="30.712011968716979" lon="-5.541411973536015">
        <ele>832.20000000000005</ele>
        <time>2003-04-15T09:56:32Z</time>
      </trkpt>
      <trkpt lat="30.71169001981616" lon="-5.541618000715971">
        <ele>832</ele>
        <time>2003-04-15T09:56:36Z</time>
      </trkpt>
      <trkpt lat="30.711633022874594" lon="-5.541705004870892">
        <ele>831.29999999999995</ele>
        <time>2003-04-15T09:56:38Z</time>
      </trkpt>
      <trkpt lat="30.711543001234531" lon="-5.541880019009113">
        <ele>830</ele>
        <time>2003-04-15T09:56:40Z</time>
      </trkpt>
      <trkpt lat="30.711487010121346" lon="-5.541970040649176">
        <ele>830.39999999999998</ele>
        <time>2003-04-15T09:56:40Z</time>
      </trkpt>
      <trkpt lat="30.711175035685301" lon="-5.542452000081539">
        <ele>830</ele>
        <time>2003-04-15T09:56:46Z</time>
      </trkpt>
      <trkpt lat="30.711000021547079" lon="-5.54258300922811">
        <ele>830.20000000000005</ele>
        <time>2003-04-15T09:56:47Z</time>
      </trkpt>
      <trkpt lat="30.710117993876338" lon="-5.543111991137266">
        <ele>829.29999999999995</ele>
        <time>2003-04-15T09:56:58Z</time>
      </trkpt>
      <trkpt lat="30.70928500033915" lon="-5.543556986376643">
        <ele>829</ele>
        <time>2003-04-15T09:57:07Z</time>
      </trkpt>
      <trkpt lat="30.709145022556186" lon="-5.543637033551931">
        <ele>828.60000000000002</ele>
        <time>2003-04-15T09:57:10Z</time>
      </trkpt>
      <trkpt lat="30.708328038454056" lon="-5.544082028791308">
        <ele>828.5</ele>
        <time>2003-04-15T09:57:22Z</time>
      </trkpt>
      <trkpt lat="30.708172973245382" lon="-5.544165009632707">
        <ele>828.70000000000005</ele>
        <time>2003-04-15T09:57:25Z</time>
      </trkpt>
      <trkpt lat="30.708027966320515" lon="-5.544256959110498">
        <ele>829</ele>
        <time>2003-04-15T09:57:48Z</time>
      </trkpt>
      <trkpt lat="30.707916989922523" lon="-5.544313034042716">
        <ele>829</ele>
        <time>2003-04-15T09:57:49Z</time>
      </trkpt>
      <trkpt lat="30.707769971340895" lon="-5.544392997398973">
        <ele>829.10000000000002</ele>
        <time>2003-04-15T09:57:52Z</time>
      </trkpt>
      <trkpt lat="30.707365041598678" lon="-5.54460003040731">
        <ele>830.39999999999998</ele>
        <time>2003-04-15T09:57:57Z</time>
      </trkpt>
      <trkpt lat="30.707194972783327" lon="-5.54471000097692">
        <ele>831.29999999999995</ele>
        <time>2003-04-15T09:57:59Z</time>
      </trkpt>
      <trkpt lat="30.706830024719238" lon="-5.54490203037858">
        <ele>832.60000000000002</ele>
        <time>2003-04-15T09:58:03Z</time>
      </trkpt>
      <trkpt lat="30.706668002530932" lon="-5.545007977634668">
        <ele>832.89999999999998</ele>
        <time>2003-04-15T09:58:04Z</time>
      </trkpt>
      <trkpt lat="30.706402966752648" lon="-5.545258009806275">
        <ele>832.20000000000005</ele>
        <time>2003-04-15T09:58:08Z</time>
      </trkpt>
      <trkpt lat="30.705656977370381" lon="-5.545993018895388">
        <ele>832</ele>
        <time>2003-04-15T09:58:16Z</time>
      </trkpt>
      <trkpt lat="30.705002015456557" lon="-5.546789970248938">
        <ele>831.70000000000005</ele>
        <time>2003-04-15T09:58:23Z</time>
      </trkpt>
      <trkpt lat="30.704328026622534" lon="-5.547605026513338">
        <ele>830.89999999999998</ele>
        <time>2003-04-15T09:58:30Z</time>
      </trkpt>
      <trkpt lat="30.703671975061297" lon="-5.548392003402114">
        <ele>829.70000000000005</ele>
        <time>2003-04-15T09:58:35Z</time>
      </trkpt>
      <trkpt lat="30.703088007867336" lon="-5.549091976135969">
        <ele>830.89999999999998</ele>
        <time>2003-04-15T09:58:42Z</time>
      </trkpt>
      <trkpt lat="30.702419970184565" lon="-5.549912983551621">
        <ele>830.89999999999998</ele>
        <time>2003-04-15T09:58:50Z</time>
      </trkpt>
      <trkpt lat="30.701737012714148" lon="-5.55072502233088">
        <ele>830.89999999999998</ele>
        <time>2003-04-15T09:58:57Z</time>
      </trkpt>
      <trkpt lat="30.701045002788305" lon="-5.551575031131506">
        <ele>832.39999999999998</ele>
        <time>2003-04-15T09:59:03Z</time>
      </trkpt>
      <trkpt lat="30.700336983427405" lon="-5.552425039932132">
        <ele>833.89999999999998</ele>
        <time>2003-04-15T09:59:10Z</time>
      </trkpt>
      <trkpt lat="30.699825016781688" lon="-5.553058041259646">
        <ele>833.60000000000002</ele>
        <time>2003-04-15T09:59:14Z</time>
      </trkpt>
      <trkpt lat="30.69914298132062" lon="-5.553892962634563">
        <ele>835.20000000000005</ele>
        <time>2003-04-15T09:59:21Z</time>
      </trkpt>
      <trkpt lat="30.698448037728667" lon="-5.554759986698628">
        <ele>835.89999999999998</ele>
        <time>2003-04-15T09:59:26Z</time>
      </trkpt>
      <trkpt lat="30.69781000725925" lon="-5.555551992729306">
        <ele>836.70000000000005</ele>
        <time>2003-04-15T09:59:33Z</time>
      </trkpt>
      <trkpt lat="30.697125038132071" lon="-5.556414993479848">
        <ele>838.60000000000002</ele>
        <time>2003-04-15T09:59:40Z</time>
      </trkpt>
      <trkpt lat="30.69645800627768" lon="-5.55725796148181">
        <ele>838.29999999999995</ele>
        <time>2003-04-15T09:59:47Z</time>
      </trkpt>
      <trkpt lat="30.695762978866696" lon="-5.558152981102467">
        <ele>838.5</ele>
        <time>2003-04-15T09:59:53Z</time>
      </trkpt>
      <trkpt lat="30.695078009739518" lon="-5.559008019044995">
        <ele>839.60000000000002</ele>
        <time>2003-04-15T10:00:00Z</time>
      </trkpt>
      <trkpt lat="30.694394968450069" lon="-5.559885017573834">
        <ele>840.60000000000002</ele>
        <time>2003-04-15T10:00:08Z</time>
      </trkpt>
      <trkpt lat="30.693731959909201" lon="-5.560724968090653">
        <ele>839.29999999999995</ele>
        <time>2003-04-15T10:00:15Z</time>
      </trkpt>
      <trkpt lat="30.693491986021399" lon="-5.561053035780788">
        <ele>840</ele>
        <time>2003-04-15T10:00:18Z</time>
      </trkpt>
      <trkpt lat="30.692897038534284" lon="-5.561930034309626">
        <ele>840.10000000000002</ele>
        <time>2003-04-15T10:00:26Z</time>
      </trkpt>
      <trkpt lat="30.692357998341322" lon="-5.562773002311587">
        <ele>838.39999999999998</ele>
        <time>2003-04-15T10:00:34Z</time>
      </trkpt>
      <trkpt lat="30.692118024453521" lon="-5.563095035031438">
        <ele>839.5</ele>
        <time>2003-04-15T10:00:36Z</time>
      </trkpt>
      <trkpt lat="30.691909985616803" lon="-5.563361998647451">
        <ele>839.29999999999995</ele>
        <time>2003-04-15T10:00:39Z</time>
      </trkpt>
      <trkpt lat="30.691597005352378" lon="-5.563759971410036">
        <ele>838.10000000000002</ele>
        <time>2003-04-15T10:00:45Z</time>
      </trkpt>
      <trkpt lat="30.69142802618444" lon="-5.563983013853431">
        <ele>838</ele>
        <time>2003-04-15T10:00:47Z</time>
      </trkpt>
      <trkpt lat="30.691261980682611" lon="-5.564217958599329">
        <ele>838.60000000000002</ele>
        <time>2003-04-15T10:00:50Z</time>
      </trkpt>
      <trkpt lat="30.6910449732095" lon="-5.564492968842387">
        <ele>838.89999999999998</ele>
        <time>2003-04-15T10:00:54Z</time>
      </trkpt>
      <trkpt lat="30.690639959648252" lon="-5.564997978508472">
        <ele>838.29999999999995</ele>
        <time>2003-04-15T10:00:59Z</time>
      </trkpt>
      <trkpt lat="30.690495036542416" lon="-5.565050030127168">
        <ele>837.79999999999995</ele>
        <time>2003-04-15T10:01:02Z</time>
      </trkpt>
      <trkpt lat="30.690412977710366" lon="-5.565190007910132">
        <ele>837.79999999999995</ele>
        <time>2003-04-15T10:01:03Z</time>
      </trkpt>
      <trkpt lat="30.690337037667632" lon="-5.565325040370226">
        <ele>837.89999999999998</ele>
        <time>2003-04-15T10:01:06Z</time>
      </trkpt>
      <trkpt lat="30.690237041562796" lon="-5.565487984567881">
        <ele>837.60000000000002</ele>
        <time>2003-04-15T10:01:08Z</time>
      </trkpt>
      <trkpt lat="30.690087005496025" lon="-5.565738016739488">
        <ele>836.70000000000005</ele>
        <time>2003-04-15T10:01:10Z</time>
      </trkpt>
      <trkpt lat="30.689587024971843" lon="-5.566397001966834">
        <ele>836.79999999999995</ele>
        <time>2003-04-15T10:01:18Z</time>
      </trkpt>
      <trkpt lat="30.689407987520099" lon="-5.566649967804551">
        <ele>836.5</ele>
        <time>2003-04-15T10:01:21Z</time>
      </trkpt>
      <trkpt lat="30.689317965880036" lon="-5.566773014143109">
        <ele>836.5</ele>
        <time>2003-04-15T10:01:24Z</time>
      </trkpt>
      <trkpt lat="30.689134988933802" lon="-5.566942999139428">
        <ele>836.70000000000005</ele>
        <time>2003-04-15T10:01:26Z</time>
      </trkpt>
      <trkpt lat="30.689012026414275" lon="-5.567082976922393">
        <ele>836.89999999999998</ele>
        <time>2003-04-15T10:01:29Z</time>
      </trkpt>
      <trkpt lat="30.688967015594244" lon="-5.567180039361119">
        <ele>837.29999999999995</ele>
        <time>2003-04-15T10:01:29Z</time>
      </trkpt>
      <trkpt lat="30.688867019489408" lon="-5.567342983558774">
        <ele>837.20000000000005</ele>
        <time>2003-04-15T10:01:32Z</time>
      </trkpt>
      <trkpt lat="30.688586980104446" lon="-5.567702986299992">
        <ele>837.20000000000005</ele>
        <time>2003-04-15T10:01:37Z</time>
      </trkpt>
      <trkpt lat="30.688502993434668" lon="-5.567810023203492">
        <ele>837.5</ele>
        <time>2003-04-15T10:01:39Z</time>
      </trkpt>
      <trkpt lat="30.688295038416982" lon="-5.56808796711266">
        <ele>838.79999999999995</ele>
        <time>2003-04-15T10:01:43Z</time>
      </trkpt>
      <trkpt lat="30.687977029010653" lon="-5.568506978452206">
        <ele>839.79999999999995</ele>
        <time>2003-04-15T10:01:48Z</time>
      </trkpt>
      <trkpt lat="30.687367999926209" lon="-5.569302001968026">
        <ele>840.39999999999998</ele>
        <time>2003-04-15T10:01:56Z</time>
      </trkpt>
      <trkpt lat="30.686759976670146" lon="-5.570102976635099">
        <ele>841.10000000000002</ele>
        <time>2003-04-15T10:02:04Z</time>
      </trkpt>
      <trkpt lat="30.686132004484534" lon="-5.570937981829047">
        <ele>842.79999999999995</ele>
        <time>2003-04-15T10:02:12Z</time>
      </trkpt>
      <trkpt lat="30.685494979843497" lon="-5.571767035871744">
        <ele>843.70000000000005</ele>
        <time>2003-04-15T10:02:19Z</time>
      </trkpt>
      <trkpt lat="30.684959962964058" lon="-5.572470026090741">
        <ele>844.5</ele>
        <time>2003-04-15T10:02:27Z</time>
      </trkpt>
      <trkpt lat="30.684627033770084" lon="-5.572906974703074">
        <ele>845.5</ele>
        <time>2003-04-15T10:02:31Z</time>
      </trkpt>
      <trkpt lat="30.683960001915693" lon="-5.573787996545434">
        <ele>845.60000000000002</ele>
        <time>2003-04-15T10:02:38Z</time>
      </trkpt>
      <trkpt lat="30.683400006964803" lon="-5.574580002576113">
        <ele>847.79999999999995</ele>
        <time>2003-04-15T10:02:46Z</time>
      </trkpt>
      <trkpt lat="30.683362036943436" lon="-5.574712017551065">
        <ele>847.89999999999998</ele>
        <time>2003-04-15T10:02:46Z</time>
      </trkpt>
      <trkpt lat="30.683306967839599" lon="-5.575013011693955">
        <ele>847.10000000000002</ele>
        <time>2003-04-15T10:02:49Z</time>
      </trkpt>
      <trkpt lat="30.683175036683679" lon="-5.575693035498262">
        <ele>846.29999999999995</ele>
        <time>2003-04-15T10:02:53Z</time>
      </trkpt>
      <trkpt lat="30.683027012273669" lon="-5.576495015993714">
        <ele>845.79999999999995</ele>
        <time>2003-04-15T10:02:58Z</time>
      </trkpt>
      <trkpt lat="30.682983007282019" lon="-5.576628036797047">
        <ele>845.70000000000005</ele>
        <time>2003-04-15T10:02:58Z</time>
      </trkpt>
      <trkpt lat="30.682915030047297" lon="-5.576752005144954">
        <ele>845.5</ele>
        <time>2003-04-15T10:03:00Z</time>
      </trkpt>
      <trkpt lat="30.682413037866354" lon="-5.577662028372288">
        <ele>847.70000000000005</ele>
        <time>2003-04-15T10:03:06Z</time>
      </trkpt>
      <trkpt lat="30.681881960481405" lon="-5.578653020784259">
        <ele>848.70000000000005</ele>
        <time>2003-04-15T10:03:14Z</time>
      </trkpt>
      <trkpt lat="30.681336969137192" lon="-5.579660022631288">
        <ele>849.89999999999998</ele>
        <time>2003-04-15T10:03:21Z</time>
      </trkpt>
      <trkpt lat="30.680977972224355" lon="-5.580299980938435">
        <ele>851.20000000000005</ele>
        <time>2003-04-15T10:03:27Z</time>
      </trkpt>
      <trkpt lat="30.680427029728889" lon="-5.581300025805831">
        <ele>851</ele>
        <time>2003-04-15T10:03:35Z</time>
      </trkpt>
      <trkpt lat="30.680084964260459" lon="-5.581979965791106">
        <ele>850.79999999999995</ele>
        <time>2003-04-15T10:03:40Z</time>
      </trkpt>
      <trkpt lat="30.680084964260459" lon="-5.582099994644523">
        <ele>850.29999999999995</ele>
        <time>2003-04-15T10:03:41Z</time>
      </trkpt>
      <trkpt lat="30.680072978138924" lon="-5.582338040694594">
        <ele>846.89999999999998</ele>
        <time>2003-04-15T10:03:44Z</time>
      </trkpt>
      <trkpt lat="30.680038025602698" lon="-5.582447005435824">
        <ele>845.89999999999998</ele>
        <time>2003-04-15T10:03:44Z</time>
      </trkpt>
      <trkpt lat="30.679967030882835" lon="-5.582731990143657">
        <ele>848.10000000000002</ele>
        <time>2003-04-15T10:03:48Z</time>
      </trkpt>
      <trkpt lat="30.679895030334592" lon="-5.583068020641804">
        <ele>850.70000000000005</ele>
        <time>2003-04-15T10:03:52Z</time>
      </trkpt>
      <trkpt lat="30.67976301535964" lon="-5.583198023959994">
        <ele>849.60000000000002</ele>
        <time>2003-04-15T10:03:54Z</time>
      </trkpt>
      <trkpt lat="30.679617002606392" lon="-5.583359962329269">
        <ele>848.79999999999995</ele>
        <time>2003-04-15T10:03:55Z</time>
      </trkpt>
      <trkpt lat="30.679445005953312" lon="-5.583509998396039">
        <ele>849.89999999999998</ele>
        <time>2003-04-15T10:03:58Z</time>
      </trkpt>
      <trkpt lat="30.679348027333617" lon="-5.583570012822747">
        <ele>850</ele>
        <time>2003-04-15T10:03:59Z</time>
      </trkpt>
      <trkpt lat="30.67916002124548" lon="-5.583704961463809">
        <ele>851.10000000000002</ele>
        <time>2003-04-15T10:04:00Z</time>
      </trkpt>
      <trkpt lat="30.678732041269541" lon="-5.58409002609551">
        <ele>850.89999999999998</ele>
        <time>2003-04-15T10:04:06Z</time>
      </trkpt>
      <trkpt lat="30.678600026294589" lon="-5.584312984719873">
        <ele>850.70000000000005</ele>
        <time>2003-04-15T10:04:07Z</time>
      </trkpt>
      <trkpt lat="30.678144972771406" lon="-5.585038019344211">
        <ele>849.60000000000002</ele>
        <time>2003-04-15T10:04:14Z</time>
      </trkpt>
      <trkpt lat="30.677961995825171" lon="-5.585242034867406">
        <ele>849.60000000000002</ele>
        <time>2003-04-15T10:04:15Z</time>
      </trkpt>
      <trkpt lat="30.677524963393807" lon="-5.585719970986247">
        <ele>850.39999999999998</ele>
        <time>2003-04-15T10:04:21Z</time>
      </trkpt>
      <trkpt lat="30.677477018907666" lon="-5.585819967091084">
        <ele>849.10000000000002</ele>
        <time>2003-04-15T10:04:22Z</time>
      </trkpt>
      <trkpt lat="30.677465032786131" lon="-5.586013002321124">
        <ele>850</ele>
        <time>2003-04-15T10:04:23Z</time>
      </trkpt>
      <trkpt lat="30.677484981715679" lon="-5.586126996204257">
        <ele>849.70000000000005</ele>
        <time>2003-04-15T10:04:25Z</time>
      </trkpt>
      <trkpt lat="30.67752999253571" lon="-5.586232021450996">
        <ele>849.39999999999998</ele>
        <time>2003-04-15T10:04:26Z</time>
      </trkpt>
      <trkpt lat="30.677647003903985" lon="-5.586439976468682">
        <ele>849.60000000000002</ele>
        <time>2003-04-15T10:04:27Z</time>
      </trkpt>
      <trkpt lat="30.67780802026391" lon="-5.586618008092046">
        <ele>849.89999999999998</ele>
        <time>2003-04-15T10:04:30Z</time>
      </trkpt>
      <trkpt lat="30.678012035787106" lon="-5.586739964783192">
        <ele>850.60000000000002</ele>
        <time>2003-04-15T10:04:31Z</time>
      </trkpt>
      <trkpt lat="30.678372960537672" lon="-5.586937023326755">
        <ele>851.79999999999995</ele>
        <time>2003-04-15T10:04:34Z</time>
      </trkpt>
      <trkpt lat="30.679230010136962" lon="-5.587495006620884">
        <ele>854.10000000000002</ele>
        <time>2003-04-15T10:04:42Z</time>
      </trkpt>
      <trkpt lat="30.679982034489512" lon="-5.588145023211837">
        <ele>855.29999999999995</ele>
        <time>2003-04-15T10:04:49Z</time>
      </trkpt>
      <trkpt lat="30.680457036942244" lon="-5.588487004861236">
        <ele>856</ele>
        <time>2003-04-15T10:04:53Z</time>
      </trkpt>
      <trkpt lat="30.680892979726195" lon="-5.588727984577417">
        <ele>855.89999999999998</ele>
        <time>2003-04-15T10:04:57Z</time>
      </trkpt>
      <trkpt lat="30.681047039106488" lon="-5.588886989280582">
        <ele>855.89999999999998</ele>
        <time>2003-04-15T10:04:58Z</time>
      </trkpt>
      <trkpt lat="30.681081991642714" lon="-5.589005006477237">
        <ele>856</ele>
        <time>2003-04-15T10:05:00Z</time>
      </trkpt>
      <trkpt lat="30.681177964434028" lon="-5.589240035042167">
        <ele>856.29999999999995</ele>
        <time>2003-04-15T10:05:01Z</time>
      </trkpt>
      <trkpt lat="30.681336969137192" lon="-5.589597020298243">
        <ele>856.60000000000002</ele>
        <time>2003-04-15T10:05:05Z</time>
      </trkpt>
      <trkpt lat="30.681667970493436" lon="-5.590527998283505">
        <ele>856.5</ele>
        <time>2003-04-15T10:05:13Z</time>
      </trkpt>
      <trkpt lat="30.681750029325485" lon="-5.590748023241758">
        <ele>856.70000000000005</ele>
        <time>2003-04-15T10:05:15Z</time>
      </trkpt>
      <trkpt lat="30.681856982409954" lon="-5.590941980481148">
        <ele>855.39999999999998</ele>
        <time>2003-04-15T10:05:16Z</time>
      </trkpt>
      <trkpt lat="30.681942980736494" lon="-5.591178014874458">
        <ele>854.60000000000002</ele>
        <time>2003-04-15T10:05:19Z</time>
      </trkpt>
      <trkpt lat="30.681980028748512" lon="-5.591416982933879">
        <ele>855.29999999999995</ele>
        <time>2003-04-15T10:05:20Z</time>
      </trkpt>
      <trkpt lat="30.682011963799596" lon="-5.59171998873353">
        <ele>855.39999999999998</ele>
        <time>2003-04-15T10:05:24Z</time>
      </trkpt>
      <trkpt lat="30.682102991268039" lon="-5.592155009508133">
        <ele>855</ele>
        <time>2003-04-15T10:05:28Z</time>
      </trkpt>
      <trkpt lat="30.682368027046323" lon="-5.592914996668696">
        <ele>855.89999999999998</ele>
        <time>2003-04-15T10:05:35Z</time>
      </trkpt>
      <trkpt lat="30.682391999289393" lon="-5.593132004141808">
        <ele>856.5</ele>
        <time>2003-04-15T10:05:36Z</time>
      </trkpt>
      <trkpt lat="30.682376995682716" lon="-5.593241974711418">
        <ele>856.10000000000002</ele>
        <time>2003-04-15T10:05:38Z</time>
      </trkpt>
      <trkpt lat="30.6822569668293" lon="-5.593774979934096">
        <ele>855.60000000000002</ele>
        <time>2003-04-15T10:05:43Z</time>
      </trkpt>
      <trkpt lat="30.681999977678061" lon="-5.594681985676289">
        <ele>853.60000000000002</ele>
        <time>2003-04-15T10:05:51Z</time>
      </trkpt>
      <trkpt lat="30.681995032355189" lon="-5.594841996207833">
        <ele>853.89999999999998</ele>
        <time>2003-04-15T10:05:54Z</time>
      </trkpt>
      <trkpt lat="30.682047000154853" lon="-5.594966970384121">
        <ele>853</ele>
        <time>2003-04-15T10:05:55Z</time>
      </trkpt>
      <trkpt lat="30.682050017639995" lon="-5.595090016722679">
        <ele>852.39999999999998</ele>
        <time>2003-04-15T10:05:58Z</time>
      </trkpt>
      <trkpt lat="30.682117994874716" lon="-5.595526965335012">
        <ele>853.10000000000002</ele>
        <time>2003-04-15T10:06:03Z</time>
      </trkpt>
      <trkpt lat="30.682161999866366" lon="-5.595712959766388">
        <ele>853.70000000000005</ele>
        <time>2003-04-15T10:06:06Z</time>
      </trkpt>
      <trkpt lat="30.682263001799583" lon="-5.596104981377721">
        <ele>854.29999999999995</ele>
        <time>2003-04-15T10:06:10Z</time>
      </trkpt>
      <trkpt lat="30.682387975975871" lon="-5.596359958872199">
        <ele>855.29999999999995</ele>
        <time>2003-04-15T10:06:13Z</time>
      </trkpt>
      <trkpt lat="30.682461988180876" lon="-5.596430031582713">
        <ele>855.5</ele>
        <time>2003-04-15T10:06:14Z</time>
      </trkpt>
      <trkpt lat="30.682602971792221" lon="-5.596607979387045">
        <ele>856.5</ele>
        <time>2003-04-15T10:06:15Z</time>
      </trkpt>
      <trkpt lat="30.682838000357151" lon="-5.596863040700555">
        <ele>857.89999999999998</ele>
        <time>2003-04-15T10:06:18Z</time>
      </trkpt>
      <trkpt lat="30.683166990056634" lon="-5.597254978492856">
        <ele>857.70000000000005</ele>
        <time>2003-04-15T10:06:22Z</time>
      </trkpt>
      <trkpt lat="30.683809965848923" lon="-5.598032986745238">
        <ele>859.20000000000005</ele>
        <time>2003-04-15T10:06:30Z</time>
      </trkpt>
      <trkpt lat="30.684154964983463" lon="-5.598428025841713">
        <ele>861</ele>
        <time>2003-04-15T10:06:34Z</time>
      </trkpt>
      <trkpt lat="30.684691993519664" lon="-5.598932029679418">
        <ele>860.20000000000005</ele>
        <time>2003-04-15T10:06:40Z</time>
      </trkpt>
      <trkpt lat="30.684752007946372" lon="-5.599032025784254">
        <ele>860.39999999999998</ele>
        <time>2003-04-15T10:06:41Z</time>
      </trkpt>
      <trkpt lat="30.684946971014142" lon="-5.599336959421635">
        <ele>863.10000000000002</ele>
        <time>2003-04-15T10:06:44Z</time>
      </trkpt>
      <trkpt lat="30.685277972370386" lon="-5.599693022668362">
        <ele>862.89999999999998</ele>
        <time>2003-04-15T10:06:48Z</time>
      </trkpt>
      <trkpt lat="30.685733025893569" lon="-5.599999967962503">
        <ele>863.29999999999995</ele>
        <time>2003-04-15T10:06:52Z</time>
      </trkpt>
      <trkpt lat="30.686540035530925" lon="-5.600704969838262">
        <ele>864.29999999999995</ele>
        <time>2003-04-15T10:06:59Z</time>
      </trkpt>
      <trkpt lat="30.687204971909523" lon="-5.601435033604503">
        <ele>865.39999999999998</ele>
        <time>2003-04-15T10:07:05Z</time>
      </trkpt>
      <trkpt lat="30.687572015449405" lon="-5.601917998865247">
        <ele>866.20000000000005</ele>
        <time>2003-04-15T10:07:09Z</time>
      </trkpt>
      <trkpt lat="30.688103009015322" lon="-5.602847971022129">
        <ele>866.70000000000005</ele>
        <time>2003-04-15T10:07:16Z</time>
      </trkpt>
      <trkpt lat="30.688405008986592" lon="-5.603690017014742">
        <ele>868.60000000000002</ele>
        <time>2003-04-15T10:07:23Z</time>
      </trkpt>
      <trkpt lat="30.688565019518137" lon="-5.604401975870132">
        <ele>868.20000000000005</ele>
        <time>2003-04-15T10:07:28Z</time>
      </trkpt>
      <trkpt lat="30.688656968995929" lon="-5.604797014966607">
        <ele>868</ele>
        <time>2003-04-15T10:07:31Z</time>
      </trkpt>
      <trkpt lat="30.688750008121133" lon="-5.605224994942546">
        <ele>867.5</ele>
        <time>2003-04-15T10:07:34Z</time>
      </trkpt>
      <trkpt lat="30.688822008669376" lon="-5.60566496104002">
        <ele>869.29999999999995</ele>
        <time>2003-04-15T10:07:36Z</time>
      </trkpt>
      <trkpt lat="30.688998028635979" lon="-5.606359988451004">
        <ele>868.89999999999998</ele>
        <time>2003-04-15T10:07:43Z</time>
      </trkpt>
      <trkpt lat="30.689053013920784" lon="-5.606450010091066">
        <ele>869.79999999999995</ele>
        <time>2003-04-15T10:07:43Z</time>
      </trkpt>
      <trkpt lat="30.689062988385558" lon="-5.606556963175535">
        <ele>870.20000000000005</ele>
        <time>2003-04-15T10:07:43Z</time>
      </trkpt>
      <trkpt lat="30.689127026125789" lon="-5.606861980631948">
        <ele>868.20000000000005</ele>
        <time>2003-04-15T10:07:47Z</time>
      </trkpt>
      <trkpt lat="30.689185028895736" lon="-5.606949990615249">
        <ele>868.29999999999995</ele>
        <time>2003-04-15T10:07:47Z</time>
      </trkpt>
      <trkpt lat="30.689336992800236" lon="-5.607222989201546">
        <ele>869.20000000000005</ele>
        <time>2003-04-15T10:07:51Z</time>
      </trkpt>
      <trkpt lat="30.689487028867006" lon="-5.607707966119051">
        <ele>869.5</ele>
        <time>2003-04-15T10:07:55Z</time>
      </trkpt>
      <trkpt lat="30.689509995281696" lon="-5.607924973592162">
        <ele>868.70000000000005</ele>
        <time>2003-04-15T10:07:58Z</time>
      </trkpt>
      <trkpt lat="30.689558023586869" lon="-5.608144998550415">
        <ele>868.20000000000005</ele>
        <time>2003-04-15T10:07:59Z</time>
      </trkpt>
      <trkpt lat="30.689700013026595" lon="-5.608511958271265">
        <ele>868</ele>
        <time>2003-04-15T10:08:02Z</time>
      </trkpt>
      <trkpt lat="30.690056998282671" lon="-5.609216960147023">
        <ele>869</ele>
        <time>2003-04-15T10:08:09Z</time>
      </trkpt>
      <trkpt lat="30.690529989078641" lon="-5.609927996993065">
        <ele>869.10000000000002</ele>
        <time>2003-04-15T10:08:14Z</time>
      </trkpt>
      <trkpt lat="30.690989987924695" lon="-5.610587988048792">
        <ele>869.39999999999998</ele>
        <time>2003-04-15T10:08:21Z</time>
      </trkpt>
      <trkpt lat="30.691449986770749" lon="-5.611640000715852">
        <ele>871.5</ele>
        <time>2003-04-15T10:08:29Z</time>
      </trkpt>
      <trkpt lat="30.691528022289276" lon="-5.611888021230698">
        <ele>871.79999999999995</ele>
        <time>2003-04-15T10:08:30Z</time>
      </trkpt>
      <trkpt lat="30.691790040582418" lon="-5.612699976190925">
        <ele>871.70000000000005</ele>
        <time>2003-04-15T10:08:37Z</time>
      </trkpt>
      <trkpt lat="30.691905040293932" lon="-5.613068025559187">
        <ele>871.5</ele>
        <time>2003-04-15T10:08:41Z</time>
      </trkpt>
      <trkpt lat="30.691934963688254" lon="-5.613353010267019">
        <ele>871.89999999999998</ele>
        <time>2003-04-15T10:08:42Z</time>
      </trkpt>
      <trkpt lat="30.691951978951693" lon="-5.614426983520389">
        <ele>871.10000000000002</ele>
        <time>2003-04-15T10:08:49Z</time>
      </trkpt>
      <trkpt lat="30.691932030022144" lon="-5.614654971286655">
        <ele>871</ele>
        <time>2003-04-15T10:08:51Z</time>
      </trkpt>
      <trkpt lat="30.691888025030494" lon="-5.61488002538681">
        <ele>869.89999999999998</ele>
        <time>2003-04-15T10:08:52Z</time>
      </trkpt>
      <trkpt lat="30.691657019779086" lon="-5.61558997258544">
        <ele>869.70000000000005</ele>
        <time>2003-04-15T10:08:59Z</time>
      </trkpt>
      <trkpt lat="30.6913230009377" lon="-5.616324981674552">
        <ele>868.70000000000005</ele>
        <time>2003-04-15T10:09:05Z</time>
      </trkpt>
      <trkpt lat="30.691219987347722" lon="-5.616430006921291">
        <ele>869.10000000000002</ele>
        <time>2003-04-15T10:09:08Z</time>
      </trkpt>
      <trkpt lat="30.69110699929297" lon="-5.616584988310933">
        <ele>869.5</ele>
        <time>2003-04-15T10:09:09Z</time>
      </trkpt>
      <trkpt lat="30.69093500263989" lon="-5.616865027695894">
        <ele>869.79999999999995</ele>
        <time>2003-04-15T10:09:14Z</time>
      </trkpt>
      <trkpt lat="30.690878005698323" lon="-5.616957983002067">
        <ele>870.29999999999995</ele>
        <time>2003-04-15T10:09:16Z</time>
      </trkpt>
      <trkpt lat="30.690789995715022" lon="-5.617078011855483">
        <ele>870.39999999999998</ele>
        <time>2003-04-15T10:09:18Z</time>
      </trkpt>
      <trkpt lat="30.690671978518367" lon="-5.617247996851802">
        <ele>869.5</ele>
        <time>2003-04-15T10:09:19Z</time>
      </trkpt>
      <trkpt lat="30.69054801017046" lon="-5.617455029860139">
        <ele>870.39999999999998</ele>
        <time>2003-04-15T10:09:22Z</time>
      </trkpt>
      <trkpt lat="30.690252967178822" lon="-5.617915028706193">
        <ele>871.20000000000005</ele>
        <time>2003-04-15T10:09:27Z</time>
      </trkpt>
      <trkpt lat="30.690177027136087" lon="-5.618022987619042">
        <ele>872.20000000000005</ele>
        <time>2003-04-15T10:10:06Z</time>
      </trkpt>
      <trkpt lat="30.69009798578918" lon="-5.618147039785981">
        <ele>872</ele>
        <time>2003-04-15T10:10:09Z</time>
      </trkpt>
      <trkpt lat="30.69001198746264" lon="-5.618257010355592">
        <ele>872.70000000000005</ele>
        <time>2003-04-15T10:10:10Z</time>
      </trkpt>
      <trkpt lat="30.689885001629591" lon="-5.618373015895486">
        <ele>872.70000000000005</ele>
        <time>2003-04-15T10:10:13Z</time>
      </trkpt>
      <trkpt lat="30.689681991934776" lon="-5.618560016155243">
        <ele>871.29999999999995</ele>
        <time>2003-04-15T10:10:16Z</time>
      </trkpt>
      <trkpt lat="30.689579984173179" lon="-5.618727989494801">
        <ele>871.60000000000002</ele>
        <time>2003-04-15T10:10:17Z</time>
      </trkpt>
      <trkpt lat="30.689464984461665" lon="-5.618878025561571">
        <ele>870.89999999999998</ele>
        <time>2003-04-15T10:10:20Z</time>
      </trkpt>
      <trkpt lat="30.68936800584197" lon="-5.618990007787943">
        <ele>870.89999999999998</ele>
        <time>2003-04-15T10:10:21Z</time>
      </trkpt>
      <trkpt lat="30.689270021393895" lon="-5.619111964479089">
        <ele>871.70000000000005</ele>
        <time>2003-04-15T10:10:29Z</time>
      </trkpt>
      <trkpt lat="30.689161978662014" lon="-5.619148006662726">
        <ele>872</ele>
        <time>2003-04-15T10:10:30Z</time>
      </trkpt>
      <trkpt lat="30.689028035849333" lon="-5.619182959198952">
        <ele>872.5</ele>
        <time>2003-04-15T10:10:33Z</time>
      </trkpt>
      <trkpt lat="30.688910018652678" lon="-5.619284966960549">
        <ele>871.79999999999995</ele>
        <time>2003-04-15T10:10:35Z</time>
      </trkpt>
      <trkpt lat="30.688780015334487" lon="-5.619369959458709">
        <ele>872.5</ele>
        <time>2003-04-15T10:10:37Z</time>
      </trkpt>
      <trkpt lat="30.688467035070062" lon="-5.619555031880736">
        <ele>872.89999999999998</ele>
        <time>2003-04-15T10:10:40Z</time>
      </trkpt>
      <trkpt lat="30.688286991789937" lon="-5.619580009952188">
        <ele>873.5</ele>
        <time>2003-04-15T10:10:43Z</time>
      </trkpt>
      <trkpt lat="30.6874980032444" lon="-5.619657961651683">
        <ele>874.79999999999995</ele>
        <time>2003-04-15T10:10:51Z</time>
      </trkpt>
      <trkpt lat="30.68657498806715" lon="-5.619764998555183">
        <ele>875.5</ele>
        <time>2003-04-15T10:11:00Z</time>
      </trkpt>
      <trkpt lat="30.686142984777689" lon="-5.619932971894741">
        <ele>877</ele>
        <time>2003-04-15T10:11:04Z</time>
      </trkpt>
      <trkpt lat="30.685997977852821" lon="-5.619997009634972">
        <ele>875.89999999999998</ele>
        <time>2003-04-15T10:11:07Z</time>
      </trkpt>
      <trkpt lat="30.685860011726618" lon="-5.620053000748158">
        <ele>876.89999999999998</ele>
        <time>2003-04-15T10:11:08Z</time>
      </trkpt>
      <trkpt lat="30.685720033943653" lon="-5.62001695856452">
        <ele>877.39999999999998</ele>
        <time>2003-04-15T10:11:11Z</time>
      </trkpt>
      <trkpt lat="30.685539990663528" lon="-5.620017964392901">
        <ele>876.5</ele>
        <time>2003-04-15T10:11:12Z</time>
      </trkpt>
      <trkpt lat="30.685270009562373" lon="-5.6200369913131">
        <ele>878.39999999999998</ele>
        <time>2003-04-15T10:11:15Z</time>
      </trkpt>
      <trkpt lat="30.685132965445518" lon="-5.62001503072679">
        <ele>880.20000000000005</ele>
        <time>2003-04-15T10:11:18Z</time>
      </trkpt>
      <trkpt lat="30.685028024017811" lon="-5.620006984099746">
        <ele>879.29999999999995</ele>
        <time>2003-04-15T10:11:20Z</time>
      </trkpt>
      <trkpt lat="30.684928027912974" lon="-5.620032967999578">
        <ele>880.20000000000005</ele>
        <time>2003-04-15T10:11:23Z</time>
      </trkpt>
      <trkpt lat="30.684806993231177" lon="-5.620021987706423">
        <ele>880.70000000000005</ele>
        <time>2003-04-15T10:11:24Z</time>
      </trkpt>
      <trkpt lat="30.684717977419496" lon="-5.619988040998578">
        <ele>880.29999999999995</ele>
        <time>2003-04-15T10:11:27Z</time>
      </trkpt>
      <trkpt lat="30.684610018506646" lon="-5.619983011856675">
        <ele>879.5</ele>
        <time>2003-04-15T10:11:29Z</time>
      </trkpt>
      <trkpt lat="30.684471968561411" lon="-5.620017964392901">
        <ele>880.79999999999995</ele>
        <time>2003-04-15T10:11:31Z</time>
      </trkpt>
      <trkpt lat="30.684329979121685" lon="-5.620002960786223">
        <ele>881.29999999999995</ele>
        <time>2003-04-15T10:11:33Z</time>
      </trkpt>
      <trkpt lat="30.684125041589141" lon="-5.62001695856452">
        <ele>881.70000000000005</ele>
        <time>2003-04-15T10:11:35Z</time>
      </trkpt>
      <trkpt lat="30.683872997760773" lon="-5.620092982426286">
        <ele>880.70000000000005</ele>
        <time>2003-04-15T10:11:38Z</time>
      </trkpt>
      <trkpt lat="30.683092977851629" lon="-5.620366986840963">
        <ele>879.10000000000002</ele>
        <time>2003-04-15T10:11:49Z</time>
      </trkpt>
      <trkpt lat="30.682997005060315" lon="-5.620397999882698">
        <ele>879.20000000000005</ele>
        <time>2003-04-15T10:11:50Z</time>
      </trkpt>
      <trkpt lat="30.682889968156815" lon="-5.62042498961091">
        <ele>878.39999999999998</ele>
        <time>2003-04-15T10:11:53Z</time>
      </trkpt>
      <trkpt lat="30.682743033394217" lon="-5.620470000430942">
        <ele>879.10000000000002</ele>
        <time>2003-04-15T10:11:54Z</time>
      </trkpt>
      <trkpt lat="30.682510016486049" lon="-5.620558010414243">
        <ele>879.5</ele>
        <time>2003-04-15T10:11:58Z</time>
      </trkpt>
      <trkpt lat="30.682095028460026" lon="-5.620707040652633">
        <ele>880.20000000000005</ele>
        <time>2003-04-15T10:12:02Z</time>
      </trkpt>
      <trkpt lat="30.681322971358895" lon="-5.620948020368815">
        <ele>880.29999999999995</ele>
        <time>2003-04-15T10:12:12Z</time>
      </trkpt>
      <trkpt lat="30.680879987776279" lon="-5.621092021465302">
        <ele>881.10000000000002</ele>
        <time>2003-04-15T10:12:17Z</time>
      </trkpt>
      <trkpt lat="30.68057999946177" lon="-5.62115496955812">
        <ele>881.29999999999995</ele>
        <time>2003-04-15T10:12:20Z</time>
      </trkpt>
      <trkpt lat="30.680483020842075" lon="-5.621147006750107">
        <ele>881.39999999999998</ele>
        <time>2003-04-15T10:12:21Z</time>
      </trkpt>
      <trkpt lat="30.680227959528565" lon="-5.621142983436585">
        <ele>881.70000000000005</ele>
        <time>2003-04-15T10:12:24Z</time>
      </trkpt>
      <trkpt lat="30.680061997845769" lon="-5.621207021176815">
        <ele>882.10000000000002</ele>
        <time>2003-04-15T10:12:25Z</time>
      </trkpt>
      <trkpt lat="30.679532010108232" lon="-5.621378012001514">
        <ele>882.89999999999998</ele>
        <time>2003-04-15T10:12:32Z</time>
      </trkpt>
      <trkpt lat="30.679105035960674" lon="-5.621642963960767">
        <ele>883.79999999999995</ele>
        <time>2003-04-15T10:12:39Z</time>
      </trkpt>
      <trkpt lat="30.678952988237143" lon="-5.621674982830882">
        <ele>884.10000000000002</ele>
        <time>2003-04-15T10:12:41Z</time>
      </trkpt>
      <trkpt lat="30.678682001307607" lon="-5.621752012521029">
        <ele>884.20000000000005</ele>
        <time>2003-04-15T10:12:44Z</time>
      </trkpt>
      <trkpt lat="30.678402967751026" lon="-5.621885033324361">
        <ele>884.60000000000002</ele>
        <time>2003-04-15T10:12:47Z</time>
      </trkpt>
      <trkpt lat="30.678007006645203" lon="-5.622028028592467">
        <ele>885.5</ele>
        <time>2003-04-15T10:12:52Z</time>
      </trkpt>
      <trkpt lat="30.677607022225857" lon="-5.622087959200144">
        <ele>886</ele>
        <time>2003-04-15T10:12:55Z</time>
      </trkpt>
      <trkpt lat="30.677390014752746" lon="-5.622083013877273">
        <ele>887.10000000000002</ele>
        <time>2003-04-15T10:12:56Z</time>
      </trkpt>
      <trkpt lat="30.67718499340117" lon="-5.62209801748395">
        <ele>887.60000000000002</ele>
        <time>2003-04-15T10:12:59Z</time>
      </trkpt>
      <trkpt lat="30.67707996815443" lon="-5.622140010818839">
        <ele>888.29999999999995</ele>
        <time>2003-04-15T10:12:59Z</time>
      </trkpt>
      <trkpt lat="30.676515027880669" lon="-5.622294992208481">
        <ele>887.70000000000005</ele>
        <time>2003-04-15T10:13:04Z</time>
      </trkpt>
      <trkpt lat="30.675997026264668" lon="-5.622461959719658">
        <ele>888.10000000000002</ele>
        <time>2003-04-15T10:13:10Z</time>
      </trkpt>
      <trkpt lat="30.675893006846309" lon="-5.622473023831844">
        <ele>887.20000000000005</ele>
        <time>2003-04-15T10:13:11Z</time>
      </trkpt>
      <trkpt lat="30.675797034054995" lon="-5.6224649772048">
        <ele>887.10000000000002</ele>
        <time>2003-04-15T10:13:11Z</time>
      </trkpt>
      <trkpt lat="30.674862032756209" lon="-5.622322987765074">
        <ele>887.89999999999998</ele>
        <time>2003-04-15T10:13:21Z</time>
      </trkpt>
      <trkpt lat="30.674667991697788" lon="-5.622330028563738">
        <ele>889.5</ele>
        <time>2003-04-15T10:13:22Z</time>
      </trkpt>
      <trkpt lat="30.674462970346212" lon="-5.622389959171414">
        <ele>890</ele>
        <time>2003-04-15T10:13:25Z</time>
      </trkpt>
      <trkpt lat="30.673571974039078" lon="-5.622666981071234">
        <ele>893.20000000000005</ele>
        <time>2003-04-15T10:13:34Z</time>
      </trkpt>
      <trkpt lat="30.672945007681847" lon="-5.622862027958036">
        <ele>894.5</ele>
        <time>2003-04-15T10:13:41Z</time>
      </trkpt>
      <trkpt lat="30.67275800742209" lon="-5.622917013242841">
        <ele>896.20000000000005</ele>
        <time>2003-04-15T10:13:42Z</time>
      </trkpt>
      <trkpt lat="30.672217039391398" lon="-5.623122034594417">
        <ele>899.29999999999995</ele>
        <time>2003-04-15T10:13:49Z</time>
      </trkpt>
      <trkpt lat="30.67209298722446" lon="-5.623163022100925">
        <ele>899.79999999999995</ele>
        <time>2003-04-15T10:13:50Z</time>
      </trkpt>
      <trkpt lat="30.671747988089919" lon="-5.623287996277213">
        <ele>900</ele>
        <time>2003-04-15T10:13:56Z</time>
      </trkpt>
      <trkpt lat="30.671502985060215" lon="-5.623338036239147">
        <ele>900.20000000000005</ele>
        <time>2003-04-15T10:13:58Z</time>
      </trkpt>
      <trkpt lat="30.671181958168745" lon="-5.623450018465519">
        <ele>902.79999999999995</ele>
        <time>2003-04-15T10:14:02Z</time>
      </trkpt>
      <trkpt lat="30.670920023694634" lon="-5.623556971549988">
        <ele>903.60000000000002</ele>
        <time>2003-04-15T10:14:05Z</time>
      </trkpt>
      <trkpt lat="30.670322980731726" lon="-5.623768027871847">
        <ele>908.10000000000002</ele>
        <time>2003-04-15T10:14:13Z</time>
      </trkpt>
      <trkpt lat="30.670162970200181" lon="-5.623804992064834">
        <ele>908.10000000000002</ele>
        <time>2003-04-15T10:14:15Z</time>
      </trkpt>
      <trkpt lat="30.670006982982159" lon="-5.623862994834781">
        <ele>907</ele>
        <time>2003-04-15T10:14:16Z</time>
      </trkpt>
      <trkpt lat="30.669552013278008" lon="-5.6240329798311">
        <ele>904.70000000000005</ele>
        <time>2003-04-15T10:14:21Z</time>
      </trkpt>
      <trkpt lat="30.668651964515448" lon="-5.624321987852454">
        <ele>907.60000000000002</ele>
        <time>2003-04-15T10:14:32Z</time>
      </trkpt>
      <trkpt lat="30.668127005919814" lon="-5.624345038086176">
        <ele>908.29999999999995</ele>
        <time>2003-04-15T10:14:38Z</time>
      </trkpt>
      <trkpt lat="30.667936988174915" lon="-5.624362975358963">
        <ele>908.39999999999998</ele>
        <time>2003-04-15T10:14:40Z</time>
      </trkpt>
      <trkpt lat="30.667402977123857" lon="-5.624432964250445">
        <ele>910.79999999999995</ele>
        <time>2003-04-15T10:14:46Z</time>
      </trkpt>
      <trkpt lat="30.667257970198989" lon="-5.624461965635419">
        <ele>910</ele>
        <time>2003-04-15T10:14:47Z</time>
      </trkpt>
      <trkpt lat="30.667097959667444" lon="-5.624464983120561">
        <ele>909.5</ele>
        <time>2003-04-15T10:14:50Z</time>
      </trkpt>
      <trkpt lat="30.667008021846414" lon="-5.624476969242096">
        <ele>909.20000000000005</ele>
        <time>2003-04-15T10:14:51Z</time>
      </trkpt>
      <trkpt lat="30.666426988318563" lon="-5.624537989497185">
        <ele>910.60000000000002</ele>
        <time>2003-04-15T10:14:56Z</time>
      </trkpt>
      <trkpt lat="30.665462985634804" lon="-5.624649971723557">
        <ele>913</ele>
        <time>2003-04-15T10:15:06Z</time>
      </trkpt>
      <trkpt lat="30.664526978507638" lon="-5.624728007242084">
        <ele>913</ele>
        <time>2003-04-15T10:15:14Z</time>
      </trkpt>
      <trkpt lat="30.664366967976093" lon="-5.624751979485154">
        <ele>913.29999999999995</ele>
        <time>2003-04-15T10:15:17Z</time>
      </trkpt>
      <trkpt lat="30.663836980238557" lon="-5.624820040538907">
        <ele>914.89999999999998</ele>
        <time>2003-04-15T10:15:22Z</time>
      </trkpt>
      <trkpt lat="30.663732038810849" lon="-5.624869996681809">
        <ele>915.39999999999998</ele>
        <time>2003-04-15T10:15:23Z</time>
      </trkpt>
      <trkpt lat="30.663379998877645" lon="-5.624997988343239">
        <ele>916.29999999999995</ele>
        <time>2003-04-15T10:15:26Z</time>
      </trkpt>
      <trkpt lat="30.662432005628943" lon="-5.625305017456412">
        <ele>918.20000000000005</ele>
        <time>2003-04-15T10:15:34Z</time>
      </trkpt>
      <trkpt lat="30.662130005657673" lon="-5.625463016331196">
        <ele>918.5</ele>
        <time>2003-04-15T10:15:37Z</time>
      </trkpt>
      <trkpt lat="30.661632036790252" lon="-5.625783037394285">
        <ele>918.70000000000005</ele>
        <time>2003-04-15T10:15:42Z</time>
      </trkpt>
      <trkpt lat="30.66147998906672" lon="-5.625898037105799">
        <ele>919.5</ele>
        <time>2003-04-15T10:15:45Z</time>
      </trkpt>
      <trkpt lat="30.66132802516222" lon="-5.625970037654042">
        <ele>920.29999999999995</ele>
        <time>2003-04-15T10:15:46Z</time>
      </trkpt>
      <trkpt lat="30.660997023805976" lon="-5.626137005165219">
        <ele>921.29999999999995</ele>
        <time>2003-04-15T10:15:50Z</time>
      </trkpt>
      <trkpt lat="30.660614976659417" lon="-5.626347977668047">
        <ele>923</ele>
        <time>2003-04-15T10:15:56Z</time>
      </trkpt>
      <trkpt lat="30.660244999453425" lon="-5.626512011513114">
        <ele>924</ele>
        <time>2003-04-15T10:16:00Z</time>
      </trkpt>
      <trkpt lat="30.659737978130579" lon="-5.62673999927938">
        <ele>925.10000000000002</ele>
        <time>2003-04-15T10:16:04Z</time>
      </trkpt>
      <trkpt lat="30.659317038953304" lon="-5.626809988170862">
        <ele>925.70000000000005</ele>
        <time>2003-04-15T10:16:08Z</time>
      </trkpt>
      <trkpt lat="30.658842958509922" lon="-5.6268270034343">
        <ele>927</ele>
        <time>2003-04-15T10:16:13Z</time>
      </trkpt>
      <trkpt lat="30.658667022362351" lon="-5.626851981505752">
        <ele>927.29999999999995</ele>
        <time>2003-04-15T10:16:16Z</time>
      </trkpt>
      <trkpt lat="30.658580018207431" lon="-5.626894980669022">
        <ele>927.29999999999995</ele>
        <time>2003-04-15T10:16:16Z</time>
      </trkpt>
      <trkpt lat="30.65842998214066" lon="-5.627015009522438">
        <ele>927.5</ele>
        <time>2003-04-15T10:16:19Z</time>
      </trkpt>
      <trkpt lat="30.658259997144341" lon="-5.627109976485372">
        <ele>927.79999999999995</ele>
        <time>2003-04-15T10:16:20Z</time>
      </trkpt>
      <trkpt lat="30.658077020198107" lon="-5.627160016447306">
        <ele>928.29999999999995</ele>
        <time>2003-04-15T10:16:23Z</time>
      </trkpt>
      <trkpt lat="30.657905023545027" lon="-5.62723696231842">
        <ele>928.60000000000002</ele>
        <time>2003-04-15T10:16:24Z</time>
      </trkpt>
      <trkpt lat="30.657681981101632" lon="-5.627381969243288">
        <ele>928.29999999999995</ele>
        <time>2003-04-15T10:16:28Z</time>
      </trkpt>
      <trkpt lat="30.657360032200813" lon="-5.627595037221909">
        <ele>927.89999999999998</ele>
        <time>2003-04-15T10:16:31Z</time>
      </trkpt>
      <trkpt lat="30.656887041404843" lon="-5.627846997231245">
        <ele>925.60000000000002</ele>
        <time>2003-04-15T10:16:36Z</time>
      </trkpt>
      <trkpt lat="30.656661987304688" lon="-5.627912962809205">
        <ele>925.20000000000005</ele>
        <time>2003-04-15T10:16:39Z</time>
      </trkpt>
      <trkpt lat="30.656148009002209" lon="-5.628035003319383">
        <ele>927.5</ele>
        <time>2003-04-15T10:16:43Z</time>
      </trkpt>
      <trkpt lat="30.656007025390863" lon="-5.628097029402852">
        <ele>926.70000000000005</ele>
        <time>2003-04-15T10:16:46Z</time>
      </trkpt>
      <trkpt lat="30.655856989324093" lon="-5.628104992210865">
        <ele>925.39999999999998</ele>
        <time>2003-04-15T10:16:47Z</time>
      </trkpt>
      <trkpt lat="30.655762022361159" lon="-5.628132987767458">
        <ele>924.79999999999995</ele>
        <time>2003-04-15T10:16:48Z</time>
      </trkpt>
      <trkpt lat="30.655566975474358" lon="-5.62822200357914">
        <ele>924</ele>
        <time>2003-04-15T10:16:51Z</time>
      </trkpt>
      <trkpt lat="30.655457004904747" lon="-5.628257039934397">
        <ele>924</ele>
        <time>2003-04-15T10:16:51Z</time>
      </trkpt>
      <trkpt lat="30.655076969414949" lon="-5.62837203964591">
        <ele>926.39999999999998</ele>
        <time>2003-04-15T10:16:55Z</time>
      </trkpt>
      <trkpt lat="30.654940009117126" lon="-5.628372961655259">
        <ele>926.60000000000002</ele>
        <time>2003-04-15T10:16:58Z</time>
      </trkpt>
      <trkpt lat="30.654807994142175" lon="-5.628383019939065">
        <ele>925.5</ele>
        <time>2003-04-15T10:16:59Z</time>
      </trkpt>
      <trkpt lat="30.654680002480745" lon="-5.628455020487309">
        <ele>925</ele>
        <time>2003-04-15T10:17:02Z</time>
      </trkpt>
      <trkpt lat="30.654549999162555" lon="-5.628530038520694">
        <ele>924.70000000000005</ele>
        <time>2003-04-15T10:17:03Z</time>
      </trkpt>
      <trkpt lat="30.654459977522492" lon="-5.628544958308339">
        <ele>924.39999999999998</ele>
        <time>2003-04-15T10:17:05Z</time>
      </trkpt>
      <trkpt lat="30.654365010559559" lon="-5.628542024642229">
        <ele>924.89999999999998</ele>
        <time>2003-04-15T10:17:06Z</time>
      </trkpt>
      <trkpt lat="30.654078014194965" lon="-5.628582006320357">
        <ele>926.39999999999998</ele>
        <time>2003-04-15T10:17:09Z</time>
      </trkpt>
      <trkpt lat="30.653933007270098" lon="-5.628621987998486">
        <ele>927.79999999999995</ele>
        <time>2003-04-15T10:17:10Z</time>
      </trkpt>
      <trkpt lat="30.653838040307164" lon="-5.628642020747066">
        <ele>928.10000000000002</ele>
        <time>2003-04-15T10:17:13Z</time>
      </trkpt>
      <trkpt lat="30.653666965663433" lon="-5.628728019073606">
        <ele>929.10000000000002</ele>
        <time>2003-04-15T10:17:40Z</time>
      </trkpt>
      <trkpt lat="30.653469990938902" lon="-5.628772024065256">
        <ele>928.5</ele>
        <time>2003-04-15T10:17:42Z</time>
      </trkpt>
      <trkpt lat="30.653234962373972" lon="-5.628815023228526">
        <ele>929.10000000000002</ele>
        <time>2003-04-15T10:17:45Z</time>
      </trkpt>
      <trkpt lat="30.652531972154975" lon="-5.628936979919672">
        <ele>929.79999999999995</ele>
        <time>2003-04-15T10:17:53Z</time>
      </trkpt>
      <trkpt lat="30.652170041576028" lon="-5.629033036530018">
        <ele>929</ele>
        <time>2003-04-15T10:17:57Z</time>
      </trkpt>
      <trkpt lat="30.651974994689226" lon="-5.629021972417831">
        <ele>929.10000000000002</ele>
        <time>2003-04-15T10:18:00Z</time>
      </trkpt>
      <trkpt lat="30.651612980291247" lon="-5.62901996076107">
        <ele>929.79999999999995</ele>
        <time>2003-04-15T10:18:04Z</time>
      </trkpt>
      <trkpt lat="30.650837989524007" lon="-5.629067989066243">
        <ele>929.5</ele>
        <time>2003-04-15T10:18:12Z</time>
      </trkpt>
      <trkpt lat="30.6506949942559" lon="-5.62901702709496">
        <ele>929.5</ele>
        <time>2003-04-15T10:18:14Z</time>
      </trkpt>
      <trkpt lat="30.650546969845891" lon="-5.629043010994792">
        <ele>929.20000000000005</ele>
        <time>2003-04-15T10:18:16Z</time>
      </trkpt>
      <trkpt lat="30.65037296153605" lon="-5.629118029028177">
        <ele>929.60000000000002</ele>
        <time>2003-04-15T10:18:18Z</time>
      </trkpt>
      <trkpt lat="30.650171963497996" lon="-5.629162034019828">
        <ele>929.20000000000005</ele>
        <time>2003-04-15T10:18:19Z</time>
      </trkpt>
      <trkpt lat="30.649926960468292" lon="-5.629239985719323">
        <ele>929</ele>
        <time>2003-04-15T10:18:23Z</time>
      </trkpt>
      <trkpt lat="30.649816989898682" lon="-5.629322966560721">
        <ele>928.29999999999995</ele>
        <time>2003-04-15T10:18:24Z</time>
      </trkpt>
      <trkpt lat="30.649697966873646" lon="-5.629367977380753">
        <ele>927.5</ele>
        <time>2003-04-15T10:18:27Z</time>
      </trkpt>
      <trkpt lat="30.649418011307716" lon="-5.629493035376072">
        <ele>926.20000000000005</ele>
        <time>2003-04-15T10:18:31Z</time>
      </trkpt>
      <trkpt lat="30.649007968604565" lon="-5.629699984565377">
        <ele>925.5</ele>
        <time>2003-04-15T10:18:35Z</time>
      </trkpt>
      <trkpt lat="30.648607984185219" lon="-5.629895031452179">
        <ele>924.89999999999998</ele>
        <time>2003-04-15T10:18:41Z</time>
      </trkpt>
      <trkpt lat="30.648338003084064" lon="-5.630001984536648">
        <ele>924.29999999999995</ele>
        <time>2003-04-15T10:18:43Z</time>
      </trkpt>
      <trkpt lat="30.648019993677735" lon="-5.630159983411431">
        <ele>925.10000000000002</ele>
        <time>2003-04-15T10:18:46Z</time>
      </trkpt>
      <trkpt lat="30.647171996533871" lon="-5.630552005022764">
        <ele>925.10000000000002</ele>
        <time>2003-04-15T10:18:54Z</time>
      </trkpt>
      <trkpt lat="30.647045010700822" lon="-5.630619982257485">
        <ele>925.29999999999995</ele>
        <time>2003-04-15T10:18:57Z</time>
      </trkpt>
      <trkpt lat="30.646645026281476" lon="-5.63082198612392">
        <ele>925.29999999999995</ele>
        <time>2003-04-15T10:19:02Z</time>
      </trkpt>
      <trkpt lat="30.646346965804696" lon="-5.630966993048787">
        <ele>924.29999999999995</ele>
        <time>2003-04-15T10:19:05Z</time>
      </trkpt>
      <trkpt lat="30.645416993647814" lon="-5.631415005773306">
        <ele>921.70000000000005</ele>
        <time>2003-04-15T10:19:13Z</time>
      </trkpt>
      <trkpt lat="30.644933022558689" lon="-5.631650034338236">
        <ele>922.29999999999995</ele>
        <time>2003-04-15T10:19:17Z</time>
      </trkpt>
      <trkpt lat="30.644031967967749" lon="-5.632086982950568">
        <ele>923.60000000000002</ele>
        <time>2003-04-15T10:19:25Z</time>
      </trkpt>
      <trkpt lat="30.643272986635566" lon="-5.632414966821671">
        <ele>924.70000000000005</ele>
        <time>2003-04-15T10:19:30Z</time>
      </trkpt>
      <trkpt lat="30.642988001927733" lon="-5.632440028712153">
        <ele>925.20000000000005</ele>
        <time>2003-04-15T10:19:33Z</time>
      </trkpt>
      <trkpt lat="30.641973037272692" lon="-5.632523009553552">
        <ele>927.10000000000002</ele>
        <time>2003-04-15T10:19:40Z</time>
      </trkpt>
      <trkpt lat="30.641018003225327" lon="-5.632600039243698">
        <ele>927.39999999999998</ele>
        <time>2003-04-15T10:19:47Z</time>
      </trkpt>
      <trkpt lat="30.640022987499833" lon="-5.632683020085096">
        <ele>929.29999999999995</ele>
        <time>2003-04-15T10:19:53Z</time>
      </trkpt>
      <trkpt lat="30.638996958732605" lon="-5.632746974006295">
        <ele>933.20000000000005</ele>
        <time>2003-04-15T10:20:00Z</time>
      </trkpt>
      <trkpt lat="30.638121971860528" lon="-5.632729958742857">
        <ele>934.20000000000005</ele>
        <time>2003-04-15T10:20:07Z</time>
      </trkpt>
      <trkpt lat="30.637949975207448" lon="-5.632697017863393">
        <ele>934.20000000000005</ele>
        <time>2003-04-15T10:20:10Z</time>
      </trkpt>
      <trkpt lat="30.637817960232496" lon="-5.632661981508136">
        <ele>933.89999999999998</ele>
        <time>2003-04-15T10:20:11Z</time>
      </trkpt>
      <trkpt lat="30.637582009658217" lon="-5.632616970688105">
        <ele>934.20000000000005</ele>
        <time>2003-04-15T10:20:15Z</time>
      </trkpt>
      <trkpt lat="30.637431973591447" lon="-5.632586963474751">
        <ele>933.39999999999998</ele>
        <time>2003-04-15T10:21:05Z</time>
      </trkpt>
      <trkpt lat="30.637310016900301" lon="-5.632568020373583">
        <ele>933.29999999999995</ele>
        <time>2003-04-15T10:21:08Z</time>
      </trkpt>
      <trkpt lat="30.63709300942719" lon="-5.632502976804972">
        <ele>933.10000000000002</ele>
        <time>2003-04-15T10:21:10Z</time>
      </trkpt>
      <trkpt lat="30.636820010840893" lon="-5.632397029548883">
        <ele>932.20000000000005</ele>
        <time>2003-04-15T10:21:13Z</time>
      </trkpt>
      <trkpt lat="30.636669974774122" lon="-5.632355036213994">
        <ele>931.60000000000002</ele>
        <time>2003-04-15T10:21:16Z</time>
      </trkpt>
      <trkpt lat="30.636417008936405" lon="-5.632341960445046">
        <ele>931.60000000000002</ele>
        <time>2003-04-15T10:21:18Z</time>
      </trkpt>
      <trkpt lat="30.636082990095019" lon="-5.632357969880104">
        <ele>931.79999999999995</ele>
        <time>2003-04-15T10:21:21Z</time>
      </trkpt>
      <trkpt lat="30.635165004059672" lon="-5.632432987913489">
        <ele>933.10000000000002</ele>
        <time>2003-04-15T10:21:29Z</time>
      </trkpt>
      <trkpt lat="30.634252969175577" lon="-5.632442962378264">
        <ele>935</ele>
        <time>2003-04-15T10:21:39Z</time>
      </trkpt>
      <trkpt lat="30.633824989199638" lon="-5.632407004013658">
        <ele>936.10000000000002</ele>
        <time>2003-04-15T10:21:43Z</time>
      </trkpt>
      <trkpt lat="30.633688028901815" lon="-5.632359981536865">
        <ele>936</ele>
        <time>2003-04-15T10:21:44Z</time>
      </trkpt>
      <trkpt lat="30.633568000048399" lon="-5.632308013737202">
        <ele>935.20000000000005</ele>
        <time>2003-04-15T10:21:48Z</time>
      </trkpt>
      <trkpt lat="30.633437996730208" lon="-5.632277000695467">
        <ele>936.20000000000005</ele>
        <time>2003-04-15T10:21:50Z</time>
      </trkpt>
      <trkpt lat="30.63326801173389" lon="-5.632238024845719">
        <ele>935.39999999999998</ele>
        <time>2003-04-15T10:21:52Z</time>
      </trkpt>
      <trkpt lat="30.633147982880473" lon="-5.632202988490462">
        <ele>935.10000000000002</ele>
        <time>2003-04-15T10:21:54Z</time>
      </trkpt>
      <trkpt lat="30.633008005097508" lon="-5.632180022075772">
        <ele>935.5</ele>
        <time>2003-04-15T10:21:56Z</time>
      </trkpt>
      <trkpt lat="30.632632998749614" lon="-5.632167030125856">
        <ele>935.60000000000002</ele>
        <time>2003-04-15T10:22:03Z</time>
      </trkpt>
      <trkpt lat="30.632459996268153" lon="-5.63215303234756">
        <ele>935.89999999999998</ele>
        <time>2003-04-15T10:22:06Z</time>
      </trkpt>
      <trkpt lat="30.63215003348887" lon="-5.6321129668504">
        <ele>935.60000000000002</ele>
        <time>2003-04-15T10:22:11Z</time>
      </trkpt>
      <trkpt lat="30.631733033806086" lon="-5.632077008485794">
        <ele>936</ele>
        <time>2003-04-15T10:22:15Z</time>
      </trkpt>
      <trkpt lat="30.63124998472631" lon="-5.632014982402325">
        <ele>937.10000000000002</ele>
        <time>2003-04-15T10:22:22Z</time>
      </trkpt>
      <trkpt lat="30.630640033632517" lon="-5.631908029317856">
        <ele>939.39999999999998</ele>
        <time>2003-04-15T10:22:29Z</time>
      </trkpt>
      <trkpt lat="30.630462002009153" lon="-5.631878022104502">
        <ele>939.89999999999998</ele>
        <time>2003-04-15T10:22:30Z</time>
      </trkpt>
      <trkpt lat="30.62987501733005" lon="-5.631865030154586">
        <ele>939.60000000000002</ele>
        <time>2003-04-15T10:22:38Z</time>
      </trkpt>
      <trkpt lat="30.629754988476634" lon="-5.631878022104502">
        <ele>939.20000000000005</ele>
        <time>2003-04-15T10:22:42Z</time>
      </trkpt>
      <trkpt lat="30.629642000421882" lon="-5.631899982690811">
        <ele>939.70000000000005</ele>
        <time>2003-04-15T10:22:44Z</time>
      </trkpt>
      <trkpt lat="30.629503028467298" lon="-5.631920015439391">
        <ele>939.60000000000002</ele>
        <time>2003-04-15T10:22:46Z</time>
      </trkpt>
      <trkpt lat="30.629151994362473" lon="-5.631911968812347">
        <ele>939.20000000000005</ele>
        <time>2003-04-15T10:22:50Z</time>
      </trkpt>
      <trkpt lat="30.629001958295703" lon="-5.631835022941232">
        <ele>940.39999999999998</ele>
        <time>2003-04-15T10:22:53Z</time>
      </trkpt>
      <trkpt lat="30.628825016319752" lon="-5.631732009351254">
        <ele>940.79999999999995</ele>
        <time>2003-04-15T10:22:54Z</time>
      </trkpt>
      <trkpt lat="30.628513041883707" lon="-5.631584990769625">
        <ele>941.89999999999998</ele>
        <time>2003-04-15T10:22:57Z</time>
      </trkpt>
      <trkpt lat="30.627760011702776" lon="-5.631242003291845">
        <ele>942.20000000000005</ele>
        <time>2003-04-15T10:23:05Z</time>
      </trkpt>
      <trkpt lat="30.627651968970895" lon="-5.631237979978323">
        <ele>942.29999999999995</ele>
        <time>2003-04-15T10:23:09Z</time>
      </trkpt>
      <trkpt lat="30.627490030601621" lon="-5.631211996078491">
        <ele>942.29999999999995</ele>
        <time>2003-04-15T10:23:12Z</time>
      </trkpt>
      <trkpt lat="30.627352986484766" lon="-5.631157010793686">
        <ele>942.60000000000002</ele>
        <time>2003-04-15T10:23:13Z</time>
      </trkpt>
      <trkpt lat="30.627177972346544" lon="-5.631090039387345">
        <ele>942.70000000000005</ele>
        <time>2003-04-15T10:23:16Z</time>
      </trkpt>
      <trkpt lat="30.626928023993969" lon="-5.630988031625748">
        <ele>943.20000000000005</ele>
        <time>2003-04-15T10:23:19Z</time>
      </trkpt>
      <trkpt lat="30.626791985705495" lon="-5.630857022479177">
        <ele>943.10000000000002</ele>
        <time>2003-04-15T10:23:20Z</time>
      </trkpt>
      <trkpt lat="30.62663197517395" lon="-5.630761971697211">
        <ele>944</ele>
        <time>2003-04-15T10:23:23Z</time>
      </trkpt>
      <trkpt lat="30.626272978261113" lon="-5.63056499697268">
        <ele>943.70000000000005</ele>
        <time>2003-04-15T10:23:28Z</time>
      </trkpt>
      <trkpt lat="30.626144986599684" lon="-5.630472041666508">
        <ele>944</ele>
        <time>2003-04-15T10:23:29Z</time>
      </trkpt>
      <trkpt lat="30.625924961641431" lon="-5.630293004214764">
        <ele>943.39999999999998</ele>
        <time>2003-04-15T10:23:32Z</time>
      </trkpt>
      <trkpt lat="30.625750031322241" lon="-5.630216980352998">
        <ele>943</ele>
        <time>2003-04-15T10:23:35Z</time>
      </trkpt>
      <trkpt lat="30.625590020790696" lon="-5.630180016160011">
        <ele>943.29999999999995</ele>
        <time>2003-04-15T10:23:36Z</time>
      </trkpt>
      <trkpt lat="30.625390028581023" lon="-5.630153026431799">
        <ele>942.29999999999995</ele>
        <time>2003-04-15T10:23:40Z</time>
      </trkpt>
      <trkpt lat="30.625262036919594" lon="-5.63013500533998">
        <ele>942.10000000000002</ele>
        <time>2003-04-15T10:23:42Z</time>
      </trkpt>
      <trkpt lat="30.625139996409416" lon="-5.630107009783387">
        <ele>942.10000000000002</ele>
        <time>2003-04-15T10:23:43Z</time>
      </trkpt>
      <trkpt lat="30.624949978664517" lon="-5.630098041146994">
        <ele>942.5</ele>
        <time>2003-04-15T10:23:47Z</time>
      </trkpt>
      <trkpt lat="30.624683015048504" lon="-5.630035009235144">
        <ele>943.60000000000002</ele>
        <time>2003-04-15T10:23:51Z</time>
      </trkpt>
      <trkpt lat="30.624580001458526" lon="-5.629999972879887">
        <ele>943.89999999999998</ele>
        <time>2003-04-15T10:23:52Z</time>
      </trkpt>
      <trkpt lat="30.624444968998432" lon="-5.62996200285852">
        <ele>943.29999999999995</ele>
        <time>2003-04-15T10:23:55Z</time>
      </trkpt>
      <trkpt lat="30.624259980395436" lon="-5.629910035058856">
        <ele>943.70000000000005</ele>
        <time>2003-04-15T10:23:58Z</time>
      </trkpt>
      <trkpt lat="30.624156966805458" lon="-5.629820013418794">
        <ele>943.70000000000005</ele>
        <time>2003-04-15T10:23:59Z</time>
      </trkpt>
      <trkpt lat="30.624026963487267" lon="-5.629775002598763">
        <ele>943.60000000000002</ele>
        <time>2003-04-15T10:24:02Z</time>
      </trkpt>
      <trkpt lat="30.623739967122674" lon="-5.629756981506944">
        <ele>945</ele>
        <time>2003-04-15T10:24:06Z</time>
      </trkpt>
      <trkpt lat="30.623541986569762" lon="-5.629771985113621">
        <ele>945.10000000000002</ele>
        <time>2003-04-15T10:24:09Z</time>
      </trkpt>
      <trkpt lat="30.623241998255253" lon="-5.629722028970718">
        <ele>946.29999999999995</ele>
        <time>2003-04-15T10:24:13Z</time>
      </trkpt>
      <trkpt lat="30.623094979673624" lon="-5.629724962636828">
        <ele>946.10000000000002</ele>
        <time>2003-04-15T10:24:14Z</time>
      </trkpt>
      <trkpt lat="30.622990038245916" lon="-5.629750024527311">
        <ele>946.39999999999998</ele>
        <time>2003-04-15T10:24:17Z</time>
      </trkpt>
      <trkpt lat="30.622860034927726" lon="-5.629763016477227">
        <ele>946.29999999999995</ele>
        <time>2003-04-15T10:24:21Z</time>
      </trkpt>
      <trkpt lat="30.622747968882322" lon="-5.629735020920634">
        <ele>946.60000000000002</ele>
        <time>2003-04-15T10:24:22Z</time>
      </trkpt>
      <trkpt lat="30.622613020241261" lon="-5.629678023979068">
        <ele>947</ele>
        <time>2003-04-15T10:24:25Z</time>
      </trkpt>
      <trkpt lat="30.622457033023238" lon="-5.629614992067218">
        <ele>947.39999999999998</ele>
        <time>2003-04-15T10:24:26Z</time>
      </trkpt>
      <trkpt lat="30.622277995571494" lon="-5.629582973197103">
        <ele>946.89999999999998</ele>
        <time>2003-04-15T10:24:29Z</time>
      </trkpt>
      <trkpt lat="30.621961997821927" lon="-5.629524970427156">
        <ele>947.60000000000002</ele>
        <time>2003-04-15T10:24:33Z</time>
      </trkpt>
      <trkpt lat="30.621723029762506" lon="-5.629414999857545">
        <ele>947.5</ele>
        <time>2003-04-15T10:24:36Z</time>
      </trkpt>
      <trkpt lat="30.621565030887723" lon="-5.629373006522656">
        <ele>946.79999999999995</ele>
        <time>2003-04-15T10:24:37Z</time>
      </trkpt>
      <trkpt lat="30.621435027569532" lon="-5.629300000146031">
        <ele>946.89999999999998</ele>
        <time>2003-04-15T10:24:40Z</time>
      </trkpt>
      <trkpt lat="30.621357997879386" lon="-5.629166979342699">
        <ele>947.20000000000005</ele>
        <time>2003-04-15T10:24:41Z</time>
      </trkpt>
      <trkpt lat="30.621341988444328" lon="-5.629018032923341">
        <ele>947.60000000000002</ele>
        <time>2003-04-15T10:24:44Z</time>
      </trkpt>
      <trkpt lat="30.621251966804266" lon="-5.628883000463247">
        <ele>947.79999999999995</ele>
        <time>2003-04-15T10:24:45Z</time>
      </trkpt>
      <trkpt lat="30.621077036485076" lon="-5.628640009090304">
        <ele>948.39999999999998</ele>
        <time>2003-04-15T10:24:49Z</time>
      </trkpt>
      <trkpt lat="30.620932029560208" lon="-5.628536995500326">
        <ele>948.70000000000005</ele>
        <time>2003-04-15T10:24:52Z</time>
      </trkpt>
      <trkpt lat="30.620607985183597" lon="-5.628292998299003">
        <ele>949</ele>
        <time>2003-04-15T10:24:56Z</time>
      </trkpt>
      <trkpt lat="30.620316965505481" lon="-5.628017988055944">
        <ele>949.60000000000002</ele>
        <time>2003-04-15T10:25:00Z</time>
      </trkpt>
      <trkpt lat="30.620153015479445" lon="-5.627871975302696">
        <ele>950.39999999999998</ele>
        <time>2003-04-15T10:25:01Z</time>
      </trkpt>
      <trkpt lat="30.619808016344905" lon="-5.627607023343444">
        <ele>951.39999999999998</ele>
        <time>2003-04-15T10:25:05Z</time>
      </trkpt>
      <trkpt lat="30.619680024683475" lon="-5.62757802195847">
        <ele>952.20000000000005</ele>
        <time>2003-04-15T10:25:08Z</time>
      </trkpt>
      <trkpt lat="30.619590003043413" lon="-5.627569975331426">
        <ele>952.10000000000002</ele>
        <time>2003-04-15T10:25:12Z</time>
      </trkpt>
      <trkpt lat="30.619395039975643" lon="-5.627582967281342">
        <ele>952.20000000000005</ele>
        <time>2003-04-15T10:25:15Z</time>
      </trkpt>
      <trkpt lat="30.619251960888505" lon="-5.627563018351793">
        <ele>952.29999999999995</ele>
        <time>2003-04-15T10:25:16Z</time>
      </trkpt>
      <trkpt lat="30.619017016142607" lon="-5.62755698338151">
        <ele>951.39999999999998</ele>
        <time>2003-04-15T10:25:20Z</time>
      </trkpt>
      <trkpt lat="30.618854993954301" lon="-5.627612974494696">
        <ele>952</ele>
        <time>2003-04-15T10:25:21Z</time>
      </trkpt>
      <trkpt lat="30.618730019778013" lon="-5.627671983093023">
        <ele>951.89999999999998</ele>
        <time>2003-04-15T10:25:24Z</time>
      </trkpt>
      <trkpt lat="30.618647960945964" lon="-5.62779201194644">
        <ele>952</ele>
        <time>2003-04-15T10:25:27Z</time>
      </trkpt>
      <trkpt lat="30.618628012016416" lon="-5.62792201526463">
        <ele>951.89999999999998</ele>
        <time>2003-04-15T10:25:28Z</time>
      </trkpt>
      <trkpt lat="30.618607979267836" lon="-5.628074984997511">
        <ele>951.60000000000002</ele>
        <time>2003-04-15T10:25:31Z</time>
      </trkpt>
      <trkpt lat="30.618589958176017" lon="-5.628206999972463">
        <ele>950.60000000000002</ele>
        <time>2003-04-15T10:25:38Z</time>
      </trkpt>
      <trkpt lat="30.618515023961663" lon="-5.628431970253587">
        <ele>949.60000000000002</ele>
        <time>2003-04-15T10:25:47Z</time>
      </trkpt>
      <trkpt lat="30.618383008986712" lon="-5.628942009061575">
        <ele>950.39999999999998</ele>
        <time>2003-04-15T10:25:58Z</time>
      </trkpt>
      <trkpt lat="30.618289969861507" lon="-5.628981990739703">
        <ele>951.5</ele>
        <time>2003-04-15T10:25:59Z</time>
      </trkpt>
      <trkpt lat="30.618172958493233" lon="-5.628982996568084">
        <ele>951.60000000000002</ele>
        <time>2003-04-15T10:26:02Z</time>
      </trkpt>
      <trkpt lat="30.618044966831803" lon="-5.628951983526349">
        <ele>951.5</ele>
        <time>2003-04-15T10:26:03Z</time>
      </trkpt>
      <trkpt lat="30.617482960224152" lon="-5.628768000751734">
        <ele>952.29999999999995</ele>
        <time>2003-04-15T10:26:14Z</time>
      </trkpt>
      <trkpt lat="30.61694199219346" lon="-5.62852299772203">
        <ele>952.79999999999995</ele>
        <time>2003-04-15T10:26:24Z</time>
      </trkpt>
      <trkpt lat="30.61644796282053" lon="-5.628312025219202">
        <ele>953</ele>
        <time>2003-04-15T10:26:34Z</time>
      </trkpt>
      <trkpt lat="30.616234978660941" lon="-5.628206999972463">
        <ele>953.39999999999998</ele>
        <time>2003-04-15T10:26:45Z</time>
      </trkpt>
      <trkpt lat="30.616068011149764" lon="-5.628119995817542">
        <ele>953.70000000000005</ele>
        <time>2003-04-15T10:26:49Z</time>
      </trkpt>
      <trkpt lat="30.615623015910387" lon="-5.62792201526463">
        <ele>954.79999999999995</ele>
        <time>2003-04-15T10:26:56Z</time>
      </trkpt>
      <trkpt lat="30.615437021479011" lon="-5.627868035808206">
        <ele>955.5</ele>
        <time>2003-04-15T10:27:01Z</time>
      </trkpt>
      <trkpt lat="30.615254966542125" lon="-5.627827970311046">
        <ele>956.39999999999998</ele>
        <time>2003-04-15T10:27:05Z</time>
      </trkpt>
      <trkpt lat="30.615199981257319" lon="-5.627733003348112">
        <ele>956.39999999999998</ele>
        <time>2003-04-15T10:27:08Z</time>
      </trkpt>
      <trkpt lat="30.615133009850979" lon="-5.627659996971488">
        <ele>955.79999999999995</ele>
        <time>2003-04-15T10:27:09Z</time>
      </trkpt>
      <trkpt lat="30.614948021247983" lon="-5.627450030297041">
        <ele>955.29999999999995</ele>
        <time>2003-04-15T10:27:15Z</time>
      </trkpt>
      <trkpt lat="30.614932011812925" lon="-5.627322038635612">
        <ele>955.29999999999995</ele>
        <time>2003-04-15T10:27:16Z</time>
      </trkpt>
      <trkpt lat="30.61487996019423" lon="-5.627211984246969">
        <ele>954.79999999999995</ele>
        <time>2003-04-15T10:27:19Z</time>
      </trkpt>
      <trkpt lat="30.614764960482717" lon="-5.627164961770177">
        <ele>955.10000000000002</ele>
        <time>2003-04-15T10:27:20Z</time>
      </trkpt>
      <trkpt lat="30.614294987171888" lon="-5.627103019505739">
        <ele>955.60000000000002</ele>
        <time>2003-04-15T10:27:28Z</time>
      </trkpt>
      <trkpt lat="30.614170012995601" lon="-5.627154987305403">
        <ele>956</ele>
        <time>2003-04-15T10:27:31Z</time>
      </trkpt>
      <trkpt lat="30.614045038819313" lon="-5.62714803032577">
        <ele>956.60000000000002</ele>
        <time>2003-04-15T10:27:32Z</time>
      </trkpt>
      <trkpt lat="30.613919980823994" lon="-5.627167979255319">
        <ele>957.10000000000002</ele>
        <time>2003-04-15T10:27:35Z</time>
      </trkpt>
      <trkpt lat="30.613731974735856" lon="-5.62721299007535">
        <ele>957.20000000000005</ele>
        <time>2003-04-15T10:27:38Z</time>
      </trkpt>
      <trkpt lat="30.613604988902807" lon="-5.627193041145802">
        <ele>957.5</ele>
        <time>2003-04-15T10:27:39Z</time>
      </trkpt>
      <trkpt lat="30.613422011956573" lon="-5.627115005627275">
        <ele>957.39999999999998</ele>
        <time>2003-04-15T10:27:43Z</time>
      </trkpt>
      <trkpt lat="30.613310029730201" lon="-5.627030013129115">
        <ele>957.60000000000002</ele>
        <time>2003-04-15T10:27:45Z</time>
      </trkpt>
      <trkpt lat="30.613229982554913" lon="-5.626902021467686">
        <ele>957.89999999999998</ele>
        <time>2003-04-15T10:27:46Z</time>
      </trkpt>
      <trkpt lat="30.613114982843399" lon="-5.626694988459349">
        <ele>957.29999999999995</ele>
        <time>2003-04-15T10:27:50Z</time>
      </trkpt>
      <trkpt lat="30.612982967868447" lon="-5.626622987911105">
        <ele>958.10000000000002</ele>
        <time>2003-04-15T10:27:51Z</time>
      </trkpt>
      <trkpt lat="30.612732013687491" lon="-5.626485021784902">
        <ele>958.70000000000005</ele>
        <time>2003-04-15T10:27:55Z</time>
      </trkpt>
      <trkpt lat="30.61253797262907" lon="-5.62637303955853">
        <ele>958.70000000000005</ele>
        <time>2003-04-15T10:27:58Z</time>
      </trkpt>
      <trkpt lat="30.612007984891534" lon="-5.626170029863715">
        <ele>959.79999999999995</ele>
        <time>2003-04-15T10:28:06Z</time>
      </trkpt>
      <trkpt lat="30.611101984977722" lon="-5.625823019072413">
        <ele>961.29999999999995</ele>
        <time>2003-04-15T10:28:16Z</time>
      </trkpt>
      <trkpt lat="30.610899981111288" lon="-5.625780019909143">
        <ele>961.89999999999998</ele>
        <time>2003-04-15T10:28:18Z</time>
      </trkpt>
      <trkpt lat="30.610727984458208" lon="-5.625729979947209">
        <ele>962.29999999999995</ele>
        <time>2003-04-15T10:28:21Z</time>
      </trkpt>
      <trkpt lat="30.610554981976748" lon="-5.625659991055727">
        <ele>962.20000000000005</ele>
        <time>2003-04-15T10:28:51Z</time>
      </trkpt>
      <trkpt lat="30.610326994210482" lon="-5.625578016042709">
        <ele>962.79999999999995</ele>
        <time>2003-04-15T10:28:56Z</time>
      </trkpt>
      <trkpt lat="30.609906977042556" lon="-5.625448012724519">
        <ele>961.39999999999998</ele>
        <time>2003-04-15T10:29:04Z</time>
      </trkpt>
      <trkpt lat="30.609782002866268" lon="-5.62540995888412">
        <ele>962.20000000000005</ele>
        <time>2003-04-15T10:29:06Z</time>
      </trkpt>
      <trkpt lat="30.609304988756776" lon="-5.625341981649399">
        <ele>962</ele>
        <time>2003-04-15T10:29:12Z</time>
      </trkpt>
      <trkpt lat="30.609057974070311" lon="-5.625352961942554">
        <ele>962</ele>
        <time>2003-04-15T10:29:16Z</time>
      </trkpt>
      <trkpt lat="30.608868040144444" lon="-5.625384980812669">
        <ele>962.39999999999998</ele>
        <time>2003-04-15T10:29:19Z</time>
      </trkpt>
      <trkpt lat="30.608735019341111" lon="-5.625354973599315">
        <ele>962.39999999999998</ele>
        <time>2003-04-15T10:29:22Z</time>
      </trkpt>
      <trkpt lat="30.608609961345792" lon="-5.625242991372943">
        <ele>962.5</ele>
        <time>2003-04-15T10:29:23Z</time>
      </trkpt>
      <trkpt lat="30.608492027968168" lon="-5.625079963356257">
        <ele>962.70000000000005</ele>
        <time>2003-04-15T10:29:26Z</time>
      </trkpt>
      <trkpt lat="30.608358001336455" lon="-5.624964963644743">
        <ele>962.70000000000005</ele>
        <time>2003-04-15T10:29:27Z</time>
      </trkpt>
      <trkpt lat="30.608209976926446" lon="-5.624915007501841">
        <ele>963.20000000000005</ele>
        <time>2003-04-15T10:29:30Z</time>
      </trkpt>
      <trkpt lat="30.608051978051662" lon="-5.624872008338571">
        <ele>963.29999999999995</ele>
        <time>2003-04-15T10:29:31Z</time>
      </trkpt>
      <trkpt lat="30.607617041096091" lon="-5.624843006953597">
        <ele>963.89999999999998</ele>
        <time>2003-04-15T10:29:37Z</time>
      </trkpt>
      <trkpt lat="30.607387963682413" lon="-5.624877959489822">
        <ele>964.79999999999995</ele>
        <time>2003-04-15T10:29:39Z</time>
      </trkpt>
      <trkpt lat="30.607257038354874" lon="-5.624958006665111">
        <ele>964.60000000000002</ele>
        <time>2003-04-15T10:29:42Z</time>
      </trkpt>
      <trkpt lat="30.607108008116484" lon="-5.624933028593659">
        <ele>964.89999999999998</ele>
        <time>2003-04-15T10:29:43Z</time>
      </trkpt>
      <trkpt lat="30.606848001480103" lon="-5.62482800334692">
        <ele>965.39999999999998</ele>
        <time>2003-04-15T10:29:46Z</time>
      </trkpt>
      <trkpt lat="30.60658497735858" lon="-5.624777963384986">
        <ele>966</ele>
        <time>2003-04-15T10:29:50Z</time>
      </trkpt>
      <trkpt lat="30.606441982090473" lon="-5.62474200502038">
        <ele>966.20000000000005</ele>
        <time>2003-04-15T10:29:51Z</time>
      </trkpt>
      <trkpt lat="30.606309967115521" lon="-5.624645026400685">
        <ele>966.39999999999998</ele>
        <time>2003-04-15T10:29:54Z</time>
      </trkpt>
      <trkpt lat="30.606005033478141" lon="-5.624449979513884">
        <ele>966.20000000000005</ele>
        <time>2003-04-15T10:29:58Z</time>
      </trkpt>
      <trkpt lat="30.60591802932322" lon="-5.624413015320897">
        <ele>966</ele>
        <time>2003-04-15T10:30:01Z</time>
      </trkpt>
      <trkpt lat="30.605815015733242" lon="-5.624322993680835">
        <ele>966.5</ele>
        <time>2003-04-15T10:30:02Z</time>
      </trkpt>
      <trkpt lat="30.605721976608038" lon="-5.624200031161308">
        <ele>966.79999999999995</ele>
        <time>2003-04-15T10:30:05Z</time>
      </trkpt>
      <trkpt lat="30.60557696968317" lon="-5.624029962345958">
        <ele>967</ele>
        <time>2003-04-15T10:30:08Z</time>
      </trkpt>
      <trkpt lat="30.605432968586683" lon="-5.624019987881184">
        <ele>967.20000000000005</ele>
        <time>2003-04-15T10:30:09Z</time>
      </trkpt>
      <trkpt lat="30.60518997721374" lon="-5.624029962345958">
        <ele>967.10000000000002</ele>
        <time>2003-04-15T10:30:13Z</time>
      </trkpt>
      <trkpt lat="30.605022003874183" lon="-5.623974977061153">
        <ele>967.29999999999995</ele>
        <time>2003-04-15T10:30:14Z</time>
      </trkpt>
      <trkpt lat="30.60486501082778" lon="-5.623893002048135">
        <ele>967.70000000000005</ele>
        <time>2003-04-15T10:30:17Z</time>
      </trkpt>
      <trkpt lat="30.604710029438138" lon="-5.623832987621427">
        <ele>968.10000000000002</ele>
        <time>2003-04-15T10:30:18Z</time>
      </trkpt>
      <trkpt lat="30.604553036391735" lon="-5.62381798401475">
        <ele>968.5</ele>
        <time>2003-04-15T10:30:21Z</time>
      </trkpt>
      <trkpt lat="30.604218011721969" lon="-5.623759981244803">
        <ele>968.79999999999995</ele>
        <time>2003-04-15T10:30:25Z</time>
      </trkpt>
      <trkpt lat="30.604039980098605" lon="-5.623742965981364">
        <ele>969</ele>
        <time>2003-04-15T10:30:27Z</time>
      </trkpt>
      <trkpt lat="30.603875024244189" lon="-5.623770039528608">
        <ele>969.29999999999995</ele>
        <time>2003-04-15T10:30:28Z</time>
      </trkpt>
      <trkpt lat="30.603639995679259" lon="-5.623827958479524">
        <ele>969.5</ele>
        <time>2003-04-15T10:30:32Z</time>
      </trkpt>
      <trkpt lat="30.603483002632856" lon="-5.623797029256821">
        <ele>969.79999999999995</ele>
        <time>2003-04-15T10:30:33Z</time>
      </trkpt>
      <trkpt lat="30.602671969681978" lon="-5.623584967106581">
        <ele>970.5</ele>
        <time>2003-04-15T10:30:44Z</time>
      </trkpt>
      <trkpt lat="30.602532997727394" lon="-5.623529981821775">
        <ele>970.79999999999995</ele>
        <time>2003-04-15T10:30:45Z</time>
      </trkpt>
      <trkpt lat="30.602386984974146" lon="-5.623526964336634">
        <ele>970.29999999999995</ele>
        <time>2003-04-15T10:30:48Z</time>
      </trkpt>
      <trkpt lat="30.602081967517734" lon="-5.623511960729957">
        <ele>970.70000000000005</ele>
        <time>2003-04-15T10:30:52Z</time>
      </trkpt>
      <trkpt lat="30.601967973634601" lon="-5.62341196462512">
        <ele>971.10000000000002</ele>
        <time>2003-04-15T10:30:54Z</time>
      </trkpt>
      <trkpt lat="30.60179497115314" lon="-5.62319696880877">
        <ele>973.10000000000002</ele>
        <time>2003-04-15T10:30:56Z</time>
      </trkpt>
      <trkpt lat="30.601439997553825" lon="-5.622856998816133">
        <ele>973.29999999999995</ele>
        <time>2003-04-15T10:31:02Z</time>
      </trkpt>
      <trkpt lat="30.601132968440652" lon="-5.62254804186523">
        <ele>973.60000000000002</ele>
        <time>2003-04-15T10:31:07Z</time>
      </trkpt>
      <trkpt lat="30.60078201815486" lon="-5.622155014425516">
        <ele>973.79999999999995</ele>
        <time>2003-04-15T10:31:14Z</time>
      </trkpt>
      <trkpt lat="30.600487980991602" lon="-5.621844967827201">
        <ele>972.70000000000005</ele>
        <time>2003-04-15T10:31:19Z</time>
      </trkpt>
      <trkpt lat="30.600426960736513" lon="-5.621687974780798">
        <ele>973.20000000000005</ele>
        <time>2003-04-15T10:31:22Z</time>
      </trkpt>
      <trkpt lat="30.600387984886765" lon="-5.621514972299337">
        <ele>973.39999999999998</ele>
        <time>2003-04-15T10:31:23Z</time>
      </trkpt>
      <trkpt lat="30.600305004045367" lon="-5.621378012001514">
        <ele>973.39999999999998</ele>
        <time>2003-04-15T10:31:26Z</time>
      </trkpt>
      <trkpt lat="30.600153040140867" lon="-5.621052039787173">
        <ele>974.39999999999998</ele>
        <time>2003-04-15T10:31:30Z</time>
      </trkpt>
      <trkpt lat="30.599981965497136" lon="-5.620502019301057">
        <ele>975.39999999999998</ele>
        <time>2003-04-15T10:31:37Z</time>
      </trkpt>
      <trkpt lat="30.599911976605654" lon="-5.620373021811247">
        <ele>975.20000000000005</ele>
        <time>2003-04-15T10:31:38Z</time>
      </trkpt>
      <trkpt lat="30.599818015471101" lon="-5.620257016271353">
        <ele>975.29999999999995</ele>
        <time>2003-04-15T10:31:41Z</time>
      </trkpt>
      <trkpt lat="30.599696980789304" lon="-5.620212005451322">
        <ele>975.5</ele>
        <time>2003-04-15T10:31:42Z</time>
      </trkpt>
      <trkpt lat="30.59958198107779" lon="-5.620157020166516">
        <ele>975.89999999999998</ele>
        <time>2003-04-15T10:31:45Z</time>
      </trkpt>
      <trkpt lat="30.599477961659431" lon="-5.620030034333468">
        <ele>975.5</ele>
        <time>2003-04-15T10:31:46Z</time>
      </trkpt>
      <trkpt lat="30.599375031888485" lon="-5.619951998814941">
        <ele>975.5</ele>
        <time>2003-04-15T10:31:49Z</time>
      </trkpt>
      <trkpt lat="30.599249973893166" lon="-5.619789976626635">
        <ele>975.29999999999995</ele>
        <time>2003-04-15T10:31:52Z</time>
      </trkpt>
      <trkpt lat="30.598943028599024" lon="-5.619427040219307">
        <ele>976.39999999999998</ele>
        <time>2003-04-15T10:31:57Z</time>
      </trkpt>
      <trkpt lat="30.598795004189014" lon="-5.619361996650696">
        <ele>976.60000000000002</ele>
        <time>2003-04-15T10:32:00Z</time>
      </trkpt>
      <trkpt lat="30.598546983674169" lon="-5.619253031909466">
        <ele>977</ele>
        <time>2003-04-15T10:32:04Z</time>
      </trkpt>
      <trkpt lat="30.598471965640783" lon="-5.619133003056049">
        <ele>977</ele>
        <time>2003-04-15T10:32:05Z</time>
      </trkpt>
      <trkpt lat="30.598471965640783" lon="-5.618999982252717">
        <ele>976.79999999999995</ele>
        <time>2003-04-15T10:32:08Z</time>
      </trkpt>
      <trkpt lat="30.598487975075841" lon="-5.618872996419668">
        <ele>976.5</ele>
        <time>2003-04-15T10:32:12Z</time>
      </trkpt>
      <trkpt lat="30.598487975075841" lon="-5.618754979223013">
        <ele>977.79999999999995</ele>
        <time>2003-04-15T10:32:16Z</time>
      </trkpt>
      <trkpt lat="30.598387978971004" lon="-5.618588011711836">
        <ele>978.70000000000005</ele>
        <time>2003-04-15T10:32:28Z</time>
      </trkpt>
      <trkpt lat="30.598223023116589" lon="-5.61851198785007">
        <ele>978.79999999999995</ele>
        <time>2003-04-15T10:32:32Z</time>
      </trkpt>
      <trkpt lat="30.59812000952661" lon="-5.618466977030039">
        <ele>978.70000000000005</ele>
        <time>2003-04-15T10:32:33Z</time>
      </trkpt>
      <trkpt lat="30.597984977066517" lon="-5.618392964825034">
        <ele>978.60000000000002</ele>
        <time>2003-04-15T10:32:36Z</time>
      </trkpt>
      <trkpt lat="30.597484996542335" lon="-5.618176963180304">
        <ele>979.29999999999995</ele>
        <time>2003-04-15T10:32:43Z</time>
      </trkpt>
      <trkpt lat="30.597333032637835" lon="-5.618122983723879">
        <ele>979.39999999999998</ele>
        <time>2003-04-15T10:32:46Z</time>
      </trkpt>
      <trkpt lat="30.596917038783431" lon="-5.617955010384321">
        <ele>979.89999999999998</ele>
        <time>2003-04-15T10:32:52Z</time>
      </trkpt>
      <trkpt lat="30.596719980239868" lon="-5.617813020944595">
        <ele>980.60000000000002</ele>
        <time>2003-04-15T10:32:55Z</time>
      </trkpt>
      <trkpt lat="30.59648503549397" lon="-5.617649992927909">
        <ele>980.89999999999998</ele>
        <time>2003-04-15T10:32:59Z</time>
      </trkpt>
      <trkpt lat="30.596117991954088" lon="-5.617399960756302">
        <ele>981.5</ele>
        <time>2003-04-15T10:33:06Z</time>
      </trkpt>
      <trkpt lat="30.595935015007854" lon="-5.617216983810067">
        <ele>981.79999999999995</ele>
        <time>2003-04-15T10:33:09Z</time>
      </trkpt>
      <trkpt lat="30.595251973718405" lon="-5.616439981386066">
        <ele>984</ele>
        <time>2003-04-15T10:33:21Z</time>
      </trkpt>
      <trkpt lat="30.594922984018922" lon="-5.616142004728317">
        <ele>985.89999999999998</ele>
        <time>2003-04-15T10:33:26Z</time>
      </trkpt>
      <trkpt lat="30.594819970428944" lon="-5.61603999696672">
        <ele>986.5</ele>
        <time>2003-04-15T10:33:27Z</time>
      </trkpt>
      <trkpt lat="30.594802033156157" lon="-5.615889960899949">
        <ele>986.70000000000005</ele>
        <time>2003-04-15T10:33:30Z</time>
      </trkpt>
      <trkpt lat="30.594824999570847" lon="-5.61571997590363">
        <ele>986.5</ele>
        <time>2003-04-15T10:33:32Z</time>
      </trkpt>
      <trkpt lat="30.594804966822267" lon="-5.615582009777427">
        <ele>987.60000000000002</ele>
        <time>2003-04-15T10:33:34Z</time>
      </trkpt>
      <trkpt lat="30.594721985980868" lon="-5.615532975643873">
        <ele>987.60000000000002</ele>
        <time>2003-04-15T10:33:36Z</time>
      </trkpt>
      <trkpt lat="30.594619978219271" lon="-5.615480002015829">
        <ele>987.70000000000005</ele>
        <time>2003-04-15T10:33:38Z</time>
      </trkpt>
      <trkpt lat="30.594498021528125" lon="-5.615432979539037">
        <ele>987.79999999999995</ele>
        <time>2003-04-15T10:33:41Z</time>
      </trkpt>
      <trkpt lat="30.594084961339831" lon="-5.615271963179112">
        <ele>985.79999999999995</ele>
        <time>2003-04-15T10:33:48Z</time>
      </trkpt>
      <trkpt lat="30.593980019912124" lon="-5.615222007036209">
        <ele>986</ele>
        <time>2003-04-15T10:33:53Z</time>
      </trkpt>
      <trkpt lat="30.593877006322145" lon="-5.615184959024191">
        <ele>986.20000000000005</ele>
        <time>2003-04-15T10:33:56Z</time>
      </trkpt>
      <trkpt lat="30.593727976083755" lon="-5.615170039236546">
        <ele>985.89999999999998</ele>
        <time>2003-04-15T10:34:13Z</time>
      </trkpt>
      <trkpt lat="30.593623034656048" lon="-5.615127962082624">
        <ele>985.5</ele>
        <time>2003-04-15T10:34:16Z</time>
      </trkpt>
      <trkpt lat="30.593505017459393" lon="-5.615071970969439">
        <ele>984.10000000000002</ele>
        <time>2003-04-15T10:34:20Z</time>
      </trkpt>
      <trkpt lat="30.593405021354556" lon="-5.615007011219859">
        <ele>984.20000000000005</ele>
        <time>2003-04-15T10:34:24Z</time>
      </trkpt>
      <trkpt lat="30.593269988894463" lon="-5.614829985424876">
        <ele>984.60000000000002</ele>
        <time>2003-04-15T10:34:28Z</time>
      </trkpt>
      <trkpt lat="30.593160018324852" lon="-5.614650025963783">
        <ele>985.10000000000002</ele>
        <time>2003-04-15T10:34:31Z</time>
      </trkpt>
      <trkpt lat="30.59287503361702" lon="-5.614292034879327">
        <ele>985.5</ele>
        <time>2003-04-15T10:34:36Z</time>
      </trkpt>
      <trkpt lat="30.592722985893488" lon="-5.614197989925742">
        <ele>985.39999999999998</ele>
        <time>2003-04-15T10:34:39Z</time>
      </trkpt>
      <trkpt lat="30.592562975361943" lon="-5.614072009921074">
        <ele>986.70000000000005</ele>
        <time>2003-04-15T10:34:42Z</time>
      </trkpt>
      <trkpt lat="30.592446969822049" lon="-5.614048037678003">
        <ele>987.10000000000002</ele>
        <time>2003-04-15T10:34:46Z</time>
      </trkpt>
      <trkpt lat="30.592359965667129" lon="-5.614019958302379">
        <ele>987</ele>
        <time>2003-04-15T10:34:47Z</time>
      </trkpt>
      <trkpt lat="30.592252006754279" lon="-5.613985005766153">
        <ele>986.79999999999995</ele>
        <time>2003-04-15T10:34:51Z</time>
      </trkpt>
      <trkpt lat="30.59214698150754" lon="-5.613985005766153">
        <ele>986.89999999999998</ele>
        <time>2003-04-15T10:34:53Z</time>
      </trkpt>
      <trkpt lat="30.591765018180013" lon="-5.614006966352463">
        <ele>987.79999999999995</ele>
        <time>2003-04-15T10:34:59Z</time>
      </trkpt>
      <trkpt lat="30.59165203012526" lon="-5.614066980779171">
        <ele>988.10000000000002</ele>
        <time>2003-04-15T10:35:02Z</time>
      </trkpt>
      <trkpt lat="30.591539964079857" lon="-5.614079972729087">
        <ele>986.20000000000005</ele>
        <time>2003-04-15T10:35:05Z</time>
      </trkpt>
      <trkpt lat="30.591342989355326" lon="-5.614054994657636">
        <ele>987.70000000000005</ele>
        <time>2003-04-15T10:35:07Z</time>
      </trkpt>
      <trkpt lat="30.591214997693896" lon="-5.613987017422915">
        <ele>987.89999999999998</ele>
        <time>2003-04-15T10:35:10Z</time>
      </trkpt>
      <trkpt lat="30.590930012986064" lon="-5.613803034648299">
        <ele>988.20000000000005</ele>
        <time>2003-04-15T10:35:14Z</time>
      </trkpt>
      <trkpt lat="30.590673023834825" lon="-5.613622991368175">
        <ele>988.70000000000005</ele>
        <time>2003-04-15T10:35:18Z</time>
      </trkpt>
      <trkpt lat="30.589819997549057" lon="-5.613074982538819">
        <ele>990.20000000000005</ele>
        <time>2003-04-15T10:35:32Z</time>
      </trkpt>
      <trkpt lat="30.589081970974803" lon="-5.612462013959885">
        <ele>992.10000000000002</ele>
        <time>2003-04-15T10:35:42Z</time>
      </trkpt>
      <trkpt lat="30.588664971292019" lon="-5.612092958763242">
        <ele>993.60000000000002</ele>
        <time>2003-04-15T10:35:49Z</time>
      </trkpt>
      <trkpt lat="30.588619960471988" lon="-5.611992040649056">
        <ele>993.89999999999998</ele>
        <time>2003-04-15T10:35:49Z</time>
      </trkpt>
      <trkpt lat="30.588488029316068" lon="-5.61170001514256">
        <ele>994.60000000000002</ele>
        <time>2003-04-15T10:35:52Z</time>
      </trkpt>
      <trkpt lat="30.588362971320748" lon="-5.611581997945905">
        <ele>995.70000000000005</ele>
        <time>2003-04-15T10:35:55Z</time>
      </trkpt>
      <trkpt lat="30.588222993537784" lon="-5.611451994627714">
        <ele>996.20000000000005</ele>
        <time>2003-04-15T10:35:56Z</time>
      </trkpt>
      <trkpt lat="30.588012021034956" lon="-5.611262982711196">
        <ele>996.70000000000005</ele>
        <time>2003-04-15T10:36:00Z</time>
      </trkpt>
      <trkpt lat="30.587559984996915" lon="-5.61094799079001">
        <ele>998.5</ele>
        <time>2003-04-15T10:36:05Z</time>
      </trkpt>
      <trkpt lat="30.587480021640658" lon="-5.610876996070147">
        <ele>997.5</ele>
        <time>2003-04-15T10:36:08Z</time>
      </trkpt>
      <trkpt lat="30.587202999740839" lon="-5.6106670293957">
        <ele>1000</ele>
        <time>2003-04-15T10:36:19Z</time>
      </trkpt>
      <trkpt lat="30.586905023083091" lon="-5.61047499999404">
        <ele>1001.8</ele>
        <time>2003-04-15T10:36:23Z</time>
      </trkpt>
      <trkpt lat="30.586232040077448" lon="-5.610094964504242">
        <ele>1002.8</ele>
        <time>2003-04-15T10:36:35Z</time>
      </trkpt>
      <trkpt lat="30.585525026544929" lon="-5.609592972323299">
        <ele>999.70000000000005</ele>
        <time>2003-04-15T10:36:47Z</time>
      </trkpt>
      <trkpt lat="30.585386976599693" lon="-5.609518038108945">
        <ele>1000.6</ele>
        <time>2003-04-15T10:36:50Z</time>
      </trkpt>
      <trkpt lat="30.585269965231419" lon="-5.609415024518967">
        <ele>1002.5</ele>
        <time>2003-04-15T10:36:50Z</time>
      </trkpt>
      <trkpt lat="30.584997972473502" lon="-5.609173038974404">
        <ele>1003.4</ele>
        <time>2003-04-15T10:36:55Z</time>
      </trkpt>
      <trkpt lat="30.58437000028789" lon="-5.60869200155139">
        <ele>1004.7</ele>
        <time>2003-04-15T10:37:03Z</time>
      </trkpt>
      <trkpt lat="30.583930034190416" lon="-5.608275001868606">
        <ele>1004.8</ele>
        <time>2003-04-15T10:37:10Z</time>
      </trkpt>
      <trkpt lat="30.583747979253531" lon="-5.608066963031888">
        <ele>1003.2</ele>
        <time>2003-04-15T10:37:13Z</time>
      </trkpt>
      <trkpt lat="30.583677990362048" lon="-5.607979958876967">
        <ele>1003.7</ele>
        <time>2003-04-15T10:37:14Z</time>
      </trkpt>
      <trkpt lat="30.583568019792438" lon="-5.607826989144087">
        <ele>1005.2</ele>
        <time>2003-04-15T10:37:25Z</time>
      </trkpt>
      <trkpt lat="30.583513034507632" lon="-5.607730010524392">
        <ele>1005.4</ele>
        <time>2003-04-15T10:37:26Z</time>
      </trkpt>
      <trkpt lat="30.583370039239526" lon="-5.607503028586507">
        <ele>1006.6</ele>
        <time>2003-04-15T10:37:30Z</time>
      </trkpt>
      <trkpt lat="30.583123024553061" lon="-5.607183007523418">
        <ele>1005.7</ele>
        <time>2003-04-15T10:37:36Z</time>
      </trkpt>
      <trkpt lat="30.583053035661578" lon="-5.607088040560484">
        <ele>1006.5</ele>
        <time>2003-04-15T10:37:37Z</time>
      </trkpt>
      <trkpt lat="30.582942981272936" lon="-5.606944961473346">
        <ele>1007.4</ele>
        <time>2003-04-15T10:37:40Z</time>
      </trkpt>
      <trkpt lat="30.582832004874945" lon="-5.606834990903735">
        <ele>1007.8</ele>
        <time>2003-04-15T10:37:43Z</time>
      </trkpt>
      <trkpt lat="30.582596976310015" lon="-5.606559980660677">
        <ele>1007.6</ele>
        <time>2003-04-15T10:37:47Z</time>
      </trkpt>
      <trkpt lat="30.582481976598501" lon="-5.6063930131495">
        <ele>1007.6</ele>
        <time>2003-04-15T10:37:48Z</time>
      </trkpt>
      <trkpt lat="30.582397989928722" lon="-5.606202995404601">
        <ele>1008</ele>
        <time>2003-04-15T10:37:51Z</time>
      </trkpt>
      <trkpt lat="30.582290031015873" lon="-5.606052037328482">
        <ele>1009.1</ele>
        <time>2003-04-15T10:37:52Z</time>
      </trkpt>
      <trkpt lat="30.582215012982488" lon="-5.605993028730154">
        <ele>1009.2</ele>
        <time>2003-04-15T10:37:53Z</time>
      </trkpt>
      <trkpt lat="30.582145024091005" lon="-5.605922034010291">
        <ele>1009</ele>
        <time>2003-04-15T10:37:55Z</time>
      </trkpt>
      <trkpt lat="30.582022983580828" lon="-5.605760011821985">
        <ele>1009.6</ele>
        <time>2003-04-15T10:37:56Z</time>
      </trkpt>
      <trkpt lat="30.581873031333089" lon="-5.605506962165237">
        <ele>1010.7</ele>
        <time>2003-04-15T10:38:00Z</time>
      </trkpt>
      <trkpt lat="30.581832965835929" lon="-5.605321973562241">
        <ele>1011.1</ele>
        <time>2003-04-15T10:38:02Z</time>
      </trkpt>
      <trkpt lat="30.581852998584509" lon="-5.605124998837709">
        <ele>1011.5</ele>
        <time>2003-04-15T10:38:04Z</time>
      </trkpt>
      <trkpt lat="30.581922987475991" lon="-5.604802966117859">
        <ele>1010.4</ele>
        <time>2003-04-15T10:38:07Z</time>
      </trkpt>
      <trkpt lat="30.581917036324739" lon="-5.604677991941571">
        <ele>1009.8</ele>
        <time>2003-04-15T10:38:11Z</time>
      </trkpt>
      <trkpt lat="30.581873031333089" lon="-5.604547988623381">
        <ele>1010.5</ele>
        <time>2003-04-15T10:38:14Z</time>
      </trkpt>
      <trkpt lat="30.581730036064982" lon="-5.604522004723549">
        <ele>1009.2</ele>
        <time>2003-04-15T10:38:50Z</time>
      </trkpt>
      <trkpt lat="30.581644959747791" lon="-5.604585036635399">
        <ele>1008</ele>
        <time>2003-04-15T10:38:53Z</time>
      </trkpt>
      <trkpt lat="30.581542029976845" lon="-5.60463197529316">
        <ele>1008</ele>
        <time>2003-04-15T10:38:56Z</time>
      </trkpt>
      <trkpt lat="30.581429963931441" lon="-5.604655025526881">
        <ele>1009.5</ele>
        <time>2003-04-15T10:38:58Z</time>
      </trkpt>
      <trkpt lat="30.581301972270012" lon="-5.604644967243075">
        <ele>1009.2</ele>
        <time>2003-04-15T10:39:00Z</time>
      </trkpt>
      <trkpt lat="30.581184960901737" lon="-5.604574978351593">
        <ele>1009.5</ele>
        <time>2003-04-15T10:39:01Z</time>
      </trkpt>
      <trkpt lat="30.581112038344145" lon="-5.604513036087155">
        <ele>1011.4</ele>
        <time>2003-04-15T10:41:51Z</time>
      </trkpt>
      <trkpt lat="30.580997038632631" lon="-5.604419996961951">
        <ele>1011.6</ele>
        <time>2003-04-15T10:41:55Z</time>
      </trkpt>
      <trkpt lat="30.580793023109436" lon="-5.604269960895181">
        <ele>1011.6</ele>
        <time>2003-04-15T10:41:59Z</time>
      </trkpt>
      <trkpt lat="30.580596970394254" lon="-5.604111962020397">
        <ele>1012.5</ele>
        <time>2003-04-15T10:42:02Z</time>
      </trkpt>
      <trkpt lat="30.579960029572248" lon="-5.60349497012794">
        <ele>1011.4</ele>
        <time>2003-04-15T10:42:11Z</time>
      </trkpt>
      <trkpt lat="30.579812005162239" lon="-5.60334200039506">
        <ele>1010.8</ele>
        <time>2003-04-15T10:42:14Z</time>
      </trkpt>
      <trkpt lat="30.579702034592628" lon="-5.603239992633462">
        <ele>1012.4</ele>
        <time>2003-04-15T10:42:17Z</time>
      </trkpt>
      <trkpt lat="30.579634979367256" lon="-5.603094985708594">
        <ele>1013.4</ele>
        <time>2003-04-15T10:42:18Z</time>
      </trkpt>
      <trkpt lat="30.579543029889464" lon="-5.602958025410771">
        <ele>1014.6</ele>
        <time>2003-04-15T10:42:21Z</time>
      </trkpt>
      <trkpt lat="30.579395005479455" lon="-5.602882001549006">
        <ele>1014.5</ele>
        <time>2003-04-15T10:42:22Z</time>
      </trkpt>
      <trkpt lat="30.5792579613626" lon="-5.602772030979395">
        <ele>1014.6</ele>
        <time>2003-04-15T10:42:25Z</time>
      </trkpt>
      <trkpt lat="30.579157965257764" lon="-5.602691983804107">
        <ele>1014.5</ele>
        <time>2003-04-15T10:42:26Z</time>
      </trkpt>
      <trkpt lat="30.57899703271687" lon="-5.602580001577735">
        <ele>1013.1</ele>
        <time>2003-04-15T10:42:49Z</time>
      </trkpt>
      <trkpt lat="30.578838028013706" lon="-5.60246299020946">
        <ele>1011</ele>
        <time>2003-04-15T10:42:53Z</time>
      </trkpt>
      <trkpt lat="30.578739959746599" lon="-5.60239995829761">
        <ele>1011</ele>
        <time>2003-04-15T10:42:54Z</time>
      </trkpt>
      <trkpt lat="30.578518006950617" lon="-5.602257968857884">
        <ele>1013.1</ele>
        <time>2003-04-15T10:42:59Z</time>
      </trkpt>
      <trkpt lat="30.578079968690872" lon="-5.601938031613827">
        <ele>1012.7</ele>
        <time>2003-04-15T10:43:07Z</time>
      </trkpt>
      <trkpt lat="30.5779870133847" lon="-5.601887991651893">
        <ele>1014</ele>
        <time>2003-04-15T10:43:08Z</time>
      </trkpt>
      <trkpt lat="30.577862961217761" lon="-5.601822026073933">
        <ele>1013.9</ele>
        <time>2003-04-15T10:43:11Z</time>
      </trkpt>
      <trkpt lat="30.577402962371707" lon="-5.601497981697321">
        <ele>1015</ele>
        <time>2003-04-15T10:43:17Z</time>
      </trkpt>
      <trkpt lat="30.57697799988091" lon="-5.60113001614809">
        <ele>1015.8</ele>
        <time>2003-04-15T10:43:24Z</time>
      </trkpt>
      <trkpt lat="30.576880015432835" lon="-5.601024990901351">
        <ele>1015.8</ele>
        <time>2003-04-15T10:43:26Z</time>
      </trkpt>
      <trkpt lat="30.576710030436516" lon="-5.600822987034917">
        <ele>1014.8</ele>
        <time>2003-04-15T10:43:28Z</time>
      </trkpt>
      <trkpt lat="30.576593019068241" lon="-5.600732965394855">
        <ele>1015.7</ele>
        <time>2003-04-15T10:43:31Z</time>
      </trkpt>
      <trkpt lat="30.576523030176759" lon="-5.600583013147116">
        <ele>1017.1</ele>
        <time>2003-04-15T10:43:32Z</time>
      </trkpt>
      <trkpt lat="30.576439965516329" lon="-5.600438006222248">
        <ele>1017.3</ele>
        <time>2003-04-15T10:43:35Z</time>
      </trkpt>
      <trkpt lat="30.576275009661913" lon="-5.600207000970841">
        <ele>1018.1</ele>
        <time>2003-04-15T10:43:38Z</time>
      </trkpt>
      <trkpt lat="30.576171996071935" lon="-5.600027963519096">
        <ele>1019.2</ele>
        <time>2003-04-15T10:43:39Z</time>
      </trkpt>
      <trkpt lat="30.576133020222187" lon="-5.599826965481043">
        <ele>1019.7</ele>
        <time>2003-04-15T10:43:42Z</time>
      </trkpt>
      <trkpt lat="30.576141988858581" lon="-5.599711965769529">
        <ele>1019.6</ele>
        <time>2003-04-15T10:43:43Z</time>
      </trkpt>
      <trkpt lat="30.576166966930032" lon="-5.599397979676724">
        <ele>1019.7</ele>
        <time>2003-04-15T10:43:46Z</time>
      </trkpt>
      <trkpt lat="30.576087003573775" lon="-5.599236963316798">
        <ele>1020.5</ele>
        <time>2003-04-15T10:43:47Z</time>
      </trkpt>
      <trkpt lat="30.575972003862262" lon="-5.599169991910458">
        <ele>1020.7</ele>
        <time>2003-04-15T10:43:50Z</time>
      </trkpt>
      <trkpt lat="30.575892962515354" lon="-5.599112994968891">
        <ele>1020.4</ele>
        <time>2003-04-15T10:43:51Z</time>
      </trkpt>
      <trkpt lat="30.575843006372452" lon="-5.598958013579249">
        <ele>1021.3</ele>
        <time>2003-04-15T10:43:54Z</time>
      </trkpt>
      <trkpt lat="30.57583998888731" lon="-5.598790040239692">
        <ele>1021.6</ele>
        <time>2003-04-15T10:43:55Z</time>
      </trkpt>
      <trkpt lat="30.575807970017195" lon="-5.598527016118169">
        <ele>1022.4</ele>
        <time>2003-04-15T10:43:58Z</time>
      </trkpt>
      <trkpt lat="30.575727000832558" lon="-5.598372034728527">
        <ele>1022.8</ele>
        <time>2003-04-15T10:44:01Z</time>
      </trkpt>
      <trkpt lat="30.575677966699004" lon="-5.598198026418686">
        <ele>1023.5</ele>
        <time>2003-04-15T10:44:02Z</time>
      </trkpt>
      <trkpt lat="30.57558199390769" lon="-5.597772980108857">
        <ele>1024.7</ele>
        <time>2003-04-15T10:44:07Z</time>
      </trkpt>
      <trkpt lat="30.575491972267628" lon="-5.597631996497512">
        <ele>1024.0999999999999</ele>
        <time>2003-04-15T10:44:10Z</time>
      </trkpt>
      <trkpt lat="30.575364986434579" lon="-5.597507022321224">
        <ele>1023</ele>
        <time>2003-04-15T10:44:11Z</time>
      </trkpt>
      <trkpt lat="30.575246969237924" lon="-5.597365032881498">
        <ele>1026</ele>
        <time>2003-04-15T10:44:14Z</time>
      </trkpt>
      <trkpt lat="30.574934994801879" lon="-5.596992038190365">
        <ele>1025.0999999999999</ele>
        <time>2003-04-15T10:44:18Z</time>
      </trkpt>
      <trkpt lat="30.574746988713741" lon="-5.596800008788705">
        <ele>1025.7</ele>
        <time>2003-04-15T10:44:22Z</time>
      </trkpt>
      <trkpt lat="30.57465797290206" lon="-5.59663999825716">
        <ele>1026</ele>
        <time>2003-04-15T10:44:24Z</time>
      </trkpt>
      <trkpt lat="30.574610028415918" lon="-5.596449980512261">
        <ele>1024.8</ele>
        <time>2003-04-15T10:44:25Z</time>
      </trkpt>
      <trkpt lat="30.574514977633953" lon="-5.596022000536323">
        <ele>1024.8</ele>
        <time>2003-04-15T10:44:30Z</time>
      </trkpt>
      <trkpt lat="30.574422022327781" lon="-5.595886968076229">
        <ele>1025.9000000000001</ele>
        <time>2003-04-15T10:44:33Z</time>
      </trkpt>
      <trkpt lat="30.574301993474364" lon="-5.595740033313632">
        <ele>1024.8</ele>
        <time>2003-04-15T10:44:34Z</time>
      </trkpt>
      <trkpt lat="30.574166961014271" lon="-5.595487989485264">
        <ele>1027.2</ele>
        <time>2003-04-15T10:44:37Z</time>
      </trkpt>
      <trkpt lat="30.574103007093072" lon="-5.595344994217157">
        <ele>1027.7</ele>
        <time>2003-04-15T10:44:40Z</time>
      </trkpt>
      <trkpt lat="30.573958000168204" lon="-5.595188001170754">
        <ele>1026.5999999999999</ele>
        <time>2003-04-15T10:44:42Z</time>
      </trkpt>
      <trkpt lat="30.573815004900098" lon="-5.595118012279272">
        <ele>1024.8</ele>
        <time>2003-04-15T10:44:45Z</time>
      </trkpt>
      <trkpt lat="30.573562039062381" lon="-5.594982979819179">
        <ele>1028.4000000000001</ele>
        <time>2003-04-15T10:44:49Z</time>
      </trkpt>
      <trkpt lat="30.573351988568902" lon="-5.594845013692975">
        <ele>1026.3</ele>
        <time>2003-04-15T10:44:52Z</time>
      </trkpt>
      <trkpt lat="30.573228020220995" lon="-5.594807965680957">
        <ele>1027.5</ele>
        <time>2003-04-15T10:44:55Z</time>
      </trkpt>
      <trkpt lat="30.57298201136291" lon="-5.59474996291101">
        <ele>1025.7</ele>
        <time>2003-04-15T10:44:59Z</time>
      </trkpt>
      <trkpt lat="30.572802973911166" lon="-5.59466497041285">
        <ele>1024.5</ele>
        <time>2003-04-15T10:45:01Z</time>
      </trkpt>
      <trkpt lat="30.572667019441724" lon="-5.594552988186479">
        <ele>1023.1</ele>
        <time>2003-04-15T10:45:04Z</time>
      </trkpt>
      <trkpt lat="30.572522012516856" lon="-5.594521975144744">
        <ele>1022.6</ele>
        <time>2003-04-15T10:45:05Z</time>
      </trkpt>
      <trkpt lat="30.572387985885143" lon="-5.594573020935059">
        <ele>1021.6</ele>
        <time>2003-04-15T10:45:08Z</time>
      </trkpt>
      <trkpt lat="30.572282960638404" lon="-5.594619959592819">
        <ele>1021.1</ele>
        <time>2003-04-15T10:45:09Z</time>
      </trkpt>
      <trkpt lat="30.57216502726078" lon="-5.594557011500001">
        <ele>1021.3</ele>
        <time>2003-04-15T10:45:12Z</time>
      </trkpt>
      <trkpt lat="30.572037035599351" lon="-5.594440000131726">
        <ele>1021.1</ele>
        <time>2003-04-15T10:45:14Z</time>
      </trkpt>
      <trkpt lat="30.571890017017722" lon="-5.594370011240244">
        <ele>1021.1</ele>
        <time>2003-04-15T10:45:16Z</time>
      </trkpt>
      <trkpt lat="30.571742998436093" lon="-5.594268003478646">
        <ele>1021.3</ele>
        <time>2003-04-15T10:45:18Z</time>
      </trkpt>
      <trkpt lat="30.57152003981173" lon="-5.594089971855283">
        <ele>1021.6</ele>
        <time>2003-04-15T10:45:20Z</time>
      </trkpt>
      <trkpt lat="30.571330022066832" lon="-5.593967009335756">
        <ele>1021.6</ele>
        <time>2003-04-15T10:45:23Z</time>
      </trkpt>
      <trkpt lat="30.571260033175349" lon="-5.593829965218902">
        <ele>1021.6</ele>
        <time>2003-04-15T10:45:26Z</time>
      </trkpt>
      <trkpt lat="30.571230025961995" lon="-5.593662997707725">
        <ele>1022.1</ele>
        <time>2003-04-15T10:45:27Z</time>
      </trkpt>
      <trkpt lat="30.571228014305234" lon="-5.593486977741122">
        <ele>1023</ele>
        <time>2003-04-15T10:45:30Z</time>
      </trkpt>
      <trkpt lat="30.571207981556654" lon="-5.593148013576865">
        <ele>1026.9000000000001</ele>
        <time>2003-04-15T10:45:34Z</time>
      </trkpt>
      <trkpt lat="30.57113204151392" lon="-5.592969981953502">
        <ele>1027.5999999999999</ele>
        <time>2003-04-15T10:45:35Z</time>
      </trkpt>
      <trkpt lat="30.570997009053826" lon="-5.592647027224302">
        <ele>1028.3</ele>
        <time>2003-04-15T10:45:39Z</time>
      </trkpt>
      <trkpt lat="30.570974964648485" lon="-5.592449968680739">
        <ele>1028</ele>
        <time>2003-04-15T10:45:42Z</time>
      </trkpt>
      <trkpt lat="30.570915034040809" lon="-5.592037998139858">
        <ele>1026</ele>
        <time>2003-04-15T10:45:46Z</time>
      </trkpt>
      <trkpt lat="30.570827024057508" lon="-5.591900032013655">
        <ele>1026.8</ele>
        <time>2003-04-15T10:45:47Z</time>
      </trkpt>
      <trkpt lat="30.570762986317277" lon="-5.591797018423677">
        <ele>1027</ele>
        <time>2003-04-15T10:45:50Z</time>
      </trkpt>
      <trkpt lat="30.570712024345994" lon="-5.591686964035034">
        <ele>1026</ele>
        <time>2003-04-15T10:45:51Z</time>
      </trkpt>
      <trkpt lat="30.570634994655848" lon="-5.591489989310503">
        <ele>1025.0999999999999</ele>
        <time>2003-04-15T10:45:54Z</time>
      </trkpt>
      <trkpt lat="30.570637006312609" lon="-5.59133199043572">
        <ele>1026.4000000000001</ele>
        <time>2003-04-15T10:45:57Z</time>
      </trkpt>
      <trkpt lat="30.570634994655848" lon="-5.591210033744574">
        <ele>1027.3</ele>
        <time>2003-04-15T10:45:58Z</time>
      </trkpt>
      <trkpt lat="30.570602975785732" lon="-5.590896969661117">
        <ele>1027.5999999999999</ele>
        <time>2003-04-15T10:46:02Z</time>
      </trkpt>
      <trkpt lat="30.57064002379775" lon="-5.590720027685165">
        <ele>1027.5999999999999</ele>
        <time>2003-04-15T10:46:05Z</time>
      </trkpt>
      <trkpt lat="30.570689979940653" lon="-5.590479969978333">
        <ele>1027.4000000000001</ele>
        <time>2003-04-15T10:46:08Z</time>
      </trkpt>
      <trkpt lat="30.57066299021244" lon="-5.590315014123917">
        <ele>1028.0999999999999</ele>
        <time>2003-04-15T10:46:10Z</time>
      </trkpt>
      <trkpt lat="30.570574980229139" lon="-5.590060036629438">
        <ele>1028.2</ele>
        <time>2003-04-15T10:46:13Z</time>
      </trkpt>
      <trkpt lat="30.570465009659529" lon="-5.589894996955991">
        <ele>1028.5</ele>
        <time>2003-04-15T10:46:14Z</time>
      </trkpt>
      <trkpt lat="30.570263005793095" lon="-5.589559972286224">
        <ele>1029.9000000000001</ele>
        <time>2003-04-15T10:46:18Z</time>
      </trkpt>
      <trkpt lat="30.570078017190099" lon="-5.589193012565374">
        <ele>1029.8</ele>
        <time>2003-04-15T10:46:22Z</time>
      </trkpt>
      <trkpt lat="30.57003702968359" lon="-5.589097961783409">
        <ele>1030.5</ele>
        <time>2003-04-15T10:46:24Z</time>
      </trkpt>
      <trkpt lat="30.569622963666916" lon="-5.588142005726695">
        <ele>1030.2</ele>
        <time>2003-04-15T10:46:33Z</time>
      </trkpt>
      <trkpt lat="30.569569990038872" lon="-5.587731963023543">
        <ele>1030.8</ele>
        <time>2003-04-15T10:46:51Z</time>
      </trkpt>
      <trkpt lat="30.569541994482279" lon="-5.5876150354743">
        <ele>1030.9000000000001</ele>
        <time>2003-04-15T10:46:57Z</time>
      </trkpt>
      <trkpt lat="30.569506958127022" lon="-5.587432980537415">
        <ele>1030.9000000000001</ele>
        <time>2003-04-15T10:47:00Z</time>
      </trkpt>
      <trkpt lat="30.56943797506392" lon="-5.587044982239604">
        <ele>1032.2</ele>
        <time>2003-04-15T10:47:07Z</time>
      </trkpt>
      <trkpt lat="30.569343008100986" lon="-5.586680034175515">
        <ele>1031.9000000000001</ele>
        <time>2003-04-15T10:47:11Z</time>
      </trkpt>
      <trkpt lat="30.569262038916349" lon="-5.586399994790554">
        <ele>1032.4000000000001</ele>
        <time>2003-04-15T10:47:15Z</time>
      </trkpt>
      <trkpt lat="30.569209987297654" lon="-5.586232021450996">
        <ele>1032.5</ele>
        <time>2003-04-15T10:47:19Z</time>
      </trkpt>
      <trkpt lat="30.569170005619526" lon="-5.585985006764531">
        <ele>1032.9000000000001</ele>
        <time>2003-04-15T10:47:23Z</time>
      </trkpt>
      <trkpt lat="30.569175034761429" lon="-5.585824996232987">
        <ele>1033.0999999999999</ele>
        <time>2003-04-15T10:47:24Z</time>
      </trkpt>
      <trkpt lat="30.569173023104668" lon="-5.585660040378571">
        <ele>1033.3</ele>
        <time>2003-04-15T10:47:27Z</time>
      </trkpt>
      <trkpt lat="30.569119965657592" lon="-5.585497012361884">
        <ele>1033.4000000000001</ele>
        <time>2003-04-15T10:47:29Z</time>
      </trkpt>
      <trkpt lat="30.569032039493322" lon="-5.585197024047375">
        <ele>1034</ele>
        <time>2003-04-15T10:47:33Z</time>
      </trkpt>
      <trkpt lat="30.568945035338402" lon="-5.584952021017671">
        <ele>1034.3</ele>
        <time>2003-04-15T10:47:35Z</time>
      </trkpt>
      <trkpt lat="30.568825006484985" lon="-5.584657983854413">
        <ele>1034.5</ele>
        <time>2003-04-15T10:47:38Z</time>
      </trkpt>
      <trkpt lat="30.568713024258614" lon="-5.584487998858094">
        <ele>1035.3</ele>
        <time>2003-04-15T10:47:41Z</time>
      </trkpt>
      <trkpt lat="30.568516971543431" lon="-5.584236960858107">
        <ele>1035.0999999999999</ele>
        <time>2003-04-15T10:47:45Z</time>
      </trkpt>
      <trkpt lat="30.568461986258626" lon="-5.584126990288496">
        <ele>1034.9000000000001</ele>
        <time>2003-04-15T10:47:46Z</time>
      </trkpt>
      <trkpt lat="30.568395014852285" lon="-5.584017019718885">
        <ele>1035.9000000000001</ele>
        <time>2003-04-15T10:47:49Z</time>
      </trkpt>
      <trkpt lat="30.56829703040421" lon="-5.583947030827403">
        <ele>1035.0999999999999</ele>
        <time>2003-04-15T10:47:50Z</time>
      </trkpt>
      <trkpt lat="30.568216983228922" lon="-5.583845023065805">
        <ele>1036.8</ele>
        <time>2003-04-15T10:47:53Z</time>
      </trkpt>
      <trkpt lat="30.568120004609227" lon="-5.583698004484177">
        <ele>1036.9000000000001</ele>
        <time>2003-04-15T10:47:54Z</time>
      </trkpt>
      <trkpt lat="30.568033000454307" lon="-5.583513015881181">
        <ele>1037.3</ele>
        <time>2003-04-15T10:47:57Z</time>
      </trkpt>
      <trkpt lat="30.567965023219585" lon="-5.583315035328269">
        <ele>1037.5999999999999</ele>
        <time>2003-04-15T10:47:58Z</time>
      </trkpt>
      <trkpt lat="30.567862009629607" lon="-5.58306198567152">
        <ele>1037.5999999999999</ele>
        <time>2003-04-15T10:48:01Z</time>
      </trkpt>
      <trkpt lat="30.567723037675023" lon="-5.582735007628799">
        <ele>1038.5</ele>
        <time>2003-04-15T10:48:05Z</time>
      </trkpt>
      <trkpt lat="30.567651959136128" lon="-5.582537027075887">
        <ele>1037.7</ele>
        <time>2003-04-15T10:48:09Z</time>
      </trkpt>
      <trkpt lat="30.567566966637969" lon="-5.582452034577727">
        <ele>1038.9000000000001</ele>
        <time>2003-04-15T10:48:12Z</time>
      </trkpt>
      <trkpt lat="30.567454984411597" lon="-5.582399982959032">
        <ele>1038.7</ele>
        <time>2003-04-15T10:48:13Z</time>
      </trkpt>
      <trkpt lat="30.567247029393911" lon="-5.58228800073266">
        <ele>1036.7</ele>
        <time>2003-04-15T10:48:16Z</time>
      </trkpt>
      <trkpt lat="30.567102022469044" lon="-5.582165038213134">
        <ele>1036.9000000000001</ele>
        <time>2003-04-15T10:48:17Z</time>
      </trkpt>
      <trkpt lat="30.566402971744537" lon="-5.581404967233539">
        <ele>1038.0999999999999</ele>
        <time>2003-04-15T10:48:28Z</time>
      </trkpt>
      <trkpt lat="30.566246984526515" lon="-5.581240011379123">
        <ele>1037.4000000000001</ele>
        <time>2003-04-15T10:48:32Z</time>
      </trkpt>
      <trkpt lat="30.566132990643382" lon="-5.581142026931047">
        <ele>1038.5</ele>
        <time>2003-04-15T10:48:33Z</time>
      </trkpt>
      <trkpt lat="30.565969962626696" lon="-5.581059968098998">
        <ele>1037.9000000000001</ele>
        <time>2003-04-15T10:48:36Z</time>
      </trkpt>
      <trkpt lat="30.565502000972629" lon="-5.580861987546086">
        <ele>1038.9000000000001</ele>
        <time>2003-04-15T10:48:40Z</time>
      </trkpt>
      <trkpt lat="30.56518298573792" lon="-5.580686973407865">
        <ele>1039.8</ele>
        <time>2003-04-15T10:48:44Z</time>
      </trkpt>
      <trkpt lat="30.565057005733252" lon="-5.58061002753675">
        <ele>1040.2</ele>
        <time>2003-04-15T10:48:48Z</time>
      </trkpt>
      <trkpt lat="30.564917027950287" lon="-5.580531992018223">
        <ele>1039.8</ele>
        <time>2003-04-15T10:48:51Z</time>
      </trkpt>
      <trkpt lat="30.564615027979016" lon="-5.580333005636931">
        <ele>1040.7</ele>
        <time>2003-04-15T10:48:55Z</time>
      </trkpt>
      <trkpt lat="30.564559958875179" lon="-5.580250024795532">
        <ele>1040.7</ele>
        <time>2003-04-15T10:48:55Z</time>
      </trkpt>
      <trkpt lat="30.564368013292551" lon="-5.579997980967164">
        <ele>1041.9000000000001</ele>
        <time>2003-04-15T10:48:58Z</time>
      </trkpt>
      <trkpt lat="30.56402301415801" lon="-5.579679971560836">
        <ele>1042.8</ele>
        <time>2003-04-15T10:49:03Z</time>
      </trkpt>
      <trkpt lat="30.563912959769368" lon="-5.579626997932792">
        <ele>1042.5999999999999</ele>
        <time>2003-04-15T10:49:04Z</time>
      </trkpt>
      <trkpt lat="30.563837019726634" lon="-5.579552985727787">
        <ele>1042.7</ele>
        <time>2003-04-15T10:49:07Z</time>
      </trkpt>
      <trkpt lat="30.56367801502347" lon="-5.579394986853004">
        <ele>1043.4000000000001</ele>
        <time>2003-04-15T10:49:11Z</time>
      </trkpt>
      <trkpt lat="30.563599979504943" lon="-5.579327009618282">
        <ele>1043.8</ele>
        <time>2003-04-15T10:49:11Z</time>
      </trkpt>
      <trkpt lat="30.563337039202452" lon="-5.579097010195255">
        <ele>1044.4000000000001</ele>
        <time>2003-04-15T10:49:19Z</time>
      </trkpt>
      <trkpt lat="30.563199995085597" lon="-5.578974969685078">
        <ele>1044.4000000000001</ele>
        <time>2003-04-15T10:49:22Z</time>
      </trkpt>
      <trkpt lat="30.562848038971424" lon="-5.57861496694386">
        <ele>1045.2</ele>
        <time>2003-04-15T10:49:26Z</time>
      </trkpt>
      <trkpt lat="30.562362978234887" lon="-5.577963022515178">
        <ele>1045.5</ele>
        <time>2003-04-15T10:49:34Z</time>
      </trkpt>
      <trkpt lat="30.56176501326263" lon="-5.577134974300861">
        <ele>1046.4000000000001</ele>
        <time>2003-04-15T10:49:42Z</time>
      </trkpt>
      <trkpt lat="30.561156990006566" lon="-5.5762920062989">
        <ele>1046.5</ele>
        <time>2003-04-15T10:49:49Z</time>
      </trkpt>
      <trkpt lat="30.560582997277379" lon="-5.575458006933332">
        <ele>1048.2</ele>
        <time>2003-04-15T10:49:57Z</time>
      </trkpt>
      <trkpt lat="30.560461962595582" lon="-5.575287016108632">
        <ele>1048.3</ele>
        <time>2003-04-15T10:49:58Z</time>
      </trkpt>
      <trkpt lat="30.560372024774551" lon="-5.575158018618822">
        <ele>1048.4000000000001</ele>
        <time>2003-04-15T10:50:01Z</time>
      </trkpt>
      <trkpt lat="30.560147976502776" lon="-5.574828023090959">
        <ele>1049.4000000000001</ele>
        <time>2003-04-15T10:50:05Z</time>
      </trkpt>
      <trkpt lat="30.559923006221652" lon="-5.574502972885966">
        <ele>1050.4000000000001</ele>
        <time>2003-04-15T10:50:08Z</time>
      </trkpt>
      <trkpt lat="30.559341972693801" lon="-5.573637038469315">
        <ele>1047.5</ele>
        <time>2003-04-15T10:50:16Z</time>
      </trkpt>
      <trkpt lat="30.559088001027703" lon="-5.57324199937284">
        <ele>1049.3</ele>
        <time>2003-04-15T10:50:20Z</time>
      </trkpt>
      <trkpt lat="30.55906000547111" lon="-5.573142003268004">
        <ele>1048.5</ele>
        <time>2003-04-15T10:50:20Z</time>
      </trkpt>
      <trkpt lat="30.559007031843066" lon="-5.572952991351485">
        <ele>1049</ele>
        <time>2003-04-15T10:50:23Z</time>
      </trkpt>
      <trkpt lat="30.558912986889482" lon="-5.572789963334799">
        <ele>1049.7</ele>
        <time>2003-04-15T10:50:24Z</time>
      </trkpt>
      <trkpt lat="30.558794969692826" lon="-5.572717962786555">
        <ele>1050.3</ele>
        <time>2003-04-15T10:50:27Z</time>
      </trkpt>
      <trkpt lat="30.558707965537906" lon="-5.572688039392233">
        <ele>1049.5999999999999</ele>
        <time>2003-04-15T10:50:28Z</time>
      </trkpt>
      <trkpt lat="30.558618027716875" lon="-5.572604974731803">
        <ele>1051</ele>
        <time>2003-04-15T10:50:31Z</time>
      </trkpt>
      <trkpt lat="30.558528006076813" lon="-5.572462985292077">
        <ele>1051.5</ele>
        <time>2003-04-15T10:50:32Z</time>
      </trkpt>
      <trkpt lat="30.558417029678822" lon="-5.572280008345842">
        <ele>1051.7</ele>
        <time>2003-04-15T10:50:35Z</time>
      </trkpt>
      <trkpt lat="30.558232041075826" lon="-5.571957975625992">
        <ele>1052.0999999999999</ele>
        <time>2003-04-15T10:50:38Z</time>
      </trkpt>
      <trkpt lat="30.558121986687183" lon="-5.571784973144531">
        <ele>1052.5999999999999</ele>
        <time>2003-04-15T10:50:40Z</time>
      </trkpt>
      <trkpt lat="30.558038000017405" lon="-5.57169302366674">
        <ele>1051.5</ele>
        <time>2003-04-15T10:50:42Z</time>
      </trkpt>
      <trkpt lat="30.557887963950634" lon="-5.571480039507151">
        <ele>1052.3</ele>
        <time>2003-04-15T10:50:44Z</time>
      </trkpt>
      <trkpt lat="30.55738303810358" lon="-5.570732960477471">
        <ele>1053.3</ele>
        <time>2003-04-15T10:50:54Z</time>
      </trkpt>
      <trkpt lat="30.556692034006119" lon="-5.570047991350293">
        <ele>1055.5</ele>
        <time>2003-04-15T10:51:03Z</time>
      </trkpt>
      <trkpt lat="30.555936992168427" lon="-5.569317005574703">
        <ele>1054.5</ele>
        <time>2003-04-15T10:51:14Z</time>
      </trkpt>
      <trkpt lat="30.555247999727726" lon="-5.568637987598777">
        <ele>1056.4000000000001</ele>
        <time>2003-04-15T10:51:23Z</time>
      </trkpt>
      <trkpt lat="30.554775008931756" lon="-5.56817002594471">
        <ele>1055.9000000000001</ele>
        <time>2003-04-15T10:51:30Z</time>
      </trkpt>
      <trkpt lat="30.554049974307418" lon="-5.567465024068952">
        <ele>1055.4000000000001</ele>
        <time>2003-04-15T10:51:37Z</time>
      </trkpt>
      <trkpt lat="30.553278001025319" lon="-5.566700007766485">
        <ele>1054.9000000000001</ele>
        <time>2003-04-15T10:51:46Z</time>
      </trkpt>
      <trkpt lat="30.552554978057742" lon="-5.565983019769192">
        <ele>1053.7</ele>
        <time>2003-04-15T10:51:54Z</time>
      </trkpt>
      <trkpt lat="30.552043011412024" lon="-5.565495025366545">
        <ele>1053.0999999999999</ele>
        <time>2003-04-15T10:52:01Z</time>
      </trkpt>
      <trkpt lat="30.551852993667126" lon="-5.56529201567173">
        <ele>1052.7</ele>
        <time>2003-04-15T10:52:04Z</time>
      </trkpt>
      <trkpt lat="30.551159977912903" lon="-5.564609980210662">
        <ele>1052</ele>
        <time>2003-04-15T10:52:15Z</time>
      </trkpt>
      <trkpt lat="30.550445001572371" lon="-5.563898021355271">
        <ele>1050.8</ele>
        <time>2003-04-15T10:52:24Z</time>
      </trkpt>
      <trkpt lat="30.550028001889586" lon="-5.563504993915558">
        <ele>1050.5</ele>
        <time>2003-04-15T10:52:31Z</time>
      </trkpt>
      <trkpt lat="30.549719966948032" lon="-5.563202993944287">
        <ele>1050.5</ele>
        <time>2003-04-15T10:52:36Z</time>
      </trkpt>
      <trkpt lat="30.549547970294952" lon="-5.563016999512911">
        <ele>1050.5999999999999</ele>
        <time>2003-04-15T10:52:39Z</time>
      </trkpt>
      <trkpt lat="30.549459960311651" lon="-5.562927983701229">
        <ele>1050.7</ele>
        <time>2003-04-15T10:52:43Z</time>
      </trkpt>
      <trkpt lat="30.549342026934028" lon="-5.562818013131619">
        <ele>1050.3</ele>
        <time>2003-04-15T10:52:44Z</time>
      </trkpt>
      <trkpt lat="30.549198025837541" lon="-5.562684992328286">
        <ele>1050.2</ele>
        <time>2003-04-15T10:52:47Z</time>
      </trkpt>
      <trkpt lat="30.54881296120584" lon="-5.562300011515617">
        <ele>1050.5999999999999</ele>
        <time>2003-04-15T10:52:51Z</time>
      </trkpt>
      <trkpt lat="30.548072000965476" lon="-5.561591992154717">
        <ele>1050</ele>
        <time>2003-04-15T10:53:01Z</time>
      </trkpt>
      <trkpt lat="30.547346966341138" lon="-5.560857988893986">
        <ele>1049.8</ele>
        <time>2003-04-15T10:53:10Z</time>
      </trkpt>
      <trkpt lat="30.547255016863346" lon="-5.560766961425543">
        <ele>1050.0999999999999</ele>
        <time>2003-04-15T10:53:11Z</time>
      </trkpt>
      <trkpt lat="30.547159966081381" lon="-5.560666965320706">
        <ele>1049.9000000000001</ele>
        <time>2003-04-15T10:53:14Z</time>
      </trkpt>
      <trkpt lat="30.546928038820624" lon="-5.560445012524724">
        <ele>1050.7</ele>
        <time>2003-04-15T10:53:21Z</time>
      </trkpt>
      <trkpt lat="30.546789988875389" lon="-5.560307968407869">
        <ele>1050.3</ele>
        <time>2003-04-15T10:53:22Z</time>
      </trkpt>
      <trkpt lat="30.546487988904119" lon="-5.560013009235263">
        <ele>1049.0999999999999</ele>
        <time>2003-04-15T10:53:26Z</time>
      </trkpt>
      <trkpt lat="30.54621297866106" lon="-5.559747973456979">
        <ele>1049.9000000000001</ele>
        <time>2003-04-15T10:53:30Z</time>
      </trkpt>
      <trkpt lat="30.545500013977289" lon="-5.559044983237982">
        <ele>1048.9000000000001</ele>
        <time>2003-04-15T10:53:41Z</time>
      </trkpt>
      <trkpt lat="30.545036997646093" lon="-5.558601999655366">
        <ele>1047.2</ele>
        <time>2003-04-15T10:53:49Z</time>
      </trkpt>
      <trkpt lat="30.54496499709785" lon="-5.558535028249025">
        <ele>1047.0999999999999</ele>
        <time>2003-04-15T10:53:51Z</time>
      </trkpt>
      <trkpt lat="30.544855026528239" lon="-5.558441989123821">
        <ele>1047.9000000000001</ele>
        <time>2003-04-15T10:53:52Z</time>
      </trkpt>
      <trkpt lat="30.544712031260133" lon="-5.558320032432675">
        <ele>1048</ele>
        <time>2003-04-15T10:53:55Z</time>
      </trkpt>
      <trkpt lat="30.543992025777698" lon="-5.557640008628368">
        <ele>1045.3</ele>
        <time>2003-04-15T10:54:04Z</time>
      </trkpt>
      <trkpt lat="30.54391298443079" lon="-5.557562978938222">
        <ele>1045.8</ele>
        <time>2003-04-15T10:54:05Z</time>
      </trkpt>
      <trkpt lat="30.543473018333316" lon="-5.557131981477141">
        <ele>1045.0999999999999</ele>
        <time>2003-04-15T10:54:12Z</time>
      </trkpt>
      <trkpt lat="30.543400011956692" lon="-5.557053023949266">
        <ele>1044.5999999999999</ele>
        <time>2003-04-15T10:54:14Z</time>
      </trkpt>
      <trkpt lat="30.543273026123643" lon="-5.556953027844429">
        <ele>1044</ele>
        <time>2003-04-15T10:54:16Z</time>
      </trkpt>
      <trkpt lat="30.543146962299943" lon="-5.556850014254451">
        <ele>1044.7</ele>
        <time>2003-04-15T10:54:19Z</time>
      </trkpt>
      <trkpt lat="30.543002039194107" lon="-5.556697966530919">
        <ele>1044.0999999999999</ele>
        <time>2003-04-15T10:54:20Z</time>
      </trkpt>
      <trkpt lat="30.542764998972416" lon="-5.556481964886189">
        <ele>1043.5999999999999</ele>
        <time>2003-04-15T10:54:23Z</time>
      </trkpt>
      <trkpt lat="30.542314974591136" lon="-5.5560979899019">
        <ele>1043.2</ele>
        <time>2003-04-15T10:54:28Z</time>
      </trkpt>
      <trkpt lat="30.541577031835914" lon="-5.555445039644837">
        <ele>1043.0999999999999</ele>
        <time>2003-04-15T10:54:36Z</time>
      </trkpt>
      <trkpt lat="30.540853003039956" lon="-5.554777001962066">
        <ele>1041.3</ele>
        <time>2003-04-15T10:54:45Z</time>
      </trkpt>
      <trkpt lat="30.540758036077023" lon="-5.554669965058565">
        <ele>1040.7</ele>
        <time>2003-04-15T10:54:46Z</time>
      </trkpt>
      <trkpt lat="30.540634989738464" lon="-5.554587990045548">
        <ele>1041.8</ele>
        <time>2003-04-15T10:54:49Z</time>
      </trkpt>
      <trkpt lat="30.540437009185553" lon="-5.554444994777441">
        <ele>1040.2</ele>
        <time>2003-04-15T10:54:51Z</time>
      </trkpt>
      <trkpt lat="30.540385041385889" lon="-5.554347010329366">
        <ele>1039.7</ele>
        <time>2003-04-15T10:54:55Z</time>
      </trkpt>
      <trkpt lat="30.540286973118782" lon="-5.554278027266264">
        <ele>1039.9000000000001</ele>
        <time>2003-04-15T10:54:58Z</time>
      </trkpt>
      <trkpt lat="30.540192006155849" lon="-5.554196974262595">
        <ele>1039.7</ele>
        <time>2003-04-15T10:54:59Z</time>
      </trkpt>
      <trkpt lat="30.540039958432317" lon="-5.554052973166108">
        <ele>1038.9000000000001</ele>
        <time>2003-04-15T10:55:03Z</time>
      </trkpt>
      <trkpt lat="30.539933005347848" lon="-5.553951971232891">
        <ele>1039.3</ele>
        <time>2003-04-15T10:55:06Z</time>
      </trkpt>
      <trkpt lat="30.539823034778237" lon="-5.553837977349758">
        <ele>1039.5</ele>
        <time>2003-04-15T10:55:09Z</time>
      </trkpt>
      <trkpt lat="30.53972203284502" lon="-5.553757008165121">
        <ele>1038.8</ele>
        <time>2003-04-15T10:55:10Z</time>
      </trkpt>
      <trkpt lat="30.53959303535521" lon="-5.553652988746762">
        <ele>1040</ele>
        <time>2003-04-15T10:55:13Z</time>
      </trkpt>
      <trkpt lat="30.53937996737659" lon="-5.553455008193851">
        <ele>1039.5999999999999</ele>
        <time>2003-04-15T10:55:16Z</time>
      </trkpt>
      <trkpt lat="30.539092971011996" lon="-5.553198019042611">
        <ele>1039.2</ele>
        <time>2003-04-15T10:55:20Z</time>
      </trkpt>
      <trkpt lat="30.53901300765574" lon="-5.553125012665987">
        <ele>1039.2</ele>
        <time>2003-04-15T10:55:21Z</time>
      </trkpt>
      <trkpt lat="30.538238016888499" lon="-5.552457980811596">
        <ele>1037</ele>
        <time>2003-04-15T10:55:29Z</time>
      </trkpt>
      <trkpt lat="30.538161993026733" lon="-5.552386986091733">
        <ele>1036.9000000000001</ele>
        <time>2003-04-15T10:55:30Z</time>
      </trkpt>
      <trkpt lat="30.538052022457123" lon="-5.552220018580556">
        <ele>1035.9000000000001</ele>
        <time>2003-04-15T10:55:33Z</time>
      </trkpt>
      <trkpt lat="30.537971975281835" lon="-5.552152041345835">
        <ele>1036.3</ele>
        <time>2003-04-15T10:55:33Z</time>
      </trkpt>
      <trkpt lat="30.537358000874519" lon="-5.551617024466395">
        <ele>1035.9000000000001</ele>
        <time>2003-04-15T10:55:40Z</time>
      </trkpt>
      <trkpt lat="30.536609999835491" lon="-5.550946975126863">
        <ele>1034.8</ele>
        <time>2003-04-15T10:55:48Z</time>
      </trkpt>
      <trkpt lat="30.5359429679811" lon="-5.550378011539578">
        <ele>1033.7</ele>
        <time>2003-04-15T10:55:56Z</time>
      </trkpt>
      <trkpt lat="30.535811958834529" lon="-5.550268040969968">
        <ele>1033.2</ele>
        <time>2003-04-15T10:55:57Z</time>
      </trkpt>
      <trkpt lat="30.53544701077044" lon="-5.549926981329918">
        <ele>1032.4000000000001</ele>
        <time>2003-04-15T10:56:04Z</time>
      </trkpt>
      <trkpt lat="30.535307032987475" lon="-5.549812987446785">
        <ele>1033.4000000000001</ele>
        <time>2003-04-15T10:56:06Z</time>
      </trkpt>
      <trkpt lat="30.534939989447594" lon="-5.549472011625767">
        <ele>1032.7</ele>
        <time>2003-04-15T10:56:11Z</time>
      </trkpt>
      <trkpt lat="30.534155024215579" lon="-5.548783019185066">
        <ele>1033.4000000000001</ele>
        <time>2003-04-15T10:56:20Z</time>
      </trkpt>
      <trkpt lat="30.533593017607927" lon="-5.548304999247193">
        <ele>1033.3</ele>
        <time>2003-04-15T10:56:27Z</time>
      </trkpt>
      <trkpt lat="30.533301997929811" lon="-5.548023032024503">
        <ele>1032.9000000000001</ele>
        <time>2003-04-15T10:56:31Z</time>
      </trkpt>
      <trkpt lat="30.533218011260033" lon="-5.54795203730464">
        <ele>1032.7</ele>
        <time>2003-04-15T10:56:34Z</time>
      </trkpt>
      <trkpt lat="30.533094964921474" lon="-5.547857992351055">
        <ele>1033.3</ele>
        <time>2003-04-15T10:56:35Z</time>
      </trkpt>
      <trkpt lat="30.532945012673736" lon="-5.547733018174768">
        <ele>1033.5999999999999</ele>
        <time>2003-04-15T10:56:38Z</time>
      </trkpt>
      <trkpt lat="30.53246196359396" lon="-5.5473099835217">
        <ele>1033.4000000000001</ele>
        <time>2003-04-15T10:56:43Z</time>
      </trkpt>
      <trkpt lat="30.531704993918538" lon="-5.546632977202535">
        <ele>1033.0999999999999</ele>
        <time>2003-04-15T10:56:53Z</time>
      </trkpt>
      <trkpt lat="30.5313650239259" lon="-5.546374982222915">
        <ele>1033.9000000000001</ele>
        <time>2003-04-15T10:56:57Z</time>
      </trkpt>
      <trkpt lat="30.530824977904558" lon="-5.546137019991875">
        <ele>1032.8</ele>
        <time>2003-04-15T10:57:02Z</time>
      </trkpt>
      <trkpt lat="30.530277974903584" lon="-5.545902997255325">
        <ele>1032.3</ele>
        <time>2003-04-15T10:57:09Z</time>
      </trkpt>
      <trkpt lat="30.5299680121243" lon="-5.545769976451993">
        <ele>1031.9000000000001</ele>
        <time>2003-04-15T10:57:13Z</time>
      </trkpt>
      <trkpt lat="30.529640028253198" lon="-5.545614995062351">
        <ele>1031.4000000000001</ele>
        <time>2003-04-15T10:57:17Z</time>
      </trkpt>
      <trkpt lat="30.529397958889604" lon="-5.545505024492741">
        <ele>1031.2</ele>
        <time>2003-04-15T10:57:20Z</time>
      </trkpt>
      <trkpt lat="30.529042985290289" lon="-5.545352976769209">
        <ele>1031.2</ele>
        <time>2003-04-15T10:57:24Z</time>
      </trkpt>
      <trkpt lat="30.528666973114014" lon="-5.545185003429651">
        <ele>1030.5999999999999</ele>
        <time>2003-04-15T10:57:28Z</time>
      </trkpt>
      <trkpt lat="30.528385005891323" lon="-5.545057011768222">
        <ele>1030.0999999999999</ele>
        <time>2003-04-15T10:57:31Z</time>
      </trkpt>
      <trkpt lat="30.527542037889361" lon="-5.544688040390611">
        <ele>1029.9000000000001</ele>
        <time>2003-04-15T10:57:39Z</time>
      </trkpt>
      <trkpt lat="30.526867965236306" lon="-5.544372964650393">
        <ele>1028.5999999999999</ele>
        <time>2003-04-15T10:57:45Z</time>
      </trkpt>
      <trkpt lat="30.526771992444992" lon="-5.54432300850749">
        <ele>1028.7</ele>
        <time>2003-04-15T10:57:48Z</time>
      </trkpt>
      <trkpt lat="30.526630003005266" lon="-5.544272968545556">
        <ele>1028.3</ele>
        <time>2003-04-15T10:57:50Z</time>
      </trkpt>
      <trkpt lat="30.526457000523806" lon="-5.544202979654074">
        <ele>1028.2</ele>
        <time>2003-04-15T10:57:52Z</time>
      </trkpt>
      <trkpt lat="30.525970011949539" lon="-5.543984966352582">
        <ele>1028.7</ele>
        <time>2003-04-15T10:57:56Z</time>
      </trkpt>
      <trkpt lat="30.52513500675559" lon="-5.543611971661449">
        <ele>1027.2</ele>
        <time>2003-04-15T10:58:04Z</time>
      </trkpt>
      <trkpt lat="30.524972984567285" lon="-5.543562015518546">
        <ele>1027.3</ele>
        <time>2003-04-15T10:58:07Z</time>
      </trkpt>
      <trkpt lat="30.524739967659116" lon="-5.543454978615046">
        <ele>1026.8</ele>
        <time>2003-04-15T10:58:10Z</time>
      </trkpt>
      <trkpt lat="30.524481972679496" lon="-5.543326986953616">
        <ele>1026.3</ele>
        <time>2003-04-15T10:58:12Z</time>
      </trkpt>
      <trkpt lat="30.524128004908562" lon="-5.543194971978664">
        <ele>1025.4000000000001</ele>
        <time>2003-04-15T10:58:17Z</time>
      </trkpt>
      <trkpt lat="30.52354303188622" lon="-5.54292700253427">
        <ele>1025</ele>
        <time>2003-04-15T10:58:22Z</time>
      </trkpt>
      <trkpt lat="30.523338010534644" lon="-5.54281996563077">
        <ele>1024.9000000000001</ele>
        <time>2003-04-15T10:58:25Z</time>
      </trkpt>
      <trkpt lat="30.523137012496591" lon="-5.542730027809739">
        <ele>1024.9000000000001</ele>
        <time>2003-04-15T10:58:26Z</time>
      </trkpt>
      <trkpt lat="30.522777009755373" lon="-5.542576974257827">
        <ele>1023.6</ele>
        <time>2003-04-15T10:58:30Z</time>
      </trkpt>
      <trkpt lat="30.522669972851872" lon="-5.54251997731626">
        <ele>1022.7</ele>
        <time>2003-04-15T10:58:33Z</time>
      </trkpt>
      <trkpt lat="30.522480038926005" lon="-5.542442025616765">
        <ele>1022.7</ele>
        <time>2003-04-15T10:58:35Z</time>
      </trkpt>
      <trkpt lat="30.522292032837868" lon="-5.542357033118606">
        <ele>1022.9</ele>
        <time>2003-04-15T10:58:38Z</time>
      </trkpt>
      <trkpt lat="30.522163035348058" lon="-5.542301964014769">
        <ele>1022.2</ele>
        <time>2003-04-15T10:58:41Z</time>
      </trkpt>
      <trkpt lat="30.52193203009665" lon="-5.542206997051835">
        <ele>1024</ele>
        <time>2003-04-15T10:58:44Z</time>
      </trkpt>
      <trkpt lat="30.521646961569786" lon="-5.542083028703928">
        <ele>1023.7</ele>
        <time>2003-04-15T10:58:46Z</time>
      </trkpt>
      <trkpt lat="30.521014966070652" lon="-5.541795026510954">
        <ele>1022</ele>
        <time>2003-04-15T10:58:53Z</time>
      </trkpt>
      <trkpt lat="30.520121958106756" lon="-5.541392024606466">
        <ele>1022.5</ele>
        <time>2003-04-15T10:59:04Z</time>
      </trkpt>
      <trkpt lat="30.51924797706306" lon="-5.541009977459908">
        <ele>1022.2</ele>
        <time>2003-04-15T10:59:13Z</time>
      </trkpt>
      <trkpt lat="30.51851699128747" lon="-5.540718035772443">
        <ele>1022</ele>
        <time>2003-04-15T10:59:21Z</time>
      </trkpt>
      <trkpt lat="30.518186995759606" lon="-5.540602030232549">
        <ele>1021</ele>
        <time>2003-04-15T10:59:25Z</time>
      </trkpt>
      <trkpt lat="30.518069984391332" lon="-5.540540004149079">
        <ele>1019.4</ele>
        <time>2003-04-15T10:59:28Z</time>
      </trkpt>
      <trkpt lat="30.517881978303194" lon="-5.540472026914358">
        <ele>1019.1</ele>
        <time>2003-04-15T10:59:32Z</time>
      </trkpt>
      <trkpt lat="30.517643010243773" lon="-5.540383011102676">
        <ele>1019.1</ele>
        <time>2003-04-15T10:59:33Z</time>
      </trkpt>
      <trkpt lat="30.516952006146312" lon="-5.540121998637915">
        <ele>1019.7</ele>
        <time>2003-04-15T10:59:42Z</time>
      </trkpt>
      <trkpt lat="30.516832983121276" lon="-5.540055027231574">
        <ele>1019.6</ele>
        <time>2003-04-15T10:59:43Z</time>
      </trkpt>
      <trkpt lat="30.516691999509931" lon="-5.540062990039587">
        <ele>1019.3</ele>
        <time>2003-04-15T10:59:46Z</time>
      </trkpt>
      <trkpt lat="30.516552021726966" lon="-5.540001969784498">
        <ele>1019.9</ele>
        <time>2003-04-15T10:59:47Z</time>
      </trkpt>
      <trkpt lat="30.516297966241837" lon="-5.539897028356791">
        <ele>1020.1</ele>
        <time>2003-04-15T10:59:51Z</time>
      </trkpt>
      <trkpt lat="30.515887001529336" lon="-5.53976995870471">
        <ele>1020.6</ele>
        <time>2003-04-15T10:59:55Z</time>
      </trkpt>
      <trkpt lat="30.515597993507981" lon="-5.539646996185184">
        <ele>1020.1</ele>
        <time>2003-04-15T10:59:58Z</time>
      </trkpt>
      <trkpt lat="30.515306973829865" lon="-5.539541970938444">
        <ele>1020</ele>
        <time>2003-04-15T11:00:00Z</time>
      </trkpt>
      <trkpt lat="30.515106981620193" lon="-5.539469970390201">
        <ele>1019.9</ele>
        <time>2003-04-15T11:00:03Z</time>
      </trkpt>
      <trkpt lat="30.514483032748103" lon="-5.53925296291709">
        <ele>1019.5</ele>
        <time>2003-04-15T11:00:10Z</time>
      </trkpt>
      <trkpt lat="30.514383036643267" lon="-5.539212981238961">
        <ele>1019.4</ele>
        <time>2003-04-15T11:00:13Z</time>
      </trkpt>
      <trkpt lat="30.514210034161806" lon="-5.53914500400424">
        <ele>1019.7</ele>
        <time>2003-04-15T11:00:45Z</time>
      </trkpt>
      <trkpt lat="30.514059998095036" lon="-5.539087001234293">
        <ele>1019.5</ele>
        <time>2003-04-15T11:00:48Z</time>
      </trkpt>
      <trkpt lat="30.513856988400221" lon="-5.539007959887385">
        <ele>1019.4</ele>
        <time>2003-04-15T11:00:50Z</time>
      </trkpt>
      <trkpt lat="30.513548031449318" lon="-5.538878040388227">
        <ele>1019.3</ele>
        <time>2003-04-15T11:00:54Z</time>
      </trkpt>
      <trkpt lat="30.512672960758209" lon="-5.538575034588575">
        <ele>1016.5</ele>
        <time>2003-04-15T11:01:05Z</time>
      </trkpt>
      <trkpt lat="30.511808032169938" lon="-5.538258031010628">
        <ele>1015</ele>
        <time>2003-04-15T11:01:16Z</time>
      </trkpt>
      <trkpt lat="30.511339986696839" lon="-5.538101959973574">
        <ele>1014.3</ele>
        <time>2003-04-15T11:01:24Z</time>
      </trkpt>
      <trkpt lat="30.511037986725569" lon="-5.537972962483764">
        <ele>1014.4</ele>
        <time>2003-04-15T11:01:28Z</time>
      </trkpt>
      <trkpt lat="30.510874958708882" lon="-5.537927029654384">
        <ele>1014</ele>
        <time>2003-04-15T11:01:30Z</time>
      </trkpt>
      <trkpt lat="30.509993014857173" lon="-5.537587981671095">
        <ele>1013.5</ele>
        <time>2003-04-15T11:01:39Z</time>
      </trkpt>
      <trkpt lat="30.509714987128973" lon="-5.537495026364923">
        <ele>1013.6</ele>
        <time>2003-04-15T11:01:43Z</time>
      </trkpt>
      <trkpt lat="30.509551959112287" lon="-5.537497038021684">
        <ele>1013.1</ele>
        <time>2003-04-15T11:01:44Z</time>
      </trkpt>
      <trkpt lat="30.509394966065884" lon="-5.537454960867763">
        <ele>1012.4</ele>
        <time>2003-04-15T11:01:47Z</time>
      </trkpt>
      <trkpt lat="30.50893203355372" lon="-5.5372129753232">
        <ele>1011.9</ele>
        <time>2003-04-15T11:01:53Z</time>
      </trkpt>
      <trkpt lat="30.508707985281944" lon="-5.537051958963275">
        <ele>1010</ele>
        <time>2003-04-15T11:01:55Z</time>
      </trkpt>
      <trkpt lat="30.50861201249063" lon="-5.53691198118031">
        <ele>1009.9</ele>
        <time>2003-04-15T11:01:58Z</time>
      </trkpt>
      <trkpt lat="30.508455019444227" lon="-5.536847021430731">
        <ele>1009</ele>
        <time>2003-04-15T11:01:59Z</time>
      </trkpt>
      <trkpt lat="30.508302971720695" lon="-5.536763034760952">
        <ele>1009.2</ele>
        <time>2003-04-15T11:02:02Z</time>
      </trkpt>
      <trkpt lat="30.507467966526747" lon="-5.536236986517906">
        <ele>1006.6</ele>
        <time>2003-04-15T11:02:13Z</time>
      </trkpt>
      <trkpt lat="30.507164960727096" lon="-5.53600799292326">
        <ele>1005.9</ele>
        <time>2003-04-15T11:02:17Z</time>
      </trkpt>
      <trkpt lat="30.5065499804914" lon="-5.535468030720949">
        <ele>1005.9</ele>
        <time>2003-04-15T11:02:25Z</time>
      </trkpt>
      <trkpt lat="30.506302965804935" lon="-5.535248005762696">
        <ele>1005.7</ele>
        <time>2003-04-15T11:02:30Z</time>
      </trkpt>
      <trkpt lat="30.506132980808616" lon="-5.535093024373055">
        <ele>1005.4</ele>
        <time>2003-04-15T11:02:34Z</time>
      </trkpt>
      <trkpt lat="30.505944974720478" lon="-5.534927984699607">
        <ele>1004.5</ele>
        <time>2003-04-15T11:02:37Z</time>
      </trkpt>
      <trkpt lat="30.505571980029345" lon="-5.534636965021491">
        <ele>1004.2</ele>
        <time>2003-04-15T11:02:42Z</time>
      </trkpt>
      <trkpt lat="30.504945013672113" lon="-5.534324990585446">
        <ele>1003.1</ele>
        <time>2003-04-15T11:02:51Z</time>
      </trkpt>
      <trkpt lat="30.504767987877131" lon="-5.534298000857234">
        <ele>1002.9</ele>
        <time>2003-04-15T11:02:52Z</time>
      </trkpt>
      <trkpt lat="30.504591967910528" lon="-5.534309986978769">
        <ele>1002.8</ele>
        <time>2003-04-15T11:02:55Z</time>
      </trkpt>
      <trkpt lat="30.504436986520886" lon="-5.534357009455562">
        <ele>1003.3</ele>
        <time>2003-04-15T11:02:56Z</time>
      </trkpt>
      <trkpt lat="30.504312012344599" lon="-5.53441702388227">
        <ele>1003</ele>
        <time>2003-04-15T11:02:59Z</time>
      </trkpt>
      <trkpt lat="30.504183014854789" lon="-5.534451976418495">
        <ele>1002.3</ele>
        <time>2003-04-15T11:03:00Z</time>
      </trkpt>
      <trkpt lat="30.504058040678501" lon="-5.534496987238526">
        <ele>1002.5</ele>
        <time>2003-04-15T11:03:03Z</time>
      </trkpt>
      <trkpt lat="30.503952009603381" lon="-5.534521965309978">
        <ele>1001.8</ele>
        <time>2003-04-15T11:03:05Z</time>
      </trkpt>
      <trkpt lat="30.503829969093204" lon="-5.534526994451881">
        <ele>1001.2</ele>
        <time>2003-04-15T11:03:08Z</time>
      </trkpt>
      <trkpt lat="30.503695020452142" lon="-5.534494975581765">
        <ele>1001</ele>
        <time>2003-04-15T11:03:09Z</time>
      </trkpt>
      <trkpt lat="30.503557976335287" lon="-5.534420041367412">
        <ele>1001.5</ele>
        <time>2003-04-15T11:03:12Z</time>
      </trkpt>
      <trkpt lat="30.503395032137632" lon="-5.534362038597465">
        <ele>1001.4</ele>
        <time>2003-04-15T11:03:14Z</time>
      </trkpt>
      <trkpt lat="30.503229992464185" lon="-5.534337982535362">
        <ele>1002.3</ele>
        <time>2003-04-15T11:03:16Z</time>
      </trkpt>
      <trkpt lat="30.503108035773039" lon="-5.534321973100305">
        <ele>1003.1</ele>
        <time>2003-04-15T11:03:18Z</time>
      </trkpt>
      <trkpt lat="30.502978032454848" lon="-5.534311998635531">
        <ele>1001.9</ele>
        <time>2003-04-15T11:03:20Z</time>
      </trkpt>
      <trkpt lat="30.502790026366711" lon="-5.534282997250557">
        <ele>1002.1</ele>
        <time>2003-04-15T11:03:23Z</time>
      </trkpt>
      <trkpt lat="30.502360034734011" lon="-5.534191969782114">
        <ele>1001.8</ele>
        <time>2003-04-15T11:03:30Z</time>
      </trkpt>
      <trkpt lat="30.502085024490952" lon="-5.53416196256876">
        <ele>1000.7</ele>
        <time>2003-04-15T11:03:32Z</time>
      </trkpt>
      <trkpt lat="30.50182200036943" lon="-5.534192975610495">
        <ele>999.79999999999995</ele>
        <time>2003-04-15T11:03:35Z</time>
      </trkpt>
      <trkpt lat="30.501525029540062" lon="-5.534273022785783">
        <ele>998.70000000000005</ele>
        <time>2003-04-15T11:03:39Z</time>
      </trkpt>
      <trkpt lat="30.501405000686646" lon="-5.534311998635531">
        <ele>998.5</ele>
        <time>2003-04-15T11:03:42Z</time>
      </trkpt>
      <trkpt lat="30.501282038167119" lon="-5.534364972263575">
        <ele>997.70000000000005</ele>
        <time>2003-04-15T11:03:45Z</time>
      </trkpt>
      <trkpt lat="30.50113501958549" lon="-5.53439699113369">
        <ele>996.79999999999995</ele>
        <time>2003-04-15T11:03:47Z</time>
      </trkpt>
      <trkpt lat="30.501033011823893" lon="-5.534443007782102">
        <ele>997.5</ele>
        <time>2003-04-15T11:03:50Z</time>
      </trkpt>
      <trkpt lat="30.500932009890676" lon="-5.534466980025172">
        <ele>999.70000000000005</ele>
        <time>2003-04-15T11:03:51Z</time>
      </trkpt>
      <trkpt lat="30.500796977430582" lon="-5.534445019438863">
        <ele>999.70000000000005</ele>
        <time>2003-04-15T11:03:54Z</time>
      </trkpt>
      <trkpt lat="30.500526996329427" lon="-5.534415012225509">
        <ele>999.60000000000002</ele>
        <time>2003-04-15T11:03:58Z</time>
      </trkpt>
      <trkpt lat="30.500181997194886" lon="-5.534462034702301">
        <ele>998.89999999999998</ele>
        <time>2003-04-15T11:04:02Z</time>
      </trkpt>
      <trkpt lat="30.49924498423934" lon="-5.534581979736686">
        <ele>998.29999999999995</ele>
        <time>2003-04-15T11:04:14Z</time>
      </trkpt>
      <trkpt lat="30.499053038656712" lon="-5.534609975293279">
        <ele>997.89999999999998</ele>
        <time>2003-04-15T11:04:17Z</time>
      </trkpt>
      <trkpt lat="30.498818010091782" lon="-5.534658003598452">
        <ele>997.5</ele>
        <time>2003-04-15T11:04:21Z</time>
      </trkpt>
      <trkpt lat="30.498711979016662" lon="-5.534688010811806">
        <ele>997.20000000000005</ele>
        <time>2003-04-15T11:04:25Z</time>
      </trkpt>
      <trkpt lat="30.498547023162246" lon="-5.534742996096611">
        <ele>997.10000000000002</ele>
        <time>2003-04-15T11:04:28Z</time>
      </trkpt>
      <trkpt lat="30.498339990153909" lon="-5.534817008301616">
        <ele>996.79999999999995</ele>
        <time>2003-04-15T11:04:30Z</time>
      </trkpt>
      <trkpt lat="30.497764991596341" lon="-5.535001996904612">
        <ele>995.79999999999995</ele>
        <time>2003-04-15T11:04:40Z</time>
      </trkpt>
      <trkpt lat="30.497672958299518" lon="-5.534995039924979">
        <ele>995.70000000000005</ele>
        <time>2003-04-15T11:04:41Z</time>
      </trkpt>
      <trkpt lat="30.497501967474818" lon="-5.534927984699607">
        <ele>994.60000000000002</ele>
        <time>2003-04-15T11:04:52Z</time>
      </trkpt>
      <trkpt lat="30.497361989691854" lon="-5.534857995808125">
        <ele>992.29999999999995</ele>
        <time>2003-04-15T11:04:56Z</time>
      </trkpt>
      <trkpt lat="30.496862009167671" lon="-5.534635037183762">
        <ele>994.39999999999998</ele>
        <time>2003-04-15T11:05:10Z</time>
      </trkpt>
      <trkpt lat="30.496629998087883" lon="-5.534605029970408">
        <ele>994.10000000000002</ele>
        <time>2003-04-15T11:05:14Z</time>
      </trkpt>
      <trkpt lat="30.495679993182421" lon="-5.534520037472248">
        <ele>993.60000000000002</ele>
        <time>2003-04-15T11:05:31Z</time>
      </trkpt>
      <trkpt lat="30.495531968772411" lon="-5.534509979188442">
        <ele>993.5</ele>
        <time>2003-04-15T11:05:33Z</time>
      </trkpt>
      <trkpt lat="30.495274979621172" lon="-5.534520037472248">
        <ele>993.5</ele>
        <time>2003-04-15T11:05:35Z</time>
      </trkpt>
      <trkpt lat="30.494342995807528" lon="-5.534672001376748">
        <ele>993.39999999999998</ele>
        <time>2003-04-15T11:05:46Z</time>
      </trkpt>
      <trkpt lat="30.493474965915084" lon="-5.534808039665222">
        <ele>991.70000000000005</ele>
        <time>2003-04-15T11:05:54Z</time>
      </trkpt>
      <trkpt lat="30.49256301485002" lon="-5.534975007176399">
        <ele>990.20000000000005</ele>
        <time>2003-04-15T11:06:01Z</time>
      </trkpt>
      <trkpt lat="30.49211299046874" lon="-5.535056982189417">
        <ele>990.20000000000005</ele>
        <time>2003-04-15T11:06:05Z</time>
      </trkpt>
      <trkpt lat="30.491866981610656" lon="-5.535102998837829">
        <ele>989.79999999999995</ele>
        <time>2003-04-15T11:06:08Z</time>
      </trkpt>
      <trkpt lat="30.491752987727523" lon="-5.535124959424138">
        <ele>989.70000000000005</ele>
        <time>2003-04-15T11:06:09Z</time>
      </trkpt>
      <trkpt lat="30.491567999124527" lon="-5.535152032971382">
        <ele>989.5</ele>
        <time>2003-04-15T11:06:25Z</time>
      </trkpt>
      <trkpt lat="30.491391979157925" lon="-5.535184973850846">
        <ele>989.70000000000005</ele>
        <time>2003-04-15T11:06:28Z</time>
      </trkpt>
      <trkpt lat="30.49123196862638" lon="-5.5352149810642">
        <ele>989.89999999999998</ele>
        <time>2003-04-15T11:06:29Z</time>
      </trkpt>
      <trkpt lat="30.490772975608706" lon="-5.535297961905599">
        <ele>991.29999999999995</ele>
        <time>2003-04-15T11:06:35Z</time>
      </trkpt>
      <trkpt lat="30.490441974252462" lon="-5.535367028787732">
        <ele>991.39999999999998</ele>
        <time>2003-04-15T11:06:37Z</time>
      </trkpt>
      <trkpt lat="30.489545026794076" lon="-5.535498037934303">
        <ele>990.39999999999998</ele>
        <time>2003-04-15T11:06:44Z</time>
      </trkpt>
      <trkpt lat="30.488797025755048" lon="-5.53555503487587">
        <ele>989.20000000000005</ele>
        <time>2003-04-15T11:06:51Z</time>
      </trkpt>
      <trkpt lat="30.488088000565767" lon="-5.535482028499246">
        <ele>988</ele>
        <time>2003-04-15T11:06:55Z</time>
      </trkpt>
      <trkpt lat="30.487537980079651" lon="-5.535382032394409">
        <ele>987.5</ele>
        <time>2003-04-15T11:06:59Z</time>
      </trkpt>
      <trkpt lat="30.48740697093308" lon="-5.535325035452843">
        <ele>988</ele>
        <time>2003-04-15T11:07:00Z</time>
      </trkpt>
      <trkpt lat="30.487145036458969" lon="-5.535178016871214">
        <ele>988.89999999999998</ele>
        <time>2003-04-15T11:07:03Z</time>
      </trkpt>
      <trkpt lat="30.486510023474693" lon="-5.53467501886189">
        <ele>990.70000000000005</ele>
        <time>2003-04-15T11:07:07Z</time>
      </trkpt>
      <trkpt lat="30.485663032159209" lon="-5.534015027806163">
        <ele>990.10000000000002</ele>
        <time>2003-04-15T11:07:15Z</time>
      </trkpt>
      <trkpt lat="30.484855016693473" lon="-5.533362999558449">
        <ele>988.89999999999998</ele>
        <time>2003-04-15T11:07:22Z</time>
      </trkpt>
      <trkpt lat="30.484393006190658" lon="-5.532969972118735">
        <ele>990.10000000000002</ele>
        <time>2003-04-15T11:07:26Z</time>
      </trkpt>
      <trkpt lat="30.484101986512542" lon="-5.532564958557487">
        <ele>989.20000000000005</ele>
        <time>2003-04-15T11:07:29Z</time>
      </trkpt>
      <trkpt lat="30.483449958264828" lon="-5.531672034412623">
        <ele>986</ele>
        <time>2003-04-15T11:07:34Z</time>
      </trkpt>
      <trkpt lat="30.482972022145987" lon="-5.530984969809651">
        <ele>985.20000000000005</ele>
        <time>2003-04-15T11:07:39Z</time>
      </trkpt>
      <trkpt lat="30.482792984694242" lon="-5.530781960114837">
        <ele>983.89999999999998</ele>
        <time>2003-04-15T11:07:42Z</time>
      </trkpt>
      <trkpt lat="30.48240196891129" lon="-5.530405025929213">
        <ele>985.29999999999995</ele>
        <time>2003-04-15T11:07:46Z</time>
      </trkpt>
      <trkpt lat="30.482093011960387" lon="-5.530200004577637">
        <ele>985.20000000000005</ele>
        <time>2003-04-15T11:07:49Z</time>
      </trkpt>
      <trkpt lat="30.481982035562396" lon="-5.530177960172296">
        <ele>986.20000000000005</ele>
        <time>2003-04-15T11:07:49Z</time>
      </trkpt>
      <trkpt lat="30.481048040091991" lon="-5.530085004866123">
        <ele>984.79999999999995</ele>
        <time>2003-04-15T11:07:57Z</time>
      </trkpt>
      <trkpt lat="30.480056963860989" lon="-5.530011998489499">
        <ele>980.70000000000005</ele>
        <time>2003-04-15T11:08:05Z</time>
      </trkpt>
      <trkpt lat="30.479853032156825" lon="-5.529942009598017">
        <ele>979.89999999999998</ele>
        <time>2003-04-15T11:08:08Z</time>
      </trkpt>
      <trkpt lat="30.479354979470372" lon="-5.529706981033087">
        <ele>977.60000000000002</ele>
        <time>2003-04-15T11:08:13Z</time>
      </trkpt>
      <trkpt lat="30.478772018104792" lon="-5.529340021312237">
        <ele>975.39999999999998</ele>
        <time>2003-04-15T11:08:20Z</time>
      </trkpt>
      <trkpt lat="30.478697000071406" lon="-5.529231978580356">
        <ele>974</ele>
        <time>2003-04-15T11:08:21Z</time>
      </trkpt>
      <trkpt lat="30.478607984259725" lon="-5.529098035767674">
        <ele>971.79999999999995</ele>
        <time>2003-04-15T11:08:24Z</time>
      </trkpt>
      <trkpt lat="30.478272037580609" lon="-5.52855497226119">
        <ele>968.10000000000002</ele>
        <time>2003-04-15T11:08:35Z</time>
      </trkpt>
      <trkpt lat="30.478042038157582" lon="-5.528090028092265">
        <ele>965.39999999999998</ele>
        <time>2003-04-15T11:08:43Z</time>
      </trkpt>
      <trkpt lat="30.477659991011024" lon="-5.527512012049556">
        <ele>962.79999999999995</ele>
        <time>2003-04-15T11:08:52Z</time>
      </trkpt>
      <trkpt lat="30.477531999349594" lon="-5.527402963489294">
        <ele>962.5</ele>
        <time>2003-04-15T11:08:55Z</time>
      </trkpt>
      <trkpt lat="30.477378023788333" lon="-5.527315037325025">
        <ele>961.79999999999995</ele>
        <time>2003-04-15T11:08:56Z</time>
      </trkpt>
      <trkpt lat="30.47670696862042" lon="-5.526925027370453">
        <ele>960.39999999999998</ele>
        <time>2003-04-15T11:09:06Z</time>
      </trkpt>
      <trkpt lat="30.47642701305449" lon="-5.526674995198846">
        <ele>958.79999999999995</ele>
        <time>2003-04-15T11:09:10Z</time>
      </trkpt>
      <trkpt lat="30.476343026384711" lon="-5.526556978002191">
        <ele>957.89999999999998</ele>
        <time>2003-04-15T11:09:11Z</time>
      </trkpt>
      <trkpt lat="30.476053012534976" lon="-5.526102008298039">
        <ele>954.29999999999995</ele>
        <time>2003-04-15T11:09:18Z</time>
      </trkpt>
      <trkpt lat="30.475957961753011" lon="-5.52603998221457">
        <ele>953</ele>
        <time>2003-04-15T11:09:22Z</time>
      </trkpt>
      <trkpt lat="30.475876992568374" lon="-5.525981979444623">
        <ele>952.20000000000005</ele>
        <time>2003-04-15T11:09:26Z</time>
      </trkpt>
      <trkpt lat="30.475762998685241" lon="-5.52595297805965">
        <ele>952.89999999999998</ele>
        <time>2003-04-15T11:09:30Z</time>
      </trkpt>
      <trkpt lat="30.475667025893927" lon="-5.525967981666327">
        <ele>953.39999999999998</ele>
        <time>2003-04-15T11:09:34Z</time>
      </trkpt>
      <trkpt lat="30.475574992597103" lon="-5.525977034121752">
        <ele>953.60000000000002</ele>
        <time>2003-04-15T11:09:37Z</time>
      </trkpt>
      <trkpt lat="30.475359996780753" lon="-5.525978039950132">
        <ele>953.79999999999995</ele>
        <time>2003-04-15T11:09:44Z</time>
      </trkpt>
      <trkpt lat="30.475262012332678" lon="-5.525932023301721">
        <ele>953.79999999999995</ele>
        <time>2003-04-15T11:09:46Z</time>
      </trkpt>
      <trkpt lat="30.475108036771417" lon="-5.525832027196884">
        <ele>954.10000000000002</ele>
        <time>2003-04-15T11:09:50Z</time>
      </trkpt>
      <trkpt lat="30.474634962156415" lon="-5.525717027485371">
        <ele>954.10000000000002</ele>
        <time>2003-04-15T11:10:00Z</time>
      </trkpt>
      <trkpt lat="30.473732985556126" lon="-5.525446962565184">
        <ele>953.5</ele>
        <time>2003-04-15T11:10:13Z</time>
      </trkpt>
      <trkpt lat="30.473450012505054" lon="-5.525332968682051">
        <ele>953.79999999999995</ele>
        <time>2003-04-15T11:10:20Z</time>
      </trkpt>
      <trkpt lat="30.47335303388536" lon="-5.525300027802587">
        <ele>953.5</ele>
        <time>2003-04-15T11:10:26Z</time>
      </trkpt>
      <trkpt lat="30.473253037780523" lon="-5.525259962305427">
        <ele>953.5</ele>
        <time>2003-04-15T11:10:28Z</time>
      </trkpt>
      <trkpt lat="30.473120016977191" lon="-5.52522199228406">
        <ele>954.5</ele>
        <time>2003-04-15T11:10:31Z</time>
      </trkpt>
      <trkpt lat="30.47279798425734" lon="-5.525091988965869">
        <ele>953.89999999999998</ele>
        <time>2003-04-15T11:10:38Z</time>
      </trkpt>
      <trkpt lat="30.472273025661707" lon="-5.524902977049351">
        <ele>953.79999999999995</ele>
        <time>2003-04-15T11:10:46Z</time>
      </trkpt>
      <trkpt lat="30.471897013485432" lon="-5.524768028408289">
        <ele>953.70000000000005</ele>
        <time>2003-04-15T11:10:51Z</time>
      </trkpt>
      <trkpt lat="30.471304999664426" lon="-5.524559989571571">
        <ele>953.29999999999995</ele>
        <time>2003-04-15T11:11:01Z</time>
      </trkpt>
      <trkpt lat="30.470881965011358" lon="-5.524408025667071">
        <ele>953</ele>
        <time>2003-04-15T11:11:06Z</time>
      </trkpt>
      <trkpt lat="30.470524979755282" lon="-5.524281961843371">
        <ele>952.10000000000002</ele>
        <time>2003-04-15T11:11:10Z</time>
      </trkpt>
      <trkpt lat="30.469598025083542" lon="-5.52393201738596">
        <ele>951.20000000000005</ele>
        <time>2003-04-15T11:11:21Z</time>
      </trkpt>
      <trkpt lat="30.469063008204103" lon="-5.523737976327539">
        <ele>951.20000000000005</ele>
        <time>2003-04-15T11:11:28Z</time>
      </trkpt>
      <trkpt lat="30.468814987689257" lon="-5.523648038506508">
        <ele>951</ele>
        <time>2003-04-15T11:11:30Z</time>
      </trkpt>
      <trkpt lat="30.467922985553741" lon="-5.523315025493503">
        <ele>950.79999999999995</ele>
        <time>2003-04-15T11:11:41Z</time>
      </trkpt>
      <trkpt lat="30.467521995306015" lon="-5.523172030225396">
        <ele>950.20000000000005</ele>
        <time>2003-04-15T11:11:45Z</time>
      </trkpt>
      <trkpt lat="30.466941967606544" lon="-5.522955022752285">
        <ele>949.5</ele>
        <time>2003-04-15T11:11:55Z</time>
      </trkpt>
      <trkpt lat="30.466842977330089" lon="-5.522885033860803">
        <ele>949.89999999999998</ele>
        <time>2003-04-15T11:11:57Z</time>
      </trkpt>
      <trkpt lat="30.466722026467323" lon="-5.52270800806582">
        <ele>949.10000000000002</ele>
        <time>2003-04-15T11:12:01Z</time>
      </trkpt>
      <trkpt lat="30.466660000383854" lon="-5.522582028061152">
        <ele>948.70000000000005</ele>
        <time>2003-04-15T11:12:05Z</time>
      </trkpt>
      <trkpt lat="30.466639967635274" lon="-5.522468034178019">
        <ele>948.29999999999995</ele>
        <time>2003-04-15T11:12:08Z</time>
      </trkpt>
      <trkpt lat="30.466671986505389" lon="-5.522325038909912">
        <ele>948</ele>
        <time>2003-04-15T11:12:11Z</time>
      </trkpt>
      <trkpt lat="30.466729989275336" lon="-5.522142983973026">
        <ele>947.70000000000005</ele>
        <time>2003-04-15T11:12:12Z</time>
      </trkpt>
      <trkpt lat="30.466799978166819" lon="-5.521932011470199">
        <ele>947.39999999999998</ele>
        <time>2003-04-15T11:12:15Z</time>
      </trkpt>
      <trkpt lat="30.46708001755178" lon="-5.520906988531351">
        <ele>946.20000000000005</ele>
        <time>2003-04-15T11:12:24Z</time>
      </trkpt>
      <trkpt lat="30.467104995623231" lon="-5.520770028233528">
        <ele>946.10000000000002</ele>
        <time>2003-04-15T11:12:27Z</time>
      </trkpt>
      <trkpt lat="30.467162998393178" lon="-5.520598031580448">
        <ele>978.79999999999995</ele>
        <time>2003-04-15T11:46:35Z</time>
      </trkpt>
      <trkpt lat="30.467191999778152" lon="-5.520723005756736">
        <ele>978.79999999999995</ele>
        <time>2003-04-15T11:46:35Z</time>
      </trkpt>
      <trkpt lat="30.467246985062957" lon="-5.520519996061921">
        <ele>941.10000000000002</ele>
        <time>2003-04-15T11:46:43Z</time>
      </trkpt>
      <trkpt lat="30.467268023639917" lon="-5.520382029935718">
        <ele>948.29999999999995</ele>
        <time>2003-04-15T11:46:44Z</time>
      </trkpt>
      <trkpt lat="30.46729501336813" lon="-5.520229982212186">
        <ele>950.60000000000002</ele>
        <time>2003-04-15T11:46:47Z</time>
      </trkpt>
      <trkpt lat="30.467362990602851" lon="-5.519972993060947">
        <ele>951.79999999999995</ele>
        <time>2003-04-15T11:46:50Z</time>
      </trkpt>
      <trkpt lat="30.467414958402514" lon="-5.519756991416216">
        <ele>952</ele>
        <time>2003-04-15T11:46:51Z</time>
      </trkpt>
      <trkpt lat="30.467504980042577" lon="-5.519233038648963">
        <ele>952.10000000000002</ele>
        <time>2003-04-15T11:46:57Z</time>
      </trkpt>
      <trkpt lat="30.46742501668632" lon="-5.518816960975528">
        <ele>951.29999999999995</ele>
        <time>2003-04-15T11:47:01Z</time>
      </trkpt>
      <trkpt lat="30.467383023351431" lon="-5.518713025376201">
        <ele>951</ele>
        <time>2003-04-15T11:47:02Z</time>
      </trkpt>
      <trkpt lat="30.467323008924723" lon="-5.518623003736138">
        <ele>950.89999999999998</ele>
        <time>2003-04-15T11:47:02Z</time>
      </trkpt>
      <trkpt lat="30.467247990891337" lon="-5.518557960167527">
        <ele>950.70000000000005</ele>
        <time>2003-04-15T11:47:03Z</time>
      </trkpt>
      <trkpt lat="30.467162998393178" lon="-5.518506998196244">
        <ele>950.39999999999998</ele>
        <time>2003-04-15T11:47:05Z</time>
      </trkpt>
      <trkpt lat="30.467002987861633" lon="-5.51836802624166">
        <ele>949.79999999999995</ele>
        <time>2003-04-15T11:47:06Z</time>
      </trkpt>
      <trkpt lat="30.46678002923727" lon="-5.51811003126204">
        <ele>948.20000000000005</ele>
        <time>2003-04-15T11:47:10Z</time>
      </trkpt>
      <trkpt lat="30.466447016224265" lon="-5.517647014930844">
        <ele>947.20000000000005</ele>
        <time>2003-04-15T11:47:14Z</time>
      </trkpt>
      <trkpt lat="30.466163037344813" lon="-5.517173018306494">
        <ele>945.10000000000002</ele>
        <time>2003-04-15T11:47:20Z</time>
      </trkpt>
      <trkpt lat="30.465698009356856" lon="-5.51654202863574">
        <ele>943.20000000000005</ele>
        <time>2003-04-15T11:47:26Z</time>
      </trkpt>
      <trkpt lat="30.465464992448688" lon="-5.516093010082841">
        <ele>941.60000000000002</ele>
        <time>2003-04-15T11:47:32Z</time>
      </trkpt>
      <trkpt lat="30.465447977185249" lon="-5.515987984836102">
        <ele>941.70000000000005</ele>
        <time>2003-04-15T11:47:33Z</time>
      </trkpt>
      <trkpt lat="30.465376982465386" lon="-5.515397982671857">
        <ele>941.20000000000005</ele>
        <time>2003-04-15T11:47:37Z</time>
      </trkpt>
      <trkpt lat="30.465200040489435" lon="-5.514122005552054">
        <ele>938.5</ele>
        <time>2003-04-15T11:47:47Z</time>
      </trkpt>
      <trkpt lat="30.465035000815988" lon="-5.513005033135414">
        <ele>936.29999999999995</ele>
        <time>2003-04-15T11:47:55Z</time>
      </trkpt>
      <trkpt lat="30.464871972799301" lon="-5.511884959414601">
        <ele>935.70000000000005</ele>
        <time>2003-04-15T11:48:03Z</time>
      </trkpt>
      <trkpt lat="30.464693019166589" lon="-5.510726999491453">
        <ele>934.10000000000002</ele>
        <time>2003-04-15T11:48:11Z</time>
      </trkpt>
      <trkpt lat="30.464538037776947" lon="-5.509657971560955">
        <ele>932.89999999999998</ele>
        <time>2003-04-15T11:48:19Z</time>
      </trkpt>
      <trkpt lat="30.464409962296486" lon="-5.508547034114599">
        <ele>932.10000000000002</ele>
        <time>2003-04-15T11:48:27Z</time>
      </trkpt>
      <trkpt lat="30.46439697034657" lon="-5.508318040519953">
        <ele>931.89999999999998</ele>
        <time>2003-04-15T11:48:28Z</time>
      </trkpt>
      <trkpt lat="30.464501995593309" lon="-5.508151995018125">
        <ele>927.39999999999998</ele>
        <time>2003-04-15T11:48:41Z</time>
      </trkpt>
      <trkpt lat="30.464565027505159" lon="-5.508000031113625">
        <ele>926.5</ele>
        <time>2003-04-15T11:48:43Z</time>
      </trkpt>
      <trkpt lat="30.464616995304823" lon="-5.507817976176739">
        <ele>925.29999999999995</ele>
        <time>2003-04-15T11:48:45Z</time>
      </trkpt>
      <trkpt lat="30.464711962267756" lon="-5.507622007280588">
        <ele>924.10000000000002</ele>
        <time>2003-04-15T11:48:46Z</time>
      </trkpt>
      <trkpt lat="30.464783040806651" lon="-5.507417991757393">
        <ele>923.20000000000005</ele>
        <time>2003-04-15T11:48:49Z</time>
      </trkpt>
      <trkpt lat="30.464812964200974" lon="-5.507186986505985">
        <ele>922.10000000000002</ele>
        <time>2003-04-15T11:48:50Z</time>
      </trkpt>
      <trkpt lat="30.464822016656399" lon="-5.506554991006851">
        <ele>920.29999999999995</ele>
        <time>2003-04-15T11:48:57Z</time>
      </trkpt>
      <trkpt lat="30.464793015271425" lon="-5.506432028487325">
        <ele>920.70000000000005</ele>
        <time>2003-04-15T11:48:58Z</time>
      </trkpt>
      <trkpt lat="30.464748004451394" lon="-5.506324991583824">
        <ele>920.89999999999998</ele>
        <time>2003-04-15T11:48:58Z</time>
      </trkpt>
      <trkpt lat="30.464684972539544" lon="-5.506107984110713">
        <ele>921.29999999999995</ele>
        <time>2003-04-15T11:49:01Z</time>
      </trkpt>
      <trkpt lat="30.464637028053403" lon="-5.505452016368508">
        <ele>921.20000000000005</ele>
        <time>2003-04-15T11:49:06Z</time>
      </trkpt>
      <trkpt lat="30.464680027216673" lon="-5.505012972280383">
        <ele>921.29999999999995</ele>
        <time>2003-04-15T11:49:09Z</time>
      </trkpt>
      <trkpt lat="30.464838026091456" lon="-5.503855012357235">
        <ele>921.20000000000005</ele>
        <time>2003-04-15T11:49:17Z</time>
      </trkpt>
      <trkpt lat="30.46488999389112" lon="-5.502782966941595">
        <ele>920.89999999999998</ele>
        <time>2003-04-15T11:49:24Z</time>
      </trkpt>
      <trkpt lat="30.46491296030581" lon="-5.501685021445155">
        <ele>920.79999999999995</ele>
        <time>2003-04-15T11:49:30Z</time>
      </trkpt>
      <trkpt lat="30.464897034689784" lon="-5.500577017664909">
        <ele>920.60000000000002</ele>
        <time>2003-04-15T11:49:37Z</time>
      </trkpt>
      <trkpt lat="30.464880019426346" lon="-5.499502960592508">
        <ele>920.29999999999995</ele>
        <time>2003-04-15T11:49:44Z</time>
      </trkpt>
      <trkpt lat="30.464957971125841" lon="-5.498439967632294">
        <ele>919.39999999999998</ele>
        <time>2003-04-15T11:49:52Z</time>
      </trkpt>
      <trkpt lat="30.465038018301129" lon="-5.497545031830668">
        <ele>918.39999999999998</ele>
        <time>2003-04-15T11:49:57Z</time>
      </trkpt>
      <trkpt lat="30.465085040777922" lon="-5.497110011056066">
        <ele>918.29999999999995</ele>
        <time>2003-04-15T11:50:00Z</time>
      </trkpt>
      <trkpt lat="30.465132985264063" lon="-5.496301995590329">
        <ele>917.29999999999995</ele>
        <time>2003-04-15T11:50:07Z</time>
      </trkpt>
      <trkpt lat="30.465165004134178" lon="-5.495975017547607">
        <ele>917</ele>
        <time>2003-04-15T11:50:10Z</time>
      </trkpt>
      <trkpt lat="30.465182019397616" lon="-5.495800003409386">
        <ele>916.70000000000005</ele>
        <time>2003-04-15T11:50:11Z</time>
      </trkpt>
      <trkpt lat="30.465222001075745" lon="-5.495579978451133">
        <ele>916.29999999999995</ele>
        <time>2003-04-15T11:50:15Z</time>
      </trkpt>
      <trkpt lat="30.465161986649036" lon="-5.495436983183026">
        <ele>916.20000000000005</ele>
        <time>2003-04-15T11:50:16Z</time>
      </trkpt>
      <trkpt lat="30.465101972222328" lon="-5.495285019278526">
        <ele>915.79999999999995</ele>
        <time>2003-04-15T11:50:19Z</time>
      </trkpt>
      <trkpt lat="30.465101972222328" lon="-5.495140012353659">
        <ele>915.70000000000005</ele>
        <time>2003-04-15T11:50:20Z</time>
      </trkpt>
      <trkpt lat="30.465176990255713" lon="-5.495028030127287">
        <ele>915.60000000000002</ele>
        <time>2003-04-15T11:50:23Z</time>
      </trkpt>
      <trkpt lat="30.465291989967227" lon="-5.494913030415773">
        <ele>914.5</ele>
        <time>2003-04-15T11:50:24Z</time>
      </trkpt>
      <trkpt lat="30.465415036305785" lon="-5.494768023490906">
        <ele>912.89999999999998</ele>
        <time>2003-04-15T11:50:27Z</time>
      </trkpt>
      <trkpt lat="30.465425010770559" lon="-5.494659980759025">
        <ele>913.60000000000002</ele>
        <time>2003-04-15T11:50:27Z</time>
      </trkpt>
      <trkpt lat="30.465447977185249" lon="-5.494553027674556">
        <ele>914.70000000000005</ele>
        <time>2003-04-15T11:50:29Z</time>
      </trkpt>
      <trkpt lat="30.465516960248351" lon="-5.494341971352696">
        <ele>914.89999999999998</ele>
        <time>2003-04-15T11:50:31Z</time>
      </trkpt>
      <trkpt lat="30.465794987976551" lon="-5.493820030242205">
        <ele>915</ele>
        <time>2003-04-15T11:50:35Z</time>
      </trkpt>
      <trkpt lat="30.466362023726106" lon="-5.492982007563114">
        <ele>914</ele>
        <time>2003-04-15T11:50:43Z</time>
      </trkpt>
      <trkpt lat="30.466880025342107" lon="-5.49222000874579">
        <ele>913.29999999999995</ele>
        <time>2003-04-15T11:50:50Z</time>
      </trkpt>
      <trkpt lat="30.467101978138089" lon="-5.491917002946138">
        <ele>913.39999999999998</ele>
        <time>2003-04-15T11:50:54Z</time>
      </trkpt>
      <trkpt lat="30.467212032526731" lon="-5.491699995473027">
        <ele>913.70000000000005</ele>
        <time>2003-04-15T11:50:56Z</time>
      </trkpt>
      <trkpt lat="30.467276992276311" lon="-5.491596981883049">
        <ele>913.10000000000002</ele>
        <time>2003-04-15T11:50:57Z</time>
      </trkpt>
      <trkpt lat="30.467359973117709" lon="-5.491507966071367">
        <ele>913.10000000000002</ele>
        <time>2003-04-15T11:50:58Z</time>
      </trkpt>
      <trkpt lat="30.467501962557435" lon="-5.491287019103766">
        <ele>912.70000000000005</ele>
        <time>2003-04-15T11:51:00Z</time>
      </trkpt>
      <trkpt lat="30.467958021908998" lon="-5.490601966157556">
        <ele>912.10000000000002</ele>
        <time>2003-04-15T11:51:05Z</time>
      </trkpt>
      <trkpt lat="30.468527991324663" lon="-5.48972999677062">
        <ele>911.79999999999995</ele>
        <time>2003-04-15T11:51:13Z</time>
      </trkpt>
      <trkpt lat="30.469111958518624" lon="-5.488874958828092">
        <ele>911.39999999999998</ele>
        <time>2003-04-15T11:51:21Z</time>
      </trkpt>
      <trkpt lat="30.46968000009656" lon="-5.488022016361356">
        <ele>911</ele>
        <time>2003-04-15T11:51:31Z</time>
      </trkpt>
      <trkpt lat="30.469802040606737" lon="-5.48783996142447">
        <ele>910.60000000000002</ele>
        <time>2003-04-15T11:51:32Z</time>
      </trkpt>
      <trkpt lat="30.469940006732941" lon="-5.487482976168394">
        <ele>910.70000000000005</ele>
        <time>2003-04-15T11:51:36Z</time>
      </trkpt>
      <trkpt lat="30.470058023929596" lon="-5.487287007272244">
        <ele>910.39999999999998</ele>
        <time>2003-04-15T11:51:37Z</time>
      </trkpt>
      <trkpt lat="30.470104962587357" lon="-5.487190028652549">
        <ele>910.20000000000005</ele>
        <time>2003-04-15T11:51:39Z</time>
      </trkpt>
      <trkpt lat="30.470127006992698" lon="-5.487087015062571">
        <ele>910.20000000000005</ele>
        <time>2003-04-15T11:51:40Z</time>
      </trkpt>
      <trkpt lat="30.470124995335937" lon="-5.486967992037535">
        <ele>910</ele>
        <time>2003-04-15T11:51:40Z</time>
      </trkpt>
      <trkpt lat="30.470104962587357" lon="-5.486845029518008">
        <ele>909.79999999999995</ele>
        <time>2003-04-15T11:51:41Z</time>
      </trkpt>
      <trkpt lat="30.470103034749627" lon="-5.486722989007831">
        <ele>909.10000000000002</ele>
        <time>2003-04-15T11:51:43Z</time>
      </trkpt>
      <trkpt lat="30.470079984515905" lon="-5.486380001530051">
        <ele>907.70000000000005</ele>
        <time>2003-04-15T11:51:45Z</time>
      </trkpt>
      <trkpt lat="30.470077972859144" lon="-5.486134998500347">
        <ele>906.79999999999995</ele>
        <time>2003-04-15T11:51:48Z</time>
      </trkpt>
      <trkpt lat="30.47006799839437" lon="-5.485472995787859">
        <ele>906.20000000000005</ele>
        <time>2003-04-15T11:51:54Z</time>
      </trkpt>
      <trkpt lat="30.47004796564579" lon="-5.485069993883371">
        <ele>905.5</ele>
        <time>2003-04-15T11:51:58Z</time>
      </trkpt>
      <trkpt lat="30.470096999779344" lon="-5.484858015552163">
        <ele>906.60000000000002</ele>
        <time>2003-04-15T11:51:59Z</time>
      </trkpt>
      <trkpt lat="30.470190038904548" lon="-5.484489966183901">
        <ele>906.39999999999998</ele>
        <time>2003-04-15T11:52:03Z</time>
      </trkpt>
      <trkpt lat="30.470249969512224" lon="-5.48414496704936">
        <ele>906.20000000000005</ele>
        <time>2003-04-15T11:52:06Z</time>
      </trkpt>
      <trkpt lat="30.470243012532592" lon="-5.483925025910139">
        <ele>905.70000000000005</ele>
        <time>2003-04-15T11:52:07Z</time>
      </trkpt>
      <trkpt lat="30.470242006704211" lon="-5.483553037047386">
        <ele>904.79999999999995</ele>
        <time>2003-04-15T11:52:11Z</time>
      </trkpt>
      <trkpt lat="30.470290035009384" lon="-5.48328498378396">
        <ele>904.70000000000005</ele>
        <time>2003-04-15T11:52:12Z</time>
      </trkpt>
      <trkpt lat="30.470390031114221" lon="-5.482718031853437">
        <ele>904.20000000000005</ele>
        <time>2003-04-15T11:52:17Z</time>
      </trkpt>
      <trkpt lat="30.470436969771981" lon="-5.482436986640096">
        <ele>903.39999999999998</ele>
        <time>2003-04-15T11:52:19Z</time>
      </trkpt>
      <trkpt lat="30.470550041645765" lon="-5.481387991458178">
        <ele>902</ele>
        <time>2003-04-15T11:52:26Z</time>
      </trkpt>
      <trkpt lat="30.470515005290508" lon="-5.48079296015203">
        <ele>901.39999999999998</ele>
        <time>2003-04-15T11:52:30Z</time>
      </trkpt>
      <trkpt lat="30.47041199170053" lon="-5.480222990736365">
        <ele>900.79999999999995</ele>
        <time>2003-04-15T11:52:34Z</time>
      </trkpt>
      <trkpt lat="30.470418026670814" lon="-5.479929959401488">
        <ele>900.20000000000005</ele>
        <time>2003-04-15T11:52:35Z</time>
      </trkpt>
      <trkpt lat="30.470556998625398" lon="-5.478924969211221">
        <ele>899.39999999999998</ele>
        <time>2003-04-15T11:52:42Z</time>
      </trkpt>
      <trkpt lat="30.470567978918552" lon="-5.478778034448624">
        <ele>899.10000000000002</ele>
        <time>2003-04-15T11:52:44Z</time>
      </trkpt>
      <trkpt lat="30.47069001942873" lon="-5.477602975443006">
        <ele>897.89999999999998</ele>
        <time>2003-04-15T11:52:52Z</time>
      </trkpt>
      <trkpt lat="30.470762019976974" lon="-5.47647200524807">
        <ele>896.70000000000005</ele>
        <time>2003-04-15T11:53:00Z</time>
      </trkpt>
      <trkpt lat="30.470809964463115" lon="-5.476358011364937">
        <ele>896.39999999999998</ele>
        <time>2003-04-15T11:53:01Z</time>
      </trkpt>
      <trkpt lat="30.470877019688487" lon="-5.476134968921542">
        <ele>896.10000000000002</ele>
        <time>2003-04-15T11:53:02Z</time>
      </trkpt>
      <trkpt lat="30.470863021910191" lon="-5.476003037765622">
        <ele>896.10000000000002</ele>
        <time>2003-04-15T11:53:04Z</time>
      </trkpt>
      <trkpt lat="30.470826979726553" lon="-5.475455028936267">
        <ele>895.5</ele>
        <time>2003-04-15T11:53:08Z</time>
      </trkpt>
      <trkpt lat="30.470794960856438" lon="-5.475025037303567">
        <ele>895</ele>
        <time>2003-04-15T11:53:11Z</time>
      </trkpt>
      <trkpt lat="30.470550041645765" lon="-5.474007977172732">
        <ele>894</ele>
        <time>2003-04-15T11:53:17Z</time>
      </trkpt>
      <trkpt lat="30.470506958663464" lon="-5.473706983029842">
        <ele>893.79999999999995</ele>
        <time>2003-04-15T11:53:20Z</time>
      </trkpt>
      <trkpt lat="30.470463037490845" lon="-5.472629992291331">
        <ele>892.20000000000005</ele>
        <time>2003-04-15T11:53:27Z</time>
      </trkpt>
      <trkpt lat="30.470492038875818" lon="-5.471576973795891">
        <ele>891.20000000000005</ele>
        <time>2003-04-15T11:53:33Z</time>
      </trkpt>
      <trkpt lat="30.470602009445429" lon="-5.470516998320818">
        <ele>890.20000000000005</ele>
        <time>2003-04-15T11:53:40Z</time>
      </trkpt>
      <trkpt lat="30.470697982236743" lon="-5.469607980921865">
        <ele>889.5</ele>
        <time>2003-04-15T11:53:47Z</time>
      </trkpt>
      <trkpt lat="30.470977015793324" lon="-5.468595027923584">
        <ele>888</ele>
        <time>2003-04-15T11:53:54Z</time>
      </trkpt>
      <trkpt lat="30.471129985526204" lon="-5.468192026019096">
        <ele>887.89999999999998</ele>
        <time>2003-04-15T11:53:56Z</time>
      </trkpt>
      <trkpt lat="30.471177008002996" lon="-5.4680519644171">
        <ele>887.89999999999998</ele>
        <time>2003-04-15T11:53:58Z</time>
      </trkpt>
      <trkpt lat="30.471322014927864" lon="-5.467648040503264">
        <ele>887.60000000000002</ele>
        <time>2003-04-15T11:54:00Z</time>
      </trkpt>
      <trkpt lat="30.471372976899147" lon="-5.46751300804317">
        <ele>887.29999999999995</ele>
        <time>2003-04-15T11:54:02Z</time>
      </trkpt>
      <trkpt lat="30.471402984112501" lon="-5.467372024431825">
        <ele>887.70000000000005</ele>
        <time>2003-04-15T11:54:03Z</time>
      </trkpt>
      <trkpt lat="30.471457969397306" lon="-5.466929962858558">
        <ele>887.29999999999995</ele>
        <time>2003-04-15T11:54:06Z</time>
      </trkpt>
      <trkpt lat="30.471512032672763" lon="-5.466505000367761">
        <ele>887.5</ele>
        <time>2003-04-15T11:54:09Z</time>
      </trkpt>
      <trkpt lat="30.471706995740533" lon="-5.465672006830573">
        <ele>886.29999999999995</ele>
        <time>2003-04-15T11:54:14Z</time>
      </trkpt>
      <trkpt lat="30.4717000387609" lon="-5.465526999905706">
        <ele>886.10000000000002</ele>
        <time>2003-04-15T11:54:15Z</time>
      </trkpt>
      <trkpt lat="30.471643041819334" lon="-5.465089967474341">
        <ele>885.60000000000002</ele>
        <time>2003-04-15T11:54:18Z</time>
      </trkpt>
      <trkpt lat="30.471557965502143" lon="-5.464516980573535">
        <ele>884.39999999999998</ele>
        <time>2003-04-15T11:54:22Z</time>
      </trkpt>
      <trkpt lat="30.47157003544271" lon="-5.464220009744167">
        <ele>883.79999999999995</ele>
        <time>2003-04-15T11:54:25Z</time>
      </trkpt>
      <trkpt lat="30.471616974100471" lon="-5.46392697840929">
        <ele>883.20000000000005</ele>
        <time>2003-04-15T11:54:26Z</time>
      </trkpt>
      <trkpt lat="30.471759969368577" lon="-5.463509978726506">
        <ele>883.10000000000002</ele>
        <time>2003-04-15T11:54:30Z</time>
      </trkpt>
      <trkpt lat="30.472015030682087" lon="-5.463013015687466">
        <ele>883.10000000000002</ele>
        <time>2003-04-15T11:54:34Z</time>
      </trkpt>
      <trkpt lat="30.472526997327805" lon="-5.462125036865473">
        <ele>883.29999999999995</ele>
        <time>2003-04-15T11:54:41Z</time>
      </trkpt>
      <trkpt lat="30.472615007311106" lon="-5.461980029940605">
        <ele>883.5</ele>
        <time>2003-04-15T11:54:44Z</time>
      </trkpt>
      <trkpt lat="30.472663035616279" lon="-5.461882967501879">
        <ele>883.79999999999995</ele>
        <time>2003-04-15T11:54:46Z</time>
      </trkpt>
      <trkpt lat="30.472720032557845" lon="-5.461697978898883">
        <ele>885</ele>
        <time>2003-04-15T11:54:53Z</time>
      </trkpt>
      <trkpt lat="30.472750039771199" lon="-5.461550038307905">
        <ele>885.39999999999998</ele>
        <time>2003-04-15T11:54:56Z</time>
      </trkpt>
      <trkpt lat="30.472758002579212" lon="-5.461363038048148">
        <ele>885.20000000000005</ele>
        <time>2003-04-15T11:54:57Z</time>
      </trkpt>
      <trkpt lat="30.472772000357509" lon="-5.461132032796741">
        <ele>885.10000000000002</ele>
        <time>2003-04-15T11:55:00Z</time>
      </trkpt>
      <trkpt lat="30.472892029210925" lon="-5.460247993469238">
        <ele>884.89999999999998</ele>
        <time>2003-04-15T11:55:07Z</time>
      </trkpt>
      <trkpt lat="30.47296998091042" lon="-5.459854966029525">
        <ele>884.10000000000002</ele>
        <time>2003-04-15T11:55:09Z</time>
      </trkpt>
      <trkpt lat="30.473222024738789" lon="-5.459226993843913">
        <ele>884</ele>
        <time>2003-04-15T11:55:15Z</time>
      </trkpt>
      <trkpt lat="30.473725022748113" lon="-5.45827497728169">
        <ele>883.10000000000002</ele>
        <time>2003-04-15T11:55:23Z</time>
      </trkpt>
      <trkpt lat="30.473932977765799" lon="-5.457893013954163">
        <ele>882.29999999999995</ele>
        <time>2003-04-15T11:55:26Z</time>
      </trkpt>
      <trkpt lat="30.474143028259277" lon="-5.457517001777887">
        <ele>881</ele>
        <time>2003-04-15T11:55:28Z</time>
      </trkpt>
      <trkpt lat="30.474609984084964" lon="-5.456552999094129">
        <ele>880</ele>
        <time>2003-04-15T11:55:35Z</time>
      </trkpt>
      <trkpt lat="30.475060008466244" lon="-5.455644987523556">
        <ele>879</ele>
        <time>2003-04-15T11:55:43Z</time>
      </trkpt>
      <trkpt lat="30.475316997617483" lon="-5.455117011442781">
        <ele>878</ele>
        <time>2003-04-15T11:55:47Z</time>
      </trkpt>
      <trkpt lat="30.475426968187094" lon="-5.454833032563329">
        <ele>877.10000000000002</ele>
        <time>2003-04-15T11:55:48Z</time>
      </trkpt>
      <trkpt lat="30.47565202228725" lon="-5.454436987638474">
        <ele>876.39999999999998</ele>
        <time>2003-04-15T11:55:51Z</time>
      </trkpt>
      <trkpt lat="30.476132975891232" lon="-5.453490000218153">
        <ele>876.29999999999995</ele>
        <time>2003-04-15T11:55:58Z</time>
      </trkpt>
      <trkpt lat="30.476677967235446" lon="-5.452779969200492">
        <ele>875.20000000000005</ele>
        <time>2003-04-15T11:56:05Z</time>
      </trkpt>
      <trkpt lat="30.477342987433076" lon="-5.451977988705039">
        <ele>874.5</ele>
        <time>2003-04-15T11:56:11Z</time>
      </trkpt>
      <trkpt lat="30.477997027337551" lon="-5.45114298351109">
        <ele>873.29999999999995</ele>
        <time>2003-04-15T11:56:18Z</time>
      </trkpt>
      <trkpt lat="30.478247981518507" lon="-5.450830003246665">
        <ele>873.5</ele>
        <time>2003-04-15T11:56:22Z</time>
      </trkpt>
      <trkpt lat="30.478906966745853" lon="-5.449940012767911">
        <ele>871.89999999999998</ele>
        <time>2003-04-15T11:56:29Z</time>
      </trkpt>
      <trkpt lat="30.479547008872032" lon="-5.449077012017369">
        <ele>870.70000000000005</ele>
        <time>2003-04-15T11:56:37Z</time>
      </trkpt>
      <trkpt lat="30.480167018249631" lon="-5.448245024308562">
        <ele>869.5</ele>
        <time>2003-04-15T11:56:44Z</time>
      </trkpt>
      <trkpt lat="30.480743022635579" lon="-5.447482019662857">
        <ele>868.70000000000005</ele>
        <time>2003-04-15T11:56:51Z</time>
      </trkpt>
      <trkpt lat="30.481352973729372" lon="-5.446656988933682">
        <ele>868.10000000000002</ele>
        <time>2003-04-15T11:56:59Z</time>
      </trkpt>
      <trkpt lat="30.481539973989129" lon="-5.44635197147727">
        <ele>867.70000000000005</ele>
        <time>2003-04-15T11:57:01Z</time>
      </trkpt>
      <trkpt lat="30.481954962015152" lon="-5.445559965446591">
        <ele>866.39999999999998</ele>
        <time>2003-04-15T11:57:09Z</time>
      </trkpt>
      <trkpt lat="30.482053030282259" lon="-5.445343041792512">
        <ele>865.89999999999998</ele>
        <time>2003-04-15T11:57:12Z</time>
      </trkpt>
      <trkpt lat="30.482155038043857" lon="-5.445231981575489">
        <ele>865.79999999999995</ele>
        <time>2003-04-15T11:57:14Z</time>
      </trkpt>
      <trkpt lat="30.482240030542016" lon="-5.445144977420569">
        <ele>866.60000000000002</ele>
        <time>2003-04-15T11:57:16Z</time>
      </trkpt>
      <trkpt lat="30.482412027195096" lon="-5.444897962734103">
        <ele>865.89999999999998</ele>
        <time>2003-04-15T11:57:19Z</time>
      </trkpt>
      <trkpt lat="30.482630040496588" lon="-5.44469696469605">
        <ele>865.39999999999998</ele>
        <time>2003-04-15T11:57:23Z</time>
      </trkpt>
      <trkpt lat="30.482770018279552" lon="-5.444556986913085">
        <ele>865.10000000000002</ele>
        <time>2003-04-15T11:57:24Z</time>
      </trkpt>
      <trkpt lat="30.48330201767385" lon="-5.443958016112447">
        <ele>865.5</ele>
        <time>2003-04-15T11:57:31Z</time>
      </trkpt>
      <trkpt lat="30.483394972980022" lon="-5.443906970322132">
        <ele>865.5</ele>
        <time>2003-04-15T11:57:32Z</time>
      </trkpt>
      <trkpt lat="30.483556995168328" lon="-5.443832036107779">
        <ele>865.10000000000002</ele>
        <time>2003-04-15T11:57:35Z</time>
      </trkpt>
      <trkpt lat="30.483682975172997" lon="-5.443721981719136">
        <ele>863.60000000000002</ele>
        <time>2003-04-15T11:57:36Z</time>
      </trkpt>
      <trkpt lat="30.483871987089515" lon="-5.443553002551198">
        <ele>863.79999999999995</ele>
        <time>2003-04-15T11:57:39Z</time>
      </trkpt>
      <trkpt lat="30.483987992629409" lon="-5.443530036136508">
        <ele>863.70000000000005</ele>
        <time>2003-04-15T11:57:42Z</time>
      </trkpt>
      <trkpt lat="30.484174992889166" lon="-5.443472033366561">
        <ele>863.70000000000005</ele>
        <time>2003-04-15T11:57:51Z</time>
      </trkpt>
      <trkpt lat="30.484289992600679" lon="-5.44340698979795">
        <ele>863.70000000000005</ele>
        <time>2003-04-15T11:57:54Z</time>
      </trkpt>
      <trkpt lat="30.484423013404012" lon="-5.443282015621662">
        <ele>863.70000000000005</ele>
        <time>2003-04-15T11:57:55Z</time>
      </trkpt>
      <trkpt lat="30.484574977308512" lon="-5.443180007860065">
        <ele>863.79999999999995</ele>
        <time>2003-04-15T11:57:58Z</time>
      </trkpt>
      <trkpt lat="30.484702968969941" lon="-5.44308302924037">
        <ele>863.89999999999998</ele>
        <time>2003-04-15T11:57:59Z</time>
      </trkpt>
      <trkpt lat="30.484813023358583" lon="-5.442932993173599">
        <ele>863.39999999999998</ele>
        <time>2003-04-15T11:58:02Z</time>
      </trkpt>
      <trkpt lat="30.485130026936531" lon="-5.442487997934222">
        <ele>863</ele>
        <time>2003-04-15T11:58:06Z</time>
      </trkpt>
      <trkpt lat="30.485433032736182" lon="-5.442041996866465">
        <ele>862.5</ele>
        <time>2003-04-15T11:58:12Z</time>
      </trkpt>
      <trkpt lat="30.485829999670386" lon="-5.441479990258813">
        <ele>861.5</ele>
        <time>2003-04-15T11:58:20Z</time>
      </trkpt>
      <trkpt lat="30.486122025176883" lon="-5.441053016111255">
        <ele>861.29999999999995</ele>
        <time>2003-04-15T11:58:25Z</time>
      </trkpt>
      <trkpt lat="30.486622005701065" lon="-5.440337033942342">
        <ele>860.70000000000005</ele>
        <time>2003-04-15T11:58:33Z</time>
      </trkpt>
      <trkpt lat="30.486767012625933" lon="-5.440147016197443">
        <ele>860.5</ele>
        <time>2003-04-15T11:58:36Z</time>
      </trkpt>
      <trkpt lat="30.487307980656624" lon="-5.439392980188131">
        <ele>859.10000000000002</ele>
        <time>2003-04-15T11:58:44Z</time>
      </trkpt>
      <trkpt lat="30.487632025033236" lon="-5.438912026584148">
        <ele>858.60000000000002</ele>
        <time>2003-04-15T11:58:47Z</time>
      </trkpt>
      <trkpt lat="30.487797986716032" lon="-5.438678003847599">
        <ele>858.60000000000002</ele>
        <time>2003-04-15T11:58:48Z</time>
      </trkpt>
      <trkpt lat="30.488441968336701" lon="-5.43790502473712">
        <ele>858.60000000000002</ele>
        <time>2003-04-15T11:58:56Z</time>
      </trkpt>
      <trkpt lat="30.489068012684584" lon="-5.437136990949512">
        <ele>857.79999999999995</ele>
        <time>2003-04-15T11:59:03Z</time>
      </trkpt>
      <trkpt lat="30.489602023735642" lon="-5.43653198517859">
        <ele>856</ele>
        <time>2003-04-15T11:59:08Z</time>
      </trkpt>
      <trkpt lat="30.489777037873864" lon="-5.436332998797298">
        <ele>856.39999999999998</ele>
        <time>2003-04-15T11:59:11Z</time>
      </trkpt>
      <trkpt lat="30.489915004000068" lon="-5.436087995767593">
        <ele>856.10000000000002</ele>
        <time>2003-04-15T11:59:12Z</time>
      </trkpt>
      <trkpt lat="30.490073002874851" lon="-5.435862019658089">
        <ele>856.70000000000005</ele>
        <time>2003-04-15T11:59:15Z</time>
      </trkpt>
      <trkpt lat="30.490686977282166" lon="-5.434942021965981">
        <ele>854.5</ele>
        <time>2003-04-15T11:59:23Z</time>
      </trkpt>
      <trkpt lat="30.490910019725561" lon="-5.434612026438117">
        <ele>854.5</ele>
        <time>2003-04-15T11:59:27Z</time>
      </trkpt>
      <trkpt lat="30.491032982245088" lon="-5.434437012299895">
        <ele>854.10000000000002</ele>
        <time>2003-04-15T11:59:27Z</time>
      </trkpt>
      <trkpt lat="30.491592977195978" lon="-5.433564959093928">
        <ele>853</ele>
        <time>2003-04-15T11:59:38Z</time>
      </trkpt>
      <trkpt lat="30.491777965798974" lon="-5.433224989101291">
        <ele>852.5</ele>
        <time>2003-04-15T11:59:41Z</time>
      </trkpt>
      <trkpt lat="30.492207035422325" lon="-5.43229702860117">
        <ele>850.89999999999998</ele>
        <time>2003-04-15T11:59:47Z</time>
      </trkpt>
      <trkpt lat="30.492352964356542" lon="-5.432053031399846">
        <ele>850.39999999999998</ele>
        <time>2003-04-15T11:59:50Z</time>
      </trkpt>
      <trkpt lat="30.492861997336149" lon="-5.431021973490715">
        <ele>850.5</ele>
        <time>2003-04-15T11:59:58Z</time>
      </trkpt>
      <trkpt lat="30.493353009223938" lon="-5.429980019107461">
        <ele>849.39999999999998</ele>
        <time>2003-04-15T12:00:05Z</time>
      </trkpt>
      <trkpt lat="30.493819965049624" lon="-5.428977962583304">
        <ele>849.10000000000002</ele>
        <time>2003-04-15T12:00:13Z</time>
      </trkpt>
      <trkpt lat="30.493858018890023" lon="-5.428847959265113">
        <ele>849.10000000000002</ele>
        <time>2003-04-15T12:00:14Z</time>
      </trkpt>
      <trkpt lat="30.494069997221231" lon="-5.428123008459806">
        <ele>849.5</ele>
        <time>2003-04-15T12:00:21Z</time>
      </trkpt>
      <trkpt lat="30.494120037183166" lon="-5.428019994869828">
        <ele>849.60000000000002</ele>
        <time>2003-04-15T12:00:21Z</time>
      </trkpt>
      <trkpt lat="30.494207041338086" lon="-5.427797958254814">
        <ele>850.20000000000005</ele>
        <time>2003-04-15T12:00:24Z</time>
      </trkpt>
      <trkpt lat="30.494556985795498" lon="-5.426826998591423">
        <ele>849.20000000000005</ele>
        <time>2003-04-15T12:00:32Z</time>
      </trkpt>
      <trkpt lat="30.494965016841888" lon="-5.425738021731377">
        <ele>848.10000000000002</ele>
        <time>2003-04-15T12:00:40Z</time>
      </trkpt>
      <trkpt lat="30.495386961847544" lon="-5.42465197853744">
        <ele>846.5</ele>
        <time>2003-04-15T12:00:48Z</time>
      </trkpt>
      <trkpt lat="30.495572034269571" lon="-5.424272026866674">
        <ele>846.20000000000005</ele>
        <time>2003-04-15T12:00:51Z</time>
      </trkpt>
      <trkpt lat="30.495845032855868" lon="-5.42377196252346">
        <ele>845.79999999999995</ele>
        <time>2003-04-15T12:00:55Z</time>
      </trkpt>
      <trkpt lat="30.496188020333648" lon="-5.423032008111477">
        <ele>845.20000000000005</ele>
        <time>2003-04-15T12:00:59Z</time>
      </trkpt>
      <trkpt lat="30.496517010033131" lon="-5.42243798263371">
        <ele>845.10000000000002</ele>
        <time>2003-04-15T12:01:03Z</time>
      </trkpt>
      <trkpt lat="30.496723037213087" lon="-5.42198502458632">
        <ele>845.10000000000002</ele>
        <time>2003-04-15T12:01:07Z</time>
      </trkpt>
      <trkpt lat="30.496818004176021" lon="-5.421861978247762">
        <ele>845</ele>
        <time>2003-04-15T12:01:07Z</time>
      </trkpt>
      <trkpt lat="30.496972985565662" lon="-5.421623010188341">
        <ele>845.60000000000002</ele>
        <time>2003-04-15T12:01:10Z</time>
      </trkpt>
      <trkpt lat="30.497157974168658" lon="-5.421207016333938">
        <ele>844.79999999999995</ele>
        <time>2003-04-15T12:01:12Z</time>
      </trkpt>
      <trkpt lat="30.497372969985008" lon="-5.420820023864508">
        <ele>844.39999999999998</ele>
        <time>2003-04-15T12:01:15Z</time>
      </trkpt>
      <trkpt lat="30.497601963579655" lon="-5.420433031395078">
        <ele>844.39999999999998</ele>
        <time>2003-04-15T12:01:19Z</time>
      </trkpt>
      <trkpt lat="30.498049976304173" lon="-5.419442038983107">
        <ele>843.5</ele>
        <time>2003-04-15T12:01:26Z</time>
      </trkpt>
      <trkpt lat="30.498460019007325" lon="-5.418379968032241">
        <ele>842.60000000000002</ele>
        <time>2003-04-15T12:01:33Z</time>
      </trkpt>
      <trkpt lat="30.498677026480436" lon="-5.417962968349457">
        <ele>842.29999999999995</ele>
        <time>2003-04-15T12:01:35Z</time>
      </trkpt>
      <trkpt lat="30.498852962628007" lon="-5.417549991980195">
        <ele>842.29999999999995</ele>
        <time>2003-04-15T12:01:38Z</time>
      </trkpt>
      <trkpt lat="30.499165020883083" lon="-5.416517006233335">
        <ele>843.10000000000002</ele>
        <time>2003-04-15T12:01:46Z</time>
      </trkpt>
      <trkpt lat="30.499207014217973" lon="-5.416364958509803">
        <ele>842.70000000000005</ele>
        <time>2003-04-15T12:01:46Z</time>
      </trkpt>
      <trkpt lat="30.499478001147509" lon="-5.415253015235066">
        <ele>842.89999999999998</ele>
        <time>2003-04-15T12:01:53Z</time>
      </trkpt>
      <trkpt lat="30.499680005013943" lon="-5.414452962577343">
        <ele>842.60000000000002</ele>
        <time>2003-04-15T12:01:58Z</time>
      </trkpt>
      <trkpt lat="30.499830041080713" lon="-5.41416697204113">
        <ele>841.89999999999998</ele>
        <time>2003-04-15T12:02:01Z</time>
      </trkpt>
      <trkpt lat="30.500087030231953" lon="-5.413579987362027">
        <ele>842.10000000000002</ele>
        <time>2003-04-15T12:02:05Z</time>
      </trkpt>
      <trkpt lat="30.500228013843298" lon="-5.413195006549358">
        <ele>841.79999999999995</ele>
        <time>2003-04-15T12:02:08Z</time>
      </trkpt>
      <trkpt lat="30.500397998839617" lon="-5.412870040163398">
        <ele>841</ele>
        <time>2003-04-15T12:02:11Z</time>
      </trkpt>
      <trkpt lat="30.500954976305366" lon="-5.411999998614192">
        <ele>839.39999999999998</ele>
        <time>2003-04-15T12:02:20Z</time>
      </trkpt>
      <trkpt lat="30.501542966812849" lon="-5.411072038114071">
        <ele>838.60000000000002</ele>
        <time>2003-04-15T12:02:28Z</time>
      </trkpt>
      <trkpt lat="30.501617984846234" lon="-5.410976987332106">
        <ele>838.39999999999998</ele>
        <time>2003-04-15T12:02:29Z</time>
      </trkpt>
      <trkpt lat="30.502131963148713" lon="-5.410393020138145">
        <ele>837.70000000000005</ele>
        <time>2003-04-15T12:02:36Z</time>
      </trkpt>
      <trkpt lat="30.502260038629174" lon="-5.410237032920122">
        <ele>838.10000000000002</ele>
        <time>2003-04-15T12:02:39Z</time>
      </trkpt>
      <trkpt lat="30.502347964793444" lon="-5.410102000460029">
        <ele>837.70000000000005</ele>
        <time>2003-04-15T12:02:40Z</time>
      </trkpt>
      <trkpt lat="30.502545023337007" lon="-5.409879963845015">
        <ele>838.20000000000005</ele>
        <time>2003-04-15T12:02:44Z</time>
      </trkpt>
      <trkpt lat="30.502611994743347" lon="-5.409778039902449">
        <ele>839.10000000000002</ele>
        <time>2003-04-15T12:02:47Z</time>
      </trkpt>
      <trkpt lat="30.502679971978068" lon="-5.409692041575909">
        <ele>839</ele>
        <time>2003-04-15T12:02:48Z</time>
      </trkpt>
      <trkpt lat="30.502839982509613" lon="-5.409507974982262">
        <ele>838.70000000000005</ele>
        <time>2003-04-15T12:02:59Z</time>
      </trkpt>
      <trkpt lat="30.502967974171042" lon="-5.409340001642704">
        <ele>838.5</ele>
        <time>2003-04-15T12:03:03Z</time>
      </trkpt>
      <trkpt lat="30.503088003024459" lon="-5.409203041344881">
        <ele>839.10000000000002</ele>
        <time>2003-04-15T12:03:05Z</time>
      </trkpt>
      <trkpt lat="30.503786969929934" lon="-5.408410029485822">
        <ele>838.29999999999995</ele>
        <time>2003-04-15T12:03:17Z</time>
      </trkpt>
      <trkpt lat="30.504447966814041" lon="-5.407620035111904">
        <ele>836.70000000000005</ele>
        <time>2003-04-15T12:03:27Z</time>
      </trkpt>
      <trkpt lat="30.505114998668432" lon="-5.406800033524633">
        <ele>836.10000000000002</ele>
        <time>2003-04-15T12:03:37Z</time>
      </trkpt>
      <trkpt lat="30.505309961736202" lon="-5.406576991081238">
        <ele>835.89999999999998</ele>
        <time>2003-04-15T12:03:41Z</time>
      </trkpt>
      <trkpt lat="30.505957966670394" lon="-5.405811974778771">
        <ele>835</ele>
        <time>2003-04-15T12:03:50Z</time>
      </trkpt>
      <trkpt lat="30.506052011623979" lon="-5.405651964247227">
        <ele>834.60000000000002</ele>
        <time>2003-04-15T12:03:53Z</time>
      </trkpt>
      <trkpt lat="30.506117977201939" lon="-5.40546203032136">
        <ele>834.70000000000005</ele>
        <time>2003-04-15T12:03:54Z</time>
      </trkpt>
      <trkpt lat="30.506259966641665" lon="-5.404891977086663">
        <ele>833.60000000000002</ele>
        <time>2003-04-15T12:04:00Z</time>
      </trkpt>
      <trkpt lat="30.506532965227962" lon="-5.403835019096732">
        <ele>833.70000000000005</ele>
        <time>2003-04-15T12:04:08Z</time>
      </trkpt>
      <trkpt lat="30.506704961881042" lon="-5.403232024982572">
        <ele>832.20000000000005</ele>
        <time>2003-04-15T12:04:15Z</time>
      </trkpt>
      <trkpt lat="30.506745027378201" lon="-5.403042007237673">
        <ele>832.10000000000002</ele>
        <time>2003-04-15T12:04:16Z</time>
      </trkpt>
      <trkpt lat="30.506813004612923" lon="-5.402772026136518">
        <ele>833.10000000000002</ele>
        <time>2003-04-15T12:04:20Z</time>
      </trkpt>
      <trkpt lat="30.506905037909746" lon="-5.402598017826676">
        <ele>832.79999999999995</ele>
        <time>2003-04-15T12:04:21Z</time>
      </trkpt>
      <trkpt lat="30.507292030379176" lon="-5.401965016499162">
        <ele>831.5</ele>
        <time>2003-04-15T12:04:28Z</time>
      </trkpt>
      <trkpt lat="30.507626971229911" lon="-5.401422958821058">
        <ele>832.10000000000002</ele>
        <time>2003-04-15T12:04:35Z</time>
      </trkpt>
      <trkpt lat="30.507682040333748" lon="-5.401288010179997">
        <ele>831.60000000000002</ele>
        <time>2003-04-15T12:04:36Z</time>
      </trkpt>
      <trkpt lat="30.507722022011876" lon="-5.401173010468483">
        <ele>831.79999999999995</ele>
        <time>2003-04-15T12:04:39Z</time>
      </trkpt>
      <trkpt lat="30.507729984819889" lon="-5.400990033522248">
        <ele>831.70000000000005</ele>
        <time>2003-04-15T12:05:06Z</time>
      </trkpt>
      <trkpt lat="30.507722022011876" lon="-5.400842009112239">
        <ele>831.20000000000005</ele>
        <time>2003-04-15T12:05:09Z</time>
      </trkpt>
      <trkpt lat="30.507720010355115" lon="-5.400515031069517">
        <ele>830.60000000000002</ele>
        <time>2003-04-15T12:05:13Z</time>
      </trkpt>
      <trkpt lat="30.507716992869973" lon="-5.400334987789393">
        <ele>830.10000000000002</ele>
        <time>2003-04-15T12:05:15Z</time>
      </trkpt>
      <trkpt lat="30.507738031446934" lon="-5.400142958387733">
        <ele>829.39999999999998</ele>
        <time>2003-04-15T12:05:20Z</time>
      </trkpt>
      <trkpt lat="30.507832998409867" lon="-5.399541975930333">
        <ele>828.20000000000005</ele>
        <time>2003-04-15T12:05:33Z</time>
      </trkpt>
      <trkpt lat="30.507952021434903" lon="-5.399526972323656">
        <ele>830</ele>
        <time>2003-04-15T12:05:59Z</time>
      </trkpt>
      <trkpt lat="30.50792695954442" lon="-5.399639960378408">
        <ele>830</ele>
        <time>2003-04-15T12:06:00Z</time>
      </trkpt>
      <trkpt lat="30.507822018116713" lon="-5.399802988395095">
        <ele>829.39999999999998</ele>
        <time>2003-04-15T12:06:04Z</time>
      </trkpt>
      <trkpt lat="30.507759992033243" lon="-5.399980014190078">
        <ele>829.39999999999998</ele>
        <time>2003-04-15T12:06:05Z</time>
      </trkpt>
      <trkpt lat="30.507725039497018" lon="-5.400200039148331">
        <ele>829.79999999999995</ele>
        <time>2003-04-15T12:06:08Z</time>
      </trkpt>
      <trkpt lat="30.507707018405199" lon="-5.400440013036132">
        <ele>830.60000000000002</ele>
        <time>2003-04-15T12:06:09Z</time>
      </trkpt>
      <trkpt lat="30.507716992869973" lon="-5.40056498721242">
        <ele>830.39999999999998</ele>
        <time>2003-04-15T12:06:11Z</time>
      </trkpt>
      <trkpt lat="30.50771196372807" lon="-5.401094974949956">
        <ele>830.70000000000005</ele>
        <time>2003-04-15T12:06:15Z</time>
      </trkpt>
      <trkpt lat="30.507669970393181" lon="-5.401336960494518">
        <ele>831.39999999999998</ele>
        <time>2003-04-15T12:06:16Z</time>
      </trkpt>
      <trkpt lat="30.507632000371814" lon="-5.401439974084497">
        <ele>832.10000000000002</ele>
        <time>2003-04-15T12:06:18Z</time>
      </trkpt>
      <trkpt lat="30.507572991773486" lon="-5.401548016816378">
        <ele>831.20000000000005</ele>
        <time>2003-04-15T12:06:19Z</time>
      </trkpt>
      <trkpt lat="30.507432008162141" lon="-5.401748009026051">
        <ele>831.70000000000005</ele>
        <time>2003-04-15T12:06:20Z</time>
      </trkpt>
      <trkpt lat="30.507317008450627" lon="-5.401944983750582">
        <ele>831.70000000000005</ele>
        <time>2003-04-15T12:06:23Z</time>
      </trkpt>
      <trkpt lat="30.507136965170503" lon="-5.402217982336879">
        <ele>831.10000000000002</ele>
        <time>2003-04-15T12:06:26Z</time>
      </trkpt>
      <trkpt lat="30.507039986550808" lon="-5.402392996475101">
        <ele>831.79999999999995</ele>
        <time>2003-04-15T12:06:27Z</time>
      </trkpt>
      <trkpt lat="30.506779979914427" lon="-5.402892976999283">
        <ele>832.5</ele>
        <time>2003-04-15T12:06:32Z</time>
      </trkpt>
      <trkpt lat="30.506758019328117" lon="-5.403013005852699">
        <ele>832.60000000000002</ele>
        <time>2003-04-15T12:06:34Z</time>
      </trkpt>
      <trkpt lat="30.506661962717772" lon="-5.403397986665368">
        <ele>832.10000000000002</ele>
        <time>2003-04-15T12:06:36Z</time>
      </trkpt>
      <trkpt lat="30.506379995495081" lon="-5.404447987675667">
        <ele>832.70000000000005</ele>
        <time>2003-04-15T12:06:45Z</time>
      </trkpt>
      <trkpt lat="30.50622995942831" lon="-5.40503203868866">
        <ele>832.5</ele>
        <time>2003-04-15T12:06:50Z</time>
      </trkpt>
      <trkpt lat="30.506037008017302" lon="-5.4056999925524">
        <ele>833.29999999999995</ele>
        <time>2003-04-15T12:06:55Z</time>
      </trkpt>
      <trkpt lat="30.505872974172235" lon="-5.405982965603471">
        <ele>833.70000000000005</ele>
        <time>2003-04-15T12:06:58Z</time>
      </trkpt>
      <trkpt lat="30.505469972267747" lon="-5.406425027176738">
        <ele>833.89999999999998</ele>
        <time>2003-04-15T12:07:03Z</time>
      </trkpt>
      <trkpt lat="30.50493998453021" lon="-5.407068002969027">
        <ele>835.29999999999995</ele>
        <time>2003-04-15T12:07:10Z</time>
      </trkpt>
      <trkpt lat="30.504807969555259" lon="-5.40722499601543">
        <ele>835</ele>
        <time>2003-04-15T12:07:13Z</time>
      </trkpt>
      <trkpt lat="30.504464982077479" lon="-5.407635038718581">
        <ele>835.70000000000005</ele>
        <time>2003-04-15T12:07:17Z</time>
      </trkpt>
      <trkpt lat="30.504067009314895" lon="-5.408156979829073">
        <ele>836.20000000000005</ele>
        <time>2003-04-15T12:07:24Z</time>
      </trkpt>
      <trkpt lat="30.503868022933602" lon="-5.408344985917211">
        <ele>837.10000000000002</ele>
        <time>2003-04-15T12:07:26Z</time>
      </trkpt>
      <trkpt lat="30.503296963870525" lon="-5.409004976972938">
        <ele>837.70000000000005</ele>
        <time>2003-04-15T12:07:36Z</time>
      </trkpt>
      <trkpt lat="30.502613000571728" lon="-5.409830007702112">
        <ele>838.60000000000002</ele>
        <time>2003-04-15T12:07:44Z</time>
      </trkpt>
      <trkpt lat="30.502324998378754" lon="-5.410224962979555">
        <ele>837.39999999999998</ele>
        <time>2003-04-15T12:07:48Z</time>
      </trkpt>
      <trkpt lat="30.50218996591866" lon="-5.41038203984499">
        <ele>837.5</ele>
        <time>2003-04-15T12:07:51Z</time>
      </trkpt>
      <trkpt lat="30.502077983692288" lon="-5.410497039556503">
        <ele>838</ele>
        <time>2003-04-15T12:07:52Z</time>
      </trkpt>
      <trkpt lat="30.501774977892637" lon="-5.410844972357154">
        <ele>838.29999999999995</ele>
        <time>2003-04-15T12:07:57Z</time>
      </trkpt>
      <trkpt lat="30.501322019845247" lon="-5.411461964249611">
        <ele>838.79999999999995</ele>
        <time>2003-04-15T12:08:04Z</time>
      </trkpt>
      <trkpt lat="30.501044997945428" lon="-5.41188701055944">
        <ele>839.5</ele>
        <time>2003-04-15T12:08:10Z</time>
      </trkpt>
      <trkpt lat="30.500547029078007" lon="-5.412689996883273">
        <ele>840.5</ele>
        <time>2003-04-15T12:08:19Z</time>
      </trkpt>
      <trkpt lat="30.500162970274687" lon="-5.413376977667213">
        <ele>841.39999999999998</ele>
        <time>2003-04-15T12:08:24Z</time>
      </trkpt>
      <trkpt lat="30.500079989433289" lon="-5.413619969040155">
        <ele>842.10000000000002</ele>
        <time>2003-04-15T12:08:27Z</time>
      </trkpt>
      <trkpt lat="30.49988703802228" lon="-5.414115004241467">
        <ele>841.79999999999995</ele>
        <time>2003-04-15T12:08:31Z</time>
      </trkpt>
      <trkpt lat="30.499604986980557" lon="-5.414744988083839">
        <ele>842.29999999999995</ele>
        <time>2003-04-15T12:08:35Z</time>
      </trkpt>
      <trkpt lat="30.499510020017624" lon="-5.415170034393668">
        <ele>842.70000000000005</ele>
        <time>2003-04-15T12:08:38Z</time>
      </trkpt>
      <trkpt lat="30.499378005042672" lon="-5.415742015466094">
        <ele>842.79999999999995</ele>
        <time>2003-04-15T12:08:42Z</time>
      </trkpt>
      <trkpt lat="30.499063013121486" lon="-5.416868040338159">
        <ele>843.39999999999998</ele>
        <time>2003-04-15T12:08:50Z</time>
      </trkpt>
      <trkpt lat="30.498977014794946" lon="-5.417150007560849">
        <ele>843.5</ele>
        <time>2003-04-15T12:08:53Z</time>
      </trkpt>
      <trkpt lat="30.498722037300467" lon="-5.41796799749136">
        <ele>843.10000000000002</ele>
        <time>2003-04-15T12:08:58Z</time>
      </trkpt>
      <trkpt lat="30.498584993183613" lon="-5.418213000521064">
        <ele>843.20000000000005</ele>
        <time>2003-04-15T12:09:01Z</time>
      </trkpt>
      <trkpt lat="30.498396987095475" lon="-5.418596975505352">
        <ele>843.29999999999995</ele>
        <time>2003-04-15T12:09:04Z</time>
      </trkpt>
      <trkpt lat="30.498027009889483" lon="-5.419570030644536">
        <ele>844</ele>
        <time>2003-04-15T12:09:10Z</time>
      </trkpt>
      <trkpt lat="30.497585032135248" lon="-5.420526992529631">
        <ele>845.70000000000005</ele>
        <time>2003-04-15T12:09:17Z</time>
      </trkpt>
      <trkpt lat="30.497282026335597" lon="-5.42104197666049">
        <ele>845.10000000000002</ele>
        <time>2003-04-15T12:09:21Z</time>
      </trkpt>
      <trkpt lat="30.49713802523911" lon="-5.421307012438774">
        <ele>845.20000000000005</ele>
        <time>2003-04-15T12:09:24Z</time>
      </trkpt>
      <trkpt lat="30.49679696559906" lon="-5.42196499183774">
        <ele>845.60000000000002</ele>
        <time>2003-04-15T12:09:28Z</time>
      </trkpt>
      <trkpt lat="30.496512986719608" lon="-5.422467989847064">
        <ele>845.5</ele>
        <time>2003-04-15T12:09:32Z</time>
      </trkpt>
      <trkpt lat="30.496336966753006" lon="-5.422879960387945">
        <ele>845.70000000000005</ele>
        <time>2003-04-15T12:09:36Z</time>
      </trkpt>
      <trkpt lat="30.496169999241829" lon="-5.423118006438017">
        <ele>846</ele>
        <time>2003-04-15T12:09:37Z</time>
      </trkpt>
      <trkpt lat="30.4960229806602" lon="-5.423380024731159">
        <ele>846.79999999999995</ele>
        <time>2003-04-15T12:09:40Z</time>
      </trkpt>
      <trkpt lat="30.49584997817874" lon="-5.423806998878717">
        <ele>846.70000000000005</ele>
        <time>2003-04-15T12:09:43Z</time>
      </trkpt>
      <trkpt lat="30.495727015659213" lon="-5.424083014950156">
        <ele>846.5</ele>
        <time>2003-04-15T12:09:44Z</time>
      </trkpt>
      <trkpt lat="30.4953149612993" lon="-5.424882983788848">
        <ele>847.29999999999995</ele>
        <time>2003-04-15T12:09:51Z</time>
      </trkpt>
      <trkpt lat="30.494931992143393" lon="-5.425897026434541">
        <ele>848.29999999999995</ele>
        <time>2003-04-15T12:09:58Z</time>
      </trkpt>
      <trkpt lat="30.49453703686595" lon="-5.426960019394755">
        <ele>849.20000000000005</ele>
        <time>2003-04-15T12:10:04Z</time>
      </trkpt>
      <trkpt lat="30.494164964184165" lon="-5.427982024848461">
        <ele>849.5</ele>
        <time>2003-04-15T12:10:11Z</time>
      </trkpt>
      <trkpt lat="30.493819965049624" lon="-5.429028002545238">
        <ele>849.79999999999995</ele>
        <time>2003-04-15T12:10:19Z</time>
      </trkpt>
      <trkpt lat="30.493643023073673" lon="-5.429433016106486">
        <ele>850.10000000000002</ele>
        <time>2003-04-15T12:10:22Z</time>
      </trkpt>
      <trkpt lat="30.493543026968837" lon="-5.429672989994288">
        <ele>850.5</ele>
        <time>2003-04-15T12:10:23Z</time>
      </trkpt>
      <trkpt lat="30.493434984236956" lon="-5.429897038266063">
        <ele>850.89999999999998</ele>
        <time>2003-04-15T12:10:26Z</time>
      </trkpt>
      <trkpt lat="30.49295000731945" lon="-5.430870009586215">
        <ele>851.5</ele>
        <time>2003-04-15T12:10:34Z</time>
      </trkpt>
      <trkpt lat="30.492838025093079" lon="-5.431122975423932">
        <ele>851.60000000000002</ele>
        <time>2003-04-15T12:10:35Z</time>
      </trkpt>
      <trkpt lat="30.492339972406626" lon="-5.432129977270961">
        <ele>852.60000000000002</ele>
        <time>2003-04-15T12:10:44Z</time>
      </trkpt>
      <trkpt lat="30.491869999095798" lon="-5.433087022975087">
        <ele>853.79999999999995</ele>
        <time>2003-04-15T12:10:50Z</time>
      </trkpt>
      <trkpt lat="30.491527011618018" lon="-5.433733016252518">
        <ele>855.70000000000005</ele>
        <time>2003-04-15T12:10:56Z</time>
      </trkpt>
      <trkpt lat="30.490929968655109" lon="-5.434646978974342">
        <ele>856.60000000000002</ele>
        <time>2003-04-15T12:11:04Z</time>
      </trkpt>
      <trkpt lat="30.490377014502883" lon="-5.435477960854769">
        <ele>857</ele>
        <time>2003-04-15T12:11:11Z</time>
      </trkpt>
      <trkpt lat="30.489909974858165" lon="-5.43614499270916">
        <ele>857.70000000000005</ele>
        <time>2003-04-15T12:11:16Z</time>
      </trkpt>
      <trkpt lat="30.489543015137315" lon="-5.436650002375245">
        <ele>857.5</ele>
        <time>2003-04-15T12:11:21Z</time>
      </trkpt>
      <trkpt lat="30.489266999065876" lon="-5.436957031488419">
        <ele>856.79999999999995</ele>
        <time>2003-04-15T12:11:24Z</time>
      </trkpt>
      <trkpt lat="30.489087961614132" lon="-5.437164986506105">
        <ele>857.60000000000002</ele>
        <time>2003-04-15T12:11:27Z</time>
      </trkpt>
      <trkpt lat="30.488369967788458" lon="-5.438027987256646">
        <ele>859</ele>
        <time>2003-04-15T12:11:35Z</time>
      </trkpt>
      <trkpt lat="30.487863030284643" lon="-5.438661994412541">
        <ele>860.20000000000005</ele>
        <time>2003-04-15T12:11:40Z</time>
      </trkpt>
      <trkpt lat="30.487562036141753" lon="-5.43906700797379">
        <ele>860.39999999999998</ele>
        <time>2003-04-15T12:11:44Z</time>
      </trkpt>
      <trkpt lat="30.487261964008212" lon="-5.439506974071264">
        <ele>860.89999999999998</ele>
        <time>2003-04-15T12:11:48Z</time>
      </trkpt>
      <trkpt lat="30.486652012914419" lon="-5.440354971215129">
        <ele>862.29999999999995</ele>
        <time>2003-04-15T12:11:56Z</time>
      </trkpt>
      <trkpt lat="30.486007025465369" lon="-5.441246973350644">
        <ele>862.60000000000002</ele>
        <time>2003-04-15T12:12:06Z</time>
      </trkpt>
      <trkpt lat="30.48588297329843" lon="-5.441449983045459">
        <ele>862.79999999999995</ele>
        <time>2003-04-15T12:12:07Z</time>
      </trkpt>
      <trkpt lat="30.485742995515466" lon="-5.441647963598371">
        <ele>862.79999999999995</ele>
        <time>2003-04-15T12:12:10Z</time>
      </trkpt>
      <trkpt lat="30.485357008874416" lon="-5.442205024883151">
        <ele>863.5</ele>
        <time>2003-04-15T12:12:15Z</time>
      </trkpt>
      <trkpt lat="30.485296994447708" lon="-5.442286999896169">
        <ele>863.5</ele>
        <time>2003-04-15T12:12:18Z</time>
      </trkpt>
      <trkpt lat="30.485068000853062" lon="-5.44261297211051">
        <ele>863.5</ele>
        <time>2003-04-15T12:12:30Z</time>
      </trkpt>
      <trkpt lat="30.484810005873442" lon="-5.442974986508489">
        <ele>864.10000000000002</ele>
        <time>2003-04-15T12:12:37Z</time>
      </trkpt>
      <trkpt lat="30.485087027773261" lon="-5.442595034837723">
        <ele>860.10000000000002</ele>
        <time>2003-04-15T14:44:09Z</time>
      </trkpt>
      <trkpt lat="30.485218036919832" lon="-5.442412979900837">
        <ele>860.39999999999998</ele>
        <time>2003-04-15T14:44:13Z</time>
      </trkpt>
      <trkpt lat="30.485373018309474" lon="-5.442181974649429">
        <ele>861.20000000000005</ele>
        <time>2003-04-15T14:44:16Z</time>
      </trkpt>
      <trkpt lat="30.485611986368895" lon="-5.441845022141933">
        <ele>861.39999999999998</ele>
        <time>2003-04-15T14:44:21Z</time>
      </trkpt>
      <trkpt lat="30.486090006306767" lon="-5.441146977245808">
        <ele>862.29999999999995</ele>
        <time>2003-04-15T14:44:31Z</time>
      </trkpt>
      <trkpt lat="30.486295027658343" lon="-5.440887976437807">
        <ele>862.70000000000005</ele>
        <time>2003-04-15T14:44:33Z</time>
      </trkpt>
      <trkpt lat="30.486397035419941" lon="-5.44074296951294">
        <ele>863</ele>
        <time>2003-04-15T14:44:36Z</time>
      </trkpt>
      <trkpt lat="30.486486973240972" lon="-5.440627969801426">
        <ele>862.70000000000005</ele>
        <time>2003-04-15T14:44:38Z</time>
      </trkpt>
      <trkpt lat="30.486608007922769" lon="-5.440426971763372">
        <ele>862.79999999999995</ele>
        <time>2003-04-15T14:44:40Z</time>
      </trkpt>
      <trkpt lat="30.486686965450644" lon="-5.44031297788024">
        <ele>862.89999999999998</ele>
        <time>2003-04-15T14:44:43Z</time>
      </trkpt>
      <trkpt lat="30.487015033140779" lon="-5.439854990690947">
        <ele>863</ele>
        <time>2003-04-15T14:44:50Z</time>
      </trkpt>
      <trkpt lat="30.487304963171482" lon="-5.439442014321685">
        <ele>862.20000000000005</ele>
        <time>2003-04-15T14:44:55Z</time>
      </trkpt>
      <trkpt lat="30.487612998113036" lon="-5.439001964405179">
        <ele>861.29999999999995</ele>
        <time>2003-04-15T14:44:59Z</time>
      </trkpt>
      <trkpt lat="30.487850038334727" lon="-5.438656965270639">
        <ele>860.89999999999998</ele>
        <time>2003-04-15T14:45:03Z</time>
      </trkpt>
      <trkpt lat="30.488380026072264" lon="-5.438017006963491">
        <ele>860.89999999999998</ele>
        <time>2003-04-15T14:45:13Z</time>
      </trkpt>
      <trkpt lat="30.488765006884933" lon="-5.437534963712096">
        <ele>860.20000000000005</ele>
        <time>2003-04-15T14:45:18Z</time>
      </trkpt>
      <trkpt lat="30.489140013232827" lon="-5.437089968472719">
        <ele>859.29999999999995</ele>
        <time>2003-04-15T14:45:25Z</time>
      </trkpt>
      <trkpt lat="30.48927303403616" lon="-5.436944961547852">
        <ele>858.39999999999998</ele>
        <time>2003-04-15T14:45:27Z</time>
      </trkpt>
      <trkpt lat="30.48940303735435" lon="-5.436771959066391">
        <ele>857.79999999999995</ele>
        <time>2003-04-15T14:45:30Z</time>
      </trkpt>
      <trkpt lat="30.489521976560354" lon="-5.436631981283426">
        <ele>857.70000000000005</ele>
        <time>2003-04-15T14:45:33Z</time>
      </trkpt>
      <trkpt lat="30.489826994016767" lon="-5.436282036826015">
        <ele>858</ele>
        <time>2003-04-15T14:45:37Z</time>
      </trkpt>
      <trkpt lat="30.490347007289529" lon="-5.435490030795336">
        <ele>857.70000000000005</ele>
        <time>2003-04-15T14:45:46Z</time>
      </trkpt>
      <trkpt lat="30.490840030834079" lon="-5.434744963422418">
        <ele>856.29999999999995</ele>
        <time>2003-04-15T14:45:54Z</time>
      </trkpt>
      <trkpt lat="30.491159968078136" lon="-5.434278007596731">
        <ele>856.70000000000005</ele>
        <time>2003-04-15T14:46:01Z</time>
      </trkpt>
      <trkpt lat="30.49170202575624" lon="-5.433436967432499">
        <ele>855.29999999999995</ele>
        <time>2003-04-15T14:46:09Z</time>
      </trkpt>
      <trkpt lat="30.491787018254399" lon="-5.43326698243618">
        <ele>855</ele>
        <time>2003-04-15T14:46:12Z</time>
      </trkpt>
      <trkpt lat="30.49198298715055" lon="-5.432840008288622">
        <ele>853.70000000000005</ele>
        <time>2003-04-15T14:46:16Z</time>
      </trkpt>
      <trkpt lat="30.492322035133839" lon="-5.432155039161444">
        <ele>852.70000000000005</ele>
        <time>2003-04-15T14:46:21Z</time>
      </trkpt>
      <trkpt lat="30.492478022351861" lon="-5.431842980906367">
        <ele>852.70000000000005</ele>
        <time>2003-04-15T14:46:24Z</time>
      </trkpt>
      <trkpt lat="30.492846993729472" lon="-5.431102020666003">
        <ele>852</ele>
        <time>2003-04-15T14:46:31Z</time>
      </trkpt>
      <trkpt lat="30.492912959307432" lon="-5.430952990427613">
        <ele>852.10000000000002</ele>
        <time>2003-04-15T14:46:34Z</time>
      </trkpt>
      <trkpt lat="30.493072969838977" lon="-5.430610002949834">
        <ele>851.20000000000005</ele>
        <time>2003-04-15T14:46:39Z</time>
      </trkpt>
      <trkpt lat="30.49314497038722" lon="-5.430462984368205">
        <ele>851.10000000000002</ele>
        <time>2003-04-15T14:46:42Z</time>
      </trkpt>
      <trkpt lat="30.493191992864013" lon="-5.430353013798595">
        <ele>850.60000000000002</ele>
        <time>2003-04-15T14:47:53Z</time>
      </trkpt>
      <trkpt lat="30.493243038654327" lon="-5.430242959409952">
        <ele>850.70000000000005</ele>
        <time>2003-04-15T14:47:56Z</time>
      </trkpt>
      <trkpt lat="30.493334988132119" lon="-5.430046990513802">
        <ele>850.79999999999995</ele>
        <time>2003-04-15T14:47:59Z</time>
      </trkpt>
      <trkpt lat="30.493500027805567" lon="-5.429729986935854">
        <ele>851</ele>
        <time>2003-04-15T14:48:03Z</time>
      </trkpt>
      <trkpt lat="30.493757016956806" lon="-5.429149959236383">
        <ele>850.20000000000005</ele>
        <time>2003-04-15T14:48:08Z</time>
      </trkpt>
      <trkpt lat="30.493885008618236" lon="-5.428807977586985">
        <ele>850.60000000000002</ele>
        <time>2003-04-15T14:48:12Z</time>
      </trkpt>
      <trkpt lat="30.494252974167466" lon="-5.4277019854635">
        <ele>850.5</ele>
        <time>2003-04-15T14:48:20Z</time>
      </trkpt>
      <trkpt lat="30.494614988565445" lon="-5.426730019971728">
        <ele>849.5</ele>
        <time>2003-04-15T14:48:27Z</time>
      </trkpt>
      <trkpt lat="30.494872983545065" lon="-5.426052007824183">
        <ele>848.39999999999998</ele>
        <time>2003-04-15T14:48:31Z</time>
      </trkpt>
      <trkpt lat="30.49529199488461" lon="-5.424932017922401">
        <ele>847.89999999999998</ele>
        <time>2003-04-15T14:48:38Z</time>
      </trkpt>
      <trkpt lat="30.495632970705628" lon="-5.424192985519767">
        <ele>847.29999999999995</ele>
        <time>2003-04-15T14:48:43Z</time>
      </trkpt>
      <trkpt lat="30.495864981785417" lon="-5.423772968351841">
        <ele>847.10000000000002</ele>
        <time>2003-04-15T14:48:46Z</time>
      </trkpt>
      <trkpt lat="30.496232025325298" lon="-5.422977022826672">
        <ele>846.20000000000005</ele>
        <time>2003-04-15T14:48:50Z</time>
      </trkpt>
      <trkpt lat="30.496541988104582" lon="-5.422432031482458">
        <ele>845.89999999999998</ele>
        <time>2003-04-15T14:48:54Z</time>
      </trkpt>
      <trkpt lat="30.496720019727945" lon="-5.422010002657771">
        <ele>845.70000000000005</ele>
        <time>2003-04-15T14:48:58Z</time>
      </trkpt>
      <trkpt lat="30.496807023882866" lon="-5.421891985461116">
        <ele>845.70000000000005</ele>
        <time>2003-04-15T14:48:58Z</time>
      </trkpt>
      <trkpt lat="30.497023025527596" lon="-5.421556960791349">
        <ele>846.29999999999995</ele>
        <time>2003-04-15T14:49:02Z</time>
      </trkpt>
      <trkpt lat="30.497298035770655" lon="-5.420972993597388">
        <ele>845.29999999999995</ele>
        <time>2003-04-15T14:49:06Z</time>
      </trkpt>
      <trkpt lat="30.497772032395005" lon="-5.42007302865386">
        <ele>845.39999999999998</ele>
        <time>2003-04-15T14:49:12Z</time>
      </trkpt>
      <trkpt lat="30.498326998203993" lon="-5.418795039877296">
        <ele>843.60000000000002</ele>
        <time>2003-04-15T14:49:20Z</time>
      </trkpt>
      <trkpt lat="30.498566972091794" lon="-5.418103029951453">
        <ele>843.5</ele>
        <time>2003-04-15T14:49:25Z</time>
      </trkpt>
      <trkpt lat="30.498654982075095" lon="-5.417843023315072">
        <ele>843.89999999999998</ele>
        <time>2003-04-15T14:49:26Z</time>
      </trkpt>
      <trkpt lat="30.498887998983264" lon="-5.41732301004231">
        <ele>844.60000000000002</ele>
        <time>2003-04-15T14:49:30Z</time>
      </trkpt>
      <trkpt lat="30.499024959281087" lon="-5.416999971494079">
        <ele>844</ele>
        <time>2003-04-15T14:49:33Z</time>
      </trkpt>
      <trkpt lat="30.499154962599277" lon="-5.416578026488423">
        <ele>844.5</ele>
        <time>2003-04-15T14:49:37Z</time>
      </trkpt>
      <trkpt lat="30.499283038079739" lon="-5.416091959923506">
        <ele>843.79999999999995</ele>
        <time>2003-04-15T14:49:40Z</time>
      </trkpt>
      <trkpt lat="30.499547990038991" lon="-5.415041958913207">
        <ele>843.60000000000002</ele>
        <time>2003-04-15T14:49:45Z</time>
      </trkpt>
      <trkpt lat="30.499712023884058" lon="-5.414426978677511">
        <ele>843</ele>
        <time>2003-04-15T14:49:49Z</time>
      </trkpt>
      <trkpt lat="30.499774971976876" lon="-5.414282977581024">
        <ele>842.60000000000002</ele>
        <time>2003-04-15T14:49:51Z</time>
      </trkpt>
      <trkpt lat="30.500189960002899" lon="-5.413328027352691">
        <ele>842.60000000000002</ele>
        <time>2003-04-15T14:49:57Z</time>
      </trkpt>
      <trkpt lat="30.500376960262656" lon="-5.412938017398119">
        <ele>841.5</ele>
        <time>2003-04-15T14:50:00Z</time>
      </trkpt>
      <trkpt lat="30.500784991309047" lon="-5.412280037999153">
        <ele>840.20000000000005</ele>
        <time>2003-04-15T14:50:07Z</time>
      </trkpt>
      <trkpt lat="30.501327970996499" lon="-5.41141502559185">
        <ele>839.70000000000005</ele>
        <time>2003-04-15T14:50:15Z</time>
      </trkpt>
      <trkpt lat="30.501898024231195" lon="-5.410661995410919">
        <ele>839.29999999999995</ele>
        <time>2003-04-15T14:50:23Z</time>
      </trkpt>
      <trkpt lat="30.502428011968732" lon="-5.410052966326475">
        <ele>837.79999999999995</ele>
        <time>2003-04-15T14:50:31Z</time>
      </trkpt>
      <trkpt lat="30.502905026078224" lon="-5.409432034939528">
        <ele>838.29999999999995</ele>
        <time>2003-04-15T14:50:42Z</time>
      </trkpt>
      <trkpt lat="30.503323031589389" lon="-5.408958038315177">
        <ele>838.89999999999998</ele>
        <time>2003-04-15T14:50:49Z</time>
      </trkpt>
      <trkpt lat="30.503895012661815" lon="-5.408297041431069">
        <ele>837.70000000000005</ele>
        <time>2003-04-15T14:50:58Z</time>
      </trkpt>
      <trkpt lat="30.504123000428081" lon="-5.408037034794688">
        <ele>837.20000000000005</ele>
        <time>2003-04-15T14:51:04Z</time>
      </trkpt>
      <trkpt lat="30.504283010959625" lon="-5.407852968201041">
        <ele>836.20000000000005</ele>
        <time>2003-04-15T14:51:06Z</time>
      </trkpt>
      <trkpt lat="30.504675032570958" lon="-5.407358016818762">
        <ele>835.5</ele>
        <time>2003-04-15T14:51:13Z</time>
      </trkpt>
      <trkpt lat="30.505148023366928" lon="-5.406776983290911">
        <ele>835.10000000000002</ele>
        <time>2003-04-15T14:51:21Z</time>
      </trkpt>
      <trkpt lat="30.505277020856738" lon="-5.406625019386411">
        <ele>834.39999999999998</ele>
        <time>2003-04-15T14:51:24Z</time>
      </trkpt>
      <trkpt lat="30.505507020279765" lon="-5.406367024406791">
        <ele>834.29999999999995</ele>
        <time>2003-04-15T14:51:27Z</time>
      </trkpt>
      <trkpt lat="30.505914967507124" lon="-5.40589202195406">
        <ele>833.89999999999998</ele>
        <time>2003-04-15T14:51:32Z</time>
      </trkpt>
      <trkpt lat="30.506059974431992" lon="-5.405666967853904">
        <ele>833.20000000000005</ele>
        <time>2003-04-15T14:51:36Z</time>
      </trkpt>
      <trkpt lat="30.5061199888587" lon="-5.405509974807501">
        <ele>833.29999999999995</ele>
        <time>2003-04-15T14:51:37Z</time>
      </trkpt>
      <trkpt lat="30.506201963871717" lon="-5.40520696900785">
        <ele>832.79999999999995</ele>
        <time>2003-04-15T14:51:40Z</time>
      </trkpt>
      <trkpt lat="30.506387036293745" lon="-5.404462991282344">
        <ele>833.29999999999995</ele>
        <time>2003-04-15T14:51:48Z</time>
      </trkpt>
      <trkpt lat="30.506670009344816" lon="-5.403433023020625">
        <ele>833</ele>
        <time>2003-04-15T14:52:00Z</time>
      </trkpt>
      <trkpt lat="30.506911994889379" lon="-5.402604974806309">
        <ele>833</ele>
        <time>2003-04-15T14:52:11Z</time>
      </trkpt>
      <trkpt lat="30.507006961852312" lon="-5.402458040043712">
        <ele>832.79999999999995</ele>
        <time>2003-04-15T14:52:14Z</time>
      </trkpt>
      <trkpt lat="30.507145011797547" lon="-5.402212031185627">
        <ele>832.39999999999998</ele>
        <time>2003-04-15T14:52:17Z</time>
      </trkpt>
      <trkpt lat="30.507702995091677" lon="-5.401281975209713">
        <ele>832.29999999999995</ele>
        <time>2003-04-15T14:52:27Z</time>
      </trkpt>
      <trkpt lat="30.507735013961792" lon="-5.401100004091859">
        <ele>832.5</ele>
        <time>2003-04-15T14:52:30Z</time>
      </trkpt>
      <trkpt lat="30.507737025618553" lon="-5.400890037417412">
        <ele>831.60000000000002</ele>
        <time>2003-04-15T14:52:31Z</time>
      </trkpt>
      <trkpt lat="30.507772983983159" lon="-5.399956963956356">
        <ele>830.5</ele>
        <time>2003-04-15T14:53:05Z</time>
      </trkpt>
      <trkpt lat="30.507811959832907" lon="-5.399735011160374">
        <ele>830.70000000000005</ele>
        <time>2003-04-15T14:55:43Z</time>
      </trkpt>
      <trkpt lat="30.507904998958111" lon="-5.399290015920997">
        <ele>830.29999999999995</ele>
        <time>2003-04-15T14:55:55Z</time>
      </trkpt>
      <trkpt lat="30.507995020598173" lon="-5.399002013728023">
        <ele>829.70000000000005</ele>
        <time>2003-04-15T14:55:59Z</time>
      </trkpt>
      <trkpt lat="30.508050005882978" lon="-5.39880202151835">
        <ele>829.20000000000005</ele>
        <time>2003-04-15T14:56:02Z</time>
      </trkpt>
      <trkpt lat="30.508047994226217" lon="-5.398666989058256">
        <ele>829.10000000000002</ele>
        <time>2003-04-15T14:56:05Z</time>
      </trkpt>
      <trkpt lat="30.508022010326385" lon="-5.39854796603322">
        <ele>829.10000000000002</ele>
        <time>2003-04-15T14:56:06Z</time>
      </trkpt>
      <trkpt lat="30.508014969527721" lon="-5.398425003513694">
        <ele>829.20000000000005</ele>
        <time>2003-04-15T14:56:09Z</time>
      </trkpt>
      <trkpt lat="30.508042965084314" lon="-5.398298017680645">
        <ele>828.29999999999995</ele>
        <time>2003-04-15T14:56:10Z</time>
      </trkpt>
      <trkpt lat="30.508146984502673" lon="-5.397887974977493">
        <ele>828.39999999999998</ele>
        <time>2003-04-15T14:56:18Z</time>
      </trkpt>
      <trkpt lat="30.508157964795828" lon="-5.397671973332763">
        <ele>827.79999999999995</ele>
        <time>2003-04-15T14:56:21Z</time>
      </trkpt>
      <trkpt lat="30.508193001151085" lon="-5.397537024691701">
        <ele>828.70000000000005</ele>
        <time>2003-04-15T14:56:22Z</time>
      </trkpt>
      <trkpt lat="30.508259972557425" lon="-5.397348012775183">
        <ele>829.20000000000005</ele>
        <time>2003-04-15T14:56:25Z</time>
      </trkpt>
      <trkpt lat="30.508340019732714" lon="-5.397132011130452">
        <ele>828.89999999999998</ele>
        <time>2003-04-15T14:56:29Z</time>
      </trkpt>
      <trkpt lat="30.508417971432209" lon="-5.396907040849328">
        <ele>829.29999999999995</ele>
        <time>2003-04-15T14:56:32Z</time>
      </trkpt>
      <trkpt lat="30.508530037477612" lon="-5.396446958184242">
        <ele>829.29999999999995</ele>
        <time>2003-04-15T14:56:38Z</time>
      </trkpt>
      <trkpt lat="30.508592985570431" lon="-5.396127020940185">
        <ele>829.20000000000005</ele>
        <time>2003-04-15T14:56:45Z</time>
      </trkpt>
      <trkpt lat="30.508640008047223" lon="-5.396307986229658">
        <ele>828.20000000000005</ele>
        <time>2003-04-15T15:21:34Z</time>
      </trkpt>
      <trkpt lat="30.508572030812502" lon="-5.396449975669384">
        <ele>828.29999999999995</ele>
        <time>2003-04-15T15:21:37Z</time>
      </trkpt>
      <trkpt lat="30.508492989465594" lon="-5.396652985364199">
        <ele>828.39999999999998</ele>
        <time>2003-04-15T15:21:40Z</time>
      </trkpt>
      <trkpt lat="30.508217979222536" lon="-5.397542975842953">
        <ele>828</ele>
        <time>2003-04-15T15:21:53Z</time>
      </trkpt>
      <trkpt lat="30.50816198810935" lon="-5.397682031616569">
        <ele>827.60000000000002</ele>
        <time>2003-04-15T15:21:54Z</time>
      </trkpt>
      <trkpt lat="30.508156958967447" lon="-5.397825026884675">
        <ele>827.39999999999998</ele>
        <time>2003-04-15T15:21:57Z</time>
      </trkpt>
      <trkpt lat="30.508144972845912" lon="-5.39798503741622">
        <ele>826.89999999999998</ele>
        <time>2003-04-15T15:21:59Z</time>
      </trkpt>
      <trkpt lat="30.50805302336812" lon="-5.398325007408857">
        <ele>826.20000000000005</ele>
        <time>2003-04-15T15:22:03Z</time>
      </trkpt>
      <trkpt lat="30.508016981184483" lon="-5.398498009890318">
        <ele>827.29999999999995</ele>
        <time>2003-04-15T15:22:04Z</time>
      </trkpt>
      <trkpt lat="30.508041959255934" lon="-5.398667994886637">
        <ele>828.10000000000002</ele>
        <time>2003-04-15T15:22:07Z</time>
      </trkpt>
      <trkpt lat="30.508065009489655" lon="-5.398821970447898">
        <ele>827.79999999999995</ele>
        <time>2003-04-15T15:22:08Z</time>
      </trkpt>
      <trkpt lat="30.508017987012863" lon="-5.398987010121346">
        <ele>827.89999999999998</ele>
        <time>2003-04-15T15:22:11Z</time>
      </trkpt>
      <trkpt lat="30.507869962602854" lon="-5.399439968168736">
        <ele>828.39999999999998</ele>
        <time>2003-04-15T15:22:16Z</time>
      </trkpt>
      <trkpt lat="30.507823023945093" lon="-5.39977197535336">
        <ele>828.5</ele>
        <time>2003-04-15T15:22:19Z</time>
      </trkpt>
      <trkpt lat="30.507756974548101" lon="-5.40015796199441">
        <ele>829.10000000000002</ele>
        <time>2003-04-15T15:22:23Z</time>
      </trkpt>
      <trkpt lat="30.507737025618553" lon="-5.400379998609424">
        <ele>829.79999999999995</ele>
        <time>2003-04-15T15:22:26Z</time>
      </trkpt>
      <trkpt lat="30.507705006748438" lon="-5.401267977431417">
        <ele>830.39999999999998</ele>
        <time>2003-04-15T15:22:36Z</time>
      </trkpt>
      <trkpt lat="30.507692014798522" lon="-5.401424970477819">
        <ele>830.39999999999998</ele>
        <time>2003-04-15T15:22:39Z</time>
      </trkpt>
      <trkpt lat="30.50775202922523" lon="-5.401522032916546">
        <ele>830.60000000000002</ele>
        <time>2003-04-15T15:22:42Z</time>
      </trkpt>
      <trkpt lat="30.507831992581487" lon="-5.401580035686493">
        <ele>831.10000000000002</ele>
        <time>2003-04-15T15:22:43Z</time>
      </trkpt>
      <trkpt lat="30.507912039756775" lon="-5.401675002649427">
        <ele>831.29999999999995</ele>
        <time>2003-04-15T15:22:47Z</time>
      </trkpt>
      <trkpt lat="30.508041959255934" lon="-5.401692017912865">
        <ele>833.10000000000002</ele>
        <time>2003-04-15T15:56:59Z</time>
      </trkpt>
      <trkpt lat="30.508078001439571" lon="-5.401566959917545">
        <ele>832.79999999999995</ele>
        <time>2003-04-15T15:57:02Z</time>
      </trkpt>
      <trkpt lat="30.508128041401505" lon="-5.401139985769987">
        <ele>831.20000000000005</ele>
        <time>2003-04-15T15:57:14Z</time>
      </trkpt>
      <trkpt lat="30.508119994774461" lon="-5.401021968573332">
        <ele>831</ele>
        <time>2003-04-15T15:57:17Z</time>
      </trkpt>
      <trkpt lat="30.508084958419204" lon="-5.400873022153974">
        <ele>830.79999999999995</ele>
        <time>2003-04-15T15:57:21Z</time>
      </trkpt>
      <trkpt lat="30.508055035024881" lon="-5.400760034099221">
        <ele>830.89999999999998</ele>
        <time>2003-04-15T15:57:23Z</time>
      </trkpt>
      <trkpt lat="30.508041959255934" lon="-5.400630030781031">
        <ele>831.10000000000002</ele>
        <time>2003-04-15T15:57:26Z</time>
      </trkpt>
      <trkpt lat="30.508038019761443" lon="-5.400321995839477">
        <ele>831.60000000000002</ele>
        <time>2003-04-15T15:57:34Z</time>
      </trkpt>
      <trkpt lat="30.508046988397837" lon="-5.400129966437817">
        <ele>831.60000000000002</ele>
        <time>2003-04-15T15:57:37Z</time>
      </trkpt>
      <trkpt lat="30.508037013933063" lon="-5.399944977834821">
        <ele>831.5</ele>
        <time>2003-04-15T15:57:41Z</time>
      </trkpt>
      <trkpt lat="30.508014969527721" lon="-5.399697041139007">
        <ele>831.5</ele>
        <time>2003-04-15T15:57:44Z</time>
      </trkpt>
      <trkpt lat="30.507982028648257" lon="-5.399137968197465">
        <ele>830</ele>
        <time>2003-04-15T15:57:50Z</time>
      </trkpt>
      <trkpt lat="30.508013041689992" lon="-5.398969994857907">
        <ele>829.70000000000005</ele>
        <time>2003-04-15T15:57:53Z</time>
      </trkpt>
      <trkpt lat="30.508057968690991" lon="-5.398732032626867">
        <ele>829.5</ele>
        <time>2003-04-15T15:57:56Z</time>
      </trkpt>
      <trkpt lat="30.508037013933063" lon="-5.398577973246574">
        <ele>829.5</ele>
        <time>2003-04-15T15:57:57Z</time>
      </trkpt>
      <trkpt lat="30.508025027811527" lon="-5.398434977978468">
        <ele>829.79999999999995</ele>
        <time>2003-04-15T15:58:00Z</time>
      </trkpt>
      <trkpt lat="30.508047994226217" lon="-5.398276979103684">
        <ele>828.89999999999998</ele>
        <time>2003-04-15T15:58:01Z</time>
      </trkpt>
      <trkpt lat="30.508165005594492" lon="-5.397761994972825">
        <ele>828.89999999999998</ele>
        <time>2003-04-15T15:58:08Z</time>
      </trkpt>
      <trkpt lat="30.508199958130717" lon="-5.397517997771502">
        <ele>829.60000000000002</ele>
        <time>2003-04-15T15:58:11Z</time>
      </trkpt>
      <trkpt lat="30.50828997977078" lon="-5.397275006398559">
        <ele>830.5</ele>
        <time>2003-04-15T15:58:13Z</time>
      </trkpt>
      <trkpt lat="30.50835301168263" lon="-5.397097980603576">
        <ele>829.79999999999995</ele>
        <time>2003-04-15T15:58:16Z</time>
      </trkpt>
      <trkpt lat="30.508474968373775" lon="-5.396705036982894">
        <ele>830.20000000000005</ele>
        <time>2003-04-15T15:58:20Z</time>
      </trkpt>
      <trkpt lat="30.508558033034205" lon="-5.396345034241676">
        <ele>830.10000000000002</ele>
        <time>2003-04-15T15:58:23Z</time>
      </trkpt>
      <trkpt lat="30.508668003603816" lon="-5.395947983488441">
        <ele>829.89999999999998</ele>
        <time>2003-04-15T15:58:26Z</time>
      </trkpt>
      <trkpt lat="30.508996993303299" lon="-5.394909968599677">
        <ele>830.29999999999995</ele>
        <time>2003-04-15T15:58:34Z</time>
      </trkpt>
      <trkpt lat="30.509182987734675" lon="-5.394376963376999">
        <ele>830.39999999999998</ele>
        <time>2003-04-15T15:58:38Z</time>
      </trkpt>
      <trkpt lat="30.509448023512959" lon="-5.393559979274869">
        <ele>831.20000000000005</ele>
        <time>2003-04-15T15:58:43Z</time>
      </trkpt>
      <trkpt lat="30.509654972702265" lon="-5.392875010147691">
        <ele>831.10000000000002</ele>
        <time>2003-04-15T15:58:48Z</time>
      </trkpt>
      <trkpt lat="30.510048000141978" lon="-5.391819979995489">
        <ele>830.20000000000005</ele>
        <time>2003-04-15T15:58:57Z</time>
      </trkpt>
      <trkpt lat="30.510310018435121" lon="-5.391352018341422">
        <ele>829.79999999999995</ele>
        <time>2003-04-15T15:59:01Z</time>
      </trkpt>
      <trkpt lat="30.510602965950966" lon="-5.390650033950806">
        <ele>829.79999999999995</ele>
        <time>2003-04-15T15:59:06Z</time>
      </trkpt>
      <trkpt lat="30.510783009231091" lon="-5.390311991795898">
        <ele>829.5</ele>
        <time>2003-04-15T15:59:10Z</time>
      </trkpt>
      <trkpt lat="30.511000016704202" lon="-5.389817040413618">
        <ele>829.60000000000002</ele>
        <time>2003-04-15T15:59:14Z</time>
      </trkpt>
      <trkpt lat="30.511115016415715" lon="-5.389576982706785">
        <ele>829.70000000000005</ele>
        <time>2003-04-15T15:59:15Z</time>
      </trkpt>
      <trkpt lat="30.511321965605021" lon="-5.389104997739196">
        <ele>829.29999999999995</ele>
        <time>2003-04-15T15:59:20Z</time>
      </trkpt>
      <trkpt lat="30.511477030813694" lon="-5.388897964730859">
        <ele>829.10000000000002</ele>
        <time>2003-04-15T15:59:22Z</time>
      </trkpt>
      <trkpt lat="30.511747011914849" lon="-5.388608034700155">
        <ele>828.89999999999998</ele>
        <time>2003-04-15T15:59:25Z</time>
      </trkpt>
      <trkpt lat="30.511922026053071" lon="-5.388411981984973">
        <ele>829</ele>
        <time>2003-04-15T15:59:26Z</time>
      </trkpt>
      <trkpt lat="30.512600038200617" lon="-5.387572031468153">
        <ele>829.70000000000005</ele>
        <time>2003-04-15T15:59:34Z</time>
      </trkpt>
      <trkpt lat="30.513155004009604" lon="-5.386999966576695">
        <ele>829.39999999999998</ele>
        <time>2003-04-15T15:59:41Z</time>
      </trkpt>
      <trkpt lat="30.513892024755478" lon="-5.386478025466204">
        <ele>828.60000000000002</ele>
        <time>2003-04-15T15:59:48Z</time>
      </trkpt>
      <trkpt lat="30.514182960614562" lon="-5.386187005788088">
        <ele>828.29999999999995</ele>
        <time>2003-04-15T15:59:51Z</time>
      </trkpt>
      <trkpt lat="30.514616975560784" lon="-5.385897997766733">
        <ele>827.79999999999995</ele>
        <time>2003-04-15T15:59:55Z</time>
      </trkpt>
      <trkpt lat="30.514737004414201" lon="-5.385860027745366">
        <ele>827.39999999999998</ele>
        <time>2003-04-15T15:59:56Z</time>
      </trkpt>
      <trkpt lat="30.515585001558065" lon="-5.385577976703644">
        <ele>825.29999999999995</ele>
        <time>2003-04-15T16:00:03Z</time>
      </trkpt>
      <trkpt lat="30.515679968520999" lon="-5.385487033054233">
        <ele>824.29999999999995</ele>
        <time>2003-04-15T16:00:04Z</time>
      </trkpt>
      <trkpt lat="30.515920026227832" lon="-5.3852469753474">
        <ele>823.60000000000002</ele>
        <time>2003-04-15T16:00:07Z</time>
      </trkpt>
      <trkpt lat="30.51636996679008" lon="-5.384863000363112">
        <ele>821.70000000000005</ele>
        <time>2003-04-15T16:00:12Z</time>
      </trkpt>
      <trkpt lat="30.516463005915284" lon="-5.384705001488328">
        <ele>821.10000000000002</ele>
        <time>2003-04-15T16:00:15Z</time>
      </trkpt>
      <trkpt lat="30.51658496260643" lon="-5.384505009278655">
        <ele>821.10000000000002</ele>
        <time>2003-04-15T16:00:18Z</time>
      </trkpt>
      <trkpt lat="30.516667021438479" lon="-5.384371988475323">
        <ele>820.5</ele>
        <time>2003-04-15T16:00:19Z</time>
      </trkpt>
      <trkpt lat="30.516900038346648" lon="-5.383836971595883">
        <ele>819.60000000000002</ele>
        <time>2003-04-15T16:00:27Z</time>
      </trkpt>
      <trkpt lat="30.516870031133294" lon="-5.383372027426958">
        <ele>821</ele>
        <time>2003-04-15T16:00:31Z</time>
      </trkpt>
      <trkpt lat="30.516798030585051" lon="-5.382885038852692">
        <ele>819.60000000000002</ele>
        <time>2003-04-15T16:00:38Z</time>
      </trkpt>
      <trkpt lat="30.516752013936639" lon="-5.382593013346195">
        <ele>819.89999999999998</ele>
        <time>2003-04-15T16:00:41Z</time>
      </trkpt>
      <trkpt lat="30.516783026978374" lon="-5.382393021136522">
        <ele>821.20000000000005</ele>
        <time>2003-04-15T16:00:43Z</time>
      </trkpt>
      <trkpt lat="30.516791995614767" lon="-5.382192023098469">
        <ele>820.89999999999998</ele>
        <time>2003-04-15T16:00:45Z</time>
      </trkpt>
      <trkpt lat="30.516783026978374" lon="-5.381234977394342">
        <ele>821.5</ele>
        <time>2003-04-15T16:00:54Z</time>
      </trkpt>
      <trkpt lat="30.516752013936639" lon="-5.381079996004701">
        <ele>821.60000000000002</ele>
        <time>2003-04-15T16:00:57Z</time>
      </trkpt>
      <trkpt lat="30.516717983409762" lon="-5.38088696077466">
        <ele>821.70000000000005</ele>
        <time>2003-04-15T16:00:59Z</time>
      </trkpt>
      <trkpt lat="30.516762994229794" lon="-5.380795011296868">
        <ele>820.79999999999995</ele>
        <time>2003-04-15T16:01:02Z</time>
      </trkpt>
      <trkpt lat="30.516842035576701" lon="-5.380670037120581">
        <ele>820.5</ele>
        <time>2003-04-15T16:01:06Z</time>
      </trkpt>
      <trkpt lat="30.516929961740971" lon="-5.380567023530603">
        <ele>820.60000000000002</ele>
        <time>2003-04-15T16:01:08Z</time>
      </trkpt>
      <trkpt lat="30.517237996682525" lon="-5.380295030772686">
        <ele>822.20000000000005</ele>
        <time>2003-04-15T16:01:13Z</time>
      </trkpt>
      <trkpt lat="30.517479982227087" lon="-5.380042986944318">
        <ele>822.20000000000005</ele>
        <time>2003-04-15T16:01:16Z</time>
      </trkpt>
      <trkpt lat="30.518096974119544" lon="-5.379243018105626">
        <ele>822.89999999999998</ele>
        <time>2003-04-15T16:01:25Z</time>
      </trkpt>
      <trkpt lat="30.518557978793979" lon="-5.378591995686293">
        <ele>823.79999999999995</ele>
        <time>2003-04-15T16:01:33Z</time>
      </trkpt>
      <trkpt lat="30.518922004848719" lon="-5.377862015739083">
        <ele>823</ele>
        <time>2003-04-15T16:01:40Z</time>
      </trkpt>
      <trkpt lat="30.519176982343197" lon="-5.377467982470989">
        <ele>823.60000000000002</ele>
        <time>2003-04-15T16:01:44Z</time>
      </trkpt>
      <trkpt lat="30.519551988691092" lon="-5.377112003043294">
        <ele>824.20000000000005</ele>
        <time>2003-04-15T16:01:48Z</time>
      </trkpt>
      <trkpt lat="30.519790034741163" lon="-5.376998009160161">
        <ele>823.20000000000005</ele>
        <time>2003-04-15T16:01:52Z</time>
      </trkpt>
      <trkpt lat="30.519949961453676" lon="-5.376779995858669">
        <ele>822.10000000000002</ele>
        <time>2003-04-15T16:01:56Z</time>
      </trkpt>
      <trkpt lat="30.519982986152172" lon="-5.376643035560846">
        <ele>822.5</ele>
        <time>2003-04-15T16:01:59Z</time>
      </trkpt>
      <trkpt lat="30.520051969215274" lon="-5.37648000754416">
        <ele>822.39999999999998</ele>
        <time>2003-04-15T16:02:03Z</time>
      </trkpt>
      <trkpt lat="30.520167974755168" lon="-5.376274986192584">
        <ele>822.10000000000002</ele>
        <time>2003-04-15T16:02:06Z</time>
      </trkpt>
      <trkpt lat="30.520318010821939" lon="-5.375842982903123">
        <ele>822.20000000000005</ele>
        <time>2003-04-15T16:02:11Z</time>
      </trkpt>
      <trkpt lat="30.520432004705071" lon="-5.375614995136857">
        <ele>821.89999999999998</ele>
        <time>2003-04-15T16:02:15Z</time>
      </trkpt>
      <trkpt lat="30.520523032173514" lon="-5.375512987375259">
        <ele>822.5</ele>
        <time>2003-04-15T16:02:16Z</time>
      </trkpt>
      <trkpt lat="30.520582040771842" lon="-5.375415002927184">
        <ele>822.39999999999998</ele>
        <time>2003-04-15T16:02:19Z</time>
      </trkpt>
      <trkpt lat="30.520738027989864" lon="-5.375090036541224">
        <ele>819.20000000000005</ele>
        <time>2003-04-15T16:02:23Z</time>
      </trkpt>
      <trkpt lat="30.520783038809896" lon="-5.374936982989311">
        <ele>820.70000000000005</ele>
        <time>2003-04-15T16:02:26Z</time>
      </trkpt>
      <trkpt lat="30.520799970254302" lon="-5.374777978286147">
        <ele>821</ele>
        <time>2003-04-15T16:02:27Z</time>
      </trkpt>
      <trkpt lat="30.52088001742959" lon="-5.374087980017066">
        <ele>824.20000000000005</ele>
        <time>2003-04-15T16:02:35Z</time>
      </trkpt>
      <trkpt lat="30.520982025191188" lon="-5.373545000329614">
        <ele>825.29999999999995</ele>
        <time>2003-04-15T16:02:41Z</time>
      </trkpt>
      <trkpt lat="30.521201966330409" lon="-5.372497010976076">
        <ele>826.60000000000002</ele>
        <time>2003-04-15T16:02:50Z</time>
      </trkpt>
      <trkpt lat="30.521532967686653" lon="-5.37158003076911">
        <ele>827.10000000000002</ele>
        <time>2003-04-15T16:02:58Z</time>
      </trkpt>
      <trkpt lat="30.522094974294305" lon="-5.370195005089045">
        <ele>826.70000000000005</ele>
        <time>2003-04-15T16:03:09Z</time>
      </trkpt>
      <trkpt lat="30.522422036156058" lon="-5.369457984343171">
        <ele>825.29999999999995</ele>
        <time>2003-04-15T16:03:16Z</time>
      </trkpt>
      <trkpt lat="30.522637031972408" lon="-5.369102004915476">
        <ele>825.79999999999995</ele>
        <time>2003-04-15T16:03:21Z</time>
      </trkpt>
      <trkpt lat="30.523170037195086" lon="-5.368189970031381">
        <ele>824.29999999999995</ele>
        <time>2003-04-15T16:03:32Z</time>
      </trkpt>
      <trkpt lat="30.523257963359356" lon="-5.367914959788322">
        <ele>828.20000000000005</ele>
        <time>2003-04-15T16:03:35Z</time>
      </trkpt>
      <trkpt lat="30.523562980815768" lon="-5.367548000067473">
        <ele>828.20000000000005</ele>
        <time>2003-04-15T16:03:40Z</time>
      </trkpt>
      <trkpt lat="30.523688038811088" lon="-5.367382960394025">
        <ele>828.29999999999995</ele>
        <time>2003-04-15T16:03:40Z</time>
      </trkpt>
      <trkpt lat="30.524290027096868" lon="-5.36646799184382">
        <ele>828</ele>
        <time>2003-04-15T16:03:52Z</time>
      </trkpt>
      <trkpt lat="30.524656986817718" lon="-5.365723008289933">
        <ele>827</ele>
        <time>2003-04-15T16:03:59Z</time>
      </trkpt>
      <trkpt lat="30.524897966533899" lon="-5.365277007222176">
        <ele>826.79999999999995</ele>
        <time>2003-04-15T16:04:04Z</time>
      </trkpt>
      <trkpt lat="30.525322007015347" lon="-5.364562030881643">
        <ele>826.60000000000002</ele>
        <time>2003-04-15T16:04:12Z</time>
      </trkpt>
      <trkpt lat="30.525964982807636" lon="-5.363670028746128">
        <ele>826.39999999999998</ele>
        <time>2003-04-15T16:04:22Z</time>
      </trkpt>
      <trkpt lat="30.526197999715805" lon="-5.363346990197897">
        <ele>826.60000000000002</ele>
        <time>2003-04-15T16:04:25Z</time>
      </trkpt>
      <trkpt lat="30.526597984135151" lon="-5.362941976636648">
        <ele>826.5</ele>
        <time>2003-04-15T16:04:30Z</time>
      </trkpt>
      <trkpt lat="30.527141969650984" lon="-5.362454988062382">
        <ele>826.70000000000005</ele>
        <time>2003-04-15T16:04:35Z</time>
      </trkpt>
      <trkpt lat="30.52741002291441" lon="-5.362130021676421">
        <ele>826.70000000000005</ele>
        <time>2003-04-15T16:04:38Z</time>
      </trkpt>
      <trkpt lat="30.527836997061968" lon="-5.361582012847066">
        <ele>826.89999999999998</ele>
        <time>2003-04-15T16:04:44Z</time>
      </trkpt>
      <trkpt lat="30.528577035292983" lon="-5.360756982117891">
        <ele>827.79999999999995</ele>
        <time>2003-04-15T16:04:52Z</time>
      </trkpt>
      <trkpt lat="30.528778033331037" lon="-5.360471997410059">
        <ele>828</ele>
        <time>2003-04-15T16:04:54Z</time>
      </trkpt>
      <trkpt lat="30.528932008892298" lon="-5.360057009384036">
        <ele>828.20000000000005</ele>
        <time>2003-04-15T16:04:58Z</time>
      </trkpt>
      <trkpt lat="30.528945000842214" lon="-5.359927006065846">
        <ele>828.29999999999995</ele>
        <time>2003-04-15T16:05:00Z</time>
      </trkpt>
      <trkpt lat="30.529007026925683" lon="-5.359498020261526">
        <ele>828.39999999999998</ele>
        <time>2003-04-15T16:05:02Z</time>
      </trkpt>
      <trkpt lat="30.529220011085272" lon="-5.358697967603803">
        <ele>829</ele>
        <time>2003-04-15T16:05:08Z</time>
      </trkpt>
      <trkpt lat="30.529512036591768" lon="-5.357646960765123">
        <ele>829.70000000000005</ele>
        <time>2003-04-15T16:05:13Z</time>
      </trkpt>
      <trkpt lat="30.529855024069548" lon="-5.35656301304698">
        <ele>830.29999999999995</ele>
        <time>2003-04-15T16:05:20Z</time>
      </trkpt>
      <trkpt lat="30.530302030965686" lon="-5.355504965409637">
        <ele>830.70000000000005</ele>
        <time>2003-04-15T16:05:25Z</time>
      </trkpt>
      <trkpt lat="30.530747026205063" lon="-5.354365026578307">
        <ele>831.39999999999998</ele>
        <time>2003-04-15T16:05:32Z</time>
      </trkpt>
      <trkpt lat="30.531072998419404" lon="-5.353334974497557">
        <ele>831.60000000000002</ele>
        <time>2003-04-15T16:05:36Z</time>
      </trkpt>
      <trkpt lat="30.531471977010369" lon="-5.352314980700612">
        <ele>832.20000000000005</ele>
        <time>2003-04-15T16:05:42Z</time>
      </trkpt>
      <trkpt lat="30.531957959756255" lon="-5.351337986066937">
        <ele>832.20000000000005</ele>
        <time>2003-04-15T16:05:47Z</time>
      </trkpt>
      <trkpt lat="30.532398009672761" lon="-5.350374989211559">
        <ele>832.10000000000002</ele>
        <time>2003-04-15T16:05:51Z</time>
      </trkpt>
      <trkpt lat="30.53286999464035" lon="-5.349443005397916">
        <ele>832</ele>
        <time>2003-04-15T16:05:56Z</time>
      </trkpt>
      <trkpt lat="30.533347008749843" lon="-5.348510015755892">
        <ele>832.10000000000002</ele>
        <time>2003-04-15T16:06:02Z</time>
      </trkpt>
      <trkpt lat="30.533823017030954" lon="-5.347554981708527">
        <ele>832.60000000000002</ele>
        <time>2003-04-15T16:06:07Z</time>
      </trkpt>
      <trkpt lat="30.534322997555137" lon="-5.346582010388374">
        <ele>832.70000000000005</ele>
        <time>2003-04-15T16:06:11Z</time>
      </trkpt>
      <trkpt lat="30.534922974184155" lon="-5.345230009406805">
        <ele>833.10000000000002</ele>
        <time>2003-04-15T16:06:18Z</time>
      </trkpt>
      <trkpt lat="30.535420021042228" lon="-5.344270030036569">
        <ele>833.70000000000005</ele>
        <time>2003-04-15T16:06:23Z</time>
      </trkpt>
      <trkpt lat="30.535917989909649" lon="-5.343269985169172">
        <ele>833.89999999999998</ele>
        <time>2003-04-15T16:06:29Z</time>
      </trkpt>
      <trkpt lat="30.536372037604451" lon="-5.342225013300777">
        <ele>834.5</ele>
        <time>2003-04-15T16:06:34Z</time>
      </trkpt>
      <trkpt lat="30.536813009530306" lon="-5.341142993420363">
        <ele>835</ele>
        <time>2003-04-15T16:06:38Z</time>
      </trkpt>
      <trkpt lat="30.537190027534962" lon="-5.340006994083524">
        <ele>835.89999999999998</ele>
        <time>2003-04-15T16:06:44Z</time>
      </trkpt>
      <trkpt lat="30.537524968385696" lon="-5.338821960613132">
        <ele>836.39999999999998</ele>
        <time>2003-04-15T16:06:49Z</time>
      </trkpt>
      <trkpt lat="30.537887988612056" lon="-5.33763499930501">
        <ele>836.70000000000005</ele>
        <time>2003-04-15T16:06:53Z</time>
      </trkpt>
      <trkpt lat="30.538244973868132" lon="-5.336518026888371">
        <ele>836.5</ele>
        <time>2003-04-15T16:06:59Z</time>
      </trkpt>
      <trkpt lat="30.538440020754933" lon="-5.336132040247321">
        <ele>836.79999999999995</ele>
        <time>2003-04-15T16:07:01Z</time>
      </trkpt>
      <trkpt lat="30.538751995190978" lon="-5.335402982309461">
        <ele>836.79999999999995</ele>
        <time>2003-04-15T16:07:04Z</time>
      </trkpt>
      <trkpt lat="30.539533020928502" lon="-5.33346701413393">
        <ele>837.10000000000002</ele>
        <time>2003-04-15T16:07:16Z</time>
      </trkpt>
      <trkpt lat="30.540008023381233" lon="-5.33241500146687">
        <ele>837.5</ele>
        <time>2003-04-15T16:07:24Z</time>
      </trkpt>
      <trkpt lat="30.540482020005584" lon="-5.331397019326687">
        <ele>837.70000000000005</ele>
        <time>2003-04-15T16:07:30Z</time>
      </trkpt>
      <trkpt lat="30.540931960567832" lon="-5.330477021634579">
        <ele>837.79999999999995</ele>
        <time>2003-04-15T16:07:35Z</time>
      </trkpt>
      <trkpt lat="30.541391959413886" lon="-5.329451998695731">
        <ele>837.60000000000002</ele>
        <time>2003-04-15T16:07:39Z</time>
      </trkpt>
      <trkpt lat="30.541845001280308" lon="-5.328447008505464">
        <ele>837.39999999999998</ele>
        <time>2003-04-15T16:07:44Z</time>
      </trkpt>
      <trkpt lat="30.542282033711672" lon="-5.32743196003139">
        <ele>837.10000000000002</ele>
        <time>2003-04-15T16:07:50Z</time>
      </trkpt>
      <trkpt lat="30.542743038386106" lon="-5.326416995376349">
        <ele>837.20000000000005</ele>
        <time>2003-04-15T16:07:55Z</time>
      </trkpt>
      <trkpt lat="30.543188033625484" lon="-5.325375040993094">
        <ele>837.10000000000002</ele>
        <time>2003-04-15T16:07:59Z</time>
      </trkpt>
      <trkpt lat="30.543581983074546" lon="-5.324320010840893">
        <ele>836.79999999999995</ele>
        <time>2003-04-15T16:08:05Z</time>
      </trkpt>
      <trkpt lat="30.54393301717937" lon="-5.323296999558806">
        <ele>836.79999999999995</ele>
        <time>2003-04-15T16:08:10Z</time>
      </trkpt>
      <trkpt lat="30.544280027970672" lon="-5.322217997163534">
        <ele>836.60000000000002</ele>
        <time>2003-04-15T16:08:14Z</time>
      </trkpt>
      <trkpt lat="30.54466500878334" lon="-5.321121979504824">
        <ele>835.39999999999998</ele>
        <time>2003-04-15T16:08:20Z</time>
      </trkpt>
      <trkpt lat="30.545059964060783" lon="-5.320062004029751">
        <ele>834.79999999999995</ele>
        <time>2003-04-15T16:08:25Z</time>
      </trkpt>
      <trkpt lat="30.545167000964284" lon="-5.319633018225431">
        <ele>834.20000000000005</ele>
        <time>2003-04-15T16:08:26Z</time>
      </trkpt>
      <trkpt lat="30.545427007600665" lon="-5.318564996123314">
        <ele>833.60000000000002</ele>
        <time>2003-04-15T16:08:32Z</time>
      </trkpt>
      <trkpt lat="30.545694977045059" lon="-5.317641980946064">
        <ele>833.29999999999995</ele>
        <time>2003-04-15T16:08:37Z</time>
      </trkpt>
      <trkpt lat="30.545933023095131" lon="-5.316960029304028">
        <ele>832.89999999999998</ele>
        <time>2003-04-15T16:08:41Z</time>
      </trkpt>
      <trkpt lat="30.545951966196299" lon="-5.316777974367142">
        <ele>833.10000000000002</ele>
        <time>2003-04-15T16:08:41Z</time>
      </trkpt>
      <trkpt lat="30.546027990058064" lon="-5.316255027428269">
        <ele>832.79999999999995</ele>
        <time>2003-04-15T16:08:45Z</time>
      </trkpt>
      <trkpt lat="30.546092027798295" lon="-5.316098034381867">
        <ele>832.79999999999995</ele>
        <time>2003-04-15T16:08:45Z</time>
      </trkpt>
      <trkpt lat="30.546178026124835" lon="-5.315787987783551">
        <ele>833.20000000000005</ele>
        <time>2003-04-15T16:08:48Z</time>
      </trkpt>
      <trkpt lat="30.546386986970901" lon="-5.315077034756541">
        <ele>833.20000000000005</ele>
        <time>2003-04-15T16:08:52Z</time>
      </trkpt>
      <trkpt lat="30.546462005004287" lon="-5.314952982589603">
        <ele>833.10000000000002</ele>
        <time>2003-04-15T16:08:53Z</time>
      </trkpt>
      <trkpt lat="30.546586979180574" lon="-5.314698005095124">
        <ele>832.89999999999998</ele>
        <time>2003-04-15T16:08:56Z</time>
      </trkpt>
      <trkpt lat="30.546677000820637" lon="-5.314415032044053">
        <ele>833</ele>
        <time>2003-04-15T16:08:57Z</time>
      </trkpt>
      <trkpt lat="30.546846985816956" lon="-5.313886972144246">
        <ele>833.20000000000005</ele>
        <time>2003-04-15T16:09:01Z</time>
      </trkpt>
      <trkpt lat="30.546965003013611" lon="-5.313465027138591">
        <ele>833</ele>
        <time>2003-04-15T16:09:04Z</time>
      </trkpt>
      <trkpt lat="30.547102969139814" lon="-5.31286203302443">
        <ele>832.70000000000005</ele>
        <time>2003-04-15T16:09:08Z</time>
      </trkpt>
      <trkpt lat="30.547358030453324" lon="-5.312259960919619">
        <ele>832.5</ele>
        <time>2003-04-15T16:09:12Z</time>
      </trkpt>
      <trkpt lat="30.547547964379191" lon="-5.311797028407455">
        <ele>832.70000000000005</ele>
        <time>2003-04-15T16:09:16Z</time>
      </trkpt>
      <trkpt lat="30.547719961032271" lon="-5.311320014297962">
        <ele>832.70000000000005</ele>
        <time>2003-04-15T16:09:19Z</time>
      </trkpt>
      <trkpt lat="30.547902015969157" lon="-5.310878036543727">
        <ele>831.70000000000005</ele>
        <time>2003-04-15T16:09:22Z</time>
      </trkpt>
      <trkpt lat="30.547921964898705" lon="-5.310722971335053">
        <ele>831.79999999999995</ele>
        <time>2003-04-15T16:09:23Z</time>
      </trkpt>
      <trkpt lat="30.547997988760471" lon="-5.31043304130435">
        <ele>832.29999999999995</ele>
        <time>2003-04-15T16:09:24Z</time>
      </trkpt>
      <trkpt lat="30.548062026500702" lon="-5.310298008844256">
        <ele>831.89999999999998</ele>
        <time>2003-04-15T16:09:26Z</time>
      </trkpt>
      <trkpt lat="30.54829303175211" lon="-5.309746982529759">
        <ele>831.39999999999998</ele>
        <time>2003-04-15T16:09:30Z</time>
      </trkpt>
      <trkpt lat="30.548426974564791" lon="-5.309463003650308">
        <ele>831.89999999999998</ele>
        <time>2003-04-15T16:09:31Z</time>
      </trkpt>
      <trkpt lat="30.548582961782813" lon="-5.309027982875705">
        <ele>831.60000000000002</ele>
        <time>2003-04-15T16:09:35Z</time>
      </trkpt>
      <trkpt lat="30.548901977017522" lon="-5.308117959648371">
        <ele>831.20000000000005</ele>
        <time>2003-04-15T16:09:41Z</time>
      </trkpt>
      <trkpt lat="30.549142034724355" lon="-5.307689979672432">
        <ele>830.5</ele>
        <time>2003-04-15T16:09:43Z</time>
      </trkpt>
      <trkpt lat="30.549551993608475" lon="-5.306969974189997">
        <ele>830</ele>
        <time>2003-04-15T16:09:49Z</time>
      </trkpt>
      <trkpt lat="30.549839995801449" lon="-5.306160030886531">
        <ele>829.60000000000002</ele>
        <time>2003-04-15T16:09:54Z</time>
      </trkpt>
      <trkpt lat="30.549969999119639" lon="-5.30585702508688">
        <ele>830.10000000000002</ele>
        <time>2003-04-15T16:09:55Z</time>
      </trkpt>
      <trkpt lat="30.550493029877543" lon="-5.30491498298943">
        <ele>829.70000000000005</ele>
        <time>2003-04-15T16:10:02Z</time>
      </trkpt>
      <trkpt lat="30.550832999870181" lon="-5.304277036339045">
        <ele>829.20000000000005</ele>
        <time>2003-04-15T16:10:08Z</time>
      </trkpt>
      <trkpt lat="30.55098001845181" lon="-5.303957015275955">
        <ele>830</ele>
        <time>2003-04-15T16:10:10Z</time>
      </trkpt>
      <trkpt lat="30.551101975142956" lon="-5.303653003647924">
        <ele>829.10000000000002</ele>
        <time>2003-04-15T16:10:13Z</time>
      </trkpt>
      <trkpt lat="30.551302973181009" lon="-5.303078005090356">
        <ele>828.20000000000005</ele>
        <time>2003-04-15T16:10:20Z</time>
      </trkpt>
      <trkpt lat="30.551515035331249" lon="-5.302638038992882">
        <ele>829.39999999999998</ele>
        <time>2003-04-15T16:10:24Z</time>
      </trkpt>
      <trkpt lat="30.551621988415718" lon="-5.302409967407584">
        <ele>829</ele>
        <time>2003-04-15T16:10:25Z</time>
      </trkpt>
      <trkpt lat="30.551721984520555" lon="-5.302194971591234">
        <ele>828.89999999999998</ele>
        <time>2003-04-15T16:10:28Z</time>
      </trkpt>
      <trkpt lat="30.551867997273803" lon="-5.301847960799933">
        <ele>828.60000000000002</ele>
        <time>2003-04-15T16:10:30Z</time>
      </trkpt>
      <trkpt lat="30.552322966977954" lon="-5.300832996144891">
        <ele>828.10000000000002</ele>
        <time>2003-04-15T16:10:39Z</time>
      </trkpt>
      <trkpt lat="30.552467973902822" lon="-5.300478022545576">
        <ele>827.60000000000002</ele>
        <time>2003-04-15T16:10:41Z</time>
      </trkpt>
      <trkpt lat="30.552781959995627" lon="-5.299570010975003">
        <ele>827.39999999999998</ele>
        <time>2003-04-15T16:10:48Z</time>
      </trkpt>
      <trkpt lat="30.552842980250716" lon="-5.299319978803396">
        <ele>827</ele>
        <time>2003-04-15T16:10:51Z</time>
      </trkpt>
      <trkpt lat="30.552938031032681" lon="-5.298932986333966">
        <ele>826.70000000000005</ele>
        <time>2003-04-15T16:10:53Z</time>
      </trkpt>
      <trkpt lat="30.553038027137518" lon="-5.298686977475882">
        <ele>827.60000000000002</ele>
        <time>2003-04-15T16:10:56Z</time>
      </trkpt>
      <trkpt lat="30.553112039342523" lon="-5.298418002203107">
        <ele>826.89999999999998</ele>
        <time>2003-04-15T16:10:57Z</time>
      </trkpt>
      <trkpt lat="30.553219998255372" lon="-5.298005025833845">
        <ele>826.5</ele>
        <time>2003-04-15T16:11:00Z</time>
      </trkpt>
      <trkpt lat="30.553297027945518" lon="-5.297721968963742">
        <ele>825.79999999999995</ele>
        <time>2003-04-15T16:11:03Z</time>
      </trkpt>
      <trkpt lat="30.55336500518024" lon="-5.297451987862587">
        <ele>825.60000000000002</ele>
        <time>2003-04-15T16:11:04Z</time>
      </trkpt>
      <trkpt lat="30.553453015163541" lon="-5.297236992046237">
        <ele>825.60000000000002</ele>
        <time>2003-04-15T16:11:07Z</time>
      </trkpt>
      <trkpt lat="30.553661976009607" lon="-5.296786967664957">
        <ele>823.20000000000005</ele>
        <time>2003-04-15T16:11:11Z</time>
      </trkpt>
      <trkpt lat="30.553836990147829" lon="-5.296411961317062">
        <ele>825.79999999999995</ele>
        <time>2003-04-15T16:11:14Z</time>
      </trkpt>
      <trkpt lat="30.55411702953279" lon="-5.2957399841398">
        <ele>824.29999999999995</ele>
        <time>2003-04-15T16:11:19Z</time>
      </trkpt>
      <trkpt lat="30.554191963747144" lon="-5.295633031055331">
        <ele>823.89999999999998</ele>
        <time>2003-04-15T16:11:19Z</time>
      </trkpt>
      <trkpt lat="30.554277962073684" lon="-5.295547032728791">
        <ele>824.10000000000002</ele>
        <time>2003-04-15T16:11:20Z</time>
      </trkpt>
      <trkpt lat="30.554427998140454" lon="-5.295367995277047">
        <ele>823.60000000000002</ele>
        <time>2003-04-15T16:11:23Z</time>
      </trkpt>
      <trkpt lat="30.554467979818583" lon="-5.295245032757521">
        <ele>822.79999999999995</ele>
        <time>2003-04-15T16:11:23Z</time>
      </trkpt>
      <trkpt lat="30.55476201698184" lon="-5.294341966509819">
        <ele>821.20000000000005</ele>
        <time>2003-04-15T16:11:31Z</time>
      </trkpt>
      <trkpt lat="30.554833011701703" lon="-5.294122025370598">
        <ele>821.29999999999995</ele>
        <time>2003-04-15T16:11:33Z</time>
      </trkpt>
      <trkpt lat="30.554914986714721" lon="-5.29389001429081">
        <ele>821</ele>
        <time>2003-04-15T16:11:34Z</time>
      </trkpt>
      <trkpt lat="30.555244982242584" lon="-5.292931962758303">
        <ele>820.39999999999998</ele>
        <time>2003-04-15T16:11:42Z</time>
      </trkpt>
      <trkpt lat="30.555241964757442" lon="-5.292819980531931">
        <ele>820.79999999999995</ele>
        <time>2003-04-15T16:11:43Z</time>
      </trkpt>
      <trkpt lat="30.555295022204518" lon="-5.292621999979019">
        <ele>820.89999999999998</ele>
        <time>2003-04-15T16:11:46Z</time>
      </trkpt>
      <trkpt lat="30.555389989167452" lon="-5.292353024706245">
        <ele>821.29999999999995</ele>
        <time>2003-04-15T16:11:49Z</time>
      </trkpt>
      <trkpt lat="30.555422008037567" lon="-5.292052030563355">
        <ele>820.89999999999998</ele>
        <time>2003-04-15T16:11:51Z</time>
      </trkpt>
      <trkpt lat="30.555477999150753" lon="-5.291737960651517">
        <ele>819.89999999999998</ele>
        <time>2003-04-15T16:11:54Z</time>
      </trkpt>
      <trkpt lat="30.555559974163771" lon="-5.291532017290592">
        <ele>819.60000000000002</ele>
        <time>2003-04-15T16:11:57Z</time>
      </trkpt>
      <trkpt lat="30.555674973875284" lon="-5.291232028976083">
        <ele>819.29999999999995</ele>
        <time>2003-04-15T16:12:00Z</time>
      </trkpt>
      <trkpt lat="30.555782010778785" lon="-5.290842019021511">
        <ele>817.60000000000002</ele>
        <time>2003-04-15T16:12:04Z</time>
      </trkpt>
      <trkpt lat="30.555906984955072" lon="-5.290700029581785">
        <ele>819.60000000000002</ele>
        <time>2003-04-15T16:12:05Z</time>
      </trkpt>
      <trkpt lat="30.556021984666586" lon="-5.290543036535382">
        <ele>818.79999999999995</ele>
        <time>2003-04-15T16:12:08Z</time>
      </trkpt>
      <trkpt lat="30.556196998804808" lon="-5.290287975221872">
        <ele>818</ele>
        <time>2003-04-15T16:12:10Z</time>
      </trkpt>
      <trkpt lat="30.556319961324334" lon="-5.290098041296005">
        <ele>817.20000000000005</ele>
        <time>2003-04-15T16:12:13Z</time>
      </trkpt>
      <trkpt lat="30.556532023474574" lon="-5.289757987484336">
        <ele>817</ele>
        <time>2003-04-15T16:12:17Z</time>
      </trkpt>
      <trkpt lat="30.556651968508959" lon="-5.289609963074327">
        <ele>816.5</ele>
        <time>2003-04-15T16:12:18Z</time>
      </trkpt>
      <trkpt lat="30.556684993207455" lon="-5.289511978626251">
        <ele>816.29999999999995</ele>
        <time>2003-04-15T16:12:20Z</time>
      </trkpt>
      <trkpt lat="30.556763028725982" lon="-5.289339981973171">
        <ele>816.39999999999998</ele>
        <time>2003-04-15T16:12:21Z</time>
      </trkpt>
      <trkpt lat="30.556893032044172" lon="-5.289211990311742">
        <ele>816.60000000000002</ele>
        <time>2003-04-15T16:12:24Z</time>
      </trkpt>
      <trkpt lat="30.557020017877221" lon="-5.289037982001901">
        <ele>816</ele>
        <time>2003-04-15T16:12:25Z</time>
      </trkpt>
      <trkpt lat="30.557114984840155" lon="-5.288828015327454">
        <ele>815.89999999999998</ele>
        <time>2003-04-15T16:12:28Z</time>
      </trkpt>
      <trkpt lat="30.557178016752005" lon="-5.288736987859011">
        <ele>816.29999999999995</ele>
        <time>2003-04-15T16:12:28Z</time>
      </trkpt>
      <trkpt lat="30.557356970384717" lon="-5.288438005372882">
        <ele>816.29999999999995</ele>
        <time>2003-04-15T16:12:32Z</time>
      </trkpt>
      <trkpt lat="30.557567020878196" lon="-5.288037015125155">
        <ele>815.5</ele>
        <time>2003-04-15T16:12:36Z</time>
      </trkpt>
      <trkpt lat="30.557607002556324" lon="-5.287925032898784">
        <ele>815.10000000000002</ele>
        <time>2003-04-15T16:12:36Z</time>
      </trkpt>
      <trkpt lat="30.557716973125935" lon="-5.287725040689111">
        <ele>815.10000000000002</ele>
        <time>2003-04-15T16:12:39Z</time>
      </trkpt>
      <trkpt lat="30.557838007807732" lon="-5.287529993802309">
        <ele>815.29999999999995</ele>
        <time>2003-04-15T16:12:40Z</time>
      </trkpt>
      <trkpt lat="30.557874972000718" lon="-5.287408037111163">
        <ele>814.5</ele>
        <time>2003-04-15T16:12:41Z</time>
      </trkpt>
      <trkpt lat="30.557979997247458" lon="-5.28718700632453">
        <ele>814.39999999999998</ele>
        <time>2003-04-15T16:12:44Z</time>
      </trkpt>
      <trkpt lat="30.558347962796688" lon="-5.286617036908865">
        <ele>813.5</ele>
        <time>2003-04-15T16:12:50Z</time>
      </trkpt>
      <trkpt lat="30.558485006913543" lon="-5.286449985578656">
        <ele>815</ele>
        <time>2003-04-15T16:12:52Z</time>
      </trkpt>
      <trkpt lat="30.558519959449768" lon="-5.286332974210382">
        <ele>814.79999999999995</ele>
        <time>2003-04-15T16:12:52Z</time>
      </trkpt>
      <trkpt lat="30.558617021888494" lon="-5.28611496090889">
        <ele>814.79999999999995</ele>
        <time>2003-04-15T16:12:55Z</time>
      </trkpt>
      <trkpt lat="30.558764962479472" lon="-5.285767028108239">
        <ele>814.29999999999995</ele>
        <time>2003-04-15T16:12:58Z</time>
      </trkpt>
      <trkpt lat="30.559096969664097" lon="-5.284767989069223">
        <ele>813.20000000000005</ele>
        <time>2003-04-15T16:13:06Z</time>
      </trkpt>
      <trkpt lat="30.559487985447049" lon="-5.28377003967762">
        <ele>811.79999999999995</ele>
        <time>2003-04-15T16:13:14Z</time>
      </trkpt>
      <trkpt lat="30.559608014300466" lon="-5.283527970314026">
        <ele>811.29999999999995</ele>
        <time>2003-04-15T16:13:15Z</time>
      </trkpt>
      <trkpt lat="30.559686971828341" lon="-5.283263018354774">
        <ele>811.20000000000005</ele>
        <time>2003-04-15T16:13:18Z</time>
      </trkpt>
      <trkpt lat="30.559812029823661" lon="-5.282758008688688">
        <ele>810.20000000000005</ele>
        <time>2003-04-15T16:13:22Z</time>
      </trkpt>
      <trkpt lat="30.559882018715143" lon="-5.282649965956807">
        <ele>810.39999999999998</ele>
        <time>2003-04-15T16:13:22Z</time>
      </trkpt>
      <trkpt lat="30.560064995661378" lon="-5.282297004014254">
        <ele>809.39999999999998</ele>
        <time>2003-04-15T16:13:26Z</time>
      </trkpt>
      <trkpt lat="30.560464980080724" lon="-5.281329983845353">
        <ele>808.39999999999998</ele>
        <time>2003-04-15T16:13:34Z</time>
      </trkpt>
      <trkpt lat="30.560707971453667" lon="-5.280585000291467">
        <ele>807.60000000000002</ele>
        <time>2003-04-15T16:13:39Z</time>
      </trkpt>
      <trkpt lat="30.560737978667021" lon="-5.280175041407347">
        <ele>807.60000000000002</ele>
        <time>2003-04-15T16:13:42Z</time>
      </trkpt>
      <trkpt lat="30.560787012800574" lon="-5.279787965118885">
        <ele>807.70000000000005</ele>
        <time>2003-04-15T16:13:46Z</time>
      </trkpt>
      <trkpt lat="30.560852978378534" lon="-5.279552014544606">
        <ele>807.89999999999998</ele>
        <time>2003-04-15T16:13:48Z</time>
      </trkpt>
      <trkpt lat="30.561111979186535" lon="-5.278632016852498">
        <ele>806.79999999999995</ele>
        <time>2003-04-15T16:13:56Z</time>
      </trkpt>
      <trkpt lat="30.561118014156818" lon="-5.278500001877546">
        <ele>806.70000000000005</ele>
        <time>2003-04-15T16:13:57Z</time>
      </trkpt>
      <trkpt lat="30.561222033575177" lon="-5.277450000867248">
        <ele>806.60000000000002</ele>
        <time>2003-04-15T16:14:05Z</time>
      </trkpt>
      <trkpt lat="30.561320018023252" lon="-5.277068037539721">
        <ele>806.5</ele>
        <time>2003-04-15T16:14:08Z</time>
      </trkpt>
      <trkpt lat="30.561697036027908" lon="-5.276277959346771">
        <ele>805.29999999999995</ele>
        <time>2003-04-15T16:14:13Z</time>
      </trkpt>
      <trkpt lat="30.561914965510368" lon="-5.275861965492368">
        <ele>805.10000000000002</ele>
        <time>2003-04-15T16:14:16Z</time>
      </trkpt>
      <trkpt lat="30.562101965770125" lon="-5.275216978043318">
        <ele>804.29999999999995</ele>
        <time>2003-04-15T16:14:20Z</time>
      </trkpt>
      <trkpt lat="30.562198022380471" lon="-5.274893017485738">
        <ele>804</ele>
        <time>2003-04-15T16:14:23Z</time>
      </trkpt>
      <trkpt lat="30.562277985736728" lon="-5.27474801056087">
        <ele>804</ele>
        <time>2003-04-15T16:14:24Z</time>
      </trkpt>
      <trkpt lat="30.562394997105002" lon="-5.274433018639684">
        <ele>803.60000000000002</ele>
        <time>2003-04-15T16:14:25Z</time>
      </trkpt>
      <trkpt lat="30.562677970156074" lon="-5.273704966530204">
        <ele>802.89999999999998</ele>
        <time>2003-04-15T16:14:31Z</time>
      </trkpt>
      <trkpt lat="30.562757011502981" lon="-5.273597007617354">
        <ele>802.70000000000005</ele>
        <time>2003-04-15T16:14:32Z</time>
      </trkpt>
      <trkpt lat="30.563132017850876" lon="-5.273176990449429">
        <ele>801.89999999999998</ele>
        <time>2003-04-15T16:14:36Z</time>
      </trkpt>
      <trkpt lat="30.563495038077235" lon="-5.272752027958632">
        <ele>803</ele>
        <time>2003-04-15T16:14:40Z</time>
      </trkpt>
      <trkpt lat="30.563737023621798" lon="-5.272444998845458">
        <ele>802.20000000000005</ele>
        <time>2003-04-15T16:14:43Z</time>
      </trkpt>
      <trkpt lat="30.56385001167655" lon="-5.272297980263829">
        <ele>801.89999999999998</ele>
        <time>2003-04-15T16:14:46Z</time>
      </trkpt>
      <trkpt lat="30.564147988334298" lon="-5.271833036094904">
        <ele>802.5</ele>
        <time>2003-04-15T16:14:51Z</time>
      </trkpt>
      <trkpt lat="30.564401960000396" lon="-5.271413018926978">
        <ele>801.29999999999995</ele>
        <time>2003-04-15T16:14:55Z</time>
      </trkpt>
      <trkpt lat="30.565005037933588" lon="-5.270580025389791">
        <ele>801.70000000000005</ele>
        <time>2003-04-15T16:15:03Z</time>
      </trkpt>
      <trkpt lat="30.56505499407649" lon="-5.270469971001148">
        <ele>801.70000000000005</ele>
        <time>2003-04-15T16:15:05Z</time>
      </trkpt>
      <trkpt lat="30.565227996557951" lon="-5.270157996565104">
        <ele>801</ele>
        <time>2003-04-15T16:15:07Z</time>
      </trkpt>
      <trkpt lat="30.565307037904859" lon="-5.270078033208847">
        <ele>801.5</ele>
        <time>2003-04-15T16:15:09Z</time>
      </trkpt>
      <trkpt lat="30.565396975725889" lon="-5.270011983811855">
        <ele>800.60000000000002</ele>
        <time>2003-04-15T16:15:10Z</time>
      </trkpt>
      <trkpt lat="30.565496971830726" lon="-5.269962027668953">
        <ele>800.5</ele>
        <time>2003-04-15T16:15:10Z</time>
      </trkpt>
      <trkpt lat="30.565767036750913" lon="-5.269779972732067">
        <ele>799.89999999999998</ele>
        <time>2003-04-15T16:15:14Z</time>
      </trkpt>
      <trkpt lat="30.565899973735213" lon="-5.269587021321058">
        <ele>799</ele>
        <time>2003-04-15T16:15:15Z</time>
      </trkpt>
      <trkpt lat="30.566052021458745" lon="-5.269434973597527">
        <ele>800.5</ele>
        <time>2003-04-15T16:15:18Z</time>
      </trkpt>
      <trkpt lat="30.56615000590682" lon="-5.269391974434257">
        <ele>799.70000000000005</ele>
        <time>2003-04-15T16:15:18Z</time>
      </trkpt>
      <trkpt lat="30.566361984238029" lon="-5.269352998584509">
        <ele>799.60000000000002</ele>
        <time>2003-04-15T16:15:21Z</time>
      </trkpt>
      <trkpt lat="30.566761968657374" lon="-5.269309999421239">
        <ele>799.20000000000005</ele>
        <time>2003-04-15T16:15:25Z</time>
      </trkpt>
      <trkpt lat="30.567341996356845" lon="-5.26911998167634">
        <ele>798.29999999999995</ele>
        <time>2003-04-15T16:15:30Z</time>
      </trkpt>
      <trkpt lat="30.567669980227947" lon="-5.268959971144795">
        <ele>797.60000000000002</ele>
        <time>2003-04-15T16:15:33Z</time>
      </trkpt>
      <trkpt lat="30.567733012139797" lon="-5.268874978646636">
        <ele>797.29999999999995</ele>
        <time>2003-04-15T16:15:34Z</time>
      </trkpt>
      <trkpt lat="30.56778003461659" lon="-5.268771965056658">
        <ele>796.20000000000005</ele>
        <time>2003-04-15T16:15:34Z</time>
      </trkpt>
      <trkpt lat="30.567942978814244" lon="-5.268477005884051">
        <ele>796.20000000000005</ele>
        <time>2003-04-15T16:15:37Z</time>
      </trkpt>
      <trkpt lat="30.568089997395873" lon="-5.26830199174583">
        <ele>796.10000000000002</ele>
        <time>2003-04-15T16:15:40Z</time>
      </trkpt>
      <trkpt lat="30.56836299598217" lon="-5.267907036468387">
        <ele>796</ele>
        <time>2003-04-15T16:15:44Z</time>
      </trkpt>
      <trkpt lat="30.568498028442264" lon="-5.267697991803289">
        <ele>796.39999999999998</ele>
        <time>2003-04-15T16:15:45Z</time>
      </trkpt>
      <trkpt lat="30.568746970966458" lon="-5.267447037622333">
        <ele>796.29999999999995</ele>
        <time>2003-04-15T16:15:49Z</time>
      </trkpt>
      <trkpt lat="30.568816959857941" lon="-5.267349975183606">
        <ele>796.10000000000002</ele>
        <time>2003-04-15T16:15:49Z</time>
      </trkpt>
      <trkpt lat="30.568917961791158" lon="-5.267149982973933">
        <ele>795.89999999999998</ele>
        <time>2003-04-15T16:15:52Z</time>
      </trkpt>
      <trkpt lat="30.569004965946078" lon="-5.266844965517521">
        <ele>795.60000000000002</ele>
        <time>2003-04-15T16:15:54Z</time>
      </trkpt>
      <trkpt lat="30.569012006744742" lon="-5.266702976077795">
        <ele>795.89999999999998</ele>
        <time>2003-04-15T16:15:57Z</time>
      </trkpt>
      <trkpt lat="30.569113008677959" lon="-5.266614966094494">
        <ele>796.79999999999995</ele>
        <time>2003-04-15T16:15:59Z</time>
      </trkpt>
      <trkpt lat="30.569237982854247" lon="-5.266516981646419">
        <ele>796.70000000000005</ele>
        <time>2003-04-15T16:16:01Z</time>
      </trkpt>
      <trkpt lat="30.569445015862584" lon="-5.266338028013706">
        <ele>797</ele>
        <time>2003-04-15T16:16:04Z</time>
      </trkpt>
      <trkpt lat="30.570105006918311" lon="-5.266037033870816">
        <ele>794.10000000000002</ele>
        <time>2003-04-15T16:16:11Z</time>
      </trkpt>
      <trkpt lat="30.570523012429476" lon="-5.265860008075833">
        <ele>794.20000000000005</ele>
        <time>2003-04-15T16:16:15Z</time>
      </trkpt>
      <trkpt lat="30.570629965513945" lon="-5.265860008075833">
        <ele>793.89999999999998</ele>
        <time>2003-04-15T16:16:16Z</time>
      </trkpt>
      <trkpt lat="30.570828029885888" lon="-5.265805022791028">
        <ele>793.20000000000005</ele>
        <time>2003-04-15T16:16:17Z</time>
      </trkpt>
      <trkpt lat="30.570907993242145" lon="-5.265717012807727">
        <ele>793</ele>
        <time>2003-04-15T16:16:19Z</time>
      </trkpt>
      <trkpt lat="30.570976976305246" lon="-5.265612993389368">
        <ele>793.60000000000002</ele>
        <time>2003-04-15T16:16:20Z</time>
      </trkpt>
      <trkpt lat="30.57132700458169" lon="-5.265030032023788">
        <ele>792.79999999999995</ele>
        <time>2003-04-15T16:16:24Z</time>
      </trkpt>
      <trkpt lat="30.57143303565681" lon="-5.264776982367039">
        <ele>792.60000000000002</ele>
        <time>2003-04-15T16:16:27Z</time>
      </trkpt>
      <trkpt lat="30.571793038398027" lon="-5.263762017711997">
        <ele>792.5</ele>
        <time>2003-04-15T16:16:35Z</time>
      </trkpt>
      <trkpt lat="30.572026977315545" lon="-5.262981997802854">
        <ele>793</ele>
        <time>2003-04-15T16:16:40Z</time>
      </trkpt>
      <trkpt lat="30.572150023654103" lon="-5.262662982568145">
        <ele>793.20000000000005</ele>
        <time>2003-04-15T16:16:43Z</time>
      </trkpt>
      <trkpt lat="30.572195034474134" lon="-5.262442035600543">
        <ele>792.79999999999995</ele>
        <time>2003-04-15T16:16:46Z</time>
      </trkpt>
      <trkpt lat="30.572295030578971" lon="-5.262240031734109">
        <ele>791.70000000000005</ele>
        <time>2003-04-15T16:16:47Z</time>
      </trkpt>
      <trkpt lat="30.572429979220033" lon="-5.261933002620935">
        <ele>791.10000000000002</ele>
        <time>2003-04-15T16:16:51Z</time>
      </trkpt>
      <trkpt lat="30.572525030001998" lon="-5.261739967390895">
        <ele>790.5</ele>
        <time>2003-04-15T16:16:53Z</time>
      </trkpt>
      <trkpt lat="30.572757963091135" lon="-5.26136202737689">
        <ele>791.79999999999995</ele>
        <time>2003-04-15T16:16:57Z</time>
      </trkpt>
      <trkpt lat="30.573001960292459" lon="-5.260949973016977">
        <ele>791.70000000000005</ele>
        <time>2003-04-15T16:17:01Z</time>
      </trkpt>
      <trkpt lat="30.573383001610637" lon="-5.260423002764583">
        <ele>792.39999999999998</ele>
        <time>2003-04-15T16:17:06Z</time>
      </trkpt>
      <trkpt lat="30.573443016037345" lon="-5.260242959484458">
        <ele>790.79999999999995</ele>
        <time>2003-04-15T16:17:09Z</time>
      </trkpt>
      <trkpt lat="30.573534965515137" lon="-5.2600749861449">
        <ele>792.70000000000005</ele>
        <time>2003-04-15T16:17:10Z</time>
      </trkpt>
      <trkpt lat="30.57360696606338" lon="-5.259997034445405">
        <ele>792.70000000000005</ele>
        <time>2003-04-15T16:17:11Z</time>
      </trkpt>
      <trkpt lat="30.57377502322197" lon="-5.259742978960276">
        <ele>793.29999999999995</ele>
        <time>2003-04-15T16:17:14Z</time>
      </trkpt>
      <trkpt lat="30.573830008506775" lon="-5.259556984528899">
        <ele>792</ele>
        <time>2003-04-15T16:17:17Z</time>
      </trkpt>
      <trkpt lat="30.573978032916784" lon="-5.259432010352612">
        <ele>791.5</ele>
        <time>2003-04-15T16:17:18Z</time>
      </trkpt>
      <trkpt lat="30.574126979336143" lon="-5.259282980114222">
        <ele>792.70000000000005</ele>
        <time>2003-04-15T16:17:21Z</time>
      </trkpt>
      <trkpt lat="30.574187999591231" lon="-5.259187007322907">
        <ele>793.10000000000002</ele>
        <time>2003-04-15T16:17:22Z</time>
      </trkpt>
      <trkpt lat="30.574296964332461" lon="-5.258967988193035">
        <ele>793.5</ele>
        <time>2003-04-15T16:17:24Z</time>
      </trkpt>
      <trkpt lat="30.574482958763838" lon="-5.258651990443468">
        <ele>791.39999999999998</ele>
        <time>2003-04-15T16:17:26Z</time>
      </trkpt>
      <trkpt lat="30.574940023943782" lon="-5.257972972467542">
        <ele>790.39999999999998</ele>
        <time>2003-04-15T16:17:33Z</time>
      </trkpt>
      <trkpt lat="30.575061980634928" lon="-5.257793013006449">
        <ele>789.10000000000002</ele>
        <time>2003-04-15T16:17:36Z</time>
      </trkpt>
      <trkpt lat="30.575315030291677" lon="-5.257424963638187">
        <ele>788.79999999999995</ele>
        <time>2003-04-15T16:17:40Z</time>
      </trkpt>
      <trkpt lat="30.575351994484663" lon="-5.257305018603802">
        <ele>788.70000000000005</ele>
        <time>2003-04-15T16:17:41Z</time>
      </trkpt>
      <trkpt lat="30.575394993647933" lon="-5.257058003917337">
        <ele>788</ele>
        <time>2003-04-15T16:17:42Z</time>
      </trkpt>
      <trkpt lat="30.575455008074641" lon="-5.256820041686297">
        <ele>786.70000000000005</ele>
        <time>2003-04-15T16:17:45Z</time>
      </trkpt>
      <trkpt lat="30.575787015259266" lon="-5.255955029278994">
        <ele>785</ele>
        <time>2003-04-15T16:17:52Z</time>
      </trkpt>
      <trkpt lat="30.575948031619191" lon="-5.255580022931099">
        <ele>785.5</ele>
        <time>2003-04-15T16:17:55Z</time>
      </trkpt>
      <trkpt lat="30.576005028560758" lon="-5.255463011562824">
        <ele>785.5</ele>
        <time>2003-04-15T16:17:56Z</time>
      </trkpt>
      <trkpt lat="30.576073005795479" lon="-5.255367960780859">
        <ele>785.10000000000002</ele>
        <time>2003-04-15T16:17:56Z</time>
      </trkpt>
      <trkpt lat="30.576151963323355" lon="-5.255290009081364">
        <ele>785.20000000000005</ele>
        <time>2003-04-15T16:17:57Z</time>
      </trkpt>
      <trkpt lat="30.576297976076603" lon="-5.25510803796351">
        <ele>784.29999999999995</ele>
        <time>2003-04-15T16:18:00Z</time>
      </trkpt>
      <trkpt lat="30.576347010210156" lon="-5.254990020766854">
        <ele>783.70000000000005</ele>
        <time>2003-04-15T16:18:00Z</time>
      </trkpt>
      <trkpt lat="30.576367964968085" lon="-5.254867980256677">
        <ele>783</ele>
        <time>2003-04-15T16:18:01Z</time>
      </trkpt>
      <trkpt lat="30.576360002160072" lon="-5.25474501773715">
        <ele>782.60000000000002</ele>
        <time>2003-04-15T16:18:03Z</time>
      </trkpt>
      <trkpt lat="30.576332006603479" lon="-5.254622977226973">
        <ele>782.20000000000005</ele>
        <time>2003-04-15T16:18:04Z</time>
      </trkpt>
      <trkpt lat="30.576342986896634" lon="-5.254412004724145">
        <ele>782</ele>
        <time>2003-04-15T16:18:05Z</time>
      </trkpt>
      <trkpt lat="30.576409958302975" lon="-5.254317037761211">
        <ele>781.10000000000002</ele>
        <time>2003-04-15T16:18:07Z</time>
      </trkpt>
      <trkpt lat="30.576590001583099" lon="-5.253997016698122">
        <ele>781.70000000000005</ele>
        <time>2003-04-15T16:18:09Z</time>
      </trkpt>
      <trkpt lat="30.576610034331679" lon="-5.253862990066409">
        <ele>782.60000000000002</ele>
        <time>2003-04-15T16:18:11Z</time>
      </trkpt>
      <trkpt lat="30.576641969382763" lon="-5.25330500677228">
        <ele>783.10000000000002</ele>
        <time>2003-04-15T16:18:15Z</time>
      </trkpt>
      <trkpt lat="30.576611962169409" lon="-5.253023039549589">
        <ele>782.20000000000005</ele>
        <time>2003-04-15T16:18:16Z</time>
      </trkpt>
      <trkpt lat="30.576477013528347" lon="-5.252022994682193">
        <ele>780.29999999999995</ele>
        <time>2003-04-15T16:18:23Z</time>
      </trkpt>
      <trkpt lat="30.576471984386444" lon="-5.251310029998422">
        <ele>780.70000000000005</ele>
        <time>2003-04-15T16:18:28Z</time>
      </trkpt>
      <trkpt lat="30.576366959139705" lon="-5.250173024833202">
        <ele>778.60000000000002</ele>
        <time>2003-04-15T16:18:36Z</time>
      </trkpt>
      <trkpt lat="30.576179958879948" lon="-5.249129980802536">
        <ele>776.89999999999998</ele>
        <time>2003-04-15T16:18:43Z</time>
      </trkpt>
      <trkpt lat="30.576058002188802" lon="-5.248022982850671">
        <ele>775.29999999999995</ele>
        <time>2003-04-15T16:18:50Z</time>
      </trkpt>
      <trkpt lat="30.576109969988465" lon="-5.247743027284741">
        <ele>775</ele>
        <time>2003-04-15T16:18:53Z</time>
      </trkpt>
      <trkpt lat="30.576177025213838" lon="-5.247622998431325">
        <ele>774.79999999999995</ele>
        <time>2003-04-15T16:18:54Z</time>
      </trkpt>
      <trkpt lat="30.576265035197139" lon="-5.24752501398325">
        <ele>774.79999999999995</ele>
        <time>2003-04-15T16:18:54Z</time>
      </trkpt>
      <trkpt lat="30.576363019645214" lon="-5.247453013435006">
        <ele>774.60000000000002</ele>
        <time>2003-04-15T16:18:55Z</time>
      </trkpt>
      <trkpt lat="30.576514983549714" lon="-5.24728998541832">
        <ele>774.70000000000005</ele>
        <time>2003-04-15T16:18:58Z</time>
      </trkpt>
      <trkpt lat="30.576550019904971" lon="-5.247183032333851">
        <ele>774.89999999999998</ele>
        <time>2003-04-15T16:18:58Z</time>
      </trkpt>
      <trkpt lat="30.57656804099679" lon="-5.247078007087112">
        <ele>774.60000000000002</ele>
        <time>2003-04-15T16:18:59Z</time>
      </trkpt>
      <trkpt lat="30.576590001583099" lon="-5.24685999378562">
        <ele>774.10000000000002</ele>
        <time>2003-04-15T16:19:02Z</time>
      </trkpt>
      <trkpt lat="30.576678011566401" lon="-5.246677016839385">
        <ele>774</ele>
        <time>2003-04-15T16:19:03Z</time>
      </trkpt>
      <trkpt lat="30.576753029599786" lon="-5.24660300463438">
        <ele>773.89999999999998</ele>
        <time>2003-04-15T16:19:05Z</time>
      </trkpt>
      <trkpt lat="30.576902981847525" lon="-5.246441988274455">
        <ele>773.70000000000005</ele>
        <time>2003-04-15T16:19:06Z</time>
      </trkpt>
      <trkpt lat="30.576961990445852" lon="-5.246337968856096">
        <ele>773.70000000000005</ele>
        <time>2003-04-15T16:19:08Z</time>
      </trkpt>
      <trkpt lat="30.577047988772392" lon="-5.24610998108983">
        <ele>773.70000000000005</ele>
        <time>2003-04-15T16:19:10Z</time>
      </trkpt>
      <trkpt lat="30.577216967940331" lon="-5.245646964758635">
        <ele>773</ele>
        <time>2003-04-15T16:19:13Z</time>
      </trkpt>
      <trkpt lat="30.57734495960176" lon="-5.245455019176006">
        <ele>773</ele>
        <time>2003-04-15T16:19:16Z</time>
      </trkpt>
      <trkpt lat="30.577498013153672" lon="-5.245308000594378">
        <ele>772.10000000000002</ele>
        <time>2003-04-15T16:19:17Z</time>
      </trkpt>
      <trkpt lat="30.57764695957303" lon="-5.245138015598059">
        <ele>771.20000000000005</ele>
        <time>2003-04-15T16:19:20Z</time>
      </trkpt>
      <trkpt lat="30.577800013124943" lon="-5.244987979531288">
        <ele>772.10000000000002</ele>
        <time>2003-04-15T16:19:21Z</time>
      </trkpt>
      <trkpt lat="30.577849969267845" lon="-5.244897035881877">
        <ele>772</ele>
        <time>2003-04-15T16:19:22Z</time>
      </trkpt>
      <trkpt lat="30.577877964824438" lon="-5.244787987321615">
        <ele>772</ele>
        <time>2003-04-15T16:19:24Z</time>
      </trkpt>
      <trkpt lat="30.577981984242797" lon="-5.244463020935655">
        <ele>771.29999999999995</ele>
        <time>2003-04-15T16:19:26Z</time>
      </trkpt>
      <trkpt lat="30.57809698395431" lon="-5.244137970730662">
        <ele>772.10000000000002</ele>
        <time>2003-04-15T16:19:29Z</time>
      </trkpt>
      <trkpt lat="30.57809698395431" lon="-5.244011990725994">
        <ele>772.10000000000002</ele>
        <time>2003-04-15T16:19:30Z</time>
      </trkpt>
      <trkpt lat="30.57813998311758" lon="-5.243785008788109">
        <ele>772.29999999999995</ele>
        <time>2003-04-15T16:19:33Z</time>
      </trkpt>
      <trkpt lat="30.578196980059147" lon="-5.243560038506985">
        <ele>772.10000000000002</ele>
        <time>2003-04-15T16:19:35Z</time>
      </trkpt>
      <trkpt lat="30.578220030292869" lon="-5.24307799525559">
        <ele>772.79999999999995</ele>
        <time>2003-04-15T16:19:39Z</time>
      </trkpt>
      <trkpt lat="30.57818298228085" lon="-5.242957966402173">
        <ele>772.60000000000002</ele>
        <time>2003-04-15T16:19:40Z</time>
      </trkpt>
      <trkpt lat="30.578127996996045" lon="-5.242841960862279">
        <ele>772.5</ele>
        <time>2003-04-15T16:19:40Z</time>
      </trkpt>
      <trkpt lat="30.5779870133847" lon="-5.242478018626571">
        <ele>771.89999999999998</ele>
        <time>2003-04-15T16:19:44Z</time>
      </trkpt>
      <trkpt lat="30.577982990071177" lon="-5.242339968681335">
        <ele>771.70000000000005</ele>
        <time>2003-04-15T16:19:44Z</time>
      </trkpt>
      <trkpt lat="30.578012997284532" lon="-5.242056995630264">
        <ele>771.5</ele>
        <time>2003-04-15T16:19:47Z</time>
      </trkpt>
      <trkpt lat="30.578082986176014" lon="-5.241773016750813">
        <ele>771.29999999999995</ele>
        <time>2003-04-15T16:19:48Z</time>
      </trkpt>
      <trkpt lat="30.57813998311758" lon="-5.241479985415936">
        <ele>771.10000000000002</ele>
        <time>2003-04-15T16:19:51Z</time>
      </trkpt>
      <trkpt lat="30.578122967854142" lon="-5.241328021511436">
        <ele>770.89999999999998</ele>
        <time>2003-04-15T16:19:52Z</time>
      </trkpt>
      <trkpt lat="30.578067982569337" lon="-5.240727039054036">
        <ele>769.79999999999995</ele>
        <time>2003-04-15T16:19:56Z</time>
      </trkpt>
      <trkpt lat="30.578121962025762" lon="-5.240296963602305">
        <ele>769.5</ele>
        <time>2003-04-15T16:19:59Z</time>
      </trkpt>
      <trkpt lat="30.578143000602722" lon="-5.240022959187627">
        <ele>769.10000000000002</ele>
        <time>2003-04-15T16:20:00Z</time>
      </trkpt>
      <trkpt lat="30.578177031129599" lon="-5.238961977884173">
        <ele>769.29999999999995</ele>
        <time>2003-04-15T16:20:08Z</time>
      </trkpt>
      <trkpt lat="30.578237967565656" lon="-5.238546989858151">
        <ele>769.29999999999995</ele>
        <time>2003-04-15T16:20:11Z</time>
      </trkpt>
      <trkpt lat="30.57826797477901" lon="-5.238254964351654">
        <ele>769.20000000000005</ele>
        <time>2003-04-15T16:20:14Z</time>
      </trkpt>
      <trkpt lat="30.578303011134267" lon="-5.237206974998117">
        <ele>768.20000000000005</ele>
        <time>2003-04-15T16:20:20Z</time>
      </trkpt>
      <trkpt lat="30.578251965343952" lon="-5.236913021653891">
        <ele>768.10000000000002</ele>
        <time>2003-04-15T16:20:23Z</time>
      </trkpt>
      <trkpt lat="30.578250037506223" lon="-5.236643040552735">
        <ele>768.20000000000005</ele>
        <time>2003-04-15T16:20:24Z</time>
      </trkpt>
      <trkpt lat="30.578287001699209" lon="-5.236514965072274">
        <ele>768.29999999999995</ele>
        <time>2003-04-15T16:20:26Z</time>
      </trkpt>
      <trkpt lat="30.578330000862479" lon="-5.236250013113022">
        <ele>768.5</ele>
        <time>2003-04-15T16:20:27Z</time>
      </trkpt>
      <trkpt lat="30.578326983377337" lon="-5.236114980652928">
        <ele>768.20000000000005</ele>
        <time>2003-04-15T16:20:29Z</time>
      </trkpt>
      <trkpt lat="30.578341986984015" lon="-5.235847011208534">
        <ele>768.10000000000002</ele>
        <time>2003-04-15T16:20:31Z</time>
      </trkpt>
      <trkpt lat="30.578356990590692" lon="-5.235582981258631">
        <ele>767.89999999999998</ele>
        <time>2003-04-15T16:20:33Z</time>
      </trkpt>
      <trkpt lat="30.578342992812395" lon="-5.235457001253963">
        <ele>767.70000000000005</ele>
        <time>2003-04-15T16:20:34Z</time>
      </trkpt>
      <trkpt lat="30.57828800752759" lon="-5.235209986567497">
        <ele>767</ele>
        <time>2003-04-15T16:20:35Z</time>
      </trkpt>
      <trkpt lat="30.578279960900545" lon="-5.234972024336457">
        <ele>766.79999999999995</ele>
        <time>2003-04-15T16:20:38Z</time>
      </trkpt>
      <trkpt lat="30.578292030841112" lon="-5.234495010226965">
        <ele>767.70000000000005</ele>
        <time>2003-04-15T16:20:42Z</time>
      </trkpt>
      <trkpt lat="30.57828800752759" lon="-5.234040040522814">
        <ele>768.29999999999995</ele>
        <time>2003-04-15T16:20:46Z</time>
      </trkpt>
      <trkpt lat="30.578347016125917" lon="-5.233766958117485">
        <ele>767.89999999999998</ele>
        <time>2003-04-15T16:20:49Z</time>
      </trkpt>
      <trkpt lat="30.578284990042448" lon="-5.233577024191618">
        <ele>767</ele>
        <time>2003-04-15T16:20:50Z</time>
      </trkpt>
      <trkpt lat="30.578175019472837" lon="-5.233377031981945">
        <ele>764.60000000000002</ele>
        <time>2003-04-15T16:20:53Z</time>
      </trkpt>
      <trkpt lat="30.578130008652806" lon="-5.233258008956909">
        <ele>763.89999999999998</ele>
        <time>2003-04-15T16:20:54Z</time>
      </trkpt>
      <trkpt lat="30.578066976740956" lon="-5.232991967350245">
        <ele>763.20000000000005</ele>
        <time>2003-04-15T16:20:56Z</time>
      </trkpt>
      <trkpt lat="30.577939990907907" lon="-5.232602041214705">
        <ele>763.10000000000002</ele>
        <time>2003-04-15T16:20:58Z</time>
      </trkpt>
      <trkpt lat="30.577813005074859" lon="-5.232346979901195">
        <ele>763</ele>
        <time>2003-04-15T16:21:01Z</time>
      </trkpt>
      <trkpt lat="30.577733041718602" lon="-5.232252012938261">
        <ele>762.89999999999998</ele>
        <time>2003-04-15T16:21:01Z</time>
      </trkpt>
      <trkpt lat="30.577545035630465" lon="-5.231963004916906">
        <ele>762.79999999999995</ele>
        <time>2003-04-15T16:21:05Z</time>
      </trkpt>
      <trkpt lat="30.577527014538646" lon="-5.231831995770335">
        <ele>761.89999999999998</ele>
        <time>2003-04-15T16:21:05Z</time>
      </trkpt>
      <trkpt lat="30.577528020367026" lon="-5.231303013861179">
        <ele>761.60000000000002</ele>
        <time>2003-04-15T16:21:09Z</time>
      </trkpt>
      <trkpt lat="30.577487032860518" lon="-5.230924990028143">
        <ele>761.39999999999998</ele>
        <time>2003-04-15T16:21:13Z</time>
      </trkpt>
      <trkpt lat="30.577325010672212" lon="-5.230276985093951">
        <ele>761.20000000000005</ele>
        <time>2003-04-15T16:21:17Z</time>
      </trkpt>
      <trkpt lat="30.577291985973716" lon="-5.229838024824858">
        <ele>760.60000000000002</ele>
        <time>2003-04-15T16:21:21Z</time>
      </trkpt>
      <trkpt lat="30.57730296626687" lon="-5.22866296581924">
        <ele>759.89999999999998</ele>
        <time>2003-04-15T16:21:28Z</time>
      </trkpt>
      <trkpt lat="30.577319981530309" lon="-5.227597039192915">
        <ele>759.79999999999995</ele>
        <time>2003-04-15T16:21:36Z</time>
      </trkpt>
      <trkpt lat="30.577285028994083" lon="-5.227122958749533">
        <ele>759.5</ele>
        <time>2003-04-15T16:21:39Z</time>
      </trkpt>
      <trkpt lat="30.577215040102601" lon="-5.226494986563921">
        <ele>758</ele>
        <time>2003-04-15T16:21:43Z</time>
      </trkpt>
      <trkpt lat="30.576968025416136" lon="-5.225380025804043">
        <ele>757.5</ele>
        <time>2003-04-15T16:21:50Z</time>
      </trkpt>
      <trkpt lat="30.576895019039512" lon="-5.224722968414426">
        <ele>756.89999999999998</ele>
        <time>2003-04-15T16:21:54Z</time>
      </trkpt>
      <trkpt lat="30.576850008219481" lon="-5.224242014810443">
        <ele>756.20000000000005</ele>
        <time>2003-04-15T16:21:56Z</time>
      </trkpt>
      <trkpt lat="30.576822012662888" lon="-5.22391302511096">
        <ele>755.79999999999995</ele>
        <time>2003-04-15T16:21:59Z</time>
      </trkpt>
      <trkpt lat="30.576847996562719" lon="-5.223426958546042">
        <ele>756.20000000000005</ele>
        <time>2003-04-15T16:22:02Z</time>
      </trkpt>
      <trkpt lat="30.576882027089596" lon="-5.223277006298304">
        <ele>755.70000000000005</ele>
        <time>2003-04-15T16:22:03Z</time>
      </trkpt>
      <trkpt lat="30.577067015692592" lon="-5.222213007509708">
        <ele>754.5</ele>
        <time>2003-04-15T16:22:10Z</time>
      </trkpt>
      <trkpt lat="30.577070033177733" lon="-5.222060037776828">
        <ele>754.5</ele>
        <time>2003-04-15T16:22:11Z</time>
      </trkpt>
      <trkpt lat="30.577044971287251" lon="-5.221753008663654">
        <ele>754.20000000000005</ele>
        <time>2003-04-15T16:22:12Z</time>
      </trkpt>
      <trkpt lat="30.577059974893928" lon="-5.221461988985539">
        <ele>754.10000000000002</ele>
        <time>2003-04-15T16:22:15Z</time>
      </trkpt>
      <trkpt lat="30.577098028734326" lon="-5.221322011202574">
        <ele>754</ele>
        <time>2003-04-15T16:22:15Z</time>
      </trkpt>
      <trkpt lat="30.577110014855862" lon="-5.221052030101419">
        <ele>753.60000000000002</ele>
        <time>2003-04-15T16:22:18Z</time>
      </trkpt>
      <trkpt lat="30.577067015692592" lon="-5.220929989591241">
        <ele>753.60000000000002</ele>
        <time>2003-04-15T16:22:19Z</time>
      </trkpt>
      <trkpt lat="30.57699803262949" lon="-5.220688004046679">
        <ele>753.29999999999995</ele>
        <time>2003-04-15T16:22:21Z</time>
      </trkpt>
      <trkpt lat="30.577004989609122" lon="-5.220552971586585">
        <ele>753.20000000000005</ele>
        <time>2003-04-15T16:22:22Z</time>
      </trkpt>
      <trkpt lat="30.577038014307618" lon="-5.220164973288775">
        <ele>752.89999999999998</ele>
        <time>2003-04-15T16:22:25Z</time>
      </trkpt>
      <trkpt lat="30.577095011249185" lon="-5.220057014375925">
        <ele>752.89999999999998</ele>
        <time>2003-04-15T16:22:26Z</time>
      </trkpt>
      <trkpt lat="30.577180003747344" lon="-5.21996296942234">
        <ele>753.20000000000005</ele>
        <time>2003-04-15T16:22:26Z</time>
      </trkpt>
      <trkpt lat="30.577787021175027" lon="-5.219271965324879">
        <ele>753.10000000000002</ele>
        <time>2003-04-15T16:22:34Z</time>
      </trkpt>
      <trkpt lat="30.577828008681536" lon="-5.219131987541914">
        <ele>753.10000000000002</ele>
        <time>2003-04-15T16:22:34Z</time>
      </trkpt>
      <trkpt lat="30.577847035601735" lon="-5.218980023637414">
        <ele>752.60000000000002</ele>
        <time>2003-04-15T16:22:35Z</time>
      </trkpt>
      <trkpt lat="30.577942002564669" lon="-5.21852002479136">
        <ele>752.29999999999995</ele>
        <time>2003-04-15T16:22:38Z</time>
      </trkpt>
      <trkpt lat="30.578235033899546" lon="-5.217598015442491">
        <ele>751.60000000000002</ele>
        <time>2003-04-15T16:22:46Z</time>
      </trkpt>
      <trkpt lat="30.578445000573993" lon="-5.216808021068573">
        <ele>749.89999999999998</ele>
        <time>2003-04-15T16:22:52Z</time>
      </trkpt>
      <trkpt lat="30.578731996938586" lon="-5.216169990599155">
        <ele>749.29999999999995</ele>
        <time>2003-04-15T16:22:57Z</time>
      </trkpt>
      <trkpt lat="30.578887984156609" lon="-5.215928005054593">
        <ele>748.70000000000005</ele>
        <time>2003-04-15T16:22:58Z</time>
      </trkpt>
      <trkpt lat="30.57904003188014" lon="-5.215672021731734">
        <ele>748.70000000000005</ele>
        <time>2003-04-15T16:23:01Z</time>
      </trkpt>
      <trkpt lat="30.579217979684472" lon="-5.215242030099034">
        <ele>748.20000000000005</ele>
        <time>2003-04-15T16:23:04Z</time>
      </trkpt>
      <trkpt lat="30.579282017424703" lon="-5.214955033734441">
        <ele>748.29999999999995</ele>
        <time>2003-04-15T16:23:05Z</time>
      </trkpt>
      <trkpt lat="30.579391987994313" lon="-5.214539961889386">
        <ele>747.5</ele>
        <time>2003-04-15T16:23:09Z</time>
      </trkpt>
      <trkpt lat="30.579583011567593" lon="-5.214162021875382">
        <ele>747.10000000000002</ele>
        <time>2003-04-15T16:23:12Z</time>
      </trkpt>
      <trkpt lat="30.579636991024017" lon="-5.214032018557191">
        <ele>747</ele>
        <time>2003-04-15T16:23:13Z</time>
      </trkpt>
      <trkpt lat="30.579666998237371" lon="-5.213890029117465">
        <ele>746.89999999999998</ele>
        <time>2003-04-15T16:23:13Z</time>
      </trkpt>
      <trkpt lat="30.579677978530526" lon="-5.213742004707456">
        <ele>746.79999999999995</ele>
        <time>2003-04-15T16:23:15Z</time>
      </trkpt>
      <trkpt lat="30.579779986292124" lon="-5.213142028078437">
        <ele>746.79999999999995</ele>
        <time>2003-04-15T16:23:19Z</time>
      </trkpt>
      <trkpt lat="30.580152980983257" lon="-5.212009968236089">
        <ele>746</ele>
        <time>2003-04-15T16:23:25Z</time>
      </trkpt>
      <trkpt lat="30.580656984820962" lon="-5.210995003581047">
        <ele>745.20000000000005</ele>
        <time>2003-04-15T16:23:32Z</time>
      </trkpt>
      <trkpt lat="30.580933000892401" lon="-5.210542967543006">
        <ele>744.60000000000002</ele>
        <time>2003-04-15T16:23:35Z</time>
      </trkpt>
      <trkpt lat="30.581098040565848" lon="-5.210277009755373">
        <ele>744.39999999999998</ele>
        <time>2003-04-15T16:23:36Z</time>
      </trkpt>
      <trkpt lat="30.581208011135459" lon="-5.209975009784102">
        <ele>743.89999999999998</ele>
        <time>2003-04-15T16:23:39Z</time>
      </trkpt>
      <trkpt lat="30.581506993621588" lon="-5.20887203514576">
        <ele>743.5</ele>
        <time>2003-04-15T16:23:46Z</time>
      </trkpt>
      <trkpt lat="30.581966992467642" lon="-5.207817004993558">
        <ele>742.79999999999995</ele>
        <time>2003-04-15T16:23:52Z</time>
      </trkpt>
      <trkpt lat="30.582287013530731" lon="-5.207176962867379">
        <ele>741.89999999999998</ele>
        <time>2003-04-15T16:23:58Z</time>
      </trkpt>
      <trkpt lat="30.582309979945421" lon="-5.207043020054698">
        <ele>741.89999999999998</ele>
        <time>2003-04-15T16:23:59Z</time>
      </trkpt>
      <trkpt lat="30.58230796828866" lon="-5.206909999251366">
        <ele>741.79999999999995</ele>
        <time>2003-04-15T16:23:59Z</time>
      </trkpt>
      <trkpt lat="30.582318026572466" lon="-5.206529963761568">
        <ele>741.70000000000005</ele>
        <time>2003-04-15T16:24:03Z</time>
      </trkpt>
      <trkpt lat="30.582369994372129" lon="-5.206413036212325">
        <ele>741.5</ele>
        <time>2003-04-15T16:24:03Z</time>
      </trkpt>
      <trkpt lat="30.582441994920373" lon="-5.206308010965586">
        <ele>741.5</ele>
        <time>2003-04-15T16:24:05Z</time>
      </trkpt>
      <trkpt lat="30.582535034045577" lon="-5.206227041780949">
        <ele>741.29999999999995</ele>
        <time>2003-04-15T16:24:06Z</time>
      </trkpt>
      <trkpt lat="30.582747012376785" lon="-5.206097038462758">
        <ele>741.39999999999998</ele>
        <time>2003-04-15T16:24:07Z</time>
      </trkpt>
      <trkpt lat="30.582841979339719" lon="-5.20601799711585">
        <ele>741.5</ele>
        <time>2003-04-15T16:24:09Z</time>
      </trkpt>
      <trkpt lat="30.582911968231201" lon="-5.205912971869111">
        <ele>741.5</ele>
        <time>2003-04-15T16:24:10Z</time>
      </trkpt>
      <trkpt lat="30.582959996536374" lon="-5.205787997692823">
        <ele>741.29999999999995</ele>
        <time>2003-04-15T16:24:10Z</time>
      </trkpt>
      <trkpt lat="30.582992015406489" lon="-5.205648019909859">
        <ele>741.5</ele>
        <time>2003-04-15T16:24:11Z</time>
      </trkpt>
      <trkpt lat="30.583168035373092" lon="-5.204924996942282">
        <ele>740.89999999999998</ele>
        <time>2003-04-15T16:24:17Z</time>
      </trkpt>
      <trkpt lat="30.583537006750703" lon="-5.203882958739996">
        <ele>741.29999999999995</ele>
        <time>2003-04-15T16:24:23Z</time>
      </trkpt>
      <trkpt lat="30.583889968693256" lon="-5.202862964943051">
        <ele>740.20000000000005</ele>
        <time>2003-04-15T16:24:30Z</time>
      </trkpt>
      <trkpt lat="30.584345022216439" lon="-5.201780023053289">
        <ele>739.39999999999998</ele>
        <time>2003-04-15T16:24:36Z</time>
      </trkpt>
      <trkpt lat="30.584818013012409" lon="-5.200843010097742">
        <ele>738.10000000000002</ele>
        <time>2003-04-15T16:24:41Z</time>
      </trkpt>
      <trkpt lat="30.585341965779662" lon="-5.199883030727506">
        <ele>737</ele>
        <time>2003-04-15T16:24:45Z</time>
      </trkpt>
      <trkpt lat="30.585864996537566" lon="-5.19899002276361">
        <ele>736</ele>
        <time>2003-04-15T16:24:50Z</time>
      </trkpt>
      <trkpt lat="30.586100025102496" lon="-5.198432039469481">
        <ele>736.20000000000005</ele>
        <time>2003-04-15T16:24:53Z</time>
      </trkpt>
      <trkpt lat="30.586312003433704" lon="-5.197919989004731">
        <ele>735.70000000000005</ele>
        <time>2003-04-15T16:24:57Z</time>
      </trkpt>
      <trkpt lat="30.586621966212988" lon="-5.197312971577048">
        <ele>734.89999999999998</ele>
        <time>2003-04-15T16:25:01Z</time>
      </trkpt>
      <trkpt lat="30.586956990882754" lon="-5.196332037448883">
        <ele>734.70000000000005</ele>
        <time>2003-04-15T16:25:07Z</time>
      </trkpt>
      <trkpt lat="30.587317999452353" lon="-5.19531799480319">
        <ele>733.89999999999998</ele>
        <time>2003-04-15T16:25:12Z</time>
      </trkpt>
      <trkpt lat="30.587744973599911" lon="-5.194345023483038">
        <ele>733.39999999999998</ele>
        <time>2003-04-15T16:25:19Z</time>
      </trkpt>
      <trkpt lat="30.588127020746469" lon="-5.193257974460721">
        <ele>733.20000000000005</ele>
        <time>2003-04-15T16:25:24Z</time>
      </trkpt>
      <trkpt lat="30.588518036529422" lon="-5.192151982337236">
        <ele>732.39999999999998</ele>
        <time>2003-04-15T16:25:31Z</time>
      </trkpt>
      <trkpt lat="30.588987004011869" lon="-5.191097036004067">
        <ele>731.79999999999995</ele>
        <time>2003-04-15T16:25:36Z</time>
      </trkpt>
      <trkpt lat="30.58937500230968" lon="-5.190452970564365">
        <ele>731.29999999999995</ele>
        <time>2003-04-15T16:25:40Z</time>
      </trkpt>
      <trkpt lat="30.589538030326366" lon="-5.190118029713631">
        <ele>731.70000000000005</ele>
        <time>2003-04-15T16:25:43Z</time>
      </trkpt>
      <trkpt lat="30.590013032779098" lon="-5.189099963754416">
        <ele>731.20000000000005</ele>
        <time>2003-04-15T16:25:48Z</time>
      </trkpt>
      <trkpt lat="30.590253006666899" lon="-5.188599983230233">
        <ele>731</ele>
        <time>2003-04-15T16:25:51Z</time>
      </trkpt>
      <trkpt lat="30.59062298387289" lon="-5.187521986663342">
        <ele>731.10000000000002</ele>
        <time>2003-04-15T16:25:58Z</time>
      </trkpt>
      <trkpt lat="30.591017017140985" lon="-5.186432003974915">
        <ele>731.89999999999998</ele>
        <time>2003-04-15T16:26:03Z</time>
      </trkpt>
      <trkpt lat="30.591486990451813" lon="-5.185331963002682">
        <ele>731.60000000000002</ele>
        <time>2003-04-15T16:26:10Z</time>
      </trkpt>
      <trkpt lat="30.591857973486185" lon="-5.184371983632445">
        <ele>731.60000000000002</ele>
        <time>2003-04-15T16:26:14Z</time>
      </trkpt>
      <trkpt lat="30.592286959290504" lon="-5.183424996212125">
        <ele>731.60000000000002</ele>
        <time>2003-04-15T16:26:20Z</time>
      </trkpt>
      <trkpt lat="30.59268300421536" lon="-5.182723011821508">
        <ele>731.5</ele>
        <time>2003-04-15T16:26:25Z</time>
      </trkpt>
      <trkpt lat="30.593317011371255" lon="-5.181742999702692">
        <ele>731.29999999999995</ele>
        <time>2003-04-15T16:26:29Z</time>
      </trkpt>
      <trkpt lat="30.593450032174587" lon="-5.181413004174829">
        <ele>730.89999999999998</ele>
        <time>2003-04-15T16:26:32Z</time>
      </trkpt>
      <trkpt lat="30.593486996367574" lon="-5.181246958673">
        <ele>731.70000000000005</ele>
        <time>2003-04-15T16:26:33Z</time>
      </trkpt>
      <trkpt lat="30.59349998831749" lon="-5.18107496201992">
        <ele>731.5</ele>
        <time>2003-04-15T16:26:33Z</time>
      </trkpt>
      <trkpt lat="30.593556985259056" lon="-5.180574981495738">
        <ele>730.60000000000002</ele>
        <time>2003-04-15T16:26:37Z</time>
      </trkpt>
      <trkpt lat="30.593616999685764" lon="-5.180417988449335">
        <ele>730.60000000000002</ele>
        <time>2003-04-15T16:26:37Z</time>
      </trkpt>
      <trkpt lat="30.593889998272061" lon="-5.17984701320529">
        <ele>731</ele>
        <time>2003-04-15T16:26:42Z</time>
      </trkpt>
      <trkpt lat="30.594222005456686" lon="-5.179345021024346">
        <ele>730.79999999999995</ele>
        <time>2003-04-15T16:26:47Z</time>
      </trkpt>
      <trkpt lat="30.594347985461354" lon="-5.179094988852739">
        <ele>730.29999999999995</ele>
        <time>2003-04-15T16:26:49Z</time>
      </trkpt>
      <trkpt lat="30.594702959060669" lon="-5.178099973127246">
        <ele>729.79999999999995</ele>
        <time>2003-04-15T16:26:56Z</time>
      </trkpt>
      <trkpt lat="30.594867998734117" lon="-5.177696971222758">
        <ele>730</ele>
        <time>2003-04-15T16:26:59Z</time>
      </trkpt>
      <trkpt lat="30.595315005630255" lon="-5.176728023216128">
        <ele>729.20000000000005</ele>
        <time>2003-04-15T16:27:07Z</time>
      </trkpt>
      <trkpt lat="30.595757989212871" lon="-5.17574499361217">
        <ele>728.89999999999998</ele>
        <time>2003-04-15T16:27:15Z</time>
      </trkpt>
      <trkpt lat="30.595935015007854" lon="-5.175367975607514">
        <ele>728.20000000000005</ele>
        <time>2003-04-15T16:27:18Z</time>
      </trkpt>
      <trkpt lat="30.596017995849252" lon="-5.175091959536076">
        <ele>728.29999999999995</ele>
        <time>2003-04-15T16:27:19Z</time>
      </trkpt>
      <trkpt lat="30.596214970573783" lon="-5.174527019262314">
        <ele>727.89999999999998</ele>
        <time>2003-04-15T16:27:23Z</time>
      </trkpt>
      <trkpt lat="30.596457961946726" lon="-5.174147989600897">
        <ele>727.79999999999995</ele>
        <time>2003-04-15T16:27:27Z</time>
      </trkpt>
      <trkpt lat="30.596802961081266" lon="-5.17363996244967">
        <ele>727.29999999999995</ele>
        <time>2003-04-15T16:27:31Z</time>
      </trkpt>
      <trkpt lat="30.597251979634166" lon="-5.1725850161165">
        <ele>727.29999999999995</ele>
        <time>2003-04-15T16:27:38Z</time>
      </trkpt>
      <trkpt lat="30.597663028165698" lon="-5.171514982357621">
        <ele>726.79999999999995</ele>
        <time>2003-04-15T16:27:45Z</time>
      </trkpt>
      <trkpt lat="30.598102994263172" lon="-5.17050001770258">
        <ele>726</ele>
        <time>2003-04-15T16:27:51Z</time>
      </trkpt>
      <trkpt lat="30.598516976460814" lon="-5.169499972835183">
        <ele>725.39999999999998</ele>
        <time>2003-04-15T16:27:58Z</time>
      </trkpt>
      <trkpt lat="30.598797015845776" lon="-5.16891298815608">
        <ele>725</ele>
        <time>2003-04-15T16:28:02Z</time>
      </trkpt>
      <trkpt lat="30.599074959754944" lon="-5.168507974594832">
        <ele>724.70000000000005</ele>
        <time>2003-04-15T16:28:06Z</time>
      </trkpt>
      <trkpt lat="30.59934301301837" lon="-5.168077982962132">
        <ele>725.10000000000002</ele>
        <time>2003-04-15T16:28:09Z</time>
      </trkpt>
      <trkpt lat="30.599847016856074" lon="-5.167120015248656">
        <ele>724.20000000000005</ele>
        <time>2003-04-15T16:28:14Z</time>
      </trkpt>
      <trkpt lat="30.600412962958217" lon="-5.166136985644698">
        <ele>724</ele>
        <time>2003-04-15T16:28:21Z</time>
      </trkpt>
      <trkpt lat="30.600776989012957" lon="-5.165628036484122">
        <ele>723.39999999999998</ele>
        <time>2003-04-15T16:28:25Z</time>
      </trkpt>
      <trkpt lat="30.600931970402598" lon="-5.165372975170612">
        <ele>723.39999999999998</ele>
        <time>2003-04-15T16:28:26Z</time>
      </trkpt>
      <trkpt lat="30.600983016192913" lon="-5.165231991559267">
        <ele>723.10000000000002</ele>
        <time>2003-04-15T16:28:28Z</time>
      </trkpt>
      <trkpt lat="30.60099801979959" lon="-5.16508799046278">
        <ele>723.20000000000005</ele>
        <time>2003-04-15T16:28:29Z</time>
      </trkpt>
      <trkpt lat="30.60099701397121" lon="-5.164935020729899">
        <ele>723.29999999999995</ele>
        <time>2003-04-15T16:28:29Z</time>
      </trkpt>
      <trkpt lat="30.601016962900758" lon="-5.164449959993362">
        <ele>723.10000000000002</ele>
        <time>2003-04-15T16:28:33Z</time>
      </trkpt>
      <trkpt lat="30.601145038381219" lon="-5.163873033598065">
        <ele>722.5</ele>
        <time>2003-04-15T16:28:37Z</time>
      </trkpt>
      <trkpt lat="30.601268000900745" lon="-5.163546977564693">
        <ele>722.10000000000002</ele>
        <time>2003-04-15T16:28:40Z</time>
      </trkpt>
      <trkpt lat="30.601343018934131" lon="-5.163386967033148">
        <ele>721.89999999999998</ele>
        <time>2003-04-15T16:28:41Z</time>
      </trkpt>
      <trkpt lat="30.601437985897064" lon="-5.16323802061379">
        <ele>721.89999999999998</ele>
        <time>2003-04-15T16:28:44Z</time>
      </trkpt>
      <trkpt lat="30.601588021963835" lon="-5.163008021190763">
        <ele>721.79999999999995</ele>
        <time>2003-04-15T16:28:47Z</time>
      </trkpt>
      <trkpt lat="30.601848028600216" lon="-5.162432016804814">
        <ele>721.89999999999998</ele>
        <time>2003-04-15T16:28:52Z</time>
      </trkpt>
      <trkpt lat="30.601936960592866" lon="-5.162236969918013">
        <ele>722</ele>
        <time>2003-04-15T16:28:55Z</time>
      </trkpt>
      <trkpt lat="30.602077022194862" lon="-5.162060027942061">
        <ele>722</ele>
        <time>2003-04-15T16:28:56Z</time>
      </trkpt>
      <trkpt lat="30.602214988321066" lon="-5.161872021853924">
        <ele>722.10000000000002</ele>
        <time>2003-04-15T16:28:59Z</time>
      </trkpt>
      <trkpt lat="30.602463008835912" lon="-5.161382015794516">
        <ele>721.79999999999995</ele>
        <time>2003-04-15T16:29:04Z</time>
      </trkpt>
      <trkpt lat="30.602484969422221" lon="-5.161276990547776">
        <ele>721.70000000000005</ele>
        <time>2003-04-15T16:29:04Z</time>
      </trkpt>
      <trkpt lat="30.602582031860948" lon="-5.161089990288019">
        <ele>721.70000000000005</ele>
        <time>2003-04-15T16:29:07Z</time>
      </trkpt>
      <trkpt lat="30.602657971903682" lon="-5.161012038588524">
        <ele>721.89999999999998</ele>
        <time>2003-04-15T16:29:07Z</time>
      </trkpt>
      <trkpt lat="30.602923007681966" lon="-5.160682965070009">
        <ele>721.5</ele>
        <time>2003-04-15T16:29:11Z</time>
      </trkpt>
      <trkpt lat="30.603517033159733" lon="-5.159942004829645">
        <ele>721.5</ele>
        <time>2003-04-15T16:29:19Z</time>
      </trkpt>
      <trkpt lat="30.603752983734012" lon="-5.159604968503118">
        <ele>721.39999999999998</ele>
        <time>2003-04-15T16:29:23Z</time>
      </trkpt>
      <trkpt lat="30.604337034747005" lon="-5.158631997182965">
        <ele>720.5</ele>
        <time>2003-04-15T16:29:31Z</time>
      </trkpt>
      <trkpt lat="30.604529986158013" lon="-5.158460000529885">
        <ele>720.29999999999995</ele>
        <time>2003-04-15T16:29:33Z</time>
      </trkpt>
      <trkpt lat="30.604787981137633" lon="-5.158209968358278">
        <ele>720.20000000000005</ele>
        <time>2003-04-15T16:29:35Z</time>
      </trkpt>
      <trkpt lat="30.605240017175674" lon="-5.157730020582676">
        <ele>720.29999999999995</ele>
        <time>2003-04-15T16:29:41Z</time>
      </trkpt>
      <trkpt lat="30.60600696131587" lon="-5.157034993171692">
        <ele>720.10000000000002</ele>
        <time>2003-04-15T16:29:47Z</time>
      </trkpt>
      <trkpt lat="30.606462014839053" lon="-5.156638026237488">
        <ele>720.10000000000002</ele>
        <time>2003-04-15T16:29:51Z</time>
      </trkpt>
      <trkpt lat="30.607329960912466" lon="-5.156045006588101">
        <ele>721.10000000000002</ele>
        <time>2003-04-15T16:30:00Z</time>
      </trkpt>
      <trkpt lat="30.607891967520118" lon="-5.155681986361742">
        <ele>721.29999999999995</ele>
        <time>2003-04-15T16:30:05Z</time>
      </trkpt>
      <trkpt lat="30.608136970549822" lon="-5.155458021908999">
        <ele>721</ele>
        <time>2003-04-15T16:30:08Z</time>
      </trkpt>
      <trkpt lat="30.608266973868012" lon="-5.155357019975781">
        <ele>720.79999999999995</ele>
        <time>2003-04-15T16:30:09Z</time>
      </trkpt>
      <trkpt lat="30.608426984399557" lon="-5.155231961980462">
        <ele>720.70000000000005</ele>
        <time>2003-04-15T16:30:13Z</time>
      </trkpt>
      <trkpt lat="30.608469983562827" lon="-5.155132971704006">
        <ele>720.39999999999998</ele>
        <time>2003-04-15T16:30:14Z</time>
      </trkpt>
      <trkpt lat="30.608535027131438" lon="-5.155059965327382">
        <ele>720.10000000000002</ele>
        <time>2003-04-15T16:30:20Z</time>
      </trkpt>
      <trkpt lat="30.608605016022921" lon="-5.154970027506352">
        <ele>720.20000000000005</ele>
        <time>2003-04-15T16:30:25Z</time>
      </trkpt>
      <trkpt lat="30.608657989650965" lon="-5.154870031401515">
        <ele>720.10000000000002</ele>
        <time>2003-04-15T16:30:29Z</time>
      </trkpt>
      <trkpt lat="30.608735019341111" lon="-5.154791995882988">
        <ele>719.70000000000005</ele>
        <time>2003-04-15T16:31:08Z</time>
      </trkpt>
      <trkpt lat="30.608818000182509" lon="-5.15475201420486">
        <ele>719.79999999999995</ele>
        <time>2003-04-15T16:31:21Z</time>
      </trkpt>
      <trkpt lat="30.608917996287346" lon="-5.154716977849603">
        <ele>719.79999999999995</ele>
        <time>2003-04-15T16:31:30Z</time>
      </trkpt>
      <trkpt lat="30.609012963250279" lon="-5.154662998393178">
        <ele>719.79999999999995</ele>
        <time>2003-04-15T16:31:31Z</time>
      </trkpt>
      <trkpt lat="30.609127040952444" lon="-5.154583035036922">
        <ele>719.70000000000005</ele>
        <time>2003-04-15T16:31:34Z</time>
      </trkpt>
      <trkpt lat="30.609259977936745" lon="-5.154477003961802">
        <ele>719.5</ele>
        <time>2003-04-15T16:31:35Z</time>
      </trkpt>
      <trkpt lat="30.609438009560108" lon="-5.154356975108385">
        <ele>719.39999999999998</ele>
        <time>2003-04-15T16:31:38Z</time>
      </trkpt>
      <trkpt lat="30.609655017033219" lon="-5.154233006760478">
        <ele>719.10000000000002</ele>
        <time>2003-04-15T16:31:39Z</time>
      </trkpt>
      <trkpt lat="30.610160026699305" lon="-5.153965037316084">
        <ele>719.10000000000002</ele>
        <time>2003-04-15T16:31:44Z</time>
      </trkpt>
      <trkpt lat="30.611068038269877" lon="-5.15346203930676">
        <ele>719.5</ele>
        <time>2003-04-15T16:31:50Z</time>
      </trkpt>
      <trkpt lat="30.611471962183714" lon="-5.15320697799325">
        <ele>719.79999999999995</ele>
        <time>2003-04-15T16:31:54Z</time>
      </trkpt>
      <trkpt lat="30.61169701628387" lon="-5.153040010482073">
        <ele>720</ele>
        <time>2003-04-15T16:31:57Z</time>
      </trkpt>
      <trkpt lat="30.611695004627109" lon="-5.152849992737174">
        <ele>720.10000000000002</ele>
        <time>2003-04-15T16:32:00Z</time>
      </trkpt>
      <trkpt lat="30.611567012965679" lon="-5.152727030217648">
        <ele>719.79999999999995</ele>
        <time>2003-04-15T16:32:01Z</time>
      </trkpt>
      <trkpt lat="30.611395016312599" lon="-5.152765000239015">
        <ele>719.60000000000002</ele>
        <time>2003-04-15T16:32:04Z</time>
      </trkpt>
      <trkpt lat="30.611327039077878" lon="-5.152837000787258">
        <ele>719.70000000000005</ele>
        <time>2003-04-15T16:32:05Z</time>
      </trkpt>
      <trkpt lat="30.611114976927638" lon="-5.153079992160201">
        <ele>719.70000000000005</ele>
        <time>2003-04-15T16:32:08Z</time>
      </trkpt>
      <trkpt lat="30.610841978341341" lon="-5.153372017666698">
        <ele>719.60000000000002</ele>
        <time>2003-04-15T16:32:11Z</time>
      </trkpt>
      <trkpt lat="30.610597981140018" lon="-5.1535480376333">
        <ele>719.39999999999998</ele>
        <time>2003-04-15T16:32:13Z</time>
      </trkpt>
      <trkpt lat="30.610343003645539" lon="-5.153745012357831">
        <ele>719.39999999999998</ele>
        <time>2003-04-15T16:32:15Z</time>
      </trkpt>
      <trkpt lat="30.609615035355091" lon="-5.154371978715062">
        <ele>719</ele>
        <time>2003-04-15T16:32:20Z</time>
      </trkpt>
      <trkpt lat="30.609440021216869" lon="-5.1545599848032">
        <ele>719.29999999999995</ele>
        <time>2003-04-15T16:32:23Z</time>
      </trkpt>
      <trkpt lat="30.609400039538741" lon="-5.154665010049939">
        <ele>719.20000000000005</ele>
        <time>2003-04-15T16:32:24Z</time>
      </trkpt>
      <trkpt lat="30.609304988756776" lon="-5.154840024188161">
        <ele>719.60000000000002</ele>
        <time>2003-04-15T16:32:25Z</time>
      </trkpt>
      <trkpt lat="30.609112959355116" lon="-5.154982013627887">
        <ele>719.70000000000005</ele>
        <time>2003-04-15T16:32:28Z</time>
      </trkpt>
      <trkpt lat="30.608983039855957" lon="-5.154944965615869">
        <ele>719.70000000000005</ele>
        <time>2003-04-15T16:32:31Z</time>
      </trkpt>
      <trkpt lat="30.608922019600868" lon="-5.154813034459949">
        <ele>719.70000000000005</ele>
        <time>2003-04-15T16:32:32Z</time>
      </trkpt>
      <trkpt lat="30.60896803624928" lon="-5.154704991728067">
        <ele>719.70000000000005</ele>
        <time>2003-04-15T16:32:35Z</time>
      </trkpt>
      <trkpt lat="30.608937023207545" lon="-5.154583035036922">
        <ele>719.29999999999995</ele>
        <time>2003-04-15T16:32:38Z</time>
      </trkpt>
      <trkpt lat="30.624219998717308" lon="-5.123315015807748">
        <ele>720.39999999999998</ele>
        <time>2003-04-15T16:44:52Z</time>
      </trkpt>
      <trkpt lat="30.624334998428822" lon="-5.123187024146318">
        <ele>720.39999999999998</ele>
        <time>2003-04-15T16:44:52Z</time>
      </trkpt>
      <trkpt lat="30.624792985618114" lon="-5.12256701476872">
        <ele>720.39999999999998</ele>
        <time>2003-04-15T16:44:57Z</time>
      </trkpt>
      <trkpt lat="30.625317022204399" lon="-5.121766962110996">
        <ele>717</ele>
        <time>2003-04-15T16:45:04Z</time>
      </trkpt>
      <trkpt lat="30.62609301880002" lon="-5.120912007987499">
        <ele>717.39999999999998</ele>
        <time>2003-04-15T16:45:11Z</time>
      </trkpt>
      <trkpt lat="30.626401975750923" lon="-5.120691983029246">
        <ele>717.89999999999998</ele>
        <time>2003-04-15T16:45:14Z</time>
      </trkpt>
      <trkpt lat="30.626527033746243" lon="-5.120572037994862">
        <ele>717.89999999999998</ele>
        <time>2003-04-15T16:45:14Z</time>
      </trkpt>
      <trkpt lat="30.626719985157251" lon="-5.120502971112728">
        <ele>718</ele>
        <time>2003-04-15T16:45:15Z</time>
      </trkpt>
      <trkpt lat="30.626862980425358" lon="-5.12039802968502">
        <ele>718.20000000000005</ele>
        <time>2003-04-15T16:45:16Z</time>
      </trkpt>
      <trkpt lat="30.627042017877102" lon="-5.120317982509732">
        <ele>718.29999999999995</ele>
        <time>2003-04-15T16:45:16Z</time>
      </trkpt>
      <trkpt lat="30.627202028408647" lon="-5.120213041082025">
        <ele>718.29999999999995</ele>
        <time>2003-04-15T16:45:18Z</time>
      </trkpt>
      <trkpt lat="30.628123031929135" lon="-5.119607029482722">
        <ele>718.89999999999998</ele>
        <time>2003-04-15T16:45:23Z</time>
      </trkpt>
      <trkpt lat="30.628761984407902" lon="-5.119326990097761">
        <ele>720.29999999999995</ele>
        <time>2003-04-15T16:45:27Z</time>
      </trkpt>
      <trkpt lat="30.629439996555448" lon="-5.118985008448362">
        <ele>721.70000000000005</ele>
        <time>2003-04-15T16:45:32Z</time>
      </trkpt>
      <trkpt lat="30.629511997103691" lon="-5.118873026221991">
        <ele>722.70000000000005</ele>
        <time>2003-04-15T16:45:34Z</time>
      </trkpt>
      <trkpt lat="30.629596989601851" lon="-5.118776969611645">
        <ele>723</ele>
        <time>2003-04-15T16:45:35Z</time>
      </trkpt>
      <trkpt lat="30.62970302067697" lon="-5.118698012083769">
        <ele>723.5</ele>
        <time>2003-04-15T16:45:35Z</time>
      </trkpt>
      <trkpt lat="30.629822965711355" lon="-5.118640009313822">
        <ele>723.60000000000002</ele>
        <time>2003-04-15T16:45:36Z</time>
      </trkpt>
      <trkpt lat="30.629945006221533" lon="-5.118621988222003">
        <ele>724.10000000000002</ele>
        <time>2003-04-15T16:45:38Z</time>
      </trkpt>
      <trkpt lat="30.630169976502657" lon="-5.118567002937198">
        <ele>724.79999999999995</ele>
        <time>2003-04-15T16:45:39Z</time>
      </trkpt>
      <trkpt lat="30.630263015627861" lon="-5.118468012660742">
        <ele>723.60000000000002</ele>
        <time>2003-04-15T16:45:41Z</time>
      </trkpt>
      <trkpt lat="30.630338033661246" lon="-5.118362987414002">
        <ele>724.89999999999998</ele>
        <time>2003-04-15T16:45:42Z</time>
      </trkpt>
      <trkpt lat="30.630442975088954" lon="-5.118301967158914">
        <ele>725.39999999999998</ele>
        <time>2003-04-15T16:45:43Z</time>
      </trkpt>
      <trkpt lat="30.630655037239194" lon="-5.118144974112511">
        <ele>724.70000000000005</ele>
        <time>2003-04-15T16:45:45Z</time>
      </trkpt>
      <trkpt lat="30.630972040817142" lon="-5.117846997454763">
        <ele>726.29999999999995</ele>
        <time>2003-04-15T16:45:47Z</time>
      </trkpt>
      <trkpt lat="30.631328020244837" lon="-5.117526976391673">
        <ele>727.20000000000005</ele>
        <time>2003-04-15T16:45:50Z</time>
      </trkpt>
      <trkpt lat="30.632142992690206" lon="-5.116804959252477">
        <ele>728.39999999999998</ele>
        <time>2003-04-15T16:45:57Z</time>
      </trkpt>
      <trkpt lat="30.632867021486163" lon="-5.116180004552007">
        <ele>729.39999999999998</ele>
        <time>2003-04-15T16:46:02Z</time>
      </trkpt>
      <trkpt lat="30.633703032508492" lon="-5.115482965484262">
        <ele>729.70000000000005</ele>
        <time>2003-04-15T16:46:08Z</time>
      </trkpt>
      <trkpt lat="30.634463019669056" lon="-5.114866979420185">
        <ele>730.29999999999995</ele>
        <time>2003-04-15T16:46:13Z</time>
      </trkpt>
      <trkpt lat="30.635282015427947" lon="-5.114185027778149">
        <ele>730.20000000000005</ele>
        <time>2003-04-15T16:46:21Z</time>
      </trkpt>
      <trkpt lat="30.636017024517059" lon="-5.113477008417249">
        <ele>727.5</ele>
        <time>2003-04-15T16:46:28Z</time>
      </trkpt>
      <trkpt lat="30.636463025584817" lon="-5.113045005127788">
        <ele>727.70000000000005</ele>
        <time>2003-04-15T16:46:32Z</time>
      </trkpt>
      <trkpt lat="30.637182025238872" lon="-5.112176975235343">
        <ele>728.5</ele>
        <time>2003-04-15T16:46:39Z</time>
      </trkpt>
      <trkpt lat="30.63763003796339" lon="-5.111682023853064">
        <ele>728.70000000000005</ele>
        <time>2003-04-15T16:46:44Z</time>
      </trkpt>
      <trkpt lat="30.637736991047859" lon="-5.111568029969931">
        <ele>728.89999999999998</ele>
        <time>2003-04-15T16:46:45Z</time>
      </trkpt>
      <trkpt lat="30.63784503377974" lon="-5.111486976966262">
        <ele>728.79999999999995</ele>
        <time>2003-04-15T16:46:48Z</time>
      </trkpt>
      <trkpt lat="30.637994986027479" lon="-5.111463004723191">
        <ele>729.10000000000002</ele>
        <time>2003-04-15T16:46:49Z</time>
      </trkpt>
      <trkpt lat="30.638412991538644" lon="-5.111384969204664">
        <ele>728.39999999999998</ele>
        <time>2003-04-15T16:46:55Z</time>
      </trkpt>
      <trkpt lat="30.638566967099905" lon="-5.111262006685138">
        <ele>728.10000000000002</ele>
        <time>2003-04-15T16:46:56Z</time>
      </trkpt>
      <trkpt lat="30.638969969004393" lon="-5.110882977023721">
        <ele>727.10000000000002</ele>
        <time>2003-04-15T16:47:02Z</time>
      </trkpt>
      <trkpt lat="30.639089997857809" lon="-5.11068700812757">
        <ele>726.89999999999998</ele>
        <time>2003-04-15T16:47:04Z</time>
      </trkpt>
      <trkpt lat="30.639214972034097" lon="-5.110524985939264">
        <ele>726.79999999999995</ele>
        <time>2003-04-15T16:47:06Z</time>
      </trkpt>
      <trkpt lat="30.639302982017398" lon="-5.110487015917897">
        <ele>726.70000000000005</ele>
        <time>2003-04-15T16:47:07Z</time>
      </trkpt>
      <trkpt lat="30.639583021402359" lon="-5.110327005386353">
        <ele>726.29999999999995</ele>
        <time>2003-04-15T16:47:10Z</time>
      </trkpt>
      <trkpt lat="30.640062969177961" lon="-5.109968008473516">
        <ele>725.20000000000005</ele>
        <time>2003-04-15T16:47:15Z</time>
      </trkpt>
      <trkpt lat="30.640192972496152" lon="-5.109817972406745">
        <ele>725.20000000000005</ele>
        <time>2003-04-15T16:47:18Z</time>
      </trkpt>
      <trkpt lat="30.640780040994287" lon="-5.108996964991093">
        <ele>721.20000000000005</ele>
        <time>2003-04-15T16:47:27Z</time>
      </trkpt>
      <trkpt lat="30.641082040965557" lon="-5.108518023043871">
        <ele>720</ele>
        <time>2003-04-15T16:47:34Z</time>
      </trkpt>
      <trkpt lat="30.641197962686419" lon="-5.108230020850897">
        <ele>719.70000000000005</ele>
        <time>2003-04-15T16:47:37Z</time>
      </trkpt>
      <trkpt lat="30.641423016786575" lon="-5.107706990092993">
        <ele>718.5</ele>
        <time>2003-04-15T16:47:42Z</time>
      </trkpt>
      <trkpt lat="30.641628038138151" lon="-5.107371965423226">
        <ele>718.20000000000005</ele>
        <time>2003-04-15T16:47:46Z</time>
      </trkpt>
      <trkpt lat="30.641753012314439" lon="-5.107259983196855">
        <ele>718.10000000000002</ele>
        <time>2003-04-15T16:47:47Z</time>
      </trkpt>
      <trkpt lat="30.642176968976855" lon="-5.106901992112398">
        <ele>717.10000000000002</ele>
        <time>2003-04-15T16:47:54Z</time>
      </trkpt>
      <trkpt lat="30.642236983403563" lon="-5.106752039864659">
        <ele>716.70000000000005</ele>
        <time>2003-04-15T16:47:57Z</time>
      </trkpt>
      <trkpt lat="30.642262967303395" lon="-5.106556992977858">
        <ele>716.20000000000005</ele>
        <time>2003-04-15T16:47:58Z</time>
      </trkpt>
      <trkpt lat="30.642303032800555" lon="-5.106057012453675">
        <ele>715.20000000000005</ele>
        <time>2003-04-15T16:48:04Z</time>
      </trkpt>
      <trkpt lat="30.642270008102059" lon="-5.105612017214298">
        <ele>715.39999999999998</ele>
        <time>2003-04-15T16:48:08Z</time>
      </trkpt>
      <trkpt lat="30.642290040850639" lon="-5.105504980310798">
        <ele>715.60000000000002</ele>
        <time>2003-04-15T16:48:09Z</time>
      </trkpt>
      <trkpt lat="30.642347959801555" lon="-5.105297025293112">
        <ele>715.29999999999995</ele>
        <time>2003-04-15T16:48:10Z</time>
      </trkpt>
      <trkpt lat="30.642417026683688" lon="-5.104995025321841">
        <ele>715.20000000000005</ele>
        <time>2003-04-15T16:48:13Z</time>
      </trkpt>
      <trkpt lat="30.642522973939776" lon="-5.104437964037061">
        <ele>714.29999999999995</ele>
        <time>2003-04-15T16:48:20Z</time>
      </trkpt>
      <trkpt lat="30.642533032223582" lon="-5.104332016780973">
        <ele>714.79999999999995</ele>
        <time>2003-04-15T16:48:21Z</time>
      </trkpt>
      <trkpt lat="30.642528003081679" lon="-5.104226991534233">
        <ele>714.79999999999995</ele>
        <time>2003-04-15T16:48:21Z</time>
      </trkpt>
      <trkpt lat="30.642502019181848" lon="-5.104126995429397">
        <ele>714.60000000000002</ele>
        <time>2003-04-15T16:48:23Z</time>
      </trkpt>
      <trkpt lat="30.642421972006559" lon="-5.103872017934918">
        <ele>715.60000000000002</ele>
        <time>2003-04-15T16:48:25Z</time>
      </trkpt>
      <trkpt lat="30.642377967014909" lon="-5.103362984955311">
        <ele>714.79999999999995</ele>
        <time>2003-04-15T16:48:31Z</time>
      </trkpt>
      <trkpt lat="30.642302026972175" lon="-5.102907009422779">
        <ele>714.5</ele>
        <time>2003-04-15T16:48:35Z</time>
      </trkpt>
      <trkpt lat="30.642309989780188" lon="-5.102783041074872">
        <ele>714.70000000000005</ele>
        <time>2003-04-15T16:48:36Z</time>
      </trkpt>
      <trkpt lat="30.642270008102059" lon="-5.102541977539659">
        <ele>714.60000000000002</ele>
        <time>2003-04-15T16:48:37Z</time>
      </trkpt>
      <trkpt lat="30.642179986461997" lon="-5.102172000333667">
        <ele>715</ele>
        <time>2003-04-15T16:48:40Z</time>
      </trkpt>
      <trkpt lat="30.641945041716099" lon="-5.101046981289983">
        <ele>714.89999999999998</ele>
        <time>2003-04-15T16:48:48Z</time>
      </trkpt>
      <trkpt lat="30.641827024519444" lon="-5.100683039054275">
        <ele>714.5</ele>
        <time>2003-04-15T16:48:52Z</time>
      </trkpt>
      <trkpt lat="30.641752006486058" lon="-5.100572984665632">
        <ele>714.29999999999995</ele>
        <time>2003-04-15T16:48:52Z</time>
      </trkpt>
      <trkpt lat="30.641659973189235" lon="-5.100471982732415">
        <ele>714.39999999999998</ele>
        <time>2003-04-15T16:48:54Z</time>
      </trkpt>
      <trkpt lat="30.641075000166893" lon="-5.099711995571852">
        <ele>713.10000000000002</ele>
        <time>2003-04-15T16:49:00Z</time>
      </trkpt>
      <trkpt lat="30.641039963811636" lon="-5.09960001334548">
        <ele>713</ele>
        <time>2003-04-15T16:49:02Z</time>
      </trkpt>
      <trkpt lat="30.641022026538849" lon="-5.099470010027289">
        <ele>713.39999999999998</ele>
        <time>2003-04-15T16:49:03Z</time>
      </trkpt>
      <trkpt lat="30.640937034040689" lon="-5.099215032532811">
        <ele>713.60000000000002</ele>
        <time>2003-04-15T16:49:04Z</time>
      </trkpt>
      <trkpt lat="30.640677027404308" lon="-5.098646990954876">
        <ele>714</ele>
        <time>2003-04-15T16:49:10Z</time>
      </trkpt>
      <trkpt lat="30.640502013266087" lon="-5.09831003844738">
        <ele>714.29999999999995</ele>
        <time>2003-04-15T16:49:12Z</time>
      </trkpt>
      <trkpt lat="30.64010001718998" lon="-5.097252996638417">
        <ele>713</ele>
        <time>2003-04-15T16:49:21Z</time>
      </trkpt>
      <trkpt lat="30.639877980574965" lon="-5.096683027222753">
        <ele>712.60000000000002</ele>
        <time>2003-04-15T16:49:26Z</time>
      </trkpt>
      <trkpt lat="30.639782007783651" lon="-5.096623012796044">
        <ele>713.20000000000005</ele>
        <time>2003-04-15T16:49:29Z</time>
      </trkpt>
      <trkpt lat="30.639698021113873" lon="-5.096685038879514">
        <ele>712.5</ele>
        <time>2003-04-15T16:49:30Z</time>
      </trkpt>
      <trkpt lat="30.639634989202023" lon="-5.096838008612394">
        <ele>712</ele>
        <time>2003-04-15T16:49:33Z</time>
      </trkpt>
      <trkpt lat="30.639567011967301" lon="-5.09695703163743">
        <ele>712.29999999999995</ele>
        <time>2003-04-15T16:49:34Z</time>
      </trkpt>
      <trkpt lat="30.639465004205704" lon="-5.097073037177324">
        <ele>712.39999999999998</ele>
        <time>2003-04-15T16:49:37Z</time>
      </trkpt>
      <trkpt lat="30.639250008389354" lon="-5.097240004688501">
        <ele>712.79999999999995</ele>
        <time>2003-04-15T16:49:41Z</time>
      </trkpt>
      <trkpt lat="30.639163004234433" lon="-5.09717202745378">
        <ele>713.39999999999998</ele>
        <time>2003-04-15T16:49:42Z</time>
      </trkpt>
      <trkpt lat="30.639108018949628" lon="-5.097007993608713">
        <ele>713.5</ele>
        <time>2003-04-15T16:49:45Z</time>
      </trkpt>
      <trkpt lat="30.639023026451468" lon="-5.09682996198535">
        <ele>713.39999999999998</ele>
        <time>2003-04-15T16:49:46Z</time>
      </trkpt>
      <trkpt lat="30.638723038136959" lon="-5.096301985904574">
        <ele>712.79999999999995</ele>
        <time>2003-04-15T16:49:53Z</time>
      </trkpt>
      <trkpt lat="30.638652965426445" lon="-5.09622504003346">
        <ele>712.89999999999998</ele>
        <time>2003-04-15T16:49:53Z</time>
      </trkpt>
      <trkpt lat="30.63803999684751" lon="-5.095537975430489">
        <ele>712.60000000000002</ele>
        <time>2003-04-15T16:50:01Z</time>
      </trkpt>
      <trkpt lat="30.63788996078074" lon="-5.095351980999112">
        <ele>712.10000000000002</ele>
        <time>2003-04-15T16:50:04Z</time>
      </trkpt>
      <trkpt lat="30.637755012139678" lon="-5.095155006274581">
        <ele>712.39999999999998</ele>
        <time>2003-04-15T16:50:05Z</time>
      </trkpt>
      <trkpt lat="30.63758997246623" lon="-5.094827022403479">
        <ele>711.89999999999998</ele>
        <time>2003-04-15T16:50:09Z</time>
      </trkpt>
      <trkpt lat="30.637476984411478" lon="-5.094629963859916">
        <ele>711.79999999999995</ele>
        <time>2003-04-15T16:50:11Z</time>
      </trkpt>
      <trkpt lat="30.637372964993119" lon="-5.094516975805163">
        <ele>711.89999999999998</ele>
        <time>2003-04-15T16:50:13Z</time>
      </trkpt>
      <trkpt lat="30.637171966955066" lon="-5.094316983595491">
        <ele>711.89999999999998</ele>
        <time>2003-04-15T16:50:16Z</time>
      </trkpt>
      <trkpt lat="30.637099966406822" lon="-5.094232996925712">
        <ele>712</ele>
        <time>2003-04-15T16:50:21Z</time>
      </trkpt>
      <trkpt lat="30.637022014707327" lon="-5.094159990549088">
        <ele>712</ele>
        <time>2003-04-15T16:50:24Z</time>
      </trkpt>
      <trkpt lat="30.636925036087632" lon="-5.094054965302348">
        <ele>711.70000000000005</ele>
        <time>2003-04-15T16:50:25Z</time>
      </trkpt>
      <trkpt lat="30.636763013899326" lon="-5.09386301971972">
        <ele>711.89999999999998</ele>
        <time>2003-04-15T16:50:28Z</time>
      </trkpt>
      <trkpt lat="30.636626975610852" lon="-5.093702003359795">
        <ele>711.79999999999995</ele>
        <time>2003-04-15T16:50:31Z</time>
      </trkpt>
      <trkpt lat="30.636407034471631" lon="-5.093418024480343">
        <ele>711.70000000000005</ele>
        <time>2003-04-15T16:50:33Z</time>
      </trkpt>
      <trkpt lat="30.635806974023581" lon="-5.092572961002588">
        <ele>711.89999999999998</ele>
        <time>2003-04-15T16:50:43Z</time>
      </trkpt>
      <trkpt lat="30.635150000452995" lon="-5.091669978573918">
        <ele>712</ele>
        <time>2003-04-15T16:50:51Z</time>
      </trkpt>
      <trkpt lat="30.634559998288751" lon="-5.09077001363039">
        <ele>711.89999999999998</ele>
        <time>2003-04-15T16:50:58Z</time>
      </trkpt>
      <trkpt lat="30.634057000279427" lon="-5.089753037318587">
        <ele>711.70000000000005</ele>
        <time>2003-04-15T16:51:05Z</time>
      </trkpt>
      <trkpt lat="30.633797999471426" lon="-5.089127998799086">
        <ele>711.39999999999998</ele>
        <time>2003-04-15T16:51:10Z</time>
      </trkpt>
      <trkpt lat="30.633755000308156" lon="-5.088981986045837">
        <ele>711.60000000000002</ele>
        <time>2003-04-15T16:51:11Z</time>
      </trkpt>
      <trkpt lat="30.633712001144886" lon="-5.088876960799098">
        <ele>711.79999999999995</ele>
        <time>2003-04-15T16:51:15Z</time>
      </trkpt>
      <trkpt lat="30.633672019466758" lon="-5.088713010773063">
        <ele>711.60000000000002</ele>
        <time>2003-04-15T16:51:18Z</time>
      </trkpt>
      <trkpt lat="30.633636983111501" lon="-5.088510001078248">
        <ele>711.70000000000005</ele>
        <time>2003-04-15T16:51:19Z</time>
      </trkpt>
      <trkpt lat="30.633581997826695" lon="-5.0883449614048">
        <ele>711.89999999999998</ele>
        <time>2003-04-15T16:51:22Z</time>
      </trkpt>
      <trkpt lat="30.63346004113555" lon="-5.088065005838871">
        <ele>712</ele>
        <time>2003-04-15T16:51:25Z</time>
      </trkpt>
      <trkpt lat="30.633142031729221" lon="-5.087324967607856">
        <ele>711.29999999999995</ele>
        <time>2003-04-15T16:51:32Z</time>
      </trkpt>
      <trkpt lat="30.633138008415699" lon="-5.087202005088329">
        <ele>711.10000000000002</ele>
        <time>2003-04-15T16:51:33Z</time>
      </trkpt>
      <trkpt lat="30.633157035335898" lon="-5.087072001770139">
        <ele>711.29999999999995</ele>
        <time>2003-04-15T16:51:34Z</time>
      </trkpt>
      <trkpt lat="30.633252002298832" lon="-5.086507983505726">
        <ele>711.39999999999998</ele>
        <time>2003-04-15T16:51:37Z</time>
      </trkpt>
      <trkpt lat="30.633343029767275" lon="-5.08621696382761">
        <ele>711</ele>
        <time>2003-04-15T16:51:40Z</time>
      </trkpt>
      <trkpt lat="30.633555008098483" lon="-5.085623022168875">
        <ele>710.20000000000005</ele>
        <time>2003-04-15T16:51:44Z</time>
      </trkpt>
      <trkpt lat="30.633690040558577" lon="-5.085212979465723">
        <ele>710.89999999999998</ele>
        <time>2003-04-15T16:51:46Z</time>
      </trkpt>
      <trkpt lat="30.633717030286789" lon="-5.085077024996281">
        <ele>711.39999999999998</ele>
        <time>2003-04-15T16:51:48Z</time>
      </trkpt>
      <trkpt lat="30.633767992258072" lon="-5.084485011175275">
        <ele>711.5</ele>
        <time>2003-04-15T16:51:52Z</time>
      </trkpt>
      <trkpt lat="30.633749971166253" lon="-5.083868019282818">
        <ele>711.29999999999995</ele>
        <time>2003-04-15T16:51:56Z</time>
      </trkpt>
      <trkpt lat="30.63359197229147" lon="-5.082763032987714">
        <ele>710.5</ele>
        <time>2003-04-15T16:52:03Z</time>
      </trkpt>
      <trkpt lat="30.63346297480166" lon="-5.081676989793778">
        <ele>710.70000000000005</ele>
        <time>2003-04-15T16:52:09Z</time>
      </trkpt>
      <trkpt lat="30.633361972868443" lon="-5.080792028456926">
        <ele>710</ele>
        <time>2003-04-15T16:52:16Z</time>
      </trkpt>
      <trkpt lat="30.633406983688474" lon="-5.080334963276982">
        <ele>709.70000000000005</ele>
        <time>2003-04-15T16:52:19Z</time>
      </trkpt>
      <trkpt lat="30.633585015311837" lon="-5.07916996255517">
        <ele>707.89999999999998</ele>
        <time>2003-04-15T16:52:26Z</time>
      </trkpt>
      <trkpt lat="30.633657015860081" lon="-5.077979983761907">
        <ele>707</ele>
        <time>2003-04-15T16:52:32Z</time>
      </trkpt>
      <trkpt lat="30.633800011128187" lon="-5.077162999659777">
        <ele>706.79999999999995</ele>
        <time>2003-04-15T16:52:38Z</time>
      </trkpt>
      <trkpt lat="30.633891960605979" lon="-5.076693026348949">
        <ele>706.5</ele>
        <time>2003-04-15T16:52:40Z</time>
      </trkpt>
      <trkpt lat="30.633988017216325" lon="-5.075849974527955">
        <ele>705.89999999999998</ele>
        <time>2003-04-15T16:52:47Z</time>
      </trkpt>
      <trkpt lat="30.634027998894453" lon="-5.075142038986087">
        <ele>706.20000000000005</ele>
        <time>2003-04-15T16:52:51Z</time>
      </trkpt>
      <trkpt lat="30.63404300250113" lon="-5.074857976287603">
        <ele>706.10000000000002</ele>
        <time>2003-04-15T16:52:54Z</time>
      </trkpt>
      <trkpt lat="30.63402196392417" lon="-5.074442988261581">
        <ele>706.29999999999995</ele>
        <time>2003-04-15T16:52:57Z</time>
      </trkpt>
      <trkpt lat="30.633966978639364" lon="-5.074202008545399">
        <ele>706.20000000000005</ele>
        <time>2003-04-15T16:52:58Z</time>
      </trkpt>
      <trkpt lat="30.633917022496462" lon="-5.073979971930385">
        <ele>706</ele>
        <time>2003-04-15T16:53:01Z</time>
      </trkpt>
      <trkpt lat="30.633942000567913" lon="-5.073862038552761">
        <ele>706</ele>
        <time>2003-04-15T16:53:02Z</time>
      </trkpt>
      <trkpt lat="30.633943006396294" lon="-5.073612006381154">
        <ele>706.20000000000005</ele>
        <time>2003-04-15T16:53:03Z</time>
      </trkpt>
      <trkpt lat="30.633939988911152" lon="-5.073358034715056">
        <ele>706.29999999999995</ele>
        <time>2003-04-15T16:53:06Z</time>
      </trkpt>
      <trkpt lat="30.633969996124506" lon="-5.073232976719737">
        <ele>706.10000000000002</ele>
        <time>2003-04-15T16:53:06Z</time>
      </trkpt>
      <trkpt lat="30.634017018601298" lon="-5.073114959523082">
        <ele>706.29999999999995</ele>
        <time>2003-04-15T16:53:07Z</time>
      </trkpt>
      <trkpt lat="30.634082984179258" lon="-5.073014963418245">
        <ele>706.20000000000005</ele>
        <time>2003-04-15T16:53:09Z</time>
      </trkpt>
      <trkpt lat="30.634167976677418" lon="-5.072942040860653">
        <ele>706.5</ele>
        <time>2003-04-15T16:53:10Z</time>
      </trkpt>
      <trkpt lat="30.634226985275745" lon="-5.072856964543462">
        <ele>706.20000000000005</ele>
        <time>2003-04-15T16:53:10Z</time>
      </trkpt>
      <trkpt lat="30.634286999702454" lon="-5.072777001187205">
        <ele>707</ele>
        <time>2003-04-15T16:53:14Z</time>
      </trkpt>
      <trkpt lat="30.634380038827658" lon="-5.072495033964515">
        <ele>706.79999999999995</ele>
        <time>2003-04-15T16:53:21Z</time>
      </trkpt>
      <trkpt lat="30.634437035769224" lon="-5.072362013161182">
        <ele>706.70000000000005</ele>
        <time>2003-04-15T16:53:24Z</time>
      </trkpt>
      <trkpt lat="30.634532002732158" lon="-5.072280038148165">
        <ele>706.5</ele>
        <time>2003-04-15T16:53:26Z</time>
      </trkpt>
      <trkpt lat="30.634620012715459" lon="-5.07231499068439">
        <ele>706.70000000000005</ele>
        <time>2003-04-15T16:53:29Z</time>
      </trkpt>
      <trkpt lat="30.634726965799928" lon="-5.072342986240983">
        <ele>706.89999999999998</ele>
        <time>2003-04-15T16:53:30Z</time>
      </trkpt>
      <trkpt lat="30.634838026016951" lon="-5.07233502343297">
        <ele>707.10000000000002</ele>
        <time>2003-04-15T16:53:33Z</time>
      </trkpt>
      <trkpt lat="30.634961994364858" lon="-5.072323037311435">
        <ele>707.10000000000002</ele>
        <time>2003-04-15T16:53:34Z</time>
      </trkpt>
      <trkpt lat="30.635077999904752" lon="-5.072296969592571">
        <ele>707</ele>
        <time>2003-04-15T16:53:37Z</time>
      </trkpt>
      <trkpt lat="30.635204985737801" lon="-5.072282971814275">
        <ele>706.39999999999998</ele>
        <time>2003-04-15T16:53:38Z</time>
      </trkpt>
      <trkpt lat="30.635383017361164" lon="-5.07231499068439">
        <ele>705.39999999999998</ele>
        <time>2003-04-15T16:53:41Z</time>
      </trkpt>
      <trkpt lat="30.635607987642288" lon="-5.072372993454337">
        <ele>706.20000000000005</ele>
        <time>2003-04-15T16:53:45Z</time>
      </trkpt>
      <trkpt lat="30.63576003536582" lon="-5.072439964860678">
        <ele>706.5</ele>
        <time>2003-04-15T16:53:49Z</time>
      </trkpt>
      <trkpt lat="30.635919962078333" lon="-5.072490004822612">
        <ele>706.79999999999995</ele>
        <time>2003-04-15T16:53:52Z</time>
      </trkpt>
      <trkpt lat="30.63601803034544" lon="-5.07257197983563">
        <ele>706.79999999999995</ele>
        <time>2003-04-15T16:53:53Z</time>
      </trkpt>
      <trkpt lat="30.636135041713715" lon="-5.072627970948815">
        <ele>707</ele>
        <time>2003-04-15T16:53:56Z</time>
      </trkpt>
      <trkpt lat="30.636493032798171" lon="-5.072795022279024">
        <ele>707.60000000000002</ele>
        <time>2003-04-15T16:54:01Z</time>
      </trkpt>
      <trkpt lat="30.63659998588264" lon="-5.072861993685365">
        <ele>707.39999999999998</ele>
        <time>2003-04-15T16:54:04Z</time>
      </trkpt>
      <trkpt lat="30.636687995865941" lon="-5.072968024760485">
        <ele>707.79999999999995</ele>
        <time>2003-04-15T16:54:05Z</time>
      </trkpt>
      <trkpt lat="30.636790003627539" lon="-5.073042036965489">
        <ele>707.60000000000002</ele>
        <time>2003-04-15T16:54:08Z</time>
      </trkpt>
      <trkpt lat="30.637020003050566" lon="-5.073189977556467">
        <ele>707.60000000000002</ele>
        <time>2003-04-15T16:54:12Z</time>
      </trkpt>
      <trkpt lat="30.637110024690628" lon="-5.073261978104711">
        <ele>707.60000000000002</ele>
        <time>2003-04-15T16:54:14Z</time>
      </trkpt>
      <trkpt lat="30.637219995260239" lon="-5.073268013074994">
        <ele>707.70000000000005</ele>
        <time>2003-04-15T16:54:16Z</time>
      </trkpt>
      <trkpt lat="30.637401966378093" lon="-5.073247980326414">
        <ele>707.60000000000002</ele>
        <time>2003-04-15T16:54:19Z</time>
      </trkpt>
      <trkpt lat="30.637919967994094" lon="-5.073057040572166">
        <ele>707</ele>
        <time>2003-04-15T16:54:28Z</time>
      </trkpt>
      <trkpt lat="30.637990040704608" lon="-5.07298001088202">
        <ele>707.10000000000002</ele>
        <time>2003-04-15T16:54:31Z</time>
      </trkpt>
      <trkpt lat="30.638096993789077" lon="-5.072820000350475">
        <ele>707.70000000000005</ele>
        <time>2003-04-15T16:54:35Z</time>
      </trkpt>
      <trkpt lat="30.638087019324303" lon="-5.072693014517427">
        <ele>707.29999999999995</ele>
        <time>2003-04-15T16:55:25Z</time>
      </trkpt>
      <trkpt lat="30.63797696493566" lon="-5.072640040889382">
        <ele>707.39999999999998</ele>
        <time>2003-04-15T16:55:29Z</time>
      </trkpt>
      <trkpt lat="30.63786699436605" lon="-5.072686979547143">
        <ele>707.60000000000002</ele>
        <time>2003-04-15T16:55:32Z</time>
      </trkpt>
      <trkpt lat="30.637787031009793" lon="-5.072771972045302">
        <ele>707.5</ele>
        <time>2003-04-15T16:55:35Z</time>
      </trkpt>
      <trkpt lat="30.637712012976408" lon="-5.072874985635281">
        <ele>707.5</ele>
        <time>2003-04-15T16:55:37Z</time>
      </trkpt>
      <trkpt lat="30.637657027691603" lon="-5.072998031973839">
        <ele>707.70000000000005</ele>
        <time>2003-04-15T16:55:40Z</time>
      </trkpt>
      <trkpt lat="30.637601958587766" lon="-5.073104985058308">
        <ele>707.70000000000005</ele>
        <time>2003-04-15T16:55:44Z</time>
      </trkpt>
      <trkpt lat="30.637487964704633" lon="-5.073283016681671">
        <ele>708.60000000000002</ele>
        <time>2003-04-15T16:55:57Z</time>
      </trkpt>
      <trkpt lat="30.637447983026505" lon="-5.073382006958127">
        <ele>708.60000000000002</ele>
        <time>2003-04-15T16:56:00Z</time>
      </trkpt>
      <trkpt lat="30.637472039088607" lon="-5.073483008891344">
        <ele>708.10000000000002</ele>
        <time>2003-04-15T16:56:02Z</time>
      </trkpt>
      <trkpt lat="30.63754303380847" lon="-5.073574958369136">
        <ele>709.29999999999995</ele>
        <time>2003-04-15T16:56:04Z</time>
      </trkpt>
      <trkpt lat="30.637670019641519" lon="-5.073542017489672">
        <ele>709</ele>
        <time>2003-04-15T16:56:07Z</time>
      </trkpt>
      <trkpt lat="30.637770015746355" lon="-5.073447972536087">
        <ele>709.10000000000002</ele>
        <time>2003-04-15T16:56:11Z</time>
      </trkpt>
      <trkpt lat="30.637779990211129" lon="-5.073342025279999">
        <ele>708.79999999999995</ele>
        <time>2003-04-15T16:56:12Z</time>
      </trkpt>
      <trkpt lat="30.637821983546019" lon="-5.073129963129759">
        <ele>707.70000000000005</ele>
        <time>2003-04-15T16:56:16Z</time>
      </trkpt>
      <trkpt lat="30.637922985479236" lon="-5.073028039187193">
        <ele>707.79999999999995</ele>
        <time>2003-04-15T16:56:19Z</time>
      </trkpt>
      <trkpt lat="30.63799699768424" lon="-5.072965007275343">
        <ele>707.70000000000005</ele>
        <time>2003-04-15T16:56:38Z</time>
      </trkpt>
      <trkpt lat="30.638076961040497" lon="-5.072897030040622">
        <ele>707.79999999999995</ele>
        <time>2003-04-15T16:56:39Z</time>
      </trkpt>
      <trkpt lat="30.638203024864197" lon="-5.072880014777184">
        <ele>707.79999999999995</ele>
        <time>2003-04-15T16:56:42Z</time>
      </trkpt>
      <trkpt lat="30.638302015140653" lon="-5.072861993685365">
        <ele>707.60000000000002</ele>
        <time>2003-04-15T16:56:46Z</time>
      </trkpt>
      <trkpt lat="30.638632010668516" lon="-5.072786975651979">
        <ele>706.79999999999995</ele>
        <time>2003-04-15T16:56:54Z</time>
      </trkpt>
      <trkpt lat="30.638737035915256" lon="-5.072780018672347">
        <ele>706.39999999999998</ele>
        <time>2003-04-15T16:56:58Z</time>
      </trkpt>
      <trkpt lat="30.63885304145515" lon="-5.072825029492378">
        <ele>706.39999999999998</ele>
        <time>2003-04-15T16:57:01Z</time>
      </trkpt>
      <trkpt lat="30.638957982882857" lon="-5.072825029492378">
        <ele>706.39999999999998</ele>
        <time>2003-04-15T16:57:04Z</time>
      </trkpt>
      <trkpt lat="30.639042975381017" lon="-5.072782030329108">
        <ele>706.60000000000002</ele>
        <time>2003-04-15T16:57:05Z</time>
      </trkpt>
      <trkpt lat="30.63919804058969" lon="-5.072707012295723">
        <ele>706.70000000000005</ele>
        <time>2003-04-15T16:57:09Z</time>
      </trkpt>
      <trkpt lat="30.639299964532256" lon="-5.072763003408909">
        <ele>706.79999999999995</ele>
        <time>2003-04-15T16:57:13Z</time>
      </trkpt>
      <trkpt lat="30.639374982565641" lon="-5.072868028655648">
        <ele>706.70000000000005</ele>
        <time>2003-04-15T16:57:16Z</time>
      </trkpt>
      <trkpt lat="30.639416975900531" lon="-5.073012029752135">
        <ele>706.39999999999998</ele>
        <time>2003-04-15T16:57:18Z</time>
      </trkpt>
      <trkpt lat="30.63945502974093" lon="-5.073182014748454">
        <ele>706.60000000000002</ele>
        <time>2003-04-15T16:57:21Z</time>
      </trkpt>
      <trkpt lat="30.639495011419058" lon="-5.073295002803206">
        <ele>706.39999999999998</ele>
        <time>2003-04-15T16:57:24Z</time>
      </trkpt>
      <trkpt lat="30.63954203389585" lon="-5.073425006121397">
        <ele>706.89999999999998</ele>
        <time>2003-04-15T16:57:27Z</time>
      </trkpt>
      <trkpt lat="30.639598025009036" lon="-5.073727006092668">
        <ele>706.89999999999998</ele>
        <time>2003-04-15T16:57:32Z</time>
      </trkpt>
      <trkpt lat="30.639601964503527" lon="-5.073881987482309">
        <ele>706.89999999999998</ele>
        <time>2003-04-15T16:57:36Z</time>
      </trkpt>
      <trkpt lat="30.639597019180655" lon="-5.074279960244894">
        <ele>706.79999999999995</ele>
        <time>2003-04-15T16:57:58Z</time>
      </trkpt>
      <trkpt lat="30.639538010582328" lon="-5.074382973834872">
        <ele>706.79999999999995</ele>
        <time>2003-04-15T16:58:00Z</time>
      </trkpt>
      <trkpt lat="30.639417981728911" lon="-5.074480036273599">
        <ele>707</ele>
        <time>2003-04-15T16:58:04Z</time>
      </trkpt>
      <trkpt lat="30.63928697258234" lon="-5.074482969939709">
        <ele>707.39999999999998</ele>
        <time>2003-04-15T16:58:11Z</time>
      </trkpt>
      <trkpt lat="30.639208015054464" lon="-5.074537033215165">
        <ele>707.29999999999995</ele>
        <time>2003-04-15T16:58:15Z</time>
      </trkpt>
      <trkpt lat="30.639253025874496" lon="-5.074708024039865">
        <ele>706.20000000000005</ele>
        <time>2003-04-15T16:58:46Z</time>
      </trkpt>
      <trkpt lat="30.639359978958964" lon="-5.074780024588108">
        <ele>706.10000000000002</ele>
        <time>2003-04-15T16:58:49Z</time>
      </trkpt>
      <trkpt lat="30.639452012255788" lon="-5.074748005717993">
        <ele>705.89999999999998</ele>
        <time>2003-04-15T16:58:53Z</time>
      </trkpt>
      <trkpt lat="30.639504985883832" lon="-5.074626971036196">
        <ele>705.10000000000002</ele>
        <time>2003-04-15T16:58:56Z</time>
      </trkpt>
      <trkpt lat="30.639523006975651" lon="-5.074511971324682">
        <ele>705.29999999999995</ele>
        <time>2003-04-15T16:58:57Z</time>
      </trkpt>
      <trkpt lat="30.63950196839869" lon="-5.074394959956408">
        <ele>705.10000000000002</ele>
        <time>2003-04-15T16:59:00Z</time>
      </trkpt>
      <trkpt lat="30.639480007812381" lon="-5.074293036013842">
        <ele>705.29999999999995</ele>
        <time>2003-04-15T16:59:02Z</time>
      </trkpt>
      <trkpt lat="30.639380011707544" lon="-5.07411802187562">
        <ele>701.10000000000002</ele>
        <time>2003-04-15T17:05:46Z</time>
      </trkpt>
      <trkpt lat="30.639323014765978" lon="-5.074035041034222">
        <ele>701.20000000000005</ele>
        <time>2003-04-15T17:05:49Z</time>
      </trkpt>
      <trkpt lat="30.639241961762309" lon="-5.073951976373792">
        <ele>701.20000000000005</ele>
        <time>2003-04-15T17:05:50Z</time>
      </trkpt>
      <trkpt lat="30.639140037819743" lon="-5.073906965553761">
        <ele>701</ele>
        <time>2003-04-15T17:05:53Z</time>
      </trkpt>
      <trkpt lat="30.638912972062826" lon="-5.073732035234571">
        <ele>700.89999999999998</ele>
        <time>2003-04-15T17:05:57Z</time>
      </trkpt>
      <trkpt lat="30.638688001781702" lon="-5.07356196641922">
        <ele>701.20000000000005</ele>
        <time>2003-04-15T17:06:01Z</time>
      </trkpt>
      <trkpt lat="30.63857501372695" lon="-5.073522990569472">
        <ele>700.89999999999998</ele>
        <time>2003-04-15T17:06:02Z</time>
      </trkpt>
      <trkpt lat="30.638458002358675" lon="-5.073462976142764">
        <ele>700.89999999999998</ele>
        <time>2003-04-15T17:06:05Z</time>
      </trkpt>
      <trkpt lat="30.63849002122879" lon="-5.073364991694689">
        <ele>701.70000000000005</ele>
        <time>2003-04-15T17:06:08Z</time>
      </trkpt>
      <trkpt lat="30.638579959049821" lon="-5.073336996138096">
        <ele>701.5</ele>
        <time>2003-04-15T17:06:09Z</time>
      </trkpt>
      <trkpt lat="30.638667969033122" lon="-5.073406985029578">
        <ele>701.20000000000005</ele>
        <time>2003-04-15T17:06:12Z</time>
      </trkpt>
      <trkpt lat="30.638756984844804" lon="-5.073504969477654">
        <ele>701.79999999999995</ele>
        <time>2003-04-15T17:06:13Z</time>
      </trkpt>
      <trkpt lat="30.63889998011291" lon="-5.073676966130734">
        <ele>702.5</ele>
        <time>2003-04-15T17:06:17Z</time>
      </trkpt>
      <trkpt lat="30.639084968715906" lon="-5.073964968323708">
        <ele>702.39999999999998</ele>
        <time>2003-04-15T17:06:23Z</time>
      </trkpt>
      <trkpt lat="30.639201980084181" lon="-5.074152974411845">
        <ele>702.70000000000005</ele>
        <time>2003-04-15T17:06:25Z</time>
      </trkpt>
      <trkpt lat="30.639222012832761" lon="-5.074303010478616">
        <ele>702.89999999999998</ele>
        <time>2003-04-15T17:06:28Z</time>
      </trkpt>
      <trkpt lat="30.639298036694527" lon="-5.074411975219846">
        <ele>702.89999999999998</ele>
        <time>2003-04-15T17:06:29Z</time>
      </trkpt>
      <trkpt lat="30.639417981728911" lon="-5.074407029896975">
        <ele>703</ele>
        <time>2003-04-15T17:06:32Z</time>
      </trkpt>
      <trkpt lat="30.639483025297523" lon="-5.074324971064925">
        <ele>703.10000000000002</ele>
        <time>2003-04-15T17:06:33Z</time>
      </trkpt>
      <trkpt lat="30.639452012255788" lon="-5.074222041293979">
        <ele>708.29999999999995</ele>
        <time>2003-04-15T17:07:53Z</time>
      </trkpt>
      <trkpt lat="30.639468021690845" lon="-5.074227992445231">
        <ele>703.89999999999998</ele>
        <time>2003-04-15T17:10:47Z</time>
      </trkpt>
    </trkseg>
  </trk>

  <trk>
    <name>030416</name>
    <extensions>
      <gpxx:TrackExtension xmlns:gpxx="http://www.garmin.com/xmlschemas/GpxExtensions/v3">
        <gpxx:DisplayColor>Blue</gpxx:DisplayColor>
      </gpxx:TrackExtension>
    </extensions>
    <trkseg>
      <trkpt lat="30.639752000570297" lon="-5.075587034225464">
        <ele>708.70000000000005</ele>
        <time>2003-04-16T05:56:11Z</time>
      </trkpt>
      <trkpt lat="30.639619985595345" lon="-5.075613018125296">
        <ele>707.10000000000002</ele>
        <time>2003-04-16T05:56:24Z</time>
      </trkpt>
      <trkpt lat="30.639601964503527" lon="-5.075402967631817">
        <ele>706.60000000000002</ele>
        <time>2003-04-16T05:56:29Z</time>
      </trkpt>
      <trkpt lat="30.639644963666797" lon="-5.075095016509295">
        <ele>706</ele>
        <time>2003-04-16T05:56:45Z</time>
      </trkpt>
      <trkpt lat="30.639701960608363" lon="-5.074652032926679">
        <ele>705.60000000000002</ele>
        <time>2003-04-16T05:56:52Z</time>
      </trkpt>
      <trkpt lat="30.639753006398678" lon="-5.074381968006492">
        <ele>705.5</ele>
        <time>2003-04-16T05:56:56Z</time>
      </trkpt>
      <trkpt lat="30.639964984729886" lon="-5.073558026924729">
        <ele>705.5</ele>
        <time>2003-04-16T05:57:05Z</time>
      </trkpt>
      <trkpt lat="30.640354994684458" lon="-5.072611961513758">
        <ele>706</ele>
        <time>2003-04-16T05:57:18Z</time>
      </trkpt>
      <trkpt lat="30.640418026596308" lon="-5.072535015642643">
        <ele>706.10000000000002</ele>
        <time>2003-04-16T05:57:19Z</time>
      </trkpt>
      <trkpt lat="30.640722038224339" lon="-5.072107035666704">
        <ele>706.5</ele>
        <time>2003-04-16T05:57:23Z</time>
      </trkpt>
      <trkpt lat="30.640835026279092" lon="-5.07194702513516">
        <ele>707.10000000000002</ele>
        <time>2003-04-16T05:57:26Z</time>
      </trkpt>
      <trkpt lat="30.64098296687007" lon="-5.071849962696433">
        <ele>706.70000000000005</ele>
        <time>2003-04-16T05:57:27Z</time>
      </trkpt>
      <trkpt lat="30.641102995723486" lon="-5.071737980470061">
        <ele>707.89999999999998</ele>
        <time>2003-04-16T05:57:30Z</time>
      </trkpt>
      <trkpt lat="30.641197040677071" lon="-5.071598002687097">
        <ele>706.5</ele>
        <time>2003-04-16T05:57:31Z</time>
      </trkpt>
      <trkpt lat="30.641553020104766" lon="-5.07106801494956">
        <ele>707.10000000000002</ele>
        <time>2003-04-16T05:57:39Z</time>
      </trkpt>
      <trkpt lat="30.641668019816279" lon="-5.070943040773273">
        <ele>708.29999999999995</ele>
        <time>2003-04-16T05:57:41Z</time>
      </trkpt>
      <trkpt lat="30.641783019527793" lon="-5.070829968899488">
        <ele>708.29999999999995</ele>
        <time>2003-04-16T05:57:43Z</time>
      </trkpt>
      <trkpt lat="30.641930038109422" lon="-5.070713041350246">
        <ele>707</ele>
        <time>2003-04-16T05:57:45Z</time>
      </trkpt>
      <trkpt lat="30.64199298620224" lon="-5.070631988346577">
        <ele>707.29999999999995</ele>
        <time>2003-04-16T05:57:46Z</time>
      </trkpt>
      <trkpt lat="30.642490033060312" lon="-5.070062018930912">
        <ele>707.60000000000002</ele>
        <time>2003-04-16T05:57:54Z</time>
      </trkpt>
      <trkpt lat="30.642793038859963" lon="-5.069872001186013">
        <ele>707.5</ele>
        <time>2003-04-16T05:57:58Z</time>
      </trkpt>
      <trkpt lat="30.643252031877637" lon="-5.069590033963323">
        <ele>707.5</ele>
        <time>2003-04-16T05:58:03Z</time>
      </trkpt>
      <trkpt lat="30.643414976075292" lon="-5.069547034800053">
        <ele>707.5</ele>
        <time>2003-04-16T05:58:06Z</time>
      </trkpt>
      <trkpt lat="30.643865000456572" lon="-5.069417031481862">
        <ele>707.60000000000002</ele>
        <time>2003-04-16T05:58:10Z</time>
      </trkpt>
      <trkpt lat="30.643946975469589" lon="-5.069361962378025">
        <ele>707.60000000000002</ele>
        <time>2003-04-16T05:58:12Z</time>
      </trkpt>
      <trkpt lat="30.64409801736474" lon="-5.069227013736963">
        <ele>707.60000000000002</ele>
        <time>2003-04-16T05:58:13Z</time>
      </trkpt>
      <trkpt lat="30.64480796456337" lon="-5.068555036559701">
        <ele>707.60000000000002</ele>
        <time>2003-04-16T05:58:24Z</time>
      </trkpt>
      <trkpt lat="30.645096972584724" lon="-5.068237027153373">
        <ele>707.20000000000005</ele>
        <time>2003-04-16T05:58:29Z</time>
      </trkpt>
      <trkpt lat="30.645211972296238" lon="-5.068081961944699">
        <ele>707.39999999999998</ele>
        <time>2003-04-16T05:58:32Z</time>
      </trkpt>
      <trkpt lat="30.645296964794397" lon="-5.067929998040199">
        <ele>707.20000000000005</ele>
        <time>2003-04-16T05:58:35Z</time>
      </trkpt>
      <trkpt lat="30.645326972007751" lon="-5.067822961136699">
        <ele>707.29999999999995</ele>
        <time>2003-04-16T05:58:37Z</time>
      </trkpt>
      <trkpt lat="30.645338036119938" lon="-5.067705027759075">
        <ele>707.60000000000002</ele>
        <time>2003-04-16T05:58:39Z</time>
      </trkpt>
      <trkpt lat="30.6453019939363" lon="-5.067605031654239">
        <ele>707.5</ele>
        <time>2003-04-16T05:58:43Z</time>
      </trkpt>
      <trkpt lat="30.64525798894465" lon="-5.067502018064261">
        <ele>707</ele>
        <time>2003-04-16T05:58:51Z</time>
      </trkpt>
      <trkpt lat="30.645203003659844" lon="-5.067358016967773">
        <ele>706.60000000000002</ele>
        <time>2003-04-16T05:58:56Z</time>
      </trkpt>
      <trkpt lat="30.645152041688561" lon="-5.067219967022538">
        <ele>706.89999999999998</ele>
        <time>2003-04-16T05:58:57Z</time>
      </trkpt>
      <trkpt lat="30.645124968141317" lon="-5.067083006724715">
        <ele>707.20000000000005</ele>
        <time>2003-04-16T05:59:00Z</time>
      </trkpt>
      <trkpt lat="30.645051961764693" lon="-5.066959960386157">
        <ele>706.70000000000005</ele>
        <time>2003-04-16T05:59:02Z</time>
      </trkpt>
      <trkpt lat="30.644994964823127" lon="-5.066861975938082">
        <ele>707.29999999999995</ele>
        <time>2003-04-16T05:59:04Z</time>
      </trkpt>
      <trkpt lat="30.644927993416786" lon="-5.066721998155117">
        <ele>705.70000000000005</ele>
        <time>2003-04-16T05:59:06Z</time>
      </trkpt>
      <trkpt lat="30.64485196955502" lon="-5.066570034250617">
        <ele>706.5</ele>
        <time>2003-04-16T05:59:07Z</time>
      </trkpt>
      <trkpt lat="30.644754990935326" lon="-5.066337017342448">
        <ele>706.5</ele>
        <time>2003-04-16T05:59:11Z</time>
      </trkpt>
      <trkpt lat="30.644648037850857" lon="-5.066037029027939">
        <ele>705.39999999999998</ele>
        <time>2003-04-16T05:59:15Z</time>
      </trkpt>
      <trkpt lat="30.644681984558702" lon="-5.065926974639297">
        <ele>706.60000000000002</ele>
        <time>2003-04-16T05:59:16Z</time>
      </trkpt>
      <trkpt lat="30.64476203173399" lon="-5.065832007676363">
        <ele>705</ele>
        <time>2003-04-16T05:59:19Z</time>
      </trkpt>
      <trkpt lat="30.644905027002096" lon="-5.065797977149487">
        <ele>705.39999999999998</ele>
        <time>2003-04-16T05:59:20Z</time>
      </trkpt>
      <trkpt lat="30.645036958158016" lon="-5.065735029056668">
        <ele>705.5</ele>
        <time>2003-04-16T05:59:23Z</time>
      </trkpt>
      <trkpt lat="30.645405007526278" lon="-5.065451972186565">
        <ele>705.5</ele>
        <time>2003-04-16T05:59:29Z</time>
      </trkpt>
      <trkpt lat="30.645629977807403" lon="-5.065248040482402">
        <ele>705.39999999999998</ele>
        <time>2003-04-16T05:59:31Z</time>
      </trkpt>
      <trkpt lat="30.646243030205369" lon="-5.064631970599294">
        <ele>706.20000000000005</ele>
        <time>2003-04-16T05:59:39Z</time>
      </trkpt>
      <trkpt lat="30.64691198989749" lon="-5.063747009262443">
        <ele>706.29999999999995</ele>
        <time>2003-04-16T05:59:49Z</time>
      </trkpt>
      <trkpt lat="30.647499980404973" lon="-5.062951985746622">
        <ele>706.10000000000002</ele>
        <time>2003-04-16T05:59:57Z</time>
      </trkpt>
      <trkpt lat="30.648125018924475" lon="-5.062198033556342">
        <ele>705.29999999999995</ele>
        <time>2003-04-16T06:00:04Z</time>
      </trkpt>
      <trkpt lat="30.648615024983883" lon="-5.061617000028491">
        <ele>704.60000000000002</ele>
        <time>2003-04-16T06:00:09Z</time>
      </trkpt>
      <trkpt lat="30.648911995813251" lon="-5.061148032546043">
        <ele>704.29999999999995</ele>
        <time>2003-04-16T06:00:14Z</time>
      </trkpt>
      <trkpt lat="30.648977961391211" lon="-5.061060022562742">
        <ele>704.20000000000005</ele>
        <time>2003-04-16T06:00:16Z</time>
      </trkpt>
      <trkpt lat="30.649544997140765" lon="-5.060197021812201">
        <ele>703.89999999999998</ele>
        <time>2003-04-16T06:00:25Z</time>
      </trkpt>
      <trkpt lat="30.649572992697358" lon="-5.060087973251939">
        <ele>704.20000000000005</ele>
        <time>2003-04-16T06:00:27Z</time>
      </trkpt>
      <trkpt lat="30.649823024868965" lon="-5.059160012751818">
        <ele>704</ele>
        <time>2003-04-16T06:00:36Z</time>
      </trkpt>
      <trkpt lat="30.649848002940416" lon="-5.058522988110781">
        <ele>703.39999999999998</ele>
        <time>2003-04-16T06:00:41Z</time>
      </trkpt>
      <trkpt lat="30.649869963526726" lon="-5.058328025043011">
        <ele>703.39999999999998</ele>
        <time>2003-04-16T06:00:44Z</time>
      </trkpt>
      <trkpt lat="30.649922015145421" lon="-5.05774799734354">
        <ele>702.89999999999998</ele>
        <time>2003-04-16T06:00:50Z</time>
      </trkpt>
      <trkpt lat="30.649944981560111" lon="-5.057544987648726">
        <ele>702.5</ele>
        <time>2003-04-16T06:00:52Z</time>
      </trkpt>
      <trkpt lat="30.649992004036903" lon="-5.05735999904573">
        <ele>702.39999999999998</ele>
        <time>2003-04-16T06:00:54Z</time>
      </trkpt>
      <trkpt lat="30.650101974606514" lon="-5.057022040709853">
        <ele>702.10000000000002</ele>
        <time>2003-04-16T06:00:58Z</time>
      </trkpt>
      <trkpt lat="30.650280006229877" lon="-5.056736972182989">
        <ele>702.39999999999998</ele>
        <time>2003-04-16T06:01:02Z</time>
      </trkpt>
      <trkpt lat="30.650400035083294" lon="-5.056542009115219">
        <ele>702.70000000000005</ele>
        <time>2003-04-16T06:01:03Z</time>
      </trkpt>
      <trkpt lat="30.650592986494303" lon="-5.056187035515904">
        <ele>703</ele>
        <time>2003-04-16T06:01:07Z</time>
      </trkpt>
      <trkpt lat="30.651057008653879" lon="-5.05516704171896">
        <ele>702.89999999999998</ele>
        <time>2003-04-16T06:01:15Z</time>
      </trkpt>
      <trkpt lat="30.651272004470229" lon="-5.054705031216145">
        <ele>702.79999999999995</ele>
        <time>2003-04-16T06:01:19Z</time>
      </trkpt>
      <trkpt lat="30.65159797668457" lon="-5.054082004353404">
        <ele>702.20000000000005</ele>
        <time>2003-04-16T06:01:25Z</time>
      </trkpt>
      <trkpt lat="30.651935013011098" lon="-5.053582023829222">
        <ele>702.10000000000002</ele>
        <time>2003-04-16T06:01:30Z</time>
      </trkpt>
      <trkpt lat="30.652002990245819" lon="-5.053497031331062">
        <ele>701.89999999999998</ele>
        <time>2003-04-16T06:01:30Z</time>
      </trkpt>
      <trkpt lat="30.652634985744953" lon="-5.052732015028596">
        <ele>702.5</ele>
        <time>2003-04-16T06:01:38Z</time>
      </trkpt>
      <trkpt lat="30.653277961537242" lon="-5.051859961822629">
        <ele>702.29999999999995</ele>
        <time>2003-04-16T06:01:46Z</time>
      </trkpt>
      <trkpt lat="30.653865030035377" lon="-5.051054963842034">
        <ele>701.70000000000005</ele>
        <time>2003-04-16T06:01:53Z</time>
      </trkpt>
      <trkpt lat="30.654483027756214" lon="-5.050262035802007">
        <ele>701.39999999999998</ele>
        <time>2003-04-16T06:02:01Z</time>
      </trkpt>
      <trkpt lat="30.655130026862025" lon="-5.049525015056133">
        <ele>700.89999999999998</ele>
        <time>2003-04-16T06:02:06Z</time>
      </trkpt>
      <trkpt lat="30.655839974060655" lon="-5.048693027347326">
        <ele>700.89999999999998</ele>
        <time>2003-04-16T06:02:13Z</time>
      </trkpt>
      <trkpt lat="30.656570037826896" lon="-5.047867996618152">
        <ele>700.60000000000002</ele>
        <time>2003-04-16T06:02:20Z</time>
      </trkpt>
      <trkpt lat="30.657258024439216" lon="-5.047053024172783">
        <ele>700.79999999999995</ele>
        <time>2003-04-16T06:02:28Z</time>
      </trkpt>
      <trkpt lat="30.657937964424491" lon="-5.046150041744113">
        <ele>700.89999999999998</ele>
        <time>2003-04-16T06:02:35Z</time>
      </trkpt>
      <trkpt lat="30.658507011830807" lon="-5.045312019065023">
        <ele>701</ele>
        <time>2003-04-16T06:02:40Z</time>
      </trkpt>
      <trkpt lat="30.659083016216755" lon="-5.044382968917489">
        <ele>701.29999999999995</ele>
        <time>2003-04-16T06:02:47Z</time>
      </trkpt>
      <trkpt lat="30.659624990075827" lon="-5.04350203089416">
        <ele>701.39999999999998</ele>
        <time>2003-04-16T06:02:55Z</time>
      </trkpt>
      <trkpt lat="30.660033021122217" lon="-5.042767021805048">
        <ele>701.20000000000005</ele>
        <time>2003-04-16T06:03:00Z</time>
      </trkpt>
      <trkpt lat="30.660516992211342" lon="-5.041721966117621">
        <ele>701.10000000000002</ele>
        <time>2003-04-16T06:03:09Z</time>
      </trkpt>
      <trkpt lat="30.660889986902475" lon="-5.040772967040539">
        <ele>701</ele>
        <time>2003-04-16T06:03:15Z</time>
      </trkpt>
      <trkpt lat="30.661232974380255" lon="-5.039803013205528">
        <ele>700.10000000000002</ele>
        <time>2003-04-16T06:03:22Z</time>
      </trkpt>
      <trkpt lat="30.661298017948866" lon="-5.03952699713409">
        <ele>699.70000000000005</ele>
        <time>2003-04-16T06:03:25Z</time>
      </trkpt>
      <trkpt lat="30.661349985748529" lon="-5.039117960259318">
        <ele>699.5</ele>
        <time>2003-04-16T06:03:27Z</time>
      </trkpt>
      <trkpt lat="30.661330036818981" lon="-5.038842028006911">
        <ele>699.29999999999995</ele>
        <time>2003-04-16T06:03:30Z</time>
      </trkpt>
      <trkpt lat="30.661315033212304" lon="-5.038471966981888">
        <ele>699.10000000000002</ele>
        <time>2003-04-16T06:03:33Z</time>
      </trkpt>
      <trkpt lat="30.661400025710464" lon="-5.037877019494772">
        <ele>698.79999999999995</ele>
        <time>2003-04-16T06:03:37Z</time>
      </trkpt>
      <trkpt lat="30.661645028740168" lon="-5.037061963230372">
        <ele>699.89999999999998</ele>
        <time>2003-04-16T06:03:45Z</time>
      </trkpt>
      <trkpt lat="30.661762040108442" lon="-5.03677798435092">
        <ele>699.29999999999995</ele>
        <time>2003-04-16T06:03:48Z</time>
      </trkpt>
      <trkpt lat="30.661815013736486" lon="-5.036561982706189">
        <ele>699</ele>
        <time>2003-04-16T06:03:49Z</time>
      </trkpt>
      <trkpt lat="30.661867987364531" lon="-5.036344975233078">
        <ele>698.79999999999995</ele>
        <time>2003-04-16T06:03:52Z</time>
      </trkpt>
      <trkpt lat="30.661930013448" lon="-5.03624296747148">
        <ele>698.89999999999998</ele>
        <time>2003-04-16T06:03:53Z</time>
      </trkpt>
      <trkpt lat="30.662152972072363" lon="-5.035781962797046">
        <ele>699.39999999999998</ele>
        <time>2003-04-16T06:03:57Z</time>
      </trkpt>
      <trkpt lat="30.662271995097399" lon="-5.035451967269182">
        <ele>699.5</ele>
        <time>2003-04-16T06:04:00Z</time>
      </trkpt>
      <trkpt lat="30.662282975390553" lon="-5.035267984494567">
        <ele>699.5</ele>
        <time>2003-04-16T06:04:01Z</time>
      </trkpt>
      <trkpt lat="30.662323040887713" lon="-5.035097999498248">
        <ele>698.89999999999998</ele>
        <time>2003-04-16T06:04:04Z</time>
      </trkpt>
      <trkpt lat="30.662417002022266" lon="-5.034813014790416">
        <ele>699.29999999999995</ele>
        <time>2003-04-16T06:04:07Z</time>
      </trkpt>
      <trkpt lat="30.662480033934116" lon="-5.034734979271889">
        <ele>698.79999999999995</ele>
        <time>2003-04-16T06:04:08Z</time>
      </trkpt>
      <trkpt lat="30.662625040858984" lon="-5.034622997045517">
        <ele>699.20000000000005</ele>
        <time>2003-04-16T06:04:09Z</time>
      </trkpt>
      <trkpt lat="30.662786979228258" lon="-5.034504979848862">
        <ele>698.70000000000005</ele>
        <time>2003-04-16T06:04:12Z</time>
      </trkpt>
      <trkpt lat="30.662882030010223" lon="-5.034447982907295">
        <ele>698.29999999999995</ele>
        <time>2003-04-16T06:04:12Z</time>
      </trkpt>
      <trkpt lat="30.663292994722724" lon="-5.034159980714321">
        <ele>698.39999999999998</ele>
        <time>2003-04-16T06:04:16Z</time>
      </trkpt>
      <trkpt lat="30.664158007130027" lon="-5.033623035997152">
        <ele>697.10000000000002</ele>
        <time>2003-04-16T06:04:24Z</time>
      </trkpt>
      <trkpt lat="30.664542987942696" lon="-5.033382978290319">
        <ele>696.89999999999998</ele>
        <time>2003-04-16T06:04:28Z</time>
      </trkpt>
      <trkpt lat="30.665397020056844" lon="-5.032755006104708">
        <ele>696.70000000000005</ele>
        <time>2003-04-16T06:04:36Z</time>
      </trkpt>
      <trkpt lat="30.666230013594031" lon="-5.03224203363061">
        <ele>696.60000000000002</ele>
        <time>2003-04-16T06:04:43Z</time>
      </trkpt>
      <trkpt lat="30.666931997984648" lon="-5.03189804032445">
        <ele>696.20000000000005</ele>
        <time>2003-04-16T06:04:50Z</time>
      </trkpt>
      <trkpt lat="30.667122015729547" lon="-5.031768037006259">
        <ele>696.20000000000005</ele>
        <time>2003-04-16T06:04:51Z</time>
      </trkpt>
      <trkpt lat="30.667701959609985" lon="-5.031222039833665">
        <ele>696.20000000000005</ele>
        <time>2003-04-16T06:04:58Z</time>
      </trkpt>
      <trkpt lat="30.667762979865074" lon="-5.031124977394939">
        <ele>696</ele>
        <time>2003-04-16T06:05:01Z</time>
      </trkpt>
      <trkpt lat="30.667874962091446" lon="-5.031020035967231">
        <ele>695.79999999999995</ele>
        <time>2003-04-16T06:06:08Z</time>
      </trkpt>
      <trkpt lat="30.667981998994946" lon="-5.030907969921827">
        <ele>695.70000000000005</ele>
        <time>2003-04-16T06:06:09Z</time>
      </trkpt>
      <trkpt lat="30.668051987886429" lon="-5.030836975201964">
        <ele>695.70000000000005</ele>
        <time>2003-04-16T06:06:11Z</time>
      </trkpt>
      <trkpt lat="30.668202023953199" lon="-5.030673025175929">
        <ele>695.79999999999995</ele>
        <time>2003-04-16T06:06:12Z</time>
      </trkpt>
      <trkpt lat="30.668533025309443" lon="-5.03031000494957">
        <ele>695.79999999999995</ele>
        <time>2003-04-16T06:06:16Z</time>
      </trkpt>
      <trkpt lat="30.668986989185214" lon="-5.02968798391521">
        <ele>695.79999999999995</ele>
        <time>2003-04-16T06:06:23Z</time>
      </trkpt>
      <trkpt lat="30.66906301304698" lon="-5.029589999467135">
        <ele>695.60000000000002</ele>
        <time>2003-04-16T06:06:23Z</time>
      </trkpt>
      <trkpt lat="30.669202990829945" lon="-5.029375003650785">
        <ele>695.5</ele>
        <time>2003-04-16T06:06:26Z</time>
      </trkpt>
      <trkpt lat="30.669471966102719" lon="-5.028884997591376">
        <ele>695.39999999999998</ele>
        <time>2003-04-16T06:06:30Z</time>
      </trkpt>
      <trkpt lat="30.669576991349459" lon="-5.028470009565353">
        <ele>695.60000000000002</ele>
        <time>2003-04-16T06:06:32Z</time>
      </trkpt>
      <trkpt lat="30.66960196942091" lon="-5.028019985184073">
        <ele>695.5</ele>
        <time>2003-04-16T06:06:35Z</time>
      </trkpt>
      <trkpt lat="30.669552013278008" lon="-5.027704993262887">
        <ele>695.60000000000002</ele>
        <time>2003-04-16T06:06:38Z</time>
      </trkpt>
      <trkpt lat="30.669444976374507" lon="-5.02702203579247">
        <ele>695.5</ele>
        <time>2003-04-16T06:06:42Z</time>
      </trkpt>
      <trkpt lat="30.669327965006232" lon="-5.025891987606883">
        <ele>695</ele>
        <time>2003-04-16T06:06:47Z</time>
      </trkpt>
      <trkpt lat="30.669186981394887" lon="-5.024799993261695">
        <ele>694.89999999999998</ele>
        <time>2003-04-16T06:06:54Z</time>
      </trkpt>
      <trkpt lat="30.669082039967179" lon="-5.02375703305006">
        <ele>694.10000000000002</ele>
        <time>2003-04-16T06:06:59Z</time>
      </trkpt>
      <trkpt lat="30.669082961976528" lon="-5.023256968706846">
        <ele>693.79999999999995</ele>
        <time>2003-04-16T06:07:02Z</time>
      </trkpt>
      <trkpt lat="30.669112969189882" lon="-5.022090040147305">
        <ele>693.79999999999995</ele>
        <time>2003-04-16T06:07:10Z</time>
      </trkpt>
      <trkpt lat="30.66919201053679" lon="-5.020962003618479">
        <ele>693.60000000000002</ele>
        <time>2003-04-16T06:07:17Z</time>
      </trkpt>
      <trkpt lat="30.669202990829945" lon="-5.020239986479282">
        <ele>693.60000000000002</ele>
        <time>2003-04-16T06:07:21Z</time>
      </trkpt>
      <trkpt lat="30.669229980558157" lon="-5.019125025719404">
        <ele>693.5</ele>
        <time>2003-04-16T06:07:26Z</time>
      </trkpt>
      <trkpt lat="30.669299969449639" lon="-5.018577016890049">
        <ele>693.39999999999998</ele>
        <time>2003-04-16T06:07:29Z</time>
      </trkpt>
      <trkpt lat="30.669441958889365" lon="-5.017528021708131">
        <ele>693.10000000000002</ele>
        <time>2003-04-16T06:07:36Z</time>
      </trkpt>
      <trkpt lat="30.669534998014569" lon="-5.016469974070787">
        <ele>693</ele>
        <time>2003-04-16T06:07:41Z</time>
      </trkpt>
      <trkpt lat="30.669680004939437" lon="-5.01578701660037">
        <ele>693</ele>
        <time>2003-04-16T06:07:45Z</time>
      </trkpt>
      <trkpt lat="30.669917967170477" lon="-5.014735003933311">
        <ele>693.20000000000005</ele>
        <time>2003-04-16T06:07:52Z</time>
      </trkpt>
      <trkpt lat="30.670218039304018" lon="-5.013720039278269">
        <ele>692.89999999999998</ele>
        <time>2003-04-16T06:07:57Z</time>
      </trkpt>
      <trkpt lat="30.670551974326372" lon="-5.013028029352427">
        <ele>692.89999999999998</ele>
        <time>2003-04-16T06:08:03Z</time>
      </trkpt>
      <trkpt lat="30.670637972652912" lon="-5.012925015762448">
        <ele>692.89999999999998</ele>
        <time>2003-04-16T06:08:04Z</time>
      </trkpt>
      <trkpt lat="30.671139964833856" lon="-5.01230500638485">
        <ele>692.89999999999998</ele>
        <time>2003-04-16T06:08:10Z</time>
      </trkpt>
      <trkpt lat="30.671537015587091" lon="-5.011649960651994">
        <ele>693.10000000000002</ele>
        <time>2003-04-16T06:08:15Z</time>
      </trkpt>
      <trkpt lat="30.671861981973052" lon="-5.01118803396821">
        <ele>693.29999999999995</ele>
        <time>2003-04-16T06:08:19Z</time>
      </trkpt>
      <trkpt lat="30.672061974182725" lon="-5.010821996256709">
        <ele>693.39999999999998</ele>
        <time>2003-04-16T06:08:22Z</time>
      </trkpt>
      <trkpt lat="30.67224201746285" lon="-5.01063197851181">
        <ele>693.39999999999998</ele>
        <time>2003-04-16T06:08:23Z</time>
      </trkpt>
      <trkpt lat="30.67269204184413" lon="-5.01020198687911">
        <ele>692.89999999999998</ele>
        <time>2003-04-16T06:08:29Z</time>
      </trkpt>
      <trkpt lat="30.672775022685528" lon="-5.010123029351234">
        <ele>692.70000000000005</ele>
        <time>2003-04-16T06:08:30Z</time>
      </trkpt>
      <trkpt lat="30.672912988811731" lon="-5.009950026869774">
        <ele>692</ele>
        <time>2003-04-16T06:08:31Z</time>
      </trkpt>
      <trkpt lat="30.672957999631763" lon="-5.009847013279796">
        <ele>691.79999999999995</ele>
        <time>2003-04-16T06:08:33Z</time>
      </trkpt>
      <trkpt lat="30.672979960218072" lon="-5.009730001911521">
        <ele>691.89999999999998</ele>
        <time>2003-04-16T06:08:34Z</time>
      </trkpt>
      <trkpt lat="30.673014996573329" lon="-5.009626988321543">
        <ele>691.89999999999998</ele>
        <time>2003-04-16T06:08:34Z</time>
      </trkpt>
      <trkpt lat="30.673072999343276" lon="-5.009412998333573">
        <ele>691.89999999999998</ele>
        <time>2003-04-16T06:08:37Z</time>
      </trkpt>
      <trkpt lat="30.673118010163307" lon="-5.009009996429086">
        <ele>691.70000000000005</ele>
        <time>2003-04-16T06:08:39Z</time>
      </trkpt>
      <trkpt lat="30.673226974904537" lon="-5.008371965959668">
        <ele>691.29999999999995</ele>
        <time>2003-04-16T06:08:43Z</time>
      </trkpt>
      <trkpt lat="30.673465020954609" lon="-5.007337974384427">
        <ele>690.79999999999995</ele>
        <time>2003-04-16T06:08:50Z</time>
      </trkpt>
      <trkpt lat="30.67368202842772" lon="-5.006217984482646">
        <ele>691.10000000000002</ele>
        <time>2003-04-16T06:08:57Z</time>
      </trkpt>
      <trkpt lat="30.673867017030716" lon="-5.005051977932453">
        <ele>691.10000000000002</ele>
        <time>2003-04-16T06:09:04Z</time>
      </trkpt>
      <trkpt lat="30.673957960680127" lon="-5.004582004621625">
        <ele>691.10000000000002</ele>
        <time>2003-04-16T06:09:06Z</time>
      </trkpt>
      <trkpt lat="30.674170022830367" lon="-5.003423038870096">
        <ele>690.89999999999998</ele>
        <time>2003-04-16T06:09:13Z</time>
      </trkpt>
      <trkpt lat="30.674187960103154" lon="-5.003000004217029">
        <ele>690.79999999999995</ele>
        <time>2003-04-16T06:09:17Z</time>
      </trkpt>
      <trkpt lat="30.674221990630031" lon="-5.002592978999019">
        <ele>690.60000000000002</ele>
        <time>2003-04-16T06:09:20Z</time>
      </trkpt>
      <trkpt lat="30.674242023378611" lon="-5.002052010968328">
        <ele>690.70000000000005</ele>
        <time>2003-04-16T06:09:24Z</time>
      </trkpt>
      <trkpt lat="30.674232970923185" lon="-5.000984994694591">
        <ele>690.60000000000002</ele>
        <time>2003-04-16T06:09:31Z</time>
      </trkpt>
      <trkpt lat="30.674172034487128" lon="-4.999897023662925">
        <ele>690.5</ele>
        <time>2003-04-16T06:09:36Z</time>
      </trkpt>
      <trkpt lat="30.674067009240389" lon="-4.999166959896684">
        <ele>690.29999999999995</ele>
        <time>2003-04-16T06:09:40Z</time>
      </trkpt>
      <trkpt lat="30.673900041729212" lon="-4.998007994145155">
        <ele>690.10000000000002</ele>
        <time>2003-04-16T06:09:47Z</time>
      </trkpt>
      <trkpt lat="30.673753023147583" lon="-4.996939972043037">
        <ele>689.70000000000005</ele>
        <time>2003-04-16T06:09:52Z</time>
      </trkpt>
      <trkpt lat="30.673646992072463" lon="-4.996430017054081">
        <ele>689.70000000000005</ele>
        <time>2003-04-16T06:09:55Z</time>
      </trkpt>
      <trkpt lat="30.673563005402684" lon="-4.995915032923222">
        <ele>689.39999999999998</ele>
        <time>2003-04-16T06:09:59Z</time>
      </trkpt>
      <trkpt lat="30.673480024561286" lon="-4.995072986930609">
        <ele>688.39999999999998</ele>
        <time>2003-04-16T06:10:03Z</time>
      </trkpt>
      <trkpt lat="30.673437025398016" lon="-4.993932964280248">
        <ele>688.39999999999998</ele>
        <time>2003-04-16T06:10:11Z</time>
      </trkpt>
      <trkpt lat="30.673395032063127" lon="-4.992856979370117">
        <ele>688.39999999999998</ele>
        <time>2003-04-16T06:10:17Z</time>
      </trkpt>
      <trkpt lat="30.673425039276481" lon="-4.991719974204898">
        <ele>688.5</ele>
        <time>2003-04-16T06:10:22Z</time>
      </trkpt>
      <trkpt lat="30.673507014289498" lon="-4.991001980379224">
        <ele>688.70000000000005</ele>
        <time>2003-04-16T06:10:26Z</time>
      </trkpt>
      <trkpt lat="30.673802979290485" lon="-4.989909986034036">
        <ele>689.10000000000002</ele>
        <time>2003-04-16T06:10:33Z</time>
      </trkpt>
      <trkpt lat="30.674152001738548" lon="-4.988777004182339">
        <ele>689.5</ele>
        <time>2003-04-16T06:10:38Z</time>
      </trkpt>
      <trkpt lat="30.674491971731186" lon="-4.987672017887235">
        <ele>689.5</ele>
        <time>2003-04-16T06:10:45Z</time>
      </trkpt>
      <trkpt lat="30.674632033333182" lon="-4.986870037391782">
        <ele>689.60000000000002</ele>
        <time>2003-04-16T06:10:50Z</time>
      </trkpt>
      <trkpt lat="30.674654999747872" lon="-4.986692005768418">
        <ele>689.60000000000002</ele>
        <time>2003-04-16T06:10:53Z</time>
      </trkpt>
      <trkpt lat="30.674672015011311" lon="-4.986578011885285">
        <ele>689.29999999999995</ele>
        <time>2003-04-16T06:10:54Z</time>
      </trkpt>
      <trkpt lat="30.674690036103129" lon="-4.986457983031869">
        <ele>689.10000000000002</ele>
        <time>2003-04-16T06:11:00Z</time>
      </trkpt>
      <trkpt lat="30.674796989187598" lon="-4.986096974462271">
        <ele>687.20000000000005</ele>
        <time>2003-04-16T06:37:53Z</time>
      </trkpt>
      <trkpt lat="30.674818027764559" lon="-4.985973006114364">
        <ele>687.39999999999998</ele>
        <time>2003-04-16T06:37:54Z</time>
      </trkpt>
      <trkpt lat="30.674877036362886" lon="-4.985722973942757">
        <ele>687.60000000000002</ele>
        <time>2003-04-16T06:37:58Z</time>
      </trkpt>
      <trkpt lat="30.674921963363886" lon="-4.985502026975155">
        <ele>687.79999999999995</ele>
        <time>2003-04-16T06:38:01Z</time>
      </trkpt>
      <trkpt lat="30.674973009154201" lon="-4.985346961766481">
        <ele>687.79999999999995</ele>
        <time>2003-04-16T06:38:04Z</time>
      </trkpt>
      <trkpt lat="30.675136959180236" lon="-4.984928034245968">
        <ele>687.79999999999995</ele>
        <time>2003-04-16T06:38:09Z</time>
      </trkpt>
      <trkpt lat="30.675241984426975" lon="-4.984757965430617">
        <ele>687.70000000000005</ele>
        <time>2003-04-16T06:38:11Z</time>
      </trkpt>
      <trkpt lat="30.675360001623631" lon="-4.98452503234148">
        <ele>688.20000000000005</ele>
        <time>2003-04-16T06:38:13Z</time>
      </trkpt>
      <trkpt lat="30.675565022975206" lon="-4.983948022127152">
        <ele>688.20000000000005</ele>
        <time>2003-04-16T06:38:20Z</time>
      </trkpt>
      <trkpt lat="30.675693014636636" lon="-4.983547031879425">
        <ele>688.29999999999995</ele>
        <time>2003-04-16T06:38:24Z</time>
      </trkpt>
      <trkpt lat="30.675812959671021" lon="-4.98312802053988">
        <ele>688.5</ele>
        <time>2003-04-16T06:38:28Z</time>
      </trkpt>
      <trkpt lat="30.675892001017928" lon="-4.982755025848746">
        <ele>688.60000000000002</ele>
        <time>2003-04-16T06:38:31Z</time>
      </trkpt>
      <trkpt lat="30.676076989620924" lon="-4.981929995119572">
        <ele>688.39999999999998</ele>
        <time>2003-04-16T06:38:40Z</time>
      </trkpt>
      <trkpt lat="30.676170028746128" lon="-4.981627995148301">
        <ele>688.39999999999998</ele>
        <time>2003-04-16T06:38:42Z</time>
      </trkpt>
      <trkpt lat="30.676229959353805" lon="-4.981424985453486">
        <ele>688.5</ele>
        <time>2003-04-16T06:38:43Z</time>
      </trkpt>
      <trkpt lat="30.676313024014235" lon="-4.981032963842154">
        <ele>688.5</ele>
        <time>2003-04-16T06:38:47Z</time>
      </trkpt>
      <trkpt lat="30.676332972943783" lon="-4.980327039957047">
        <ele>688.60000000000002</ele>
        <time>2003-04-16T06:38:55Z</time>
      </trkpt>
      <trkpt lat="30.676355017349124" lon="-4.979662019759417">
        <ele>688</ele>
        <time>2003-04-16T06:39:02Z</time>
      </trkpt>
      <trkpt lat="30.676402039825916" lon="-4.979477031156421">
        <ele>688.29999999999995</ele>
        <time>2003-04-16T06:39:03Z</time>
      </trkpt>
      <trkpt lat="30.676457025110722" lon="-4.979194980114698">
        <ele>688.10000000000002</ele>
        <time>2003-04-16T06:39:07Z</time>
      </trkpt>
      <trkpt lat="30.676579987630248" lon="-4.978156965225935">
        <ele>687.89999999999998</ele>
        <time>2003-04-16T06:39:17Z</time>
      </trkpt>
      <trkpt lat="30.676742009818554" lon="-4.977042004466057">
        <ele>687.5</ele>
        <time>2003-04-16T06:39:26Z</time>
      </trkpt>
      <trkpt lat="30.677006961777806" lon="-4.975937018170953">
        <ele>687</ele>
        <time>2003-04-16T06:39:36Z</time>
      </trkpt>
      <trkpt lat="30.677154986187816" lon="-4.975582966580987">
        <ele>687.20000000000005</ele>
        <time>2003-04-16T06:39:38Z</time>
      </trkpt>
      <trkpt lat="30.677667958661914" lon="-4.974709991365671">
        <ele>687.20000000000005</ele>
        <time>2003-04-16T06:39:46Z</time>
      </trkpt>
      <trkpt lat="30.678156958892941" lon="-4.973787982016802">
        <ele>687.70000000000005</ele>
        <time>2003-04-16T06:39:54Z</time>
      </trkpt>
      <trkpt lat="30.678682001307607" lon="-4.972817022353411">
        <ele>687.29999999999995</ele>
        <time>2003-04-16T06:40:03Z</time>
      </trkpt>
      <trkpt lat="30.67894502542913" lon="-4.972285022959113">
        <ele>686.70000000000005</ele>
        <time>2003-04-16T06:40:07Z</time>
      </trkpt>
      <trkpt lat="30.679157003760338" lon="-4.971661996096373">
        <ele>686.70000000000005</ele>
        <time>2003-04-16T06:40:12Z</time>
      </trkpt>
      <trkpt lat="30.679277032613754" lon="-4.971302999183536">
        <ele>686.89999999999998</ele>
        <time>2003-04-16T06:40:15Z</time>
      </trkpt>
      <trkpt lat="30.679675005376339" lon="-4.97053999453783">
        <ele>686.60000000000002</ele>
        <time>2003-04-16T06:40:20Z</time>
      </trkpt>
      <trkpt lat="30.680050011724234" lon="-4.969582026824355">
        <ele>686.89999999999998</ele>
        <time>2003-04-16T06:40:28Z</time>
      </trkpt>
      <trkpt lat="30.680237011983991" lon="-4.969181958585978">
        <ele>686.89999999999998</ele>
        <time>2003-04-16T06:40:31Z</time>
      </trkpt>
      <trkpt lat="30.680558038875461" lon="-4.968406967818737">
        <ele>686.70000000000005</ele>
        <time>2003-04-16T06:40:35Z</time>
      </trkpt>
      <trkpt lat="30.680694999173284" lon="-4.967916961759329">
        <ele>686.70000000000005</ele>
        <time>2003-04-16T06:40:39Z</time>
      </trkpt>
      <trkpt lat="30.680840006098151" lon="-4.966823039576411">
        <ele>687.10000000000002</ele>
        <time>2003-04-16T06:40:46Z</time>
      </trkpt>
      <trkpt lat="30.680985013023019" lon="-4.965932965278626">
        <ele>687.39999999999998</ele>
        <time>2003-04-16T06:40:51Z</time>
      </trkpt>
      <trkpt lat="30.680958023294806" lon="-4.965827018022537">
        <ele>687.5</ele>
        <time>2003-04-16T06:40:53Z</time>
      </trkpt>
      <trkpt lat="30.680819973349571" lon="-4.965368025004864">
        <ele>688.10000000000002</ele>
        <time>2003-04-16T06:40:57Z</time>
      </trkpt>
      <trkpt lat="30.680749984458089" lon="-4.965261993929744">
        <ele>687.60000000000002</ele>
        <time>2003-04-16T06:40:58Z</time>
      </trkpt>
      <trkpt lat="30.680636996403337" lon="-4.965054960921407">
        <ele>687.79999999999995</ele>
        <time>2003-04-16T06:40:59Z</time>
      </trkpt>
      <trkpt lat="30.680619981139898" lon="-4.964937027543783">
        <ele>687.5</ele>
        <time>2003-04-16T06:41:01Z</time>
      </trkpt>
      <trkpt lat="30.680636996403337" lon="-4.964724965393543">
        <ele>687</ele>
        <time>2003-04-16T06:41:02Z</time>
      </trkpt>
      <trkpt lat="30.680700028315187" lon="-4.964632010087371">
        <ele>687.29999999999995</ele>
        <time>2003-04-16T06:41:03Z</time>
      </trkpt>
      <trkpt lat="30.680740009993315" lon="-4.964522961527109">
        <ele>687</ele>
        <time>2003-04-16T06:41:05Z</time>
      </trkpt>
      <trkpt lat="30.68075199611485" lon="-4.964409973472357">
        <ele>686.79999999999995</ele>
        <time>2003-04-16T06:41:06Z</time>
      </trkpt>
      <trkpt lat="30.680759958922863" lon="-4.9640519823879">
        <ele>686.89999999999998</ele>
        <time>2003-04-16T06:41:09Z</time>
      </trkpt>
      <trkpt lat="30.680782003328204" lon="-4.96364202350378">
        <ele>686.70000000000005</ele>
        <time>2003-04-16T06:41:11Z</time>
      </trkpt>
      <trkpt lat="30.680843023583293" lon="-4.963338011875749">
        <ele>686.89999999999998</ele>
        <time>2003-04-16T06:41:14Z</time>
      </trkpt>
      <trkpt lat="30.681145023554564" lon="-4.962173011153936">
        <ele>686.79999999999995</ele>
        <time>2003-04-16T06:41:21Z</time>
      </trkpt>
      <trkpt lat="30.681575015187263" lon="-4.961195010691881">
        <ele>687.10000000000002</ele>
        <time>2003-04-16T06:41:26Z</time>
      </trkpt>
      <trkpt lat="30.682071978226304" lon="-4.960241988301277">
        <ele>687.10000000000002</ele>
        <time>2003-04-16T06:41:33Z</time>
      </trkpt>
      <trkpt lat="30.682261995971203" lon="-4.959832029417157">
        <ele>687</ele>
        <time>2003-04-16T06:41:36Z</time>
      </trkpt>
      <trkpt lat="30.682742027565837" lon="-4.958857968449593">
        <ele>688</ele>
        <time>2003-04-16T06:41:44Z</time>
      </trkpt>
      <trkpt lat="30.683332029730082" lon="-4.9576919618994">
        <ele>687.39999999999998</ele>
        <time>2003-04-16T06:41:53Z</time>
      </trkpt>
      <trkpt lat="30.68345800973475" lon="-4.957532035186887">
        <ele>687.29999999999995</ele>
        <time>2003-04-16T06:41:56Z</time>
      </trkpt>
      <trkpt lat="30.684050023555756" lon="-4.956964999437332">
        <ele>686.70000000000005</ele>
        <time>2003-04-16T06:42:03Z</time>
      </trkpt>
      <trkpt lat="30.684207016602159" lon="-4.956735000014305">
        <ele>686.5</ele>
        <time>2003-04-16T06:42:04Z</time>
      </trkpt>
      <trkpt lat="30.684813028201461" lon="-4.955869987607002">
        <ele>685.79999999999995</ele>
        <time>2003-04-16T06:42:12Z</time>
      </trkpt>
      <trkpt lat="30.685421973466873" lon="-4.955040011554956">
        <ele>685.10000000000002</ele>
        <time>2003-04-16T06:42:19Z</time>
      </trkpt>
      <trkpt lat="30.685912985354662" lon="-4.954297039657831">
        <ele>684.89999999999998</ele>
        <time>2003-04-16T06:42:24Z</time>
      </trkpt>
      <trkpt lat="30.68607802502811" lon="-4.953847015276551">
        <ele>684.39999999999998</ele>
        <time>2003-04-16T06:42:27Z</time>
      </trkpt>
      <trkpt lat="30.686327973380685" lon="-4.952912013977766">
        <ele>683.89999999999998</ele>
        <time>2003-04-16T06:42:34Z</time>
      </trkpt>
      <trkpt lat="30.68638295866549" lon="-4.952250011265278">
        <ele>683.89999999999998</ele>
        <time>2003-04-16T06:42:38Z</time>
      </trkpt>
      <trkpt lat="30.686497036367655" lon="-4.951160028576851">
        <ele>683.5</ele>
        <time>2003-04-16T06:42:45Z</time>
      </trkpt>
      <trkpt lat="30.686522014439106" lon="-4.950874960049987">
        <ele>683</ele>
        <time>2003-04-16T06:42:46Z</time>
      </trkpt>
      <trkpt lat="30.686541963368654" lon="-4.950210023671389">
        <ele>682.60000000000002</ele>
        <time>2003-04-16T06:42:51Z</time>
      </trkpt>
      <trkpt lat="30.686417995020747" lon="-4.949535029008985">
        <ele>682.39999999999998</ele>
        <time>2003-04-16T06:42:58Z</time>
      </trkpt>
      <trkpt lat="30.68612496368587" lon="-4.948528027161956">
        <ele>682.20000000000005</ele>
        <time>2003-04-16T06:43:08Z</time>
      </trkpt>
      <trkpt lat="30.685536973178387" lon="-4.946462977677584">
        <ele>681.70000000000005</ele>
        <time>2003-04-16T06:43:24Z</time>
      </trkpt>
      <trkpt lat="30.685215024277568" lon="-4.945418005809188">
        <ele>681.39999999999998</ele>
        <time>2003-04-16T06:43:29Z</time>
      </trkpt>
      <trkpt lat="30.684858039021492" lon="-4.944106992334127">
        <ele>681.60000000000002</ele>
        <time>2003-04-16T06:43:37Z</time>
      </trkpt>
      <trkpt lat="30.684562996029854" lon="-4.94316796772182">
        <ele>681.5</ele>
        <time>2003-04-16T06:43:43Z</time>
      </trkpt>
      <trkpt lat="30.684353029355407" lon="-4.942282000556588">
        <ele>681.29999999999995</ele>
        <time>2003-04-16T06:43:48Z</time>
      </trkpt>
      <trkpt lat="30.684186983853579" lon="-4.941157987341285">
        <ele>681</ele>
        <time>2003-04-16T06:43:56Z</time>
      </trkpt>
      <trkpt lat="30.683977017179132" lon="-4.940002961084247">
        <ele>680.79999999999995</ele>
        <time>2003-04-16T06:44:04Z</time>
      </trkpt>
      <trkpt lat="30.683718016371131" lon="-4.938975004479289">
        <ele>680.89999999999998</ele>
        <time>2003-04-16T06:44:10Z</time>
      </trkpt>
      <trkpt lat="30.683412998914719" lon="-4.937851997092366">
        <ele>681.20000000000005</ele>
        <time>2003-04-16T06:44:16Z</time>
      </trkpt>
      <trkpt lat="30.683327000588179" lon="-4.937498029321432">
        <ele>681.29999999999995</ele>
        <time>2003-04-16T06:44:19Z</time>
      </trkpt>
      <trkpt lat="30.68322298116982" lon="-4.937353022396565">
        <ele>681.29999999999995</ele>
        <time>2003-04-16T06:44:22Z</time>
      </trkpt>
      <trkpt lat="30.682459976524115" lon="-4.936203025281429">
        <ele>681.39999999999998</ele>
        <time>2003-04-16T06:44:38Z</time>
      </trkpt>
      <trkpt lat="30.682307006791234" lon="-4.936113003641367">
        <ele>681.89999999999998</ele>
        <time>2003-04-16T06:44:39Z</time>
      </trkpt>
      <trkpt lat="30.682241963222623" lon="-4.936037985607982">
        <ele>682</ele>
        <time>2003-04-16T06:44:41Z</time>
      </trkpt>
      <trkpt lat="30.682144984602928" lon="-4.935872023925185">
        <ele>681.89999999999998</ele>
        <time>2003-04-16T06:44:42Z</time>
      </trkpt>
      <trkpt lat="30.681852037087083" lon="-4.935285039246082">
        <ele>682.20000000000005</ele>
        <time>2003-04-16T06:44:49Z</time>
      </trkpt>
      <trkpt lat="30.681714992970228" lon="-4.935108013451099">
        <ele>682.39999999999998</ele>
        <time>2003-04-16T06:44:50Z</time>
      </trkpt>
      <trkpt lat="30.681622037664056" lon="-4.935041964054108">
        <ele>682.39999999999998</ele>
        <time>2003-04-16T06:44:51Z</time>
      </trkpt>
      <trkpt lat="30.681096995249391" lon="-4.934714986011386">
        <ele>682.79999999999995</ele>
        <time>2003-04-16T06:44:58Z</time>
      </trkpt>
      <trkpt lat="30.680732969194651" lon="-4.934488004073501">
        <ele>681.10000000000002</ele>
        <time>2003-04-16T06:45:01Z</time>
      </trkpt>
      <trkpt lat="30.680659962818027" lon="-4.934394964948297">
        <ele>680.79999999999995</ele>
        <time>2003-04-16T06:45:02Z</time>
      </trkpt>
      <trkpt lat="30.680532976984978" lon="-4.934188015758991">
        <ele>679.79999999999995</ele>
        <time>2003-04-16T06:45:05Z</time>
      </trkpt>
      <trkpt lat="30.680391993373632" lon="-4.933911999687553">
        <ele>681.79999999999995</ele>
        <time>2003-04-16T06:45:08Z</time>
      </trkpt>
      <trkpt lat="30.680310018360615" lon="-4.933652998879552">
        <ele>682.29999999999995</ele>
        <time>2003-04-16T06:45:10Z</time>
      </trkpt>
      <trkpt lat="30.680247992277145" lon="-4.933483013883233">
        <ele>681.89999999999998</ele>
        <time>2003-04-16T06:45:13Z</time>
      </trkpt>
      <trkpt lat="30.680174985900521" lon="-4.933407995849848">
        <ele>682.29999999999995</ele>
        <time>2003-04-16T06:45:13Z</time>
      </trkpt>
      <trkpt lat="30.680087981745601" lon="-4.933352004736662">
        <ele>682.39999999999998</ele>
        <time>2003-04-16T06:45:14Z</time>
      </trkpt>
      <trkpt lat="30.679923025891185" lon="-4.933206997811794">
        <ele>682.29999999999995</ele>
        <time>2003-04-16T06:45:17Z</time>
      </trkpt>
      <trkpt lat="30.679772989824414" lon="-4.933037012815476">
        <ele>682.5</ele>
        <time>2003-04-16T06:45:18Z</time>
      </trkpt>
      <trkpt lat="30.679648015648127" lon="-4.932846995070577">
        <ele>682.29999999999995</ele>
        <time>2003-04-16T06:45:21Z</time>
      </trkpt>
      <trkpt lat="30.679597975686193" lon="-4.932729983702302">
        <ele>682.5</ele>
        <time>2003-04-16T06:45:21Z</time>
      </trkpt>
      <trkpt lat="30.679481970146298" lon="-4.93251197040081">
        <ele>682.20000000000005</ele>
        <time>2003-04-16T06:45:24Z</time>
      </trkpt>
      <trkpt lat="30.679133031517267" lon="-4.931981982663274">
        <ele>681.79999999999995</ele>
        <time>2003-04-16T06:45:28Z</time>
      </trkpt>
      <trkpt lat="30.678504975512624" lon="-4.931140020489693">
        <ele>682</ele>
        <time>2003-04-16T06:45:36Z</time>
      </trkpt>
      <trkpt lat="30.677957972511649" lon="-4.930237960070372">
        <ele>681.89999999999998</ele>
        <time>2003-04-16T06:45:44Z</time>
      </trkpt>
      <trkpt lat="30.677861999720335" lon="-4.930066969245672">
        <ele>682</ele>
        <time>2003-04-16T06:45:47Z</time>
      </trkpt>
      <trkpt lat="30.677496967837214" lon="-4.929347969591618">
        <ele>681.79999999999995</ele>
        <time>2003-04-16T06:45:54Z</time>
      </trkpt>
      <trkpt lat="30.677260011434555" lon="-4.928917977958918">
        <ele>681.5</ele>
        <time>2003-04-16T06:45:58Z</time>
      </trkpt>
      <trkpt lat="30.677000004798174" lon="-4.928631987422705">
        <ele>681.70000000000005</ele>
        <time>2003-04-16T06:46:00Z</time>
      </trkpt>
      <trkpt lat="30.676485020667315" lon="-4.928057994693518">
        <ele>681.10000000000002</ele>
        <time>2003-04-16T06:46:07Z</time>
      </trkpt>
      <trkpt lat="30.676192995160818" lon="-4.927551979199052">
        <ele>681.10000000000002</ele>
        <time>2003-04-16T06:46:11Z</time>
      </trkpt>
      <trkpt lat="30.675782030448318" lon="-4.926557969301939">
        <ele>681.39999999999998</ele>
        <time>2003-04-16T06:46:18Z</time>
      </trkpt>
      <trkpt lat="30.675429990515113" lon="-4.92548500187695">
        <ele>681</ele>
        <time>2003-04-16T06:46:25Z</time>
      </trkpt>
      <trkpt lat="30.675075016915798" lon="-4.924447992816567">
        <ele>680.79999999999995</ele>
        <time>2003-04-16T06:46:30Z</time>
      </trkpt>
      <trkpt lat="30.674996981397271" lon="-4.92408799007535">
        <ele>680.70000000000005</ele>
        <time>2003-04-16T06:46:33Z</time>
      </trkpt>
      <trkpt lat="30.674794977530837" lon="-4.922807989642024">
        <ele>680.5</ele>
        <time>2003-04-16T06:46:39Z</time>
      </trkpt>
      <trkpt lat="30.674615018069744" lon="-4.921686993911862">
        <ele>679.70000000000005</ele>
        <time>2003-04-16T06:46:46Z</time>
      </trkpt>
      <trkpt lat="30.674592973664403" lon="-4.921475015580654">
        <ele>679.70000000000005</ele>
        <time>2003-04-16T06:46:49Z</time>
      </trkpt>
      <trkpt lat="30.674547962844372" lon="-4.921191958710551">
        <ele>679.79999999999995</ele>
        <time>2003-04-16T06:46:52Z</time>
      </trkpt>
      <trkpt lat="30.674528013914824" lon="-4.921045023947954">
        <ele>679.79999999999995</ele>
        <time>2003-04-16T06:46:53Z</time>
      </trkpt>
      <trkpt lat="30.674512004479766" lon="-4.920861963182688">
        <ele>679.70000000000005</ele>
        <time>2003-04-16T06:46:57Z</time>
      </trkpt>
      <trkpt lat="30.674515021964908" lon="-4.92058795876801">
        <ele>679.5</ele>
        <time>2003-04-16T06:47:01Z</time>
      </trkpt>
      <trkpt lat="30.674545029178262" lon="-4.920234996825457">
        <ele>678.89999999999998</ele>
        <time>2003-04-16T06:47:08Z</time>
      </trkpt>
      <trkpt lat="30.674445033073425" lon="-4.919750019907951">
        <ele>678.70000000000005</ele>
        <time>2003-04-16T06:47:13Z</time>
      </trkpt>
      <trkpt lat="30.674376972019672" lon="-4.919190024957061">
        <ele>678.29999999999995</ele>
        <time>2003-04-16T06:47:21Z</time>
      </trkpt>
      <trkpt lat="30.674285022541881" lon="-4.918972011655569">
        <ele>678.29999999999995</ele>
        <time>2003-04-16T06:47:24Z</time>
      </trkpt>
      <trkpt lat="30.67391999065876" lon="-4.918237002566457">
        <ele>678.29999999999995</ele>
        <time>2003-04-16T06:47:38Z</time>
      </trkpt>
      <trkpt lat="30.673160003498197" lon="-4.916713004931808">
        <ele>678.89999999999998</ele>
        <time>2003-04-16T06:47:56Z</time>
      </trkpt>
      <trkpt lat="30.672688018530607" lon="-4.915959974750876">
        <ele>678.79999999999995</ele>
        <time>2003-04-16T06:48:05Z</time>
      </trkpt>
      <trkpt lat="30.672477968037128" lon="-4.915727963671088">
        <ele>679.10000000000002</ele>
        <time>2003-04-16T06:48:07Z</time>
      </trkpt>
      <trkpt lat="30.672149984166026" lon="-4.915422024205327">
        <ele>679.10000000000002</ele>
        <time>2003-04-16T06:48:11Z</time>
      </trkpt>
      <trkpt lat="30.671923002228141" lon="-4.915217002853751">
        <ele>678.39999999999998</ele>
        <time>2003-04-16T06:48:14Z</time>
      </trkpt>
      <trkpt lat="30.671642040833831" lon="-4.914797991514206">
        <ele>678.39999999999998</ele>
        <time>2003-04-16T06:48:18Z</time>
      </trkpt>
      <trkpt lat="30.671550007537007" lon="-4.914685003459454">
        <ele>678.39999999999998</ele>
        <time>2003-04-16T06:48:19Z</time>
      </trkpt>
      <trkpt lat="30.67104198038578" lon="-4.913938008248806">
        <ele>678.60000000000002</ele>
        <time>2003-04-16T06:48:26Z</time>
      </trkpt>
      <trkpt lat="30.670615006238222" lon="-4.912905022501946">
        <ele>678.29999999999995</ele>
        <time>2003-04-16T06:48:33Z</time>
      </trkpt>
      <trkpt lat="30.670406967401505" lon="-4.912377968430519">
        <ele>678</ele>
        <time>2003-04-16T06:48:37Z</time>
      </trkpt>
      <trkpt lat="30.670318035408854" lon="-4.912161966785789">
        <ele>678.29999999999995</ele>
        <time>2003-04-16T06:48:38Z</time>
      </trkpt>
      <trkpt lat="30.670082001015544" lon="-4.911512034013867">
        <ele>678.5</ele>
        <time>2003-04-16T06:48:44Z</time>
      </trkpt>
      <trkpt lat="30.66983699798584" lon="-4.91070200689137">
        <ele>678.39999999999998</ele>
        <time>2003-04-16T06:48:49Z</time>
      </trkpt>
      <trkpt lat="30.669568022713065" lon="-4.90969299338758">
        <ele>678.20000000000005</ele>
        <time>2003-04-16T06:48:54Z</time>
      </trkpt>
      <trkpt lat="30.66932201385498" lon="-4.908675011247397">
        <ele>677.79999999999995</ele>
        <time>2003-04-16T06:49:01Z</time>
      </trkpt>
      <trkpt lat="30.669069970026612" lon="-4.907528031617403">
        <ele>677.60000000000002</ele>
        <time>2003-04-16T06:49:08Z</time>
      </trkpt>
      <trkpt lat="30.668887998908758" lon="-4.906482975929976">
        <ele>677.29999999999995</ele>
        <time>2003-04-16T06:49:13Z</time>
      </trkpt>
      <trkpt lat="30.668679960072041" lon="-4.905434986576438">
        <ele>677.39999999999998</ele>
        <time>2003-04-16T06:49:20Z</time>
      </trkpt>
      <trkpt lat="30.668445015326142" lon="-4.904292030259967">
        <ele>677</ele>
        <time>2003-04-16T06:49:28Z</time>
      </trkpt>
      <trkpt lat="30.668198000639677" lon="-4.903243035078049">
        <ele>677.10000000000002</ele>
        <time>2003-04-16T06:49:34Z</time>
      </trkpt>
      <trkpt lat="30.66807696595788" lon="-4.902798039838672">
        <ele>677.20000000000005</ele>
        <time>2003-04-16T06:49:38Z</time>
      </trkpt>
      <trkpt lat="30.667972024530172" lon="-4.902397971600294">
        <ele>677.10000000000002</ele>
        <time>2003-04-16T06:49:40Z</time>
      </trkpt>
      <trkpt lat="30.667847972363234" lon="-4.902118016034365">
        <ele>676.70000000000005</ele>
        <time>2003-04-16T06:49:43Z</time>
      </trkpt>
      <trkpt lat="30.667042974382639" lon="-4.900492010638118">
        <ele>676.5</ele>
        <time>2003-04-16T06:49:54Z</time>
      </trkpt>
      <trkpt lat="30.666456995531917" lon="-4.899532031267881">
        <ele>677</ele>
        <time>2003-04-16T06:50:02Z</time>
      </trkpt>
      <trkpt lat="30.666151978075504" lon="-4.899027021601796">
        <ele>676.60000000000002</ele>
        <time>2003-04-16T06:50:06Z</time>
      </trkpt>
      <trkpt lat="30.665687033906579" lon="-4.898001998662949">
        <ele>676.39999999999998</ele>
        <time>2003-04-16T06:50:13Z</time>
      </trkpt>
      <trkpt lat="30.665270034223795" lon="-4.897000025957823">
        <ele>676.20000000000005</ele>
        <time>2003-04-16T06:50:20Z</time>
      </trkpt>
      <trkpt lat="30.665076998993754" lon="-4.896550001576543">
        <ele>676</ele>
        <time>2003-04-16T06:50:22Z</time>
      </trkpt>
      <trkpt lat="30.664641978219151" lon="-4.895622041076422">
        <ele>676.20000000000005</ele>
        <time>2003-04-16T06:50:29Z</time>
      </trkpt>
      <trkpt lat="30.664577018469572" lon="-4.89549295976758">
        <ele>675.89999999999998</ele>
        <time>2003-04-16T06:50:29Z</time>
      </trkpt>
      <trkpt lat="30.664526978507638" lon="-4.895348036661744">
        <ele>676</ele>
        <time>2003-04-16T06:50:30Z</time>
      </trkpt>
      <trkpt lat="30.664073014631867" lon="-4.894274985417724">
        <ele>676.10000000000002</ele>
        <time>2003-04-16T06:50:37Z</time>
      </trkpt>
      <trkpt lat="30.663830023258924" lon="-4.893496977165341">
        <ele>676.10000000000002</ele>
        <time>2003-04-16T06:50:41Z</time>
      </trkpt>
      <trkpt lat="30.663622990250587" lon="-4.892513025552034">
        <ele>676</ele>
        <time>2003-04-16T06:50:47Z</time>
      </trkpt>
      <trkpt lat="30.663476977497339" lon="-4.891767036169767">
        <ele>675.5</ele>
        <time>2003-04-16T06:50:51Z</time>
      </trkpt>
      <trkpt lat="30.663110017776489" lon="-4.890652997419238">
        <ele>675.5</ele>
        <time>2003-04-16T06:50:56Z</time>
      </trkpt>
      <trkpt lat="30.662844981998205" lon="-4.889527978375554">
        <ele>675.20000000000005</ele>
        <time>2003-04-16T06:51:03Z</time>
      </trkpt>
      <trkpt lat="30.662774993106723" lon="-4.889179961755872">
        <ele>675.10000000000002</ele>
        <time>2003-04-16T06:51:04Z</time>
      </trkpt>
      <trkpt lat="30.662672985345125" lon="-4.888839991763234">
        <ele>675</ele>
        <time>2003-04-16T06:51:07Z</time>
      </trkpt>
      <trkpt lat="30.662596961483359" lon="-4.888687022030354">
        <ele>675</ele>
        <time>2003-04-16T06:51:08Z</time>
      </trkpt>
      <trkpt lat="30.662133023142815" lon="-4.88775503821671">
        <ele>674.79999999999995</ele>
        <time>2003-04-16T06:51:14Z</time>
      </trkpt>
      <trkpt lat="30.662006959319115" lon="-4.887435017153621">
        <ele>674.79999999999995</ele>
        <time>2003-04-16T06:51:16Z</time>
      </trkpt>
      <trkpt lat="30.661752987653017" lon="-4.886672012507916">
        <ele>674.5</ele>
        <time>2003-04-16T06:51:20Z</time>
      </trkpt>
      <trkpt lat="30.661634970456362" lon="-4.886319972574711">
        <ele>674.79999999999995</ele>
        <time>2003-04-16T06:51:23Z</time>
      </trkpt>
      <trkpt lat="30.661406982690096" lon="-4.885674985125661">
        <ele>675.29999999999995</ele>
        <time>2003-04-16T06:51:30Z</time>
      </trkpt>
      <trkpt lat="30.661343028768897" lon="-4.885532995685935">
        <ele>673.79999999999995</ele>
        <time>2003-04-16T06:51:31Z</time>
      </trkpt>
      <trkpt lat="30.661246972158551" lon="-4.885262008756399">
        <ele>673.89999999999998</ele>
        <time>2003-04-16T06:51:35Z</time>
      </trkpt>
      <trkpt lat="30.661100037395954" lon="-4.884799998253584">
        <ele>674.10000000000002</ele>
        <time>2003-04-16T06:51:39Z</time>
      </trkpt>
      <trkpt lat="30.660927034914494" lon="-4.884152999147773">
        <ele>674.39999999999998</ele>
        <time>2003-04-16T06:51:43Z</time>
      </trkpt>
      <trkpt lat="30.660653030499816" lon="-4.883238030597568">
        <ele>674.39999999999998</ele>
        <time>2003-04-16T06:51:50Z</time>
      </trkpt>
      <trkpt lat="30.660387994721532" lon="-4.882206972688437">
        <ele>674.29999999999995</ele>
        <time>2003-04-16T06:51:57Z</time>
      </trkpt>
      <trkpt lat="30.660133017227054" lon="-4.881029985845089">
        <ele>673.89999999999998</ele>
        <time>2003-04-16T06:52:03Z</time>
      </trkpt>
      <trkpt lat="30.659977030009031" lon="-4.87987001426518">
        <ele>674.10000000000002</ele>
        <time>2003-04-16T06:52:10Z</time>
      </trkpt>
      <trkpt lat="30.659841997548938" lon="-4.87864701077342">
        <ele>673.70000000000005</ele>
        <time>2003-04-16T06:52:16Z</time>
      </trkpt>
      <trkpt lat="30.65978198312223" lon="-4.87750799395144">
        <ele>673.29999999999995</ele>
        <time>2003-04-16T06:52:21Z</time>
      </trkpt>
      <trkpt lat="30.663928007707" lon="-4.847242031246424">
        <ele>660.5</ele>
        <time>2003-04-16T07:33:13Z</time>
      </trkpt>
      <trkpt lat="30.665713017806411" lon="-4.844814967364073">
        <ele>660</ele>
        <time>2003-04-16T07:33:36Z</time>
      </trkpt>
      <trkpt lat="30.6660779658705" lon="-4.844369972124696">
        <ele>659.89999999999998</ele>
        <time>2003-04-16T07:33:40Z</time>
      </trkpt>
      <trkpt lat="30.666482979431748" lon="-4.844009969383478">
        <ele>659.60000000000002</ele>
        <time>2003-04-16T07:33:44Z</time>
      </trkpt>
      <trkpt lat="30.666982959955931" lon="-4.843597998842597">
        <ele>659.5</ele>
        <time>2003-04-16T07:33:49Z</time>
      </trkpt>
      <trkpt lat="30.667534992098808" lon="-4.843231961131096">
        <ele>660</ele>
        <time>2003-04-16T07:33:53Z</time>
      </trkpt>
      <trkpt lat="30.667917039245367" lon="-4.842937001958489">
        <ele>660.39999999999998</ele>
        <time>2003-04-16T07:33:57Z</time>
      </trkpt>
      <trkpt lat="30.668457001447678" lon="-4.842537017539144">
        <ele>660.29999999999995</ele>
        <time>2003-04-16T07:34:03Z</time>
      </trkpt>
      <trkpt lat="30.669180024415255" lon="-4.842044999822974">
        <ele>660.29999999999995</ele>
        <time>2003-04-16T07:34:08Z</time>
      </trkpt>
      <trkpt lat="30.669534998014569" lon="-4.841788010671735">
        <ele>660.20000000000005</ele>
        <time>2003-04-16T07:34:12Z</time>
      </trkpt>
      <trkpt lat="30.670400010421872" lon="-4.841103041544557">
        <ele>662.89999999999998</ele>
        <time>2003-04-16T07:34:19Z</time>
      </trkpt>
      <trkpt lat="30.671103000640869" lon="-4.840461993589997">
        <ele>664.70000000000005</ele>
        <time>2003-04-16T07:34:24Z</time>
      </trkpt>
      <trkpt lat="30.671440036967397" lon="-4.840220008045435">
        <ele>-236.80000000000001</ele>
        <time>2003-04-16T07:34:28Z</time>
      </trkpt>
      <trkpt lat="30.67157699726522" lon="-4.840154964476824">
        <ele>667</ele>
        <time>2003-04-16T07:34:31Z</time>
      </trkpt>
      <trkpt lat="30.671755028888583" lon="-4.8400819581002">
        <ele>665.79999999999995</ele>
        <time>2003-04-16T07:34:34Z</time>
      </trkpt>
      <trkpt lat="30.671923002228141" lon="-4.839939968660474">
        <ele>665.89999999999998</ele>
        <time>2003-04-16T07:34:36Z</time>
      </trkpt>
      <trkpt lat="30.672038001939654" lon="-4.839848019182682">
        <ele>665.79999999999995</ele>
        <time>2003-04-16T07:34:39Z</time>
      </trkpt>
      <trkpt lat="30.672272024676204" lon="-4.839732013642788">
        <ele>665.60000000000002</ele>
        <time>2003-04-16T07:34:42Z</time>
      </trkpt>
      <trkpt lat="30.672421976923943" lon="-4.839632017537952">
        <ele>665.10000000000002</ele>
        <time>2003-04-16T07:34:43Z</time>
      </trkpt>
      <trkpt lat="30.672591961920261" lon="-4.839551970362663">
        <ele>664.89999999999998</ele>
        <time>2003-04-16T07:34:46Z</time>
      </trkpt>
      <trkpt lat="30.67267200909555" lon="-4.839488016441464">
        <ele>664.89999999999998</ele>
        <time>2003-04-16T07:34:47Z</time>
      </trkpt>
      <trkpt lat="30.67312303930521" lon="-4.839181993156672">
        <ele>665.20000000000005</ele>
        <time>2003-04-16T07:34:51Z</time>
      </trkpt>
      <trkpt lat="30.673196967691183" lon="-4.839109992608428">
        <ele>665.39999999999998</ele>
        <time>2003-04-16T07:34:53Z</time>
      </trkpt>
      <trkpt lat="30.673640035092831" lon="-4.838664997369051">
        <ele>664.89999999999998</ele>
        <time>2003-04-16T07:34:58Z</time>
      </trkpt>
      <trkpt lat="30.674055023118854" lon="-4.838161999359727">
        <ele>665.20000000000005</ele>
        <time>2003-04-16T07:35:02Z</time>
      </trkpt>
      <trkpt lat="30.674159964546561" lon="-4.837926970794797">
        <ele>664.89999999999998</ele>
        <time>2003-04-16T07:35:05Z</time>
      </trkpt>
      <trkpt lat="30.674312012270093" lon="-4.83758800663054">
        <ele>664.39999999999998</ele>
        <time>2003-04-16T07:35:07Z</time>
      </trkpt>
      <trkpt lat="30.674387030303478" lon="-4.837497984990478">
        <ele>664.5</ele>
        <time>2003-04-16T07:35:09Z</time>
      </trkpt>
      <trkpt lat="30.67482297308743" lon="-4.836903037503362">
        <ele>664.79999999999995</ele>
        <time>2003-04-16T07:35:14Z</time>
      </trkpt>
      <trkpt lat="30.675054984167218" lon="-4.836289985105395">
        <ele>664.20000000000005</ele>
        <time>2003-04-16T07:35:20Z</time>
      </trkpt>
      <trkpt lat="30.675357989966869" lon="-4.835264962166548">
        <ele>663.89999999999998</ele>
        <time>2003-04-16T07:35:26Z</time>
      </trkpt>
      <trkpt lat="30.675753029063344" lon="-4.834161987528205">
        <ele>663.5</ele>
        <time>2003-04-16T07:35:33Z</time>
      </trkpt>
      <trkpt lat="30.676185032352805" lon="-4.833130007609725">
        <ele>663.79999999999995</ele>
        <time>2003-04-16T07:35:41Z</time>
      </trkpt>
      <trkpt lat="30.676718037575483" lon="-4.832192994654179">
        <ele>663.5</ele>
        <time>2003-04-16T07:35:48Z</time>
      </trkpt>
      <trkpt lat="30.676991958171129" lon="-4.831827040761709">
        <ele>663.60000000000002</ele>
        <time>2003-04-16T07:35:51Z</time>
      </trkpt>
      <trkpt lat="30.678545041009784" lon="-4.830206986516714">
        <ele>663.20000000000005</ele>
        <time>2003-04-16T07:36:03Z</time>
      </trkpt>
      <trkpt lat="30.679239984601736" lon="-4.829502990469337">
        <ele>662.60000000000002</ele>
        <time>2003-04-16T07:36:08Z</time>
      </trkpt>
      <trkpt lat="30.67995697259903" lon="-4.828688018023968">
        <ele>662.10000000000002</ele>
        <time>2003-04-16T07:36:14Z</time>
      </trkpt>
      <trkpt lat="30.680483020842075" lon="-4.82789802365005">
        <ele>661.89999999999998</ele>
        <time>2003-04-16T07:36:19Z</time>
      </trkpt>
      <trkpt lat="30.680849980562925" lon="-4.826986994594336">
        <ele>661.70000000000005</ele>
        <time>2003-04-16T07:36:23Z</time>
      </trkpt>
      <trkpt lat="30.681190034374595" lon="-4.825961971655488">
        <ele>661.20000000000005</ele>
        <time>2003-04-16T07:36:30Z</time>
      </trkpt>
      <trkpt lat="30.681494968011975" lon="-4.825242972001433">
        <ele>661.29999999999995</ele>
        <time>2003-04-16T07:36:35Z</time>
      </trkpt>
      <trkpt lat="30.681992014870048" lon="-4.824390029534698">
        <ele>661.29999999999995</ele>
        <time>2003-04-16T07:36:42Z</time>
      </trkpt>
      <trkpt lat="30.682413037866354" lon="-4.823721991851926">
        <ele>660.79999999999995</ele>
        <time>2003-04-16T07:36:47Z</time>
      </trkpt>
      <trkpt lat="30.682506999000907" lon="-4.823583019897342">
        <ele>660.70000000000005</ele>
        <time>2003-04-16T07:36:50Z</time>
      </trkpt>
      <trkpt lat="30.68257799372077" lon="-4.823504984378815">
        <ele>660.60000000000002</ele>
        <time>2003-04-16T07:36:51Z</time>
      </trkpt>
      <trkpt lat="30.682652005925775" lon="-4.823442036285996">
        <ele>659.60000000000002</ele>
        <time>2003-04-16T07:39:41Z</time>
      </trkpt>
      <trkpt lat="30.682734986767173" lon="-4.823342962190509">
        <ele>659.60000000000002</ele>
        <time>2003-04-16T07:39:44Z</time>
      </trkpt>
      <trkpt lat="30.683077974244952" lon="-4.822992011904717">
        <ele>659.79999999999995</ele>
        <time>2003-04-16T07:39:55Z</time>
      </trkpt>
      <trkpt lat="30.683219963684678" lon="-4.822856979444623">
        <ele>659.89999999999998</ele>
        <time>2003-04-16T07:39:58Z</time>
      </trkpt>
      <trkpt lat="30.683428002521396" lon="-4.822675008326769">
        <ele>659.89999999999998</ele>
        <time>2003-04-16T07:40:03Z</time>
      </trkpt>
      <trkpt lat="30.683560017496347" lon="-4.822490019723773">
        <ele>660</ele>
        <time>2003-04-16T07:40:07Z</time>
      </trkpt>
      <trkpt lat="30.683645009994507" lon="-4.822379965335131">
        <ele>660.20000000000005</ele>
        <time>2003-04-16T07:40:08Z</time>
      </trkpt>
      <trkpt lat="30.683863023295999" lon="-4.822130016982555">
        <ele>660.10000000000002</ele>
        <time>2003-04-16T07:40:15Z</time>
      </trkpt>
      <trkpt lat="30.68395497277379" lon="-4.822027003392577">
        <ele>659.70000000000005</ele>
        <time>2003-04-16T07:40:18Z</time>
      </trkpt>
      <trkpt lat="30.684129986912012" lon="-4.821858024224639">
        <ele>659.5</ele>
        <time>2003-04-16T07:40:22Z</time>
      </trkpt>
      <trkpt lat="30.684222020208836" lon="-4.821779988706112">
        <ele>659.79999999999995</ele>
        <time>2003-04-16T07:40:25Z</time>
      </trkpt>
      <trkpt lat="30.684374989941716" lon="-4.821655014529824">
        <ele>659.5</ele>
        <time>2003-04-16T07:40:27Z</time>
      </trkpt>
      <trkpt lat="30.684497030451894" lon="-4.821553006768227">
        <ele>659.79999999999995</ele>
        <time>2003-04-16T07:40:30Z</time>
      </trkpt>
      <trkpt lat="30.684795007109642" lon="-4.821295011788607">
        <ele>659.89999999999998</ele>
        <time>2003-04-16T07:40:38Z</time>
      </trkpt>
      <trkpt lat="30.685036992654204" lon="-4.821180012077093">
        <ele>660</ele>
        <time>2003-04-16T07:40:42Z</time>
      </trkpt>
      <trkpt lat="30.685270009562373" lon="-4.821099964901805">
        <ele>660</ele>
        <time>2003-04-16T07:40:46Z</time>
      </trkpt>
      <trkpt lat="30.685449969023466" lon="-4.820995023474097">
        <ele>659.70000000000005</ele>
        <time>2003-04-16T07:40:49Z</time>
      </trkpt>
      <trkpt lat="30.68556496873498" lon="-4.820953030139208">
        <ele>659.89999999999998</ele>
        <time>2003-04-16T07:40:50Z</time>
      </trkpt>
      <trkpt lat="30.685980040580034" lon="-4.820868037641048">
        <ele>660.10000000000002</ele>
        <time>2003-04-16T07:40:57Z</time>
      </trkpt>
      <trkpt lat="30.686129992827773" lon="-4.820780027657747">
        <ele>659.70000000000005</ele>
        <time>2003-04-16T07:41:00Z</time>
      </trkpt>
      <trkpt lat="30.686233006417751" lon="-4.820727976039052">
        <ele>660.10000000000002</ele>
        <time>2003-04-16T07:41:01Z</time>
      </trkpt>
      <trkpt lat="30.686356974765658" lon="-4.820650024339557">
        <ele>659.89999999999998</ele>
        <time>2003-04-16T07:41:04Z</time>
      </trkpt>
      <trkpt lat="30.686676995828748" lon="-4.820403009653091">
        <ele>660.29999999999995</ele>
        <time>2003-04-16T07:41:09Z</time>
      </trkpt>
      <trkpt lat="30.686802975833416" lon="-4.820269988849759">
        <ele>660.39999999999998</ele>
        <time>2003-04-16T07:41:11Z</time>
      </trkpt>
      <trkpt lat="30.686913030222058" lon="-4.820158006623387">
        <ele>660.39999999999998</ele>
        <time>2003-04-16T07:41:13Z</time>
      </trkpt>
      <trkpt lat="30.687222993001342" lon="-4.819807978346944">
        <ele>660.10000000000002</ele>
        <time>2003-04-16T07:41:17Z</time>
      </trkpt>
      <trkpt lat="30.687609985470772" lon="-4.819334987550974">
        <ele>659.70000000000005</ele>
        <time>2003-04-16T07:41:24Z</time>
      </trkpt>
      <trkpt lat="30.688175009563565" lon="-4.818472992628813">
        <ele>660.20000000000005</ele>
        <time>2003-04-16T07:41:33Z</time>
      </trkpt>
      <trkpt lat="30.688511962071061" lon="-4.818022968247533">
        <ele>659.60000000000002</ele>
        <time>2003-04-16T07:41:39Z</time>
      </trkpt>
      <trkpt lat="30.689210006967187" lon="-4.817222999408841">
        <ele>659.5</ele>
        <time>2003-04-16T07:41:47Z</time>
      </trkpt>
      <trkpt lat="30.689570009708405" lon="-4.816898033022881">
        <ele>659.39999999999998</ele>
        <time>2003-04-16T07:41:52Z</time>
      </trkpt>
      <trkpt lat="30.690199993550777" lon="-4.81633803807199">
        <ele>659.5</ele>
        <time>2003-04-16T07:41:59Z</time>
      </trkpt>
      <trkpt lat="30.690631996840239" lon="-4.815772008150816">
        <ele>660</ele>
        <time>2003-04-16T07:42:06Z</time>
      </trkpt>
      <trkpt lat="30.690787984058261" lon="-4.815585007891059">
        <ele>659.29999999999995</ele>
        <time>2003-04-16T07:42:07Z</time>
      </trkpt>
      <trkpt lat="30.691171959042549" lon="-4.81522299349308">
        <ele>658.79999999999995</ele>
        <time>2003-04-16T07:42:13Z</time>
      </trkpt>
      <trkpt lat="30.69145199842751" lon="-4.81502995826304">
        <ele>658.5</ele>
        <time>2003-04-16T07:42:15Z</time>
      </trkpt>
      <trkpt lat="30.691724997013807" lon="-4.814827032387257">
        <ele>659</ele>
        <time>2003-04-16T07:42:18Z</time>
      </trkpt>
      <trkpt lat="30.692037977278233" lon="-4.814480021595955">
        <ele>659.10000000000002</ele>
        <time>2003-04-16T07:42:22Z</time>
      </trkpt>
      <trkpt lat="30.692509962245822" lon="-4.813839979469776">
        <ele>658.89999999999998</ele>
        <time>2003-04-16T07:42:29Z</time>
      </trkpt>
      <trkpt lat="30.69271800108254" lon="-4.813476959243417">
        <ele>659.10000000000002</ele>
        <time>2003-04-16T07:42:32Z</time>
      </trkpt>
      <trkpt lat="30.693092001602054" lon="-4.812710015103221">
        <ele>658.89999999999998</ele>
        <time>2003-04-16T07:42:37Z</time>
      </trkpt>
      <trkpt lat="30.693117985501885" lon="-4.812582023441792">
        <ele>658.79999999999995</ele>
        <time>2003-04-16T07:42:38Z</time>
      </trkpt>
      <trkpt lat="30.693202978000045" lon="-4.812253033742309">
        <ele>658.5</ele>
        <time>2003-04-16T07:42:41Z</time>
      </trkpt>
      <trkpt lat="30.693242037668824" lon="-4.812108026817441">
        <ele>658.60000000000002</ele>
        <time>2003-04-16T07:42:44Z</time>
      </trkpt>
      <trkpt lat="30.693344967439771" lon="-4.811775013804436">
        <ele>658.70000000000005</ele>
        <time>2003-04-16T07:42:48Z</time>
      </trkpt>
      <trkpt lat="30.693434989079833" lon="-4.811630006879568">
        <ele>658.5</ele>
        <time>2003-04-16T07:42:49Z</time>
      </trkpt>
      <trkpt lat="30.693476982414722" lon="-4.811494974419475">
        <ele>658.5</ele>
        <time>2003-04-16T07:42:52Z</time>
      </trkpt>
      <trkpt lat="30.693522999063134" lon="-4.81131199747324">
        <ele>658.60000000000002</ele>
        <time>2003-04-16T07:42:53Z</time>
      </trkpt>
      <trkpt lat="30.693591982126236" lon="-4.811017038300633">
        <ele>658.79999999999995</ele>
        <time>2003-04-16T07:42:57Z</time>
      </trkpt>
      <trkpt lat="30.693758027628064" lon="-4.810434998944402">
        <ele>659</ele>
        <time>2003-04-16T07:43:07Z</time>
      </trkpt>
      <trkpt lat="30.693834973499179" lon="-4.81028001755476">
        <ele>658.79999999999995</ele>
        <time>2003-04-16T07:52:27Z</time>
      </trkpt>
      <trkpt lat="30.693875038996339" lon="-4.810153031721711">
        <ele>659</ele>
        <time>2003-04-16T07:52:28Z</time>
      </trkpt>
      <trkpt lat="30.693945027887821" lon="-4.809939963743091">
        <ele>659</ele>
        <time>2003-04-16T07:52:31Z</time>
      </trkpt>
      <trkpt lat="30.694009987637401" lon="-4.809748018160462">
        <ele>659.10000000000002</ele>
        <time>2003-04-16T07:52:34Z</time>
      </trkpt>
      <trkpt lat="30.694118030369282" lon="-4.809417016804218">
        <ele>659.29999999999995</ele>
        <time>2003-04-16T07:52:36Z</time>
      </trkpt>
      <trkpt lat="30.694490019232035" lon="-4.808414960280061">
        <ele>659.79999999999995</ele>
        <time>2003-04-16T07:52:46Z</time>
      </trkpt>
      <trkpt lat="30.694614993408322" lon="-4.807726973667741">
        <ele>659.89999999999998</ele>
        <time>2003-04-16T07:52:51Z</time>
      </trkpt>
      <trkpt lat="30.694692023098469" lon="-4.807121967896819">
        <ele>659.89999999999998</ele>
        <time>2003-04-16T07:52:55Z</time>
      </trkpt>
      <trkpt lat="30.694757988676429" lon="-4.806031985208392">
        <ele>659.79999999999995</ele>
        <time>2003-04-16T07:53:02Z</time>
      </trkpt>
      <trkpt lat="30.694750025868416" lon="-4.805892007425427">
        <ele>659.79999999999995</ele>
        <time>2003-04-16T07:53:03Z</time>
      </trkpt>
      <trkpt lat="30.694763017818332" lon="-4.805629989132285">
        <ele>659.79999999999995</ele>
        <time>2003-04-16T07:53:06Z</time>
      </trkpt>
      <trkpt lat="30.694754971191287" lon="-4.805397978052497">
        <ele>659.79999999999995</ele>
        <time>2003-04-16T07:53:07Z</time>
      </trkpt>
      <trkpt lat="30.694762011989951" lon="-4.805284989997745">
        <ele>659.79999999999995</ele>
        <time>2003-04-16T07:53:09Z</time>
      </trkpt>
      <trkpt lat="30.694820014759898" lon="-4.804922975599766">
        <ele>659.60000000000002</ele>
        <time>2003-04-16T07:53:11Z</time>
      </trkpt>
      <trkpt lat="30.694867037236691" lon="-4.804811999201775">
        <ele>659.60000000000002</ele>
        <time>2003-04-16T07:53:13Z</time>
      </trkpt>
      <trkpt lat="30.694935014471412" lon="-4.804549980908632">
        <ele>659.5</ele>
        <time>2003-04-16T07:53:14Z</time>
      </trkpt>
      <trkpt lat="30.695202983915806" lon="-4.803529987111688">
        <ele>659.89999999999998</ele>
        <time>2003-04-16T07:53:22Z</time>
      </trkpt>
      <trkpt lat="30.695513030514121" lon="-4.802442016080022">
        <ele>660.5</ele>
        <time>2003-04-16T07:53:29Z</time>
      </trkpt>
      <trkpt lat="30.69557698443532" lon="-4.80215703137219">
        <ele>660.60000000000002</ele>
        <time>2003-04-16T07:53:32Z</time>
      </trkpt>
      <trkpt lat="30.695864986628294" lon="-4.80106302537024">
        <ele>660.89999999999998</ele>
        <time>2003-04-16T07:53:40Z</time>
      </trkpt>
      <trkpt lat="30.695988032966852" lon="-4.800824979320169">
        <ele>660.79999999999995</ele>
        <time>2003-04-16T07:53:41Z</time>
      </trkpt>
      <trkpt lat="30.696032959967852" lon="-4.800705034285784">
        <ele>660.79999999999995</ele>
        <time>2003-04-16T07:53:42Z</time>
      </trkpt>
      <trkpt lat="30.69622297771275" lon="-4.800257021561265">
        <ele>660.79999999999995</ele>
        <time>2003-04-16T07:53:47Z</time>
      </trkpt>
      <trkpt lat="30.696309981867671" lon="-4.800172029063106">
        <ele>660.79999999999995</ele>
        <time>2003-04-16T07:53:48Z</time>
      </trkpt>
      <trkpt lat="30.696663027629256" lon="-4.799897018820047">
        <ele>660.60000000000002</ele>
        <time>2003-04-16T07:53:52Z</time>
      </trkpt>
      <trkpt lat="30.697312960401177" lon="-4.799507008865476">
        <ele>660.39999999999998</ele>
        <time>2003-04-16T07:53:57Z</time>
      </trkpt>
      <trkpt lat="30.697945039719343" lon="-4.799009962007403">
        <ele>660.39999999999998</ele>
        <time>2003-04-16T07:54:04Z</time>
      </trkpt>
      <trkpt lat="30.698064984753728" lon="-4.798818016424775">
        <ele>660.29999999999995</ele>
        <time>2003-04-16T07:54:05Z</time>
      </trkpt>
      <trkpt lat="30.698124999180436" lon="-4.798633027821779">
        <ele>660.39999999999998</ele>
        <time>2003-04-16T07:54:08Z</time>
      </trkpt>
      <trkpt lat="30.698142014443874" lon="-4.798526996746659">
        <ele>660.39999999999998</ele>
        <time>2003-04-16T07:54:08Z</time>
      </trkpt>
      <trkpt lat="30.698142014443874" lon="-4.798413002863526">
        <ele>660.39999999999998</ele>
        <time>2003-04-16T07:54:09Z</time>
      </trkpt>
      <trkpt lat="30.698103038594127" lon="-4.798183003440499">
        <ele>660.39999999999998</ele>
        <time>2003-04-16T07:54:12Z</time>
      </trkpt>
      <trkpt lat="30.698007987812161" lon="-4.797731973230839">
        <ele>660.5</ele>
        <time>2003-04-16T07:54:16Z</time>
      </trkpt>
      <trkpt lat="30.698031960055232" lon="-4.797627031803131">
        <ele>660.60000000000002</ele>
        <time>2003-04-16T07:54:16Z</time>
      </trkpt>
      <trkpt lat="30.698107983916998" lon="-4.797407006844878">
        <ele>660.5</ele>
        <time>2003-04-16T07:54:19Z</time>
      </trkpt>
      <trkpt lat="30.698222983628511" lon="-4.797041974961758">
        <ele>660.39999999999998</ele>
        <time>2003-04-16T07:54:22Z</time>
      </trkpt>
      <trkpt lat="30.698339994996786" lon="-4.796302020549774">
        <ele>660.60000000000002</ele>
        <time>2003-04-16T07:54:27Z</time>
      </trkpt>
      <trkpt lat="30.698515009135008" lon="-4.795255037024617">
        <ele>660.70000000000005</ele>
        <time>2003-04-16T07:54:34Z</time>
      </trkpt>
      <trkpt lat="30.698727993294597" lon="-4.794292040169239">
        <ele>658.79999999999995</ele>
        <time>2003-04-16T07:54:39Z</time>
      </trkpt>
      <trkpt lat="30.699001997709274" lon="-4.793129973113537">
        <ele>657.29999999999995</ele>
        <time>2003-04-16T07:54:46Z</time>
      </trkpt>
      <trkpt lat="30.699202995747328" lon="-4.792466964572668">
        <ele>656.89999999999998</ele>
        <time>2003-04-16T07:54:50Z</time>
      </trkpt>
      <trkpt lat="30.69957297295332" lon="-4.791645035147667">
        <ele>657.20000000000005</ele>
        <time>2003-04-16T07:54:55Z</time>
      </trkpt>
      <trkpt lat="30.700001958757639" lon="-4.790684971958399">
        <ele>657.39999999999998</ele>
        <time>2003-04-16T07:55:02Z</time>
      </trkpt>
      <trkpt lat="30.700251990929246" lon="-4.7899129986763">
        <ele>657.5</ele>
        <time>2003-04-16T07:55:06Z</time>
      </trkpt>
      <trkpt lat="30.700379982590675" lon="-4.789034994319081">
        <ele>657.89999999999998</ele>
        <time>2003-04-16T07:55:13Z</time>
      </trkpt>
      <trkpt lat="30.700436979532242" lon="-4.788912031799555">
        <ele>658.10000000000002</ele>
        <time>2003-04-16T07:55:13Z</time>
      </trkpt>
      <trkpt lat="30.700648035854101" lon="-4.788527972996235">
        <ele>658.29999999999995</ele>
        <time>2003-04-16T07:55:17Z</time>
      </trkpt>
      <trkpt lat="30.700842998921871" lon="-4.788156989961863">
        <ele>658.5</ele>
        <time>2003-04-16T07:55:20Z</time>
      </trkpt>
      <trkpt lat="30.700920028612018" lon="-4.787924978882074">
        <ele>658.79999999999995</ele>
        <time>2003-04-16T07:55:21Z</time>
      </trkpt>
      <trkpt lat="30.700924973934889" lon="-4.787820037454367">
        <ele>659.10000000000002</ele>
        <time>2003-04-16T07:55:22Z</time>
      </trkpt>
      <trkpt lat="30.700899995863438" lon="-4.787707971408963">
        <ele>659</ele>
        <time>2003-04-16T07:55:24Z</time>
      </trkpt>
      <trkpt lat="30.700837969779968" lon="-4.787331959232688">
        <ele>658.79999999999995</ele>
        <time>2003-04-16T07:55:26Z</time>
      </trkpt>
      <trkpt lat="30.700767980888486" lon="-4.786229990422726">
        <ele>658.29999999999995</ele>
        <time>2003-04-16T07:55:35Z</time>
      </trkpt>
      <trkpt lat="30.700739985331893" lon="-4.785818019881845">
        <ele>658</ele>
        <time>2003-04-16T07:55:37Z</time>
      </trkpt>
      <trkpt lat="30.700600007548928" lon="-4.784761983901262">
        <ele>658</ele>
        <time>2003-04-16T07:55:44Z</time>
      </trkpt>
      <trkpt lat="30.700406972318888" lon="-4.783732015639544">
        <ele>657.89999999999998</ele>
        <time>2003-04-16T07:55:52Z</time>
      </trkpt>
      <trkpt lat="30.700252996757627" lon="-4.782583024352789">
        <ele>658.60000000000002</ele>
        <time>2003-04-16T07:56:00Z</time>
      </trkpt>
      <trkpt lat="30.700204968452454" lon="-4.781635031104088">
        <ele>658.39999999999998</ele>
        <time>2003-04-16T07:56:06Z</time>
      </trkpt>
      <trkpt lat="30.700104972347617" lon="-4.780521998181939">
        <ele>658.20000000000005</ele>
        <time>2003-04-16T07:56:12Z</time>
      </trkpt>
      <trkpt lat="30.700030038133264" lon="-4.779420029371977">
        <ele>658.20000000000005</ele>
        <time>2003-04-16T07:56:19Z</time>
      </trkpt>
      <trkpt lat="30.69993800483644" lon="-4.778340021148324">
        <ele>657.10000000000002</ele>
        <time>2003-04-16T07:56:27Z</time>
      </trkpt>
      <trkpt lat="30.699934987351298" lon="-4.777765022590756">
        <ele>655.89999999999998</ele>
        <time>2003-04-16T07:56:31Z</time>
      </trkpt>
      <trkpt lat="30.699979998171329" lon="-4.777497975155711">
        <ele>655.70000000000005</ele>
        <time>2003-04-16T07:56:34Z</time>
      </trkpt>
      <trkpt lat="30.699987960979342" lon="-4.777362020686269">
        <ele>655.79999999999995</ele>
        <time>2003-04-16T07:56:34Z</time>
      </trkpt>
      <trkpt lat="30.700042024254799" lon="-4.776985002681613">
        <ele>655.70000000000005</ele>
        <time>2003-04-16T07:56:38Z</time>
      </trkpt>
      <trkpt lat="30.70008703507483" lon="-4.776875032112002">
        <ele>655.70000000000005</ele>
        <time>2003-04-16T07:56:38Z</time>
      </trkpt>
      <trkpt lat="30.700202034786344" lon="-4.776662969961762">
        <ele>655.79999999999995</ele>
        <time>2003-04-16T07:56:41Z</time>
      </trkpt>
      <trkpt lat="30.700342012569308" lon="-4.776474963873625">
        <ele>655.89999999999998</ele>
        <time>2003-04-16T07:56:42Z</time>
      </trkpt>
      <trkpt lat="30.700564971193671" lon="-4.776143040508032">
        <ele>655.70000000000005</ele>
        <time>2003-04-16T07:56:46Z</time>
      </trkpt>
      <trkpt lat="30.700863031670451" lon="-4.775447007268667">
        <ele>655.79999999999995</ele>
        <time>2003-04-16T07:56:50Z</time>
      </trkpt>
      <trkpt lat="30.700992029160261" lon="-4.775157999247313">
        <ele>655</ele>
        <time>2003-04-16T07:56:53Z</time>
      </trkpt>
      <trkpt lat="30.701369969174266" lon="-4.774310002103448">
        <ele>656.5</ele>
        <time>2003-04-16T07:56:58Z</time>
      </trkpt>
      <trkpt lat="30.701668029651046" lon="-4.773292019963265">
        <ele>657.70000000000005</ele>
        <time>2003-04-16T07:57:05Z</time>
      </trkpt>
      <trkpt lat="30.701753022149205" lon="-4.7728549875319">
        <ele>657.79999999999995</ele>
        <time>2003-04-16T07:57:09Z</time>
      </trkpt>
      <trkpt lat="30.701842037960887" lon="-4.772262973710895">
        <ele>658.20000000000005</ele>
        <time>2003-04-16T07:57:13Z</time>
      </trkpt>
      <trkpt lat="30.702017974108458" lon="-4.771210039034486">
        <ele>657.20000000000005</ele>
        <time>2003-04-16T07:57:20Z</time>
      </trkpt>
      <trkpt lat="30.702106989920139" lon="-4.770952966064215">
        <ele>656.79999999999995</ele>
        <time>2003-04-16T07:57:21Z</time>
      </trkpt>
      <trkpt lat="30.702274963259697" lon="-4.770651971921325">
        <ele>656.5</ele>
        <time>2003-04-16T07:57:25Z</time>
      </trkpt>
      <trkpt lat="30.702304970473051" lon="-4.770548036321998">
        <ele>656.39999999999998</ele>
        <time>2003-04-16T07:57:25Z</time>
      </trkpt>
      <trkpt lat="30.702313017100096" lon="-4.770422978326678">
        <ele>656.5</ele>
        <time>2003-04-16T07:57:27Z</time>
      </trkpt>
      <trkpt lat="30.70236699655652" lon="-4.770068004727364">
        <ele>656.60000000000002</ele>
        <time>2003-04-16T07:57:29Z</time>
      </trkpt>
      <trkpt lat="30.702432040125132" lon="-4.76960800588131">
        <ele>656.5</ele>
        <time>2003-04-16T07:57:33Z</time>
      </trkpt>
      <trkpt lat="30.702466992661357" lon="-4.769063014537096">
        <ele>656.79999999999995</ele>
        <time>2003-04-16T07:57:37Z</time>
      </trkpt>
      <trkpt lat="30.702577969059348" lon="-4.768635034561157">
        <ele>656.60000000000002</ele>
        <time>2003-04-16T07:57:40Z</time>
      </trkpt>
      <trkpt lat="30.702800005674362" lon="-4.767992980778217">
        <ele>656.79999999999995</ele>
        <time>2003-04-16T07:57:45Z</time>
      </trkpt>
      <trkpt lat="30.703169982880354" lon="-4.767270041629672">
        <ele>656.39999999999998</ele>
        <time>2003-04-16T07:57:52Z</time>
      </trkpt>
      <trkpt lat="30.70322304032743" lon="-4.767156969755888">
        <ele>656.39999999999998</ele>
        <time>2003-04-16T07:57:52Z</time>
      </trkpt>
      <trkpt lat="30.703257992863655" lon="-4.767041970044375">
        <ele>656.39999999999998</ele>
        <time>2003-04-16T07:57:54Z</time>
      </trkpt>
      <trkpt lat="30.703565021976829" lon="-4.765976965427399">
        <ele>657.20000000000005</ele>
        <time>2003-04-16T07:58:03Z</time>
      </trkpt>
      <trkpt lat="30.703638028353453" lon="-4.765704972669482">
        <ele>657.29999999999995</ele>
        <time>2003-04-16T07:58:06Z</time>
      </trkpt>
      <trkpt lat="30.703729977831244" lon="-4.765282021835446">
        <ele>656.60000000000002</ele>
        <time>2003-04-16T07:58:11Z</time>
      </trkpt>
      <trkpt lat="30.703765014186502" lon="-4.765119999647141">
        <ele>656.89999999999998</ele>
        <time>2003-04-16T07:58:12Z</time>
      </trkpt>
      <trkpt lat="30.703812036663294" lon="-4.764890000224114">
        <ele>655.70000000000005</ele>
        <time>2003-04-16T07:58:15Z</time>
      </trkpt>
      <trkpt lat="30.703732995316386" lon="-4.764742981642485">
        <ele>656.79999999999995</ele>
        <time>2003-04-16T07:58:18Z</time>
      </trkpt>
      <trkpt lat="30.70363299921155" lon="-4.764569979161024">
        <ele>656.39999999999998</ele>
        <time>2003-04-16T07:58:19Z</time>
      </trkpt>
      <trkpt lat="30.703582959249616" lon="-4.764475012198091">
        <ele>656.79999999999995</ele>
        <time>2003-04-16T07:58:21Z</time>
      </trkpt>
      <trkpt lat="30.703514982014894" lon="-4.764260016381741">
        <ele>656.89999999999998</ele>
        <time>2003-04-16T07:58:22Z</time>
      </trkpt>
      <trkpt lat="30.703424960374832" lon="-4.763828013092279">
        <ele>656.60000000000002</ele>
        <time>2003-04-16T07:58:26Z</time>
      </trkpt>
      <trkpt lat="30.70339797064662" lon="-4.763268018141389">
        <ele>656.60000000000002</ele>
        <time>2003-04-16T07:58:31Z</time>
      </trkpt>
      <trkpt lat="30.703390007838607" lon="-4.762984961271286">
        <ele>656.60000000000002</ele>
        <time>2003-04-16T07:58:34Z</time>
      </trkpt>
      <trkpt lat="30.703411968424916" lon="-4.76288303732872">
        <ele>656.5</ele>
        <time>2003-04-16T07:58:35Z</time>
      </trkpt>
      <trkpt lat="30.70346200838685" lon="-4.762590005993843">
        <ele>656.60000000000002</ele>
        <time>2003-04-16T07:58:38Z</time>
      </trkpt>
      <trkpt lat="30.703469971194863" lon="-4.762352965772152">
        <ele>656.5</ele>
        <time>2003-04-16T07:58:42Z</time>
      </trkpt>
      <trkpt lat="30.703562004491687" lon="-4.762257998809218">
        <ele>656.79999999999995</ele>
        <time>2003-04-16T07:58:44Z</time>
      </trkpt>
      <trkpt lat="30.703687984496355" lon="-4.762232014909387">
        <ele>658.10000000000002</ele>
        <time>2003-04-16T07:58:46Z</time>
      </trkpt>
      <trkpt lat="30.70376199670136" lon="-4.762107040733099">
        <ele>657.39999999999998</ele>
        <time>2003-04-16T07:58:48Z</time>
      </trkpt>
      <trkpt lat="30.703767025843263" lon="-4.761911993846297">
        <ele>657.70000000000005</ele>
        <time>2003-04-16T07:58:49Z</time>
      </trkpt>
      <trkpt lat="30.70380499586463" lon="-4.761733040213585">
        <ele>658.39999999999998</ele>
        <time>2003-04-16T07:58:52Z</time>
      </trkpt>
      <trkpt lat="30.703827040269971" lon="-4.761542016640306">
        <ele>658.70000000000005</ele>
        <time>2003-04-16T07:58:53Z</time>
      </trkpt>
      <trkpt lat="30.703797033056617" lon="-4.761279998347163">
        <ele>658.70000000000005</ele>
        <time>2003-04-16T07:58:57Z</time>
      </trkpt>
      <trkpt lat="30.703771971166134" lon="-4.76112300530076">
        <ele>658.29999999999995</ele>
        <time>2003-04-16T07:58:58Z</time>
      </trkpt>
      <trkpt lat="30.703722015023232" lon="-4.76101303473115">
        <ele>658.10000000000002</ele>
        <time>2003-04-16T07:59:01Z</time>
      </trkpt>
      <trkpt lat="30.703646996989846" lon="-4.76062998175621">
        <ele>659.20000000000005</ele>
        <time>2003-04-16T07:59:08Z</time>
      </trkpt>
      <trkpt lat="30.703622018918395" lon="-4.76047801785171">
        <ele>658.5</ele>
        <time>2003-04-16T07:59:12Z</time>
      </trkpt>
      <trkpt lat="30.7035699672997" lon="-4.760301997885108">
        <ele>658.70000000000005</ele>
        <time>2003-04-16T07:59:16Z</time>
      </trkpt>
      <trkpt lat="30.703593017533422" lon="-4.760071998462081">
        <ele>659</ele>
        <time>2003-04-16T07:59:20Z</time>
      </trkpt>
      <trkpt lat="30.703605003654957" lon="-4.759882986545563">
        <ele>658.70000000000005</ele>
        <time>2003-04-16T07:59:24Z</time>
      </trkpt>
      <trkpt lat="30.703582037240267" lon="-4.75974703207612">
        <ele>658.79999999999995</ele>
        <time>2003-04-16T07:59:27Z</time>
      </trkpt>
      <trkpt lat="30.703542977571487" lon="-4.759560031816363">
        <ele>658.29999999999995</ele>
        <time>2003-04-16T07:59:32Z</time>
      </trkpt>
      <trkpt lat="30.703499978408217" lon="-4.759460035711527">
        <ele>658.10000000000002</ele>
        <time>2003-04-16T07:59:33Z</time>
      </trkpt>
      <trkpt lat="30.703459996730089" lon="-4.759302958846092">
        <ele>657.5</ele>
        <time>2003-04-16T07:59:36Z</time>
      </trkpt>
      <trkpt lat="30.703475000336766" lon="-4.759113024920225">
        <ele>657.79999999999995</ele>
        <time>2003-04-16T07:59:38Z</time>
      </trkpt>
      <trkpt lat="30.703516993671656" lon="-4.758787974715233">
        <ele>657.39999999999998</ele>
        <time>2003-04-16T07:59:42Z</time>
      </trkpt>
      <trkpt lat="30.703529985621572" lon="-4.758602986112237">
        <ele>657.10000000000002</ele>
        <time>2003-04-16T07:59:43Z</time>
      </trkpt>
      <trkpt lat="30.703559992834926" lon="-4.758196966722608">
        <ele>657.10000000000002</ele>
        <time>2003-04-16T07:59:47Z</time>
      </trkpt>
      <trkpt lat="30.703629981726408" lon="-4.757960010319948">
        <ele>657.5</ele>
        <time>2003-04-16T07:59:51Z</time>
      </trkpt>
      <trkpt lat="30.703654959797859" lon="-4.757818020880222">
        <ele>658.10000000000002</ele>
        <time>2003-04-16T07:59:52Z</time>
      </trkpt>
      <trkpt lat="30.703642973676324" lon="-4.757452988997102">
        <ele>657.89999999999998</ele>
        <time>2003-04-16T07:59:56Z</time>
      </trkpt>
      <trkpt lat="30.703667029738426" lon="-4.75701997987926">
        <ele>657.70000000000005</ele>
        <time>2003-04-16T08:00:00Z</time>
      </trkpt>
      <trkpt lat="30.703735006973147" lon="-4.756535002961755">
        <ele>657.60000000000002</ele>
        <time>2003-04-16T08:00:05Z</time>
      </trkpt>
      <trkpt lat="30.70382796227932" lon="-4.755960004404187">
        <ele>657.79999999999995</ele>
        <time>2003-04-16T08:00:10Z</time>
      </trkpt>
      <trkpt lat="30.703812958672643" lon="-4.755720030516386">
        <ele>657.60000000000002</ele>
        <time>2003-04-16T08:00:11Z</time>
      </trkpt>
      <trkpt lat="30.70378496311605" lon="-4.755603019148111">
        <ele>657.70000000000005</ele>
        <time>2003-04-16T08:00:13Z</time>
      </trkpt>
      <trkpt lat="30.703578013926744" lon="-4.755004970356822">
        <ele>657.29999999999995</ele>
        <time>2003-04-16T08:00:18Z</time>
      </trkpt>
      <trkpt lat="30.703459996730089" lon="-4.754780000075698">
        <ele>657.20000000000005</ele>
        <time>2003-04-16T08:00:19Z</time>
      </trkpt>
      <trkpt lat="30.703326975926757" lon="-4.754456961527467">
        <ele>657</ele>
        <time>2003-04-16T08:00:22Z</time>
      </trkpt>
      <trkpt lat="30.703288000077009" lon="-4.754232997074723">
        <ele>657.10000000000002</ele>
        <time>2003-04-16T08:00:25Z</time>
      </trkpt>
      <trkpt lat="30.703281965106726" lon="-4.754038034006953">
        <ele>656.70000000000005</ele>
        <time>2003-04-16T08:00:26Z</time>
      </trkpt>
      <trkpt lat="30.703292023390532" lon="-4.753547022119165">
        <ele>656.5</ele>
        <time>2003-04-16T08:00:32Z</time>
      </trkpt>
      <trkpt lat="30.70335203781724" lon="-4.753379970788956">
        <ele>656.70000000000005</ele>
        <time>2003-04-16T08:00:34Z</time>
      </trkpt>
      <trkpt lat="30.703407023102045" lon="-4.753294978290796">
        <ele>656.70000000000005</ele>
        <time>2003-04-16T08:00:34Z</time>
      </trkpt>
      <trkpt lat="30.70361296646297" lon="-4.753049975261092">
        <ele>656.79999999999995</ele>
        <time>2003-04-16T08:00:37Z</time>
      </trkpt>
      <trkpt lat="30.703808013349771" lon="-4.752782005816698">
        <ele>657.20000000000005</ele>
        <time>2003-04-16T08:00:41Z</time>
      </trkpt>
      <trkpt lat="30.703942039981484" lon="-4.752476988360286">
        <ele>657.5</ele>
        <time>2003-04-16T08:00:44Z</time>
      </trkpt>
      <trkpt lat="30.703974980860949" lon="-4.752371963113546">
        <ele>657.60000000000002</ele>
        <time>2003-04-16T08:00:45Z</time>
      </trkpt>
      <trkpt lat="30.703972969204187" lon="-4.752259980887175">
        <ele>657.39999999999998</ele>
        <time>2003-04-16T08:00:45Z</time>
      </trkpt>
      <trkpt lat="30.70399702526629" lon="-4.752037022262812">
        <ele>657.39999999999998</ele>
        <time>2003-04-16T08:00:48Z</time>
      </trkpt>
      <trkpt lat="30.704049998894334" lon="-4.751771986484528">
        <ele>657.60000000000002</ele>
        <time>2003-04-16T08:00:50Z</time>
      </trkpt>
      <trkpt lat="30.704070031642914" lon="-4.751602001488209">
        <ele>658.10000000000002</ele>
        <time>2003-04-16T08:00:53Z</time>
      </trkpt>
      <trkpt lat="30.704070031642914" lon="-4.751403015106916">
        <ele>658</ele>
        <time>2003-04-16T08:00:54Z</time>
      </trkpt>
      <trkpt lat="30.704049998894334" lon="-4.751062961295247">
        <ele>658.20000000000005</ele>
        <time>2003-04-16T08:00:57Z</time>
      </trkpt>
      <trkpt lat="30.70404002442956" lon="-4.750459967181087">
        <ele>658.20000000000005</ele>
        <time>2003-04-16T08:01:04Z</time>
      </trkpt>
      <trkpt lat="30.704047987237573" lon="-4.750261986628175">
        <ele>658.5</ele>
        <time>2003-04-16T08:01:05Z</time>
      </trkpt>
      <trkpt lat="30.704057961702347" lon="-4.75007800385356">
        <ele>658.29999999999995</ele>
        <time>2003-04-16T08:01:08Z</time>
      </trkpt>
      <trkpt lat="30.704006999731064" lon="-4.749899972230196">
        <ele>658.5</ele>
        <time>2003-04-16T08:01:09Z</time>
      </trkpt>
      <trkpt lat="30.703942039981484" lon="-4.749681958928704">
        <ele>658.20000000000005</ele>
        <time>2003-04-16T08:01:12Z</time>
      </trkpt>
      <trkpt lat="30.703932987526059" lon="-4.74956201389432">
        <ele>658.39999999999998</ele>
        <time>2003-04-16T08:01:12Z</time>
      </trkpt>
      <trkpt lat="30.70386802777648" lon="-4.748985003679991">
        <ele>658.29999999999995</ele>
        <time>2003-04-16T08:01:17Z</time>
      </trkpt>
      <trkpt lat="30.703671975061297" lon="-4.748457027599216">
        <ele>658.39999999999998</ele>
        <time>2003-04-16T08:01:23Z</time>
      </trkpt>
      <trkpt lat="30.70354800671339" lon="-4.747831989079714">
        <ele>658.20000000000005</ele>
        <time>2003-04-16T08:01:28Z</time>
      </trkpt>
      <trkpt lat="30.703390007838607" lon="-4.746709987521172">
        <ele>657.60000000000002</ele>
        <time>2003-04-16T08:01:36Z</time>
      </trkpt>
      <trkpt lat="30.703350026160479" lon="-4.746215036138892">
        <ele>657.70000000000005</ele>
        <time>2003-04-16T08:01:42Z</time>
      </trkpt>
      <trkpt lat="30.703286994248629" lon="-4.746097018942237">
        <ele>657.5</ele>
        <time>2003-04-16T08:01:43Z</time>
      </trkpt>
      <trkpt lat="30.703124972060323" lon="-4.745914964005351">
        <ele>657.39999999999998</ele>
        <time>2003-04-16T08:01:47Z</time>
      </trkpt>
      <trkpt lat="30.702993040904403" lon="-4.745792001485825">
        <ele>657.29999999999995</ele>
        <time>2003-04-16T08:01:48Z</time>
      </trkpt>
      <trkpt lat="30.702302036806941" lon="-4.745062021538615">
        <ele>656.89999999999998</ele>
        <time>2003-04-16T08:01:59Z</time>
      </trkpt>
      <trkpt lat="30.70182996802032" lon="-4.744524993002415">
        <ele>655.5</ele>
        <time>2003-04-16T08:02:07Z</time>
      </trkpt>
      <trkpt lat="30.701768025755882" lon="-4.744340004399419">
        <ele>656</ele>
        <time>2003-04-16T08:02:10Z</time>
      </trkpt>
      <trkpt lat="30.701531991362572" lon="-4.74329000338912">
        <ele>656</ele>
        <time>2003-04-16T08:02:21Z</time>
      </trkpt>
      <trkpt lat="30.701335016638041" lon="-4.742502020671964">
        <ele>657.29999999999995</ele>
        <time>2003-04-16T08:02:29Z</time>
      </trkpt>
      <trkpt lat="30.701171988621354" lon="-4.741392005234957">
        <ele>658.10000000000002</ele>
        <time>2003-04-16T08:02:40Z</time>
      </trkpt>
      <trkpt lat="30.701133012771606" lon="-4.741144990548492">
        <ele>657.5</ele>
        <time>2003-04-16T08:02:41Z</time>
      </trkpt>
      <trkpt lat="30.701060006394982" lon="-4.740893030539155">
        <ele>656.79999999999995</ele>
        <time>2003-04-16T08:02:44Z</time>
      </trkpt>
      <trkpt lat="30.700726993381977" lon="-4.739828025922179">
        <ele>654.39999999999998</ele>
        <time>2003-04-16T08:02:52Z</time>
      </trkpt>
      <trkpt lat="30.700657004490495" lon="-4.739736998453736">
        <ele>654.5</ele>
        <time>2003-04-16T08:02:53Z</time>
      </trkpt>
      <trkpt lat="30.700579974800348" lon="-4.739662986248732">
        <ele>653.89999999999998</ele>
        <time>2003-04-16T08:02:55Z</time>
      </trkpt>
      <trkpt lat="30.699943033978343" lon="-4.738984974101186">
        <ele>652.70000000000005</ele>
        <time>2003-04-16T08:03:03Z</time>
      </trkpt>
      <trkpt lat="30.699907997623086" lon="-4.738872991874814">
        <ele>652.89999999999998</ele>
        <time>2003-04-16T08:03:04Z</time>
      </trkpt>
      <trkpt lat="30.699827028438449" lon="-4.738662019371986">
        <ele>653.20000000000005</ele>
        <time>2003-04-16T08:03:05Z</time>
      </trkpt>
      <trkpt lat="30.699693001806736" lon="-4.738460015505552">
        <ele>653</ele>
        <time>2003-04-16T08:03:08Z</time>
      </trkpt>
      <trkpt lat="30.69927197881043" lon="-4.737860038876534">
        <ele>653.20000000000005</ele>
        <time>2003-04-16T08:03:14Z</time>
      </trkpt>
      <trkpt lat="30.699105011299253" lon="-4.737568013370037">
        <ele>653.29999999999995</ele>
        <time>2003-04-16T08:03:16Z</time>
      </trkpt>
      <trkpt lat="30.6989920232445" lon="-4.737361986190081">
        <ele>652.70000000000005</ele>
        <time>2003-04-16T08:03:19Z</time>
      </trkpt>
      <trkpt lat="30.698933014646173" lon="-4.737157970666885">
        <ele>653.89999999999998</ele>
        <time>2003-04-16T08:03:20Z</time>
      </trkpt>
      <trkpt lat="30.698878029361367" lon="-4.736852031201124">
        <ele>655</ele>
        <time>2003-04-16T08:03:23Z</time>
      </trkpt>
      <trkpt lat="30.698902001604438" lon="-4.736750023439527">
        <ele>655</ele>
        <time>2003-04-16T08:03:24Z</time>
      </trkpt>
      <trkpt lat="30.698999986052513" lon="-4.736224981024861">
        <ele>656.60000000000002</ele>
        <time>2003-04-16T08:03:30Z</time>
      </trkpt>
      <trkpt lat="30.698954975232482" lon="-4.736045021563768">
        <ele>656.70000000000005</ele>
        <time>2003-04-16T08:03:32Z</time>
      </trkpt>
      <trkpt lat="30.698860008269548" lon="-4.73587503656745">
        <ele>656.29999999999995</ele>
        <time>2003-04-16T08:03:34Z</time>
      </trkpt>
      <trkpt lat="30.698722964152694" lon="-4.735766993835568">
        <ele>655.79999999999995</ele>
        <time>2003-04-16T08:03:36Z</time>
      </trkpt>
      <trkpt lat="30.698488019406796" lon="-4.735558032989502">
        <ele>654.79999999999995</ele>
        <time>2003-04-16T08:03:39Z</time>
      </trkpt>
      <trkpt lat="30.698215020820498" lon="-4.735291991382837">
        <ele>653.60000000000002</ele>
        <time>2003-04-16T08:03:42Z</time>
      </trkpt>
      <trkpt lat="30.697502978146076" lon="-4.734620014205575">
        <ele>652</ele>
        <time>2003-04-16T08:03:50Z</time>
      </trkpt>
      <trkpt lat="30.696808034554124" lon="-4.733948037028313">
        <ele>650.39999999999998</ele>
        <time>2003-04-16T08:03:58Z</time>
      </trkpt>
      <trkpt lat="30.696737039834261" lon="-4.733860027045012">
        <ele>651.60000000000002</ele>
        <time>2003-04-16T08:03:58Z</time>
      </trkpt>
      <trkpt lat="30.6964570004493" lon="-4.733540005981922">
        <ele>651.10000000000002</ele>
        <time>2003-04-16T08:04:02Z</time>
      </trkpt>
      <trkpt lat="30.69622297771275" lon="-4.733315035700798">
        <ele>651.39999999999998</ele>
        <time>2003-04-16T08:04:06Z</time>
      </trkpt>
      <trkpt lat="30.696166986599565" lon="-4.733215039595962">
        <ele>651.39999999999998</ele>
        <time>2003-04-16T08:04:06Z</time>
      </trkpt>
      <trkpt lat="30.696021979674697" lon="-4.732893006876111">
        <ele>652.20000000000005</ele>
        <time>2003-04-16T08:04:09Z</time>
      </trkpt>
      <trkpt lat="30.695802960544825" lon="-4.732403000816703">
        <ele>653</ele>
        <time>2003-04-16T08:04:14Z</time>
      </trkpt>
      <trkpt lat="30.695625012740493" lon="-4.732151962816715">
        <ele>653.60000000000002</ele>
        <time>2003-04-16T08:04:17Z</time>
      </trkpt>
      <trkpt lat="30.695457961410284" lon="-4.731847029179335">
        <ele>653.39999999999998</ele>
        <time>2003-04-16T08:04:21Z</time>
      </trkpt>
      <trkpt lat="30.695413034409285" lon="-4.731624992564321">
        <ele>653.70000000000005</ele>
        <time>2003-04-16T08:04:22Z</time>
      </trkpt>
      <trkpt lat="30.695365006104112" lon="-4.731412008404732">
        <ele>654</ele>
        <time>2003-04-16T08:04:25Z</time>
      </trkpt>
      <trkpt lat="30.695241959765553" lon="-4.731187960132957">
        <ele>653.70000000000005</ele>
        <time>2003-04-16T08:04:26Z</time>
      </trkpt>
      <trkpt lat="30.694814985617995" lon="-4.730431996285915">
        <ele>652.79999999999995</ele>
        <time>2003-04-16T08:04:33Z</time>
      </trkpt>
      <trkpt lat="30.694417012855411" lon="-4.729745015501976">
        <ele>653.70000000000005</ele>
        <time>2003-04-16T08:04:39Z</time>
      </trkpt>
      <trkpt lat="30.694175027310848" lon="-4.729251991957426">
        <ele>653.89999999999998</ele>
        <time>2003-04-16T08:04:43Z</time>
      </trkpt>
      <trkpt lat="30.694121969863772" lon="-4.72913003526628">
        <ele>653.70000000000005</ele>
        <time>2003-04-16T08:04:44Z</time>
      </trkpt>
      <trkpt lat="30.693712010979652" lon="-4.728181958198547">
        <ele>655.10000000000002</ele>
        <time>2003-04-16T08:04:51Z</time>
      </trkpt>
      <trkpt lat="30.693376986309886" lon="-4.727439992129803">
        <ele>657.5</ele>
        <time>2003-04-16T08:04:56Z</time>
      </trkpt>
      <trkpt lat="30.692883040755987" lon="-4.726447993889451">
        <ele>659.5</ele>
        <time>2003-04-16T08:05:04Z</time>
      </trkpt>
      <trkpt lat="30.69265203550458" lon="-4.726027976721525">
        <ele>658.89999999999998</ele>
        <time>2003-04-16T08:05:08Z</time>
      </trkpt>
      <trkpt lat="30.692514991387725" lon="-4.725947007536888">
        <ele>658.70000000000005</ele>
        <time>2003-04-16T08:05:11Z</time>
      </trkpt>
      <trkpt lat="30.692324973642826" lon="-4.725923035293818">
        <ele>657.39999999999998</ele>
        <time>2003-04-16T08:05:12Z</time>
      </trkpt>
      <trkpt lat="30.692233024165034" lon="-4.725895039737225">
        <ele>656.20000000000005</ele>
        <time>2003-04-16T08:05:14Z</time>
      </trkpt>
      <trkpt lat="30.692079970613122" lon="-4.725765036419034">
        <ele>654.29999999999995</ele>
        <time>2003-04-16T08:05:15Z</time>
      </trkpt>
      <trkpt lat="30.69198701530695" lon="-4.725705021992326">
        <ele>652.70000000000005</ele>
        <time>2003-04-16T08:05:16Z</time>
      </trkpt>
      <trkpt lat="30.69173295982182" lon="-4.725578036159277">
        <ele>651.20000000000005</ele>
        <time>2003-04-16T08:05:19Z</time>
      </trkpt>
      <trkpt lat="30.691553000360727" lon="-4.725475022569299">
        <ele>650.39999999999998</ele>
        <time>2003-04-16T08:05:22Z</time>
      </trkpt>
      <trkpt lat="30.691191991791129" lon="-4.725170005112886">
        <ele>649.29999999999995</ele>
        <time>2003-04-16T08:05:26Z</time>
      </trkpt>
      <trkpt lat="30.69074297323823" lon="-4.724549995735288">
        <ele>648</ele>
        <time>2003-04-16T08:05:31Z</time>
      </trkpt>
      <trkpt lat="30.690707014873624" lon="-4.724431978538632">
        <ele>648</ele>
        <time>2003-04-16T08:05:33Z</time>
      </trkpt>
      <trkpt lat="30.690372996032238" lon="-4.723660005256534">
        <ele>649</ele>
        <time>2003-04-16T08:05:38Z</time>
      </trkpt>
      <trkpt lat="30.690182978287339" lon="-4.723269995301962">
        <ele>649.20000000000005</ele>
        <time>2003-04-16T08:05:42Z</time>
      </trkpt>
      <trkpt lat="30.690048029646277" lon="-4.72300797700882">
        <ele>649.29999999999995</ele>
        <time>2003-04-16T08:05:43Z</time>
      </trkpt>
      <trkpt lat="30.689857006072998" lon="-4.722595000639558">
        <ele>650.39999999999998</ele>
        <time>2003-04-16T08:05:46Z</time>
      </trkpt>
      <trkpt lat="30.689607979729772" lon="-4.72186996601522">
        <ele>650.79999999999995</ele>
        <time>2003-04-16T08:05:51Z</time>
      </trkpt>
      <trkpt lat="30.689477976411581" lon="-4.72135498188436">
        <ele>650.89999999999998</ele>
        <time>2003-04-16T08:05:56Z</time>
      </trkpt>
      <trkpt lat="30.689464984461665" lon="-4.721241993829608">
        <ele>651.10000000000002</ele>
        <time>2003-04-16T08:05:57Z</time>
      </trkpt>
      <trkpt lat="30.689449980854988" lon="-4.721057005226612">
        <ele>652.70000000000005</ele>
        <time>2003-04-16T08:05:58Z</time>
      </trkpt>
      <trkpt lat="30.689425002783537" lon="-4.72073002718389">
        <ele>655.70000000000005</ele>
        <time>2003-04-16T08:06:02Z</time>
      </trkpt>
      <trkpt lat="30.689446963369846" lon="-4.7206000238657">
        <ele>655.70000000000005</ele>
        <time>2003-04-16T08:06:05Z</time>
      </trkpt>
      <trkpt lat="30.689412010833621" lon="-4.72042802721262">
        <ele>654.5</ele>
        <time>2003-04-16T08:06:06Z</time>
      </trkpt>
      <trkpt lat="30.689315032213926" lon="-4.720282014459372">
        <ele>653.89999999999998</ele>
        <time>2003-04-16T08:06:09Z</time>
      </trkpt>
      <trkpt lat="30.689283013343811" lon="-4.72008696757257">
        <ele>652.89999999999998</ele>
        <time>2003-04-16T08:06:10Z</time>
      </trkpt>
      <trkpt lat="30.689234985038638" lon="-4.719877000898123">
        <ele>653.60000000000002</ele>
        <time>2003-04-16T08:06:13Z</time>
      </trkpt>
      <trkpt lat="30.68913197144866" lon="-4.719684971496463">
        <ele>653.39999999999998</ele>
        <time>2003-04-16T08:06:14Z</time>
      </trkpt>
      <trkpt lat="30.688970033079386" lon="-4.719337960705161">
        <ele>652.89999999999998</ele>
        <time>2003-04-16T08:06:18Z</time>
      </trkpt>
      <trkpt lat="30.688919993117452" lon="-4.719147020950913">
        <ele>650.89999999999998</ele>
        <time>2003-04-16T08:06:21Z</time>
      </trkpt>
      <trkpt lat="30.688891997560859" lon="-4.718984998762608">
        <ele>651.5</ele>
        <time>2003-04-16T08:06:23Z</time>
      </trkpt>
      <trkpt lat="30.688898032531142" lon="-4.718847032636404">
        <ele>652.10000000000002</ele>
        <time>2003-04-16T08:06:25Z</time>
      </trkpt>
      <trkpt lat="30.688974978402257" lon="-4.718636982142925">
        <ele>652.79999999999995</ele>
        <time>2003-04-16T08:06:28Z</time>
      </trkpt>
      <trkpt lat="30.689061982557178" lon="-4.718532040715218">
        <ele>652.70000000000005</ele>
        <time>2003-04-16T08:06:29Z</time>
      </trkpt>
      <trkpt lat="30.689113028347492" lon="-4.718394996598363">
        <ele>653.10000000000002</ele>
        <time>2003-04-16T08:06:32Z</time>
      </trkpt>
      <trkpt lat="30.689123002812266" lon="-4.718222999945283">
        <ele>653.70000000000005</ele>
        <time>2003-04-16T08:06:33Z</time>
      </trkpt>
      <trkpt lat="30.689098024740815" lon="-4.717986965551972">
        <ele>657.89999999999998</ele>
        <time>2003-04-16T08:06:36Z</time>
      </trkpt>
      <trkpt lat="30.68908997811377" lon="-4.717817986384034">
        <ele>659.89999999999998</ele>
        <time>2003-04-16T08:06:40Z</time>
      </trkpt>
      <trkpt lat="30.689057959243655" lon="-4.717695023864508">
        <ele>662.29999999999995</ele>
        <time>2003-04-16T08:09:05Z</time>
      </trkpt>
      <trkpt lat="30.688944971188903" lon="-4.717638026922941">
        <ele>662.29999999999995</ele>
        <time>2003-04-16T08:09:41Z</time>
      </trkpt>
      <trkpt lat="30.688934996724129" lon="-4.717752020806074">
        <ele>660.20000000000005</ele>
        <time>2003-04-16T08:09:48Z</time>
      </trkpt>
      <trkpt lat="30.688972966745496" lon="-4.717847993597388">
        <ele>649.60000000000002</ele>
        <time>2003-04-16T08:10:12Z</time>
      </trkpt>
      <trkpt lat="30.68900004029274" lon="-4.717952013015747">
        <ele>646.60000000000002</ele>
        <time>2003-04-16T08:10:19Z</time>
      </trkpt>
      <trkpt lat="30.689104981720448" lon="-4.718129960820079">
        <ele>640.39999999999998</ele>
        <time>2003-04-16T08:10:35Z</time>
      </trkpt>
      <trkpt lat="30.689116967841983" lon="-4.718255018815398">
        <ele>639.60000000000002</ele>
        <time>2003-04-16T08:10:42Z</time>
      </trkpt>
      <trkpt lat="30.689119985327125" lon="-4.718436989933252">
        <ele>637.29999999999995</ele>
        <time>2003-04-16T08:10:47Z</time>
      </trkpt>
      <trkpt lat="30.689074974507093" lon="-4.718598006293178">
        <ele>636</ele>
        <time>2003-04-16T08:10:50Z</time>
      </trkpt>
      <trkpt lat="30.689017977565527" lon="-4.718681992962956">
        <ele>637.10000000000002</ele>
        <time>2003-04-16T08:10:51Z</time>
      </trkpt>
      <trkpt lat="30.68893801420927" lon="-4.718821970745921">
        <ele>636.89999999999998</ele>
        <time>2003-04-16T08:10:55Z</time>
      </trkpt>
      <trkpt lat="30.68891798146069" lon="-4.718936970457435">
        <ele>637.89999999999998</ele>
        <time>2003-04-16T08:10:57Z</time>
      </trkpt>
      <trkpt lat="30.688902977854013" lon="-4.719072002917528">
        <ele>637.79999999999995</ele>
        <time>2003-04-16T08:10:58Z</time>
      </trkpt>
      <trkpt lat="30.68893801420927" lon="-4.719188008457422">
        <ele>638.20000000000005</ele>
        <time>2003-04-16T08:11:01Z</time>
      </trkpt>
      <trkpt lat="30.688986964523792" lon="-4.719323040917516">
        <ele>638.89999999999998</ele>
        <time>2003-04-16T08:11:02Z</time>
      </trkpt>
      <trkpt lat="30.689037004485726" lon="-4.719516998156905">
        <ele>639.79999999999995</ele>
        <time>2003-04-16T08:11:06Z</time>
      </trkpt>
      <trkpt lat="30.689197015017271" lon="-4.719832995906472">
        <ele>640.79999999999995</ele>
        <time>2003-04-16T08:11:11Z</time>
      </trkpt>
      <trkpt lat="30.689274966716766" lon="-4.71997800283134">
        <ele>640.70000000000005</ele>
        <time>2003-04-16T08:11:30Z</time>
      </trkpt>
      <trkpt lat="30.6893250066787" lon="-4.720142036676407">
        <ele>642.10000000000002</ele>
        <time>2003-04-16T08:12:30Z</time>
      </trkpt>
      <trkpt lat="30.689312014728785" lon="-4.720283020287752">
        <ele>642.70000000000005</ele>
        <time>2003-04-16T08:12:32Z</time>
      </trkpt>
      <trkpt lat="30.689230039715767" lon="-4.720383016392589">
        <ele>642.60000000000002</ele>
        <time>2003-04-16T08:12:35Z</time>
      </trkpt>
      <trkpt lat="30.689144963398576" lon="-4.720422998070717">
        <ele>642.5</ele>
        <time>2003-04-16T08:12:38Z</time>
      </trkpt>
      <trkpt lat="30.68904303945601" lon="-4.720446970313788">
        <ele>642.10000000000002</ele>
        <time>2003-04-16T08:12:39Z</time>
      </trkpt>
      <trkpt lat="30.68885201588273" lon="-4.720470020547509">
        <ele>640.39999999999998</ele>
        <time>2003-04-16T08:12:43Z</time>
      </trkpt>
      <trkpt lat="30.688241980969906" lon="-4.720498016104102">
        <ele>636.79999999999995</ele>
        <time>2003-04-16T08:12:58Z</time>
      </trkpt>
      <trkpt lat="30.688135027885437" lon="-4.720470020547509">
        <ele>636.89999999999998</ele>
        <time>2003-04-16T08:13:01Z</time>
      </trkpt>
      <trkpt lat="30.687772007659078" lon="-4.720358038321137">
        <ele>634.60000000000002</ele>
        <time>2003-04-16T08:13:10Z</time>
      </trkpt>
      <trkpt lat="30.68762700073421" lon="-4.720315039157867">
        <ele>634.20000000000005</ele>
        <time>2003-04-16T08:13:12Z</time>
      </trkpt>
      <trkpt lat="30.687473025172949" lon="-4.720292994752526">
        <ele>635.20000000000005</ele>
        <time>2003-04-16T08:13:13Z</time>
      </trkpt>
      <trkpt lat="30.687210001051426" lon="-4.720285031944513">
        <ele>636.79999999999995</ele>
        <time>2003-04-16T08:13:17Z</time>
      </trkpt>
      <trkpt lat="30.687092989683151" lon="-4.720406988635659">
        <ele>637</ele>
        <time>2003-04-16T08:13:20Z</time>
      </trkpt>
      <trkpt lat="30.686964998021722" lon="-4.72047203220427">
        <ele>636.79999999999995</ele>
        <time>2003-04-16T08:13:21Z</time>
      </trkpt>
      <trkpt lat="30.686846980825067" lon="-4.720413023605943">
        <ele>636.20000000000005</ele>
        <time>2003-04-16T08:13:24Z</time>
      </trkpt>
      <trkpt lat="30.686757965013385" lon="-4.72028000280261">
        <ele>635.70000000000005</ele>
        <time>2003-04-16T08:13:25Z</time>
      </trkpt>
      <trkpt lat="30.686614969745278" lon="-4.720197021961212">
        <ele>635.5</ele>
        <time>2003-04-16T08:13:28Z</time>
      </trkpt>
      <trkpt lat="30.686471974477172" lon="-4.720202973112464">
        <ele>636.20000000000005</ele>
        <time>2003-04-16T08:13:29Z</time>
      </trkpt>
      <trkpt lat="30.686335014179349" lon="-4.720202973112464">
        <ele>636.10000000000002</ele>
        <time>2003-04-16T08:13:32Z</time>
      </trkpt>
      <trkpt lat="30.686242980882525" lon="-4.720076993107796">
        <ele>635.79999999999995</ele>
        <time>2003-04-16T08:13:33Z</time>
      </trkpt>
      <trkpt lat="30.68614499643445" lon="-4.719931986182928">
        <ele>636.39999999999998</ele>
        <time>2003-04-16T08:13:37Z</time>
      </trkpt>
      <trkpt lat="30.686037037521601" lon="-4.71976300701499">
        <ele>636.20000000000005</ele>
        <time>2003-04-16T08:13:39Z</time>
      </trkpt>
      <trkpt lat="30.685892030596733" lon="-4.719650018960238">
        <ele>636.89999999999998</ele>
        <time>2003-04-16T08:13:40Z</time>
      </trkpt>
      <trkpt lat="30.685751968994737" lon="-4.719541976228356">
        <ele>636.5</ele>
        <time>2003-04-16T08:13:41Z</time>
      </trkpt>
      <trkpt lat="30.685575027018785" lon="-4.719397975131869">
        <ele>636.10000000000002</ele>
        <time>2003-04-16T08:13:45Z</time>
      </trkpt>
      <trkpt lat="30.685345027595758" lon="-4.719230001792312">
        <ele>636.29999999999995</ele>
        <time>2003-04-16T08:13:48Z</time>
      </trkpt>
      <trkpt lat="30.685188034549356" lon="-4.719022968783975">
        <ele>635.70000000000005</ele>
        <time>2003-04-16T08:13:52Z</time>
      </trkpt>
      <trkpt lat="30.685042021796107" lon="-4.718934958800674">
        <ele>636</ele>
        <time>2003-04-16T08:13:53Z</time>
      </trkpt>
      <trkpt lat="30.684942025691271" lon="-4.718847032636404">
        <ele>636</ele>
        <time>2003-04-16T08:13:56Z</time>
      </trkpt>
      <trkpt lat="30.68487798795104" lon="-4.718752987682819">
        <ele>635.39999999999998</ele>
        <time>2003-04-16T08:13:57Z</time>
      </trkpt>
      <trkpt lat="30.684817973524332" lon="-4.718660032376647">
        <ele>636.10000000000002</ele>
        <time>2003-04-16T08:14:02Z</time>
      </trkpt>
      <trkpt lat="30.684691993519664" lon="-4.718494992703199">
        <ele>637.60000000000002</ele>
        <time>2003-04-16T08:14:38Z</time>
      </trkpt>
      <trkpt lat="30.684535000473261" lon="-4.718334982171655">
        <ele>637.60000000000002</ele>
        <time>2003-04-16T08:14:42Z</time>
      </trkpt>
      <trkpt lat="30.684417989104986" lon="-4.71825803630054">
        <ele>637.60000000000002</ele>
        <time>2003-04-16T08:14:43Z</time>
      </trkpt>
      <trkpt lat="30.684332996606827" lon="-4.718191986903548">
        <ele>637.60000000000002</ele>
        <time>2003-04-16T08:14:46Z</time>
      </trkpt>
      <trkpt lat="30.684271976351738" lon="-4.718100037425757">
        <ele>637.20000000000005</ele>
        <time>2003-04-16T08:14:47Z</time>
      </trkpt>
      <trkpt lat="30.68421296775341" lon="-4.717991994693875">
        <ele>637.10000000000002</ele>
        <time>2003-04-16T08:14:50Z</time>
      </trkpt>
      <trkpt lat="30.684165023267269" lon="-4.717835001647472">
        <ele>637.89999999999998</ele>
        <time>2003-04-16T08:14:54Z</time>
      </trkpt>
      <trkpt lat="30.683977017179132" lon="-4.717371985316277">
        <ele>640.39999999999998</ele>
        <time>2003-04-16T08:15:01Z</time>
      </trkpt>
      <trkpt lat="30.683896970003843" lon="-4.717178028076887">
        <ele>640.79999999999995</ele>
        <time>2003-04-16T08:15:05Z</time>
      </trkpt>
      <trkpt lat="30.683841984719038" lon="-4.717073002830148">
        <ele>641.20000000000005</ele>
        <time>2003-04-16T08:15:06Z</time>
      </trkpt>
      <trkpt lat="30.683718016371131" lon="-4.717003013938665">
        <ele>641.5</ele>
        <time>2003-04-16T08:15:09Z</time>
      </trkpt>
      <trkpt lat="30.683520035818219" lon="-4.716888014227152">
        <ele>641.29999999999995</ele>
        <time>2003-04-16T08:15:12Z</time>
      </trkpt>
      <trkpt lat="30.683411993086338" lon="-4.716796986758709">
        <ele>640.89999999999998</ele>
        <time>2003-04-16T08:15:13Z</time>
      </trkpt>
      <trkpt lat="30.683288024738431" lon="-4.716728003695607">
        <ele>641</ele>
        <time>2003-04-16T08:15:16Z</time>
      </trkpt>
      <trkpt lat="30.68313698284328" lon="-4.716743007302284">
        <ele>641</ele>
        <time>2003-04-16T08:15:17Z</time>
      </trkpt>
      <trkpt lat="30.682919975370169" lon="-4.716751975938678">
        <ele>640.70000000000005</ele>
        <time>2003-04-16T08:15:21Z</time>
      </trkpt>
      <trkpt lat="30.682529965415597" lon="-4.716779971495271">
        <ele>638.10000000000002</ele>
        <time>2003-04-16T08:15:27Z</time>
      </trkpt>
      <trkpt lat="30.682393005117774" lon="-4.716851972043514">
        <ele>636.79999999999995</ele>
        <time>2003-04-16T08:15:29Z</time>
      </trkpt>
      <trkpt lat="30.682313041761518" lon="-4.716952973976731">
        <ele>637.29999999999995</ele>
        <time>2003-04-16T08:15:32Z</time>
      </trkpt>
      <trkpt lat="30.682212961837649" lon="-4.717009970918298">
        <ele>637.5</ele>
        <time>2003-04-16T08:15:33Z</time>
      </trkpt>
      <trkpt lat="30.682086981832981" lon="-4.71699002198875">
        <ele>637.39999999999998</ele>
        <time>2003-04-16T08:15:36Z</time>
      </trkpt>
      <trkpt lat="30.681967036798596" lon="-4.716954985633493">
        <ele>637.60000000000002</ele>
        <time>2003-04-16T08:15:37Z</time>
      </trkpt>
      <trkpt lat="30.681850025430322" lon="-4.716882985085249">
        <ele>637.29999999999995</ele>
        <time>2003-04-16T08:15:40Z</time>
      </trkpt>
      <trkpt lat="30.681717004626989" lon="-4.716751975938678">
        <ele>636.70000000000005</ele>
        <time>2003-04-16T08:15:43Z</time>
      </trkpt>
      <trkpt lat="30.681692026555538" lon="-4.716592971235514">
        <ele>636.5</ele>
        <time>2003-04-16T08:15:44Z</time>
      </trkpt>
      <trkpt lat="30.681656990200281" lon="-4.716309998184443">
        <ele>637.29999999999995</ele>
        <time>2003-04-16T08:15:48Z</time>
      </trkpt>
      <trkpt lat="30.681587001308799" lon="-4.716122997924686">
        <ele>638.29999999999995</ele>
        <time>2003-04-16T08:15:52Z</time>
      </trkpt>
      <trkpt lat="30.681535033509135" lon="-4.715944966301322">
        <ele>639</ele>
        <time>2003-04-16T08:15:55Z</time>
      </trkpt>
      <trkpt lat="30.681515000760555" lon="-4.715823009610176">
        <ele>639.39999999999998</ele>
        <time>2003-04-16T08:15:56Z</time>
      </trkpt>
      <trkpt lat="30.681469989940524" lon="-4.715727036818862">
        <ele>639.89999999999998</ele>
        <time>2003-04-16T08:15:59Z</time>
      </trkpt>
      <trkpt lat="30.681366976350546" lon="-4.715722007676959">
        <ele>640</ele>
        <time>2003-04-16T08:16:00Z</time>
      </trkpt>
      <trkpt lat="30.681277038529515" lon="-4.715662999078631">
        <ele>639.39999999999998</ele>
        <time>2003-04-16T08:16:04Z</time>
      </trkpt>
      <trkpt lat="30.681188022717834" lon="-4.715578006580472">
        <ele>639.10000000000002</ele>
        <time>2003-04-16T08:16:07Z</time>
      </trkpt>
      <trkpt lat="30.681115016341209" lon="-4.715516986325383">
        <ele>639</ele>
        <time>2003-04-16T08:16:11Z</time>
      </trkpt>
      <trkpt lat="30.680964980274439" lon="-4.715372985228896">
        <ele>643.79999999999995</ele>
        <time>2003-04-16T08:20:51Z</time>
      </trkpt>
      <trkpt lat="30.680806981399655" lon="-4.715254968032241">
        <ele>642.39999999999998</ele>
        <time>2003-04-16T08:20:55Z</time>
      </trkpt>
      <trkpt lat="30.680698016658425" lon="-4.715184979140759">
        <ele>640.60000000000002</ele>
        <time>2003-04-16T08:20:57Z</time>
      </trkpt>
      <trkpt lat="30.680613024160266" lon="-4.715111972764134">
        <ele>639.89999999999998</ele>
        <time>2003-04-16T08:21:00Z</time>
      </trkpt>
      <trkpt lat="30.6805370002985" lon="-4.714977024123073">
        <ele>640.89999999999998</ele>
        <time>2003-04-16T08:21:03Z</time>
      </trkpt>
      <trkpt lat="30.680440021678805" lon="-4.714858001098037">
        <ele>640.10000000000002</ele>
        <time>2003-04-16T08:21:04Z</time>
      </trkpt>
      <trkpt lat="30.680352011695504" lon="-4.714726991951466">
        <ele>639.79999999999995</ele>
        <time>2003-04-16T08:21:08Z</time>
      </trkpt>
      <trkpt lat="30.680270036682487" lon="-4.714622972533107">
        <ele>639.79999999999995</ele>
        <time>2003-04-16T08:21:11Z</time>
      </trkpt>
      <trkpt lat="30.680207004770637" lon="-4.714476959779859">
        <ele>640.20000000000005</ele>
        <time>2003-04-16T08:21:15Z</time>
      </trkpt>
      <trkpt lat="30.680123018100858" lon="-4.714375035837293">
        <ele>640.5</ele>
        <time>2003-04-16T08:21:18Z</time>
      </trkpt>
      <trkpt lat="30.680098040029407" lon="-4.714261963963509">
        <ele>640.70000000000005</ele>
        <time>2003-04-16T08:21:20Z</time>
      </trkpt>
      <trkpt lat="30.680099967867136" lon="-4.714143024757505">
        <ele>641.39999999999998</ele>
        <time>2003-04-16T08:21:23Z</time>
      </trkpt>
      <trkpt lat="30.680112959817052" lon="-4.714022995904088">
        <ele>642.39999999999998</ele>
        <time>2003-04-16T08:21:27Z</time>
      </trkpt>
      <trkpt lat="30.680108014494181" lon="-4.713882012292743">
        <ele>642.89999999999998</ele>
        <time>2003-04-16T08:21:30Z</time>
      </trkpt>
      <trkpt lat="30.680092005059123" lon="-4.713617982342839">
        <ele>644.89999999999998</ele>
        <time>2003-04-16T08:21:35Z</time>
      </trkpt>
      <trkpt lat="30.680035008117557" lon="-4.713283041492105">
        <ele>646.5</ele>
        <time>2003-04-16T08:21:42Z</time>
      </trkpt>
      <trkpt lat="30.679983040317893" lon="-4.713195031508803">
        <ele>646.60000000000002</ele>
        <time>2003-04-16T08:21:43Z</time>
      </trkpt>
      <trkpt lat="30.679907016456127" lon="-4.713137028738856">
        <ele>647</ele>
        <time>2003-04-16T08:21:46Z</time>
      </trkpt>
      <trkpt lat="30.67982797510922" lon="-4.713069973513484">
        <ele>646.70000000000005</ele>
        <time>2003-04-16T08:21:47Z</time>
      </trkpt>
      <trkpt lat="30.679711969569325" lon="-4.712942987680435">
        <ele>646.10000000000002</ele>
        <time>2003-04-16T08:21:50Z</time>
      </trkpt>
      <trkpt lat="30.679609961807728" lon="-4.712832011282444">
        <ele>644.60000000000002</ele>
        <time>2003-04-16T08:21:54Z</time>
      </trkpt>
      <trkpt lat="30.679448023438454" lon="-4.712742995470762">
        <ele>643.29999999999995</ele>
        <time>2003-04-16T08:21:58Z</time>
      </trkpt>
      <trkpt lat="30.67929002456367" lon="-4.712709970772266">
        <ele>639</ele>
        <time>2003-04-16T08:22:18Z</time>
      </trkpt>
      <trkpt lat="30.679130014032125" lon="-4.712662026286125">
        <ele>638</ele>
        <time>2003-04-16T08:22:21Z</time>
      </trkpt>
      <trkpt lat="30.679015014320612" lon="-4.712596982717514">
        <ele>638</ele>
        <time>2003-04-16T08:22:24Z</time>
      </trkpt>
      <trkpt lat="30.678725000470877" lon="-4.712400007992983">
        <ele>637.20000000000005</ele>
        <time>2003-04-16T08:22:29Z</time>
      </trkpt>
      <trkpt lat="30.678610000759363" lon="-4.712290037423372">
        <ele>637.79999999999995</ele>
        <time>2003-04-16T08:22:32Z</time>
      </trkpt>
      <trkpt lat="30.678461976349354" lon="-4.712142013013363">
        <ele>637.20000000000005</ele>
        <time>2003-04-16T08:22:35Z</time>
      </trkpt>
      <trkpt lat="30.678027961403131" lon="-4.711734987795353">
        <ele>637.5</ele>
        <time>2003-04-16T08:22:43Z</time>
      </trkpt>
      <trkpt lat="30.67793701775372" lon="-4.711638009175658">
        <ele>637.79999999999995</ele>
        <time>2003-04-16T08:22:44Z</time>
      </trkpt>
      <trkpt lat="30.677852025255561" lon="-4.711499959230423">
        <ele>637.79999999999995</ele>
        <time>2003-04-16T08:22:48Z</time>
      </trkpt>
      <trkpt lat="30.677811959758401" lon="-4.711387977004051">
        <ele>638</ele>
        <time>2003-04-16T08:22:49Z</time>
      </trkpt>
      <trkpt lat="30.677757980301976" lon="-4.711292004212737">
        <ele>638.79999999999995</ele>
        <time>2003-04-16T08:22:52Z</time>
      </trkpt>
      <trkpt lat="30.677633006125689" lon="-4.71114699728787">
        <ele>639.29999999999995</ele>
        <time>2003-04-16T08:22:55Z</time>
      </trkpt>
      <trkpt lat="30.677475007250905" lon="-4.710957985371351">
        <ele>638.39999999999998</ele>
        <time>2003-04-16T08:22:59Z</time>
      </trkpt>
      <trkpt lat="30.677435025572777" lon="-4.710852960124612">
        <ele>638.60000000000002</ele>
        <time>2003-04-16T08:23:03Z</time>
      </trkpt>
      <trkpt lat="30.677360007539392" lon="-4.710735026746988">
        <ele>639.29999999999995</ele>
        <time>2003-04-16T08:23:06Z</time>
      </trkpt>
      <trkpt lat="30.677203014492989" lon="-4.710541991516948">
        <ele>640.89999999999998</ele>
        <time>2003-04-16T08:23:22Z</time>
      </trkpt>
      <trkpt lat="30.67712003365159" lon="-4.710475020110607">
        <ele>641.10000000000002</ele>
        <time>2003-04-16T08:23:23Z</time>
      </trkpt>
      <trkpt lat="30.67688500508666" lon="-4.71026698127389">
        <ele>641.79999999999995</ele>
        <time>2003-04-16T08:23:29Z</time>
      </trkpt>
      <trkpt lat="30.676790038123727" lon="-4.710177965462208">
        <ele>641.60000000000002</ele>
        <time>2003-04-16T08:23:31Z</time>
      </trkpt>
      <trkpt lat="30.676696998998523" lon="-4.710066989064217">
        <ele>641.70000000000005</ele>
        <time>2003-04-16T08:23:33Z</time>
      </trkpt>
      <trkpt lat="30.676600020378828" lon="-4.709983002394438">
        <ele>641.5</ele>
        <time>2003-04-16T08:23:34Z</time>
      </trkpt>
      <trkpt lat="30.676468005403876" lon="-4.709873031824827">
        <ele>641.29999999999995</ele>
        <time>2003-04-16T08:23:38Z</time>
      </trkpt>
      <trkpt lat="30.67636800929904" lon="-4.709802959114313">
        <ele>641.70000000000005</ele>
        <time>2003-04-16T08:23:39Z</time>
      </trkpt>
      <trkpt lat="30.676258038729429" lon="-4.709716960787773">
        <ele>641.60000000000002</ele>
        <time>2003-04-16T08:23:42Z</time>
      </trkpt>
      <trkpt lat="30.676177991554141" lon="-4.709661975502968">
        <ele>641.39999999999998</ele>
        <time>2003-04-16T08:23:43Z</time>
      </trkpt>
      <trkpt lat="30.676027033478022" lon="-4.709534989669919">
        <ele>641.29999999999995</ele>
        <time>2003-04-16T08:23:54Z</time>
      </trkpt>
      <trkpt lat="30.675859982147813" lon="-4.709376990795136">
        <ele>641.89999999999998</ele>
        <time>2003-04-16T08:23:57Z</time>
      </trkpt>
      <trkpt lat="30.675782030448318" lon="-4.709310019388795">
        <ele>641.70000000000005</ele>
        <time>2003-04-16T08:23:58Z</time>
      </trkpt>
      <trkpt lat="30.675605004653335" lon="-4.709178004413843">
        <ele>641.29999999999995</ele>
        <time>2003-04-16T08:24:00Z</time>
      </trkpt>
      <trkpt lat="30.675396965816617" lon="-4.709026962518692">
        <ele>641.39999999999998</ele>
        <time>2003-04-16T08:24:02Z</time>
      </trkpt>
      <trkpt lat="30.675211977213621" lon="-4.708916991949081">
        <ele>641.20000000000005</ele>
        <time>2003-04-16T08:24:05Z</time>
      </trkpt>
      <trkpt lat="30.675066970288754" lon="-4.708893019706011">
        <ele>640.89999999999998</ele>
        <time>2003-04-16T08:24:08Z</time>
      </trkpt>
      <trkpt lat="30.674920035526156" lon="-4.708887990564108">
        <ele>640.79999999999995</ele>
        <time>2003-04-16T08:24:09Z</time>
      </trkpt>
      <trkpt lat="30.674662040546536" lon="-4.708905005827546">
        <ele>640.5</ele>
        <time>2003-04-16T08:24:13Z</time>
      </trkpt>
      <trkpt lat="30.674515021964908" lon="-4.70897801220417">
        <ele>640.29999999999995</ele>
        <time>2003-04-16T08:24:16Z</time>
      </trkpt>
      <trkpt lat="30.674288040027022" lon="-4.709065016359091">
        <ele>640</ele>
        <time>2003-04-16T08:24:18Z</time>
      </trkpt>
      <trkpt lat="30.674146972596645" lon="-4.709038026630878">
        <ele>639.39999999999998</ele>
        <time>2003-04-16T08:24:21Z</time>
      </trkpt>
      <trkpt lat="30.673987967893481" lon="-4.709099968895316">
        <ele>638.29999999999995</ele>
        <time>2003-04-16T08:24:23Z</time>
      </trkpt>
      <trkpt lat="30.673801973462105" lon="-4.70917004160583">
        <ele>637.79999999999995</ele>
        <time>2003-04-16T08:24:25Z</time>
      </trkpt>
      <trkpt lat="30.673635005950928" lon="-4.709159983322024">
        <ele>637.10000000000002</ele>
        <time>2003-04-16T08:24:27Z</time>
      </trkpt>
      <trkpt lat="30.673501985147595" lon="-4.709065016359091">
        <ele>635.60000000000002</ele>
        <time>2003-04-16T08:24:29Z</time>
      </trkpt>
      <trkpt lat="30.673352032899857" lon="-4.708899976685643">
        <ele>634.5</ele>
        <time>2003-04-16T08:24:31Z</time>
      </trkpt>
      <trkpt lat="30.673212977126241" lon="-4.708705013617873">
        <ele>635.10000000000002</ele>
        <time>2003-04-16T08:24:32Z</time>
      </trkpt>
      <trkpt lat="30.673075011000037" lon="-4.708448024466634">
        <ele>635.5</ele>
        <time>2003-04-16T08:24:36Z</time>
      </trkpt>
      <trkpt lat="30.673027988523245" lon="-4.708302011713386">
        <ele>636.29999999999995</ele>
        <time>2003-04-16T08:24:37Z</time>
      </trkpt>
      <trkpt lat="30.672962022945285" lon="-4.708106964826584">
        <ele>637.60000000000002</ele>
        <time>2003-04-16T08:24:40Z</time>
      </trkpt>
      <trkpt lat="30.672841994091868" lon="-4.707762971520424">
        <ele>639.60000000000002</ele>
        <time>2003-04-16T08:24:44Z</time>
      </trkpt>
      <trkpt lat="30.672475034371018" lon="-4.706707019358873">
        <ele>642.39999999999998</ele>
        <time>2003-04-16T08:24:52Z</time>
      </trkpt>
      <trkpt lat="30.672247968614101" lon="-4.705864973366261">
        <ele>644.39999999999998</ele>
        <time>2003-04-16T08:24:59Z</time>
      </trkpt>
      <trkpt lat="30.672142021358013" lon="-4.705336997285485">
        <ele>645.20000000000005</ele>
        <time>2003-04-16T08:25:03Z</time>
      </trkpt>
      <trkpt lat="30.671859970316291" lon="-4.704320020973682">
        <ele>647.79999999999995</ele>
        <time>2003-04-16T08:25:11Z</time>
      </trkpt>
      <trkpt lat="30.671613039448857" lon="-4.703236995264888">
        <ele>649.79999999999995</ele>
        <time>2003-04-16T08:25:19Z</time>
      </trkpt>
      <trkpt lat="30.67149200476706" lon="-4.702592007815838">
        <ele>650.5</ele>
        <time>2003-04-16T08:25:23Z</time>
      </trkpt>
      <trkpt lat="30.671346997842193" lon="-4.701918018981814">
        <ele>651.39999999999998</ele>
        <time>2003-04-16T08:25:29Z</time>
      </trkpt>
      <trkpt lat="30.671138036996126" lon="-4.700872041285038">
        <ele>652.10000000000002</ele>
        <time>2003-04-16T08:25:37Z</time>
      </trkpt>
      <trkpt lat="30.670945001766086" lon="-4.699745010584593">
        <ele>653.20000000000005</ele>
        <time>2003-04-16T08:25:44Z</time>
      </trkpt>
      <trkpt lat="30.670699998736382" lon="-4.698706995695829">
        <ele>653.20000000000005</ele>
        <time>2003-04-16T08:25:50Z</time>
      </trkpt>
      <trkpt lat="30.670418031513691" lon="-4.697666969150305">
        <ele>652.60000000000002</ele>
        <time>2003-04-16T08:25:57Z</time>
      </trkpt>
      <trkpt lat="30.670172022655606" lon="-4.69677203334868">
        <ele>651.89999999999998</ele>
        <time>2003-04-16T08:26:04Z</time>
      </trkpt>
      <trkpt lat="30.670109996572137" lon="-4.696483025327325">
        <ele>652.60000000000002</ele>
        <time>2003-04-16T08:26:05Z</time>
      </trkpt>
      <trkpt lat="30.670106979086995" lon="-4.696350004523993">
        <ele>652.60000000000002</ele>
        <time>2003-04-16T08:26:06Z</time>
      </trkpt>
      <trkpt lat="30.67007303237915" lon="-4.695995030924678">
        <ele>652.70000000000005</ele>
        <time>2003-04-16T08:26:09Z</time>
      </trkpt>
      <trkpt lat="30.670036990195513" lon="-4.695690013468266">
        <ele>652.39999999999998</ele>
        <time>2003-04-16T08:26:13Z</time>
      </trkpt>
      <trkpt lat="30.670017963275313" lon="-4.69552799127996">
        <ele>654.20000000000005</ele>
        <time>2003-04-16T08:26:15Z</time>
      </trkpt>
      <trkpt lat="30.669998014345765" lon="-4.695409974083304">
        <ele>654.10000000000002</ele>
        <time>2003-04-16T08:26:16Z</time>
      </trkpt>
      <trkpt lat="30.66994302906096" lon="-4.695230014622212">
        <ele>653.39999999999998</ele>
        <time>2003-04-16T08:26:20Z</time>
      </trkpt>
      <trkpt lat="30.66994302906096" lon="-4.694998003542423">
        <ele>654.70000000000005</ele>
        <time>2003-04-16T08:26:23Z</time>
      </trkpt>
      <trkpt lat="30.669972030445933" lon="-4.694598019123077">
        <ele>655.79999999999995</ele>
        <time>2003-04-16T08:26:28Z</time>
      </trkpt>
      <trkpt lat="30.669925007969141" lon="-4.694489976391196">
        <ele>655.5</ele>
        <time>2003-04-16T08:26:31Z</time>
      </trkpt>
      <trkpt lat="30.66990002989769" lon="-4.694387968629599">
        <ele>655.29999999999995</ele>
        <time>2003-04-16T08:26:32Z</time>
      </trkpt>
      <trkpt lat="30.66985703073442" lon="-4.694012962281704">
        <ele>656</ele>
        <time>2003-04-16T08:26:39Z</time>
      </trkpt>
      <trkpt lat="30.66981696523726" lon="-4.693844988942146">
        <ele>654.70000000000005</ele>
        <time>2003-04-16T08:26:40Z</time>
      </trkpt>
      <trkpt lat="30.669780001044273" lon="-4.69361700117588">
        <ele>653.60000000000002</ele>
        <time>2003-04-16T08:26:43Z</time>
      </trkpt>
      <trkpt lat="30.669747982174158" lon="-4.693388007581234">
        <ele>653.70000000000005</ele>
        <time>2003-04-16T08:26:47Z</time>
      </trkpt>
      <trkpt lat="30.669689979404211" lon="-4.693194972351193">
        <ele>654.60000000000002</ele>
        <time>2003-04-16T08:26:50Z</time>
      </trkpt>
      <trkpt lat="30.669598029926419" lon="-4.692903030663729">
        <ele>654.79999999999995</ele>
        <time>2003-04-16T08:26:54Z</time>
      </trkpt>
      <trkpt lat="30.669544972479343" lon="-4.692487036809325">
        <ele>655.29999999999995</ele>
        <time>2003-04-16T08:26:59Z</time>
      </trkpt>
      <trkpt lat="30.66953700967133" lon="-4.691735012456775">
        <ele>656</ele>
        <time>2003-04-16T08:27:07Z</time>
      </trkpt>
      <trkpt lat="30.669538015499711" lon="-4.691616995260119">
        <ele>656.39999999999998</ele>
        <time>2003-04-16T08:27:10Z</time>
      </trkpt>
      <trkpt lat="30.669444976374507" lon="-4.691520016640425">
        <ele>655.39999999999998</ele>
        <time>2003-04-16T08:27:14Z</time>
      </trkpt>
      <trkpt lat="30.669376999139786" lon="-4.691414991393685">
        <ele>654.5</ele>
        <time>2003-04-16T08:27:17Z</time>
      </trkpt>
      <trkpt lat="30.669404994696379" lon="-4.691309966146946">
        <ele>654.10000000000002</ele>
        <time>2003-04-16T08:27:18Z</time>
      </trkpt>
      <trkpt lat="30.669417986646295" lon="-4.691172000020742">
        <ele>654.29999999999995</ele>
        <time>2003-04-16T08:27:22Z</time>
      </trkpt>
      <trkpt lat="30.669422009959817" lon="-4.690948035567999">
        <ele>655</ele>
        <time>2003-04-16T08:27:27Z</time>
      </trkpt>
      <trkpt lat="30.669525023549795" lon="-4.690762041136622">
        <ele>659.39999999999998</ele>
        <time>2003-04-16T08:29:06Z</time>
      </trkpt>
      <trkpt lat="30.669613033533096" lon="-4.690660033375025">
        <ele>651.89999999999998</ele>
        <time>2003-04-16T08:29:09Z</time>
      </trkpt>
      <trkpt lat="30.669659972190857" lon="-4.690555008128285">
        <ele>652.20000000000005</ele>
        <time>2003-04-16T08:29:10Z</time>
      </trkpt>
      <trkpt lat="30.669668018817902" lon="-4.690422993153334">
        <ele>653.60000000000002</ele>
        <time>2003-04-16T08:29:13Z</time>
      </trkpt>
      <trkpt lat="30.669657960534096" lon="-4.690240016207099">
        <ele>655.60000000000002</ele>
        <time>2003-04-16T08:29:14Z</time>
      </trkpt>
      <trkpt lat="30.669619990512729" lon="-4.690055027604103">
        <ele>657</ele>
        <time>2003-04-16T08:29:17Z</time>
      </trkpt>
      <trkpt lat="30.66951697692275" lon="-4.689584970474243">
        <ele>657.79999999999995</ele>
        <time>2003-04-16T08:29:22Z</time>
      </trkpt>
      <trkpt lat="30.669487975537777" lon="-4.688718030229211">
        <ele>658.79999999999995</ele>
        <time>2003-04-16T08:29:30Z</time>
      </trkpt>
      <trkpt lat="30.669476995244622" lon="-4.687986960634589">
        <ele>659.60000000000002</ele>
        <time>2003-04-16T08:29:37Z</time>
      </trkpt>
      <trkpt lat="30.669471966102719" lon="-4.687782023102045">
        <ele>659.79999999999995</ele>
        <time>2003-04-16T08:29:40Z</time>
      </trkpt>
      <trkpt lat="30.669461991637945" lon="-4.687584964558482">
        <ele>660</ele>
        <time>2003-04-16T08:29:41Z</time>
      </trkpt>
      <trkpt lat="30.669369958341122" lon="-4.687120020389557">
        <ele>660.20000000000005</ele>
        <time>2003-04-16T08:29:47Z</time>
      </trkpt>
      <trkpt lat="30.66927800886333" lon="-4.686902007088065">
        <ele>660.60000000000002</ele>
        <time>2003-04-16T08:29:49Z</time>
      </trkpt>
      <trkpt lat="30.669101988896728" lon="-4.686542004346848">
        <ele>660.89999999999998</ele>
        <time>2003-04-16T08:29:55Z</time>
      </trkpt>
      <trkpt lat="30.669032000005245" lon="-4.686392974108458">
        <ele>661.39999999999998</ele>
        <time>2003-04-16T08:29:56Z</time>
      </trkpt>
      <trkpt lat="30.668967962265015" lon="-4.686291972175241">
        <ele>661.79999999999995</ele>
        <time>2003-04-16T08:29:59Z</time>
      </trkpt>
      <trkpt lat="30.668923035264015" lon="-4.686192981898785">
        <ele>661.79999999999995</ele>
        <time>2003-04-16T08:30:00Z</time>
      </trkpt>
      <trkpt lat="30.668869977816939" lon="-4.686107989400625">
        <ele>661.89999999999998</ele>
        <time>2003-04-16T08:30:03Z</time>
      </trkpt>
      <trkpt lat="30.66876201890409" lon="-4.686034983024001">
        <ele>661.70000000000005</ele>
        <time>2003-04-16T08:30:04Z</time>
      </trkpt>
      <trkpt lat="30.668566972017288" lon="-4.685891987755895">
        <ele>661.70000000000005</ele>
        <time>2003-04-16T08:30:09Z</time>
      </trkpt>
      <trkpt lat="30.668507041409612" lon="-4.685798026621342">
        <ele>661.60000000000002</ele>
        <time>2003-04-16T08:30:12Z</time>
      </trkpt>
      <trkpt lat="30.668457001447678" lon="-4.685695013031364">
        <ele>661.5</ele>
        <time>2003-04-16T08:30:15Z</time>
      </trkpt>
      <trkpt lat="30.668366979807615" lon="-4.685578001663089">
        <ele>661.29999999999995</ele>
        <time>2003-04-16T08:30:19Z</time>
      </trkpt>
      <trkpt lat="30.668530007824302" lon="-4.685723008587956">
        <ele>665.5</ele>
        <time>2003-04-16T10:26:33Z</time>
      </trkpt>
      <trkpt lat="30.6686129886657" lon="-4.685808001086116">
        <ele>663.20000000000005</ele>
        <time>2003-04-16T10:26:38Z</time>
      </trkpt>
      <trkpt lat="30.668594967573881" lon="-4.685913026332855">
        <ele>662.79999999999995</ele>
        <time>2003-04-16T10:26:42Z</time>
      </trkpt>
      <trkpt lat="30.668722959235311" lon="-4.685964994132519">
        <ele>668.39999999999998</ele>
        <time>2003-04-16T10:28:25Z</time>
      </trkpt>
      <trkpt lat="30.668809963390231" lon="-4.686021991074085">
        <ele>668.60000000000002</ele>
        <time>2003-04-16T10:28:30Z</time>
      </trkpt>
      <trkpt lat="30.668908031657338" lon="-4.685931969434023">
        <ele>668.5</ele>
        <time>2003-04-16T10:28:35Z</time>
      </trkpt>
      <trkpt lat="30.668944995850325" lon="-4.685821998864412">
        <ele>668.29999999999995</ele>
        <time>2003-04-16T10:28:37Z</time>
      </trkpt>
      <trkpt lat="30.668997969478369" lon="-4.68562301248312">
        <ele>668.29999999999995</ele>
        <time>2003-04-16T10:28:40Z</time>
      </trkpt>
      <trkpt lat="30.669007021933794" lon="-4.685455039143562">
        <ele>668.70000000000005</ele>
        <time>2003-04-16T10:28:41Z</time>
      </trkpt>
      <trkpt lat="30.668963016942143" lon="-4.685126971453428">
        <ele>669.20000000000005</ele>
        <time>2003-04-16T10:28:45Z</time>
      </trkpt>
      <trkpt lat="30.668908031657338" lon="-4.684651969000697">
        <ele>669.70000000000005</ele>
        <time>2003-04-16T10:28:51Z</time>
      </trkpt>
      <trkpt lat="30.668899985030293" lon="-4.684298001229763">
        <ele>669.89999999999998</ele>
        <time>2003-04-16T10:28:55Z</time>
      </trkpt>
      <trkpt lat="30.668941978365183" lon="-4.684106977656484">
        <ele>669.70000000000005</ele>
        <time>2003-04-16T10:28:56Z</time>
      </trkpt>
      <trkpt lat="30.669016996398568" lon="-4.683759966865182">
        <ele>670.20000000000005</ele>
        <time>2003-04-16T10:29:00Z</time>
      </trkpt>
      <trkpt lat="30.669242972508073" lon="-4.68263503164053">
        <ele>671.79999999999995</ele>
        <time>2003-04-16T10:29:08Z</time>
      </trkpt>
      <trkpt lat="30.669465009123087" lon="-4.681607997044921">
        <ele>673.20000000000005</ele>
        <time>2003-04-16T10:29:16Z</time>
      </trkpt>
      <trkpt lat="30.669704983010888" lon="-4.680457999929786">
        <ele>674.89999999999998</ele>
        <time>2003-04-16T10:29:24Z</time>
      </trkpt>
      <trkpt lat="30.669913021847606" lon="-4.679357958957553">
        <ele>676.79999999999995</ele>
        <time>2003-04-16T10:29:33Z</time>
      </trkpt>
      <trkpt lat="30.669934982433915" lon="-4.679086972028017">
        <ele>677.29999999999995</ele>
        <time>2003-04-16T10:29:34Z</time>
      </trkpt>
      <trkpt lat="30.669898018240929" lon="-4.677997995167971">
        <ele>679</ele>
        <time>2003-04-16T10:29:42Z</time>
      </trkpt>
      <trkpt lat="30.669892989099026" lon="-4.677531961351633">
        <ele>679.89999999999998</ele>
        <time>2003-04-16T10:29:45Z</time>
      </trkpt>
      <trkpt lat="30.669891983270645" lon="-4.677122002467513">
        <ele>680.89999999999998</ele>
        <time>2003-04-16T10:29:47Z</time>
      </trkpt>
      <trkpt lat="30.669852001592517" lon="-4.676132015883923">
        <ele>682</ele>
        <time>2003-04-16T10:29:56Z</time>
      </trkpt>
      <trkpt lat="30.669802967458963" lon="-4.67595499008894">
        <ele>682.5</ele>
        <time>2003-04-16T10:29:58Z</time>
      </trkpt>
      <trkpt lat="30.669715041294694" lon="-4.675802020356059">
        <ele>682.70000000000005</ele>
        <time>2003-04-16T10:30:00Z</time>
      </trkpt>
      <trkpt lat="30.66970800049603" lon="-4.67559196986258">
        <ele>682.70000000000005</ele>
        <time>2003-04-16T10:30:01Z</time>
      </trkpt>
      <trkpt lat="30.669672964140773" lon="-4.675364987924695">
        <ele>683.20000000000005</ele>
        <time>2003-04-16T10:30:04Z</time>
      </trkpt>
      <trkpt lat="30.669593000784516" lon="-4.674835000187159">
        <ele>683</ele>
        <time>2003-04-16T10:30:08Z</time>
      </trkpt>
      <trkpt lat="30.669465009123087" lon="-4.673971999436617">
        <ele>682.89999999999998</ele>
        <time>2003-04-16T10:30:14Z</time>
      </trkpt>
      <trkpt lat="30.669368030503392" lon="-4.673236990347505">
        <ele>683.60000000000002</ele>
        <time>2003-04-16T10:30:21Z</time>
      </trkpt>
      <trkpt lat="30.669165020808578" lon="-4.672169974073768">
        <ele>684.29999999999995</ele>
        <time>2003-04-16T10:30:28Z</time>
      </trkpt>
      <trkpt lat="30.669007021933794" lon="-4.671132965013385">
        <ele>683.79999999999995</ele>
        <time>2003-04-16T10:30:36Z</time>
      </trkpt>
      <trkpt lat="30.668878024443984" lon="-4.670048011466861">
        <ele>684.39999999999998</ele>
        <time>2003-04-16T10:30:43Z</time>
      </trkpt>
      <trkpt lat="30.668714996427298" lon="-4.668992981314659">
        <ele>683.29999999999995</ele>
        <time>2003-04-16T10:30:50Z</time>
      </trkpt>
      <trkpt lat="30.668692030012608" lon="-4.668787037953734">
        <ele>682.10000000000002</ele>
        <time>2003-04-16T10:30:52Z</time>
      </trkpt>
      <trkpt lat="30.668615000322461" lon="-4.668271970003843">
        <ele>681.60000000000002</ele>
        <time>2003-04-16T10:30:55Z</time>
      </trkpt>
      <trkpt lat="30.668466975912452" lon="-4.667160026729107">
        <ele>680.79999999999995</ele>
        <time>2003-04-16T10:31:03Z</time>
      </trkpt>
      <trkpt lat="30.668379971757531" lon="-4.666406996548176">
        <ele>681.29999999999995</ele>
        <time>2003-04-16T10:31:10Z</time>
      </trkpt>
      <trkpt lat="30.668349964544177" lon="-4.666212033480406">
        <ele>680.20000000000005</ele>
        <time>2003-04-16T10:31:11Z</time>
      </trkpt>
      <trkpt lat="30.668324986472726" lon="-4.665968036279082">
        <ele>679.29999999999995</ele>
        <time>2003-04-16T10:31:14Z</time>
      </trkpt>
      <trkpt lat="30.668309982866049" lon="-4.665537960827351">
        <ele>678.89999999999998</ele>
        <time>2003-04-16T10:31:17Z</time>
      </trkpt>
      <trkpt lat="30.668320041149855" lon="-4.665287006646395">
        <ele>678.89999999999998</ele>
        <time>2003-04-16T10:31:19Z</time>
      </trkpt>
      <trkpt lat="30.668439986184239" lon="-4.664240023121238">
        <ele>678</ele>
        <time>2003-04-16T10:31:26Z</time>
      </trkpt>
      <trkpt lat="30.668484997004271" lon="-4.664078000932932">
        <ele>677.5</ele>
        <time>2003-04-16T10:31:29Z</time>
      </trkpt>
      <trkpt lat="30.668533025309443" lon="-4.663856970146298">
        <ele>676.70000000000005</ele>
        <time>2003-04-16T10:31:30Z</time>
      </trkpt>
      <trkpt lat="30.668799988925457" lon="-4.662758018821478">
        <ele>676.20000000000005</ele>
        <time>2003-04-16T10:31:41Z</time>
      </trkpt>
      <trkpt lat="30.669095031917095" lon="-4.661680022254586">
        <ele>674.89999999999998</ele>
        <time>2003-04-16T10:31:49Z</time>
      </trkpt>
      <trkpt lat="30.669197039678693" lon="-4.661252964287996">
        <ele>674.79999999999995</ele>
        <time>2003-04-16T10:31:53Z</time>
      </trkpt>
      <trkpt lat="30.669229980558157" lon="-4.661145005375147">
        <ele>674.79999999999995</ele>
        <time>2003-04-16T10:31:54Z</time>
      </trkpt>
      <trkpt lat="30.669441958889365" lon="-4.660457018762827">
        <ele>673.5</ele>
        <time>2003-04-16T10:32:01Z</time>
      </trkpt>
      <trkpt lat="30.669725015759468" lon="-4.659450016915798">
        <ele>671.60000000000002</ele>
        <time>2003-04-16T10:32:08Z</time>
      </trkpt>
      <trkpt lat="30.669868011027575" lon="-4.658922962844372">
        <ele>670.89999999999998</ele>
        <time>2003-04-16T10:32:12Z</time>
      </trkpt>
      <trkpt lat="30.669913021847606" lon="-4.658758006989956">
        <ele>670.5</ele>
        <time>2003-04-16T10:32:13Z</time>
      </trkpt>
      <trkpt lat="30.669972030445933" lon="-4.658536976203322">
        <ele>670</ele>
        <time>2003-04-16T10:32:16Z</time>
      </trkpt>
      <trkpt lat="30.669998014345765" lon="-4.658427005633712">
        <ele>669.70000000000005</ele>
        <time>2003-04-16T10:32:19Z</time>
      </trkpt>
      <trkpt lat="30.670264977961779" lon="-4.657483035698533">
        <ele>667.20000000000005</ele>
        <time>2003-04-16T10:32:36Z</time>
      </trkpt>
      <trkpt lat="30.670430017635226" lon="-4.656836958602071">
        <ele>665</ele>
        <time>2003-04-16T10:32:51Z</time>
      </trkpt>
      <trkpt lat="30.670724976807833" lon="-4.655792992562056">
        <ele>662.79999999999995</ele>
        <time>2003-04-16T10:33:07Z</time>
      </trkpt>
      <trkpt lat="30.671032005921006" lon="-4.654745003208518">
        <ele>660.60000000000002</ele>
        <time>2003-04-16T10:33:21Z</time>
      </trkpt>
      <trkpt lat="30.671133007854223" lon="-4.654387012124062">
        <ele>660.5</ele>
        <time>2003-04-16T10:33:25Z</time>
      </trkpt>
      <trkpt lat="30.671331994235516" lon="-4.653712017461658">
        <ele>659.60000000000002</ele>
        <time>2003-04-16T10:33:33Z</time>
      </trkpt>
      <trkpt lat="30.671387985348701" lon="-4.653498027473688">
        <ele>658.79999999999995</ele>
        <time>2003-04-16T10:33:46Z</time>
      </trkpt>
      <trkpt lat="30.671455040574074" lon="-4.653270039707422">
        <ele>658.79999999999995</ele>
        <time>2003-04-16T10:33:49Z</time>
      </trkpt>
      <trkpt lat="30.671512959524989" lon="-4.653072981163859">
        <ele>658.70000000000005</ele>
        <time>2003-04-16T10:33:52Z</time>
      </trkpt>
      <trkpt lat="30.671610021963716" lon="-4.652742985635996">
        <ele>658.29999999999995</ele>
        <time>2003-04-16T10:33:54Z</time>
      </trkpt>
      <trkpt lat="30.67189802415669" lon="-4.651643028482795">
        <ele>656.70000000000005</ele>
        <time>2003-04-16T10:34:04Z</time>
      </trkpt>
      <trkpt lat="30.672010006383061" lon="-4.651217982172966">
        <ele>656.89999999999998</ele>
        <time>2003-04-16T10:34:08Z</time>
      </trkpt>
      <trkpt lat="30.672142021358013" lon="-4.650835013017058">
        <ele>657.60000000000002</ele>
        <time>2003-04-16T10:34:12Z</time>
      </trkpt>
      <trkpt lat="30.672177979722619" lon="-4.650702998042107">
        <ele>657.70000000000005</ele>
        <time>2003-04-16T10:34:13Z</time>
      </trkpt>
      <trkpt lat="30.672262972220778" lon="-4.650456989184022">
        <ele>658.29999999999995</ele>
        <time>2003-04-16T10:34:16Z</time>
      </trkpt>
      <trkpt lat="30.672349976375699" lon="-4.650132022798061">
        <ele>659.20000000000005</ele>
        <time>2003-04-16T10:34:20Z</time>
      </trkpt>
      <trkpt lat="30.672460030764341" lon="-4.649747963994741">
        <ele>659.79999999999995</ele>
        <time>2003-04-16T10:34:23Z</time>
      </trkpt>
      <trkpt lat="30.672748032957315" lon="-4.648677008226514">
        <ele>658.29999999999995</ele>
        <time>2003-04-16T10:34:31Z</time>
      </trkpt>
      <trkpt lat="30.673022959381342" lon="-4.647655002772808">
        <ele>658.60000000000002</ele>
        <time>2003-04-16T10:34:39Z</time>
      </trkpt>
      <trkpt lat="30.67329503595829" lon="-4.646607013419271">
        <ele>658.79999999999995</ele>
        <time>2003-04-16T10:34:44Z</time>
      </trkpt>
      <trkpt lat="30.673592006787658" lon="-4.64546799659729">
        <ele>659.60000000000002</ele>
        <time>2003-04-16T10:34:51Z</time>
      </trkpt>
      <trkpt lat="30.673891995102167" lon="-4.644308025017381">
        <ele>661.20000000000005</ele>
        <time>2003-04-16T10:34:58Z</time>
      </trkpt>
      <trkpt lat="30.673987967893481" lon="-4.643873004242778">
        <ele>662</ele>
        <time>2003-04-16T10:35:02Z</time>
      </trkpt>
      <trkpt lat="30.674204975366592" lon="-4.642821997404099">
        <ele>661.20000000000005</ele>
        <time>2003-04-16T10:35:09Z</time>
      </trkpt>
      <trkpt lat="30.674452995881438" lon="-4.641703013330698">
        <ele>660.5</ele>
        <time>2003-04-16T10:35:15Z</time>
      </trkpt>
      <trkpt lat="30.674543017521501" lon="-4.641306968405843">
        <ele>660.10000000000002</ele>
        <time>2003-04-16T10:35:18Z</time>
      </trkpt>
      <trkpt lat="30.674591967836022" lon="-4.641087027266622">
        <ele>661</ele>
        <time>2003-04-16T10:35:21Z</time>
      </trkpt>
      <trkpt lat="30.674711996689439" lon="-4.640625016763806">
        <ele>660.5</ele>
        <time>2003-04-16T10:35:25Z</time>
      </trkpt>
      <trkpt lat="30.674775028601289" lon="-4.640378002077341">
        <ele>660.60000000000002</ele>
        <time>2003-04-16T10:35:29Z</time>
      </trkpt>
      <trkpt lat="30.674836970865726" lon="-4.640047000721097">
        <ele>661.29999999999995</ele>
        <time>2003-04-16T10:35:33Z</time>
      </trkpt>
      <trkpt lat="30.674918023869395" lon="-4.639727985486388">
        <ele>662.20000000000005</ele>
        <time>2003-04-16T10:35:37Z</time>
      </trkpt>
      <trkpt lat="30.674949958920479" lon="-4.639305034652352">
        <ele>661.89999999999998</ele>
        <time>2003-04-16T10:35:41Z</time>
      </trkpt>
      <trkpt lat="30.675081973895431" lon="-4.63876498863101">
        <ele>661.60000000000002</ele>
        <time>2003-04-16T10:35:48Z</time>
      </trkpt>
      <trkpt lat="30.675118016079068" lon="-4.638546975329518">
        <ele>661.5</ele>
        <time>2003-04-16T10:35:51Z</time>
      </trkpt>
      <trkpt lat="30.675136959180236" lon="-4.638406997546554">
        <ele>661</ele>
        <time>2003-04-16T10:35:52Z</time>
      </trkpt>
      <trkpt lat="30.675178030505776" lon="-4.638229971751571">
        <ele>660.70000000000005</ele>
        <time>2003-04-16T10:35:55Z</time>
      </trkpt>
      <trkpt lat="30.675226980820298" lon="-4.637872986495495">
        <ele>660.60000000000002</ele>
        <time>2003-04-16T10:35:59Z</time>
      </trkpt>
      <trkpt lat="30.675288001075387" lon="-4.637632006779313">
        <ele>661.20000000000005</ele>
        <time>2003-04-16T10:36:01Z</time>
      </trkpt>
      <trkpt lat="30.675426973029971" lon="-4.6370870154351">
        <ele>660.10000000000002</ele>
        <time>2003-04-16T10:36:08Z</time>
      </trkpt>
      <trkpt lat="30.675442982465029" lon="-4.636934967711568">
        <ele>660</ele>
        <time>2003-04-16T10:36:11Z</time>
      </trkpt>
      <trkpt lat="30.675462009385228" lon="-4.636828014627099">
        <ele>660.29999999999995</ele>
        <time>2003-04-16T10:36:12Z</time>
      </trkpt>
      <trkpt lat="30.675544990226626" lon="-4.636361980810762">
        <ele>660.20000000000005</ele>
        <time>2003-04-16T10:36:20Z</time>
      </trkpt>
      <trkpt lat="30.675587989389896" lon="-4.636172968894243">
        <ele>659.29999999999995</ele>
        <time>2003-04-16T10:36:23Z</time>
      </trkpt>
      <trkpt lat="30.675687985494733" lon="-4.635838028043509">
        <ele>658.20000000000005</ele>
        <time>2003-04-16T10:36:26Z</time>
      </trkpt>
      <trkpt lat="30.675808014348149" lon="-4.635307034477592">
        <ele>658.20000000000005</ele>
        <time>2003-04-16T10:36:30Z</time>
      </trkpt>
      <trkpt lat="30.676028039306402" lon="-4.634287040680647">
        <ele>657.70000000000005</ele>
        <time>2003-04-16T10:36:36Z</time>
      </trkpt>
      <trkpt lat="30.676082018762827" lon="-4.63390801101923">
        <ele>657.10000000000002</ele>
        <time>2003-04-16T10:36:39Z</time>
      </trkpt>
      <trkpt lat="30.676137004047632" lon="-4.633705001324415">
        <ele>657.5</ele>
        <time>2003-04-16T10:36:42Z</time>
      </trkpt>
      <trkpt lat="30.676162987947464" lon="-4.633595030754805">
        <ele>656.79999999999995</ele>
        <time>2003-04-16T10:36:43Z</time>
      </trkpt>
      <trkpt lat="30.676301959902048" lon="-4.632978038862348">
        <ele>656.5</ele>
        <time>2003-04-16T10:36:47Z</time>
      </trkpt>
      <trkpt lat="30.676509998738766" lon="-4.63195201009512">
        <ele>656.29999999999995</ele>
        <time>2003-04-16T10:36:54Z</time>
      </trkpt>
      <trkpt lat="30.67673203535378" lon="-4.630905026569963">
        <ele>656.20000000000005</ele>
        <time>2003-04-16T10:37:02Z</time>
      </trkpt>
      <trkpt lat="30.676966980099678" lon="-4.629840021952987">
        <ele>656.60000000000002</ele>
        <time>2003-04-16T10:37:09Z</time>
      </trkpt>
      <trkpt lat="30.677192034199834" lon="-4.628812987357378">
        <ele>656.60000000000002</ele>
        <time>2003-04-16T10:37:14Z</time>
      </trkpt>
      <trkpt lat="30.677418010309339" lon="-4.627683022990823">
        <ele>656.60000000000002</ele>
        <time>2003-04-16T10:37:21Z</time>
      </trkpt>
      <trkpt lat="30.677532004192472" lon="-4.626932004466653">
        <ele>657.39999999999998</ele>
        <time>2003-04-16T10:37:26Z</time>
      </trkpt>
      <trkpt lat="30.677716992795467" lon="-4.625853002071381">
        <ele>658.60000000000002</ele>
        <time>2003-04-16T10:37:35Z</time>
      </trkpt>
      <trkpt lat="30.677725039422512" lon="-4.625736996531487">
        <ele>658.29999999999995</ele>
        <time>2003-04-16T10:37:36Z</time>
      </trkpt>
      <trkpt lat="30.677757980301976" lon="-4.625532981008291">
        <ele>658.89999999999998</ele>
        <time>2003-04-16T10:37:37Z</time>
      </trkpt>
      <trkpt lat="30.677902987226844" lon="-4.624812975525856">
        <ele>658.79999999999995</ele>
        <time>2003-04-16T10:37:44Z</time>
      </trkpt>
      <trkpt lat="30.678004994988441" lon="-4.624424977228046">
        <ele>659.29999999999995</ele>
        <time>2003-04-16T10:37:48Z</time>
      </trkpt>
      <trkpt lat="30.678068026900291" lon="-4.624248035252094">
        <ele>659.10000000000002</ele>
        <time>2003-04-16T10:37:51Z</time>
      </trkpt>
      <trkpt lat="30.678129969164729" lon="-4.624052988365293">
        <ele>659.79999999999995</ele>
        <time>2003-04-16T10:37:52Z</time>
      </trkpt>
      <trkpt lat="30.678208004683256" lon="-4.623883003368974">
        <ele>659.39999999999998</ele>
        <time>2003-04-16T10:37:55Z</time>
      </trkpt>
      <trkpt lat="30.678312024101615" lon="-4.623606987297535">
        <ele>659.70000000000005</ele>
        <time>2003-04-16T10:37:57Z</time>
      </trkpt>
      <trkpt lat="30.678342031314969" lon="-4.623391991481185">
        <ele>659.5</ele>
        <time>2003-04-16T10:38:00Z</time>
      </trkpt>
      <trkpt lat="30.678382012993097" lon="-4.62318797595799">
        <ele>660.20000000000005</ele>
        <time>2003-04-16T10:38:02Z</time>
      </trkpt>
      <trkpt lat="30.678427023813128" lon="-4.622859992086887">
        <ele>659.70000000000005</ele>
        <time>2003-04-16T10:38:04Z</time>
      </trkpt>
      <trkpt lat="30.678442027419806" lon="-4.622748009860516">
        <ele>660</ele>
        <time>2003-04-16T10:38:06Z</time>
      </trkpt>
      <trkpt lat="30.67847496829927" lon="-4.622411979362369">
        <ele>660</ele>
        <time>2003-04-16T10:38:08Z</time>
      </trkpt>
      <trkpt lat="30.678506987169385" lon="-4.62159801274538">
        <ele>660.89999999999998</ele>
        <time>2003-04-16T10:38:15Z</time>
      </trkpt>
      <trkpt lat="30.678600026294589" lon="-4.620622023940086">
        <ele>661.10000000000002</ele>
        <time>2003-04-16T10:38:23Z</time>
      </trkpt>
      <trkpt lat="30.678627016022801" lon="-4.619942000135779">
        <ele>660.89999999999998</ele>
        <time>2003-04-16T10:38:29Z</time>
      </trkpt>
      <trkpt lat="30.678717959672213" lon="-4.618832990527153">
        <ele>661.29999999999995</ele>
        <time>2003-04-16T10:38:35Z</time>
      </trkpt>
      <trkpt lat="30.678749978542328" lon="-4.61858999915421">
        <ele>661.20000000000005</ele>
        <time>2003-04-16T10:38:38Z</time>
      </trkpt>
      <trkpt lat="30.678762970492244" lon="-4.61841800250113">
        <ele>660.60000000000002</ele>
        <time>2003-04-16T10:38:39Z</time>
      </trkpt>
      <trkpt lat="30.678757019340992" lon="-4.618079960346222">
        <ele>661.10000000000002</ele>
        <time>2003-04-16T10:38:42Z</time>
      </trkpt>
      <trkpt lat="30.67877696827054" lon="-4.617806961759925">
        <ele>661</ele>
        <time>2003-04-16T10:38:45Z</time>
      </trkpt>
      <trkpt lat="30.678809992969036" lon="-4.617334976792336">
        <ele>661.10000000000002</ele>
        <time>2003-04-16T10:38:47Z</time>
      </trkpt>
      <trkpt lat="30.678866989910603" lon="-4.616163019090891">
        <ele>661.20000000000005</ele>
        <time>2003-04-16T10:38:54Z</time>
      </trkpt>
      <trkpt lat="30.678957011550665" lon="-4.615047974511981">
        <ele>661.39999999999998</ele>
        <time>2003-04-16T10:39:01Z</time>
      </trkpt>
      <trkpt lat="30.679082991555333" lon="-4.614208023995161">
        <ele>662.10000000000002</ele>
        <time>2003-04-16T10:39:06Z</time>
      </trkpt>
      <trkpt lat="30.679143005982041" lon="-4.613757999613881">
        <ele>662</ele>
        <time>2003-04-16T10:39:09Z</time>
      </trkpt>
      <trkpt lat="30.679215006530285" lon="-4.612785028293729">
        <ele>662.89999999999998</ele>
        <time>2003-04-16T10:39:16Z</time>
      </trkpt>
      <trkpt lat="30.679322965443134" lon="-4.611642993986607">
        <ele>663.29999999999995</ele>
        <time>2003-04-16T10:39:21Z</time>
      </trkpt>
      <trkpt lat="30.679358001798391" lon="-4.610401969403029">
        <ele>663.70000000000005</ele>
        <time>2003-04-16T10:39:28Z</time>
      </trkpt>
      <trkpt lat="30.679378034546971" lon="-4.609154993668199">
        <ele>664.20000000000005</ele>
        <time>2003-04-16T10:39:33Z</time>
      </trkpt>
      <trkpt lat="30.679373005405068" lon="-4.607955040410161">
        <ele>664.60000000000002</ele>
        <time>2003-04-16T10:39:40Z</time>
      </trkpt>
      <trkpt lat="30.679435031488538" lon="-4.606890035793185">
        <ele>664.79999999999995</ele>
        <time>2003-04-16T10:39:44Z</time>
      </trkpt>
      <trkpt lat="30.679447017610073" lon="-4.605662003159523">
        <ele>665.5</ele>
        <time>2003-04-16T10:39:51Z</time>
      </trkpt>
      <trkpt lat="30.679381974041462" lon="-4.605088010430336">
        <ele>665.70000000000005</ele>
        <time>2003-04-16T10:39:54Z</time>
      </trkpt>
      <trkpt lat="30.679190028458834" lon="-4.60406499914825">
        <ele>666</ele>
        <time>2003-04-16T10:39:59Z</time>
      </trkpt>
      <trkpt lat="30.679143005982041" lon="-4.603448007255793">
        <ele>665.79999999999995</ele>
        <time>2003-04-16T10:40:02Z</time>
      </trkpt>
      <trkpt lat="30.679028006270528" lon="-4.602667987346649">
        <ele>666</ele>
        <time>2003-04-16T10:40:06Z</time>
      </trkpt>
      <trkpt lat="30.678800018504262" lon="-4.601457975804806">
        <ele>666.39999999999998</ele>
        <time>2003-04-16T10:40:11Z</time>
      </trkpt>
      <trkpt lat="30.678607989102602" lon="-4.600424990057945">
        <ele>666.39999999999998</ele>
        <time>2003-04-16T10:40:17Z</time>
      </trkpt>
      <trkpt lat="30.678404979407787" lon="-4.599367026239634">
        <ele>667</ele>
        <time>2003-04-16T10:40:22Z</time>
      </trkpt>
      <trkpt lat="30.678223008289933" lon="-4.598318031057715">
        <ele>666.60000000000002</ele>
        <time>2003-04-16T10:40:26Z</time>
      </trkpt>
      <trkpt lat="30.678029973059893" lon="-4.59725302644074">
        <ele>665.79999999999995</ele>
        <time>2003-04-16T10:40:31Z</time>
      </trkpt>
      <trkpt lat="30.677831992506981" lon="-4.596149967983365">
        <ele>665.39999999999998</ele>
        <time>2003-04-16T10:40:37Z</time>
      </trkpt>
      <trkpt lat="30.677633006125689" lon="-4.595123017206788">
        <ele>665.10000000000002</ele>
        <time>2003-04-16T10:40:42Z</time>
      </trkpt>
      <trkpt lat="30.677439970895648" lon="-4.594079973176122">
        <ele>664.60000000000002</ele>
        <time>2003-04-16T10:40:46Z</time>
      </trkpt>
      <trkpt lat="30.677235033363104" lon="-4.592983033508062">
        <ele>664.60000000000002</ele>
        <time>2003-04-16T10:40:52Z</time>
      </trkpt>
      <trkpt lat="30.677043003961444" lon="-4.59190302528441">
        <ele>665.10000000000002</ele>
        <time>2003-04-16T10:40:57Z</time>
      </trkpt>
      <trkpt lat="30.676809987053275" lon="-4.59070198237896">
        <ele>665.5</ele>
        <time>2003-04-16T10:41:02Z</time>
      </trkpt>
      <trkpt lat="30.676598008722067" lon="-4.58956497721374">
        <ele>666.29999999999995</ele>
        <time>2003-04-16T10:41:09Z</time>
      </trkpt>
      <trkpt lat="30.676383012905717" lon="-4.588427972048521">
        <ele>666.89999999999998</ele>
        <time>2003-04-16T10:41:15Z</time>
      </trkpt>
      <trkpt lat="30.676164999604225" lon="-4.587318040430546">
        <ele>667.20000000000005</ele>
        <time>2003-04-16T10:41:20Z</time>
      </trkpt>
      <trkpt lat="30.675959978252649" lon="-4.586192015558481">
        <ele>668.39999999999998</ele>
        <time>2003-04-16T10:41:27Z</time>
      </trkpt>
      <trkpt lat="30.675740037113428" lon="-4.585017962381244">
        <ele>671.39999999999998</ele>
        <time>2003-04-16T10:41:32Z</time>
      </trkpt>
      <trkpt lat="30.675650015473366" lon="-4.584532985463738">
        <ele>671.39999999999998</ele>
        <time>2003-04-16T10:41:36Z</time>
      </trkpt>
      <trkpt lat="30.675608022138476" lon="-4.584314972162247">
        <ele>671.60000000000002</ele>
        <time>2003-04-16T10:41:38Z</time>
      </trkpt>
      <trkpt lat="30.675580026581883" lon="-4.58414800465107">
        <ele>671.39999999999998</ele>
        <time>2003-04-16T10:41:40Z</time>
      </trkpt>
      <trkpt lat="30.67550802603364" lon="-4.583735028281808">
        <ele>671.10000000000002</ele>
        <time>2003-04-16T10:41:43Z</time>
      </trkpt>
      <trkpt lat="30.675410041585565" lon="-4.583222977817059">
        <ele>670.60000000000002</ele>
        <time>2003-04-16T10:41:48Z</time>
      </trkpt>
      <trkpt lat="30.675344998016953" lon="-4.582889964804053">
        <ele>670.29999999999995</ele>
        <time>2003-04-16T10:41:51Z</time>
      </trkpt>
      <trkpt lat="30.675196973606944" lon="-4.582104999572039">
        <ele>670.79999999999995</ele>
        <time>2003-04-16T10:41:58Z</time>
      </trkpt>
      <trkpt lat="30.674930009990931" lon="-4.581002024933696">
        <ele>669.60000000000002</ele>
        <time>2003-04-16T10:42:06Z</time>
      </trkpt>
      <trkpt lat="30.674834959208965" lon="-4.580301968380809">
        <ele>669.29999999999995</ele>
        <time>2003-04-16T10:42:10Z</time>
      </trkpt>
      <trkpt lat="30.674781985580921" lon="-4.579920005053282">
        <ele>669.29999999999995</ele>
        <time>2003-04-16T10:42:14Z</time>
      </trkpt>
      <trkpt lat="30.674552991986275" lon="-4.578806972131133">
        <ele>669</ele>
        <time>2003-04-16T10:42:22Z</time>
      </trkpt>
      <trkpt lat="30.674519967287779" lon="-4.578622989356518">
        <ele>670.70000000000005</ele>
        <time>2003-04-16T10:42:23Z</time>
      </trkpt>
      <trkpt lat="30.674417959526181" lon="-4.578071963042021">
        <ele>670.10000000000002</ele>
        <time>2003-04-16T10:42:29Z</time>
      </trkpt>
      <trkpt lat="30.674342019483447" lon="-4.577582962810993">
        <ele>669.5</ele>
        <time>2003-04-16T10:42:33Z</time>
      </trkpt>
      <trkpt lat="30.674325004220009" lon="-4.577462011948228">
        <ele>669.79999999999995</ele>
        <time>2003-04-16T10:42:34Z</time>
      </trkpt>
      <trkpt lat="30.674115037545562" lon="-4.57639298401773">
        <ele>670.20000000000005</ele>
        <time>2003-04-16T10:42:41Z</time>
      </trkpt>
      <trkpt lat="30.674046976491809" lon="-4.576187040656805">
        <ele>670.60000000000002</ele>
        <time>2003-04-16T10:42:44Z</time>
      </trkpt>
      <trkpt lat="30.674031972885132" lon="-4.576000040397048">
        <ele>670.70000000000005</ele>
        <time>2003-04-16T10:42:45Z</time>
      </trkpt>
      <trkpt lat="30.674043036997318" lon="-4.575737016275525">
        <ele>670.39999999999998</ele>
        <time>2003-04-16T10:42:49Z</time>
      </trkpt>
      <trkpt lat="30.67398302257061" lon="-4.575584968551993">
        <ele>670.5</ele>
        <time>2003-04-16T10:42:50Z</time>
      </trkpt>
      <trkpt lat="30.673914961516857" lon="-4.575380031019449">
        <ele>671</ele>
        <time>2003-04-16T10:42:53Z</time>
      </trkpt>
      <trkpt lat="30.673898030072451" lon="-4.575265031307936">
        <ele>670.89999999999998</ele>
        <time>2003-04-16T10:42:53Z</time>
      </trkpt>
      <trkpt lat="30.673731984570622" lon="-4.57420002669096">
        <ele>670.89999999999998</ele>
        <time>2003-04-16T10:43:03Z</time>
      </trkpt>
      <trkpt lat="30.673507014289498" lon="-4.573160000145435">
        <ele>669.89999999999998</ele>
        <time>2003-04-16T10:43:11Z</time>
      </trkpt>
      <trkpt lat="30.673439959064126" lon="-4.57273998297751">
        <ele>670.10000000000002</ele>
        <time>2003-04-16T10:43:13Z</time>
      </trkpt>
      <trkpt lat="30.673199985176325" lon="-4.571582023054361">
        <ele>671.39999999999998</ele>
        <time>2003-04-16T10:43:21Z</time>
      </trkpt>
      <trkpt lat="30.672988006845117" lon="-4.570449963212013">
        <ele>671.60000000000002</ele>
        <time>2003-04-16T10:43:30Z</time>
      </trkpt>
      <trkpt lat="30.672907959669828" lon="-4.570046961307526">
        <ele>671.29999999999995</ele>
        <time>2003-04-16T10:43:32Z</time>
      </trkpt>
      <trkpt lat="30.672792959958315" lon="-4.569532983005047">
        <ele>670.79999999999995</ele>
        <time>2003-04-16T10:43:36Z</time>
      </trkpt>
      <trkpt lat="30.672775022685528" lon="-4.569402979686856">
        <ele>671</ele>
        <time>2003-04-16T10:43:38Z</time>
      </trkpt>
      <trkpt lat="30.67269204184413" lon="-4.568967036902905">
        <ele>670.60000000000002</ele>
        <time>2003-04-16T10:43:42Z</time>
      </trkpt>
      <trkpt lat="30.672667985782027" lon="-4.568793028593063">
        <ele>670.89999999999998</ele>
        <time>2003-04-16T10:43:43Z</time>
      </trkpt>
      <trkpt lat="30.672620041295886" lon="-4.568464960902929">
        <ele>670.5</ele>
        <time>2003-04-16T10:43:47Z</time>
      </trkpt>
      <trkpt lat="30.672554997727275" lon="-4.567943019792438">
        <ele>669.60000000000002</ele>
        <time>2003-04-16T10:43:51Z</time>
      </trkpt>
      <trkpt lat="30.672539994120598" lon="-4.567193007096648">
        <ele>667.79999999999995</ele>
        <time>2003-04-16T10:43:55Z</time>
      </trkpt>
      <trkpt lat="30.672649964690208" lon="-4.566124984994531">
        <ele>664.29999999999995</ele>
        <time>2003-04-16T10:44:02Z</time>
      </trkpt>
      <trkpt lat="30.672709979116917" lon="-4.565661968663335">
        <ele>663.20000000000005</ele>
        <time>2003-04-16T10:44:06Z</time>
      </trkpt>
      <trkpt lat="30.672837970778346" lon="-4.564581960439682">
        <ele>661.39999999999998</ele>
        <time>2003-04-16T10:44:13Z</time>
      </trkpt>
      <trkpt lat="30.672792037948966" lon="-4.563788026571274">
        <ele>659.89999999999998</ele>
        <time>2003-04-16T10:44:18Z</time>
      </trkpt>
      <trkpt lat="30.672592967748642" lon="-4.562859982252121">
        <ele>658.79999999999995</ele>
        <time>2003-04-16T10:44:24Z</time>
      </trkpt>
      <trkpt lat="30.672230031341314" lon="-4.561864966526628">
        <ele>657.20000000000005</ele>
        <time>2003-04-16T10:44:30Z</time>
      </trkpt>
      <trkpt lat="30.671808002516627" lon="-4.560827035456896">
        <ele>655.79999999999995</ele>
        <time>2003-04-16T10:44:37Z</time>
      </trkpt>
      <trkpt lat="30.671420004218817" lon="-4.559882981702685">
        <ele>653.60000000000002</ele>
        <time>2003-04-16T10:44:45Z</time>
      </trkpt>
      <trkpt lat="30.671357978135347" lon="-4.559711990877986">
        <ele>654.29999999999995</ele>
        <time>2003-04-16T10:44:47Z</time>
      </trkpt>
      <trkpt lat="30.671287989243865" lon="-4.55946003086865">
        <ele>653.70000000000005</ele>
        <time>2003-04-16T10:44:49Z</time>
      </trkpt>
      <trkpt lat="30.671063018962741" lon="-4.558447999879718">
        <ele>653.79999999999995</ele>
        <time>2003-04-16T10:44:56Z</time>
      </trkpt>
      <trkpt lat="30.671011973172426" lon="-4.557672003284097">
        <ele>652.60000000000002</ele>
        <time>2003-04-16T10:45:00Z</time>
      </trkpt>
      <trkpt lat="30.671024965122342" lon="-4.557115025818348">
        <ele>652.20000000000005</ele>
        <time>2003-04-16T10:45:04Z</time>
      </trkpt>
      <trkpt lat="30.671009961515665" lon="-4.556847978383303">
        <ele>651.10000000000002</ele>
        <time>2003-04-16T10:45:07Z</time>
      </trkpt>
      <trkpt lat="30.671032005921006" lon="-4.556717975065112">
        <ele>651.10000000000002</ele>
        <time>2003-04-16T10:45:08Z</time>
      </trkpt>
      <trkpt lat="30.6711480114609" lon="-4.556024959310889">
        <ele>650.89999999999998</ele>
        <time>2003-04-16T10:45:12Z</time>
      </trkpt>
      <trkpt lat="30.671195033937693" lon="-4.555757995694876">
        <ele>650.89999999999998</ele>
        <time>2003-04-16T10:45:15Z</time>
      </trkpt>
      <trkpt lat="30.671265022829175" lon="-4.555382989346981">
        <ele>651.39999999999998</ele>
        <time>2003-04-16T10:45:18Z</time>
      </trkpt>
      <trkpt lat="30.671412963420153" lon="-4.554816959425807">
        <ele>651.39999999999998</ele>
        <time>2003-04-16T10:45:23Z</time>
      </trkpt>
      <trkpt lat="30.671699959784746" lon="-4.553772993385792">
        <ele>651</ele>
        <time>2003-04-16T10:45:32Z</time>
      </trkpt>
      <trkpt lat="30.671817976981401" lon="-4.553379965946078">
        <ele>651.5</ele>
        <time>2003-04-16T10:45:35Z</time>
      </trkpt>
      <trkpt lat="30.672068009153008" lon="-4.55245996825397">
        <ele>651.5</ele>
        <time>2003-04-16T10:45:43Z</time>
      </trkpt>
      <trkpt lat="30.672215027734637" lon="-4.551784973591566">
        <ele>651.5</ele>
        <time>2003-04-16T10:45:47Z</time>
      </trkpt>
      <trkpt lat="30.672270013019443" lon="-4.551524966955185">
        <ele>651.60000000000002</ele>
        <time>2003-04-16T10:45:50Z</time>
      </trkpt>
      <trkpt lat="30.672287028282881" lon="-4.551409967243671">
        <ele>651.60000000000002</ele>
        <time>2003-04-16T10:45:50Z</time>
      </trkpt>
      <trkpt lat="30.672321980819106" lon="-4.550913004204631">
        <ele>651.79999999999995</ele>
        <time>2003-04-16T10:45:54Z</time>
      </trkpt>
      <trkpt lat="30.672281999140978" lon="-4.549825033172965">
        <ele>650.39999999999998</ele>
        <time>2003-04-16T10:46:02Z</time>
      </trkpt>
      <trkpt lat="30.672094998881221" lon="-4.548688028007746">
        <ele>649.5</ele>
        <time>2003-04-16T10:46:12Z</time>
      </trkpt>
      <trkpt lat="30.672040013596416" lon="-4.548487029969692">
        <ele>648.5</ele>
        <time>2003-04-16T10:46:13Z</time>
      </trkpt>
      <trkpt lat="30.671746982261539" lon="-4.547582035884261">
        <ele>648.10000000000002</ele>
        <time>2003-04-16T10:46:22Z</time>
      </trkpt>
      <trkpt lat="30.671399971470237" lon="-4.546545026823878">
        <ele>647.70000000000005</ele>
        <time>2003-04-16T10:46:29Z</time>
      </trkpt>
      <trkpt lat="30.671090008690953" lon="-4.545672973617911">
        <ele>646.39999999999998</ele>
        <time>2003-04-16T10:46:37Z</time>
      </trkpt>
      <trkpt lat="30.671042986214161" lon="-4.545572977513075">
        <ele>646</ele>
        <time>2003-04-16T10:46:37Z</time>
      </trkpt>
      <trkpt lat="30.670937038958073" lon="-4.545254968106747">
        <ele>645.89999999999998</ele>
        <time>2003-04-16T10:46:41Z</time>
      </trkpt>
      <trkpt lat="30.670888004824519" lon="-4.545011976733804">
        <ele>646.29999999999995</ele>
        <time>2003-04-16T10:46:44Z</time>
      </trkpt>
      <trkpt lat="30.670822039246559" lon="-4.544739983975887">
        <ele>645.89999999999998</ele>
        <time>2003-04-16T10:46:45Z</time>
      </trkpt>
      <trkpt lat="30.670748027041554" lon="-4.544355003163219">
        <ele>645.70000000000005</ele>
        <time>2003-04-16T10:46:48Z</time>
      </trkpt>
      <trkpt lat="30.670624980702996" lon="-4.54332796856761">
        <ele>645.5</ele>
        <time>2003-04-16T10:46:56Z</time>
      </trkpt>
      <trkpt lat="30.670602014288306" lon="-4.542200015857816">
        <ele>645.20000000000005</ele>
        <time>2003-04-16T10:47:02Z</time>
      </trkpt>
      <trkpt lat="30.670592039823532" lon="-4.541086982935667">
        <ele>645.70000000000005</ele>
        <time>2003-04-16T10:47:08Z</time>
      </trkpt>
      <trkpt lat="30.670587010681629" lon="-4.53995299525559">
        <ele>645.79999999999995</ele>
        <time>2003-04-16T10:47:16Z</time>
      </trkpt>
      <trkpt lat="30.670577036216855" lon="-4.538838034495711">
        <ele>645.39999999999998</ele>
        <time>2003-04-16T10:47:23Z</time>
      </trkpt>
      <trkpt lat="30.670554991811514" lon="-4.537967992946506">
        <ele>643.79999999999995</ele>
        <time>2003-04-16T10:47:30Z</time>
      </trkpt>
      <trkpt lat="30.670430017635226" lon="-4.536807015538216">
        <ele>642.89999999999998</ele>
        <time>2003-04-16T10:47:38Z</time>
      </trkpt>
      <trkpt lat="30.670300014317036" lon="-4.535722984001041">
        <ele>641.10000000000002</ele>
        <time>2003-04-16T10:47:46Z</time>
      </trkpt>
      <trkpt lat="30.670172022655606" lon="-4.534697039052844">
        <ele>639.79999999999995</ele>
        <time>2003-04-16T10:47:54Z</time>
      </trkpt>
      <trkpt lat="30.669921990483999" lon="-4.533612001687288">
        <ele>639.5</ele>
        <time>2003-04-16T10:48:01Z</time>
      </trkpt>
      <trkpt lat="30.669758040457964" lon="-4.53292996622622">
        <ele>639.79999999999995</ele>
        <time>2003-04-16T10:48:05Z</time>
      </trkpt>
      <trkpt lat="30.669761979952455" lon="-4.532802980393171">
        <ele>639.60000000000002</ele>
        <time>2003-04-16T10:48:06Z</time>
      </trkpt>
      <trkpt lat="30.669716969132423" lon="-4.532568035647273">
        <ele>638.70000000000005</ele>
        <time>2003-04-16T10:48:09Z</time>
      </trkpt>
      <trkpt lat="30.669471966102719" lon="-4.531958000734448">
        <ele>637.79999999999995</ele>
        <time>2003-04-16T10:48:13Z</time>
      </trkpt>
      <trkpt lat="30.669441958889365" lon="-4.531826991587877">
        <ele>638.20000000000005</ele>
        <time>2003-04-16T10:48:14Z</time>
      </trkpt>
      <trkpt lat="30.669177006930113" lon="-4.530806997790933">
        <ele>639.79999999999995</ele>
        <time>2003-04-16T10:48:21Z</time>
      </trkpt>
      <trkpt lat="30.66906301304698" lon="-4.530461998656392">
        <ele>640.39999999999998</ele>
        <time>2003-04-16T10:48:25Z</time>
      </trkpt>
      <trkpt lat="30.668775010854006" lon="-4.529730007052422">
        <ele>640.20000000000005</ele>
        <time>2003-04-16T10:48:32Z</time>
      </trkpt>
      <trkpt lat="30.668262038379908" lon="-4.528759969398379">
        <ele>639.39999999999998</ele>
        <time>2003-04-16T10:48:40Z</time>
      </trkpt>
      <trkpt lat="30.668006977066398" lon="-4.528292007744312">
        <ele>640.39999999999998</ele>
        <time>2003-04-16T10:48:44Z</time>
      </trkpt>
      <trkpt lat="30.667461985722184" lon="-4.527281988412142">
        <ele>639.20000000000005</ele>
        <time>2003-04-16T10:48:52Z</time>
      </trkpt>
      <trkpt lat="30.666944989934564" lon="-4.526340030133724">
        <ele>638.60000000000002</ele>
        <time>2003-04-16T10:48:59Z</time>
      </trkpt>
      <trkpt lat="30.666427994146943" lon="-4.525397988036275">
        <ele>637.79999999999995</ele>
        <time>2003-04-16T10:49:07Z</time>
      </trkpt>
      <trkpt lat="30.665939999744296" lon="-4.524502968415618">
        <ele>637.29999999999995</ele>
        <time>2003-04-16T10:49:14Z</time>
      </trkpt>
      <trkpt lat="30.665516965091228" lon="-4.523526979610324">
        <ele>636.29999999999995</ele>
        <time>2003-04-16T10:49:21Z</time>
      </trkpt>
      <trkpt lat="30.665170038118958" lon="-4.522672025486827">
        <ele>635.39999999999998</ele>
        <time>2003-04-16T10:49:26Z</time>
      </trkpt>
      <trkpt lat="30.664963005110621" lon="-4.522062996402383">
        <ele>635</ele>
        <time>2003-04-16T10:49:30Z</time>
      </trkpt>
      <trkpt lat="30.66472202539444" lon="-4.521341985091567">
        <ele>634.10000000000002</ele>
        <time>2003-04-16T10:49:35Z</time>
      </trkpt>
      <trkpt lat="30.664665028452873" lon="-4.52113201841712">
        <ele>634.20000000000005</ele>
        <time>2003-04-16T10:49:38Z</time>
      </trkpt>
      <trkpt lat="30.664575006812811" lon="-4.520851979032159">
        <ele>633.70000000000005</ele>
        <time>2003-04-16T10:49:39Z</time>
      </trkpt>
      <trkpt lat="30.664403010159731" lon="-4.520065002143383">
        <ele>633.20000000000005</ele>
        <time>2003-04-16T10:49:45Z</time>
      </trkpt>
      <trkpt lat="30.664264960214496" lon="-4.518930008634925">
        <ele>632.39999999999998</ele>
        <time>2003-04-16T10:49:52Z</time>
      </trkpt>
      <trkpt lat="30.664158007130027" lon="-4.517847988754511">
        <ele>631.29999999999995</ele>
        <time>2003-04-16T10:49:57Z</time>
      </trkpt>
      <trkpt lat="30.664064968004823" lon="-4.517262009903789">
        <ele>631.10000000000002</ele>
        <time>2003-04-16T10:50:01Z</time>
      </trkpt>
      <trkpt lat="30.663970001041889" lon="-4.516396997496486">
        <ele>630.79999999999995</ele>
        <time>2003-04-16T10:50:09Z</time>
      </trkpt>
      <trkpt lat="30.663932031020522" lon="-4.516004975885153">
        <ele>630.89999999999998</ele>
        <time>2003-04-16T10:50:13Z</time>
      </trkpt>
      <trkpt lat="30.663873022422194" lon="-4.515455039218068">
        <ele>631.10000000000002</ele>
        <time>2003-04-16T10:50:17Z</time>
      </trkpt>
      <trkpt lat="30.66384200938046" lon="-4.514682982116938">
        <ele>631.20000000000005</ele>
        <time>2003-04-16T10:50:24Z</time>
      </trkpt>
      <trkpt lat="30.663819964975119" lon="-4.514475027099252">
        <ele>631.5</ele>
        <time>2003-04-16T10:50:27Z</time>
      </trkpt>
      <trkpt lat="30.663755005225539" lon="-4.514060039073229">
        <ele>631.79999999999995</ele>
        <time>2003-04-16T10:50:31Z</time>
      </trkpt>
      <trkpt lat="30.663704965263605" lon="-4.51318496838212">
        <ele>632.20000000000005</ele>
        <time>2003-04-16T10:50:39Z</time>
      </trkpt>
      <trkpt lat="30.663672024384141" lon="-4.512842986732721">
        <ele>632.10000000000002</ele>
        <time>2003-04-16T10:50:42Z</time>
      </trkpt>
      <trkpt lat="30.663646962493658" lon="-4.512648023664951">
        <ele>632.60000000000002</ele>
        <time>2003-04-16T10:50:43Z</time>
      </trkpt>
      <trkpt lat="30.663621984422207" lon="-4.512397991493344">
        <ele>631.5</ele>
        <time>2003-04-16T10:50:47Z</time>
      </trkpt>
      <trkpt lat="30.663619972765446" lon="-4.5122379809618">
        <ele>631.89999999999998</ele>
        <time>2003-04-16T10:50:48Z</time>
      </trkpt>
      <trkpt lat="30.663573034107685" lon="-4.512072019279003">
        <ele>632</ele>
        <time>2003-04-16T10:50:51Z</time>
      </trkpt>
      <trkpt lat="30.663470020517707" lon="-4.511672034859657">
        <ele>632.39999999999998</ele>
        <time>2003-04-16T10:50:55Z</time>
      </trkpt>
      <trkpt lat="30.663430038839579" lon="-4.51135796494782">
        <ele>631.89999999999998</ele>
        <time>2003-04-16T10:50:59Z</time>
      </trkpt>
      <trkpt lat="30.663419980555773" lon="-4.511129977181554">
        <ele>632.20000000000005</ele>
        <time>2003-04-16T10:51:00Z</time>
      </trkpt>
      <trkpt lat="30.66341302357614" lon="-4.51084298081696">
        <ele>631.89999999999998</ele>
        <time>2003-04-16T10:51:03Z</time>
      </trkpt>
      <trkpt lat="30.663438001647592" lon="-4.510073019191623">
        <ele>632.29999999999995</ele>
        <time>2003-04-16T10:51:11Z</time>
      </trkpt>
      <trkpt lat="30.66343498416245" lon="-4.509967993944883">
        <ele>632.39999999999998</ele>
        <time>2003-04-16T10:51:13Z</time>
      </trkpt>
      <trkpt lat="30.663431966677308" lon="-4.509642021730542">
        <ele>632.60000000000002</ele>
        <time>2003-04-16T10:51:15Z</time>
      </trkpt>
      <trkpt lat="30.663488041609526" lon="-4.509114967659116">
        <ele>632.89999999999998</ele>
        <time>2003-04-16T10:51:21Z</time>
      </trkpt>
      <trkpt lat="30.663500027731061" lon="-4.508837023749948">
        <ele>632.70000000000005</ele>
        <time>2003-04-16T10:51:23Z</time>
      </trkpt>
      <trkpt lat="30.663510002195835" lon="-4.508712971583009">
        <ele>633.20000000000005</ele>
        <time>2003-04-16T10:51:26Z</time>
      </trkpt>
      <trkpt lat="30.663510002195835" lon="-4.508408037945628">
        <ele>632.29999999999995</ele>
        <time>2003-04-16T10:51:30Z</time>
      </trkpt>
      <trkpt lat="30.663497010245919" lon="-4.50809296220541">
        <ele>632.60000000000002</ele>
        <time>2003-04-16T10:51:34Z</time>
      </trkpt>
      <trkpt lat="30.663488041609526" lon="-4.507903028279543">
        <ele>631.60000000000002</ele>
        <time>2003-04-16T10:51:36Z</time>
      </trkpt>
      <trkpt lat="30.663494998589158" lon="-4.507598010823131">
        <ele>631.89999999999998</ele>
        <time>2003-04-16T10:51:38Z</time>
      </trkpt>
      <trkpt lat="30.663549983873963" lon="-4.506947994232178">
        <ele>631.39999999999998</ele>
        <time>2003-04-16T10:51:45Z</time>
      </trkpt>
      <trkpt lat="30.663588037714362" lon="-4.506617998704314">
        <ele>631.5</ele>
        <time>2003-04-16T10:51:48Z</time>
      </trkpt>
      <trkpt lat="30.663592983037233" lon="-4.506454970687628">
        <ele>631.10000000000002</ele>
        <time>2003-04-16T10:51:49Z</time>
      </trkpt>
      <trkpt lat="30.663622990250587" lon="-4.50572700239718">
        <ele>630.60000000000002</ele>
        <time>2003-04-16T10:51:57Z</time>
      </trkpt>
      <trkpt lat="30.663612009957433" lon="-4.505421984940767">
        <ele>630.70000000000005</ele>
        <time>2003-04-16T10:52:01Z</time>
      </trkpt>
      <trkpt lat="30.663600023835897" lon="-4.50504002161324">
        <ele>629.79999999999995</ele>
        <time>2003-04-16T10:52:04Z</time>
      </trkpt>
      <trkpt lat="30.663643022999167" lon="-4.504871964454651">
        <ele>630</ele>
        <time>2003-04-16T10:52:07Z</time>
      </trkpt>
      <trkpt lat="30.663702031597495" lon="-4.504607012495399">
        <ele>630.10000000000002</ele>
        <time>2003-04-16T10:52:09Z</time>
      </trkpt>
      <trkpt lat="30.663688033819199" lon="-4.504412971436977">
        <ele>630.29999999999995</ele>
        <time>2003-04-16T10:52:12Z</time>
      </trkpt>
      <trkpt lat="30.663691973313689" lon="-4.504205016419292">
        <ele>630.5</ele>
        <time>2003-04-16T10:52:13Z</time>
      </trkpt>
      <trkpt lat="30.663715023547411" lon="-4.504027990624309">
        <ele>630.39999999999998</ele>
        <time>2003-04-16T10:52:16Z</time>
      </trkpt>
      <trkpt lat="30.663787024095654" lon="-4.503673017024994">
        <ele>630.20000000000005</ele>
        <time>2003-04-16T10:52:20Z</time>
      </trkpt>
      <trkpt lat="30.66377998329699" lon="-4.503521975129843">
        <ele>630.39999999999998</ele>
        <time>2003-04-16T10:52:21Z</time>
      </trkpt>
      <trkpt lat="30.663788029924035" lon="-4.503334974870086">
        <ele>630.29999999999995</ele>
        <time>2003-04-16T10:52:24Z</time>
      </trkpt>
      <trkpt lat="30.66377998329699" lon="-4.503228021785617">
        <ele>631.20000000000005</ele>
        <time>2003-04-16T10:52:24Z</time>
      </trkpt>
      <trkpt lat="30.663762968033552" lon="-4.502849997952581">
        <ele>629.89999999999998</ele>
        <time>2003-04-16T10:52:28Z</time>
      </trkpt>
      <trkpt lat="30.663781994953752" lon="-4.502710020169616">
        <ele>630.10000000000002</ele>
        <time>2003-04-16T10:52:31Z</time>
      </trkpt>
      <trkpt lat="30.663787024095654" lon="-4.502502987161279">
        <ele>630.29999999999995</ele>
        <time>2003-04-16T10:52:34Z</time>
      </trkpt>
      <trkpt lat="30.663798004388809" lon="-4.502295032143593">
        <ele>630.10000000000002</ele>
        <time>2003-04-16T10:52:35Z</time>
      </trkpt>
      <trkpt lat="30.663817031309009" lon="-4.501927988603711">
        <ele>630.10000000000002</ele>
        <time>2003-04-16T10:52:39Z</time>
      </trkpt>
      <trkpt lat="30.66388500854373" lon="-4.50089299120009">
        <ele>629.10000000000002</ele>
        <time>2003-04-16T10:52:47Z</time>
      </trkpt>
      <trkpt lat="30.663942005485296" lon="-4.500738009810448">
        <ele>628.39999999999998</ele>
        <time>2003-04-16T10:52:50Z</time>
      </trkpt>
      <trkpt lat="30.663949968293309" lon="-4.500547992065549">
        <ele>628.70000000000005</ele>
        <time>2003-04-16T10:52:51Z</time>
      </trkpt>
      <trkpt lat="30.663934964686632" lon="-4.500438021495938">
        <ele>628.70000000000005</ele>
        <time>2003-04-16T10:52:53Z</time>
      </trkpt>
      <trkpt lat="30.663921972736716" lon="-4.500127974897623">
        <ele>628.5</ele>
        <time>2003-04-16T10:52:55Z</time>
      </trkpt>
      <trkpt lat="30.663928007707" lon="-4.499763026833534">
        <ele>628.70000000000005</ele>
        <time>2003-04-16T10:52:58Z</time>
      </trkpt>
      <trkpt lat="30.664067985489964" lon="-4.498727023601532">
        <ele>627.79999999999995</ele>
        <time>2003-04-16T10:53:06Z</time>
      </trkpt>
      <trkpt lat="30.66429496742785" lon="-4.497662018984556">
        <ele>627.70000000000005</ele>
        <time>2003-04-16T10:53:14Z</time>
      </trkpt>
      <trkpt lat="30.664480039849877" lon="-4.496909994632006">
        <ele>627.5</ele>
        <time>2003-04-16T10:53:20Z</time>
      </trkpt>
      <trkpt lat="30.664762007072568" lon="-4.49584499001503">
        <ele>627.60000000000002</ele>
        <time>2003-04-16T10:53:26Z</time>
      </trkpt>
      <trkpt lat="30.665022013708949" lon="-4.494828013703227">
        <ele>628.10000000000002</ele>
        <time>2003-04-16T10:53:33Z</time>
      </trkpt>
      <trkpt lat="30.665298029780388" lon="-4.493733001872897">
        <ele>628.70000000000005</ele>
        <time>2003-04-16T10:53:38Z</time>
      </trkpt>
      <trkpt lat="30.665472038090229" lon="-4.493075022473931">
        <ele>629.20000000000005</ele>
        <time>2003-04-16T10:53:42Z</time>
      </trkpt>
      <trkpt lat="30.665732966735959" lon="-4.492053017020226">
        <ele>629.60000000000002</ele>
        <time>2003-04-16T10:53:49Z</time>
      </trkpt>
      <trkpt lat="30.665988028049469" lon="-4.491039980202913">
        <ele>629.29999999999995</ele>
        <time>2003-04-16T10:53:55Z</time>
      </trkpt>
      <trkpt lat="30.666303019970655" lon="-4.489885037764907">
        <ele>628.39999999999998</ele>
        <time>2003-04-16T10:54:01Z</time>
      </trkpt>
      <trkpt lat="30.66657199524343" lon="-4.488796982914209">
        <ele>629</ele>
        <time>2003-04-16T10:54:08Z</time>
      </trkpt>
      <trkpt lat="30.666832001879811" lon="-4.487829962745309">
        <ele>629.79999999999995</ele>
        <time>2003-04-16T10:54:14Z</time>
      </trkpt>
      <trkpt lat="30.667005004361272" lon="-4.487152034416795">
        <ele>630.79999999999995</ele>
        <time>2003-04-16T10:54:18Z</time>
      </trkpt>
      <trkpt lat="30.667174989357591" lon="-4.486496988683939">
        <ele>631.20000000000005</ele>
        <time>2003-04-16T10:54:22Z</time>
      </trkpt>
      <trkpt lat="30.66745201125741" lon="-4.485457967966795">
        <ele>632.29999999999995</ele>
        <time>2003-04-16T10:54:28Z</time>
      </trkpt>
      <trkpt lat="30.667749987915158" lon="-4.484333032742143">
        <ele>632.79999999999995</ele>
        <time>2003-04-16T10:54:35Z</time>
      </trkpt>
      <trkpt lat="30.668052993714809" lon="-4.483207007870078">
        <ele>632.10000000000002</ele>
        <time>2003-04-16T10:54:42Z</time>
      </trkpt>
      <trkpt lat="30.668124994263053" lon="-4.482948007062078">
        <ele>632.29999999999995</ele>
        <time>2003-04-16T10:54:43Z</time>
      </trkpt>
      <trkpt lat="30.668182997033" lon="-4.482729993760586">
        <ele>632.29999999999995</ele>
        <time>2003-04-16T10:54:46Z</time>
      </trkpt>
      <trkpt lat="30.668303025886416" lon="-4.482262032106519">
        <ele>631.70000000000005</ele>
        <time>2003-04-16T10:54:50Z</time>
      </trkpt>
      <trkpt lat="30.668366979807615" lon="-4.482000013813376">
        <ele>632.20000000000005</ele>
        <time>2003-04-16T10:54:51Z</time>
      </trkpt>
      <trkpt lat="30.668639978393912" lon="-4.480965016409755">
        <ele>632</ele>
        <time>2003-04-16T10:54:59Z</time>
      </trkpt>
      <trkpt lat="30.668917000293732" lon="-4.479911997914314">
        <ele>632.20000000000005</ele>
        <time>2003-04-16T10:55:08Z</time>
      </trkpt>
      <trkpt lat="30.669197961688042" lon="-4.478883035480976">
        <ele>631</ele>
        <time>2003-04-16T10:55:14Z</time>
      </trkpt>
      <trkpt lat="30.669476995244622" lon="-4.477811995893717">
        <ele>630.10000000000002</ele>
        <time>2003-04-16T10:55:21Z</time>
      </trkpt>
      <trkpt lat="30.669629964977503" lon="-4.477415028959513">
        <ele>629.89999999999998</ele>
        <time>2003-04-16T10:55:25Z</time>
      </trkpt>
      <trkpt lat="30.669806990772486" lon="-4.477191986516118">
        <ele>629.60000000000002</ele>
        <time>2003-04-16T10:55:26Z</time>
      </trkpt>
      <trkpt lat="30.670430017635226" lon="-4.476397968828678">
        <ele>629.5</ele>
        <time>2003-04-16T10:55:33Z</time>
      </trkpt>
      <trkpt lat="30.670752972364426" lon="-4.475973006337881">
        <ele>629.39999999999998</ele>
        <time>2003-04-16T10:55:37Z</time>
      </trkpt>
      <trkpt lat="30.671329982578754" lon="-4.475174965336919">
        <ele>629.39999999999998</ele>
        <time>2003-04-16T10:55:43Z</time>
      </trkpt>
      <trkpt lat="30.671723010018468" lon="-4.474714966490865">
        <ele>629.70000000000005</ele>
        <time>2003-04-16T10:55:48Z</time>
      </trkpt>
      <trkpt lat="30.671912021934986" lon="-4.474582029506564">
        <ele>629.79999999999995</ele>
        <time>2003-04-16T10:55:49Z</time>
      </trkpt>
      <trkpt lat="30.672089969739318" lon="-4.474426964297891">
        <ele>629.70000000000005</ele>
        <time>2003-04-16T10:55:52Z</time>
      </trkpt>
      <trkpt lat="30.672488026320934" lon="-4.474066961556673">
        <ele>630.10000000000002</ele>
        <time>2003-04-16T10:55:56Z</time>
      </trkpt>
      <trkpt lat="30.672817016020417" lon="-4.4737150054425">
        <ele>629.5</ele>
        <time>2003-04-16T10:56:02Z</time>
      </trkpt>
      <trkpt lat="30.672954982146621" lon="-4.473563041538">
        <ele>629.39999999999998</ele>
        <time>2003-04-16T10:56:04Z</time>
      </trkpt>
      <trkpt lat="30.673086997121572" lon="-4.473421974107623">
        <ele>629.60000000000002</ele>
        <time>2003-04-16T10:56:07Z</time>
      </trkpt>
      <trkpt lat="30.673669958487153" lon="-4.472737004980445">
        <ele>629.89999999999998</ele>
        <time>2003-04-16T10:56:15Z</time>
      </trkpt>
      <trkpt lat="30.674021998420358" lon="-4.472346995025873">
        <ele>630.10000000000002</ele>
        <time>2003-04-16T10:56:20Z</time>
      </trkpt>
      <trkpt lat="30.674302959814668" lon="-4.472101991996169">
        <ele>630</ele>
        <time>2003-04-16T10:56:24Z</time>
      </trkpt>
      <trkpt lat="30.674400022253394" lon="-4.472078019753099">
        <ele>630.10000000000002</ele>
        <time>2003-04-16T10:56:26Z</time>
      </trkpt>
      <trkpt lat="30.674787014722824" lon="-4.471960002556443">
        <ele>629.60000000000002</ele>
        <time>2003-04-16T10:56:30Z</time>
      </trkpt>
      <trkpt lat="30.674882987514138" lon="-4.471897976472974">
        <ele>629.89999999999998</ele>
        <time>2003-04-16T10:56:31Z</time>
      </trkpt>
      <trkpt lat="30.675056995823979" lon="-4.471757998690009">
        <ele>630.10000000000002</ele>
        <time>2003-04-16T10:56:33Z</time>
      </trkpt>
      <trkpt lat="30.675171995535493" lon="-4.471617015078664">
        <ele>630</ele>
        <time>2003-04-16T10:56:34Z</time>
      </trkpt>
      <trkpt lat="30.675750011578202" lon="-4.47072702459991">
        <ele>630.60000000000002</ele>
        <time>2003-04-16T10:56:45Z</time>
      </trkpt>
      <trkpt lat="30.676037007942796" lon="-4.470261996611953">
        <ele>630.29999999999995</ele>
        <time>2003-04-16T10:56:50Z</time>
      </trkpt>
      <trkpt lat="30.676102973520756" lon="-4.469987992197275">
        <ele>630.5</ele>
        <time>2003-04-16T10:56:51Z</time>
      </trkpt>
      <trkpt lat="30.676404973492026" lon="-4.469107976183295">
        <ele>630.29999999999995</ele>
        <time>2003-04-16T10:56:58Z</time>
      </trkpt>
      <trkpt lat="30.67677503451705" lon="-4.468052024021745">
        <ele>630.79999999999995</ele>
        <time>2003-04-16T10:57:05Z</time>
      </trkpt>
      <trkpt lat="30.676876958459616" lon="-4.467650027945638">
        <ele>630.79999999999995</ele>
        <time>2003-04-16T10:57:08Z</time>
      </trkpt>
      <trkpt lat="30.676866983994842" lon="-4.467412987723947">
        <ele>630.89999999999998</ele>
        <time>2003-04-16T10:57:09Z</time>
      </trkpt>
      <trkpt lat="30.676862960681319" lon="-4.467205032706261">
        <ele>630.60000000000002</ele>
        <time>2003-04-16T10:57:12Z</time>
      </trkpt>
      <trkpt lat="30.676922975108027" lon="-4.467018032446504">
        <ele>632</ele>
        <time>2003-04-16T10:57:13Z</time>
      </trkpt>
      <trkpt lat="30.676964968442917" lon="-4.466872019693255">
        <ele>631.39999999999998</ele>
        <time>2003-04-16T10:57:16Z</time>
      </trkpt>
      <trkpt lat="30.676987012848258" lon="-4.466622993350029">
        <ele>631.39999999999998</ele>
        <time>2003-04-16T10:57:18Z</time>
      </trkpt>
      <trkpt lat="30.677021965384483" lon="-4.466391988098621">
        <ele>631.79999999999995</ele>
        <time>2003-04-16T10:57:21Z</time>
      </trkpt>
      <trkpt lat="30.677109975367785" lon="-4.466265002265573">
        <ele>631.70000000000005</ele>
        <time>2003-04-16T10:57:24Z</time>
      </trkpt>
      <trkpt lat="30.677175018936396" lon="-4.466144973412156">
        <ele>631.60000000000002</ele>
        <time>2003-04-16T10:57:25Z</time>
      </trkpt>
      <trkpt lat="30.677222963422537" lon="-4.465999966487289">
        <ele>631.29999999999995</ele>
        <time>2003-04-16T10:57:28Z</time>
      </trkpt>
      <trkpt lat="30.67725196480751" lon="-4.465802991762757">
        <ele>631.70000000000005</ele>
        <time>2003-04-16T10:57:31Z</time>
      </trkpt>
      <trkpt lat="30.677284989506006" lon="-4.465663013979793">
        <ele>631.60000000000002</ele>
        <time>2003-04-16T10:57:33Z</time>
      </trkpt>
      <trkpt lat="30.677348021417856" lon="-4.465512977913022">
        <ele>631.29999999999995</ele>
        <time>2003-04-16T10:57:47Z</time>
      </trkpt>
      <trkpt lat="30.677402000874281" lon="-4.465356990695">
        <ele>631.60000000000002</ele>
        <time>2003-04-16T10:57:54Z</time>
      </trkpt>
      <trkpt lat="30.677475007250905" lon="-4.465265041217208">
        <ele>631.89999999999998</ele>
        <time>2003-04-16T10:57:56Z</time>
      </trkpt>
      <trkpt lat="30.677565028890967" lon="-4.465212989598513">
        <ele>631.70000000000005</ele>
        <time>2003-04-16T10:57:59Z</time>
      </trkpt>
      <trkpt lat="30.677742976695299" lon="-4.465281972661614">
        <ele>630.79999999999995</ele>
        <time>2003-04-16T10:58:18Z</time>
      </trkpt>
      <trkpt lat="30.677856970578432" lon="-4.46525196544826">
        <ele>631.10000000000002</ele>
        <time>2003-04-16T10:58:19Z</time>
      </trkpt>
      <trkpt lat="30.677956966683269" lon="-4.465192034840584">
        <ele>631.20000000000005</ele>
        <time>2003-04-16T10:58:22Z</time>
      </trkpt>
      <trkpt lat="30.678059980273247" lon="-4.465078040957451">
        <ele>631.10000000000002</ele>
        <time>2003-04-16T10:58:23Z</time>
      </trkpt>
      <trkpt lat="30.678185038268566" lon="-4.464892968535423">
        <ele>631.39999999999998</ele>
        <time>2003-04-16T10:58:26Z</time>
      </trkpt>
      <trkpt lat="30.678308000788093" lon="-4.464776962995529">
        <ele>631</ele>
        <time>2003-04-16T10:58:29Z</time>
      </trkpt>
      <trkpt lat="30.678788032382727" lon="-4.464359963312745">
        <ele>632.29999999999995</ele>
        <time>2003-04-16T10:58:35Z</time>
      </trkpt>
      <trkpt lat="30.679202014580369" lon="-4.463850008323789">
        <ele>632</ele>
        <time>2003-04-16T10:58:42Z</time>
      </trkpt>
      <trkpt lat="30.67933302372694" lon="-4.463705001398921">
        <ele>632.29999999999995</ele>
        <time>2003-04-16T10:58:46Z</time>
      </trkpt>
      <trkpt lat="30.679435031488538" lon="-4.463617997244">
        <ele>632.29999999999995</ele>
        <time>2003-04-16T10:58:48Z</time>
      </trkpt>
      <trkpt lat="30.679493034258485" lon="-4.463471984490752">
        <ele>632.10000000000002</ele>
        <time>2003-04-16T10:58:49Z</time>
      </trkpt>
      <trkpt lat="30.679488005116582" lon="-4.463299987837672">
        <ele>632.29999999999995</ele>
        <time>2003-04-16T10:58:52Z</time>
      </trkpt>
      <trkpt lat="30.679456992074847" lon="-4.463160010054708">
        <ele>631.89999999999998</ele>
        <time>2003-04-16T10:58:53Z</time>
      </trkpt>
      <trkpt lat="30.679403012618423" lon="-4.463052973151207">
        <ele>632.60000000000002</ele>
        <time>2003-04-16T10:58:56Z</time>
      </trkpt>
      <trkpt lat="30.679350038990378" lon="-4.462954988703132">
        <ele>632.5</ele>
        <time>2003-04-16T10:58:57Z</time>
      </trkpt>
      <trkpt lat="30.679339980706573" lon="-4.462849963456392">
        <ele>633.70000000000005</ele>
        <time>2003-04-16T10:59:02Z</time>
      </trkpt>
      <trkpt lat="30.679318020120263" lon="-4.462645025923848">
        <ele>634.10000000000002</ele>
        <time>2003-04-16T10:59:21Z</time>
      </trkpt>
      <trkpt lat="30.679320031777024" lon="-4.462494989857078">
        <ele>633.39999999999998</ele>
        <time>2003-04-16T10:59:24Z</time>
      </trkpt>
      <trkpt lat="30.679384991526604" lon="-4.462059969082475">
        <ele>632.39999999999998</ele>
        <time>2003-04-16T10:59:32Z</time>
      </trkpt>
      <trkpt lat="30.67944198846817" lon="-4.461957961320877">
        <ele>632.29999999999995</ele>
        <time>2003-04-16T10:59:33Z</time>
      </trkpt>
      <trkpt lat="30.679608033969998" lon="-4.461852014064789">
        <ele>679</ele>
        <time>2003-04-16T11:01:35Z</time>
      </trkpt>
      <trkpt lat="30.679692020639777" lon="-4.461742965504527">
        <ele>632.60000000000002</ele>
        <time>2003-04-16T11:01:39Z</time>
      </trkpt>
      <trkpt lat="30.679857982322574" lon="-4.461737014353275">
        <ele>634.60000000000002</ele>
        <time>2003-04-16T11:01:42Z</time>
      </trkpt>
      <trkpt lat="30.680002989247441" lon="-4.461672976613045">
        <ele>636.70000000000005</ele>
        <time>2003-04-16T11:01:43Z</time>
      </trkpt>
      <trkpt lat="30.680120000615716" lon="-4.461595024913549">
        <ele>638.10000000000002</ele>
        <time>2003-04-16T11:01:46Z</time>
      </trkpt>
      <trkpt lat="30.680247992277145" lon="-4.461577003821731">
        <ele>639</ele>
        <time>2003-04-16T11:01:47Z</time>
      </trkpt>
      <trkpt lat="30.680357962846756" lon="-4.461484970524907">
        <ele>638.79999999999995</ele>
        <time>2003-04-16T11:01:50Z</time>
      </trkpt>
      <trkpt lat="30.680487966164947" lon="-4.461378017440438">
        <ele>638.60000000000002</ele>
        <time>2003-04-16T11:01:51Z</time>
      </trkpt>
      <trkpt lat="30.680640013888478" lon="-4.461320014670491">
        <ele>638.29999999999995</ele>
        <time>2003-04-16T11:01:54Z</time>
      </trkpt>
      <trkpt lat="30.680785020813346" lon="-4.461247008293867">
        <ele>638.10000000000002</ele>
        <time>2003-04-16T11:01:55Z</time>
      </trkpt>
      <trkpt lat="30.681132031604648" lon="-4.461077023297548">
        <ele>637.70000000000005</ele>
        <time>2003-04-16T11:02:01Z</time>
      </trkpt>
      <trkpt lat="30.681333029642701" lon="-4.461003011092544">
        <ele>637.10000000000002</ele>
        <time>2003-04-16T11:02:03Z</time>
      </trkpt>
      <trkpt lat="30.681522963568568" lon="-4.46086797863245">
        <ele>637.29999999999995</ele>
        <time>2003-04-16T11:02:06Z</time>
      </trkpt>
      <trkpt lat="30.681684985756874" lon="-4.460851969197393">
        <ele>637.20000000000005</ele>
        <time>2003-04-16T11:02:09Z</time>
      </trkpt>
      <trkpt lat="30.681857988238335" lon="-4.460800001397729">
        <ele>637.20000000000005</ele>
        <time>2003-04-16T11:02:10Z</time>
      </trkpt>
      <trkpt lat="30.681929988786578" lon="-4.460724983364344">
        <ele>637.29999999999995</ele>
        <time>2003-04-16T11:02:11Z</time>
      </trkpt>
      <trkpt lat="30.681987991556525" lon="-4.460633033886552">
        <ele>637.29999999999995</ele>
        <time>2003-04-16T11:02:13Z</time>
      </trkpt>
      <trkpt lat="30.682059992104769" lon="-4.460451984778047">
        <ele>638</ele>
        <time>2003-04-16T11:02:14Z</time>
      </trkpt>
      <trkpt lat="30.682126963511109" lon="-4.460375038906932">
        <ele>637.79999999999995</ele>
        <time>2003-04-16T11:02:15Z</time>
      </trkpt>
      <trkpt lat="30.682274987921119" lon="-4.460246963426471">
        <ele>638</ele>
        <time>2003-04-16T11:02:18Z</time>
      </trkpt>
      <trkpt lat="30.682367021217942" lon="-4.46020295843482">
        <ele>637.60000000000002</ele>
        <time>2003-04-16T11:02:18Z</time>
      </trkpt>
      <trkpt lat="30.682861972600222" lon="-4.46002802811563">
        <ele>637.10000000000002</ele>
        <time>2003-04-16T11:02:24Z</time>
      </trkpt>
      <trkpt lat="30.68302801810205" lon="-4.459989974275231">
        <ele>637</ele>
        <time>2003-04-16T11:02:25Z</time>
      </trkpt>
      <trkpt lat="30.684078019112349" lon="-4.459422016516328">
        <ele>636.89999999999998</ele>
        <time>2003-04-16T11:02:41Z</time>
      </trkpt>
      <trkpt lat="30.684244986623526" lon="-4.459295030683279">
        <ele>636.89999999999998</ele>
        <time>2003-04-16T11:02:44Z</time>
      </trkpt>
      <trkpt lat="30.684342971071601" lon="-4.459154969081283">
        <ele>637.10000000000002</ele>
        <time>2003-04-16T11:02:45Z</time>
      </trkpt>
      <trkpt lat="30.684461994096637" lon="-4.458937039598823">
        <ele>637.60000000000002</ele>
        <time>2003-04-16T11:02:49Z</time>
      </trkpt>
      <trkpt lat="30.684642037376761" lon="-4.458627998828888">
        <ele>636.60000000000002</ele>
        <time>2003-04-16T11:02:53Z</time>
      </trkpt>
      <trkpt lat="30.684749996289611" lon="-4.458542000502348">
        <ele>637.89999999999998</ele>
        <time>2003-04-16T11:02:56Z</time>
      </trkpt>
      <trkpt lat="30.684804981574416" lon="-4.458402022719383">
        <ele>637.5</ele>
        <time>2003-04-16T11:02:57Z</time>
      </trkpt>
      <trkpt lat="30.684843035414815" lon="-4.458272019401193">
        <ele>637.79999999999995</ele>
        <time>2003-04-16T11:03:00Z</time>
      </trkpt>
      <trkpt lat="30.684823002666235" lon="-4.458142016083002">
        <ele>637.79999999999995</ele>
        <time>2003-04-16T11:03:01Z</time>
      </trkpt>
      <trkpt lat="30.684829959645867" lon="-4.458017963916063">
        <ele>637.70000000000005</ele>
        <time>2003-04-16T11:03:04Z</time>
      </trkpt>
      <trkpt lat="30.684786960482597" lon="-4.457864994183183">
        <ele>637.5</ele>
        <time>2003-04-16T11:03:05Z</time>
      </trkpt>
      <trkpt lat="30.684691993519664" lon="-4.45768503472209">
        <ele>637.5</ele>
        <time>2003-04-16T11:03:08Z</time>
      </trkpt>
      <trkpt lat="30.684565007686615" lon="-4.45762200281024">
        <ele>637.60000000000002</ele>
        <time>2003-04-16T11:03:11Z</time>
      </trkpt>
      <trkpt lat="30.68438496440649" lon="-4.45755997672677">
        <ele>638</ele>
        <time>2003-04-16T11:03:14Z</time>
      </trkpt>
      <trkpt lat="30.684227971360087" lon="-4.457523012533784">
        <ele>638.20000000000005</ele>
        <time>2003-04-16T11:03:16Z</time>
      </trkpt>
      <trkpt lat="30.684035019949079" lon="-4.45747297257185">
        <ele>638.60000000000002</ele>
        <time>2003-04-16T11:03:19Z</time>
      </trkpt>
      <trkpt lat="30.683917002752423" lon="-4.457422010600567">
        <ele>638.29999999999995</ele>
        <time>2003-04-16T11:03:20Z</time>
      </trkpt>
      <trkpt lat="30.683775013312697" lon="-4.457410024479032">
        <ele>638.89999999999998</ele>
        <time>2003-04-16T11:03:23Z</time>
      </trkpt>
      <trkpt lat="30.683635035529733" lon="-4.457384962588549">
        <ele>638.70000000000005</ele>
        <time>2003-04-16T11:03:24Z</time>
      </trkpt>
      <trkpt lat="30.683511989191175" lon="-4.457326959818602">
        <ele>638.89999999999998</ele>
        <time>2003-04-16T11:03:27Z</time>
      </trkpt>
      <trkpt lat="30.683375028893352" lon="-4.457312040030956">
        <ele>639.5</ele>
        <time>2003-04-16T11:03:28Z</time>
      </trkpt>
      <trkpt lat="30.682917041704059" lon="-4.457286978140473">
        <ele>639.39999999999998</ele>
        <time>2003-04-16T11:03:35Z</time>
      </trkpt>
      <trkpt lat="30.682680001482368" lon="-4.457238027825952">
        <ele>639.5</ele>
        <time>2003-04-16T11:03:38Z</time>
      </trkpt>
      <trkpt lat="30.68245000205934" lon="-4.457111964002252">
        <ele>639.20000000000005</ele>
        <time>2003-04-16T11:03:41Z</time>
      </trkpt>
      <trkpt lat="30.681901993229985" lon="-4.456799989566207">
        <ele>639.10000000000002</ele>
        <time>2003-04-16T11:03:47Z</time>
      </trkpt>
      <trkpt lat="30.681651961058378" lon="-4.456684989854693">
        <ele>639</ele>
        <time>2003-04-16T11:03:51Z</time>
      </trkpt>
      <trkpt lat="30.681547019630671" lon="-4.456622963771224">
        <ele>639.10000000000002</ele>
        <time>2003-04-16T11:03:54Z</time>
      </trkpt>
      <trkpt lat="30.6813969835639" lon="-4.456560015678406">
        <ele>638.89999999999998</ele>
        <time>2003-04-16T11:03:57Z</time>
      </trkpt>
      <trkpt lat="30.681291958317161" lon="-4.456512993201613">
        <ele>639.20000000000005</ele>
        <time>2003-04-16T11:03:58Z</time>
      </trkpt>
      <trkpt lat="30.681170001626015" lon="-4.456443004310131">
        <ele>638.89999999999998</ele>
        <time>2003-04-16T11:04:01Z</time>
      </trkpt>
      <trkpt lat="30.681032035499811" lon="-4.456400005146861">
        <ele>638.70000000000005</ele>
        <time>2003-04-16T11:04:02Z</time>
      </trkpt>
      <trkpt lat="30.68060296587646" lon="-4.456258015707135">
        <ele>638.39999999999998</ele>
        <time>2003-04-16T11:04:09Z</time>
      </trkpt>
      <trkpt lat="30.680492995306849" lon="-4.45616296492517">
        <ele>638.20000000000005</ele>
        <time>2003-04-16T11:04:10Z</time>
      </trkpt>
      <trkpt lat="30.680347988381982" lon="-4.456121977418661">
        <ele>638.10000000000002</ele>
        <time>2003-04-16T11:04:13Z</time>
      </trkpt>
      <trkpt lat="30.680217985063791" lon="-4.456057017669082">
        <ele>638.29999999999995</ele>
        <time>2003-04-16T11:04:14Z</time>
      </trkpt>
      <trkpt lat="30.680099967867136" lon="-4.456021981313825">
        <ele>638</ele>
        <time>2003-04-16T11:04:17Z</time>
      </trkpt>
      <trkpt lat="30.679997960105538" lon="-4.456040002405644">
        <ele>637.79999999999995</ele>
        <time>2003-04-16T11:04:18Z</time>
      </trkpt>
      <trkpt lat="30.679884972050786" lon="-4.455985017120838">
        <ele>637.70000000000005</ele>
        <time>2003-04-16T11:04:21Z</time>
      </trkpt>
      <trkpt lat="30.679780030623078" lon="-4.455883009359241">
        <ele>637.60000000000002</ele>
        <time>2003-04-16T11:04:22Z</time>
      </trkpt>
      <trkpt lat="30.679620020091534" lon="-4.455752000212669">
        <ele>637.10000000000002</ele>
        <time>2003-04-16T11:04:25Z</time>
      </trkpt>
      <trkpt lat="30.67952698096633" lon="-4.455685028806329">
        <ele>637</ele>
        <time>2003-04-16T11:04:28Z</time>
      </trkpt>
      <trkpt lat="30.679445005953312" lon="-4.455602969974279">
        <ele>636.79999999999995</ele>
        <time>2003-04-16T11:04:29Z</time>
      </trkpt>
      <trkpt lat="30.679347021505237" lon="-4.455522000789642">
        <ele>636.39999999999998</ele>
        <time>2003-04-16T11:04:33Z</time>
      </trkpt>
      <trkpt lat="30.679215006530285" lon="-4.455438014119864">
        <ele>636</ele>
        <time>2003-04-16T11:04:36Z</time>
      </trkpt>
      <trkpt lat="30.679102018475533" lon="-4.455413036048412">
        <ele>636</ele>
        <time>2003-04-16T11:04:37Z</time>
      </trkpt>
      <trkpt lat="30.678981989622116" lon="-4.455332988873124">
        <ele>635.89999999999998</ele>
        <time>2003-04-16T11:04:40Z</time>
      </trkpt>
      <trkpt lat="30.678742015734315" lon="-4.455141965299845">
        <ele>635.70000000000005</ele>
        <time>2003-04-16T11:04:44Z</time>
      </trkpt>
      <trkpt lat="30.678457031026483" lon="-4.455046998336911">
        <ele>635.5</ele>
        <time>2003-04-16T11:04:48Z</time>
      </trkpt>
      <trkpt lat="30.67830003798008" lon="-4.455050015822053">
        <ele>635.29999999999995</ele>
        <time>2003-04-16T11:04:49Z</time>
      </trkpt>
      <trkpt lat="30.67800298333168" lon="-4.455052027478814">
        <ele>635.10000000000002</ele>
        <time>2003-04-16T11:04:53Z</time>
      </trkpt>
      <trkpt lat="30.67755002528429" lon="-4.45500198751688">
        <ele>634.89999999999998</ele>
        <time>2003-04-16T11:05:00Z</time>
      </trkpt>
      <trkpt lat="30.677408035844564" lon="-4.454937027767301">
        <ele>634.89999999999998</ele>
        <time>2003-04-16T11:05:02Z</time>
      </trkpt>
      <trkpt lat="30.677199997007847" lon="-4.454847006127238">
        <ele>634.89999999999998</ele>
        <time>2003-04-16T11:05:04Z</time>
      </trkpt>
      <trkpt lat="30.6769900303334" lon="-4.454777017235756">
        <ele>634.89999999999998</ele>
        <time>2003-04-16T11:05:07Z</time>
      </trkpt>
      <trkpt lat="30.676851980388165" lon="-4.454737035557628">
        <ele>635</ele>
        <time>2003-04-16T11:05:10Z</time>
      </trkpt>
      <trkpt lat="30.676728012040257" lon="-4.454672997817397">
        <ele>634.79999999999995</ele>
        <time>2003-04-16T11:05:11Z</time>
      </trkpt>
      <trkpt lat="30.676587028428912" lon="-4.454586999490857">
        <ele>634.60000000000002</ele>
        <time>2003-04-16T11:05:15Z</time>
      </trkpt>
      <trkpt lat="30.676534976810217" lon="-4.454471999779344">
        <ele>634.89999999999998</ele>
        <time>2003-04-16T11:05:16Z</time>
      </trkpt>
      <trkpt lat="30.676532965153456" lon="-4.454311989247799">
        <ele>634.60000000000002</ele>
        <time>2003-04-16T11:05:19Z</time>
      </trkpt>
      <trkpt lat="30.676555009558797" lon="-4.454173017293215">
        <ele>634.5</ele>
        <time>2003-04-16T11:05:20Z</time>
      </trkpt>
      <trkpt lat="30.676602032035589" lon="-4.454051982611418">
        <ele>634.20000000000005</ele>
        <time>2003-04-16T11:05:23Z</time>
      </trkpt>
      <trkpt lat="30.676622986793518" lon="-4.45390697568655">
        <ele>633.89999999999998</ele>
        <time>2003-04-16T11:05:24Z</time>
      </trkpt>
      <trkpt lat="30.676581999287009" lon="-4.453761968761683">
        <ele>633.89999999999998</ele>
        <time>2003-04-16T11:05:27Z</time>
      </trkpt>
      <trkpt lat="30.676576970145106" lon="-4.453598018735647">
        <ele>633.89999999999998</ele>
        <time>2003-04-16T11:05:29Z</time>
      </trkpt>
      <trkpt lat="30.676557021215558" lon="-4.453291995450854">
        <ele>633.89999999999998</ele>
        <time>2003-04-16T11:05:33Z</time>
      </trkpt>
      <trkpt lat="30.676613012328744" lon="-4.453119998797774">
        <ele>633.60000000000002</ele>
        <time>2003-04-16T11:05:34Z</time>
      </trkpt>
      <trkpt lat="30.676727006211877" lon="-4.452982032671571">
        <ele>633.89999999999998</ele>
        <time>2003-04-16T11:05:37Z</time>
      </trkpt>
      <trkpt lat="30.676862960681319" lon="-4.452872984111309">
        <ele>634.60000000000002</ele>
        <time>2003-04-16T11:05:38Z</time>
      </trkpt>
      <trkpt lat="30.676975026726723" lon="-4.452757984399796">
        <ele>635.79999999999995</ele>
        <time>2003-04-16T11:05:41Z</time>
      </trkpt>
      <trkpt lat="30.677060019224882" lon="-4.452624963596463">
        <ele>635.60000000000002</ele>
        <time>2003-04-16T11:05:42Z</time>
      </trkpt>
      <trkpt lat="30.677111987024546" lon="-4.452457996085286">
        <ele>634.89999999999998</ele>
        <time>2003-04-16T11:05:45Z</time>
      </trkpt>
      <trkpt lat="30.6771229673177" lon="-4.45229304023087">
        <ele>633.39999999999998</ele>
        <time>2003-04-16T11:05:46Z</time>
      </trkpt>
      <trkpt lat="30.677045015618205" lon="-4.452173011377454">
        <ele>633.39999999999998</ele>
        <time>2003-04-16T11:05:49Z</time>
      </trkpt>
      <trkpt lat="30.676921969279647" lon="-4.452063040807843">
        <ele>633.60000000000002</ele>
        <time>2003-04-16T11:05:51Z</time>
      </trkpt>
      <trkpt lat="30.67686203867197" lon="-4.451957009732723">
        <ele>633.89999999999998</ele>
        <time>2003-04-16T11:07:11Z</time>
      </trkpt>
      <trkpt lat="30.676803030073643" lon="-4.451832035556436">
        <ele>634.10000000000002</ele>
        <time>2003-04-16T11:07:14Z</time>
      </trkpt>
      <trkpt lat="30.676772017031908" lon="-4.451732039451599">
        <ele>633.5</ele>
        <time>2003-04-16T11:07:15Z</time>
      </trkpt>
      <trkpt lat="30.676709990948439" lon="-4.45145501755178">
        <ele>632.60000000000002</ele>
        <time>2003-04-16T11:07:22Z</time>
      </trkpt>
      <trkpt lat="30.676672020927072" lon="-4.451098032295704">
        <ele>632.79999999999995</ele>
        <time>2003-04-16T11:07:30Z</time>
      </trkpt>
      <trkpt lat="30.676637990400195" lon="-4.450853029266">
        <ele>632.79999999999995</ele>
        <time>2003-04-16T11:07:33Z</time>
      </trkpt>
      <trkpt lat="30.676655005663633" lon="-4.450665023177862">
        <ele>632.70000000000005</ele>
        <time>2003-04-16T11:07:34Z</time>
      </trkpt>
      <trkpt lat="30.67673304118216" lon="-4.450242994353175">
        <ele>632.79999999999995</ele>
        <time>2003-04-16T11:07:38Z</time>
      </trkpt>
      <trkpt lat="30.677003022283316" lon="-4.449207996949554">
        <ele>633.39999999999998</ele>
        <time>2003-04-16T11:07:49Z</time>
      </trkpt>
      <trkpt lat="30.677160015329719" lon="-4.448784962296486">
        <ele>633.70000000000005</ele>
        <time>2003-04-16T11:07:53Z</time>
      </trkpt>
      <trkpt lat="30.677212988957763" lon="-4.448586981743574">
        <ele>632.70000000000005</ele>
        <time>2003-04-16T11:07:54Z</time>
      </trkpt>
      <trkpt lat="30.677215000614524" lon="-4.448441974818707">
        <ele>634.39999999999998</ele>
        <time>2003-04-16T11:07:57Z</time>
      </trkpt>
      <trkpt lat="30.677267974242568" lon="-4.448265032842755">
        <ele>632.79999999999995</ele>
        <time>2003-04-16T11:07:58Z</time>
      </trkpt>
      <trkpt lat="30.67733796313405" lon="-4.448020029813051">
        <ele>632.70000000000005</ele>
        <time>2003-04-16T11:08:01Z</time>
      </trkpt>
      <trkpt lat="30.677366964519024" lon="-4.447900000959635">
        <ele>633.10000000000002</ele>
        <time>2003-04-16T11:08:02Z</time>
      </trkpt>
      <trkpt lat="30.677426978945732" lon="-4.447633037343621">
        <ele>633.39999999999998</ele>
        <time>2003-04-16T11:08:05Z</time>
      </trkpt>
      <trkpt lat="30.677663013339043" lon="-4.44659803994">
        <ele>633.60000000000002</ele>
        <time>2003-04-16T11:08:13Z</time>
      </trkpt>
      <trkpt lat="30.677757980301976" lon="-4.446252034977078">
        <ele>633.70000000000005</ele>
        <time>2003-04-16T11:08:16Z</time>
      </trkpt>
      <trkpt lat="30.677782036364079" lon="-4.446126976981759">
        <ele>634.10000000000002</ele>
        <time>2003-04-16T11:08:16Z</time>
      </trkpt>
      <trkpt lat="30.677823023870587" lon="-4.446002002805471">
        <ele>633.89999999999998</ele>
        <time>2003-04-16T11:08:17Z</time>
      </trkpt>
      <trkpt lat="30.677963001653552" lon="-4.445524988695979">
        <ele>633.79999999999995</ele>
        <time>2003-04-16T11:08:21Z</time>
      </trkpt>
      <trkpt lat="30.67800298333168" lon="-4.44541702978313">
        <ele>633.70000000000005</ele>
        <time>2003-04-16T11:08:23Z</time>
      </trkpt>
      <trkpt lat="30.678228037431836" lon="-4.444574983790517">
        <ele>635.10000000000002</ele>
        <time>2003-04-16T11:08:29Z</time>
      </trkpt>
      <trkpt lat="30.67834303714335" lon="-4.444165024906397">
        <ele>634.20000000000005</ele>
        <time>2003-04-16T11:08:32Z</time>
      </trkpt>
      <trkpt lat="30.67847304046154" lon="-4.443681975826621">
        <ele>635.39999999999998</ele>
        <time>2003-04-16T11:08:36Z</time>
      </trkpt>
      <trkpt lat="30.678588040173054" lon="-4.44322700612247">
        <ele>634.29999999999995</ele>
        <time>2003-04-16T11:08:40Z</time>
      </trkpt>
      <trkpt lat="30.67862500436604" lon="-4.443051991984248">
        <ele>635.89999999999998</ele>
        <time>2003-04-16T11:08:43Z</time>
      </trkpt>
      <trkpt lat="30.67868803627789" lon="-4.442868009209633">
        <ele>634.79999999999995</ele>
        <time>2003-04-16T11:08:44Z</time>
      </trkpt>
      <trkpt lat="30.678842011839151" lon="-4.442207012325525">
        <ele>635</ele>
        <time>2003-04-16T11:08:51Z</time>
      </trkpt>
      <trkpt lat="30.678867995738983" lon="-4.442097963765264">
        <ele>634.79999999999995</ele>
        <time>2003-04-16T11:08:52Z</time>
      </trkpt>
      <trkpt lat="30.678896997123957" lon="-4.441882967948914">
        <ele>634.5</ele>
        <time>2003-04-16T11:08:55Z</time>
      </trkpt>
      <trkpt lat="30.678928010165691" lon="-4.441729998216033">
        <ele>636.70000000000005</ele>
        <time>2003-04-16T11:08:56Z</time>
      </trkpt>
      <trkpt lat="30.679009985178709" lon="-4.44159496575594">
        <ele>634.89999999999998</ele>
        <time>2003-04-16T11:08:59Z</time>
      </trkpt>
      <trkpt lat="30.679088020697236" lon="-4.441406959667802">
        <ele>634.79999999999995</ele>
        <time>2003-04-16T11:09:00Z</time>
      </trkpt>
      <trkpt lat="30.679128002375364" lon="-4.441236974671483">
        <ele>634.89999999999998</ele>
        <time>2003-04-16T11:09:03Z</time>
      </trkpt>
      <trkpt lat="30.67916002124548" lon="-4.441067995503545">
        <ele>634.89999999999998</ele>
        <time>2003-04-16T11:09:06Z</time>
      </trkpt>
      <trkpt lat="30.67920695990324" lon="-4.440932963043451">
        <ele>633.79999999999995</ele>
        <time>2003-04-16T11:09:07Z</time>
      </trkpt>
      <trkpt lat="30.679277032613754" lon="-4.440800026059151">
        <ele>634.79999999999995</ele>
        <time>2003-04-16T11:09:10Z</time>
      </trkpt>
      <trkpt lat="30.679336963221431" lon="-4.440534990280867">
        <ele>634.70000000000005</ele>
        <time>2003-04-16T11:09:13Z</time>
      </trkpt>
      <trkpt lat="30.679456992074847" lon="-4.440408004447818">
        <ele>634.5</ele>
        <time>2003-04-16T11:09:14Z</time>
      </trkpt>
      <trkpt lat="30.679608033969998" lon="-4.440313037484884">
        <ele>634.39999999999998</ele>
        <time>2003-04-16T11:09:17Z</time>
      </trkpt>
      <trkpt lat="30.679772989824414" lon="-4.440299961715937">
        <ele>634.5</ele>
        <time>2003-04-16T11:09:18Z</time>
      </trkpt>
      <trkpt lat="30.679923025891185" lon="-4.440357964485884">
        <ele>634.60000000000002</ele>
        <time>2003-04-16T11:09:21Z</time>
      </trkpt>
      <trkpt lat="30.680067026987672" lon="-4.44032502360642">
        <ele>634.89999999999998</ele>
        <time>2003-04-16T11:09:22Z</time>
      </trkpt>
      <trkpt lat="30.680186972022057" lon="-4.440204994753003">
        <ele>634.29999999999995</ele>
        <time>2003-04-16T11:09:25Z</time>
      </trkpt>
      <trkpt lat="30.680376989766955" lon="-4.440023023635149">
        <ele>634.5</ele>
        <time>2003-04-16T11:09:27Z</time>
      </trkpt>
      <trkpt lat="30.680457036942244" lon="-4.439965020865202">
        <ele>634.20000000000005</ele>
        <time>2003-04-16T11:09:29Z</time>
      </trkpt>
      <trkpt lat="30.680528031662107" lon="-4.439893020316958">
        <ele>633.39999999999998</ele>
        <time>2003-04-16T11:09:30Z</time>
      </trkpt>
      <trkpt lat="30.680689970031381" lon="-4.439772991463542">
        <ele>632.39999999999998</ele>
        <time>2003-04-16T11:09:32Z</time>
      </trkpt>
      <trkpt lat="30.680843023583293" lon="-4.439652040600777">
        <ele>632</ele>
        <time>2003-04-16T11:09:34Z</time>
      </trkpt>
      <trkpt lat="30.681064976379275" lon="-4.43936001509428">
        <ele>633.29999999999995</ele>
        <time>2003-04-16T11:09:37Z</time>
      </trkpt>
      <trkpt lat="30.681066988036036" lon="-4.439194975420833">
        <ele>633.29999999999995</ele>
        <time>2003-04-16T11:09:40Z</time>
      </trkpt>
      <trkpt lat="30.68098702467978" lon="-4.438917031511664">
        <ele>632.39999999999998</ele>
        <time>2003-04-16T11:09:42Z</time>
      </trkpt>
      <trkpt lat="30.680870013311505" lon="-4.438776969909668">
        <ele>633</ele>
        <time>2003-04-16T11:09:45Z</time>
      </trkpt>
      <trkpt lat="30.680661974474788" lon="-4.437442990019918">
        <ele>632.39999999999998</ele>
        <time>2003-04-16T11:10:01Z</time>
      </trkpt>
      <trkpt lat="30.680677983909845" lon="-4.437273005023599">
        <ele>632.70000000000005</ele>
        <time>2003-04-16T11:10:04Z</time>
      </trkpt>
      <trkpt lat="30.680766999721527" lon="-4.437007969245315">
        <ele>632.29999999999995</ele>
        <time>2003-04-16T11:10:07Z</time>
      </trkpt>
      <trkpt lat="30.680866995826364" lon="-4.436592981219292">
        <ele>632.29999999999995</ele>
        <time>2003-04-16T11:10:12Z</time>
      </trkpt>
      <trkpt lat="30.680891973897815" lon="-4.436413021758199">
        <ele>632.39999999999998</ele>
        <time>2003-04-16T11:10:13Z</time>
      </trkpt>
      <trkpt lat="30.680973026901484" lon="-4.436246976256371">
        <ele>632.89999999999998</ele>
        <time>2003-04-16T11:10:16Z</time>
      </trkpt>
      <trkpt lat="30.68103002384305" lon="-4.436050001531839">
        <ele>632.70000000000005</ele>
        <time>2003-04-16T11:10:17Z</time>
      </trkpt>
      <trkpt lat="30.681036980822682" lon="-4.435846991837025">
        <ele>633.29999999999995</ele>
        <time>2003-04-16T11:10:20Z</time>
      </trkpt>
      <trkpt lat="30.681012002751231" lon="-4.435409959405661">
        <ele>633.20000000000005</ele>
        <time>2003-04-16T11:10:24Z</time>
      </trkpt>
      <trkpt lat="30.681033041328192" lon="-4.435217007994652">
        <ele>633.5</ele>
        <time>2003-04-16T11:10:26Z</time>
      </trkpt>
      <trkpt lat="30.681081991642714" lon="-4.434724990278482">
        <ele>633.20000000000005</ele>
        <time>2003-04-16T11:10:31Z</time>
      </trkpt>
      <trkpt lat="30.680994987487793" lon="-4.434551987797022">
        <ele>633.20000000000005</ele>
        <time>2003-04-16T11:10:32Z</time>
      </trkpt>
      <trkpt lat="30.680917035788298" lon="-4.434379991143942">
        <ele>632.79999999999995</ele>
        <time>2003-04-16T11:10:35Z</time>
      </trkpt>
      <trkpt lat="30.680924998596311" lon="-4.434174969792366">
        <ele>632.39999999999998</ele>
        <time>2003-04-16T11:10:36Z</time>
      </trkpt>
      <trkpt lat="30.680975038558245" lon="-4.434085031971335">
        <ele>632.79999999999995</ele>
        <time>2003-04-16T11:10:38Z</time>
      </trkpt>
      <trkpt lat="30.681045027449727" lon="-4.433897025883198">
        <ele>632.89999999999998</ele>
        <time>2003-04-16T11:10:39Z</time>
      </trkpt>
      <trkpt lat="30.681134965270758" lon="-4.433582033962011">
        <ele>632.70000000000005</ele>
        <time>2003-04-16T11:10:43Z</time>
      </trkpt>
      <trkpt lat="30.681292964145541" lon="-4.432897986844182">
        <ele>632.79999999999995</ele>
        <time>2003-04-16T11:10:48Z</time>
      </trkpt>
      <trkpt lat="30.681317020207644" lon="-4.432788016274571">
        <ele>632.79999999999995</ele>
        <time>2003-04-16T11:10:50Z</time>
      </trkpt>
      <trkpt lat="30.681426990777254" lon="-4.432294992730022">
        <ele>632.10000000000002</ele>
        <time>2003-04-16T11:10:55Z</time>
      </trkpt>
      <trkpt lat="30.681436965242028" lon="-4.432187033817172">
        <ele>632.20000000000005</ele>
        <time>2003-04-16T11:10:55Z</time>
      </trkpt>
      <trkpt lat="30.681492034345865" lon="-4.432022999972105">
        <ele>632</ele>
        <time>2003-04-16T11:10:58Z</time>
      </trkpt>
      <trkpt lat="30.681518018245697" lon="-4.431852009147406">
        <ele>632.60000000000002</ele>
        <time>2003-04-16T11:10:59Z</time>
      </trkpt>
      <trkpt lat="30.681562023237348" lon="-4.431729968637228">
        <ele>633</ele>
        <time>2003-04-16T11:11:02Z</time>
      </trkpt>
      <trkpt lat="30.681622959673405" lon="-4.43156199529767">
        <ele>632.60000000000002</ele>
        <time>2003-04-16T11:11:03Z</time>
      </trkpt>
      <trkpt lat="30.681669982150197" lon="-4.431384969502688">
        <ele>633.39999999999998</ele>
        <time>2003-04-16T11:11:06Z</time>
      </trkpt>
      <trkpt lat="30.681786993518472" lon="-4.430912984535098">
        <ele>633.29999999999995</ele>
        <time>2003-04-16T11:11:10Z</time>
      </trkpt>
      <trkpt lat="30.681838039308786" lon="-4.43072497844696">
        <ele>632.60000000000002</ele>
        <time>2003-04-16T11:11:13Z</time>
      </trkpt>
      <trkpt lat="30.681969970464706" lon="-4.430245030671358">
        <ele>632.79999999999995</ele>
        <time>2003-04-16T11:11:18Z</time>
      </trkpt>
      <trkpt lat="30.682069966569543" lon="-4.429868012666702">
        <ele>632.79999999999995</ele>
        <time>2003-04-16T11:11:22Z</time>
      </trkpt>
      <trkpt lat="30.682156970724463" lon="-4.429568024352193">
        <ele>632.79999999999995</ele>
        <time>2003-04-16T11:11:25Z</time>
      </trkpt>
      <trkpt lat="30.682174991816282" lon="-4.429465010762215">
        <ele>632.70000000000005</ele>
        <time>2003-04-16T11:11:25Z</time>
      </trkpt>
      <trkpt lat="30.682241963222623" lon="-4.429111965000629">
        <ele>632</ele>
        <time>2003-04-16T11:11:29Z</time>
      </trkpt>
      <trkpt lat="30.682301977649331" lon="-4.428924964740872">
        <ele>632.60000000000002</ele>
        <time>2003-04-16T11:11:32Z</time>
      </trkpt>
      <trkpt lat="30.682395016774535" lon="-4.428679961711168">
        <ele>632.5</ele>
        <time>2003-04-16T11:11:34Z</time>
      </trkpt>
      <trkpt lat="30.682437010109425" lon="-4.428375028073788">
        <ele>632.60000000000002</ele>
        <time>2003-04-16T11:11:37Z</time>
      </trkpt>
      <trkpt lat="30.682474980130792" lon="-4.428088031709194">
        <ele>633.10000000000002</ele>
        <time>2003-04-16T11:11:41Z</time>
      </trkpt>
      <trkpt lat="30.682540023699403" lon="-4.427968002855778">
        <ele>632.89999999999998</ele>
        <time>2003-04-16T11:11:42Z</time>
      </trkpt>
      <trkpt lat="30.682587968185544" lon="-4.427807992324233">
        <ele>632.20000000000005</ele>
        <time>2003-04-16T11:11:45Z</time>
      </trkpt>
      <trkpt lat="30.682627027854323" lon="-4.427687041461468">
        <ele>632.20000000000005</ele>
        <time>2003-04-16T11:11:47Z</time>
      </trkpt>
      <trkpt lat="30.682774968445301" lon="-4.427691986784339">
        <ele>632.5</ele>
        <time>2003-04-16T11:11:49Z</time>
      </trkpt>
      <trkpt lat="30.682861972600222" lon="-4.427791982889175">
        <ele>632</ele>
        <time>2003-04-16T11:11:52Z</time>
      </trkpt>
      <trkpt lat="30.682973032817245" lon="-4.427966997027397">
        <ele>632.10000000000002</ele>
        <time>2003-04-16T11:11:56Z</time>
      </trkpt>
      <trkpt lat="30.683083003386855" lon="-4.42799499258399">
        <ele>632.39999999999998</ele>
        <time>2003-04-16T11:11:56Z</time>
      </trkpt>
      <trkpt lat="30.683196997269988" lon="-4.4279720261693">
        <ele>632.20000000000005</ele>
        <time>2003-04-16T11:11:59Z</time>
      </trkpt>
      <trkpt lat="30.683402018621564" lon="-4.427942018955946">
        <ele>632.29999999999995</ele>
        <time>2003-04-16T11:12:01Z</time>
      </trkpt>
      <trkpt lat="30.683852965012193" lon="-4.427853003144264">
        <ele>632.29999999999995</ele>
        <time>2003-04-16T11:12:08Z</time>
      </trkpt>
      <trkpt lat="30.683923037722707" lon="-4.427747977897525">
        <ele>632.20000000000005</ele>
        <time>2003-04-16T11:12:09Z</time>
      </trkpt>
      <trkpt lat="30.683960001915693" lon="-4.427644964307547">
        <ele>631.10000000000002</ele>
        <time>2003-04-16T11:12:12Z</time>
      </trkpt>
      <trkpt lat="30.683950027450919" lon="-4.427513033151627">
        <ele>631.39999999999998</ele>
        <time>2003-04-16T11:12:15Z</time>
      </trkpt>
      <trkpt lat="30.683917002752423" lon="-4.4272830337286">
        <ele>631.70000000000005</ele>
        <time>2003-04-16T11:12:16Z</time>
      </trkpt>
      <trkpt lat="30.683886995539069" lon="-4.427086981013417">
        <ele>631.60000000000002</ele>
        <time>2003-04-16T11:12:19Z</time>
      </trkpt>
      <trkpt lat="30.683809965848923" lon="-4.426824962720275">
        <ele>630.79999999999995</ele>
        <time>2003-04-16T11:12:23Z</time>
      </trkpt>
      <trkpt lat="30.683645009994507" lon="-4.426527991890907">
        <ele>630.10000000000002</ele>
        <time>2003-04-16T11:12:27Z</time>
      </trkpt>
      <trkpt lat="30.683656996116042" lon="-4.426366975530982">
        <ele>630.39999999999998</ele>
        <time>2003-04-16T11:12:27Z</time>
      </trkpt>
      <trkpt lat="30.683636963367462" lon="-4.42623496055603">
        <ele>630.89999999999998</ele>
        <time>2003-04-16T11:12:31Z</time>
      </trkpt>
      <trkpt lat="30.683532021939754" lon="-4.426113003864884">
        <ele>630.79999999999995</ele>
        <time>2003-04-16T11:12:32Z</time>
      </trkpt>
      <trkpt lat="30.683512995019555" lon="-4.425924997776747">
        <ele>630.60000000000002</ele>
        <time>2003-04-16T11:12:34Z</time>
      </trkpt>
      <trkpt lat="30.683527998626232" lon="-4.425668008625507">
        <ele>630.79999999999995</ele>
        <time>2003-04-16T11:12:38Z</time>
      </trkpt>
      <trkpt lat="30.683581978082657" lon="-4.42552300170064">
        <ele>630.79999999999995</ele>
        <time>2003-04-16T11:12:39Z</time>
      </trkpt>
      <trkpt lat="30.683577032759786" lon="-4.425376988947392">
        <ele>631.10000000000002</ele>
        <time>2003-04-16T11:12:41Z</time>
      </trkpt>
      <trkpt lat="30.683563034981489" lon="-4.42522301338613">
        <ele>630.70000000000005</ele>
        <time>2003-04-16T11:12:43Z</time>
      </trkpt>
      <trkpt lat="30.683560017496347" lon="-4.425001982599497">
        <ele>631.89999999999998</ele>
        <time>2003-04-16T11:12:46Z</time>
      </trkpt>
      <trkpt lat="30.683548031374812" lon="-4.424837026745081">
        <ele>631.29999999999995</ele>
        <time>2003-04-16T11:12:47Z</time>
      </trkpt>
      <trkpt lat="30.683581978082657" lon="-4.424657989293337">
        <ele>631.70000000000005</ele>
        <time>2003-04-16T11:12:50Z</time>
      </trkpt>
      <trkpt lat="30.683662025257945" lon="-4.424392031505704">
        <ele>631.60000000000002</ele>
        <time>2003-04-16T11:12:54Z</time>
      </trkpt>
      <trkpt lat="30.68378297612071" lon="-4.424307039007545">
        <ele>631.60000000000002</ele>
        <time>2003-04-16T11:12:57Z</time>
      </trkpt>
      <trkpt lat="30.68386796861887" lon="-4.424187010154128">
        <ele>631.60000000000002</ele>
        <time>2003-04-16T11:12:58Z</time>
      </trkpt>
      <trkpt lat="30.683956984430552" lon="-4.424081984907389">
        <ele>631.70000000000005</ele>
        <time>2003-04-16T11:13:01Z</time>
      </trkpt>
      <trkpt lat="30.684052035212517" lon="-4.423988023772836">
        <ele>631.60000000000002</ele>
        <time>2003-04-16T11:13:02Z</time>
      </trkpt>
      <trkpt lat="30.68412696942687" lon="-4.423882998526096">
        <ele>631.5</ele>
        <time>2003-04-16T11:13:05Z</time>
      </trkpt>
      <trkpt lat="30.684193018823862" lon="-4.42376003600657">
        <ele>631.39999999999998</ele>
        <time>2003-04-16T11:13:06Z</time>
      </trkpt>
      <trkpt lat="30.684263007715344" lon="-4.423651993274689">
        <ele>631.60000000000002</ele>
        <time>2003-04-16T11:13:09Z</time>
      </trkpt>
      <trkpt lat="30.684335008263588" lon="-4.423510003834963">
        <ele>631.5</ele>
        <time>2003-04-16T11:13:12Z</time>
      </trkpt>
      <trkpt lat="30.684283040463924" lon="-4.423383018001914">
        <ele>630.89999999999998</ele>
        <time>2003-04-16T11:13:13Z</time>
      </trkpt>
      <trkpt lat="30.68425202742219" lon="-4.423247985541821">
        <ele>631.29999999999995</ele>
        <time>2003-04-16T11:13:16Z</time>
      </trkpt>
      <trkpt lat="30.684277005493641" lon="-4.42311798222363">
        <ele>631.60000000000002</ele>
        <time>2003-04-16T11:13:17Z</time>
      </trkpt>
      <trkpt lat="30.68431799300015" lon="-4.422987978905439">
        <ele>631</ele>
        <time>2003-04-16T11:13:20Z</time>
      </trkpt>
      <trkpt lat="30.684353029355407" lon="-4.42285998724401">
        <ele>631.10000000000002</ele>
        <time>2003-04-16T11:13:21Z</time>
      </trkpt>
      <trkpt lat="30.684377001598477" lon="-4.422753034159541">
        <ele>631.60000000000002</ele>
        <time>2003-04-16T11:13:24Z</time>
      </trkpt>
      <trkpt lat="30.684461994096637" lon="-4.422457991167903">
        <ele>631.70000000000005</ele>
        <time>2003-04-16T11:13:29Z</time>
      </trkpt>
      <trkpt lat="30.684712026268244" lon="-4.421512009575963">
        <ele>632.20000000000005</ele>
        <time>2003-04-16T11:13:43Z</time>
      </trkpt>
      <trkpt lat="30.684746978804469" lon="-4.421368008479476">
        <ele>632.29999999999995</ele>
        <time>2003-04-16T11:13:44Z</time>
      </trkpt>
      <trkpt lat="30.6847919896245" lon="-4.421191988512874">
        <ele>632.29999999999995</ele>
        <time>2003-04-16T11:13:48Z</time>
      </trkpt>
      <trkpt lat="30.684943031519651" lon="-4.420738024637103">
        <ele>632.70000000000005</ele>
        <time>2003-04-16T11:13:55Z</time>
      </trkpt>
      <trkpt lat="30.685109999030828" lon="-4.42040802910924">
        <ele>632.5</ele>
        <time>2003-04-16T11:14:00Z</time>
      </trkpt>
      <trkpt lat="30.685277972370386" lon="-4.420156991109252">
        <ele>632.60000000000002</ele>
        <time>2003-04-16T11:14:04Z</time>
      </trkpt>
      <trkpt lat="30.685324994847178" lon="-4.420007960870862">
        <ele>632.5</ele>
        <time>2003-04-16T11:14:06Z</time>
      </trkpt>
      <trkpt lat="30.6853929720819" lon="-4.419732028618455">
        <ele>632.79999999999995</ele>
        <time>2003-04-16T11:14:08Z</time>
      </trkpt>
      <trkpt lat="30.685452986508608" lon="-4.419532036408782">
        <ele>632.79999999999995</ele>
        <time>2003-04-16T11:14:11Z</time>
      </trkpt>
      <trkpt lat="30.685487017035484" lon="-4.419340007007122">
        <ele>633.10000000000002</ele>
        <time>2003-04-16T11:14:12Z</time>
      </trkpt>
      <trkpt lat="30.685536973178387" lon="-4.419153006747365">
        <ele>632.79999999999995</ele>
        <time>2003-04-16T11:14:15Z</time>
      </trkpt>
      <trkpt lat="30.685767978429794" lon="-4.418209958821535">
        <ele>633.39999999999998</ele>
        <time>2003-04-16T11:14:24Z</time>
      </trkpt>
      <trkpt lat="30.685805026441813" lon="-4.417881974950433">
        <ele>634.10000000000002</ele>
        <time>2003-04-16T11:14:29Z</time>
      </trkpt>
      <trkpt lat="30.685803014785051" lon="-4.417705032974482">
        <ele>633.39999999999998</ele>
        <time>2003-04-16T11:14:31Z</time>
      </trkpt>
      <trkpt lat="30.685769990086555" lon="-4.417587015777826">
        <ele>633.5</ele>
        <time>2003-04-16T11:14:34Z</time>
      </trkpt>
      <trkpt lat="30.685707964003086" lon="-4.417439997196198">
        <ele>630.79999999999995</ele>
        <time>2003-04-16T11:16:53Z</time>
      </trkpt>
      <trkpt lat="30.685675023123622" lon="-4.417328014969826">
        <ele>630.70000000000005</ele>
        <time>2003-04-16T11:16:57Z</time>
      </trkpt>
      <trkpt lat="30.685667982324958" lon="-4.417221983894706">
        <ele>630.89999999999998</ele>
        <time>2003-04-16T11:17:00Z</time>
      </trkpt>
      <trkpt lat="30.685652978718281" lon="-4.416876984760165">
        <ele>630.39999999999998</ele>
        <time>2003-04-16T11:17:06Z</time>
      </trkpt>
      <trkpt lat="30.685675023123622" lon="-4.416761985048652">
        <ele>630.60000000000002</ele>
        <time>2003-04-16T11:17:09Z</time>
      </trkpt>
      <trkpt lat="30.685718022286892" lon="-4.416668023914099">
        <ele>630.70000000000005</ele>
        <time>2003-04-16T11:17:11Z</time>
      </trkpt>
      <trkpt lat="30.685792034491897" lon="-4.416546989232302">
        <ele>630.79999999999995</ele>
        <time>2003-04-16T11:17:13Z</time>
      </trkpt>
      <trkpt lat="30.686105014756322" lon="-4.416147004812956">
        <ele>631.89999999999998</ele>
        <time>2003-04-16T11:17:24Z</time>
      </trkpt>
      <trkpt lat="30.686335014179349" lon="-4.415842993184924">
        <ele>632.10000000000002</ele>
        <time>2003-04-16T11:17:31Z</time>
      </trkpt>
      <trkpt lat="30.686416989192367" lon="-4.415718019008637">
        <ele>632.29999999999995</ele>
        <time>2003-04-16T11:17:35Z</time>
      </trkpt>
      <trkpt lat="30.686525031924248" lon="-4.41555499099195">
        <ele>633.29999999999995</ele>
        <time>2003-04-16T11:17:56Z</time>
      </trkpt>
      <trkpt lat="30.686584962531924" lon="-4.415460024029017">
        <ele>633.39999999999998</ele>
        <time>2003-04-16T11:17:59Z</time>
      </trkpt>
      <trkpt lat="30.686729969456792" lon="-4.415247039869428">
        <ele>633.70000000000005</ele>
        <time>2003-04-16T11:18:03Z</time>
      </trkpt>
      <trkpt lat="30.687044961377978" lon="-4.414858035743237">
        <ele>634.10000000000002</ele>
        <time>2003-04-16T11:18:10Z</time>
      </trkpt>
      <trkpt lat="30.687130037695169" lon="-4.414782011881471">
        <ele>634.29999999999995</ele>
        <time>2003-04-16T11:18:14Z</time>
      </trkpt>
      <trkpt lat="30.687322989106178" lon="-4.414619989693165">
        <ele>634</ele>
        <time>2003-04-16T11:18:19Z</time>
      </trkpt>
      <trkpt lat="30.68743497133255" lon="-4.414519993588328">
        <ele>633.79999999999995</ele>
        <time>2003-04-16T11:18:23Z</time>
      </trkpt>
      <trkpt lat="30.687481993809342" lon="-4.414614960551262">
        <ele>634.29999999999995</ele>
        <time>2003-04-16T11:18:27Z</time>
      </trkpt>
      <trkpt lat="30.687400018796325" lon="-4.414670029655099">
        <ele>634.5</ele>
        <time>2003-04-16T11:18:30Z</time>
      </trkpt>
      <trkpt lat="30.6872199755162" lon="-4.414700036868453">
        <ele>634.89999999999998</ele>
        <time>2003-04-16T11:18:36Z</time>
      </trkpt>
      <trkpt lat="30.687128026038408" lon="-4.414785029366612">
        <ele>635</ele>
        <time>2003-04-16T11:18:38Z</time>
      </trkpt>
      <trkpt lat="30.686837006360292" lon="-4.415117036551237">
        <ele>634.70000000000005</ele>
        <time>2003-04-16T11:18:49Z</time>
      </trkpt>
      <trkpt lat="30.686561996117234" lon="-4.415517020970583">
        <ele>633.79999999999995</ele>
        <time>2003-04-16T11:18:59Z</time>
      </trkpt>
      <trkpt lat="30.686126975342631" lon="-4.416124960407615">
        <ele>632.89999999999998</ele>
        <time>2003-04-16T11:19:12Z</time>
      </trkpt>
      <trkpt lat="30.686029996722937" lon="-4.416274996474385">
        <ele>632.89999999999998</ele>
        <time>2003-04-16T11:19:16Z</time>
      </trkpt>
      <trkpt lat="30.686002001166344" lon="-4.416397036984563">
        <ele>632.70000000000005</ele>
        <time>2003-04-16T11:19:19Z</time>
      </trkpt>
      <trkpt lat="30.68599496036768" lon="-4.416527962312102">
        <ele>632.60000000000002</ele>
        <time>2003-04-16T11:19:20Z</time>
      </trkpt>
      <trkpt lat="30.685996972024441" lon="-4.416676992550492">
        <ele>632.70000000000005</ele>
        <time>2003-04-16T11:19:24Z</time>
      </trkpt>
      <trkpt lat="30.686002001166344" lon="-4.416858041658998">
        <ele>632.60000000000002</ele>
        <time>2003-04-16T11:19:28Z</time>
      </trkpt>
      <trkpt lat="30.685954978689551" lon="-4.416668023914099">
        <ele>634.39999999999998</ele>
        <time>2003-04-16T12:45:29Z</time>
      </trkpt>
      <trkpt lat="30.686024967581034" lon="-4.416567021980882">
        <ele>634.39999999999998</ele>
        <time>2003-04-16T12:45:35Z</time>
      </trkpt>
      <trkpt lat="30.68605799227953" lon="-4.416468031704426">
        <ele>645.5</ele>
        <time>2003-04-16T12:45:39Z</time>
      </trkpt>
      <trkpt lat="30.686163017526269" lon="-4.416326964274049">
        <ele>644.79999999999995</ele>
        <time>2003-04-16T12:45:44Z</time>
      </trkpt>
      <trkpt lat="30.686578005552292" lon="-4.415552979335189">
        <ele>644.79999999999995</ele>
        <time>2003-04-16T12:46:03Z</time>
      </trkpt>
      <trkpt lat="30.686742961406708" lon="-4.415309987962246">
        <ele>644.70000000000005</ele>
        <time>2003-04-16T12:46:10Z</time>
      </trkpt>
      <trkpt lat="30.686934990808368" lon="-4.415027014911175">
        <ele>644.60000000000002</ele>
        <time>2003-04-16T12:46:15Z</time>
      </trkpt>
      <trkpt lat="30.687307985499501" lon="-4.414640022441745">
        <ele>644.39999999999998</ele>
        <time>2003-04-16T12:46:26Z</time>
      </trkpt>
      <trkpt lat="30.688005024567246" lon="-4.413967039436102">
        <ele>643.60000000000002</ele>
        <time>2003-04-16T12:46:42Z</time>
      </trkpt>
      <trkpt lat="30.688205016776919" lon="-4.413762018084526">
        <ele>643.5</ele>
        <time>2003-04-16T12:46:46Z</time>
      </trkpt>
      <trkpt lat="30.688783032819629" lon="-4.413188025355339">
        <ele>643.60000000000002</ele>
        <time>2003-04-16T12:46:56Z</time>
      </trkpt>
      <trkpt lat="30.689206989482045" lon="-4.412758033722639">
        <ele>644.39999999999998</ele>
        <time>2003-04-16T12:47:01Z</time>
      </trkpt>
      <trkpt lat="30.68962499499321" lon="-4.412327036261559">
        <ele>645.20000000000005</ele>
        <time>2003-04-16T12:47:08Z</time>
      </trkpt>
      <trkpt lat="30.689700013026595" lon="-4.412256963551045">
        <ele>644.79999999999995</ele>
        <time>2003-04-16T12:47:11Z</time>
      </trkpt>
      <trkpt lat="30.689941998571157" lon="-4.412026964128017">
        <ele>643.39999999999998</ele>
        <time>2003-04-16T12:47:23Z</time>
      </trkpt>
      <trkpt lat="30.690626967698336" lon="-4.411324979737401">
        <ele>643.89999999999998</ele>
        <time>2003-04-16T12:47:39Z</time>
      </trkpt>
      <trkpt lat="30.69130196236074" lon="-4.410622995346785">
        <ele>646.10000000000002</ele>
        <time>2003-04-16T12:47:55Z</time>
      </trkpt>
      <trkpt lat="30.691981986165047" lon="-4.409925034269691">
        <ele>647.39999999999998</ele>
        <time>2003-04-16T12:48:11Z</time>
      </trkpt>
      <trkpt lat="30.692682964727283" lon="-4.409197987988591">
        <ele>648</ele>
        <time>2003-04-16T12:48:26Z</time>
      </trkpt>
      <trkpt lat="30.693407999351621" lon="-4.408451998606324">
        <ele>646.70000000000005</ele>
        <time>2003-04-16T12:48:41Z</time>
      </trkpt>
      <trkpt lat="30.693477988243103" lon="-4.408372035250068">
        <ele>646.5</ele>
        <time>2003-04-16T12:48:42Z</time>
      </trkpt>
      <trkpt lat="30.693636992946267" lon="-4.408187968656421">
        <ele>646</ele>
        <time>2003-04-16T12:48:45Z</time>
      </trkpt>
      <trkpt lat="30.694173015654087" lon="-4.407467041164637">
        <ele>645</ele>
        <time>2003-04-16T12:48:52Z</time>
      </trkpt>
      <trkpt lat="30.694388011470437" lon="-4.40706797875464">
        <ele>645.29999999999995</ele>
        <time>2003-04-16T12:48:56Z</time>
      </trkpt>
      <trkpt lat="30.694882962852716" lon="-4.406070029363036">
        <ele>645.70000000000005</ele>
        <time>2003-04-16T12:49:05Z</time>
      </trkpt>
      <trkpt lat="30.695289988070726" lon="-4.405342983081937">
        <ele>646.60000000000002</ele>
        <time>2003-04-16T12:49:12Z</time>
      </trkpt>
      <trkpt lat="30.695342039689422" lon="-4.405244998633862">
        <ele>646.5</ele>
        <time>2003-04-16T12:49:13Z</time>
      </trkpt>
      <trkpt lat="30.695429965853691" lon="-4.405024973675609">
        <ele>647.29999999999995</ele>
        <time>2003-04-16T12:49:16Z</time>
      </trkpt>
      <trkpt lat="30.695570027455688" lon="-4.404673017561436">
        <ele>648.70000000000005</ele>
        <time>2003-04-16T12:49:19Z</time>
      </trkpt>
      <trkpt lat="30.69604704156518" lon="-4.403725024312735">
        <ele>649.5</ele>
        <time>2003-04-16T12:49:27Z</time>
      </trkpt>
      <trkpt lat="30.69652296602726" lon="-4.402769990265369">
        <ele>650.20000000000005</ele>
        <time>2003-04-16T12:49:35Z</time>
      </trkpt>
      <trkpt lat="30.696564959362149" lon="-4.402648033574224">
        <ele>650.60000000000002</ele>
        <time>2003-04-16T12:49:35Z</time>
      </trkpt>
      <trkpt lat="30.696722036227584" lon="-4.402279984205961">
        <ele>650.89999999999998</ele>
        <time>2003-04-16T12:49:39Z</time>
      </trkpt>
      <trkpt lat="30.697111962363124" lon="-4.401542041450739">
        <ele>651.20000000000005</ele>
        <time>2003-04-16T12:49:44Z</time>
      </trkpt>
      <trkpt lat="30.697172982618213" lon="-4.401422012597323">
        <ele>651</ele>
        <time>2003-04-16T12:49:46Z</time>
      </trkpt>
      <trkpt lat="30.697659971192479" lon="-4.400511989369988">
        <ele>651.5</ele>
        <time>2003-04-16T12:49:54Z</time>
      </trkpt>
      <trkpt lat="30.698109995573759" lon="-4.399629961699247">
        <ele>652.39999999999998</ele>
        <time>2003-04-16T12:50:02Z</time>
      </trkpt>
      <trkpt lat="30.698273023590446" lon="-4.399302983656526">
        <ele>652.5</ele>
        <time>2003-04-16T12:50:06Z</time>
      </trkpt>
      <trkpt lat="30.698407972231507" lon="-4.399047000333667">
        <ele>652.60000000000002</ele>
        <time>2003-04-16T12:50:10Z</time>
      </trkpt>
      <trkpt lat="30.698494976386428" lon="-4.39888003282249">
        <ele>652.79999999999995</ele>
        <time>2003-04-16T12:50:13Z</time>
      </trkpt>
      <trkpt lat="30.698963021859527" lon="-4.397924998775125">
        <ele>653.10000000000002</ele>
        <time>2003-04-16T12:50:24Z</time>
      </trkpt>
      <trkpt lat="30.700297001749277" lon="-4.395297020673752">
        <ele>-236.80000000000001</ele>
        <time>2003-04-16T12:50:49Z</time>
      </trkpt>
      <trkpt lat="30.700349975377321" lon="-4.395182020962238">
        <ele>656.10000000000002</ele>
        <time>2003-04-16T12:50:51Z</time>
      </trkpt>
      <trkpt lat="30.700527001172304" lon="-4.394782036542893">
        <ele>656.79999999999995</ele>
        <time>2003-04-16T12:50:55Z</time>
      </trkpt>
      <trkpt lat="30.700830006971955" lon="-4.394158003851771">
        <ele>657.39999999999998</ele>
        <time>2003-04-16T12:51:01Z</time>
      </trkpt>
      <trkpt lat="30.701065035536885" lon="-4.393732035532594">
        <ele>657.29999999999995</ele>
        <time>2003-04-16T12:51:07Z</time>
      </trkpt>
      <trkpt lat="30.701535008847713" lon="-4.392767027020454">
        <ele>658.39999999999998</ele>
        <time>2003-04-16T12:51:18Z</time>
      </trkpt>
      <trkpt lat="30.702017974108458" lon="-4.391802018508315">
        <ele>658.70000000000005</ele>
        <time>2003-04-16T12:51:27Z</time>
      </trkpt>
      <trkpt lat="30.702697997912765" lon="-4.390429984778166">
        <ele>659.39999999999998</ele>
        <time>2003-04-16T12:51:43Z</time>
      </trkpt>
      <trkpt lat="30.703177023679018" lon="-4.389482997357845">
        <ele>660</ele>
        <time>2003-04-16T12:51:54Z</time>
      </trkpt>
      <trkpt lat="30.703405011445284" lon="-4.389059962704778">
        <ele>660.39999999999998</ele>
        <time>2003-04-16T12:51:58Z</time>
      </trkpt>
      <trkpt lat="30.703497966751456" lon="-4.388882014900446">
        <ele>661</ele>
        <time>2003-04-16T12:52:01Z</time>
      </trkpt>
      <trkpt lat="30.703967018052936" lon="-4.38790300861001">
        <ele>667.20000000000005</ele>
        <time>2003-04-16T12:52:12Z</time>
      </trkpt>
      <trkpt lat="30.704394998028874" lon="-4.386970018967986">
        <ele>668.29999999999995</ele>
        <time>2003-04-16T12:52:21Z</time>
      </trkpt>
      <trkpt lat="30.704870000481606" lon="-4.386048009619117">
        <ele>668.70000000000005</ele>
        <time>2003-04-16T12:52:33Z</time>
      </trkpt>
      <trkpt lat="30.705137969926" lon="-4.385521961376071">
        <ele>669.79999999999995</ele>
        <time>2003-04-16T12:52:37Z</time>
      </trkpt>
      <trkpt lat="30.705635016784072" lon="-4.384549995884299">
        <ele>670.5</ele>
        <time>2003-04-16T12:52:45Z</time>
      </trkpt>
      <trkpt lat="30.706108007580042" lon="-4.383607031777501">
        <ele>671.10000000000002</ele>
        <time>2003-04-16T12:52:53Z</time>
      </trkpt>
      <trkpt lat="30.706602958962321" lon="-4.382600029930472">
        <ele>671.60000000000002</ele>
        <time>2003-04-16T12:53:03Z</time>
      </trkpt>
      <trkpt lat="30.707057006657124" lon="-4.38162999227643">
        <ele>672.39999999999998</ele>
        <time>2003-04-16T12:53:11Z</time>
      </trkpt>
      <trkpt lat="30.707526979967952" lon="-4.380691973492503">
        <ele>672.70000000000005</ele>
        <time>2003-04-16T12:53:20Z</time>
      </trkpt>
      <trkpt lat="30.708007011562586" lon="-4.379757978022099">
        <ele>672.79999999999995</ele>
        <time>2003-04-16T12:53:30Z</time>
      </trkpt>
      <trkpt lat="30.708459969609976" lon="-4.378803027793765">
        <ele>672.20000000000005</ele>
        <time>2003-04-16T12:53:38Z</time>
      </trkpt>
      <trkpt lat="30.708713019266725" lon="-4.377831984311342">
        <ele>671.89999999999998</ele>
        <time>2003-04-16T12:53:47Z</time>
      </trkpt>
      <trkpt lat="30.70883497595787" lon="-4.377574995160103">
        <ele>671.39999999999998</ele>
        <time>2003-04-16T12:53:50Z</time>
      </trkpt>
      <trkpt lat="30.709430007264018" lon="-4.376764968037605">
        <ele>665.70000000000005</ele>
        <time>2003-04-16T12:54:01Z</time>
      </trkpt>
      <trkpt lat="30.709744999185205" lon="-4.376270016655326">
        <ele>664.60000000000002</ele>
        <time>2003-04-16T12:54:08Z</time>
      </trkpt>
      <trkpt lat="30.709984973073006" lon="-4.375727036967874">
        <ele>663.10000000000002</ele>
        <time>2003-04-16T12:54:13Z</time>
      </trkpt>
      <trkpt lat="30.710141966119409" lon="-4.375235019251704">
        <ele>661.39999999999998</ele>
        <time>2003-04-16T12:54:17Z</time>
      </trkpt>
      <trkpt lat="30.710327038541436" lon="-4.37425802461803">
        <ele>657.70000000000005</ele>
        <time>2003-04-16T12:54:25Z</time>
      </trkpt>
      <trkpt lat="30.710471961647272" lon="-4.373182961717248">
        <ele>654.10000000000002</ele>
        <time>2003-04-16T12:54:32Z</time>
      </trkpt>
      <trkpt lat="30.710601964965463" lon="-4.372132960706949">
        <ele>652.10000000000002</ele>
        <time>2003-04-16T12:54:40Z</time>
      </trkpt>
      <trkpt lat="30.710755018517375" lon="-4.370977012440562">
        <ele>648.60000000000002</ele>
        <time>2003-04-16T12:54:50Z</time>
      </trkpt>
      <trkpt lat="30.710904970765114" lon="-4.369810000061989">
        <ele>647.39999999999998</ele>
        <time>2003-04-16T12:54:59Z</time>
      </trkpt>
      <trkpt lat="30.711019970476627" lon="-4.368937024846673">
        <ele>647.10000000000002</ele>
        <time>2003-04-16T12:55:06Z</time>
      </trkpt>
      <trkpt lat="30.713076973333955" lon="-4.354201974347234">
        <ele>-236.80000000000001</ele>
        <time>2003-04-16T12:56:38Z</time>
      </trkpt>
      <trkpt lat="30.71310798637569" lon="-4.354002987965941">
        <ele>667.5</ele>
        <time>2003-04-16T12:56:39Z</time>
      </trkpt>
      <trkpt lat="30.713227009400725" lon="-4.352885009720922">
        <ele>645.10000000000002</ele>
        <time>2003-04-16T12:56:44Z</time>
      </trkpt>
      <trkpt lat="30.716961985453963" lon="-4.322343030944467">
        <ele>643.70000000000005</ele>
        <time>2003-04-16T13:01:18Z</time>
      </trkpt>
      <trkpt lat="30.717077990993857" lon="-4.321538032963872">
        <ele>643.10000000000002</ele>
        <time>2003-04-16T13:01:26Z</time>
      </trkpt>
      <trkpt lat="30.717098023742437" lon="-4.321396965533495">
        <ele>643</ele>
        <time>2003-04-16T13:01:29Z</time>
      </trkpt>
      <trkpt lat="30.717131970450282" lon="-4.321024976670742">
        <ele>642.89999999999998</ele>
        <time>2003-04-16T13:01:35Z</time>
      </trkpt>
      <trkpt lat="30.717221992090344" lon="-4.320347970351577">
        <ele>643.39999999999998</ele>
        <time>2003-04-16T13:01:45Z</time>
      </trkpt>
      <trkpt lat="30.717364987358451" lon="-4.319256981834769">
        <ele>643.5</ele>
        <time>2003-04-16T13:02:00Z</time>
      </trkpt>
      <trkpt lat="30.717503037303686" lon="-4.318164987489581">
        <ele>643.29999999999995</ele>
        <time>2003-04-16T13:02:12Z</time>
      </trkpt>
      <trkpt lat="30.717637985944748" lon="-4.317112974822521">
        <ele>643.79999999999995</ele>
        <time>2003-04-16T13:02:26Z</time>
      </trkpt>
      <trkpt lat="30.717745022848248" lon="-4.316343013197184">
        <ele>643.20000000000005</ele>
        <time>2003-04-16T13:02:34Z</time>
      </trkpt>
      <trkpt lat="30.717818029224873" lon="-4.316157018765807">
        <ele>642.70000000000005</ele>
        <time>2003-04-16T13:02:37Z</time>
      </trkpt>
      <trkpt lat="30.717981979250908" lon="-4.315672041848302">
        <ele>643.5</ele>
        <time>2003-04-16T13:02:42Z</time>
      </trkpt>
      <trkpt lat="30.717988014221191" lon="-4.315278008580208">
        <ele>643.70000000000005</ele>
        <time>2003-04-16T13:02:46Z</time>
      </trkpt>
      <trkpt lat="30.717926993966103" lon="-4.314677026122809">
        <ele>643.79999999999995</ele>
        <time>2003-04-16T13:02:50Z</time>
      </trkpt>
      <trkpt lat="30.717966975644231" lon="-4.314579963684082">
        <ele>643.79999999999995</ele>
        <time>2003-04-16T13:02:51Z</time>
      </trkpt>
      <trkpt lat="30.718069989234209" lon="-4.314267989248037">
        <ele>643.79999999999995</ele>
        <time>2003-04-16T13:02:54Z</time>
      </trkpt>
      <trkpt lat="30.718081975355744" lon="-4.31410001590848">
        <ele>644</ele>
        <time>2003-04-16T13:02:57Z</time>
      </trkpt>
      <trkpt lat="30.718079963698983" lon="-4.313725009560585">
        <ele>643.89999999999998</ele>
        <time>2003-04-16T13:03:01Z</time>
      </trkpt>
      <trkpt lat="30.718081975355744" lon="-4.313504984602332">
        <ele>643.70000000000005</ele>
        <time>2003-04-16T13:03:02Z</time>
      </trkpt>
      <trkpt lat="30.71813503280282" lon="-4.313282025977969">
        <ele>644</ele>
        <time>2003-04-16T13:03:05Z</time>
      </trkpt>
      <trkpt lat="30.718145007267594" lon="-4.313169959932566">
        <ele>644.10000000000002</ele>
        <time>2003-04-16T13:03:05Z</time>
      </trkpt>
      <trkpt lat="30.718190018087626" lon="-4.312938032671809">
        <ele>644</ele>
        <time>2003-04-16T13:03:08Z</time>
      </trkpt>
      <trkpt lat="30.718260006979108" lon="-4.312535030767322">
        <ele>644</ele>
        <time>2003-04-16T13:03:12Z</time>
      </trkpt>
      <trkpt lat="30.718265036121011" lon="-4.312392035499215">
        <ele>644.10000000000002</ele>
        <time>2003-04-16T13:03:13Z</time>
      </trkpt>
      <trkpt lat="30.71835002861917" lon="-4.312239987775683">
        <ele>644.20000000000005</ele>
        <time>2003-04-16T13:03:16Z</time>
      </trkpt>
      <trkpt lat="30.718448013067245" lon="-4.312092969194055">
        <ele>644.29999999999995</ele>
        <time>2003-04-16T13:03:17Z</time>
      </trkpt>
      <trkpt lat="30.718569969758391" lon="-4.311783006414771">
        <ele>644.89999999999998</ele>
        <time>2003-04-16T13:03:21Z</time>
      </trkpt>
      <trkpt lat="30.718769961968064" lon="-4.311337005347014">
        <ele>645.20000000000005</ele>
        <time>2003-04-16T13:03:25Z</time>
      </trkpt>
      <trkpt lat="30.719259968027472" lon="-4.310399992391467">
        <ele>646.79999999999995</ele>
        <time>2003-04-16T13:03:33Z</time>
      </trkpt>
      <trkpt lat="30.719443028792739" lon="-4.31001702323556">
        <ele>647.20000000000005</ele>
        <time>2003-04-16T13:03:37Z</time>
      </trkpt>
      <trkpt lat="30.719849970191717" lon="-4.309229962527752">
        <ele>646.70000000000005</ele>
        <time>2003-04-16T13:03:47Z</time>
      </trkpt>
      <trkpt lat="30.7199199590832" lon="-4.309047991409898">
        <ele>646.29999999999995</ele>
        <time>2003-04-16T13:03:50Z</time>
      </trkpt>
      <trkpt lat="30.719981985166669" lon="-4.308962998911738">
        <ele>646.20000000000005</ele>
        <time>2003-04-16T13:03:52Z</time>
      </trkpt>
      <trkpt lat="30.720135038718581" lon="-4.308797959238291">
        <ele>646.39999999999998</ele>
        <time>2003-04-16T13:03:55Z</time>
      </trkpt>
      <trkpt lat="30.720179965719581" lon="-4.30864498950541">
        <ele>646.5</ele>
        <time>2003-04-16T13:03:56Z</time>
      </trkpt>
      <trkpt lat="30.720266969874501" lon="-4.308286998420954">
        <ele>647.60000000000002</ele>
        <time>2003-04-16T13:04:02Z</time>
      </trkpt>
      <trkpt lat="30.720495041459799" lon="-4.307779977098107">
        <ele>647.60000000000002</ele>
        <time>2003-04-16T13:04:08Z</time>
      </trkpt>
      <trkpt lat="30.720932995900512" lon="-4.30683801881969">
        <ele>647.70000000000005</ele>
        <time>2003-04-16T13:04:19Z</time>
      </trkpt>
      <trkpt lat="30.72135703638196" lon="-4.306009970605373">
        <ele>647.89999999999998</ele>
        <time>2003-04-16T13:04:29Z</time>
      </trkpt>
      <trkpt lat="30.721485028043389" lon="-4.305711993947625">
        <ele>648.20000000000005</ele>
        <time>2003-04-16T13:04:31Z</time>
      </trkpt>
      <trkpt lat="30.721804965287447" lon="-4.305044962093234">
        <ele>648.70000000000005</ele>
        <time>2003-04-16T13:04:38Z</time>
      </trkpt>
      <trkpt lat="30.722279967740178" lon="-4.304027985781431">
        <ele>650.10000000000002</ele>
        <time>2003-04-16T13:04:46Z</time>
      </trkpt>
      <trkpt lat="30.72275698184967" lon="-4.303017966449261">
        <ele>652.20000000000005</ele>
        <time>2003-04-16T13:04:56Z</time>
      </trkpt>
      <trkpt lat="30.72325000539422" lon="-4.301995038986206">
        <ele>653.89999999999998</ele>
        <time>2003-04-16T13:05:04Z</time>
      </trkpt>
      <trkpt lat="30.723737999796867" lon="-4.300947971642017">
        <ele>654</ele>
        <time>2003-04-16T13:05:11Z</time>
      </trkpt>
      <trkpt lat="30.724233034998178" lon="-4.299912974238396">
        <ele>653.89999999999998</ele>
        <time>2003-04-16T13:05:17Z</time>
      </trkpt>
      <trkpt lat="30.724727986380458" lon="-4.298860039561987">
        <ele>653.29999999999995</ele>
        <time>2003-04-16T13:05:24Z</time>
      </trkpt>
      <trkpt lat="30.725237019360065" lon="-4.297802997753024">
        <ele>654</ele>
        <time>2003-04-16T13:05:32Z</time>
      </trkpt>
      <trkpt lat="30.725721996277571" lon="-4.296775041148067">
        <ele>653.79999999999995</ele>
        <time>2003-04-16T13:05:39Z</time>
      </trkpt>
      <trkpt lat="30.726161962375045" lon="-4.295831993222237">
        <ele>653.70000000000005</ele>
        <time>2003-04-16T13:05:44Z</time>
      </trkpt>
      <trkpt lat="30.726605029776692" lon="-4.294909983873367">
        <ele>653.79999999999995</ele>
        <time>2003-04-16T13:05:51Z</time>
      </trkpt>
      <trkpt lat="30.726984981447458" lon="-4.294104985892773">
        <ele>653.89999999999998</ele>
        <time>2003-04-16T13:05:56Z</time>
      </trkpt>
      <trkpt lat="30.727412961423397" lon="-4.293163027614355">
        <ele>652.10000000000002</ele>
        <time>2003-04-16T13:06:05Z</time>
      </trkpt>
      <trkpt lat="30.72756702080369" lon="-4.292867984622717">
        <ele>651.60000000000002</ele>
        <time>2003-04-16T13:06:07Z</time>
      </trkpt>
      <trkpt lat="30.727671962231398" lon="-4.292734963819385">
        <ele>651.5</ele>
        <time>2003-04-16T13:06:10Z</time>
      </trkpt>
      <trkpt lat="30.727731976658106" lon="-4.292652988806367">
        <ele>651.39999999999998</ele>
        <time>2003-04-16T13:06:11Z</time>
      </trkpt>
      <trkpt lat="30.727967005223036" lon="-4.292294997721911">
        <ele>651.89999999999998</ele>
        <time>2003-04-16T13:06:18Z</time>
      </trkpt>
      <trkpt lat="30.728117041289806" lon="-4.292091988027096">
        <ele>651.70000000000005</ele>
        <time>2003-04-16T13:06:22Z</time>
      </trkpt>
      <trkpt lat="30.728387022390962" lon="-4.291731985285878">
        <ele>651.60000000000002</ele>
        <time>2003-04-16T13:06:29Z</time>
      </trkpt>
      <trkpt lat="30.728497998788953" lon="-4.291647998616099">
        <ele>651.60000000000002</ele>
        <time>2003-04-16T13:06:30Z</time>
      </trkpt>
      <trkpt lat="30.728652980178595" lon="-4.291526963934302">
        <ele>650.79999999999995</ele>
        <time>2003-04-16T13:06:34Z</time>
      </trkpt>
      <trkpt lat="30.72870503179729" lon="-4.291426967829466">
        <ele>650.60000000000002</ele>
        <time>2003-04-16T13:06:36Z</time>
      </trkpt>
      <trkpt lat="30.728730009868741" lon="-4.291281960904598">
        <ele>650.39999999999998</ele>
        <time>2003-04-16T13:06:38Z</time>
      </trkpt>
      <trkpt lat="30.728737972676754" lon="-4.291157992556691">
        <ele>649.60000000000002</ele>
        <time>2003-04-16T13:06:41Z</time>
      </trkpt>
      <trkpt lat="30.728688016533852" lon="-4.291033018380404">
        <ele>649.60000000000002</ele>
        <time>2003-04-16T13:06:42Z</time>
      </trkpt>
      <trkpt lat="30.72866203263402" lon="-4.290892034769058">
        <ele>649.79999999999995</ele>
        <time>2003-04-16T13:06:45Z</time>
      </trkpt>
      <trkpt lat="30.72866203263402" lon="-4.290772005915642">
        <ele>649.5</ele>
        <time>2003-04-16T13:06:46Z</time>
      </trkpt>
      <trkpt lat="30.728679969906807" lon="-4.290409991517663">
        <ele>648.5</ele>
        <time>2003-04-16T13:06:53Z</time>
      </trkpt>
      <trkpt lat="30.728703020140529" lon="-4.290268002077937">
        <ele>648.5</ele>
        <time>2003-04-16T13:06:56Z</time>
      </trkpt>
      <trkpt lat="30.728649962693453" lon="-4.290176974609494">
        <ele>648.70000000000005</ele>
        <time>2003-04-16T13:06:57Z</time>
      </trkpt>
      <trkpt lat="30.728673012927175" lon="-4.290053006261587">
        <ele>648.20000000000005</ele>
        <time>2003-04-16T13:07:01Z</time>
      </trkpt>
      <trkpt lat="30.728764962404966" lon="-4.289968013763428">
        <ele>648</ele>
        <time>2003-04-16T13:07:04Z</time>
      </trkpt>
      <trkpt lat="30.728902006521821" lon="-4.289917973801494">
        <ele>647.70000000000005</ele>
        <time>2003-04-16T13:07:07Z</time>
      </trkpt>
      <trkpt lat="30.728993033990264" lon="-4.289880003780127">
        <ele>647.5</ele>
        <time>2003-04-16T13:07:08Z</time>
      </trkpt>
      <trkpt lat="30.729211969301105" lon="-4.289762992411852">
        <ele>646.89999999999998</ele>
        <time>2003-04-16T13:07:12Z</time>
      </trkpt>
      <trkpt lat="30.729323029518127" lon="-4.289644975215197">
        <ele>646.89999999999998</ele>
        <time>2003-04-16T13:07:15Z</time>
      </trkpt>
      <trkpt lat="30.729429982602596" lon="-4.289486976340413">
        <ele>646.89999999999998</ele>
        <time>2003-04-16T13:07:16Z</time>
      </trkpt>
      <trkpt lat="30.729785040020943" lon="-4.288854980841279">
        <ele>648.5</ele>
        <time>2003-04-16T13:07:24Z</time>
      </trkpt>
      <trkpt lat="30.730245038866997" lon="-4.28788997232914">
        <ele>649.70000000000005</ele>
        <time>2003-04-16T13:07:32Z</time>
      </trkpt>
      <trkpt lat="30.730667989701033" lon="-4.286903003230691">
        <ele>650.29999999999995</ele>
        <time>2003-04-16T13:07:40Z</time>
      </trkpt>
      <trkpt lat="30.731075014919043" lon="-4.285919973626733">
        <ele>650.70000000000005</ele>
        <time>2003-04-16T13:07:47Z</time>
      </trkpt>
      <trkpt lat="30.731178028509021" lon="-4.285557959228754">
        <ele>651.39999999999998</ele>
        <time>2003-04-16T13:07:51Z</time>
      </trkpt>
      <trkpt lat="30.731352958828211" lon="-4.284907020628452">
        <ele>652</ele>
        <time>2003-04-16T13:07:55Z</time>
      </trkpt>
      <trkpt lat="30.731759984046221" lon="-4.283992974087596">
        <ele>653.39999999999998</ele>
        <time>2003-04-16T13:08:02Z</time>
      </trkpt>
      <trkpt lat="30.732216965407133" lon="-4.283042969182134">
        <ele>654.20000000000005</ele>
        <time>2003-04-16T13:08:10Z</time>
      </trkpt>
      <trkpt lat="30.732687022536993" lon="-4.282072009518743">
        <ele>654.79999999999995</ele>
        <time>2003-04-16T13:08:17Z</time>
      </trkpt>
      <trkpt lat="30.733169987797737" lon="-4.281067019328475">
        <ele>654.5</ele>
        <time>2003-04-16T13:08:24Z</time>
      </trkpt>
      <trkpt lat="30.733639961108565" lon="-4.280056999996305">
        <ele>654</ele>
        <time>2003-04-16T13:08:30Z</time>
      </trkpt>
      <trkpt lat="30.734122004359961" lon="-4.279014961794019">
        <ele>654.20000000000005</ele>
        <time>2003-04-16T13:08:37Z</time>
      </trkpt>
      <trkpt lat="30.734574962407351" lon="-4.278024975210428">
        <ele>654.89999999999998</ele>
        <time>2003-04-16T13:08:45Z</time>
      </trkpt>
      <trkpt lat="30.735032027587295" lon="-4.277047980576754">
        <ele>655.29999999999995</ele>
        <time>2003-04-16T13:08:52Z</time>
      </trkpt>
      <trkpt lat="30.735508035868406" lon="-4.276081966236234">
        <ele>655.5</ele>
        <time>2003-04-16T13:08:59Z</time>
      </trkpt>
      <trkpt lat="30.735678020864725" lon="-4.275700002908707">
        <ele>655.20000000000005</ele>
        <time>2003-04-16T13:09:01Z</time>
      </trkpt>
      <trkpt lat="30.736125027760863" lon="-4.274665005505085">
        <ele>654.70000000000005</ele>
        <time>2003-04-16T13:09:09Z</time>
      </trkpt>
      <trkpt lat="30.73659198358655" lon="-4.273760011419654">
        <ele>654.39999999999998</ele>
        <time>2003-04-16T13:09:16Z</time>
      </trkpt>
      <trkpt lat="30.736788036301732" lon="-4.273411994799972">
        <ele>654.39999999999998</ele>
        <time>2003-04-16T13:09:19Z</time>
      </trkpt>
      <trkpt lat="30.73727997019887" lon="-4.272408010438085">
        <ele>654.20000000000005</ele>
        <time>2003-04-16T13:09:27Z</time>
      </trkpt>
      <trkpt lat="30.737496977671981" lon="-4.271972989663482">
        <ele>654.20000000000005</ele>
        <time>2003-04-16T13:09:31Z</time>
      </trkpt>
      <trkpt lat="30.737841976806521" lon="-4.271262958645821">
        <ele>654.10000000000002</ele>
        <time>2003-04-16T13:09:39Z</time>
      </trkpt>
      <trkpt lat="30.737884975969791" lon="-4.271154999732971">
        <ele>654.10000000000002</ele>
        <time>2003-04-16T13:09:41Z</time>
      </trkpt>
      <trkpt lat="30.738144982606173" lon="-4.270516969263554">
        <ele>654.5</ele>
        <time>2003-04-16T13:09:50Z</time>
      </trkpt>
      <trkpt lat="30.73858997784555" lon="-4.269575010985136">
        <ele>654.39999999999998</ele>
        <time>2003-04-16T13:10:03Z</time>
      </trkpt>
      <trkpt lat="30.738822994753718" lon="-4.269206961616874">
        <ele>654.5</ele>
        <time>2003-04-16T13:10:09Z</time>
      </trkpt>
      <trkpt lat="30.739203030243516" lon="-4.268389977514744">
        <ele>654.5</ele>
        <time>2003-04-16T13:10:17Z</time>
      </trkpt>
      <trkpt lat="30.739626986905932" lon="-4.267407031729817">
        <ele>654</ele>
        <time>2003-04-16T13:10:29Z</time>
      </trkpt>
      <trkpt lat="30.739824967458844" lon="-4.266958013176918">
        <ele>653.70000000000005</ele>
        <time>2003-04-16T13:10:35Z</time>
      </trkpt>
      <trkpt lat="30.740307010710239" lon="-4.265983030200005">
        <ele>654.20000000000005</ele>
        <time>2003-04-16T13:10:44Z</time>
      </trkpt>
      <trkpt lat="30.740542961284518" lon="-4.265386993065476">
        <ele>654.20000000000005</ele>
        <time>2003-04-16T13:10:51Z</time>
      </trkpt>
      <trkpt lat="30.740601969882846" lon="-4.265052974224091">
        <ele>653.79999999999995</ele>
        <time>2003-04-16T13:10:53Z</time>
      </trkpt>
      <trkpt lat="30.740713030099869" lon="-4.264446962624788">
        <ele>653</ele>
        <time>2003-04-16T13:11:00Z</time>
      </trkpt>
      <trkpt lat="30.740898018702865" lon="-4.263411965221167">
        <ele>652.10000000000002</ele>
        <time>2003-04-16T13:11:11Z</time>
      </trkpt>
      <trkpt lat="30.740904975682497" lon="-4.263114994391799">
        <ele>651.70000000000005</ele>
        <time>2003-04-16T13:11:14Z</time>
      </trkpt>
      <trkpt lat="30.740810008719563" lon="-4.261985030025244">
        <ele>651.60000000000002</ele>
        <time>2003-04-16T13:11:24Z</time>
      </trkpt>
      <trkpt lat="30.740798022598028" lon="-4.260918013751507">
        <ele>651.39999999999998</ele>
        <time>2003-04-16T13:11:35Z</time>
      </trkpt>
      <trkpt lat="30.740838004276156" lon="-4.260607967153192">
        <ele>651.10000000000002</ele>
        <time>2003-04-16T13:11:38Z</time>
      </trkpt>
      <trkpt lat="30.740936994552612" lon="-4.260140005499125">
        <ele>651.20000000000005</ele>
        <time>2003-04-16T13:11:42Z</time>
      </trkpt>
      <trkpt lat="30.740947974845767" lon="-4.259867006912828">
        <ele>650.89999999999998</ele>
        <time>2003-04-16T13:11:45Z</time>
      </trkpt>
      <trkpt lat="30.74093003757298" lon="-4.259607000276446">
        <ele>650.60000000000002</ele>
        <time>2003-04-16T13:11:46Z</time>
      </trkpt>
      <trkpt lat="30.740928025916219" lon="-4.259389992803335">
        <ele>649.89999999999998</ele>
        <time>2003-04-16T13:11:49Z</time>
      </trkpt>
      <trkpt lat="30.740916961804032" lon="-4.259272981435061">
        <ele>649.89999999999998</ele>
        <time>2003-04-16T13:11:50Z</time>
      </trkpt>
      <trkpt lat="30.740806991234422" lon="-4.258145028725267">
        <ele>650.10000000000002</ele>
        <time>2003-04-16T13:11:58Z</time>
      </trkpt>
      <trkpt lat="30.740604987367988" lon="-4.257255038246512">
        <ele>649.5</ele>
        <time>2003-04-16T13:12:05Z</time>
      </trkpt>
      <trkpt lat="30.740344980731606" lon="-4.256258010864258">
        <ele>648.5</ele>
        <time>2003-04-16T13:12:13Z</time>
      </trkpt>
      <trkpt lat="30.740342969074845" lon="-4.256024993956089">
        <ele>648.5</ele>
        <time>2003-04-16T13:12:16Z</time>
      </trkpt>
      <trkpt lat="30.740297036245465" lon="-4.255673037841916">
        <ele>648.39999999999998</ele>
        <time>2003-04-16T13:12:18Z</time>
      </trkpt>
      <trkpt lat="30.740229981020093" lon="-4.255271963775158">
        <ele>648.20000000000005</ele>
        <time>2003-04-16T13:12:21Z</time>
      </trkpt>
      <trkpt lat="30.740211959928274" lon="-4.254533015191555">
        <ele>647.89999999999998</ele>
        <time>2003-04-16T13:12:28Z</time>
      </trkpt>
      <trkpt lat="30.740217994898558" lon="-4.25439303740859">
        <ele>648</ele>
        <time>2003-04-16T13:12:29Z</time>
      </trkpt>
      <trkpt lat="30.740253031253815" lon="-4.25417996942997">
        <ele>647.79999999999995</ele>
        <time>2003-04-16T13:12:32Z</time>
      </trkpt>
      <trkpt lat="30.740254959091544" lon="-4.254067987203598">
        <ele>647.70000000000005</ele>
        <time>2003-04-16T13:12:32Z</time>
      </trkpt>
      <trkpt lat="30.740259988233447" lon="-4.253806974738836">
        <ele>647.60000000000002</ele>
        <time>2003-04-16T13:12:35Z</time>
      </trkpt>
      <trkpt lat="30.740271974354982" lon="-4.253355022519827">
        <ele>647.5</ele>
        <time>2003-04-16T13:12:37Z</time>
      </trkpt>
      <trkpt lat="30.740312961861491" lon="-4.252887982875109">
        <ele>647.39999999999998</ele>
        <time>2003-04-16T13:12:40Z</time>
      </trkpt>
      <trkpt lat="30.740498034283519" lon="-4.251832030713558">
        <ele>647.89999999999998</ele>
        <time>2003-04-16T13:12:48Z</time>
      </trkpt>
      <trkpt lat="30.740704983472824" lon="-4.250937011092901">
        <ele>647.60000000000002</ele>
        <time>2003-04-16T13:12:54Z</time>
      </trkpt>
      <trkpt lat="30.740885026752949" lon="-4.250482963398099">
        <ele>648</ele>
        <time>2003-04-16T13:12:56Z</time>
      </trkpt>
      <trkpt lat="30.741206975653768" lon="-4.249857002869248">
        <ele>649.79999999999995</ele>
        <time>2003-04-16T13:13:03Z</time>
      </trkpt>
      <trkpt lat="30.741321975365281" lon="-4.24968701787293">
        <ele>650.20000000000005</ele>
        <time>2003-04-16T13:13:03Z</time>
      </trkpt>
      <trkpt lat="30.741407973691821" lon="-4.249547040089965">
        <ele>650.89999999999998</ele>
        <time>2003-04-16T13:13:06Z</time>
      </trkpt>
      <trkpt lat="30.741537977010012" lon="-4.249268006533384">
        <ele>650.89999999999998</ele>
        <time>2003-04-16T13:13:08Z</time>
      </trkpt>
      <trkpt lat="30.741657000035048" lon="-4.249116964638233">
        <ele>651.20000000000005</ele>
        <time>2003-04-16T13:13:11Z</time>
      </trkpt>
      <trkpt lat="30.741869984194636" lon="-4.248906997963786">
        <ele>651</ele>
        <time>2003-04-16T13:13:15Z</time>
      </trkpt>
      <trkpt lat="30.741926981136203" lon="-4.248804990202189">
        <ele>652.29999999999995</ele>
        <time>2003-04-16T13:13:15Z</time>
      </trkpt>
      <trkpt lat="30.742129990831017" lon="-4.248480023816228">
        <ele>653.10000000000002</ele>
        <time>2003-04-16T13:13:18Z</time>
      </trkpt>
      <trkpt lat="30.742472978308797" lon="-4.247914999723434">
        <ele>654.20000000000005</ele>
        <time>2003-04-16T13:13:23Z</time>
      </trkpt>
      <trkpt lat="30.742789981886744" lon="-4.247192982584238">
        <ele>653.89999999999998</ele>
        <time>2003-04-16T13:13:30Z</time>
      </trkpt>
      <trkpt lat="30.742949992418289" lon="-4.24670297652483">
        <ele>655.10000000000002</ele>
        <time>2003-04-16T13:13:34Z</time>
      </trkpt>
      <trkpt lat="30.742982011288404" lon="-4.246567022055388">
        <ele>655.10000000000002</ele>
        <time>2003-04-16T13:13:35Z</time>
      </trkpt>
      <trkpt lat="30.743217961862683" lon="-4.245518026873469">
        <ele>656.5</ele>
        <time>2003-04-16T13:13:49Z</time>
      </trkpt>
      <trkpt lat="30.743313012644649" lon="-4.245102033019066">
        <ele>658.20000000000005</ele>
        <time>2003-04-16T13:13:53Z</time>
      </trkpt>
      <trkpt lat="30.743462964892387" lon="-4.244455033913255">
        <ele>659.20000000000005</ele>
        <time>2003-04-16T13:14:01Z</time>
      </trkpt>
      <trkpt lat="30.74353002011776" lon="-4.244125038385391">
        <ele>659.60000000000002</ele>
        <time>2003-04-16T13:14:04Z</time>
      </trkpt>
      <trkpt lat="30.743651976808906" lon="-4.243273017928004">
        <ele>657.89999999999998</ele>
        <time>2003-04-16T13:14:11Z</time>
      </trkpt>
      <trkpt lat="30.743694975972176" lon="-4.242975041270256">
        <ele>658.60000000000002</ele>
        <time>2003-04-16T13:14:13Z</time>
      </trkpt>
      <trkpt lat="30.74370302259922" lon="-4.242797009646893">
        <ele>658.89999999999998</ele>
        <time>2003-04-16T13:14:16Z</time>
      </trkpt>
      <trkpt lat="30.743652982637286" lon="-4.241701997816563">
        <ele>661.39999999999998</ele>
        <time>2003-04-16T13:14:27Z</time>
      </trkpt>
      <trkpt lat="30.743628004565835" lon="-4.241533018648624">
        <ele>662.20000000000005</ele>
        <time>2003-04-16T13:14:28Z</time>
      </trkpt>
      <trkpt lat="30.743451984599233" lon="-4.24042702652514">
        <ele>661.89999999999998</ele>
        <time>2003-04-16T13:14:40Z</time>
      </trkpt>
      <trkpt lat="30.743264984339476" lon="-4.239357998594642">
        <ele>659.20000000000005</ele>
        <time>2003-04-16T13:14:52Z</time>
      </trkpt>
      <trkpt lat="30.743202958256006" lon="-4.238977041095495">
        <ele>658.29999999999995</ele>
        <time>2003-04-16T13:14:56Z</time>
      </trkpt>
      <trkpt lat="30.743025010451674" lon="-4.237837018445134">
        <ele>656.89999999999998</ele>
        <time>2003-04-16T13:15:07Z</time>
      </trkpt>
      <trkpt lat="30.742859970778227" lon="-4.236848037689924">
        <ele>657.60000000000002</ele>
        <time>2003-04-16T13:15:17Z</time>
      </trkpt>
      <trkpt lat="30.742838010191917" lon="-4.23668802715838">
        <ele>657.70000000000005</ele>
        <time>2003-04-16T13:15:18Z</time>
      </trkpt>
      <trkpt lat="30.74282200075686" lon="-4.23656296916306">
        <ele>658.10000000000002</ele>
        <time>2003-04-16T13:15:21Z</time>
      </trkpt>
      <trkpt lat="30.74280297383666" lon="-4.236415028572083">
        <ele>658</ele>
        <time>2003-04-16T13:15:23Z</time>
      </trkpt>
      <trkpt lat="30.742753017693758" lon="-4.23626197502017">
        <ele>657.79999999999995</ele>
        <time>2003-04-16T13:16:04Z</time>
      </trkpt>
      <trkpt lat="30.742731979116797" lon="-4.236112022772431">
        <ele>657.29999999999995</ele>
        <time>2003-04-16T13:16:05Z</time>
      </trkpt>
      <trkpt lat="30.742704989388585" lon="-4.235912030562758">
        <ele>657.5</ele>
        <time>2003-04-16T13:16:08Z</time>
      </trkpt>
      <trkpt lat="30.742647992447019" lon="-4.235583040863276">
        <ele>658.10000000000002</ele>
        <time>2003-04-16T13:16:11Z</time>
      </trkpt>
      <trkpt lat="30.742474989965558" lon="-4.234476964920759">
        <ele>659</ele>
        <time>2003-04-16T13:16:20Z</time>
      </trkpt>
      <trkpt lat="30.742378011345863" lon="-4.233712032437325">
        <ele>659.79999999999995</ele>
        <time>2003-04-16T13:16:26Z</time>
      </trkpt>
      <trkpt lat="30.742405001074076" lon="-4.23335999250412">
        <ele>660.89999999999998</ele>
        <time>2003-04-16T13:16:28Z</time>
      </trkpt>
      <trkpt lat="30.742472978308797" lon="-4.233109960332513">
        <ele>660.29999999999995</ele>
        <time>2003-04-16T13:16:31Z</time>
      </trkpt>
      <trkpt lat="30.742855025455356" lon="-4.232040010392666">
        <ele>660.10000000000002</ele>
        <time>2003-04-16T13:16:39Z</time>
      </trkpt>
      <trkpt lat="30.742921996861696" lon="-4.231838006526232">
        <ele>660.10000000000002</ele>
        <time>2003-04-16T13:16:40Z</time>
      </trkpt>
      <trkpt lat="30.74310002848506" lon="-4.231461994349957">
        <ele>661.60000000000002</ele>
        <time>2003-04-16T13:16:44Z</time>
      </trkpt>
      <trkpt lat="30.74335802346468" lon="-4.230922032147646">
        <ele>662.60000000000002</ele>
        <time>2003-04-16T13:16:50Z</time>
      </trkpt>
      <trkpt lat="30.74366002343595" lon="-4.230262041091919">
        <ele>669</ele>
        <time>2003-04-16T13:16:55Z</time>
      </trkpt>
      <trkpt lat="30.743732023984194" lon="-4.230164978653193">
        <ele>670.70000000000005</ele>
        <time>2003-04-16T13:16:58Z</time>
      </trkpt>
      <trkpt lat="30.743794972077012" lon="-4.230022989213467">
        <ele>669</ele>
        <time>2003-04-16T13:16:59Z</time>
      </trkpt>
      <trkpt lat="30.743867978453636" lon="-4.229838000610471">
        <ele>667.79999999999995</ele>
        <time>2003-04-16T13:17:02Z</time>
      </trkpt>
      <trkpt lat="30.743958000093699" lon="-4.229623004794121">
        <ele>665.60000000000002</ele>
        <time>2003-04-16T13:17:03Z</time>
      </trkpt>
      <trkpt lat="30.744060007855296" lon="-4.229283034801483">
        <ele>664.10000000000002</ele>
        <time>2003-04-16T13:17:06Z</time>
      </trkpt>
      <trkpt lat="30.744124967604876" lon="-4.228841979056597">
        <ele>663.89999999999998</ele>
        <time>2003-04-16T13:17:10Z</time>
      </trkpt>
      <trkpt lat="30.744127985090017" lon="-4.22852698713541">
        <ele>663.5</ele>
        <time>2003-04-16T13:17:14Z</time>
      </trkpt>
      <trkpt lat="30.744048021733761" lon="-4.227943019941449">
        <ele>662.10000000000002</ele>
        <time>2003-04-16T13:17:18Z</time>
      </trkpt>
      <trkpt lat="30.743930004537106" lon="-4.227562984451652">
        <ele>661.20000000000005</ele>
        <time>2003-04-16T13:17:22Z</time>
      </trkpt>
      <trkpt lat="30.743882982060313" lon="-4.227325022220612">
        <ele>660.5</ele>
        <time>2003-04-16T13:17:24Z</time>
      </trkpt>
      <trkpt lat="30.743878036737442" lon="-4.227132992818952">
        <ele>660.10000000000002</ele>
        <time>2003-04-16T13:17:25Z</time>
      </trkpt>
      <trkpt lat="30.743862027302384" lon="-4.226901987567544">
        <ele>659.89999999999998</ele>
        <time>2003-04-16T13:17:28Z</time>
      </trkpt>
      <trkpt lat="30.743836965411901" lon="-4.226790005341172">
        <ele>659.39999999999998</ele>
        <time>2003-04-16T13:17:29Z</time>
      </trkpt>
      <trkpt lat="30.74370201677084" lon="-4.225858021527529">
        <ele>661</ele>
        <time>2003-04-16T13:17:37Z</time>
      </trkpt>
      <trkpt lat="30.743588022887707" lon="-4.22474498860538">
        <ele>655.10000000000002</ele>
        <time>2003-04-16T13:17:45Z</time>
      </trkpt>
      <trkpt lat="30.743579976260662" lon="-4.224192034453154">
        <ele>653.89999999999998</ele>
        <time>2003-04-16T13:17:51Z</time>
      </trkpt>
      <trkpt lat="30.743590034544468" lon="-4.22399003058672">
        <ele>653.70000000000005</ele>
        <time>2003-04-16T13:17:52Z</time>
      </trkpt>
      <trkpt lat="30.74357301928103" lon="-4.223770005628467">
        <ele>654.29999999999995</ele>
        <time>2003-04-16T13:17:55Z</time>
      </trkpt>
      <trkpt lat="30.743481991812587" lon="-4.223172040656209">
        <ele>654.60000000000002</ele>
        <time>2003-04-16T13:18:00Z</time>
      </trkpt>
      <trkpt lat="30.743367997929454" lon="-4.22238196246326">
        <ele>653</ele>
        <time>2003-04-16T13:18:05Z</time>
      </trkpt>
      <trkpt lat="30.743312006816268" lon="-4.221792966127396">
        <ele>653.10000000000002</ele>
        <time>2003-04-16T13:18:11Z</time>
      </trkpt>
      <trkpt lat="30.743292979896069" lon="-4.221624992787838">
        <ele>653.29999999999995</ele>
        <time>2003-04-16T13:18:12Z</time>
      </trkpt>
      <trkpt lat="30.743262972682714" lon="-4.2212850227952">
        <ele>653.79999999999995</ele>
        <time>2003-04-16T13:18:16Z</time>
      </trkpt>
      <trkpt lat="30.743242017924786" lon="-4.220248013734818">
        <ele>654.79999999999995</ele>
        <time>2003-04-16T13:18:23Z</time>
      </trkpt>
      <trkpt lat="30.743318041786551" lon="-4.219642002135515">
        <ele>655.60000000000002</ele>
        <time>2003-04-16T13:18:27Z</time>
      </trkpt>
      <trkpt lat="30.743506969884038" lon="-4.218553025275469">
        <ele>656.20000000000005</ele>
        <time>2003-04-16T13:18:35Z</time>
      </trkpt>
      <trkpt lat="30.743706962093711" lon="-4.21737696044147">
        <ele>657</ele>
        <time>2003-04-16T13:18:43Z</time>
      </trkpt>
      <trkpt lat="30.743851969018579" lon="-4.216519994661212">
        <ele>657.79999999999995</ele>
        <time>2003-04-16T13:18:49Z</time>
      </trkpt>
      <trkpt lat="30.744056990370154" lon="-4.215345019474626">
        <ele>657.60000000000002</ele>
        <time>2003-04-16T13:18:57Z</time>
      </trkpt>
      <trkpt lat="30.744252959266305" lon="-4.214231986552477">
        <ele>658.39999999999998</ele>
        <time>2003-04-16T13:19:03Z</time>
      </trkpt>
      <trkpt lat="30.744431996718049" lon="-4.213196989148855">
        <ele>657.5</ele>
        <time>2003-04-16T13:19:10Z</time>
      </trkpt>
      <trkpt lat="30.744632994756103" lon="-4.212056966498494">
        <ele>657.5</ele>
        <time>2003-04-16T13:19:17Z</time>
      </trkpt>
      <trkpt lat="30.744817983359098" lon="-4.210964972153306">
        <ele>653.79999999999995</ele>
        <time>2003-04-16T13:19:24Z</time>
      </trkpt>
      <trkpt lat="30.745010012760758" lon="-4.209838025271893">
        <ele>653.5</ele>
        <time>2003-04-16T13:19:30Z</time>
      </trkpt>
      <trkpt lat="30.745176980271935" lon="-4.208837980404496">
        <ele>652.5</ele>
        <time>2003-04-16T13:19:37Z</time>
      </trkpt>
      <trkpt lat="30.745382001623511" lon="-4.20768697746098">
        <ele>652.89999999999998</ele>
        <time>2003-04-16T13:19:45Z</time>
      </trkpt>
      <trkpt lat="30.745581993833184" lon="-4.206547038629651">
        <ele>653.20000000000005</ele>
        <time>2003-04-16T13:19:53Z</time>
      </trkpt>
      <trkpt lat="30.745775029063225" lon="-4.205448003485799">
        <ele>653</ele>
        <time>2003-04-16T13:20:02Z</time>
      </trkpt>
      <trkpt lat="30.745812999084592" lon="-4.205339960753918">
        <ele>653.20000000000005</ele>
        <time>2003-04-16T13:20:03Z</time>
      </trkpt>
      <trkpt lat="30.745828002691269" lon="-4.205232001841068">
        <ele>653.29999999999995</ele>
        <time>2003-04-16T13:20:04Z</time>
      </trkpt>
      <trkpt lat="30.746030006557703" lon="-4.20414000749588">
        <ele>653.39999999999998</ele>
        <time>2003-04-16T13:20:14Z</time>
      </trkpt>
      <trkpt lat="30.746209966018796" lon="-4.202982969582081">
        <ele>654.89999999999998</ele>
        <time>2003-04-16T13:20:23Z</time>
      </trkpt>
      <trkpt lat="30.746424961835146" lon="-4.201853005215526">
        <ele>653.89999999999998</ele>
        <time>2003-04-16T13:20:31Z</time>
      </trkpt>
      <trkpt lat="30.746652027592063" lon="-4.200781965628266">
        <ele>655.20000000000005</ele>
        <time>2003-04-16T13:20:39Z</time>
      </trkpt>
      <trkpt lat="30.746914967894554" lon="-4.200091967359185">
        <ele>654.10000000000002</ele>
        <time>2003-04-16T13:20:45Z</time>
      </trkpt>
      <trkpt lat="30.747168017551303" lon="-4.199587963521481">
        <ele>654.10000000000002</ele>
        <time>2003-04-16T13:20:49Z</time>
      </trkpt>
      <trkpt lat="30.747762965038419" lon="-4.198696967214346">
        <ele>656.60000000000002</ele>
        <time>2003-04-16T13:20:56Z</time>
      </trkpt>
      <trkpt lat="30.748399989679456" lon="-4.19775802642107">
        <ele>656.79999999999995</ele>
        <time>2003-04-16T13:21:02Z</time>
      </trkpt>
      <trkpt lat="30.748993009328842" lon="-4.196895025670528">
        <ele>656.20000000000005</ele>
        <time>2003-04-16T13:21:09Z</time>
      </trkpt>
      <trkpt lat="30.749421995133162" lon="-4.196242997422814">
        <ele>654.70000000000005</ele>
        <time>2003-04-16T13:21:13Z</time>
      </trkpt>
      <trkpt lat="30.749559961259365" lon="-4.196048034355044">
        <ele>654</ele>
        <time>2003-04-16T13:21:16Z</time>
      </trkpt>
      <trkpt lat="30.749632967635989" lon="-4.19597796164453">
        <ele>653.70000000000005</ele>
        <time>2003-04-16T13:21:17Z</time>
      </trkpt>
      <trkpt lat="30.749721983447671" lon="-4.195918031036854">
        <ele>653.29999999999995</ele>
        <time>2003-04-16T13:21:17Z</time>
      </trkpt>
      <trkpt lat="30.749882999807596" lon="-4.195836978033185">
        <ele>652.89999999999998</ele>
        <time>2003-04-16T13:21:20Z</time>
      </trkpt>
      <trkpt lat="30.750330006703734" lon="-4.195657018572092">
        <ele>652.79999999999995</ele>
        <time>2003-04-16T13:21:25Z</time>
      </trkpt>
      <trkpt lat="30.750411981716752" lon="-4.19558996334672">
        <ele>652.60000000000002</ele>
        <time>2003-04-16T13:21:25Z</time>
      </trkpt>
      <trkpt lat="30.750479958951473" lon="-4.195512011647224">
        <ele>652.60000000000002</ele>
        <time>2003-04-16T13:21:27Z</time>
      </trkpt>
      <trkpt lat="30.750541985034943" lon="-4.195413021370769">
        <ele>652.60000000000002</ele>
        <time>2003-04-16T13:21:28Z</time>
      </trkpt>
      <trkpt lat="30.750588001683354" lon="-4.195302966982126">
        <ele>652.29999999999995</ele>
        <time>2003-04-16T13:21:28Z</time>
      </trkpt>
      <trkpt lat="30.750859994441271" lon="-4.194711958989501">
        <ele>652.29999999999995</ele>
        <time>2003-04-16T13:21:33Z</time>
      </trkpt>
      <trkpt lat="30.751314964145422" lon="-4.193757008761168">
        <ele>652.39999999999998</ele>
        <time>2003-04-16T13:21:40Z</time>
      </trkpt>
      <trkpt lat="30.751809999346733" lon="-4.192793006077409">
        <ele>652.39999999999998</ele>
        <time>2003-04-16T13:21:48Z</time>
      </trkpt>
      <trkpt lat="30.752087021246552" lon="-4.19238799251616">
        <ele>653.70000000000005</ele>
        <time>2003-04-16T13:21:51Z</time>
      </trkpt>
      <trkpt lat="30.75268498621881" lon="-4.191511999815702">
        <ele>655.79999999999995</ele>
        <time>2003-04-16T13:21:58Z</time>
      </trkpt>
      <trkpt lat="30.753265013918281" lon="-4.190557971596718">
        <ele>655.79999999999995</ele>
        <time>2003-04-16T13:22:04Z</time>
      </trkpt>
      <trkpt lat="30.753807993605733" lon="-4.18963797390461">
        <ele>654.70000000000005</ele>
        <time>2003-04-16T13:22:11Z</time>
      </trkpt>
      <trkpt lat="30.754375029355288" lon="-4.188674977049232">
        <ele>654.20000000000005</ele>
        <time>2003-04-16T13:22:19Z</time>
      </trkpt>
      <trkpt lat="30.754566974937916" lon="-4.188359985128045">
        <ele>654.39999999999998</ele>
        <time>2003-04-16T13:22:22Z</time>
      </trkpt>
      <trkpt lat="30.755082964897156" lon="-4.187479969114065">
        <ele>655.70000000000005</ele>
        <time>2003-04-16T13:22:30Z</time>
      </trkpt>
      <trkpt lat="30.755628040060401" lon="-4.186537005007267">
        <ele>655.89999999999998</ele>
        <time>2003-04-16T13:22:38Z</time>
      </trkpt>
      <trkpt lat="30.755991982296109" lon="-4.185916995629668">
        <ele>656.70000000000005</ele>
        <time>2003-04-16T13:22:45Z</time>
      </trkpt>
      <trkpt lat="30.756322983652353" lon="-4.185360018163919">
        <ele>657.20000000000005</ele>
        <time>2003-04-16T13:22:49Z</time>
      </trkpt>
      <trkpt lat="30.756865041330457" lon="-4.184419987723231">
        <ele>656.79999999999995</ele>
        <time>2003-04-16T13:22:57Z</time>
      </trkpt>
      <trkpt lat="30.757337026298046" lon="-4.18362001888454">
        <ele>656</ele>
        <time>2003-04-16T13:23:05Z</time>
      </trkpt>
      <trkpt lat="30.757853016257286" lon="-4.182758023962379">
        <ele>654.89999999999998</ele>
        <time>2003-04-16T13:23:13Z</time>
      </trkpt>
      <trkpt lat="30.757901966571808" lon="-4.1826550103724">
        <ele>654.20000000000005</ele>
        <time>2003-04-16T13:23:13Z</time>
      </trkpt>
      <trkpt lat="30.758381998166442" lon="-4.181723026558757">
        <ele>655.60000000000002</ele>
        <time>2003-04-16T13:23:23Z</time>
      </trkpt>
      <trkpt lat="30.758830010890961" lon="-4.180849967524409">
        <ele>655.79999999999995</ele>
        <time>2003-04-16T13:23:32Z</time>
      </trkpt>
      <trkpt lat="30.758924977853894" lon="-4.180662967264652">
        <ele>655.5</ele>
        <time>2003-04-16T13:23:33Z</time>
      </trkpt>
      <trkpt lat="30.759401991963387" lon="-4.179712040349841">
        <ele>656.70000000000005</ele>
        <time>2003-04-16T13:23:43Z</time>
      </trkpt>
      <trkpt lat="30.759904989972711" lon="-4.178713001310825">
        <ele>655.5</ele>
        <time>2003-04-16T13:23:51Z</time>
      </trkpt>
      <trkpt lat="30.760367000475526" lon="-4.177789986133575">
        <ele>655.60000000000002</ele>
        <time>2003-04-16T13:23:59Z</time>
      </trkpt>
      <trkpt lat="30.760628012940288" lon="-4.177302997559309">
        <ele>655.70000000000005</ele>
        <time>2003-04-16T13:24:05Z</time>
      </trkpt>
      <trkpt lat="30.760987009853125" lon="-4.176649963483214">
        <ele>654.89999999999998</ele>
        <time>2003-04-16T13:24:11Z</time>
      </trkpt>
      <trkpt lat="30.761417001485825" lon="-4.17601503431797">
        <ele>654.39999999999998</ele>
        <time>2003-04-16T13:24:18Z</time>
      </trkpt>
      <trkpt lat="30.762147987261415" lon="-4.175237026065588">
        <ele>653.20000000000005</ele>
        <time>2003-04-16T13:24:26Z</time>
      </trkpt>
      <trkpt lat="30.762313026934862" lon="-4.175069974735379">
        <ele>653.70000000000005</ele>
        <time>2003-04-16T13:24:29Z</time>
      </trkpt>
      <trkpt lat="30.76258996501565" lon="-4.174826983362436">
        <ele>653.89999999999998</ele>
        <time>2003-04-16T13:24:32Z</time>
      </trkpt>
      <trkpt lat="30.763390017673373" lon="-4.174112007021904">
        <ele>653</ele>
        <time>2003-04-16T13:24:40Z</time>
      </trkpt>
      <trkpt lat="30.764186969026923" lon="-4.173417985439301">
        <ele>652.89999999999998</ele>
        <time>2003-04-16T13:24:48Z</time>
      </trkpt>
      <trkpt lat="30.76493295840919" lon="-4.17275195941329">
        <ele>653.70000000000005</ele>
        <time>2003-04-16T13:24:56Z</time>
      </trkpt>
      <trkpt lat="30.765686994418502" lon="-4.172094985842705">
        <ele>653</ele>
        <time>2003-04-16T13:25:04Z</time>
      </trkpt>
      <trkpt lat="30.766465002670884" lon="-4.171402975916863">
        <ele>654.39999999999998</ele>
        <time>2003-04-16T13:25:12Z</time>
      </trkpt>
      <trkpt lat="30.767258014529943" lon="-4.17070996016264">
        <ele>653.10000000000002</ele>
        <time>2003-04-16T13:25:20Z</time>
      </trkpt>
      <trkpt lat="30.76802303083241" lon="-4.170033037662506">
        <ele>654.29999999999995</ele>
        <time>2003-04-16T13:25:27Z</time>
      </trkpt>
      <trkpt lat="30.768787041306496" lon="-4.169372962787747">
        <ele>654.60000000000002</ele>
        <time>2003-04-16T13:25:34Z</time>
      </trkpt>
      <trkpt lat="30.769581981003284" lon="-4.168659998103976">
        <ele>653.89999999999998</ele>
        <time>2003-04-16T13:25:42Z</time>
      </trkpt>
      <trkpt lat="30.770374992862344" lon="-4.167973017320037">
        <ele>654.29999999999995</ele>
        <time>2003-04-16T13:25:50Z</time>
      </trkpt>
      <trkpt lat="30.7711629755795" lon="-4.167277989909053">
        <ele>654.5</ele>
        <time>2003-04-16T13:25:58Z</time>
      </trkpt>
      <trkpt lat="30.771709978580475" lon="-4.16679996997118">
        <ele>660</ele>
        <time>2003-04-16T13:26:03Z</time>
      </trkpt>
      <trkpt lat="30.772492010146379" lon="-4.166120029985905">
        <ele>657.29999999999995</ele>
        <time>2003-04-16T13:26:13Z</time>
      </trkpt>
      <trkpt lat="30.773272030055523" lon="-4.165449980646372">
        <ele>656.10000000000002</ele>
        <time>2003-04-16T13:26:21Z</time>
      </trkpt>
      <trkpt lat="30.774079961702228" lon="-4.16473500430584">
        <ele>656</ele>
        <time>2003-04-16T13:26:29Z</time>
      </trkpt>
      <trkpt lat="30.7748550362885" lon="-4.164067972451448">
        <ele>657.60000000000002</ele>
        <time>2003-04-16T13:26:37Z</time>
      </trkpt>
      <trkpt lat="30.775621980428696" lon="-4.163406975567341">
        <ele>655.10000000000002</ele>
        <time>2003-04-16T13:26:45Z</time>
      </trkpt>
      <trkpt lat="30.776429995894432" lon="-4.162698034197092">
        <ele>656.5</ele>
        <time>2003-04-16T13:26:52Z</time>
      </trkpt>
      <trkpt lat="30.777200041338801" lon="-4.162022033706307">
        <ele>656.20000000000005</ele>
        <time>2003-04-16T13:27:00Z</time>
      </trkpt>
      <trkpt lat="30.777947036549449" lon="-4.161367993801832">
        <ele>655.79999999999995</ele>
        <time>2003-04-16T13:27:07Z</time>
      </trkpt>
      <trkpt lat="30.778739964589477" lon="-4.160672966390848">
        <ele>656.79999999999995</ele>
        <time>2003-04-16T13:27:14Z</time>
      </trkpt>
      <trkpt lat="30.778989996761084" lon="-4.160446990281344">
        <ele>656.20000000000005</ele>
        <time>2003-04-16T13:27:16Z</time>
      </trkpt>
      <trkpt lat="30.779097033664584" lon="-4.160325033590198">
        <ele>655.70000000000005</ele>
        <time>2003-04-16T13:27:19Z</time>
      </trkpt>
      <trkpt lat="30.779138021171093" lon="-4.160193018615246">
        <ele>656</ele>
        <time>2003-04-16T13:27:20Z</time>
      </trkpt>
      <trkpt lat="30.779101978987455" lon="-4.160056980326772">
        <ele>657.10000000000002</ele>
        <time>2003-04-16T13:27:23Z</time>
      </trkpt>
      <trkpt lat="30.779027966782451" lon="-4.159947009757161">
        <ele>657.5</ele>
        <time>2003-04-16T13:27:24Z</time>
      </trkpt>
      <trkpt lat="30.778927970677614" lon="-4.159805020317435">
        <ele>657.79999999999995</ele>
        <time>2003-04-16T13:27:27Z</time>
      </trkpt>
      <trkpt lat="30.778720015659928" lon="-4.15949497371912">
        <ele>658</ele>
        <time>2003-04-16T13:27:31Z</time>
      </trkpt>
      <trkpt lat="30.778607027605176" lon="-4.159330017864704">
        <ele>658</ele>
        <time>2003-04-16T13:27:34Z</time>
      </trkpt>
      <trkpt lat="30.778139987960458" lon="-4.158606994897127">
        <ele>657.70000000000005</ele>
        <time>2003-04-16T13:27:42Z</time>
      </trkpt>
      <trkpt lat="30.777591979131103" lon="-4.15775204077363">
        <ele>656.79999999999995</ele>
        <time>2003-04-16T13:27:50Z</time>
      </trkpt>
      <trkpt lat="30.777417970821261" lon="-4.15749303996563">
        <ele>656.29999999999995</ele>
        <time>2003-04-16T13:27:53Z</time>
      </trkpt>
      <trkpt lat="30.77732702717185" lon="-4.157357001677156">
        <ele>656.10000000000002</ele>
        <time>2003-04-16T13:27:54Z</time>
      </trkpt>
      <trkpt lat="30.77721999026835" lon="-4.15717201307416">
        <ele>655.70000000000005</ele>
        <time>2003-04-16T13:27:58Z</time>
      </trkpt>
      <trkpt lat="30.77696300111711" lon="-4.156710002571344">
        <ele>656.29999999999995</ele>
        <time>2003-04-16T13:28:06Z</time>
      </trkpt>
      <trkpt lat="30.776917990297079" lon="-4.156602965667844">
        <ele>656</ele>
        <time>2003-04-16T13:28:09Z</time>
      </trkpt>
      <trkpt lat="30.776863005012274" lon="-4.156462987884879">
        <ele>653.70000000000005</ele>
        <time>2003-04-16T13:28:13Z</time>
      </trkpt>
      <trkpt lat="30.777022009715438" lon="-4.15631303563714">
        <ele>655.10000000000002</ele>
        <time>2003-04-16T13:43:50Z</time>
      </trkpt>
      <trkpt lat="30.777170034125447" lon="-4.156246986240149">
        <ele>654.79999999999995</ele>
        <time>2003-04-16T13:43:57Z</time>
      </trkpt>
      <trkpt lat="30.777257038280368" lon="-4.156204992905259">
        <ele>655.10000000000002</ele>
        <time>2003-04-16T13:44:02Z</time>
      </trkpt>
      <trkpt lat="30.777331972494721" lon="-4.156127963215113">
        <ele>654.89999999999998</ele>
        <time>2003-04-16T13:44:06Z</time>
      </trkpt>
      <trkpt lat="30.777470022439957" lon="-4.1559680365026">
        <ele>654.89999999999998</ele>
        <time>2003-04-16T13:44:14Z</time>
      </trkpt>
      <trkpt lat="30.777517966926098" lon="-4.155852030962706">
        <ele>654.5</ele>
        <time>2003-04-16T13:44:18Z</time>
      </trkpt>
      <trkpt lat="30.777555014938116" lon="-4.155739964917302">
        <ele>654</ele>
        <time>2003-04-16T13:44:22Z</time>
      </trkpt>
      <trkpt lat="30.77760698273778" lon="-4.15564700961113">
        <ele>653.70000000000005</ele>
        <time>2003-04-16T13:44:26Z</time>
      </trkpt>
      <trkpt lat="30.777655011042953" lon="-4.155554976314306">
        <ele>653.39999999999998</ele>
        <time>2003-04-16T13:44:29Z</time>
      </trkpt>
      <trkpt lat="30.777794988825917" lon="-4.155318019911647">
        <ele>653.39999999999998</ele>
        <time>2003-04-16T13:44:33Z</time>
      </trkpt>
      <trkpt lat="30.777990035712719" lon="-4.154949970543385">
        <ele>653.20000000000005</ele>
        <time>2003-04-16T13:44:41Z</time>
      </trkpt>
      <trkpt lat="30.778069999068975" lon="-4.154743021354079">
        <ele>653.39999999999998</ele>
        <time>2003-04-16T13:44:45Z</time>
      </trkpt>
      <trkpt lat="30.778087014332414" lon="-4.154604971408844">
        <ele>653.5</ele>
        <time>2003-04-16T13:44:48Z</time>
      </trkpt>
      <trkpt lat="30.778130013495684" lon="-4.154246980324388">
        <ele>653.20000000000005</ele>
        <time>2003-04-16T13:44:56Z</time>
      </trkpt>
      <trkpt lat="30.778196984902024" lon="-4.154107002541423">
        <ele>653.60000000000002</ele>
        <time>2003-04-16T13:44:59Z</time>
      </trkpt>
      <trkpt lat="30.778243001550436" lon="-4.153967024758458">
        <ele>653.39999999999998</ele>
        <time>2003-04-16T13:45:00Z</time>
      </trkpt>
      <trkpt lat="30.77835800126195" lon="-4.153693020343781">
        <ele>653.70000000000005</ele>
        <time>2003-04-16T13:45:04Z</time>
      </trkpt>
      <trkpt lat="30.778422961011529" lon="-4.153487998992205">
        <ele>653.39999999999998</ele>
        <time>2003-04-16T13:45:08Z</time>
      </trkpt>
      <trkpt lat="30.778478030115366" lon="-4.153341986238957">
        <ele>653.70000000000005</ele>
        <time>2003-04-16T13:45:09Z</time>
      </trkpt>
      <trkpt lat="30.778748011216521" lon="-4.152491977438331">
        <ele>654</ele>
        <time>2003-04-16T13:45:22Z</time>
      </trkpt>
      <trkpt lat="30.778784975409508" lon="-4.152287961915135">
        <ele>654.20000000000005</ele>
        <time>2003-04-16T13:45:26Z</time>
      </trkpt>
      <trkpt lat="30.778796961531043" lon="-4.152071960270405">
        <ele>653.70000000000005</ele>
        <time>2003-04-16T13:45:35Z</time>
      </trkpt>
      <trkpt lat="30.778878014534712" lon="-4.15195201523602">
        <ele>653.89999999999998</ele>
        <time>2003-04-16T13:45:38Z</time>
      </trkpt>
      <trkpt lat="30.778932999819517" lon="-4.1518650110811">
        <ele>654</ele>
        <time>2003-04-16T13:45:41Z</time>
      </trkpt>
      <trkpt lat="30.779077000916004" lon="-4.151640040799975">
        <ele>654.10000000000002</ele>
        <time>2003-04-16T13:45:47Z</time>
      </trkpt>
      <trkpt lat="30.779198035597801" lon="-4.151527974754572">
        <ele>653.70000000000005</ele>
        <time>2003-04-16T13:45:51Z</time>
      </trkpt>
      <trkpt lat="30.779289985075593" lon="-4.151496961712837">
        <ele>653.20000000000005</ele>
        <time>2003-04-16T13:45:54Z</time>
      </trkpt>
      <trkpt lat="30.779498023912311" lon="-4.151427978649736">
        <ele>653.10000000000002</ele>
        <time>2003-04-16T13:46:01Z</time>
      </trkpt>
      <trkpt lat="30.779670020565391" lon="-4.151399983093143">
        <ele>653.5</ele>
        <time>2003-04-16T13:46:05Z</time>
      </trkpt>
      <trkpt lat="30.779898008331656" lon="-4.151335023343563">
        <ele>653.10000000000002</ele>
        <time>2003-04-16T13:46:10Z</time>
      </trkpt>
      <trkpt lat="30.77999004162848" lon="-4.151271991431713">
        <ele>652.79999999999995</ele>
        <time>2003-04-16T13:46:12Z</time>
      </trkpt>
      <trkpt lat="30.780239989981055" lon="-4.151067975908518">
        <ele>652.79999999999995</ele>
        <time>2003-04-16T13:46:17Z</time>
      </trkpt>
      <trkpt lat="30.780669981613755" lon="-4.150600014254451">
        <ele>653.20000000000005</ele>
        <time>2003-04-16T13:46:25Z</time>
      </trkpt>
      <trkpt lat="30.78100299462676" lon="-4.150347970426083">
        <ele>653.79999999999995</ele>
        <time>2003-04-16T13:46:32Z</time>
      </trkpt>
      <trkpt lat="30.781193012371659" lon="-4.150162981823087">
        <ele>654</ele>
        <time>2003-04-16T13:46:36Z</time>
      </trkpt>
      <trkpt lat="30.781327961012721" lon="-4.150015041232109">
        <ele>654.79999999999995</ele>
        <time>2003-04-16T13:46:39Z</time>
      </trkpt>
      <trkpt lat="30.781580004841089" lon="-4.14980499073863">
        <ele>654.70000000000005</ele>
        <time>2003-04-16T13:46:44Z</time>
      </trkpt>
      <trkpt lat="30.781659968197346" lon="-4.149676999077201">
        <ele>654.29999999999995</ele>
        <time>2003-04-16T13:46:45Z</time>
      </trkpt>
      <trkpt lat="30.781728029251099" lon="-4.149484969675541">
        <ele>654.10000000000002</ele>
        <time>2003-04-16T13:46:48Z</time>
      </trkpt>
      <trkpt lat="30.781706990674138" lon="-4.149372987449169">
        <ele>654.39999999999998</ele>
        <time>2003-04-16T13:46:51Z</time>
      </trkpt>
      <trkpt lat="30.781712019816041" lon="-4.149267040193081">
        <ele>654.20000000000005</ele>
        <time>2003-04-16T13:46:52Z</time>
      </trkpt>
      <trkpt lat="30.781734986230731" lon="-4.149133013561368">
        <ele>654.39999999999998</ele>
        <time>2003-04-16T13:46:55Z</time>
      </trkpt>
      <trkpt lat="30.781812015920877" lon="-4.148842999711633">
        <ele>654.60000000000002</ele>
        <time>2003-04-16T13:46:59Z</time>
      </trkpt>
      <trkpt lat="30.781873036175966" lon="-4.148703021928668">
        <ele>654.60000000000002</ele>
        <time>2003-04-16T13:47:00Z</time>
      </trkpt>
      <trkpt lat="30.781931960955262" lon="-4.14857997559011">
        <ele>654.60000000000002</ele>
        <time>2003-04-16T13:47:03Z</time>
      </trkpt>
      <trkpt lat="30.782003039494157" lon="-4.148447960615158">
        <ele>654.39999999999998</ele>
        <time>2003-04-16T13:47:04Z</time>
      </trkpt>
      <trkpt lat="30.782089959830046" lon="-4.148318041115999">
        <ele>654.60000000000002</ele>
        <time>2003-04-16T13:47:07Z</time>
      </trkpt>
      <trkpt lat="30.782426996156573" lon="-4.147874973714352">
        <ele>655.10000000000002</ele>
        <time>2003-04-16T13:47:14Z</time>
      </trkpt>
      <trkpt lat="30.782642997801304" lon="-4.147619996219873">
        <ele>655.20000000000005</ele>
        <time>2003-04-16T13:47:18Z</time>
      </trkpt>
      <trkpt lat="30.782745005562901" lon="-4.147514970973134">
        <ele>655</ele>
        <time>2003-04-16T13:47:19Z</time>
      </trkpt>
      <trkpt lat="30.782863022759557" lon="-4.147456968203187">
        <ele>655.20000000000005</ele>
        <time>2003-04-16T13:47:22Z</time>
      </trkpt>
      <trkpt lat="30.783011969178915" lon="-4.147393014281988">
        <ele>655</ele>
        <time>2003-04-16T13:47:24Z</time>
      </trkpt>
      <trkpt lat="30.783262001350522" lon="-4.147250019013882">
        <ele>654.89999999999998</ele>
        <time>2003-04-16T13:47:30Z</time>
      </trkpt>
      <trkpt lat="30.783404996618629" lon="-4.147196961566806">
        <ele>654.89999999999998</ele>
        <time>2003-04-16T13:47:31Z</time>
      </trkpt>
      <trkpt lat="30.78360297717154" lon="-4.147120015695691">
        <ele>655.39999999999998</ele>
        <time>2003-04-16T13:47:34Z</time>
      </trkpt>
      <trkpt lat="30.784103041514754" lon="-4.146842993795872">
        <ele>655.10000000000002</ele>
        <time>2003-04-16T13:47:42Z</time>
      </trkpt>
      <trkpt lat="30.78418199904263" lon="-4.146784991025925">
        <ele>655.20000000000005</ele>
        <time>2003-04-16T13:47:45Z</time>
      </trkpt>
      <trkpt lat="30.784264979884028" lon="-4.146677032113075">
        <ele>655.20000000000005</ele>
        <time>2003-04-16T13:47:47Z</time>
      </trkpt>
      <trkpt lat="30.784343015402555" lon="-4.146564966067672">
        <ele>655.5</ele>
        <time>2003-04-16T13:47:50Z</time>
      </trkpt>
      <trkpt lat="30.784436976537108" lon="-4.146506963297725">
        <ele>655.60000000000002</ele>
        <time>2003-04-16T13:47:53Z</time>
      </trkpt>
      <trkpt lat="30.784547030925751" lon="-4.146477039903402">
        <ele>655.60000000000002</ele>
        <time>2003-04-16T13:47:54Z</time>
      </trkpt>
      <trkpt lat="30.784658007323742" lon="-4.146469999104738">
        <ele>655.60000000000002</ele>
        <time>2003-04-16T13:47:57Z</time>
      </trkpt>
      <trkpt lat="30.784784993156791" lon="-4.1464529838413">
        <ele>656.20000000000005</ele>
        <time>2003-04-16T13:48:00Z</time>
      </trkpt>
      <trkpt lat="30.784888006746769" lon="-4.146479973569512">
        <ele>655.60000000000002</ele>
        <time>2003-04-16T13:48:02Z</time>
      </trkpt>
      <trkpt lat="30.784982973709702" lon="-4.146606959402561">
        <ele>655.60000000000002</ele>
        <time>2003-04-16T13:48:05Z</time>
      </trkpt>
      <trkpt lat="30.785066960379481" lon="-4.146769987419248">
        <ele>655.60000000000002</ele>
        <time>2003-04-16T13:48:09Z</time>
      </trkpt>
      <trkpt lat="30.785141978412867" lon="-4.146852968260646">
        <ele>655.89999999999998</ele>
        <time>2003-04-16T13:48:10Z</time>
      </trkpt>
      <trkpt lat="30.785254966467619" lon="-4.146881969645619">
        <ele>655.70000000000005</ele>
        <time>2003-04-16T13:48:13Z</time>
      </trkpt>
      <trkpt lat="30.785429980605841" lon="-4.146781973540783">
        <ele>656.70000000000005</ele>
        <time>2003-04-16T13:48:17Z</time>
      </trkpt>
      <trkpt lat="30.785567024722695" lon="-4.146760012954474">
        <ele>656.5</ele>
        <time>2003-04-16T13:48:20Z</time>
      </trkpt>
      <trkpt lat="30.785689987242222" lon="-4.146697986871004">
        <ele>656.39999999999998</ele>
        <time>2003-04-16T13:48:21Z</time>
      </trkpt>
      <trkpt lat="30.785812027752399" lon="-4.146651970222592">
        <ele>656.5</ele>
        <time>2003-04-16T13:48:24Z</time>
      </trkpt>
      <trkpt lat="30.786042027175426" lon="-4.146545017138124">
        <ele>656.5</ele>
        <time>2003-04-16T13:48:28Z</time>
      </trkpt>
      <trkpt lat="30.786131964996457" lon="-4.146477039903402">
        <ele>656.60000000000002</ele>
        <time>2003-04-16T13:48:29Z</time>
      </trkpt>
      <trkpt lat="30.786231961101294" lon="-4.146436974406242">
        <ele>656.70000000000005</ele>
        <time>2003-04-16T13:48:32Z</time>
      </trkpt>
      <trkpt lat="30.786432959139347" lon="-4.146367991343141">
        <ele>656.89999999999998</ele>
        <time>2003-04-16T13:48:35Z</time>
      </trkpt>
      <trkpt lat="30.786579977720976" lon="-4.146337984129787">
        <ele>657</ele>
        <time>2003-04-16T13:48:36Z</time>
      </trkpt>
      <trkpt lat="30.786848030984402" lon="-4.146282998844981">
        <ele>657.20000000000005</ele>
        <time>2003-04-16T13:48:40Z</time>
      </trkpt>
      <trkpt lat="30.786937968805432" lon="-4.146232036873698">
        <ele>657.20000000000005</ele>
        <time>2003-04-16T13:48:43Z</time>
      </trkpt>
      <trkpt lat="30.787081969901919" lon="-4.146197000518441">
        <ele>657.89999999999998</ele>
        <time>2003-04-16T13:48:45Z</time>
      </trkpt>
      <trkpt lat="30.787227982655168" lon="-4.146136986091733">
        <ele>657.10000000000002</ele>
        <time>2003-04-16T13:48:48Z</time>
      </trkpt>
      <trkpt lat="30.787307024002075" lon="-4.146031960844994">
        <ele>657.29999999999995</ele>
        <time>2003-04-16T13:48:51Z</time>
      </trkpt>
      <trkpt lat="30.787463011220098" lon="-4.145902963355184">
        <ele>657.29999999999995</ele>
        <time>2003-04-16T13:48:54Z</time>
      </trkpt>
      <trkpt lat="30.787580022588372" lon="-4.145879996940494">
        <ele>657.70000000000005</ele>
        <time>2003-04-16T13:48:55Z</time>
      </trkpt>
      <trkpt lat="30.787717988714576" lon="-4.145887037739158">
        <ele>657.29999999999995</ele>
        <time>2003-04-16T13:48:58Z</time>
      </trkpt>
      <trkpt lat="30.787853021174669" lon="-4.145919978618622">
        <ele>657.20000000000005</ele>
        <time>2003-04-16T13:48:59Z</time>
      </trkpt>
      <trkpt lat="30.787972966209054" lon="-4.145985022187233">
        <ele>656.89999999999998</ele>
        <time>2003-04-16T13:49:02Z</time>
      </trkpt>
      <trkpt lat="30.788292987272143" lon="-4.146137991920114">
        <ele>657.60000000000002</ele>
        <time>2003-04-16T13:49:07Z</time>
      </trkpt>
      <trkpt lat="30.788603033870459" lon="-4.146224996075034">
        <ele>657.79999999999995</ele>
        <time>2003-04-16T13:49:11Z</time>
      </trkpt>
      <trkpt lat="30.788713004440069" lon="-4.146260032430291">
        <ele>658.5</ele>
        <time>2003-04-16T13:49:14Z</time>
      </trkpt>
      <trkpt lat="30.78882297500968" lon="-4.146312000229955">
        <ele>659.10000000000002</ele>
        <time>2003-04-16T13:49:17Z</time>
      </trkpt>
      <trkpt lat="30.78897200524807" lon="-4.14643001742661">
        <ele>657.89999999999998</ele>
        <time>2003-04-16T13:49:30Z</time>
      </trkpt>
      <trkpt lat="30.789045011624694" lon="-4.146491959691048">
        <ele>658.20000000000005</ele>
        <time>2003-04-16T13:49:34Z</time>
      </trkpt>
      <trkpt lat="30.789150036871433" lon="-4.146532025188208">
        <ele>658.20000000000005</ele>
        <time>2003-04-16T13:49:38Z</time>
      </trkpt>
      <trkpt lat="30.789251960813999" lon="-4.146541999652982">
        <ele>658.29999999999995</ele>
        <time>2003-04-16T13:49:39Z</time>
      </trkpt>
      <trkpt lat="30.789357991889119" lon="-4.146532025188208">
        <ele>658.29999999999995</ele>
        <time>2003-04-16T13:49:42Z</time>
      </trkpt>
      <trkpt lat="30.789499981328845" lon="-4.146547028794885">
        <ele>658.5</ele>
        <time>2003-04-16T13:49:44Z</time>
      </trkpt>
      <trkpt lat="30.789648005738854" lon="-4.146545017138124">
        <ele>658.10000000000002</ele>
        <time>2003-04-16T13:49:46Z</time>
      </trkpt>
      <trkpt lat="30.789878005161881" lon="-4.146502017974854">
        <ele>657.89999999999998</ele>
        <time>2003-04-16T13:49:49Z</time>
      </trkpt>
      <trkpt lat="30.790232978761196" lon="-4.146354999393225">
        <ele>658.29999999999995</ele>
        <time>2003-04-16T13:49:53Z</time>
      </trkpt>
      <trkpt lat="30.790379997342825" lon="-4.146281993016601">
        <ele>658.20000000000005</ele>
        <time>2003-04-16T13:49:56Z</time>
      </trkpt>
      <trkpt lat="30.791178038343787" lon="-4.145921990275383">
        <ele>657.29999999999995</ele>
        <time>2003-04-16T13:50:05Z</time>
      </trkpt>
      <trkpt lat="30.791342994198203" lon="-4.14582802914083">
        <ele>657.60000000000002</ele>
        <time>2003-04-16T13:50:09Z</time>
      </trkpt>
      <trkpt lat="30.791482971981168" lon="-4.145817970857024">
        <ele>657.79999999999995</ele>
        <time>2003-04-16T13:50:11Z</time>
      </trkpt>
      <trkpt lat="30.791650023311377" lon="-4.145857030525804">
        <ele>657.60000000000002</ele>
        <time>2003-04-16T13:50:13Z</time>
      </trkpt>
      <trkpt lat="30.791812967509031" lon="-4.145852001383901">
        <ele>657.89999999999998</ele>
        <time>2003-04-16T13:50:15Z</time>
      </trkpt>
      <trkpt lat="30.791955040767789" lon="-4.145853007212281">
        <ele>657.89999999999998</ele>
        <time>2003-04-16T13:50:16Z</time>
      </trkpt>
      <trkpt lat="30.792078003287315" lon="-4.145915033295751">
        <ele>657.79999999999995</ele>
        <time>2003-04-16T13:50:19Z</time>
      </trkpt>
      <trkpt lat="30.792198032140732" lon="-4.145953003317118">
        <ele>657.79999999999995</ele>
        <time>2003-04-16T13:50:20Z</time>
      </trkpt>
      <trkpt lat="30.792298028245568" lon="-4.145983010530472">
        <ele>657.39999999999998</ele>
        <time>2003-04-16T13:50:23Z</time>
      </trkpt>
      <trkpt lat="30.792386960238218" lon="-4.146073032170534">
        <ele>657.89999999999998</ele>
        <time>2003-04-16T13:50:24Z</time>
      </trkpt>
      <trkpt lat="30.792477987706661" lon="-4.146160036325455">
        <ele>658.10000000000002</ele>
        <time>2003-04-16T13:50:28Z</time>
      </trkpt>
      <trkpt lat="30.792564991861582" lon="-4.146188031882048">
        <ele>658.20000000000005</ele>
        <time>2003-04-16T13:50:31Z</time>
      </trkpt>
      <trkpt lat="30.792700024321675" lon="-4.146158024668694">
        <ele>658.20000000000005</ele>
        <time>2003-04-16T13:50:33Z</time>
      </trkpt>
      <trkpt lat="30.792846959084272" lon="-4.146122988313437">
        <ele>658.29999999999995</ele>
        <time>2003-04-16T13:50:36Z</time>
      </trkpt>
      <trkpt lat="30.793284997344017" lon="-4.145987033843994">
        <ele>658.29999999999995</ele>
        <time>2003-04-16T13:50:42Z</time>
      </trkpt>
      <trkpt lat="30.793586997315288" lon="-4.145958032459021">
        <ele>658.60000000000002</ele>
        <time>2003-04-16T13:50:46Z</time>
      </trkpt>
      <trkpt lat="30.793744996190071" lon="-4.145931964740157">
        <ele>657.70000000000005</ele>
        <time>2003-04-16T13:50:47Z</time>
      </trkpt>
      <trkpt lat="30.793882962316275" lon="-4.145891983062029">
        <ele>658.5</ele>
        <time>2003-04-16T13:50:50Z</time>
      </trkpt>
      <trkpt lat="30.794042972847819" lon="-4.14584998972714">
        <ele>658.39999999999998</ele>
        <time>2003-04-16T13:50:51Z</time>
      </trkpt>
      <trkpt lat="30.794219998642802" lon="-4.145840015262365">
        <ele>658.39999999999998</ele>
        <time>2003-04-16T13:50:54Z</time>
      </trkpt>
      <trkpt lat="30.794367017224431" lon="-4.145862981677055">
        <ele>658.29999999999995</ele>
        <time>2003-04-16T13:50:55Z</time>
      </trkpt>
      <trkpt lat="30.794491991400719" lon="-4.145912015810609">
        <ele>658.39999999999998</ele>
        <time>2003-04-16T13:50:58Z</time>
      </trkpt>
      <trkpt lat="30.794722996652126" lon="-4.145982004702091">
        <ele>658.70000000000005</ele>
        <time>2003-04-16T13:51:02Z</time>
      </trkpt>
      <trkpt lat="30.794860040768981" lon="-4.145934982225299">
        <ele>658.5</ele>
        <time>2003-04-16T13:51:03Z</time>
      </trkpt>
      <trkpt lat="30.795012004673481" lon="-4.14593699388206">
        <ele>658.89999999999998</ele>
        <time>2003-04-16T13:51:06Z</time>
      </trkpt>
      <trkpt lat="30.795302018523216" lon="-4.14589298889041">
        <ele>658.79999999999995</ele>
        <time>2003-04-16T13:51:10Z</time>
      </trkpt>
      <trkpt lat="30.795411989092827" lon="-4.14578502997756">
        <ele>658.60000000000002</ele>
        <time>2003-04-16T13:51:11Z</time>
      </trkpt>
      <trkpt lat="30.795492036268115" lon="-4.145706994459033">
        <ele>658.70000000000005</ele>
        <time>2003-04-16T13:51:14Z</time>
      </trkpt>
      <trkpt lat="30.795582979917526" lon="-4.145682016387582">
        <ele>658.70000000000005</ele>
        <time>2003-04-16T13:51:15Z</time>
      </trkpt>
      <trkpt lat="30.795686999335885" lon="-4.145676987245679">
        <ele>659.20000000000005</ele>
        <time>2003-04-16T13:51:18Z</time>
      </trkpt>
      <trkpt lat="30.795832006260753" lon="-4.145604986697435">
        <ele>658.89999999999998</ele>
        <time>2003-04-16T13:51:21Z</time>
      </trkpt>
      <trkpt lat="30.795972989872098" lon="-4.14552703499794">
        <ele>659.10000000000002</ele>
        <time>2003-04-16T13:51:22Z</time>
      </trkpt>
      <trkpt lat="30.79647003673017" lon="-4.145325031131506">
        <ele>658.79999999999995</ele>
        <time>2003-04-16T13:51:30Z</time>
      </trkpt>
      <trkpt lat="30.79668696038425" lon="-4.145340034738183">
        <ele>658.79999999999995</ele>
        <time>2003-04-16T13:51:33Z</time>
      </trkpt>
      <trkpt lat="30.796891981735826" lon="-4.145371969789267">
        <ele>659.10000000000002</ele>
        <time>2003-04-16T13:51:36Z</time>
      </trkpt>
      <trkpt lat="30.797022990882397" lon="-4.14544296450913">
        <ele>658.79999999999995</ele>
        <time>2003-04-16T13:51:37Z</time>
      </trkpt>
      <trkpt lat="30.79711502417922" lon="-4.145559975877404">
        <ele>658.70000000000005</ele>
        <time>2003-04-16T13:51:40Z</time>
      </trkpt>
      <trkpt lat="30.797219965606928" lon="-4.145697019994259">
        <ele>658.89999999999998</ele>
        <time>2003-04-16T13:51:41Z</time>
      </trkpt>
      <trkpt lat="30.79735298641026" lon="-4.145791986957192">
        <ele>659.39999999999998</ele>
        <time>2003-04-16T13:51:44Z</time>
      </trkpt>
      <trkpt lat="30.797607963904738" lon="-4.145940011367202">
        <ele>659.29999999999995</ele>
        <time>2003-04-16T13:51:48Z</time>
      </trkpt>
      <trkpt lat="30.797757999971509" lon="-4.145937999710441">
        <ele>659.5</ele>
        <time>2003-04-16T13:51:49Z</time>
      </trkpt>
      <trkpt lat="30.797999985516071" lon="-4.146007988601923">
        <ele>659.39999999999998</ele>
        <time>2003-04-16T13:51:53Z</time>
      </trkpt>
      <trkpt lat="30.79838496632874" lon="-4.146227007731795">
        <ele>659.70000000000005</ele>
        <time>2003-04-16T13:51:57Z</time>
      </trkpt>
      <trkpt lat="30.798580013215542" lon="-4.146382994949818">
        <ele>660</ele>
        <time>2003-04-16T13:52:01Z</time>
      </trkpt>
      <trkpt lat="30.798819987103343" lon="-4.146635038778186">
        <ele>660.29999999999995</ele>
        <time>2003-04-16T13:52:04Z</time>
      </trkpt>
      <trkpt lat="30.799149982631207" lon="-4.147020019590855">
        <ele>660.60000000000002</ele>
        <time>2003-04-16T13:52:09Z</time>
      </trkpt>
      <trkpt lat="30.799267999827862" lon="-4.147148011252284">
        <ele>660.5</ele>
        <time>2003-04-16T13:52:12Z</time>
      </trkpt>
      <trkpt lat="30.799355003982782" lon="-4.147257981821895">
        <ele>660.60000000000002</ele>
        <time>2003-04-16T13:52:13Z</time>
      </trkpt>
      <trkpt lat="30.799532029777765" lon="-4.147571967914701">
        <ele>660.70000000000005</ele>
        <time>2003-04-16T13:52:17Z</time>
      </trkpt>
      <trkpt lat="30.799706960096955" lon="-4.147806996479631">
        <ele>660.79999999999995</ele>
        <time>2003-04-16T13:52:20Z</time>
      </trkpt>
      <trkpt lat="30.799932014197111" lon="-4.147987039759755">
        <ele>660.70000000000005</ele>
        <time>2003-04-16T13:52:24Z</time>
      </trkpt>
      <trkpt lat="30.800093030557036" lon="-4.148104973137379">
        <ele>661.10000000000002</ele>
        <time>2003-04-16T13:52:26Z</time>
      </trkpt>
      <trkpt lat="30.800362005829811" lon="-4.14836497977376">
        <ele>661.29999999999995</ele>
        <time>2003-04-16T13:52:30Z</time>
      </trkpt>
      <trkpt lat="30.800472982227802" lon="-4.148449972271919">
        <ele>661.39999999999998</ele>
        <time>2003-04-16T13:52:31Z</time>
      </trkpt>
      <trkpt lat="30.8005749899894" lon="-4.148552985861898">
        <ele>661.29999999999995</ele>
        <time>2003-04-16T13:52:34Z</time>
      </trkpt>
      <trkpt lat="30.800710022449493" lon="-4.14862004108727">
        <ele>661.29999999999995</ele>
        <time>2003-04-16T13:52:35Z</time>
      </trkpt>
      <trkpt lat="30.800846982747316" lon="-4.148697992786765">
        <ele>661.39999999999998</ele>
        <time>2003-04-16T13:52:38Z</time>
      </trkpt>
      <trkpt lat="30.800970029085875" lon="-4.148820033296943">
        <ele>661.5</ele>
        <time>2003-04-16T13:52:39Z</time>
      </trkpt>
      <trkpt lat="30.801077987998724" lon="-4.14896696805954">
        <ele>661.60000000000002</ele>
        <time>2003-04-16T13:52:42Z</time>
      </trkpt>
      <trkpt lat="30.801415024325252" lon="-4.149324959143996">
        <ele>661.5</ele>
        <time>2003-04-16T13:52:47Z</time>
      </trkpt>
      <trkpt lat="30.801812997087836" lon="-4.149635005742312">
        <ele>661.89999999999998</ele>
        <time>2003-04-16T13:52:51Z</time>
      </trkpt>
      <trkpt lat="30.801892038434744" lon="-4.149704994633794">
        <ele>661.70000000000005</ele>
        <time>2003-04-16T13:52:53Z</time>
      </trkpt>
      <trkpt lat="30.801981976255774" lon="-4.14976199157536">
        <ele>661.5</ele>
        <time>2003-04-16T13:52:54Z</time>
      </trkpt>
      <trkpt lat="30.802162019535899" lon="-4.149859976023436">
        <ele>661.60000000000002</ele>
        <time>2003-04-16T13:52:55Z</time>
      </trkpt>
      <trkpt lat="30.802252041175961" lon="-4.149877997115254">
        <ele>662</ele>
        <time>2003-04-16T13:52:57Z</time>
      </trkpt>
      <trkpt lat="30.802392018958926" lon="-4.149957960471511">
        <ele>662.10000000000002</ele>
        <time>2003-04-16T13:52:58Z</time>
      </trkpt>
      <trkpt lat="30.802653031423688" lon="-4.150055022910237">
        <ele>661.79999999999995</ele>
        <time>2003-04-16T13:53:02Z</time>
      </trkpt>
      <trkpt lat="30.802955031394958" lon="-4.150176979601383">
        <ele>662</ele>
        <time>2003-04-16T13:53:07Z</time>
      </trkpt>
      <trkpt lat="30.803234986960888" lon="-4.150253003463149">
        <ele>661.70000000000005</ele>
        <time>2003-04-16T13:53:13Z</time>
      </trkpt>
      <trkpt lat="30.80334696918726" lon="-4.150292985141277">
        <ele>661.5</ele>
        <time>2003-04-16T13:53:14Z</time>
      </trkpt>
      <trkpt lat="30.803536986932158" lon="-4.150351993739605">
        <ele>661.89999999999998</ele>
        <time>2003-04-16T13:53:18Z</time>
      </trkpt>
      <trkpt lat="30.803632037714124" lon="-4.150394992902875">
        <ele>661.20000000000005</ele>
        <time>2003-04-16T13:53:20Z</time>
      </trkpt>
      <trkpt lat="30.803745025768876" lon="-4.15042701177299">
        <ele>661.60000000000002</ele>
        <time>2003-04-16T13:53:22Z</time>
      </trkpt>
      <trkpt lat="30.803920039907098" lon="-4.150464981794357">
        <ele>661.70000000000005</ele>
        <time>2003-04-16T13:53:25Z</time>
      </trkpt>
      <trkpt lat="30.804041996598244" lon="-4.150506975129247">
        <ele>661.70000000000005</ele>
        <time>2003-04-16T13:53:28Z</time>
      </trkpt>
      <trkpt lat="30.804305020719767" lon="-4.150596996769309">
        <ele>661.89999999999998</ele>
        <time>2003-04-16T13:53:36Z</time>
      </trkpt>
      <trkpt lat="30.804532002657652" lon="-4.150694981217384">
        <ele>661.79999999999995</ele>
        <time>2003-04-16T13:53:42Z</time>
      </trkpt>
      <trkpt lat="30.80463501624763" lon="-4.150696992874146">
        <ele>661.60000000000002</ele>
        <time>2003-04-16T13:53:45Z</time>
      </trkpt>
      <trkpt lat="30.804729983210564" lon="-4.150700010359287">
        <ele>662</ele>
        <time>2003-04-16T13:53:47Z</time>
      </trkpt>
      <trkpt lat="30.804846994578838" lon="-4.150703027844429">
        <ele>660.89999999999998</ele>
        <time>2003-04-16T13:53:49Z</time>
      </trkpt>
      <trkpt lat="30.804963000118732" lon="-4.150679977610707">
        <ele>661.5</ele>
        <time>2003-04-16T13:53:51Z</time>
      </trkpt>
      <trkpt lat="30.80508696846664" lon="-4.150676960125566">
        <ele>661.29999999999995</ele>
        <time>2003-04-16T13:53:52Z</time>
      </trkpt>
      <trkpt lat="30.805217977613211" lon="-4.150676960125566">
        <ele>661.20000000000005</ele>
        <time>2003-04-16T13:53:55Z</time>
      </trkpt>
      <trkpt lat="30.805346975103021" lon="-4.150658017024398">
        <ele>661</ele>
        <time>2003-04-16T13:53:56Z</time>
      </trkpt>
      <trkpt lat="30.80547203309834" lon="-4.15064200758934">
        <ele>661.10000000000002</ele>
        <time>2003-04-16T13:53:59Z</time>
      </trkpt>
      <trkpt lat="30.805570017546415" lon="-4.150667991489172">
        <ele>660.89999999999998</ele>
        <time>2003-04-16T13:54:00Z</time>
      </trkpt>
      <trkpt lat="30.80573296174407" lon="-4.150672014802694">
        <ele>660.89999999999998</ele>
        <time>2003-04-16T13:54:04Z</time>
      </trkpt>
      <trkpt lat="30.805981988087296" lon="-4.150585010647774">
        <ele>660.79999999999995</ele>
        <time>2003-04-16T13:54:08Z</time>
      </trkpt>
      <trkpt lat="30.806087013334036" lon="-4.150476967915893">
        <ele>660.79999999999995</ele>
        <time>2003-04-16T13:54:09Z</time>
      </trkpt>
      <trkpt lat="30.806290023028851" lon="-4.150279993191361">
        <ele>660.60000000000002</ele>
        <time>2003-04-16T13:54:14Z</time>
      </trkpt>
      <trkpt lat="30.806509964168072" lon="-4.150087963789702">
        <ele>660.79999999999995</ele>
        <time>2003-04-16T13:54:18Z</time>
      </trkpt>
      <trkpt lat="30.806932998821139" lon="-4.149544984102249">
        <ele>660.70000000000005</ele>
        <time>2003-04-16T13:54:26Z</time>
      </trkpt>
      <trkpt lat="30.807074988260865" lon="-4.149463009089232">
        <ele>660.89999999999998</ele>
        <time>2003-04-16T13:54:27Z</time>
      </trkpt>
      <trkpt lat="30.8072130382061" lon="-4.149422021582723">
        <ele>660.79999999999995</ele>
        <time>2003-04-16T13:54:30Z</time>
      </trkpt>
      <trkpt lat="30.807459969073534" lon="-4.149386985227466">
        <ele>660.70000000000005</ele>
        <time>2003-04-16T13:54:34Z</time>
      </trkpt>
      <trkpt lat="30.80757999792695" lon="-4.149414980784059">
        <ele>660.70000000000005</ele>
        <time>2003-04-16T13:54:35Z</time>
      </trkpt>
      <trkpt lat="30.807704972103238" lon="-4.149493016302586">
        <ele>661.5</ele>
        <time>2003-04-16T13:54:39Z</time>
      </trkpt>
      <trkpt lat="30.80777496099472" lon="-4.149580020457506">
        <ele>661.79999999999995</ele>
        <time>2003-04-16T13:54:41Z</time>
      </trkpt>
      <trkpt lat="30.807919967919588" lon="-4.149712035432458">
        <ele>661.29999999999995</ele>
        <time>2003-04-16T13:54:43Z</time>
      </trkpt>
      <trkpt lat="30.80803002230823" lon="-4.149772971868515">
        <ele>660.70000000000005</ele>
        <time>2003-04-16T13:54:46Z</time>
      </trkpt>
      <trkpt lat="30.808145022019744" lon="-4.149791998788714">
        <ele>660.60000000000002</ele>
        <time>2003-04-16T13:54:47Z</time>
      </trkpt>
      <trkpt lat="30.808236971497536" lon="-4.149778001010418">
        <ele>661</ele>
        <time>2003-04-16T13:54:50Z</time>
      </trkpt>
      <trkpt lat="30.808392958715558" lon="-4.149762997403741">
        <ele>661.20000000000005</ele>
        <time>2003-04-16T13:54:53Z</time>
      </trkpt>
      <trkpt lat="30.808493038639426" lon="-4.149747993797064">
        <ele>661</ele>
        <time>2003-04-16T13:54:54Z</time>
      </trkpt>
      <trkpt lat="30.808612983673811" lon="-4.149742964655161">
        <ele>660.70000000000005</ele>
        <time>2003-04-16T13:54:57Z</time>
      </trkpt>
      <trkpt lat="30.808724965900183" lon="-4.149731984362006">
        <ele>660.60000000000002</ele>
        <time>2003-04-16T13:54:58Z</time>
      </trkpt>
      <trkpt lat="30.80882697366178" lon="-4.149702982977033">
        <ele>660.79999999999995</ele>
        <time>2003-04-16T13:55:01Z</time>
      </trkpt>
      <trkpt lat="30.808986984193325" lon="-4.149608016014099">
        <ele>660.89999999999998</ele>
        <time>2003-04-16T13:55:03Z</time>
      </trkpt>
      <trkpt lat="30.809101983904839" lon="-4.149557976052165">
        <ele>660.39999999999998</ele>
        <time>2003-04-16T13:55:06Z</time>
      </trkpt>
      <trkpt lat="30.80923299305141" lon="-4.14952696301043">
        <ele>660.10000000000002</ele>
        <time>2003-04-16T13:55:08Z</time>
      </trkpt>
      <trkpt lat="30.809347992762923" lon="-4.149522017687559">
        <ele>659.10000000000002</ele>
        <time>2003-04-16T13:55:10Z</time>
      </trkpt>
      <trkpt lat="30.809467015787959" lon="-4.14952302351594">
        <ele>658.89999999999998</ele>
        <time>2003-04-16T13:55:12Z</time>
      </trkpt>
      <trkpt lat="30.80957799218595" lon="-4.149468038231134">
        <ele>658.60000000000002</ele>
        <time>2003-04-16T13:55:13Z</time>
      </trkpt>
      <trkpt lat="30.809827018529177" lon="-4.149339962750673">
        <ele>659.39999999999998</ele>
        <time>2003-04-16T13:55:17Z</time>
      </trkpt>
      <trkpt lat="30.810077972710133" lon="-4.149207025766373">
        <ele>659</ele>
        <time>2003-04-16T13:55:21Z</time>
      </trkpt>
      <trkpt lat="30.810354994609952" lon="-4.149047015234828">
        <ele>658.20000000000005</ele>
        <time>2003-04-16T13:55:25Z</time>
      </trkpt>
      <trkpt lat="30.81067300401628" lon="-4.148927992209792">
        <ele>658.20000000000005</ele>
        <time>2003-04-16T13:55:29Z</time>
      </trkpt>
      <trkpt lat="30.810956982895732" lon="-4.148877030238509">
        <ele>658.20000000000005</ele>
        <time>2003-04-16T13:55:33Z</time>
      </trkpt>
      <trkpt lat="30.811278009787202" lon="-4.148796983063221">
        <ele>658.39999999999998</ele>
        <time>2003-04-16T13:55:40Z</time>
      </trkpt>
      <trkpt lat="30.811371970921755" lon="-4.148764964193106">
        <ele>659.29999999999995</ele>
        <time>2003-04-16T13:55:41Z</time>
      </trkpt>
      <trkpt lat="30.81148998811841" lon="-4.148696986958385">
        <ele>659.79999999999995</ele>
        <time>2003-04-16T13:55:44Z</time>
      </trkpt>
      <trkpt lat="30.811614962294698" lon="-4.148669997230172">
        <ele>659.70000000000005</ele>
        <time>2003-04-16T13:55:48Z</time>
      </trkpt>
      <trkpt lat="30.811714958399534" lon="-4.148652981966734">
        <ele>659.60000000000002</ele>
        <time>2003-04-16T13:55:49Z</time>
      </trkpt>
      <trkpt lat="30.811806991696358" lon="-4.148664968088269">
        <ele>658.79999999999995</ele>
        <time>2003-04-16T13:55:52Z</time>
      </trkpt>
      <trkpt lat="30.811873041093349" lon="-4.148736968636513">
        <ele>658.89999999999998</ele>
        <time>2003-04-16T13:55:53Z</time>
      </trkpt>
      <trkpt lat="30.811959961429238" lon="-4.148866971954703">
        <ele>659.10000000000002</ele>
        <time>2003-04-16T13:55:56Z</time>
      </trkpt>
      <trkpt lat="30.812027016654611" lon="-4.149003010243177">
        <ele>659.60000000000002</ele>
        <time>2003-04-16T13:56:00Z</time>
      </trkpt>
      <trkpt lat="30.812102034687996" lon="-4.14907299913466">
        <ele>659.60000000000002</ele>
        <time>2003-04-16T13:56:02Z</time>
      </trkpt>
      <trkpt lat="30.812203036621213" lon="-4.149126978591085">
        <ele>659.70000000000005</ele>
        <time>2003-04-16T13:56:04Z</time>
      </trkpt>
      <trkpt lat="30.812312001362443" lon="-4.149141982197762">
        <ele>659.60000000000002</ele>
        <time>2003-04-16T13:56:06Z</time>
      </trkpt>
      <trkpt lat="30.812418032437563" lon="-4.149114992469549">
        <ele>659.89999999999998</ele>
        <time>2003-04-16T13:56:07Z</time>
      </trkpt>
      <trkpt lat="30.812517022714019" lon="-4.149041986092925">
        <ele>659.89999999999998</ele>
        <time>2003-04-16T13:56:10Z</time>
      </trkpt>
      <trkpt lat="30.812618024647236" lon="-4.149005021899939">
        <ele>660</ele>
        <time>2003-04-16T13:56:11Z</time>
      </trkpt>
      <trkpt lat="30.812737969681621" lon="-4.14900803938508">
        <ele>660.39999999999998</ele>
        <time>2003-04-16T13:56:15Z</time>
      </trkpt>
      <trkpt lat="30.812948020175099" lon="-4.14905296638608">
        <ele>659.79999999999995</ele>
        <time>2003-04-16T13:56:19Z</time>
      </trkpt>
      <trkpt lat="30.813041981309652" lon="-4.14902999997139">
        <ele>660.20000000000005</ele>
        <time>2003-04-16T13:56:27Z</time>
      </trkpt>
      <trkpt lat="30.813159998506308" lon="-4.14902999997139">
        <ele>659.89999999999998</ele>
        <time>2003-04-16T13:56:31Z</time>
      </trkpt>
      <trkpt lat="30.813254965469241" lon="-4.148996975272894">
        <ele>660.89999999999998</ele>
        <time>2003-04-16T13:56:34Z</time>
      </trkpt>
      <trkpt lat="30.813338030129671" lon="-4.148912988603115">
        <ele>660.79999999999995</ele>
        <time>2003-04-16T13:56:39Z</time>
      </trkpt>
      <trkpt lat="30.813435008749366" lon="-4.148757001385093">
        <ele>660.79999999999995</ele>
        <time>2003-04-16T13:56:46Z</time>
      </trkpt>
      <trkpt lat="30.813389997929335" lon="-4.148618029430509">
        <ele>660.70000000000005</ele>
        <time>2003-04-16T13:56:49Z</time>
      </trkpt>
      <trkpt lat="30.813253037631512" lon="-4.148398004472256">
        <ele>660.60000000000002</ele>
        <time>2003-04-16T13:56:54Z</time>
      </trkpt>
      <trkpt lat="30.813287990167737" lon="-4.148245034739375">
        <ele>660.79999999999995</ele>
        <time>2003-04-16T13:56:58Z</time>
      </trkpt>
      <trkpt lat="30.813327971845865" lon="-4.148100027814508">
        <ele>660.79999999999995</ele>
        <time>2003-04-16T13:57:01Z</time>
      </trkpt>
      <trkpt lat="30.81348798237741" lon="-4.147938005626202">
        <ele>660.70000000000005</ele>
        <time>2003-04-16T13:57:08Z</time>
      </trkpt>
      <trkpt lat="30.813580015674233" lon="-4.147885031998158">
        <ele>660.79999999999995</ele>
        <time>2003-04-16T13:57:09Z</time>
      </trkpt>
      <trkpt lat="30.813687974587083" lon="-4.147849995642901">
        <ele>660.79999999999995</ele>
        <time>2003-04-16T13:57:12Z</time>
      </trkpt>
      <trkpt lat="30.813947981223464" lon="-4.147792998701334">
        <ele>660.79999999999995</ele>
        <time>2003-04-16T13:57:16Z</time>
      </trkpt>
      <trkpt lat="30.81421997398138" lon="-4.147786963731051">
        <ele>660.60000000000002</ele>
        <time>2003-04-16T13:57:20Z</time>
      </trkpt>
      <trkpt lat="30.814358023926616" lon="-4.147797022014856">
        <ele>660.60000000000002</ele>
        <time>2003-04-16T13:57:21Z</time>
      </trkpt>
      <trkpt lat="30.814564973115921" lon="-4.147776989266276">
        <ele>660.79999999999995</ele>
        <time>2003-04-16T13:57:25Z</time>
      </trkpt>
      <trkpt lat="30.814682990312576" lon="-4.147742036730051">
        <ele>660.89999999999998</ele>
        <time>2003-04-16T13:57:27Z</time>
      </trkpt>
      <trkpt lat="30.814796984195709" lon="-4.147671964019537">
        <ele>661.20000000000005</ele>
        <time>2003-04-16T13:57:28Z</time>
      </trkpt>
      <trkpt lat="30.815062019973993" lon="-4.147499967366457">
        <ele>661</ele>
        <time>2003-04-16T13:57:33Z</time>
      </trkpt>
      <trkpt lat="30.815160004422069" lon="-4.147452022880316">
        <ele>661.20000000000005</ele>
        <time>2003-04-16T13:57:36Z</time>
      </trkpt>
      <trkpt lat="30.815296964719892" lon="-4.147412963211536">
        <ele>661.60000000000002</ele>
        <time>2003-04-16T13:57:39Z</time>
      </trkpt>
      <trkpt lat="30.815444989129901" lon="-4.147344985976815">
        <ele>661.39999999999998</ele>
        <time>2003-04-16T13:57:41Z</time>
      </trkpt>
      <trkpt lat="30.815771967172623" lon="-4.147302992641926">
        <ele>661.39999999999998</ele>
        <time>2003-04-16T13:57:47Z</time>
      </trkpt>
      <trkpt lat="30.815885039046407" lon="-4.147340040653944">
        <ele>661.39999999999998</ele>
        <time>2003-04-16T13:57:48Z</time>
      </trkpt>
      <trkpt lat="30.816101962700486" lon="-4.147478006780148">
        <ele>661.60000000000002</ele>
        <time>2003-04-16T13:57:52Z</time>
      </trkpt>
      <trkpt lat="30.816228026524186" lon="-4.147617984563112">
        <ele>661.39999999999998</ele>
        <time>2003-04-16T13:57:55Z</time>
      </trkpt>
      <trkpt lat="30.816397005692124" lon="-4.147822000086308">
        <ele>661.60000000000002</ele>
        <time>2003-04-16T13:57:59Z</time>
      </trkpt>
      <trkpt lat="30.816552992910147" lon="-4.147942028939724">
        <ele>661.39999999999998</ele>
        <time>2003-04-16T13:58:03Z</time>
      </trkpt>
      <trkpt lat="30.816682996228337" lon="-4.147995002567768">
        <ele>661.60000000000002</ele>
        <time>2003-04-16T13:58:04Z</time>
      </trkpt>
      <trkpt lat="30.816828003153205" lon="-4.148025009781122">
        <ele>661.60000000000002</ele>
        <time>2003-04-16T13:58:07Z</time>
      </trkpt>
      <trkpt lat="30.817165039479733" lon="-4.148049987852573">
        <ele>661.89999999999998</ele>
        <time>2003-04-16T13:58:11Z</time>
      </trkpt>
      <trkpt lat="30.81761003471911" lon="-4.148087035864592">
        <ele>661.39999999999998</ele>
        <time>2003-04-16T13:58:15Z</time>
      </trkpt>
      <trkpt lat="30.81778203137219" lon="-4.14810698479414">
        <ele>661.10000000000002</ele>
        <time>2003-04-16T13:58:18Z</time>
      </trkpt>
      <trkpt lat="30.817937012761831" lon="-4.148116959258914">
        <ele>661.10000000000002</ele>
        <time>2003-04-16T13:58:19Z</time>
      </trkpt>
      <trkpt lat="30.818082019686699" lon="-4.148140009492636">
        <ele>661.39999999999998</ele>
        <time>2003-04-16T13:58:22Z</time>
      </trkpt>
      <trkpt lat="30.818259967491031" lon="-4.14819298312068">
        <ele>661.20000000000005</ele>
        <time>2003-04-16T13:58:25Z</time>
      </trkpt>
      <trkpt lat="30.818347977474332" lon="-4.148217039182782">
        <ele>661.39999999999998</ele>
        <time>2003-04-16T13:58:26Z</time>
      </trkpt>
      <trkpt lat="30.818413021042943" lon="-4.148297002539039">
        <ele>661.89999999999998</ele>
        <time>2003-04-16T13:58:29Z</time>
      </trkpt>
      <trkpt lat="30.818492984399199" lon="-4.148392975330353">
        <ele>661.39999999999998</ele>
        <time>2003-04-16T13:58:30Z</time>
      </trkpt>
      <trkpt lat="30.818598009645939" lon="-4.148487020283938">
        <ele>661.5</ele>
        <time>2003-04-16T13:58:33Z</time>
      </trkpt>
      <trkpt lat="30.818848041817546" lon="-4.148624986410141">
        <ele>661.70000000000005</ele>
        <time>2003-04-16T13:58:37Z</time>
      </trkpt>
      <trkpt lat="30.818958012387156" lon="-4.14866304025054">
        <ele>662</ele>
        <time>2003-04-16T13:58:38Z</time>
      </trkpt>
      <trkpt lat="30.819051973521709" lon="-4.148662034422159">
        <ele>662</ele>
        <time>2003-04-16T13:58:41Z</time>
      </trkpt>
      <trkpt lat="30.81922497600317" lon="-4.148519961163402">
        <ele>661.39999999999998</ele>
        <time>2003-04-16T13:58:48Z</time>
      </trkpt>
      <trkpt lat="30.819341987371445" lon="-4.14849498309195">
        <ele>661.39999999999998</ele>
        <time>2003-04-16T13:58:49Z</time>
      </trkpt>
      <trkpt lat="30.819452963769436" lon="-4.148482996970415">
        <ele>661.70000000000005</ele>
        <time>2003-04-16T13:58:52Z</time>
      </trkpt>
      <trkpt lat="30.819584978744388" lon="-4.148458018898964">
        <ele>661.29999999999995</ele>
        <time>2003-04-16T13:58:53Z</time>
      </trkpt>
      <trkpt lat="30.819725040346384" lon="-4.148400016129017">
        <ele>661.29999999999995</ele>
        <time>2003-04-16T13:58:56Z</time>
      </trkpt>
      <trkpt lat="30.819946993142366" lon="-4.1482799872756">
        <ele>661.10000000000002</ele>
        <time>2003-04-16T13:59:00Z</time>
      </trkpt>
      <trkpt lat="30.82004003226757" lon="-4.148227013647556">
        <ele>662</ele>
        <time>2003-04-16T13:59:02Z</time>
      </trkpt>
      <trkpt lat="30.82014799118042" lon="-4.148222990334034">
        <ele>661.70000000000005</ele>
        <time>2003-04-16T13:59:05Z</time>
      </trkpt>
      <trkpt lat="30.820271959528327" lon="-4.148232964798808">
        <ele>661.5</ele>
        <time>2003-04-16T13:59:06Z</time>
      </trkpt>
      <trkpt lat="30.820370027795434" lon="-4.148266995325685">
        <ele>661.5</ele>
        <time>2003-04-16T13:59:09Z</time>
      </trkpt>
      <trkpt lat="30.820746961981058" lon="-4.148445026949048">
        <ele>661.39999999999998</ele>
        <time>2003-04-16T13:59:16Z</time>
      </trkpt>
      <trkpt lat="30.821039993315935" lon="-4.148527001962066">
        <ele>661.39999999999998</ele>
        <time>2003-04-16T13:59:20Z</time>
      </trkpt>
      <trkpt lat="30.821181982755661" lon="-4.148482996970415">
        <ele>661.39999999999998</ele>
        <time>2003-04-16T13:59:23Z</time>
      </trkpt>
      <trkpt lat="30.821315003558993" lon="-4.148455001413822">
        <ele>661.60000000000002</ele>
        <time>2003-04-16T13:59:24Z</time>
      </trkpt>
      <trkpt lat="30.821439977735281" lon="-4.148457013070583">
        <ele>661.60000000000002</ele>
        <time>2003-04-16T13:59:27Z</time>
      </trkpt>
      <trkpt lat="30.821550032123923" lon="-4.148487020283938">
        <ele>661.70000000000005</ele>
        <time>2003-04-16T13:59:28Z</time>
      </trkpt>
      <trkpt lat="30.821722028777003" lon="-4.148547034710646">
        <ele>661.89999999999998</ele>
        <time>2003-04-16T13:59:32Z</time>
      </trkpt>
      <trkpt lat="30.822032997384667" lon="-4.14851501584053">
        <ele>661.39999999999998</ele>
        <time>2003-04-16T13:59:36Z</time>
      </trkpt>
      <trkpt lat="30.822122013196349" lon="-4.148464975878596">
        <ele>661.70000000000005</ele>
        <time>2003-04-16T13:59:39Z</time>
      </trkpt>
      <trkpt lat="30.822213040664792" lon="-4.148417031392455">
        <ele>661.39999999999998</ele>
        <time>2003-04-16T13:59:42Z</time>
      </trkpt>
      <trkpt lat="30.822250004857779" lon="-4.148307982832193">
        <ele>661.39999999999998</ele>
        <time>2003-04-16T13:59:44Z</time>
      </trkpt>
      <trkpt lat="30.822202982380986" lon="-4.148209998384118">
        <ele>661.70000000000005</ele>
        <time>2003-04-16T13:59:47Z</time>
      </trkpt>
      <trkpt lat="30.82223198376596" lon="-4.148100027814508">
        <ele>661.79999999999995</ele>
        <time>2003-04-16T13:59:51Z</time>
      </trkpt>
      <trkpt lat="30.822323011234403" lon="-4.148019980639219">
        <ele>661.89999999999998</ele>
        <time>2003-04-16T13:59:55Z</time>
      </trkpt>
      <trkpt lat="30.822438010945916" lon="-4.147946974262595">
        <ele>662.29999999999995</ele>
        <time>2003-04-16T13:59:59Z</time>
      </trkpt>
      <trkpt lat="30.822531972080469" lon="-4.147916967049241">
        <ele>662.39999999999998</ele>
        <time>2003-04-16T13:59:59Z</time>
      </trkpt>
      <trkpt lat="30.822627022862434" lon="-4.147902969270945">
        <ele>662.29999999999995</ele>
        <time>2003-04-16T14:00:02Z</time>
      </trkpt>
      <trkpt lat="30.82281201146543" lon="-4.147910010069609">
        <ele>661.79999999999995</ele>
        <time>2003-04-16T14:00:06Z</time>
      </trkpt>
      <trkpt lat="30.82289800979197" lon="-4.14795502088964">
        <ele>661.79999999999995</ele>
        <time>2003-04-16T14:00:10Z</time>
      </trkpt>
      <trkpt lat="30.82304997369647" lon="-4.148013023659587">
        <ele>662</ele>
        <time>2003-04-16T14:00:15Z</time>
      </trkpt>
      <trkpt lat="30.823172014206648" lon="-4.148067003116012">
        <ele>662.10000000000002</ele>
        <time>2003-04-16T14:00:18Z</time>
      </trkpt>
      <trkpt lat="30.8232850022614" lon="-4.148049987852573">
        <ele>662.79999999999995</ele>
        <time>2003-04-16T14:00:22Z</time>
      </trkpt>
      <trkpt lat="30.823426991701126" lon="-4.148006988689303">
        <ele>663.39999999999998</ele>
        <time>2003-04-16T14:00:25Z</time>
      </trkpt>
      <trkpt lat="30.823548026382923" lon="-4.147989973425865">
        <ele>663.29999999999995</ele>
        <time>2003-04-16T14:00:26Z</time>
      </trkpt>
      <trkpt lat="30.823796968907118" lon="-4.147952003404498">
        <ele>663.29999999999995</ele>
        <time>2003-04-16T14:00:30Z</time>
      </trkpt>
      <trkpt lat="30.823905011638999" lon="-4.147877991199493">
        <ele>663.39999999999998</ele>
        <time>2003-04-16T14:00:33Z</time>
      </trkpt>
      <trkpt lat="30.824002996087074" lon="-4.147831974551082">
        <ele>663.5</ele>
        <time>2003-04-16T14:00:34Z</time>
      </trkpt>
      <trkpt lat="30.824107015505433" lon="-4.147798027843237">
        <ele>663.39999999999998</ele>
        <time>2003-04-16T14:00:37Z</time>
      </trkpt>
      <trkpt lat="30.824169963598251" lon="-4.147708006203175">
        <ele>663.70000000000005</ele>
        <time>2003-04-16T14:00:37Z</time>
      </trkpt>
      <trkpt lat="30.824284963309765" lon="-4.147640028968453">
        <ele>663.89999999999998</ele>
        <time>2003-04-16T14:00:41Z</time>
      </trkpt>
      <trkpt lat="30.824429970234632" lon="-4.147589989006519">
        <ele>663.5</ele>
        <time>2003-04-16T14:00:45Z</time>
      </trkpt>
      <trkpt lat="30.824602972716093" lon="-4.147472977638245">
        <ele>664</ele>
        <time>2003-04-16T14:00:48Z</time>
      </trkpt>
      <trkpt lat="30.824807994067669" lon="-4.147337023168802">
        <ele>663.89999999999998</ele>
        <time>2003-04-16T14:00:50Z</time>
      </trkpt>
      <trkpt lat="30.82502500154078" lon="-4.147250019013882">
        <ele>664.39999999999998</ele>
        <time>2003-04-16T14:00:53Z</time>
      </trkpt>
      <trkpt lat="30.825488017871976" lon="-4.147159997373819">
        <ele>663.5</ele>
        <time>2003-04-16T14:01:00Z</time>
      </trkpt>
      <trkpt lat="30.825651967898011" lon="-4.147157985717058">
        <ele>663.5</ele>
        <time>2003-04-16T14:01:01Z</time>
      </trkpt>
      <trkpt lat="30.825807033106685" lon="-4.147105012089014">
        <ele>663.79999999999995</ele>
        <time>2003-04-16T14:01:04Z</time>
      </trkpt>
      <trkpt lat="30.825937036424875" lon="-4.147037034854293">
        <ele>663.79999999999995</ele>
        <time>2003-04-16T14:01:05Z</time>
      </trkpt>
      <trkpt lat="30.826144991442561" lon="-4.146924968808889">
        <ele>663.79999999999995</ele>
        <time>2003-04-16T14:01:09Z</time>
      </trkpt>
      <trkpt lat="30.826244987547398" lon="-4.146917006000876">
        <ele>663.39999999999998</ele>
        <time>2003-04-16T14:01:12Z</time>
      </trkpt>
      <trkpt lat="30.826369961723685" lon="-4.146902002394199">
        <ele>663.79999999999995</ele>
        <time>2003-04-16T14:01:15Z</time>
      </trkpt>
      <trkpt lat="30.826435005292296" lon="-4.146820027381182">
        <ele>663</ele>
        <time>2003-04-16T14:01:19Z</time>
      </trkpt>
      <trkpt lat="30.826468029990792" lon="-4.146711984649301">
        <ele>663.5</ele>
        <time>2003-04-16T14:01:23Z</time>
      </trkpt>
      <trkpt lat="30.826487978920341" lon="-4.146588016301394">
        <ele>663.39999999999998</ele>
        <time>2003-04-16T14:01:24Z</time>
      </trkpt>
      <trkpt lat="30.826531983911991" lon="-4.146364973857999">
        <ele>663.10000000000002</ele>
        <time>2003-04-16T14:01:28Z</time>
      </trkpt>
      <trkpt lat="30.826587975025177" lon="-4.146279981359839">
        <ele>662.79999999999995</ele>
        <time>2003-04-16T14:01:31Z</time>
      </trkpt>
      <trkpt lat="30.826676990836859" lon="-4.146212004125118">
        <ele>662.60000000000002</ele>
        <time>2003-04-16T14:01:32Z</time>
      </trkpt>
      <trkpt lat="30.826834989711642" lon="-4.146137991920114">
        <ele>662.70000000000005</ele>
        <time>2003-04-16T14:01:35Z</time>
      </trkpt>
      <trkpt lat="30.826955018565059" lon="-4.146112008020282">
        <ele>662.29999999999995</ele>
        <time>2003-04-16T14:01:38Z</time>
      </trkpt>
      <trkpt lat="30.827189963310957" lon="-4.146097004413605">
        <ele>662.20000000000005</ele>
        <time>2003-04-16T14:01:42Z</time>
      </trkpt>
      <trkpt lat="30.827300017699599" lon="-4.146137991920114">
        <ele>662</ele>
        <time>2003-04-16T14:01:44Z</time>
      </trkpt>
      <trkpt lat="30.827390039339662" lon="-4.146232036873698">
        <ele>663</ele>
        <time>2003-04-16T14:01:47Z</time>
      </trkpt>
      <trkpt lat="30.827482994645834" lon="-4.146282998844981">
        <ele>663</ele>
        <time>2003-04-16T14:01:53Z</time>
      </trkpt>
      <trkpt lat="30.827618027105927" lon="-4.146260032430291">
        <ele>662.89999999999998</ele>
        <time>2003-04-16T14:01:55Z</time>
      </trkpt>
      <trkpt lat="30.827764961868525" lon="-4.146197000518441">
        <ele>662.89999999999998</ele>
        <time>2003-04-16T14:01:58Z</time>
      </trkpt>
      <trkpt lat="30.827841991558671" lon="-4.146132040768862">
        <ele>662.89999999999998</ele>
        <time>2003-04-16T14:02:01Z</time>
      </trkpt>
      <trkpt lat="30.827922960743308" lon="-4.145976975560188">
        <ele>663.20000000000005</ele>
        <time>2003-04-16T14:02:03Z</time>
      </trkpt>
      <trkpt lat="30.827986998483539" lon="-4.145882008597255">
        <ele>663.10000000000002</ele>
        <time>2003-04-16T14:02:06Z</time>
      </trkpt>
      <trkpt lat="30.828088000416756" lon="-4.145815037190914">
        <ele>663.10000000000002</ele>
        <time>2003-04-16T14:02:07Z</time>
      </trkpt>
      <trkpt lat="30.8282480109483" lon="-4.145731972530484">
        <ele>663.10000000000002</ele>
        <time>2003-04-16T14:02:10Z</time>
      </trkpt>
      <trkpt lat="30.82835303619504" lon="-4.14565502665937">
        <ele>663.20000000000005</ele>
        <time>2003-04-16T14:02:13Z</time>
      </trkpt>
      <trkpt lat="30.828456971794367" lon="-4.145587971433997">
        <ele>663.39999999999998</ele>
        <time>2003-04-16T14:02:14Z</time>
      </trkpt>
      <trkpt lat="30.828637015074492" lon="-4.145516976714134">
        <ele>663.39999999999998</ele>
        <time>2003-04-16T14:02:18Z</time>
      </trkpt>
      <trkpt lat="30.828759977594018" lon="-4.145523011684418">
        <ele>663.29999999999995</ele>
        <time>2003-04-16T14:02:20Z</time>
      </trkpt>
      <trkpt lat="30.829415023326874" lon="-4.145642034709454">
        <ele>663.5</ele>
        <time>2003-04-16T14:02:30Z</time>
      </trkpt>
      <trkpt lat="30.829479983076453" lon="-4.145747981965542">
        <ele>663.79999999999995</ele>
        <time>2003-04-16T14:02:33Z</time>
      </trkpt>
      <trkpt lat="30.829590037465096" lon="-4.145830040797591">
        <ele>663.89999999999998</ele>
        <time>2003-04-16T14:02:34Z</time>
      </trkpt>
      <trkpt lat="30.829817019402981" lon="-4.145931964740157">
        <ele>663.60000000000002</ele>
        <time>2003-04-16T14:02:38Z</time>
      </trkpt>
      <trkpt lat="30.829936964437366" lon="-4.14591696113348">
        <ele>663.70000000000005</ele>
        <time>2003-04-16T14:02:41Z</time>
      </trkpt>
      <trkpt lat="30.830042995512486" lon="-4.145953003317118">
        <ele>663.89999999999998</ele>
        <time>2003-04-16T14:02:42Z</time>
      </trkpt>
      <trkpt lat="30.830124970525503" lon="-4.146045036613941">
        <ele>663.60000000000002</ele>
        <time>2003-04-16T14:02:45Z</time>
      </trkpt>
      <trkpt lat="30.830242987722158" lon="-4.146132962778211">
        <ele>663.70000000000005</ele>
        <time>2003-04-16T14:02:47Z</time>
      </trkpt>
      <trkpt lat="30.830378020182252" lon="-4.14619498886168">
        <ele>663.5</ele>
        <time>2003-04-16T14:02:49Z</time>
      </trkpt>
      <trkpt lat="30.830602990463376" lon="-4.146264977753162">
        <ele>663.79999999999995</ele>
        <time>2003-04-16T14:02:52Z</time>
      </trkpt>
      <trkpt lat="30.830859979614615" lon="-4.146333038806915">
        <ele>663.79999999999995</ele>
        <time>2003-04-16T14:02:56Z</time>
      </trkpt>
      <trkpt lat="30.830972967669368" lon="-4.146306971088052">
        <ele>663.5</ele>
        <time>2003-04-16T14:02:59Z</time>
      </trkpt>
      <trkpt lat="30.831146975979209" lon="-4.14619498886168">
        <ele>664.10000000000002</ele>
        <time>2003-04-16T14:03:03Z</time>
      </trkpt>
      <trkpt lat="30.831410000100732" lon="-4.146127011626959">
        <ele>664.20000000000005</ele>
        <time>2003-04-16T14:03:08Z</time>
      </trkpt>
      <trkpt lat="30.831557018682361" lon="-4.146134974434972">
        <ele>664</ele>
        <time>2003-04-16T14:03:09Z</time>
      </trkpt>
      <trkpt lat="30.831661960110068" lon="-4.146189959719777">
        <ele>663.5</ele>
        <time>2003-04-16T14:03:12Z</time>
      </trkpt>
      <trkpt lat="30.831760028377175" lon="-4.146232036873698">
        <ele>664</ele>
        <time>2003-04-16T14:03:14Z</time>
      </trkpt>
      <trkpt lat="30.83187703974545" lon="-4.146313006058335">
        <ele>664.10000000000002</ele>
        <time>2003-04-16T14:03:16Z</time>
      </trkpt>
      <trkpt lat="30.831988016143441" lon="-4.146502017974854">
        <ele>664.20000000000005</ele>
        <time>2003-04-16T14:03:20Z</time>
      </trkpt>
      <trkpt lat="30.832120031118393" lon="-4.146579969674349">
        <ele>664.20000000000005</ele>
        <time>2003-04-16T14:03:23Z</time>
      </trkpt>
      <trkpt lat="30.832278029993176" lon="-4.146678037941456">
        <ele>664.5</ele>
        <time>2003-04-16T14:03:26Z</time>
      </trkpt>
      <trkpt lat="30.832395041361451" lon="-4.146693041548133">
        <ele>664.60000000000002</ele>
        <time>2003-04-16T14:03:27Z</time>
      </trkpt>
      <trkpt lat="30.832497971132398" lon="-4.146722964942455">
        <ele>664.5</ele>
        <time>2003-04-16T14:03:31Z</time>
      </trkpt>
      <trkpt lat="30.83260802552104" lon="-4.146767975762487">
        <ele>664.39999999999998</ele>
        <time>2003-04-16T14:03:35Z</time>
      </trkpt>
      <trkpt lat="30.832729982212186" lon="-4.146830001845956">
        <ele>664.39999999999998</ele>
        <time>2003-04-16T14:03:39Z</time>
      </trkpt>
      <trkpt lat="30.832947995513678" lon="-4.146911976858974">
        <ele>664.60000000000002</ele>
        <time>2003-04-16T14:03:45Z</time>
      </trkpt>
      <trkpt lat="30.833047991618514" lon="-4.146926980465651">
        <ele>664.20000000000005</ele>
        <time>2003-04-16T14:03:46Z</time>
      </trkpt>
      <trkpt lat="30.833180006593466" lon="-4.146922035142779">
        <ele>664.39999999999998</ele>
        <time>2003-04-16T14:03:50Z</time>
      </trkpt>
      <trkpt lat="30.833300035446882" lon="-4.146937960758805">
        <ele>664.5</ele>
        <time>2003-04-16T14:03:53Z</time>
      </trkpt>
      <trkpt lat="30.833431966602802" lon="-4.146935027092695">
        <ele>664.79999999999995</ele>
        <time>2003-04-16T14:03:55Z</time>
      </trkpt>
      <trkpt lat="30.83353498019278" lon="-4.146912982687354">
        <ele>665</ele>
        <time>2003-04-16T14:03:58Z</time>
      </trkpt>
      <trkpt lat="30.833736984059215" lon="-4.146852968260646">
        <ele>665</ele>
        <time>2003-04-16T14:04:14Z</time>
      </trkpt>
      <trkpt lat="30.83383203484118" lon="-4.146822039037943">
        <ele>665.29999999999995</ele>
        <time>2003-04-16T14:04:17Z</time>
      </trkpt>
      <trkpt lat="30.833977963775396" lon="-4.146793037652969">
        <ele>665.20000000000005</ele>
        <time>2003-04-16T14:04:20Z</time>
      </trkpt>
      <trkpt lat="30.83417996764183" lon="-4.146775016561151">
        <ele>665.20000000000005</ele>
        <time>2003-04-16T14:04:25Z</time>
      </trkpt>
      <trkpt lat="30.834272000938654" lon="-4.146781973540783">
        <ele>665.20000000000005</ele>
        <time>2003-04-16T14:04:28Z</time>
      </trkpt>
      <trkpt lat="30.834381971508265" lon="-4.146764958277345">
        <ele>665.10000000000002</ele>
        <time>2003-04-16T14:04:30Z</time>
      </trkpt>
      <trkpt lat="30.834547011181712" lon="-4.146694969385862">
        <ele>665.60000000000002</ele>
        <time>2003-04-16T14:04:35Z</time>
      </trkpt>
      <trkpt lat="30.83465002477169" lon="-4.146712990477681">
        <ele>665.20000000000005</ele>
        <time>2003-04-16T14:04:37Z</time>
      </trkpt>
      <trkpt lat="30.834808023646474" lon="-4.146750038489699">
        <ele>665.29999999999995</ele>
        <time>2003-04-16T14:04:40Z</time>
      </trkpt>
      <trkpt lat="30.834916988387704" lon="-4.146737968549132">
        <ele>665.29999999999995</ele>
        <time>2003-04-16T14:04:41Z</time>
      </trkpt>
      <trkpt lat="30.835078004747629" lon="-4.146711984649301">
        <ele>665.10000000000002</ele>
        <time>2003-04-16T14:04:45Z</time>
      </trkpt>
      <trkpt lat="30.83518504165113" lon="-4.146485002711415">
        <ele>665.5</ele>
        <time>2003-04-16T14:04:51Z</time>
      </trkpt>
      <trkpt lat="30.835280008614063" lon="-4.146428005769849">
        <ele>665.29999999999995</ele>
        <time>2003-04-16T14:04:52Z</time>
      </trkpt>
      <trkpt lat="30.835415041074157" lon="-4.146415013819933">
        <ele>665.10000000000002</ele>
        <time>2003-04-16T14:04:55Z</time>
      </trkpt>
      <trkpt lat="30.835528029128909" lon="-4.146454995498061">
        <ele>665</ele>
        <time>2003-04-16T14:04:56Z</time>
      </trkpt>
      <trkpt lat="30.835612015798688" lon="-4.146518027409911">
        <ele>665.20000000000005</ele>
        <time>2003-04-16T14:04:59Z</time>
      </trkpt>
      <trkpt lat="30.835707988590002" lon="-4.146562032401562">
        <ele>665.29999999999995</ele>
        <time>2003-04-16T14:05:00Z</time>
      </trkpt>
      <trkpt lat="30.835798010230064" lon="-4.14658198133111">
        <ele>665</ele>
        <time>2003-04-16T14:05:03Z</time>
      </trkpt>
      <trkpt lat="30.835870010778308" lon="-4.146677032113075">
        <ele>664.70000000000005</ele>
        <time>2003-04-16T14:05:06Z</time>
      </trkpt>
      <trkpt lat="30.835928013548255" lon="-4.146822039037943">
        <ele>664.39999999999998</ele>
        <time>2003-04-16T14:05:10Z</time>
      </trkpt>
      <trkpt lat="30.836030021309853" lon="-4.146867971867323">
        <ele>664.20000000000005</ele>
        <time>2003-04-16T14:05:12Z</time>
      </trkpt>
      <trkpt lat="30.836145021021366" lon="-4.146892027929425">
        <ele>663.89999999999998</ele>
        <time>2003-04-16T14:05:15Z</time>
      </trkpt>
      <trkpt lat="30.836233031004667" lon="-4.146863026544452">
        <ele>664.20000000000005</ele>
        <time>2003-04-16T14:05:19Z</time>
      </trkpt>
      <trkpt lat="30.836373008787632" lon="-4.146822039037943">
        <ele>664.5</ele>
        <time>2003-04-16T14:05:22Z</time>
      </trkpt>
      <trkpt lat="30.836471999064088" lon="-4.146803012117744">
        <ele>664.29999999999995</ele>
        <time>2003-04-16T14:05:23Z</time>
      </trkpt>
      <trkpt lat="30.836566966027021" lon="-4.146812986582518">
        <ele>664</ele>
        <time>2003-04-16T14:05:26Z</time>
      </trkpt>
      <trkpt lat="30.836688000708818" lon="-4.146863026544452">
        <ele>664</ele>
        <time>2003-04-16T14:05:29Z</time>
      </trkpt>
      <trkpt lat="30.83682001568377" lon="-4.146878030151129">
        <ele>664.10000000000002</ele>
        <time>2003-04-16T14:05:31Z</time>
      </trkpt>
      <trkpt lat="30.836910037323833" lon="-4.146857997402549">
        <ele>664.70000000000005</ele>
        <time>2003-04-16T14:05:34Z</time>
      </trkpt>
      <trkpt lat="30.837129978463054" lon="-4.146788008511066">
        <ele>664.29999999999995</ele>
        <time>2003-04-16T14:05:38Z</time>
      </trkpt>
      <trkpt lat="30.837419992312789" lon="-4.146724976599217">
        <ele>664.70000000000005</ele>
        <time>2003-04-16T14:05:42Z</time>
      </trkpt>
      <trkpt lat="30.837525017559528" lon="-4.146662028506398">
        <ele>664.79999999999995</ele>
        <time>2003-04-16T14:05:45Z</time>
      </trkpt>
      <trkpt lat="30.837600035592914" lon="-4.146533031016588">
        <ele>665.20000000000005</ele>
        <time>2003-04-16T14:05:46Z</time>
      </trkpt>
      <trkpt lat="30.837695002555847" lon="-4.146424988284707">
        <ele>665.10000000000002</ele>
        <time>2003-04-16T14:05:49Z</time>
      </trkpt>
      <trkpt lat="30.837815031409264" lon="-4.146354999393225">
        <ele>665.29999999999995</ele>
        <time>2003-04-16T14:05:50Z</time>
      </trkpt>
      <trkpt lat="30.837945034727454" lon="-4.146342007443309">
        <ele>665.29999999999995</ele>
        <time>2003-04-16T14:05:53Z</time>
      </trkpt>
      <trkpt lat="30.838085012510419" lon="-4.146385006606579">
        <ele>665.10000000000002</ele>
        <time>2003-04-16T14:05:54Z</time>
      </trkpt>
      <trkpt lat="30.838272012770176" lon="-4.146457007154822">
        <ele>665.20000000000005</ele>
        <time>2003-04-16T14:05:58Z</time>
      </trkpt>
      <trkpt lat="30.838454989716411" lon="-4.146545017138124">
        <ele>665.20000000000005</ele>
        <time>2003-04-16T14:06:01Z</time>
      </trkpt>
      <trkpt lat="30.838569989427924" lon="-4.146611988544464">
        <ele>665.20000000000005</ele>
        <time>2003-04-16T14:06:02Z</time>
      </trkpt>
      <trkpt lat="30.838681971654296" lon="-4.146712990477681">
        <ele>665.39999999999998</ele>
        <time>2003-04-16T14:06:05Z</time>
      </trkpt>
      <trkpt lat="30.838869977742434" lon="-4.146894961595535">
        <ele>665.39999999999998</ele>
        <time>2003-04-16T14:06:09Z</time>
      </trkpt>
      <trkpt lat="30.838954970240593" lon="-4.146999986842275">
        <ele>665.60000000000002</ele>
        <time>2003-04-16T14:06:12Z</time>
      </trkpt>
      <trkpt lat="30.839057983830571" lon="-4.147086990997195">
        <ele>665.70000000000005</ele>
        <time>2003-04-16T14:06:14Z</time>
      </trkpt>
      <trkpt lat="30.839144987985492" lon="-4.147139964625239">
        <ele>665.79999999999995</ele>
        <time>2003-04-16T14:06:17Z</time>
      </trkpt>
      <trkpt lat="30.839241966605186" lon="-4.147129990160465">
        <ele>665.70000000000005</ele>
        <time>2003-04-16T14:06:20Z</time>
      </trkpt>
      <trkpt lat="30.839361995458603" lon="-4.147165026515722">
        <ele>666.20000000000005</ele>
        <time>2003-04-16T14:06:23Z</time>
      </trkpt>
      <trkpt lat="30.83944003097713" lon="-4.147108029574156">
        <ele>666.60000000000002</ele>
        <time>2003-04-16T14:06:25Z</time>
      </trkpt>
      <trkpt lat="30.839550001546741" lon="-4.14707500487566">
        <ele>666.70000000000005</ele>
        <time>2003-04-16T14:06:27Z</time>
      </trkpt>
      <trkpt lat="30.839647985994816" lon="-4.147033011540771">
        <ele>666.5</ele>
        <time>2003-04-16T14:06:28Z</time>
      </trkpt>
      <trkpt lat="30.8397420309484" lon="-4.146999986842275">
        <ele>666.60000000000002</ele>
        <time>2003-04-16T14:06:31Z</time>
      </trkpt>
      <trkpt lat="30.839868010953069" lon="-4.146993029862642">
        <ele>666.70000000000005</ele>
        <time>2003-04-16T14:06:32Z</time>
      </trkpt>
      <trkpt lat="30.840060040354729" lon="-4.147001998499036">
        <ele>666.5</ele>
        <time>2003-04-16T14:06:36Z</time>
      </trkpt>
      <trkpt lat="30.840176967903972" lon="-4.146996969357133">
        <ele>666.39999999999998</ele>
        <time>2003-04-16T14:06:37Z</time>
      </trkpt>
      <trkpt lat="30.840397998690605" lon="-4.146981965750456">
        <ele>666.5</ele>
        <time>2003-04-16T14:06:41Z</time>
      </trkpt>
      <trkpt lat="30.840502018108964" lon="-4.146939972415566">
        <ele>666.60000000000002</ele>
        <time>2003-04-16T14:06:44Z</time>
      </trkpt>
      <trkpt lat="30.840573012828827" lon="-4.146845005452633">
        <ele>666.79999999999995</ele>
        <time>2003-04-16T14:06:45Z</time>
      </trkpt>
      <trkpt lat="30.840682983398438" lon="-4.146620035171509">
        <ele>666.79999999999995</ele>
        <time>2003-04-16T14:06:50Z</time>
      </trkpt>
      <trkpt lat="30.84079697728157" lon="-4.146573012694717">
        <ele>666.5</ele>
        <time>2003-04-16T14:06:52Z</time>
      </trkpt>
      <trkpt lat="30.840933015570045" lon="-4.146560020744801">
        <ele>666.5</ele>
        <time>2003-04-16T14:06:54Z</time>
      </trkpt>
      <trkpt lat="30.841142982244492" lon="-4.146530013531447">
        <ele>667</ele>
        <time>2003-04-16T14:06:58Z</time>
      </trkpt>
      <trkpt lat="30.841293018311262" lon="-4.146445021033287">
        <ele>667</ele>
        <time>2003-04-16T14:07:00Z</time>
      </trkpt>
      <trkpt lat="30.841341968625784" lon="-4.146322980523109">
        <ele>666.70000000000005</ele>
        <time>2003-04-16T14:07:03Z</time>
      </trkpt>
      <trkpt lat="30.841338029131293" lon="-4.146175039932132">
        <ele>666.60000000000002</ele>
        <time>2003-04-16T14:07:04Z</time>
      </trkpt>
      <trkpt lat="30.841317996382713" lon="-4.145931964740157">
        <ele>666.39999999999998</ele>
        <time>2003-04-16T14:07:08Z</time>
      </trkpt>
      <trkpt lat="30.841242978349328" lon="-4.145812019705772">
        <ele>665.79999999999995</ele>
        <time>2003-04-16T14:07:11Z</time>
      </trkpt>
      <trkpt lat="30.841171983629465" lon="-4.145704982802272">
        <ele>665.5</ele>
        <time>2003-04-16T14:07:15Z</time>
      </trkpt>
      <trkpt lat="30.84109797142446" lon="-4.145637005567551">
        <ele>665.60000000000002</ele>
        <time>2003-04-16T14:07:17Z</time>
      </trkpt>
      <trkpt lat="30.841050026938319" lon="-4.145532986149192">
        <ele>665.20000000000005</ele>
        <time>2003-04-16T14:07:19Z</time>
      </trkpt>
      <trkpt lat="30.84105203859508" lon="-4.145407006144524">
        <ele>664.79999999999995</ele>
        <time>2003-04-16T14:07:21Z</time>
      </trkpt>
      <trkpt lat="30.841065030544996" lon="-4.145299969241023">
        <ele>664.70000000000005</ele>
        <time>2003-04-16T14:07:22Z</time>
      </trkpt>
      <trkpt lat="30.841132001951337" lon="-4.145199973136187">
        <ele>664.29999999999995</ele>
        <time>2003-04-16T14:07:26Z</time>
      </trkpt>
      <trkpt lat="30.841192016378045" lon="-4.145092014223337">
        <ele>664.70000000000005</ele>
        <time>2003-04-16T14:07:29Z</time>
      </trkpt>
      <trkpt lat="30.841265022754669" lon="-4.144987994804978">
        <ele>664.5</ele>
        <time>2003-04-16T14:07:31Z</time>
      </trkpt>
      <trkpt lat="30.841382034122944" lon="-4.144867965951562">
        <ele>664.5</ele>
        <time>2003-04-16T14:07:35Z</time>
      </trkpt>
      <trkpt lat="30.841501979157329" lon="-4.144824966788292">
        <ele>663.79999999999995</ele>
        <time>2003-04-16T14:07:38Z</time>
      </trkpt>
      <trkpt lat="30.841607004404068" lon="-4.144809963181615">
        <ele>663.79999999999995</ele>
        <time>2003-04-16T14:07:42Z</time>
      </trkpt>
      <trkpt lat="30.841732984408736" lon="-4.144777022302151">
        <ele>665.20000000000005</ele>
        <time>2003-04-16T14:07:45Z</time>
      </trkpt>
      <trkpt lat="30.841822000220418" lon="-4.144729999825358">
        <ele>665.60000000000002</ele>
        <time>2003-04-16T14:07:46Z</time>
      </trkpt>
      <trkpt lat="30.841943034902215" lon="-4.14466998539865">
        <ele>665.89999999999998</ele>
        <time>2003-04-16T14:07:49Z</time>
      </trkpt>
      <trkpt lat="30.842031966894865" lon="-4.14458298124373">
        <ele>666.10000000000002</ele>
        <time>2003-04-16T14:07:53Z</time>
      </trkpt>
      <trkpt lat="30.842113019898534" lon="-4.144452977925539">
        <ele>665.79999999999995</ele>
        <time>2003-04-16T14:07:56Z</time>
      </trkpt>
      <trkpt lat="30.842121988534927" lon="-4.144290033727884">
        <ele>666.79999999999995</ele>
        <time>2003-04-16T14:07:58Z</time>
      </trkpt>
      <trkpt lat="30.842077983543277" lon="-4.144179979339242">
        <ele>666.39999999999998</ele>
        <time>2003-04-16T14:08:01Z</time>
      </trkpt>
      <trkpt lat="30.842073038220406" lon="-4.144057016819716">
        <ele>666</ele>
        <time>2003-04-16T14:08:02Z</time>
      </trkpt>
      <trkpt lat="30.842116959393024" lon="-4.143917039036751">
        <ele>666</ele>
        <time>2003-04-16T14:08:05Z</time>
      </trkpt>
      <trkpt lat="30.842173034325242" lon="-4.143794998526573">
        <ele>666.10000000000002</ele>
        <time>2003-04-16T14:08:06Z</time>
      </trkpt>
      <trkpt lat="30.842225002124906" lon="-4.143685027956963">
        <ele>666.20000000000005</ele>
        <time>2003-04-16T14:08:09Z</time>
      </trkpt>
      <trkpt lat="30.842388030141592" lon="-4.1433169785887">
        <ele>665.29999999999995</ele>
        <time>2003-04-16T14:08:16Z</time>
      </trkpt>
      <trkpt lat="30.842475034296513" lon="-4.143217988312244">
        <ele>665.10000000000002</ele>
        <time>2003-04-16T14:08:17Z</time>
      </trkpt>
      <trkpt lat="30.842675026506186" lon="-4.142997963353992">
        <ele>665.39999999999998</ele>
        <time>2003-04-16T14:08:21Z</time>
      </trkpt>
      <trkpt lat="30.84318196401" lon="-4.142417013645172">
        <ele>665.70000000000005</ele>
        <time>2003-04-16T14:08:31Z</time>
      </trkpt>
      <trkpt lat="30.84339695982635" lon="-4.142232025042176">
        <ele>666</ele>
        <time>2003-04-16T14:08:35Z</time>
      </trkpt>
      <trkpt lat="30.843507014214993" lon="-4.142162958160043">
        <ele>666.20000000000005</ele>
        <time>2003-04-16T14:08:36Z</time>
      </trkpt>
      <trkpt lat="30.843617990612984" lon="-4.142143009230495">
        <ele>666.29999999999995</ele>
        <time>2003-04-16T14:08:39Z</time>
      </trkpt>
      <trkpt lat="30.843725027516484" lon="-4.142206963151693">
        <ele>666.29999999999995</ele>
        <time>2003-04-16T14:08:40Z</time>
      </trkpt>
      <trkpt lat="30.844052005559206" lon="-4.142441991716623">
        <ele>666</ele>
        <time>2003-04-16T14:08:47Z</time>
      </trkpt>
      <trkpt lat="30.844185026362538" lon="-4.142502006143332">
        <ele>665.89999999999998</ele>
        <time>2003-04-16T14:08:48Z</time>
      </trkpt>
      <trkpt lat="30.844313018023968" lon="-4.142551962286234">
        <ele>665.89999999999998</ele>
        <time>2003-04-16T14:08:51Z</time>
      </trkpt>
      <trkpt lat="30.84444796666503" lon="-4.142565038055182">
        <ele>666.20000000000005</ele>
        <time>2003-04-16T14:08:52Z</time>
      </trkpt>
      <trkpt lat="30.844739992171526" lon="-4.142527990043163">
        <ele>666.5</ele>
        <time>2003-04-16T14:08:56Z</time>
      </trkpt>
      <trkpt lat="30.844867983832955" lon="-4.142503011971712">
        <ele>666.20000000000005</ele>
        <time>2003-04-16T14:08:59Z</time>
      </trkpt>
      <trkpt lat="30.845002010464668" lon="-4.142505023628473">
        <ele>666.20000000000005</ele>
        <time>2003-04-16T14:09:00Z</time>
      </trkpt>
      <trkpt lat="30.845132013782859" lon="-4.142464958131313">
        <ele>666.29999999999995</ele>
        <time>2003-04-16T14:09:03Z</time>
      </trkpt>
      <trkpt lat="30.845342986285686" lon="-4.142363034188747">
        <ele>666.29999999999995</ele>
        <time>2003-04-16T14:09:07Z</time>
      </trkpt>
      <trkpt lat="30.845407024025917" lon="-4.142282987013459">
        <ele>667.29999999999995</ele>
        <time>2003-04-16T14:09:09Z</time>
      </trkpt>
      <trkpt lat="30.845508025959134" lon="-4.142279969528318">
        <ele>667.10000000000002</ele>
        <time>2003-04-16T14:09:10Z</time>
      </trkpt>
      <trkpt lat="30.845631994307041" lon="-4.142275024205446">
        <ele>666.29999999999995</ele>
        <time>2003-04-16T14:09:13Z</time>
      </trkpt>
      <trkpt lat="30.845753028988838" lon="-4.142233030870557">
        <ele>666</ele>
        <time>2003-04-16T14:09:14Z</time>
      </trkpt>
      <trkpt lat="30.84601697511971" lon="-4.142102021723986">
        <ele>666.89999999999998</ele>
        <time>2003-04-16T14:09:19Z</time>
      </trkpt>
      <trkpt lat="30.846167011186481" lon="-4.141975035890937">
        <ele>667.29999999999995</ele>
        <time>2003-04-16T14:09:23Z</time>
      </trkpt>
      <trkpt lat="30.846362980082631" lon="-4.1417680028826">
        <ele>667.5</ele>
        <time>2003-04-16T14:09:29Z</time>
      </trkpt>
      <trkpt lat="30.846781991422176" lon="-4.141331976279616">
        <ele>667.5</ele>
        <time>2003-04-16T14:09:37Z</time>
      </trkpt>
      <trkpt lat="30.847115004435182" lon="-4.141004998236895">
        <ele>667.39999999999998</ele>
        <time>2003-04-16T14:09:44Z</time>
      </trkpt>
      <trkpt lat="30.847302004694939" lon="-4.140759995207191">
        <ele>667.39999999999998</ele>
        <time>2003-04-16T14:09:48Z</time>
      </trkpt>
      <trkpt lat="30.847466960549355" lon="-4.140427988022566">
        <ele>667.5</ele>
        <time>2003-04-16T14:09:52Z</time>
      </trkpt>
      <trkpt lat="30.847596963867545" lon="-4.140105033293366">
        <ele>667.29999999999995</ele>
        <time>2003-04-16T14:09:56Z</time>
      </trkpt>
      <trkpt lat="30.847872979938984" lon="-4.139597006142139">
        <ele>666.60000000000002</ele>
        <time>2003-04-16T14:10:03Z</time>
      </trkpt>
      <trkpt lat="30.848037013784051" lon="-4.139217976480722">
        <ele>666.20000000000005</ele>
        <time>2003-04-16T14:10:08Z</time>
      </trkpt>
      <trkpt lat="30.848087975755334" lon="-4.139016978442669">
        <ele>666.39999999999998</ele>
        <time>2003-04-16T14:10:12Z</time>
      </trkpt>
      <trkpt lat="30.848097028210759" lon="-4.138883035629988">
        <ele>666.70000000000005</ele>
        <time>2003-04-16T14:10:15Z</time>
      </trkpt>
      <trkpt lat="30.848107002675533" lon="-4.138595033437014">
        <ele>666.29999999999995</ele>
        <time>2003-04-16T14:10:19Z</time>
      </trkpt>
      <trkpt lat="30.848097028210759" lon="-4.13843703456223">
        <ele>666.20000000000005</ele>
        <time>2003-04-16T14:10:20Z</time>
      </trkpt>
      <trkpt lat="30.84807800129056" lon="-4.138011988252401">
        <ele>665.79999999999995</ele>
        <time>2003-04-16T14:10:27Z</time>
      </trkpt>
      <trkpt lat="30.8479930087924" lon="-4.137821970507503">
        <ele>665.89999999999998</ele>
        <time>2003-04-16T14:10:30Z</time>
      </trkpt>
      <trkpt lat="30.84795000962913" lon="-4.137676963582635">
        <ele>666</ele>
        <time>2003-04-16T14:10:31Z</time>
      </trkpt>
      <trkpt lat="30.847908016294241" lon="-4.137415029108524">
        <ele>666.10000000000002</ele>
        <time>2003-04-16T14:10:35Z</time>
      </trkpt>
      <trkpt lat="30.847912039607763" lon="-4.137253006920219">
        <ele>665.60000000000002</ele>
        <time>2003-04-16T14:10:36Z</time>
      </trkpt>
      <trkpt lat="30.847937017679214" lon="-4.136889986693859">
        <ele>665.60000000000002</ele>
        <time>2003-04-16T14:10:42Z</time>
      </trkpt>
      <trkpt lat="30.847952021285892" lon="-4.136744979768992">
        <ele>665.29999999999995</ele>
        <time>2003-04-16T14:10:43Z</time>
      </trkpt>
      <trkpt lat="30.847935006022453" lon="-4.136611958965659">
        <ele>665.29999999999995</ele>
        <time>2003-04-16T14:10:46Z</time>
      </trkpt>
      <trkpt lat="30.847935006022453" lon="-4.136493019759655">
        <ele>665.60000000000002</ele>
        <time>2003-04-16T14:10:47Z</time>
      </trkpt>
      <trkpt lat="30.847995020449162" lon="-4.136390006169677">
        <ele>665.29999999999995</ele>
        <time>2003-04-16T14:10:50Z</time>
      </trkpt>
      <trkpt lat="30.848156958818436" lon="-4.136184984818101">
        <ele>666.39999999999998</ele>
        <time>2003-04-16T14:10:54Z</time>
      </trkpt>
      <trkpt lat="30.848177997395396" lon="-4.136047018691897">
        <ele>666.10000000000002</ele>
        <time>2003-04-16T14:10:55Z</time>
      </trkpt>
      <trkpt lat="30.848168022930622" lon="-4.135907040908933">
        <ele>665.89999999999998</ele>
        <time>2003-04-16T14:10:58Z</time>
      </trkpt>
      <trkpt lat="30.848113037645817" lon="-4.135767985135317">
        <ele>665.70000000000005</ele>
        <time>2003-04-16T14:10:59Z</time>
      </trkpt>
      <trkpt lat="30.847989991307259" lon="-4.135562963783741">
        <ele>667</ele>
        <time>2003-04-16T14:11:02Z</time>
      </trkpt>
      <trkpt lat="30.847935006022453" lon="-4.135398007929325">
        <ele>666.70000000000005</ele>
        <time>2003-04-16T14:11:05Z</time>
      </trkpt>
      <trkpt lat="30.847916984930634" lon="-4.135210001841188">
        <ele>666.60000000000002</ele>
        <time>2003-04-16T14:11:06Z</time>
      </trkpt>
      <trkpt lat="30.847932994365692" lon="-4.134962987154722">
        <ele>666.5</ele>
        <time>2003-04-16T14:11:10Z</time>
      </trkpt>
      <trkpt lat="30.847946992143989" lon="-4.13484999909997">
        <ele>666.29999999999995</ele>
        <time>2003-04-16T14:11:11Z</time>
      </trkpt>
      <trkpt lat="30.8480120357126" lon="-4.134725024923682">
        <ele>666.39999999999998</ele>
        <time>2003-04-16T14:11:14Z</time>
      </trkpt>
      <trkpt lat="30.848044976592064" lon="-4.134607007727027">
        <ele>666.39999999999998</ele>
        <time>2003-04-16T14:11:18Z</time>
      </trkpt>
      <trkpt lat="30.848071966320276" lon="-4.134471975266933">
        <ele>665.79999999999995</ele>
        <time>2003-04-16T14:11:22Z</time>
      </trkpt>
      <trkpt lat="30.848059980198741" lon="-4.134327974170446">
        <ele>666.39999999999998</ele>
        <time>2003-04-16T14:11:25Z</time>
      </trkpt>
      <trkpt lat="30.848008012399077" lon="-4.134187996387482">
        <ele>666.70000000000005</ele>
        <time>2003-04-16T14:11:28Z</time>
      </trkpt>
      <trkpt lat="30.847935006022453" lon="-4.134080037474632">
        <ele>665.79999999999995</ele>
        <time>2003-04-16T14:11:30Z</time>
      </trkpt>
      <trkpt lat="30.847850013524294" lon="-4.13403301499784">
        <ele>666.10000000000002</ele>
        <time>2003-04-16T14:11:33Z</time>
      </trkpt>
      <trkpt lat="30.847753034904599" lon="-4.134026980027556">
        <ele>666.5</ele>
        <time>2003-04-16T14:11:34Z</time>
      </trkpt>
      <trkpt lat="30.847614984959364" lon="-4.134003007784486">
        <ele>666.70000000000005</ele>
        <time>2003-04-16T14:11:37Z</time>
      </trkpt>
      <trkpt lat="30.847535021603107" lon="-4.133894965052605">
        <ele>666.39999999999998</ele>
        <time>2003-04-16T14:11:41Z</time>
      </trkpt>
      <trkpt lat="30.847447011619806" lon="-4.133718023076654">
        <ele>667.29999999999995</ele>
        <time>2003-04-16T14:11:45Z</time>
      </trkpt>
      <trkpt lat="30.847432008013129" lon="-4.133572010323405">
        <ele>667.29999999999995</ele>
        <time>2003-04-16T14:11:47Z</time>
      </trkpt>
      <trkpt lat="30.847399989143014" lon="-4.133433038368821">
        <ele>667.70000000000005</ele>
        <time>2003-04-16T14:11:49Z</time>
      </trkpt>
      <trkpt lat="30.847384985536337" lon="-4.13330202922225">
        <ele>667.29999999999995</ele>
        <time>2003-04-16T14:11:51Z</time>
      </trkpt>
      <trkpt lat="30.847393032163382" lon="-4.132953006774187">
        <ele>667.10000000000002</ele>
        <time>2003-04-16T14:11:56Z</time>
      </trkpt>
      <trkpt lat="30.847437037155032" lon="-4.132815040647984">
        <ele>666.89999999999998</ele>
        <time>2003-04-16T14:11:57Z</time>
      </trkpt>
      <trkpt lat="30.847611967474222" lon="-4.132426958531141">
        <ele>666.39999999999998</ele>
        <time>2003-04-16T14:12:04Z</time>
      </trkpt>
      <trkpt lat="30.847672987729311" lon="-4.132346995174885">
        <ele>666.29999999999995</ele>
        <time>2003-04-16T14:12:05Z</time>
      </trkpt>
      <trkpt lat="30.847754962742329" lon="-4.132262002676725">
        <ele>666.20000000000005</ele>
        <time>2003-04-16T14:12:09Z</time>
      </trkpt>
      <trkpt lat="30.847825035452843" lon="-4.132182961329818">
        <ele>666.60000000000002</ele>
        <time>2003-04-16T14:12:12Z</time>
      </trkpt>
      <trkpt lat="30.847967024892569" lon="-4.131987998262048">
        <ele>666.5</ele>
        <time>2003-04-16T14:12:18Z</time>
      </trkpt>
      <trkpt lat="30.848072972148657" lon="-4.131837962195277">
        <ele>666.20000000000005</ele>
        <time>2003-04-16T14:12:20Z</time>
      </trkpt>
      <trkpt lat="30.8481449726969" lon="-4.131722040474415">
        <ele>666.60000000000002</ele>
        <time>2003-04-16T14:12:23Z</time>
      </trkpt>
      <trkpt lat="30.848297020420432" lon="-4.131417023018003">
        <ele>666.5</ele>
        <time>2003-04-16T14:12:27Z</time>
      </trkpt>
      <trkpt lat="30.848319986835122" lon="-4.131275033578277">
        <ele>666.79999999999995</ele>
        <time>2003-04-16T14:12:30Z</time>
      </trkpt>
      <trkpt lat="30.848321998491883" lon="-4.131136983633041">
        <ele>666.79999999999995</ele>
        <time>2003-04-16T14:12:31Z</time>
      </trkpt>
      <trkpt lat="30.848301965743303" lon="-4.130998011678457">
        <ele>666.79999999999995</ele>
        <time>2003-04-16T14:12:34Z</time>
      </trkpt>
      <trkpt lat="30.848304983228445" lon="-4.130855016410351">
        <ele>667.10000000000002</ele>
        <time>2003-04-16T14:12:35Z</time>
      </trkpt>
      <trkpt lat="30.848332978785038" lon="-4.13074697367847">
        <ele>666.60000000000002</ele>
        <time>2003-04-16T14:12:38Z</time>
      </trkpt>
      <trkpt lat="30.848397016525269" lon="-4.130570031702519">
        <ele>667.10000000000002</ele>
        <time>2003-04-16T14:12:41Z</time>
      </trkpt>
      <trkpt lat="30.848457030951977" lon="-4.130347995087504">
        <ele>666.79999999999995</ele>
        <time>2003-04-16T14:12:43Z</time>
      </trkpt>
      <trkpt lat="30.848453007638454" lon="-4.130152026191354">
        <ele>666.70000000000005</ele>
        <time>2003-04-16T14:12:46Z</time>
      </trkpt>
      <trkpt lat="30.848425012081861" lon="-4.130026968196034">
        <ele>666.5</ele>
        <time>2003-04-16T14:12:50Z</time>
      </trkpt>
      <trkpt lat="30.848415037617087" lon="-4.129882967099547">
        <ele>666.70000000000005</ele>
        <time>2003-04-16T14:12:51Z</time>
      </trkpt>
      <trkpt lat="30.848368015140295" lon="-4.129507038742304">
        <ele>666.70000000000005</ele>
        <time>2003-04-16T14:12:55Z</time>
      </trkpt>
      <trkpt lat="30.84835996851325" lon="-4.129366977140307">
        <ele>666.79999999999995</ele>
        <time>2003-04-16T14:12:58Z</time>
      </trkpt>
      <trkpt lat="30.848406990990043" lon="-4.129245020449162">
        <ele>666.5</ele>
        <time>2003-04-16T14:13:01Z</time>
      </trkpt>
      <trkpt lat="30.848468011245131" lon="-4.129158016294241">
        <ele>666.10000000000002</ele>
        <time>2003-04-16T14:13:02Z</time>
      </trkpt>
      <trkpt lat="30.84857203066349" lon="-4.129030024632812">
        <ele>666.79999999999995</ele>
        <time>2003-04-16T14:13:06Z</time>
      </trkpt>
      <trkpt lat="30.848604971542954" lon="-4.128900021314621">
        <ele>667.10000000000002</ele>
        <time>2003-04-16T14:13:06Z</time>
      </trkpt>
      <trkpt lat="30.848643025383353" lon="-4.128767000511289">
        <ele>667.20000000000005</ele>
        <time>2003-04-16T14:13:09Z</time>
      </trkpt>
      <trkpt lat="30.848683007061481" lon="-4.128630040213466">
        <ele>666.79999999999995</ele>
        <time>2003-04-16T14:13:12Z</time>
      </trkpt>
      <trkpt lat="30.848702033981681" lon="-4.128480004146695">
        <ele>666.89999999999998</ele>
        <time>2003-04-16T14:13:13Z</time>
      </trkpt>
      <trkpt lat="30.848725000396371" lon="-4.128052024170756">
        <ele>666.70000000000005</ele>
        <time>2003-04-16T14:13:20Z</time>
      </trkpt>
      <trkpt lat="30.848745033144951" lon="-4.127946998924017">
        <ele>666.60000000000002</ele>
        <time>2003-04-16T14:13:21Z</time>
      </trkpt>
      <trkpt lat="30.848773028701544" lon="-4.127829987555742">
        <ele>666.39999999999998</ele>
        <time>2003-04-16T14:13:25Z</time>
      </trkpt>
      <trkpt lat="30.848828013986349" lon="-4.127660002559423">
        <ele>666.5</ele>
        <time>2003-04-16T14:13:30Z</time>
      </trkpt>
      <trkpt lat="30.84885198622942" lon="-4.127542991191149">
        <ele>666.5</ele>
        <time>2003-04-16T14:13:33Z</time>
      </trkpt>
      <trkpt lat="30.848903032019734" lon="-4.127414999529719">
        <ele>666.5</ele>
        <time>2003-04-16T14:13:37Z</time>
      </trkpt>
      <trkpt lat="30.84898198954761" lon="-4.127245014533401">
        <ele>666.20000000000005</ele>
        <time>2003-04-16T14:13:40Z</time>
      </trkpt>
      <trkpt lat="30.849233027547598" lon="-4.126762971282005">
        <ele>666.20000000000005</ele>
        <time>2003-04-16T14:13:48Z</time>
      </trkpt>
      <trkpt lat="30.849311985075474" lon="-4.126622993499041">
        <ele>666.5</ele>
        <time>2003-04-16T14:13:49Z</time>
      </trkpt>
      <trkpt lat="30.849494962021708" lon="-4.126302972435951">
        <ele>666.39999999999998</ele>
        <time>2003-04-16T14:13:55Z</time>
      </trkpt>
      <trkpt lat="30.849597975611687" lon="-4.126065010204911">
        <ele>666.5</ele>
        <time>2003-04-16T14:13:59Z</time>
      </trkpt>
      <trkpt lat="30.849642986431718" lon="-4.125941963866353">
        <ele>666.60000000000002</ele>
        <time>2003-04-16T14:14:00Z</time>
      </trkpt>
      <trkpt lat="30.849650027230382" lon="-4.125802991911769">
        <ele>666.89999999999998</ele>
        <time>2003-04-16T14:14:03Z</time>
      </trkpt>
      <trkpt lat="30.84966997615993" lon="-4.125690003857017">
        <ele>666.79999999999995</ele>
        <time>2003-04-16T14:14:04Z</time>
      </trkpt>
      <trkpt lat="30.8497129753232" lon="-4.125578021630645">
        <ele>666.79999999999995</ele>
        <time>2003-04-16T14:14:07Z</time>
      </trkpt>
      <trkpt lat="30.849772989749908" lon="-4.125388003885746">
        <ele>667.39999999999998</ele>
        <time>2003-04-16T14:14:10Z</time>
      </trkpt>
      <trkpt lat="30.849837027490139" lon="-4.125242996960878">
        <ele>667.29999999999995</ele>
        <time>2003-04-16T14:14:11Z</time>
      </trkpt>
      <trkpt lat="30.849902993068099" lon="-4.125112993642688">
        <ele>666.79999999999995</ele>
        <time>2003-04-16T14:14:14Z</time>
      </trkpt>
      <trkpt lat="30.85005302913487" lon="-4.124918030574918">
        <ele>666.79999999999995</ele>
        <time>2003-04-16T14:14:18Z</time>
      </trkpt>
      <trkpt lat="30.850138021633029" lon="-4.124854998663068">
        <ele>667</ele>
        <time>2003-04-16T14:14:19Z</time>
      </trkpt>
      <trkpt lat="30.850214967504144" lon="-4.124747961759567">
        <ele>666.5</ele>
        <time>2003-04-16T14:14:22Z</time>
      </trkpt>
      <trkpt lat="30.850477991625667" lon="-4.124325010925531">
        <ele>667.20000000000005</ele>
        <time>2003-04-16T14:14:29Z</time>
      </trkpt>
      <trkpt lat="30.850574970245361" lon="-4.124157037585974">
        <ele>667.20000000000005</ele>
        <time>2003-04-16T14:14:31Z</time>
      </trkpt>
      <trkpt lat="30.850674966350198" lon="-4.124074978753924">
        <ele>667</ele>
        <time>2003-04-16T14:14:34Z</time>
      </trkpt>
      <trkpt lat="30.850745039060712" lon="-4.123976994305849">
        <ele>667.39999999999998</ele>
        <time>2003-04-16T14:14:35Z</time>
      </trkpt>
      <trkpt lat="30.850804969668388" lon="-4.1238500084728">
        <ele>667.39999999999998</ele>
        <time>2003-04-16T14:14:38Z</time>
      </trkpt>
      <trkpt lat="30.851036980748177" lon="-4.123362014070153">
        <ele>667.29999999999995</ele>
        <time>2003-04-16T14:14:46Z</time>
      </trkpt>
      <trkpt lat="30.851113004609942" lon="-4.123254977166653">
        <ele>667.29999999999995</ele>
        <time>2003-04-16T14:14:47Z</time>
      </trkpt>
      <trkpt lat="30.851152986288071" lon="-4.123122040182352">
        <ele>667.39999999999998</ele>
        <time>2003-04-16T14:14:50Z</time>
      </trkpt>
      <trkpt lat="30.851217024028301" lon="-4.123007040470839">
        <ele>667.20000000000005</ele>
        <time>2003-04-16T14:14:51Z</time>
      </trkpt>
      <trkpt lat="30.851375022903085" lon="-4.122703028842807">
        <ele>667.29999999999995</ele>
        <time>2003-04-16T14:14:57Z</time>
      </trkpt>
      <trkpt lat="30.851445011794567" lon="-4.122606972232461">
        <ele>667.20000000000005</ele>
        <time>2003-04-16T14:14:58Z</time>
      </trkpt>
      <trkpt lat="30.851512989029288" lon="-4.122518040239811">
        <ele>667.10000000000002</ele>
        <time>2003-04-16T14:15:01Z</time>
      </trkpt>
      <trkpt lat="30.851551964879036" lon="-4.122392982244492">
        <ele>668</ele>
        <time>2003-04-16T14:15:04Z</time>
      </trkpt>
      <trkpt lat="30.85166503675282" lon="-4.122167006134987">
        <ele>667.79999999999995</ele>
        <time>2003-04-16T14:15:09Z</time>
      </trkpt>
      <trkpt lat="30.851963013410568" lon="-4.121665013954043">
        <ele>668.10000000000002</ele>
        <time>2003-04-16T14:15:18Z</time>
      </trkpt>
      <trkpt lat="30.852125035598874" lon="-4.121375000104308">
        <ele>668.20000000000005</ele>
        <time>2003-04-16T14:15:24Z</time>
      </trkpt>
      <trkpt lat="30.852229977026582" lon="-4.121208032593131">
        <ele>667.89999999999998</ele>
        <time>2003-04-16T14:15:27Z</time>
      </trkpt>
      <trkpt lat="30.852302983403206" lon="-4.12109998986125">
        <ele>667.89999999999998</ele>
        <time>2003-04-16T14:15:28Z</time>
      </trkpt>
      <trkpt lat="30.852389987558126" lon="-4.120979961007834">
        <ele>667.79999999999995</ele>
        <time>2003-04-16T14:15:32Z</time>
      </trkpt>
      <trkpt lat="30.852534994482994" lon="-4.120811987668276">
        <ele>667.89999999999998</ele>
        <time>2003-04-16T14:15:36Z</time>
      </trkpt>
      <trkpt lat="30.852655023336411" lon="-4.120552986860275">
        <ele>668.29999999999995</ele>
        <time>2003-04-16T14:15:40Z</time>
      </trkpt>
      <trkpt lat="30.852743033319712" lon="-4.1203030385077">
        <ele>668.39999999999998</ele>
        <time>2003-04-16T14:15:44Z</time>
      </trkpt>
      <trkpt lat="30.852821990847588" lon="-4.120191978290677">
        <ele>668.29999999999995</ele>
        <time>2003-04-16T14:15:45Z</time>
      </trkpt>
      <trkpt lat="30.85304201580584" lon="-4.119825018569827">
        <ele>668.20000000000005</ele>
        <time>2003-04-16T14:15:52Z</time>
      </trkpt>
      <trkpt lat="30.85314704105258" lon="-4.119556965306401">
        <ele>668.29999999999995</ele>
        <time>2003-04-16T14:15:55Z</time>
      </trkpt>
      <trkpt lat="30.853182999417186" lon="-4.119427967816591">
        <ele>668.60000000000002</ele>
        <time>2003-04-16T14:15:58Z</time>
      </trkpt>
      <trkpt lat="30.85323697887361" lon="-4.119317997246981">
        <ele>668.39999999999998</ele>
        <time>2003-04-16T14:15:59Z</time>
      </trkpt>
      <trkpt lat="30.853330017998815" lon="-4.119082968682051">
        <ele>668.39999999999998</ele>
        <time>2003-04-16T14:16:03Z</time>
      </trkpt>
      <trkpt lat="30.853377040475607" lon="-4.118792032822967">
        <ele>668.39999999999998</ele>
        <time>2003-04-16T14:16:07Z</time>
      </trkpt>
      <trkpt lat="30.85342800244689" lon="-4.118434963747859">
        <ele>668.10000000000002</ele>
        <time>2003-04-16T14:16:14Z</time>
      </trkpt>
      <trkpt lat="30.85342800244689" lon="-4.118300015106797">
        <ele>667.79999999999995</ele>
        <time>2003-04-16T14:16:18Z</time>
      </trkpt>
      <trkpt lat="30.853443006053567" lon="-4.118140004575253">
        <ele>667.89999999999998</ele>
        <time>2003-04-16T14:16:22Z</time>
      </trkpt>
      <trkpt lat="30.853467984125018" lon="-4.1180270165205">
        <ele>668.20000000000005</ele>
        <time>2003-04-16T14:16:25Z</time>
      </trkpt>
      <trkpt lat="30.853460021317005" lon="-4.117852002382278">
        <ele>668.10000000000002</ele>
        <time>2003-04-16T14:16:29Z</time>
      </trkpt>
      <trkpt lat="30.8535379730165" lon="-4.117637006565929">
        <ele>668.10000000000002</ele>
        <time>2003-04-16T14:16:33Z</time>
      </trkpt>
      <trkpt lat="30.85364299826324" lon="-4.117416981607676">
        <ele>667.79999999999995</ele>
        <time>2003-04-16T14:16:37Z</time>
      </trkpt>
      <trkpt lat="30.853675017133355" lon="-4.117263006046414">
        <ele>667.79999999999995</ele>
        <time>2003-04-16T14:16:39Z</time>
      </trkpt>
      <trkpt lat="30.85364299826324" lon="-4.117137026041746">
        <ele>668.29999999999995</ele>
        <time>2003-04-16T14:16:42Z</time>
      </trkpt>
      <trkpt lat="30.853621959686279" lon="-4.116935022175312">
        <ele>668</ele>
        <time>2003-04-16T14:16:45Z</time>
      </trkpt>
      <trkpt lat="30.853637969121337" lon="-4.116688007488847">
        <ele>667.89999999999998</ele>
        <time>2003-04-16T14:16:49Z</time>
      </trkpt>
      <trkpt lat="30.853632017970085" lon="-4.116575019434094">
        <ele>667.5</ele>
        <time>2003-04-16T14:16:50Z</time>
      </trkpt>
      <trkpt lat="30.853607039898634" lon="-4.116417020559311">
        <ele>667.70000000000005</ele>
        <time>2003-04-16T14:16:53Z</time>
      </trkpt>
      <trkpt lat="30.853575021028519" lon="-4.116167994216085">
        <ele>667.60000000000002</ele>
        <time>2003-04-16T14:16:56Z</time>
      </trkpt>
      <trkpt lat="30.853594969958067" lon="-4.115417981520295">
        <ele>667</ele>
        <time>2003-04-16T14:17:05Z</time>
      </trkpt>
      <trkpt lat="30.853611985221505" lon="-4.115216983482242">
        <ele>667</ele>
        <time>2003-04-16T14:17:09Z</time>
      </trkpt>
      <trkpt lat="30.853597987443209" lon="-4.115097960457206">
        <ele>667.20000000000005</ele>
        <time>2003-04-16T14:17:11Z</time>
      </trkpt>
      <trkpt lat="30.853627994656563" lon="-4.114978015422821">
        <ele>666.89999999999998</ele>
        <time>2003-04-16T14:17:13Z</time>
      </trkpt>
      <trkpt lat="30.853784987702966" lon="-4.114536959677935">
        <ele>666.70000000000005</ele>
        <time>2003-04-16T14:17:20Z</time>
      </trkpt>
      <trkpt lat="30.853845002129674" lon="-4.114351971074939">
        <ele>667.10000000000002</ele>
        <time>2003-04-16T14:17:23Z</time>
      </trkpt>
      <trkpt lat="30.853935023769736" lon="-4.114188021048904">
        <ele>667.20000000000005</ele>
        <time>2003-04-16T14:17:25Z</time>
      </trkpt>
      <trkpt lat="30.85413996130228" lon="-4.11381796002388">
        <ele>667.70000000000005</ele>
        <time>2003-04-16T14:17:32Z</time>
      </trkpt>
      <trkpt lat="30.854280022904277" lon="-4.113583015277982">
        <ele>667.79999999999995</ele>
        <time>2003-04-16T14:17:36Z</time>
      </trkpt>
      <trkpt lat="30.854357974603772" lon="-4.113491987809539">
        <ele>667.79999999999995</ele>
        <time>2003-04-16T14:17:39Z</time>
      </trkpt>
      <trkpt lat="30.854422012344003" lon="-4.113370031118393">
        <ele>668.10000000000002</ele>
        <time>2003-04-16T14:17:40Z</time>
      </trkpt>
      <trkpt lat="30.854537012055516" lon="-4.113061996176839">
        <ele>668.20000000000005</ele>
        <time>2003-04-16T14:17:44Z</time>
      </trkpt>
      <trkpt lat="30.85463197901845" lon="-4.112833002582192">
        <ele>668.20000000000005</ele>
        <time>2003-04-16T14:17:47Z</time>
      </trkpt>
      <trkpt lat="30.854801964014769" lon="-4.112379960715771">
        <ele>668.20000000000005</ele>
        <time>2003-04-16T14:17:54Z</time>
      </trkpt>
      <trkpt lat="30.854879999533296" lon="-4.112172005698085">
        <ele>668.20000000000005</ele>
        <time>2003-04-16T14:17:56Z</time>
      </trkpt>
      <trkpt lat="30.854964992031455" lon="-4.112047031521797">
        <ele>668.29999999999995</ele>
        <time>2003-04-16T14:17:59Z</time>
      </trkpt>
      <trkpt lat="30.855057025328279" lon="-4.111960027366877">
        <ele>668.20000000000005</ele>
        <time>2003-04-16T14:18:00Z</time>
      </trkpt>
      <trkpt lat="30.855127014219761" lon="-4.111847961321473">
        <ele>668.39999999999998</ele>
        <time>2003-04-16T14:18:03Z</time>
      </trkpt>
      <trkpt lat="30.855192979797721" lon="-4.111673031002283">
        <ele>668.60000000000002</ele>
        <time>2003-04-16T14:18:06Z</time>
      </trkpt>
      <trkpt lat="30.85525500588119" lon="-4.11153799854219">
        <ele>668.39999999999998</ele>
        <time>2003-04-16T14:18:07Z</time>
      </trkpt>
      <trkpt lat="30.855472013354301" lon="-4.111198028549552">
        <ele>668.39999999999998</ele>
        <time>2003-04-16T14:18:13Z</time>
      </trkpt>
      <trkpt lat="30.855547031387687" lon="-4.111097026616335">
        <ele>668.5</ele>
        <time>2003-04-16T14:18:14Z</time>
      </trkpt>
      <trkpt lat="30.855678040534258" lon="-4.110942967236042">
        <ele>669.39999999999998</ele>
        <time>2003-04-16T14:18:18Z</time>
      </trkpt>
      <trkpt lat="30.855818018317223" lon="-4.110772982239723">
        <ele>668.60000000000002</ele>
        <time>2003-04-16T14:18:21Z</time>
      </trkpt>
      <trkpt lat="30.855935029685497" lon="-4.110697964206338">
        <ele>668.70000000000005</ele>
        <time>2003-04-16T14:18:22Z</time>
      </trkpt>
      <trkpt lat="30.856142984703183" lon="-4.110552035272121">
        <ele>668.89999999999998</ele>
        <time>2003-04-16T14:18:26Z</time>
      </trkpt>
      <trkpt lat="30.856227977201343" lon="-4.110462013632059">
        <ele>668.89999999999998</ele>
        <time>2003-04-16T14:18:29Z</time>
      </trkpt>
      <trkpt lat="30.856380024924874" lon="-4.11031499505043">
        <ele>669.20000000000005</ele>
        <time>2003-04-16T14:18:32Z</time>
      </trkpt>
      <trkpt lat="30.85650198161602" lon="-4.110135035589337">
        <ele>669.29999999999995</ele>
        <time>2003-04-16T14:18:34Z</time>
      </trkpt>
      <trkpt lat="30.856547998264432" lon="-4.110009977594018">
        <ele>669.5</ele>
        <time>2003-04-16T14:18:37Z</time>
      </trkpt>
      <trkpt lat="30.856571970507503" lon="-4.109869999811053">
        <ele>669.89999999999998</ele>
        <time>2003-04-16T14:18:38Z</time>
      </trkpt>
      <trkpt lat="30.856567025184631" lon="-4.109739996492863">
        <ele>669.70000000000005</ele>
        <time>2003-04-16T14:18:41Z</time>
      </trkpt>
      <trkpt lat="30.856517991051078" lon="-4.109502034261823">
        <ele>669.79999999999995</ele>
        <time>2003-04-16T14:18:45Z</time>
      </trkpt>
      <trkpt lat="30.856535006314516" lon="-4.109357027336955">
        <ele>669.79999999999995</ele>
        <time>2003-04-16T14:18:48Z</time>
      </trkpt>
      <trkpt lat="30.85658797994256" lon="-4.109257031232119">
        <ele>669.10000000000002</ele>
        <time>2003-04-16T14:18:49Z</time>
      </trkpt>
      <trkpt lat="30.856647994369268" lon="-4.109174972400069">
        <ele>669.10000000000002</ele>
        <time>2003-04-16T14:18:52Z</time>
      </trkpt>
      <trkpt lat="30.856747990474105" lon="-4.109123004600406">
        <ele>669.5</ele>
        <time>2003-04-16T14:18:53Z</time>
      </trkpt>
      <trkpt lat="30.856813034042716" lon="-4.109027031809092">
        <ele>669.39999999999998</ele>
        <time>2003-04-16T14:18:56Z</time>
      </trkpt>
      <trkpt lat="30.856827031821012" lon="-4.10891798324883">
        <ele>669.5</ele>
        <time>2003-04-16T14:18:57Z</time>
      </trkpt>
      <trkpt lat="30.85688796825707" lon="-4.108793009072542">
        <ele>670.10000000000002</ele>
        <time>2003-04-16T14:19:01Z</time>
      </trkpt>
      <trkpt lat="30.857013026252389" lon="-4.108684966340661">
        <ele>669.89999999999998</ele>
        <time>2003-04-16T14:19:04Z</time>
      </trkpt>
      <trkpt lat="30.857170019298792" lon="-4.108640039339662">
        <ele>670.10000000000002</ele>
        <time>2003-04-16T14:19:07Z</time>
      </trkpt>
      <trkpt lat="30.857336986809969" lon="-4.10838196054101">
        <ele>670.20000000000005</ele>
        <time>2003-04-16T14:19:12Z</time>
      </trkpt>
      <trkpt lat="30.857400018721819" lon="-4.108297973871231">
        <ele>670.70000000000005</ele>
        <time>2003-04-16T14:19:15Z</time>
      </trkpt>
      <trkpt lat="30.85748702287674" lon="-4.108237959444523">
        <ele>670.60000000000002</ele>
        <time>2003-04-16T14:19:16Z</time>
      </trkpt>
      <trkpt lat="30.857602022588253" lon="-4.10820703022182">
        <ele>670.70000000000005</ele>
        <time>2003-04-16T14:19:19Z</time>
      </trkpt>
      <trkpt lat="30.85785498842597" lon="-4.108192026615143">
        <ele>670.5</ele>
        <time>2003-04-16T14:19:24Z</time>
      </trkpt>
      <trkpt lat="30.857951967045665" lon="-4.108223039656878">
        <ele>670.5</ele>
        <time>2003-04-16T14:19:27Z</time>
      </trkpt>
      <trkpt lat="30.858151959255338" lon="-4.108122037723661">
        <ele>671</ele>
        <time>2003-04-16T14:19:31Z</time>
      </trkpt>
      <trkpt lat="30.858209962025285" lon="-4.107997985556722">
        <ele>671.29999999999995</ele>
        <time>2003-04-16T14:19:34Z</time>
      </trkpt>
      <trkpt lat="30.858437027782202" lon="-4.107527006417513">
        <ele>671.5</ele>
        <time>2003-04-16T14:19:40Z</time>
      </trkpt>
      <trkpt lat="30.858478015288711" lon="-4.107400020584464">
        <ele>671.29999999999995</ele>
        <time>2003-04-16T14:19:43Z</time>
      </trkpt>
      <trkpt lat="30.858557978644967" lon="-4.107185024768114">
        <ele>671.10000000000002</ele>
        <time>2003-04-16T14:19:46Z</time>
      </trkpt>
      <trkpt lat="30.858695022761822" lon="-4.106857962906361">
        <ele>671</ele>
        <time>2003-04-16T14:19:51Z</time>
      </trkpt>
      <trkpt lat="30.858753025531769" lon="-4.106732988730073">
        <ele>671</ele>
        <time>2003-04-16T14:19:53Z</time>
      </trkpt>
      <trkpt lat="30.858917981386185" lon="-4.106393018737435">
        <ele>670.79999999999995</ele>
        <time>2003-04-16T14:19:58Z</time>
      </trkpt>
      <trkpt lat="30.858922004699707" lon="-4.106262009590864">
        <ele>670.60000000000002</ele>
        <time>2003-04-16T14:20:01Z</time>
      </trkpt>
      <trkpt lat="30.858959974721074" lon="-4.106139969080687">
        <ele>671.20000000000005</ele>
        <time>2003-04-16T14:20:02Z</time>
      </trkpt>
      <trkpt lat="30.859027029946446" lon="-4.106005020439625">
        <ele>670.60000000000002</ele>
        <time>2003-04-16T14:20:05Z</time>
      </trkpt>
      <trkpt lat="30.859312014654279" lon="-4.105634959414601">
        <ele>670.60000000000002</ele>
        <time>2003-04-16T14:20:10Z</time>
      </trkpt>
      <trkpt lat="30.859406981617212" lon="-4.105511996895075">
        <ele>670.5</ele>
        <time>2003-04-16T14:20:13Z</time>
      </trkpt>
      <trkpt lat="30.859502032399178" lon="-4.105379981920123">
        <ele>670.60000000000002</ele>
        <time>2003-04-16T14:20:14Z</time>
      </trkpt>
      <trkpt lat="30.859800009056926" lon="-4.104992989450693">
        <ele>670.89999999999998</ele>
        <time>2003-04-16T14:20:21Z</time>
      </trkpt>
      <trkpt lat="30.859891958534718" lon="-4.104868015274406">
        <ele>670.89999999999998</ele>
        <time>2003-04-16T14:20:22Z</time>
      </trkpt>
      <trkpt lat="30.860092034563422" lon="-4.104614965617657">
        <ele>671.20000000000005</ele>
        <time>2003-04-16T14:20:28Z</time>
      </trkpt>
      <trkpt lat="30.860235029831529" lon="-4.104483034461737">
        <ele>671.79999999999995</ele>
        <time>2003-04-16T14:20:32Z</time>
      </trkpt>
      <trkpt lat="30.860327985137701" lon="-4.104380020871759">
        <ele>671.89999999999998</ele>
        <time>2003-04-16T14:20:33Z</time>
      </trkpt>
      <trkpt lat="30.860393028706312" lon="-4.104257980361581">
        <ele>672.10000000000002</ele>
        <time>2003-04-16T14:20:36Z</time>
      </trkpt>
      <trkpt lat="30.860487995669246" lon="-4.104069974273443">
        <ele>672</ele>
        <time>2003-04-16T14:20:38Z</time>
      </trkpt>
      <trkpt lat="30.860559996217489" lon="-4.103969978168607">
        <ele>671.70000000000005</ele>
        <time>2003-04-16T14:20:41Z</time>
      </trkpt>
      <trkpt lat="30.860641971230507" lon="-4.10391298122704">
        <ele>671.60000000000002</ele>
        <time>2003-04-16T14:20:42Z</time>
      </trkpt>
      <trkpt lat="30.860744984820485" lon="-4.103809967637062">
        <ele>671.70000000000005</ele>
        <time>2003-04-16T14:20:45Z</time>
      </trkpt>
      <trkpt lat="30.860855039209127" lon="-4.103669989854097">
        <ele>671.89999999999998</ele>
        <time>2003-04-16T14:20:49Z</time>
      </trkpt>
      <trkpt lat="30.86109803058207" lon="-4.103411994874477">
        <ele>671.89999999999998</ele>
        <time>2003-04-16T14:20:53Z</time>
      </trkpt>
      <trkpt lat="30.861285030841827" lon="-4.103203034028411">
        <ele>672.10000000000002</ele>
        <time>2003-04-16T14:20:57Z</time>
      </trkpt>
      <trkpt lat="30.861728014424443" lon="-4.102882007136941">
        <ele>672.20000000000005</ele>
        <time>2003-04-16T14:21:05Z</time>
      </trkpt>
      <trkpt lat="30.862075025215745" lon="-4.102721996605396">
        <ele>672.5</ele>
        <time>2003-04-16T14:21:12Z</time>
      </trkpt>
      <trkpt lat="30.862202011048794" lon="-4.102698024362326">
        <ele>672.60000000000002</ele>
        <time>2003-04-16T14:21:14Z</time>
      </trkpt>
      <trkpt lat="30.862320028245449" lon="-4.10268796607852">
        <ele>672.89999999999998</ele>
        <time>2003-04-16T14:21:16Z</time>
      </trkpt>
      <trkpt lat="30.862435027956963" lon="-4.102721996605396">
        <ele>672.89999999999998</ele>
        <time>2003-04-16T14:21:18Z</time>
      </trkpt>
      <trkpt lat="30.862548016011715" lon="-4.102744963020086">
        <ele>673</ele>
        <time>2003-04-16T14:21:19Z</time>
      </trkpt>
      <trkpt lat="30.862677013501525" lon="-4.10272803157568">
        <ele>673.10000000000002</ele>
        <time>2003-04-16T14:21:22Z</time>
      </trkpt>
      <trkpt lat="30.862805005162954" lon="-4.102702969685197">
        <ele>673</ele>
        <time>2003-04-16T14:21:23Z</time>
      </trkpt>
      <trkpt lat="30.862929979339242" lon="-4.102723002433777">
        <ele>673.10000000000002</ele>
        <time>2003-04-16T14:21:26Z</time>
      </trkpt>
      <trkpt lat="30.863070040941238" lon="-4.102700036019087">
        <ele>673.10000000000002</ele>
        <time>2003-04-16T14:21:27Z</time>
      </trkpt>
      <trkpt lat="30.863338010385633" lon="-4.102627029642463">
        <ele>673.20000000000005</ele>
        <time>2003-04-16T14:21:31Z</time>
      </trkpt>
      <trkpt lat="30.863432977348566" lon="-4.102638009935617">
        <ele>672.89999999999998</ele>
        <time>2003-04-16T14:21:34Z</time>
      </trkpt>
      <trkpt lat="30.863522998988628" lon="-4.102598028257489">
        <ele>672.89999999999998</ele>
        <time>2003-04-16T14:21:35Z</time>
      </trkpt>
      <trkpt lat="30.863647973164916" lon="-4.102552011609078">
        <ele>672.79999999999995</ele>
        <time>2003-04-16T14:21:39Z</time>
      </trkpt>
      <trkpt lat="30.863772025331855" lon="-4.10251697525382">
        <ele>673.10000000000002</ele>
        <time>2003-04-16T14:21:42Z</time>
      </trkpt>
      <trkpt lat="30.863881995901465" lon="-4.102455032989383">
        <ele>673.20000000000005</ele>
        <time>2003-04-16T14:21:43Z</time>
      </trkpt>
      <trkpt lat="30.864032031968236" lon="-4.10236501134932">
        <ele>673.29999999999995</ele>
        <time>2003-04-16T14:21:46Z</time>
      </trkpt>
      <trkpt lat="30.864200005307794" lon="-4.102240037173033">
        <ele>673.10000000000002</ele>
        <time>2003-04-16T14:21:50Z</time>
      </trkpt>
      <trkpt lat="30.864281980320811" lon="-4.102165019139648">
        <ele>673.10000000000002</ele>
        <time>2003-04-16T14:21:53Z</time>
      </trkpt>
      <trkpt lat="30.864315005019307" lon="-4.10206301137805">
        <ele>673</ele>
        <time>2003-04-16T14:21:54Z</time>
      </trkpt>
      <trkpt lat="30.864377031102777" lon="-4.101962009444833">
        <ele>673.29999999999995</ele>
        <time>2003-04-16T14:21:57Z</time>
      </trkpt>
      <trkpt lat="30.864473003894091" lon="-4.101852960884571">
        <ele>672.89999999999998</ele>
        <time>2003-04-16T14:21:58Z</time>
      </trkpt>
      <trkpt lat="30.864563025534153" lon="-4.10176201723516">
        <ele>672.60000000000002</ele>
        <time>2003-04-16T14:22:01Z</time>
      </trkpt>
      <trkpt lat="30.86479302495718" lon="-4.101496981456876">
        <ele>672.70000000000005</ele>
        <time>2003-04-16T14:22:06Z</time>
      </trkpt>
      <trkpt lat="30.864897966384888" lon="-4.101409977301955">
        <ele>672.60000000000002</ele>
        <time>2003-04-16T14:22:08Z</time>
      </trkpt>
      <trkpt lat="30.865063006058335" lon="-4.101292965933681">
        <ele>672.60000000000002</ele>
        <time>2003-04-16T14:22:10Z</time>
      </trkpt>
      <trkpt lat="30.865163002163172" lon="-4.101202022284269">
        <ele>672.60000000000002</ele>
        <time>2003-04-16T14:22:13Z</time>
      </trkpt>
      <trkpt lat="30.865299962460995" lon="-4.101081993430853">
        <ele>672.79999999999995</ele>
        <time>2003-04-16T14:22:16Z</time>
      </trkpt>
      <trkpt lat="30.865446981042624" lon="-4.100932963192463">
        <ele>673.10000000000002</ele>
        <time>2003-04-16T14:22:20Z</time>
      </trkpt>
      <trkpt lat="30.865559969097376" lon="-4.100892981514335">
        <ele>673.20000000000005</ele>
        <time>2003-04-16T14:22:21Z</time>
      </trkpt>
      <trkpt lat="30.865670023486018" lon="-4.100852999836206">
        <ele>673.29999999999995</ele>
        <time>2003-04-16T14:22:24Z</time>
      </trkpt>
      <trkpt lat="30.865985015407205" lon="-4.100802959874272">
        <ele>673.20000000000005</ele>
        <time>2003-04-16T14:22:29Z</time>
      </trkpt>
      <trkpt lat="30.866100015118718" lon="-4.100772030651569">
        <ele>673.29999999999995</ele>
        <time>2003-04-16T14:22:30Z</time>
      </trkpt>
      <trkpt lat="30.866218032315373" lon="-4.100758032873273">
        <ele>673.29999999999995</ele>
        <time>2003-04-16T14:22:33Z</time>
      </trkpt>
      <trkpt lat="30.86646999232471" lon="-4.100731965154409">
        <ele>673.20000000000005</ele>
        <time>2003-04-16T14:22:37Z</time>
      </trkpt>
      <trkpt lat="30.867182034999132" lon="-4.100446980446577">
        <ele>673.29999999999995</ele>
        <time>2003-04-16T14:22:48Z</time>
      </trkpt>
      <trkpt lat="30.867657037451863" lon="-4.100186973810196">
        <ele>673.20000000000005</ele>
        <time>2003-04-16T14:22:56Z</time>
      </trkpt>
      <trkpt lat="30.867762984707952" lon="-4.100071974098682">
        <ele>673.5</ele>
        <time>2003-04-16T14:22:57Z</time>
      </trkpt>
      <trkpt lat="30.86795300245285" lon="-4.099908024072647">
        <ele>673.60000000000002</ele>
        <time>2003-04-16T14:23:00Z</time>
      </trkpt>
      <trkpt lat="30.868151988834143" lon="-4.099810039624572">
        <ele>673.60000000000002</ele>
        <time>2003-04-16T14:23:04Z</time>
      </trkpt>
      <trkpt lat="30.868281992152333" lon="-4.099708031862974">
        <ele>673.70000000000005</ele>
        <time>2003-04-16T14:23:06Z</time>
      </trkpt>
      <trkpt lat="30.868457006290555" lon="-4.099537041038275">
        <ele>673.79999999999995</ele>
        <time>2003-04-16T14:23:08Z</time>
      </trkpt>
      <trkpt lat="30.868643000721931" lon="-4.099375018849969">
        <ele>673.79999999999995</ele>
        <time>2003-04-16T14:23:11Z</time>
      </trkpt>
      <trkpt lat="30.868797982111573" lon="-4.09924803301692">
        <ele>673.79999999999995</ele>
        <time>2003-04-16T14:23:15Z</time>
      </trkpt>
      <trkpt lat="30.869102999567986" lon="-4.09903303720057">
        <ele>673.79999999999995</ele>
        <time>2003-04-16T14:23:20Z</time>
      </trkpt>
      <trkpt lat="30.869217999279499" lon="-4.098945027217269">
        <ele>673.89999999999998</ele>
        <time>2003-04-16T14:23:23Z</time>
      </trkpt>
      <trkpt lat="30.869412962347269" lon="-4.098824998363853">
        <ele>673.89999999999998</ele>
        <time>2003-04-16T14:23:26Z</time>
      </trkpt>
      <trkpt lat="30.869616977870464" lon="-4.098721984773874">
        <ele>674.29999999999995</ele>
        <time>2003-04-16T14:23:29Z</time>
      </trkpt>
      <trkpt lat="30.869738012552261" lon="-4.09866800531745">
        <ele>674.39999999999998</ele>
        <time>2003-04-16T14:23:31Z</time>
      </trkpt>
      <trkpt lat="30.869997013360262" lon="-4.098515035584569">
        <ele>674.29999999999995</ele>
        <time>2003-04-16T14:23:35Z</time>
      </trkpt>
      <trkpt lat="30.870076976716518" lon="-4.098431970924139">
        <ele>674.29999999999995</ele>
        <time>2003-04-16T14:23:38Z</time>
      </trkpt>
      <trkpt lat="30.87012198753655" lon="-4.098323006182909">
        <ele>674.79999999999995</ele>
        <time>2003-04-16T14:23:39Z</time>
      </trkpt>
      <trkpt lat="30.870221983641386" lon="-4.098225021734834">
        <ele>674.39999999999998</ele>
        <time>2003-04-16T14:23:42Z</time>
      </trkpt>
      <trkpt lat="30.87031502276659" lon="-4.098127037286758">
        <ele>674.60000000000002</ele>
        <time>2003-04-16T14:23:45Z</time>
      </trkpt>
      <trkpt lat="30.870475033298135" lon="-4.097935007885099">
        <ele>674.60000000000002</ele>
        <time>2003-04-16T14:23:49Z</time>
      </trkpt>
      <trkpt lat="30.870730010792613" lon="-4.097801987081766">
        <ele>674.60000000000002</ele>
        <time>2003-04-16T14:23:54Z</time>
      </trkpt>
      <trkpt lat="30.870962021872401" lon="-4.097725041210651">
        <ele>674.39999999999998</ele>
        <time>2003-04-16T14:23:58Z</time>
      </trkpt>
      <trkpt lat="30.871778000146151" lon="-4.097522031515837">
        <ele>674</ele>
        <time>2003-04-16T14:24:12Z</time>
      </trkpt>
      <trkpt lat="30.871997019276023" lon="-4.097503004595637">
        <ele>673.89999999999998</ele>
        <time>2003-04-16T14:24:16Z</time>
      </trkpt>
      <trkpt lat="30.872110007330775" lon="-4.097501998767257">
        <ele>673.89999999999998</ele>
        <time>2003-04-16T14:24:17Z</time>
      </trkpt>
      <trkpt lat="30.872334977611899" lon="-4.09746503457427">
        <ele>674</ele>
        <time>2003-04-16T14:24:21Z</time>
      </trkpt>
      <trkpt lat="30.872613005340099" lon="-4.097409965470433">
        <ele>674.10000000000002</ele>
        <time>2003-04-16T14:24:27Z</time>
      </trkpt>
      <trkpt lat="30.872785001993179" lon="-4.09740200266242">
        <ele>674.20000000000005</ele>
        <time>2003-04-16T14:24:29Z</time>
      </trkpt>
      <trkpt lat="30.873162019997835" lon="-4.097339976578951">
        <ele>674.20000000000005</ele>
        <time>2003-04-16T14:24:36Z</time>
      </trkpt>
      <trkpt lat="30.873357988893986" lon="-4.097239980474114">
        <ele>674.5</ele>
        <time>2003-04-16T14:24:40Z</time>
      </trkpt>
      <trkpt lat="30.873471982777119" lon="-4.097154987975955">
        <ele>674.5</ele>
        <time>2003-04-16T14:24:40Z</time>
      </trkpt>
      <trkpt lat="30.873593017458916" lon="-4.097102014347911">
        <ele>674.79999999999995</ele>
        <time>2003-04-16T14:24:43Z</time>
      </trkpt>
      <trkpt lat="30.873771971091628" lon="-4.097043005749583">
        <ele>674.70000000000005</ele>
        <time>2003-04-16T14:24:45Z</time>
      </trkpt>
      <trkpt lat="30.873971963301301" lon="-4.096992965787649">
        <ele>674.5</ele>
        <time>2003-04-16T14:24:50Z</time>
      </trkpt>
      <trkpt lat="30.874012028798461" lon="-4.096887018531561">
        <ele>674.60000000000002</ele>
        <time>2003-04-16T14:24:52Z</time>
      </trkpt>
      <trkpt lat="30.87407698854804" lon="-4.096812000498176">
        <ele>674.79999999999995</ele>
        <time>2003-04-16T14:24:54Z</time>
      </trkpt>
      <trkpt lat="30.874232975766063" lon="-4.096709992736578">
        <ele>674.70000000000005</ele>
        <time>2003-04-16T14:24:58Z</time>
      </trkpt>
      <trkpt lat="30.874410001561046" lon="-4.096577977761626">
        <ele>674.79999999999995</ele>
        <time>2003-04-16T14:24:59Z</time>
      </trkpt>
      <trkpt lat="30.874640000984073" lon="-4.09634998999536">
        <ele>675</ele>
        <time>2003-04-16T14:25:04Z</time>
      </trkpt>
      <trkpt lat="30.87472197599709" lon="-4.096261980012059">
        <ele>675</ele>
        <time>2003-04-16T14:25:07Z</time>
      </trkpt>
      <trkpt lat="30.874824989587069" lon="-4.096187967807055">
        <ele>675.10000000000002</ele>
        <time>2003-04-16T14:25:08Z</time>
      </trkpt>
      <trkpt lat="30.87497997097671" lon="-4.096062993630767">
        <ele>675</ele>
        <time>2003-04-16T14:25:11Z</time>
      </trkpt>
      <trkpt lat="30.875203013420105" lon="-4.095823019742966">
        <ele>675.29999999999995</ele>
        <time>2003-04-16T14:25:15Z</time>
      </trkpt>
      <trkpt lat="30.875490009784698" lon="-4.09559796564281">
        <ele>675.29999999999995</ele>
        <time>2003-04-16T14:25:21Z</time>
      </trkpt>
      <trkpt lat="30.875565027818084" lon="-4.095481960102916">
        <ele>675.29999999999995</ele>
        <time>2003-04-16T14:25:22Z</time>
      </trkpt>
      <trkpt lat="30.875616995617747" lon="-4.095337959006429">
        <ele>675.39999999999998</ele>
        <time>2003-04-16T14:25:25Z</time>
      </trkpt>
      <trkpt lat="30.875682961195707" lon="-4.09518800675869">
        <ele>675.39999999999998</ele>
        <time>2003-04-16T14:25:26Z</time>
      </trkpt>
      <trkpt lat="30.875783041119576" lon="-4.095073007047176">
        <ele>675.20000000000005</ele>
        <time>2003-04-16T14:25:29Z</time>
      </trkpt>
      <trkpt lat="30.875898040831089" lon="-4.094966975972056">
        <ele>675</ele>
        <time>2003-04-16T14:25:30Z</time>
      </trkpt>
      <trkpt lat="30.876014968380332" lon="-4.094894975423813">
        <ele>674.89999999999998</ele>
        <time>2003-04-16T14:25:33Z</time>
      </trkpt>
      <trkpt lat="30.876122005283833" lon="-4.094807971268892">
        <ele>675</ele>
        <time>2003-04-16T14:25:34Z</time>
      </trkpt>
      <trkpt lat="30.876300036907196" lon="-4.094657013192773">
        <ele>674.70000000000005</ele>
        <time>2003-04-16T14:25:38Z</time>
      </trkpt>
      <trkpt lat="30.876412019133568" lon="-4.094542013481259">
        <ele>674.89999999999998</ele>
        <time>2003-04-16T14:25:42Z</time>
      </trkpt>
      <trkpt lat="30.876470021903515" lon="-4.094461966305971">
        <ele>675.10000000000002</ele>
        <time>2003-04-16T14:25:44Z</time>
      </trkpt>
      <trkpt lat="30.876647969707847" lon="-4.094246970489621">
        <ele>675.10000000000002</ele>
        <time>2003-04-16T14:25:50Z</time>
      </trkpt>
      <trkpt lat="30.876694992184639" lon="-4.094104981049895">
        <ele>675.10000000000002</ele>
        <time>2003-04-16T14:25:54Z</time>
      </trkpt>
      <trkpt lat="30.876788031309843" lon="-4.094023006036878">
        <ele>674.70000000000005</ele>
        <time>2003-04-16T14:25:57Z</time>
      </trkpt>
      <trkpt lat="30.876918034628034" lon="-4.094004984945059">
        <ele>674.5</ele>
        <time>2003-04-16T14:26:01Z</time>
      </trkpt>
      <trkpt lat="30.877058012410998" lon="-4.093972966074944">
        <ele>674.70000000000005</ele>
        <time>2003-04-16T14:26:04Z</time>
      </trkpt>
      <trkpt lat="30.877151973545551" lon="-4.093919992446899">
        <ele>675.10000000000002</ele>
        <time>2003-04-16T14:26:05Z</time>
      </trkpt>
      <trkpt lat="30.877230009064078" lon="-4.093856960535049">
        <ele>675.29999999999995</ele>
        <time>2003-04-16T14:26:08Z</time>
      </trkpt>
      <trkpt lat="30.8772979862988" lon="-4.093776997178793">
        <ele>675.20000000000005</ele>
        <time>2003-04-16T14:26:09Z</time>
      </trkpt>
      <trkpt lat="30.877402005717158" lon="-4.09368496388197">
        <ele>675.5</ele>
        <time>2003-04-16T14:26:13Z</time>
      </trkpt>
      <trkpt lat="30.877588000148535" lon="-4.093578010797501">
        <ele>675.39999999999998</ele>
        <time>2003-04-16T14:26:16Z</time>
      </trkpt>
      <trkpt lat="30.877677015960217" lon="-4.093499975278974">
        <ele>675.60000000000002</ele>
        <time>2003-04-16T14:26:19Z</time>
      </trkpt>
      <trkpt lat="30.877801990136504" lon="-4.093401990830898">
        <ele>675.79999999999995</ele>
        <time>2003-04-16T14:26:21Z</time>
      </trkpt>
      <trkpt lat="30.877901986241341" lon="-4.093369971960783">
        <ele>675.60000000000002</ele>
        <time>2003-04-16T14:26:24Z</time>
      </trkpt>
      <trkpt lat="30.878086974844337" lon="-4.093367960304022">
        <ele>675.39999999999998</ele>
        <time>2003-04-16T14:26:28Z</time>
      </trkpt>
      <trkpt lat="30.878187976777554" lon="-4.093378018587828">
        <ele>675.20000000000005</ele>
        <time>2003-04-16T14:26:29Z</time>
      </trkpt>
      <trkpt lat="30.878299959003925" lon="-4.093348011374474">
        <ele>675.60000000000002</ele>
        <time>2003-04-16T14:26:32Z</time>
      </trkpt>
      <trkpt lat="30.878562983125448" lon="-4.093224965035915">
        <ele>675.60000000000002</ele>
        <time>2003-04-16T14:26:36Z</time>
      </trkpt>
      <trkpt lat="30.87863196618855" lon="-4.093145001679659">
        <ele>676.10000000000002</ele>
        <time>2003-04-16T14:26:39Z</time>
      </trkpt>
      <trkpt lat="30.878734979778528" lon="-4.09310300834477">
        <ele>676.29999999999995</ele>
        <time>2003-04-16T14:26:40Z</time>
      </trkpt>
      <trkpt lat="30.878872023895383" lon="-4.093081969767809">
        <ele>675.79999999999995</ele>
        <time>2003-04-16T14:26:43Z</time>
      </trkpt>
      <trkpt lat="30.878970008343458" lon="-4.093052968382835">
        <ele>676</ele>
        <time>2003-04-16T14:26:46Z</time>
      </trkpt>
      <trkpt lat="30.879070004448295" lon="-4.092963030561805">
        <ele>675.89999999999998</ele>
        <time>2003-04-16T14:26:48Z</time>
      </trkpt>
      <trkpt lat="30.879288017749786" lon="-4.092841995880008">
        <ele>676.5</ele>
        <time>2003-04-16T14:26:54Z</time>
      </trkpt>
      <trkpt lat="30.879582976922393" lon="-4.092613002285361">
        <ele>676.5</ele>
        <time>2003-04-16T14:26:59Z</time>
      </trkpt>
      <trkpt lat="30.879697976633906" lon="-4.092519963160157">
        <ele>676.89999999999998</ele>
        <time>2003-04-16T14:27:03Z</time>
      </trkpt>
      <trkpt lat="30.879797972738743" lon="-4.09252499230206">
        <ele>676.5</ele>
        <time>2003-04-16T14:27:05Z</time>
      </trkpt>
      <trkpt lat="30.879996959120035" lon="-4.092532033100724">
        <ele>676.60000000000002</ele>
        <time>2003-04-16T14:27:09Z</time>
      </trkpt>
      <trkpt lat="30.880168033763766" lon="-4.092466989532113">
        <ele>676.60000000000002</ele>
        <time>2003-04-16T14:27:13Z</time>
      </trkpt>
      <trkpt lat="30.880297031253576" lon="-4.092432959005237">
        <ele>677.29999999999995</ele>
        <time>2003-04-16T14:27:15Z</time>
      </trkpt>
      <trkpt lat="30.880416976287961" lon="-4.092430025339127">
        <ele>676.79999999999995</ele>
        <time>2003-04-16T14:27:18Z</time>
      </trkpt>
      <trkpt lat="30.880512027069926" lon="-4.09246196039021">
        <ele>676.70000000000005</ele>
        <time>2003-04-16T14:27:19Z</time>
      </trkpt>
      <trkpt lat="30.880616968497634" lon="-4.092470007017255">
        <ele>676.79999999999995</ele>
        <time>2003-04-16T14:27:22Z</time>
      </trkpt>
      <trkpt lat="30.88073699735105" lon="-4.092427007853985">
        <ele>676.60000000000002</ele>
        <time>2003-04-16T14:27:23Z</time>
      </trkpt>
      <trkpt lat="30.88084202259779" lon="-4.092364981770515">
        <ele>676.79999999999995</ele>
        <time>2003-04-16T14:27:26Z</time>
      </trkpt>
      <trkpt lat="30.880955010652542" lon="-4.092327011749148">
        <ele>676.79999999999995</ele>
        <time>2003-04-16T14:27:27Z</time>
      </trkpt>
      <trkpt lat="30.881076967343688" lon="-4.092307984828949">
        <ele>677</ele>
        <time>2003-04-16T14:27:30Z</time>
      </trkpt>
      <trkpt lat="30.881172018125653" lon="-4.092213017866015">
        <ele>677.5</ele>
        <time>2003-04-16T14:27:34Z</time>
      </trkpt>
      <trkpt lat="30.881392965093255" lon="-4.091968014836311">
        <ele>677.5</ele>
        <time>2003-04-16T14:27:40Z</time>
      </trkpt>
      <trkpt lat="30.881507964804769" lon="-4.09188000485301">
        <ele>677.79999999999995</ele>
        <time>2003-04-16T14:27:42Z</time>
      </trkpt>
      <trkpt lat="30.881780041381717" lon="-4.09172703512013">
        <ele>677.89999999999998</ele>
        <time>2003-04-16T14:27:49Z</time>
      </trkpt>
      <trkpt lat="30.881871990859509" lon="-4.091659979894757">
        <ele>676.89999999999998</ele>
        <time>2003-04-16T14:27:53Z</time>
      </trkpt>
      <trkpt lat="30.881965029984713" lon="-4.091659979894757">
        <ele>677.10000000000002</ele>
        <time>2003-04-16T14:27:54Z</time>
      </trkpt>
      <trkpt lat="30.882082963362336" lon="-4.091614969074726">
        <ele>676.70000000000005</ele>
        <time>2003-04-16T14:27:57Z</time>
      </trkpt>
      <trkpt lat="30.88236702606082" lon="-4.091467028483748">
        <ele>676.79999999999995</ele>
        <time>2003-04-16T14:28:04Z</time>
      </trkpt>
      <trkpt lat="30.882513038814068" lon="-4.091314980760217">
        <ele>676.89999999999998</ele>
        <time>2003-04-16T14:28:08Z</time>
      </trkpt>
      <trkpt lat="30.88256198912859" lon="-4.091199981048703">
        <ele>677.29999999999995</ele>
        <time>2003-04-16T14:28:11Z</time>
      </trkpt>
      <trkpt lat="30.882667014375329" lon="-4.090879959985614">
        <ele>677.10000000000002</ele>
        <time>2003-04-16T14:28:16Z</time>
      </trkpt>
      <trkpt lat="30.882697021588683" lon="-4.090775018557906">
        <ele>677</ele>
        <time>2003-04-16T14:28:19Z</time>
      </trkpt>
      <trkpt lat="30.882913023233414" lon="-4.090242013335228">
        <ele>676.29999999999995</ele>
        <time>2003-04-16T14:28:28Z</time>
      </trkpt>
      <trkpt lat="30.882994998246431" lon="-4.089780002832413">
        <ele>675.89999999999998</ele>
        <time>2003-04-16T14:28:35Z</time>
      </trkpt>
      <trkpt lat="30.882912017405033" lon="-4.089661985635757">
        <ele>676.39999999999998</ele>
        <time>2003-04-16T14:28:39Z</time>
      </trkpt>
      <trkpt lat="30.882857032120228" lon="-4.089576993137598">
        <ele>676.39999999999998</ele>
        <time>2003-04-16T14:28:40Z</time>
      </trkpt>
      <trkpt lat="30.882825013250113" lon="-4.089467022567987">
        <ele>676.29999999999995</ele>
        <time>2003-04-16T14:28:43Z</time>
      </trkpt>
      <trkpt lat="30.882825013250113" lon="-4.089347999542952">
        <ele>676.39999999999998</ele>
        <time>2003-04-16T14:28:44Z</time>
      </trkpt>
      <trkpt lat="30.882876981049776" lon="-4.089222019538283">
        <ele>676.39999999999998</ele>
        <time>2003-04-16T14:28:47Z</time>
      </trkpt>
      <trkpt lat="30.882957028225064" lon="-4.089084975421429">
        <ele>676.29999999999995</ele>
        <time>2003-04-16T14:28:48Z</time>
      </trkpt>
      <trkpt lat="30.883046966046095" lon="-4.088980033993721">
        <ele>676.20000000000005</ele>
        <time>2003-04-16T14:28:51Z</time>
      </trkpt>
      <trkpt lat="30.883147967979312" lon="-4.088848019018769">
        <ele>676.10000000000002</ele>
        <time>2003-04-16T14:28:53Z</time>
      </trkpt>
      <trkpt lat="30.883472012355924" lon="-4.088477035984397">
        <ele>675.89999999999998</ele>
        <time>2003-04-16T14:28:59Z</time>
      </trkpt>
      <trkpt lat="30.883549964055419" lon="-4.088381985202432">
        <ele>676</ele>
        <time>2003-04-16T14:29:02Z</time>
      </trkpt>
      <trkpt lat="30.883607966825366" lon="-4.088251981884241">
        <ele>675.60000000000002</ele>
        <time>2003-04-16T14:29:05Z</time>
      </trkpt>
      <trkpt lat="30.883662030100822" lon="-4.088155003264546">
        <ele>676.20000000000005</ele>
        <time>2003-04-16T14:29:06Z</time>
      </trkpt>
      <trkpt lat="30.883845007047057" lon="-4.087898014113307">
        <ele>675.70000000000005</ele>
        <time>2003-04-16T14:29:11Z</time>
      </trkpt>
      <trkpt lat="30.884035024791956" lon="-4.087674971669912">
        <ele>675.70000000000005</ele>
        <time>2003-04-16T14:29:15Z</time>
      </trkpt>
      <trkpt lat="30.884167039766908" lon="-4.087471961975098">
        <ele>675.70000000000005</ele>
        <time>2003-04-16T14:29:18Z</time>
      </trkpt>
      <trkpt lat="30.884252032265067" lon="-4.087332990020514">
        <ele>675.79999999999995</ele>
        <time>2003-04-16T14:29:21Z</time>
      </trkpt>
      <trkpt lat="30.884725023061037" lon="-4.086622036993504">
        <ele>675.5</ele>
        <time>2003-04-16T14:29:30Z</time>
      </trkpt>
      <trkpt lat="30.885072033852339" lon="-4.085891973227263">
        <ele>675.20000000000005</ele>
        <time>2003-04-16T14:29:40Z</time>
      </trkpt>
      <trkpt lat="30.885230032727122" lon="-4.085534987971187">
        <ele>675.29999999999995</ele>
        <time>2003-04-16T14:29:45Z</time>
      </trkpt>
      <trkpt lat="30.885346960276365" lon="-4.084980022162199">
        <ele>675.20000000000005</ele>
        <time>2003-04-16T14:29:52Z</time>
      </trkpt>
      <trkpt lat="30.88537503965199" lon="-4.084547013044357">
        <ele>675.20000000000005</ele>
        <time>2003-04-16T14:29:56Z</time>
      </trkpt>
      <trkpt lat="30.885389959439635" lon="-4.084407035261393">
        <ele>675.39999999999998</ele>
        <time>2003-04-16T14:29:59Z</time>
      </trkpt>
      <trkpt lat="30.885388031601906" lon="-4.084272002801299">
        <ele>675.29999999999995</ele>
        <time>2003-04-16T14:30:00Z</time>
      </trkpt>
      <trkpt lat="30.885413009673357" lon="-4.084136970341206">
        <ele>675.70000000000005</ele>
        <time>2003-04-16T14:30:03Z</time>
      </trkpt>
      <trkpt lat="30.885424995794892" lon="-4.083997998386622">
        <ele>675.5</ele>
        <time>2003-04-16T14:30:04Z</time>
      </trkpt>
      <trkpt lat="30.885464977473021" lon="-4.083872018381953">
        <ele>675</ele>
        <time>2003-04-16T14:30:07Z</time>
      </trkpt>
      <trkpt lat="30.885551981627941" lon="-4.083703039214015">
        <ele>674.89999999999998</ele>
        <time>2003-04-16T14:30:09Z</time>
      </trkpt>
      <trkpt lat="30.885591963306069" lon="-4.08356498926878">
        <ele>674.79999999999995</ele>
        <time>2003-04-16T14:30:12Z</time>
      </trkpt>
      <trkpt lat="30.885618031024933" lon="-4.083417970687151">
        <ele>675</ele>
        <time>2003-04-16T14:30:14Z</time>
      </trkpt>
      <trkpt lat="30.885694976896048" lon="-4.083055034279823">
        <ele>674.89999999999998</ele>
        <time>2003-04-16T14:30:19Z</time>
      </trkpt>
      <trkpt lat="30.88576203212142" lon="-4.082861999049783">
        <ele>675</ele>
        <time>2003-04-16T14:30:22Z</time>
      </trkpt>
      <trkpt lat="30.885787010192871" lon="-4.082723027095199">
        <ele>675.10000000000002</ele>
        <time>2003-04-16T14:30:23Z</time>
      </trkpt>
      <trkpt lat="30.885847024619579" lon="-4.082608027383685">
        <ele>675</ele>
        <time>2003-04-16T14:30:26Z</time>
      </trkpt>
      <trkpt lat="30.885942997410893" lon="-4.082509959116578">
        <ele>674.89999999999998</ele>
        <time>2003-04-16T14:30:27Z</time>
      </trkpt>
      <trkpt lat="30.886277016252279" lon="-4.082197984680533">
        <ele>675.10000000000002</ele>
        <time>2003-04-16T14:30:34Z</time>
      </trkpt>
      <trkpt lat="30.886641964316368" lon="-4.081854997202754">
        <ele>675.29999999999995</ele>
        <time>2003-04-16T14:30:39Z</time>
      </trkpt>
      <trkpt lat="30.886784959584475" lon="-4.081655004993081">
        <ele>675.70000000000005</ele>
        <time>2003-04-16T14:30:43Z</time>
      </trkpt>
      <trkpt lat="30.886870035901666" lon="-4.081531958654523">
        <ele>675.89999999999998</ele>
        <time>2003-04-16T14:30:45Z</time>
      </trkpt>
      <trkpt lat="30.887027028948069" lon="-4.08141796477139">
        <ele>675.70000000000005</ele>
        <time>2003-04-16T14:30:49Z</time>
      </trkpt>
      <trkpt lat="30.887162983417511" lon="-4.081364991143346">
        <ele>675.89999999999998</ele>
        <time>2003-04-16T14:30:51Z</time>
      </trkpt>
      <trkpt lat="30.887236995622516" lon="-4.081225013360381">
        <ele>676.39999999999998</ele>
        <time>2003-04-16T14:30:54Z</time>
      </trkpt>
      <trkpt lat="30.88728996925056" lon="-4.081100039184094">
        <ele>676.20000000000005</ele>
        <time>2003-04-16T14:30:57Z</time>
      </trkpt>
      <trkpt lat="30.88758802972734" lon="-4.080390008166432">
        <ele>676.20000000000005</ele>
        <time>2003-04-16T14:31:08Z</time>
      </trkpt>
      <trkpt lat="30.887633040547371" lon="-4.080130001530051">
        <ele>676.20000000000005</ele>
        <time>2003-04-16T14:31:13Z</time>
      </trkpt>
      <trkpt lat="30.887633040547371" lon="-4.079993041232228">
        <ele>676.29999999999995</ele>
        <time>2003-04-16T14:31:14Z</time>
      </trkpt>
      <trkpt lat="30.887666987255216" lon="-4.079858008772135">
        <ele>675.89999999999998</ele>
        <time>2003-04-16T14:31:17Z</time>
      </trkpt>
      <trkpt lat="30.887752985581756" lon="-4.079742003232241">
        <ele>676</ele>
        <time>2003-04-16T14:31:18Z</time>
      </trkpt>
      <trkpt lat="30.887960018590093" lon="-4.079485014081001">
        <ele>675.79999999999995</ele>
        <time>2003-04-16T14:31:22Z</time>
      </trkpt>
      <trkpt lat="30.888139978051186" lon="-4.079336989670992">
        <ele>675.79999999999995</ele>
        <time>2003-04-16T14:31:25Z</time>
      </trkpt>
      <trkpt lat="30.888314992189407" lon="-4.079197011888027">
        <ele>675.89999999999998</ele>
        <time>2003-04-16T14:31:29Z</time>
      </trkpt>
      <trkpt lat="30.888387998566031" lon="-4.079104978591204">
        <ele>676.10000000000002</ele>
        <time>2003-04-16T14:31:30Z</time>
      </trkpt>
      <trkpt lat="30.888481959700584" lon="-4.079023003578186">
        <ele>675.70000000000005</ele>
        <time>2003-04-16T14:31:33Z</time>
      </trkpt>
      <trkpt lat="30.888638030737638" lon="-4.078929964452982">
        <ele>676.29999999999995</ele>
        <time>2003-04-16T14:31:36Z</time>
      </trkpt>
      <trkpt lat="30.888823019340634" lon="-4.078829968348146">
        <ele>676.39999999999998</ele>
        <time>2003-04-16T14:31:40Z</time>
      </trkpt>
      <trkpt lat="30.889023011550307" lon="-4.078698037192226">
        <ele>676.70000000000005</ele>
        <time>2003-04-16T14:31:44Z</time>
      </trkpt>
      <trkpt lat="30.889125019311905" lon="-4.078632993623614">
        <ele>676.79999999999995</ele>
        <time>2003-04-16T14:31:45Z</time>
      </trkpt>
      <trkpt lat="30.8892219979316" lon="-4.078546995297074">
        <ele>677</ele>
        <time>2003-04-16T14:31:48Z</time>
      </trkpt>
      <trkpt lat="30.889387037605047" lon="-4.078401988372207">
        <ele>677</ele>
        <time>2003-04-16T14:31:51Z</time>
      </trkpt>
      <trkpt lat="30.889510000124574" lon="-4.078305009752512">
        <ele>677.20000000000005</ele>
        <time>2003-04-16T14:31:52Z</time>
      </trkpt>
      <trkpt lat="30.889767995104194" lon="-4.078084984794259">
        <ele>677.29999999999995</ele>
        <time>2003-04-16T14:31:57Z</time>
      </trkpt>
      <trkpt lat="30.889860028401017" lon="-4.078057995066047">
        <ele>677.5</ele>
        <time>2003-04-16T14:32:00Z</time>
      </trkpt>
      <trkpt lat="30.889962036162615" lon="-4.078027987852693">
        <ele>677.70000000000005</ele>
        <time>2003-04-16T14:32:02Z</time>
      </trkpt>
      <trkpt lat="30.89006002061069" lon="-4.077988006174564">
        <ele>678</ele>
        <time>2003-04-16T14:32:04Z</time>
      </trkpt>
      <trkpt lat="30.89014501310885" lon="-4.077926985919476">
        <ele>678</ele>
        <time>2003-04-16T14:32:06Z</time>
      </trkpt>
      <trkpt lat="30.890390016138554" lon="-4.077688017860055">
        <ele>678.5</ele>
        <time>2003-04-16T14:32:11Z</time>
      </trkpt>
      <trkpt lat="30.890484983101487" lon="-4.077605037018657">
        <ele>678.5</ele>
        <time>2003-04-16T14:32:14Z</time>
      </trkpt>
      <trkpt lat="30.890563018620014" lon="-4.077496994286776">
        <ele>678.39999999999998</ele>
        <time>2003-04-16T14:32:15Z</time>
      </trkpt>
      <trkpt lat="30.890912963077426" lon="-4.077032972127199">
        <ele>678.29999999999995</ele>
        <time>2003-04-16T14:32:24Z</time>
      </trkpt>
      <trkpt lat="30.891012959182262" lon="-4.076757961884141">
        <ele>678.20000000000005</ele>
        <time>2003-04-16T14:32:29Z</time>
      </trkpt>
      <trkpt lat="30.891076996922493" lon="-4.07662795856595">
        <ele>678.29999999999995</ele>
        <time>2003-04-16T14:32:31Z</time>
      </trkpt>
      <trkpt lat="30.891116978600621" lon="-4.07649502158165">
        <ele>678.10000000000002</ele>
        <time>2003-04-16T14:32:33Z</time>
      </trkpt>
      <trkpt lat="30.891170036047697" lon="-4.076354959979653">
        <ele>678.10000000000002</ele>
        <time>2003-04-16T14:32:34Z</time>
      </trkpt>
      <trkpt lat="30.891242958605289" lon="-4.07611196860671">
        <ele>677.70000000000005</ele>
        <time>2003-04-16T14:32:38Z</time>
      </trkpt>
      <trkpt lat="30.891389977186918" lon="-4.075587010011077">
        <ele>677.70000000000005</ele>
        <time>2003-04-16T14:32:45Z</time>
      </trkpt>
      <trkpt lat="30.891438005492091" lon="-4.075436973944306">
        <ele>677.39999999999998</ele>
        <time>2003-04-16T14:32:46Z</time>
      </trkpt>
      <trkpt lat="30.891468012705445" lon="-4.075270006433129">
        <ele>677.5</ele>
        <time>2003-04-16T14:32:49Z</time>
      </trkpt>
      <trkpt lat="30.891504976898432" lon="-4.075109995901585">
        <ele>677.60000000000002</ele>
        <time>2003-04-16T14:32:50Z</time>
      </trkpt>
      <trkpt lat="30.891515035182238" lon="-4.074864992871881">
        <ele>677.39999999999998</ele>
        <time>2003-04-16T14:32:54Z</time>
      </trkpt>
      <trkpt lat="30.891567002981901" lon="-4.074586965143681">
        <ele>677.10000000000002</ele>
        <time>2003-04-16T14:32:58Z</time>
      </trkpt>
      <trkpt lat="30.891712009906769" lon="-4.074167031794787">
        <ele>677</ele>
        <time>2003-04-16T14:33:04Z</time>
      </trkpt>
      <trkpt lat="30.891751991584897" lon="-4.074002997949719">
        <ele>676.70000000000005</ele>
        <time>2003-04-16T14:33:05Z</time>
      </trkpt>
      <trkpt lat="30.891827009618282" lon="-4.073869977146387">
        <ele>676.60000000000002</ele>
        <time>2003-04-16T14:33:08Z</time>
      </trkpt>
      <trkpt lat="30.891885012388229" lon="-4.073663027957082">
        <ele>676.70000000000005</ele>
        <time>2003-04-16T14:33:10Z</time>
      </trkpt>
      <trkpt lat="30.891900015994906" lon="-4.073473010212183">
        <ele>676.89999999999998</ele>
        <time>2003-04-16T14:33:13Z</time>
      </trkpt>
      <trkpt lat="30.891917031258345" lon="-4.073267988860607">
        <ele>676.79999999999995</ele>
        <time>2003-04-16T14:33:17Z</time>
      </trkpt>
      <trkpt lat="30.891955001279712" lon="-4.073022985830903">
        <ele>676.39999999999998</ele>
        <time>2003-04-16T14:33:20Z</time>
      </trkpt>
      <trkpt lat="30.891937986016273" lon="-4.07284302636981">
        <ele>676.39999999999998</ele>
        <time>2003-04-16T14:33:21Z</time>
      </trkpt>
      <trkpt lat="30.891915019601583" lon="-4.072512025013566">
        <ele>676.60000000000002</ele>
        <time>2003-04-16T14:33:25Z</time>
      </trkpt>
      <trkpt lat="30.891928011551499" lon="-4.072301974520087">
        <ele>676.29999999999995</ele>
        <time>2003-04-16T14:33:28Z</time>
      </trkpt>
      <trkpt lat="30.891912002116442" lon="-4.072169959545136">
        <ele>676.29999999999995</ele>
        <time>2003-04-16T14:33:31Z</time>
      </trkpt>
      <trkpt lat="30.891894986853004" lon="-4.072042973712087">
        <ele>676.39999999999998</ele>
        <time>2003-04-16T14:33:32Z</time>
      </trkpt>
      <trkpt lat="30.891877971589565" lon="-4.071872988715768">
        <ele>676.20000000000005</ele>
        <time>2003-04-16T14:33:35Z</time>
      </trkpt>
      <trkpt lat="30.891832960769534" lon="-4.071714989840984">
        <ele>675.79999999999995</ele>
        <time>2003-04-16T14:33:36Z</time>
      </trkpt>
      <trkpt lat="30.891798008233309" lon="-4.071566965430975">
        <ele>675.60000000000002</ele>
        <time>2003-04-16T14:33:39Z</time>
      </trkpt>
      <trkpt lat="30.891746962442994" lon="-4.071411984041333">
        <ele>675.29999999999995</ele>
        <time>2003-04-16T14:33:40Z</time>
      </trkpt>
      <trkpt lat="30.891683008521795" lon="-4.071282986551523">
        <ele>675</ele>
        <time>2003-04-16T14:33:44Z</time>
      </trkpt>
      <trkpt lat="30.89152199216187" lon="-4.070998001843691">
        <ele>675.60000000000002</ele>
        <time>2003-04-16T14:33:48Z</time>
      </trkpt>
      <trkpt lat="30.891485027968884" lon="-4.070840002968907">
        <ele>675.29999999999995</ele>
        <time>2003-04-16T14:33:51Z</time>
      </trkpt>
      <trkpt lat="30.891468012705445" lon="-4.070582007989287">
        <ele>675.29999999999995</ele>
        <time>2003-04-16T14:33:55Z</time>
      </trkpt>
      <trkpt lat="30.891415039077401" lon="-4.07020297832787">
        <ele>675.20000000000005</ele>
        <time>2003-04-16T14:33:59Z</time>
      </trkpt>
      <trkpt lat="30.891386959701777" lon="-4.070056965574622">
        <ele>674.60000000000002</ele>
        <time>2003-04-16T14:34:02Z</time>
      </trkpt>
      <trkpt lat="30.891357958316803" lon="-4.069935008883476">
        <ele>674.89999999999998</ele>
        <time>2003-04-16T14:34:03Z</time>
      </trkpt>
      <trkpt lat="30.891334991902113" lon="-4.069827971979976">
        <ele>674.29999999999995</ele>
        <time>2003-04-16T14:34:06Z</time>
      </trkpt>
      <trkpt lat="30.891314959153533" lon="-4.069571988657117">
        <ele>674.29999999999995</ele>
        <time>2003-04-16T14:34:11Z</time>
      </trkpt>
      <trkpt lat="30.891270032152534" lon="-4.069439973682165">
        <ele>674.39999999999998</ele>
        <time>2003-04-16T14:34:14Z</time>
      </trkpt>
      <trkpt lat="30.891212029382586" lon="-4.069311982020736">
        <ele>674.60000000000002</ele>
        <time>2003-04-16T14:34:17Z</time>
      </trkpt>
      <trkpt lat="30.891152014955878" lon="-4.069207040593028">
        <ele>674.20000000000005</ele>
        <time>2003-04-16T14:34:19Z</time>
      </trkpt>
      <trkpt lat="30.890926960855722" lon="-4.06889196485281">
        <ele>674.10000000000002</ele>
        <time>2003-04-16T14:34:26Z</time>
      </trkpt>
      <trkpt lat="30.890852026641369" lon="-4.068770008161664">
        <ele>674.89999999999998</ele>
        <time>2003-04-16T14:34:29Z</time>
      </trkpt>
      <trkpt lat="30.890772985294461" lon="-4.068683004006743">
        <ele>675</ele>
        <time>2003-04-16T14:34:30Z</time>
      </trkpt>
      <trkpt lat="30.890687992796302" lon="-4.068576972931624">
        <ele>675.5</ele>
        <time>2003-04-16T14:34:33Z</time>
      </trkpt>
      <trkpt lat="30.890550026670098" lon="-4.068401958793402">
        <ele>675.10000000000002</ele>
        <time>2003-04-16T14:34:37Z</time>
      </trkpt>
      <trkpt lat="30.890526976436377" lon="-4.068285031244159">
        <ele>675.70000000000005</ele>
        <time>2003-04-16T14:34:38Z</time>
      </trkpt>
      <trkpt lat="30.890486994758248" lon="-4.068087972700596">
        <ele>675.79999999999995</ele>
        <time>2003-04-16T14:34:42Z</time>
      </trkpt>
      <trkpt lat="30.890492023900151" lon="-4.067944977432489">
        <ele>675.39999999999998</ele>
        <time>2003-04-16T14:34:45Z</time>
      </trkpt>
      <trkpt lat="30.890514990314841" lon="-4.067822014912963">
        <ele>675.60000000000002</ele>
        <time>2003-04-16T14:34:48Z</time>
      </trkpt>
      <trkpt lat="30.890520019456744" lon="-4.067668039351702">
        <ele>675.29999999999995</ele>
        <time>2003-04-16T14:34:50Z</time>
      </trkpt>
      <trkpt lat="30.890507027506828" lon="-4.067497970536351">
        <ele>675.29999999999995</ele>
        <time>2003-04-16T14:34:53Z</time>
      </trkpt>
      <trkpt lat="30.89046997949481" lon="-4.067324968054891">
        <ele>675.39999999999998</ele>
        <time>2003-04-16T14:34:57Z</time>
      </trkpt>
      <trkpt lat="30.890363026410341" lon="-4.066967982798815">
        <ele>675.39999999999998</ele>
        <time>2003-04-16T14:35:02Z</time>
      </trkpt>
      <trkpt lat="30.890357997268438" lon="-4.066794980317354">
        <ele>675.20000000000005</ele>
        <time>2003-04-16T14:35:04Z</time>
      </trkpt>
      <trkpt lat="30.890386998653412" lon="-4.066522987559438">
        <ele>675.5</ele>
        <time>2003-04-16T14:35:06Z</time>
      </trkpt>
      <trkpt lat="30.890562012791634" lon="-4.065478015691042">
        <ele>675.89999999999998</ele>
        <time>2003-04-16T14:35:19Z</time>
      </trkpt>
      <trkpt lat="30.890616998076439" lon="-4.06497803516686">
        <ele>676.70000000000005</ele>
        <time>2003-04-16T14:35:24Z</time>
      </trkpt>
      <trkpt lat="30.890593025833368" lon="-4.064513007178903">
        <ele>676.89999999999998</ele>
        <time>2003-04-16T14:35:31Z</time>
      </trkpt>
      <trkpt lat="30.890492023900151" lon="-4.064082009717822">
        <ele>676.79999999999995</ele>
        <time>2003-04-16T14:35:35Z</time>
      </trkpt>
      <trkpt lat="30.890393033623695" lon="-4.063697028905153">
        <ele>676.60000000000002</ele>
        <time>2003-04-16T14:35:39Z</time>
      </trkpt>
      <trkpt lat="30.890350034460425" lon="-4.063526960089803">
        <ele>676.20000000000005</ele>
        <time>2003-04-16T14:35:40Z</time>
      </trkpt>
      <trkpt lat="30.890292031690478" lon="-4.063312970101833">
        <ele>676.20000000000005</ele>
        <time>2003-04-16T14:35:43Z</time>
      </trkpt>
      <trkpt lat="30.890294965356588" lon="-4.063165029510856">
        <ele>675.89999999999998</ele>
        <time>2003-04-16T14:35:46Z</time>
      </trkpt>
      <trkpt lat="30.890273004770279" lon="-4.062999989837408">
        <ele>675.89999999999998</ele>
        <time>2003-04-16T14:35:47Z</time>
      </trkpt>
      <trkpt lat="30.890267975628376" lon="-4.062807960435748">
        <ele>675.60000000000002</ele>
        <time>2003-04-16T14:35:50Z</time>
      </trkpt>
      <trkpt lat="30.890290020033717" lon="-4.062424991279841">
        <ele>675.89999999999998</ele>
        <time>2003-04-16T14:35:52Z</time>
      </trkpt>
      <trkpt lat="30.890336958691478" lon="-4.062245031818748">
        <ele>676.20000000000005</ele>
        <time>2003-04-16T14:35:55Z</time>
      </trkpt>
      <trkpt lat="30.890586990863085" lon="-4.061552016064525">
        <ele>676.20000000000005</ele>
        <time>2003-04-16T14:36:03Z</time>
      </trkpt>
      <trkpt lat="30.890648011118174" lon="-4.061286980286241">
        <ele>676.60000000000002</ele>
        <time>2003-04-16T14:36:06Z</time>
      </trkpt>
      <trkpt lat="30.890690004453063" lon="-4.061001995578408">
        <ele>676.60000000000002</ele>
        <time>2003-04-16T14:36:10Z</time>
      </trkpt>
      <trkpt lat="30.890750018879771" lon="-4.060472007840872">
        <ele>677.10000000000002</ele>
        <time>2003-04-16T14:36:15Z</time>
      </trkpt>
      <trkpt lat="30.890793018043041" lon="-4.060328006744385">
        <ele>676.60000000000002</ele>
        <time>2003-04-16T14:36:18Z</time>
      </trkpt>
      <trkpt lat="30.890980018302798" lon="-4.059838000684977">
        <ele>676.79999999999995</ele>
        <time>2003-04-16T14:36:23Z</time>
      </trkpt>
      <trkpt lat="30.891372039914131" lon="-4.059068039059639">
        <ele>677</ele>
        <time>2003-04-16T14:36:33Z</time>
      </trkpt>
      <trkpt lat="30.891534984111786" lon="-4.058884978294373">
        <ele>677.29999999999995</ele>
        <time>2003-04-16T14:36:36Z</time>
      </trkpt>
      <trkpt lat="30.891610002145171" lon="-4.058762015774846">
        <ele>677.60000000000002</ele>
        <time>2003-04-16T14:36:37Z</time>
      </trkpt>
      <trkpt lat="30.8917570207268" lon="-4.058475019410253">
        <ele>677.79999999999995</ele>
        <time>2003-04-16T14:36:42Z</time>
      </trkpt>
      <trkpt lat="30.891804965212941" lon="-4.058336969465017">
        <ele>678.20000000000005</ele>
        <time>2003-04-16T14:36:45Z</time>
      </trkpt>
      <trkpt lat="30.891861962154508" lon="-4.058218030259013">
        <ele>678</ele>
        <time>2003-04-16T14:36:48Z</time>
      </trkpt>
      <trkpt lat="30.891924994066358" lon="-4.058134965598583">
        <ele>677.70000000000005</ele>
        <time>2003-04-16T14:36:49Z</time>
      </trkpt>
      <trkpt lat="30.892292037606239" lon="-4.05771997757256">
        <ele>678.10000000000002</ele>
        <time>2003-04-16T14:36:59Z</time>
      </trkpt>
      <trkpt lat="30.892407037317753" lon="-4.057472040876746">
        <ele>678.39999999999998</ele>
        <time>2003-04-16T14:37:03Z</time>
      </trkpt>
      <trkpt lat="30.892494963482022" lon="-4.05737497843802">
        <ele>678.39999999999998</ele>
        <time>2003-04-16T14:37:04Z</time>
      </trkpt>
      <trkpt lat="30.892666960135102" lon="-4.057214967906475">
        <ele>678.20000000000005</ele>
        <time>2003-04-16T14:37:08Z</time>
      </trkpt>
      <trkpt lat="30.892796963453293" lon="-4.057183032855392">
        <ele>678.20000000000005</ele>
        <time>2003-04-16T14:37:12Z</time>
      </trkpt>
      <trkpt lat="30.892907017841935" lon="-4.057163000106812">
        <ele>678.60000000000002</ele>
        <time>2003-04-16T14:37:15Z</time>
      </trkpt>
      <trkpt lat="30.892993016168475" lon="-4.057107008993626">
        <ele>679.29999999999995</ele>
        <time>2003-04-16T14:37:16Z</time>
      </trkpt>
      <trkpt lat="30.893178004771471" lon="-4.056953033432365">
        <ele>679.29999999999995</ele>
        <time>2003-04-16T14:37:20Z</time>
      </trkpt>
      <trkpt lat="30.893486961722374" lon="-4.056744994595647">
        <ele>679.10000000000002</ele>
        <time>2003-04-16T14:37:28Z</time>
      </trkpt>
      <trkpt lat="30.893707992509007" lon="-4.056402007117868">
        <ele>679</ele>
        <time>2003-04-16T14:37:35Z</time>
      </trkpt>
      <trkpt lat="30.893762977793813" lon="-4.056297987699509">
        <ele>678.5</ele>
        <time>2003-04-16T14:37:36Z</time>
      </trkpt>
      <trkpt lat="30.893812011927366" lon="-4.056181982159615">
        <ele>678.60000000000002</ele>
        <time>2003-04-16T14:37:39Z</time>
      </trkpt>
      <trkpt lat="30.893836989998817" lon="-4.056049967184663">
        <ele>678.79999999999995</ele>
        <time>2003-04-16T14:37:40Z</time>
      </trkpt>
      <trkpt lat="30.893892981112003" lon="-4.055898003280163">
        <ele>678.79999999999995</ele>
        <time>2003-04-16T14:37:43Z</time>
      </trkpt>
      <trkpt lat="30.893932962790132" lon="-4.055787026882172">
        <ele>679.20000000000005</ele>
        <time>2003-04-16T14:37:46Z</time>
      </trkpt>
      <trkpt lat="30.894007980823517" lon="-4.055574964731932">
        <ele>679.10000000000002</ele>
        <time>2003-04-16T14:37:48Z</time>
      </trkpt>
      <trkpt lat="30.894049974158406" lon="-4.055443033576012">
        <ele>679.10000000000002</ele>
        <time>2003-04-16T14:37:51Z</time>
      </trkpt>
      <trkpt lat="30.894096996635199" lon="-4.055229965597391">
        <ele>678.70000000000005</ele>
        <time>2003-04-16T14:37:54Z</time>
      </trkpt>
      <trkpt lat="30.894085010513663" lon="-4.055044976994395">
        <ele>679.29999999999995</ele>
        <time>2003-04-16T14:37:57Z</time>
      </trkpt>
      <trkpt lat="30.894067995250225" lon="-4.054904999211431">
        <ele>678.89999999999998</ele>
        <time>2003-04-16T14:37:58Z</time>
      </trkpt>
      <trkpt lat="30.894107976928353" lon="-4.054741971194744">
        <ele>678.70000000000005</ele>
        <time>2003-04-16T14:38:01Z</time>
      </trkpt>
      <trkpt lat="30.89420503936708" lon="-4.054342992603779">
        <ele>678.39999999999998</ele>
        <time>2003-04-16T14:38:06Z</time>
      </trkpt>
      <trkpt lat="30.894333031028509" lon="-4.05415004119277">
        <ele>678.39999999999998</ele>
        <time>2003-04-16T14:38:09Z</time>
      </trkpt>
      <trkpt lat="30.894494969397783" lon="-4.053967986255884">
        <ele>678.29999999999995</ele>
        <time>2003-04-16T14:38:11Z</time>
      </trkpt>
      <trkpt lat="30.894627990201116" lon="-4.053842006251216">
        <ele>678.20000000000005</ele>
        <time>2003-04-16T14:38:14Z</time>
      </trkpt>
      <trkpt lat="30.895092012360692" lon="-4.053437998518348">
        <ele>678.60000000000002</ele>
        <time>2003-04-16T14:38:20Z</time>
      </trkpt>
      <trkpt lat="30.895246993750334" lon="-4.053322998806834">
        <ele>678.70000000000005</ele>
        <time>2003-04-16T14:38:22Z</time>
      </trkpt>
      <trkpt lat="30.895676985383034" lon="-4.053004989400506">
        <ele>678.89999999999998</ele>
        <time>2003-04-16T14:38:28Z</time>
      </trkpt>
      <trkpt lat="30.895806988701224" lon="-4.052937012165785">
        <ele>678.89999999999998</ele>
        <time>2003-04-16T14:38:29Z</time>
      </trkpt>
      <trkpt lat="30.895951995626092" lon="-4.052827963605523">
        <ele>679.20000000000005</ele>
        <time>2003-04-16T14:38:32Z</time>
      </trkpt>
      <trkpt lat="30.896582985296845" lon="-4.052314991131425">
        <ele>679.29999999999995</ele>
        <time>2003-04-16T14:38:41Z</time>
      </trkpt>
      <trkpt lat="30.896775014698505" lon="-4.052193034440279">
        <ele>679.20000000000005</ele>
        <time>2003-04-16T14:38:44Z</time>
      </trkpt>
      <trkpt lat="30.896954974159598" lon="-4.052050039172173">
        <ele>679.60000000000002</ele>
        <time>2003-04-16T14:38:47Z</time>
      </trkpt>
      <trkpt lat="30.897116996347904" lon="-4.051927998661995">
        <ele>679.70000000000005</ele>
        <time>2003-04-16T14:38:49Z</time>
      </trkpt>
      <trkpt lat="30.897201988846064" lon="-4.051821967586875">
        <ele>679.79999999999995</ele>
        <time>2003-04-16T14:38:52Z</time>
      </trkpt>
      <trkpt lat="30.897265020757914" lon="-4.051742004230619">
        <ele>679.89999999999998</ele>
        <time>2003-04-16T14:38:53Z</time>
      </trkpt>
      <trkpt lat="30.897361999377608" lon="-4.051657011732459">
        <ele>679.79999999999995</ele>
        <time>2003-04-16T14:38:57Z</time>
      </trkpt>
      <trkpt lat="30.897455038502812" lon="-4.051591968163848">
        <ele>679.79999999999995</ele>
        <time>2003-04-16T14:39:00Z</time>
      </trkpt>
      <trkpt lat="30.897480016574264" lon="-4.051451990380883">
        <ele>680.20000000000005</ele>
        <time>2003-04-16T14:39:04Z</time>
      </trkpt>
      <trkpt lat="30.897468030452728" lon="-4.051343025639653">
        <ele>680.39999999999998</ele>
        <time>2003-04-16T14:39:05Z</time>
      </trkpt>
      <trkpt lat="30.897484961897135" lon="-4.051138004288077">
        <ele>679.89999999999998</ele>
        <time>2003-04-16T14:39:09Z</time>
      </trkpt>
      <trkpt lat="30.897519998252392" lon="-4.050808008760214">
        <ele>679.79999999999995</ele>
        <time>2003-04-16T14:39:16Z</time>
      </trkpt>
      <trkpt lat="30.897501977160573" lon="-4.05058303847909">
        <ele>679.70000000000005</ele>
        <time>2003-04-16T14:39:19Z</time>
      </trkpt>
      <trkpt lat="30.897572971880436" lon="-4.050122033804655">
        <ele>679.39999999999998</ele>
        <time>2003-04-16T14:39:27Z</time>
      </trkpt>
      <trkpt lat="30.897565009072423" lon="-4.0499849896878">
        <ele>679.5</ele>
        <time>2003-04-16T14:39:31Z</time>
      </trkpt>
      <trkpt lat="30.89753701351583" lon="-4.049835037440062">
        <ele>680.39999999999998</ele>
        <time>2003-04-16T14:39:34Z</time>
      </trkpt>
      <trkpt lat="30.897538019344211" lon="-4.049705034121871">
        <ele>679.20000000000005</ele>
        <time>2003-04-16T14:39:35Z</time>
      </trkpt>
      <trkpt lat="30.897568026557565" lon="-4.04948802664876">
        <ele>679.20000000000005</ele>
        <time>2003-04-16T14:39:39Z</time>
      </trkpt>
      <trkpt lat="30.897617982700467" lon="-4.049249980598688">
        <ele>679</ele>
        <time>2003-04-16T14:39:42Z</time>
      </trkpt>
      <trkpt lat="30.897771958261728" lon="-4.048613039776683">
        <ele>679.10000000000002</ele>
        <time>2003-04-16T14:39:50Z</time>
      </trkpt>
      <trkpt lat="30.897853011265397" lon="-4.048344986513257">
        <ele>679.10000000000002</ele>
        <time>2003-04-16T14:39:54Z</time>
      </trkpt>
      <trkpt lat="30.897844964638352" lon="-4.048152035102248">
        <ele>679.10000000000002</ele>
        <time>2003-04-16T14:39:57Z</time>
      </trkpt>
      <trkpt lat="30.897862985730171" lon="-4.048005016520619">
        <ele>679.39999999999998</ele>
        <time>2003-04-16T14:39:58Z</time>
      </trkpt>
      <trkpt lat="30.897907996550202" lon="-4.047841988503933">
        <ele>679.60000000000002</ele>
        <time>2003-04-16T14:40:01Z</time>
      </trkpt>
      <trkpt lat="30.898040011525154" lon="-4.04751299880445">
        <ele>679.39999999999998</ele>
        <time>2003-04-16T14:40:05Z</time>
      </trkpt>
      <trkpt lat="30.898232962936163" lon="-4.047136986628175">
        <ele>679.5</ele>
        <time>2003-04-16T14:40:10Z</time>
      </trkpt>
      <trkpt lat="30.898422980681062" lon="-4.04680497944355">
        <ele>679.79999999999995</ele>
        <time>2003-04-16T14:40:13Z</time>
      </trkpt>
      <trkpt lat="30.898962020874023" lon="-4.045895040035248">
        <ele>680</ele>
        <time>2003-04-16T14:40:25Z</time>
      </trkpt>
      <trkpt lat="30.899067968130112" lon="-4.045603014528751">
        <ele>679.89999999999998</ele>
        <time>2003-04-16T14:40:28Z</time>
      </trkpt>
      <trkpt lat="30.899252034723759" lon="-4.044940005987883">
        <ele>679.70000000000005</ele>
        <time>2003-04-16T14:40:35Z</time>
      </trkpt>
      <trkpt lat="30.899344990029931" lon="-4.044542033225298">
        <ele>680.20000000000005</ele>
        <time>2003-04-16T14:40:40Z</time>
      </trkpt>
      <trkpt lat="30.899341972544789" lon="-4.044293006882072">
        <ele>680.20000000000005</ele>
        <time>2003-04-16T14:40:43Z</time>
      </trkpt>
      <trkpt lat="30.899296961724758" lon="-4.043343001976609">
        <ele>679.5</ele>
        <time>2003-04-16T14:40:53Z</time>
      </trkpt>
      <trkpt lat="30.899344990029931" lon="-4.043107973411679">
        <ele>679.5</ele>
        <time>2003-04-16T14:40:56Z</time>
      </trkpt>
      <trkpt lat="30.899357981979847" lon="-4.042945029214025">
        <ele>679.39999999999998</ele>
        <time>2003-04-16T14:40:59Z</time>
      </trkpt>
      <trkpt lat="30.899390000849962" lon="-4.042553007602692">
        <ele>679.5</ele>
        <time>2003-04-16T14:41:03Z</time>
      </trkpt>
      <trkpt lat="30.899454960599542" lon="-4.041938027366996">
        <ele>679.70000000000005</ele>
        <time>2003-04-16T14:41:08Z</time>
      </trkpt>
      <trkpt lat="30.899495026096702" lon="-4.041580036282539">
        <ele>679.60000000000002</ele>
        <time>2003-04-16T14:41:12Z</time>
      </trkpt>
      <trkpt lat="30.899523021653295" lon="-4.041120037436485">
        <ele>679.39999999999998</ele>
        <time>2003-04-16T14:41:18Z</time>
      </trkpt>
      <trkpt lat="30.899527966976166" lon="-4.040930019691587">
        <ele>679.70000000000005</ele>
        <time>2003-04-16T14:41:19Z</time>
      </trkpt>
      <trkpt lat="30.899610025808215" lon="-4.040344962850213">
        <ele>679.70000000000005</ele>
        <time>2003-04-16T14:41:26Z</time>
      </trkpt>
      <trkpt lat="30.899631986394525" lon="-4.040140025317669">
        <ele>679.79999999999995</ele>
        <time>2003-04-16T14:41:27Z</time>
      </trkpt>
      <trkpt lat="30.899671968072653" lon="-4.039853028953075">
        <ele>679.70000000000005</ele>
        <time>2003-04-16T14:41:31Z</time>
      </trkpt>
      <trkpt lat="30.899722008034587" lon="-4.039726965129376">
        <ele>679.60000000000002</ele>
        <time>2003-04-16T14:41:33Z</time>
      </trkpt>
      <trkpt lat="30.899852011352777" lon="-4.03915498405695">
        <ele>680.20000000000005</ele>
        <time>2003-04-16T14:41:39Z</time>
      </trkpt>
      <trkpt lat="30.899910014122725" lon="-4.038881985470653">
        <ele>680.20000000000005</ele>
        <time>2003-04-16T14:41:42Z</time>
      </trkpt>
      <trkpt lat="30.899961981922388" lon="-4.038718035444617">
        <ele>680.20000000000005</ele>
        <time>2003-04-16T14:41:45Z</time>
      </trkpt>
      <trkpt lat="30.899997018277645" lon="-4.038549978286028">
        <ele>680.20000000000005</ele>
        <time>2003-04-16T14:41:46Z</time>
      </trkpt>
      <trkpt lat="30.90003197081387" lon="-4.038394996896386">
        <ele>680</ele>
        <time>2003-04-16T14:41:49Z</time>
      </trkpt>
      <trkpt lat="30.900122998282313" lon="-4.038285026326776">
        <ele>679.89999999999998</ele>
        <time>2003-04-16T14:41:50Z</time>
      </trkpt>
      <trkpt lat="30.900191981345415" lon="-4.038129961118102">
        <ele>679.79999999999995</ele>
        <time>2003-04-16T14:41:53Z</time>
      </trkpt>
      <trkpt lat="30.90022299438715" lon="-4.037976991385222">
        <ele>680</ele>
        <time>2003-04-16T14:41:54Z</time>
      </trkpt>
      <trkpt lat="30.900247972458601" lon="-4.037750009447336">
        <ele>680.29999999999995</ele>
        <time>2003-04-16T14:41:58Z</time>
      </trkpt>
      <trkpt lat="30.900245038792491" lon="-4.037541970610619">
        <ele>679.89999999999998</ele>
        <time>2003-04-16T14:42:01Z</time>
      </trkpt>
      <trkpt lat="30.900167003273964" lon="-4.037427976727486">
        <ele>679.79999999999995</ele>
        <time>2003-04-16T14:42:02Z</time>
      </trkpt>
      <trkpt lat="30.900087961927056" lon="-4.037248017266393">
        <ele>680.10000000000002</ele>
        <time>2003-04-16T14:42:06Z</time>
      </trkpt>
      <trkpt lat="30.900013027712703" lon="-4.03713502921164">
        <ele>680.10000000000002</ele>
        <time>2003-04-16T14:42:09Z</time>
      </trkpt>
      <trkpt lat="30.899940021336079" lon="-4.03696303255856">
        <ele>680.10000000000002</ele>
        <time>2003-04-16T14:42:10Z</time>
      </trkpt>
      <trkpt lat="30.899889981374145" lon="-4.036775026470423">
        <ele>680</ele>
        <time>2003-04-16T14:42:13Z</time>
      </trkpt>
      <trkpt lat="30.899861985817552" lon="-4.036587020382285">
        <ele>680.10000000000002</ele>
        <time>2003-04-16T14:42:14Z</time>
      </trkpt>
      <trkpt lat="30.899804988875985" lon="-4.036251995712519">
        <ele>679.89999999999998</ele>
        <time>2003-04-16T14:42:18Z</time>
      </trkpt>
      <trkpt lat="30.899798031896353" lon="-4.036107994616032">
        <ele>679.89999999999998</ele>
        <time>2003-04-16T14:42:21Z</time>
      </trkpt>
      <trkpt lat="30.899747991934419" lon="-4.035898027941585">
        <ele>679.89999999999998</ele>
        <time>2003-04-16T14:42:24Z</time>
      </trkpt>
      <trkpt lat="30.89975000359118" lon="-4.035756960511208">
        <ele>679.5</ele>
        <time>2003-04-16T14:42:25Z</time>
      </trkpt>
      <trkpt lat="30.899744974449277" lon="-4.035601979121566">
        <ele>679.60000000000002</ele>
        <time>2003-04-16T14:42:28Z</time>
      </trkpt>
      <trkpt lat="30.899776993319392" lon="-4.035446997731924">
        <ele>679.5</ele>
        <time>2003-04-16T14:42:29Z</time>
      </trkpt>
      <trkpt lat="30.899852011352777" lon="-4.035197971388698">
        <ele>679.5</ele>
        <time>2003-04-16T14:42:32Z</time>
      </trkpt>
      <trkpt lat="30.899912025779486" lon="-4.03505003079772">
        <ele>679.70000000000005</ele>
        <time>2003-04-16T14:42:35Z</time>
      </trkpt>
      <trkpt lat="30.900089973583817" lon="-4.034690028056502">
        <ele>679.5</ele>
        <time>2003-04-16T14:42:40Z</time>
      </trkpt>
      <trkpt lat="30.90020002797246" lon="-4.034497998654842">
        <ele>679.29999999999995</ele>
        <time>2003-04-16T14:42:43Z</time>
      </trkpt>
      <trkpt lat="30.900370012968779" lon="-4.034221982583404">
        <ele>679.5</ele>
        <time>2003-04-16T14:42:47Z</time>
      </trkpt>
      <trkpt lat="30.900645023211837" lon="-4.033940015360713">
        <ele>679.70000000000005</ele>
        <time>2003-04-16T14:42:51Z</time>
      </trkpt>
      <trkpt lat="30.90136201120913" lon="-4.033195031806827">
        <ele>680.10000000000002</ele>
        <time>2003-04-16T14:43:02Z</time>
      </trkpt>
      <trkpt lat="30.901480028405786" lon="-4.033067962154746">
        <ele>680.29999999999995</ele>
        <time>2003-04-16T14:43:03Z</time>
      </trkpt>
      <trkpt lat="30.901635009795427" lon="-4.032837962731719">
        <ele>680</ele>
        <time>2003-04-16T14:43:07Z</time>
      </trkpt>
      <trkpt lat="30.902012027800083" lon="-4.032160034403205">
        <ele>681.20000000000005</ele>
        <time>2003-04-16T14:43:15Z</time>
      </trkpt>
      <trkpt lat="30.902127027511597" lon="-4.031961970031261">
        <ele>681.29999999999995</ele>
        <time>2003-04-16T14:43:18Z</time>
      </trkpt>
      <trkpt lat="30.902247978374362" lon="-4.031757032498717">
        <ele>681.39999999999998</ele>
        <time>2003-04-16T14:43:21Z</time>
      </trkpt>
      <trkpt lat="30.902517959475517" lon="-4.031402980908752">
        <ele>681.39999999999998</ele>
        <time>2003-04-16T14:43:26Z</time>
      </trkpt>
      <trkpt lat="30.902875028550625" lon="-4.031126964837313">
        <ele>681.5</ele>
        <time>2003-04-16T14:43:30Z</time>
      </trkpt>
      <trkpt lat="30.903021963313222" lon="-4.031054964289069">
        <ele>681.29999999999995</ele>
        <time>2003-04-16T14:43:33Z</time>
      </trkpt>
      <trkpt lat="30.903163030743599" lon="-4.030972989276052">
        <ele>681.70000000000005</ele>
        <time>2003-04-16T14:43:34Z</time>
      </trkpt>
      <trkpt lat="30.903302002698183" lon="-4.030912974849343">
        <ele>681.60000000000002</ele>
        <time>2003-04-16T14:43:37Z</time>
      </trkpt>
      <trkpt lat="30.903427982702851" lon="-4.03084198012948">
        <ele>681.79999999999995</ele>
        <time>2003-04-16T14:43:38Z</time>
      </trkpt>
      <trkpt lat="30.903526972979307" lon="-4.030756987631321">
        <ele>681.89999999999998</ele>
        <time>2003-04-16T14:43:41Z</time>
      </trkpt>
      <trkpt lat="30.90359503403306" lon="-4.03062698431313">
        <ele>681.89999999999998</ele>
        <time>2003-04-16T14:43:42Z</time>
      </trkpt>
      <trkpt lat="30.903677009046078" lon="-4.030477032065392">
        <ele>682.20000000000005</ele>
        <time>2003-04-16T14:43:45Z</time>
      </trkpt>
      <trkpt lat="30.903871972113848" lon="-4.03015298768878">
        <ele>681.89999999999998</ele>
        <time>2003-04-16T14:43:49Z</time>
      </trkpt>
      <trkpt lat="30.903950007632375" lon="-4.029934974387288">
        <ele>682</ele>
        <time>2003-04-16T14:43:52Z</time>
      </trkpt>
      <trkpt lat="30.903989989310503" lon="-4.029785022139549">
        <ele>682</ele>
        <time>2003-04-16T14:43:53Z</time>
      </trkpt>
      <trkpt lat="30.904044974595308" lon="-4.029529960826039">
        <ele>682</ele>
        <time>2003-04-16T14:43:57Z</time>
      </trkpt>
      <trkpt lat="30.904053021222353" lon="-4.029353018850088">
        <ele>681.89999999999998</ele>
        <time>2003-04-16T14:43:58Z</time>
      </trkpt>
      <trkpt lat="30.904107000678778" lon="-4.029212035238743">
        <ele>682.20000000000005</ele>
        <time>2003-04-16T14:44:01Z</time>
      </trkpt>
      <trkpt lat="30.904252007603645" lon="-4.028787994757295">
        <ele>682.10000000000002</ele>
        <time>2003-04-16T14:44:05Z</time>
      </trkpt>
      <trkpt lat="30.904319984838367" lon="-4.028639970347285">
        <ele>682.20000000000005</ele>
        <time>2003-04-16T14:44:08Z</time>
      </trkpt>
      <trkpt lat="30.904415035620332" lon="-4.028520025312901">
        <ele>681.5</ele>
        <time>2003-04-16T14:44:09Z</time>
      </trkpt>
      <trkpt lat="30.904517965391278" lon="-4.028424974530935">
        <ele>681.79999999999995</ele>
        <time>2003-04-16T14:44:12Z</time>
      </trkpt>
      <trkpt lat="30.904592983424664" lon="-4.028337970376015">
        <ele>681.89999999999998</ele>
        <time>2003-04-16T14:44:13Z</time>
      </trkpt>
      <trkpt lat="30.904755005612969" lon="-4.028048040345311">
        <ele>681.5</ele>
        <time>2003-04-16T14:44:19Z</time>
      </trkpt>
      <trkpt lat="30.904882997274399" lon="-4.027862967923284">
        <ele>681.60000000000002</ele>
        <time>2003-04-16T14:44:21Z</time>
      </trkpt>
      <trkpt lat="30.904982993379235" lon="-4.027659958228469">
        <ele>681.70000000000005</ele>
        <time>2003-04-16T14:44:24Z</time>
      </trkpt>
      <trkpt lat="30.905067985877395" lon="-4.027536995708942">
        <ele>682</ele>
        <time>2003-04-16T14:44:27Z</time>
      </trkpt>
      <trkpt lat="30.905190026387572" lon="-4.027457032352686">
        <ele>681.89999999999998</ele>
        <time>2003-04-16T14:44:28Z</time>
      </trkpt>
      <trkpt lat="30.905312988907099" lon="-4.027367010712624">
        <ele>682.10000000000002</ele>
        <time>2003-04-16T14:44:31Z</time>
      </trkpt>
      <trkpt lat="30.905409967526793" lon="-4.027229966595769">
        <ele>682</ele>
        <time>2003-04-16T14:44:32Z</time>
      </trkpt>
      <trkpt lat="30.905523039400578" lon="-4.027004996314645">
        <ele>682</ele>
        <time>2003-04-16T14:44:36Z</time>
      </trkpt>
      <trkpt lat="30.905596967786551" lon="-4.026725040748715">
        <ele>682</ele>
        <time>2003-04-16T14:44:39Z</time>
      </trkpt>
      <trkpt lat="30.905662011355162" lon="-4.026554971933365">
        <ele>682.39999999999998</ele>
        <time>2003-04-16T14:44:40Z</time>
      </trkpt>
      <trkpt lat="30.905742980539799" lon="-4.026396973058581">
        <ele>682.29999999999995</ele>
        <time>2003-04-16T14:44:43Z</time>
      </trkpt>
      <trkpt lat="30.905846999958158" lon="-4.026254983618856">
        <ele>682.10000000000002</ele>
        <time>2003-04-16T14:44:44Z</time>
      </trkpt>
      <trkpt lat="30.906182024627924" lon="-4.025917025282979">
        <ele>682.10000000000002</ele>
        <time>2003-04-16T14:44:51Z</time>
      </trkpt>
      <trkpt lat="30.906329965218902" lon="-4.02587503194809">
        <ele>682.20000000000005</ele>
        <time>2003-04-16T14:44:52Z</time>
      </trkpt>
      <trkpt lat="30.906467009335756" lon="-4.025827003642917">
        <ele>682.60000000000002</ele>
        <time>2003-04-16T14:44:55Z</time>
      </trkpt>
      <trkpt lat="30.906591983512044" lon="-4.025758020579815">
        <ele>682.79999999999995</ele>
        <time>2003-04-16T14:44:56Z</time>
      </trkpt>
      <trkpt lat="30.906706983223557" lon="-4.025667998939753">
        <ele>682.10000000000002</ele>
        <time>2003-04-16T14:44:59Z</time>
      </trkpt>
      <trkpt lat="30.906817959621549" lon="-4.025527015328407">
        <ele>682.70000000000005</ele>
        <time>2003-04-16T14:45:00Z</time>
      </trkpt>
      <trkpt lat="30.906952992081642" lon="-4.025257034227252">
        <ele>682.70000000000005</ele>
        <time>2003-04-16T14:45:03Z</time>
      </trkpt>
      <trkpt lat="30.907124988734722" lon="-4.024985041469336">
        <ele>682.70000000000005</ele>
        <time>2003-04-16T14:45:07Z</time>
      </trkpt>
      <trkpt lat="30.907397987321019" lon="-4.024617997929454">
        <ele>682.60000000000002</ele>
        <time>2003-04-16T14:45:10Z</time>
      </trkpt>
      <trkpt lat="30.907863015308976" lon="-4.02417803183198">
        <ele>682.89999999999998</ele>
        <time>2003-04-16T14:45:17Z</time>
      </trkpt>
      <trkpt lat="30.908471960574389" lon="-4.023667993023992">
        <ele>682.79999999999995</ele>
        <time>2003-04-16T14:45:25Z</time>
      </trkpt>
      <trkpt lat="30.908632976934314" lon="-4.023476969450712">
        <ele>683</ele>
        <time>2003-04-16T14:45:27Z</time>
      </trkpt>
      <trkpt lat="30.908932965248823" lon="-4.023072039708495">
        <ele>683.20000000000005</ele>
        <time>2003-04-16T14:45:34Z</time>
      </trkpt>
      <trkpt lat="30.909062968567014" lon="-4.022937007248402">
        <ele>682.79999999999995</ele>
        <time>2003-04-16T14:45:37Z</time>
      </trkpt>
      <trkpt lat="30.909102028235793" lon="-4.02282795868814">
        <ele>682.39999999999998</ele>
        <time>2003-04-16T14:45:38Z</time>
      </trkpt>
      <trkpt lat="30.909113008528948" lon="-4.022717988118529">
        <ele>683</ele>
        <time>2003-04-16T14:45:41Z</time>
      </trkpt>
      <trkpt lat="30.90918299742043" lon="-4.022631989791989">
        <ele>682.89999999999998</ele>
        <time>2003-04-16T14:45:42Z</time>
      </trkpt>
      <trkpt lat="30.9092450235039" lon="-4.022497041150928">
        <ele>682.60000000000002</ele>
        <time>2003-04-16T14:45:45Z</time>
      </trkpt>
      <trkpt lat="30.909287016838789" lon="-4.022312974557281">
        <ele>682.89999999999998</ele>
        <time>2003-04-16T14:45:46Z</time>
      </trkpt>
      <trkpt lat="30.909337978810072" lon="-4.022133015096188">
        <ele>682.79999999999995</ele>
        <time>2003-04-16T14:45:49Z</time>
      </trkpt>
      <trkpt lat="30.909415008500218" lon="-4.021958000957966">
        <ele>683</ele>
        <time>2003-04-16T14:45:50Z</time>
      </trkpt>
      <trkpt lat="30.909488014876842" lon="-4.021777035668492">
        <ele>683.20000000000005</ele>
        <time>2003-04-16T14:45:53Z</time>
      </trkpt>
      <trkpt lat="30.90963201597333" lon="-4.021482998505235">
        <ele>683</ele>
        <time>2003-04-16T14:45:56Z</time>
      </trkpt>
      <trkpt lat="30.910108024254441" lon="-4.020637013018131">
        <ele>682.79999999999995</ele>
        <time>2003-04-16T14:46:04Z</time>
      </trkpt>
      <trkpt lat="30.910159992054105" lon="-4.020456969738007">
        <ele>682.60000000000002</ele>
        <time>2003-04-16T14:46:07Z</time>
      </trkpt>
      <trkpt lat="30.910244984552264" lon="-4.020060002803803">
        <ele>683.29999999999995</ele>
        <time>2003-04-16T14:46:11Z</time>
      </trkpt>
      <trkpt lat="30.910480013117194" lon="-4.019362041726708">
        <ele>683.5</ele>
        <time>2003-04-16T14:46:17Z</time>
      </trkpt>
      <trkpt lat="30.910589983686805" lon="-4.019162971526384">
        <ele>682.89999999999998</ele>
        <time>2003-04-16T14:46:20Z</time>
      </trkpt>
      <trkpt lat="30.910780001431704" lon="-4.018898019567132">
        <ele>683.39999999999998</ele>
        <time>2003-04-16T14:46:24Z</time>
      </trkpt>
      <trkpt lat="30.910872034728527" lon="-4.018698027357459">
        <ele>683.39999999999998</ele>
        <time>2003-04-16T14:46:28Z</time>
      </trkpt>
      <trkpt lat="30.910883015021682" lon="-4.018568024039269">
        <ele>683.20000000000005</ele>
        <time>2003-04-16T14:46:30Z</time>
      </trkpt>
      <trkpt lat="30.910834986716509" lon="-4.018419999629259">
        <ele>683.20000000000005</ele>
        <time>2003-04-16T14:46:31Z</time>
      </trkpt>
      <trkpt lat="30.910713030025363" lon="-4.018297959119082">
        <ele>683.29999999999995</ele>
        <time>2003-04-16T14:46:34Z</time>
      </trkpt>
      <trkpt lat="30.910646980628371" lon="-4.01814297772944">
        <ele>683.39999999999998</ele>
        <time>2003-04-16T14:46:35Z</time>
      </trkpt>
      <trkpt lat="30.910495016723871" lon="-4.017824968323112">
        <ele>683.60000000000002</ele>
        <time>2003-04-16T14:46:39Z</time>
      </trkpt>
      <trkpt lat="30.910417987033725" lon="-4.017645008862019">
        <ele>683.79999999999995</ele>
        <time>2003-04-16T14:46:42Z</time>
      </trkpt>
      <trkpt lat="30.910352021455765" lon="-4.017363041639328">
        <ele>683.89999999999998</ele>
        <time>2003-04-16T14:46:44Z</time>
      </trkpt>
      <trkpt lat="30.91027800925076" lon="-4.016997003927827">
        <ele>684</ele>
        <time>2003-04-16T14:46:48Z</time>
      </trkpt>
      <trkpt lat="30.91017197817564" lon="-4.016643036156893">
        <ele>683.60000000000002</ele>
        <time>2003-04-16T14:46:53Z</time>
      </trkpt>
      <trkpt lat="30.910072987899184" lon="-4.016447989270091">
        <ele>683.79999999999995</ele>
        <time>2003-04-16T14:46:55Z</time>
      </trkpt>
      <trkpt lat="30.909957988187671" lon="-4.016189994290471">
        <ele>683.70000000000005</ele>
        <time>2003-04-16T14:46:58Z</time>
      </trkpt>
      <trkpt lat="30.909839970991015" lon="-4.015968041494489">
        <ele>683.79999999999995</ele>
        <time>2003-04-16T14:47:01Z</time>
      </trkpt>
      <trkpt lat="30.909336972981691" lon="-4.01504997164011">
        <ele>684.10000000000002</ele>
        <time>2003-04-16T14:47:10Z</time>
      </trkpt>
      <trkpt lat="30.909145027399063" lon="-4.014697009697557">
        <ele>684.20000000000005</ele>
        <time>2003-04-16T14:47:14Z</time>
      </trkpt>
      <trkpt lat="30.908836992457509" lon="-4.014227958396077">
        <ele>684.39999999999998</ele>
        <time>2003-04-16T14:47:20Z</time>
      </trkpt>
      <trkpt lat="30.908407000824809" lon="-4.01352203451097">
        <ele>684.5</ele>
        <time>2003-04-16T14:47:25Z</time>
      </trkpt>
      <trkpt lat="30.907771987840533" lon="-4.012746959924698">
        <ele>684.79999999999995</ele>
        <time>2003-04-16T14:47:34Z</time>
      </trkpt>
      <trkpt lat="30.907599991187453" lon="-4.01251302100718">
        <ele>684.89999999999998</ele>
        <time>2003-04-16T14:47:37Z</time>
      </trkpt>
      <trkpt lat="30.907566966488957" lon="-4.012352004647255">
        <ele>685.10000000000002</ele>
        <time>2003-04-16T14:47:40Z</time>
      </trkpt>
      <trkpt lat="30.907565038651228" lon="-4.01216802187264">
        <ele>685.10000000000002</ele>
        <time>2003-04-16T14:47:41Z</time>
      </trkpt>
      <trkpt lat="30.907539976760745" lon="-4.011878008022904">
        <ele>685</ele>
        <time>2003-04-16T14:47:45Z</time>
      </trkpt>
      <trkpt lat="30.907508041709661" lon="-4.011686984449625">
        <ele>684.89999999999998</ele>
        <time>2003-04-16T14:47:47Z</time>
      </trkpt>
      <trkpt lat="30.907405028119683" lon="-4.011120032519102">
        <ele>684.60000000000002</ele>
        <time>2003-04-16T14:47:53Z</time>
      </trkpt>
      <trkpt lat="30.907309977337718" lon="-4.010694986209273">
        <ele>684.70000000000005</ele>
        <time>2003-04-16T14:47:57Z</time>
      </trkpt>
      <trkpt lat="30.907233031466603" lon="-4.009853024035692">
        <ele>684.29999999999995</ele>
        <time>2003-04-16T14:48:05Z</time>
      </trkpt>
      <trkpt lat="30.90716497041285" lon="-4.009326975792646">
        <ele>684.20000000000005</ele>
        <time>2003-04-16T14:48:11Z</time>
      </trkpt>
      <trkpt lat="30.90711803175509" lon="-4.009114997461438">
        <ele>684.20000000000005</ele>
        <time>2003-04-16T14:48:12Z</time>
      </trkpt>
      <trkpt lat="30.906976964324713" lon="-4.008436985313892">
        <ele>684.20000000000005</ele>
        <time>2003-04-16T14:48:19Z</time>
      </trkpt>
      <trkpt lat="30.906930025666952" lon="-4.008173039183021">
        <ele>684.60000000000002</ele>
        <time>2003-04-16T14:48:23Z</time>
      </trkpt>
      <trkpt lat="30.906843021512032" lon="-4.008047981187701">
        <ele>684.70000000000005</ele>
        <time>2003-04-16T14:48:24Z</time>
      </trkpt>
      <trkpt lat="30.906670019030571" lon="-4.00782996788621">
        <ele>684.5</ele>
        <time>2003-04-16T14:48:27Z</time>
      </trkpt>
      <trkpt lat="30.906349997967482" lon="-4.007437024265528">
        <ele>685</ele>
        <time>2003-04-16T14:48:32Z</time>
      </trkpt>
      <trkpt lat="30.906272968277335" lon="-4.007257986813784">
        <ele>685.10000000000002</ele>
        <time>2003-04-16T14:48:35Z</time>
      </trkpt>
      <trkpt lat="30.906259976327419" lon="-4.007148016244173">
        <ele>685.29999999999995</ele>
        <time>2003-04-16T14:48:35Z</time>
      </trkpt>
      <trkpt lat="30.906204991042614" lon="-4.006912987679243">
        <ele>685.39999999999998</ele>
        <time>2003-04-16T14:48:38Z</time>
      </trkpt>
      <trkpt lat="30.905961999669671" lon="-4.005783023312688">
        <ele>685.60000000000002</ele>
        <time>2003-04-16T14:48:46Z</time>
      </trkpt>
      <trkpt lat="30.905859991908073" lon="-4.004814997315407">
        <ele>684.89999999999998</ele>
        <time>2003-04-16T14:48:54Z</time>
      </trkpt>
      <trkpt lat="30.905838031321764" lon="-4.004707038402557">
        <ele>685.29999999999995</ele>
        <time>2003-04-16T14:48:55Z</time>
      </trkpt>
      <trkpt lat="30.90572495944798" lon="-4.004362039268017">
        <ele>685.29999999999995</ele>
        <time>2003-04-16T14:48:58Z</time>
      </trkpt>
      <trkpt lat="30.905418014153838" lon="-4.003486968576908">
        <ele>685.29999999999995</ele>
        <time>2003-04-16T14:49:06Z</time>
      </trkpt>
      <trkpt lat="30.905173011124134" lon="-4.002947006374598">
        <ele>685.5</ele>
        <time>2003-04-16T14:49:10Z</time>
      </trkpt>
      <trkpt lat="30.904704965651035" lon="-4.001928018406034">
        <ele>685.60000000000002</ele>
        <time>2003-04-16T14:49:17Z</time>
      </trkpt>
      <trkpt lat="30.904557025060058" lon="-4.001623000949621">
        <ele>685.5</ele>
        <time>2003-04-16T14:49:21Z</time>
      </trkpt>
      <trkpt lat="30.904482007026672" lon="-4.001453015953302">
        <ele>685.79999999999995</ele>
        <time>2003-04-16T14:49:22Z</time>
      </trkpt>
      <trkpt lat="30.904329959303141" lon="-4.001153027638793">
        <ele>686.29999999999995</ele>
        <time>2003-04-16T14:49:26Z</time>
      </trkpt>
      <trkpt lat="30.904177995398641" lon="-4.000829989090562">
        <ele>687.5</ele>
        <time>2003-04-16T14:49:30Z</time>
      </trkpt>
      <trkpt lat="30.904061989858747" lon="-4.000648017972708">
        <ele>687.39999999999998</ele>
        <time>2003-04-16T14:49:33Z</time>
      </trkpt>
      <trkpt lat="30.903750015422702" lon="-4.000145019963384">
        <ele>687.70000000000005</ele>
        <time>2003-04-16T14:49:39Z</time>
      </trkpt>
      <trkpt lat="30.903677009046078" lon="-4.00007201358676">
        <ele>687.89999999999998</ele>
        <time>2003-04-16T14:49:40Z</time>
      </trkpt>
      <trkpt lat="30.903605008497834" lon="-3.999991966411471">
        <ele>687.60000000000002</ele>
        <time>2003-04-16T14:49:43Z</time>
      </trkpt>
      <trkpt lat="30.903516998514533" lon="-3.99983799085021">
        <ele>688</ele>
        <time>2003-04-16T14:49:44Z</time>
      </trkpt>
      <trkpt lat="30.903362017124891" lon="-3.999587958678603">
        <ele>688</ele>
        <time>2003-04-16T14:49:48Z</time>
      </trkpt>
      <trkpt lat="30.902818031609058" lon="-3.99872001260519">
        <ele>689.29999999999995</ele>
        <time>2003-04-16T14:49:59Z</time>
      </trkpt>
      <trkpt lat="30.902368007227778" lon="-3.997719967737794">
        <ele>689.29999999999995</ele>
        <time>2003-04-16T14:50:10Z</time>
      </trkpt>
      <trkpt lat="30.902182012796402" lon="-3.997183023020625">
        <ele>689.89999999999998</ele>
        <time>2003-04-16T14:50:15Z</time>
      </trkpt>
      <trkpt lat="30.902116969227791" lon="-3.996878005564213">
        <ele>689.20000000000005</ele>
        <time>2003-04-16T14:50:19Z</time>
      </trkpt>
      <trkpt lat="30.902116969227791" lon="-3.996742973104119">
        <ele>689.5</ele>
        <time>2003-04-16T14:50:22Z</time>
      </trkpt>
      <trkpt lat="30.902146976441145" lon="-3.99661498144269">
        <ele>689.70000000000005</ele>
        <time>2003-04-16T14:50:23Z</time>
      </trkpt>
      <trkpt lat="30.902170026674867" lon="-3.996487995609641">
        <ele>690.79999999999995</ele>
        <time>2003-04-16T14:50:27Z</time>
      </trkpt>
      <trkpt lat="30.902332970872521" lon="-3.996392022818327">
        <ele>-236.80000000000001</ele>
        <time>2003-04-16T15:13:01Z</time>
      </trkpt>
      <trkpt lat="30.902431961148977" lon="-3.996326979249716">
        <ele>679.10000000000002</ele>
        <time>2003-04-16T15:13:04Z</time>
      </trkpt>
      <trkpt lat="30.902562970295548" lon="-3.996209967881441">
        <ele>689.79999999999995</ele>
        <time>2003-04-16T15:13:08Z</time>
      </trkpt>
      <trkpt lat="30.902805039659142" lon="-3.995978040620685">
        <ele>694.60000000000002</ele>
        <time>2003-04-16T15:13:13Z</time>
      </trkpt>
      <trkpt lat="30.903507024049759" lon="-3.9953020401299">
        <ele>698.79999999999995</ele>
        <time>2003-04-16T15:13:28Z</time>
      </trkpt>
      <trkpt lat="30.903737023472786" lon="-3.995076986029744">
        <ele>697.79999999999995</ele>
        <time>2003-04-16T15:13:31Z</time>
      </trkpt>
      <trkpt lat="30.903907008469105" lon="-3.994932984933257">
        <ele>697.70000000000005</ele>
        <time>2003-04-16T15:13:35Z</time>
      </trkpt>
      <trkpt lat="30.904107000678778" lon="-3.994827037677169">
        <ele>697.10000000000002</ele>
        <time>2003-04-16T15:13:38Z</time>
      </trkpt>
      <trkpt lat="30.904715023934841" lon="-3.994559990242124">
        <ele>693.20000000000005</ele>
        <time>2003-04-16T15:13:46Z</time>
      </trkpt>
      <trkpt lat="30.905178040266037" lon="-3.994410037994385">
        <ele>690.89999999999998</ele>
        <time>2003-04-16T15:13:51Z</time>
      </trkpt>
      <trkpt lat="30.905450033023953" lon="-3.994212979450822">
        <ele>690.70000000000005</ele>
        <time>2003-04-16T15:13:55Z</time>
      </trkpt>
      <trkpt lat="30.905716996639967" lon="-3.994003012776375">
        <ele>688.20000000000005</ele>
        <time>2003-04-16T15:13:59Z</time>
      </trkpt>
      <trkpt lat="30.9060899913311" lon="-3.993877032771707">
        <ele>687.39999999999998</ele>
        <time>2003-04-16T15:14:03Z</time>
      </trkpt>
      <trkpt lat="30.906521994620562" lon="-3.993807965889573">
        <ele>687</ele>
        <time>2003-04-16T15:14:09Z</time>
      </trkpt>
      <trkpt lat="30.906897000968456" lon="-3.99369003251195">
        <ele>688.10000000000002</ele>
        <time>2003-04-16T15:14:14Z</time>
      </trkpt>
      <trkpt lat="30.90705499984324" lon="-3.993602022528648">
        <ele>688.39999999999998</ele>
        <time>2003-04-16T15:14:15Z</time>
      </trkpt>
      <trkpt lat="30.907396981492639" lon="-3.993417033925653">
        <ele>688.79999999999995</ele>
        <time>2003-04-16T15:14:20Z</time>
      </trkpt>
      <trkpt lat="30.907942978665233" lon="-3.993258029222488">
        <ele>689.39999999999998</ele>
        <time>2003-04-16T15:14:25Z</time>
      </trkpt>
      <trkpt lat="30.908361990004778" lon="-3.993138000369072">
        <ele>690.5</ele>
        <time>2003-04-16T15:14:29Z</time>
      </trkpt>
      <trkpt lat="30.90873297303915" lon="-3.99294001981616">
        <ele>690.29999999999995</ele>
        <time>2003-04-16T15:14:33Z</time>
      </trkpt>
      <trkpt lat="30.909567978233099" lon="-3.99242696352303">
        <ele>691.20000000000005</ele>
        <time>2003-04-16T15:14:41Z</time>
      </trkpt>
      <trkpt lat="30.910414969548583" lon="-3.991918014362454">
        <ele>691.20000000000005</ele>
        <time>2003-04-16T15:14:49Z</time>
      </trkpt>
      <trkpt lat="30.911183003336191" lon="-3.991342009976506">
        <ele>690.60000000000002</ele>
        <time>2003-04-16T15:14:56Z</time>
      </trkpt>
      <trkpt lat="30.911526996642351" lon="-3.991117961704731">
        <ele>689.89999999999998</ele>
        <time>2003-04-16T15:15:00Z</time>
      </trkpt>
      <trkpt lat="30.91242796741426" lon="-3.990608006715775">
        <ele>689.70000000000005</ele>
        <time>2003-04-16T15:15:07Z</time>
      </trkpt>
      <trkpt lat="30.913357017561793" lon="-3.990156976506114">
        <ele>688.5</ele>
        <time>2003-04-16T15:15:14Z</time>
      </trkpt>
      <trkpt lat="30.913817016407847" lon="-3.989923037588596">
        <ele>687.60000000000002</ele>
        <time>2003-04-16T15:15:18Z</time>
      </trkpt>
      <trkpt lat="30.914405006915331" lon="-3.989669987931848">
        <ele>686.79999999999995</ele>
        <time>2003-04-16T15:15:23Z</time>
      </trkpt>
      <trkpt lat="30.91541200876236" lon="-3.989412998780608">
        <ele>686.29999999999995</ele>
        <time>2003-04-16T15:15:31Z</time>
      </trkpt>
      <trkpt lat="30.916371988132596" lon="-3.989222981035709">
        <ele>686</ele>
        <time>2003-04-16T15:15:38Z</time>
      </trkpt>
      <trkpt lat="30.917387958616018" lon="-3.989036986604333">
        <ele>685.89999999999998</ele>
        <time>2003-04-16T15:15:45Z</time>
      </trkpt>
      <trkpt lat="30.918220030143857" lon="-3.988930033519864">
        <ele>685.79999999999995</ele>
        <time>2003-04-16T15:15:50Z</time>
      </trkpt>
      <trkpt lat="30.918950010091066" lon="-3.988830037415028">
        <ele>686</ele>
        <time>2003-04-16T15:15:57Z</time>
      </trkpt>
      <trkpt lat="30.919214962050319" lon="-3.988822996616364">
        <ele>685.89999999999998</ele>
        <time>2003-04-16T15:15:58Z</time>
      </trkpt>
      <trkpt lat="30.919619975611567" lon="-3.988731969147921">
        <ele>686</ele>
        <time>2003-04-16T15:16:02Z</time>
      </trkpt>
      <trkpt lat="30.920623037964106" lon="-3.988476991653442">
        <ele>686.39999999999998</ele>
        <time>2003-04-16T15:16:10Z</time>
      </trkpt>
      <trkpt lat="30.92097700573504" lon="-3.988467017188668">
        <ele>688.60000000000002</ele>
        <time>2003-04-16T15:16:13Z</time>
      </trkpt>
      <trkpt lat="30.921178003773093" lon="-3.988428041338921">
        <ele>689</ele>
        <time>2003-04-16T15:16:14Z</time>
      </trkpt>
      <trkpt lat="30.921286968514323" lon="-3.988371966406703">
        <ele>685.60000000000002</ele>
        <time>2003-04-16T15:16:16Z</time>
      </trkpt>
      <trkpt lat="30.921498024836183" lon="-3.988208016380668">
        <ele>685.39999999999998</ele>
        <time>2003-04-16T15:16:17Z</time>
      </trkpt>
      <trkpt lat="30.921955006197095" lon="-3.987737037241459">
        <ele>685.89999999999998</ele>
        <time>2003-04-16T15:16:22Z</time>
      </trkpt>
      <trkpt lat="30.922134965658188" lon="-3.987437970936298">
        <ele>685.60000000000002</ele>
        <time>2003-04-16T15:16:25Z</time>
      </trkpt>
      <trkpt lat="30.922205038368702" lon="-3.987285001203418">
        <ele>685.70000000000005</ele>
        <time>2003-04-16T15:16:28Z</time>
      </trkpt>
      <trkpt lat="30.922302016988397" lon="-3.987143011763692">
        <ele>685.60000000000002</ele>
        <time>2003-04-16T15:16:29Z</time>
      </trkpt>
      <trkpt lat="30.922367982566357" lon="-3.987024994567037">
        <ele>685.5</ele>
        <time>2003-04-16T15:16:32Z</time>
      </trkpt>
      <trkpt lat="30.922462027519941" lon="-3.986892979592085">
        <ele>685.5</ele>
        <time>2003-04-16T15:16:33Z</time>
      </trkpt>
      <trkpt lat="30.922582978382707" lon="-3.986743027344346">
        <ele>685.39999999999998</ele>
        <time>2003-04-16T15:16:36Z</time>
      </trkpt>
      <trkpt lat="30.922722034156322" lon="-3.98655996657908">
        <ele>685.29999999999995</ele>
        <time>2003-04-16T15:16:37Z</time>
      </trkpt>
      <trkpt lat="30.923086982220411" lon="-3.986014975234866">
        <ele>684.89999999999998</ele>
        <time>2003-04-16T15:16:43Z</time>
      </trkpt>
      <trkpt lat="30.923376996070147" lon="-3.98559202440083">
        <ele>684.70000000000005</ele>
        <time>2003-04-16T15:16:47Z</time>
      </trkpt>
      <trkpt lat="30.923962974920869" lon="-3.984812004491687">
        <ele>684.39999999999998</ele>
        <time>2003-04-16T15:16:55Z</time>
      </trkpt>
      <trkpt lat="30.924006979912519" lon="-3.984700022265315">
        <ele>684.29999999999995</ele>
        <time>2003-04-16T15:16:56Z</time>
      </trkpt>
      <trkpt lat="30.924327000975609" lon="-3.983957972377539">
        <ele>684.79999999999995</ele>
        <time>2003-04-16T15:17:02Z</time>
      </trkpt>
      <trkpt lat="30.924751963466406" lon="-3.983121961355209">
        <ele>686.29999999999995</ele>
        <time>2003-04-16T15:17:08Z</time>
      </trkpt>
      <trkpt lat="30.925402985885739" lon="-3.982277987524867">
        <ele>689.89999999999998</ele>
        <time>2003-04-16T15:17:16Z</time>
      </trkpt>
      <trkpt lat="30.925689982250333" lon="-3.981855036690831">
        <ele>690.10000000000002</ele>
        <time>2003-04-16T15:17:19Z</time>
      </trkpt>
      <trkpt lat="30.92639297246933" lon="-3.980966974049807">
        <ele>690.70000000000005</ele>
        <time>2003-04-16T15:17:26Z</time>
      </trkpt>
      <trkpt lat="30.92718699015677" lon="-3.980121994391084">
        <ele>690.5</ele>
        <time>2003-04-16T15:17:31Z</time>
      </trkpt>
      <trkpt lat="30.927880005910993" lon="-3.979420010000467">
        <ele>690.70000000000005</ele>
        <time>2003-04-16T15:17:37Z</time>
      </trkpt>
      <trkpt lat="30.928383003920317" lon="-3.978930003941059">
        <ele>690.20000000000005</ele>
        <time>2003-04-16T15:17:41Z</time>
      </trkpt>
      <trkpt lat="30.928619960322976" lon="-3.978751972317696">
        <ele>690.29999999999995</ele>
        <time>2003-04-16T15:17:42Z</time>
      </trkpt>
      <trkpt lat="30.92886496335268" lon="-3.97865298204124">
        <ele>689.29999999999995</ele>
        <time>2003-04-16T15:17:45Z</time>
      </trkpt>
      <trkpt lat="30.929082976654172" lon="-3.97860998287797">
        <ele>686.79999999999995</ele>
        <time>2003-04-16T15:17:46Z</time>
      </trkpt>
      <trkpt lat="30.929284980520606" lon="-3.978533037006855">
        <ele>685.79999999999995</ele>
        <time>2003-04-16T15:17:49Z</time>
      </trkpt>
      <trkpt lat="30.929757971316576" lon="-3.978336984291673">
        <ele>685.60000000000002</ele>
        <time>2003-04-16T15:17:53Z</time>
      </trkpt>
      <trkpt lat="30.93047303147614" lon="-3.978040013462305">
        <ele>685.39999999999998</ele>
        <time>2003-04-16T15:17:58Z</time>
      </trkpt>
      <trkpt lat="30.93133301474154" lon="-3.977723009884358">
        <ele>686.10000000000002</ele>
        <time>2003-04-16T15:18:04Z</time>
      </trkpt>
      <trkpt lat="30.932202972471714" lon="-3.977377004921436">
        <ele>686.20000000000005</ele>
        <time>2003-04-16T15:18:09Z</time>
      </trkpt>
      <trkpt lat="30.933012999594212" lon="-3.977047009393573">
        <ele>0</ele>
        <time>2003-04-16T15:18:16Z</time>
      </trkpt>
      <trkpt lat="30.93343704007566" lon="-3.976899990811944">
        <ele>686.60000000000002</ele>
        <time>2003-04-16T15:18:20Z</time>
      </trkpt>
      <trkpt lat="30.933644995093346" lon="-3.976893033832312">
        <ele>686.39999999999998</ele>
        <time>2003-04-16T15:18:21Z</time>
      </trkpt>
      <trkpt lat="30.933961998671293" lon="-3.976937038823962">
        <ele>686.60000000000002</ele>
        <time>2003-04-16T15:18:25Z</time>
      </trkpt>
      <trkpt lat="30.934252012521029" lon="-3.976954976096749">
        <ele>686.70000000000005</ele>
        <time>2003-04-16T15:18:29Z</time>
      </trkpt>
      <trkpt lat="30.93440699391067" lon="-3.976962016895413">
        <ele>686.89999999999998</ele>
        <time>2003-04-16T15:18:32Z</time>
      </trkpt>
      <trkpt lat="30.934559963643551" lon="-3.976965034380555">
        <ele>687.29999999999995</ele>
        <time>2003-04-16T15:18:33Z</time>
      </trkpt>
      <trkpt lat="30.934834973886609" lon="-3.976942989975214">
        <ele>687.39999999999998</ele>
        <time>2003-04-16T15:18:36Z</time>
      </trkpt>
      <trkpt lat="30.934932958334684" lon="-3.976945001631975">
        <ele>687.39999999999998</ele>
        <time>2003-04-16T15:18:37Z</time>
      </trkpt>
      <trkpt lat="30.935027003288269" lon="-3.976942989975214">
        <ele>687.5</ele>
        <time>2003-04-16T15:18:39Z</time>
      </trkpt>
      <trkpt lat="30.935417013242841" lon="-3.97689001634717">
        <ele>687.60000000000002</ele>
        <time>2003-04-16T15:18:43Z</time>
      </trkpt>
      <trkpt lat="30.935666961595416" lon="-3.976839976385236">
        <ele>687.79999999999995</ele>
        <time>2003-04-16T15:18:45Z</time>
      </trkpt>
      <trkpt lat="30.935786990448833" lon="-3.976822039112449">
        <ele>687.89999999999998</ele>
        <time>2003-04-16T15:18:48Z</time>
      </trkpt>
      <trkpt lat="30.935969967395067" lon="-3.976793037727475">
        <ele>687.70000000000005</ele>
        <time>2003-04-16T15:18:50Z</time>
      </trkpt>
      <trkpt lat="30.936352014541626" lon="-3.976741991937161">
        <ele>687.79999999999995</ele>
        <time>2003-04-16T15:18:55Z</time>
      </trkpt>
      <trkpt lat="30.936591988429427" lon="-3.976702010259032">
        <ele>687.39999999999998</ele>
        <time>2003-04-16T15:18:58Z</time>
      </trkpt>
      <trkpt lat="30.93700697645545" lon="-3.976677032187581">
        <ele>687.39999999999998</ele>
        <time>2003-04-16T15:19:03Z</time>
      </trkpt>
      <trkpt lat="30.937145026400685" lon="-3.976735034957528">
        <ele>687.5</ele>
        <time>2003-04-16T15:19:04Z</time>
      </trkpt>
      <trkpt lat="30.937218032777309" lon="-3.976796977221966">
        <ele>687.39999999999998</ele>
        <time>2003-04-16T15:19:06Z</time>
      </trkpt>
      <trkpt lat="30.937869977205992" lon="-3.977317996323109">
        <ele>687.79999999999995</ele>
        <time>2003-04-16T15:19:15Z</time>
      </trkpt>
      <trkpt lat="30.938033005222678" lon="-3.977399971336126">
        <ele>687.70000000000005</ele>
        <time>2003-04-16T15:19:17Z</time>
      </trkpt>
      <trkpt lat="30.938242971897125" lon="-3.977467026561499">
        <ele>688</ele>
        <time>2003-04-16T15:19:19Z</time>
      </trkpt>
      <trkpt lat="30.938623007386923" lon="-3.977537015452981">
        <ele>687.60000000000002</ele>
        <time>2003-04-16T15:19:22Z</time>
      </trkpt>
      <trkpt lat="30.939469998702407" lon="-3.977662995457649">
        <ele>688.10000000000002</ele>
        <time>2003-04-16T15:19:29Z</time>
      </trkpt>
      <trkpt lat="30.939572006464005" lon="-3.97768696770072">
        <ele>688.10000000000002</ele>
        <time>2003-04-16T15:19:30Z</time>
      </trkpt>
      <trkpt lat="30.939882975071669" lon="-3.977747987955809">
        <ele>688.10000000000002</ele>
        <time>2003-04-16T15:19:34Z</time>
      </trkpt>
      <trkpt lat="30.940092019736767" lon="-3.977787969633937">
        <ele>688.20000000000005</ele>
        <time>2003-04-16T15:19:37Z</time>
      </trkpt>
      <trkpt lat="30.940297963097692" lon="-3.977802973240614">
        <ele>687.79999999999995</ele>
        <time>2003-04-16T15:19:38Z</time>
      </trkpt>
      <trkpt lat="30.94040198251605" lon="-3.97779299877584">
        <ele>688</ele>
        <time>2003-04-16T15:19:39Z</time>
      </trkpt>
      <trkpt lat="30.940501978620887" lon="-3.977798027917743">
        <ele>687.89999999999998</ele>
        <time>2003-04-16T15:19:41Z</time>
      </trkpt>
      <trkpt lat="30.94070297665894" lon="-3.977828035131097">
        <ele>688.10000000000002</ele>
        <time>2003-04-16T15:19:42Z</time>
      </trkpt>
      <trkpt lat="30.940786963328719" lon="-3.977872040122747">
        <ele>688.10000000000002</ele>
        <time>2003-04-16T15:19:44Z</time>
      </trkpt>
      <trkpt lat="30.940877990797162" lon="-3.977891989052296">
        <ele>688.10000000000002</ele>
        <time>2003-04-16T15:19:45Z</time>
      </trkpt>
      <trkpt lat="30.941406972706318" lon="-3.978000031784177">
        <ele>688</ele>
        <time>2003-04-16T15:19:49Z</time>
      </trkpt>
      <trkpt lat="30.941522978246212" lon="-3.977995002642274">
        <ele>688</ele>
        <time>2003-04-16T15:19:50Z</time>
      </trkpt>
      <trkpt lat="30.941896978765726" lon="-3.977998020127416">
        <ele>688.20000000000005</ele>
        <time>2003-04-16T15:19:53Z</time>
      </trkpt>
      <trkpt lat="30.942817982286215" lon="-3.978087035939097">
        <ele>687.89999999999998</ele>
        <time>2003-04-16T15:20:01Z</time>
      </trkpt>
      <trkpt lat="30.942928036674857" lon="-3.97811695933342">
        <ele>687.89999999999998</ele>
        <time>2003-04-16T15:20:01Z</time>
      </trkpt>
      <trkpt lat="30.943492976948619" lon="-3.978236988186836">
        <ele>688</ele>
        <time>2003-04-16T15:20:06Z</time>
      </trkpt>
      <trkpt lat="30.943598002195358" lon="-3.978234976530075">
        <ele>688</ele>
        <time>2003-04-16T15:20:08Z</time>
      </trkpt>
      <trkpt lat="30.943760024383664" lon="-3.978198012337089">
        <ele>688.10000000000002</ele>
        <time>2003-04-16T15:20:09Z</time>
      </trkpt>
      <trkpt lat="30.943869994953275" lon="-3.978106984868646">
        <ele>688.20000000000005</ele>
        <time>2003-04-16T15:20:12Z</time>
      </trkpt>
      <trkpt lat="30.944066969677806" lon="-3.97794303484261">
        <ele>688</ele>
        <time>2003-04-16T15:20:15Z</time>
      </trkpt>
      <trkpt lat="30.944162020459771" lon="-3.97792199626565">
        <ele>688</ele>
        <time>2003-04-16T15:20:16Z</time>
      </trkpt>
      <trkpt lat="30.944382967427373" lon="-3.977892994880676">
        <ele>687.89999999999998</ele>
        <time>2003-04-16T15:20:17Z</time>
      </trkpt>
      <trkpt lat="30.944644985720515" lon="-3.977868016809225">
        <ele>687.79999999999995</ele>
        <time>2003-04-16T15:20:20Z</time>
      </trkpt>
      <trkpt lat="30.945602031424642" lon="-3.977753017097712">
        <ele>687.5</ele>
        <time>2003-04-16T15:20:27Z</time>
      </trkpt>
      <trkpt lat="30.946559999138117" lon="-3.977498039603233">
        <ele>687.5</ele>
        <time>2003-04-16T15:20:32Z</time>
      </trkpt>
      <trkpt lat="30.947583010420203" lon="-3.977175001055002">
        <ele>687.39999999999998</ele>
        <time>2003-04-16T15:20:39Z</time>
      </trkpt>
      <trkpt lat="30.948454979807138" lon="-3.976907031610608">
        <ele>687.39999999999998</ele>
        <time>2003-04-16T15:20:43Z</time>
      </trkpt>
      <trkpt lat="30.949377994984388" lon="-3.976636966690421">
        <ele>687.39999999999998</ele>
        <time>2003-04-16T15:20:48Z</time>
      </trkpt>
      <trkpt lat="30.950312996283174" lon="-3.976362040266395">
        <ele>687.60000000000002</ele>
        <time>2003-04-16T15:20:54Z</time>
      </trkpt>
      <trkpt lat="30.951283033937216" lon="-3.976064985617995">
        <ele>687.5</ele>
        <time>2003-04-16T15:20:59Z</time>
      </trkpt>
      <trkpt lat="30.952262040227652" lon="-3.975782012566924">
        <ele>687.5</ele>
        <time>2003-04-16T15:21:03Z</time>
      </trkpt>
      <trkpt lat="30.953157981857657" lon="-3.975523011758924">
        <ele>687.5</ele>
        <time>2003-04-16T15:21:10Z</time>
      </trkpt>
      <trkpt lat="30.95393699593842" lon="-3.975337017327547">
        <ele>687.39999999999998</ele>
        <time>2003-04-16T15:21:14Z</time>
      </trkpt>
      <trkpt lat="30.95479303970933" lon="-3.975110035389662">
        <ele>687.5</ele>
        <time>2003-04-16T15:21:21Z</time>
      </trkpt>
      <trkpt lat="30.955056985840201" lon="-3.975117998197675">
        <ele>687.29999999999995</ele>
        <time>2003-04-16T15:21:22Z</time>
      </trkpt>
      <trkpt lat="30.955187994986773" lon="-3.975116992369294">
        <ele>687.5</ele>
        <time>2003-04-16T15:21:23Z</time>
      </trkpt>
      <trkpt lat="30.955637013539672" lon="-3.975044991821051">
        <ele>687.29999999999995</ele>
        <time>2003-04-16T15:21:27Z</time>
      </trkpt>
      <trkpt lat="30.956113021820784" lon="-3.97487198933959">
        <ele>688.10000000000002</ele>
        <time>2003-04-16T15:21:32Z</time>
      </trkpt>
      <trkpt lat="30.956243025138974" lon="-3.974878024309874">
        <ele>688.60000000000002</ele>
        <time>2003-04-16T15:21:33Z</time>
      </trkpt>
      <trkpt lat="30.957150030881166" lon="-3.974990006536245">
        <ele>689.70000000000005</ele>
        <time>2003-04-16T15:21:40Z</time>
      </trkpt>
      <trkpt lat="30.957290008664131" lon="-3.974984977394342">
        <ele>688.79999999999995</ele>
        <time>2003-04-16T15:21:41Z</time>
      </trkpt>
      <trkpt lat="30.957574993371964" lon="-3.97493502125144">
        <ele>689.10000000000002</ele>
        <time>2003-04-16T15:21:42Z</time>
      </trkpt>
      <trkpt lat="30.95786701887846" lon="-3.974909959360957">
        <ele>689.5</ele>
        <time>2003-04-16T15:21:45Z</time>
      </trkpt>
      <trkpt lat="30.958017976954579" lon="-3.974911971017718">
        <ele>689.60000000000002</ele>
        <time>2003-04-16T15:21:45Z</time>
      </trkpt>
      <trkpt lat="30.958315031602979" lon="-3.974959999322891">
        <ele>690.10000000000002</ele>
        <time>2003-04-16T15:21:48Z</time>
      </trkpt>
      <trkpt lat="30.958718033507466" lon="-3.974996963515878">
        <ele>690.79999999999995</ele>
        <time>2003-04-16T15:21:50Z</time>
      </trkpt>
      <trkpt lat="30.959235029295087" lon="-3.9750200137496">
        <ele>691.89999999999998</ele>
        <time>2003-04-16T15:21:54Z</time>
      </trkpt>
      <trkpt lat="30.959362015128136" lon="-3.974992018193007">
        <ele>692.20000000000005</ele>
        <time>2003-04-16T15:21:56Z</time>
      </trkpt>
      <trkpt lat="30.959761999547482" lon="-3.974941978231072">
        <ele>693.39999999999998</ele>
        <time>2003-04-16T15:21:59Z</time>
      </trkpt>
      <trkpt lat="30.959893008694053" lon="-3.974948013201356">
        <ele>693.89999999999998</ele>
        <time>2003-04-16T15:22:00Z</time>
      </trkpt>
      <trkpt lat="30.96001697704196" lon="-3.974948013201356">
        <ele>694.20000000000005</ele>
        <time>2003-04-16T15:22:01Z</time>
      </trkpt>
      <trkpt lat="30.960134994238615" lon="-3.974952036514878">
        <ele>694.60000000000002</ele>
        <time>2003-04-16T15:22:01Z</time>
      </trkpt>
      <trkpt lat="30.960240019485354" lon="-3.974939966574311">
        <ele>694.60000000000002</ele>
        <time>2003-04-16T15:22:03Z</time>
      </trkpt>
      <trkpt lat="30.96040497533977" lon="-3.974927980452776">
        <ele>694.79999999999995</ele>
        <time>2003-04-16T15:22:04Z</time>
      </trkpt>
      <trkpt lat="30.960615025833249" lon="-3.974962010979652">
        <ele>695.39999999999998</ele>
        <time>2003-04-16T15:22:07Z</time>
      </trkpt>
      <trkpt lat="30.960987014696002" lon="-3.975007021799684">
        <ele>696.89999999999998</ele>
        <time>2003-04-16T15:22:09Z</time>
      </trkpt>
      <trkpt lat="30.961126992478967" lon="-3.975002998486161">
        <ele>697.5</ele>
        <time>2003-04-16T15:22:11Z</time>
      </trkpt>
      <trkpt lat="30.961938025429845" lon="-3.974917000159621">
        <ele>700.70000000000005</ele>
        <time>2003-04-16T15:22:16Z</time>
      </trkpt>
      <trkpt lat="30.962501959875226" lon="-3.9747419860214">
        <ele>701.89999999999998</ele>
        <time>2003-04-16T15:22:20Z</time>
      </trkpt>
      <trkpt lat="30.963437967002392" lon="-3.974306965246797">
        <ele>702.10000000000002</ele>
        <time>2003-04-16T15:22:27Z</time>
      </trkpt>
      <trkpt lat="30.964319994673133" lon="-3.973872028291225">
        <ele>701.79999999999995</ele>
        <time>2003-04-16T15:22:31Z</time>
      </trkpt>
      <trkpt lat="30.96523798070848" lon="-3.973425021395087">
        <ele>701.89999999999998</ele>
        <time>2003-04-16T15:22:36Z</time>
      </trkpt>
      <trkpt lat="30.965881962329149" lon="-3.973107011988759">
        <ele>701.79999999999995</ele>
        <time>2003-04-16T15:22:40Z</time>
      </trkpt>
      <trkpt lat="30.966723002493382" lon="-3.972696969285607">
        <ele>702.29999999999995</ele>
        <time>2003-04-16T15:22:47Z</time>
      </trkpt>
      <trkpt lat="30.96766697242856" lon="-3.972217021510005">
        <ele>703.29999999999995</ele>
        <time>2003-04-16T15:22:54Z</time>
      </trkpt>
      <trkpt lat="30.968625023961067" lon="-3.971849977970123">
        <ele>702.89999999999998</ele>
        <time>2003-04-16T15:23:01Z</time>
      </trkpt>
      <trkpt lat="30.96897698007524" lon="-3.971802033483982">
        <ele>703.20000000000005</ele>
        <time>2003-04-16T15:23:03Z</time>
      </trkpt>
      <trkpt lat="30.96910203807056" lon="-3.97182198241353">
        <ele>703</ele>
        <time>2003-04-16T15:23:05Z</time>
      </trkpt>
      <trkpt lat="30.969228018075228" lon="-3.9718649815768">
        <ele>703</ele>
        <time>2003-04-16T15:23:06Z</time>
      </trkpt>
      <trkpt lat="30.969887003302574" lon="-3.972143009305">
        <ele>704.10000000000002</ele>
        <time>2003-04-16T15:23:10Z</time>
      </trkpt>
      <trkpt lat="30.970259997993708" lon="-3.97237803786993">
        <ele>703.89999999999998</ele>
        <time>2003-04-16T15:23:14Z</time>
      </trkpt>
      <trkpt lat="30.971013028174639" lon="-3.973041968420148">
        <ele>701.29999999999995</ele>
        <time>2003-04-16T15:23:20Z</time>
      </trkpt>
      <trkpt lat="30.971739990636706" lon="-3.973698019981384">
        <ele>700.5</ele>
        <time>2003-04-16T15:23:25Z</time>
      </trkpt>
      <trkpt lat="30.972514981403947" lon="-3.974447026848793">
        <ele>699.39999999999998</ele>
        <time>2003-04-16T15:23:32Z</time>
      </trkpt>
      <trkpt lat="30.973342023789883" lon="-3.97515001706779">
        <ele>699.29999999999995</ele>
        <time>2003-04-16T15:23:37Z</time>
      </trkpt>
      <trkpt lat="30.974247017875314" lon="-3.975797016173601">
        <ele>698.70000000000005</ele>
        <time>2003-04-16T15:23:44Z</time>
      </trkpt>
      <trkpt lat="30.974639961495996" lon="-3.976037995889783">
        <ele>699.20000000000005</ele>
        <time>2003-04-16T15:23:47Z</time>
      </trkpt>
      <trkpt lat="30.974822016432881" lon="-3.976132040843368">
        <ele>699</ele>
        <time>2003-04-16T15:23:49Z</time>
      </trkpt>
      <trkpt lat="30.974961994215846" lon="-3.976185014471412">
        <ele>698.20000000000005</ele>
        <time>2003-04-16T15:23:51Z</time>
      </trkpt>
      <trkpt lat="30.975387962535024" lon="-3.976370003074408">
        <ele>694.10000000000002</ele>
        <time>2003-04-16T15:23:56Z</time>
      </trkpt>
      <trkpt lat="30.975459963083267" lon="-3.97646295838058">
        <ele>693.20000000000005</ele>
        <time>2003-04-16T15:23:56Z</time>
      </trkpt>
      <trkpt lat="30.975502962246537" lon="-3.976566977798939">
        <ele>693</ele>
        <time>2003-04-16T15:23:57Z</time>
      </trkpt>
      <trkpt lat="30.975681999698281" lon="-3.976909965276718">
        <ele>693.10000000000002</ele>
        <time>2003-04-16T15:24:00Z</time>
      </trkpt>
      <trkpt lat="30.975855002179742" lon="-3.977180030196905">
        <ele>693</ele>
        <time>2003-04-16T15:24:03Z</time>
      </trkpt>
      <trkpt lat="30.976442992687225" lon="-3.977977987378836">
        <ele>692.79999999999995</ele>
        <time>2003-04-16T15:24:08Z</time>
      </trkpt>
      <trkpt lat="30.977153023704886" lon="-3.978677038103342">
        <ele>693</ele>
        <time>2003-04-16T15:24:15Z</time>
      </trkpt>
      <trkpt lat="30.977359972894192" lon="-3.978850040584803">
        <ele>692.89999999999998</ele>
        <time>2003-04-16T15:24:16Z</time>
      </trkpt>
      <trkpt lat="30.977474972605705" lon="-3.978952970355749">
        <ele>692.79999999999995</ele>
        <time>2003-04-16T15:24:19Z</time>
      </trkpt>
      <trkpt lat="30.977570023387671" lon="-3.97903704084456">
        <ele>693</ele>
        <time>2003-04-16T15:24:20Z</time>
      </trkpt>
      <trkpt lat="30.977768003940582" lon="-3.979205014184117">
        <ele>692.89999999999998</ele>
        <time>2003-04-16T15:24:23Z</time>
      </trkpt>
      <trkpt lat="30.977945029735565" lon="-3.979348009452224">
        <ele>693</ele>
        <time>2003-04-16T15:24:26Z</time>
      </trkpt>
      <trkpt lat="30.978249963372946" lon="-3.979622013866901">
        <ele>693.20000000000005</ele>
        <time>2003-04-16T15:24:28Z</time>
      </trkpt>
      <trkpt lat="30.979086980223656" lon="-3.980312012135983">
        <ele>693.39999999999998</ele>
        <time>2003-04-16T15:24:35Z</time>
      </trkpt>
      <trkpt lat="30.979338018223643" lon="-3.980446960777044">
        <ele>693.29999999999995</ele>
        <time>2003-04-16T15:24:38Z</time>
      </trkpt>
      <trkpt lat="30.97946198657155" lon="-3.980485014617443">
        <ele>693.29999999999995</ele>
        <time>2003-04-16T15:24:39Z</time>
      </trkpt>
      <trkpt lat="30.979917962104082" lon="-3.980622980743647">
        <ele>693.39999999999998</ele>
        <time>2003-04-16T15:24:43Z</time>
      </trkpt>
      <trkpt lat="30.980002032592893" lon="-3.980662962421775">
        <ele>693.39999999999998</ele>
        <time>2003-04-16T15:24:43Z</time>
      </trkpt>
      <trkpt lat="30.980130024254322" lon="-3.980721971020103">
        <ele>695.70000000000005</ele>
        <time>2003-04-16T15:24:46Z</time>
      </trkpt>
      <trkpt lat="30.980291962623596" lon="-3.980752984061837">
        <ele>694.10000000000002</ele>
        <time>2003-04-16T15:24:47Z</time>
      </trkpt>
      <trkpt lat="30.98049296066165" lon="-3.980821967124939">
        <ele>693.60000000000002</ele>
        <time>2003-04-16T15:24:50Z</time>
      </trkpt>
      <trkpt lat="30.980722038075328" lon="-3.980933027341962">
        <ele>694.10000000000002</ele>
        <time>2003-04-16T15:24:51Z</time>
      </trkpt>
      <trkpt lat="30.981310028582811" lon="-3.981318008154631">
        <ele>694.10000000000002</ele>
        <time>2003-04-16T15:24:57Z</time>
      </trkpt>
      <trkpt lat="30.982036991044879" lon="-3.981772977858782">
        <ele>694.70000000000005</ele>
        <time>2003-04-16T15:25:03Z</time>
      </trkpt>
      <trkpt lat="30.982251986861229" lon="-3.981907004490495">
        <ele>695.10000000000002</ele>
        <time>2003-04-16T15:25:06Z</time>
      </trkpt>
      <trkpt lat="30.982347959652543" lon="-3.982023010030389">
        <ele>696.60000000000002</ele>
        <time>2003-04-16T15:25:06Z</time>
      </trkpt>
      <trkpt lat="30.982951959595084" lon="-3.982755001634359">
        <ele>698.70000000000005</ele>
        <time>2003-04-16T15:25:13Z</time>
      </trkpt>
      <trkpt lat="30.983056984841824" lon="-3.982809986919165">
        <ele>698.60000000000002</ele>
        <time>2003-04-16T15:25:14Z</time>
      </trkpt>
      <trkpt lat="30.983472978696227" lon="-3.983033029362559">
        <ele>695.70000000000005</ele>
        <time>2003-04-16T15:25:18Z</time>
      </trkpt>
      <trkpt lat="30.983689986169338" lon="-3.983236961066723">
        <ele>694.70000000000005</ele>
        <time>2003-04-16T15:25:21Z</time>
      </trkpt>
      <trkpt lat="30.984053006395698" lon="-3.983682040125132">
        <ele>694.60000000000002</ele>
        <time>2003-04-16T15:25:25Z</time>
      </trkpt>
      <trkpt lat="30.984360035508871" lon="-3.984061991795898">
        <ele>693.89999999999998</ele>
        <time>2003-04-16T15:25:29Z</time>
      </trkpt>
      <trkpt lat="30.98446698859334" lon="-3.984176991507411">
        <ele>693.70000000000005</ele>
        <time>2003-04-16T15:25:30Z</time>
      </trkpt>
      <trkpt lat="30.984679972752929" lon="-3.984407996758819">
        <ele>694.29999999999995</ele>
        <time>2003-04-16T15:25:33Z</time>
      </trkpt>
      <trkpt lat="30.985209960490465" lon="-3.984962040558457">
        <ele>695.60000000000002</ele>
        <time>2003-04-16T15:25:40Z</time>
      </trkpt>
      <trkpt lat="30.985429985448718" lon="-3.985090032219887">
        <ele>695.20000000000005</ele>
        <time>2003-04-16T15:25:43Z</time>
      </trkpt>
      <trkpt lat="30.985704995691776" lon="-3.985190028324723">
        <ele>695.10000000000002</ele>
        <time>2003-04-16T15:25:44Z</time>
      </trkpt>
      <trkpt lat="30.986222997307777" lon="-3.985417010262609">
        <ele>695.20000000000005</ele>
        <time>2003-04-16T15:25:48Z</time>
      </trkpt>
      <trkpt lat="30.98644201643765" lon="-3.985584983602166">
        <ele>695.20000000000005</ele>
        <time>2003-04-16T15:25:51Z</time>
      </trkpt>
      <trkpt lat="30.986639996990561" lon="-3.985812971368432">
        <ele>695.29999999999995</ele>
        <time>2003-04-16T15:25:52Z</time>
      </trkpt>
      <trkpt lat="30.98689497448504" lon="-3.986231982707977">
        <ele>695.70000000000005</ele>
        <time>2003-04-16T15:25:56Z</time>
      </trkpt>
      <trkpt lat="30.98732303828001" lon="-3.987226998433471">
        <ele>695.70000000000005</ele>
        <time>2003-04-16T15:26:03Z</time>
      </trkpt>
      <trkpt lat="30.9874979685992" lon="-3.987475018948317">
        <ele>695.39999999999998</ele>
        <time>2003-04-16T15:26:04Z</time>
      </trkpt>
      <trkpt lat="30.988157959654927" lon="-3.988340031355619">
        <ele>695.29999999999995</ele>
        <time>2003-04-16T15:26:11Z</time>
      </trkpt>
      <trkpt lat="30.98863204009831" lon="-3.988952999934554">
        <ele>695.29999999999995</ele>
        <time>2003-04-16T15:26:16Z</time>
      </trkpt>
      <trkpt lat="30.989382974803448" lon="-3.989654984325171">
        <ele>695.60000000000002</ele>
        <time>2003-04-16T15:26:23Z</time>
      </trkpt>
      <trkpt lat="30.989716993644834" lon="-3.989937035366893">
        <ele>695.5</ele>
        <time>2003-04-16T15:26:26Z</time>
      </trkpt>
      <trkpt lat="30.990421995520592" lon="-3.990607000887394">
        <ele>695.60000000000002</ele>
        <time>2003-04-16T15:26:33Z</time>
      </trkpt>
      <trkpt lat="30.99114996381104" lon="-3.991273026913405">
        <ele>696.20000000000005</ele>
        <time>2003-04-16T15:26:38Z</time>
      </trkpt>
      <trkpt lat="30.991465039551258" lon="-3.991542002186179">
        <ele>695.89999999999998</ele>
        <time>2003-04-16T15:26:42Z</time>
      </trkpt>
      <trkpt lat="30.99226500838995" lon="-3.992282040417194">
        <ele>696.20000000000005</ele>
        <time>2003-04-16T15:26:49Z</time>
      </trkpt>
      <trkpt lat="30.993012003600597" lon="-3.992958040907979">
        <ele>696.39999999999998</ele>
        <time>2003-04-16T15:26:54Z</time>
      </trkpt>
      <trkpt lat="30.993778025731444" lon="-3.993645021691918">
        <ele>696.39999999999998</ele>
        <time>2003-04-16T15:27:01Z</time>
      </trkpt>
      <trkpt lat="30.994192007929087" lon="-3.994051963090897">
        <ele>696.60000000000002</ele>
        <time>2003-04-16T15:27:05Z</time>
      </trkpt>
      <trkpt lat="30.994840012863278" lon="-3.994553033262491">
        <ele>697.89999999999998</ele>
        <time>2003-04-16T15:27:10Z</time>
      </trkpt>
      <trkpt lat="30.995560018345714" lon="-3.995383009314537">
        <ele>698.39999999999998</ele>
        <time>2003-04-16T15:27:17Z</time>
      </trkpt>
      <trkpt lat="30.996135016903281" lon="-3.99577796459198">
        <ele>698.60000000000002</ele>
        <time>2003-04-16T15:27:21Z</time>
      </trkpt>
      <trkpt lat="30.996961975470185" lon="-3.996251961216331">
        <ele>699.29999999999995</ele>
        <time>2003-04-16T15:27:28Z</time>
      </trkpt>
      <trkpt lat="30.99757201038301" lon="-3.996471986174583">
        <ele>699.89999999999998</ele>
        <time>2003-04-16T15:27:32Z</time>
      </trkpt>
      <trkpt lat="30.998610025271773" lon="-3.996767029166222">
        <ele>700</ele>
        <time>2003-04-16T15:27:37Z</time>
      </trkpt>
      <trkpt lat="30.999519964680076" lon="-3.997012032195926">
        <ele>700.10000000000002</ele>
        <time>2003-04-16T15:27:43Z</time>
      </trkpt>
      <trkpt lat="31.000352036207914" lon="-3.997253011912108">
        <ele>700.89999999999998</ele>
        <time>2003-04-16T15:27:48Z</time>
      </trkpt>
      <trkpt lat="31.001394996419549" lon="-3.997521987184882">
        <ele>700.20000000000005</ele>
        <time>2003-04-16T15:27:54Z</time>
      </trkpt>
      <trkpt lat="31.00216998718679" lon="-3.997721979394555">
        <ele>701</ele>
        <time>2003-04-16T15:27:59Z</time>
      </trkpt>
      <trkpt lat="31.003074981272221" lon="-3.997987015172839">
        <ele>700.70000000000005</ele>
        <time>2003-04-16T15:28:04Z</time>
      </trkpt>
      <trkpt lat="31.003991961479187" lon="-3.998248027637601">
        <ele>701.5</ele>
        <time>2003-04-16T15:28:11Z</time>
      </trkpt>
      <trkpt lat="31.005010027438402" lon="-3.998537035658956">
        <ele>702.10000000000002</ele>
        <time>2003-04-16T15:28:17Z</time>
      </trkpt>
      <trkpt lat="31.00590999238193" lon="-3.998793018981814">
        <ele>702.29999999999995</ele>
        <time>2003-04-16T15:28:22Z</time>
      </trkpt>
      <trkpt lat="31.006837030872703" lon="-3.999052019789815">
        <ele>702.60000000000002</ele>
        <time>2003-04-16T15:28:26Z</time>
      </trkpt>
      <trkpt lat="31.007743030786514" lon="-3.999287970364094">
        <ele>702.60000000000002</ele>
        <time>2003-04-16T15:28:31Z</time>
      </trkpt>
      <trkpt lat="31.008663028478622" lon="-3.999564992263913">
        <ele>702.89999999999998</ele>
        <time>2003-04-16T15:28:37Z</time>
      </trkpt>
      <trkpt lat="31.00962501950562" lon="-3.999867998063564">
        <ele>703.5</ele>
        <time>2003-04-16T15:28:42Z</time>
      </trkpt>
      <trkpt lat="31.010526996105909" lon="-4.000167986378074">
        <ele>703.79999999999995</ele>
        <time>2003-04-16T15:28:46Z</time>
      </trkpt>
      <trkpt lat="31.01147498935461" lon="-4.000437967479229">
        <ele>704.10000000000002</ele>
        <time>2003-04-16T15:28:52Z</time>
      </trkpt>
      <trkpt lat="31.012406973168254" lon="-4.000707026571035">
        <ele>704.39999999999998</ele>
        <time>2003-04-16T15:28:57Z</time>
      </trkpt>
      <trkpt lat="31.013339962810278" lon="-4.000982958823443">
        <ele>704</ele>
        <time>2003-04-16T15:29:01Z</time>
      </trkpt>
      <trkpt lat="31.014216961339116" lon="-4.001262998208404">
        <ele>704.20000000000005</ele>
        <time>2003-04-16T15:29:06Z</time>
      </trkpt>
      <trkpt lat="31.015097983181477" lon="-4.00151495821774">
        <ele>704.20000000000005</ele>
        <time>2003-04-16T15:29:12Z</time>
      </trkpt>
      <trkpt lat="31.015995014458895" lon="-4.001777982339263">
        <ele>704.5</ele>
        <time>2003-04-16T15:29:16Z</time>
      </trkpt>
      <trkpt lat="31.016891961917281" lon="-4.002058021724224">
        <ele>705.10000000000002</ele>
        <time>2003-04-16T15:29:21Z</time>
      </trkpt>
      <trkpt lat="31.017926959320903" lon="-4.002418024465442">
        <ele>705.5</ele>
        <time>2003-04-16T15:29:28Z</time>
      </trkpt>
      <trkpt lat="31.018802030012012" lon="-4.002722036093473">
        <ele>705.79999999999995</ele>
        <time>2003-04-16T15:29:32Z</time>
      </trkpt>
      <trkpt lat="31.019795034080744" lon="-4.003054965287447">
        <ele>705.29999999999995</ele>
        <time>2003-04-16T15:29:39Z</time>
      </trkpt>
      <trkpt lat="31.020852997899055" lon="-4.003329975530505">
        <ele>705.60000000000002</ele>
        <time>2003-04-16T15:29:44Z</time>
      </trkpt>
      <trkpt lat="31.02178699336946" lon="-4.003557963296771">
        <ele>705.89999999999998</ele>
        <time>2003-04-16T15:29:50Z</time>
      </trkpt>
      <trkpt lat="31.022701961919665" lon="-4.003800032660365">
        <ele>706.39999999999998</ele>
        <time>2003-04-16T15:29:55Z</time>
      </trkpt>
      <trkpt lat="31.023712987080216" lon="-4.004060039296746">
        <ele>706.39999999999998</ele>
        <time>2003-04-16T15:30:00Z</time>
      </trkpt>
      <trkpt lat="31.02468503639102" lon="-4.00430797599256">
        <ele>706.5</ele>
        <time>2003-04-16T15:30:07Z</time>
      </trkpt>
      <trkpt lat="31.025666976347566" lon="-4.004579968750477">
        <ele>706.79999999999995</ele>
        <time>2003-04-16T15:30:13Z</time>
      </trkpt>
      <trkpt lat="31.026629973202944" lon="-4.004852967336774">
        <ele>707.29999999999995</ele>
        <time>2003-04-16T15:30:18Z</time>
      </trkpt>
      <trkpt lat="31.027628006413579" lon="-4.005148010328412">
        <ele>707.5</ele>
        <time>2003-04-16T15:30:26Z</time>
      </trkpt>
      <trkpt lat="31.028574993833899" lon="-4.005450010299683">
        <ele>707.39999999999998</ele>
        <time>2003-04-16T15:30:33Z</time>
      </trkpt>
      <trkpt lat="31.029064999893308" lon="-4.005646985024214">
        <ele>707.60000000000002</ele>
        <time>2003-04-16T15:30:37Z</time>
      </trkpt>
      <trkpt lat="31.029297010973096" lon="-4.005827028304339">
        <ele>707.5</ele>
        <time>2003-04-16T15:30:38Z</time>
      </trkpt>
      <trkpt lat="31.029922971501946" lon="-4.006288032978773">
        <ele>707.20000000000005</ele>
        <time>2003-04-16T15:30:44Z</time>
      </trkpt>
      <trkpt lat="31.030722018331289" lon="-4.006642000749707">
        <ele>706.60000000000002</ele>
        <time>2003-04-16T15:30:49Z</time>
      </trkpt>
      <trkpt lat="31.030978001654148" lon="-4.006679970771074">
        <ele>707.10000000000002</ele>
        <time>2003-04-16T15:30:52Z</time>
      </trkpt>
      <trkpt lat="31.031704964116216" lon="-4.00673202238977">
        <ele>707.60000000000002</ele>
        <time>2003-04-16T15:30:57Z</time>
      </trkpt>
      <trkpt lat="31.03233503177762" lon="-4.006663039326668">
        <ele>707.5</ele>
        <time>2003-04-16T15:31:01Z</time>
      </trkpt>
      <trkpt lat="31.033265003934503" lon="-4.006522977724671">
        <ele>707.39999999999998</ele>
        <time>2003-04-16T15:31:07Z</time>
      </trkpt>
      <trkpt lat="31.033544959500432" lon="-4.0065180324018">
        <ele>707.39999999999998</ele>
        <time>2003-04-16T15:31:08Z</time>
      </trkpt>
      <trkpt lat="31.03398802690208" lon="-4.006524989381433">
        <ele>706.5</ele>
        <time>2003-04-16T15:31:12Z</time>
      </trkpt>
      <trkpt lat="31.034925039857626" lon="-4.00651996023953">
        <ele>706.10000000000002</ele>
        <time>2003-04-16T15:31:17Z</time>
      </trkpt>
      <trkpt lat="31.03583799675107" lon="-4.006615011021495">
        <ele>706.5</ele>
        <time>2003-04-16T15:31:24Z</time>
      </trkpt>
      <trkpt lat="31.036149971187115" lon="-4.006620040163398">
        <ele>706.89999999999998</ele>
        <time>2003-04-16T15:31:26Z</time>
      </trkpt>
      <trkpt lat="31.037042979151011" lon="-4.006617022678256">
        <ele>707</ele>
        <time>2003-04-16T15:31:31Z</time>
      </trkpt>
      <trkpt lat="31.037183040753007" lon="-4.006607970222831">
        <ele>707.10000000000002</ele>
        <time>2003-04-16T15:31:32Z</time>
      </trkpt>
      <trkpt lat="31.03811795823276" lon="-4.006521971896291">
        <ele>707.60000000000002</ele>
        <time>2003-04-16T15:31:39Z</time>
      </trkpt>
      <trkpt lat="31.038327002897859" lon="-4.006534963846207">
        <ele>707.70000000000005</ele>
        <time>2003-04-16T15:31:42Z</time>
      </trkpt>
      <trkpt lat="31.038626991212368" lon="-4.006543010473251">
        <ele>707.60000000000002</ele>
        <time>2003-04-16T15:31:44Z</time>
      </trkpt>
      <trkpt lat="31.039110040292144" lon="-4.006524989381433">
        <ele>707.39999999999998</ele>
        <time>2003-04-16T15:31:50Z</time>
      </trkpt>
      <trkpt lat="31.039535002782941" lon="-4.006524989381433">
        <ele>707.5</ele>
        <time>2003-04-16T15:31:53Z</time>
      </trkpt>
      <trkpt lat="31.040352992713451" lon="-4.00656002573669">
        <ele>707.70000000000005</ele>
        <time>2003-04-16T15:31:58Z</time>
      </trkpt>
      <trkpt lat="31.041242983192205" lon="-4.006430022418499">
        <ele>707.89999999999998</ele>
        <time>2003-04-16T15:32:06Z</time>
      </trkpt>
      <trkpt lat="31.041934993118048" lon="-4.006288032978773">
        <ele>706.89999999999998</ele>
        <time>2003-04-16T15:32:11Z</time>
      </trkpt>
      <trkpt lat="31.042100032791495" lon="-4.006232041865587">
        <ele>706.60000000000002</ele>
        <time>2003-04-16T15:32:14Z</time>
      </trkpt>
      <trkpt lat="31.042179996147752" lon="-4.006166998296976">
        <ele>706.79999999999995</ele>
        <time>2003-04-16T15:32:14Z</time>
      </trkpt>
      <trkpt lat="31.042489958927035" lon="-4.005934987217188">
        <ele>707.20000000000005</ele>
        <time>2003-04-16T15:32:18Z</time>
      </trkpt>
      <trkpt lat="31.04264996945858" lon="-4.005825016647577">
        <ele>706.5</ele>
        <time>2003-04-16T15:32:21Z</time>
      </trkpt>
      <trkpt lat="31.042839987203479" lon="-4.005742035806179">
        <ele>707</ele>
        <time>2003-04-16T15:32:22Z</time>
      </trkpt>
      <trkpt lat="31.043039979413152" lon="-4.005704987794161">
        <ele>706.39999999999998</ele>
        <time>2003-04-16T15:32:25Z</time>
      </trkpt>
      <trkpt lat="31.043135030195117" lon="-4.005716973915696">
        <ele>706.70000000000005</ele>
        <time>2003-04-16T15:32:25Z</time>
      </trkpt>
      <trkpt lat="31.043232008814812" lon="-4.005759973078966">
        <ele>706.20000000000005</ele>
        <time>2003-04-16T15:32:26Z</time>
      </trkpt>
      <trkpt lat="31.043423032388091" lon="-4.005883019417524">
        <ele>706.70000000000005</ele>
        <time>2003-04-16T15:32:29Z</time>
      </trkpt>
      <trkpt lat="31.043531997129321" lon="-4.005932975560427">
        <ele>706.60000000000002</ele>
        <time>2003-04-16T15:32:29Z</time>
      </trkpt>
      <trkpt lat="31.043732995167375" lon="-4.006061973050237">
        <ele>706.79999999999995</ele>
        <time>2003-04-16T15:32:32Z</time>
      </trkpt>
      <trkpt lat="31.043967017903924" lon="-4.006187031045556">
        <ele>707.29999999999995</ele>
        <time>2003-04-16T15:32:33Z</time>
      </trkpt>
      <trkpt lat="31.044522989541292" lon="-4.006418036296964">
        <ele>707.29999999999995</ele>
        <time>2003-04-16T15:32:37Z</time>
      </trkpt>
      <trkpt lat="31.045047026127577" lon="-4.00669296272099">
        <ele>707.39999999999998</ele>
        <time>2003-04-16T15:32:41Z</time>
      </trkpt>
      <trkpt lat="31.045386996120214" lon="-4.006878035143018">
        <ele>707.60000000000002</ele>
        <time>2003-04-16T15:32:45Z</time>
      </trkpt>
      <trkpt lat="31.045584976673126" lon="-4.006937965750694">
        <ele>707.60000000000002</ele>
        <time>2003-04-16T15:32:47Z</time>
      </trkpt>
      <trkpt lat="31.045762002468109" lon="-4.007027987390757">
        <ele>707.70000000000005</ele>
        <time>2003-04-16T15:32:49Z</time>
      </trkpt>
      <trkpt lat="31.045932993292809" lon="-4.007190009579063">
        <ele>707.89999999999998</ele>
        <time>2003-04-16T15:32:51Z</time>
      </trkpt>
      <trkpt lat="31.046304982155561" lon="-4.007582031190395">
        <ele>708.70000000000005</ele>
        <time>2003-04-16T15:32:55Z</time>
      </trkpt>
      <trkpt lat="31.046631960198283" lon="-4.0079599712044">
        <ele>707.70000000000005</ele>
        <time>2003-04-16T15:32:59Z</time>
      </trkpt>
      <trkpt lat="31.046917028725147" lon="-4.008304970338941">
        <ele>708.79999999999995</ele>
        <time>2003-04-16T15:33:01Z</time>
      </trkpt>
      <trkpt lat="31.047366969287395" lon="-4.008833030238748">
        <ele>709.39999999999998</ele>
        <time>2003-04-16T15:33:05Z</time>
      </trkpt>
      <trkpt lat="31.048071971163154" lon="-4.009586982429028">
        <ele>709.89999999999998</ele>
        <time>2003-04-16T15:33:12Z</time>
      </trkpt>
      <trkpt lat="31.04890001937747" lon="-4.010334983468056">
        <ele>709.60000000000002</ele>
        <time>2003-04-16T15:33:19Z</time>
      </trkpt>
      <trkpt lat="31.049596974626184" lon="-4.010845022276044">
        <ele>709.70000000000005</ele>
        <time>2003-04-16T15:33:23Z</time>
      </trkpt>
      <trkpt lat="31.050502974539995" lon="-4.011441981419921">
        <ele>710</ele>
        <time>2003-04-16T15:33:30Z</time>
      </trkpt>
      <trkpt lat="31.051417021080852" lon="-4.01197699829936">
        <ele>710.5</ele>
        <time>2003-04-16T15:33:35Z</time>
      </trkpt>
      <trkpt lat="31.052282033488154" lon="-4.012368014082313">
        <ele>710.60000000000002</ele>
        <time>2003-04-16T15:33:42Z</time>
      </trkpt>
      <trkpt lat="31.053117038682103" lon="-4.012660039588809">
        <ele>710.60000000000002</ele>
        <time>2003-04-16T15:33:47Z</time>
      </trkpt>
      <trkpt lat="31.053997976705432" lon="-4.013254987075925">
        <ele>711.20000000000005</ele>
        <time>2003-04-16T15:33:54Z</time>
      </trkpt>
      <trkpt lat="31.054326966404915" lon="-4.013422038406134">
        <ele>710.5</ele>
        <time>2003-04-16T15:33:58Z</time>
      </trkpt>
      <trkpt lat="31.054552020505071" lon="-4.013499990105629">
        <ele>709.89999999999998</ele>
        <time>2003-04-16T15:33:59Z</time>
      </trkpt>
      <trkpt lat="31.054783025756478" lon="-4.013523040339351">
        <ele>710.39999999999998</ele>
        <time>2003-04-16T15:34:02Z</time>
      </trkpt>
      <trkpt lat="31.054910011589527" lon="-4.013523040339351">
        <ele>711.29999999999995</ele>
        <time>2003-04-16T15:34:02Z</time>
      </trkpt>
      <trkpt lat="31.055030040442944" lon="-4.013526979833841">
        <ele>711.60000000000002</ele>
        <time>2003-04-16T15:34:03Z</time>
      </trkpt>
      <trkpt lat="31.055142022669315" lon="-4.013526979833841">
        <ele>711.70000000000005</ele>
        <time>2003-04-16T15:34:05Z</time>
      </trkpt>
      <trkpt lat="31.0552619677037" lon="-4.013527985662222">
        <ele>711.60000000000002</ele>
        <time>2003-04-16T15:34:06Z</time>
      </trkpt>
      <trkpt lat="31.055821962654591" lon="-4.013552963733673">
        <ele>711.5</ele>
        <time>2003-04-16T15:34:10Z</time>
      </trkpt>
      <trkpt lat="31.05614198371768" lon="-4.013556987047195">
        <ele>711.60000000000002</ele>
        <time>2003-04-16T15:34:12Z</time>
      </trkpt>
      <trkpt lat="31.056312974542379" lon="-4.013560004532337">
        <ele>711</ele>
        <time>2003-04-16T15:34:13Z</time>
      </trkpt>
      <trkpt lat="31.057031974196434" lon="-4.013572996482253">
        <ele>710.70000000000005</ele>
        <time>2003-04-16T15:34:17Z</time>
      </trkpt>
      <trkpt lat="31.0572150349617" lon="-4.013575008139014">
        <ele>710.70000000000005</ele>
        <time>2003-04-16T15:34:17Z</time>
      </trkpt>
      <trkpt lat="31.057398011907935" lon="-4.013575008139014">
        <ele>710.89999999999998</ele>
        <time>2003-04-16T15:34:18Z</time>
      </trkpt>
      <trkpt lat="31.057583000510931" lon="-4.013577019795775">
        <ele>710.89999999999998</ele>
        <time>2003-04-16T15:34:20Z</time>
      </trkpt>
      <trkpt lat="31.057770000770688" lon="-4.013577019795775">
        <ele>710.60000000000002</ele>
        <time>2003-04-16T15:34:21Z</time>
      </trkpt>
      <trkpt lat="31.058820001780987" lon="-4.013494960963726">
        <ele>710.70000000000005</ele>
        <time>2003-04-16T15:34:26Z</time>
      </trkpt>
      <trkpt lat="31.05983697809279" lon="-4.013332016766071">
        <ele>710.39999999999998</ele>
        <time>2003-04-16T15:34:33Z</time>
      </trkpt>
      <trkpt lat="31.060850014910102" lon="-4.013169994577766">
        <ele>710.79999999999995</ele>
        <time>2003-04-16T15:34:39Z</time>
      </trkpt>
      <trkpt lat="31.061836984008551" lon="-4.013019958510995">
        <ele>710.60000000000002</ele>
        <time>2003-04-16T15:34:44Z</time>
      </trkpt>
      <trkpt lat="31.062341993674636" lon="-4.012843016535044">
        <ele>710.89999999999998</ele>
        <time>2003-04-16T15:34:48Z</time>
      </trkpt>
      <trkpt lat="31.063352013006806" lon="-4.012497011572123">
        <ele>710.89999999999998</ele>
        <time>2003-04-16T15:34:53Z</time>
      </trkpt>
      <trkpt lat="31.064362032338977" lon="-4.012286961078644">
        <ele>710.89999999999998</ele>
        <time>2003-04-16T15:35:00Z</time>
      </trkpt>
      <trkpt lat="31.065356964245439" lon="-4.012110019102693">
        <ele>711</ele>
        <time>2003-04-16T15:35:06Z</time>
      </trkpt>
      <trkpt lat="31.066319961100817" lon="-4.011965012177825">
        <ele>711.29999999999995</ele>
        <time>2003-04-16T15:35:11Z</time>
      </trkpt>
      <trkpt lat="31.067233001813293" lon="-4.01182696223259">
        <ele>711.20000000000005</ele>
        <time>2003-04-16T15:35:18Z</time>
      </trkpt>
      <trkpt lat="31.068243021145463" lon="-4.011644991114736">
        <ele>711.5</ele>
        <time>2003-04-16T15:35:24Z</time>
      </trkpt>
      <trkpt lat="31.069241976365447" lon="-4.011469976976514">
        <ele>710.79999999999995</ele>
        <time>2003-04-16T15:35:31Z</time>
      </trkpt>
      <trkpt lat="31.070249984040856" lon="-4.011293035000563">
        <ele>710.60000000000002</ele>
        <time>2003-04-16T15:35:37Z</time>
      </trkpt>
      <trkpt lat="31.071260003373027" lon="-4.011166971176863">
        <ele>710.39999999999998</ele>
        <time>2003-04-16T15:35:42Z</time>
      </trkpt>
      <trkpt lat="31.072159968316555" lon="-4.011067980900407">
        <ele>710.60000000000002</ele>
        <time>2003-04-16T15:35:49Z</time>
      </trkpt>
      <trkpt lat="31.073132017627358" lon="-4.01096697896719">
        <ele>711.10000000000002</ele>
        <time>2003-04-16T15:35:54Z</time>
      </trkpt>
      <trkpt lat="31.074101971462369" lon="-4.010836975648999">
        <ele>711.20000000000005</ele>
        <time>2003-04-16T15:36:01Z</time>
      </trkpt>
      <trkpt lat="31.075054993852973" lon="-4.010587027296424">
        <ele>711.10000000000002</ele>
        <time>2003-04-16T15:36:06Z</time>
      </trkpt>
      <trkpt lat="31.075968034565449" lon="-4.010283015668392">
        <ele>710.89999999999998</ele>
        <time>2003-04-16T15:36:13Z</time>
      </trkpt>
      <trkpt lat="31.076930025592446" lon="-4.010053016245365">
        <ele>710.20000000000005</ele>
        <time>2003-04-16T15:36:20Z</time>
      </trkpt>
      <trkpt lat="31.07784298248589" lon="-4.009931981563568">
        <ele>708.10000000000002</ele>
        <time>2003-04-16T15:36:27Z</time>
      </trkpt>
      <trkpt lat="31.078712018206716" lon="-4.00982704013586">
        <ele>708.39999999999998</ele>
        <time>2003-04-16T15:36:33Z</time>
      </trkpt>
      <trkpt lat="31.078889966011047" lon="-4.009772976860404">
        <ele>709.10000000000002</ele>
        <time>2003-04-16T15:36:36Z</time>
      </trkpt>
      <trkpt lat="31.079539982602" lon="-4.009582037106156">
        <ele>708.5</ele>
        <time>2003-04-16T15:36:43Z</time>
      </trkpt>
      <trkpt lat="31.080480013042688" lon="-4.009293029084802">
        <ele>711.10000000000002</ele>
        <time>2003-04-16T15:36:51Z</time>
      </trkpt>
      <trkpt lat="31.080764997750521" lon="-4.009212981909514">
        <ele>710.60000000000002</ele>
        <time>2003-04-16T15:36:54Z</time>
      </trkpt>
      <trkpt lat="31.081712990999222" lon="-4.009012989699841">
        <ele>709.5</ele>
        <time>2003-04-16T15:37:03Z</time>
      </trkpt>
      <trkpt lat="31.081896973773837" lon="-4.008939983323216">
        <ele>709.20000000000005</ele>
        <time>2003-04-16T15:37:06Z</time>
      </trkpt>
      <trkpt lat="31.082042986527085" lon="-4.008873011916876">
        <ele>709.5</ele>
        <time>2003-04-16T15:37:07Z</time>
      </trkpt>
      <trkpt lat="31.082262005656958" lon="-4.008728004992008">
        <ele>708.79999999999995</ele>
        <time>2003-04-16T15:37:11Z</time>
      </trkpt>
      <trkpt lat="31.082514971494675" lon="-4.008552990853787">
        <ele>708.5</ele>
        <time>2003-04-16T15:37:14Z</time>
      </trkpt>
      <trkpt lat="31.083073038607836" lon="-4.00825803168118">
        <ele>707.5</ele>
        <time>2003-04-16T15:37:19Z</time>
      </trkpt>
      <trkpt lat="31.083230031654239" lon="-4.008204974234104">
        <ele>707.60000000000002</ele>
        <time>2003-04-16T15:37:22Z</time>
      </trkpt>
      <trkpt lat="31.083346959203482" lon="-4.008168010041118">
        <ele>707.29999999999995</ele>
        <time>2003-04-16T15:37:23Z</time>
      </trkpt>
      <trkpt lat="31.083432035520673" lon="-4.008221989497542">
        <ele>707.20000000000005</ele>
        <time>2003-04-16T15:37:26Z</time>
      </trkpt>
      <trkpt lat="31.083582993596792" lon="-4.008376970887184">
        <ele>706.20000000000005</ele>
        <time>2003-04-16T15:37:29Z</time>
      </trkpt>
      <trkpt lat="31.083787009119987" lon="-4.008532958105207">
        <ele>706.60000000000002</ele>
        <time>2003-04-16T15:37:31Z</time>
      </trkpt>
      <trkpt lat="31.083911983296275" lon="-4.008652986958623">
        <ele>706.5</ele>
        <time>2003-04-16T15:37:34Z</time>
      </trkpt>
      <trkpt lat="31.084359996020794" lon="-4.009154979139566">
        <ele>706.5</ele>
        <time>2003-04-16T15:37:41Z</time>
      </trkpt>
      <trkpt lat="31.084568034857512" lon="-4.009482963010669">
        <ele>707</ele>
        <time>2003-04-16T15:37:45Z</time>
      </trkpt>
      <trkpt lat="31.08471798710525" lon="-4.009622018784285">
        <ele>707.20000000000005</ele>
        <time>2003-04-16T15:37:46Z</time>
      </trkpt>
      <trkpt lat="31.08516700565815" lon="-4.009999958798289">
        <ele>707.79999999999995</ele>
        <time>2003-04-16T15:37:53Z</time>
      </trkpt>
      <trkpt lat="31.08536004088819" lon="-4.010200034826994">
        <ele>708</ele>
        <time>2003-04-16T15:37:56Z</time>
      </trkpt>
      <trkpt lat="31.085473028942943" lon="-4.01027999818325">
        <ele>708.10000000000002</ele>
        <time>2003-04-16T15:37:57Z</time>
      </trkpt>
      <trkpt lat="31.085587022826076" lon="-4.010307993739843">
        <ele>708.20000000000005</ele>
        <time>2003-04-16T15:38:00Z</time>
      </trkpt>
      <trkpt lat="31.085709985345602" lon="-4.010292990133166">
        <ele>708.39999999999998</ele>
        <time>2003-04-16T15:38:01Z</time>
      </trkpt>
      <trkpt lat="31.085896985605359" lon="-4.01025996543467">
        <ele>708.10000000000002</ele>
        <time>2003-04-16T15:38:04Z</time>
      </trkpt>
      <trkpt lat="31.086081974208355" lon="-4.010210009291768">
        <ele>708</ele>
        <time>2003-04-16T15:38:05Z</time>
      </trkpt>
      <trkpt lat="31.08617702499032" lon="-4.010206991806626">
        <ele>708.20000000000005</ele>
        <time>2003-04-16T15:38:06Z</time>
      </trkpt>
      <trkpt lat="31.086277021095157" lon="-4.010219983756542">
        <ele>707.89999999999998</ele>
        <time>2003-04-16T15:38:08Z</time>
      </trkpt>
      <trkpt lat="31.087032984942198" lon="-4.010319979861379">
        <ele>707.79999999999995</ele>
        <time>2003-04-16T15:38:16Z</time>
      </trkpt>
      <trkpt lat="31.087298020720482" lon="-4.010272035375238">
        <ele>707.89999999999998</ele>
        <time>2003-04-16T15:38:19Z</time>
      </trkpt>
      <trkpt lat="31.087382007390261" lon="-4.010223001241684">
        <ele>708.29999999999995</ele>
        <time>2003-04-16T15:38:20Z</time>
      </trkpt>
      <trkpt lat="31.087751984596252" lon="-4.010043041780591">
        <ele>708.39999999999998</ele>
        <time>2003-04-16T15:38:24Z</time>
      </trkpt>
      <trkpt lat="31.088251965120435" lon="-4.009899962693453">
        <ele>707.60000000000002</ele>
        <time>2003-04-16T15:38:28Z</time>
      </trkpt>
      <trkpt lat="31.088853031396866" lon="-4.009832991287112">
        <ele>707.70000000000005</ele>
        <time>2003-04-16T15:38:35Z</time>
      </trkpt>
      <trkpt lat="31.089099962264299" lon="-4.009802984073758">
        <ele>707.29999999999995</ele>
        <time>2003-04-16T15:38:38Z</time>
      </trkpt>
      <trkpt lat="31.089243041351438" lon="-4.009787980467081">
        <ele>707.79999999999995</ele>
        <time>2003-04-16T15:38:40Z</time>
      </trkpt>
      <trkpt lat="31.089504975825548" lon="-4.009780017659068">
        <ele>707.70000000000005</ele>
        <time>2003-04-16T15:38:43Z</time>
      </trkpt>
      <trkpt lat="31.089837988838553" lon="-4.009838020429015">
        <ele>707.79999999999995</ele>
        <time>2003-04-16T15:38:46Z</time>
      </trkpt>
      <trkpt lat="31.090187011286616" lon="-4.009971963241696">
        <ele>707.70000000000005</ele>
        <time>2003-04-16T15:38:48Z</time>
      </trkpt>
      <trkpt lat="31.091156965121627" lon="-4.010297013446689">
        <ele>707.70000000000005</ele>
        <time>2003-04-16T15:38:56Z</time>
      </trkpt>
      <trkpt lat="31.092073023319244" lon="-4.010587027296424">
        <ele>708</ele>
        <time>2003-04-16T15:39:03Z</time>
      </trkpt>
      <trkpt lat="31.092959996312857" lon="-4.01088198646903">
        <ele>708.10000000000002</ele>
        <time>2003-04-16T15:39:10Z</time>
      </trkpt>
      <trkpt lat="31.093843029811978" lon="-4.011179963126779">
        <ele>708.29999999999995</ele>
        <time>2003-04-16T15:39:18Z</time>
      </trkpt>
      <trkpt lat="31.094594970345497" lon="-4.011452961713076">
        <ele>709</ele>
        <time>2003-04-16T15:39:26Z</time>
      </trkpt>
      <trkpt lat="31.094811977818608" lon="-4.011511970311403">
        <ele>709.60000000000002</ele>
        <time>2003-04-16T15:39:30Z</time>
      </trkpt>
      <trkpt lat="31.094912979751825" lon="-4.011522028595209">
        <ele>709.79999999999995</ele>
        <time>2003-04-16T15:39:32Z</time>
      </trkpt>
      <trkpt lat="31.095024961978197" lon="-4.01148296892643">
        <ele>709.89999999999998</ele>
        <time>2003-04-16T15:39:34Z</time>
      </trkpt>
      <trkpt lat="31.095120012760162" lon="-4.011477017775178">
        <ele>709.79999999999995</ele>
        <time>2003-04-16T15:39:37Z</time>
      </trkpt>
      <trkpt lat="31.095196958631277" lon="-4.011595034971833">
        <ele>710</ele>
        <time>2003-04-16T15:39:41Z</time>
      </trkpt>
      <trkpt lat="31.095252027735114" lon="-4.011699976399541">
        <ele>709.89999999999998</ele>
        <time>2003-04-16T15:39:42Z</time>
      </trkpt>
      <trkpt lat="31.095341965556145" lon="-4.011807013303042">
        <ele>710.29999999999995</ele>
        <time>2003-04-16T15:39:45Z</time>
      </trkpt>
      <trkpt lat="31.095442967489362" lon="-4.01193299330771">
        <ele>710.5</ele>
        <time>2003-04-16T15:39:46Z</time>
      </trkpt>
      <trkpt lat="31.095572970807552" lon="-4.012085041031241">
        <ele>710.39999999999998</ele>
        <time>2003-04-16T15:39:49Z</time>
      </trkpt>
      <trkpt lat="31.095847981050611" lon="-4.012425011023879">
        <ele>710.5</ele>
        <time>2003-04-16T15:39:53Z</time>
      </trkpt>
      <trkpt lat="31.096494980156422" lon="-4.013254987075925">
        <ele>710.70000000000005</ele>
        <time>2003-04-16T15:40:01Z</time>
      </trkpt>
      <trkpt lat="31.096696984022856" lon="-4.013511976227164">
        <ele>710.79999999999995</ele>
        <time>2003-04-16T15:40:04Z</time>
      </trkpt>
      <trkpt lat="31.096778037026525" lon="-4.013622030615807">
        <ele>710.60000000000002</ele>
        <time>2003-04-16T15:40:05Z</time>
      </trkpt>
      <trkpt lat="31.096858000382781" lon="-4.01371699757874">
        <ele>710.70000000000005</ele>
        <time>2003-04-16T15:40:08Z</time>
      </trkpt>
      <trkpt lat="31.096922038123012" lon="-4.01380299590528">
        <ele>710.89999999999998</ele>
        <time>2003-04-16T15:40:12Z</time>
      </trkpt>
      <trkpt lat="31.097012981772423" lon="-4.013929981738329">
        <ele>711.39999999999998</ele>
        <time>2003-04-16T15:40:17Z</time>
      </trkpt>
      <trkpt lat="31.097097974270582" lon="-4.013984967023134">
        <ele>712.10000000000002</ele>
        <time>2003-04-16T15:40:21Z</time>
      </trkpt>
      <trkpt lat="31.097196964547038" lon="-4.013827973976731">
        <ele>718.20000000000005</ele>
        <time>2003-04-16T15:51:11Z</time>
      </trkpt>
      <trkpt lat="31.097299978137016" lon="-4.013811964541674">
        <ele>717.20000000000005</ele>
        <time>2003-04-16T15:51:15Z</time>
      </trkpt>
      <trkpt lat="31.097387988120317" lon="-4.013782041147351">
        <ele>716.79999999999995</ele>
        <time>2003-04-16T15:51:19Z</time>
      </trkpt>
      <trkpt lat="31.097532995045185" lon="-4.013727977871895">
        <ele>716.89999999999998</ele>
        <time>2003-04-16T15:51:23Z</time>
      </trkpt>
      <trkpt lat="31.097623016685247" lon="-4.013702999800444">
        <ele>716.89999999999998</ele>
        <time>2003-04-16T15:51:24Z</time>
      </trkpt>
      <trkpt lat="31.098222993314266" lon="-4.013535026460886">
        <ele>717.60000000000002</ele>
        <time>2003-04-16T15:51:38Z</time>
      </trkpt>
      <trkpt lat="31.098652984946966" lon="-4.013387002050877">
        <ele>717.70000000000005</ele>
        <time>2003-04-16T15:51:46Z</time>
      </trkpt>
      <trkpt lat="31.099086999893188" lon="-4.013296980410814">
        <ele>717.29999999999995</ele>
        <time>2003-04-16T15:51:55Z</time>
      </trkpt>
      <trkpt lat="31.099224966019392" lon="-4.013264961540699">
        <ele>713.89999999999998</ele>
        <time>2003-04-16T15:52:21Z</time>
      </trkpt>
      <trkpt lat="31.099342983216047" lon="-4.013196984305978">
        <ele>713.79999999999995</ele>
        <time>2003-04-16T15:52:25Z</time>
      </trkpt>
      <trkpt lat="31.099420012906194" lon="-4.013120038434863">
        <ele>713.60000000000002</ele>
        <time>2003-04-16T15:52:28Z</time>
      </trkpt>
      <trkpt lat="31.099510034546256" lon="-4.013032028451562">
        <ele>713.39999999999998</ele>
        <time>2003-04-16T15:52:29Z</time>
      </trkpt>
      <trkpt lat="31.099620005115867" lon="-4.012970002368093">
        <ele>713.60000000000002</ele>
        <time>2003-04-16T15:52:32Z</time>
      </trkpt>
      <trkpt lat="31.099761994555593" lon="-4.012948041781783">
        <ele>713.79999999999995</ele>
        <time>2003-04-16T15:52:33Z</time>
      </trkpt>
      <trkpt lat="31.099912030622363" lon="-4.012973019853234">
        <ele>713.89999999999998</ele>
        <time>2003-04-16T15:52:36Z</time>
      </trkpt>
      <trkpt lat="31.100513013079762" lon="-4.013057006523013">
        <ele>714</ele>
        <time>2003-04-16T15:52:44Z</time>
      </trkpt>
      <trkpt lat="31.100912997499108" lon="-4.013021970167756">
        <ele>714.20000000000005</ele>
        <time>2003-04-16T15:52:48Z</time>
      </trkpt>
      <trkpt lat="31.101232012733817" lon="-4.013079972937703">
        <ele>714.10000000000002</ele>
        <time>2003-04-16T15:52:52Z</time>
      </trkpt>
      <trkpt lat="31.101412978023291" lon="-4.013141999021173">
        <ele>714.10000000000002</ele>
        <time>2003-04-16T15:52:56Z</time>
      </trkpt>
      <trkpt lat="31.101784966886044" lon="-4.013221962377429">
        <ele>713</ele>
        <time>2003-04-16T15:53:02Z</time>
      </trkpt>
      <trkpt lat="31.101941959932446" lon="-4.013277031481266">
        <ele>713</ele>
        <time>2003-04-16T15:53:04Z</time>
      </trkpt>
      <trkpt lat="31.102057965472341" lon="-4.013384990394115">
        <ele>712.79999999999995</ele>
        <time>2003-04-16T15:53:06Z</time>
      </trkpt>
      <trkpt lat="31.102167014032602" lon="-4.013490015640855">
        <ele>712.60000000000002</ele>
        <time>2003-04-16T15:53:07Z</time>
      </trkpt>
      <trkpt lat="31.10231202095747" lon="-4.013563022017479">
        <ele>712.70000000000005</ele>
        <time>2003-04-16T15:53:10Z</time>
      </trkpt>
      <trkpt lat="31.102453004568815" lon="-4.013665029779077">
        <ele>712.39999999999998</ele>
        <time>2003-04-16T15:53:11Z</time>
      </trkpt>
      <trkpt lat="31.102675041183829" lon="-4.013808025047183">
        <ele>712.20000000000005</ele>
        <time>2003-04-16T15:53:15Z</time>
      </trkpt>
      <trkpt lat="31.102834967896342" lon="-4.013862004503608">
        <ele>712.20000000000005</ele>
        <time>2003-04-16T15:53:16Z</time>
      </trkpt>
      <trkpt lat="31.102994978427887" lon="-4.013867033645511">
        <ele>712.29999999999995</ele>
        <time>2003-04-16T15:53:19Z</time>
      </trkpt>
      <trkpt lat="31.103222966194153" lon="-4.01382302865386">
        <ele>712.10000000000002</ele>
        <time>2003-04-16T15:53:22Z</time>
      </trkpt>
      <trkpt lat="31.103678019717336" lon="-4.013707023113966">
        <ele>711.20000000000005</ele>
        <time>2003-04-16T15:53:29Z</time>
      </trkpt>
      <trkpt lat="31.103931991383433" lon="-4.013547012582421">
        <ele>711.10000000000002</ele>
        <time>2003-04-16T15:53:33Z</time>
      </trkpt>
      <trkpt lat="31.104229968041182" lon="-4.013251969590783">
        <ele>711.10000000000002</ele>
        <time>2003-04-16T15:53:38Z</time>
      </trkpt>
      <trkpt lat="31.104357037693262" lon="-4.013130012899637">
        <ele>710.89999999999998</ele>
        <time>2003-04-16T15:53:39Z</time>
      </trkpt>
      <trkpt lat="31.104553006589413" lon="-4.012962961569428">
        <ele>710.60000000000002</ele>
        <time>2003-04-16T15:53:42Z</time>
      </trkpt>
      <trkpt lat="31.104602040722966" lon="-4.012873023748398">
        <ele>710.5</ele>
        <time>2003-04-16T15:53:43Z</time>
      </trkpt>
      <trkpt lat="31.10487001016736" lon="-4.012440014630556">
        <ele>710.39999999999998</ele>
        <time>2003-04-16T15:53:49Z</time>
      </trkpt>
      <trkpt lat="31.104951985180378" lon="-4.012395003810525">
        <ele>710.60000000000002</ele>
        <time>2003-04-16T15:53:50Z</time>
      </trkpt>
      <trkpt lat="31.10536496154964" lon="-4.012150000780821">
        <ele>710.5</ele>
        <time>2003-04-16T15:53:54Z</time>
      </trkpt>
      <trkpt lat="31.105542993173003" lon="-4.011959983035922">
        <ele>710.10000000000002</ele>
        <time>2003-04-16T15:53:58Z</time>
      </trkpt>
      <trkpt lat="31.105695040896535" lon="-4.011874990537763">
        <ele>710.10000000000002</ele>
        <time>2003-04-16T15:54:00Z</time>
      </trkpt>
      <trkpt lat="31.106052026152611" lon="-4.011737024411559">
        <ele>710</ele>
        <time>2003-04-16T15:54:04Z</time>
      </trkpt>
      <trkpt lat="31.10633198171854" lon="-4.011624958366156">
        <ele>709.70000000000005</ele>
        <time>2003-04-16T15:54:06Z</time>
      </trkpt>
      <trkpt lat="31.106802960857749" lon="-4.011352965608239">
        <ele>710.10000000000002</ele>
        <time>2003-04-16T15:54:13Z</time>
      </trkpt>
      <trkpt lat="31.10746999271214" lon="-4.011087007820606">
        <ele>711.29999999999995</ele>
        <time>2003-04-16T15:54:21Z</time>
      </trkpt>
      <trkpt lat="31.107657998800278" lon="-4.010990029200912">
        <ele>712.39999999999998</ele>
        <time>2003-04-16T15:54:25Z</time>
      </trkpt>
      <trkpt lat="31.107775010168552" lon="-4.010877041146159">
        <ele>712.20000000000005</ele>
        <time>2003-04-16T15:54:27Z</time>
      </trkpt>
      <trkpt lat="31.108097964897752" lon="-4.010570012032986">
        <ele>711.70000000000005</ele>
        <time>2003-04-16T15:54:32Z</time>
      </trkpt>
      <trkpt lat="31.108335005119443" lon="-4.010398015379906">
        <ele>713.60000000000002</ele>
        <time>2003-04-16T15:54:36Z</time>
      </trkpt>
      <trkpt lat="31.108672041445971" lon="-4.010180002078414">
        <ele>712.60000000000002</ele>
        <time>2003-04-16T15:54:41Z</time>
      </trkpt>
      <trkpt lat="31.109266988933086" lon="-4.009727966040373">
        <ele>713.29999999999995</ele>
        <time>2003-04-16T15:54:51Z</time>
      </trkpt>
      <trkpt lat="31.109494976699352" lon="-4.009648002684116">
        <ele>713.70000000000005</ele>
        <time>2003-04-16T15:54:54Z</time>
      </trkpt>
      <trkpt lat="31.109633026644588" lon="-4.009638028219342">
        <ele>714.10000000000002</ele>
        <time>2003-04-16T15:54:55Z</time>
      </trkpt>
      <trkpt lat="31.10976998694241" lon="-4.009644985198975">
        <ele>714.20000000000005</ele>
        <time>2003-04-16T15:54:58Z</time>
      </trkpt>
      <trkpt lat="31.109975008293986" lon="-4.00969703681767">
        <ele>714</ele>
        <time>2003-04-16T15:55:00Z</time>
      </trkpt>
      <trkpt lat="31.11019997857511" lon="-4.009731989353895">
        <ele>714.89999999999998</ele>
        <time>2003-04-16T15:55:03Z</time>
      </trkpt>
      <trkpt lat="31.110359989106655" lon="-4.009717991575599">
        <ele>715.29999999999995</ele>
        <time>2003-04-16T15:55:06Z</time>
      </trkpt>
      <trkpt lat="31.110953008756042" lon="-4.009652025997639">
        <ele>716</ele>
        <time>2003-04-16T15:55:12Z</time>
      </trkpt>
      <trkpt lat="31.11112299375236" lon="-4.009616989642382">
        <ele>717</ele>
        <time>2003-04-16T15:55:15Z</time>
      </trkpt>
      <trkpt lat="31.111805029213428" lon="-4.009502995759249">
        <ele>718.39999999999998</ele>
        <time>2003-04-16T15:55:22Z</time>
      </trkpt>
      <trkpt lat="31.112592006102204" lon="-4.009341979399324">
        <ele>716.29999999999995</ele>
        <time>2003-04-16T15:55:31Z</time>
      </trkpt>
      <trkpt lat="31.112895011901855" lon="-4.009392019361258">
        <ele>716.39999999999998</ele>
        <time>2003-04-16T15:55:35Z</time>
      </trkpt>
      <trkpt lat="31.113085029646754" lon="-4.009457984939218">
        <ele>716.5</ele>
        <time>2003-04-16T15:55:38Z</time>
      </trkpt>
      <trkpt lat="31.113892961293459" lon="-4.009789992123842">
        <ele>716.10000000000002</ele>
        <time>2003-04-16T15:55:50Z</time>
      </trkpt>
      <trkpt lat="31.114120027050376" lon="-4.009884959086776">
        <ele>716.10000000000002</ele>
        <time>2003-04-16T15:55:53Z</time>
      </trkpt>
      <trkpt lat="31.114448010921478" lon="-4.009952014312148">
        <ele>716.10000000000002</ele>
        <time>2003-04-16T15:55:57Z</time>
      </trkpt>
      <trkpt lat="31.114617995917797" lon="-4.009993001818657">
        <ele>716.10000000000002</ele>
        <time>2003-04-16T15:56:00Z</time>
      </trkpt>
      <trkpt lat="31.114782029762864" lon="-4.01008696295321">
        <ele>716.10000000000002</ele>
        <time>2003-04-16T15:56:01Z</time>
      </trkpt>
      <trkpt lat="31.115092998370528" lon="-4.010270023718476">
        <ele>716</ele>
        <time>2003-04-16T15:56:05Z</time>
      </trkpt>
      <trkpt lat="31.115246973931789" lon="-4.010316962376237">
        <ele>715.5</ele>
        <time>2003-04-16T15:56:08Z</time>
      </trkpt>
      <trkpt lat="31.115540005266666" lon="-4.010430034250021">
        <ele>715.39999999999998</ele>
        <time>2003-04-16T15:56:12Z</time>
      </trkpt>
      <trkpt lat="31.115706972777843" lon="-4.010492982342839">
        <ele>714.70000000000005</ele>
        <time>2003-04-16T15:56:15Z</time>
      </trkpt>
      <trkpt lat="31.116026993840933" lon="-4.010581998154521">
        <ele>714.60000000000002</ele>
        <time>2003-04-16T15:56:20Z</time>
      </trkpt>
      <trkpt lat="31.11627702601254" lon="-4.010662967339158">
        <ele>714.39999999999998</ele>
        <time>2003-04-16T15:56:23Z</time>
      </trkpt>
      <trkpt lat="31.116674998775125" lon="-4.010873017832637">
        <ele>714.79999999999995</ele>
        <time>2003-04-16T15:56:28Z</time>
      </trkpt>
      <trkpt lat="31.117098033428192" lon="-4.011124977841973">
        <ele>715.5</ele>
        <time>2003-04-16T15:56:32Z</time>
      </trkpt>
      <trkpt lat="31.117380000650883" lon="-4.011233020573854">
        <ele>716.10000000000002</ele>
        <time>2003-04-16T15:56:36Z</time>
      </trkpt>
      <trkpt lat="31.117704967036843" lon="-4.011360006406903">
        <ele>717.29999999999995</ele>
        <time>2003-04-16T15:56:40Z</time>
      </trkpt>
      <trkpt lat="31.117957010865211" lon="-4.011542983353138">
        <ele>717.10000000000002</ele>
        <time>2003-04-16T15:56:43Z</time>
      </trkpt>
      <trkpt lat="31.11823302693665" lon="-4.011750016361475">
        <ele>715.79999999999995</ele>
        <time>2003-04-16T15:56:47Z</time>
      </trkpt>
      <trkpt lat="31.118586994707584" lon="-4.01191296055913">
        <ele>716.10000000000002</ele>
        <time>2003-04-16T15:56:52Z</time>
      </trkpt>
      <trkpt lat="31.118872985243797" lon="-4.012027038261294">
        <ele>716.60000000000002</ele>
        <time>2003-04-16T15:56:56Z</time>
      </trkpt>
      <trkpt lat="31.119683012366295" lon="-4.012507991865277">
        <ele>716.5</ele>
        <time>2003-04-16T15:57:07Z</time>
      </trkpt>
      <trkpt lat="31.12042497843504" lon="-4.012891966849566">
        <ele>717</ele>
        <time>2003-04-16T15:57:18Z</time>
      </trkpt>
      <trkpt lat="31.121322009712458" lon="-4.013192960992456">
        <ele>717</ele>
        <time>2003-04-16T15:57:30Z</time>
      </trkpt>
      <trkpt lat="31.122017037123442" lon="-4.013269990682602">
        <ele>717.20000000000005</ele>
        <time>2003-04-16T15:57:38Z</time>
      </trkpt>
      <trkpt lat="31.122381985187531" lon="-4.013279965147376">
        <ele>717.29999999999995</ele>
        <time>2003-04-16T15:57:42Z</time>
      </trkpt>
      <trkpt lat="31.122560016810894" lon="-4.013282982632518">
        <ele>717.20000000000005</ele>
        <time>2003-04-16T15:57:45Z</time>
      </trkpt>
      <trkpt lat="31.12302303314209" lon="-4.013341991230846">
        <ele>717</ele>
        <time>2003-04-16T15:57:49Z</time>
      </trkpt>
      <trkpt lat="31.123922998085618" lon="-4.013529997318983">
        <ele>717.29999999999995</ele>
        <time>2003-04-16T15:57:59Z</time>
      </trkpt>
      <trkpt lat="31.124564968049526" lon="-4.01373703032732">
        <ele>717.39999999999998</ele>
        <time>2003-04-16T15:58:05Z</time>
      </trkpt>
      <trkpt lat="31.124707963317633" lon="-4.013837026432157">
        <ele>717.60000000000002</ele>
        <time>2003-04-16T15:58:08Z</time>
      </trkpt>
      <trkpt lat="31.124947015196085" lon="-4.014047998934984">
        <ele>717.79999999999995</ele>
        <time>2003-04-16T15:58:12Z</time>
      </trkpt>
      <trkpt lat="31.125090010464191" lon="-4.01421002112329">
        <ele>718</ele>
        <time>2003-04-16T15:58:15Z</time>
      </trkpt>
      <trkpt lat="31.125256977975368" lon="-4.014480002224445">
        <ele>717.89999999999998</ele>
        <time>2003-04-16T15:58:20Z</time>
      </trkpt>
      <trkpt lat="31.125312969088554" lon="-4.014621991664171">
        <ele>717.89999999999998</ele>
        <time>2003-04-16T15:58:21Z</time>
      </trkpt>
      <trkpt lat="31.125489994883537" lon="-4.015045026317239">
        <ele>717.60000000000002</ele>
        <time>2003-04-16T15:58:28Z</time>
      </trkpt>
      <trkpt lat="31.125653022900224" lon="-4.01526496745646">
        <ele>717.89999999999998</ele>
        <time>2003-04-16T15:58:32Z</time>
      </trkpt>
      <trkpt lat="31.12633497454226" lon="-4.016062002629042">
        <ele>718.60000000000002</ele>
        <time>2003-04-16T15:58:47Z</time>
      </trkpt>
      <trkpt lat="31.126498002558947" lon="-4.016172979027033">
        <ele>718.89999999999998</ele>
        <time>2003-04-16T15:58:50Z</time>
      </trkpt>
      <trkpt lat="31.12663202919066" lon="-4.016212038695812">
        <ele>718.5</ele>
        <time>2003-04-16T15:58:51Z</time>
      </trkpt>
      <trkpt lat="31.126773012802005" lon="-4.016216984018683">
        <ele>718.60000000000002</ele>
        <time>2003-04-16T15:58:54Z</time>
      </trkpt>
      <trkpt lat="31.127032013610005" lon="-4.016169961541891">
        <ele>718.70000000000005</ele>
        <time>2003-04-16T15:58:58Z</time>
      </trkpt>
      <trkpt lat="31.127102002501488" lon="-4.016071977093816">
        <ele>719</ele>
        <time>2003-04-16T15:58:59Z</time>
      </trkpt>
      <trkpt lat="31.127137038856745" lon="-4.015912972390652">
        <ele>719.29999999999995</ele>
        <time>2003-04-16T15:59:02Z</time>
      </trkpt>
      <trkpt lat="31.127184983342886" lon="-4.015712980180979">
        <ele>719.29999999999995</ele>
        <time>2003-04-16T15:59:03Z</time>
      </trkpt>
      <trkpt lat="31.12725798971951" lon="-4.015369992703199">
        <ele>719.5</ele>
        <time>2003-04-16T15:59:06Z</time>
      </trkpt>
      <trkpt lat="31.127497963607311" lon="-4.01442501693964">
        <ele>720.29999999999995</ele>
        <time>2003-04-16T15:59:15Z</time>
      </trkpt>
      <trkpt lat="31.127568036317825" lon="-4.014127040281892">
        <ele>720.39999999999998</ele>
        <time>2003-04-16T15:59:20Z</time>
      </trkpt>
      <trkpt lat="31.127647999674082" lon="-4.013831997290254">
        <ele>720.60000000000002</ele>
        <time>2003-04-16T15:59:25Z</time>
      </trkpt>
      <trkpt lat="31.127678006887436" lon="-4.01371699757874">
        <ele>720.70000000000005</ele>
        <time>2003-04-16T15:59:28Z</time>
      </trkpt>
      <trkpt lat="31.127723017707467" lon="-4.013541983440518">
        <ele>721.20000000000005</ele>
        <time>2003-04-16T15:59:48Z</time>
      </trkpt>
      <trkpt lat="31.127774985507131" lon="-4.013442993164063">
        <ele>721.20000000000005</ele>
        <time>2003-04-16T15:59:51Z</time>
      </trkpt>
      <trkpt lat="31.127857966348529" lon="-4.0133719984442">
        <ele>721.10000000000002</ele>
        <time>2003-04-16T15:59:53Z</time>
      </trkpt>
      <trkpt lat="31.127947987988591" lon="-4.013320030644536">
        <ele>721.5</ele>
        <time>2003-04-16T15:59:59Z</time>
      </trkpt>
      <trkpt lat="31.128025017678738" lon="-4.013320030644536">
        <ele>722.5</ele>
        <time>2003-04-16T16:00:15Z</time>
      </trkpt>
    </trkseg>
  </trk>

  <trk>
    <name>030417</name>
    <extensions>
      <gpxx:TrackExtension xmlns:gpxx="http://www.garmin.com/xmlschemas/GpxExtensions/v3">
        <gpxx:DisplayColor>Magenta</gpxx:DisplayColor>
      </gpxx:TrackExtension>
    </extensions>
    <trkseg>
      <trkpt lat="31.127735003829002" lon="-4.012791970744729">
        <ele>718.79999999999995</ele>
        <time>2003-04-17T07:39:05Z</time>
      </trkpt>
      <trkpt lat="31.127889985218644" lon="-4.012776967138052">
        <ele>720.39999999999998</ele>
        <time>2003-04-17T07:39:40Z</time>
      </trkpt>
      <trkpt lat="31.127952011302114" lon="-4.012855002656579">
        <ele>721.29999999999995</ele>
        <time>2003-04-17T07:39:43Z</time>
      </trkpt>
      <trkpt lat="31.128053013235331" lon="-4.013003027066588">
        <ele>722.39999999999998</ele>
        <time>2003-04-17T07:39:48Z</time>
      </trkpt>
      <trkpt lat="31.128049995750189" lon="-4.013134958222508">
        <ele>723.29999999999995</ele>
        <time>2003-04-17T07:39:52Z</time>
      </trkpt>
      <trkpt lat="31.127998027950525" lon="-4.013247024267912">
        <ele>724.20000000000005</ele>
        <time>2003-04-17T07:39:55Z</time>
      </trkpt>
      <trkpt lat="31.127912029623985" lon="-4.01333000510931">
        <ele>723.79999999999995</ele>
        <time>2003-04-17T07:39:59Z</time>
      </trkpt>
      <trkpt lat="31.127801975235343" lon="-4.01341499760747">
        <ele>724.10000000000002</ele>
        <time>2003-04-17T07:40:03Z</time>
      </trkpt>
      <trkpt lat="31.127756964415312" lon="-4.013526979833841">
        <ele>724.5</ele>
        <time>2003-04-17T07:40:07Z</time>
      </trkpt>
      <trkpt lat="31.12768798135221" lon="-4.013790003955364">
        <ele>724.5</ele>
        <time>2003-04-17T07:40:11Z</time>
      </trkpt>
      <trkpt lat="31.127495029941201" lon="-4.014540016651154">
        <ele>722.29999999999995</ele>
        <time>2003-04-17T07:40:23Z</time>
      </trkpt>
      <trkpt lat="31.127239968627691" lon="-4.015503013506532">
        <ele>721.5</ele>
        <time>2003-04-17T07:40:35Z</time>
      </trkpt>
      <trkpt lat="31.127086998894811" lon="-4.016111958771944">
        <ele>721.20000000000005</ele>
        <time>2003-04-17T07:40:42Z</time>
      </trkpt>
      <trkpt lat="31.12699999473989" lon="-4.016482019796968">
        <ele>720.60000000000002</ele>
        <time>2003-04-17T07:40:46Z</time>
      </trkpt>
      <trkpt lat="31.12693696282804" lon="-4.01681000366807">
        <ele>720.89999999999998</ele>
        <time>2003-04-17T07:40:50Z</time>
      </trkpt>
      <trkpt lat="31.126894969493151" lon="-4.01694000698626">
        <ele>721</ele>
        <time>2003-04-17T07:40:53Z</time>
      </trkpt>
      <trkpt lat="31.126800002530217" lon="-4.017028016969562">
        <ele>721.29999999999995</ele>
        <time>2003-04-17T07:40:54Z</time>
      </trkpt>
      <trkpt lat="31.12667796202004" lon="-4.017075039446354">
        <ele>721.29999999999995</ele>
        <time>2003-04-17T07:40:57Z</time>
      </trkpt>
      <trkpt lat="31.126554999500513" lon="-4.017061963677406">
        <ele>721</ele>
        <time>2003-04-17T07:40:58Z</time>
      </trkpt>
      <trkpt lat="31.126432958990335" lon="-4.017022987827659">
        <ele>721.20000000000005</ele>
        <time>2003-04-17T07:41:01Z</time>
      </trkpt>
      <trkpt lat="31.126192985102534" lon="-4.016942018643022">
        <ele>720.5</ele>
        <time>2003-04-17T07:41:05Z</time>
      </trkpt>
      <trkpt lat="31.125801969319582" lon="-4.016822995617986">
        <ele>718.70000000000005</ele>
        <time>2003-04-17T07:41:32Z</time>
      </trkpt>
      <trkpt lat="31.125657968223095" lon="-4.016717970371246">
        <ele>718.5</ele>
        <time>2003-04-17T07:41:36Z</time>
      </trkpt>
      <trkpt lat="31.125412965193391" lon="-4.016523007303476">
        <ele>719.20000000000005</ele>
        <time>2003-04-17T07:41:47Z</time>
      </trkpt>
      <trkpt lat="31.125267036259174" lon="-4.016442038118839">
        <ele>719.5</ele>
        <time>2003-04-17T07:41:54Z</time>
      </trkpt>
      <trkpt lat="31.124975010752678" lon="-4.016317985951901">
        <ele>719.60000000000002</ele>
        <time>2003-04-17T07:41:59Z</time>
      </trkpt>
      <trkpt lat="31.124724978581071" lon="-4.016204997897148">
        <ele>719.39999999999998</ele>
        <time>2003-04-17T07:42:03Z</time>
      </trkpt>
      <trkpt lat="31.123864995315671" lon="-4.015880031511188">
        <ele>721.39999999999998</ele>
        <time>2003-04-17T07:42:17Z</time>
      </trkpt>
      <trkpt lat="31.123732980340719" lon="-4.015812976285815">
        <ele>721.5</ele>
        <time>2003-04-17T07:42:18Z</time>
      </trkpt>
      <trkpt lat="31.123601971194148" lon="-4.015711974352598">
        <ele>721.10000000000002</ele>
        <time>2003-04-17T07:42:21Z</time>
      </trkpt>
      <trkpt lat="31.123393010348082" lon="-4.015575014054775">
        <ele>721.10000000000002</ele>
        <time>2003-04-17T07:42:23Z</time>
      </trkpt>
      <trkpt lat="31.123039964586496" lon="-4.015433024615049">
        <ele>720.5</ele>
        <time>2003-04-17T07:42:29Z</time>
      </trkpt>
      <trkpt lat="31.12276503816247" lon="-4.015320036560297">
        <ele>719.29999999999995</ele>
        <time>2003-04-17T07:42:33Z</time>
      </trkpt>
      <trkpt lat="31.122630005702376" lon="-4.01526496745646">
        <ele>719.10000000000002</ele>
        <time>2003-04-17T07:42:34Z</time>
      </trkpt>
      <trkpt lat="31.122396988794208" lon="-4.01522196829319">
        <ele>718.39999999999998</ele>
        <time>2003-04-17T07:42:37Z</time>
      </trkpt>
      <trkpt lat="31.122232032939792" lon="-4.015239989385009">
        <ele>717.89999999999998</ele>
        <time>2003-04-17T07:42:40Z</time>
      </trkpt>
      <trkpt lat="31.121325027197599" lon="-4.015360018238425">
        <ele>717.60000000000002</ele>
        <time>2003-04-17T07:42:49Z</time>
      </trkpt>
      <trkpt lat="31.12038197927177" lon="-4.015632010996342">
        <ele>717.89999999999998</ele>
        <time>2003-04-17T07:43:00Z</time>
      </trkpt>
      <trkpt lat="31.11971796490252" lon="-4.015717003494501">
        <ele>717.5</ele>
        <time>2003-04-17T07:43:05Z</time>
      </trkpt>
      <trkpt lat="31.118754968047142" lon="-4.015765031799674">
        <ele>717.5</ele>
        <time>2003-04-17T07:43:15Z</time>
      </trkpt>
      <trkpt lat="31.118441987782717" lon="-4.01575799100101">
        <ele>718</ele>
        <time>2003-04-17T07:43:17Z</time>
      </trkpt>
      <trkpt lat="31.117704967036843" lon="-4.015914984047413">
        <ele>718.89999999999998</ele>
        <time>2003-04-17T07:43:24Z</time>
      </trkpt>
      <trkpt lat="31.117132985964417" lon="-4.016123022884131">
        <ele>720.10000000000002</ele>
        <time>2003-04-17T07:43:30Z</time>
      </trkpt>
      <trkpt lat="31.116808019578457" lon="-4.016237016767263">
        <ele>721.79999999999995</ele>
        <time>2003-04-17T07:43:32Z</time>
      </trkpt>
      <trkpt lat="31.116695031523705" lon="-4.016246991232038">
        <ele>721.89999999999998</ele>
        <time>2003-04-17T07:43:34Z</time>
      </trkpt>
      <trkpt lat="31.116357995197177" lon="-4.016237016767263">
        <ele>722.20000000000005</ele>
        <time>2003-04-17T07:43:36Z</time>
      </trkpt>
      <trkpt lat="31.116164959967136" lon="-4.016167027875781">
        <ele>721.79999999999995</ele>
        <time>2003-04-17T07:43:39Z</time>
      </trkpt>
      <trkpt lat="31.115500023588538" lon="-4.015867961570621">
        <ele>721.60000000000002</ele>
        <time>2003-04-17T07:43:46Z</time>
      </trkpt>
      <trkpt lat="31.11498998478055" lon="-4.015550035983324">
        <ele>722.70000000000005</ele>
        <time>2003-04-17T07:43:51Z</time>
      </trkpt>
      <trkpt lat="31.114625036716461" lon="-4.015309978276491">
        <ele>724.60000000000002</ele>
        <time>2003-04-17T07:43:55Z</time>
      </trkpt>
      <trkpt lat="31.114538032561541" lon="-4.015152985230088">
        <ele>724.10000000000002</ele>
        <time>2003-04-17T07:43:57Z</time>
      </trkpt>
      <trkpt lat="31.114526968449354" lon="-4.015007978305221">
        <ele>724.20000000000005</ele>
        <time>2003-04-17T07:43:58Z</time>
      </trkpt>
      <trkpt lat="31.114433007314801" lon="-4.014873029664159">
        <ele>724.39999999999998</ele>
        <time>2003-04-17T07:44:02Z</time>
      </trkpt>
      <trkpt lat="31.114269979298115" lon="-4.01487504132092">
        <ele>724.39999999999998</ele>
        <time>2003-04-17T07:44:06Z</time>
      </trkpt>
      <trkpt lat="31.114160008728504" lon="-4.014803040772677">
        <ele>724.20000000000005</ele>
        <time>2003-04-17T07:44:07Z</time>
      </trkpt>
      <trkpt lat="31.114052971825004" lon="-4.014682006090879">
        <ele>724.10000000000002</ele>
        <time>2003-04-17T07:44:10Z</time>
      </trkpt>
      <trkpt lat="31.113677965477109" lon="-4.01418998837471">
        <ele>724</ele>
        <time>2003-04-17T07:44:17Z</time>
      </trkpt>
      <trkpt lat="31.113558020442724" lon="-4.013907015323639">
        <ele>723.5</ele>
        <time>2003-04-17T07:44:20Z</time>
      </trkpt>
      <trkpt lat="31.113376971334219" lon="-4.01339303702116">
        <ele>723.5</ele>
        <time>2003-04-17T07:44:25Z</time>
      </trkpt>
      <trkpt lat="31.113221989944577" lon="-4.013112997636199">
        <ele>723.5</ele>
        <time>2003-04-17T07:44:29Z</time>
      </trkpt>
      <trkpt lat="31.113057034090161" lon="-4.012864977121353">
        <ele>723.10000000000002</ele>
        <time>2003-04-17T07:44:33Z</time>
      </trkpt>
      <trkpt lat="31.112937005236745" lon="-4.012721981853247">
        <ele>723</ele>
        <time>2003-04-17T07:44:34Z</time>
      </trkpt>
      <trkpt lat="31.112233009189367" lon="-4.012023014947772">
        <ele>721.20000000000005</ele>
        <time>2003-04-17T07:44:45Z</time>
      </trkpt>
      <trkpt lat="31.111690029501915" lon="-4.011341985315085">
        <ele>718.5</ele>
        <time>2003-04-17T07:44:55Z</time>
      </trkpt>
      <trkpt lat="31.111119976267219" lon="-4.010487031191587">
        <ele>715.79999999999995</ele>
        <time>2003-04-17T07:45:04Z</time>
      </trkpt>
      <trkpt lat="31.110616978257895" lon="-4.009974980726838">
        <ele>714.29999999999995</ele>
        <time>2003-04-17T07:45:12Z</time>
      </trkpt>
      <trkpt lat="31.110374992713332" lon="-4.009774988517165">
        <ele>712.89999999999998</ele>
        <time>2003-04-17T07:45:16Z</time>
      </trkpt>
      <trkpt lat="31.110211964696646" lon="-4.009732995182276">
        <ele>712.79999999999995</ele>
        <time>2003-04-17T07:45:19Z</time>
      </trkpt>
      <trkpt lat="31.109862020239234" lon="-4.009684966877103">
        <ele>712.5</ele>
        <time>2003-04-17T07:45:23Z</time>
      </trkpt>
      <trkpt lat="31.109687006101012" lon="-4.009650014340878">
        <ele>712.5</ele>
        <time>2003-04-17T07:45:24Z</time>
      </trkpt>
      <trkpt lat="31.109506962820888" lon="-4.009657977148891">
        <ele>713.29999999999995</ele>
        <time>2003-04-17T07:45:27Z</time>
      </trkpt>
      <trkpt lat="31.109336977824569" lon="-4.009702987968922">
        <ele>713.5</ele>
        <time>2003-04-17T07:45:28Z</time>
      </trkpt>
      <trkpt lat="31.109097003936768" lon="-4.00982704013586">
        <ele>713.5</ele>
        <time>2003-04-17T07:45:31Z</time>
      </trkpt>
      <trkpt lat="31.108855018392205" lon="-4.010010017082095">
        <ele>714.70000000000005</ele>
        <time>2003-04-17T07:45:35Z</time>
      </trkpt>
      <trkpt lat="31.108401976525784" lon="-4.010359961539507">
        <ele>715.39999999999998</ele>
        <time>2003-04-17T07:45:41Z</time>
      </trkpt>
      <trkpt lat="31.108257975429296" lon="-4.010415030643344">
        <ele>715.29999999999995</ele>
        <time>2003-04-17T07:45:43Z</time>
      </trkpt>
      <trkpt lat="31.108127972111106" lon="-4.01047496125102">
        <ele>716.20000000000005</ele>
        <time>2003-04-17T07:45:45Z</time>
      </trkpt>
      <trkpt lat="31.108026970177889" lon="-4.010585015639663">
        <ele>715.5</ele>
        <time>2003-04-17T07:45:46Z</time>
      </trkpt>
      <trkpt lat="31.107824966311455" lon="-4.010834963992238">
        <ele>715.70000000000005</ele>
        <time>2003-04-17T07:45:50Z</time>
      </trkpt>
      <trkpt lat="31.107181990519166" lon="-4.011371992528439">
        <ele>715.10000000000002</ele>
        <time>2003-04-17T07:46:02Z</time>
      </trkpt>
      <trkpt lat="31.107022985816002" lon="-4.011390013620257">
        <ele>715</ele>
        <time>2003-04-17T07:46:03Z</time>
      </trkpt>
      <trkpt lat="31.106712017208338" lon="-4.01139697059989">
        <ele>715</ele>
        <time>2003-04-17T07:46:08Z</time>
      </trkpt>
      <trkpt lat="31.106561981141567" lon="-4.011487998068333">
        <ele>714.89999999999998</ele>
        <time>2003-04-17T07:46:10Z</time>
      </trkpt>
      <trkpt lat="31.10633198171854" lon="-4.011623030528426">
        <ele>714.60000000000002</ele>
        <time>2003-04-17T07:46:13Z</time>
      </trkpt>
      <trkpt lat="31.105518015101552" lon="-4.011998036876321">
        <ele>714.39999999999998</ele>
        <time>2003-04-17T07:46:24Z</time>
      </trkpt>
      <trkpt lat="31.105397986248136" lon="-4.012127034366131">
        <ele>713.89999999999998</ele>
        <time>2003-04-17T07:46:25Z</time>
      </trkpt>
      <trkpt lat="31.105139991268516" lon="-4.012376982718706">
        <ele>713.70000000000005</ele>
        <time>2003-04-17T07:46:29Z</time>
      </trkpt>
      <trkpt lat="31.104558035731316" lon="-4.012930020689964">
        <ele>714.20000000000005</ele>
        <time>2003-04-17T07:46:39Z</time>
      </trkpt>
      <trkpt lat="31.103917993605137" lon="-4.013671986758709">
        <ele>714.10000000000002</ele>
        <time>2003-04-17T07:46:49Z</time>
      </trkpt>
      <trkpt lat="31.103501999750733" lon="-4.014176996424794">
        <ele>714</ele>
        <time>2003-04-17T07:46:57Z</time>
      </trkpt>
      <trkpt lat="31.103318016976118" lon="-4.014427028596401">
        <ele>714.20000000000005</ele>
        <time>2003-04-17T07:47:02Z</time>
      </trkpt>
      <trkpt lat="31.103248028084636" lon="-4.0145100094378">
        <ele>714.20000000000005</ele>
        <time>2003-04-17T07:47:04Z</time>
      </trkpt>
      <trkpt lat="31.103207040578127" lon="-4.014616962522268">
        <ele>714</ele>
        <time>2003-04-17T07:47:06Z</time>
      </trkpt>
      <trkpt lat="31.103096986189485" lon="-4.014960033819079">
        <ele>714.29999999999995</ele>
        <time>2003-04-17T07:47:11Z</time>
      </trkpt>
      <trkpt lat="31.102834967896342" lon="-4.015473006293178">
        <ele>714.70000000000005</ele>
        <time>2003-04-17T07:47:18Z</time>
      </trkpt>
      <trkpt lat="31.102691972628236" lon="-4.015680039301515">
        <ele>714.70000000000005</ele>
        <time>2003-04-17T07:47:20Z</time>
      </trkpt>
      <trkpt lat="31.102555012330413" lon="-4.015760002657771">
        <ele>714.79999999999995</ele>
        <time>2003-04-17T07:47:23Z</time>
      </trkpt>
      <trkpt lat="31.102401958778501" lon="-4.015781963244081">
        <ele>715</ele>
        <time>2003-04-17T07:47:24Z</time>
      </trkpt>
      <trkpt lat="31.102174976840615" lon="-4.015842983499169">
        <ele>715.29999999999995</ele>
        <time>2003-04-17T07:47:27Z</time>
      </trkpt>
      <trkpt lat="31.101362016052008" lon="-4.016108019277453">
        <ele>718.39999999999998</ele>
        <time>2003-04-17T07:47:38Z</time>
      </trkpt>
      <trkpt lat="31.100918026641011" lon="-4.016301976516843">
        <ele>718.79999999999995</ele>
        <time>2003-04-17T07:47:42Z</time>
      </trkpt>
      <trkpt lat="31.10065701417625" lon="-4.016404990106821">
        <ele>719.89999999999998</ele>
        <time>2003-04-17T07:47:46Z</time>
      </trkpt>
      <trkpt lat="31.100404970347881" lon="-4.016522001475096">
        <ele>720.39999999999998</ele>
        <time>2003-04-17T07:47:49Z</time>
      </trkpt>
      <trkpt lat="31.100315032526851" lon="-4.016537005081773">
        <ele>720.79999999999995</ele>
        <time>2003-04-17T07:47:50Z</time>
      </trkpt>
      <trkpt lat="31.100132977589965" lon="-4.016537005081773">
        <ele>721.20000000000005</ele>
        <time>2003-04-17T07:47:51Z</time>
      </trkpt>
      <trkpt lat="31.09995000064373" lon="-4.016500040888786">
        <ele>721.5</ele>
        <time>2003-04-17T07:47:54Z</time>
      </trkpt>
      <trkpt lat="31.099765012040734" lon="-4.016427034512162">
        <ele>721.70000000000005</ele>
        <time>2003-04-17T07:47:56Z</time>
      </trkpt>
      <trkpt lat="31.098907040432096" lon="-4.016041969880462">
        <ele>720.10000000000002</ele>
        <time>2003-04-17T07:48:05Z</time>
      </trkpt>
      <trkpt lat="31.098615014925599" lon="-4.015856981277466">
        <ele>718.39999999999998</ele>
        <time>2003-04-17T07:48:09Z</time>
      </trkpt>
      <trkpt lat="31.098403036594391" lon="-4.01569495908916">
        <ele>717.89999999999998</ele>
        <time>2003-04-17T07:48:13Z</time>
      </trkpt>
      <trkpt lat="31.0982730332762" lon="-4.015524974092841">
        <ele>717.70000000000005</ele>
        <time>2003-04-17T07:48:14Z</time>
      </trkpt>
      <trkpt lat="31.097623016685247" lon="-4.014719976112247">
        <ele>716.39999999999998</ele>
        <time>2003-04-17T07:48:24Z</time>
      </trkpt>
      <trkpt lat="31.097299978137016" lon="-4.014340024441481">
        <ele>715.29999999999995</ele>
        <time>2003-04-17T07:48:28Z</time>
      </trkpt>
      <trkpt lat="31.097105015069246" lon="-4.014083035290241">
        <ele>713.20000000000005</ele>
        <time>2003-04-17T07:48:33Z</time>
      </trkpt>
      <trkpt lat="31.097032008692622" lon="-4.01401698589325">
        <ele>712.5</ele>
        <time>2003-04-17T07:48:35Z</time>
      </trkpt>
      <trkpt lat="31.096926983445883" lon="-4.014065014198422">
        <ele>713.20000000000005</ele>
        <time>2003-04-17T07:48:37Z</time>
      </trkpt>
      <trkpt lat="31.096807038411498" lon="-4.014122011139989">
        <ele>713.89999999999998</ele>
        <time>2003-04-17T07:48:40Z</time>
      </trkpt>
      <trkpt lat="31.0967050306499" lon="-4.014065014198422">
        <ele>713.10000000000002</ele>
        <time>2003-04-17T07:48:44Z</time>
      </trkpt>
      <trkpt lat="31.096590030938387" lon="-4.014046993106604">
        <ele>713</ele>
        <time>2003-04-17T07:48:44Z</time>
      </trkpt>
      <trkpt lat="31.096458015963435" lon="-4.014053028076887">
        <ele>712.5</ele>
        <time>2003-04-17T07:48:47Z</time>
      </trkpt>
      <trkpt lat="31.096357014030218" lon="-4.014087980613112">
        <ele>712.60000000000002</ele>
        <time>2003-04-17T07:48:48Z</time>
      </trkpt>
      <trkpt lat="31.096261963248253" lon="-4.014098038896918">
        <ele>713</ele>
        <time>2003-04-17T07:48:52Z</time>
      </trkpt>
      <trkpt lat="31.096157021820545" lon="-4.014104995876551">
        <ele>713</ele>
        <time>2003-04-17T07:48:55Z</time>
      </trkpt>
      <trkpt lat="31.096010003238916" lon="-4.014127962291241">
        <ele>712.79999999999995</ele>
        <time>2003-04-17T07:48:55Z</time>
      </trkpt>
      <trkpt lat="31.095713032409549" lon="-4.014227958396077">
        <ele>712.5</ele>
        <time>2003-04-17T07:48:59Z</time>
      </trkpt>
      <trkpt lat="31.095442967489362" lon="-4.014344969764352">
        <ele>712.5</ele>
        <time>2003-04-17T07:49:03Z</time>
      </trkpt>
      <trkpt lat="31.095301983878016" lon="-4.014344969764352">
        <ele>712.10000000000002</ele>
        <time>2003-04-17T07:49:07Z</time>
      </trkpt>
      <trkpt lat="31.095012975856662" lon="-4.014327032491565">
        <ele>712.29999999999995</ele>
        <time>2003-04-17T07:49:10Z</time>
      </trkpt>
      <trkpt lat="31.094666970893741" lon="-4.014370031654835">
        <ele>712.10000000000002</ele>
        <time>2003-04-17T07:49:15Z</time>
      </trkpt>
      <trkpt lat="31.094527998939157" lon="-4.014325020834804">
        <ele>712</ele>
        <time>2003-04-17T07:49:18Z</time>
      </trkpt>
      <trkpt lat="31.09440503641963" lon="-4.014287972822785">
        <ele>711.70000000000005</ele>
        <time>2003-04-17T07:49:19Z</time>
      </trkpt>
      <trkpt lat="31.094285007566214" lon="-4.014289984479547">
        <ele>711.39999999999998</ele>
        <time>2003-04-17T07:49:22Z</time>
      </trkpt>
      <trkpt lat="31.094091972336173" lon="-4.014282021671534">
        <ele>711.10000000000002</ele>
        <time>2003-04-17T07:49:25Z</time>
      </trkpt>
      <trkpt lat="31.093966998159885" lon="-4.01423298753798">
        <ele>711</ele>
        <time>2003-04-17T07:49:26Z</time>
      </trkpt>
      <trkpt lat="31.093736998736858" lon="-4.01414698921144">
        <ele>710.70000000000005</ele>
        <time>2003-04-17T07:49:30Z</time>
      </trkpt>
      <trkpt lat="31.093608001247048" lon="-4.014112958684564">
        <ele>710.39999999999998</ele>
        <time>2003-04-17T07:49:34Z</time>
      </trkpt>
      <trkpt lat="31.093437010422349" lon="-4.014077000319958">
        <ele>709.79999999999995</ele>
        <time>2003-04-17T07:49:37Z</time>
      </trkpt>
      <trkpt lat="31.093316981568933" lon="-4.014025032520294">
        <ele>709.5</ele>
        <time>2003-04-17T07:49:38Z</time>
      </trkpt>
      <trkpt lat="31.092986986041069" lon="-4.013852030038834">
        <ele>708.29999999999995</ele>
        <time>2003-04-17T07:49:44Z</time>
      </trkpt>
      <trkpt lat="31.092827981337905" lon="-4.01384498924017">
        <ele>708.20000000000005</ele>
        <time>2003-04-17T07:49:46Z</time>
      </trkpt>
      <trkpt lat="31.092379968613386" lon="-4.013857981190085">
        <ele>708.5</ele>
        <time>2003-04-17T07:49:50Z</time>
      </trkpt>
      <trkpt lat="31.091996999457479" lon="-4.013827973976731">
        <ele>708.79999999999995</ele>
        <time>2003-04-17T07:49:54Z</time>
      </trkpt>
      <trkpt lat="31.091095022857189" lon="-4.013701993972063">
        <ele>709.10000000000002</ele>
        <time>2003-04-17T07:50:05Z</time>
      </trkpt>
      <trkpt lat="31.090218024328351" lon="-4.013699982315302">
        <ele>709.89999999999998</ele>
        <time>2003-04-17T07:50:15Z</time>
      </trkpt>
      <trkpt lat="31.089803036302328" lon="-4.013662012293935">
        <ele>710.29999999999995</ele>
        <time>2003-04-17T07:50:20Z</time>
      </trkpt>
      <trkpt lat="31.089662974700332" lon="-4.013656983152032">
        <ele>710.29999999999995</ele>
        <time>2003-04-17T07:50:24Z</time>
      </trkpt>
      <trkpt lat="31.08957203105092" lon="-4.013657988980413">
        <ele>710.5</ele>
        <time>2003-04-17T07:50:42Z</time>
      </trkpt>
      <trkpt lat="31.089459965005517" lon="-4.013654971495271">
        <ele>710.60000000000002</ele>
        <time>2003-04-17T07:50:44Z</time>
      </trkpt>
      <trkpt lat="31.089407997205853" lon="-4.01356503367424">
        <ele>710.60000000000002</ele>
        <time>2003-04-17T07:50:47Z</time>
      </trkpt>
      <trkpt lat="31.089487038552761" lon="-4.013473000377417">
        <ele>710.39999999999998</ele>
        <time>2003-04-17T07:50:51Z</time>
      </trkpt>
      <trkpt lat="31.089574964717031" lon="-4.013447016477585">
        <ele>710.20000000000005</ele>
        <time>2003-04-17T07:50:52Z</time>
      </trkpt>
      <trkpt lat="31.089785015210509" lon="-4.013367975130677">
        <ele>710.20000000000005</ele>
        <time>2003-04-17T07:50:56Z</time>
      </trkpt>
      <trkpt lat="31.090077962726355" lon="-4.013192038983107">
        <ele>710.60000000000002</ele>
        <time>2003-04-17T07:51:02Z</time>
      </trkpt>
      <trkpt lat="31.090524969622493" lon="-4.012948041781783">
        <ele>711.39999999999998</ele>
        <time>2003-04-17T07:51:09Z</time>
      </trkpt>
      <trkpt lat="31.090914979577065" lon="-4.01279297657311">
        <ele>710.70000000000005</ele>
        <time>2003-04-17T07:51:14Z</time>
      </trkpt>
      <trkpt lat="31.091101979836822" lon="-4.012688035145402">
        <ele>710.60000000000002</ele>
        <time>2003-04-17T07:51:17Z</time>
      </trkpt>
      <trkpt lat="31.091380007565022" lon="-4.012545039877296">
        <ele>711.29999999999995</ele>
        <time>2003-04-17T07:51:21Z</time>
      </trkpt>
      <trkpt lat="31.091564996168017" lon="-4.01249198243022">
        <ele>710.89999999999998</ele>
        <time>2003-04-17T07:51:23Z</time>
      </trkpt>
      <trkpt lat="31.091682007536292" lon="-4.012498017400503">
        <ele>711.10000000000002</ele>
        <time>2003-04-17T07:51:26Z</time>
      </trkpt>
      <trkpt lat="31.091773035004735" lon="-4.01249198243022">
        <ele>711.20000000000005</ele>
        <time>2003-04-17T07:51:29Z</time>
      </trkpt>
      <trkpt lat="31.091912006959319" lon="-4.012446971610189">
        <ele>711.20000000000005</ele>
        <time>2003-04-17T07:51:30Z</time>
      </trkpt>
      <trkpt lat="31.09208500944078" lon="-4.012382011860609">
        <ele>711.20000000000005</ele>
        <time>2003-04-17T07:51:33Z</time>
      </trkpt>
      <trkpt lat="31.092341998592019" lon="-4.012261983007193">
        <ele>711.29999999999995</ele>
        <time>2003-04-17T07:51:36Z</time>
      </trkpt>
      <trkpt lat="31.092705018818378" lon="-4.012101972475648">
        <ele>711.10000000000002</ele>
        <time>2003-04-17T07:51:41Z</time>
      </trkpt>
      <trkpt lat="31.093005007132888" lon="-4.011989990249276">
        <ele>710.70000000000005</ele>
        <time>2003-04-17T07:51:45Z</time>
      </trkpt>
      <trkpt lat="31.0934619884938" lon="-4.011897034943104">
        <ele>710.39999999999998</ele>
        <time>2003-04-17T07:51:53Z</time>
      </trkpt>
      <trkpt lat="31.093576988205314" lon="-4.011898040771484">
        <ele>710.39999999999998</ele>
        <time>2003-04-17T07:51:54Z</time>
      </trkpt>
      <trkpt lat="31.093740016222" lon="-4.011904997751117">
        <ele>710.70000000000005</ele>
        <time>2003-04-17T07:51:57Z</time>
      </trkpt>
      <trkpt lat="31.093838000670075" lon="-4.011920001357794">
        <ele>710.89999999999998</ele>
        <time>2003-04-17T07:52:00Z</time>
      </trkpt>
      <trkpt lat="31.09408300369978" lon="-4.011925030499697">
        <ele>711.20000000000005</ele>
        <time>2003-04-17T07:52:04Z</time>
      </trkpt>
      <trkpt lat="31.094330018386245" lon="-4.011895023286343">
        <ele>711.70000000000005</ele>
        <time>2003-04-17T07:52:08Z</time>
      </trkpt>
      <trkpt lat="31.094451975077391" lon="-4.011844983324409">
        <ele>712.10000000000002</ele>
        <time>2003-04-17T07:52:09Z</time>
      </trkpt>
      <trkpt lat="31.094564963132143" lon="-4.011774994432926">
        <ele>712.20000000000005</ele>
        <time>2003-04-17T07:52:12Z</time>
      </trkpt>
      <trkpt lat="31.094856988638639" lon="-4.01156997308135">
        <ele>713.79999999999995</ele>
        <time>2003-04-17T07:52:17Z</time>
      </trkpt>
      <trkpt lat="31.094944998621941" lon="-4.011511970311403">
        <ele>715.60000000000002</ele>
        <time>2003-04-17T07:52:20Z</time>
      </trkpt>
      <trkpt lat="31.095023034140468" lon="-4.01146000251174">
        <ele>715.60000000000002</ele>
        <time>2003-04-17T07:52:28Z</time>
      </trkpt>
      <trkpt lat="31.095126969739795" lon="-4.011435024440289">
        <ele>715.79999999999995</ele>
        <time>2003-04-17T07:52:35Z</time>
      </trkpt>
      <trkpt lat="31.095208022743464" lon="-4.011538038030267">
        <ele>716.20000000000005</ele>
        <time>2003-04-17T07:52:39Z</time>
      </trkpt>
      <trkpt lat="31.095301983878016" lon="-4.01167499832809">
        <ele>717.10000000000002</ele>
        <time>2003-04-17T07:52:42Z</time>
      </trkpt>
      <trkpt lat="31.095438022166491" lon="-4.011852024123073">
        <ele>716.5</ele>
        <time>2003-04-17T07:52:44Z</time>
      </trkpt>
      <trkpt lat="31.095538018271327" lon="-4.012004993855953">
        <ele>716.29999999999995</ele>
        <time>2003-04-17T07:52:47Z</time>
      </trkpt>
      <trkpt lat="31.095714960247278" lon="-4.01223499327898">
        <ele>715.89999999999998</ele>
        <time>2003-04-17T07:52:50Z</time>
      </trkpt>
      <trkpt lat="31.096343016251922" lon="-4.013009984046221">
        <ele>715.10000000000002</ele>
        <time>2003-04-17T07:52:59Z</time>
      </trkpt>
      <trkpt lat="31.096422979608178" lon="-4.013117020949721">
        <ele>715</ele>
        <time>2003-04-17T07:53:02Z</time>
      </trkpt>
      <trkpt lat="31.096950033679605" lon="-4.0138019900769">
        <ele>714.70000000000005</ele>
        <time>2003-04-17T07:53:14Z</time>
      </trkpt>
      <trkpt lat="31.097056986764073" lon="-4.013816993683577">
        <ele>714.60000000000002</ele>
        <time>2003-04-17T07:53:17Z</time>
      </trkpt>
      <trkpt lat="31.09715698286891" lon="-4.013797966763377">
        <ele>715.20000000000005</ele>
        <time>2003-04-17T07:53:20Z</time>
      </trkpt>
      <trkpt lat="31.097302995622158" lon="-4.013782041147351">
        <ele>715.79999999999995</ele>
        <time>2003-04-17T07:53:25Z</time>
      </trkpt>
      <trkpt lat="31.097171986475587" lon="-4.013886982575059">
        <ele>711.70000000000005</ele>
        <time>2003-04-17T08:15:05Z</time>
      </trkpt>
      <trkpt lat="31.097066961228848" lon="-4.013932999223471">
        <ele>709.89999999999998</ele>
        <time>2003-04-17T08:15:21Z</time>
      </trkpt>
      <trkpt lat="31.096954979002476" lon="-4.013850018382072">
        <ele>709.20000000000005</ele>
        <time>2003-04-17T08:15:24Z</time>
      </trkpt>
      <trkpt lat="31.096803015097976" lon="-4.0136500261724">
        <ele>709</ele>
        <time>2003-04-17T08:15:28Z</time>
      </trkpt>
      <trkpt lat="31.096648033708334" lon="-4.013447016477585">
        <ele>708.89999999999998</ele>
        <time>2003-04-17T08:15:31Z</time>
      </trkpt>
      <trkpt lat="31.096032969653606" lon="-4.012673031538725">
        <ele>708.89999999999998</ele>
        <time>2003-04-17T08:15:41Z</time>
      </trkpt>
      <trkpt lat="31.095386976376176" lon="-4.011850012466312">
        <ele>708.10000000000002</ele>
        <time>2003-04-17T08:15:54Z</time>
      </trkpt>
      <trkpt lat="31.095277005806565" lon="-4.011701988056302">
        <ele>708</ele>
        <time>2003-04-17T08:15:56Z</time>
      </trkpt>
      <trkpt lat="31.095210034400225" lon="-4.011627975851297">
        <ele>708.10000000000002</ele>
        <time>2003-04-17T08:15:59Z</time>
      </trkpt>
      <trkpt lat="31.095159994438291" lon="-4.011533008888364">
        <ele>707.89999999999998</ele>
        <time>2003-04-17T08:16:03Z</time>
      </trkpt>
      <trkpt lat="31.095190001651645" lon="-4.011423038318753">
        <ele>707.70000000000005</ele>
        <time>2003-04-17T08:16:08Z</time>
      </trkpt>
      <trkpt lat="31.095257978886366" lon="-4.011345002800226">
        <ele>707.20000000000005</ele>
        <time>2003-04-17T08:16:15Z</time>
      </trkpt>
      <trkpt lat="31.095359986647964" lon="-4.011217011138797">
        <ele>707.5</ele>
        <time>2003-04-17T08:16:26Z</time>
      </trkpt>
      <trkpt lat="31.095438022166491" lon="-4.011279959231615">
        <ele>706.70000000000005</ele>
        <time>2003-04-17T08:17:09Z</time>
      </trkpt>
      <trkpt lat="31.095346994698048" lon="-4.011337962001562">
        <ele>706.70000000000005</ele>
        <time>2003-04-17T08:17:13Z</time>
      </trkpt>
      <trkpt lat="31.095227971673012" lon="-4.011380039155483">
        <ele>706</ele>
        <time>2003-04-17T08:17:19Z</time>
      </trkpt>
      <trkpt lat="31.095067961141467" lon="-4.011432006955147">
        <ele>706</ele>
        <time>2003-04-17T08:17:27Z</time>
      </trkpt>
      <trkpt lat="31.094877021387219" lon="-4.011497972533107">
        <ele>706</ele>
        <time>2003-04-17T08:17:32Z</time>
      </trkpt>
      <trkpt lat="31.094779958948493" lon="-4.011484980583191">
        <ele>705.89999999999998</ele>
        <time>2003-04-17T08:17:36Z</time>
      </trkpt>
      <trkpt lat="31.094302022829652" lon="-4.011341985315085">
        <ele>705.70000000000005</ele>
        <time>2003-04-17T08:17:50Z</time>
      </trkpt>
      <trkpt lat="31.09376298263669" lon="-4.011152973398566">
        <ele>706</ele>
        <time>2003-04-17T08:18:00Z</time>
      </trkpt>
      <trkpt lat="31.093516973778605" lon="-4.011112991720438">
        <ele>706.10000000000002</ele>
        <time>2003-04-17T08:18:05Z</time>
      </trkpt>
      <trkpt lat="31.093383030965924" lon="-4.01109698228538">
        <ele>706.20000000000005</ele>
        <time>2003-04-17T08:18:07Z</time>
      </trkpt>
      <trkpt lat="31.093014981597662" lon="-4.011066975072026">
        <ele>710.79999999999995</ele>
        <time>2003-04-17T08:18:14Z</time>
      </trkpt>
      <trkpt lat="31.092890007421374" lon="-4.011107962578535">
        <ele>712</ele>
        <time>2003-04-17T08:18:17Z</time>
      </trkpt>
      <trkpt lat="31.092530004680157" lon="-4.011239977553487">
        <ele>714.5</ele>
        <time>2003-04-17T08:18:22Z</time>
      </trkpt>
      <trkpt lat="31.092061959207058" lon="-4.011296974495053">
        <ele>713.29999999999995</ele>
        <time>2003-04-17T08:18:30Z</time>
      </trkpt>
      <trkpt lat="31.09114003367722" lon="-4.011307032778859">
        <ele>712.10000000000002</ele>
        <time>2003-04-17T08:18:44Z</time>
      </trkpt>
      <trkpt lat="31.090182987973094" lon="-4.011342991143465">
        <ele>710.79999999999995</ele>
        <time>2003-04-17T08:18:57Z</time>
      </trkpt>
      <trkpt lat="31.089252009987831" lon="-4.011405017226934">
        <ele>710.10000000000002</ele>
        <time>2003-04-17T08:19:12Z</time>
      </trkpt>
      <trkpt lat="31.089065009728074" lon="-4.011423038318753">
        <ele>710</ele>
        <time>2003-04-17T08:19:16Z</time>
      </trkpt>
      <trkpt lat="31.088897036388516" lon="-4.011433012783527">
        <ele>707.79999999999995</ele>
        <time>2003-04-17T08:20:10Z</time>
      </trkpt>
      <trkpt lat="31.088748006150126" lon="-4.011426977813244">
        <ele>707.79999999999995</ele>
        <time>2003-04-17T08:20:25Z</time>
      </trkpt>
      <trkpt lat="31.088136965408921" lon="-4.011350031942129">
        <ele>707.60000000000002</ele>
        <time>2003-04-17T08:20:41Z</time>
      </trkpt>
      <trkpt lat="31.08787695877254" lon="-4.011314995586872">
        <ele>707.39999999999998</ele>
        <time>2003-04-17T08:20:52Z</time>
      </trkpt>
      <trkpt lat="31.087770005688071" lon="-4.011307032778859">
        <ele>707.39999999999998</ele>
        <time>2003-04-17T08:20:56Z</time>
      </trkpt>
      <trkpt lat="31.087673027068377" lon="-4.011312983930111">
        <ele>707.29999999999995</ele>
        <time>2003-04-17T08:21:00Z</time>
      </trkpt>
      <trkpt lat="31.087502958253026" lon="-4.01133201085031">
        <ele>707.20000000000005</ele>
        <time>2003-04-17T08:21:05Z</time>
      </trkpt>
      <trkpt lat="31.087267007678747" lon="-4.011294962838292">
        <ele>707.5</ele>
        <time>2003-04-17T08:21:12Z</time>
      </trkpt>
      <trkpt lat="31.087172962725163" lon="-4.011211981996894">
        <ele>707.60000000000002</ele>
        <time>2003-04-17T08:21:15Z</time>
      </trkpt>
      <trkpt lat="31.087053017690778" lon="-4.011179963126779">
        <ele>707.60000000000002</ele>
        <time>2003-04-17T08:21:18Z</time>
      </trkpt>
      <trkpt lat="31.086895018815994" lon="-4.01118197478354">
        <ele>707.60000000000002</ele>
        <time>2003-04-17T08:21:20Z</time>
      </trkpt>
      <trkpt lat="31.086699971929193" lon="-4.011164959520102">
        <ele>707.60000000000002</ele>
        <time>2003-04-17T08:21:23Z</time>
      </trkpt>
      <trkpt lat="31.08649997971952" lon="-4.01118197478354">
        <ele>707.60000000000002</ele>
        <time>2003-04-17T08:21:27Z</time>
      </trkpt>
      <trkpt lat="31.086341980844736" lon="-4.011207958683372">
        <ele>707.5</ele>
        <time>2003-04-17T08:21:30Z</time>
      </trkpt>
      <trkpt lat="31.086245002225041" lon="-4.011166971176863">
        <ele>707.39999999999998</ele>
        <time>2003-04-17T08:21:31Z</time>
      </trkpt>
      <trkpt lat="31.086148023605347" lon="-4.01116001419723">
        <ele>707.5</ele>
        <time>2003-04-17T08:21:34Z</time>
      </trkpt>
      <trkpt lat="31.085806963965297" lon="-4.011150039732456">
        <ele>707.79999999999995</ele>
        <time>2003-04-17T08:21:41Z</time>
      </trkpt>
      <trkpt lat="31.085676960647106" lon="-4.011151967570186">
        <ele>707.79999999999995</ele>
        <time>2003-04-17T08:21:43Z</time>
      </trkpt>
      <trkpt lat="31.085192989557981" lon="-4.011188009753823">
        <ele>707.5</ele>
        <time>2003-04-17T08:21:53Z</time>
      </trkpt>
      <trkpt lat="31.084829969331622" lon="-4.011148028075695">
        <ele>707.60000000000002</ele>
        <time>2003-04-17T08:21:58Z</time>
      </trkpt>
      <trkpt lat="31.084444988518953" lon="-4.011032022535801">
        <ele>707.39999999999998</ele>
        <time>2003-04-17T08:22:02Z</time>
      </trkpt>
      <trkpt lat="31.084257988259196" lon="-4.01094501838088">
        <ele>707.29999999999995</ele>
        <time>2003-04-17T08:22:06Z</time>
      </trkpt>
      <trkpt lat="31.084111975505948" lon="-4.010873017832637">
        <ele>707.29999999999995</ele>
        <time>2003-04-17T08:22:09Z</time>
      </trkpt>
      <trkpt lat="31.084008039906621" lon="-4.010830018669367">
        <ele>707.5</ele>
        <time>2003-04-17T08:22:16Z</time>
      </trkpt>
      <trkpt lat="31.083892034366727" lon="-4.010791964828968">
        <ele>707.5</ele>
        <time>2003-04-17T08:22:18Z</time>
      </trkpt>
      <trkpt lat="31.083781979978085" lon="-4.010776961222291">
        <ele>707.39999999999998</ele>
        <time>2003-04-17T08:22:21Z</time>
      </trkpt>
      <trkpt lat="31.08353303745389" lon="-4.010779978707433">
        <ele>707.39999999999998</ele>
        <time>2003-04-17T08:22:25Z</time>
      </trkpt>
      <trkpt lat="31.083247968927026" lon="-4.010800011456013">
        <ele>707.60000000000002</ele>
        <time>2003-04-17T08:22:29Z</time>
      </trkpt>
      <trkpt lat="31.083000032231212" lon="-4.010790036991239">
        <ele>707.39999999999998</ele>
        <time>2003-04-17T08:22:32Z</time>
      </trkpt>
      <trkpt lat="31.082710018381476" lon="-4.01077201589942">
        <ele>707.39999999999998</ele>
        <time>2003-04-17T08:22:36Z</time>
      </trkpt>
      <trkpt lat="31.082559982314706" lon="-4.010817026719451">
        <ele>707.60000000000002</ele>
        <time>2003-04-17T08:22:37Z</time>
      </trkpt>
      <trkpt lat="31.082426961511374" lon="-4.010828007012606">
        <ele>707.60000000000002</ele>
        <time>2003-04-17T08:22:40Z</time>
      </trkpt>
      <trkpt lat="31.082301987335086" lon="-4.010766986757517">
        <ele>707.89999999999998</ele>
        <time>2003-04-17T08:22:41Z</time>
      </trkpt>
      <trkpt lat="31.082196962088346" lon="-4.010764975100756">
        <ele>708</ele>
        <time>2003-04-17T08:22:44Z</time>
      </trkpt>
      <trkpt lat="31.082038041204214" lon="-4.010819960385561">
        <ele>707.89999999999998</ele>
        <time>2003-04-17T08:22:45Z</time>
      </trkpt>
      <trkpt lat="31.081851962953806" lon="-4.010920040309429">
        <ele>707.79999999999995</ele>
        <time>2003-04-17T08:22:48Z</time>
      </trkpt>
      <trkpt lat="31.081536971032619" lon="-4.011017018929124">
        <ele>707.89999999999998</ele>
        <time>2003-04-17T08:22:51Z</time>
      </trkpt>
      <trkpt lat="31.08132298104465" lon="-4.011027999222279">
        <ele>708</ele>
        <time>2003-04-17T08:22:52Z</time>
      </trkpt>
      <trkpt lat="31.081230025738478" lon="-4.010994974523783">
        <ele>708</ele>
        <time>2003-04-17T08:22:53Z</time>
      </trkpt>
      <trkpt lat="31.080272980034351" lon="-4.010637989267707">
        <ele>708.5</ele>
        <time>2003-04-17T08:23:03Z</time>
      </trkpt>
      <trkpt lat="31.07977501116693" lon="-4.010547967627645">
        <ele>709.29999999999995</ele>
        <time>2003-04-17T08:23:07Z</time>
      </trkpt>
      <trkpt lat="31.079677026718855" lon="-4.010572023689747">
        <ele>709.10000000000002</ele>
        <time>2003-04-17T08:23:08Z</time>
      </trkpt>
      <trkpt lat="31.079488014802337" lon="-4.010598007589579">
        <ele>708.79999999999995</ele>
        <time>2003-04-17T08:23:11Z</time>
      </trkpt>
      <trkpt lat="31.079243011772633" lon="-4.010589960962534">
        <ele>708.5</ele>
        <time>2003-04-17T08:23:14Z</time>
      </trkpt>
      <trkpt lat="31.078989962115884" lon="-4.010619968175888">
        <ele>708.39999999999998</ele>
        <time>2003-04-17T08:23:16Z</time>
      </trkpt>
      <trkpt lat="31.078740013763309" lon="-4.010628014802933">
        <ele>708.60000000000002</ele>
        <time>2003-04-17T08:23:19Z</time>
      </trkpt>
      <trkpt lat="31.07859299518168" lon="-4.010642012581229">
        <ele>709</ele>
        <time>2003-04-17T08:23:22Z</time>
      </trkpt>
      <trkpt lat="31.078391997143626" lon="-4.010676965117455">
        <ele>708.20000000000005</ele>
        <time>2003-04-17T08:23:23Z</time>
      </trkpt>
      <trkpt lat="31.078031994402409" lon="-4.010736979544163">
        <ele>708.60000000000002</ele>
        <time>2003-04-17T08:23:27Z</time>
      </trkpt>
      <trkpt lat="31.077914983034134" lon="-4.010755000635982">
        <ele>708.70000000000005</ele>
        <time>2003-04-17T08:23:30Z</time>
      </trkpt>
      <trkpt lat="31.077752960845828" lon="-4.010777967050672">
        <ele>708.70000000000005</ele>
        <time>2003-04-17T08:23:31Z</time>
      </trkpt>
      <trkpt lat="31.077565038576722" lon="-4.010809985920787">
        <ele>708.79999999999995</ele>
        <time>2003-04-17T08:23:34Z</time>
      </trkpt>
      <trkpt lat="31.077190032228827" lon="-4.010828007012606">
        <ele>712.29999999999995</ele>
        <time>2003-04-17T08:23:38Z</time>
      </trkpt>
      <trkpt lat="31.076198033988476" lon="-4.010839993134141">
        <ele>711.70000000000005</ele>
        <time>2003-04-17T08:23:47Z</time>
      </trkpt>
      <trkpt lat="31.075207963585854" lon="-4.010969996452332">
        <ele>711.29999999999995</ele>
        <time>2003-04-17T08:23:58Z</time>
      </trkpt>
      <trkpt lat="31.074740001931787" lon="-4.011024981737137">
        <ele>711.29999999999995</ele>
        <time>2003-04-17T08:24:01Z</time>
      </trkpt>
      <trkpt lat="31.073799971491098" lon="-4.011054988950491">
        <ele>711.20000000000005</ele>
        <time>2003-04-17T08:24:09Z</time>
      </trkpt>
      <trkpt lat="31.072928002104163" lon="-4.011109974235296">
        <ele>711.29999999999995</ele>
        <time>2003-04-17T08:24:17Z</time>
      </trkpt>
      <trkpt lat="31.072724992409348" lon="-4.011043002828956">
        <ele>710.70000000000005</ele>
        <time>2003-04-17T08:24:20Z</time>
      </trkpt>
      <trkpt lat="31.072095008566976" lon="-4.010727005079389">
        <ele>710.89999999999998</ele>
        <time>2003-04-17T08:24:27Z</time>
      </trkpt>
      <trkpt lat="31.07195301912725" lon="-4.010615022853017">
        <ele>710.89999999999998</ele>
        <time>2003-04-17T08:24:28Z</time>
      </trkpt>
      <trkpt lat="31.071865009143949" lon="-4.010476972907782">
        <ele>710.79999999999995</ele>
        <time>2003-04-17T08:24:31Z</time>
      </trkpt>
      <trkpt lat="31.071789991110563" lon="-4.010383011773229">
        <ele>710.89999999999998</ele>
        <time>2003-04-17T08:24:32Z</time>
      </trkpt>
      <trkpt lat="31.071689995005727" lon="-4.010345041751862">
        <ele>710.79999999999995</ele>
        <time>2003-04-17T08:24:35Z</time>
      </trkpt>
      <trkpt lat="31.071599973365664" lon="-4.010362979024649">
        <ele>710.79999999999995</ele>
        <time>2003-04-17T08:24:36Z</time>
      </trkpt>
      <trkpt lat="31.071511963382363" lon="-4.010461969301105">
        <ele>710.70000000000005</ele>
        <time>2003-04-17T08:24:40Z</time>
      </trkpt>
      <trkpt lat="31.07141699641943" lon="-4.01073002256453">
        <ele>706.20000000000005</ele>
        <time>2003-04-17T08:33:52Z</time>
      </trkpt>
      <trkpt lat="31.071312977001071" lon="-4.010805040597916">
        <ele>706.29999999999995</ele>
        <time>2003-04-17T08:33:55Z</time>
      </trkpt>
      <trkpt lat="31.071188002824783" lon="-4.01088198646903">
        <ele>706.29999999999995</ele>
        <time>2003-04-17T08:33:58Z</time>
      </trkpt>
      <trkpt lat="31.070806961506605" lon="-4.011069992557168">
        <ele>706</ele>
        <time>2003-04-17T08:34:04Z</time>
      </trkpt>
      <trkpt lat="31.070307986810803" lon="-4.011248024180532">
        <ele>705.79999999999995</ele>
        <time>2003-04-17T08:34:14Z</time>
      </trkpt>
      <trkpt lat="31.070082010701299" lon="-4.011279959231615">
        <ele>705.79999999999995</ele>
        <time>2003-04-17T08:34:18Z</time>
      </trkpt>
      <trkpt lat="31.06987003237009" lon="-4.011305021122098">
        <ele>705.79999999999995</ele>
        <time>2003-04-17T08:34:21Z</time>
      </trkpt>
      <trkpt lat="31.069483039900661" lon="-4.011372998356819">
        <ele>705.89999999999998</ele>
        <time>2003-04-17T08:34:26Z</time>
      </trkpt>
      <trkpt lat="31.068922961130738" lon="-4.011469976976514">
        <ele>706.70000000000005</ele>
        <time>2003-04-17T08:34:31Z</time>
      </trkpt>
      <trkpt lat="31.068251989781857" lon="-4.011554969474673">
        <ele>707.89999999999998</ele>
        <time>2003-04-17T08:34:38Z</time>
      </trkpt>
      <trkpt lat="31.067827027291059" lon="-4.011599980294704">
        <ele>708</ele>
        <time>2003-04-17T08:34:41Z</time>
      </trkpt>
      <trkpt lat="31.066824970766902" lon="-4.011726966127753">
        <ele>708.29999999999995</ele>
        <time>2003-04-17T08:34:48Z</time>
      </trkpt>
      <trkpt lat="31.06583196669817" lon="-4.011857975274324">
        <ele>708.29999999999995</ele>
        <time>2003-04-17T08:34:54Z</time>
      </trkpt>
      <trkpt lat="31.064811972901225" lon="-4.0120629966259">
        <ele>708.79999999999995</ele>
        <time>2003-04-17T08:35:01Z</time>
      </trkpt>
      <trkpt lat="31.063912007957697" lon="-4.012252008542419">
        <ele>708.70000000000005</ele>
        <time>2003-04-17T08:35:08Z</time>
      </trkpt>
      <trkpt lat="31.063011959195137" lon="-4.012440014630556">
        <ele>708.20000000000005</ele>
        <time>2003-04-17T08:35:13Z</time>
      </trkpt>
      <trkpt lat="31.062130015343428" lon="-4.012649981305003">
        <ele>708.20000000000005</ele>
        <time>2003-04-17T08:35:20Z</time>
      </trkpt>
      <trkpt lat="31.061101974919438" lon="-4.012788031250238">
        <ele>708.20000000000005</ele>
        <time>2003-04-17T08:35:27Z</time>
      </trkpt>
      <trkpt lat="31.06005297973752" lon="-4.012903030961752">
        <ele>707.70000000000005</ele>
        <time>2003-04-17T08:35:33Z</time>
      </trkpt>
      <trkpt lat="31.059052012860775" lon="-4.013096988201141">
        <ele>707.5</ele>
        <time>2003-04-17T08:35:40Z</time>
      </trkpt>
      <trkpt lat="31.058050040155649" lon="-4.013320030644536">
        <ele>707.5</ele>
        <time>2003-04-17T08:35:46Z</time>
      </trkpt>
      <trkpt lat="31.057292986661196" lon="-4.013433018699288">
        <ele>707.60000000000002</ele>
        <time>2003-04-17T08:35:51Z</time>
      </trkpt>
      <trkpt lat="31.056752018630505" lon="-4.01341499760747">
        <ele>707.5</ele>
        <time>2003-04-17T08:35:55Z</time>
      </trkpt>
      <trkpt lat="31.055835038423538" lon="-4.013381972908974">
        <ele>708.10000000000002</ele>
        <time>2003-04-17T08:36:02Z</time>
      </trkpt>
      <trkpt lat="31.055272025987506" lon="-4.013420026749373">
        <ele>708.29999999999995</ele>
        <time>2003-04-17T08:36:07Z</time>
      </trkpt>
      <trkpt lat="31.054785037413239" lon="-4.013529997318983">
        <ele>707.89999999999998</ele>
        <time>2003-04-17T08:36:11Z</time>
      </trkpt>
      <trkpt lat="31.054526958614588" lon="-4.01350200176239">
        <ele>707.39999999999998</ele>
        <time>2003-04-17T08:36:14Z</time>
      </trkpt>
      <trkpt lat="31.054367031902075" lon="-4.013451961800456">
        <ele>707</ele>
        <time>2003-04-17T08:36:17Z</time>
      </trkpt>
      <trkpt lat="31.054029995575547" lon="-4.013281976804137">
        <ele>707.70000000000005</ele>
        <time>2003-04-17T08:36:21Z</time>
      </trkpt>
      <trkpt lat="31.053952965885401" lon="-4.013205030933023">
        <ele>708.10000000000002</ele>
        <time>2003-04-17T08:36:22Z</time>
      </trkpt>
      <trkpt lat="31.053887000307441" lon="-4.013117020949721">
        <ele>708.5</ele>
        <time>2003-04-17T08:36:22Z</time>
      </trkpt>
      <trkpt lat="31.053490033373237" lon="-4.012655010446906">
        <ele>708.20000000000005</ele>
        <time>2003-04-17T08:36:27Z</time>
      </trkpt>
      <trkpt lat="31.052744966000319" lon="-4.011961994692683">
        <ele>707.5</ele>
        <time>2003-04-17T08:36:34Z</time>
      </trkpt>
      <trkpt lat="31.052024960517883" lon="-4.011307032778859">
        <ele>707.79999999999995</ele>
        <time>2003-04-17T08:36:41Z</time>
      </trkpt>
      <trkpt lat="31.051481980830431" lon="-4.010849967598915">
        <ele>707.29999999999995</ele>
        <time>2003-04-17T08:36:46Z</time>
      </trkpt>
      <trkpt lat="31.050676982849836" lon="-4.010340012609959">
        <ele>707.70000000000005</ele>
        <time>2003-04-17T08:36:53Z</time>
      </trkpt>
      <trkpt lat="31.049795038998127" lon="-4.009857969358563">
        <ele>707.39999999999998</ele>
        <time>2003-04-17T08:36:59Z</time>
      </trkpt>
      <trkpt lat="31.049318024888635" lon="-4.009572984650731">
        <ele>707</ele>
        <time>2003-04-17T08:37:03Z</time>
      </trkpt>
      <trkpt lat="31.049162037670612" lon="-4.009492015466094">
        <ele>707.20000000000005</ele>
        <time>2003-04-17T08:37:04Z</time>
      </trkpt>
      <trkpt lat="31.049036979675293" lon="-4.009452033787966">
        <ele>707.20000000000005</ele>
        <time>2003-04-17T08:37:07Z</time>
      </trkpt>
      <trkpt lat="31.048917034640908" lon="-4.009378021582961">
        <ele>707.39999999999998</ele>
        <time>2003-04-17T08:37:08Z</time>
      </trkpt>
      <trkpt lat="31.048761969432235" lon="-4.009284982457757">
        <ele>707.79999999999995</ele>
        <time>2003-04-17T08:37:11Z</time>
      </trkpt>
      <trkpt lat="31.048574969172478" lon="-4.009162019938231">
        <ele>707.39999999999998</ele>
        <time>2003-04-17T08:37:12Z</time>
      </trkpt>
      <trkpt lat="31.048240028321743" lon="-4.008960016071796">
        <ele>706.89999999999998</ele>
        <time>2003-04-17T08:37:16Z</time>
      </trkpt>
      <trkpt lat="31.047422960400581" lon="-4.008476966992021">
        <ele>706.70000000000005</ele>
        <time>2003-04-17T08:37:24Z</time>
      </trkpt>
      <trkpt lat="31.047157002612948" lon="-4.008327014744282">
        <ele>706.70000000000005</ele>
        <time>2003-04-17T08:37:26Z</time>
      </trkpt>
      <trkpt lat="31.047026999294758" lon="-4.008213020861149">
        <ele>706.10000000000002</ele>
        <time>2003-04-17T08:37:28Z</time>
      </trkpt>
      <trkpt lat="31.046887021511793" lon="-4.008032977581024">
        <ele>706.10000000000002</ele>
        <time>2003-04-17T08:37:31Z</time>
      </trkpt>
      <trkpt lat="31.046717036515474" lon="-4.007723014801741">
        <ele>705.89999999999998</ele>
        <time>2003-04-17T08:37:32Z</time>
      </trkpt>
      <trkpt lat="31.046491982415318" lon="-4.007395030930638">
        <ele>706</ele>
        <time>2003-04-17T08:37:35Z</time>
      </trkpt>
      <trkpt lat="31.046277992427349" lon="-4.007201995700598">
        <ele>706</ele>
        <time>2003-04-17T08:37:38Z</time>
      </trkpt>
      <trkpt lat="31.045908015221357" lon="-4.006967972964048">
        <ele>706.20000000000005</ele>
        <time>2003-04-17T08:37:40Z</time>
      </trkpt>
      <trkpt lat="31.045088013634086" lon="-4.006533036008477">
        <ele>705.60000000000002</ele>
        <time>2003-04-17T08:37:47Z</time>
      </trkpt>
      <trkpt lat="31.044270023703575" lon="-4.006055016070604">
        <ele>705.5</ele>
        <time>2003-04-17T08:37:54Z</time>
      </trkpt>
      <trkpt lat="31.043625036254525" lon="-4.00572300888598">
        <ele>704.89999999999998</ele>
        <time>2003-04-17T08:37:58Z</time>
      </trkpt>
      <trkpt lat="31.043220022693276" lon="-4.005589988082647">
        <ele>704.79999999999995</ele>
        <time>2003-04-17T08:38:02Z</time>
      </trkpt>
      <trkpt lat="31.043082978576422" lon="-4.005584958940744">
        <ele>704.89999999999998</ele>
        <time>2003-04-17T08:38:02Z</time>
      </trkpt>
      <trkpt lat="31.042600013315678" lon="-4.005597028881311">
        <ele>704.89999999999998</ele>
        <time>2003-04-17T08:38:06Z</time>
      </trkpt>
      <trkpt lat="31.042394991964102" lon="-4.005580013617873">
        <ele>704.70000000000005</ele>
        <time>2003-04-17T08:38:09Z</time>
      </trkpt>
      <trkpt lat="31.042306981980801" lon="-4.005546988919377">
        <ele>704.79999999999995</ele>
        <time>2003-04-17T08:38:10Z</time>
      </trkpt>
      <trkpt lat="31.042059967294335" lon="-4.005410028621554">
        <ele>705</ele>
        <time>2003-04-17T08:38:13Z</time>
      </trkpt>
      <trkpt lat="31.041913032531738" lon="-4.005280025303364">
        <ele>705.10000000000002</ele>
        <time>2003-04-17T08:38:14Z</time>
      </trkpt>
      <trkpt lat="31.041807001456618" lon="-4.005129989236593">
        <ele>705</ele>
        <time>2003-04-17T08:38:17Z</time>
      </trkpt>
      <trkpt lat="31.041674986481667" lon="-4.004939971491695">
        <ele>704.79999999999995</ele>
        <time>2003-04-17T08:38:20Z</time>
      </trkpt>
      <trkpt lat="31.04159502312541" lon="-4.004811979830265">
        <ele>705</ele>
        <time>2003-04-17T08:38:22Z</time>
      </trkpt>
      <trkpt lat="31.041584964841604" lon="-4.004650041460991">
        <ele>704.89999999999998</ele>
        <time>2003-04-17T08:38:24Z</time>
      </trkpt>
      <trkpt lat="31.041663000360131" lon="-4.004487013444305">
        <ele>705.29999999999995</ele>
        <time>2003-04-17T08:38:25Z</time>
      </trkpt>
      <trkpt lat="31.041798032820225" lon="-4.004376959055662">
        <ele>705.5</ele>
        <time>2003-04-17T08:38:28Z</time>
      </trkpt>
      <trkpt lat="31.042031971737742" lon="-4.004261959344149">
        <ele>705.60000000000002</ele>
        <time>2003-04-17T08:38:30Z</time>
      </trkpt>
      <trkpt lat="31.042630020529032" lon="-4.003943027928472">
        <ele>705.20000000000005</ele>
        <time>2003-04-17T08:38:37Z</time>
      </trkpt>
      <trkpt lat="31.043071998283267" lon="-4.003687966614962">
        <ele>705.10000000000002</ele>
        <time>2003-04-17T08:38:41Z</time>
      </trkpt>
      <trkpt lat="31.043814970180392" lon="-4.003202989697456">
        <ele>704.5</ele>
        <time>2003-04-17T08:38:48Z</time>
      </trkpt>
      <trkpt lat="31.044252002611756" lon="-4.002788001671433">
        <ele>704.89999999999998</ele>
        <time>2003-04-17T08:38:52Z</time>
      </trkpt>
      <trkpt lat="31.044506980106235" lon="-4.00243797339499">
        <ele>705</ele>
        <time>2003-04-17T08:38:55Z</time>
      </trkpt>
      <trkpt lat="31.044702026993036" lon="-4.002087023109198">
        <ele>704.5</ele>
        <time>2003-04-17T08:38:57Z</time>
      </trkpt>
      <trkpt lat="31.044785007834435" lon="-4.001915026456118">
        <ele>704.39999999999998</ele>
        <time>2003-04-17T08:39:00Z</time>
      </trkpt>
      <trkpt lat="31.044849967584014" lon="-4.001791980117559">
        <ele>704.39999999999998</ele>
        <time>2003-04-17T08:39:01Z</time>
      </trkpt>
      <trkpt lat="31.045026993378997" lon="-4.001417979598045">
        <ele>704.60000000000002</ele>
        <time>2003-04-17T08:39:07Z</time>
      </trkpt>
      <trkpt lat="31.045094970613718" lon="-4.001193009316921">
        <ele>704.60000000000002</ele>
        <time>2003-04-17T08:39:08Z</time>
      </trkpt>
      <trkpt lat="31.045362018048763" lon="-4.000169998034835">
        <ele>705.79999999999995</ele>
        <time>2003-04-17T08:39:18Z</time>
      </trkpt>
      <trkpt lat="31.045469976961613" lon="-3.99981502443552">
        <ele>706.20000000000005</ele>
        <time>2003-04-17T08:39:20Z</time>
      </trkpt>
      <trkpt lat="31.045814976096153" lon="-3.998811962082982">
        <ele>707.10000000000002</ele>
        <time>2003-04-17T08:39:28Z</time>
      </trkpt>
      <trkpt lat="31.045912960544229" lon="-3.998597972095013">
        <ele>707.39999999999998</ele>
        <time>2003-04-17T08:39:31Z</time>
      </trkpt>
      <trkpt lat="31.046040030196309" lon="-3.998411977663636">
        <ele>708.10000000000002</ele>
        <time>2003-04-17T08:39:32Z</time>
      </trkpt>
      <trkpt lat="31.046204986050725" lon="-3.998143002390862">
        <ele>707.89999999999998</ele>
        <time>2003-04-17T08:39:35Z</time>
      </trkpt>
      <trkpt lat="31.046262988820672" lon="-3.997969999909401">
        <ele>708.10000000000002</ele>
        <time>2003-04-17T08:39:38Z</time>
      </trkpt>
      <trkpt lat="31.046277992427349" lon="-3.997790040448308">
        <ele>708.20000000000005</ele>
        <time>2003-04-17T08:39:39Z</time>
      </trkpt>
      <trkpt lat="31.046310011297464" lon="-3.997476976364851">
        <ele>708.10000000000002</ele>
        <time>2003-04-17T08:39:43Z</time>
      </trkpt>
      <trkpt lat="31.04640799574554" lon="-3.996997028589249">
        <ele>708.29999999999995</ele>
        <time>2003-04-17T08:39:47Z</time>
      </trkpt>
      <trkpt lat="31.046476978808641" lon="-3.996831988915801">
        <ele>708.70000000000005</ele>
        <time>2003-04-17T08:39:50Z</time>
      </trkpt>
      <trkpt lat="31.046732040122151" lon="-3.996332008391619">
        <ele>708.70000000000005</ele>
        <time>2003-04-17T08:39:57Z</time>
      </trkpt>
      <trkpt lat="31.047173012048006" lon="-3.995736977085471">
        <ele>708.79999999999995</ele>
        <time>2003-04-17T08:40:06Z</time>
      </trkpt>
      <trkpt lat="31.047321958467364" lon="-3.995515024289489">
        <ele>708.39999999999998</ele>
        <time>2003-04-17T08:40:10Z</time>
      </trkpt>
      <trkpt lat="31.047360012307763" lon="-3.995397007092834">
        <ele>708.29999999999995</ele>
        <time>2003-04-17T08:40:13Z</time>
      </trkpt>
      <trkpt lat="31.047382978722453" lon="-3.995285024866462">
        <ele>707.20000000000005</ele>
        <time>2003-04-17T08:40:17Z</time>
      </trkpt>
      <trkpt lat="31.047393037006259" lon="-3.995138006284833">
        <ele>706.39999999999998</ele>
        <time>2003-04-17T08:40:18Z</time>
      </trkpt>
      <trkpt lat="31.047392031177878" lon="-3.995010014623404">
        <ele>708</ele>
        <time>2003-04-17T08:40:21Z</time>
      </trkpt>
      <trkpt lat="31.047303015366197" lon="-3.994891997426748">
        <ele>705.89999999999998</ele>
        <time>2003-04-17T08:40:22Z</time>
      </trkpt>
      <trkpt lat="31.047177035361528" lon="-3.994867019355297">
        <ele>706.10000000000002</ele>
        <time>2003-04-17T08:40:25Z</time>
      </trkpt>
      <trkpt lat="31.047049965709448" lon="-3.994827959686518">
        <ele>705.89999999999998</ele>
        <time>2003-04-17T08:40:26Z</time>
      </trkpt>
      <trkpt lat="31.046885009855032" lon="-3.994737016037107">
        <ele>705.20000000000005</ele>
        <time>2003-04-17T08:40:29Z</time>
      </trkpt>
      <trkpt lat="31.046803034842014" lon="-3.994629979133606">
        <ele>705.20000000000005</ele>
        <time>2003-04-17T08:40:32Z</time>
      </trkpt>
      <trkpt lat="31.046740002930164" lon="-3.994510034099221">
        <ele>705.5</ele>
        <time>2003-04-17T08:40:33Z</time>
      </trkpt>
      <trkpt lat="31.046717036515474" lon="-3.994402997195721">
        <ele>705.20000000000005</ele>
        <time>2003-04-17T08:40:36Z</time>
      </trkpt>
      <trkpt lat="31.046683005988598" lon="-3.994224965572357">
        <ele>705.29999999999995</ele>
        <time>2003-04-17T08:40:39Z</time>
      </trkpt>
      <trkpt lat="31.046682000160217" lon="-3.994007958099246">
        <ele>705.20000000000005</ele>
        <time>2003-04-17T08:40:41Z</time>
      </trkpt>
      <trkpt lat="31.046700021252036" lon="-3.993784999474883">
        <ele>705.5</ele>
        <time>2003-04-17T08:40:44Z</time>
      </trkpt>
      <trkpt lat="31.046770010143518" lon="-3.993672011420131">
        <ele>705.29999999999995</ele>
        <time>2003-04-17T08:40:47Z</time>
      </trkpt>
      <trkpt lat="31.046879980713129" lon="-3.993602022528648">
        <ele>704.79999999999995</ele>
        <time>2003-04-17T08:40:48Z</time>
      </trkpt>
      <trkpt lat="31.047013001516461" lon="-3.993575032800436">
        <ele>704.5</ele>
        <time>2003-04-17T08:40:51Z</time>
      </trkpt>
      <trkpt lat="31.047178041189909" lon="-3.993572015315294">
        <ele>704.29999999999995</ele>
        <time>2003-04-17T08:40:52Z</time>
      </trkpt>
      <trkpt lat="31.047351965680718" lon="-3.993545025587082">
        <ele>704.20000000000005</ele>
        <time>2003-04-17T08:40:55Z</time>
      </trkpt>
      <trkpt lat="31.047962000593543" lon="-3.993361964821816">
        <ele>704.10000000000002</ele>
        <time>2003-04-17T08:41:02Z</time>
      </trkpt>
      <trkpt lat="31.048555020242929" lon="-3.99317697621882">
        <ele>704.10000000000002</ele>
        <time>2003-04-17T08:41:08Z</time>
      </trkpt>
      <trkpt lat="31.048712013289332" lon="-3.993087960407138">
        <ele>704.10000000000002</ele>
        <time>2003-04-17T08:41:11Z</time>
      </trkpt>
      <trkpt lat="31.048787031322718" lon="-3.993021994829178">
        <ele>704</ele>
        <time>2003-04-17T08:41:11Z</time>
      </trkpt>
      <trkpt lat="31.049034968018532" lon="-3.992855027318001">
        <ele>704.29999999999995</ele>
        <time>2003-04-17T08:41:15Z</time>
      </trkpt>
      <trkpt lat="31.049322970211506" lon="-3.992716977372766">
        <ele>704.39999999999998</ele>
        <time>2003-04-17T08:41:18Z</time>
      </trkpt>
      <trkpt lat="31.049707029014826" lon="-3.992537017911673">
        <ele>704.5</ele>
        <time>2003-04-17T08:41:22Z</time>
      </trkpt>
      <trkpt lat="31.050543040037155" lon="-3.992024967446923">
        <ele>704.10000000000002</ele>
        <time>2003-04-17T08:41:31Z</time>
      </trkpt>
      <trkpt lat="31.050915028899908" lon="-3.991807037964463">
        <ele>704</ele>
        <time>2003-04-17T08:41:37Z</time>
      </trkpt>
      <trkpt lat="31.05122197419405" lon="-3.991575026884675">
        <ele>703.5</ele>
        <time>2003-04-17T08:41:42Z</time>
      </trkpt>
      <trkpt lat="31.051387013867497" lon="-3.99143798276782">
        <ele>704</ele>
        <time>2003-04-17T08:41:45Z</time>
      </trkpt>
      <trkpt lat="31.051893029361963" lon="-3.991170013323426">
        <ele>704.10000000000002</ele>
        <time>2003-04-17T08:41:53Z</time>
      </trkpt>
      <trkpt lat="31.052287984639406" lon="-3.991036992520094">
        <ele>704.70000000000005</ele>
        <time>2003-04-17T08:41:58Z</time>
      </trkpt>
      <trkpt lat="31.052495017647743" lon="-3.990879999473691">
        <ele>704.89999999999998</ele>
        <time>2003-04-17T08:42:01Z</time>
      </trkpt>
      <trkpt lat="31.05272501707077" lon="-3.990708002820611">
        <ele>705</ele>
        <time>2003-04-17T08:42:05Z</time>
      </trkpt>
      <trkpt lat="31.053258022293448" lon="-3.990337019786239">
        <ele>705</ele>
        <time>2003-04-17T08:42:12Z</time>
      </trkpt>
      <trkpt lat="31.05388498865068" lon="-3.989703012630343">
        <ele>705.60000000000002</ele>
        <time>2003-04-17T08:42:21Z</time>
      </trkpt>
      <trkpt lat="31.054172990843654" lon="-3.989270003512502">
        <ele>706.39999999999998</ele>
        <time>2003-04-17T08:42:27Z</time>
      </trkpt>
      <trkpt lat="31.054817978292704" lon="-3.988476991653442">
        <ele>707.20000000000005</ele>
        <time>2003-04-17T08:42:36Z</time>
      </trkpt>
      <trkpt lat="31.055536977946758" lon="-3.987771989777684">
        <ele>707.5</ele>
        <time>2003-04-17T08:42:44Z</time>
      </trkpt>
      <trkpt lat="31.056182971224189" lon="-3.987115016207099">
        <ele>708.10000000000002</ele>
        <time>2003-04-17T08:42:52Z</time>
      </trkpt>
      <trkpt lat="31.05644297786057" lon="-3.98677202872932">
        <ele>708.39999999999998</ele>
        <time>2003-04-17T08:42:56Z</time>
      </trkpt>
      <trkpt lat="31.056731985881925" lon="-3.986202981323004">
        <ele>708.70000000000005</ele>
        <time>2003-04-17T08:43:03Z</time>
      </trkpt>
      <trkpt lat="31.056832987815142" lon="-3.985877009108663">
        <ele>708.60000000000002</ele>
        <time>2003-04-17T08:43:06Z</time>
      </trkpt>
      <trkpt lat="31.056944970041513" lon="-3.985167983919382">
        <ele>708.60000000000002</ele>
        <time>2003-04-17T08:43:11Z</time>
      </trkpt>
      <trkpt lat="31.056997021660209" lon="-3.984316969290376">
        <ele>708.70000000000005</ele>
        <time>2003-04-17T08:43:19Z</time>
      </trkpt>
      <trkpt lat="31.056952010840178" lon="-3.983190022408962">
        <ele>709</ele>
        <time>2003-04-17T08:43:27Z</time>
      </trkpt>
      <trkpt lat="31.0569370072335" lon="-3.982872013002634">
        <ele>708.89999999999998</ele>
        <time>2003-04-17T08:43:30Z</time>
      </trkpt>
      <trkpt lat="31.056916974484921" lon="-3.982246974483132">
        <ele>708.79999999999995</ele>
        <time>2003-04-17T08:43:35Z</time>
      </trkpt>
      <trkpt lat="31.056974977254868" lon="-3.981472989544272">
        <ele>708.39999999999998</ele>
        <time>2003-04-17T08:43:42Z</time>
      </trkpt>
      <trkpt lat="31.057006996124983" lon="-3.981357989832759">
        <ele>707.79999999999995</ele>
        <time>2003-04-17T08:43:42Z</time>
      </trkpt>
      <trkpt lat="31.057182010263205" lon="-3.980530025437474">
        <ele>708.39999999999998</ele>
        <time>2003-04-17T08:43:49Z</time>
      </trkpt>
      <trkpt lat="31.057232972234488" lon="-3.979992996901274">
        <ele>708.60000000000002</ele>
        <time>2003-04-17T08:43:54Z</time>
      </trkpt>
      <trkpt lat="31.05721696279943" lon="-3.979408023878932">
        <ele>708.70000000000005</ele>
        <time>2003-04-17T08:44:00Z</time>
      </trkpt>
      <trkpt lat="31.057097017765045" lon="-3.978268001228571">
        <ele>708.29999999999995</ele>
        <time>2003-04-17T08:44:09Z</time>
      </trkpt>
      <trkpt lat="31.057092994451523" lon="-3.978149984031916">
        <ele>708</ele>
        <time>2003-04-17T08:44:09Z</time>
      </trkpt>
      <trkpt lat="31.057127024978399" lon="-3.977913027629256">
        <ele>708.20000000000005</ele>
        <time>2003-04-17T08:44:12Z</time>
      </trkpt>
      <trkpt lat="31.05717203579843" lon="-3.977806996554136">
        <ele>708.39999999999998</ele>
        <time>2003-04-17T08:44:13Z</time>
      </trkpt>
      <trkpt lat="31.05738703161478" lon="-3.977223029360175">
        <ele>708.20000000000005</ele>
        <time>2003-04-17T08:44:17Z</time>
      </trkpt>
      <trkpt lat="31.057400023564696" lon="-3.977099983021617">
        <ele>707.79999999999995</ele>
        <time>2003-04-17T08:44:19Z</time>
      </trkpt>
      <trkpt lat="31.057592974975705" lon="-3.976025003939867">
        <ele>708.20000000000005</ele>
        <time>2003-04-17T08:44:27Z</time>
      </trkpt>
      <trkpt lat="31.057833032682538" lon="-3.974981959909201">
        <ele>708</ele>
        <time>2003-04-17T08:44:35Z</time>
      </trkpt>
      <trkpt lat="31.057872008532286" lon="-3.974856985732913">
        <ele>708.10000000000002</ele>
        <time>2003-04-17T08:44:36Z</time>
      </trkpt>
      <trkpt lat="31.058181971311569" lon="-3.973738001659513">
        <ele>707.89999999999998</ele>
        <time>2003-04-17T08:44:43Z</time>
      </trkpt>
      <trkpt lat="31.058220025151968" lon="-3.973304992541671">
        <ele>708.10000000000002</ele>
        <time>2003-04-17T08:44:47Z</time>
      </trkpt>
      <trkpt lat="31.058184988796711" lon="-3.9730220194906">
        <ele>708.20000000000005</ele>
        <time>2003-04-17T08:44:48Z</time>
      </trkpt>
      <trkpt lat="31.058107959106565" lon="-3.972748015075922">
        <ele>708.20000000000005</ele>
        <time>2003-04-17T08:44:51Z</time>
      </trkpt>
      <trkpt lat="31.057863039895892" lon="-3.971857018768787">
        <ele>708.39999999999998</ele>
        <time>2003-04-17T08:44:58Z</time>
      </trkpt>
      <trkpt lat="31.05775298550725" lon="-3.971549989655614">
        <ele>708.20000000000005</ele>
        <time>2003-04-17T08:45:00Z</time>
      </trkpt>
      <trkpt lat="31.057491973042488" lon="-3.97068296559155">
        <ele>708.10000000000002</ele>
        <time>2003-04-17T08:45:09Z</time>
      </trkpt>
      <trkpt lat="31.057489961385727" lon="-3.970509963110089">
        <ele>708</ele>
        <time>2003-04-17T08:45:10Z</time>
      </trkpt>
      <trkpt lat="31.057545030489564" lon="-3.970322962850332">
        <ele>707.79999999999995</ele>
        <time>2003-04-17T08:45:13Z</time>
      </trkpt>
      <trkpt lat="31.057603033259511" lon="-3.97023000754416">
        <ele>707.79999999999995</ele>
        <time>2003-04-17T08:45:14Z</time>
      </trkpt>
      <trkpt lat="31.057849964126945" lon="-3.969718040898442">
        <ele>707.79999999999995</ele>
        <time>2003-04-17T08:45:18Z</time>
      </trkpt>
      <trkpt lat="31.05824701488018" lon="-3.968693017959595">
        <ele>708.29999999999995</ele>
        <time>2003-04-17T08:45:29Z</time>
      </trkpt>
      <trkpt lat="31.058492017909884" lon="-3.968199994415045">
        <ele>708.20000000000005</ele>
        <time>2003-04-17T08:45:34Z</time>
      </trkpt>
      <trkpt lat="31.058768033981323" lon="-3.967792969197035">
        <ele>708.39999999999998</ele>
        <time>2003-04-17T08:45:40Z</time>
      </trkpt>
      <trkpt lat="31.059001972898841" lon="-3.967400025576353">
        <ele>707.89999999999998</ele>
        <time>2003-04-17T08:45:44Z</time>
      </trkpt>
      <trkpt lat="31.059442022815347" lon="-3.966457983478904">
        <ele>707.89999999999998</ele>
        <time>2003-04-17T08:45:53Z</time>
      </trkpt>
      <trkpt lat="31.060020038858056" lon="-3.965576961636543">
        <ele>708.29999999999995</ele>
        <time>2003-04-17T08:46:01Z</time>
      </trkpt>
      <trkpt lat="31.060250038281083" lon="-3.965351991355419">
        <ele>708.60000000000002</ele>
        <time>2003-04-17T08:46:04Z</time>
      </trkpt>
      <trkpt lat="31.060332013294101" lon="-3.965300023555756">
        <ele>708.70000000000005</ele>
        <time>2003-04-17T08:46:05Z</time>
      </trkpt>
      <trkpt lat="31.060490012168884" lon="-3.965172031894326">
        <ele>708.60000000000002</ele>
        <time>2003-04-17T08:46:08Z</time>
      </trkpt>
      <trkpt lat="31.06073803268373" lon="-3.964972961694002">
        <ele>708.70000000000005</ele>
        <time>2003-04-17T08:46:11Z</time>
      </trkpt>
      <trkpt lat="31.061012959107757" lon="-3.964789984747767">
        <ele>708.5</ele>
        <time>2003-04-17T08:46:13Z</time>
      </trkpt>
      <trkpt lat="31.061837989836931" lon="-3.964352030307055">
        <ele>707.60000000000002</ele>
        <time>2003-04-17T08:46:21Z</time>
      </trkpt>
      <trkpt lat="31.062633013352752" lon="-3.964012982323766">
        <ele>707.29999999999995</ele>
        <time>2003-04-17T08:46:30Z</time>
      </trkpt>
      <trkpt lat="31.062709959223866" lon="-3.963933018967509">
        <ele>707.20000000000005</ele>
        <time>2003-04-17T08:46:31Z</time>
      </trkpt>
      <trkpt lat="31.063180016353726" lon="-3.963434966281056">
        <ele>707.29999999999995</ele>
        <time>2003-04-17T08:46:38Z</time>
      </trkpt>
      <trkpt lat="31.06325201690197" lon="-3.963358020409942">
        <ele>707.20000000000005</ele>
        <time>2003-04-17T08:46:39Z</time>
      </trkpt>
      <trkpt lat="31.06351001188159" lon="-3.963127015158534">
        <ele>707.89999999999998</ele>
        <time>2003-04-17T08:46:42Z</time>
      </trkpt>
      <trkpt lat="31.063692988827825" lon="-3.962958035990596">
        <ele>707.70000000000005</ele>
        <time>2003-04-17T08:46:43Z</time>
      </trkpt>
      <trkpt lat="31.06411200016737" lon="-3.962576994672418">
        <ele>708</ele>
        <time>2003-04-17T08:46:48Z</time>
      </trkpt>
      <trkpt lat="31.064597982913256" lon="-3.962186984717846">
        <ele>708.10000000000002</ele>
        <time>2003-04-17T08:46:55Z</time>
      </trkpt>
      <trkpt lat="31.064792023971677" lon="-3.962124958634377">
        <ele>707.79999999999995</ele>
        <time>2003-04-17T08:46:57Z</time>
      </trkpt>
      <trkpt lat="31.064978018403053" lon="-3.962082965299487">
        <ele>708.20000000000005</ele>
        <time>2003-04-17T08:46:58Z</time>
      </trkpt>
      <trkpt lat="31.065461989492178" lon="-3.962032003328204">
        <ele>707.39999999999998</ele>
        <time>2003-04-17T08:47:03Z</time>
      </trkpt>
      <trkpt lat="31.065557962283492" lon="-3.962009958922863">
        <ele>707.70000000000005</ele>
        <time>2003-04-17T08:47:05Z</time>
      </trkpt>
      <trkpt lat="31.06565703637898" lon="-3.961954973638058">
        <ele>707.5</ele>
        <time>2003-04-17T08:47:06Z</time>
      </trkpt>
      <trkpt lat="31.06628199107945" lon="-3.961588013917208">
        <ele>707.5</ele>
        <time>2003-04-17T08:47:11Z</time>
      </trkpt>
      <trkpt lat="31.066578039899468" lon="-3.961392967030406">
        <ele>707.70000000000005</ele>
        <time>2003-04-17T08:47:14Z</time>
      </trkpt>
      <trkpt lat="31.066897977143526" lon="-3.961243014782667">
        <ele>707.60000000000002</ele>
        <time>2003-04-17T08:47:18Z</time>
      </trkpt>
      <trkpt lat="31.067097969353199" lon="-3.961188029497862">
        <ele>707.60000000000002</ele>
        <time>2003-04-17T08:47:20Z</time>
      </trkpt>
      <trkpt lat="31.067195031791925" lon="-3.961188029497862">
        <ele>707.60000000000002</ele>
        <time>2003-04-17T08:47:21Z</time>
      </trkpt>
      <trkpt lat="31.067384965717793" lon="-3.961204960942268">
        <ele>707.60000000000002</ele>
        <time>2003-04-17T08:47:22Z</time>
      </trkpt>
      <trkpt lat="31.067580012604594" lon="-3.96118501201272">
        <ele>707.70000000000005</ele>
        <time>2003-04-17T08:47:25Z</time>
      </trkpt>
      <trkpt lat="31.067858040332794" lon="-3.961083004251123">
        <ele>707.60000000000002</ele>
        <time>2003-04-17T08:47:28Z</time>
      </trkpt>
      <trkpt lat="31.067953007295728" lon="-3.96101301535964">
        <ele>707.60000000000002</ele>
        <time>2003-04-17T08:47:29Z</time>
      </trkpt>
      <trkpt lat="31.068318039178848" lon="-3.960732975974679">
        <ele>707.70000000000005</ele>
        <time>2003-04-17T08:47:33Z</time>
      </trkpt>
      <trkpt lat="31.068502021953464" lon="-3.960608001798391">
        <ele>708</ele>
        <time>2003-04-17T08:47:34Z</time>
      </trkpt>
      <trkpt lat="31.068567987531424" lon="-3.960528038442135">
        <ele>707.70000000000005</ele>
        <time>2003-04-17T08:47:36Z</time>
      </trkpt>
      <trkpt lat="31.068673012778163" lon="-3.96034799516201">
        <ele>708.39999999999998</ele>
        <time>2003-04-17T08:47:37Z</time>
      </trkpt>
      <trkpt lat="31.068797986954451" lon="-3.960157977417111">
        <ele>708.5</ele>
        <time>2003-04-17T08:47:40Z</time>
      </trkpt>
      <trkpt lat="31.069363011047244" lon="-3.959318026900291">
        <ele>709.70000000000005</ele>
        <time>2003-04-17T08:47:49Z</time>
      </trkpt>
      <trkpt lat="31.069828039035201" lon="-3.958561979234219">
        <ele>710.79999999999995</ele>
        <time>2003-04-17T08:47:56Z</time>
      </trkpt>
      <trkpt lat="31.069991989061236" lon="-3.95826299674809">
        <ele>711.39999999999998</ele>
        <time>2003-04-17T08:47:59Z</time>
      </trkpt>
      <trkpt lat="31.070151999592781" lon="-3.958086976781488">
        <ele>711.20000000000005</ele>
        <time>2003-04-17T08:48:00Z</time>
      </trkpt>
      <trkpt lat="31.070954985916615" lon="-3.957411982119083">
        <ele>712</ele>
        <time>2003-04-17T08:48:08Z</time>
      </trkpt>
      <trkpt lat="31.071157995611429" lon="-3.957262029871345">
        <ele>711.89999999999998</ele>
        <time>2003-04-17T08:48:11Z</time>
      </trkpt>
      <trkpt lat="31.071533001959324" lon="-3.957017026841641">
        <ele>711.29999999999995</ele>
        <time>2003-04-17T08:48:15Z</time>
      </trkpt>
      <trkpt lat="31.071677003055811" lon="-3.956890041008592">
        <ele>711.60000000000002</ele>
        <time>2003-04-17T08:48:16Z</time>
      </trkpt>
      <trkpt lat="31.071727965027094" lon="-3.956802031025291">
        <ele>711.39999999999998</ele>
        <time>2003-04-17T08:48:18Z</time>
      </trkpt>
      <trkpt lat="31.071802983060479" lon="-3.956617964431644">
        <ele>711.39999999999998</ele>
        <time>2003-04-17T08:48:19Z</time>
      </trkpt>
      <trkpt lat="31.071827039122581" lon="-3.956482009962201">
        <ele>711.39999999999998</ele>
        <time>2003-04-17T08:48:22Z</time>
      </trkpt>
      <trkpt lat="31.071922006085515" lon="-3.956065010279417">
        <ele>711.5</ele>
        <time>2003-04-17T08:48:27Z</time>
      </trkpt>
      <trkpt lat="31.071919994428754" lon="-3.955868035554886">
        <ele>711.79999999999995</ele>
        <time>2003-04-17T08:48:28Z</time>
      </trkpt>
      <trkpt lat="31.071929968893528" lon="-3.955707019194961">
        <ele>711.70000000000005</ele>
        <time>2003-04-17T08:48:31Z</time>
      </trkpt>
      <trkpt lat="31.071980008855462" lon="-3.955567963421345">
        <ele>711.89999999999998</ele>
        <time>2003-04-17T08:48:32Z</time>
      </trkpt>
      <trkpt lat="31.072023008018732" lon="-3.95536202006042">
        <ele>712.29999999999995</ele>
        <time>2003-04-17T08:48:35Z</time>
      </trkpt>
      <trkpt lat="31.072032982483506" lon="-3.955230005085468">
        <ele>712.10000000000002</ele>
        <time>2003-04-17T08:48:38Z</time>
      </trkpt>
      <trkpt lat="31.072042034938931" lon="-3.955090027302504">
        <ele>712.10000000000002</ele>
        <time>2003-04-17T08:48:41Z</time>
      </trkpt>
      <trkpt lat="31.07206198386848" lon="-3.954962035641074">
        <ele>712.20000000000005</ele>
        <time>2003-04-17T08:48:45Z</time>
      </trkpt>
      <trkpt lat="31.072144964709878" lon="-3.95488802343607">
        <ele>712.39999999999998</ele>
        <time>2003-04-17T08:48:49Z</time>
      </trkpt>
      <trkpt lat="31.072230041027069" lon="-3.9549779612571">
        <ele>712.39999999999998</ele>
        <time>2003-04-17T08:48:51Z</time>
      </trkpt>
      <trkpt lat="31.072312016040087" lon="-3.955057002604008">
        <ele>712.39999999999998</ele>
        <time>2003-04-17T08:48:54Z</time>
      </trkpt>
      <trkpt lat="31.072437996044755" lon="-3.955139983445406">
        <ele>712.60000000000002</ele>
        <time>2003-04-17T08:48:57Z</time>
      </trkpt>
      <trkpt lat="31.07253497466445" lon="-3.955207038670778">
        <ele>712</ele>
        <time>2003-04-17T08:48:58Z</time>
      </trkpt>
      <trkpt lat="31.072628013789654" lon="-3.955296976491809">
        <ele>712.29999999999995</ele>
        <time>2003-04-17T08:49:01Z</time>
      </trkpt>
      <trkpt lat="31.072745025157928" lon="-3.955380041152239">
        <ele>712.10000000000002</ele>
        <time>2003-04-17T08:49:02Z</time>
      </trkpt>
      <trkpt lat="31.07294300571084" lon="-3.955445000901818">
        <ele>712.10000000000002</ele>
        <time>2003-04-17T08:49:06Z</time>
      </trkpt>
      <trkpt lat="31.073120031505823" lon="-3.955454975366592">
        <ele>712.70000000000005</ele>
        <time>2003-04-17T08:49:09Z</time>
      </trkpt>
      <trkpt lat="31.073269983753562" lon="-3.955441983416677">
        <ele>712</ele>
        <time>2003-04-17T08:49:12Z</time>
      </trkpt>
      <trkpt lat="31.073486991226673" lon="-3.955447012558579">
        <ele>712.29999999999995</ele>
        <time>2003-04-17T08:49:17Z</time>
      </trkpt>
      <trkpt lat="31.073593022301793" lon="-3.955424968153238">
        <ele>712</ele>
        <time>2003-04-17T08:49:20Z</time>
      </trkpt>
      <trkpt lat="31.073687989264727" lon="-3.955597970634699">
        <ele>711.89999999999998</ele>
        <time>2003-04-17T08:49:33Z</time>
      </trkpt>
      <trkpt lat="31.073722019791603" lon="-3.955705007538199">
        <ele>712.10000000000002</ele>
        <time>2003-04-17T08:49:33Z</time>
      </trkpt>
      <trkpt lat="31.073810029774904" lon="-3.955883039161563">
        <ele>712.29999999999995</ele>
        <time>2003-04-17T08:49:37Z</time>
      </trkpt>
      <trkpt lat="31.073902985081077" lon="-3.956027962267399">
        <ele>712.5</ele>
        <time>2003-04-17T08:49:39Z</time>
      </trkpt>
      <trkpt lat="31.074056960642338" lon="-3.956195013597608">
        <ele>713.29999999999995</ele>
        <time>2003-04-17T08:49:43Z</time>
      </trkpt>
      <trkpt lat="31.074342029169202" lon="-3.956421995535493">
        <ele>716</ele>
        <time>2003-04-17T08:49:48Z</time>
      </trkpt>
      <trkpt lat="31.074516959488392" lon="-3.956538001075387">
        <ele>715.5</ele>
        <time>2003-04-17T08:49:51Z</time>
      </trkpt>
      <trkpt lat="31.074627013877034" lon="-3.956649983301759">
        <ele>714.60000000000002</ele>
        <time>2003-04-17T08:49:52Z</time>
      </trkpt>
      <trkpt lat="31.074891965836287" lon="-3.956917030736804">
        <ele>714.89999999999998</ele>
        <time>2003-04-17T08:49:57Z</time>
      </trkpt>
      <trkpt lat="31.075275018811226" lon="-3.957227999344468">
        <ele>714.10000000000002</ele>
        <time>2003-04-17T08:50:04Z</time>
      </trkpt>
      <trkpt lat="31.075350036844611" lon="-3.957290025427938">
        <ele>713.70000000000005</ele>
        <time>2003-04-17T08:50:04Z</time>
      </trkpt>
      <trkpt lat="31.075647007673979" lon="-3.95749001763761">
        <ele>714.29999999999995</ele>
        <time>2003-04-17T08:50:08Z</time>
      </trkpt>
      <trkpt lat="31.076146988198161" lon="-3.957826970145106">
        <ele>714.70000000000005</ele>
        <time>2003-04-17T08:50:15Z</time>
      </trkpt>
      <trkpt lat="31.076851990073919" lon="-3.958423007279635">
        <ele>715.79999999999995</ele>
        <time>2003-04-17T08:50:24Z</time>
      </trkpt>
      <trkpt lat="31.077556991949677" lon="-3.958734981715679">
        <ele>717.60000000000002</ele>
        <time>2003-04-17T08:50:31Z</time>
      </trkpt>
      <trkpt lat="31.078427033498883" lon="-3.959018038585782">
        <ele>717.20000000000005</ele>
        <time>2003-04-17T08:50:39Z</time>
      </trkpt>
      <trkpt lat="31.079270001500845" lon="-3.95946797914803">
        <ele>718.60000000000002</ele>
        <time>2003-04-17T08:50:47Z</time>
      </trkpt>
      <trkpt lat="31.079478040337563" lon="-3.959539979696274">
        <ele>718.60000000000002</ele>
        <time>2003-04-17T08:50:50Z</time>
      </trkpt>
      <trkpt lat="31.079578036442399" lon="-3.959605023264885">
        <ele>718.20000000000005</ele>
        <time>2003-04-17T08:50:50Z</time>
      </trkpt>
      <trkpt lat="31.080077011138201" lon="-3.959902999922633">
        <ele>720</ele>
        <time>2003-04-17T08:50:56Z</time>
      </trkpt>
      <trkpt lat="31.080410024151206" lon="-3.960087988525629">
        <ele>720.29999999999995</ele>
        <time>2003-04-17T08:50:58Z</time>
      </trkpt>
      <trkpt lat="31.080782013013959" lon="-3.960341960191727">
        <ele>722.60000000000002</ele>
        <time>2003-04-17T08:51:02Z</time>
      </trkpt>
      <trkpt lat="31.081117037683725" lon="-3.960542036220431">
        <ele>722.70000000000005</ele>
        <time>2003-04-17T08:51:06Z</time>
      </trkpt>
      <trkpt lat="31.081275036558509" lon="-3.960462994873524">
        <ele>722.20000000000005</ele>
        <time>2003-04-17T08:51:09Z</time>
      </trkpt>
      <trkpt lat="31.081396993249655" lon="-3.960371967405081">
        <ele>721.39999999999998</ele>
        <time>2003-04-17T08:51:10Z</time>
      </trkpt>
      <trkpt lat="31.081536971032619" lon="-3.960380014032126">
        <ele>720.29999999999995</ele>
        <time>2003-04-17T08:51:13Z</time>
      </trkpt>
      <trkpt lat="31.081635039299726" lon="-3.960444973781705">
        <ele>718.79999999999995</ele>
        <time>2003-04-17T08:51:14Z</time>
      </trkpt>
      <trkpt lat="31.081715002655983" lon="-3.96056198514998">
        <ele>718.20000000000005</ele>
        <time>2003-04-17T08:51:17Z</time>
      </trkpt>
      <trkpt lat="31.081824973225594" lon="-3.960628034546971">
        <ele>717.89999999999998</ele>
        <time>2003-04-17T08:51:18Z</time>
      </trkpt>
      <trkpt lat="31.082001999020576" lon="-3.96064798347652">
        <ele>717.10000000000002</ele>
        <time>2003-04-17T08:51:21Z</time>
      </trkpt>
      <trkpt lat="31.082205008715391" lon="-3.960680002346635">
        <ele>716.89999999999998</ele>
        <time>2003-04-17T08:51:23Z</time>
      </trkpt>
      <trkpt lat="31.082627037540078" lon="-3.960767006501555">
        <ele>715.60000000000002</ele>
        <time>2003-04-17T08:51:27Z</time>
      </trkpt>
      <trkpt lat="31.08280498534441" lon="-3.9608199801296">
        <ele>715.20000000000005</ele>
        <time>2003-04-17T08:51:28Z</time>
      </trkpt>
      <trkpt lat="31.083215028047562" lon="-3.960922993719578">
        <ele>715.29999999999995</ele>
        <time>2003-04-17T08:51:32Z</time>
      </trkpt>
      <trkpt lat="31.083396999165416" lon="-3.960960041731596">
        <ele>715.29999999999995</ele>
        <time>2003-04-17T08:51:35Z</time>
      </trkpt>
      <trkpt lat="31.083632027730346" lon="-3.960989965125918">
        <ele>715.10000000000002</ele>
        <time>2003-04-17T08:51:36Z</time>
      </trkpt>
      <trkpt lat="31.084365025162697" lon="-3.96105500869453">
        <ele>715</ele>
        <time>2003-04-17T08:51:43Z</time>
      </trkpt>
      <trkpt lat="31.084908004850149" lon="-3.960976973176003">
        <ele>714.79999999999995</ele>
        <time>2003-04-17T08:51:48Z</time>
      </trkpt>
      <trkpt lat="31.085080001503229" lon="-3.960979990661144">
        <ele>715</ele>
        <time>2003-04-17T08:51:50Z</time>
      </trkpt>
      <trkpt lat="31.085219979286194" lon="-3.961061965674162">
        <ele>715.20000000000005</ele>
        <time>2003-04-17T08:51:52Z</time>
      </trkpt>
      <trkpt lat="31.085291979834437" lon="-3.961130026727915">
        <ele>715.20000000000005</ele>
        <time>2003-04-17T08:51:52Z</time>
      </trkpt>
      <trkpt lat="31.085422988981009" lon="-3.961311997845769">
        <ele>715.79999999999995</ele>
        <time>2003-04-17T08:51:55Z</time>
      </trkpt>
      <trkpt lat="31.08546799980104" lon="-3.96142297424376">
        <ele>715.70000000000005</ele>
        <time>2003-04-17T08:51:55Z</time>
      </trkpt>
      <trkpt lat="31.08551200479269" lon="-3.961639981716871">
        <ele>716.79999999999995</ele>
        <time>2003-04-17T08:51:58Z</time>
      </trkpt>
      <trkpt lat="31.085567995905876" lon="-3.961817007511854">
        <ele>716.60000000000002</ele>
        <time>2003-04-17T08:51:59Z</time>
      </trkpt>
      <trkpt lat="31.085670003667474" lon="-3.961952961981297">
        <ele>716.10000000000002</ele>
        <time>2003-04-17T08:52:02Z</time>
      </trkpt>
      <trkpt lat="31.085751978680491" lon="-3.962016999721527">
        <ele>716.20000000000005</ele>
        <time>2003-04-17T08:52:03Z</time>
      </trkpt>
      <trkpt lat="31.085947025567293" lon="-3.962139962241054">
        <ele>716.29999999999995</ele>
        <time>2003-04-17T08:52:04Z</time>
      </trkpt>
      <trkpt lat="31.086674993857741" lon="-3.962570037692785">
        <ele>717.10000000000002</ele>
        <time>2003-04-17T08:52:11Z</time>
      </trkpt>
      <trkpt lat="31.086895018815994" lon="-3.962599961087108">
        <ele>718.60000000000002</ele>
        <time>2003-04-17T08:52:14Z</time>
      </trkpt>
      <trkpt lat="31.087076989933848" lon="-3.962601972743869">
        <ele>719.70000000000005</ele>
        <time>2003-04-17T08:52:15Z</time>
      </trkpt>
      <trkpt lat="31.087255021557212" lon="-3.962571965530515">
        <ele>720.29999999999995</ele>
        <time>2003-04-17T08:52:18Z</time>
      </trkpt>
      <trkpt lat="31.087479991838336" lon="-3.96251798607409">
        <ele>717.39999999999998</ele>
        <time>2003-04-17T08:52:19Z</time>
      </trkpt>
      <trkpt lat="31.087807975709438" lon="-3.962480016052723">
        <ele>716.39999999999998</ele>
        <time>2003-04-17T08:52:22Z</time>
      </trkpt>
      <trkpt lat="31.087903026491404" lon="-3.962501976639032">
        <ele>716.39999999999998</ele>
        <time>2003-04-17T08:52:23Z</time>
      </trkpt>
      <trkpt lat="31.088081980124116" lon="-3.962516980245709">
        <ele>716.39999999999998</ele>
        <time>2003-04-17T08:52:26Z</time>
      </trkpt>
      <trkpt lat="31.088169990107417" lon="-3.962476998567581">
        <ele>716.5</ele>
        <time>2003-04-17T08:52:26Z</time>
      </trkpt>
      <trkpt lat="31.088362019509077" lon="-3.962357975542545">
        <ele>716.5</ele>
        <time>2003-04-17T08:52:29Z</time>
      </trkpt>
      <trkpt lat="31.088696960359812" lon="-3.962156977504492">
        <ele>716.39999999999998</ele>
        <time>2003-04-17T08:52:31Z</time>
      </trkpt>
      <trkpt lat="31.08948796056211" lon="-3.961573010310531">
        <ele>716.10000000000002</ele>
        <time>2003-04-17T08:52:38Z</time>
      </trkpt>
      <trkpt lat="31.090264962986112" lon="-3.96099298261106">
        <ele>716.20000000000005</ele>
        <time>2003-04-17T08:52:46Z</time>
      </trkpt>
      <trkpt lat="31.090692020952702" lon="-3.960685031488538">
        <ele>716.29999999999995</ele>
        <time>2003-04-17T08:52:49Z</time>
      </trkpt>
      <trkpt lat="31.091562984511256" lon="-3.960123024880886">
        <ele>716.70000000000005</ele>
        <time>2003-04-17T08:52:57Z</time>
      </trkpt>
      <trkpt lat="31.091834977269173" lon="-3.959869975224137">
        <ele>716.79999999999995</ele>
        <time>2003-04-17T08:53:01Z</time>
      </trkpt>
      <trkpt lat="31.091977972537279" lon="-3.959673000499606">
        <ele>717</ele>
        <time>2003-04-17T08:53:02Z</time>
      </trkpt>
      <trkpt lat="31.09243000857532" lon="-3.959149969741702">
        <ele>717</ele>
        <time>2003-04-17T08:53:08Z</time>
      </trkpt>
      <trkpt lat="31.092637963593006" lon="-3.958975039422512">
        <ele>717</ele>
        <time>2003-04-17T08:53:09Z</time>
      </trkpt>
      <trkpt lat="31.093442961573601" lon="-3.958298033103347">
        <ele>717.29999999999995</ele>
        <time>2003-04-17T08:53:17Z</time>
      </trkpt>
      <trkpt lat="31.093695005401969" lon="-3.958038026466966">
        <ele>717.70000000000005</ele>
        <time>2003-04-17T08:53:20Z</time>
      </trkpt>
      <trkpt lat="31.093942020088434" lon="-3.957835016772151">
        <ele>717.70000000000005</ele>
        <time>2003-04-17T08:53:24Z</time>
      </trkpt>
      <trkpt lat="31.09397797845304" lon="-3.957733009010553">
        <ele>717.70000000000005</ele>
        <time>2003-04-17T08:53:24Z</time>
      </trkpt>
      <trkpt lat="31.094037992879748" lon="-3.957637036219239">
        <ele>717.79999999999995</ele>
        <time>2003-04-17T08:53:25Z</time>
      </trkpt>
      <trkpt lat="31.094206972047687" lon="-3.957442995160818">
        <ele>717.89999999999998</ele>
        <time>2003-04-17T08:53:28Z</time>
      </trkpt>
      <trkpt lat="31.094596982002258" lon="-3.957111993804574">
        <ele>717.29999999999995</ele>
        <time>2003-04-17T08:53:32Z</time>
      </trkpt>
      <trkpt lat="31.094847014173865" lon="-3.956896997988224">
        <ele>717.20000000000005</ele>
        <time>2003-04-17T08:53:35Z</time>
      </trkpt>
      <trkpt lat="31.095108026638627" lon="-3.956616958603263">
        <ele>717.70000000000005</ele>
        <time>2003-04-17T08:53:39Z</time>
      </trkpt>
      <trkpt lat="31.095210034400225" lon="-3.956438004970551">
        <ele>717.39999999999998</ele>
        <time>2003-04-17T08:53:40Z</time>
      </trkpt>
      <trkpt lat="31.095311958342791" lon="-3.956291992217302">
        <ele>717.39999999999998</ele>
        <time>2003-04-17T08:53:43Z</time>
      </trkpt>
      <trkpt lat="31.095402985811234" lon="-3.956262990832329">
        <ele>717.60000000000002</ele>
        <time>2003-04-17T08:53:44Z</time>
      </trkpt>
      <trkpt lat="31.095599960535765" lon="-3.956276988610625">
        <ele>717.20000000000005</ele>
        <time>2003-04-17T08:53:47Z</time>
      </trkpt>
      <trkpt lat="31.095689982175827" lon="-3.956243041902781">
        <ele>717</ele>
        <time>2003-04-17T08:53:50Z</time>
      </trkpt>
      <trkpt lat="31.095722001045942" lon="-3.956138016656041">
        <ele>717</ele>
        <time>2003-04-17T08:53:51Z</time>
      </trkpt>
      <trkpt lat="31.095723006874323" lon="-3.956032991409302">
        <ele>716.79999999999995</ele>
        <time>2003-04-17T08:53:54Z</time>
      </trkpt>
      <trkpt lat="31.095657963305712" lon="-3.955907011404634">
        <ele>716.60000000000002</ele>
        <time>2003-04-17T08:53:55Z</time>
      </trkpt>
      <trkpt lat="31.095591997727752" lon="-3.955782959237695">
        <ele>716.70000000000005</ele>
        <time>2003-04-17T08:53:58Z</time>
      </trkpt>
      <trkpt lat="31.095562996342778" lon="-3.955647004768252">
        <ele>716.60000000000002</ele>
        <time>2003-04-17T08:53:59Z</time>
      </trkpt>
      <trkpt lat="31.095556961372495" lon="-3.955529993399978">
        <ele>716.20000000000005</ele>
        <time>2003-04-17T08:54:02Z</time>
      </trkpt>
      <trkpt lat="31.095557967200875" lon="-3.95538498647511">
        <ele>715.79999999999995</ele>
        <time>2003-04-17T08:54:05Z</time>
      </trkpt>
      <trkpt lat="31.095444979146123" lon="-3.955350033938885">
        <ele>715.70000000000005</ele>
        <time>2003-04-17T08:54:53Z</time>
      </trkpt>
      <trkpt lat="31.095355041325092" lon="-3.955377023667097">
        <ele>715.89999999999998</ele>
        <time>2003-04-17T08:54:56Z</time>
      </trkpt>
      <trkpt lat="31.095225038006902" lon="-3.955386998131871">
        <ele>715.60000000000002</ele>
        <time>2003-04-17T08:54:57Z</time>
      </trkpt>
      <trkpt lat="31.095063015818596" lon="-3.955402001738548">
        <ele>715.79999999999995</ele>
        <time>2003-04-17T08:55:00Z</time>
      </trkpt>
      <trkpt lat="31.0948780272156" lon="-3.955407030880451">
        <ele>716</ele>
        <time>2003-04-17T08:55:03Z</time>
      </trkpt>
      <trkpt lat="31.094812983646989" lon="-3.955324972048402">
        <ele>715.70000000000005</ele>
        <time>2003-04-17T08:55:04Z</time>
      </trkpt>
      <trkpt lat="31.09479496255517" lon="-3.955193040892482">
        <ele>715.60000000000002</ele>
        <time>2003-04-17T08:55:07Z</time>
      </trkpt>
      <trkpt lat="31.094839973375201" lon="-3.95508298650384">
        <ele>715.70000000000005</ele>
        <time>2003-04-17T08:55:08Z</time>
      </trkpt>
      <trkpt lat="31.094884984195232" lon="-3.954939991235733">
        <ele>715.70000000000005</ele>
        <time>2003-04-17T08:55:11Z</time>
      </trkpt>
      <trkpt lat="31.094952961429954" lon="-3.954828009009361">
        <ele>716</ele>
        <time>2003-04-17T08:55:12Z</time>
      </trkpt>
      <trkpt lat="31.095114983618259" lon="-3.954752990975976">
        <ele>716</ele>
        <time>2003-04-17T08:55:15Z</time>
      </trkpt>
      <trkpt lat="31.095212968066335" lon="-3.954602032899857">
        <ele>716.29999999999995</ele>
        <time>2003-04-17T08:55:16Z</time>
      </trkpt>
      <trkpt lat="31.095367027446628" lon="-3.954338002949953">
        <ele>716.29999999999995</ele>
        <time>2003-04-17T08:55:20Z</time>
      </trkpt>
      <trkpt lat="31.095402985811234" lon="-3.954215040430427">
        <ele>716.10000000000002</ele>
        <time>2003-04-17T08:55:23Z</time>
      </trkpt>
      <trkpt lat="31.095519997179508" lon="-3.954185033217073">
        <ele>716.39999999999998</ele>
        <time>2003-04-17T08:55:24Z</time>
      </trkpt>
      <trkpt lat="31.095668021589518" lon="-3.954191990196705">
        <ele>716.29999999999995</ele>
        <time>2003-04-17T08:55:27Z</time>
      </trkpt>
      <trkpt lat="31.095813028514385" lon="-3.954297015443444">
        <ele>716.60000000000002</ele>
        <time>2003-04-17T08:55:28Z</time>
      </trkpt>
      <trkpt lat="31.09610203653574" lon="-3.954536989331245">
        <ele>717.5</ele>
        <time>2003-04-17T08:55:32Z</time>
      </trkpt>
      <trkpt lat="31.096194991841912" lon="-3.954621981829405">
        <ele>719.5</ele>
        <time>2003-04-17T08:55:35Z</time>
      </trkpt>
      <trkpt lat="31.096279984340072" lon="-3.954732958227396">
        <ele>719.5</ele>
        <time>2003-04-17T08:55:36Z</time>
      </trkpt>
      <trkpt lat="31.09636003151536" lon="-3.954887017607689">
        <ele>718.5</ele>
        <time>2003-04-17T08:55:39Z</time>
      </trkpt>
      <trkpt lat="31.096521969884634" lon="-3.955124979838729">
        <ele>719.70000000000005</ele>
        <time>2003-04-17T08:55:43Z</time>
      </trkpt>
      <trkpt lat="31.096600005403161" lon="-3.955054990947247">
        <ele>721.10000000000002</ele>
        <time>2003-04-17T08:55:44Z</time>
      </trkpt>
      <trkpt lat="31.096657002344728" lon="-3.954951977357268">
        <ele>721.5</ele>
        <time>2003-04-17T08:55:47Z</time>
      </trkpt>
      <trkpt lat="31.09674702398479" lon="-3.954879976809025">
        <ele>722.39999999999998</ele>
        <time>2003-04-17T08:55:48Z</time>
      </trkpt>
      <trkpt lat="31.096839979290962" lon="-3.954890035092831">
        <ele>723</ele>
        <time>2003-04-17T08:55:51Z</time>
      </trkpt>
      <trkpt lat="31.096954979002476" lon="-3.954947032034397">
        <ele>721.70000000000005</ele>
        <time>2003-04-17T08:55:53Z</time>
      </trkpt>
      <trkpt lat="31.097141979262233" lon="-3.955005034804344">
        <ele>721.60000000000002</ele>
        <time>2003-04-17T08:55:55Z</time>
      </trkpt>
      <trkpt lat="31.097162012010813" lon="-3.955133026465774">
        <ele>719.79999999999995</ele>
        <time>2003-04-17T08:55:58Z</time>
      </trkpt>
      <trkpt lat="31.097139967605472" lon="-3.955269986763597">
        <ele>720.5</ele>
        <time>2003-04-17T08:55:59Z</time>
      </trkpt>
      <trkpt lat="31.097181960940361" lon="-3.955367971211672">
        <ele>719.79999999999995</ele>
        <time>2003-04-17T08:56:02Z</time>
      </trkpt>
      <trkpt lat="31.097282040864229" lon="-3.955433014780283">
        <ele>721.60000000000002</ele>
        <time>2003-04-17T08:56:03Z</time>
      </trkpt>
      <trkpt lat="31.097382958978415" lon="-3.955527981743217">
        <ele>722.70000000000005</ele>
        <time>2003-04-17T08:56:06Z</time>
      </trkpt>
      <trkpt lat="31.097472980618477" lon="-3.955662008374929">
        <ele>723</ele>
        <time>2003-04-17T08:56:07Z</time>
      </trkpt>
      <trkpt lat="31.097529977560043" lon="-3.955799974501133">
        <ele>725.70000000000005</ele>
        <time>2003-04-17T08:56:10Z</time>
      </trkpt>
      <trkpt lat="31.097653023898602" lon="-3.956017987802625">
        <ele>723.10000000000002</ele>
        <time>2003-04-17T08:56:13Z</time>
      </trkpt>
      <trkpt lat="31.097734998911619" lon="-3.956146985292435">
        <ele>724.5</ele>
        <time>2003-04-17T08:56:14Z</time>
      </trkpt>
      <trkpt lat="31.097838012501597" lon="-3.956282017752528">
        <ele>723</ele>
        <time>2003-04-17T08:56:17Z</time>
      </trkpt>
      <trkpt lat="31.097970027476549" lon="-3.956368016079068">
        <ele>723.60000000000002</ele>
        <time>2003-04-17T08:56:18Z</time>
      </trkpt>
      <trkpt lat="31.098082009702921" lon="-3.956432975828648">
        <ele>726.70000000000005</ele>
        <time>2003-04-17T08:56:21Z</time>
      </trkpt>
      <trkpt lat="31.098134983330965" lon="-3.956568008288741">
        <ele>726.60000000000002</ele>
        <time>2003-04-17T08:56:22Z</time>
      </trkpt>
      <trkpt lat="31.098245037719607" lon="-3.956606984138489">
        <ele>727.70000000000005</ele>
        <time>2003-04-17T08:56:25Z</time>
      </trkpt>
      <trkpt lat="31.09836196526885" lon="-3.956587035208941">
        <ele>728.5</ele>
        <time>2003-04-17T08:56:26Z</time>
      </trkpt>
      <trkpt lat="31.098373029381037" lon="-3.956415038555861">
        <ele>727.5</ele>
        <time>2003-04-17T08:56:29Z</time>
      </trkpt>
      <trkpt lat="31.098307985812426" lon="-3.956274976953864">
        <ele>727.5</ele>
        <time>2003-04-17T08:56:30Z</time>
      </trkpt>
      <trkpt lat="31.0982730332762" lon="-3.956104991957545">
        <ele>726.20000000000005</ele>
        <time>2003-04-17T08:56:33Z</time>
      </trkpt>
      <trkpt lat="31.09818996861577" lon="-3.955972976982594">
        <ele>726</ele>
        <time>2003-04-17T08:56:34Z</time>
      </trkpt>
      <trkpt lat="31.098073041066527" lon="-3.955907011404634">
        <ele>725.70000000000005</ele>
        <time>2003-04-17T08:56:37Z</time>
      </trkpt>
      <trkpt lat="31.09797497279942" lon="-3.955795029178262">
        <ele>725.29999999999995</ele>
        <time>2003-04-17T08:56:38Z</time>
      </trkpt>
      <trkpt lat="31.09786500222981" lon="-3.955680029466748">
        <ele>722.60000000000002</ele>
        <time>2003-04-17T08:56:41Z</time>
      </trkpt>
      <trkpt lat="31.097765006124973" lon="-3.955652033910155">
        <ele>724.20000000000005</ele>
        <time>2003-04-17T08:56:42Z</time>
      </trkpt>
      <trkpt lat="31.097676996141672" lon="-3.955569975078106">
        <ele>725</ele>
        <time>2003-04-17T08:56:45Z</time>
      </trkpt>
      <trkpt lat="31.097563002258539" lon="-3.955495040863752">
        <ele>723.89999999999998</ele>
        <time>2003-04-17T08:56:47Z</time>
      </trkpt>
      <trkpt lat="31.097362004220486" lon="-3.955422034487128">
        <ele>724.5</ele>
        <time>2003-04-17T08:56:49Z</time>
      </trkpt>
      <trkpt lat="31.09715698286891" lon="-3.955366965383291">
        <ele>722.20000000000005</ele>
        <time>2003-04-17T08:56:52Z</time>
      </trkpt>
      <trkpt lat="31.097150025889277" lon="-3.955192035064101">
        <ele>720.39999999999998</ele>
        <time>2003-04-17T08:56:55Z</time>
      </trkpt>
      <trkpt lat="31.097117001190782" lon="-3.955075023695827">
        <ele>721.70000000000005</ele>
        <time>2003-04-17T08:56:56Z</time>
      </trkpt>
      <trkpt lat="31.097054975107312" lon="-3.954922975972295">
        <ele>720.79999999999995</ele>
        <time>2003-04-17T08:57:00Z</time>
      </trkpt>
      <trkpt lat="31.09696302562952" lon="-3.954903027042747">
        <ele>722.39999999999998</ele>
        <time>2003-04-17T08:57:01Z</time>
      </trkpt>
      <trkpt lat="31.09683696180582" lon="-3.954909984022379">
        <ele>722.79999999999995</ele>
        <time>2003-04-17T08:57:04Z</time>
      </trkpt>
      <trkpt lat="31.096736965700984" lon="-3.954837983474135">
        <ele>722</ele>
        <time>2003-04-17T08:57:05Z</time>
      </trkpt>
      <trkpt lat="31.096649961546063" lon="-3.954877965152264">
        <ele>722.29999999999995</ele>
        <time>2003-04-17T08:57:08Z</time>
      </trkpt>
      <trkpt lat="31.096602017059922" lon="-3.954994976520538">
        <ele>721.60000000000002</ele>
        <time>2003-04-17T08:57:09Z</time>
      </trkpt>
      <trkpt lat="31.09649296849966" lon="-3.955075023695827">
        <ele>720.70000000000005</ele>
        <time>2003-04-17T08:57:12Z</time>
      </trkpt>
      <trkpt lat="31.09636003151536" lon="-3.955033030360937">
        <ele>719.89999999999998</ele>
        <time>2003-04-17T08:57:14Z</time>
      </trkpt>
      <trkpt lat="31.096324995160103" lon="-3.954882994294167">
        <ele>720.20000000000005</ele>
        <time>2003-04-17T08:57:16Z</time>
      </trkpt>
      <trkpt lat="31.096288030967116" lon="-3.954712003469467">
        <ele>719.79999999999995</ele>
        <time>2003-04-17T08:57:18Z</time>
      </trkpt>
      <trkpt lat="31.096176970750093" lon="-3.954594992101193">
        <ele>718.70000000000005</ele>
        <time>2003-04-17T08:57:19Z</time>
      </trkpt>
      <trkpt lat="31.095810011029243" lon="-3.954280000180006">
        <ele>718.79999999999995</ele>
        <time>2003-04-17T08:57:27Z</time>
      </trkpt>
      <trkpt lat="31.095685036852956" lon="-3.954217974096537">
        <ele>718.60000000000002</ele>
        <time>2003-04-17T08:59:38Z</time>
      </trkpt>
      <trkpt lat="31.095593003556132" lon="-3.954167012125254">
        <ele>718.5</ele>
        <time>2003-04-17T08:59:41Z</time>
      </trkpt>
      <trkpt lat="31.09548001550138" lon="-3.954183021560311">
        <ele>718.39999999999998</ele>
        <time>2003-04-17T08:59:42Z</time>
      </trkpt>
      <trkpt lat="31.095341965556145" lon="-3.95407497882843">
        <ele>718.39999999999998</ele>
        <time>2003-04-17T09:00:01Z</time>
      </trkpt>
      <trkpt lat="31.095223026350141" lon="-3.95392301492393">
        <ele>718.29999999999995</ele>
        <time>2003-04-17T09:00:05Z</time>
      </trkpt>
      <trkpt lat="31.095112971961498" lon="-3.953802986070514">
        <ele>718.20000000000005</ele>
        <time>2003-04-17T09:00:08Z</time>
      </trkpt>
      <trkpt lat="31.094972994178534" lon="-3.953697038814426">
        <ele>718.20000000000005</ele>
        <time>2003-04-17T09:00:09Z</time>
      </trkpt>
      <trkpt lat="31.094781970605254" lon="-3.953596958890557">
        <ele>718.10000000000002</ele>
        <time>2003-04-17T09:00:12Z</time>
      </trkpt>
      <trkpt lat="31.09436203725636" lon="-3.953371988609433">
        <ele>718.29999999999995</ele>
        <time>2003-04-17T09:00:16Z</time>
      </trkpt>
      <trkpt lat="31.093508005142212" lon="-3.952809982001782">
        <ele>719.5</ele>
        <time>2003-04-17T09:00:24Z</time>
      </trkpt>
      <trkpt lat="31.092954967170954" lon="-3.952373033389449">
        <ele>719.10000000000002</ele>
        <time>2003-04-17T09:00:29Z</time>
      </trkpt>
      <trkpt lat="31.092811971902847" lon="-3.952287035062909">
        <ele>719</ele>
        <time>2003-04-17T09:00:32Z</time>
      </trkpt>
      <trkpt lat="31.092702001333237" lon="-3.952168012037873">
        <ele>718.89999999999998</ele>
        <time>2003-04-17T09:00:33Z</time>
      </trkpt>
      <trkpt lat="31.092560011893511" lon="-3.952013030648232">
        <ele>719.10000000000002</ele>
        <time>2003-04-17T09:00:36Z</time>
      </trkpt>
      <trkpt lat="31.092427996918559" lon="-3.951962990686297">
        <ele>718.70000000000005</ele>
        <time>2003-04-17T09:00:39Z</time>
      </trkpt>
      <trkpt lat="31.092321965843439" lon="-3.951983023434877">
        <ele>718.5</ele>
        <time>2003-04-17T09:00:40Z</time>
      </trkpt>
      <trkpt lat="31.092142006382346" lon="-3.951813038438559">
        <ele>719.29999999999995</ele>
        <time>2003-04-17T09:00:50Z</time>
      </trkpt>
      <trkpt lat="31.091903038322926" lon="-3.951499974355102">
        <ele>717.39999999999998</ele>
        <time>2003-04-17T09:00:59Z</time>
      </trkpt>
      <trkpt lat="31.091792983934283" lon="-3.951382962986827">
        <ele>718.29999999999995</ele>
        <time>2003-04-17T09:01:56Z</time>
      </trkpt>
      <trkpt lat="31.091619981452823" lon="-3.951209960505366">
        <ele>717.89999999999998</ele>
        <time>2003-04-17T09:02:00Z</time>
      </trkpt>
      <trkpt lat="31.091513028368354" lon="-3.951009968295693">
        <ele>717.39999999999998</ele>
        <time>2003-04-17T09:02:02Z</time>
      </trkpt>
      <trkpt lat="31.091507999226451" lon="-3.950902009382844">
        <ele>716.39999999999998</ele>
        <time>2003-04-17T09:02:04Z</time>
      </trkpt>
      <trkpt lat="31.091468017548323" lon="-3.950797989964485">
        <ele>716.70000000000005</ele>
        <time>2003-04-17T09:02:05Z</time>
      </trkpt>
      <trkpt lat="31.091319993138313" lon="-3.950358023867011">
        <ele>719</ele>
        <time>2003-04-17T09:02:09Z</time>
      </trkpt>
      <trkpt lat="31.091357041150331" lon="-3.950212011113763">
        <ele>718.70000000000005</ele>
        <time>2003-04-17T09:02:12Z</time>
      </trkpt>
      <trkpt lat="31.091434992849827" lon="-3.950082007795572">
        <ele>716.5</ele>
        <time>2003-04-17T09:02:13Z</time>
      </trkpt>
      <trkpt lat="31.091595003381371" lon="-3.950007995590568">
        <ele>717.10000000000002</ele>
        <time>2003-04-17T09:02:16Z</time>
      </trkpt>
      <trkpt lat="31.091873031109571" lon="-3.949967008084059">
        <ele>716.89999999999998</ele>
        <time>2003-04-17T09:02:19Z</time>
      </trkpt>
      <trkpt lat="31.09204301610589" lon="-3.949898025020957">
        <ele>716.5</ele>
        <time>2003-04-17T09:02:20Z</time>
      </trkpt>
      <trkpt lat="31.092196991667151" lon="-3.949857959523797">
        <ele>716.5</ele>
        <time>2003-04-17T09:02:23Z</time>
      </trkpt>
      <trkpt lat="31.092321965843439" lon="-3.949786964803934">
        <ele>716.70000000000005</ele>
        <time>2003-04-17T09:02:24Z</time>
      </trkpt>
      <trkpt lat="31.092484993860126" lon="-3.949765004217625">
        <ele>716.79999999999995</ele>
        <time>2003-04-17T09:02:27Z</time>
      </trkpt>
      <trkpt lat="31.092652967199683" lon="-3.949717981740832">
        <ele>716.29999999999995</ele>
        <time>2003-04-17T09:02:28Z</time>
      </trkpt>
      <trkpt lat="31.093078013509512" lon="-3.949567023664713">
        <ele>715.89999999999998</ele>
        <time>2003-04-17T09:02:33Z</time>
      </trkpt>
      <trkpt lat="31.093815034255385" lon="-3.949314979836345">
        <ele>715.29999999999995</ele>
        <time>2003-04-17T09:02:43Z</time>
      </trkpt>
      <trkpt lat="31.093902960419655" lon="-3.949237028136849">
        <ele>715.60000000000002</ele>
        <time>2003-04-17T09:02:44Z</time>
      </trkpt>
      <trkpt lat="31.094051990658045" lon="-3.949153041467071">
        <ele>715.5</ele>
        <time>2003-04-17T09:02:47Z</time>
      </trkpt>
      <trkpt lat="31.094781970605254" lon="-3.948747022077441">
        <ele>715.79999999999995</ele>
        <time>2003-04-17T09:02:58Z</time>
      </trkpt>
      <trkpt lat="31.095397034659982" lon="-3.948497995734215">
        <ele>716.10000000000002</ele>
        <time>2003-04-17T09:03:05Z</time>
      </trkpt>
      <trkpt lat="31.095640026032925" lon="-3.948387019336224">
        <ele>716.70000000000005</ele>
        <time>2003-04-17T09:03:07Z</time>
      </trkpt>
      <trkpt lat="31.095812022686005" lon="-3.948397999629378">
        <ele>716.39999999999998</ele>
        <time>2003-04-17T09:03:10Z</time>
      </trkpt>
      <trkpt lat="31.096189962700009" lon="-3.948502019047737">
        <ele>715.89999999999998</ele>
        <time>2003-04-17T09:03:14Z</time>
      </trkpt>
      <trkpt lat="31.096330024302006" lon="-3.94857200793922">
        <ele>716</ele>
        <time>2003-04-17T09:03:17Z</time>
      </trkpt>
      <trkpt lat="31.096448041498661" lon="-3.948669992387295">
        <ele>715.89999999999998</ele>
        <time>2003-04-17T09:03:18Z</time>
      </trkpt>
      <trkpt lat="31.096526999026537" lon="-3.94880997017026">
        <ele>716</ele>
        <time>2003-04-17T09:03:21Z</time>
      </trkpt>
      <trkpt lat="31.096660019829869" lon="-3.948826985433698">
        <ele>717.10000000000002</ele>
        <time>2003-04-17T09:03:22Z</time>
      </trkpt>
      <trkpt lat="31.096763033419847" lon="-3.948905020952225">
        <ele>716.79999999999995</ele>
        <time>2003-04-17T09:03:25Z</time>
      </trkpt>
      <trkpt lat="31.096911979839206" lon="-3.949109958484769">
        <ele>717.10000000000002</ele>
        <time>2003-04-17T09:03:27Z</time>
      </trkpt>
      <trkpt lat="31.097012981772423" lon="-3.949262006208301">
        <ele>717.29999999999995</ele>
        <time>2003-04-17T09:03:30Z</time>
      </trkpt>
      <trkpt lat="31.097169974818826" lon="-3.949452023953199">
        <ele>718</ele>
        <time>2003-04-17T09:03:33Z</time>
      </trkpt>
      <trkpt lat="31.09726301394403" lon="-3.949598036706448">
        <ele>717.89999999999998</ele>
        <time>2003-04-17T09:03:34Z</time>
      </trkpt>
      <trkpt lat="31.097369967028499" lon="-3.949701972305775">
        <ele>718.79999999999995</ele>
        <time>2003-04-17T09:03:37Z</time>
      </trkpt>
      <trkpt lat="31.097463006153703" lon="-3.949857037514448">
        <ele>718.29999999999995</ele>
        <time>2003-04-17T09:03:38Z</time>
      </trkpt>
      <trkpt lat="31.097525032237172" lon="-3.950019981712103">
        <ele>719</ele>
        <time>2003-04-17T09:03:41Z</time>
      </trkpt>
      <trkpt lat="31.097540035843849" lon="-3.950153002515435">
        <ele>718.79999999999995</ele>
        <time>2003-04-17T09:03:42Z</time>
      </trkpt>
      <trkpt lat="31.097614970058203" lon="-3.950388031080365">
        <ele>720.60000000000002</ele>
        <time>2003-04-17T09:04:31Z</time>
      </trkpt>
      <trkpt lat="31.097668027505279" lon="-3.950519962236285">
        <ele>719.89999999999998</ele>
        <time>2003-04-17T09:04:32Z</time>
      </trkpt>
      <trkpt lat="31.097744973376393" lon="-3.950691958889365">
        <ele>720.60000000000002</ele>
        <time>2003-04-17T09:04:35Z</time>
      </trkpt>
      <trkpt lat="31.09782300889492" lon="-3.950839983299375">
        <ele>720.5</ele>
        <time>2003-04-17T09:04:36Z</time>
      </trkpt>
      <trkpt lat="31.097897021099925" lon="-3.95091500133276">
        <ele>720.5</ele>
        <time>2003-04-17T09:04:39Z</time>
      </trkpt>
      <trkpt lat="31.097795013338327" lon="-3.950848029926419">
        <ele>722.79999999999995</ele>
        <time>2003-04-17T09:06:22Z</time>
      </trkpt>
      <trkpt lat="31.097793001681566" lon="-3.950724983587861">
        <ele>722.10000000000002</ele>
        <time>2003-04-17T09:06:27Z</time>
      </trkpt>
      <trkpt lat="31.097676996141672" lon="-3.95050797611475">
        <ele>721</ele>
        <time>2003-04-17T09:06:35Z</time>
      </trkpt>
      <trkpt lat="31.097612036392093" lon="-3.950391970574856">
        <ele>720.79999999999995</ele>
        <time>2003-04-17T09:06:38Z</time>
      </trkpt>
      <trkpt lat="31.097516985610127" lon="-3.950222991406918">
        <ele>720.29999999999995</ele>
        <time>2003-04-17T09:06:41Z</time>
      </trkpt>
      <trkpt lat="31.097508016973734" lon="-3.950097011402249">
        <ele>719.89999999999998</ele>
        <time>2003-04-17T09:06:43Z</time>
      </trkpt>
      <trkpt lat="31.097469963133335" lon="-3.949872963130474">
        <ele>719.5</ele>
        <time>2003-04-17T09:06:47Z</time>
      </trkpt>
      <trkpt lat="31.097402991726995" lon="-3.949757963418961">
        <ele>720.20000000000005</ele>
        <time>2003-04-17T09:06:50Z</time>
      </trkpt>
      <trkpt lat="31.097272988408804" lon="-3.949623014777899">
        <ele>719</ele>
        <time>2003-04-17T09:06:53Z</time>
      </trkpt>
      <trkpt lat="31.097197970375419" lon="-3.949522012844682">
        <ele>719.70000000000005</ele>
        <time>2003-04-17T09:06:54Z</time>
      </trkpt>
      <trkpt lat="31.097078025341034" lon="-3.949354961514473">
        <ele>718.70000000000005</ele>
        <time>2003-04-17T09:06:58Z</time>
      </trkpt>
      <trkpt lat="31.097002001479268" lon="-3.949267035350204">
        <ele>718.70000000000005</ele>
        <time>2003-04-17T09:06:59Z</time>
      </trkpt>
      <trkpt lat="31.096811983734369" lon="-3.949007028713822">
        <ele>717.70000000000005</ele>
        <time>2003-04-17T09:07:05Z</time>
      </trkpt>
      <trkpt lat="31.096715005114675" lon="-3.948882976546884">
        <ele>717.39999999999998</ele>
        <time>2003-04-17T09:07:08Z</time>
      </trkpt>
      <trkpt lat="31.096633030101657" lon="-3.948807958513498">
        <ele>717.70000000000005</ele>
        <time>2003-04-17T09:07:10Z</time>
      </trkpt>
      <trkpt lat="31.096545020118356" lon="-3.948778035119176">
        <ele>717.89999999999998</ele>
        <time>2003-04-17T09:07:12Z</time>
      </trkpt>
      <trkpt lat="31.096421973779798" lon="-3.948696982115507">
        <ele>717.29999999999995</ele>
        <time>2003-04-17T09:07:14Z</time>
      </trkpt>
      <trkpt lat="31.096306974068284" lon="-3.9485730137676">
        <ele>717.39999999999998</ele>
        <time>2003-04-17T09:07:17Z</time>
      </trkpt>
      <trkpt lat="31.096055014058948" lon="-3.948481986299157">
        <ele>717</ele>
        <time>2003-04-17T09:07:22Z</time>
      </trkpt>
      <trkpt lat="31.095874970778823" lon="-3.948457008227706">
        <ele>717.5</ele>
        <time>2003-04-17T09:07:25Z</time>
      </trkpt>
      <trkpt lat="31.09565201215446" lon="-3.948392970487475">
        <ele>716.70000000000005</ele>
        <time>2003-04-17T09:07:29Z</time>
      </trkpt>
      <trkpt lat="31.095546986907721" lon="-3.948427001014352">
        <ele>717.79999999999995</ele>
        <time>2003-04-17T09:07:32Z</time>
      </trkpt>
      <trkpt lat="31.095441961660981" lon="-3.948419960215688">
        <ele>717.79999999999995</ele>
        <time>2003-04-17T09:07:33Z</time>
      </trkpt>
      <trkpt lat="31.095384964719415" lon="-3.948298003524542">
        <ele>717</ele>
        <time>2003-04-17T09:07:36Z</time>
      </trkpt>
      <trkpt lat="31.095332996919751" lon="-3.948158025741577">
        <ele>716.60000000000002</ele>
        <time>2003-04-17T09:07:37Z</time>
      </trkpt>
      <trkpt lat="31.095214979723096" lon="-3.94784202799201">
        <ele>716.29999999999995</ele>
        <time>2003-04-17T09:07:43Z</time>
      </trkpt>
      <trkpt lat="31.0953080188483" lon="-3.947732979431748">
        <ele>716</ele>
        <time>2003-04-17T09:07:44Z</time>
      </trkpt>
      <trkpt lat="31.095465011894703" lon="-3.947697021067143">
        <ele>716</ele>
        <time>2003-04-17T09:07:47Z</time>
      </trkpt>
      <trkpt lat="31.095877988263965" lon="-3.947613034397364">
        <ele>716.20000000000005</ele>
        <time>2003-04-17T09:07:52Z</time>
      </trkpt>
      <trkpt lat="31.095974966883659" lon="-3.947616973891854">
        <ele>716.10000000000002</ele>
        <time>2003-04-17T09:07:52Z</time>
      </trkpt>
      <trkpt lat="31.096072029322386" lon="-3.947653016075492">
        <ele>716.10000000000002</ele>
        <time>2003-04-17T09:07:53Z</time>
      </trkpt>
      <trkpt lat="31.096166996285319" lon="-3.947706995531917">
        <ele>716</ele>
        <time>2003-04-17T09:07:55Z</time>
      </trkpt>
      <trkpt lat="31.096594976261258" lon="-3.947897013276815">
        <ele>716.70000000000005</ele>
        <time>2003-04-17T09:07:59Z</time>
      </trkpt>
      <trkpt lat="31.096784994006157" lon="-3.947938000783324">
        <ele>716.70000000000005</ele>
        <time>2003-04-17T09:08:00Z</time>
      </trkpt>
      <trkpt lat="31.09687996096909" lon="-3.94805702380836">
        <ele>716.89999999999998</ele>
        <time>2003-04-17T09:08:03Z</time>
      </trkpt>
      <trkpt lat="31.096952967345715" lon="-3.948187027126551">
        <ele>717.70000000000005</ele>
        <time>2003-04-17T09:08:04Z</time>
      </trkpt>
      <trkpt lat="31.097024967893958" lon="-3.948258021846414">
        <ele>718.29999999999995</ele>
        <time>2003-04-17T09:08:15Z</time>
      </trkpt>
      <trkpt lat="31.097120018675923" lon="-3.948345026001334">
        <ele>718.79999999999995</ele>
        <time>2003-04-17T09:08:18Z</time>
      </trkpt>
      <trkpt lat="31.097162012010813" lon="-3.948497995734215">
        <ele>718.79999999999995</ele>
        <time>2003-04-17T09:08:19Z</time>
      </trkpt>
      <trkpt lat="31.097229989245534" lon="-3.948748027905822">
        <ele>718.5</ele>
        <time>2003-04-17T09:08:23Z</time>
      </trkpt>
      <trkpt lat="31.097353035584092" lon="-3.948877025395632">
        <ele>718.89999999999998</ele>
        <time>2003-04-17T09:08:24Z</time>
      </trkpt>
      <trkpt lat="31.097423024475574" lon="-3.949027983471751">
        <ele>719.10000000000002</ele>
        <time>2003-04-17T09:08:27Z</time>
      </trkpt>
      <trkpt lat="31.097486978396773" lon="-3.94921800121665">
        <ele>719.10000000000002</ele>
        <time>2003-04-17T09:08:29Z</time>
      </trkpt>
      <trkpt lat="31.097580017521977" lon="-3.94936703145504">
        <ele>719.10000000000002</ele>
        <time>2003-04-17T09:08:31Z</time>
      </trkpt>
      <trkpt lat="31.097757965326309" lon="-3.949589990079403">
        <ele>719.60000000000002</ele>
        <time>2003-04-17T09:08:34Z</time>
      </trkpt>
      <trkpt lat="31.09792803414166" lon="-3.949656961485744">
        <ele>719.70000000000005</ele>
        <time>2003-04-17T09:08:35Z</time>
      </trkpt>
      <trkpt lat="31.09818996861577" lon="-3.949767015874386">
        <ele>719.70000000000005</ele>
        <time>2003-04-17T09:08:38Z</time>
      </trkpt>
      <trkpt lat="31.098351990804076" lon="-3.949900036677718">
        <ele>719.70000000000005</ele>
        <time>2003-04-17T09:08:41Z</time>
      </trkpt>
      <trkpt lat="31.098409993574023" lon="-3.950001960620284">
        <ele>719.79999999999995</ele>
        <time>2003-04-17T09:08:42Z</time>
      </trkpt>
      <trkpt lat="31.098451986908913" lon="-3.950112015008926">
        <ele>719.89999999999998</ele>
        <time>2003-04-17T09:08:42Z</time>
      </trkpt>
      <trkpt lat="31.098613003268838" lon="-3.950697993859649">
        <ele>720.20000000000005</ele>
        <time>2003-04-17T09:08:47Z</time>
      </trkpt>
      <trkpt lat="31.098651979118586" lon="-3.950945008546114">
        <ele>720.39999999999998</ele>
        <time>2003-04-17T09:08:50Z</time>
      </trkpt>
      <trkpt lat="31.098705036565661" lon="-3.951051961630583">
        <ele>720.20000000000005</ele>
        <time>2003-04-17T09:08:50Z</time>
      </trkpt>
      <trkpt lat="31.098772007972002" lon="-3.951142989099026">
        <ele>720.39999999999998</ele>
        <time>2003-04-17T09:08:51Z</time>
      </trkpt>
      <trkpt lat="31.098890025168657" lon="-3.951292019337416">
        <ele>721.60000000000002</ele>
        <time>2003-04-17T09:08:54Z</time>
      </trkpt>
      <trkpt lat="31.099033020436764" lon="-3.951380029320717">
        <ele>721.39999999999998</ele>
        <time>2003-04-17T09:08:56Z</time>
      </trkpt>
      <trkpt lat="31.099205017089844" lon="-3.951427973806858">
        <ele>721.70000000000005</ele>
        <time>2003-04-17T09:08:58Z</time>
      </trkpt>
      <trkpt lat="31.099292021244764" lon="-3.951477007940412">
        <ele>720.79999999999995</ele>
        <time>2003-04-17T09:08:58Z</time>
      </trkpt>
      <trkpt lat="31.099353041499853" lon="-3.951554959639907">
        <ele>720.29999999999995</ele>
        <time>2003-04-17T09:09:00Z</time>
      </trkpt>
      <trkpt lat="31.099435016512871" lon="-3.951719999313355">
        <ele>721.20000000000005</ele>
        <time>2003-04-17T09:09:01Z</time>
      </trkpt>
      <trkpt lat="31.099548004567623" lon="-3.951827958226204">
        <ele>721.10000000000002</ele>
        <time>2003-04-17T09:09:04Z</time>
      </trkpt>
      <trkpt lat="31.09973500482738" lon="-3.952016970142722">
        <ele>723</ele>
        <time>2003-04-17T09:09:08Z</time>
      </trkpt>
      <trkpt lat="31.099750008434057" lon="-3.952179998159409">
        <ele>723.60000000000002</ele>
        <time>2003-04-17T09:09:09Z</time>
      </trkpt>
      <trkpt lat="31.099813040345907" lon="-3.952270019799471">
        <ele>722.29999999999995</ele>
        <time>2003-04-17T09:09:12Z</time>
      </trkpt>
      <trkpt lat="31.099683037027717" lon="-3.95224797539413">
        <ele>720.29999999999995</ele>
        <time>2003-04-17T10:35:02Z</time>
      </trkpt>
      <trkpt lat="31.09966803342104" lon="-3.952351994812489">
        <ele>721.20000000000005</ele>
        <time>2003-04-17T10:35:06Z</time>
      </trkpt>
      <trkpt lat="31.09966803342104" lon="-3.952207993716002">
        <ele>715.70000000000005</ele>
        <time>2003-04-17T10:36:19Z</time>
      </trkpt>
      <trkpt lat="31.099741961807013" lon="-3.951928038150072">
        <ele>717.79999999999995</ele>
        <time>2003-04-17T10:36:23Z</time>
      </trkpt>
      <trkpt lat="31.099774986505508" lon="-3.951807003468275">
        <ele>713.70000000000005</ele>
        <time>2003-04-17T10:36:26Z</time>
      </trkpt>
      <trkpt lat="31.099732993170619" lon="-3.951641963794828">
        <ele>713.29999999999995</ele>
        <time>2003-04-17T10:36:27Z</time>
      </trkpt>
      <trkpt lat="31.099763000383973" lon="-3.951501986011863">
        <ele>714.20000000000005</ele>
        <time>2003-04-17T10:36:30Z</time>
      </trkpt>
      <trkpt lat="31.099861990660429" lon="-3.951448006555438">
        <ele>715.10000000000002</ele>
        <time>2003-04-17T10:36:31Z</time>
      </trkpt>
      <trkpt lat="31.099832989275455" lon="-3.951326971873641">
        <ele>714.89999999999998</ele>
        <time>2003-04-17T10:43:40Z</time>
      </trkpt>
      <trkpt lat="31.099746990948915" lon="-3.951242985203862">
        <ele>713.29999999999995</ele>
        <time>2003-04-17T10:43:43Z</time>
      </trkpt>
      <trkpt lat="31.099689994007349" lon="-3.9511080365628">
        <ele>712.5</ele>
        <time>2003-04-17T10:43:44Z</time>
      </trkpt>
      <trkpt lat="31.099607013165951" lon="-3.950967974960804">
        <ele>713</ele>
        <time>2003-04-17T10:43:47Z</time>
      </trkpt>
      <trkpt lat="31.099497964605689" lon="-3.950832020491362">
        <ele>713.29999999999995</ele>
        <time>2003-04-17T10:43:48Z</time>
      </trkpt>
      <trkpt lat="31.099395034834743" lon="-3.950721966102719">
        <ele>714.10000000000002</ele>
        <time>2003-04-17T10:43:51Z</time>
      </trkpt>
      <trkpt lat="31.099335020408034" lon="-3.950573019683361">
        <ele>714</ele>
        <time>2003-04-17T10:43:53Z</time>
      </trkpt>
      <trkpt lat="31.099266959354281" lon="-3.950418038293719">
        <ele>713.79999999999995</ele>
        <time>2003-04-17T10:43:55Z</time>
      </trkpt>
      <trkpt lat="31.099277017638087" lon="-3.950251992791891">
        <ele>714.20000000000005</ele>
        <time>2003-04-17T10:43:57Z</time>
      </trkpt>
      <trkpt lat="31.099387994036078" lon="-3.950117966160178">
        <ele>714.20000000000005</ele>
        <time>2003-04-17T10:43:58Z</time>
      </trkpt>
      <trkpt lat="31.099471980705857" lon="-3.950073039159179">
        <ele>714.29999999999995</ele>
        <time>2003-04-17T10:43:59Z</time>
      </trkpt>
      <trkpt lat="31.099699968472123" lon="-3.949987040832639">
        <ele>714.70000000000005</ele>
        <time>2003-04-17T10:44:02Z</time>
      </trkpt>
      <trkpt lat="31.099838018417358" lon="-3.950092988088727">
        <ele>714.60000000000002</ele>
        <time>2003-04-17T10:44:05Z</time>
      </trkpt>
      <trkpt lat="31.099882023409009" lon="-3.950291974470019">
        <ele>714.60000000000002</ele>
        <time>2003-04-17T10:44:06Z</time>
      </trkpt>
      <trkpt lat="31.099865008145571" lon="-3.950400017201901">
        <ele>714.20000000000005</ele>
        <time>2003-04-17T10:44:07Z</time>
      </trkpt>
      <trkpt lat="31.099902978166938" lon="-3.950596991926432">
        <ele>714.60000000000002</ele>
        <time>2003-04-17T10:44:10Z</time>
      </trkpt>
      <trkpt lat="31.1000120267272" lon="-3.950875019654632">
        <ele>714.5</ele>
        <time>2003-04-17T10:44:13Z</time>
      </trkpt>
      <trkpt lat="31.100149992853403" lon="-3.950973004102707">
        <ele>715.39999999999998</ele>
        <time>2003-04-17T10:44:14Z</time>
      </trkpt>
      <trkpt lat="31.100272033363581" lon="-3.951050033792853">
        <ele>716.79999999999995</ele>
        <time>2003-04-17T10:44:17Z</time>
      </trkpt>
      <trkpt lat="31.100332969799638" lon="-3.951181964948773">
        <ele>717.70000000000005</ele>
        <time>2003-04-17T10:44:18Z</time>
      </trkpt>
      <trkpt lat="31.100434977561235" lon="-3.951238039880991">
        <ele>718.5</ele>
        <time>2003-04-17T10:44:21Z</time>
      </trkpt>
      <trkpt lat="31.100581996142864" lon="-3.951207026839256">
        <ele>716.89999999999998</ele>
        <time>2003-04-17T10:44:40Z</time>
      </trkpt>
      <trkpt lat="31.100692972540855" lon="-3.951262012124062">
        <ele>716.70000000000005</ele>
        <time>2003-04-17T10:44:42Z</time>
      </trkpt>
      <trkpt lat="31.100794980302453" lon="-3.951187999919057">
        <ele>716.10000000000002</ele>
        <time>2003-04-17T10:44:45Z</time>
      </trkpt>
      <trkpt lat="31.100742006674409" lon="-3.951062019914389">
        <ele>716.10000000000002</ele>
        <time>2003-04-17T10:44:47Z</time>
      </trkpt>
      <trkpt lat="31.100642010569572" lon="-3.950990019366145">
        <ele>717.60000000000002</ele>
        <time>2003-04-17T10:44:49Z</time>
      </trkpt>
      <trkpt lat="31.100560035556555" lon="-3.95089496858418">
        <ele>716.79999999999995</ele>
        <time>2003-04-17T10:44:52Z</time>
      </trkpt>
      <trkpt lat="31.100434977561235" lon="-3.95074300467968">
        <ele>715.29999999999995</ele>
        <time>2003-04-17T10:44:56Z</time>
      </trkpt>
      <trkpt lat="31.100328024476767" lon="-3.950533038005233">
        <ele>716</ele>
        <time>2003-04-17T10:45:01Z</time>
      </trkpt>
      <trkpt lat="31.100255018100142" lon="-3.950437987223268">
        <ele>718.10000000000002</ele>
        <time>2003-04-17T10:47:08Z</time>
      </trkpt>
      <trkpt lat="31.100202966481447" lon="-3.950327010825276">
        <ele>718</ele>
        <time>2003-04-17T10:47:11Z</time>
      </trkpt>
      <trkpt lat="31.1001449637115" lon="-3.950130036100745">
        <ele>718</ele>
        <time>2003-04-17T10:47:14Z</time>
      </trkpt>
      <trkpt lat="31.100215036422014" lon="-3.949989974498749">
        <ele>718</ele>
        <time>2003-04-17T10:47:16Z</time>
      </trkpt>
      <trkpt lat="31.100273039191961" lon="-3.949876986443996">
        <ele>717.70000000000005</ele>
        <time>2003-04-17T10:47:19Z</time>
      </trkpt>
      <trkpt lat="31.100364988669753" lon="-3.949806997552514">
        <ele>717.60000000000002</ele>
        <time>2003-04-17T10:47:23Z</time>
      </trkpt>
      <trkpt lat="31.100345039740205" lon="-3.949650004506111">
        <ele>718.79999999999995</ele>
        <time>2003-04-17T10:52:28Z</time>
      </trkpt>
      <trkpt lat="31.100273039191961" lon="-3.949501980096102">
        <ele>718.60000000000002</ele>
        <time>2003-04-17T10:52:31Z</time>
      </trkpt>
      <trkpt lat="31.100198021158576" lon="-3.949431991204619">
        <ele>718.20000000000005</ele>
        <time>2003-04-17T10:52:34Z</time>
      </trkpt>
      <trkpt lat="31.10005795955658" lon="-3.949293019250035">
        <ele>718</ele>
        <time>2003-04-17T10:52:36Z</time>
      </trkpt>
      <trkpt lat="31.099737016484141" lon="-3.948950031772256">
        <ele>717.60000000000002</ele>
        <time>2003-04-17T10:52:43Z</time>
      </trkpt>
      <trkpt lat="31.099638026207685" lon="-3.948884988203645">
        <ele>717.5</ele>
        <time>2003-04-17T10:52:46Z</time>
      </trkpt>
      <trkpt lat="31.099459994584322" lon="-3.948799995705485">
        <ele>717.20000000000005</ele>
        <time>2003-04-17T10:52:48Z</time>
      </trkpt>
      <trkpt lat="31.0992849804461" lon="-3.948715003207326">
        <ele>717.39999999999998</ele>
        <time>2003-04-17T10:52:51Z</time>
      </trkpt>
      <trkpt lat="31.099180039018393" lon="-3.948624981567264">
        <ele>717.5</ele>
        <time>2003-04-17T10:52:54Z</time>
      </trkpt>
      <trkpt lat="31.099103009328246" lon="-3.948506964370608">
        <ele>717.39999999999998</ele>
        <time>2003-04-17T10:52:55Z</time>
      </trkpt>
      <trkpt lat="31.099007036536932" lon="-3.948428006842732">
        <ele>717.60000000000002</ele>
        <time>2003-04-17T10:52:58Z</time>
      </trkpt>
      <trkpt lat="31.098790029063821" lon="-3.948343014344573">
        <ele>717.60000000000002</ele>
        <time>2003-04-17T10:53:02Z</time>
      </trkpt>
      <trkpt lat="31.098607974126935" lon="-3.948328010737896">
        <ele>717.70000000000005</ele>
        <time>2003-04-17T10:53:05Z</time>
      </trkpt>
      <trkpt lat="31.098502026870847" lon="-3.948257016018033">
        <ele>717.89999999999998</ele>
        <time>2003-04-17T10:53:06Z</time>
      </trkpt>
      <trkpt lat="31.09838199801743" lon="-3.948192978277803">
        <ele>717.70000000000005</ele>
        <time>2003-04-17T10:53:09Z</time>
      </trkpt>
      <trkpt lat="31.098247971385717" lon="-3.948155008256435">
        <ele>718.29999999999995</ele>
        <time>2003-04-17T10:53:10Z</time>
      </trkpt>
      <trkpt lat="31.098113022744656" lon="-3.948103040456772">
        <ele>717.89999999999998</ele>
        <time>2003-04-17T10:53:13Z</time>
      </trkpt>
      <trkpt lat="31.097976984456182" lon="-3.948068004101515">
        <ele>717.20000000000005</ele>
        <time>2003-04-17T10:53:14Z</time>
      </trkpt>
      <trkpt lat="31.097814962267876" lon="-3.948002960532904">
        <ele>718.60000000000002</ele>
        <time>2003-04-17T10:53:18Z</time>
      </trkpt>
      <trkpt lat="31.097782021388412" lon="-3.947853008285165">
        <ele>717.79999999999995</ele>
        <time>2003-04-17T10:53:20Z</time>
      </trkpt>
      <trkpt lat="31.097640031948686" lon="-3.94780196249485">
        <ele>717.39999999999998</ele>
        <time>2003-04-17T10:53:22Z</time>
      </trkpt>
      <trkpt lat="31.097493013367057" lon="-3.947861976921558">
        <ele>717.29999999999995</ele>
        <time>2003-04-17T10:53:24Z</time>
      </trkpt>
      <trkpt lat="31.097363010048866" lon="-3.947849990800023">
        <ele>717.39999999999998</ele>
        <time>2003-04-17T10:53:25Z</time>
      </trkpt>
      <trkpt lat="31.097252033650875" lon="-3.947872035205364">
        <ele>717.29999999999995</ele>
        <time>2003-04-17T10:53:28Z</time>
      </trkpt>
      <trkpt lat="31.097154971212149" lon="-3.947930037975311">
        <ele>717.5</ele>
        <time>2003-04-17T10:53:29Z</time>
      </trkpt>
      <trkpt lat="31.097032008692622" lon="-3.947994997724891">
        <ele>717.70000000000005</ele>
        <time>2003-04-17T10:53:33Z</time>
      </trkpt>
      <trkpt lat="31.09694299288094" lon="-3.94803699105978">
        <ele>717.70000000000005</ele>
        <time>2003-04-17T10:53:36Z</time>
      </trkpt>
      <trkpt lat="31.0968569945544" lon="-3.947994997724891">
        <ele>717.89999999999998</ele>
        <time>2003-04-17T10:53:40Z</time>
      </trkpt>
      <trkpt lat="31.096869986504316" lon="-3.947882009670138">
        <ele>717.39999999999998</ele>
        <time>2003-04-17T10:53:42Z</time>
      </trkpt>
      <trkpt lat="31.096999989822507" lon="-3.947891984134913">
        <ele>716.79999999999995</ele>
        <time>2003-04-17T10:53:49Z</time>
      </trkpt>
      <trkpt lat="31.096866969019175" lon="-3.947912016883493">
        <ele>715.5</ele>
        <time>2003-04-17T11:00:09Z</time>
      </trkpt>
      <trkpt lat="31.096978029236197" lon="-3.947858037427068">
        <ele>715.5</ele>
        <time>2003-04-17T11:00:15Z</time>
      </trkpt>
      <trkpt lat="31.096821958199143" lon="-3.947831969708204">
        <ele>714.39999999999998</ele>
        <time>2003-04-17T11:09:10Z</time>
      </trkpt>
      <trkpt lat="31.096702013164759" lon="-3.94784202799201">
        <ele>714.39999999999998</ele>
        <time>2003-04-17T11:09:14Z</time>
      </trkpt>
      <trkpt lat="31.09661802649498" lon="-3.947795005515218">
        <ele>714.39999999999998</ele>
        <time>2003-04-17T11:09:18Z</time>
      </trkpt>
      <trkpt lat="31.096502020955086" lon="-3.947759969159961">
        <ele>714.60000000000002</ele>
        <time>2003-04-17T11:09:22Z</time>
      </trkpt>
      <trkpt lat="31.096398001536727" lon="-3.94773499108851">
        <ele>714.79999999999995</ele>
        <time>2003-04-17T11:09:25Z</time>
      </trkpt>
      <trkpt lat="31.096302028745413" lon="-3.947647986933589">
        <ele>715</ele>
        <time>2003-04-17T11:09:27Z</time>
      </trkpt>
      <trkpt lat="31.096260035410523" lon="-3.94754002802074">
        <ele>715</ele>
        <time>2003-04-17T11:09:30Z</time>
      </trkpt>
      <trkpt lat="31.096246959641576" lon="-3.94741497002542">
        <ele>714.89999999999998</ele>
        <time>2003-04-17T11:09:32Z</time>
      </trkpt>
      <trkpt lat="31.096236985176802" lon="-3.947111964225769">
        <ele>714.20000000000005</ele>
        <time>2003-04-17T11:09:36Z</time>
      </trkpt>
      <trkpt lat="31.096197003498673" lon="-3.946963017806411">
        <ele>714.20000000000005</ele>
        <time>2003-04-17T11:09:37Z</time>
      </trkpt>
      <trkpt lat="31.0961680021137" lon="-3.946822034195066">
        <ele>713.70000000000005</ele>
        <time>2003-04-17T11:09:40Z</time>
      </trkpt>
      <trkpt lat="31.096152998507023" lon="-3.946609972044826">
        <ele>713.79999999999995</ele>
        <time>2003-04-17T11:09:42Z</time>
      </trkpt>
      <trkpt lat="31.096134977415204" lon="-3.946475023403764">
        <ele>714</ele>
        <time>2003-04-17T11:09:45Z</time>
      </trkpt>
      <trkpt lat="31.096185017377138" lon="-3.94633999094367">
        <ele>714.29999999999995</ele>
        <time>2003-04-17T11:09:46Z</time>
      </trkpt>
      <trkpt lat="31.096381992101669" lon="-3.94601502455771">
        <ele>714</ele>
        <time>2003-04-17T11:09:52Z</time>
      </trkpt>
      <trkpt lat="31.096448041498661" lon="-3.945907987654209">
        <ele>714.29999999999995</ele>
        <time>2003-04-17T11:09:53Z</time>
      </trkpt>
      <trkpt lat="31.096437983214855" lon="-3.94575803540647">
        <ele>714.39999999999998</ele>
        <time>2003-04-17T11:09:56Z</time>
      </trkpt>
      <trkpt lat="31.096443012356758" lon="-3.945621997117996">
        <ele>714.70000000000005</ele>
        <time>2003-04-17T11:09:57Z</time>
      </trkpt>
      <trkpt lat="31.096582990139723" lon="-3.94554496742785">
        <ele>715.10000000000002</ele>
        <time>2003-04-17T11:10:01Z</time>
      </trkpt>
      <trkpt lat="31.096735037863255" lon="-3.945486964657903">
        <ele>714.60000000000002</ele>
        <time>2003-04-17T11:10:03Z</time>
      </trkpt>
      <trkpt lat="31.096997978165746" lon="-3.945401972159743">
        <ele>714.10000000000002</ele>
        <time>2003-04-17T11:10:05Z</time>
      </trkpt>
      <trkpt lat="31.097454959526658" lon="-3.945256965234876">
        <ele>713.89999999999998</ele>
        <time>2003-04-17T11:10:11Z</time>
      </trkpt>
      <trkpt lat="31.097541963681579" lon="-3.945225030183792">
        <ele>713.70000000000005</ele>
        <time>2003-04-17T11:10:12Z</time>
      </trkpt>
      <trkpt lat="31.097682025283575" lon="-3.945132996886969">
        <ele>713.29999999999995</ele>
        <time>2003-04-17T11:10:13Z</time>
      </trkpt>
      <trkpt lat="31.097791995853186" lon="-3.944982960820198">
        <ele>713</ele>
        <time>2003-04-17T11:10:16Z</time>
      </trkpt>
      <trkpt lat="31.097919987514615" lon="-3.94466302357614">
        <ele>713</ele>
        <time>2003-04-17T11:10:19Z</time>
      </trkpt>
      <trkpt lat="31.097992993891239" lon="-3.944421960040927">
        <ele>712.89999999999998</ele>
        <time>2003-04-17T11:10:20Z</time>
      </trkpt>
      <trkpt lat="31.098198015242815" lon="-3.943755012005568">
        <ele>713.5</ele>
        <time>2003-04-17T11:10:26Z</time>
      </trkpt>
      <trkpt lat="31.098398007452488" lon="-3.943391991779208">
        <ele>713.70000000000005</ele>
        <time>2003-04-17T11:10:28Z</time>
      </trkpt>
      <trkpt lat="31.098534967750311" lon="-3.943125028163195">
        <ele>713.79999999999995</ele>
        <time>2003-04-17T11:10:31Z</time>
      </trkpt>
      <trkpt lat="31.098634963855147" lon="-3.942823028191924">
        <ele>713.79999999999995</ele>
        <time>2003-04-17T11:10:32Z</time>
      </trkpt>
      <trkpt lat="31.098806960508227" lon="-3.94236302934587">
        <ele>714.10000000000002</ele>
        <time>2003-04-17T11:10:35Z</time>
      </trkpt>
      <trkpt lat="31.098903017118573" lon="-3.94223696552217">
        <ele>714.20000000000005</ele>
        <time>2003-04-17T11:10:36Z</time>
      </trkpt>
      <trkpt lat="31.099018016830087" lon="-3.942132024094462">
        <ele>714.39999999999998</ele>
        <time>2003-04-17T11:10:38Z</time>
      </trkpt>
      <trkpt lat="31.099533000960946" lon="-3.941583009436727">
        <ele>714.60000000000002</ele>
        <time>2003-04-17T11:10:43Z</time>
      </trkpt>
      <trkpt lat="31.099678007885814" lon="-3.941401960328221">
        <ele>714.60000000000002</ele>
        <time>2003-04-17T11:10:44Z</time>
      </trkpt>
      <trkpt lat="31.099782027304173" lon="-3.941346975043416">
        <ele>714.60000000000002</ele>
        <time>2003-04-17T11:10:46Z</time>
      </trkpt>
      <trkpt lat="31.100025018677115" lon="-3.941259970888495">
        <ele>714.60000000000002</ele>
        <time>2003-04-17T11:10:47Z</time>
      </trkpt>
      <trkpt lat="31.100564980879426" lon="-3.94105302169919">
        <ele>714.39999999999998</ele>
        <time>2003-04-17T11:10:51Z</time>
      </trkpt>
      <trkpt lat="31.101412978023291" lon="-3.940571984276176">
        <ele>714.10000000000002</ele>
        <time>2003-04-17T11:10:58Z</time>
      </trkpt>
      <trkpt lat="31.101723024621606" lon="-3.940462013706565">
        <ele>714.29999999999995</ele>
        <time>2003-04-17T11:10:59Z</time>
      </trkpt>
      <trkpt lat="31.102106999605894" lon="-3.940309965983033">
        <ele>714</ele>
        <time>2003-04-17T11:11:02Z</time>
      </trkpt>
      <trkpt lat="31.102192997932434" lon="-3.940227990970016">
        <ele>713.89999999999998</ele>
        <time>2003-04-17T11:11:03Z</time>
      </trkpt>
      <trkpt lat="31.102287964895368" lon="-3.940181974321604">
        <ele>714.10000000000002</ele>
        <time>2003-04-17T11:11:05Z</time>
      </trkpt>
      <trkpt lat="31.102387961000204" lon="-3.940181974321604">
        <ele>714.10000000000002</ele>
        <time>2003-04-17T11:11:06Z</time>
      </trkpt>
      <trkpt lat="31.102546965703368" lon="-3.940124977380037">
        <ele>713.89999999999998</ele>
        <time>2003-04-17T11:11:07Z</time>
      </trkpt>
      <trkpt lat="31.102673029527068" lon="-3.93997997045517">
        <ele>713.79999999999995</ele>
        <time>2003-04-17T11:11:10Z</time>
      </trkpt>
      <trkpt lat="31.102736983448267" lon="-3.939887015148997">
        <ele>713.60000000000002</ele>
        <time>2003-04-17T11:11:10Z</time>
      </trkpt>
      <trkpt lat="31.102783000096679" lon="-3.939772015437484">
        <ele>713.79999999999995</ele>
        <time>2003-04-17T11:11:11Z</time>
      </trkpt>
      <trkpt lat="31.102896993979812" lon="-3.939542016014457">
        <ele>713.79999999999995</ele>
        <time>2003-04-17T11:11:14Z</time>
      </trkpt>
      <trkpt lat="31.102991960942745" lon="-3.939457023516297">
        <ele>713.89999999999998</ele>
        <time>2003-04-17T11:11:14Z</time>
      </trkpt>
      <trkpt lat="31.103392029181123" lon="-3.939112024381757">
        <ele>714.20000000000005</ele>
        <time>2003-04-17T11:11:18Z</time>
      </trkpt>
      <trkpt lat="31.103684976696968" lon="-3.938850006088615">
        <ele>714.79999999999995</ele>
        <time>2003-04-17T11:11:22Z</time>
      </trkpt>
      <trkpt lat="31.103802993893623" lon="-3.938810024410486">
        <ele>714.29999999999995</ele>
        <time>2003-04-17T11:11:22Z</time>
      </trkpt>
      <trkpt lat="31.104020001366735" lon="-3.938687983900309">
        <ele>714.20000000000005</ele>
        <time>2003-04-17T11:11:25Z</time>
      </trkpt>
      <trkpt lat="31.104555018246174" lon="-3.938208036124706">
        <ele>714.10000000000002</ele>
        <time>2003-04-17T11:11:29Z</time>
      </trkpt>
      <trkpt lat="31.105151977390051" lon="-3.937542010098696">
        <ele>714.39999999999998</ele>
        <time>2003-04-17T11:11:36Z</time>
      </trkpt>
      <trkpt lat="31.105254990980029" lon="-3.937430027872324">
        <ele>714.5</ele>
        <time>2003-04-17T11:11:37Z</time>
      </trkpt>
      <trkpt lat="31.105373008176684" lon="-3.93733698874712">
        <ele>714.60000000000002</ele>
        <time>2003-04-17T11:11:37Z</time>
      </trkpt>
      <trkpt lat="31.105626979842782" lon="-3.937200028449297">
        <ele>714.89999999999998</ele>
        <time>2003-04-17T11:11:40Z</time>
      </trkpt>
      <trkpt lat="31.105763018131256" lon="-3.937170021235943">
        <ele>714.79999999999995</ele>
        <time>2003-04-17T11:11:41Z</time>
      </trkpt>
      <trkpt lat="31.105992011725903" lon="-3.937131967395544">
        <ele>715</ele>
        <time>2003-04-17T11:11:42Z</time>
      </trkpt>
      <trkpt lat="31.106084967032075" lon="-3.937082011252642">
        <ele>714.89999999999998</ele>
        <time>2003-04-17T11:11:44Z</time>
      </trkpt>
      <trkpt lat="31.106667006388307" lon="-3.936771964654326">
        <ele>715.10000000000002</ele>
        <time>2003-04-17T11:11:49Z</time>
      </trkpt>
      <trkpt lat="31.106917038559914" lon="-3.936665011569858">
        <ele>714.79999999999995</ele>
        <time>2003-04-17T11:11:51Z</time>
      </trkpt>
      <trkpt lat="31.107045030221343" lon="-3.936650007963181">
        <ele>715.60000000000002</ele>
        <time>2003-04-17T11:11:52Z</time>
      </trkpt>
      <trkpt lat="31.108065024018288" lon="-3.936523022130132">
        <ele>716.10000000000002</ele>
        <time>2003-04-17T11:12:00Z</time>
      </trkpt>
      <trkpt lat="31.108968006446958" lon="-3.936414979398251">
        <ele>716.20000000000005</ele>
        <time>2003-04-17T11:12:05Z</time>
      </trkpt>
      <trkpt lat="31.109721958637238" lon="-3.936320012435317">
        <ele>716.10000000000002</ele>
        <time>2003-04-17T11:12:11Z</time>
      </trkpt>
      <trkpt lat="31.109869983047247" lon="-3.936323029920459">
        <ele>716.29999999999995</ele>
        <time>2003-04-17T11:12:12Z</time>
      </trkpt>
      <trkpt lat="31.110017001628876" lon="-3.93630500882864">
        <ele>716.10000000000002</ele>
        <time>2003-04-17T11:12:12Z</time>
      </trkpt>
      <trkpt lat="31.110701970756054" lon="-3.936167964711785">
        <ele>716</ele>
        <time>2003-04-17T11:12:18Z</time>
      </trkpt>
      <trkpt lat="31.110810013487935" lon="-3.936108034104109">
        <ele>716</ele>
        <time>2003-04-17T11:12:19Z</time>
      </trkpt>
      <trkpt lat="31.111603025346994" lon="-3.935626996681094">
        <ele>716.10000000000002</ele>
        <time>2003-04-17T11:12:26Z</time>
      </trkpt>
      <trkpt lat="31.111769992858171" lon="-3.93538199365139">
        <ele>716.20000000000005</ele>
        <time>2003-04-17T11:12:27Z</time>
      </trkpt>
      <trkpt lat="31.11196001060307" lon="-3.935194993391633">
        <ele>716.20000000000005</ele>
        <time>2003-04-17T11:12:30Z</time>
      </trkpt>
      <trkpt lat="31.112071992829442" lon="-3.935136990621686">
        <ele>716.29999999999995</ele>
        <time>2003-04-17T11:12:31Z</time>
      </trkpt>
      <trkpt lat="31.112192021682858" lon="-3.935104971751571">
        <ele>716.20000000000005</ele>
        <time>2003-04-17T11:12:31Z</time>
      </trkpt>
      <trkpt lat="31.112305009737611" lon="-3.935042023658752">
        <ele>716.20000000000005</ele>
        <time>2003-04-17T11:12:32Z</time>
      </trkpt>
      <trkpt lat="31.112395031377673" lon="-3.934942027553916">
        <ele>716.10000000000002</ele>
        <time>2003-04-17T11:12:34Z</time>
      </trkpt>
      <trkpt lat="31.112510031089187" lon="-3.934886958450079">
        <ele>716.20000000000005</ele>
        <time>2003-04-17T11:12:35Z</time>
      </trkpt>
      <trkpt lat="31.112747993320227" lon="-3.934755027294159">
        <ele>716</ele>
        <time>2003-04-17T11:12:36Z</time>
      </trkpt>
      <trkpt lat="31.11309701576829" lon="-3.934513041749597">
        <ele>715.79999999999995</ele>
        <time>2003-04-17T11:12:39Z</time>
      </trkpt>
      <trkpt lat="31.113394992426038" lon="-3.934326963499188">
        <ele>715.5</ele>
        <time>2003-04-17T11:12:43Z</time>
      </trkpt>
      <trkpt lat="31.113475039601326" lon="-3.934171982109547">
        <ele>715.89999999999998</ele>
        <time>2003-04-17T11:12:45Z</time>
      </trkpt>
      <trkpt lat="31.113611999899149" lon="-3.934022029861808">
        <ele>716.20000000000005</ele>
        <time>2003-04-17T11:12:46Z</time>
      </trkpt>
      <trkpt lat="31.113705039024353" lon="-3.933960003778338">
        <ele>716.20000000000005</ele>
        <time>2003-04-17T11:12:47Z</time>
      </trkpt>
      <trkpt lat="31.114009972661734" lon="-3.93374701961875">
        <ele>716.20000000000005</ele>
        <time>2003-04-17T11:12:50Z</time>
      </trkpt>
      <trkpt lat="31.114084990695119" lon="-3.933633025735617">
        <ele>716.39999999999998</ele>
        <time>2003-04-17T11:12:51Z</time>
      </trkpt>
      <trkpt lat="31.114142993465066" lon="-3.933506961911917">
        <ele>716.29999999999995</ele>
        <time>2003-04-17T11:12:53Z</time>
      </trkpt>
      <trkpt lat="31.114339968189597" lon="-3.933128016069531">
        <ele>716.70000000000005</ele>
        <time>2003-04-17T11:12:55Z</time>
      </trkpt>
      <trkpt lat="31.11451699398458" lon="-3.93295300193131">
        <ele>716.79999999999995</ele>
        <time>2003-04-17T11:12:58Z</time>
      </trkpt>
      <trkpt lat="31.114614978432655" lon="-3.932906985282898">
        <ele>716.79999999999995</ele>
        <time>2003-04-17T11:12:58Z</time>
      </trkpt>
      <trkpt lat="31.114878002554178" lon="-3.932798020541668">
        <ele>717.39999999999998</ele>
        <time>2003-04-17T11:13:02Z</time>
      </trkpt>
      <trkpt lat="31.115087969228625" lon="-3.932657958939672">
        <ele>718</ele>
        <time>2003-04-17T11:13:06Z</time>
      </trkpt>
      <trkpt lat="31.115325009450316" lon="-3.932527033612132">
        <ele>718.20000000000005</ele>
        <time>2003-04-17T11:13:08Z</time>
      </trkpt>
      <trkpt lat="31.115636983886361" lon="-3.932384960353375">
        <ele>718.20000000000005</ele>
        <time>2003-04-17T11:13:10Z</time>
      </trkpt>
      <trkpt lat="31.115990029647946" lon="-3.932263003662229">
        <ele>717.89999999999998</ele>
        <time>2003-04-17T11:13:13Z</time>
      </trkpt>
      <trkpt lat="31.116650020703673" lon="-3.932002997025847">
        <ele>717.29999999999995</ele>
        <time>2003-04-17T11:13:20Z</time>
      </trkpt>
      <trkpt lat="31.11724697984755" lon="-3.931636959314346">
        <ele>717.70000000000005</ele>
        <time>2003-04-17T11:13:25Z</time>
      </trkpt>
      <trkpt lat="31.117340018972754" lon="-3.931590020656586">
        <ele>717.5</ele>
        <time>2003-04-17T11:13:26Z</time>
      </trkpt>
      <trkpt lat="31.118272002786398" lon="-3.931196993216872">
        <ele>717.5</ele>
        <time>2003-04-17T11:13:36Z</time>
      </trkpt>
      <trkpt lat="31.118584983050823" lon="-3.931102026253939">
        <ele>717.89999999999998</ele>
        <time>2003-04-17T11:13:40Z</time>
      </trkpt>
      <trkpt lat="31.119101978838444" lon="-3.930949978530407">
        <ele>717.89999999999998</ele>
        <time>2003-04-17T11:13:44Z</time>
      </trkpt>
      <trkpt lat="31.119382018223405" lon="-3.930812012404203">
        <ele>718.10000000000002</ele>
        <time>2003-04-17T11:13:48Z</time>
      </trkpt>
      <trkpt lat="31.11948000267148" lon="-3.930806983262301">
        <ele>718.39999999999998</ele>
        <time>2003-04-17T11:13:48Z</time>
      </trkpt>
      <trkpt lat="31.119572035968304" lon="-3.930776976048946">
        <ele>718</ele>
        <time>2003-04-17T11:13:49Z</time>
      </trkpt>
      <trkpt lat="31.119864983484149" lon="-3.930710004642606">
        <ele>718.20000000000005</ele>
        <time>2003-04-17T11:13:52Z</time>
      </trkpt>
      <trkpt lat="31.119970008730888" lon="-3.93071997910738">
        <ele>718.20000000000005</ele>
        <time>2003-04-17T11:13:53Z</time>
      </trkpt>
      <trkpt lat="31.12018802203238" lon="-3.930704975500703">
        <ele>718.20000000000005</ele>
        <time>2003-04-17T11:13:56Z</time>
      </trkpt>
      <trkpt lat="31.120297992601991" lon="-3.930662982165813">
        <ele>718.20000000000005</ele>
        <time>2003-04-17T11:13:56Z</time>
      </trkpt>
      <trkpt lat="31.120696971192956" lon="-3.93056801520288">
        <ele>718.39999999999998</ele>
        <time>2003-04-17T11:14:00Z</time>
      </trkpt>
      <trkpt lat="31.120850024744868" lon="-3.930643033236265">
        <ele>718.70000000000005</ele>
        <time>2003-04-17T11:14:03Z</time>
      </trkpt>
      <trkpt lat="31.121035013347864" lon="-3.930630041286349">
        <ele>718.29999999999995</ele>
        <time>2003-04-17T11:14:04Z</time>
      </trkpt>
      <trkpt lat="31.121229976415634" lon="-3.930557034909725">
        <ele>718.70000000000005</ele>
        <time>2003-04-17T11:14:07Z</time>
      </trkpt>
      <trkpt lat="31.121572041884065" lon="-3.93046198412776">
        <ele>718.60000000000002</ele>
        <time>2003-04-17T11:14:10Z</time>
      </trkpt>
      <trkpt lat="31.121828025206923" lon="-3.930452009662986">
        <ele>718.60000000000002</ele>
        <time>2003-04-17T11:14:11Z</time>
      </trkpt>
      <trkpt lat="31.121960040181875" lon="-3.930467013269663">
        <ele>718.89999999999998</ele>
        <time>2003-04-17T11:14:12Z</time>
      </trkpt>
      <trkpt lat="31.122914990410209" lon="-3.930628029629588">
        <ele>719.29999999999995</ele>
        <time>2003-04-17T11:14:19Z</time>
      </trkpt>
      <trkpt lat="31.123190000653267" lon="-3.930636998265982">
        <ele>719.20000000000005</ele>
        <time>2003-04-17T11:14:22Z</time>
      </trkpt>
      <trkpt lat="31.123740021139383" lon="-3.930549994111061">
        <ele>719.20000000000005</ele>
        <time>2003-04-17T11:14:26Z</time>
      </trkpt>
      <trkpt lat="31.123857032507658" lon="-3.930467013269663">
        <ele>719.39999999999998</ele>
        <time>2003-04-17T11:14:27Z</time>
      </trkpt>
      <trkpt lat="31.124046966433525" lon="-3.930272972211242">
        <ele>719.20000000000005</ele>
        <time>2003-04-17T11:14:29Z</time>
      </trkpt>
      <trkpt lat="31.12422700971365" lon="-3.9301179908216">
        <ele>719.10000000000002</ele>
        <time>2003-04-17T11:14:31Z</time>
      </trkpt>
      <trkpt lat="31.124822963029146" lon="-3.929756982252002">
        <ele>719.5</ele>
        <time>2003-04-17T11:14:35Z</time>
      </trkpt>
      <trkpt lat="31.125714965164661" lon="-3.929197993129492">
        <ele>719.20000000000005</ele>
        <time>2003-04-17T11:14:42Z</time>
      </trkpt>
      <trkpt lat="31.125964997336268" lon="-3.929077964276075">
        <ele>719.10000000000002</ele>
        <time>2003-04-17T11:14:45Z</time>
      </trkpt>
      <trkpt lat="31.126087037846446" lon="-3.929045023396611">
        <ele>719.10000000000002</ele>
        <time>2003-04-17T11:14:46Z</time>
      </trkpt>
      <trkpt lat="31.126340003684163" lon="-3.929030019789934">
        <ele>718.79999999999995</ele>
        <time>2003-04-17T11:14:47Z</time>
      </trkpt>
      <trkpt lat="31.126588024199009" lon="-3.929032031446695">
        <ele>718.89999999999998</ele>
        <time>2003-04-17T11:14:50Z</time>
      </trkpt>
      <trkpt lat="31.12695699557662" lon="-3.928972017019987">
        <ele>719.10000000000002</ele>
        <time>2003-04-17T11:14:53Z</time>
      </trkpt>
      <trkpt lat="31.127784959971905" lon="-3.928781999275088">
        <ele>719.29999999999995</ele>
        <time>2003-04-17T11:15:00Z</time>
      </trkpt>
      <trkpt lat="31.128522986546159" lon="-3.928752997890115">
        <ele>719.5</ele>
        <time>2003-04-17T11:15:05Z</time>
      </trkpt>
      <trkpt lat="31.128632035106421" lon="-3.928788034245372">
        <ele>719.60000000000002</ele>
        <time>2003-04-17T11:15:06Z</time>
      </trkpt>
      <trkpt lat="31.128984997048974" lon="-3.928866991773248">
        <ele>719.89999999999998</ele>
        <time>2003-04-17T11:15:09Z</time>
      </trkpt>
      <trkpt lat="31.129511967301369" lon="-3.928918037563562">
        <ele>720.10000000000002</ele>
        <time>2003-04-17T11:15:13Z</time>
      </trkpt>
      <trkpt lat="31.129650017246604" lon="-3.928921977058053">
        <ele>720.20000000000005</ele>
        <time>2003-04-17T11:15:14Z</time>
      </trkpt>
      <trkpt lat="31.129914969205856" lon="-3.92891300842166">
        <ele>720.29999999999995</ele>
        <time>2003-04-17T11:15:17Z</time>
      </trkpt>
      <trkpt lat="31.130679985508323" lon="-3.928817035630345">
        <ele>720.39999999999998</ele>
        <time>2003-04-17T11:15:23Z</time>
      </trkpt>
      <trkpt lat="31.130897998809814" lon="-3.928837990388274">
        <ele>720.5</ele>
        <time>2003-04-17T11:15:25Z</time>
      </trkpt>
      <trkpt lat="31.131000006571412" lon="-3.928840002045035">
        <ele>720.70000000000005</ele>
        <time>2003-04-17T11:15:25Z</time>
      </trkpt>
      <trkpt lat="31.131192035973072" lon="-3.928887024521828">
        <ele>720.5</ele>
        <time>2003-04-17T11:15:28Z</time>
      </trkpt>
      <trkpt lat="31.131496969610453" lon="-3.928947960957885">
        <ele>720.79999999999995</ele>
        <time>2003-04-17T11:15:31Z</time>
      </trkpt>
      <trkpt lat="31.131777008995414" lon="-3.928947038948536">
        <ele>720.89999999999998</ele>
        <time>2003-04-17T11:15:33Z</time>
      </trkpt>
      <trkpt lat="31.132721984758973" lon="-3.928573038429022">
        <ele>720.70000000000005</ele>
        <time>2003-04-17T11:15:44Z</time>
      </trkpt>
      <trkpt lat="31.133662015199661" lon="-3.928217981010675">
        <ele>720.79999999999995</ele>
        <time>2003-04-17T11:15:52Z</time>
      </trkpt>
      <trkpt lat="31.133867958560586" lon="-3.928102981299162">
        <ele>720.70000000000005</ele>
        <time>2003-04-17T11:15:54Z</time>
      </trkpt>
      <trkpt lat="31.134082032367587" lon="-3.9280129596591">
        <ele>721</ele>
        <time>2003-04-17T11:15:55Z</time>
      </trkpt>
      <trkpt lat="31.134647978469729" lon="-3.927822019904852">
        <ele>720.5</ele>
        <time>2003-04-17T11:16:00Z</time>
      </trkpt>
      <trkpt lat="31.135630002245307" lon="-3.927684975787997">
        <ele>720.60000000000002</ele>
        <time>2003-04-17T11:16:08Z</time>
      </trkpt>
      <trkpt lat="31.135863019153476" lon="-3.927695034071803">
        <ele>720.60000000000002</ele>
        <time>2003-04-17T11:16:11Z</time>
      </trkpt>
      <trkpt lat="31.136102993041277" lon="-3.927659997716546">
        <ele>720.79999999999995</ele>
        <time>2003-04-17T11:16:12Z</time>
      </trkpt>
      <trkpt lat="31.13671001046896" lon="-3.927587997168303">
        <ele>721.10000000000002</ele>
        <time>2003-04-17T11:16:18Z</time>
      </trkpt>
      <trkpt lat="31.136836996302009" lon="-3.927616998553276">
        <ele>721</ele>
        <time>2003-04-17T11:16:19Z</time>
      </trkpt>
      <trkpt lat="31.137079987674952" lon="-3.927707020193338">
        <ele>721.20000000000005</ele>
        <time>2003-04-17T11:16:21Z</time>
      </trkpt>
      <trkpt lat="31.137837041169405" lon="-3.928123014047742">
        <ele>722.29999999999995</ele>
        <time>2003-04-17T11:16:27Z</time>
      </trkpt>
      <trkpt lat="31.137967966496944" lon="-3.928240025416017">
        <ele>722.29999999999995</ele>
        <time>2003-04-17T11:16:30Z</time>
      </trkpt>
      <trkpt lat="31.138265021145344" lon="-3.928647972643375">
        <ele>722.39999999999998</ele>
        <time>2003-04-17T11:16:34Z</time>
      </trkpt>
      <trkpt lat="31.138299973681569" lon="-3.928766995668411">
        <ele>722.5</ele>
        <time>2003-04-17T11:16:35Z</time>
      </trkpt>
      <trkpt lat="31.138389995321631" lon="-3.928985008969903">
        <ele>722.60000000000002</ele>
        <time>2003-04-17T11:16:38Z</time>
      </trkpt>
      <trkpt lat="31.138461995869875" lon="-3.929209979251027">
        <ele>722.70000000000005</ele>
        <time>2003-04-17T11:16:39Z</time>
      </trkpt>
      <trkpt lat="31.138523016124964" lon="-3.929297989234328">
        <ele>722.70000000000005</ele>
        <time>2003-04-17T11:16:41Z</time>
      </trkpt>
      <trkpt lat="31.138683026656508" lon="-3.929407959803939">
        <ele>723</ele>
        <time>2003-04-17T11:16:42Z</time>
      </trkpt>
      <trkpt lat="31.13918200135231" lon="-3.929641982540488">
        <ele>723.39999999999998</ele>
        <time>2003-04-17T11:16:48Z</time>
      </trkpt>
      <trkpt lat="31.139398002997041" lon="-3.929669978097081">
        <ele>723.5</ele>
        <time>2003-04-17T11:16:49Z</time>
      </trkpt>
      <trkpt lat="31.139507973566651" lon="-3.929663021117449">
        <ele>723.70000000000005</ele>
        <time>2003-04-17T11:16:50Z</time>
      </trkpt>
      <trkpt lat="31.139732021838427" lon="-3.92960200086236">
        <ele>724.10000000000002</ele>
        <time>2003-04-17T11:16:53Z</time>
      </trkpt>
      <trkpt lat="31.140035027638078" lon="-3.929432015866041">
        <ele>724</ele>
        <time>2003-04-17T11:16:56Z</time>
      </trkpt>
      <trkpt lat="31.140218004584312" lon="-3.929263036698103">
        <ele>723.79999999999995</ele>
        <time>2003-04-17T11:16:57Z</time>
      </trkpt>
      <trkpt lat="31.140937004238367" lon="-3.928536996245384">
        <ele>723.79999999999995</ele>
        <time>2003-04-17T11:17:05Z</time>
      </trkpt>
      <trkpt lat="31.141100032255054" lon="-3.92839701846242">
        <ele>723.70000000000005</ele>
        <time>2003-04-17T11:17:08Z</time>
      </trkpt>
      <trkpt lat="31.141481995582581" lon="-3.928219992667437">
        <ele>723.70000000000005</ele>
        <time>2003-04-17T11:17:12Z</time>
      </trkpt>
      <trkpt lat="31.141917016357183" lon="-3.9280129596591">
        <ele>723.70000000000005</ele>
        <time>2003-04-17T11:17:16Z</time>
      </trkpt>
      <trkpt lat="31.142114996910095" lon="-3.927848003804684">
        <ele>723.39999999999998</ele>
        <time>2003-04-17T11:17:17Z</time>
      </trkpt>
      <trkpt lat="31.142755039036274" lon="-3.92721701413393">
        <ele>722.89999999999998</ele>
        <time>2003-04-17T11:17:24Z</time>
      </trkpt>
      <trkpt lat="31.143482001498342" lon="-3.926794985309243">
        <ele>723.29999999999995</ele>
        <time>2003-04-17T11:17:31Z</time>
      </trkpt>
      <trkpt lat="31.144126988947392" lon="-3.926582001149654">
        <ele>723.10000000000002</ele>
        <time>2003-04-17T11:17:36Z</time>
      </trkpt>
      <trkpt lat="31.144399987533689" lon="-3.926562974229455">
        <ele>722.89999999999998</ele>
        <time>2003-04-17T11:17:38Z</time>
      </trkpt>
      <trkpt lat="31.144677009433508" lon="-3.926570015028119">
        <ele>723.20000000000005</ele>
        <time>2003-04-17T11:17:40Z</time>
      </trkpt>
      <trkpt lat="31.145323002710938" lon="-3.926655007526279">
        <ele>723.20000000000005</ele>
        <time>2003-04-17T11:17:44Z</time>
      </trkpt>
      <trkpt lat="31.145559959113598" lon="-3.926606979221106">
        <ele>723.29999999999995</ele>
        <time>2003-04-17T11:17:47Z</time>
      </trkpt>
      <trkpt lat="31.145890038460493" lon="-3.926467001438141">
        <ele>723.70000000000005</ele>
        <time>2003-04-17T11:17:50Z</time>
      </trkpt>
      <trkpt lat="31.146696964278817" lon="-3.925987975671887">
        <ele>723.5</ele>
        <time>2003-04-17T11:17:56Z</time>
      </trkpt>
      <trkpt lat="31.146971974521875" lon="-3.925878005102277">
        <ele>723.39999999999998</ele>
        <time>2003-04-17T11:17:59Z</time>
      </trkpt>
      <trkpt lat="31.147881997749209" lon="-3.925580028444529">
        <ele>723.5</ele>
        <time>2003-04-17T11:18:06Z</time>
      </trkpt>
      <trkpt lat="31.148042008280754" lon="-3.925587991252542">
        <ele>723.5</ele>
        <time>2003-04-17T11:18:07Z</time>
      </trkpt>
      <trkpt lat="31.148185003548861" lon="-3.925707014277577">
        <ele>723.60000000000002</ele>
        <time>2003-04-17T11:18:10Z</time>
      </trkpt>
      <trkpt lat="31.148277036845684" lon="-3.925869958475232">
        <ele>723.79999999999995</ele>
        <time>2003-04-17T11:18:11Z</time>
      </trkpt>
      <trkpt lat="31.148387007415295" lon="-3.926047990098596">
        <ele>724.20000000000005</ele>
        <time>2003-04-17T11:18:14Z</time>
      </trkpt>
      <trkpt lat="31.148535031825304" lon="-3.92620699480176">
        <ele>724.5</ele>
        <time>2003-04-17T11:18:15Z</time>
      </trkpt>
      <trkpt lat="31.148972986266017" lon="-3.926621982827783">
        <ele>725</ele>
        <time>2003-04-17T11:18:21Z</time>
      </trkpt>
      <trkpt lat="31.149201979860663" lon="-3.92676698975265">
        <ele>725.39999999999998</ele>
        <time>2003-04-17T11:18:22Z</time>
      </trkpt>
      <trkpt lat="31.149327959865332" lon="-3.92680998891592">
        <ele>725.39999999999998</ele>
        <time>2003-04-17T11:18:23Z</time>
      </trkpt>
      <trkpt lat="31.149552008137107" lon="-3.926818035542965">
        <ele>725.70000000000005</ele>
        <time>2003-04-17T11:18:26Z</time>
      </trkpt>
      <trkpt lat="31.150007983669639" lon="-3.926751986145973">
        <ele>726.10000000000002</ele>
        <time>2003-04-17T11:18:30Z</time>
      </trkpt>
      <trkpt lat="31.1501170322299" lon="-3.926777970045805">
        <ele>726</ele>
        <time>2003-04-17T11:18:30Z</time>
      </trkpt>
      <trkpt lat="31.15046001970768" lon="-3.926921971142292">
        <ele>726.29999999999995</ele>
        <time>2003-04-17T11:18:34Z</time>
      </trkpt>
      <trkpt lat="31.150796972215176" lon="-3.927158005535603">
        <ele>726.39999999999998</ele>
        <time>2003-04-17T11:18:37Z</time>
      </trkpt>
      <trkpt lat="31.15089001134038" lon="-3.927266970276833">
        <ele>726.70000000000005</ele>
        <time>2003-04-17T11:18:37Z</time>
      </trkpt>
      <trkpt lat="31.151039963588119" lon="-3.927526976913214">
        <ele>726.70000000000005</ele>
        <time>2003-04-17T11:18:40Z</time>
      </trkpt>
      <trkpt lat="31.151271974667907" lon="-3.927917992696166">
        <ele>727</ele>
        <time>2003-04-17T11:18:42Z</time>
      </trkpt>
      <trkpt lat="31.151452017948031" lon="-3.928131982684135">
        <ele>727.29999999999995</ele>
        <time>2003-04-17T11:18:45Z</time>
      </trkpt>
      <trkpt lat="31.151559976860881" lon="-3.928201971575618">
        <ele>727.39999999999998</ele>
        <time>2003-04-17T11:18:45Z</time>
      </trkpt>
      <trkpt lat="31.151906987652183" lon="-3.928364999592304">
        <ele>727.39999999999998</ele>
        <time>2003-04-17T11:18:49Z</time>
      </trkpt>
      <trkpt lat="31.15284500643611" lon="-3.92863498069346">
        <ele>727.79999999999995</ele>
        <time>2003-04-17T11:18:56Z</time>
      </trkpt>
      <trkpt lat="31.153397960588336" lon="-3.928779987618327">
        <ele>728.10000000000002</ele>
        <time>2003-04-17T11:19:00Z</time>
      </trkpt>
      <trkpt lat="31.153713036328554" lon="-3.928979979828">
        <ele>728.5</ele>
        <time>2003-04-17T11:19:03Z</time>
      </trkpt>
      <trkpt lat="31.154424995183945" lon="-3.929373007267714">
        <ele>729</ele>
        <time>2003-04-17T11:19:09Z</time>
      </trkpt>
      <trkpt lat="31.155180037021637" lon="-3.929835017770529">
        <ele>729.20000000000005</ele>
        <time>2003-04-17T11:19:17Z</time>
      </trkpt>
      <trkpt lat="31.155567029491067" lon="-3.930237013846636">
        <ele>729.79999999999995</ele>
        <time>2003-04-17T11:19:23Z</time>
      </trkpt>
      <trkpt lat="31.155667025595903" lon="-3.930417979136109">
        <ele>729.60000000000002</ele>
        <time>2003-04-17T11:19:24Z</time>
      </trkpt>
      <trkpt lat="31.155717987567186" lon="-3.930612020194531">
        <ele>729.89999999999998</ele>
        <time>2003-04-17T11:19:27Z</time>
      </trkpt>
      <trkpt lat="31.155791999772191" lon="-3.930961964651942">
        <ele>730</ele>
        <time>2003-04-17T11:19:31Z</time>
      </trkpt>
      <trkpt lat="31.155968019738793" lon="-3.931548027321696">
        <ele>730</ele>
        <time>2003-04-17T11:19:36Z</time>
      </trkpt>
      <trkpt lat="31.156110009178519" lon="-3.93222201615572">
        <ele>731.39999999999998</ele>
        <time>2003-04-17T11:19:43Z</time>
      </trkpt>
      <trkpt lat="31.156168011948466" lon="-3.93243801780045">
        <ele>731</ele>
        <time>2003-04-17T11:19:44Z</time>
      </trkpt>
      <trkpt lat="31.156215034425259" lon="-3.932529967278242">
        <ele>731.29999999999995</ele>
        <time>2003-04-17T11:19:46Z</time>
      </trkpt>
      <trkpt lat="31.156264990568161" lon="-3.932697018608451">
        <ele>731.79999999999995</ele>
        <time>2003-04-17T11:19:47Z</time>
      </trkpt>
      <trkpt lat="31.156310001388192" lon="-3.932902961969376">
        <ele>731</ele>
        <time>2003-04-17T11:19:50Z</time>
      </trkpt>
      <trkpt lat="31.156389964744449" lon="-3.933221977204084">
        <ele>732.39999999999998</ele>
        <time>2003-04-17T11:19:53Z</time>
      </trkpt>
      <trkpt lat="31.15649800747633" lon="-3.933687005192041">
        <ele>731.20000000000005</ele>
        <time>2003-04-17T11:19:57Z</time>
      </trkpt>
      <trkpt lat="31.156560033559799" lon="-3.93389998935163">
        <ele>731.29999999999995</ele>
        <time>2003-04-17T11:19:58Z</time>
      </trkpt>
      <trkpt lat="31.156666986644268" lon="-3.934052959084511">
        <ele>731.29999999999995</ele>
        <time>2003-04-17T11:20:01Z</time>
      </trkpt>
      <trkpt lat="31.157002011314034" lon="-3.934338027611375">
        <ele>731.29999999999995</ele>
        <time>2003-04-17T11:20:06Z</time>
      </trkpt>
      <trkpt lat="31.157535016536713" lon="-3.934662993997335">
        <ele>731.29999999999995</ele>
        <time>2003-04-17T11:20:11Z</time>
      </trkpt>
      <trkpt lat="31.157910022884607" lon="-3.934912020340562">
        <ele>731.20000000000005</ele>
        <time>2003-04-17T11:20:15Z</time>
      </trkpt>
      <trkpt lat="31.158077996224165" lon="-3.9351000264287">
        <ele>731.39999999999998</ele>
        <time>2003-04-17T11:20:18Z</time>
      </trkpt>
      <trkpt lat="31.158509999513626" lon="-3.935628002509475">
        <ele>731.5</ele>
        <time>2003-04-17T11:20:22Z</time>
      </trkpt>
      <trkpt lat="31.158637991175056" lon="-3.935833023861051">
        <ele>731.39999999999998</ele>
        <time>2003-04-17T11:20:25Z</time>
      </trkpt>
      <trkpt lat="31.158703034743667" lon="-3.935936959460378">
        <ele>731.39999999999998</ele>
        <time>2003-04-17T11:20:25Z</time>
      </trkpt>
      <trkpt lat="31.158943008631468" lon="-3.936242982745171">
        <ele>731.79999999999995</ele>
        <time>2003-04-17T11:20:29Z</time>
      </trkpt>
      <trkpt lat="31.159427985548973" lon="-3.936767019331455">
        <ele>731.70000000000005</ele>
        <time>2003-04-17T11:20:34Z</time>
      </trkpt>
      <trkpt lat="31.159511972218752" lon="-3.936855029314756">
        <ele>732</ele>
        <time>2003-04-17T11:20:36Z</time>
      </trkpt>
      <trkpt lat="31.160027962177992" lon="-3.937345035374165">
        <ele>732</ele>
        <time>2003-04-17T11:20:41Z</time>
      </trkpt>
      <trkpt lat="31.160337002947927" lon="-3.937549972906709">
        <ele>731.79999999999995</ele>
        <time>2003-04-17T11:20:45Z</time>
      </trkpt>
      <trkpt lat="31.16043196991086" lon="-3.937622979283333">
        <ele>731.89999999999998</ele>
        <time>2003-04-17T11:20:45Z</time>
      </trkpt>
      <trkpt lat="31.160683007910848" lon="-3.937858007848263">
        <ele>732.39999999999998</ele>
        <time>2003-04-17T11:20:49Z</time>
      </trkpt>
      <trkpt lat="31.160766994580626" lon="-3.937930008396506">
        <ele>732.20000000000005</ele>
        <time>2003-04-17T11:20:49Z</time>
      </trkpt>
      <trkpt lat="31.161072012037039" lon="-3.938190015032888">
        <ele>732.60000000000002</ele>
        <time>2003-04-17T11:20:53Z</time>
      </trkpt>
      <trkpt lat="31.161192040890455" lon="-3.938357988372445">
        <ele>733.29999999999995</ele>
        <time>2003-04-17T11:20:56Z</time>
      </trkpt>
      <trkpt lat="31.161392033100128" lon="-3.938597040250897">
        <ele>733.20000000000005</ele>
        <time>2003-04-17T11:20:59Z</time>
      </trkpt>
      <trkpt lat="31.161565035581589" lon="-3.938702987506986">
        <ele>733</ele>
        <time>2003-04-17T11:21:00Z</time>
      </trkpt>
      <trkpt lat="31.161747006699443" lon="-3.938786974176765">
        <ele>732.39999999999998</ele>
        <time>2003-04-17T11:21:03Z</time>
      </trkpt>
      <trkpt lat="31.161933001130819" lon="-3.938878001645207">
        <ele>732.20000000000005</ele>
        <time>2003-04-17T11:21:04Z</time>
      </trkpt>
      <trkpt lat="31.162202982231975" lon="-3.938998030498624">
        <ele>732.10000000000002</ele>
        <time>2003-04-17T11:21:08Z</time>
      </trkpt>
      <trkpt lat="31.16229803301394" lon="-3.939047986641526">
        <ele>732.20000000000005</ele>
        <time>2003-04-17T11:21:08Z</time>
      </trkpt>
      <trkpt lat="31.162716960534453" lon="-3.939216965809465">
        <ele>732.60000000000002</ele>
        <time>2003-04-17T11:21:12Z</time>
      </trkpt>
      <trkpt lat="31.163002029061317" lon="-3.939283015206456">
        <ele>732.79999999999995</ele>
        <time>2003-04-17T11:21:16Z</time>
      </trkpt>
      <trkpt lat="31.163435038179159" lon="-3.939362978562713">
        <ele>732.60000000000002</ele>
        <time>2003-04-17T11:21:20Z</time>
      </trkpt>
      <trkpt lat="31.163677023723722" lon="-3.939453000202775">
        <ele>732.5</ele>
        <time>2003-04-17T11:21:23Z</time>
      </trkpt>
      <trkpt lat="31.164549998939037" lon="-3.939866982400417">
        <ele>732.79999999999995</ele>
        <time>2003-04-17T11:21:34Z</time>
      </trkpt>
      <trkpt lat="31.16500798612833" lon="-3.940117014572024">
        <ele>732.60000000000002</ele>
        <time>2003-04-17T11:21:39Z</time>
      </trkpt>
      <trkpt lat="31.165177971124649" lon="-3.940196977928281">
        <ele>732.79999999999995</ele>
        <time>2003-04-17T11:21:41Z</time>
      </trkpt>
      <trkpt lat="31.165267992764711" lon="-3.940217010676861">
        <ele>732.60000000000002</ele>
        <time>2003-04-17T11:21:42Z</time>
      </trkpt>
      <trkpt lat="31.16573796607554" lon="-3.940284987911582">
        <ele>732.89999999999998</ele>
        <time>2003-04-17T11:21:46Z</time>
      </trkpt>
      <trkpt lat="31.166048012673855" lon="-3.940290017053485">
        <ele>733</ele>
        <time>2003-04-17T11:21:50Z</time>
      </trkpt>
      <trkpt lat="31.166468029841781" lon="-3.940227990970016">
        <ele>732.70000000000005</ele>
        <time>2003-04-17T11:21:54Z</time>
      </trkpt>
      <trkpt lat="31.167125003412366" lon="-3.940117014572024">
        <ele>732.60000000000002</ele>
        <time>2003-04-17T11:21:59Z</time>
      </trkpt>
      <trkpt lat="31.167530016973615" lon="-3.940162025392056">
        <ele>732.39999999999998</ele>
        <time>2003-04-17T11:22:03Z</time>
      </trkpt>
      <trkpt lat="31.16762800142169" lon="-3.940163031220436">
        <ele>732.29999999999995</ele>
        <time>2003-04-17T11:22:05Z</time>
      </trkpt>
      <trkpt lat="31.167836962267756" lon="-3.940196977928281">
        <ele>732.5</ele>
        <time>2003-04-17T11:22:06Z</time>
      </trkpt>
      <trkpt lat="31.168248010799289" lon="-3.940250035375357">
        <ele>732.29999999999995</ele>
        <time>2003-04-17T11:22:10Z</time>
      </trkpt>
      <trkpt lat="31.168352030217648" lon="-3.94025799818337">
        <ele>732.5</ele>
        <time>2003-04-17T11:22:12Z</time>
      </trkpt>
      <trkpt lat="31.168849999085069" lon="-3.940327987074852">
        <ele>732.39999999999998</ele>
        <time>2003-04-17T11:22:17Z</time>
      </trkpt>
      <trkpt lat="31.169062983244658" lon="-3.94038699567318">
        <ele>732.39999999999998</ele>
        <time>2003-04-17T11:22:18Z</time>
      </trkpt>
      <trkpt lat="31.169552989304066" lon="-3.940403005108237">
        <ele>732.79999999999995</ele>
        <time>2003-04-17T11:22:22Z</time>
      </trkpt>
      <trkpt lat="31.170194959267974" lon="-3.940378027036786">
        <ele>732.70000000000005</ele>
        <time>2003-04-17T11:22:28Z</time>
      </trkpt>
      <trkpt lat="31.170332003384829" lon="-3.940414991229773">
        <ele>732.89999999999998</ele>
        <time>2003-04-17T11:22:29Z</time>
      </trkpt>
      <trkpt lat="31.171287959441543" lon="-3.940671980381012">
        <ele>733.29999999999995</ele>
        <time>2003-04-17T11:22:36Z</time>
      </trkpt>
      <trkpt lat="31.172207035124302" lon="-3.940927041694522">
        <ele>733.70000000000005</ele>
        <time>2003-04-17T11:22:43Z</time>
      </trkpt>
      <trkpt lat="31.17233200930059" lon="-3.940987978130579">
        <ele>733.60000000000002</ele>
        <time>2003-04-17T11:22:44Z</time>
      </trkpt>
      <trkpt lat="31.173185035586357" lon="-3.941383017227054">
        <ele>734</ele>
        <time>2003-04-17T11:22:51Z</time>
      </trkpt>
      <trkpt lat="31.173930019140244" lon="-3.941627014428377">
        <ele>734.29999999999995</ele>
        <time>2003-04-17T11:22:56Z</time>
      </trkpt>
      <trkpt lat="31.17452303878963" lon="-3.941679988056421">
        <ele>734.60000000000002</ele>
        <time>2003-04-17T11:23:02Z</time>
      </trkpt>
      <trkpt lat="31.174641977995634" lon="-3.941681999713182">
        <ele>734.60000000000002</ele>
        <time>2003-04-17T11:23:03Z</time>
      </trkpt>
      <trkpt lat="31.174972979351878" lon="-3.941737990826368">
        <ele>734.20000000000005</ele>
        <time>2003-04-17T11:23:06Z</time>
      </trkpt>
      <trkpt lat="31.175768002867699" lon="-3.941851984709501">
        <ele>734.70000000000005</ele>
        <time>2003-04-17T11:23:12Z</time>
      </trkpt>
      <trkpt lat="31.175875039771199" lon="-3.941851984709501">
        <ele>734.60000000000002</ele>
        <time>2003-04-17T11:23:14Z</time>
      </trkpt>
      <trkpt lat="31.176142003387213" lon="-3.941843016073108">
        <ele>734.70000000000005</ele>
        <time>2003-04-17T11:23:16Z</time>
      </trkpt>
      <trkpt lat="31.176239987835288" lon="-3.941837986931205">
        <ele>734.70000000000005</ele>
        <time>2003-04-17T11:23:18Z</time>
      </trkpt>
      <trkpt lat="31.176337972283363" lon="-3.941839998587966">
        <ele>734.70000000000005</ele>
        <time>2003-04-17T11:23:19Z</time>
      </trkpt>
      <trkpt lat="31.176786990836263" lon="-3.941852990537882">
        <ele>734.70000000000005</ele>
        <time>2003-04-17T11:23:23Z</time>
      </trkpt>
      <trkpt lat="31.177562987431884" lon="-3.94174000248313">
        <ele>734.79999999999995</ele>
        <time>2003-04-17T11:23:29Z</time>
      </trkpt>
      <trkpt lat="31.17828500457108" lon="-3.941632965579629">
        <ele>734.89999999999998</ele>
        <time>2003-04-17T11:23:34Z</time>
      </trkpt>
      <trkpt lat="31.178575018420815" lon="-3.94163497723639">
        <ele>735</ele>
        <time>2003-04-17T11:23:35Z</time>
      </trkpt>
      <trkpt lat="31.178852962329984" lon="-3.941651992499828">
        <ele>734.89999999999998</ele>
        <time>2003-04-17T11:23:38Z</time>
      </trkpt>
      <trkpt lat="31.179110035300255" lon="-3.941657021641731">
        <ele>735</ele>
        <time>2003-04-17T11:23:39Z</time>
      </trkpt>
      <trkpt lat="31.179322013631463" lon="-3.941604970023036">
        <ele>735</ele>
        <time>2003-04-17T11:23:42Z</time>
      </trkpt>
      <trkpt lat="31.179502978920937" lon="-3.941579991951585">
        <ele>735</ele>
        <time>2003-04-17T11:23:43Z</time>
      </trkpt>
      <trkpt lat="31.179597023874521" lon="-3.941589966416359">
        <ele>735.29999999999995</ele>
        <time>2003-04-17T11:23:45Z</time>
      </trkpt>
      <trkpt lat="31.179787963628769" lon="-3.941576974466443">
        <ele>735.29999999999995</ele>
        <time>2003-04-17T11:23:46Z</time>
      </trkpt>
      <trkpt lat="31.179951997473836" lon="-3.941512014716864">
        <ele>735.60000000000002</ele>
        <time>2003-04-17T11:23:49Z</time>
      </trkpt>
      <trkpt lat="31.180070014670491" lon="-3.941422998905182">
        <ele>735.29999999999995</ele>
        <time>2003-04-17T11:23:50Z</time>
      </trkpt>
      <trkpt lat="31.180290039628744" lon="-3.941276986151934">
        <ele>735.5</ele>
        <time>2003-04-17T11:23:54Z</time>
      </trkpt>
      <trkpt lat="31.180596984922886" lon="-3.941187970340252">
        <ele>735.70000000000005</ele>
        <time>2003-04-17T11:23:57Z</time>
      </trkpt>
      <trkpt lat="31.181148011237383" lon="-3.941071964800358">
        <ele>735.29999999999995</ele>
        <time>2003-04-17T11:24:01Z</time>
      </trkpt>
      <trkpt lat="31.181368036195636" lon="-3.941071964800358">
        <ele>735.39999999999998</ele>
        <time>2003-04-17T11:24:04Z</time>
      </trkpt>
      <trkpt lat="31.181698031723499" lon="-3.941076993942261">
        <ele>735.29999999999995</ele>
        <time>2003-04-17T11:24:06Z</time>
      </trkpt>
      <trkpt lat="31.182243023067713" lon="-3.941059978678823">
        <ele>735.5</ele>
        <time>2003-04-17T11:24:12Z</time>
      </trkpt>
      <trkpt lat="31.182451983913779" lon="-3.94113801419735">
        <ele>735.5</ele>
        <time>2003-04-17T11:24:13Z</time>
      </trkpt>
      <trkpt lat="31.182977026328444" lon="-3.941325014457107">
        <ele>735.60000000000002</ele>
        <time>2003-04-17T11:24:18Z</time>
      </trkpt>
      <trkpt lat="31.183532997965813" lon="-3.941476978361607">
        <ele>736.20000000000005</ele>
        <time>2003-04-17T11:24:25Z</time>
      </trkpt>
      <trkpt lat="31.18376299738884" lon="-3.941521989181638">
        <ele>736.29999999999995</ele>
        <time>2003-04-17T11:24:25Z</time>
      </trkpt>
      <trkpt lat="31.184312012046576" lon="-3.941673031076789">
        <ele>736.70000000000005</ele>
        <time>2003-04-17T11:24:31Z</time>
      </trkpt>
      <trkpt lat="31.184642007574439" lon="-3.941752994433045">
        <ele>736.79999999999995</ele>
        <time>2003-04-17T11:24:33Z</time>
      </trkpt>
      <trkpt lat="31.184841999784112" lon="-3.94180697388947">
        <ele>736.89999999999998</ele>
        <time>2003-04-17T11:24:36Z</time>
      </trkpt>
      <trkpt lat="31.185011984780431" lon="-3.941834969446063">
        <ele>736.89999999999998</ele>
        <time>2003-04-17T11:24:37Z</time>
      </trkpt>
      <trkpt lat="31.18539797142148" lon="-3.941887021064758">
        <ele>737.39999999999998</ele>
        <time>2003-04-17T11:24:41Z</time>
      </trkpt>
      <trkpt lat="31.185667030513287" lon="-3.942013001069427">
        <ele>737.39999999999998</ele>
        <time>2003-04-17T11:24:44Z</time>
      </trkpt>
      <trkpt lat="31.185922008007765" lon="-3.942190026864409">
        <ele>737.5</ele>
        <time>2003-04-17T11:24:48Z</time>
      </trkpt>
      <trkpt lat="31.186022004112601" lon="-3.942245012149215">
        <ele>737.10000000000002</ele>
        <time>2003-04-17T11:24:48Z</time>
      </trkpt>
      <trkpt lat="31.186761958524585" lon="-3.942581964656711">
        <ele>737.39999999999998</ele>
        <time>2003-04-17T11:24:55Z</time>
      </trkpt>
      <trkpt lat="31.187652032822371" lon="-3.942956971004605">
        <ele>738.20000000000005</ele>
        <time>2003-04-17T11:25:06Z</time>
      </trkpt>
      <trkpt lat="31.188183026388288" lon="-3.943180013448">
        <ele>738.29999999999995</ele>
        <time>2003-04-17T11:25:10Z</time>
      </trkpt>
      <trkpt lat="31.188389975577593" lon="-3.943257965147495">
        <ele>738.5</ele>
        <time>2003-04-17T11:25:11Z</time>
      </trkpt>
      <trkpt lat="31.188502041622996" lon="-3.943287972360849">
        <ele>738.60000000000002</ele>
        <time>2003-04-17T11:25:12Z</time>
      </trkpt>
      <trkpt lat="31.189482975751162" lon="-3.943483019247651">
        <ele>739.20000000000005</ele>
        <time>2003-04-17T11:25:22Z</time>
      </trkpt>
      <trkpt lat="31.189584983512759" lon="-3.943489976227284">
        <ele>739.10000000000002</ele>
        <time>2003-04-17T11:25:22Z</time>
      </trkpt>
      <trkpt lat="31.189792016521096" lon="-3.943500034511089">
        <ele>739.20000000000005</ele>
        <time>2003-04-17T11:25:25Z</time>
      </trkpt>
      <trkpt lat="31.190120000392199" lon="-3.943480001762509">
        <ele>739.39999999999998</ele>
        <time>2003-04-17T11:25:27Z</time>
      </trkpt>
      <trkpt lat="31.190453013405204" lon="-3.943470027297735">
        <ele>739.60000000000002</ele>
        <time>2003-04-17T11:25:30Z</time>
      </trkpt>
      <trkpt lat="31.190922986716032" lon="-3.943483019247651">
        <ele>739.60000000000002</ele>
        <time>2003-04-17T11:25:34Z</time>
      </trkpt>
      <trkpt lat="31.191162960603833" lon="-3.943483019247651">
        <ele>739.60000000000002</ele>
        <time>2003-04-17T11:25:37Z</time>
      </trkpt>
      <trkpt lat="31.191847007721663" lon="-3.943501962348819">
        <ele>739.5</ele>
        <time>2003-04-17T11:25:42Z</time>
      </trkpt>
      <trkpt lat="31.191954966634512" lon="-3.943504979833961">
        <ele>739.5</ele>
        <time>2003-04-17T11:25:44Z</time>
      </trkpt>
      <trkpt lat="31.192773040384054" lon="-3.943582009524107">
        <ele>739.70000000000005</ele>
        <time>2003-04-17T11:25:50Z</time>
      </trkpt>
      <trkpt lat="31.192882005125284" lon="-3.943625008687377">
        <ele>739.79999999999995</ele>
        <time>2003-04-17T11:25:52Z</time>
      </trkpt>
      <trkpt lat="31.193434959277511" lon="-3.943861965090036">
        <ele>739.89999999999998</ele>
        <time>2003-04-17T11:25:57Z</time>
      </trkpt>
      <trkpt lat="31.193547025322914" lon="-3.943900018930435">
        <ele>739.70000000000005</ele>
        <time>2003-04-17T11:25:57Z</time>
      </trkpt>
      <trkpt lat="31.194461993873119" lon="-3.944106968119741">
        <ele>740.10000000000002</ele>
        <time>2003-04-17T11:26:05Z</time>
      </trkpt>
      <trkpt lat="31.194919981062412" lon="-3.944194978103042">
        <ele>740.20000000000005</ele>
        <time>2003-04-17T11:26:09Z</time>
      </trkpt>
      <trkpt lat="31.195137994363904" lon="-3.94429799169302">
        <ele>740.39999999999998</ele>
        <time>2003-04-17T11:26:13Z</time>
      </trkpt>
      <trkpt lat="31.195672005414963" lon="-3.944507958367467">
        <ele>740.60000000000002</ele>
        <time>2003-04-17T11:26:17Z</time>
      </trkpt>
      <trkpt lat="31.195781975984573" lon="-3.944542994722724">
        <ele>740.60000000000002</ele>
        <time>2003-04-17T11:26:19Z</time>
      </trkpt>
      <trkpt lat="31.19598800316453" lon="-3.944645002484322">
        <ele>741.10000000000002</ele>
        <time>2003-04-17T11:26:20Z</time>
      </trkpt>
      <trkpt lat="31.196175003424287" lon="-3.944707028567791">
        <ele>741.10000000000002</ele>
        <time>2003-04-17T11:26:23Z</time>
      </trkpt>
      <trkpt lat="31.196412965655327" lon="-3.944784980267286">
        <ele>741.5</ele>
        <time>2003-04-17T11:26:25Z</time>
      </trkpt>
      <trkpt lat="31.197002967819571" lon="-3.945052027702332">
        <ele>741.20000000000005</ele>
        <time>2003-04-17T11:26:32Z</time>
      </trkpt>
      <trkpt lat="31.197894969955087" lon="-3.945534992963076">
        <ele>742</ele>
        <time>2003-04-17T11:26:43Z</time>
      </trkpt>
      <trkpt lat="31.197975017130375" lon="-3.945601964369416">
        <ele>742.20000000000005</ele>
        <time>2003-04-17T11:26:43Z</time>
      </trkpt>
      <trkpt lat="31.198041988536716" lon="-3.945691986009479">
        <ele>741.70000000000005</ele>
        <time>2003-04-17T11:26:44Z</time>
      </trkpt>
      <trkpt lat="31.198145002126694" lon="-3.945882003754377">
        <ele>741.89999999999998</ele>
        <time>2003-04-17T11:26:47Z</time>
      </trkpt>
      <trkpt lat="31.198324961587787" lon="-3.946233037859201">
        <ele>742.5</ele>
        <time>2003-04-17T11:26:51Z</time>
      </trkpt>
      <trkpt lat="31.198418000712991" lon="-3.946343008428812">
        <ele>742.70000000000005</ele>
        <time>2003-04-17T11:26:52Z</time>
      </trkpt>
      <trkpt lat="31.198698040097952" lon="-3.946667974814773">
        <ele>742.79999999999995</ele>
        <time>2003-04-17T11:26:59Z</time>
      </trkpt>
      <trkpt lat="31.198698040097952" lon="-3.94683301448822">
        <ele>743.10000000000002</ele>
        <time>2003-04-17T11:27:00Z</time>
      </trkpt>
      <trkpt lat="31.198684964329004" lon="-3.947018003091216">
        <ele>743.39999999999998</ele>
        <time>2003-04-17T11:27:03Z</time>
      </trkpt>
      <trkpt lat="31.198667027056217" lon="-3.947389991953969">
        <ele>744.70000000000005</ele>
        <time>2003-04-17T11:27:07Z</time>
      </trkpt>
      <trkpt lat="31.198546998202801" lon="-3.94777799025178">
        <ele>743.20000000000005</ele>
        <time>2003-04-17T11:27:10Z</time>
      </trkpt>
      <trkpt lat="31.198450019583106" lon="-3.947910005226731">
        <ele>742.89999999999998</ele>
        <time>2003-04-17T11:27:13Z</time>
      </trkpt>
      <trkpt lat="31.198408026248217" lon="-3.948046965524554">
        <ele>743</ele>
        <time>2003-04-17T11:27:14Z</time>
      </trkpt>
      <trkpt lat="31.198493018746376" lon="-3.948170011863112">
        <ele>743.60000000000002</ele>
        <time>2003-04-17T11:27:45Z</time>
      </trkpt>
      <trkpt lat="31.198541969060898" lon="-3.948261961340904">
        <ele>743.70000000000005</ele>
        <time>2003-04-17T11:27:46Z</time>
      </trkpt>
      <trkpt lat="31.198644982650876" lon="-3.948411997407675">
        <ele>744.39999999999998</ele>
        <time>2003-04-17T11:27:49Z</time>
      </trkpt>
      <trkpt lat="31.198707008734345" lon="-3.948500007390976">
        <ele>744.39999999999998</ele>
        <time>2003-04-17T11:27:52Z</time>
      </trkpt>
      <trkpt lat="31.198755037039518" lon="-3.948627999052405">
        <ele>744.20000000000005</ele>
        <time>2003-04-17T11:27:53Z</time>
      </trkpt>
      <trkpt lat="31.198859978467226" lon="-3.948922958225012">
        <ele>744.39999999999998</ele>
        <time>2003-04-17T11:27:57Z</time>
      </trkpt>
      <trkpt lat="31.19891001842916" lon="-3.949026977643371">
        <ele>744.29999999999995</ele>
        <time>2003-04-17T11:27:59Z</time>
      </trkpt>
      <trkpt lat="31.199044967070222" lon="-3.949223030358553">
        <ele>744.39999999999998</ele>
        <time>2003-04-17T11:28:01Z</time>
      </trkpt>
      <trkpt lat="31.199134988710284" lon="-3.949284972622991">
        <ele>744.29999999999995</ele>
        <time>2003-04-17T11:28:01Z</time>
      </trkpt>
      <trkpt lat="31.199225010350347" lon="-3.949301987886429">
        <ele>744.29999999999995</ele>
        <time>2003-04-17T11:28:03Z</time>
      </trkpt>
      <trkpt lat="31.199310002848506" lon="-3.949337024241686">
        <ele>744.20000000000005</ele>
        <time>2003-04-17T11:28:04Z</time>
      </trkpt>
      <trkpt lat="31.199392983689904" lon="-3.949416987597942">
        <ele>744</ele>
        <time>2003-04-17T11:28:04Z</time>
      </trkpt>
      <trkpt lat="31.19974703527987" lon="-3.949691997841001">
        <ele>744</ele>
        <time>2003-04-17T11:28:08Z</time>
      </trkpt>
      <trkpt lat="31.200623027980328" lon="-3.950115032494068">
        <ele>744.10000000000002</ele>
        <time>2003-04-17T11:28:16Z</time>
      </trkpt>
      <trkpt lat="31.201131977140903" lon="-3.950360035523772">
        <ele>743.70000000000005</ele>
        <time>2003-04-17T11:28:20Z</time>
      </trkpt>
      <trkpt lat="31.201261980459094" lon="-3.950402028858662">
        <ele>743.79999999999995</ele>
        <time>2003-04-17T11:28:21Z</time>
      </trkpt>
      <trkpt lat="31.202184995636344" lon="-3.950754990801215">
        <ele>744.20000000000005</ele>
        <time>2003-04-17T11:28:28Z</time>
      </trkpt>
      <trkpt lat="31.202669972553849" lon="-3.951080041006208">
        <ele>744.5</ele>
        <time>2003-04-17T11:28:32Z</time>
      </trkpt>
      <trkpt lat="31.203002985566854" lon="-3.95130299963057">
        <ele>744.29999999999995</ele>
        <time>2003-04-17T11:28:35Z</time>
      </trkpt>
      <trkpt lat="31.203476982191205" lon="-3.951529981568456">
        <ele>744.70000000000005</ele>
        <time>2003-04-17T11:28:39Z</time>
      </trkpt>
      <trkpt lat="31.203676974400878" lon="-3.95166702568531">
        <ele>744.20000000000005</ele>
        <time>2003-04-17T11:28:42Z</time>
      </trkpt>
      <trkpt lat="31.20398199185729" lon="-3.951750006526709">
        <ele>744.20000000000005</ele>
        <time>2003-04-17T11:28:44Z</time>
      </trkpt>
      <trkpt lat="31.204090034589171" lon="-3.95175201818347">
        <ele>744.39999999999998</ele>
        <time>2003-04-17T11:28:46Z</time>
      </trkpt>
      <trkpt lat="31.204197993502021" lon="-3.951727962121368">
        <ele>744.5</ele>
        <time>2003-04-17T11:28:47Z</time>
      </trkpt>
      <trkpt lat="31.204312993213534" lon="-3.951729973778129">
        <ele>744.20000000000005</ele>
        <time>2003-04-17T11:28:47Z</time>
      </trkpt>
      <trkpt lat="31.204527989029884" lon="-3.951787976548076">
        <ele>744.5</ele>
        <time>2003-04-17T11:28:50Z</time>
      </trkpt>
      <trkpt lat="31.20494800619781" lon="-3.952019987627864">
        <ele>744.79999999999995</ele>
        <time>2003-04-17T11:28:54Z</time>
      </trkpt>
      <trkpt lat="31.205057976767421" lon="-3.952059969305992">
        <ele>744.39999999999998</ele>
        <time>2003-04-17T11:28:55Z</time>
      </trkpt>
      <trkpt lat="31.205250006169081" lon="-3.952164994552732">
        <ele>744.70000000000005</ele>
        <time>2003-04-17T11:28:57Z</time>
      </trkpt>
      <trkpt lat="31.205342961475253" lon="-3.952187960967422">
        <ele>744.79999999999995</ele>
        <time>2003-04-17T11:28:58Z</time>
      </trkpt>
      <trkpt lat="31.205447986721992" lon="-3.952187960967422">
        <ele>744.79999999999995</ele>
        <time>2003-04-17T11:28:58Z</time>
      </trkpt>
      <trkpt lat="31.205557035282254" lon="-3.952195001766086">
        <ele>744.70000000000005</ele>
        <time>2003-04-17T11:28:59Z</time>
      </trkpt>
      <trkpt lat="31.205649990588427" lon="-3.952238000929356">
        <ele>744.70000000000005</ele>
        <time>2003-04-17T11:29:01Z</time>
      </trkpt>
      <trkpt lat="31.205743029713631" lon="-3.952304972335696">
        <ele>744.79999999999995</ele>
        <time>2003-04-17T11:29:02Z</time>
      </trkpt>
      <trkpt lat="31.205813018605113" lon="-3.952400023117662">
        <ele>744.79999999999995</ele>
        <time>2003-04-17T11:29:02Z</time>
      </trkpt>
      <trkpt lat="31.206004964187741" lon="-3.952719960361719">
        <ele>744.79999999999995</ele>
        <time>2003-04-17T11:29:06Z</time>
      </trkpt>
      <trkpt lat="31.20602298527956" lon="-3.952842000871897">
        <ele>744.79999999999995</ele>
        <time>2003-04-17T11:29:06Z</time>
      </trkpt>
      <trkpt lat="31.206104960292578" lon="-3.953032018616796">
        <ele>744.89999999999998</ele>
        <time>2003-04-17T11:29:09Z</time>
      </trkpt>
      <trkpt lat="31.206262037158012" lon="-3.953087003901601">
        <ele>745.39999999999998</ele>
        <time>2003-04-17T11:29:10Z</time>
      </trkpt>
      <trkpt lat="31.206362033262849" lon="-3.953208038583398">
        <ele>745.60000000000002</ele>
        <time>2003-04-17T11:29:13Z</time>
      </trkpt>
      <trkpt lat="31.206411989405751" lon="-3.953367965295911">
        <ele>745.89999999999998</ele>
        <time>2003-04-17T11:29:14Z</time>
      </trkpt>
      <trkpt lat="31.206509973853827" lon="-3.953542979434133">
        <ele>745.5</ele>
        <time>2003-04-17T11:29:17Z</time>
      </trkpt>
      <trkpt lat="31.206647017970681" lon="-3.953641969710589">
        <ele>745.70000000000005</ele>
        <time>2003-04-17T11:29:18Z</time>
      </trkpt>
      <trkpt lat="31.206780038774014" lon="-3.953678011894226">
        <ele>745.70000000000005</ele>
        <time>2003-04-17T11:29:21Z</time>
      </trkpt>
      <trkpt lat="31.206916999071836" lon="-3.95366501994431">
        <ele>745.89999999999998</ele>
        <time>2003-04-17T11:29:22Z</time>
      </trkpt>
      <trkpt lat="31.207150015980005" lon="-3.953640041872859">
        <ele>745.79999999999995</ele>
        <time>2003-04-17T11:29:25Z</time>
      </trkpt>
      <trkpt lat="31.207342967391014" lon="-3.953640041872859">
        <ele>745.5</ele>
        <time>2003-04-17T11:29:28Z</time>
      </trkpt>
      <trkpt lat="31.207527033984661" lon="-3.953682035207748">
        <ele>745.39999999999998</ele>
        <time>2003-04-17T11:29:29Z</time>
      </trkpt>
      <trkpt lat="31.207622000947595" lon="-3.95368698053062">
        <ele>745.5</ele>
        <time>2003-04-17T11:29:30Z</time>
      </trkpt>
      <trkpt lat="31.207717973738909" lon="-3.953684968873859">
        <ele>745.5</ele>
        <time>2003-04-17T11:29:32Z</time>
      </trkpt>
      <trkpt lat="31.207812018692493" lon="-3.953687986359">
        <ele>745.29999999999995</ele>
        <time>2003-04-17T11:29:33Z</time>
      </trkpt>
      <trkpt lat="31.208117036148906" lon="-3.953740037977696">
        <ele>745.39999999999998</ele>
        <time>2003-04-17T11:29:36Z</time>
      </trkpt>
      <trkpt lat="31.208541998639703" lon="-3.953874986618757">
        <ele>745.60000000000002</ele>
        <time>2003-04-17T11:29:40Z</time>
      </trkpt>
      <trkpt lat="31.208779960870743" lon="-3.953871969133616">
        <ele>745.60000000000002</ele>
        <time>2003-04-17T11:29:41Z</time>
      </trkpt>
      <trkpt lat="31.209154967218637" lon="-3.953774990513921">
        <ele>745.60000000000002</ele>
        <time>2003-04-17T11:29:45Z</time>
      </trkpt>
      <trkpt lat="31.209640027955174" lon="-3.953641969710589">
        <ele>745.39999999999998</ele>
        <time>2003-04-17T11:29:49Z</time>
      </trkpt>
      <trkpt lat="31.209757039323449" lon="-3.953662002459168">
        <ele>745.5</ele>
        <time>2003-04-17T11:29:49Z</time>
      </trkpt>
      <trkpt lat="31.210364978760481" lon="-3.953840034082532">
        <ele>745.5</ele>
        <time>2003-04-17T11:29:55Z</time>
      </trkpt>
      <trkpt lat="31.210694974288344" lon="-3.954016976058483">
        <ele>745.29999999999995</ele>
        <time>2003-04-17T11:29:57Z</time>
      </trkpt>
      <trkpt lat="31.21096202172339" lon="-3.95424303598702">
        <ele>745.29999999999995</ele>
        <time>2003-04-17T11:30:00Z</time>
      </trkpt>
      <trkpt lat="31.211150027811527" lon="-3.954359963536263">
        <ele>745.39999999999998</ele>
        <time>2003-04-17T11:30:03Z</time>
      </trkpt>
      <trkpt lat="31.211262010037899" lon="-3.95437203347683">
        <ele>745.29999999999995</ele>
        <time>2003-04-17T11:30:04Z</time>
      </trkpt>
      <trkpt lat="31.211472982540727" lon="-3.954406986013055">
        <ele>745.70000000000005</ele>
        <time>2003-04-17T11:30:05Z</time>
      </trkpt>
      <trkpt lat="31.211555041372776" lon="-3.954485021531582">
        <ele>745.5</ele>
        <time>2003-04-17T11:30:07Z</time>
      </trkpt>
      <trkpt lat="31.211647996678948" lon="-3.95454696379602">
        <ele>745.70000000000005</ele>
        <time>2003-04-17T11:30:08Z</time>
      </trkpt>
      <trkpt lat="31.211755033582449" lon="-3.954562973231077">
        <ele>745.5</ele>
        <time>2003-04-17T11:30:08Z</time>
      </trkpt>
      <trkpt lat="31.211861986666918" lon="-3.9545479696244">
        <ele>745.60000000000002</ele>
        <time>2003-04-17T11:30:09Z</time>
      </trkpt>
      <trkpt lat="31.211955025792122" lon="-3.954549981281161">
        <ele>745.60000000000002</ele>
        <time>2003-04-17T11:30:11Z</time>
      </trkpt>
      <trkpt lat="31.212047981098294" lon="-3.954573031514883">
        <ele>745.89999999999998</ele>
        <time>2003-04-17T11:30:12Z</time>
      </trkpt>
      <trkpt lat="31.212134985253215" lon="-3.954612007364631">
        <ele>746</ele>
        <time>2003-04-17T11:30:12Z</time>
      </trkpt>
      <trkpt lat="31.212483001872897" lon="-3.954767994582653">
        <ele>746.20000000000005</ele>
        <time>2003-04-17T11:30:16Z</time>
      </trkpt>
      <trkpt lat="31.212782990187407" lon="-3.954864973202348">
        <ele>746.29999999999995</ele>
        <time>2003-04-17T11:30:19Z</time>
      </trkpt>
      <trkpt lat="31.212947024032474" lon="-3.955009980127215">
        <ele>746.29999999999995</ele>
        <time>2003-04-17T11:30:22Z</time>
      </trkpt>
      <trkpt lat="31.212996980175376" lon="-3.955111987888813">
        <ele>746.5</ele>
        <time>2003-04-17T11:30:23Z</time>
      </trkpt>
      <trkpt lat="31.213109968230128" lon="-3.955288007855415">
        <ele>746.39999999999998</ele>
        <time>2003-04-17T11:30:24Z</time>
      </trkpt>
      <trkpt lat="31.213281964883208" lon="-3.955544997006655">
        <ele>746.5</ele>
        <time>2003-04-17T11:30:27Z</time>
      </trkpt>
      <trkpt lat="31.213439963757992" lon="-3.955652033910155">
        <ele>746.5</ele>
        <time>2003-04-17T11:30:30Z</time>
      </trkpt>
      <trkpt lat="31.21371204033494" lon="-3.955748006701469">
        <ele>746.5</ele>
        <time>2003-04-17T11:30:32Z</time>
      </trkpt>
      <trkpt lat="31.214244961738586" lon="-3.955935006961227">
        <ele>746.70000000000005</ele>
        <time>2003-04-17T11:30:38Z</time>
      </trkpt>
      <trkpt lat="31.214364990592003" lon="-3.955963002517819">
        <ele>746.5</ele>
        <time>2003-04-17T11:30:39Z</time>
      </trkpt>
      <trkpt lat="31.214597001671791" lon="-3.956027962267399">
        <ele>747</ele>
        <time>2003-04-17T11:30:41Z</time>
      </trkpt>
      <trkpt lat="31.214696997776628" lon="-3.95609300583601">
        <ele>746.89999999999998</ele>
        <time>2003-04-17T11:30:42Z</time>
      </trkpt>
      <trkpt lat="31.214764975011349" lon="-3.956168023869395">
        <ele>746.89999999999998</ele>
        <time>2003-04-17T11:30:43Z</time>
      </trkpt>
      <trkpt lat="31.214845022186637" lon="-3.956229966133833">
        <ele>746.79999999999995</ele>
        <time>2003-04-17T11:30:43Z</time>
      </trkpt>
      <trkpt lat="31.214902019128203" lon="-3.956313030794263">
        <ele>746.89999999999998</ele>
        <time>2003-04-17T11:30:45Z</time>
      </trkpt>
      <trkpt lat="31.215052977204323" lon="-3.956621987745166">
        <ele>746.79999999999995</ele>
        <time>2003-04-17T11:30:47Z</time>
      </trkpt>
      <trkpt lat="31.215351959690452" lon="-3.957315003499389">
        <ele>747.5</ele>
        <time>2003-04-17T11:30:54Z</time>
      </trkpt>
      <trkpt lat="31.215429995208979" lon="-3.957392033189535">
        <ele>747.60000000000002</ele>
        <time>2003-04-17T11:30:54Z</time>
      </trkpt>
      <trkpt lat="31.21558497659862" lon="-3.957577021792531">
        <ele>747.5</ele>
        <time>2003-04-17T11:30:57Z</time>
      </trkpt>
      <trkpt lat="31.216068025678396" lon="-3.95821999758482">
        <ele>747.70000000000005</ele>
        <time>2003-04-17T11:31:02Z</time>
      </trkpt>
      <trkpt lat="31.21622996404767" lon="-3.958442034199834">
        <ele>747.79999999999995</ele>
        <time>2003-04-17T11:31:05Z</time>
      </trkpt>
      <trkpt lat="31.216622991487384" lon="-3.958845036104322">
        <ele>747.89999999999998</ele>
        <time>2003-04-17T11:31:09Z</time>
      </trkpt>
      <trkpt lat="31.216928008943796" lon="-3.959188023582101">
        <ele>748.20000000000005</ele>
        <time>2003-04-17T11:31:12Z</time>
      </trkpt>
      <trkpt lat="31.217073015868664" lon="-3.959458004683256">
        <ele>748.29999999999995</ele>
        <time>2003-04-17T11:31:13Z</time>
      </trkpt>
      <trkpt lat="31.217181980609894" lon="-3.959737960249186">
        <ele>748.29999999999995</ele>
        <time>2003-04-17T11:31:16Z</time>
      </trkpt>
      <trkpt lat="31.217520022764802" lon="-3.96075502038002">
        <ele>748.89999999999998</ele>
        <time>2003-04-17T11:31:22Z</time>
      </trkpt>
      <trkpt lat="31.21764499694109" lon="-3.961003040894866">
        <ele>749.10000000000002</ele>
        <time>2003-04-17T11:31:25Z</time>
      </trkpt>
      <trkpt lat="31.218055039644241" lon="-3.961760010570288">
        <ele>749.10000000000002</ele>
        <time>2003-04-17T11:31:30Z</time>
      </trkpt>
      <trkpt lat="31.218298031017184" lon="-3.962601972743869">
        <ele>749.70000000000005</ele>
        <time>2003-04-17T11:31:37Z</time>
      </trkpt>
      <trkpt lat="31.218427028506994" lon="-3.962827026844025">
        <ele>749.79999999999995</ele>
        <time>2003-04-17T11:31:39Z</time>
      </trkpt>
      <trkpt lat="31.218694997951388" lon="-3.963073035702109">
        <ele>749.89999999999998</ele>
        <time>2003-04-17T11:31:41Z</time>
      </trkpt>
      <trkpt lat="31.218864982947707" lon="-3.963228017091751">
        <ele>749.79999999999995</ele>
        <time>2003-04-17T11:31:44Z</time>
      </trkpt>
      <trkpt lat="31.218960033729672" lon="-3.963294988498092">
        <ele>749.79999999999995</ele>
        <time>2003-04-17T11:31:44Z</time>
      </trkpt>
      <trkpt lat="31.219137981534004" lon="-3.963458016514778">
        <ele>749.79999999999995</ele>
        <time>2003-04-17T11:31:47Z</time>
      </trkpt>
      <trkpt lat="31.219200007617474" lon="-3.963557006791234">
        <ele>749.89999999999998</ele>
        <time>2003-04-17T11:31:48Z</time>
      </trkpt>
      <trkpt lat="31.219584988430142" lon="-3.964224960654974">
        <ele>749.89999999999998</ele>
        <time>2003-04-17T11:31:53Z</time>
      </trkpt>
      <trkpt lat="31.219618013128638" lon="-3.964356975629926">
        <ele>750.10000000000002</ele>
        <time>2003-04-17T11:31:55Z</time>
      </trkpt>
      <trkpt lat="31.219747010618448" lon="-3.964729970321059">
        <ele>749.89999999999998</ele>
        <time>2003-04-17T11:31:57Z</time>
      </trkpt>
      <trkpt lat="31.219862010329962" lon="-3.96509500220418">
        <ele>750.39999999999998</ele>
        <time>2003-04-17T11:32:00Z</time>
      </trkpt>
      <trkpt lat="31.219941973686218" lon="-3.965297006070614">
        <ele>750.70000000000005</ele>
        <time>2003-04-17T11:32:03Z</time>
      </trkpt>
      <trkpt lat="31.220057979226112" lon="-3.965388033539057">
        <ele>750.70000000000005</ele>
        <time>2003-04-17T11:32:04Z</time>
      </trkpt>
      <trkpt lat="31.220172978937626" lon="-3.965422986075282">
        <ele>750.60000000000002</ele>
        <time>2003-04-17T11:32:07Z</time>
      </trkpt>
      <trkpt lat="31.220465004444122" lon="-3.965473026037216">
        <ele>750.29999999999995</ele>
        <time>2003-04-17T11:32:11Z</time>
      </trkpt>
      <trkpt lat="31.220631971955299" lon="-3.965519964694977">
        <ele>750.29999999999995</ele>
        <time>2003-04-17T11:32:12Z</time>
      </trkpt>
      <trkpt lat="31.220861971378326" lon="-3.965645022690296">
        <ele>750.39999999999998</ele>
        <time>2003-04-17T11:32:15Z</time>
      </trkpt>
      <trkpt lat="31.220946963876486" lon="-3.965792963281274">
        <ele>750.20000000000005</ele>
        <time>2003-04-17T11:32:18Z</time>
      </trkpt>
      <trkpt lat="31.221161959692836" lon="-3.966035032644868">
        <ele>750</ele>
        <time>2003-04-17T11:32:22Z</time>
      </trkpt>
      <trkpt lat="31.221439987421036" lon="-3.966229995712638">
        <ele>750.79999999999995</ele>
        <time>2003-04-17T11:32:26Z</time>
      </trkpt>
      <trkpt lat="31.221660012379289" lon="-3.966523027047515">
        <ele>750.70000000000005</ele>
        <time>2003-04-17T11:32:30Z</time>
      </trkpt>
      <trkpt lat="31.221769982948899" lon="-3.966665016487241">
        <ele>751</ele>
        <time>2003-04-17T11:32:31Z</time>
      </trkpt>
      <trkpt lat="31.222053039819002" lon="-3.967016972601414">
        <ele>751</ele>
        <time>2003-04-17T11:32:37Z</time>
      </trkpt>
      <trkpt lat="31.222187988460064" lon="-3.96711696870625">
        <ele>750.70000000000005</ele>
        <time>2003-04-17T11:32:38Z</time>
      </trkpt>
      <trkpt lat="31.222327966243029" lon="-3.96722199395299">
        <ele>750.89999999999998</ele>
        <time>2003-04-17T11:32:41Z</time>
      </trkpt>
      <trkpt lat="31.222452018409967" lon="-3.967359960079193">
        <ele>751.20000000000005</ele>
        <time>2003-04-17T11:32:42Z</time>
      </trkpt>
      <trkpt lat="31.222527958452702" lon="-3.967428021132946">
        <ele>751.10000000000002</ele>
        <time>2003-04-17T11:32:43Z</time>
      </trkpt>
      <trkpt lat="31.222692998126149" lon="-3.967532040551305">
        <ele>751.5</ele>
        <time>2003-04-17T11:32:46Z</time>
      </trkpt>
      <trkpt lat="31.222772039473057" lon="-3.96758702583611">
        <ele>751.10000000000002</ele>
        <time>2003-04-17T11:32:46Z</time>
      </trkpt>
      <trkpt lat="31.223002960905433" lon="-3.967749970033765">
        <ele>751.39999999999998</ele>
        <time>2003-04-17T11:32:50Z</time>
      </trkpt>
      <trkpt lat="31.223183004185557" lon="-3.967890031635761">
        <ele>751.70000000000005</ele>
        <time>2003-04-17T11:32:51Z</time>
      </trkpt>
      <trkpt lat="31.223926981911063" lon="-3.968484979122877">
        <ele>751.29999999999995</ele>
        <time>2003-04-17T11:33:01Z</time>
      </trkpt>
      <trkpt lat="31.224126974120736" lon="-3.968797959387302">
        <ele>751.89999999999998</ele>
        <time>2003-04-17T11:33:05Z</time>
      </trkpt>
      <trkpt lat="31.224474990740418" lon="-3.969274973496795">
        <ele>751.60000000000002</ele>
        <time>2003-04-17T11:33:12Z</time>
      </trkpt>
      <trkpt lat="31.224584961310029" lon="-3.969415035098791">
        <ele>752.10000000000002</ele>
        <time>2003-04-17T11:33:13Z</time>
      </trkpt>
      <trkpt lat="31.225289963185787" lon="-3.97020997479558">
        <ele>752.20000000000005</ele>
        <time>2003-04-17T11:33:25Z</time>
      </trkpt>
      <trkpt lat="31.225472018122673" lon="-3.970435028895736">
        <ele>752.5</ele>
        <time>2003-04-17T11:33:28Z</time>
      </trkpt>
      <trkpt lat="31.225597998127341" lon="-3.970578024163842">
        <ele>752.29999999999995</ele>
        <time>2003-04-17T11:33:29Z</time>
      </trkpt>
      <trkpt lat="31.22593997977674" lon="-3.970986977219582">
        <ele>752.10000000000002</ele>
        <time>2003-04-17T11:33:35Z</time>
      </trkpt>
      <trkpt lat="31.226241979748011" lon="-3.971328036859632">
        <ele>752.79999999999995</ele>
        <time>2003-04-17T11:33:39Z</time>
      </trkpt>
      <trkpt lat="31.226314986124635" lon="-3.971402971073985">
        <ele>752.79999999999995</ele>
        <time>2003-04-17T11:33:40Z</time>
      </trkpt>
      <trkpt lat="31.226482037454844" lon="-3.971534986048937">
        <ele>752.39999999999998</ele>
        <time>2003-04-17T11:33:41Z</time>
      </trkpt>
      <trkpt lat="31.226567029953003" lon="-3.971613021567464">
        <ele>752.39999999999998</ele>
        <time>2003-04-17T11:33:43Z</time>
      </trkpt>
      <trkpt lat="31.226787976920605" lon="-3.971851989626885">
        <ele>753</ele>
        <time>2003-04-17T11:33:45Z</time>
      </trkpt>
      <trkpt lat="31.226925021037459" lon="-3.971998002380133">
        <ele>752.89999999999998</ele>
        <time>2003-04-17T11:33:48Z</time>
      </trkpt>
      <trkpt lat="31.227016970515251" lon="-3.97218500263989">
        <ele>752.79999999999995</ele>
        <time>2003-04-17T11:33:50Z</time>
      </trkpt>
      <trkpt lat="31.227146973833442" lon="-3.972348030656576">
        <ele>753.39999999999998</ele>
        <time>2003-04-17T11:33:52Z</time>
      </trkpt>
      <trkpt lat="31.227300027385354" lon="-3.972447020933032">
        <ele>753.10000000000002</ele>
        <time>2003-04-17T11:33:54Z</time>
      </trkpt>
      <trkpt lat="31.227403040975332" lon="-3.972582975402474">
        <ele>753</ele>
        <time>2003-04-17T11:33:55Z</time>
      </trkpt>
      <trkpt lat="31.227545030415058" lon="-3.972756983712316">
        <ele>752.89999999999998</ele>
        <time>2003-04-17T11:33:59Z</time>
      </trkpt>
      <trkpt lat="31.227758014574647" lon="-3.972797971218824">
        <ele>753</ele>
        <time>2003-04-17T11:34:02Z</time>
      </trkpt>
      <trkpt lat="31.22789204120636" lon="-3.972886987030506">
        <ele>752.29999999999995</ele>
        <time>2003-04-17T11:34:03Z</time>
      </trkpt>
      <trkpt lat="31.228081975132227" lon="-3.973031993955374">
        <ele>752.60000000000002</ele>
        <time>2003-04-17T11:34:07Z</time>
      </trkpt>
      <trkpt lat="31.228277022019029" lon="-3.973184963688254">
        <ele>751.79999999999995</ele>
        <time>2003-04-17T11:34:10Z</time>
      </trkpt>
      <trkpt lat="31.228433009237051" lon="-3.973370036110282">
        <ele>752.79999999999995</ele>
        <time>2003-04-17T11:34:12Z</time>
      </trkpt>
      <trkpt lat="31.228465028107166" lon="-3.973532980307937">
        <ele>752.79999999999995</ele>
        <time>2003-04-17T11:34:15Z</time>
      </trkpt>
      <trkpt lat="31.228562006726861" lon="-3.97366700693965">
        <ele>752.70000000000005</ele>
        <time>2003-04-17T11:34:17Z</time>
      </trkpt>
      <trkpt lat="31.228708019480109" lon="-3.973731966689229">
        <ele>753.29999999999995</ele>
        <time>2003-04-17T11:34:19Z</time>
      </trkpt>
      <trkpt lat="31.228814972564578" lon="-3.973858030512929">
        <ele>752.60000000000002</ele>
        <time>2003-04-17T11:34:21Z</time>
      </trkpt>
      <trkpt lat="31.228961991146207" lon="-3.973970012739301">
        <ele>752.70000000000005</ele>
        <time>2003-04-17T11:34:22Z</time>
      </trkpt>
      <trkpt lat="31.22911999002099" lon="-3.974007982760668">
        <ele>752.89999999999998</ele>
        <time>2003-04-17T11:34:25Z</time>
      </trkpt>
      <trkpt lat="31.229246975854039" lon="-3.97409699857235">
        <ele>752.29999999999995</ele>
        <time>2003-04-17T11:34:26Z</time>
      </trkpt>
      <trkpt lat="31.229387037456036" lon="-3.974300008267164">
        <ele>753</ele>
        <time>2003-04-17T11:34:30Z</time>
      </trkpt>
      <trkpt lat="31.229457026347518" lon="-3.974522966891527">
        <ele>753.29999999999995</ele>
        <time>2003-04-17T11:34:33Z</time>
      </trkpt>
      <trkpt lat="31.229537995532155" lon="-3.974635032936931">
        <ele>753.20000000000005</ele>
        <time>2003-04-17T11:34:34Z</time>
      </trkpt>
      <trkpt lat="31.229621982201934" lon="-3.974769981577992">
        <ele>753</ele>
        <time>2003-04-17T11:34:37Z</time>
      </trkpt>
      <trkpt lat="31.229734970256686" lon="-3.974918005988002">
        <ele>753.20000000000005</ele>
        <time>2003-04-17T11:34:38Z</time>
      </trkpt>
      <trkpt lat="31.229862039908767" lon="-3.975041974335909">
        <ele>753.20000000000005</ele>
        <time>2003-04-17T11:34:41Z</time>
      </trkpt>
      <trkpt lat="31.229922976344824" lon="-3.975186981260777">
        <ele>753.20000000000005</ele>
        <time>2003-04-17T11:34:42Z</time>
      </trkpt>
      <trkpt lat="31.229903027415276" lon="-3.975340034812689">
        <ele>753.10000000000002</ele>
        <time>2003-04-17T11:34:45Z</time>
      </trkpt>
      <trkpt lat="31.229958012700081" lon="-3.975474983453751">
        <ele>753.5</ele>
        <time>2003-04-17T11:34:46Z</time>
      </trkpt>
      <trkpt lat="31.230049962177873" lon="-3.97558000870049">
        <ele>753.20000000000005</ele>
        <time>2003-04-17T11:34:49Z</time>
      </trkpt>
      <trkpt lat="31.230137972161174" lon="-3.975692996755242">
        <ele>753.29999999999995</ele>
        <time>2003-04-17T11:34:50Z</time>
      </trkpt>
      <trkpt lat="31.230190023779869" lon="-3.975964989513159">
        <ele>753.5</ele>
        <time>2003-04-17T11:34:53Z</time>
      </trkpt>
      <trkpt lat="31.230181977152824" lon="-3.976125000044704">
        <ele>753.60000000000002</ele>
        <time>2003-04-17T11:34:56Z</time>
      </trkpt>
      <trkpt lat="31.230130009353161" lon="-3.976275036111474">
        <ele>753.5</ele>
        <time>2003-04-17T11:34:57Z</time>
      </trkpt>
      <trkpt lat="31.230048034340143" lon="-3.976409984752536">
        <ele>753.10000000000002</ele>
        <time>2003-04-17T11:35:00Z</time>
      </trkpt>
      <trkpt lat="31.229902021586895" lon="-3.976720031350851">
        <ele>754.10000000000002</ele>
        <time>2003-04-17T11:35:04Z</time>
      </trkpt>
      <trkpt lat="31.229915013536811" lon="-3.976907031610608">
        <ele>752.20000000000005</ele>
        <time>2003-04-17T11:35:05Z</time>
      </trkpt>
      <trkpt lat="31.229900009930134" lon="-3.977066958323121">
        <ele>752</ele>
        <time>2003-04-17T11:35:08Z</time>
      </trkpt>
      <trkpt lat="31.229903027415276" lon="-3.977239960804582">
        <ele>752.79999999999995</ele>
        <time>2003-04-17T11:35:09Z</time>
      </trkpt>
      <trkpt lat="31.230006963014603" lon="-3.977580014616251">
        <ele>751.70000000000005</ele>
        <time>2003-04-17T11:35:13Z</time>
      </trkpt>
      <trkpt lat="31.23010503128171" lon="-3.977677999064326">
        <ele>752.10000000000002</ele>
        <time>2003-04-17T11:35:16Z</time>
      </trkpt>
      <trkpt lat="31.230230005457997" lon="-3.97774999961257">
        <ele>756.60000000000002</ele>
        <time>2003-04-17T11:54:52Z</time>
      </trkpt>
      <trkpt lat="31.230354979634285" lon="-3.977762991562486">
        <ele>756.29999999999995</ele>
        <time>2003-04-17T11:54:54Z</time>
      </trkpt>
      <trkpt lat="31.230477020144463" lon="-3.977752011269331">
        <ele>756.29999999999995</ele>
        <time>2003-04-17T11:54:57Z</time>
      </trkpt>
      <trkpt lat="31.230835011228919" lon="-3.977714963257313">
        <ele>755.89999999999998</ele>
        <time>2003-04-17T11:55:04Z</time>
      </trkpt>
      <trkpt lat="31.2310950178653" lon="-3.977693002671003">
        <ele>755.60000000000002</ele>
        <time>2003-04-17T11:55:08Z</time>
      </trkpt>
      <trkpt lat="31.231636991724372" lon="-3.977717980742455">
        <ele>755.89999999999998</ele>
        <time>2003-04-17T11:55:16Z</time>
      </trkpt>
      <trkpt lat="31.23186799697578" lon="-3.977697025984526">
        <ele>756</ele>
        <time>2003-04-17T11:55:19Z</time>
      </trkpt>
      <trkpt lat="31.232811966910958" lon="-3.977487981319428">
        <ele>753.20000000000005</ele>
        <time>2003-04-17T11:55:31Z</time>
      </trkpt>
      <trkpt lat="31.233112039044499" lon="-3.977423021569848">
        <ele>751.79999999999995</ele>
        <time>2003-04-17T11:55:35Z</time>
      </trkpt>
      <trkpt lat="31.23322200961411" lon="-3.977402988821268">
        <ele>750.70000000000005</ele>
        <time>2003-04-17T11:55:36Z</time>
      </trkpt>
      <trkpt lat="31.233359975740314" lon="-3.977387985214591">
        <ele>750.60000000000002</ele>
        <time>2003-04-17T11:55:39Z</time>
      </trkpt>
      <trkpt lat="31.233485033735633" lon="-3.977377004921436">
        <ele>750.5</ele>
        <time>2003-04-17T11:55:43Z</time>
      </trkpt>
      <trkpt lat="31.233630040660501" lon="-3.97736300714314">
        <ele>750.5</ele>
        <time>2003-04-17T11:55:57Z</time>
      </trkpt>
      <trkpt lat="31.233773035928607" lon="-3.977337023243308">
        <ele>751.10000000000002</ele>
        <time>2003-04-17T11:55:58Z</time>
      </trkpt>
      <trkpt lat="31.234012003988028" lon="-3.977280026301742">
        <ele>751.79999999999995</ele>
        <time>2003-04-17T11:56:02Z</time>
      </trkpt>
      <trkpt lat="31.234435038641095" lon="-3.977157985791564">
        <ele>753</ele>
        <time>2003-04-17T11:56:06Z</time>
      </trkpt>
      <trkpt lat="31.234548026695848" lon="-3.977124961093068">
        <ele>754</ele>
        <time>2003-04-17T11:56:10Z</time>
      </trkpt>
      <trkpt lat="31.23468498699367" lon="-3.977092020213604">
        <ele>754.5</ele>
        <time>2003-04-17T11:56:11Z</time>
      </trkpt>
      <trkpt lat="31.234852038323879" lon="-3.97706201300025">
        <ele>755.10000000000002</ele>
        <time>2003-04-17T11:56:14Z</time>
      </trkpt>
      <trkpt lat="31.235764995217323" lon="-3.976984983310103">
        <ele>757.29999999999995</ele>
        <time>2003-04-17T11:56:25Z</time>
      </trkpt>
      <trkpt lat="31.235925005748868" lon="-3.976990012452006">
        <ele>757.70000000000005</ele>
        <time>2003-04-17T11:56:28Z</time>
      </trkpt>
      <trkpt lat="31.236276961863041" lon="-3.976984983310103">
        <ele>757.89999999999998</ele>
        <time>2003-04-17T11:56:32Z</time>
      </trkpt>
      <trkpt lat="31.236422974616289" lon="-3.977037034928799">
        <ele>759</ele>
        <time>2003-04-17T11:56:33Z</time>
      </trkpt>
      <trkpt lat="31.23657301068306" lon="-3.977138036862016">
        <ele>759.60000000000002</ele>
        <time>2003-04-17T11:56:36Z</time>
      </trkpt>
      <trkpt lat="31.236802004277706" lon="-3.977362001314759">
        <ele>760</ele>
        <time>2003-04-17T11:56:38Z</time>
      </trkpt>
      <trkpt lat="31.236962014809251" lon="-3.977608010172844">
        <ele>760.79999999999995</ele>
        <time>2003-04-17T11:56:41Z</time>
      </trkpt>
      <trkpt lat="31.237081959843636" lon="-3.977780006825924">
        <ele>760.29999999999995</ele>
        <time>2003-04-17T11:56:44Z</time>
      </trkpt>
      <trkpt lat="31.237239958718419" lon="-3.977916967123747">
        <ele>759.5</ele>
        <time>2003-04-17T11:56:45Z</time>
      </trkpt>
      <trkpt lat="31.237983014434576" lon="-3.978515015915036">
        <ele>762.10000000000002</ele>
        <time>2003-04-17T11:56:56Z</time>
      </trkpt>
      <trkpt lat="31.238137995824218" lon="-3.978620041161776">
        <ele>762.39999999999998</ele>
        <time>2003-04-17T11:56:57Z</time>
      </trkpt>
      <trkpt lat="31.238758005201817" lon="-3.979071993380785">
        <ele>762.70000000000005</ele>
        <time>2003-04-17T11:57:05Z</time>
      </trkpt>
      <trkpt lat="31.238815002143383" lon="-3.979157991707325">
        <ele>762.20000000000005</ele>
        <time>2003-04-17T11:57:07Z</time>
      </trkpt>
      <trkpt lat="31.238935030996799" lon="-3.979323031380773">
        <ele>762.70000000000005</ele>
        <time>2003-04-17T11:57:08Z</time>
      </trkpt>
      <trkpt lat="31.23947499319911" lon="-3.979887971654534">
        <ele>768.29999999999995</ele>
        <time>2003-04-17T11:57:16Z</time>
      </trkpt>
      <trkpt lat="31.239610025659204" lon="-3.979882020503283">
        <ele>766.20000000000005</ele>
        <time>2003-04-17T11:57:19Z</time>
      </trkpt>
      <trkpt lat="31.239738017320633" lon="-3.979927031323314">
        <ele>765.39999999999998</ele>
        <time>2003-04-17T11:57:22Z</time>
      </trkpt>
      <trkpt lat="31.239959970116615" lon="-3.979991991072893">
        <ele>763.79999999999995</ele>
        <time>2003-04-17T11:57:24Z</time>
      </trkpt>
      <trkpt lat="31.240272028371692" lon="-3.980176979675889">
        <ele>762.20000000000005</ele>
        <time>2003-04-17T11:57:28Z</time>
      </trkpt>
      <trkpt lat="31.240394990891218" lon="-3.980313017964363">
        <ele>761.79999999999995</ele>
        <time>2003-04-17T11:57:31Z</time>
      </trkpt>
      <trkpt lat="31.240561958402395" lon="-3.980487026274204">
        <ele>762.20000000000005</ele>
        <time>2003-04-17T11:57:34Z</time>
      </trkpt>
      <trkpt lat="31.240745019167662" lon="-3.980696992948651">
        <ele>761.5</ele>
        <time>2003-04-17T11:57:38Z</time>
      </trkpt>
      <trkpt lat="31.240820037201047" lon="-3.980832025408745">
        <ele>761.10000000000002</ele>
        <time>2003-04-17T11:57:39Z</time>
      </trkpt>
      <trkpt lat="31.24102002941072" lon="-3.981199990957975">
        <ele>759.70000000000005</ele>
        <time>2003-04-17T11:57:45Z</time>
      </trkpt>
      <trkpt lat="31.241218009963632" lon="-3.981495033949614">
        <ele>760.20000000000005</ele>
        <time>2003-04-17T11:57:49Z</time>
      </trkpt>
      <trkpt lat="31.241842964664102" lon="-3.982147984206677">
        <ele>761.60000000000002</ele>
        <time>2003-04-17T11:57:58Z</time>
      </trkpt>
      <trkpt lat="31.241980008780956" lon="-3.982289973646402">
        <ele>762.29999999999995</ele>
        <time>2003-04-17T11:57:59Z</time>
      </trkpt>
      <trkpt lat="31.242091991007328" lon="-3.982464987784624">
        <ele>761.5</ele>
        <time>2003-04-17T11:58:02Z</time>
      </trkpt>
      <trkpt lat="31.242212019860744" lon="-3.982752989977598">
        <ele>762.60000000000002</ele>
        <time>2003-04-17T11:58:05Z</time>
      </trkpt>
      <trkpt lat="31.242379993200302" lon="-3.983397977426648">
        <ele>761.89999999999998</ele>
        <time>2003-04-17T11:58:10Z</time>
      </trkpt>
      <trkpt lat="31.24244000762701" lon="-3.983799973502755">
        <ele>761.60000000000002</ele>
        <time>2003-04-17T11:58:14Z</time>
      </trkpt>
      <trkpt lat="31.242622984573245" lon="-3.98456197232008">
        <ele>759.70000000000005</ele>
        <time>2003-04-17T11:58:22Z</time>
      </trkpt>
      <trkpt lat="31.242747958749533" lon="-3.985085003077984">
        <ele>760.39999999999998</ele>
        <time>2003-04-17T11:58:29Z</time>
      </trkpt>
      <trkpt lat="31.242839992046356" lon="-3.98524702526629">
        <ele>761</ele>
        <time>2003-04-17T11:58:30Z</time>
      </trkpt>
      <trkpt lat="31.243263026699424" lon="-3.986097034066916">
        <ele>759.20000000000005</ele>
        <time>2003-04-17T11:58:40Z</time>
      </trkpt>
      <trkpt lat="31.243563015013933" lon="-3.986918041482568">
        <ele>758.70000000000005</ele>
        <time>2003-04-17T11:58:49Z</time>
      </trkpt>
      <trkpt lat="31.243756972253323" lon="-3.987907022237778">
        <ele>759.10000000000002</ele>
        <time>2003-04-17T11:58:59Z</time>
      </trkpt>
      <trkpt lat="31.243869960308075" lon="-3.988399961963296">
        <ele>759.10000000000002</ele>
        <time>2003-04-17T11:59:03Z</time>
      </trkpt>
      <trkpt lat="31.243968028575182" lon="-3.988610012456775">
        <ele>759</ele>
        <time>2003-04-17T11:59:04Z</time>
      </trkpt>
      <trkpt lat="31.24418000690639" lon="-3.988952999934554">
        <ele>758.89999999999998</ele>
        <time>2003-04-17T11:59:08Z</time>
      </trkpt>
      <trkpt lat="31.244498016312718" lon="-3.989479970186949">
        <ele>759</ele>
        <time>2003-04-17T11:59:15Z</time>
      </trkpt>
      <trkpt lat="31.244703037664294" lon="-3.989737965166569">
        <ele>759</ele>
        <time>2003-04-17T11:59:18Z</time>
      </trkpt>
      <trkpt lat="31.245465036481619" lon="-3.990416983142495">
        <ele>759.60000000000002</ele>
        <time>2003-04-17T11:59:27Z</time>
      </trkpt>
      <trkpt lat="31.245795032009482" lon="-3.990744967013598">
        <ele>759.70000000000005</ele>
        <time>2003-04-17T11:59:31Z</time>
      </trkpt>
      <trkpt lat="31.246131984516978" lon="-3.99122198112309">
        <ele>759.79999999999995</ele>
        <time>2003-04-17T11:59:35Z</time>
      </trkpt>
      <trkpt lat="31.246295012533665" lon="-3.991472013294697">
        <ele>760</ele>
        <time>2003-04-17T11:59:38Z</time>
      </trkpt>
      <trkpt lat="31.246497016400099" lon="-3.991657001897693">
        <ele>760.10000000000002</ele>
        <time>2003-04-17T11:59:42Z</time>
      </trkpt>
      <trkpt lat="31.246659960597754" lon="-3.991750041022897">
        <ele>760.10000000000002</ele>
        <time>2003-04-17T11:59:43Z</time>
      </trkpt>
      <trkpt lat="31.246937988325953" lon="-3.991914996877313">
        <ele>760.60000000000002</ele>
        <time>2003-04-17T11:59:47Z</time>
      </trkpt>
      <trkpt lat="31.247073020786047" lon="-3.992054974660277">
        <ele>760.20000000000005</ele>
        <time>2003-04-17T11:59:50Z</time>
      </trkpt>
      <trkpt lat="31.2471669819206" lon="-3.99212303571403">
        <ele>760.39999999999998</ele>
        <time>2003-04-17T11:59:53Z</time>
      </trkpt>
      <trkpt lat="31.24727301299572" lon="-3.992135021835566">
        <ele>760.79999999999995</ele>
        <time>2003-04-17T11:59:54Z</time>
      </trkpt>
      <trkpt lat="31.24750804156065" lon="-3.992196964100003">
        <ele>760.70000000000005</ele>
        <time>2003-04-17T11:59:58Z</time>
      </trkpt>
      <trkpt lat="31.247612982988358" lon="-3.992247004061937">
        <ele>760.39999999999998</ele>
        <time>2003-04-17T12:00:01Z</time>
      </trkpt>
      <trkpt lat="31.247723037377" lon="-3.992347000166774">
        <ele>760.5</ele>
        <time>2003-04-17T12:00:02Z</time>
      </trkpt>
      <trkpt lat="31.247920012101531" lon="-3.99253299459815">
        <ele>760.79999999999995</ele>
        <time>2003-04-17T12:00:06Z</time>
      </trkpt>
      <trkpt lat="31.248041968792677" lon="-3.992584962397814">
        <ele>760.39999999999998</ele>
        <time>2003-04-17T12:00:09Z</time>
      </trkpt>
      <trkpt lat="31.248195022344589" lon="-3.992612035945058">
        <ele>760.60000000000002</ele>
        <time>2003-04-17T12:00:10Z</time>
      </trkpt>
      <trkpt lat="31.24862702563405" lon="-3.992674984037876">
        <ele>760.79999999999995</ele>
        <time>2003-04-17T12:00:16Z</time>
      </trkpt>
      <trkpt lat="31.248819977045059" lon="-3.992687975987792">
        <ele>760.89999999999998</ele>
        <time>2003-04-17T12:00:17Z</time>
      </trkpt>
      <trkpt lat="31.249532019719481" lon="-3.992616981267929">
        <ele>761.20000000000005</ele>
        <time>2003-04-17T12:00:25Z</time>
      </trkpt>
      <trkpt lat="31.249999981373549" lon="-3.992504999041557">
        <ele>761.39999999999998</ele>
        <time>2003-04-17T12:00:28Z</time>
      </trkpt>
      <trkpt lat="31.25038999132812" lon="-3.992310035973787">
        <ele>761.89999999999998</ele>
        <time>2003-04-17T12:00:32Z</time>
      </trkpt>
      <trkpt lat="31.250967001542449" lon="-3.992037959396839">
        <ele>761.29999999999995</ele>
        <time>2003-04-17T12:00:36Z</time>
      </trkpt>
      <trkpt lat="31.251879958435893" lon="-3.991696983575821">
        <ele>761.29999999999995</ele>
        <time>2003-04-17T12:00:41Z</time>
      </trkpt>
      <trkpt lat="31.252762991935015" lon="-3.99137201718986">
        <ele>761.39999999999998</ele>
        <time>2003-04-17T12:00:48Z</time>
      </trkpt>
      <trkpt lat="31.253696987405419" lon="-3.991117039695382">
        <ele>762.10000000000002</ele>
        <time>2003-04-17T12:00:54Z</time>
      </trkpt>
      <trkpt lat="31.254699965938926" lon="-3.99096499197185">
        <ele>762</ele>
        <time>2003-04-17T12:01:00Z</time>
      </trkpt>
      <trkpt lat="31.255722977221012" lon="-3.990897014737129">
        <ele>762.39999999999998</ele>
        <time>2003-04-17T12:01:08Z</time>
      </trkpt>
      <trkpt lat="31.256542978808284" lon="-3.990989970043302">
        <ele>762.70000000000005</ele>
        <time>2003-04-17T12:01:15Z</time>
      </trkpt>
      <trkpt lat="31.257552998140454" lon="-3.991251988336444">
        <ele>763.39999999999998</ele>
        <time>2003-04-17T12:01:22Z</time>
      </trkpt>
      <trkpt lat="31.258480036631227" lon="-3.991472013294697">
        <ele>763.79999999999995</ele>
        <time>2003-04-17T12:01:27Z</time>
      </trkpt>
      <trkpt lat="31.259468011558056" lon="-3.991648033261299">
        <ele>763.89999999999998</ele>
        <time>2003-04-17T12:01:34Z</time>
      </trkpt>
      <trkpt lat="31.260473001748323" lon="-3.991860011592507">
        <ele>764.29999999999995</ele>
        <time>2003-04-17T12:01:39Z</time>
      </trkpt>
      <trkpt lat="31.261434992775321" lon="-3.992065032944083">
        <ele>765.5</ele>
        <time>2003-04-17T12:01:46Z</time>
      </trkpt>
      <trkpt lat="31.262366976588964" lon="-3.992235017940402">
        <ele>764.60000000000002</ele>
        <time>2003-04-17T12:01:52Z</time>
      </trkpt>
      <trkpt lat="31.26325998455286" lon="-3.992416989058256">
        <ele>765.70000000000005</ele>
        <time>2003-04-17T12:01:57Z</time>
      </trkpt>
      <trkpt lat="31.264155004173517" lon="-3.992540035396814">
        <ele>766.20000000000005</ele>
        <time>2003-04-17T12:02:04Z</time>
      </trkpt>
      <trkpt lat="31.2651920132339" lon="-3.992653023451567">
        <ele>766.60000000000002</ele>
        <time>2003-04-17T12:02:11Z</time>
      </trkpt>
      <trkpt lat="31.266107987612486" lon="-3.992753019556403">
        <ele>766.70000000000005</ele>
        <time>2003-04-17T12:02:16Z</time>
      </trkpt>
      <trkpt lat="31.266411999240518" lon="-3.992838012054563">
        <ele>767</ele>
        <time>2003-04-17T12:02:20Z</time>
      </trkpt>
      <trkpt lat="31.26732001081109" lon="-3.993132971227169">
        <ele>767.5</ele>
        <time>2003-04-17T12:02:25Z</time>
      </trkpt>
      <trkpt lat="31.267808005213737" lon="-3.99319801479578">
        <ele>767.29999999999995</ele>
        <time>2003-04-17T12:02:28Z</time>
      </trkpt>
      <trkpt lat="31.268464978784323" lon="-3.993228022009134">
        <ele>767.10000000000002</ele>
        <time>2003-04-17T12:02:32Z</time>
      </trkpt>
      <trkpt lat="31.269410038366914" lon="-3.993128025904298">
        <ele>767.39999999999998</ele>
        <time>2003-04-17T12:02:39Z</time>
      </trkpt>
      <trkpt lat="31.270452998578548" lon="-3.992985030636191">
        <ele>767.79999999999995</ele>
        <time>2003-04-17T12:02:46Z</time>
      </trkpt>
      <trkpt lat="31.271390011534095" lon="-3.992871958762407">
        <ele>767.79999999999995</ele>
        <time>2003-04-17T12:02:51Z</time>
      </trkpt>
      <trkpt lat="31.271871970966458" lon="-3.992857038974762">
        <ele>768.20000000000005</ele>
        <time>2003-04-17T12:02:55Z</time>
      </trkpt>
      <trkpt lat="31.272198026999831" lon="-3.992857038974762">
        <ele>768.20000000000005</ele>
        <time>2003-04-17T12:02:56Z</time>
      </trkpt>
      <trkpt lat="31.272664982825518" lon="-3.992838012054563">
        <ele>768.5</ele>
        <time>2003-04-17T12:02:59Z</time>
      </trkpt>
      <trkpt lat="31.27294996753335" lon="-3.992895008996129">
        <ele>768.79999999999995</ele>
        <time>2003-04-17T12:03:02Z</time>
      </trkpt>
      <trkpt lat="31.273596966639161" lon="-3.993107993155718">
        <ele>769.70000000000005</ele>
        <time>2003-04-17T12:03:07Z</time>
      </trkpt>
      <trkpt lat="31.274476982653141" lon="-3.993400018662214">
        <ele>769.5</ele>
        <time>2003-04-17T12:03:14Z</time>
      </trkpt>
      <trkpt lat="31.275496976450086" lon="-3.993562962859869">
        <ele>770.10000000000002</ele>
        <time>2003-04-17T12:03:21Z</time>
      </trkpt>
      <trkpt lat="31.276334999129176" lon="-3.993621971458197">
        <ele>771.10000000000002</ele>
        <time>2003-04-17T12:03:26Z</time>
      </trkpt>
      <trkpt lat="31.276562986895442" lon="-3.99356204085052">
        <ele>771.29999999999995</ele>
        <time>2003-04-17T12:03:29Z</time>
      </trkpt>
      <trkpt lat="31.276679998263717" lon="-3.993534967303276">
        <ele>771</ele>
        <time>2003-04-17T12:03:30Z</time>
      </trkpt>
      <trkpt lat="31.276798015460372" lon="-3.993449974805117">
        <ele>770.79999999999995</ele>
        <time>2003-04-17T12:03:30Z</time>
      </trkpt>
      <trkpt lat="31.27692298963666" lon="-3.993387026712298">
        <ele>771.39999999999998</ele>
        <time>2003-04-17T12:03:32Z</time>
      </trkpt>
      <trkpt lat="31.277275029569864" lon="-3.993167001754046">
        <ele>771.79999999999995</ele>
        <time>2003-04-17T12:03:34Z</time>
      </trkpt>
      <trkpt lat="31.277593038976192" lon="-3.992900038138032">
        <ele>772.10000000000002</ele>
        <time>2003-04-17T12:03:37Z</time>
      </trkpt>
      <trkpt lat="31.277860002592206" lon="-3.992593009024859">
        <ele>772</ele>
        <time>2003-04-17T12:03:41Z</time>
      </trkpt>
      <trkpt lat="31.278029987588525" lon="-3.992269970476627">
        <ele>771.60000000000002</ele>
        <time>2003-04-17T12:03:44Z</time>
      </trkpt>
      <trkpt lat="31.278123026713729" lon="-3.9920399710536">
        <ele>771.60000000000002</ele>
        <time>2003-04-17T12:03:45Z</time>
      </trkpt>
      <trkpt lat="31.278295023366809" lon="-3.991349972784519">
        <ele>771.29999999999995</ele>
        <time>2003-04-17T12:03:50Z</time>
      </trkpt>
      <trkpt lat="31.278380015864968" lon="-3.99124301970005">
        <ele>771.10000000000002</ele>
        <time>2003-04-17T12:03:52Z</time>
      </trkpt>
      <trkpt lat="31.27855503000319" lon="-3.991074962541461">
        <ele>771.20000000000005</ele>
        <time>2003-04-17T12:03:53Z</time>
      </trkpt>
      <trkpt lat="31.278961971402168" lon="-3.990670032799244">
        <ele>771.5</ele>
        <time>2003-04-17T12:03:59Z</time>
      </trkpt>
      <trkpt lat="31.279002036899328" lon="-3.990565007552505">
        <ele>771.5</ele>
        <time>2003-04-17T12:04:00Z</time>
      </trkpt>
      <trkpt lat="31.27902802079916" lon="-3.990452019497752">
        <ele>771.60000000000002</ele>
        <time>2003-04-17T12:04:01Z</time>
      </trkpt>
      <trkpt lat="31.279036989435554" lon="-3.990327967330813">
        <ele>771.5</ele>
        <time>2003-04-17T12:04:01Z</time>
      </trkpt>
      <trkpt lat="31.279017040506005" lon="-3.989539984613657">
        <ele>770.89999999999998</ele>
        <time>2003-04-17T12:04:08Z</time>
      </trkpt>
      <trkpt lat="31.279021985828876" lon="-3.988966997712851">
        <ele>770.29999999999995</ele>
        <time>2003-04-17T12:04:12Z</time>
      </trkpt>
      <trkpt lat="31.279072025790811" lon="-3.988701961934567">
        <ele>770</ele>
        <time>2003-04-17T12:04:13Z</time>
      </trkpt>
      <trkpt lat="31.279109995812178" lon="-3.988462993875146">
        <ele>769.89999999999998</ele>
        <time>2003-04-17T12:04:16Z</time>
      </trkpt>
      <trkpt lat="31.279100021347404" lon="-3.988227965310216">
        <ele>770</ele>
        <time>2003-04-17T12:04:17Z</time>
      </trkpt>
      <trkpt lat="31.279098009690642" lon="-3.987717004492879">
        <ele>769.5</ele>
        <time>2003-04-17T12:04:23Z</time>
      </trkpt>
      <trkpt lat="31.27913698554039" lon="-3.987390026450157">
        <ele>767.39999999999998</ele>
        <time>2003-04-17T12:04:27Z</time>
      </trkpt>
      <trkpt lat="31.27913698554039" lon="-3.987264968454838">
        <ele>767.29999999999995</ele>
        <time>2003-04-17T12:04:28Z</time>
      </trkpt>
      <trkpt lat="31.279115024954081" lon="-3.987105041742325">
        <ele>766.70000000000005</ele>
        <time>2003-04-17T12:04:31Z</time>
      </trkpt>
      <trkpt lat="31.279055010527372" lon="-3.986873030662537">
        <ele>766.60000000000002</ele>
        <time>2003-04-17T12:04:34Z</time>
      </trkpt>
      <trkpt lat="31.278961971402168" lon="-3.986677983775735">
        <ele>766.70000000000005</ele>
        <time>2003-04-17T12:04:36Z</time>
      </trkpt>
      <trkpt lat="31.278892988339067" lon="-3.98655803874135">
        <ele>766.89999999999998</ele>
        <time>2003-04-17T12:04:39Z</time>
      </trkpt>
      <trkpt lat="31.278842026367784" lon="-3.986425017938018">
        <ele>766.70000000000005</ele>
        <time>2003-04-17T12:04:43Z</time>
      </trkpt>
      <trkpt lat="31.278704982250929" lon="-3.985980022698641">
        <ele>766.70000000000005</ele>
        <time>2003-04-17T12:04:51Z</time>
      </trkpt>
      <trkpt lat="31.278780000284314" lon="-3.985908022150397">
        <ele>766.60000000000002</ele>
        <time>2003-04-17T12:04:55Z</time>
      </trkpt>
      <trkpt lat="31.278940010815859" lon="-3.985899975523353">
        <ele>766.70000000000005</ele>
        <time>2003-04-17T12:05:02Z</time>
      </trkpt>
      <trkpt lat="31.279066996648908" lon="-3.985916990786791">
        <ele>766.79999999999995</ele>
        <time>2003-04-17T12:05:05Z</time>
      </trkpt>
      <trkpt lat="31.279191970825195" lon="-3.985923025757074">
        <ele>767</ele>
        <time>2003-04-17T12:05:07Z</time>
      </trkpt>
      <trkpt lat="31.279290039092302" lon="-3.985942974686623">
        <ele>767.10000000000002</ele>
        <time>2003-04-17T12:05:10Z</time>
      </trkpt>
      <trkpt lat="31.279506962746382" lon="-3.985992008820176">
        <ele>767.20000000000005</ele>
        <time>2003-04-17T12:05:14Z</time>
      </trkpt>
      <trkpt lat="31.279633026570082" lon="-3.985971976071596">
        <ele>767.5</ele>
        <time>2003-04-17T12:05:15Z</time>
      </trkpt>
      <trkpt lat="31.279784990474582" lon="-3.985925037413836">
        <ele>767.60000000000002</ele>
        <time>2003-04-17T12:05:18Z</time>
      </trkpt>
      <trkpt lat="31.279948018491268" lon="-3.98585001938045">
        <ele>767.79999999999995</ele>
        <time>2003-04-17T12:05:20Z</time>
      </trkpt>
      <trkpt lat="31.280761985108256" lon="-3.985456991940737">
        <ele>768.70000000000005</ele>
        <time>2003-04-17T12:05:29Z</time>
      </trkpt>
      <trkpt lat="31.28094001673162" lon="-3.985397983342409">
        <ele>768.60000000000002</ele>
        <time>2003-04-17T12:05:32Z</time>
      </trkpt>
      <trkpt lat="31.281373025849462" lon="-3.985237972810864">
        <ele>769.29999999999995</ele>
        <time>2003-04-17T12:05:37Z</time>
      </trkpt>
      <trkpt lat="31.28145701251924" lon="-3.985192961990833">
        <ele>769.29999999999995</ele>
        <time>2003-04-17T12:05:37Z</time>
      </trkpt>
      <trkpt lat="31.282356977462769" lon="-3.984715025871992">
        <ele>770</ele>
        <time>2003-04-17T12:05:49Z</time>
      </trkpt>
      <trkpt lat="31.283168010413647" lon="-3.984193000942469">
        <ele>770.60000000000002</ele>
        <time>2003-04-17T12:05:57Z</time>
      </trkpt>
      <trkpt lat="31.283762035891414" lon="-3.983840038999915">
        <ele>771.10000000000002</ele>
        <time>2003-04-17T12:06:04Z</time>
      </trkpt>
      <trkpt lat="31.283997986465693" lon="-3.983714981004596">
        <ele>771.10000000000002</ele>
        <time>2003-04-17T12:06:07Z</time>
      </trkpt>
      <trkpt lat="31.284396965056658" lon="-3.983496967703104">
        <ele>771.20000000000005</ele>
        <time>2003-04-17T12:06:12Z</time>
      </trkpt>
      <trkpt lat="31.284667029976845" lon="-3.983375011011958">
        <ele>771.29999999999995</ele>
        <time>2003-04-17T12:06:16Z</time>
      </trkpt>
      <trkpt lat="31.284853024408221" lon="-3.983287001028657">
        <ele>771.29999999999995</ele>
        <time>2003-04-17T12:06:19Z</time>
      </trkpt>
      <trkpt lat="31.285022003576159" lon="-3.983190022408962">
        <ele>771.5</ele>
        <time>2003-04-17T12:06:22Z</time>
      </trkpt>
      <trkpt lat="31.285513015463948" lon="-3.982962034642696">
        <ele>771.70000000000005</ele>
        <time>2003-04-17T12:06:31Z</time>
      </trkpt>
      <trkpt lat="31.285637989640236" lon="-3.982921969145536">
        <ele>771.79999999999995</ele>
        <time>2003-04-17T12:06:32Z</time>
      </trkpt>
      <trkpt lat="31.28581996075809" lon="-3.982854997739196">
        <ele>771.79999999999995</ele>
        <time>2003-04-17T12:06:35Z</time>
      </trkpt>
      <trkpt lat="31.286277025938034" lon="-3.982624998316169">
        <ele>772</ele>
        <time>2003-04-17T12:06:45Z</time>
      </trkpt>
      <trkpt lat="31.286587994545698" lon="-3.982446966692805">
        <ele>772.10000000000002</ele>
        <time>2003-04-17T12:06:51Z</time>
      </trkpt>
      <trkpt lat="31.286687990650535" lon="-3.982391981408">
        <ele>772</ele>
        <time>2003-04-17T12:06:54Z</time>
      </trkpt>
      <trkpt lat="31.286929976195097" lon="-3.982246974483132">
        <ele>772</ele>
        <time>2003-04-17T12:07:01Z</time>
      </trkpt>
      <trkpt lat="31.287198029458523" lon="-3.982149995863438">
        <ele>771.79999999999995</ele>
        <time>2003-04-17T12:07:06Z</time>
      </trkpt>
      <trkpt lat="31.287477985024452" lon="-3.982042958959937">
        <ele>771.89999999999998</ele>
        <time>2003-04-17T12:07:10Z</time>
      </trkpt>
      <trkpt lat="31.287937983870506" lon="-3.9818100258708">
        <ele>772.20000000000005</ele>
        <time>2003-04-17T12:07:16Z</time>
      </trkpt>
      <trkpt lat="31.288106963038445" lon="-3.981782030314207">
        <ele>772.5</ele>
        <time>2003-04-17T12:07:17Z</time>
      </trkpt>
      <trkpt lat="31.2883320171386" lon="-3.98174699395895">
        <ele>773.29999999999995</ele>
        <time>2003-04-17T12:07:21Z</time>
      </trkpt>
      <trkpt lat="31.288496972993016" lon="-3.981731990352273">
        <ele>773</ele>
        <time>2003-04-17T12:07:22Z</time>
      </trkpt>
      <trkpt lat="31.288723032921553" lon="-3.981672981753945">
        <ele>772.70000000000005</ele>
        <time>2003-04-17T12:07:25Z</time>
      </trkpt>
      <trkpt lat="31.289223013445735" lon="-3.981457985937595">
        <ele>773.10000000000002</ele>
        <time>2003-04-17T12:07:33Z</time>
      </trkpt>
      <trkpt lat="31.289357040077448" lon="-3.981352038681507">
        <ele>773.20000000000005</ele>
        <time>2003-04-17T12:07:35Z</time>
      </trkpt>
      <trkpt lat="31.28959801979363" lon="-3.981203008443117">
        <ele>773.20000000000005</ele>
        <time>2003-04-17T12:07:37Z</time>
      </trkpt>
      <trkpt lat="31.289777979254723" lon="-3.981190016493201">
        <ele>773.39999999999998</ele>
        <time>2003-04-17T12:07:40Z</time>
      </trkpt>
      <trkpt lat="31.289930026978254" lon="-3.981142994016409">
        <ele>773.5</ele>
        <time>2003-04-17T12:07:41Z</time>
      </trkpt>
      <trkpt lat="31.290047038346529" lon="-3.981082979589701">
        <ele>773.5</ele>
        <time>2003-04-17T12:07:44Z</time>
      </trkpt>
      <trkpt lat="31.29017997533083" lon="-3.980948030948639">
        <ele>774.10000000000002</ele>
        <time>2003-04-17T12:07:45Z</time>
      </trkpt>
      <trkpt lat="31.290347026661038" lon="-3.980807969346643">
        <ele>774.20000000000005</ele>
        <time>2003-04-17T12:07:48Z</time>
      </trkpt>
      <trkpt lat="31.290409974753857" lon="-3.980706967413425">
        <ele>774.29999999999995</ele>
        <time>2003-04-17T12:07:48Z</time>
      </trkpt>
      <trkpt lat="31.290541989728808" lon="-3.980534970760346">
        <ele>774.20000000000005</ele>
        <time>2003-04-17T12:07:51Z</time>
      </trkpt>
      <trkpt lat="31.29062999971211" lon="-3.980489959940314">
        <ele>774.29999999999995</ele>
        <time>2003-04-17T12:07:52Z</time>
      </trkpt>
      <trkpt lat="31.290708035230637" lon="-3.980430029332638">
        <ele>773.79999999999995</ele>
        <time>2003-04-17T12:07:52Z</time>
      </trkpt>
      <trkpt lat="31.290766960009933" lon="-3.980342019349337">
        <ele>774.10000000000002</ele>
        <time>2003-04-17T12:07:53Z</time>
      </trkpt>
      <trkpt lat="31.290923031046987" lon="-3.980115037411451">
        <ele>773.70000000000005</ele>
        <time>2003-04-17T12:07:56Z</time>
      </trkpt>
      <trkpt lat="31.291050016880035" lon="-3.980067009106278">
        <ele>773.79999999999995</ele>
        <time>2003-04-17T12:07:59Z</time>
      </trkpt>
      <trkpt lat="31.291429968550801" lon="-3.979946980252862">
        <ele>773.70000000000005</ele>
        <time>2003-04-17T12:08:04Z</time>
      </trkpt>
      <trkpt lat="31.291532982140779" lon="-3.979959972202778">
        <ele>773.70000000000005</ele>
        <time>2003-04-17T12:08:07Z</time>
      </trkpt>
      <trkpt lat="31.29164001904428" lon="-3.979992996901274">
        <ele>773.79999999999995</ele>
        <time>2003-04-17T12:08:08Z</time>
      </trkpt>
      <trkpt lat="31.291742026805878" lon="-3.980015041306615">
        <ele>773.89999999999998</ele>
        <time>2003-04-17T12:08:11Z</time>
      </trkpt>
      <trkpt lat="31.291867000982165" lon="-3.979976987466216">
        <ele>773.89999999999998</ele>
        <time>2003-04-17T12:08:12Z</time>
      </trkpt>
      <trkpt lat="31.291979989036918" lon="-3.979970030486584">
        <ele>773.79999999999995</ele>
        <time>2003-04-17T12:08:15Z</time>
      </trkpt>
      <trkpt lat="31.292136982083321" lon="-3.979997020214796">
        <ele>773.79999999999995</ele>
        <time>2003-04-17T12:08:18Z</time>
      </trkpt>
      <trkpt lat="31.292324988171458" lon="-3.979989979416132">
        <ele>773.70000000000005</ele>
        <time>2003-04-17T12:08:20Z</time>
      </trkpt>
      <trkpt lat="31.292445017024875" lon="-3.979961983859539">
        <ele>773.89999999999998</ele>
        <time>2003-04-17T12:08:23Z</time>
      </trkpt>
      <trkpt lat="31.292645009234548" lon="-3.979914961382747">
        <ele>774.29999999999995</ele>
        <time>2003-04-17T12:08:27Z</time>
      </trkpt>
      <trkpt lat="31.292833015322685" lon="-3.97991999052465">
        <ele>773.79999999999995</ele>
        <time>2003-04-17T12:08:31Z</time>
      </trkpt>
      <trkpt lat="31.293011968955398" lon="-3.97985796444118">
        <ele>773.10000000000002</ele>
        <time>2003-04-17T12:08:35Z</time>
      </trkpt>
      <trkpt lat="31.293112970888615" lon="-3.979799961671233">
        <ele>773.39999999999998</ele>
        <time>2003-04-17T12:08:38Z</time>
      </trkpt>
      <trkpt lat="31.293212966993451" lon="-3.97974799387157">
        <ele>774.70000000000005</ele>
        <time>2003-04-17T12:08:42Z</time>
      </trkpt>
      <trkpt lat="31.293293014168739" lon="-3.979655038565397">
        <ele>774.60000000000002</ele>
        <time>2003-04-17T12:08:46Z</time>
      </trkpt>
      <trkpt lat="31.293272981420159" lon="-3.979527968913317">
        <ele>774.10000000000002</ele>
        <time>2003-04-17T12:08:49Z</time>
      </trkpt>
      <trkpt lat="31.293241968378425" lon="-3.979397965595126">
        <ele>774</ele>
        <time>2003-04-17T12:08:51Z</time>
      </trkpt>
      <trkpt lat="31.293220007792115" lon="-3.979293024167419">
        <ele>774.70000000000005</ele>
        <time>2003-04-17T12:08:54Z</time>
      </trkpt>
      <trkpt lat="31.293114982545376" lon="-3.97925203666091">
        <ele>774.29999999999995</ele>
        <time>2003-04-17T12:08:58Z</time>
      </trkpt>
      <trkpt lat="31.293035019189119" lon="-3.979201996698976">
        <ele>774.5</ele>
        <time>2003-04-17T12:09:01Z</time>
      </trkpt>
      <trkpt lat="31.293048011139035" lon="-3.97908004000783">
        <ele>774.29999999999995</ele>
        <time>2003-04-17T12:09:05Z</time>
      </trkpt>
      <trkpt lat="31.293112970888615" lon="-3.978992030024529">
        <ele>774.10000000000002</ele>
        <time>2003-04-17T12:09:06Z</time>
      </trkpt>
      <trkpt lat="31.293229982256889" lon="-3.978837970644236">
        <ele>775.39999999999998</ele>
        <time>2003-04-17T12:09:09Z</time>
      </trkpt>
      <trkpt lat="31.293069971725345" lon="-3.978820033371449">
        <ele>775.39999999999998</ele>
        <time>2003-04-17T12:10:23Z</time>
      </trkpt>
      <trkpt lat="31.293080030009151" lon="-3.979090014472604">
        <ele>775.79999999999995</ele>
        <time>2003-04-17T13:47:04Z</time>
      </trkpt>
      <trkpt lat="31.293059997260571" lon="-3.979199985042214">
        <ele>775.89999999999998</ele>
        <time>2003-04-17T13:47:10Z</time>
      </trkpt>
      <trkpt lat="31.293138032779098" lon="-3.979265028610826">
        <ele>776.20000000000005</ele>
        <time>2003-04-17T13:47:15Z</time>
      </trkpt>
      <trkpt lat="31.293232999742031" lon="-3.979302998632193">
        <ele>776.29999999999995</ele>
        <time>2003-04-17T13:47:19Z</time>
      </trkpt>
      <trkpt lat="31.293392004445195" lon="-3.97942503914237">
        <ele>775.70000000000005</ele>
        <time>2003-04-17T13:47:27Z</time>
      </trkpt>
      <trkpt lat="31.293478002771735" lon="-3.979380028322339">
        <ele>775.89999999999998</ele>
        <time>2003-04-17T13:47:29Z</time>
      </trkpt>
      <trkpt lat="31.293577998876572" lon="-3.979347003623843">
        <ele>776</ele>
        <time>2003-04-17T13:47:31Z</time>
      </trkpt>
      <trkpt lat="31.293677994981408" lon="-3.979357983916998">
        <ele>775.89999999999998</ele>
        <time>2003-04-17T13:47:33Z</time>
      </trkpt>
      <trkpt lat="31.293840017169714" lon="-3.979395031929016">
        <ele>775.79999999999995</ele>
        <time>2003-04-17T13:47:35Z</time>
      </trkpt>
      <trkpt lat="31.293979994952679" lon="-3.97942503914237">
        <ele>776.29999999999995</ele>
        <time>2003-04-17T13:47:38Z</time>
      </trkpt>
      <trkpt lat="31.294072028249502" lon="-3.97942503914237">
        <ele>776.39999999999998</ele>
        <time>2003-04-17T13:47:41Z</time>
      </trkpt>
      <trkpt lat="31.294187027961016" lon="-3.979429984465241">
        <ele>776.29999999999995</ele>
        <time>2003-04-17T13:47:42Z</time>
      </trkpt>
      <trkpt lat="31.294330023229122" lon="-3.979444988071919">
        <ele>776.39999999999998</ele>
        <time>2003-04-17T13:47:45Z</time>
      </trkpt>
      <trkpt lat="31.294869985431433" lon="-3.979520006105304">
        <ele>776.5</ele>
        <time>2003-04-17T13:47:51Z</time>
      </trkpt>
      <trkpt lat="31.295026978477836" lon="-3.979529980570078">
        <ele>776.29999999999995</ele>
        <time>2003-04-17T13:47:54Z</time>
      </trkpt>
      <trkpt lat="31.295196963474154" lon="-3.979546995833516">
        <ele>776.39999999999998</ele>
        <time>2003-04-17T13:47:56Z</time>
      </trkpt>
      <trkpt lat="31.29555000923574" lon="-3.979612039402127">
        <ele>776.29999999999995</ele>
        <time>2003-04-17T13:48:00Z</time>
      </trkpt>
      <trkpt lat="31.296319970861077" lon="-3.979885037988424">
        <ele>776.70000000000005</ele>
        <time>2003-04-17T13:48:09Z</time>
      </trkpt>
      <trkpt lat="31.296591963618994" lon="-3.979987967759371">
        <ele>776.89999999999998</ele>
        <time>2003-04-17T13:48:12Z</time>
      </trkpt>
      <trkpt lat="31.296757003292441" lon="-3.980055022984743">
        <ele>776.89999999999998</ele>
        <time>2003-04-17T13:48:13Z</time>
      </trkpt>
      <trkpt lat="31.296894969418645" lon="-3.980162981897593">
        <ele>777</ele>
        <time>2003-04-17T13:48:16Z</time>
      </trkpt>
      <trkpt lat="31.297129997983575" lon="-3.980340007692576">
        <ele>777</ele>
        <time>2003-04-17T13:48:18Z</time>
      </trkpt>
      <trkpt lat="31.297233011573553" lon="-3.980376971885562">
        <ele>777</ele>
        <time>2003-04-17T13:48:20Z</time>
      </trkpt>
      <trkpt lat="31.297337030991912" lon="-3.980389963835478">
        <ele>777</ele>
        <time>2003-04-17T13:48:21Z</time>
      </trkpt>
      <trkpt lat="31.297435015439987" lon="-3.980373032391071">
        <ele>777</ele>
        <time>2003-04-17T13:48:21Z</time>
      </trkpt>
      <trkpt lat="31.298089977353811" lon="-3.980274964123964">
        <ele>777.10000000000002</ele>
        <time>2003-04-17T13:48:28Z</time>
      </trkpt>
      <trkpt lat="31.298253005370498" lon="-3.980246968567371">
        <ele>777.10000000000002</ele>
        <time>2003-04-17T13:48:31Z</time>
      </trkpt>
      <trkpt lat="31.298351995646954" lon="-3.980259960517287">
        <ele>777.10000000000002</ele>
        <time>2003-04-17T13:48:32Z</time>
      </trkpt>
      <trkpt lat="31.29845199175179" lon="-3.980247974395752">
        <ele>777.10000000000002</ele>
        <time>2003-04-17T13:48:32Z</time>
      </trkpt>
      <trkpt lat="31.298643015325069" lon="-3.980251997709274">
        <ele>777.10000000000002</ele>
        <time>2003-04-17T13:48:35Z</time>
      </trkpt>
      <trkpt lat="31.298788022249937" lon="-3.980251997709274">
        <ele>777.10000000000002</ele>
        <time>2003-04-17T13:48:36Z</time>
      </trkpt>
      <trkpt lat="31.298928000032902" lon="-3.980225007981062">
        <ele>777.10000000000002</ele>
        <time>2003-04-17T13:48:39Z</time>
      </trkpt>
      <trkpt lat="31.299151964485645" lon="-3.98017798550427">
        <ele>777.20000000000005</ele>
        <time>2003-04-17T13:48:43Z</time>
      </trkpt>
      <trkpt lat="31.299554966390133" lon="-3.980080001056194">
        <ele>777.5</ele>
        <time>2003-04-17T13:48:48Z</time>
      </trkpt>
      <trkpt lat="31.300029968842864" lon="-3.979922002181411">
        <ele>777.39999999999998</ele>
        <time>2003-04-17T13:48:55Z</time>
      </trkpt>
      <trkpt lat="31.300402041524649" lon="-3.979770038276911">
        <ele>776.70000000000005</ele>
        <time>2003-04-17T13:49:00Z</time>
      </trkpt>
      <trkpt lat="31.300719967111945" lon="-3.97964003495872">
        <ele>776</ele>
        <time>2003-04-17T13:49:06Z</time>
      </trkpt>
      <trkpt lat="31.300896992906928" lon="-3.979569962248206">
        <ele>775.79999999999995</ele>
        <time>2003-04-17T13:49:08Z</time>
      </trkpt>
      <trkpt lat="31.301018027588725" lon="-3.979574991390109">
        <ele>775.60000000000002</ele>
        <time>2003-04-17T13:49:11Z</time>
      </trkpt>
      <trkpt lat="31.301164962351322" lon="-3.979578008875251">
        <ele>775.79999999999995</ele>
        <time>2003-04-17T13:49:12Z</time>
      </trkpt>
      <trkpt lat="31.301342993974686" lon="-3.9795530308038">
        <ele>775.70000000000005</ele>
        <time>2003-04-17T13:49:15Z</time>
      </trkpt>
      <trkpt lat="31.301642982289195" lon="-3.979457980021834">
        <ele>776.10000000000002</ele>
        <time>2003-04-17T13:49:18Z</time>
      </trkpt>
      <trkpt lat="31.301735015586019" lon="-3.979399977251887">
        <ele>776.20000000000005</ele>
        <time>2003-04-17T13:49:19Z</time>
      </trkpt>
      <trkpt lat="31.301887985318899" lon="-3.979267962276936">
        <ele>776.39999999999998</ele>
        <time>2003-04-17T13:49:21Z</time>
      </trkpt>
      <trkpt lat="31.301955040544271" lon="-3.979175006970763">
        <ele>776.39999999999998</ele>
        <time>2003-04-17T13:49:22Z</time>
      </trkpt>
      <trkpt lat="31.302010025829077" lon="-3.979065036401153">
        <ele>776.39999999999998</ele>
        <time>2003-04-17T13:49:22Z</time>
      </trkpt>
      <trkpt lat="31.302083032205701" lon="-3.978957999497652">
        <ele>776.70000000000005</ele>
        <time>2003-04-17T13:49:23Z</time>
      </trkpt>
      <trkpt lat="31.302346978336573" lon="-3.978662034496665">
        <ele>777.39999999999998</ele>
        <time>2003-04-17T13:49:26Z</time>
      </trkpt>
      <trkpt lat="31.302625006064773" lon="-3.978432035073638">
        <ele>777.89999999999998</ele>
        <time>2003-04-17T13:49:30Z</time>
      </trkpt>
      <trkpt lat="31.302781999111176" lon="-3.978347964584827">
        <ele>778.10000000000002</ele>
        <time>2003-04-17T13:49:31Z</time>
      </trkpt>
      <trkpt lat="31.303064972162247" lon="-3.978164987638593">
        <ele>778.10000000000002</ele>
        <time>2003-04-17T13:49:35Z</time>
      </trkpt>
      <trkpt lat="31.303367977961898" lon="-3.97783700376749">
        <ele>778.79999999999995</ele>
        <time>2003-04-17T13:49:41Z</time>
      </trkpt>
      <trkpt lat="31.303487000986934" lon="-3.977717980742455">
        <ele>779.20000000000005</ele>
        <time>2003-04-17T13:49:42Z</time>
      </trkpt>
      <trkpt lat="31.303627984598279" lon="-3.977677999064326">
        <ele>779.20000000000005</ele>
        <time>2003-04-17T13:49:45Z</time>
      </trkpt>
      <trkpt lat="31.303752036765218" lon="-3.977580014616251">
        <ele>779.20000000000005</ele>
        <time>2003-04-17T13:49:46Z</time>
      </trkpt>
      <trkpt lat="31.30388698540628" lon="-3.977482030168176">
        <ele>779</ele>
        <time>2003-04-17T13:49:49Z</time>
      </trkpt>
      <trkpt lat="31.304172975942492" lon="-3.977353032678366">
        <ele>779.89999999999998</ele>
        <time>2003-04-17T13:49:53Z</time>
      </trkpt>
      <trkpt lat="31.304304990917444" lon="-3.977326964959502">
        <ele>779.39999999999998</ele>
        <time>2003-04-17T13:49:54Z</time>
      </trkpt>
      <trkpt lat="31.30440297536552" lon="-3.977325037121773">
        <ele>779.60000000000002</ele>
        <time>2003-04-17T13:49:57Z</time>
      </trkpt>
      <trkpt lat="31.304504983127117" lon="-3.977292012423277">
        <ele>780</ele>
        <time>2003-04-17T13:49:58Z</time>
      </trkpt>
      <trkpt lat="31.304894993081689" lon="-3.977093026041985">
        <ele>781</ele>
        <time>2003-04-17T13:50:05Z</time>
      </trkpt>
      <trkpt lat="31.305533023551106" lon="-3.976712990552187">
        <ele>781.79999999999995</ele>
        <time>2003-04-17T13:50:16Z</time>
      </trkpt>
      <trkpt lat="31.305727986618876" lon="-3.976618023589253">
        <ele>782.20000000000005</ele>
        <time>2003-04-17T13:50:19Z</time>
      </trkpt>
      <trkpt lat="31.305987993255258" lon="-3.976534958928824">
        <ele>782.20000000000005</ele>
        <time>2003-04-17T13:50:23Z</time>
      </trkpt>
      <trkpt lat="31.306208018213511" lon="-3.976445021107793">
        <ele>782.10000000000002</ele>
        <time>2003-04-17T13:50:25Z</time>
      </trkpt>
      <trkpt lat="31.306527033448219" lon="-3.976237988099456">
        <ele>782</ele>
        <time>2003-04-17T13:50:29Z</time>
      </trkpt>
      <trkpt lat="31.306707998737693" lon="-3.97616196423769">
        <ele>781.70000000000005</ele>
        <time>2003-04-17T13:50:32Z</time>
      </trkpt>
      <trkpt lat="31.307617016136646" lon="-3.975887959823012">
        <ele>782.70000000000005</ele>
        <time>2003-04-17T13:50:40Z</time>
      </trkpt>
      <trkpt lat="31.307937959209085" lon="-3.975843032822013">
        <ele>783.20000000000005</ele>
        <time>2003-04-17T13:50:43Z</time>
      </trkpt>
      <trkpt lat="31.308050025254488" lon="-3.975846972316504">
        <ele>783.29999999999995</ele>
        <time>2003-04-17T13:50:44Z</time>
      </trkpt>
      <trkpt lat="31.308467024937272" lon="-3.975917967036367">
        <ele>783</ele>
        <time>2003-04-17T13:50:48Z</time>
      </trkpt>
      <trkpt lat="31.308797020465136" lon="-3.975947974249721">
        <ele>783.10000000000002</ele>
        <time>2003-04-17T13:50:51Z</time>
      </trkpt>
      <trkpt lat="31.309334971010685" lon="-3.975957026705146">
        <ele>783.39999999999998</ele>
        <time>2003-04-17T13:50:56Z</time>
      </trkpt>
      <trkpt lat="31.309433039277792" lon="-3.975962977856398">
        <ele>783.79999999999995</ele>
        <time>2003-04-17T13:50:58Z</time>
      </trkpt>
      <trkpt lat="31.309536974877119" lon="-3.975958032533526">
        <ele>784</ele>
        <time>2003-04-17T13:50:59Z</time>
      </trkpt>
      <trkpt lat="31.310541965067387" lon="-3.975831968709827">
        <ele>784.60000000000002</ele>
        <time>2003-04-17T13:51:07Z</time>
      </trkpt>
      <trkpt lat="31.311537986621261" lon="-3.975668018683791">
        <ele>785.10000000000002</ele>
        <time>2003-04-17T13:51:17Z</time>
      </trkpt>
      <trkpt lat="31.312141986563802" lon="-3.975527035072446">
        <ele>785.29999999999995</ele>
        <time>2003-04-17T13:51:22Z</time>
      </trkpt>
      <trkpt lat="31.312377015128732" lon="-3.975467020645738">
        <ele>785.70000000000005</ele>
        <time>2003-04-17T13:51:26Z</time>
      </trkpt>
      <trkpt lat="31.312474999576807" lon="-3.975447993725538">
        <ele>784.60000000000002</ele>
        <time>2003-04-17T13:51:27Z</time>
      </trkpt>
      <trkpt lat="31.312565021216869" lon="-3.975423015654087">
        <ele>784.70000000000005</ele>
        <time>2003-04-17T13:51:30Z</time>
      </trkpt>
      <trkpt lat="31.312665017321706" lon="-3.975402982905507">
        <ele>784.70000000000005</ele>
        <time>2003-04-17T13:51:33Z</time>
      </trkpt>
      <trkpt lat="31.312801977619529" lon="-3.975378004834056">
        <ele>785</ele>
        <time>2003-04-17T13:51:34Z</time>
      </trkpt>
      <trkpt lat="31.313530029729009" lon="-3.975148005411029">
        <ele>785.70000000000005</ele>
        <time>2003-04-17T13:51:45Z</time>
      </trkpt>
      <trkpt lat="31.31435195915401" lon="-3.974860003218055">
        <ele>785.89999999999998</ele>
        <time>2003-04-17T13:51:57Z</time>
      </trkpt>
      <trkpt lat="31.314867027103901" lon="-3.97467995993793">
        <ele>786.39999999999998</ele>
        <time>2003-04-17T13:52:01Z</time>
      </trkpt>
      <trkpt lat="31.315757017582655" lon="-3.97429003380239">
        <ele>787.39999999999998</ele>
        <time>2003-04-17T13:52:11Z</time>
      </trkpt>
      <trkpt lat="31.316665029153228" lon="-3.973943023011088">
        <ele>788.60000000000002</ele>
        <time>2003-04-17T13:52:20Z</time>
      </trkpt>
      <trkpt lat="31.317219994962215" lon="-3.973728027194738">
        <ele>789.70000000000005</ele>
        <time>2003-04-17T13:52:26Z</time>
      </trkpt>
      <trkpt lat="31.317346980795264" lon="-3.973695002496243">
        <ele>789.89999999999998</ele>
        <time>2003-04-17T13:52:28Z</time>
      </trkpt>
      <trkpt lat="31.317462986335158" lon="-3.973658038303256">
        <ele>790</ele>
        <time>2003-04-17T13:52:30Z</time>
      </trkpt>
      <trkpt lat="31.317879986017942" lon="-3.973487969487906">
        <ele>790.39999999999998</ele>
        <time>2003-04-17T13:52:38Z</time>
      </trkpt>
      <trkpt lat="31.318200007081032" lon="-3.973270040005446">
        <ele>789.79999999999995</ele>
        <time>2003-04-17T13:52:43Z</time>
      </trkpt>
      <trkpt lat="31.318877013400197" lon="-3.972720019519329">
        <ele>793.70000000000005</ele>
        <time>2003-04-17T13:52:55Z</time>
      </trkpt>
      <trkpt lat="31.319540021941066" lon="-3.972332021221519">
        <ele>797.20000000000005</ele>
        <time>2003-04-17T13:53:02Z</time>
      </trkpt>
      <trkpt lat="31.320372009649873" lon="-3.971919966861606">
        <ele>797.5</ele>
        <time>2003-04-17T13:53:10Z</time>
      </trkpt>
      <trkpt lat="31.321241967380047" lon="-3.971587037667632">
        <ele>797</ele>
        <time>2003-04-17T13:53:20Z</time>
      </trkpt>
      <trkpt lat="31.322160037234426" lon="-3.971342034637928">
        <ele>796.5</ele>
        <time>2003-04-17T13:53:28Z</time>
      </trkpt>
      <trkpt lat="31.323084980249405" lon="-3.971152016893029">
        <ele>797.10000000000002</ele>
        <time>2003-04-17T13:53:36Z</time>
      </trkpt>
      <trkpt lat="31.324028028175235" lon="-3.970948001369834">
        <ele>796.5</ele>
        <time>2003-04-17T13:53:44Z</time>
      </trkpt>
      <trkpt lat="31.324366992339492" lon="-3.970897039398551">
        <ele>798</ele>
        <time>2003-04-17T13:53:47Z</time>
      </trkpt>
      <trkpt lat="31.324794972315431" lon="-3.970822021365166">
        <ele>802.10000000000002</ele>
        <time>2003-04-17T13:53:51Z</time>
      </trkpt>
      <trkpt lat="31.324896980077028" lon="-3.970769969746471">
        <ele>802.20000000000005</ele>
        <time>2003-04-17T13:53:52Z</time>
      </trkpt>
      <trkpt lat="31.324993036687374" lon="-3.970695035532117">
        <ele>802.29999999999995</ele>
        <time>2003-04-17T13:53:52Z</time>
      </trkpt>
      <trkpt lat="31.325801974162459" lon="-3.96995197981596">
        <ele>802.5</ele>
        <time>2003-04-17T13:54:00Z</time>
      </trkpt>
      <trkpt lat="31.3265769649297" lon="-3.969379998743534">
        <ele>803.29999999999995</ele>
        <time>2003-04-17T13:54:08Z</time>
      </trkpt>
      <trkpt lat="31.327405013144016" lon="-3.968878006562591">
        <ele>803.60000000000002</ele>
        <time>2003-04-17T13:54:15Z</time>
      </trkpt>
      <trkpt lat="31.328342026099563" lon="-3.968377020210028">
        <ele>803.89999999999998</ele>
        <time>2003-04-17T13:54:22Z</time>
      </trkpt>
      <trkpt lat="31.329215001314878" lon="-3.967890031635761">
        <ele>804.70000000000005</ele>
        <time>2003-04-17T13:54:27Z</time>
      </trkpt>
      <trkpt lat="31.330176992341876" lon="-3.967412011697888">
        <ele>805.89999999999998</ele>
        <time>2003-04-17T13:54:34Z</time>
      </trkpt>
      <trkpt lat="31.331013003364205" lon="-3.966968022286892">
        <ele>806.29999999999995</ele>
        <time>2003-04-17T13:54:39Z</time>
      </trkpt>
      <trkpt lat="31.331892013549805" lon="-3.966505005955696">
        <ele>806.79999999999995</ele>
        <time>2003-04-17T13:54:43Z</time>
      </trkpt>
      <trkpt lat="31.332800025120378" lon="-3.965977029874921">
        <ele>806.5</ele>
        <time>2003-04-17T13:54:49Z</time>
      </trkpt>
      <trkpt lat="31.33372999727726" lon="-3.965492974966765">
        <ele>806.60000000000002</ele>
        <time>2003-04-17T13:54:54Z</time>
      </trkpt>
      <trkpt lat="31.334627028554678" lon="-3.965047979727387">
        <ele>807.20000000000005</ele>
        <time>2003-04-17T13:54:58Z</time>
      </trkpt>
      <trkpt lat="31.335497992113233" lon="-3.96460197865963">
        <ele>807.60000000000002</ele>
        <time>2003-04-17T13:55:03Z</time>
      </trkpt>
      <trkpt lat="31.336355041712523" lon="-3.964167041704059">
        <ele>808</ele>
        <time>2003-04-17T13:55:09Z</time>
      </trkpt>
      <trkpt lat="31.337246960029006" lon="-3.963830005377531">
        <ele>808.70000000000005</ele>
        <time>2003-04-17T13:55:13Z</time>
      </trkpt>
      <trkpt lat="31.338138040155172" lon="-3.963400013744831">
        <ele>808.79999999999995</ele>
        <time>2003-04-17T13:55:18Z</time>
      </trkpt>
      <trkpt lat="31.339061977341771" lon="-3.962959963828325">
        <ele>809.39999999999998</ele>
        <time>2003-04-17T13:55:24Z</time>
      </trkpt>
      <trkpt lat="31.340007958933711" lon="-3.962516980245709">
        <ele>809.5</ele>
        <time>2003-04-17T13:55:29Z</time>
      </trkpt>
      <trkpt lat="31.34097196161747" lon="-3.962069973349571">
        <ele>810.29999999999995</ele>
        <time>2003-04-17T13:55:33Z</time>
      </trkpt>
      <trkpt lat="31.34187301620841" lon="-3.961660014465451">
        <ele>810</ele>
        <time>2003-04-17T13:55:39Z</time>
      </trkpt>
      <trkpt lat="31.342867026105523" lon="-3.9612499717623">
        <ele>809.89999999999998</ele>
        <time>2003-04-17T13:55:44Z</time>
      </trkpt>
      <trkpt lat="31.343822982162237" lon="-3.960827020928264">
        <ele>809.79999999999995</ele>
        <time>2003-04-17T13:55:51Z</time>
      </trkpt>
      <trkpt lat="31.344607025384903" lon="-3.960372973233461">
        <ele>810.39999999999998</ele>
        <time>2003-04-17T13:55:56Z</time>
      </trkpt>
      <trkpt lat="31.345383021980524" lon="-3.959737038239837">
        <ele>811.5</ele>
        <time>2003-04-17T13:56:02Z</time>
      </trkpt>
      <trkpt lat="31.34587001055479" lon="-3.959254994988442">
        <ele>811.29999999999995</ele>
        <time>2003-04-17T13:56:06Z</time>
      </trkpt>
      <trkpt lat="31.346290027722716" lon="-3.95864998921752">
        <ele>811</ele>
        <time>2003-04-17T13:56:10Z</time>
      </trkpt>
      <trkpt lat="31.346832001581788" lon="-3.95787701010704">
        <ele>810.70000000000005</ele>
        <time>2003-04-17T13:56:15Z</time>
      </trkpt>
      <trkpt lat="31.347552007064223" lon="-3.957064971327782">
        <ele>811.5</ele>
        <time>2003-04-17T13:56:20Z</time>
      </trkpt>
      <trkpt lat="31.34829699061811" lon="-3.956187972798944">
        <ele>812.39999999999998</ele>
        <time>2003-04-17T13:56:27Z</time>
      </trkpt>
      <trkpt lat="31.348594967275858" lon="-3.955946993082762">
        <ele>812.60000000000002</ele>
        <time>2003-04-17T13:56:29Z</time>
      </trkpt>
      <trkpt lat="31.349441958591342" lon="-3.955279961228371">
        <ele>813.70000000000005</ele>
        <time>2003-04-17T13:56:34Z</time>
      </trkpt>
      <trkpt lat="31.349785029888153" lon="-3.954990031197667">
        <ele>814.89999999999998</ele>
        <time>2003-04-17T13:56:38Z</time>
      </trkpt>
      <trkpt lat="31.349962977692485" lon="-3.954847035929561">
        <ele>815.70000000000005</ele>
        <time>2003-04-17T13:56:39Z</time>
      </trkpt>
      <trkpt lat="31.350077977403998" lon="-3.954681996256113">
        <ele>816.29999999999995</ele>
        <time>2003-04-17T13:56:42Z</time>
      </trkpt>
      <trkpt lat="31.350103039294481" lon="-3.95450497046113">
        <ele>816.39999999999998</ele>
        <time>2003-04-17T13:56:43Z</time>
      </trkpt>
      <trkpt lat="31.350109996274114" lon="-3.95418000407517">
        <ele>816.20000000000005</ele>
        <time>2003-04-17T13:56:46Z</time>
      </trkpt>
      <trkpt lat="31.35018702596426" lon="-3.953617997467518">
        <ele>815.29999999999995</ele>
        <time>2003-04-17T13:56:51Z</time>
      </trkpt>
      <trkpt lat="31.350221978500485" lon="-3.953510038554668">
        <ele>815</ele>
        <time>2003-04-17T13:56:53Z</time>
      </trkpt>
      <trkpt lat="31.350336978211999" lon="-3.953130003064871">
        <ele>814.60000000000002</ele>
        <time>2003-04-17T13:56:57Z</time>
      </trkpt>
      <trkpt lat="31.350406967103481" lon="-3.95267503336072">
        <ele>813.79999999999995</ele>
        <time>2003-04-17T13:57:01Z</time>
      </trkpt>
      <trkpt lat="31.350407972931862" lon="-3.952488033100963">
        <ele>814.10000000000002</ele>
        <time>2003-04-17T13:57:04Z</time>
      </trkpt>
      <trkpt lat="31.35048802010715" lon="-3.952345037832856">
        <ele>812.79999999999995</ele>
        <time>2003-04-17T13:57:05Z</time>
      </trkpt>
      <trkpt lat="31.350662028416991" lon="-3.952068015933037">
        <ele>813.39999999999998</ele>
        <time>2003-04-17T13:57:09Z</time>
      </trkpt>
      <trkpt lat="31.350739980116487" lon="-3.951938012614846">
        <ele>813.20000000000005</ele>
        <time>2003-04-17T13:57:12Z</time>
      </trkpt>
      <trkpt lat="31.350777028128505" lon="-3.951793005689979">
        <ele>813.39999999999998</ele>
        <time>2003-04-17T13:57:13Z</time>
      </trkpt>
      <trkpt lat="31.350751966238022" lon="-3.95162696018815">
        <ele>813.39999999999998</ele>
        <time>2003-04-17T13:57:16Z</time>
      </trkpt>
      <trkpt lat="31.350722964853048" lon="-3.951459992676973">
        <ele>813.60000000000002</ele>
        <time>2003-04-17T13:57:17Z</time>
      </trkpt>
      <trkpt lat="31.350747020915151" lon="-3.95128196105361">
        <ele>813.79999999999995</ele>
        <time>2003-04-17T13:57:20Z</time>
      </trkpt>
      <trkpt lat="31.350790020078421" lon="-3.951103007420898">
        <ele>813.79999999999995</ele>
        <time>2003-04-17T13:57:21Z</time>
      </trkpt>
      <trkpt lat="31.350886998698115" lon="-3.950822968035936">
        <ele>813.79999999999995</ele>
        <time>2003-04-17T13:57:25Z</time>
      </trkpt>
      <trkpt lat="31.351022031158209" lon="-3.950552986934781">
        <ele>813.79999999999995</ele>
        <time>2003-04-17T13:57:28Z</time>
      </trkpt>
      <trkpt lat="31.351199978962541" lon="-3.950194995850325">
        <ele>813.89999999999998</ele>
        <time>2003-04-17T13:57:32Z</time>
      </trkpt>
      <trkpt lat="31.351450011134148" lon="-3.949484964832664">
        <ele>814.10000000000002</ele>
        <time>2003-04-17T13:57:39Z</time>
      </trkpt>
      <trkpt lat="31.351553024724126" lon="-3.949171984568238">
        <ele>814.29999999999995</ele>
        <time>2003-04-17T13:57:41Z</time>
      </trkpt>
      <trkpt lat="31.351614966988564" lon="-3.949077017605305">
        <ele>814.39999999999998</ele>
        <time>2003-04-17T13:57:43Z</time>
      </trkpt>
      <trkpt lat="31.351840021088719" lon="-3.948807958513498">
        <ele>814.70000000000005</ele>
        <time>2003-04-17T13:57:45Z</time>
      </trkpt>
      <trkpt lat="31.351968012750149" lon="-3.948617018759251">
        <ele>815</ele>
        <time>2003-04-17T13:57:48Z</time>
      </trkpt>
      <trkpt lat="31.352285016328096" lon="-3.948083007708192">
        <ele>815.10000000000002</ele>
        <time>2003-04-17T13:57:52Z</time>
      </trkpt>
      <trkpt lat="31.352462964132428" lon="-3.947912016883493">
        <ele>815.20000000000005</ele>
        <time>2003-04-17T13:57:55Z</time>
      </trkpt>
      <trkpt lat="31.35278801433742" lon="-3.94754296168685">
        <ele>815.5</ele>
        <time>2003-04-17T13:57:59Z</time>
      </trkpt>
      <trkpt lat="31.352888010442257" lon="-3.947310028597713">
        <ele>815.5</ele>
        <time>2003-04-17T13:58:00Z</time>
      </trkpt>
      <trkpt lat="31.352918017655611" lon="-3.947186982259154">
        <ele>815.29999999999995</ele>
        <time>2003-04-17T13:58:02Z</time>
      </trkpt>
      <trkpt lat="31.352963028475642" lon="-3.946867967024446">
        <ele>814.39999999999998</ele>
        <time>2003-04-17T13:58:04Z</time>
      </trkpt>
      <trkpt lat="31.352977026253939" lon="-3.946482986211777">
        <ele>809.89999999999998</ele>
        <time>2003-04-17T13:58:07Z</time>
      </trkpt>
      <trkpt lat="31.353007033467293" lon="-3.946196995675564">
        <ele>809.10000000000002</ele>
        <time>2003-04-17T13:58:10Z</time>
      </trkpt>
      <trkpt lat="31.353099988773465" lon="-3.945712018758059">
        <ele>809.10000000000002</ele>
        <time>2003-04-17T13:58:14Z</time>
      </trkpt>
      <trkpt lat="31.353287994861603" lon="-3.945210026577115">
        <ele>810.79999999999995</ele>
        <time>2003-04-17T13:58:19Z</time>
      </trkpt>
      <trkpt lat="31.353401988744736" lon="-3.944952031597495">
        <ele>810.5</ele>
        <time>2003-04-17T13:58:22Z</time>
      </trkpt>
      <trkpt lat="31.35345496237278" lon="-3.944786991924048">
        <ele>810.5</ele>
        <time>2003-04-17T13:58:23Z</time>
      </trkpt>
      <trkpt lat="31.353457979857922" lon="-3.94462002441287">
        <ele>809.60000000000002</ele>
        <time>2003-04-17T13:58:26Z</time>
      </trkpt>
      <trkpt lat="31.353465020656586" lon="-3.944343002513051">
        <ele>808.10000000000002</ele>
        <time>2003-04-17T13:58:29Z</time>
      </trkpt>
      <trkpt lat="31.353527968749404" lon="-3.944157008081675">
        <ele>806.79999999999995</ele>
        <time>2003-04-17T13:58:30Z</time>
      </trkpt>
      <trkpt lat="31.353593012318015" lon="-3.944079978391528">
        <ele>807.20000000000005</ele>
        <time>2003-04-17T13:58:31Z</time>
      </trkpt>
      <trkpt lat="31.353957038372755" lon="-3.943743025884032">
        <ele>807.39999999999998</ele>
        <time>2003-04-17T13:58:37Z</time>
      </trkpt>
      <trkpt lat="31.354221990332007" lon="-3.943638000637293">
        <ele>807.29999999999995</ele>
        <time>2003-04-17T13:58:39Z</time>
      </trkpt>
      <trkpt lat="31.354400021955371" lon="-3.943562982603908">
        <ele>807.79999999999995</ele>
        <time>2003-04-17T13:58:42Z</time>
      </trkpt>
      <trkpt lat="31.354557015001774" lon="-3.943457035347819">
        <ele>807.79999999999995</ele>
        <time>2003-04-17T13:58:44Z</time>
      </trkpt>
      <trkpt lat="31.354691963642836" lon="-3.943310016766191">
        <ele>807.60000000000002</ele>
        <time>2003-04-17T13:58:46Z</time>
      </trkpt>
      <trkpt lat="31.354794977232814" lon="-3.943147994577885">
        <ele>807.70000000000005</ele>
        <time>2003-04-17T13:58:48Z</time>
      </trkpt>
      <trkpt lat="31.355039980262518" lon="-3.942657988518477">
        <ele>807.89999999999998</ele>
        <time>2003-04-17T13:58:53Z</time>
      </trkpt>
      <trkpt lat="31.355217006057501" lon="-3.942182986065745">
        <ele>807.79999999999995</ele>
        <time>2003-04-17T13:58:57Z</time>
      </trkpt>
      <trkpt lat="31.35536503046751" lon="-3.941487958654761">
        <ele>807.89999999999998</ele>
        <time>2003-04-17T13:59:04Z</time>
      </trkpt>
      <trkpt lat="31.355584971606731" lon="-3.940782034769654">
        <ele>808.10000000000002</ele>
        <time>2003-04-17T13:59:09Z</time>
      </trkpt>
      <trkpt lat="31.356013035401702" lon="-3.939779978245497">
        <ele>808.60000000000002</ele>
        <time>2003-04-17T13:59:16Z</time>
      </trkpt>
      <trkpt lat="31.356442021206021" lon="-3.938789991661906">
        <ele>808.89999999999998</ele>
        <time>2003-04-17T13:59:21Z</time>
      </trkpt>
      <trkpt lat="31.35689003393054" lon="-3.937732027843595">
        <ele>809.60000000000002</ele>
        <time>2003-04-17T13:59:28Z</time>
      </trkpt>
      <trkpt lat="31.357371993362904" lon="-3.936629975214601">
        <ele>810.20000000000005</ele>
        <time>2003-04-17T13:59:33Z</time>
      </trkpt>
      <trkpt lat="31.357757980003953" lon="-3.935658009722829">
        <ele>810.89999999999998</ele>
        <time>2003-04-17T13:59:39Z</time>
      </trkpt>
      <trkpt lat="31.358072971925139" lon="-3.934646984562278">
        <ele>811.60000000000002</ele>
        <time>2003-04-17T13:59:43Z</time>
      </trkpt>
      <trkpt lat="31.358265001326799" lon="-3.933707037940621">
        <ele>812.29999999999995</ele>
        <time>2003-04-17T13:59:48Z</time>
      </trkpt>
      <trkpt lat="31.358377989381552" lon="-3.933402020484209">
        <ele>812.39999999999998</ele>
        <time>2003-04-17T13:59:51Z</time>
      </trkpt>
      <trkpt lat="31.358525007963181" lon="-3.932945039123297">
        <ele>813</ele>
        <time>2003-04-17T13:59:54Z</time>
      </trkpt>
      <trkpt lat="31.358709996566176" lon="-3.932301979511976">
        <ele>814.70000000000005</ele>
        <time>2003-04-17T13:59:58Z</time>
      </trkpt>
      <trkpt lat="31.358849974349141" lon="-3.931910041719675">
        <ele>815.29999999999995</ele>
        <time>2003-04-17T14:00:00Z</time>
      </trkpt>
      <trkpt lat="31.358960028737783" lon="-3.931665038689971">
        <ele>815.10000000000002</ele>
        <time>2003-04-17T14:00:03Z</time>
      </trkpt>
      <trkpt lat="31.359218023717403" lon="-3.931245021522045">
        <ele>816.20000000000005</ele>
        <time>2003-04-17T14:00:07Z</time>
      </trkpt>
      <trkpt lat="31.359396977350116" lon="-3.930892981588841">
        <ele>814.79999999999995</ele>
        <time>2003-04-17T14:00:10Z</time>
      </trkpt>
      <trkpt lat="31.359471995383501" lon="-3.930767001584172">
        <ele>814.60000000000002</ele>
        <time>2003-04-17T14:00:10Z</time>
      </trkpt>
      <trkpt lat="31.359868040308356" lon="-3.930123019963503">
        <ele>815.29999999999995</ele>
        <time>2003-04-17T14:00:15Z</time>
      </trkpt>
      <trkpt lat="31.360002988949418" lon="-3.929677018895745">
        <ele>815.60000000000002</ele>
        <time>2003-04-17T14:00:18Z</time>
      </trkpt>
      <trkpt lat="31.360122011974454" lon="-3.929381975904107">
        <ele>815.70000000000005</ele>
        <time>2003-04-17T14:00:21Z</time>
      </trkpt>
      <trkpt lat="31.360516967251897" lon="-3.928280007094145">
        <ele>816.60000000000002</ele>
        <time>2003-04-17T14:00:27Z</time>
      </trkpt>
      <trkpt lat="31.360897002741694" lon="-3.927156999707222">
        <ele>817</ele>
        <time>2003-04-17T14:00:34Z</time>
      </trkpt>
      <trkpt lat="31.361248036846519" lon="-3.926010020077229">
        <ele>816</ele>
        <time>2003-04-17T14:00:41Z</time>
      </trkpt>
      <trkpt lat="31.36159798130393" lon="-3.924842001870275">
        <ele>814.5</ele>
        <time>2003-04-17T14:00:49Z</time>
      </trkpt>
      <trkpt lat="31.361805014312267" lon="-3.923797030001879">
        <ele>813.39999999999998</ele>
        <time>2003-04-17T14:00:54Z</time>
      </trkpt>
      <trkpt lat="31.362080024555326" lon="-3.922796985134482">
        <ele>813.20000000000005</ele>
        <time>2003-04-17T14:01:01Z</time>
      </trkpt>
      <trkpt lat="31.362338019534945" lon="-3.922092989087105">
        <ele>813.89999999999998</ele>
        <time>2003-04-17T14:01:05Z</time>
      </trkpt>
      <trkpt lat="31.362417982891202" lon="-3.921877993270755">
        <ele>813.79999999999995</ele>
        <time>2003-04-17T14:01:08Z</time>
      </trkpt>
      <trkpt lat="31.362491995096207" lon="-3.921782020479441">
        <ele>813.10000000000002</ele>
        <time>2003-04-17T14:01:09Z</time>
      </trkpt>
      <trkpt lat="31.362547986209393" lon="-3.921687975525856">
        <ele>813.60000000000002</ele>
        <time>2003-04-17T14:01:12Z</time>
      </trkpt>
      <trkpt lat="31.362638007849455" lon="-3.921467028558254">
        <ele>813.79999999999995</ele>
        <time>2003-04-17T14:01:16Z</time>
      </trkpt>
      <trkpt lat="31.362686958163977" lon="-3.92124499194324">
        <ele>813.70000000000005</ele>
        <time>2003-04-17T14:01:20Z</time>
      </trkpt>
      <trkpt lat="31.362727023661137" lon="-3.921047011390328">
        <ele>813.70000000000005</ele>
        <time>2003-04-17T14:01:21Z</time>
      </trkpt>
      <trkpt lat="31.362806987017393" lon="-3.920606961473823">
        <ele>812.79999999999995</ele>
        <time>2003-04-17T14:01:26Z</time>
      </trkpt>
      <trkpt lat="31.362936990335584" lon="-3.920151991769671">
        <ele>812.70000000000005</ele>
        <time>2003-04-17T14:01:30Z</time>
      </trkpt>
      <trkpt lat="31.36320797726512" lon="-3.919427040964365">
        <ele>812.5</ele>
        <time>2003-04-17T14:01:36Z</time>
      </trkpt>
      <trkpt lat="31.363362958654761" lon="-3.91888196580112">
        <ele>812.10000000000002</ele>
        <time>2003-04-17T14:01:43Z</time>
      </trkpt>
      <trkpt lat="31.363426996394992" lon="-3.918484998866916">
        <ele>812</ele>
        <time>2003-04-17T14:01:47Z</time>
      </trkpt>
      <trkpt lat="31.363503020256758" lon="-3.918260028585792">
        <ele>811.70000000000005</ele>
        <time>2003-04-17T14:01:48Z</time>
      </trkpt>
      <trkpt lat="31.363735031336546" lon="-3.917621998116374">
        <ele>810.89999999999998</ele>
        <time>2003-04-17T14:01:54Z</time>
      </trkpt>
      <trkpt lat="31.364024961367249" lon="-3.916839966550469">
        <ele>811.60000000000002</ele>
        <time>2003-04-17T14:01:59Z</time>
      </trkpt>
      <trkpt lat="31.364297037944198" lon="-3.915698016062379">
        <ele>812.60000000000002</ele>
        <time>2003-04-17T14:02:07Z</time>
      </trkpt>
      <trkpt lat="31.364444978535175" lon="-3.914920007809997">
        <ele>813</ele>
        <time>2003-04-17T14:02:13Z</time>
      </trkpt>
      <trkpt lat="31.364525025710464" lon="-3.914436958730221">
        <ele>813</ele>
        <time>2003-04-17T14:02:15Z</time>
      </trkpt>
      <trkpt lat="31.36464798822999" lon="-3.91413202509284">
        <ele>813</ele>
        <time>2003-04-17T14:02:18Z</time>
      </trkpt>
      <trkpt lat="31.364804981276393" lon="-3.91387302428484">
        <ele>813.5</ele>
        <time>2003-04-17T14:02:20Z</time>
      </trkpt>
      <trkpt lat="31.364891985431314" lon="-3.913773028180003">
        <ele>813.70000000000005</ele>
        <time>2003-04-17T14:02:21Z</time>
      </trkpt>
      <trkpt lat="31.365042021498084" lon="-3.913537999615073">
        <ele>813.79999999999995</ele>
        <time>2003-04-17T14:02:22Z</time>
      </trkpt>
      <trkpt lat="31.365092983469367" lon="-3.913406990468502">
        <ele>813.70000000000005</ele>
        <time>2003-04-17T14:02:24Z</time>
      </trkpt>
      <trkpt lat="31.365197002887726" lon="-3.913050005212426">
        <ele>813.39999999999998</ele>
        <time>2003-04-17T14:02:26Z</time>
      </trkpt>
      <trkpt lat="31.365224998444319" lon="-3.912947997450829">
        <ele>813.70000000000005</ele>
        <time>2003-04-17T14:02:28Z</time>
      </trkpt>
      <trkpt lat="31.365382997319102" lon="-3.912537032738328">
        <ele>813.5</ele>
        <time>2003-04-17T14:02:32Z</time>
      </trkpt>
      <trkpt lat="31.365457009524107" lon="-3.912308039143682">
        <ele>814.20000000000005</ele>
        <time>2003-04-17T14:02:33Z</time>
      </trkpt>
      <trkpt lat="31.365756997838616" lon="-3.911223001778126">
        <ele>814.10000000000002</ele>
        <time>2003-04-17T14:02:42Z</time>
      </trkpt>
      <trkpt lat="31.365807959809899" lon="-3.911037007346749">
        <ele>816.20000000000005</ele>
        <time>2003-04-17T14:02:45Z</time>
      </trkpt>
      <trkpt lat="31.365903010591865" lon="-3.910668035969138">
        <ele>816</ele>
        <time>2003-04-17T14:02:49Z</time>
      </trkpt>
      <trkpt lat="31.36589203029871" lon="-3.910459997132421">
        <ele>815.29999999999995</ele>
        <time>2003-04-17T14:02:51Z</time>
      </trkpt>
      <trkpt lat="31.365879960358143" lon="-3.91013503074646">
        <ele>814.89999999999998</ele>
        <time>2003-04-17T14:02:53Z</time>
      </trkpt>
      <trkpt lat="31.365903010591865" lon="-3.910032017156482">
        <ele>814.70000000000005</ele>
        <time>2003-04-17T14:02:55Z</time>
      </trkpt>
      <trkpt lat="31.366142984479666" lon="-3.909153006970882">
        <ele>815.20000000000005</ele>
        <time>2003-04-17T14:03:03Z</time>
      </trkpt>
      <trkpt lat="31.366550009697676" lon="-3.908162014558911">
        <ele>815.89999999999998</ele>
        <time>2003-04-17T14:03:11Z</time>
      </trkpt>
      <trkpt lat="31.367027023807168" lon="-3.907113019376993">
        <ele>816.29999999999995</ele>
        <time>2003-04-17T14:03:19Z</time>
      </trkpt>
      <trkpt lat="31.367530021816492" lon="-3.90609797090292">
        <ele>817</ele>
        <time>2003-04-17T14:03:27Z</time>
      </trkpt>
      <trkpt lat="31.367917014285922" lon="-3.905143020674586">
        <ele>817.29999999999995</ele>
        <time>2003-04-17T14:03:34Z</time>
      </trkpt>
      <trkpt lat="31.368182972073555" lon="-3.904619989916682">
        <ele>817.5</ele>
        <time>2003-04-17T14:03:38Z</time>
      </trkpt>
      <trkpt lat="31.368753025308251" lon="-3.903737962245941">
        <ele>818.60000000000002</ele>
        <time>2003-04-17T14:03:45Z</time>
      </trkpt>
      <trkpt lat="31.369421985000372" lon="-3.902836991474032">
        <ele>819.20000000000005</ele>
        <time>2003-04-17T14:03:53Z</time>
      </trkpt>
      <trkpt lat="31.37012698687613" lon="-3.901968039572239">
        <ele>819.20000000000005</ele>
        <time>2003-04-17T14:04:01Z</time>
      </trkpt>
      <trkpt lat="31.370567036792636" lon="-3.901450037956238">
        <ele>820.29999999999995</ele>
        <time>2003-04-17T14:04:06Z</time>
      </trkpt>
      <trkpt lat="31.370935002341866" lon="-3.901079976931214">
        <ele>820.89999999999998</ele>
        <time>2003-04-17T14:04:10Z</time>
      </trkpt>
      <trkpt lat="31.371434982866049" lon="-3.900214964523912">
        <ele>819.5</ele>
        <time>2003-04-17T14:04:17Z</time>
      </trkpt>
      <trkpt lat="31.371617959812284" lon="-3.899878012016416">
        <ele>818.79999999999995</ele>
        <time>2003-04-17T14:04:20Z</time>
      </trkpt>
      <trkpt lat="31.371703036129475" lon="-3.899787990376353">
        <ele>818.20000000000005</ele>
        <time>2003-04-17T14:04:21Z</time>
      </trkpt>
      <trkpt lat="31.371782999485731" lon="-3.899724958464503">
        <ele>818.5</ele>
        <time>2003-04-17T14:04:21Z</time>
      </trkpt>
      <trkpt lat="31.371885007247329" lon="-3.899635020643473">
        <ele>819.20000000000005</ele>
        <time>2003-04-17T14:04:24Z</time>
      </trkpt>
      <trkpt lat="31.372258001938462" lon="-3.899333020672202">
        <ele>819.5</ele>
        <time>2003-04-17T14:04:29Z</time>
      </trkpt>
      <trkpt lat="31.372601995244622" lon="-3.899109978228807">
        <ele>819.29999999999995</ele>
        <time>2003-04-17T14:04:33Z</time>
      </trkpt>
      <trkpt lat="31.3727050088346" lon="-3.899088017642498">
        <ele>819.29999999999995</ele>
        <time>2003-04-17T14:04:35Z</time>
      </trkpt>
      <trkpt lat="31.372953029349446" lon="-3.899057004600763">
        <ele>819.5</ele>
        <time>2003-04-17T14:04:37Z</time>
      </trkpt>
      <trkpt lat="31.373331975191832" lon="-3.898930018767715">
        <ele>818.89999999999998</ele>
        <time>2003-04-17T14:04:43Z</time>
      </trkpt>
      <trkpt lat="31.373762972652912" lon="-3.898818036541343">
        <ele>819.20000000000005</ele>
        <time>2003-04-17T14:04:48Z</time>
      </trkpt>
      <trkpt lat="31.374102020636201" lon="-3.898787023499608">
        <ele>819.79999999999995</ele>
        <time>2003-04-17T14:04:52Z</time>
      </trkpt>
      <trkpt lat="31.374226994812489" lon="-3.8987270090729">
        <ele>820</ele>
        <time>2003-04-17T14:04:55Z</time>
      </trkpt>
      <trkpt lat="31.374354986473918" lon="-3.898603040724993">
        <ele>820.20000000000005</ele>
        <time>2003-04-17T14:04:56Z</time>
      </trkpt>
      <trkpt lat="31.374995028600097" lon="-3.89784699305892">
        <ele>820.10000000000002</ele>
        <time>2003-04-17T14:05:07Z</time>
      </trkpt>
      <trkpt lat="31.375057976692915" lon="-3.897769963368774">
        <ele>819.70000000000005</ele>
        <time>2003-04-17T14:05:07Z</time>
      </trkpt>
      <trkpt lat="31.375297028571367" lon="-3.897512974217534">
        <ele>820</ele>
        <time>2003-04-17T14:05:11Z</time>
      </trkpt>
      <trkpt lat="31.375546976923943" lon="-3.897286998108029">
        <ele>820.5</ele>
        <time>2003-04-17T14:05:15Z</time>
      </trkpt>
      <trkpt lat="31.375685026869178" lon="-3.897150037810206">
        <ele>820.60000000000002</ele>
        <time>2003-04-17T14:05:19Z</time>
      </trkpt>
      <trkpt lat="31.376045029610395" lon="-3.896818030625582">
        <ele>820.89999999999998</ele>
        <time>2003-04-17T14:05:23Z</time>
      </trkpt>
      <trkpt lat="31.376117030158639" lon="-3.896752987056971">
        <ele>821</ele>
        <time>2003-04-17T14:05:23Z</time>
      </trkpt>
      <trkpt lat="31.37646303512156" lon="-3.896476970985532">
        <ele>821.20000000000005</ele>
        <time>2003-04-17T14:05:29Z</time>
      </trkpt>
      <trkpt lat="31.376584991812706" lon="-3.896362977102399">
        <ele>821.60000000000002</ele>
        <time>2003-04-17T14:05:31Z</time>
      </trkpt>
      <trkpt lat="31.376757994294167" lon="-3.896182011812925">
        <ele>821.60000000000002</ele>
        <time>2003-04-17T14:05:34Z</time>
      </trkpt>
      <trkpt lat="31.376982964575291" lon="-3.895889986306429">
        <ele>822</ele>
        <time>2003-04-17T14:05:39Z</time>
      </trkpt>
      <trkpt lat="31.377078015357256" lon="-3.89578202739358">
        <ele>822.20000000000005</ele>
        <time>2003-04-17T14:05:41Z</time>
      </trkpt>
      <trkpt lat="31.377220004796982" lon="-3.895583041012287">
        <ele>822.20000000000005</ele>
        <time>2003-04-17T14:05:43Z</time>
      </trkpt>
      <trkpt lat="31.377347996458411" lon="-3.895399980247021">
        <ele>822.20000000000005</ele>
        <time>2003-04-17T14:05:47Z</time>
      </trkpt>
      <trkpt lat="31.377444975078106" lon="-3.895322028547525">
        <ele>822.39999999999998</ele>
        <time>2003-04-17T14:05:50Z</time>
      </trkpt>
      <trkpt lat="31.377597022801638" lon="-3.895227983593941">
        <ele>822.39999999999998</ele>
        <time>2003-04-17T14:05:53Z</time>
      </trkpt>
      <trkpt lat="31.377674974501133" lon="-3.895166963338852">
        <ele>822.70000000000005</ele>
        <time>2003-04-17T14:05:54Z</time>
      </trkpt>
      <trkpt lat="31.377721996977925" lon="-3.895071996375918">
        <ele>822.60000000000002</ele>
        <time>2003-04-17T14:05:58Z</time>
      </trkpt>
      <trkpt lat="31.377770025283098" lon="-3.894887007772923">
        <ele>825</ele>
        <time>2003-04-17T14:09:49Z</time>
      </trkpt>
      <trkpt lat="31.377967000007629" lon="-3.894679974764586">
        <ele>824.29999999999995</ele>
        <time>2003-04-17T14:09:57Z</time>
      </trkpt>
      <trkpt lat="31.378043023869395" lon="-3.894617026671767">
        <ele>824.29999999999995</ele>
        <time>2003-04-17T14:10:01Z</time>
      </trkpt>
      <trkpt lat="31.378176966682076" lon="-3.894575033336878">
        <ele>823.89999999999998</ele>
        <time>2003-04-17T14:10:04Z</time>
      </trkpt>
      <trkpt lat="31.378520037978888" lon="-3.894524993374944">
        <ele>823.79999999999995</ele>
        <time>2003-04-17T14:10:09Z</time>
      </trkpt>
      <trkpt lat="31.378717012703419" lon="-3.894467996433377">
        <ele>823.89999999999998</ele>
        <time>2003-04-17T14:10:12Z</time>
      </trkpt>
      <trkpt lat="31.378851961344481" lon="-3.89445198699832">
        <ele>823.70000000000005</ele>
        <time>2003-04-17T14:10:15Z</time>
      </trkpt>
      <trkpt lat="31.378962015733123" lon="-3.89451501891017">
        <ele>823.79999999999995</ele>
        <time>2003-04-17T14:10:16Z</time>
      </trkpt>
      <trkpt lat="31.379152033478022" lon="-3.894594982266426">
        <ele>823.70000000000005</ele>
        <time>2003-04-17T14:10:20Z</time>
      </trkpt>
      <trkpt lat="31.379284970462322" lon="-3.894579978659749">
        <ele>824</ele>
        <time>2003-04-17T14:10:21Z</time>
      </trkpt>
      <trkpt lat="31.379412040114403" lon="-3.894636975601316">
        <ele>824.10000000000002</ele>
        <time>2003-04-17T14:10:24Z</time>
      </trkpt>
      <trkpt lat="31.379872960969806" lon="-3.894837973639369">
        <ele>824.39999999999998</ele>
        <time>2003-04-17T14:10:31Z</time>
      </trkpt>
      <trkpt lat="31.38001000508666" lon="-3.894922966137528">
        <ele>824.39999999999998</ele>
        <time>2003-04-17T14:10:32Z</time>
      </trkpt>
      <trkpt lat="31.380317034199834" lon="-3.895094962790608">
        <ele>824.70000000000005</ele>
        <time>2003-04-17T14:10:38Z</time>
      </trkpt>
      <trkpt lat="31.380445025861263" lon="-3.895142991095781">
        <ele>824.79999999999995</ele>
        <time>2003-04-17T14:10:39Z</time>
      </trkpt>
      <trkpt lat="31.380562959238887" lon="-3.895120024681091">
        <ele>825.20000000000005</ele>
        <time>2003-04-17T14:10:42Z</time>
      </trkpt>
      <trkpt lat="31.380706960335374" lon="-3.895163023844361">
        <ele>825.20000000000005</ele>
        <time>2003-04-17T14:10:43Z</time>
      </trkpt>
      <trkpt lat="31.380824977532029" lon="-3.895256984978914">
        <ele>825.20000000000005</ele>
        <time>2003-04-17T14:10:46Z</time>
      </trkpt>
      <trkpt lat="31.380948023870587" lon="-3.895329991355538">
        <ele>825.39999999999998</ele>
        <time>2003-04-17T14:10:47Z</time>
      </trkpt>
      <trkpt lat="31.381092024967074" lon="-3.895314987748861">
        <ele>825.39999999999998</ele>
        <time>2003-04-17T14:10:50Z</time>
      </trkpt>
      <trkpt lat="31.381226973608136" lon="-3.895341977477074">
        <ele>825.29999999999995</ele>
        <time>2003-04-17T14:10:51Z</time>
      </trkpt>
      <trkpt lat="31.381367035210133" lon="-3.895348012447357">
        <ele>825.70000000000005</ele>
        <time>2003-04-17T14:10:54Z</time>
      </trkpt>
      <trkpt lat="31.38159703463316" lon="-3.8953320030123">
        <ele>825.39999999999998</ele>
        <time>2003-04-17T14:10:57Z</time>
      </trkpt>
      <trkpt lat="31.381949996575713" lon="-3.895250027999282">
        <ele>825.89999999999998</ele>
        <time>2003-04-17T14:11:02Z</time>
      </trkpt>
      <trkpt lat="31.382147977128625" lon="-3.895292021334171">
        <ele>826.20000000000005</ele>
        <time>2003-04-17T14:11:05Z</time>
      </trkpt>
      <trkpt lat="31.382424999028444" lon="-3.895242987200618">
        <ele>826.70000000000005</ele>
        <time>2003-04-17T14:11:09Z</time>
      </trkpt>
      <trkpt lat="31.382557014003396" lon="-3.895244998857379">
        <ele>826.5</ele>
        <time>2003-04-17T14:11:10Z</time>
      </trkpt>
      <trkpt lat="31.383066968992352" lon="-3.895287998020649">
        <ele>826.60000000000002</ele>
        <time>2003-04-17T14:11:18Z</time>
      </trkpt>
      <trkpt lat="31.38327500782907" lon="-3.895257990807295">
        <ele>826.70000000000005</ele>
        <time>2003-04-17T14:11:21Z</time>
      </trkpt>
      <trkpt lat="31.383495032787323" lon="-3.895188001915813">
        <ele>826.60000000000002</ele>
        <time>2003-04-17T14:11:24Z</time>
      </trkpt>
      <trkpt lat="31.383738024160266" lon="-3.895094962790608">
        <ele>827.29999999999995</ele>
        <time>2003-04-17T14:11:26Z</time>
      </trkpt>
      <trkpt lat="31.383837014436722" lon="-3.895099991932511">
        <ele>827.20000000000005</ele>
        <time>2003-04-17T14:11:28Z</time>
      </trkpt>
      <trkpt lat="31.384162986651063" lon="-3.895124970003963">
        <ele>827.29999999999995</ele>
        <time>2003-04-17T14:11:30Z</time>
      </trkpt>
      <trkpt lat="31.384391980245709" lon="-3.895135028287768">
        <ele>827.29999999999995</ele>
        <time>2003-04-17T14:11:33Z</time>
      </trkpt>
      <trkpt lat="31.384624997153878" lon="-3.895094962790608">
        <ele>827.39999999999998</ele>
        <time>2003-04-17T14:11:34Z</time>
      </trkpt>
      <trkpt lat="31.38561699539423" lon="-3.894849959760904">
        <ele>827.79999999999995</ele>
        <time>2003-04-17T14:11:42Z</time>
      </trkpt>
      <trkpt lat="31.385976998135448" lon="-3.894705036655068">
        <ele>827.60000000000002</ele>
        <time>2003-04-17T14:11:45Z</time>
      </trkpt>
      <trkpt lat="31.386779984459281" lon="-3.894188040867448">
        <ele>828</ele>
        <time>2003-04-17T14:11:52Z</time>
      </trkpt>
      <trkpt lat="31.38733696192503" lon="-3.893857039511204">
        <ele>828.20000000000005</ele>
        <time>2003-04-17T14:11:57Z</time>
      </trkpt>
      <trkpt lat="31.387541983276606" lon="-3.893740028142929">
        <ele>828.29999999999995</ele>
        <time>2003-04-17T14:12:00Z</time>
      </trkpt>
      <trkpt lat="31.387805007398129" lon="-3.893553027883172">
        <ele>828.39999999999998</ele>
        <time>2003-04-17T14:12:03Z</time>
      </trkpt>
      <trkpt lat="31.388232987374067" lon="-3.893084982410073">
        <ele>828.70000000000005</ele>
        <time>2003-04-17T14:12:08Z</time>
      </trkpt>
      <trkpt lat="31.388374976813793" lon="-3.892622971907258">
        <ele>828.60000000000002</ele>
        <time>2003-04-17T14:12:12Z</time>
      </trkpt>
      <trkpt lat="31.388555020093918" lon="-3.891701968386769">
        <ele>828.89999999999998</ele>
        <time>2003-04-17T14:12:20Z</time>
      </trkpt>
      <trkpt lat="31.388534987345338" lon="-3.891544975340366">
        <ele>828.70000000000005</ele>
        <time>2003-04-17T14:12:23Z</time>
      </trkpt>
      <trkpt lat="31.388485031202435" lon="-3.89140198007226">
        <ele>828.79999999999995</ele>
        <time>2003-04-17T14:12:24Z</time>
      </trkpt>
      <trkpt lat="31.388408001512289" lon="-3.891212968155742">
        <ele>829</ele>
        <time>2003-04-17T14:12:27Z</time>
      </trkpt>
      <trkpt lat="31.388041963800788" lon="-3.890247959643602">
        <ele>829.89999999999998</ele>
        <time>2003-04-17T14:12:38Z</time>
      </trkpt>
      <trkpt lat="31.387935010716319" lon="-3.890117034316063">
        <ele>830.39999999999998</ele>
        <time>2003-04-17T14:12:39Z</time>
      </trkpt>
      <trkpt lat="31.38782998546958" lon="-3.88996297493577">
        <ele>830.5</ele>
        <time>2003-04-17T14:12:42Z</time>
      </trkpt>
      <trkpt lat="31.387741975486279" lon="-3.889787038788199">
        <ele>830.20000000000005</ele>
        <time>2003-04-17T14:12:43Z</time>
      </trkpt>
      <trkpt lat="31.387652037665248" lon="-3.889613030478358">
        <ele>830.29999999999995</ele>
        <time>2003-04-17T14:12:46Z</time>
      </trkpt>
      <trkpt lat="31.387524968013167" lon="-3.889457965269685">
        <ele>830.39999999999998</ele>
        <time>2003-04-17T14:12:47Z</time>
      </trkpt>
      <trkpt lat="31.387373004108667" lon="-3.889340031892061">
        <ele>830.29999999999995</ele>
        <time>2003-04-17T14:12:50Z</time>
      </trkpt>
      <trkpt lat="31.386962039396167" lon="-3.889117995277047">
        <ele>830.29999999999995</ele>
        <time>2003-04-17T14:12:54Z</time>
      </trkpt>
      <trkpt lat="31.38682197779417" lon="-3.889027973636985">
        <ele>830.89999999999998</ele>
        <time>2003-04-17T14:12:57Z</time>
      </trkpt>
      <trkpt lat="31.386643024161458" lon="-3.888899981975555">
        <ele>830.89999999999998</ele>
        <time>2003-04-17T14:12:59Z</time>
      </trkpt>
      <trkpt lat="31.386542022228241" lon="-3.888803003355861">
        <ele>831.10000000000002</ele>
        <time>2003-04-17T14:13:02Z</time>
      </trkpt>
      <trkpt lat="31.386415036395192" lon="-3.888666965067387">
        <ele>831</ele>
        <time>2003-04-17T14:13:03Z</time>
      </trkpt>
      <trkpt lat="31.386140026152134" lon="-3.888266980648041">
        <ele>831.20000000000005</ele>
        <time>2003-04-17T14:13:09Z</time>
      </trkpt>
      <trkpt lat="31.385925030335784" lon="-3.887888034805656">
        <ele>831.29999999999995</ele>
        <time>2003-04-17T14:13:13Z</time>
      </trkpt>
      <trkpt lat="31.385867027565837" lon="-3.88772701844573">
        <ele>831</ele>
        <time>2003-04-17T14:13:16Z</time>
      </trkpt>
      <trkpt lat="31.38583199121058" lon="-3.887546975165606">
        <ele>831.20000000000005</ele>
        <time>2003-04-17T14:13:17Z</time>
      </trkpt>
      <trkpt lat="31.393411997705698" lon="-3.871499989181757">
        <ele>837.20000000000005</ele>
        <time>2003-04-17T14:15:56Z</time>
      </trkpt>
      <trkpt lat="31.393477963283658" lon="-3.871394963935018">
        <ele>837.20000000000005</ele>
        <time>2003-04-17T14:15:58Z</time>
      </trkpt>
      <trkpt lat="31.39386503957212" lon="-3.870858019217849">
        <ele>837.10000000000002</ele>
        <time>2003-04-17T14:16:03Z</time>
      </trkpt>
      <trkpt lat="31.393969980999827" lon="-3.870736984536052">
        <ele>837.5</ele>
        <time>2003-04-17T14:16:06Z</time>
      </trkpt>
      <trkpt lat="31.394086992368102" lon="-3.870547972619534">
        <ele>837.89999999999998</ele>
        <time>2003-04-17T14:16:08Z</time>
      </trkpt>
      <trkpt lat="31.394157987087965" lon="-3.87038997374475">
        <ele>837.89999999999998</ele>
        <time>2003-04-17T14:16:11Z</time>
      </trkpt>
      <trkpt lat="31.39423300512135" lon="-3.870237004011869">
        <ele>838.29999999999995</ele>
        <time>2003-04-17T14:16:12Z</time>
      </trkpt>
      <trkpt lat="31.394272986799479" lon="-3.870056960731745">
        <ele>838.29999999999995</ele>
        <time>2003-04-17T14:16:15Z</time>
      </trkpt>
      <trkpt lat="31.39429503120482" lon="-3.86963501572609">
        <ele>838.70000000000005</ele>
        <time>2003-04-17T14:16:19Z</time>
      </trkpt>
      <trkpt lat="31.394314980134368" lon="-3.869203012436628">
        <ele>839</ele>
        <time>2003-04-17T14:16:22Z</time>
      </trkpt>
      <trkpt lat="31.394280027598143" lon="-3.869092036038637">
        <ele>839.10000000000002</ele>
        <time>2003-04-17T14:16:23Z</time>
      </trkpt>
      <trkpt lat="31.394216995686293" lon="-3.868721975013614">
        <ele>839</ele>
        <time>2003-04-17T14:16:26Z</time>
      </trkpt>
      <trkpt lat="31.394229987636209" lon="-3.868585014715791">
        <ele>839.20000000000005</ele>
        <time>2003-04-17T14:16:27Z</time>
      </trkpt>
      <trkpt lat="31.394348004832864" lon="-3.867729976773262">
        <ele>839.20000000000005</ele>
        <time>2003-04-17T14:16:34Z</time>
      </trkpt>
      <trkpt lat="31.394399972632527" lon="-3.867502994835377">
        <ele>839</ele>
        <time>2003-04-17T14:16:35Z</time>
      </trkpt>
      <trkpt lat="31.394438026472926" lon="-3.867392018437386">
        <ele>838.79999999999995</ele>
        <time>2003-04-17T14:16:38Z</time>
      </trkpt>
      <trkpt lat="31.394561994820833" lon="-3.867410039529204">
        <ele>838.5</ele>
        <time>2003-04-17T14:16:41Z</time>
      </trkpt>
      <trkpt lat="31.394595019519329" lon="-3.867537025362253">
        <ele>838.5</ele>
        <time>2003-04-17T14:16:42Z</time>
      </trkpt>
      <trkpt lat="31.394647993147373" lon="-3.867677003145218">
        <ele>838.60000000000002</ele>
        <time>2003-04-17T14:16:45Z</time>
      </trkpt>
      <trkpt lat="31.394542967900634" lon="-3.867582958191633">
        <ele>839.39999999999998</ele>
        <time>2003-04-17T14:17:04Z</time>
      </trkpt>
      <trkpt lat="31.394583033397794" lon="-3.867453038692474">
        <ele>838.89999999999998</ele>
        <time>2003-04-17T14:17:12Z</time>
      </trkpt>
      <trkpt lat="31.394614968448877" lon="-3.867317000404">
        <ele>839</ele>
        <time>2003-04-17T14:17:13Z</time>
      </trkpt>
      <trkpt lat="31.394635001197457" lon="-3.867150032892823">
        <ele>839</ele>
        <time>2003-04-17T14:17:16Z</time>
      </trkpt>
      <trkpt lat="31.394650004804134" lon="-3.866852978244424">
        <ele>839.10000000000002</ele>
        <time>2003-04-17T14:17:19Z</time>
      </trkpt>
      <trkpt lat="31.394623015075922" lon="-3.866377975791693">
        <ele>838.89999999999998</ele>
        <time>2003-04-17T14:17:23Z</time>
      </trkpt>
      <trkpt lat="31.394610023126006" lon="-3.865995006635785">
        <ele>838.39999999999998</ele>
        <time>2003-04-17T14:17:25Z</time>
      </trkpt>
      <trkpt lat="31.394637012854218" lon="-3.864812990650535">
        <ele>838.70000000000005</ele>
        <time>2003-04-17T14:17:33Z</time>
      </trkpt>
      <trkpt lat="31.394652016460896" lon="-3.863670034334064">
        <ele>838.60000000000002</ele>
        <time>2003-04-17T14:17:40Z</time>
      </trkpt>
      <trkpt lat="31.394665008410811" lon="-3.863216992467642">
        <ele>838.70000000000005</ele>
        <time>2003-04-17T14:17:43Z</time>
      </trkpt>
      <trkpt lat="31.394608011469245" lon="-3.86291298083961">
        <ele>839</ele>
        <time>2003-04-17T14:17:46Z</time>
      </trkpt>
      <trkpt lat="31.394570041447878" lon="-3.862602012231946">
        <ele>839.10000000000002</ele>
        <time>2003-04-17T14:17:47Z</time>
      </trkpt>
      <trkpt lat="31.394589990377426" lon="-3.862443007528782">
        <ele>839</ele>
        <time>2003-04-17T14:17:48Z</time>
      </trkpt>
      <trkpt lat="31.394595019519329" lon="-3.862121980637312">
        <ele>839</ele>
        <time>2003-04-17T14:17:51Z</time>
      </trkpt>
      <trkpt lat="31.394574986770749" lon="-3.861961970105767">
        <ele>839.10000000000002</ele>
        <time>2003-04-17T14:17:51Z</time>
      </trkpt>
      <trkpt lat="31.394550008699298" lon="-3.86132201179862">
        <ele>839.70000000000005</ele>
        <time>2003-04-17T14:17:55Z</time>
      </trkpt>
      <trkpt lat="31.394517989829183" lon="-3.861072985455394">
        <ele>839.79999999999995</ele>
        <time>2003-04-17T14:17:58Z</time>
      </trkpt>
      <trkpt lat="31.394523018971086" lon="-3.860963014885783">
        <ele>839.29999999999995</ele>
        <time>2003-04-17T14:17:59Z</time>
      </trkpt>
      <trkpt lat="31.394542967900634" lon="-3.860856983810663">
        <ele>840</ele>
        <time>2003-04-17T14:17:59Z</time>
      </trkpt>
      <trkpt lat="31.394578004255891" lon="-3.860751958563924">
        <ele>839.60000000000002</ele>
        <time>2003-04-17T14:18:00Z</time>
      </trkpt>
      <trkpt lat="31.394667020067573" lon="-3.860456999391317">
        <ele>839.89999999999998</ele>
        <time>2003-04-17T14:18:03Z</time>
      </trkpt>
      <trkpt lat="31.394668025895953" lon="-3.860219959169626">
        <ele>840</ele>
        <time>2003-04-17T14:18:06Z</time>
      </trkpt>
      <trkpt lat="31.394656961783767" lon="-3.859704975038767">
        <ele>840.5</ele>
        <time>2003-04-17T14:18:10Z</time>
      </trkpt>
      <trkpt lat="31.394691998139024" lon="-3.859598021954298">
        <ele>840.60000000000002</ele>
        <time>2003-04-17T14:18:13Z</time>
      </trkpt>
      <trkpt lat="31.394742038100958" lon="-3.859465001150966">
        <ele>840.29999999999995</ele>
        <time>2003-04-17T14:18:14Z</time>
      </trkpt>
      <trkpt lat="31.39481202699244" lon="-3.859235001727939">
        <ele>840.5</ele>
        <time>2003-04-17T14:18:18Z</time>
      </trkpt>
      <trkpt lat="31.394822001457214" lon="-3.859020005911589">
        <ele>840.79999999999995</ele>
        <time>2003-04-17T14:18:19Z</time>
      </trkpt>
      <trkpt lat="31.394843040034175" lon="-3.858810039237142">
        <ele>841</ele>
        <time>2003-04-17T14:18:22Z</time>
      </trkpt>
      <trkpt lat="31.394927026703954" lon="-3.858663020655513">
        <ele>841.20000000000005</ele>
        <time>2003-04-17T14:18:23Z</time>
      </trkpt>
      <trkpt lat="31.395022999495268" lon="-3.858507033437491">
        <ele>840.89999999999998</ele>
        <time>2003-04-17T14:18:26Z</time>
      </trkpt>
      <trkpt lat="31.395076978951693" lon="-3.858309974893928">
        <ele>841.39999999999998</ele>
        <time>2003-04-17T14:18:27Z</time>
      </trkpt>
      <trkpt lat="31.395183010026813" lon="-3.857631962746382">
        <ele>841.5</ele>
        <time>2003-04-17T14:18:34Z</time>
      </trkpt>
      <trkpt lat="31.395187033340335" lon="-3.857255028560758">
        <ele>841.70000000000005</ele>
        <time>2003-04-17T14:18:37Z</time>
      </trkpt>
      <trkpt lat="31.395191978663206" lon="-3.857142040506005">
        <ele>841.60000000000002</ele>
        <time>2003-04-17T14:18:37Z</time>
      </trkpt>
      <trkpt lat="31.395261967554688" lon="-3.856782037764788">
        <ele>841.70000000000005</ele>
        <time>2003-04-17T14:18:41Z</time>
      </trkpt>
      <trkpt lat="31.395303038880229" lon="-3.856535023078322">
        <ele>841.89999999999998</ele>
        <time>2003-04-17T14:18:42Z</time>
      </trkpt>
      <trkpt lat="31.39537001028657" lon="-3.856151970103383">
        <ele>842.20000000000005</ele>
        <time>2003-04-17T14:18:45Z</time>
      </trkpt>
      <trkpt lat="31.395383002236485" lon="-3.856024984270334">
        <ele>842.10000000000002</ele>
        <time>2003-04-17T14:18:46Z</time>
      </trkpt>
      <trkpt lat="31.395428013056517" lon="-3.855781992897391">
        <ele>842.29999999999995</ele>
        <time>2003-04-17T14:18:49Z</time>
      </trkpt>
      <trkpt lat="31.395473023876548" lon="-3.855676967650652">
        <ele>842.5</ele>
        <time>2003-04-17T14:18:49Z</time>
      </trkpt>
      <trkpt lat="31.395862028002739" lon="-3.854599976912141">
        <ele>843.10000000000002</ele>
        <time>2003-04-17T14:19:00Z</time>
      </trkpt>
      <trkpt lat="31.39590997248888" lon="-3.854486988857389">
        <ele>843.10000000000002</ele>
        <time>2003-04-17T14:19:00Z</time>
      </trkpt>
      <trkpt lat="31.39631699770689" lon="-3.853432964533567">
        <ele>843.60000000000002</ele>
        <time>2003-04-17T14:19:08Z</time>
      </trkpt>
      <trkpt lat="31.396369971334934" lon="-3.853313019499183">
        <ele>843.79999999999995</ele>
        <time>2003-04-17T14:19:09Z</time>
      </trkpt>
      <trkpt lat="31.396631989628077" lon="-3.852538028731942">
        <ele>844.29999999999995</ele>
        <time>2003-04-17T14:19:16Z</time>
      </trkpt>
      <trkpt lat="31.396904988214374" lon="-3.851566985249519">
        <ele>844.79999999999995</ele>
        <time>2003-04-17T14:19:23Z</time>
      </trkpt>
      <trkpt lat="31.397016970440745" lon="-3.851298009976745">
        <ele>844.70000000000005</ele>
        <time>2003-04-17T14:19:24Z</time>
      </trkpt>
      <trkpt lat="31.397430030629039" lon="-3.850382035598159">
        <ele>844.60000000000002</ele>
        <time>2003-04-17T14:19:31Z</time>
      </trkpt>
      <trkpt lat="31.397536983713508" lon="-3.850195035338402">
        <ele>845</ele>
        <time>2003-04-17T14:19:34Z</time>
      </trkpt>
      <trkpt lat="31.397634968161583" lon="-3.850067965686321">
        <ele>845.10000000000002</ele>
        <time>2003-04-17T14:19:35Z</time>
      </trkpt>
      <trkpt lat="31.39771300368011" lon="-3.849984984844923">
        <ele>845.20000000000005</ele>
        <time>2003-04-17T14:19:39Z</time>
      </trkpt>
      <trkpt lat="31.397851975634694" lon="-3.849981967359781">
        <ele>846.79999999999995</ele>
        <time>2003-04-17T14:20:59Z</time>
      </trkpt>
      <trkpt lat="31.397917019203305" lon="-3.850078023970127">
        <ele>846.79999999999995</ele>
        <time>2003-04-17T14:21:01Z</time>
      </trkpt>
      <trkpt lat="31.398012991994619" lon="-3.850142983719707">
        <ele>846.70000000000005</ele>
        <time>2003-04-17T14:21:04Z</time>
      </trkpt>
      <trkpt lat="31.398141989484429" lon="-3.850118005648255">
        <ele>846.79999999999995</ele>
        <time>2003-04-17T14:21:08Z</time>
      </trkpt>
      <trkpt lat="31.398237962275743" lon="-3.850124962627888">
        <ele>846.5</ele>
        <time>2003-04-17T14:21:09Z</time>
      </trkpt>
      <trkpt lat="31.398527976125479" lon="-3.850195035338402">
        <ele>846.5</ele>
        <time>2003-04-17T14:21:15Z</time>
      </trkpt>
      <trkpt lat="31.398814972490072" lon="-3.850237028673291">
        <ele>846.60000000000002</ele>
        <time>2003-04-17T14:21:19Z</time>
      </trkpt>
      <trkpt lat="31.398967020213604" lon="-3.850211966782808">
        <ele>847</ele>
        <time>2003-04-17T14:21:20Z</time>
      </trkpt>
      <trkpt lat="31.399221997708082" lon="-3.850212972611189">
        <ele>847.39999999999998</ele>
        <time>2003-04-17T14:21:24Z</time>
      </trkpt>
      <trkpt lat="31.399395000189543" lon="-3.850229987874627">
        <ele>847.5</ele>
        <time>2003-04-17T14:21:27Z</time>
      </trkpt>
      <trkpt lat="31.399598009884357" lon="-3.850229987874627">
        <ele>847.60000000000002</ele>
        <time>2003-04-17T14:21:31Z</time>
      </trkpt>
      <trkpt lat="31.399847036227584" lon="-3.850208027288318">
        <ele>847.79999999999995</ele>
        <time>2003-04-17T14:21:35Z</time>
      </trkpt>
      <trkpt lat="31.399966981261969" lon="-3.850208027288318">
        <ele>847.89999999999998</ele>
        <time>2003-04-17T14:21:36Z</time>
      </trkpt>
      <trkpt lat="31.400088015943766" lon="-3.850172990933061">
        <ele>847.79999999999995</ele>
        <time>2003-04-17T14:21:39Z</time>
      </trkpt>
      <trkpt lat="31.400172002613544" lon="-3.85010501369834">
        <ele>849.29999999999995</ele>
        <time>2003-04-17T14:21:41Z</time>
      </trkpt>
      <trkpt lat="31.400245008990169" lon="-3.850024966523051">
        <ele>849</ele>
        <time>2003-04-17T14:21:43Z</time>
      </trkpt>
      <trkpt lat="31.400412982329726" lon="-3.84974199347198">
        <ele>849</ele>
        <time>2003-04-17T14:21:50Z</time>
      </trkpt>
      <trkpt lat="31.400480037555099" lon="-3.849643003195524">
        <ele>849.10000000000002</ele>
        <time>2003-04-17T14:22:05Z</time>
      </trkpt>
      <trkpt lat="31.400560000911355" lon="-3.849577037617564">
        <ele>849.29999999999995</ele>
        <time>2003-04-17T14:22:08Z</time>
      </trkpt>
      <trkpt lat="31.400648010894656" lon="-3.849497996270657">
        <ele>850</ele>
        <time>2003-04-17T14:22:10Z</time>
      </trkpt>
      <trkpt lat="31.400762004777789" lon="-3.84941702708602">
        <ele>850</ele>
        <time>2003-04-17T14:22:14Z</time>
      </trkpt>
      <trkpt lat="31.400867030024529" lon="-3.84939699433744">
        <ele>850.10000000000002</ele>
        <time>2003-04-17T14:22:17Z</time>
      </trkpt>
      <trkpt lat="31.400971971452236" lon="-3.849345026537776">
        <ele>849.89999999999998</ele>
        <time>2003-04-17T14:22:21Z</time>
      </trkpt>
      <trkpt lat="31.401098035275936" lon="-3.849242012947798">
        <ele>849.79999999999995</ele>
        <time>2003-04-17T14:22:25Z</time>
      </trkpt>
      <trkpt lat="31.401144973933697" lon="-3.849106980487704">
        <ele>849.89999999999998</ele>
        <time>2003-04-17T14:22:28Z</time>
      </trkpt>
      <trkpt lat="31.401183027774096" lon="-3.848994998261333">
        <ele>849.89999999999998</ele>
        <time>2003-04-17T14:22:30Z</time>
      </trkpt>
      <trkpt lat="31.401328034698963" lon="-3.848680006340146">
        <ele>849.29999999999995</ele>
        <time>2003-04-17T14:22:39Z</time>
      </trkpt>
      <trkpt lat="31.401340020820498" lon="-3.848572969436646">
        <ele>849.20000000000005</ele>
        <time>2003-04-17T14:22:40Z</time>
      </trkpt>
      <trkpt lat="31.401352006942034" lon="-3.848304999992251">
        <ele>849.10000000000002</ele>
        <time>2003-04-17T14:22:47Z</time>
      </trkpt>
      <trkpt lat="31.401370028033853" lon="-3.848197041079402">
        <ele>849</ele>
        <time>2003-04-17T14:22:49Z</time>
      </trkpt>
      <trkpt lat="31.401391988620162" lon="-3.848093021661043">
        <ele>849.20000000000005</ele>
        <time>2003-04-17T14:22:53Z</time>
      </trkpt>
      <trkpt lat="31.401410009711981" lon="-3.847969975322485">
        <ele>849.29999999999995</ele>
        <time>2003-04-17T14:23:04Z</time>
      </trkpt>
      <trkpt lat="31.401459965854883" lon="-3.847757996991277">
        <ele>849.29999999999995</ele>
        <time>2003-04-17T14:23:24Z</time>
      </trkpt>
      <trkpt lat="31.401497013866901" lon="-3.847630005329847">
        <ele>849.70000000000005</ele>
        <time>2003-04-17T14:23:27Z</time>
      </trkpt>
      <trkpt lat="31.40155803412199" lon="-3.847502013668418">
        <ele>849.89999999999998</ele>
        <time>2003-04-17T14:23:31Z</time>
      </trkpt>
      <trkpt lat="31.401632968336344" lon="-3.847322976216674">
        <ele>849.70000000000005</ele>
        <time>2003-04-17T14:23:34Z</time>
      </trkpt>
      <trkpt lat="31.401691976934671" lon="-3.847232032567263">
        <ele>849.79999999999995</ele>
        <time>2003-04-17T14:23:37Z</time>
      </trkpt>
      <trkpt lat="31.401912001892924" lon="-3.846870018169284">
        <ele>849.79999999999995</ele>
        <time>2003-04-17T14:23:46Z</time>
      </trkpt>
      <trkpt lat="31.401962041854858" lon="-3.846713025122881">
        <ele>849.70000000000005</ele>
        <time>2003-04-17T14:23:49Z</time>
      </trkpt>
      <trkpt lat="31.401996994391084" lon="-3.846544967964292">
        <ele>849.79999999999995</ele>
        <time>2003-04-17T14:23:53Z</time>
      </trkpt>
      <trkpt lat="31.402043011039495" lon="-3.846380012109876">
        <ele>849.79999999999995</ele>
        <time>2003-04-17T14:23:57Z</time>
      </trkpt>
      <trkpt lat="31.402092967182398" lon="-3.846255037933588">
        <ele>849.70000000000005</ele>
        <time>2003-04-17T14:24:00Z</time>
      </trkpt>
      <trkpt lat="31.402122974395752" lon="-3.846074994653463">
        <ele>849.79999999999995</ele>
        <time>2003-04-17T14:24:04Z</time>
      </trkpt>
      <trkpt lat="31.402133032679558" lon="-3.845947002992034">
        <ele>849.89999999999998</ele>
        <time>2003-04-17T14:24:05Z</time>
      </trkpt>
      <trkpt lat="31.402172008529305" lon="-3.845693031325936">
        <ele>850.39999999999998</ele>
        <time>2003-04-17T14:24:09Z</time>
      </trkpt>
      <trkpt lat="31.40216002240777" lon="-3.845537966117263">
        <ele>850</ele>
        <time>2003-04-17T14:24:13Z</time>
      </trkpt>
      <trkpt lat="31.40209699049592" lon="-3.845405029132962">
        <ele>850.89999999999998</ele>
        <time>2003-04-17T14:24:16Z</time>
      </trkpt>
      <trkpt lat="31.402090033516288" lon="-3.84529204107821">
        <ele>850.89999999999998</ele>
        <time>2003-04-17T14:24:17Z</time>
      </trkpt>
      <trkpt lat="31.402128003537655" lon="-3.845160026103258">
        <ele>850.60000000000002</ele>
        <time>2003-04-17T14:24:20Z</time>
      </trkpt>
      <trkpt lat="31.402282984927297" lon="-3.844751995056868">
        <ele>849.79999999999995</ele>
        <time>2003-04-17T14:24:25Z</time>
      </trkpt>
      <trkpt lat="31.402517007663846" lon="-3.844421999529004">
        <ele>849.79999999999995</ele>
        <time>2003-04-17T14:24:31Z</time>
      </trkpt>
      <trkpt lat="31.40263301320374" lon="-3.844323009252548">
        <ele>849.79999999999995</ele>
        <time>2003-04-17T14:24:32Z</time>
      </trkpt>
      <trkpt lat="31.402722029015422" lon="-3.844222007319331">
        <ele>850</ele>
        <time>2003-04-17T14:24:35Z</time>
      </trkpt>
      <trkpt lat="31.402841974049807" lon="-3.844069959595799">
        <ele>849.89999999999998</ele>
        <time>2003-04-17T14:24:37Z</time>
      </trkpt>
      <trkpt lat="31.402837028726935" lon="-3.843923024833202">
        <ele>850.60000000000002</ele>
        <time>2003-04-17T14:24:40Z</time>
      </trkpt>
      <trkpt lat="31.402838034555316" lon="-3.843778017908335">
        <ele>850.39999999999998</ele>
        <time>2003-04-17T14:24:41Z</time>
      </trkpt>
      <trkpt lat="31.402908023446798" lon="-3.843493033200502">
        <ele>851</ele>
        <time>2003-04-17T14:24:45Z</time>
      </trkpt>
      <trkpt lat="31.402986980974674" lon="-3.843358000740409">
        <ele>851</ele>
        <time>2003-04-17T14:24:48Z</time>
      </trkpt>
      <trkpt lat="31.403025034815073" lon="-3.843194972723723">
        <ele>850.79999999999995</ele>
        <time>2003-04-17T14:24:50Z</time>
      </trkpt>
      <trkpt lat="31.403029980137944" lon="-3.843011995777488">
        <ele>851.10000000000002</ele>
        <time>2003-04-17T14:24:52Z</time>
      </trkpt>
      <trkpt lat="31.403065016493201" lon="-3.842776967212558">
        <ele>852.10000000000002</ele>
        <time>2003-04-17T14:24:55Z</time>
      </trkpt>
      <trkpt lat="31.403120001778007" lon="-3.842660039663315">
        <ele>851.60000000000002</ele>
        <time>2003-04-17T14:24:56Z</time>
      </trkpt>
      <trkpt lat="31.403232989832759" lon="-3.842540010809898">
        <ele>851.39999999999998</ele>
        <time>2003-04-17T14:24:59Z</time>
      </trkpt>
      <trkpt lat="31.403531972318888" lon="-3.842252008616924">
        <ele>852</ele>
        <time>2003-04-17T14:25:03Z</time>
      </trkpt>
      <trkpt lat="31.403742022812366" lon="-3.84189703501761">
        <ele>852.5</ele>
        <time>2003-04-17T14:25:08Z</time>
      </trkpt>
      <trkpt lat="31.403873031958938" lon="-3.841563016176224">
        <ele>852.29999999999995</ele>
        <time>2003-04-17T14:25:12Z</time>
      </trkpt>
      <trkpt lat="31.403966993093491" lon="-3.841452961787581">
        <ele>852.20000000000005</ele>
        <time>2003-04-17T14:25:15Z</time>
      </trkpt>
      <trkpt lat="31.404192969202995" lon="-3.841247018426657">
        <ele>852.29999999999995</ele>
        <time>2003-04-17T14:25:19Z</time>
      </trkpt>
      <trkpt lat="31.404275028035045" lon="-3.841139981523156">
        <ele>852.29999999999995</ele>
        <time>2003-04-17T14:25:22Z</time>
      </trkpt>
      <trkpt lat="31.404306963086128" lon="-3.841037973761559">
        <ele>852.5</ele>
        <time>2003-04-17T14:25:25Z</time>
      </trkpt>
      <trkpt lat="31.404417017474771" lon="-3.840815015137196">
        <ele>857.29999999999995</ele>
        <time>2003-04-17T14:25:30Z</time>
      </trkpt>
      <trkpt lat="31.404535034671426" lon="-3.84054696187377">
        <ele>858</ele>
        <time>2003-04-17T14:25:35Z</time>
      </trkpt>
      <trkpt lat="31.404622038826346" lon="-3.840446965768933">
        <ele>859.39999999999998</ele>
        <time>2003-04-17T14:28:35Z</time>
      </trkpt>
      <trkpt lat="31.404648022726178" lon="-3.840564982965589">
        <ele>859.29999999999995</ele>
        <time>2003-04-17T14:28:38Z</time>
      </trkpt>
      <trkpt lat="31.40456797555089" lon="-3.840628014877439">
        <ele>859.29999999999995</ele>
        <time>2003-04-17T14:28:39Z</time>
      </trkpt>
      <trkpt lat="31.404427997767925" lon="-3.840747959911823">
        <ele>858.79999999999995</ele>
        <time>2003-04-17T14:28:43Z</time>
      </trkpt>
      <trkpt lat="31.404381981119514" lon="-3.840885004028678">
        <ele>858.10000000000002</ele>
        <time>2003-04-17T14:28:47Z</time>
      </trkpt>
      <trkpt lat="31.40430998057127" lon="-3.841045014560223">
        <ele>855</ele>
        <time>2003-04-17T14:28:51Z</time>
      </trkpt>
      <trkpt lat="31.404245020821691" lon="-3.841172000393271">
        <ele>852.20000000000005</ele>
        <time>2003-04-17T14:28:54Z</time>
      </trkpt>
      <trkpt lat="31.404152987524867" lon="-3.841281970962882">
        <ele>852.70000000000005</ele>
        <time>2003-04-17T14:28:57Z</time>
      </trkpt>
      <trkpt lat="31.404067995026708" lon="-3.841350032016635">
        <ele>852.70000000000005</ele>
        <time>2003-04-17T14:28:58Z</time>
      </trkpt>
      <trkpt lat="31.403997000306845" lon="-3.841437958180904">
        <ele>852.20000000000005</ele>
        <time>2003-04-17T14:29:01Z</time>
      </trkpt>
      <trkpt lat="31.403919970616698" lon="-3.841539965942502">
        <ele>852</ele>
        <time>2003-04-17T14:29:02Z</time>
      </trkpt>
      <trkpt lat="31.403806982561946" lon="-3.841696958988905">
        <ele>852</ele>
        <time>2003-04-17T14:29:06Z</time>
      </trkpt>
      <trkpt lat="31.403743028640747" lon="-3.84185797534883">
        <ele>852</ele>
        <time>2003-04-17T14:29:07Z</time>
      </trkpt>
      <trkpt lat="31.403672033920884" lon="-3.842025026679039">
        <ele>852.10000000000002</ele>
        <time>2003-04-17T14:29:10Z</time>
      </trkpt>
      <trkpt lat="31.403607996180654" lon="-3.842144971713424">
        <ele>851.79999999999995</ele>
        <time>2003-04-17T14:29:11Z</time>
      </trkpt>
      <trkpt lat="31.403516968712211" lon="-3.842272041365504">
        <ele>851.5</ele>
        <time>2003-04-17T14:29:14Z</time>
      </trkpt>
      <trkpt lat="31.403359975665808" lon="-3.842428028583527">
        <ele>851.39999999999998</ele>
        <time>2003-04-17T14:29:17Z</time>
      </trkpt>
      <trkpt lat="31.403202982619405" lon="-3.842570018023253">
        <ele>851.10000000000002</ele>
        <time>2003-04-17T14:29:20Z</time>
      </trkpt>
      <trkpt lat="31.403023023158312" lon="-3.842791970819235">
        <ele>850.89999999999998</ele>
        <time>2003-04-17T14:29:24Z</time>
      </trkpt>
      <trkpt lat="31.403002990409732" lon="-3.842921974137425">
        <ele>851.10000000000002</ele>
        <time>2003-04-17T14:29:25Z</time>
      </trkpt>
      <trkpt lat="31.403005002066493" lon="-3.843054994940758">
        <ele>850.39999999999998</ele>
        <time>2003-04-17T14:29:28Z</time>
      </trkpt>
      <trkpt lat="31.403005002066493" lon="-3.843215005472302">
        <ele>850.10000000000002</ele>
        <time>2003-04-17T14:29:30Z</time>
      </trkpt>
      <trkpt lat="31.402980023995042" lon="-3.843378033488989">
        <ele>850.60000000000002</ele>
        <time>2003-04-17T14:29:33Z</time>
      </trkpt>
      <trkpt lat="31.402910035103559" lon="-3.84353200905025">
        <ele>850.5</ele>
        <time>2003-04-17T14:29:34Z</time>
      </trkpt>
      <trkpt lat="31.402844991534948" lon="-3.843684978783131">
        <ele>850.5</ele>
        <time>2003-04-17T14:29:37Z</time>
      </trkpt>
      <trkpt lat="31.402831999585032" lon="-3.843856975436211">
        <ele>850.39999999999998</ele>
        <time>2003-04-17T14:29:38Z</time>
      </trkpt>
      <trkpt lat="31.402777014300227" lon="-3.844171967357397">
        <ele>849.79999999999995</ele>
        <time>2003-04-17T14:29:42Z</time>
      </trkpt>
      <trkpt lat="31.402703002095222" lon="-3.844308005645871">
        <ele>849.5</ele>
        <time>2003-04-17T14:29:45Z</time>
      </trkpt>
      <trkpt lat="31.402603005990386" lon="-3.844402972608805">
        <ele>849.39999999999998</ele>
        <time>2003-04-17T14:29:47Z</time>
      </trkpt>
      <trkpt lat="31.402352973818779" lon="-3.844604976475239">
        <ele>849.20000000000005</ele>
        <time>2003-04-17T14:29:51Z</time>
      </trkpt>
      <trkpt lat="31.402254989370704" lon="-3.844760041683912">
        <ele>849.10000000000002</ele>
        <time>2003-04-17T14:29:52Z</time>
      </trkpt>
      <trkpt lat="31.402243003249168" lon="-3.844897001981735">
        <ele>849.39999999999998</ele>
        <time>2003-04-17T14:29:55Z</time>
      </trkpt>
      <trkpt lat="31.402133032679558" lon="-3.845090037211776">
        <ele>849.29999999999995</ele>
        <time>2003-04-17T14:30:00Z</time>
      </trkpt>
      <trkpt lat="31.402043011039495" lon="-3.845303021371365">
        <ele>849.70000000000005</ele>
        <time>2003-04-17T14:30:03Z</time>
      </trkpt>
      <trkpt lat="31.402034964412451" lon="-3.845463031902909">
        <ele>849.79999999999995</ele>
        <time>2003-04-17T14:30:04Z</time>
      </trkpt>
      <trkpt lat="31.402039993554354" lon="-3.845696970820427">
        <ele>849.70000000000005</ele>
        <time>2003-04-17T14:30:08Z</time>
      </trkpt>
      <trkpt lat="31.402103025466204" lon="-3.845790009945631">
        <ele>849.60000000000002</ele>
        <time>2003-04-17T14:30:09Z</time>
      </trkpt>
      <trkpt lat="31.402145018801093" lon="-3.845923030748963">
        <ele>848.70000000000005</ele>
        <time>2003-04-17T14:30:12Z</time>
      </trkpt>
      <trkpt lat="31.4021170232445" lon="-3.846071977168322">
        <ele>848.89999999999998</ele>
        <time>2003-04-17T14:30:14Z</time>
      </trkpt>
      <trkpt lat="31.402047034353018" lon="-3.846386969089508">
        <ele>848.70000000000005</ele>
        <time>2003-04-17T14:30:19Z</time>
      </trkpt>
      <trkpt lat="31.401962963864207" lon="-3.846631972119212">
        <ele>848.10000000000002</ele>
        <time>2003-04-17T14:30:20Z</time>
      </trkpt>
      <trkpt lat="31.401887023821473" lon="-3.846928020939231">
        <ele>847.89999999999998</ele>
        <time>2003-04-17T14:30:24Z</time>
      </trkpt>
      <trkpt lat="31.401725001633167" lon="-3.847179980948567">
        <ele>847.70000000000005</ele>
        <time>2003-04-17T14:30:28Z</time>
      </trkpt>
      <trkpt lat="31.40164696611464" lon="-3.847319958731532">
        <ele>847.20000000000005</ele>
        <time>2003-04-17T14:30:31Z</time>
      </trkpt>
      <trkpt lat="31.401522997766733" lon="-3.8475720025599">
        <ele>847.5</ele>
        <time>2003-04-17T14:30:34Z</time>
      </trkpt>
      <trkpt lat="31.401458038017154" lon="-3.84772002696991">
        <ele>847.39999999999998</ele>
        <time>2003-04-17T14:30:35Z</time>
      </trkpt>
      <trkpt lat="31.4014280308038" lon="-3.847881965339184">
        <ele>846.70000000000005</ele>
        <time>2003-04-17T14:30:38Z</time>
      </trkpt>
      <trkpt lat="31.40138503164053" lon="-3.84806502610445">
        <ele>846.70000000000005</ele>
        <time>2003-04-17T14:30:39Z</time>
      </trkpt>
      <trkpt lat="31.401352006942034" lon="-3.848272981122136">
        <ele>846.5</ele>
        <time>2003-04-17T14:30:42Z</time>
      </trkpt>
      <trkpt lat="31.401310013607144" lon="-3.848601970821619">
        <ele>846.29999999999995</ele>
        <time>2003-04-17T14:30:45Z</time>
      </trkpt>
      <trkpt lat="31.401274977251887" lon="-3.848953004926443">
        <ele>846</ele>
        <time>2003-04-17T14:30:49Z</time>
      </trkpt>
      <trkpt lat="31.401238013058901" lon="-3.849061969667673">
        <ele>846</ele>
        <time>2003-04-17T14:30:50Z</time>
      </trkpt>
      <trkpt lat="31.401125025004148" lon="-3.849445022642613">
        <ele>845.89999999999998</ele>
        <time>2003-04-17T14:30:54Z</time>
      </trkpt>
      <trkpt lat="31.401092000305653" lon="-3.849587012082338">
        <ele>845.79999999999995</ele>
        <time>2003-04-17T14:30:55Z</time>
      </trkpt>
      <trkpt lat="31.40104497782886" lon="-3.849688014015555">
        <ele>845.79999999999995</ele>
        <time>2003-04-17T14:30:58Z</time>
      </trkpt>
      <trkpt lat="31.400886978954077" lon="-3.849679967388511">
        <ele>845.10000000000002</ele>
        <time>2003-04-17T14:31:17Z</time>
      </trkpt>
      <trkpt lat="31.400782959535718" lon="-3.849609978497028">
        <ele>845.89999999999998</ele>
        <time>2003-04-17T14:31:21Z</time>
      </trkpt>
      <trkpt lat="31.400647005066276" lon="-3.849539989605546">
        <ele>848.20000000000005</ele>
        <time>2003-04-17T14:31:41Z</time>
      </trkpt>
      <trkpt lat="31.400557989254594" lon="-3.8495699968189">
        <ele>848.70000000000005</ele>
        <time>2003-04-17T14:31:45Z</time>
      </trkpt>
      <trkpt lat="31.400465033948421" lon="-3.849658006802201">
        <ele>847.60000000000002</ele>
        <time>2003-04-17T14:31:49Z</time>
      </trkpt>
      <trkpt lat="31.40037702396512" lon="-3.849773006513715">
        <ele>847</ele>
        <time>2003-04-17T14:31:52Z</time>
      </trkpt>
      <trkpt lat="31.400324972346425" lon="-3.849887000396848">
        <ele>846.70000000000005</ele>
        <time>2003-04-17T14:31:55Z</time>
      </trkpt>
      <trkpt lat="31.400222964584827" lon="-3.850044999271631">
        <ele>846.70000000000005</ele>
        <time>2003-04-17T14:31:57Z</time>
      </trkpt>
      <trkpt lat="31.40011802315712" lon="-3.850147007033229">
        <ele>846.39999999999998</ele>
        <time>2003-04-17T14:32:00Z</time>
      </trkpt>
      <trkpt lat="31.400024984031916" lon="-3.850212972611189">
        <ele>846.10000000000002</ele>
        <time>2003-04-17T14:32:02Z</time>
      </trkpt>
      <trkpt lat="31.39990302734077" lon="-3.850237028673291">
        <ele>845.29999999999995</ele>
        <time>2003-04-17T14:32:04Z</time>
      </trkpt>
      <trkpt lat="31.399761959910393" lon="-3.850222025066614">
        <ele>845.20000000000005</ele>
        <time>2003-04-17T14:32:06Z</time>
      </trkpt>
      <trkpt lat="31.399594992399216" lon="-3.850229987874627">
        <ele>845.20000000000005</ele>
        <time>2003-04-17T14:32:07Z</time>
      </trkpt>
      <trkpt lat="31.399449985474348" lon="-3.850268041715026">
        <ele>845.20000000000005</ele>
        <time>2003-04-17T14:32:10Z</time>
      </trkpt>
      <trkpt lat="31.399321993812919" lon="-3.850263012573123">
        <ele>845.20000000000005</ele>
        <time>2003-04-17T14:32:11Z</time>
      </trkpt>
      <trkpt lat="31.399042038246989" lon="-3.850226970389485">
        <ele>845.29999999999995</ele>
        <time>2003-04-17T14:32:15Z</time>
      </trkpt>
      <trkpt lat="31.398569969460368" lon="-3.85023501701653">
        <ele>845.20000000000005</ele>
        <time>2003-04-17T14:32:22Z</time>
      </trkpt>
      <trkpt lat="31.398260006681085" lon="-3.850193023681641">
        <ele>845.29999999999995</ele>
        <time>2003-04-17T14:32:26Z</time>
      </trkpt>
      <trkpt lat="31.398145006969571" lon="-3.850244991481304">
        <ele>845.60000000000002</ele>
        <time>2003-04-17T14:32:27Z</time>
      </trkpt>
      <trkpt lat="31.398015003651381" lon="-3.850287990644574">
        <ele>845.60000000000002</ele>
        <time>2003-04-17T14:32:30Z</time>
      </trkpt>
      <trkpt lat="31.397847030311823" lon="-3.850350016728044">
        <ele>845.39999999999998</ele>
        <time>2003-04-17T14:32:31Z</time>
      </trkpt>
      <trkpt lat="31.39751804061234" lon="-3.850557971745729">
        <ele>844.89999999999998</ele>
        <time>2003-04-17T14:32:35Z</time>
      </trkpt>
      <trkpt lat="31.397213023155928" lon="-3.85083700530231">
        <ele>845</ele>
        <time>2003-04-17T14:32:39Z</time>
      </trkpt>
      <trkpt lat="31.397153008729219" lon="-3.850944964215159">
        <ele>844.89999999999998</ele>
        <time>2003-04-17T14:32:41Z</time>
      </trkpt>
      <trkpt lat="31.397019987925887" lon="-3.851249981671572">
        <ele>845</ele>
        <time>2003-04-17T14:32:43Z</time>
      </trkpt>
      <trkpt lat="31.396876992657781" lon="-3.851527003571391">
        <ele>844.70000000000005</ele>
        <time>2003-04-17T14:32:46Z</time>
      </trkpt>
      <trkpt lat="31.396802980452776" lon="-3.851613001897931">
        <ele>844.79999999999995</ele>
        <time>2003-04-17T14:32:47Z</time>
      </trkpt>
      <trkpt lat="31.396510032936931" lon="-3.852022038772702">
        <ele>844.39999999999998</ele>
        <time>2003-04-17T14:32:51Z</time>
      </trkpt>
      <trkpt lat="31.395963029935956" lon="-3.853023005649447">
        <ele>843.5</ele>
        <time>2003-04-17T14:33:00Z</time>
      </trkpt>
      <trkpt lat="31.395667986944318" lon="-3.85363002307713">
        <ele>843.10000000000002</ele>
        <time>2003-04-17T14:33:04Z</time>
      </trkpt>
      <trkpt lat="31.395292980596423" lon="-3.854686981067061">
        <ele>842.79999999999995</ele>
        <time>2003-04-17T14:33:09Z</time>
      </trkpt>
      <trkpt lat="31.394961979240179" lon="-3.855675039812923">
        <ele>842.60000000000002</ele>
        <time>2003-04-17T14:33:16Z</time>
      </trkpt>
      <trkpt lat="31.394777996465564" lon="-3.856266969814897">
        <ele>842.70000000000005</ele>
        <time>2003-04-17T14:33:20Z</time>
      </trkpt>
      <trkpt lat="31.39455696567893" lon="-3.857144974172115">
        <ele>842.70000000000005</ele>
        <time>2003-04-17T14:33:25Z</time>
      </trkpt>
      <trkpt lat="31.394537016749382" lon="-3.857572032138705">
        <ele>842.29999999999995</ele>
        <time>2003-04-17T14:33:28Z</time>
      </trkpt>
      <trkpt lat="31.394627960398793" lon="-3.858302012085915">
        <ele>841.79999999999995</ele>
        <time>2003-04-17T14:33:35Z</time>
      </trkpt>
      <trkpt lat="31.394657967612147" lon="-3.858411982655525">
        <ele>842</ele>
        <time>2003-04-17T14:33:36Z</time>
      </trkpt>
      <trkpt lat="31.394671965390444" lon="-3.858620021492243">
        <ele>841.89999999999998</ele>
        <time>2003-04-17T14:33:37Z</time>
      </trkpt>
      <trkpt lat="31.394644975662231" lon="-3.858723035082221">
        <ele>842</ele>
        <time>2003-04-17T14:33:39Z</time>
      </trkpt>
      <trkpt lat="31.394650004804134" lon="-3.858831999823451">
        <ele>841.60000000000002</ele>
        <time>2003-04-17T14:33:40Z</time>
      </trkpt>
      <trkpt lat="31.394717982038856" lon="-3.859225027263165">
        <ele>841.5</ele>
        <time>2003-04-17T14:33:44Z</time>
      </trkpt>
      <trkpt lat="31.394707001745701" lon="-3.859361987560988">
        <ele>841.29999999999995</ele>
        <time>2003-04-17T14:33:45Z</time>
      </trkpt>
      <trkpt lat="31.394667020067573" lon="-3.859698018059135">
        <ele>841.10000000000002</ele>
        <time>2003-04-17T14:33:51Z</time>
      </trkpt>
      <trkpt lat="31.39464195817709" lon="-3.859836990013719">
        <ele>840.79999999999995</ele>
        <time>2003-04-17T14:33:52Z</time>
      </trkpt>
      <trkpt lat="31.394652016460896" lon="-3.859985014423728">
        <ele>840.89999999999998</ele>
        <time>2003-04-17T14:33:55Z</time>
      </trkpt>
      <trkpt lat="31.394667020067573" lon="-3.860128009691834">
        <ele>841.20000000000005</ele>
        <time>2003-04-17T14:33:56Z</time>
      </trkpt>
      <trkpt lat="31.394678000360727" lon="-3.860294977203012">
        <ele>840.70000000000005</ele>
        <time>2003-04-17T14:33:59Z</time>
      </trkpt>
      <trkpt lat="31.394665008410811" lon="-3.860463034361601">
        <ele>840.60000000000002</ele>
        <time>2003-04-17T14:34:00Z</time>
      </trkpt>
      <trkpt lat="31.394613040611148" lon="-3.860737038776279">
        <ele>840.29999999999995</ele>
        <time>2003-04-17T14:34:03Z</time>
      </trkpt>
      <trkpt lat="31.394523018971086" lon="-3.861074997112155">
        <ele>839.70000000000005</ele>
        <time>2003-04-17T14:34:07Z</time>
      </trkpt>
      <trkpt lat="31.394517989829183" lon="-3.861361993476749">
        <ele>839.39999999999998</ele>
        <time>2003-04-17T14:34:11Z</time>
      </trkpt>
      <trkpt lat="31.394420005381107" lon="-3.861414967104793">
        <ele>839.29999999999995</ele>
        <time>2003-04-17T14:34:22Z</time>
      </trkpt>
      <trkpt lat="31.39444699510932" lon="-3.861310025677085">
        <ele>847</ele>
        <time>2003-04-17T14:57:18Z</time>
      </trkpt>
      <trkpt lat="31.394516984000802" lon="-3.861237019300461">
        <ele>847.10000000000002</ele>
        <time>2003-04-17T14:57:20Z</time>
      </trkpt>
      <trkpt lat="31.394582027569413" lon="-3.86112998239696">
        <ele>846.20000000000005</ele>
        <time>2003-04-17T14:57:27Z</time>
      </trkpt>
      <trkpt lat="31.394570041447878" lon="-3.860984975472093">
        <ele>846.5</ele>
        <time>2003-04-17T14:57:30Z</time>
      </trkpt>
      <trkpt lat="31.3945999648422" lon="-3.860866958275437">
        <ele>846.29999999999995</ele>
        <time>2003-04-17T14:57:31Z</time>
      </trkpt>
      <trkpt lat="31.394701972603798" lon="-3.860407965257764">
        <ele>846.29999999999995</ele>
        <time>2003-04-17T14:57:39Z</time>
      </trkpt>
      <trkpt lat="31.394713036715984" lon="-3.860224988311529">
        <ele>846.60000000000002</ele>
        <time>2003-04-17T14:57:42Z</time>
      </trkpt>
      <trkpt lat="31.394701972603798" lon="-3.860047040507197">
        <ele>846.5</ele>
        <time>2003-04-17T14:57:43Z</time>
      </trkpt>
      <trkpt lat="31.394701972603798" lon="-3.859894992783666">
        <ele>846.60000000000002</ele>
        <time>2003-04-17T14:57:46Z</time>
      </trkpt>
      <trkpt lat="31.394687974825501" lon="-3.859758032485843">
        <ele>847</ele>
        <time>2003-04-17T14:57:47Z</time>
      </trkpt>
      <trkpt lat="31.394717982038856" lon="-3.859623000025749">
        <ele>847.20000000000005</ele>
        <time>2003-04-17T14:57:50Z</time>
      </trkpt>
      <trkpt lat="31.394774978980422" lon="-3.859491990879178">
        <ele>846.89999999999998</ele>
        <time>2003-04-17T14:57:51Z</time>
      </trkpt>
      <trkpt lat="31.394857037812471" lon="-3.859256962314248">
        <ele>847.10000000000002</ele>
        <time>2003-04-17T14:57:54Z</time>
      </trkpt>
      <trkpt lat="31.394934989511967" lon="-3.858739966526628">
        <ele>847.79999999999995</ele>
        <time>2003-04-17T14:58:01Z</time>
      </trkpt>
      <trkpt lat="31.395085025578737" lon="-3.858492029830813">
        <ele>847.70000000000005</ele>
        <time>2003-04-17T14:58:03Z</time>
      </trkpt>
      <trkpt lat="31.395127018913627" lon="-3.858288014307618">
        <ele>848</ele>
        <time>2003-04-17T14:58:06Z</time>
      </trkpt>
      <trkpt lat="31.395217040553689" lon="-3.857637997716665">
        <ele>848.29999999999995</ele>
        <time>2003-04-17T14:58:13Z</time>
      </trkpt>
      <trkpt lat="31.395292980596423" lon="-3.856814978644252">
        <ele>848.20000000000005</ele>
        <time>2003-04-17T14:58:21Z</time>
      </trkpt>
      <trkpt lat="31.395337991416454" lon="-3.856582967564464">
        <ele>848.10000000000002</ele>
        <time>2003-04-17T14:58:22Z</time>
      </trkpt>
      <trkpt lat="31.395445028319955" lon="-3.855860028415918">
        <ele>848.70000000000005</ele>
        <time>2003-04-17T14:58:29Z</time>
      </trkpt>
      <trkpt lat="31.395517028868198" lon="-3.855667999014258">
        <ele>848.5</ele>
        <time>2003-04-17T14:58:32Z</time>
      </trkpt>
      <trkpt lat="31.395864961668849" lon="-3.854723023250699">
        <ele>849.20000000000005</ele>
        <time>2003-04-17T14:58:40Z</time>
      </trkpt>
      <trkpt lat="31.395936962217093" lon="-3.854523031041026">
        <ele>849.10000000000002</ele>
        <time>2003-04-17T14:58:43Z</time>
      </trkpt>
      <trkpt lat="31.396088004112244" lon="-3.854126986116171">
        <ele>849.10000000000002</ele>
        <time>2003-04-17T14:58:47Z</time>
      </trkpt>
      <trkpt lat="31.396182971075177" lon="-3.85393001139164">
        <ele>849.29999999999995</ele>
        <time>2003-04-17T14:58:48Z</time>
      </trkpt>
      <trkpt lat="31.396286990493536" lon="-3.853645026683807">
        <ele>849.70000000000005</ele>
        <time>2003-04-17T14:58:52Z</time>
      </trkpt>
      <trkpt lat="31.396399978548288" lon="-3.853325005620718">
        <ele>850.10000000000002</ele>
        <time>2003-04-17T14:58:55Z</time>
      </trkpt>
      <trkpt lat="31.396669959649444" lon="-3.852520007640123">
        <ele>850.79999999999995</ele>
        <time>2003-04-17T14:59:02Z</time>
      </trkpt>
      <trkpt lat="31.396712036803365" lon="-3.852420011535287">
        <ele>850.89999999999998</ele>
        <time>2003-04-17T14:59:03Z</time>
      </trkpt>
      <trkpt lat="31.396732991561294" lon="-3.852314986288548">
        <ele>851</ele>
        <time>2003-04-17T14:59:04Z</time>
      </trkpt>
      <trkpt lat="31.396895013749599" lon="-3.851657006889582">
        <ele>850.60000000000002</ele>
        <time>2003-04-17T14:59:10Z</time>
      </trkpt>
      <trkpt lat="31.397085031494498" lon="-3.851240007206798">
        <ele>850.29999999999995</ele>
        <time>2003-04-17T14:59:14Z</time>
      </trkpt>
      <trkpt lat="31.397228026762605" lon="-3.850891990587115">
        <ele>850</ele>
        <time>2003-04-17T14:59:18Z</time>
      </trkpt>
      <trkpt lat="31.397342020645738" lon="-3.850638018921018">
        <ele>849.60000000000002</ele>
        <time>2003-04-17T14:59:20Z</time>
      </trkpt>
      <trkpt lat="31.397437993437052" lon="-3.850498041138053">
        <ele>849.10000000000002</ele>
        <time>2003-04-17T14:59:23Z</time>
      </trkpt>
      <trkpt lat="31.397622982040048" lon="-3.850371977314353">
        <ele>849.20000000000005</ele>
        <time>2003-04-17T14:59:26Z</time>
      </trkpt>
      <trkpt lat="31.397751979529858" lon="-3.850356973707676">
        <ele>849</ele>
        <time>2003-04-17T14:59:27Z</time>
      </trkpt>
      <trkpt lat="31.397866979241371" lon="-3.850310035049915">
        <ele>848.60000000000002</ele>
        <time>2003-04-17T14:59:30Z</time>
      </trkpt>
      <trkpt lat="31.397963035851717" lon="-3.850287990644574">
        <ele>848.39999999999998</ele>
        <time>2003-04-17T14:59:33Z</time>
      </trkpt>
      <trkpt lat="31.398093039169908" lon="-3.850267035886645">
        <ele>848.10000000000002</ele>
        <time>2003-04-17T14:59:38Z</time>
      </trkpt>
      <trkpt lat="31.398256989195943" lon="-3.850265024229884">
        <ele>848.39999999999998</ele>
        <time>2003-04-17T14:59:42Z</time>
      </trkpt>
      <trkpt lat="31.398380035534501" lon="-3.850295031443238">
        <ele>848.20000000000005</ele>
        <time>2003-04-17T14:59:45Z</time>
      </trkpt>
      <trkpt lat="31.398511966690421" lon="-3.850322021171451">
        <ele>848.20000000000005</ele>
        <time>2003-04-17T14:59:47Z</time>
      </trkpt>
      <trkpt lat="31.39861699193716" lon="-3.850310035049915">
        <ele>848.29999999999995</ele>
        <time>2003-04-17T14:59:50Z</time>
      </trkpt>
      <trkpt lat="31.398714976385236" lon="-3.85025798343122">
        <ele>848.5</ele>
        <time>2003-04-17T14:59:51Z</time>
      </trkpt>
      <trkpt lat="31.398827964439988" lon="-3.850244991481304">
        <ele>848.20000000000005</ele>
        <time>2003-04-17T14:59:54Z</time>
      </trkpt>
      <trkpt lat="31.398985041305423" lon="-3.850227976217866">
        <ele>848.5</ele>
        <time>2003-04-17T14:59:57Z</time>
      </trkpt>
      <trkpt lat="31.399112027138472" lon="-3.850223030894995">
        <ele>848.79999999999995</ele>
        <time>2003-04-17T14:59:58Z</time>
      </trkpt>
      <trkpt lat="31.399237001314759" lon="-3.850224958732724">
        <ele>849</ele>
        <time>2003-04-17T15:00:01Z</time>
      </trkpt>
      <trkpt lat="31.39956196770072" lon="-3.850248008966446">
        <ele>848.79999999999995</ele>
        <time>2003-04-17T15:00:05Z</time>
      </trkpt>
      <trkpt lat="31.399747962132096" lon="-3.850208027288318">
        <ele>848.89999999999998</ele>
        <time>2003-04-17T15:00:09Z</time>
      </trkpt>
      <trkpt lat="31.399866985157132" lon="-3.850211966782808">
        <ele>848.89999999999998</ele>
        <time>2003-04-17T15:00:10Z</time>
      </trkpt>
      <trkpt lat="31.399977961555123" lon="-3.850220013409853">
        <ele>849.10000000000002</ele>
        <time>2003-04-17T15:00:13Z</time>
      </trkpt>
      <trkpt lat="31.400092961266637" lon="-3.850202998146415">
        <ele>849.10000000000002</ele>
        <time>2003-04-17T15:00:14Z</time>
      </trkpt>
      <trkpt lat="31.400188012048602" lon="-3.850122028961778">
        <ele>850.10000000000002</ele>
        <time>2003-04-17T15:00:17Z</time>
      </trkpt>
      <trkpt lat="31.400309968739748" lon="-3.849994959309697">
        <ele>849.70000000000005</ele>
        <time>2003-04-17T15:00:21Z</time>
      </trkpt>
      <trkpt lat="31.400396972894669" lon="-3.849852969869971">
        <ele>849.70000000000005</ele>
        <time>2003-04-17T15:00:23Z</time>
      </trkpt>
      <trkpt lat="31.400557989254594" lon="-3.849605033174157">
        <ele>849.79999999999995</ele>
        <time>2003-04-17T15:00:27Z</time>
      </trkpt>
      <trkpt lat="31.400647005066276" lon="-3.849543007090688">
        <ele>850.20000000000005</ele>
        <time>2003-04-17T15:00:28Z</time>
      </trkpt>
      <trkpt lat="31.400857977569103" lon="-3.849409986287355">
        <ele>849.60000000000002</ele>
        <time>2003-04-17T15:00:33Z</time>
      </trkpt>
      <trkpt lat="31.400956967845559" lon="-3.849336979910731">
        <ele>849.20000000000005</ele>
        <time>2003-04-17T15:00:36Z</time>
      </trkpt>
      <trkpt lat="31.401046989485621" lon="-3.849222986027598">
        <ele>848.89999999999998</ele>
        <time>2003-04-17T15:00:37Z</time>
      </trkpt>
      <trkpt lat="31.401123013347387" lon="-3.849064987152815">
        <ele>848.60000000000002</ele>
        <time>2003-04-17T15:00:40Z</time>
      </trkpt>
      <trkpt lat="31.401228038594127" lon="-3.848885027691722">
        <ele>848.70000000000005</ele>
        <time>2003-04-17T15:00:41Z</time>
      </trkpt>
      <trkpt lat="31.401392994448543" lon="-3.848508009687066">
        <ele>848.39999999999998</ele>
        <time>2003-04-17T15:00:45Z</time>
      </trkpt>
      <trkpt lat="31.40138503164053" lon="-3.84830298833549">
        <ele>848.70000000000005</ele>
        <time>2003-04-17T15:00:48Z</time>
      </trkpt>
      <trkpt lat="31.401417972519994" lon="-3.848102996125817">
        <ele>848.39999999999998</ele>
        <time>2003-04-17T15:00:50Z</time>
      </trkpt>
      <trkpt lat="31.401568008586764" lon="-3.847536966204643">
        <ele>848.79999999999995</ele>
        <time>2003-04-17T15:00:55Z</time>
      </trkpt>
      <trkpt lat="31.401645038276911" lon="-3.847369998693466">
        <ele>848.70000000000005</ele>
        <time>2003-04-17T15:00:58Z</time>
      </trkpt>
      <trkpt lat="31.401734976097941" lon="-3.84720797650516">
        <ele>848.39999999999998</ele>
        <time>2003-04-17T15:00:59Z</time>
      </trkpt>
      <trkpt lat="31.40192499384284" lon="-3.846930032595992">
        <ele>848.29999999999995</ele>
        <time>2003-04-17T15:01:03Z</time>
      </trkpt>
      <trkpt lat="31.401977967470884" lon="-3.84677798487246">
        <ele>848.20000000000005</ele>
        <time>2003-04-17T15:01:06Z</time>
      </trkpt>
      <trkpt lat="31.402015015482903" lon="-3.846619985997677">
        <ele>848.39999999999998</ele>
        <time>2003-04-17T15:01:08Z</time>
      </trkpt>
      <trkpt lat="31.402043011039495" lon="-3.846378000453115">
        <ele>848.60000000000002</ele>
        <time>2003-04-17T15:01:11Z</time>
      </trkpt>
      <trkpt lat="31.4021170232445" lon="-3.846235005185008">
        <ele>848.79999999999995</ele>
        <time>2003-04-17T15:01:12Z</time>
      </trkpt>
      <trkpt lat="31.402152981609106" lon="-3.846071977168322">
        <ele>848.89999999999998</ele>
        <time>2003-04-17T15:01:15Z</time>
      </trkpt>
      <trkpt lat="31.40220201574266" lon="-3.845822028815746">
        <ele>848.79999999999995</ele>
        <time>2003-04-17T15:01:19Z</time>
      </trkpt>
      <trkpt lat="31.402221964672208" lon="-3.845590017735958">
        <ele>848.60000000000002</ele>
        <time>2003-04-17T15:01:22Z</time>
      </trkpt>
      <trkpt lat="31.402273010462523" lon="-3.8454669713974">
        <ele>849</ele>
        <time>2003-04-17T15:01:23Z</time>
      </trkpt>
      <trkpt lat="31.402277033776045" lon="-3.845341997221112">
        <ele>848.79999999999995</ele>
        <time>2003-04-17T15:01:26Z</time>
      </trkpt>
      <trkpt lat="31.402237974107265" lon="-3.845188021659851">
        <ele>849</ele>
        <time>2003-04-17T15:01:29Z</time>
      </trkpt>
      <trkpt lat="31.402249960228801" lon="-3.845052989199758">
        <ele>849.20000000000005</ele>
        <time>2003-04-17T15:01:31Z</time>
      </trkpt>
      <trkpt lat="31.402318021282554" lon="-3.844817038625479">
        <ele>848.39999999999998</ele>
        <time>2003-04-17T15:01:37Z</time>
      </trkpt>
      <trkpt lat="31.402378035709262" lon="-3.844676977023482">
        <ele>848.20000000000005</ele>
        <time>2003-04-17T15:01:38Z</time>
      </trkpt>
      <trkpt lat="31.402454981580377" lon="-3.844536999240518">
        <ele>848.10000000000002</ele>
        <time>2003-04-17T15:01:41Z</time>
      </trkpt>
      <trkpt lat="31.402537962421775" lon="-3.844427028670907">
        <ele>848</ele>
        <time>2003-04-17T15:01:42Z</time>
      </trkpt>
      <trkpt lat="31.402644999325275" lon="-3.844323009252548">
        <ele>847.89999999999998</ele>
        <time>2003-04-17T15:01:45Z</time>
      </trkpt>
      <trkpt lat="31.402839962393045" lon="-3.844132991507649">
        <ele>847.5</ele>
        <time>2003-04-17T15:01:49Z</time>
      </trkpt>
      <trkpt lat="31.4028699696064" lon="-3.843999970704317">
        <ele>848.29999999999995</ele>
        <time>2003-04-17T15:01:50Z</time>
      </trkpt>
      <trkpt lat="31.402884973213077" lon="-3.84376997128129">
        <ele>847.89999999999998</ele>
        <time>2003-04-17T15:01:53Z</time>
      </trkpt>
      <trkpt lat="31.402893019840121" lon="-3.843541983515024">
        <ele>848.70000000000005</ele>
        <time>2003-04-17T15:01:57Z</time>
      </trkpt>
      <trkpt lat="31.402978012338281" lon="-3.84340200573206">
        <ele>848.5</ele>
        <time>2003-04-17T15:01:58Z</time>
      </trkpt>
      <trkpt lat="31.403027968481183" lon="-3.843251969665289">
        <ele>848.39999999999998</ele>
        <time>2003-04-17T15:02:01Z</time>
      </trkpt>
      <trkpt lat="31.403037020936608" lon="-3.843088019639254">
        <ele>848.29999999999995</ele>
        <time>2003-04-17T15:02:02Z</time>
      </trkpt>
      <trkpt lat="31.403052024543285" lon="-3.842924991622567">
        <ele>848.39999999999998</ele>
        <time>2003-04-17T15:02:05Z</time>
      </trkpt>
      <trkpt lat="31.403082031756639" lon="-3.842777973040938">
        <ele>849.10000000000002</ele>
        <time>2003-04-17T15:02:06Z</time>
      </trkpt>
      <trkpt lat="31.403157971799374" lon="-3.842645036056638">
        <ele>848.70000000000005</ele>
        <time>2003-04-17T15:02:09Z</time>
      </trkpt>
      <trkpt lat="31.403282023966312" lon="-3.842546967789531">
        <ele>848.70000000000005</ele>
        <time>2003-04-17T15:02:11Z</time>
      </trkpt>
      <trkpt lat="31.403413033112884" lon="-3.842431968078017">
        <ele>848.5</ele>
        <time>2003-04-17T15:02:13Z</time>
      </trkpt>
      <trkpt lat="31.403661975637078" lon="-3.84209199808538">
        <ele>848.29999999999995</ele>
        <time>2003-04-17T15:02:17Z</time>
      </trkpt>
      <trkpt lat="31.403770018368959" lon="-3.841842971742153">
        <ele>848.79999999999995</ele>
        <time>2003-04-17T15:02:20Z</time>
      </trkpt>
      <trkpt lat="31.403864985331893" lon="-3.841693019494414">
        <ele>848.79999999999995</ele>
        <time>2003-04-17T15:02:23Z</time>
      </trkpt>
      <trkpt lat="31.403964981436729" lon="-3.841514987871051">
        <ele>848.70000000000005</ele>
        <time>2003-04-17T15:02:25Z</time>
      </trkpt>
      <trkpt lat="31.404036981984973" lon="-3.84142697788775">
        <ele>848.89999999999998</ele>
        <time>2003-04-17T15:02:28Z</time>
      </trkpt>
      <trkpt lat="31.404122980311513" lon="-3.841326981782913">
        <ele>848.89999999999998</ele>
        <time>2003-04-17T15:02:32Z</time>
      </trkpt>
      <trkpt lat="31.404217025265098" lon="-3.841257998719811">
        <ele>848.70000000000005</ele>
        <time>2003-04-17T15:02:33Z</time>
      </trkpt>
      <trkpt lat="31.404279973357916" lon="-3.841160014271736">
        <ele>848.5</ele>
        <time>2003-04-17T15:02:36Z</time>
      </trkpt>
      <trkpt lat="31.404317021369934" lon="-3.841049959883094">
        <ele>848.60000000000002</ele>
        <time>2003-04-17T15:02:38Z</time>
      </trkpt>
      <trkpt lat="31.404392961412668" lon="-3.84089196100831">
        <ele>852</ele>
        <time>2003-04-17T15:02:42Z</time>
      </trkpt>
      <trkpt lat="31.404443001374602" lon="-3.840770004317164">
        <ele>854.29999999999995</ele>
        <time>2003-04-17T15:02:43Z</time>
      </trkpt>
      <trkpt lat="31.404522964730859" lon="-3.84063296020031">
        <ele>853.89999999999998</ele>
        <time>2003-04-17T15:02:46Z</time>
      </trkpt>
      <trkpt lat="31.404680041596293" lon="-3.840317968279123">
        <ele>854.70000000000005</ele>
        <time>2003-04-17T15:02:50Z</time>
      </trkpt>
      <trkpt lat="31.404837034642696" lon="-3.83996500633657">
        <ele>855</ele>
        <time>2003-04-17T15:02:54Z</time>
      </trkpt>
      <trkpt lat="31.405093017965555" lon="-3.839499978348613">
        <ele>855</ele>
        <time>2003-04-17T15:02:59Z</time>
      </trkpt>
      <trkpt lat="31.405182033777237" lon="-3.839395036920905">
        <ele>854.10000000000002</ele>
        <time>2003-04-17T15:03:03Z</time>
      </trkpt>
      <trkpt lat="31.405250011011958" lon="-3.839292023330927">
        <ele>851.70000000000005</ele>
        <time>2003-04-17T15:03:05Z</time>
      </trkpt>
      <trkpt lat="31.405269959941506" lon="-3.839162020012736">
        <ele>851.29999999999995</ele>
        <time>2003-04-17T15:03:07Z</time>
      </trkpt>
      <trkpt lat="31.405298039317131" lon="-3.839050037786365">
        <ele>851.5</ele>
        <time>2003-04-17T15:03:09Z</time>
      </trkpt>
      <trkpt lat="31.405327040702105" lon="-3.838937971740961">
        <ele>851.29999999999995</ele>
        <time>2003-04-17T15:03:10Z</time>
      </trkpt>
      <trkpt lat="31.405402980744839" lon="-3.838794976472855">
        <ele>854.20000000000005</ele>
        <time>2003-04-17T15:03:14Z</time>
      </trkpt>
      <trkpt lat="31.405452014878392" lon="-3.838645024225116">
        <ele>854.20000000000005</ele>
        <time>2003-04-17T15:03:15Z</time>
      </trkpt>
      <trkpt lat="31.405572965741158" lon="-3.838383005931974">
        <ele>855.5</ele>
        <time>2003-04-17T15:03:19Z</time>
      </trkpt>
      <trkpt lat="31.405672961845994" lon="-3.838143032044172">
        <ele>855.89999999999998</ele>
        <time>2003-04-17T15:03:22Z</time>
      </trkpt>
      <trkpt lat="31.405849987640977" lon="-3.837765008211136">
        <ele>855.89999999999998</ele>
        <time>2003-04-17T15:03:26Z</time>
      </trkpt>
      <trkpt lat="31.406173026189208" lon="-3.836992029100657">
        <ele>857</ele>
        <time>2003-04-17T15:03:34Z</time>
      </trkpt>
      <trkpt lat="31.406219964846969" lon="-3.83689496666193">
        <ele>856.89999999999998</ele>
        <time>2003-04-17T15:03:36Z</time>
      </trkpt>
      <trkpt lat="31.406547026708722" lon="-3.836191976442933">
        <ele>857.70000000000005</ele>
        <time>2003-04-17T15:03:44Z</time>
      </trkpt>
      <trkpt lat="31.406612992286682" lon="-3.835997013375163">
        <ele>857.5</ele>
        <time>2003-04-17T15:03:45Z</time>
      </trkpt>
      <trkpt lat="31.406966960057616" lon="-3.834924967959523">
        <ele>858.79999999999995</ele>
        <time>2003-04-17T15:03:56Z</time>
      </trkpt>
      <trkpt lat="31.407135017216206" lon="-3.834394980221987">
        <ele>860</ele>
        <time>2003-04-17T15:04:01Z</time>
      </trkpt>
      <trkpt lat="31.407239958643913" lon="-3.834113012999296">
        <ele>860</ele>
        <time>2003-04-17T15:04:04Z</time>
      </trkpt>
      <trkpt lat="31.407341966405511" lon="-3.833947973325849">
        <ele>861.39999999999998</ele>
        <time>2003-04-17T15:04:05Z</time>
      </trkpt>
      <trkpt lat="31.40744699165225" lon="-3.833791986107826">
        <ele>861</ele>
        <time>2003-04-17T15:04:08Z</time>
      </trkpt>
      <trkpt lat="31.407523015514016" lon="-3.833731971681118">
        <ele>861.20000000000005</ele>
        <time>2003-04-17T15:04:08Z</time>
      </trkpt>
      <trkpt lat="31.408113017678261" lon="-3.833259986713529">
        <ele>862.70000000000005</ele>
        <time>2003-04-17T15:04:16Z</time>
      </trkpt>
      <trkpt lat="31.408200021833181" lon="-3.833152027800679">
        <ele>863.39999999999998</ele>
        <time>2003-04-17T15:04:19Z</time>
      </trkpt>
      <trkpt lat="31.40847796574235" lon="-3.83285203948617">
        <ele>864.5</ele>
        <time>2003-04-17T15:04:24Z</time>
      </trkpt>
      <trkpt lat="31.408815002068877" lon="-3.832535035908222">
        <ele>863.79999999999995</ele>
        <time>2003-04-17T15:04:28Z</time>
      </trkpt>
      <trkpt lat="31.409595021978021" lon="-3.832006976008415">
        <ele>862.39999999999998</ele>
        <time>2003-04-17T15:04:40Z</time>
      </trkpt>
      <trkpt lat="31.409877995029092" lon="-3.831812012940645">
        <ele>862.20000000000005</ele>
        <time>2003-04-17T15:04:44Z</time>
      </trkpt>
      <trkpt lat="31.410198016092181" lon="-3.831577990204096">
        <ele>861.39999999999998</ele>
        <time>2003-04-17T15:04:50Z</time>
      </trkpt>
      <trkpt lat="31.410673018544912" lon="-3.831357965245843">
        <ele>861</ele>
        <time>2003-04-17T15:04:57Z</time>
      </trkpt>
      <trkpt lat="31.410888014361262" lon="-3.831308009102941">
        <ele>861.29999999999995</ele>
        <time>2003-04-17T15:05:01Z</time>
      </trkpt>
      <trkpt lat="31.411087000742555" lon="-3.831257969141007">
        <ele>861.39999999999998</ele>
        <time>2003-04-17T15:05:06Z</time>
      </trkpt>
      <trkpt lat="31.411237958818674" lon="-3.831268027424812">
        <ele>861.70000000000005</ele>
        <time>2003-04-17T15:06:05Z</time>
      </trkpt>
      <trkpt lat="31.411354970186949" lon="-3.831146992743015">
        <ele>874.70000000000005</ele>
        <time>2003-04-17T15:48:26Z</time>
      </trkpt>
      <trkpt lat="31.411452032625675" lon="-3.831057976931334">
        <ele>876</ele>
        <time>2003-04-17T15:48:29Z</time>
      </trkpt>
      <trkpt lat="31.411535013467073" lon="-3.831014977768064">
        <ele>876.39999999999998</ele>
        <time>2003-04-17T15:48:30Z</time>
      </trkpt>
      <trkpt lat="31.411631992086768" lon="-3.831007014960051">
        <ele>874.5</ele>
        <time>2003-04-17T15:48:33Z</time>
      </trkpt>
      <trkpt lat="31.411772975698113" lon="-3.830986982211471">
        <ele>873.5</ele>
        <time>2003-04-17T15:48:36Z</time>
      </trkpt>
      <trkpt lat="31.411931980401278" lon="-3.830935014411807">
        <ele>873.20000000000005</ele>
        <time>2003-04-17T15:48:38Z</time>
      </trkpt>
      <trkpt lat="31.412029964849353" lon="-3.830893021076918">
        <ele>873</ele>
        <time>2003-04-17T15:48:41Z</time>
      </trkpt>
      <trkpt lat="31.412129960954189" lon="-3.830841975286603">
        <ele>873.39999999999998</ele>
        <time>2003-04-17T15:48:42Z</time>
      </trkpt>
      <trkpt lat="31.412310004234314" lon="-3.830752037465572">
        <ele>873.20000000000005</ele>
        <time>2003-04-17T15:48:45Z</time>
      </trkpt>
      <trkpt lat="31.412905035540462" lon="-3.830335037782788">
        <ele>872.5</ele>
        <time>2003-04-17T15:48:57Z</time>
      </trkpt>
      <trkpt lat="31.413003019988537" lon="-3.830239987000823">
        <ele>872.5</ele>
        <time>2003-04-17T15:48:59Z</time>
      </trkpt>
      <trkpt lat="31.413163030520082" lon="-3.830126998946071">
        <ele>872.5</ele>
        <time>2003-04-17T15:49:01Z</time>
      </trkpt>
      <trkpt lat="31.413271995261312" lon="-3.83008299395442">
        <ele>872.39999999999998</ele>
        <time>2003-04-17T15:49:04Z</time>
      </trkpt>
      <trkpt lat="31.413408033549786" lon="-3.830007975921035">
        <ele>872.60000000000002</ele>
        <time>2003-04-17T15:49:07Z</time>
      </trkpt>
      <trkpt lat="31.413596961647272" lon="-3.82993002422154">
        <ele>872.60000000000002</ele>
        <time>2003-04-17T15:49:11Z</time>
      </trkpt>
      <trkpt lat="31.41380500048399" lon="-3.829902028664947">
        <ele>872.70000000000005</ele>
        <time>2003-04-17T15:49:15Z</time>
      </trkpt>
      <trkpt lat="31.414065007120371" lon="-3.829934969544411">
        <ele>872.70000000000005</ele>
        <time>2003-04-17T15:49:20Z</time>
      </trkpt>
      <trkpt lat="31.414177995175123" lon="-3.829932035878301">
        <ele>872.60000000000002</ele>
        <time>2003-04-17T15:49:21Z</time>
      </trkpt>
      <trkpt lat="31.414283020421863" lon="-3.829924995079637">
        <ele>872.39999999999998</ele>
        <time>2003-04-17T15:49:24Z</time>
      </trkpt>
      <trkpt lat="31.414425009861588" lon="-3.829928012564778">
        <ele>872.39999999999998</ele>
        <time>2003-04-17T15:49:27Z</time>
      </trkpt>
      <trkpt lat="31.414542021229863" lon="-3.829904962331057">
        <ele>872.60000000000002</ele>
        <time>2003-04-17T15:49:30Z</time>
      </trkpt>
      <trkpt lat="31.414649980142713" lon="-3.82988702505827">
        <ele>872.60000000000002</ele>
        <time>2003-04-17T15:49:31Z</time>
      </trkpt>
      <trkpt lat="31.414832035079598" lon="-3.829832961782813">
        <ele>872.89999999999998</ele>
        <time>2003-04-17T15:49:35Z</time>
      </trkpt>
      <trkpt lat="31.415033033117652" lon="-3.829819969832897">
        <ele>873.29999999999995</ele>
        <time>2003-04-17T15:49:39Z</time>
      </trkpt>
      <trkpt lat="31.415203018113971" lon="-3.82986799813807">
        <ele>873.5</ele>
        <time>2003-04-17T15:49:43Z</time>
      </trkpt>
      <trkpt lat="31.415324974805117" lon="-3.829903034493327">
        <ele>873.60000000000002</ele>
        <time>2003-04-17T15:49:44Z</time>
      </trkpt>
      <trkpt lat="31.41543997451663" lon="-3.829942010343075">
        <ele>873.60000000000002</ele>
        <time>2003-04-17T15:49:47Z</time>
      </trkpt>
      <trkpt lat="31.415603002533317" lon="-3.829982997849584">
        <ele>873.60000000000002</ele>
        <time>2003-04-17T15:49:50Z</time>
      </trkpt>
      <trkpt lat="31.415733005851507" lon="-3.829921977594495">
        <ele>873.60000000000002</ele>
        <time>2003-04-17T15:49:51Z</time>
      </trkpt>
      <trkpt lat="31.417113002389669" lon="-3.829972017556429">
        <ele>871.60000000000002</ele>
        <time>2003-04-17T16:06:40Z</time>
      </trkpt>
      <trkpt lat="31.417070003226399" lon="-3.829857017844915">
        <ele>874.10000000000002</ele>
        <time>2003-04-17T16:07:24Z</time>
      </trkpt>
      <trkpt lat="31.416973024606705" lon="-3.829807983711362">
        <ele>873.60000000000002</ele>
        <time>2003-04-17T16:07:28Z</time>
      </trkpt>
      <trkpt lat="31.416888032108545" lon="-3.829773031175137">
        <ele>872.89999999999998</ele>
        <time>2003-04-17T16:07:31Z</time>
      </trkpt>
      <trkpt lat="31.416774960234761" lon="-3.829704970121384">
        <ele>872.79999999999995</ele>
        <time>2003-04-17T16:07:35Z</time>
      </trkpt>
      <trkpt lat="31.416672030463815" lon="-3.829583013430238">
        <ele>873</ele>
        <time>2003-04-17T16:07:39Z</time>
      </trkpt>
      <trkpt lat="31.416557030752301" lon="-3.829519981518388">
        <ele>873.29999999999995</ele>
        <time>2003-04-17T16:07:40Z</time>
      </trkpt>
      <trkpt lat="31.416443036869168" lon="-3.829534985125065">
        <ele>873.5</ele>
        <time>2003-04-17T16:07:43Z</time>
      </trkpt>
      <trkpt lat="31.416352009400725" lon="-3.829549988731742">
        <ele>872.89999999999998</ele>
        <time>2003-04-17T16:07:44Z</time>
      </trkpt>
      <trkpt lat="31.416204990819097" lon="-3.829538002610207">
        <ele>872.60000000000002</ele>
        <time>2003-04-17T16:07:47Z</time>
      </trkpt>
      <trkpt lat="31.416083034127951" lon="-3.829492991790175">
        <ele>872.29999999999995</ele>
        <time>2003-04-17T16:07:51Z</time>
      </trkpt>
      <trkpt lat="31.415998041629791" lon="-3.829431971535087">
        <ele>872.20000000000005</ele>
        <time>2003-04-17T16:07:53Z</time>
      </trkpt>
      <trkpt lat="31.415705010294914" lon="-3.829142963513732">
        <ele>873.5</ele>
        <time>2003-04-17T16:08:01Z</time>
      </trkpt>
      <trkpt lat="31.415650025010109" lon="-3.829042967408896">
        <ele>873.70000000000005</ele>
        <time>2003-04-17T16:08:02Z</time>
      </trkpt>
      <trkpt lat="31.4154829736799" lon="-3.828722024336457">
        <ele>874.5</ele>
        <time>2003-04-17T16:08:10Z</time>
      </trkpt>
      <trkpt lat="31.415422959253192" lon="-3.828593026846647">
        <ele>873.5</ele>
        <time>2003-04-17T16:08:14Z</time>
      </trkpt>
      <trkpt lat="31.415336960926652" lon="-3.828482972458005">
        <ele>874.60000000000002</ele>
        <time>2003-04-17T16:08:18Z</time>
      </trkpt>
      <trkpt lat="31.41520201228559" lon="-3.828327991068363">
        <ele>876.20000000000005</ele>
        <time>2003-04-17T16:08:22Z</time>
      </trkpt>
      <trkpt lat="31.415049964562058" lon="-3.828278034925461">
        <ele>875.39999999999998</ele>
        <time>2003-04-17T16:08:24Z</time>
      </trkpt>
      <trkpt lat="31.414894983172417" lon="-3.828275017440319">
        <ele>874.89999999999998</ele>
        <time>2003-04-17T16:08:25Z</time>
      </trkpt>
      <trkpt lat="31.414627013728023" lon="-3.828314999118447">
        <ele>874.39999999999998</ele>
        <time>2003-04-17T16:08:29Z</time>
      </trkpt>
      <trkpt lat="31.41430196352303" lon="-3.828393034636974">
        <ele>873.89999999999998</ele>
        <time>2003-04-17T16:08:33Z</time>
      </trkpt>
      <trkpt lat="31.414123009890318" lon="-3.828354980796576">
        <ele>873.5</ele>
        <time>2003-04-17T16:08:34Z</time>
      </trkpt>
      <trkpt lat="31.413953024893999" lon="-3.828271999955177">
        <ele>872.89999999999998</ele>
        <time>2003-04-17T16:08:37Z</time>
      </trkpt>
      <trkpt lat="31.413382971659303" lon="-3.827979974448681">
        <ele>872.39999999999998</ele>
        <time>2003-04-17T16:08:44Z</time>
      </trkpt>
      <trkpt lat="31.413266966119409" lon="-3.827842008322477">
        <ele>871.89999999999998</ele>
        <time>2003-04-17T16:08:45Z</time>
      </trkpt>
      <trkpt lat="31.413187002763152" lon="-3.827652996405959">
        <ele>871.5</ele>
        <time>2003-04-17T16:08:48Z</time>
      </trkpt>
      <trkpt lat="31.413109973073006" lon="-3.827347978949547">
        <ele>871.39999999999998</ele>
        <time>2003-04-17T16:08:51Z</time>
      </trkpt>
      <trkpt lat="31.413107039406896" lon="-3.827238008379936">
        <ele>871.29999999999995</ele>
        <time>2003-04-17T16:08:52Z</time>
      </trkpt>
      <trkpt lat="31.413130005821586" lon="-3.827129965648055">
        <ele>871.29999999999995</ele>
        <time>2003-04-17T16:08:52Z</time>
      </trkpt>
      <trkpt lat="31.413167975842953" lon="-3.82703298702836">
        <ele>871.39999999999998</ele>
        <time>2003-04-17T16:08:53Z</time>
      </trkpt>
      <trkpt lat="31.41324701718986" lon="-3.826872976496816">
        <ele>871.79999999999995</ele>
        <time>2003-04-17T16:08:56Z</time>
      </trkpt>
      <trkpt lat="31.413347013294697" lon="-3.826778009533882">
        <ele>872.20000000000005</ele>
        <time>2003-04-17T16:08:57Z</time>
      </trkpt>
      <trkpt lat="31.413467964157462" lon="-3.826746996492147">
        <ele>872.60000000000002</ele>
        <time>2003-04-17T16:09:00Z</time>
      </trkpt>
      <trkpt lat="31.413611965253949" lon="-3.826716989278793">
        <ele>873</ele>
        <time>2003-04-17T16:09:01Z</time>
      </trkpt>
      <trkpt lat="31.413756972178817" lon="-3.826633002609015">
        <ele>873.5</ele>
        <time>2003-04-17T16:09:04Z</time>
      </trkpt>
      <trkpt lat="31.413882030174136" lon="-3.826522026211023">
        <ele>874.60000000000002</ele>
        <time>2003-04-17T16:09:05Z</time>
      </trkpt>
      <trkpt lat="31.413961993530393" lon="-3.826399985700846">
        <ele>876.20000000000005</ele>
        <time>2003-04-17T16:09:08Z</time>
      </trkpt>
      <trkpt lat="31.414004992693663" lon="-3.826292026787996">
        <ele>877.89999999999998</ele>
        <time>2003-04-17T16:09:09Z</time>
      </trkpt>
      <trkpt lat="31.414013039320707" lon="-3.82617300376296">
        <ele>879.70000000000005</ele>
        <time>2003-04-17T16:09:12Z</time>
      </trkpt>
      <trkpt lat="31.414104988798499" lon="-3.826079964637756">
        <ele>880.39999999999998</ele>
        <time>2003-04-17T16:09:16Z</time>
      </trkpt>
      <trkpt lat="31.414206996560097" lon="-3.826075019314885">
        <ele>880.79999999999995</ele>
        <time>2003-04-17T16:09:19Z</time>
      </trkpt>
      <trkpt lat="31.414332976564765" lon="-3.826075019314885">
        <ele>881.60000000000002</ele>
        <time>2003-04-17T16:09:23Z</time>
      </trkpt>
      <trkpt lat="31.41442802734673" lon="-3.826036965474486">
        <ele>882.20000000000005</ele>
        <time>2003-04-17T16:09:24Z</time>
      </trkpt>
      <trkpt lat="31.414531962946057" lon="-3.825975023210049">
        <ele>882.5</ele>
        <time>2003-04-17T16:09:27Z</time>
      </trkpt>
      <trkpt lat="31.414752993732691" lon="-3.825820041820407">
        <ele>882.89999999999998</ele>
        <time>2003-04-17T16:09:31Z</time>
      </trkpt>
      <trkpt lat="31.415569977834821" lon="-3.825258035212755">
        <ele>884.5</ele>
        <time>2003-04-17T16:09:45Z</time>
      </trkpt>
      <trkpt lat="31.415750021114945" lon="-3.825138006359339">
        <ele>884.29999999999995</ele>
        <time>2003-04-17T16:09:47Z</time>
      </trkpt>
      <trkpt lat="31.4159129653126" lon="-3.825012026354671">
        <ele>884.60000000000002</ele>
        <time>2003-04-17T16:09:50Z</time>
      </trkpt>
      <trkpt lat="31.416037017479539" lon="-3.824967015534639">
        <ele>885.29999999999995</ele>
        <time>2003-04-17T16:09:53Z</time>
      </trkpt>
      <trkpt lat="31.41625695861876" lon="-3.824865007773042">
        <ele>885.39999999999998</ele>
        <time>2003-04-17T16:09:57Z</time>
      </trkpt>
      <trkpt lat="31.416372964158654" lon="-3.824819996953011">
        <ele>885.79999999999995</ele>
        <time>2003-04-17T16:09:58Z</time>
      </trkpt>
      <trkpt lat="31.416976964101195" lon="-3.82466996088624">
        <ele>885.79999999999995</ele>
        <time>2003-04-17T16:10:08Z</time>
      </trkpt>
      <trkpt lat="31.417905008420348" lon="-3.824482038617134">
        <ele>884.79999999999995</ele>
        <time>2003-04-17T16:10:20Z</time>
      </trkpt>
      <trkpt lat="31.418831963092089" lon="-3.824407020583749">
        <ele>885.5</ele>
        <time>2003-04-17T16:10:30Z</time>
      </trkpt>
      <trkpt lat="31.418997002765536" lon="-3.824412971735001">
        <ele>885.60000000000002</ele>
        <time>2003-04-17T16:10:33Z</time>
      </trkpt>
      <trkpt lat="31.419303026050329" lon="-3.824468040838838">
        <ele>886.10000000000002</ele>
        <time>2003-04-17T16:10:37Z</time>
      </trkpt>
      <trkpt lat="31.419527996331453" lon="-3.824557978659868">
        <ele>885.39999999999998</ele>
        <time>2003-04-17T16:10:40Z</time>
      </trkpt>
      <trkpt lat="31.41973502933979" lon="-3.824701979756355">
        <ele>884.79999999999995</ele>
        <time>2003-04-17T16:10:43Z</time>
      </trkpt>
      <trkpt lat="31.419848017394543" lon="-3.824842041358352">
        <ele>884.29999999999995</ele>
        <time>2003-04-17T16:10:44Z</time>
      </trkpt>
      <trkpt lat="31.420044992119074" lon="-3.825072962790728">
        <ele>884.10000000000002</ele>
        <time>2003-04-17T16:10:48Z</time>
      </trkpt>
      <trkpt lat="31.420461991801858" lon="-3.825502032414079">
        <ele>882.60000000000002</ele>
        <time>2003-04-17T16:10:56Z</time>
      </trkpt>
      <trkpt lat="31.42091796733439" lon="-3.825834961608052">
        <ele>882.60000000000002</ele>
        <time>2003-04-17T16:11:04Z</time>
      </trkpt>
      <trkpt lat="31.421317029744387" lon="-3.826112989336252">
        <ele>878.60000000000002</ele>
        <time>2003-04-17T16:11:15Z</time>
      </trkpt>
      <trkpt lat="31.421467987820506" lon="-3.826266964897513">
        <ele>878.79999999999995</ele>
        <time>2003-04-17T16:11:19Z</time>
      </trkpt>
      <trkpt lat="31.421482991427183" lon="-3.82640803232789">
        <ele>879.70000000000005</ele>
        <time>2003-04-17T16:11:22Z</time>
      </trkpt>
      <trkpt lat="31.421319963410497" lon="-3.826557984575629">
        <ele>878.70000000000005</ele>
        <time>2003-04-17T16:11:27Z</time>
      </trkpt>
      <trkpt lat="31.421189960092306" lon="-3.826631996780634">
        <ele>877.79999999999995</ele>
        <time>2003-04-17T16:11:30Z</time>
      </trkpt>
      <trkpt lat="31.421043025329709" lon="-3.8267080206424">
        <ele>877.10000000000002</ele>
        <time>2003-04-17T16:11:33Z</time>
      </trkpt>
      <trkpt lat="31.420970018953085" lon="-3.82679502479732">
        <ele>876.89999999999998</ele>
        <time>2003-04-17T16:11:34Z</time>
      </trkpt>
      <trkpt lat="31.420791987329721" lon="-3.826999962329865">
        <ele>876.10000000000002</ele>
        <time>2003-04-17T16:11:38Z</time>
      </trkpt>
      <trkpt lat="31.420672964304686" lon="-3.827071962878108">
        <ele>876.10000000000002</ele>
        <time>2003-04-17T16:11:41Z</time>
      </trkpt>
      <trkpt lat="31.420357972383499" lon="-3.82724697701633">
        <ele>875.29999999999995</ele>
        <time>2003-04-17T16:11:46Z</time>
      </trkpt>
      <trkpt lat="31.420195028185844" lon="-3.827304979786277">
        <ele>875.60000000000002</ele>
        <time>2003-04-17T16:11:50Z</time>
      </trkpt>
      <trkpt lat="31.420152029022574" lon="-3.827434983104467">
        <ele>875.70000000000005</ele>
        <time>2003-04-17T16:11:51Z</time>
      </trkpt>
      <trkpt lat="31.420127972960472" lon="-3.827542020007968">
        <ele>875.10000000000002</ele>
        <time>2003-04-17T16:11:54Z</time>
      </trkpt>
      <trkpt lat="31.42007801681757" lon="-3.827728014439344">
        <ele>874.39999999999998</ele>
        <time>2003-04-17T16:11:57Z</time>
      </trkpt>
      <trkpt lat="31.42007801681757" lon="-3.82784703746438">
        <ele>874.39999999999998</ele>
        <time>2003-04-17T16:11:58Z</time>
      </trkpt>
      <trkpt lat="31.420093020424247" lon="-3.827958013862371">
        <ele>874.79999999999995</ele>
        <time>2003-04-17T16:12:01Z</time>
      </trkpt>
      <trkpt lat="31.419995035976171" lon="-3.828047029674053">
        <ele>874.5</ele>
        <time>2003-04-17T16:12:05Z</time>
      </trkpt>
      <trkpt lat="31.419814992696047" lon="-3.828196981921792">
        <ele>873.79999999999995</ele>
        <time>2003-04-17T16:12:16Z</time>
      </trkpt>
      <trkpt lat="31.419712984934449" lon="-3.828292032703757">
        <ele>873.89999999999998</ele>
        <time>2003-04-17T16:12:18Z</time>
      </trkpt>
      <trkpt lat="31.419647019356489" lon="-3.828412983566523">
        <ele>873.89999999999998</ele>
        <time>2003-04-17T16:12:21Z</time>
      </trkpt>
      <trkpt lat="31.419617012143135" lon="-3.828537035733461">
        <ele>873.89999999999998</ele>
        <time>2003-04-17T16:12:25Z</time>
      </trkpt>
      <trkpt lat="31.419684989377856" lon="-3.828616999089718">
        <ele>874.29999999999995</ele>
        <time>2003-04-17T16:12:28Z</time>
      </trkpt>
      <trkpt lat="31.419612988829613" lon="-3.828538041561842">
        <ele>876.29999999999995</ele>
        <time>2003-04-17T16:12:56Z</time>
      </trkpt>
      <trkpt lat="31.419421965256333" lon="-3.828623034060001">
        <ele>877.10000000000002</ele>
        <time>2003-04-17T16:13:07Z</time>
      </trkpt>
      <trkpt lat="31.419336972758174" lon="-3.828711966052651">
        <ele>877.5</ele>
        <time>2003-04-17T16:13:10Z</time>
      </trkpt>
      <trkpt lat="31.419279975816607" lon="-3.828799976035953">
        <ele>876.79999999999995</ele>
        <time>2003-04-17T16:13:12Z</time>
      </trkpt>
      <trkpt lat="31.419334961101413" lon="-3.828917993232608">
        <ele>876.89999999999998</ele>
        <time>2003-04-17T16:13:15Z</time>
      </trkpt>
      <trkpt lat="31.419418025761843" lon="-3.829014971852303">
        <ele>875.70000000000005</ele>
        <time>2003-04-17T16:13:19Z</time>
      </trkpt>
      <trkpt lat="31.419454989954829" lon="-3.829138018190861">
        <ele>876.10000000000002</ele>
        <time>2003-04-17T16:13:22Z</time>
      </trkpt>
      <trkpt lat="31.41952296718955" lon="-3.829225022345781">
        <ele>875.79999999999995</ele>
        <time>2003-04-17T16:13:25Z</time>
      </trkpt>
      <trkpt lat="31.419554986059666" lon="-3.829343039542437">
        <ele>875.39999999999998</ele>
        <time>2003-04-17T16:13:29Z</time>
      </trkpt>
      <trkpt lat="31.419448032975197" lon="-3.829592987895012">
        <ele>875.10000000000002</ele>
        <time>2003-04-17T16:13:34Z</time>
      </trkpt>
      <trkpt lat="31.419430011883378" lon="-3.82973799481988">
        <ele>875.10000000000002</ele>
        <time>2003-04-17T16:13:38Z</time>
      </trkpt>
      <trkpt lat="31.419492037966847" lon="-3.8298249989748">
        <ele>875.20000000000005</ele>
        <time>2003-04-17T16:13:42Z</time>
      </trkpt>
      <trkpt lat="31.419588010758162" lon="-3.829828016459942">
        <ele>876.10000000000002</ele>
        <time>2003-04-17T16:13:46Z</time>
      </trkpt>
      <trkpt lat="31.419708039611578" lon="-3.829827010631561">
        <ele>877.79999999999995</ele>
        <time>2003-04-17T16:13:49Z</time>
      </trkpt>
      <trkpt lat="31.419823039323092" lon="-3.829872021451592">
        <ele>879.20000000000005</ele>
        <time>2003-04-17T16:13:52Z</time>
      </trkpt>
      <trkpt lat="31.420044992119074" lon="-3.829977968707681">
        <ele>880.60000000000002</ele>
        <time>2003-04-17T16:13:57Z</time>
      </trkpt>
      <trkpt lat="31.420105006545782" lon="-3.830096991732717">
        <ele>880.5</ele>
        <time>2003-04-17T16:13:58Z</time>
      </trkpt>
      <trkpt lat="31.420092014595866" lon="-3.830243004485965">
        <ele>880.60000000000002</ele>
        <time>2003-04-17T16:14:01Z</time>
      </trkpt>
      <trkpt lat="31.42001498490572" lon="-3.830367978662252">
        <ele>880.5</ele>
        <time>2003-04-17T16:14:02Z</time>
      </trkpt>
      <trkpt lat="31.419962011277676" lon="-3.830518014729023">
        <ele>880.10000000000002</ele>
        <time>2003-04-17T16:14:05Z</time>
      </trkpt>
      <trkpt lat="31.419967040419579" lon="-3.830692023038864">
        <ele>880</ele>
        <time>2003-04-17T16:14:06Z</time>
      </trkpt>
      <trkpt lat="31.41997198574245" lon="-3.83085697889328">
        <ele>879.89999999999998</ele>
        <time>2003-04-17T16:14:09Z</time>
      </trkpt>
      <trkpt lat="31.419942984357476" lon="-3.831459973007441">
        <ele>881.5</ele>
        <time>2003-04-17T16:14:16Z</time>
      </trkpt>
      <trkpt lat="31.419848017394543" lon="-3.831592993810773">
        <ele>881.10000000000002</ele>
        <time>2003-04-17T16:14:19Z</time>
      </trkpt>
      <trkpt lat="31.419666968286037" lon="-3.831816958263516">
        <ele>881.60000000000002</ele>
        <time>2003-04-17T16:14:21Z</time>
      </trkpt>
      <trkpt lat="31.419445015490055" lon="-3.832085011526942">
        <ele>881.39999999999998</ele>
        <time>2003-04-17T16:14:24Z</time>
      </trkpt>
      <trkpt lat="31.418934976682067" lon="-3.832611981779337">
        <ele>881.10000000000002</ele>
        <time>2003-04-17T16:14:31Z</time>
      </trkpt>
      <trkpt lat="31.418783012777567" lon="-3.832711977884173">
        <ele>881.10000000000002</ele>
        <time>2003-04-17T16:14:32Z</time>
      </trkpt>
      <trkpt lat="31.418129978701472" lon="-3.833120008930564">
        <ele>881.39999999999998</ele>
        <time>2003-04-17T16:14:42Z</time>
      </trkpt>
      <trkpt lat="31.417852034792304" lon="-3.833442041650415">
        <ele>881.39999999999998</ele>
        <time>2003-04-17T16:14:47Z</time>
      </trkpt>
      <trkpt lat="31.417720019817352" lon="-3.833667011931539">
        <ele>881.70000000000005</ele>
        <time>2003-04-17T16:14:50Z</time>
      </trkpt>
      <trkpt lat="31.417626980692148" lon="-3.833898017182946">
        <ele>882.10000000000002</ele>
        <time>2003-04-17T16:14:52Z</time>
      </trkpt>
      <trkpt lat="31.417594961822033" lon="-3.834046963602305">
        <ele>882.39999999999998</ele>
        <time>2003-04-17T16:14:55Z</time>
      </trkpt>
      <trkpt lat="31.417581969872117" lon="-3.834189958870411">
        <ele>882.60000000000002</ele>
        <time>2003-04-17T16:14:58Z</time>
      </trkpt>
      <trkpt lat="31.417596973478794" lon="-3.834590027108789">
        <ele>882.10000000000002</ele>
        <time>2003-04-17T16:15:03Z</time>
      </trkpt>
      <trkpt lat="31.417645001783967" lon="-3.83485003374517">
        <ele>881.79999999999995</ele>
        <time>2003-04-17T16:15:06Z</time>
      </trkpt>
      <trkpt lat="31.417717002332211" lon="-3.835038039833307">
        <ele>881.79999999999995</ele>
        <time>2003-04-17T16:15:07Z</time>
      </trkpt>
      <trkpt lat="31.417827978730202" lon="-3.83521699346602">
        <ele>882</ele>
        <time>2003-04-17T16:15:10Z</time>
      </trkpt>
      <trkpt lat="31.417897967621684" lon="-3.835295028984547">
        <ele>882.10000000000002</ele>
        <time>2003-04-17T16:15:10Z</time>
      </trkpt>
      <trkpt lat="31.418050015345216" lon="-3.835423020645976">
        <ele>882.29999999999995</ele>
        <time>2003-04-17T16:15:13Z</time>
      </trkpt>
      <trkpt lat="31.418442036956549" lon="-3.835672968998551">
        <ele>882.60000000000002</ele>
        <time>2003-04-17T16:15:18Z</time>
      </trkpt>
      <trkpt lat="31.418837998062372" lon="-3.83588201366365">
        <ele>884.20000000000005</ele>
        <time>2003-04-17T16:15:22Z</time>
      </trkpt>
      <trkpt lat="31.418906981125474" lon="-3.835952002555132">
        <ele>884.29999999999995</ele>
        <time>2003-04-17T16:15:23Z</time>
      </trkpt>
      <trkpt lat="31.419447027146816" lon="-3.836626997217536">
        <ele>885.60000000000002</ele>
        <time>2003-04-17T16:15:32Z</time>
      </trkpt>
      <trkpt lat="31.41952296718955" lon="-3.83682799525559">
        <ele>887</ele>
        <time>2003-04-17T16:15:34Z</time>
      </trkpt>
      <trkpt lat="31.419681971892715" lon="-3.837362006306648">
        <ele>885</ele>
        <time>2003-04-17T16:15:38Z</time>
      </trkpt>
      <trkpt lat="31.419826978817582" lon="-3.837552024051547">
        <ele>884.29999999999995</ele>
        <time>2003-04-17T16:15:41Z</time>
      </trkpt>
      <trkpt lat="31.419918006286025" lon="-3.837627964094281">
        <ele>884.29999999999995</ele>
        <time>2003-04-17T16:15:41Z</time>
      </trkpt>
      <trkpt lat="31.420314973220229" lon="-3.838004982098937">
        <ele>883.70000000000005</ele>
        <time>2003-04-17T16:15:46Z</time>
      </trkpt>
      <trkpt lat="31.420369958505034" lon="-3.838095003738999">
        <ele>883.60000000000002</ele>
        <time>2003-04-17T16:15:48Z</time>
      </trkpt>
      <trkpt lat="31.420447994023561" lon="-3.838289966806769">
        <ele>883.60000000000002</ele>
        <time>2003-04-17T16:15:49Z</time>
      </trkpt>
      <trkpt lat="31.420493004843593" lon="-3.838502028957009">
        <ele>883.5</ele>
        <time>2003-04-17T16:15:52Z</time>
      </trkpt>
      <trkpt lat="31.420489987358451" lon="-3.83861199952662">
        <ele>883.39999999999998</ele>
        <time>2003-04-17T16:15:53Z</time>
      </trkpt>
      <trkpt lat="31.420468026772141" lon="-3.838722975924611">
        <ele>883.39999999999998</ele>
        <time>2003-04-17T16:15:53Z</time>
      </trkpt>
      <trkpt lat="31.420408012345433" lon="-3.839263021945953">
        <ele>883.20000000000005</ele>
        <time>2003-04-17T16:15:59Z</time>
      </trkpt>
      <trkpt lat="31.420416980981827" lon="-3.839462008327246">
        <ele>882.70000000000005</ele>
        <time>2003-04-17T16:16:01Z</time>
      </trkpt>
      <trkpt lat="31.420478001236916" lon="-3.839620007202029">
        <ele>882.60000000000002</ele>
        <time>2003-04-17T16:16:03Z</time>
      </trkpt>
      <trkpt lat="31.420534998178482" lon="-3.839701982215047">
        <ele>882.10000000000002</ele>
        <time>2003-04-17T16:16:04Z</time>
      </trkpt>
      <trkpt lat="31.420589983463287" lon="-3.839840032160282">
        <ele>880.70000000000005</ele>
        <time>2003-04-17T16:16:08Z</time>
      </trkpt>
      <trkpt lat="31.420710012316704" lon="-3.8402000349015">
        <ele>880.70000000000005</ele>
        <time>2003-04-17T16:16:15Z</time>
      </trkpt>
      <trkpt lat="31.420676987618208" lon="-3.840328026562929">
        <ele>880.79999999999995</ele>
        <time>2003-04-17T16:16:16Z</time>
      </trkpt>
      <trkpt lat="31.420606998726726" lon="-3.840440008789301">
        <ele>880.20000000000005</ele>
        <time>2003-04-17T16:16:19Z</time>
      </trkpt>
      <trkpt lat="31.420432990416884" lon="-3.840698003768921">
        <ele>881.10000000000002</ele>
        <time>2003-04-17T16:16:23Z</time>
      </trkpt>
      <trkpt lat="31.42033701762557" lon="-3.840942000970244">
        <ele>880.89999999999998</ele>
        <time>2003-04-17T16:16:26Z</time>
      </trkpt>
      <trkpt lat="31.420356966555119" lon="-3.841066975146532">
        <ele>880.39999999999998</ele>
        <time>2003-04-17T16:16:28Z</time>
      </trkpt>
      <trkpt lat="31.420407006517053" lon="-3.841307032853365">
        <ele>880.60000000000002</ele>
        <time>2003-04-17T16:16:31Z</time>
      </trkpt>
      <trkpt lat="31.420427961274981" lon="-3.841677010059357">
        <ele>882.29999999999995</ele>
        <time>2003-04-17T16:16:36Z</time>
      </trkpt>
      <trkpt lat="31.42040298320353" lon="-3.841916983947158">
        <ele>882.60000000000002</ele>
        <time>2003-04-17T16:16:39Z</time>
      </trkpt>
      <trkpt lat="31.420341962948442" lon="-3.842304982244968">
        <ele>881.79999999999995</ele>
        <time>2003-04-17T16:16:43Z</time>
      </trkpt>
      <trkpt lat="31.420280020684004" lon="-3.842787025496364">
        <ele>881.89999999999998</ele>
        <time>2003-04-17T16:16:48Z</time>
      </trkpt>
      <trkpt lat="31.420195028185844" lon="-3.842962039634585">
        <ele>882.20000000000005</ele>
        <time>2003-04-17T16:16:51Z</time>
      </trkpt>
      <trkpt lat="31.419937033206224" lon="-3.843537960201502">
        <ele>883.29999999999995</ele>
        <time>2003-04-17T16:16:57Z</time>
      </trkpt>
      <trkpt lat="31.419724971055984" lon="-3.844035007059574">
        <ele>884.10000000000002</ele>
        <time>2003-04-17T16:17:02Z</time>
      </trkpt>
      <trkpt lat="31.419490026310086" lon="-3.844259977340698">
        <ele>883.20000000000005</ele>
        <time>2003-04-17T16:17:05Z</time>
      </trkpt>
      <trkpt lat="31.419232031330466" lon="-3.844510009512305">
        <ele>883.60000000000002</ele>
        <time>2003-04-17T16:17:07Z</time>
      </trkpt>
      <trkpt lat="31.418974958360195" lon="-3.844792982563376">
        <ele>883.5</ele>
        <time>2003-04-17T16:17:10Z</time>
      </trkpt>
      <trkpt lat="31.418546978384256" lon="-3.845266979187727">
        <ele>884.29999999999995</ele>
        <time>2003-04-17T16:17:15Z</time>
      </trkpt>
      <trkpt lat="31.418325025588274" lon="-3.845622958615422">
        <ele>883.89999999999998</ele>
        <time>2003-04-17T16:17:18Z</time>
      </trkpt>
      <trkpt lat="31.418220000341535" lon="-3.845905009657145">
        <ele>883.79999999999995</ele>
        <time>2003-04-17T16:17:21Z</time>
      </trkpt>
      <trkpt lat="31.417901990935206" lon="-3.847007984295487">
        <ele>883.79999999999995</ele>
        <time>2003-04-17T16:17:28Z</time>
      </trkpt>
      <trkpt lat="31.417647013440728" lon="-3.84802202694118">
        <ele>883.39999999999998</ele>
        <time>2003-04-17T16:17:33Z</time>
      </trkpt>
      <trkpt lat="31.417369991540909" lon="-3.849168000742793">
        <ele>883.10000000000002</ele>
        <time>2003-04-17T16:17:41Z</time>
      </trkpt>
      <trkpt lat="31.417205035686493" lon="-3.849745010957122">
        <ele>883.10000000000002</ele>
        <time>2003-04-17T16:17:45Z</time>
      </trkpt>
      <trkpt lat="31.417082995176315" lon="-3.850184977054596">
        <ele>882.60000000000002</ele>
        <time>2003-04-17T16:17:48Z</time>
      </trkpt>
      <trkpt lat="31.417043013498187" lon="-3.850325038656592">
        <ele>882.20000000000005</ele>
        <time>2003-04-17T16:17:49Z</time>
      </trkpt>
      <trkpt lat="31.417022980749607" lon="-3.85060197673738">
        <ele>882</ele>
        <time>2003-04-17T16:17:51Z</time>
      </trkpt>
      <trkpt lat="31.417043013498187" lon="-3.850740026682615">
        <ele>882</ele>
        <time>2003-04-17T16:17:52Z</time>
      </trkpt>
      <trkpt lat="31.417032033205032" lon="-3.851000033318996">
        <ele>881.89999999999998</ele>
        <time>2003-04-17T16:17:53Z</time>
      </trkpt>
      <trkpt lat="31.416981993243098" lon="-3.851121990010142">
        <ele>881.89999999999998</ele>
        <time>2003-04-17T16:17:55Z</time>
      </trkpt>
      <trkpt lat="31.416915021836758" lon="-3.851228021085262">
        <ele>881.60000000000002</ele>
        <time>2003-04-17T16:17:56Z</time>
      </trkpt>
      <trkpt lat="31.416817959398031" lon="-3.851432036608458">
        <ele>881.20000000000005</ele>
        <time>2003-04-17T16:17:57Z</time>
      </trkpt>
      <trkpt lat="31.416785018518567" lon="-3.85154795832932">
        <ele>880.60000000000002</ele>
        <time>2003-04-17T16:17:59Z</time>
      </trkpt>
      <trkpt lat="31.416649986058474" lon="-3.852103007957339">
        <ele>880.5</ele>
        <time>2003-04-17T16:18:03Z</time>
      </trkpt>
      <trkpt lat="31.416619978845119" lon="-3.852568035945296">
        <ele>880.10000000000002</ele>
        <time>2003-04-17T16:18:05Z</time>
      </trkpt>
      <trkpt lat="31.416587959975004" lon="-3.853473030030727">
        <ele>879.70000000000005</ele>
        <time>2003-04-17T16:18:12Z</time>
      </trkpt>
      <trkpt lat="31.416472038254142" lon="-3.854157999157906">
        <ele>878.79999999999995</ele>
        <time>2003-04-17T16:18:16Z</time>
      </trkpt>
      <trkpt lat="31.416402971372008" lon="-3.85472696274519">
        <ele>877.89999999999998</ele>
        <time>2003-04-17T16:18:20Z</time>
      </trkpt>
      <trkpt lat="31.416198033839464" lon="-3.855782998725772">
        <ele>876.5</ele>
        <time>2003-04-17T16:18:27Z</time>
      </trkpt>
      <trkpt lat="31.416122009977698" lon="-3.85668003000319">
        <ele>876.10000000000002</ele>
        <time>2003-04-17T16:18:34Z</time>
      </trkpt>
      <trkpt lat="31.41608496196568" lon="-3.856923021376133">
        <ele>876.5</ele>
        <time>2003-04-17T16:18:35Z</time>
      </trkpt>
      <trkpt lat="31.416031988337636" lon="-3.857038021087647">
        <ele>876.5</ele>
        <time>2003-04-17T16:18:36Z</time>
      </trkpt>
      <trkpt lat="31.41588999889791" lon="-3.85726198554039">
        <ele>876.20000000000005</ele>
        <time>2003-04-17T16:18:39Z</time>
      </trkpt>
      <trkpt lat="31.415262026712298" lon="-3.85803303681314">
        <ele>873.89999999999998</ele>
        <time>2003-04-17T16:18:46Z</time>
      </trkpt>
      <trkpt lat="31.415090030059218" lon="-3.858251972123981">
        <ele>873.89999999999998</ele>
        <time>2003-04-17T16:18:47Z</time>
      </trkpt>
      <trkpt lat="31.414885008707643" lon="-3.858622033149004">
        <ele>873.60000000000002</ele>
        <time>2003-04-17T16:18:50Z</time>
      </trkpt>
      <trkpt lat="31.414361977949739" lon="-3.859553011134267">
        <ele>873.79999999999995</ele>
        <time>2003-04-17T16:18:58Z</time>
      </trkpt>
      <trkpt lat="31.413808017969131" lon="-3.860326996073127">
        <ele>872.39999999999998</ele>
        <time>2003-04-17T16:19:03Z</time>
      </trkpt>
      <trkpt lat="31.413554968312383" lon="-3.860675012692809">
        <ele>871.89999999999998</ele>
        <time>2003-04-17T16:19:06Z</time>
      </trkpt>
      <trkpt lat="31.413439968600869" lon="-3.860952034592629">
        <ele>871.70000000000005</ele>
        <time>2003-04-17T16:19:09Z</time>
      </trkpt>
      <trkpt lat="31.413317006081343" lon="-3.861238025128841">
        <ele>870.79999999999995</ele>
        <time>2003-04-17T16:19:10Z</time>
      </trkpt>
      <trkpt lat="31.412996985018253" lon="-3.862042017281056">
        <ele>870.5</ele>
        <time>2003-04-17T16:19:17Z</time>
      </trkpt>
      <trkpt lat="31.412864970043302" lon="-3.862424986436963">
        <ele>870.5</ele>
        <time>2003-04-17T16:19:20Z</time>
      </trkpt>
      <trkpt lat="31.412592977285385" lon="-3.862999984994531">
        <ele>869.89999999999998</ele>
        <time>2003-04-17T16:19:24Z</time>
      </trkpt>
      <trkpt lat="31.412083022296429" lon="-3.864057026803494">
        <ele>870.29999999999995</ele>
        <time>2003-04-17T16:19:30Z</time>
      </trkpt>
      <trkpt lat="31.411548005416989" lon="-3.864978030323982">
        <ele>868.5</ele>
        <time>2003-04-17T16:19:37Z</time>
      </trkpt>
      <trkpt lat="31.411037966609001" lon="-3.866013027727604">
        <ele>867</ele>
        <time>2003-04-17T16:19:43Z</time>
      </trkpt>
      <trkpt lat="31.41058299690485" lon="-3.867039978504181">
        <ele>865.60000000000002</ele>
        <time>2003-04-17T16:19:48Z</time>
      </trkpt>
      <trkpt lat="31.41013003885746" lon="-3.86808997951448">
        <ele>864.39999999999998</ele>
        <time>2003-04-17T16:19:55Z</time>
      </trkpt>
      <trkpt lat="31.40978797338903" lon="-3.868722980841994">
        <ele>863.20000000000005</ele>
        <time>2003-04-17T16:19:59Z</time>
      </trkpt>
      <trkpt lat="31.409305008128285" lon="-3.869626969099045">
        <ele>862.79999999999995</ele>
        <time>2003-04-17T16:20:04Z</time>
      </trkpt>
      <trkpt lat="31.409210041165352" lon="-3.869931986555457">
        <ele>862.60000000000002</ele>
        <time>2003-04-17T16:20:07Z</time>
      </trkpt>
      <trkpt lat="31.409171987324953" lon="-3.870223006233573">
        <ele>862.79999999999995</ele>
        <time>2003-04-17T16:20:08Z</time>
      </trkpt>
      <trkpt lat="31.409177016466856" lon="-3.870519977062941">
        <ele>863.39999999999998</ele>
        <time>2003-04-17T16:20:11Z</time>
      </trkpt>
      <trkpt lat="31.40920702368021" lon="-3.871595039963722">
        <ele>861.89999999999998</ele>
        <time>2003-04-17T16:20:18Z</time>
      </trkpt>
      <trkpt lat="31.409135023131967" lon="-3.871972979977727">
        <ele>861.89999999999998</ele>
        <time>2003-04-17T16:20:20Z</time>
      </trkpt>
      <trkpt lat="31.409002002328634" lon="-3.872231980785728">
        <ele>861.70000000000005</ele>
        <time>2003-04-17T16:20:23Z</time>
      </trkpt>
      <trkpt lat="31.408897982910275" lon="-3.872328037396073">
        <ele>861.29999999999995</ele>
        <time>2003-04-17T16:20:23Z</time>
      </trkpt>
      <trkpt lat="31.408720035105944" lon="-3.872532974928618">
        <ele>861.39999999999998</ele>
        <time>2003-04-17T16:20:26Z</time>
      </trkpt>
      <trkpt lat="31.408666977658868" lon="-3.872664989903569">
        <ele>861.20000000000005</ele>
        <time>2003-04-17T16:20:27Z</time>
      </trkpt>
      <trkpt lat="31.408547032624483" lon="-3.87307302094996">
        <ele>861.5</ele>
        <time>2003-04-17T16:20:30Z</time>
      </trkpt>
      <trkpt lat="31.408449970185757" lon="-3.873349959030747">
        <ele>860.89999999999998</ele>
        <time>2003-04-17T16:20:31Z</time>
      </trkpt>
      <trkpt lat="31.408236986026168" lon="-3.873766958713532">
        <ele>860.20000000000005</ele>
        <time>2003-04-17T16:20:34Z</time>
      </trkpt>
      <trkpt lat="31.408046968281269" lon="-3.874141965061426">
        <ele>859.79999999999995</ele>
        <time>2003-04-17T16:20:38Z</time>
      </trkpt>
      <trkpt lat="31.408032970502973" lon="-3.874280015006661">
        <ele>859.29999999999995</ele>
        <time>2003-04-17T16:20:38Z</time>
      </trkpt>
      <trkpt lat="31.407989971339703" lon="-3.874704977497459">
        <ele>858.60000000000002</ele>
        <time>2003-04-17T16:20:42Z</time>
      </trkpt>
      <trkpt lat="31.4079400151968" lon="-3.874847972765565">
        <ele>858.60000000000002</ele>
        <time>2003-04-17T16:20:42Z</time>
      </trkpt>
      <trkpt lat="31.407680008560419" lon="-3.875702004879713">
        <ele>858.20000000000005</ele>
        <time>2003-04-17T16:20:49Z</time>
      </trkpt>
      <trkpt lat="31.407628040760756" lon="-3.875832008197904">
        <ele>858.39999999999998</ele>
        <time>2003-04-17T16:20:50Z</time>
      </trkpt>
      <trkpt lat="31.407293016090989" lon="-3.87679198756814">
        <ele>858.29999999999995</ele>
        <time>2003-04-17T16:20:57Z</time>
      </trkpt>
      <trkpt lat="31.407107021659613" lon="-3.877918012440205">
        <ele>857.39999999999998</ele>
        <time>2003-04-17T16:21:05Z</time>
      </trkpt>
      <trkpt lat="31.407120013609529" lon="-3.878041980788112">
        <ele>857.60000000000002</ele>
        <time>2003-04-17T16:21:05Z</time>
      </trkpt>
      <trkpt lat="31.407152032479644" lon="-3.878153041005135">
        <ele>857.5</ele>
        <time>2003-04-17T16:21:06Z</time>
      </trkpt>
      <trkpt lat="31.407217998057604" lon="-3.878239961341023">
        <ele>857.5</ele>
        <time>2003-04-17T16:21:08Z</time>
      </trkpt>
      <trkpt lat="31.407292010262609" lon="-3.878302993252873">
        <ele>857.39999999999998</ele>
        <time>2003-04-17T16:21:09Z</time>
      </trkpt>
      <trkpt lat="31.40746702440083" lon="-3.878483036532998">
        <ele>856.89999999999998</ele>
        <time>2003-04-17T16:21:12Z</time>
      </trkpt>
      <trkpt lat="31.407557968050241" lon="-3.878604993224144">
        <ele>858</ele>
        <time>2003-04-17T16:21:13Z</time>
      </trkpt>
      <trkpt lat="31.407562997192144" lon="-3.878727033734322">
        <ele>857.89999999999998</ele>
        <time>2003-04-17T16:21:16Z</time>
      </trkpt>
      <trkpt lat="31.407597027719021" lon="-3.879028027877212">
        <ele>857.20000000000005</ele>
        <time>2003-04-17T16:21:20Z</time>
      </trkpt>
      <trkpt lat="31.407668022438884" lon="-3.879298008978367">
        <ele>857.70000000000005</ele>
        <time>2003-04-17T16:21:24Z</time>
      </trkpt>
      <trkpt lat="31.407637009397149" lon="-3.879466988146305">
        <ele>857.89999999999998</ele>
        <time>2003-04-17T16:21:25Z</time>
      </trkpt>
      <trkpt lat="31.407627034932375" lon="-3.879657005891204">
        <ele>857</ele>
        <time>2003-04-17T16:21:28Z</time>
      </trkpt>
      <trkpt lat="31.407668022438884" lon="-3.879962023347616">
        <ele>857.39999999999998</ele>
        <time>2003-04-17T16:21:31Z</time>
      </trkpt>
      <trkpt lat="31.407686965540051" lon="-3.880178024992347">
        <ele>858.29999999999995</ele>
        <time>2003-04-17T16:21:32Z</time>
      </trkpt>
      <trkpt lat="31.407689983025193" lon="-3.880456974729896">
        <ele>858.39999999999998</ele>
        <time>2003-04-17T16:21:36Z</time>
      </trkpt>
      <trkpt lat="31.407659975811839" lon="-3.880635006353259">
        <ele>858.29999999999995</ele>
        <time>2003-04-17T16:21:37Z</time>
      </trkpt>
      <trkpt lat="31.407629968598485" lon="-3.880927031859756">
        <ele>857.39999999999998</ele>
        <time>2003-04-17T16:21:40Z</time>
      </trkpt>
      <trkpt lat="31.407642038539052" lon="-3.881179997697473">
        <ele>857.39999999999998</ele>
        <time>2003-04-17T16:21:44Z</time>
      </trkpt>
      <trkpt lat="31.407722001895308" lon="-3.88130497187376">
        <ele>856.60000000000002</ele>
        <time>2003-04-17T16:21:45Z</time>
      </trkpt>
      <trkpt lat="31.407800037413836" lon="-3.8814099971205">
        <ele>856.79999999999995</ele>
        <time>2003-04-17T16:21:48Z</time>
      </trkpt>
      <trkpt lat="31.407808000221848" lon="-3.88154000043869">
        <ele>856.79999999999995</ele>
        <time>2003-04-17T16:21:50Z</time>
      </trkpt>
      <trkpt lat="31.407791990786791" lon="-3.881833031773567">
        <ele>857.10000000000002</ele>
        <time>2003-04-17T16:21:54Z</time>
      </trkpt>
      <trkpt lat="31.407813029363751" lon="-3.882432002574205">
        <ele>858.29999999999995</ele>
        <time>2003-04-17T16:22:00Z</time>
      </trkpt>
      <trkpt lat="31.407787967473269" lon="-3.882795022800565">
        <ele>858.29999999999995</ele>
        <time>2003-04-17T16:22:03Z</time>
      </trkpt>
      <trkpt lat="31.407642960548401" lon="-3.883588034659624">
        <ele>858.29999999999995</ele>
        <time>2003-04-17T16:22:10Z</time>
      </trkpt>
      <trkpt lat="31.407456966117024" lon="-3.884081980213523">
        <ele>857.70000000000005</ele>
        <time>2003-04-17T16:22:14Z</time>
      </trkpt>
      <trkpt lat="31.40708296559751" lon="-3.885061992332339">
        <ele>857.10000000000002</ele>
        <time>2003-04-17T16:22:22Z</time>
      </trkpt>
      <trkpt lat="31.406760010868311" lon="-3.886207966133952">
        <ele>856</ele>
        <time>2003-04-17T16:22:30Z</time>
      </trkpt>
      <trkpt lat="31.40643697232008" lon="-3.887301972135902">
        <ele>855.39999999999998</ele>
        <time>2003-04-17T16:22:37Z</time>
      </trkpt>
      <trkpt lat="31.406036987900734" lon="-3.888400001451373">
        <ele>855</ele>
        <time>2003-04-17T16:22:44Z</time>
      </trkpt>
      <trkpt lat="31.40592198818922" lon="-3.888877015560865">
        <ele>854.89999999999998</ele>
        <time>2003-04-17T16:22:46Z</time>
      </trkpt>
      <trkpt lat="31.405892986804247" lon="-3.889189995825291">
        <ele>854.5</ele>
        <time>2003-04-17T16:22:49Z</time>
      </trkpt>
      <trkpt lat="31.405907990410924" lon="-3.889491995796561">
        <ele>853.89999999999998</ele>
        <time>2003-04-17T16:22:50Z</time>
      </trkpt>
      <trkpt lat="31.405932968482375" lon="-3.890264974907041">
        <ele>853.10000000000002</ele>
        <time>2003-04-17T16:22:56Z</time>
      </trkpt>
      <trkpt lat="31.405832972377539" lon="-3.891365015879273">
        <ele>852.60000000000002</ele>
        <time>2003-04-17T16:23:02Z</time>
      </trkpt>
      <trkpt lat="31.405604984611273" lon="-3.892437983304262">
        <ele>852</ele>
        <time>2003-04-17T16:23:09Z</time>
      </trkpt>
      <trkpt lat="31.405423013493419" lon="-3.892986997961998">
        <ele>851.79999999999995</ele>
        <time>2003-04-17T16:23:13Z</time>
      </trkpt>
      <trkpt lat="31.405268032103777" lon="-3.893308024853468">
        <ele>851.60000000000002</ele>
        <time>2003-04-17T16:23:16Z</time>
      </trkpt>
      <trkpt lat="31.40514699742198" lon="-3.89348303899169">
        <ele>851.70000000000005</ele>
        <time>2003-04-17T16:23:19Z</time>
      </trkpt>
      <trkpt lat="31.405044989660382" lon="-3.89361497014761">
        <ele>851.79999999999995</ele>
        <time>2003-04-17T16:23:20Z</time>
      </trkpt>
      <trkpt lat="31.405008025467396" lon="-3.893713038414717">
        <ele>851.70000000000005</ele>
        <time>2003-04-17T16:23:24Z</time>
      </trkpt>
      <trkpt lat="31.404962008818984" lon="-3.89387296512723">
        <ele>852.60000000000002</ele>
        <time>2003-04-17T16:24:07Z</time>
      </trkpt>
      <trkpt lat="31.404926972463727" lon="-3.893987964838743">
        <ele>852.70000000000005</ele>
        <time>2003-04-17T16:24:10Z</time>
      </trkpt>
      <trkpt lat="31.404878022149205" lon="-3.89419499784708">
        <ele>852.79999999999995</ele>
        <time>2003-04-17T16:24:14Z</time>
      </trkpt>
      <trkpt lat="31.404796969145536" lon="-3.894611997529864">
        <ele>852.79999999999995</ele>
        <time>2003-04-17T16:24:21Z</time>
      </trkpt>
      <trkpt lat="31.404618015512824" lon="-3.895322028547525">
        <ele>852.10000000000002</ele>
        <time>2003-04-17T16:24:30Z</time>
      </trkpt>
      <trkpt lat="31.404422968626022" lon="-3.896029964089394">
        <ele>851.79999999999995</ele>
        <time>2003-04-17T16:24:37Z</time>
      </trkpt>
      <trkpt lat="31.40409498475492" lon="-3.897045012563467">
        <ele>851.29999999999995</ele>
        <time>2003-04-17T16:24:48Z</time>
      </trkpt>
      <trkpt lat="31.403670022264123" lon="-3.898093001917005">
        <ele>850.89999999999998</ele>
        <time>2003-04-17T16:24:57Z</time>
      </trkpt>
      <trkpt lat="31.403225027024746" lon="-3.899015011265874">
        <ele>850.20000000000005</ele>
        <time>2003-04-17T16:25:04Z</time>
      </trkpt>
      <trkpt lat="31.402739966288209" lon="-3.89999502338469">
        <ele>849.20000000000005</ele>
        <time>2003-04-17T16:25:12Z</time>
      </trkpt>
      <trkpt lat="31.402672994881868" lon="-3.900270033627749">
        <ele>849</ele>
        <time>2003-04-17T16:25:15Z</time>
      </trkpt>
      <trkpt lat="31.402626978233457" lon="-3.900679992511869">
        <ele>848.89999999999998</ele>
        <time>2003-04-17T16:25:17Z</time>
      </trkpt>
      <trkpt lat="31.402522036805749" lon="-3.901826972141862">
        <ele>848.39999999999998</ele>
        <time>2003-04-17T16:25:26Z</time>
      </trkpt>
      <trkpt lat="31.402457999065518" lon="-3.902477994561195">
        <ele>848.20000000000005</ele>
        <time>2003-04-17T16:25:31Z</time>
      </trkpt>
      <trkpt lat="31.40237501822412" lon="-3.903083000332117">
        <ele>848</ele>
        <time>2003-04-17T16:25:36Z</time>
      </trkpt>
      <trkpt lat="31.40239697881043" lon="-3.903315011411905">
        <ele>848</ele>
        <time>2003-04-17T16:25:39Z</time>
      </trkpt>
      <trkpt lat="31.402452969923615" lon="-3.903512991964817">
        <ele>847.79999999999995</ele>
        <time>2003-04-17T16:25:40Z</time>
      </trkpt>
      <trkpt lat="31.402497980743647" lon="-3.903693035244942">
        <ele>847.5</ele>
        <time>2003-04-17T16:25:43Z</time>
      </trkpt>
      <trkpt lat="31.402584984898567" lon="-3.904299968853593">
        <ele>847.70000000000005</ele>
        <time>2003-04-17T16:25:48Z</time>
      </trkpt>
      <trkpt lat="31.40263200737536" lon="-3.90461303293705">
        <ele>847.89999999999998</ele>
        <time>2003-04-17T16:25:51Z</time>
      </trkpt>
      <trkpt lat="31.402708031237125" lon="-3.90480799600482">
        <ele>848.29999999999995</ele>
        <time>2003-04-17T16:25:54Z</time>
      </trkpt>
      <trkpt lat="31.402772990986705" lon="-3.905009999871254">
        <ele>847.39999999999998</ele>
        <time>2003-04-17T16:25:55Z</time>
      </trkpt>
      <trkpt lat="31.40278497710824" lon="-3.905115025117993">
        <ele>847.5</ele>
        <time>2003-04-17T16:25:57Z</time>
      </trkpt>
      <trkpt lat="31.402787994593382" lon="-3.905327003449202">
        <ele>847.79999999999995</ele>
        <time>2003-04-17T16:25:58Z</time>
      </trkpt>
      <trkpt lat="31.402750024572015" lon="-3.90613803640008">
        <ele>847.79999999999995</ele>
        <time>2003-04-17T16:26:06Z</time>
      </trkpt>
      <trkpt lat="31.402684981003404" lon="-3.906940016895533">
        <ele>847.60000000000002</ele>
        <time>2003-04-17T16:26:11Z</time>
      </trkpt>
      <trkpt lat="31.40274197794497" lon="-3.907215027138591">
        <ele>847.60000000000002</ele>
        <time>2003-04-17T16:26:14Z</time>
      </trkpt>
      <trkpt lat="31.402795035392046" lon="-3.90734201297164">
        <ele>847.39999999999998</ele>
        <time>2003-04-17T16:26:14Z</time>
      </trkpt>
      <trkpt lat="31.402862006798387" lon="-3.907457012683153">
        <ele>847.70000000000005</ele>
        <time>2003-04-17T16:26:15Z</time>
      </trkpt>
      <trkpt lat="31.402972983196378" lon="-3.907690029591322">
        <ele>847.79999999999995</ele>
        <time>2003-04-17T16:26:18Z</time>
      </trkpt>
      <trkpt lat="31.403001984581351" lon="-3.907824978232384">
        <ele>848</ele>
        <time>2003-04-17T16:26:18Z</time>
      </trkpt>
      <trkpt lat="31.403012964874506" lon="-3.90796696767211">
        <ele>847.70000000000005</ele>
        <time>2003-04-17T16:26:20Z</time>
      </trkpt>
      <trkpt lat="31.403008019551635" lon="-3.908250024542213">
        <ele>848</ele>
        <time>2003-04-17T16:26:22Z</time>
      </trkpt>
      <trkpt lat="31.402963008731604" lon="-3.909119982272387">
        <ele>847.89999999999998</ele>
        <time>2003-04-17T16:26:28Z</time>
      </trkpt>
      <trkpt lat="31.403027968481183" lon="-3.910203007981181">
        <ele>847.79999999999995</ele>
        <time>2003-04-17T16:26:34Z</time>
      </trkpt>
      <trkpt lat="31.403067028149962" lon="-3.910333011299372">
        <ele>848</ele>
        <time>2003-04-17T16:26:36Z</time>
      </trkpt>
      <trkpt lat="31.403152020648122" lon="-3.910548007115722">
        <ele>848.60000000000002</ele>
        <time>2003-04-17T16:26:37Z</time>
      </trkpt>
      <trkpt lat="31.403232989832759" lon="-3.910835003480315">
        <ele>848.39999999999998</ele>
        <time>2003-04-17T16:26:41Z</time>
      </trkpt>
      <trkpt lat="31.403204994276166" lon="-3.911007000133395">
        <ele>848.5</ele>
        <time>2003-04-17T16:26:42Z</time>
      </trkpt>
      <trkpt lat="31.403167024254799" lon="-3.911285027861595">
        <ele>848.60000000000002</ele>
        <time>2003-04-17T16:26:45Z</time>
      </trkpt>
      <trkpt lat="31.403107009828091" lon="-3.912222040817142">
        <ele>848.70000000000005</ele>
        <time>2003-04-17T16:26:55Z</time>
      </trkpt>
      <trkpt lat="31.403022017329931" lon="-3.912522029131651">
        <ele>848.29999999999995</ele>
        <time>2003-04-17T16:26:57Z</time>
      </trkpt>
      <trkpt lat="31.402652962133288" lon="-3.913597008213401">
        <ele>847.20000000000005</ele>
        <time>2003-04-17T16:27:08Z</time>
      </trkpt>
      <trkpt lat="31.402490017935634" lon="-3.914026999846101">
        <ele>847</ele>
        <time>2003-04-17T16:27:12Z</time>
      </trkpt>
      <trkpt lat="31.402133032679558" lon="-3.914680033922195">
        <ele>846.29999999999995</ele>
        <time>2003-04-17T16:27:18Z</time>
      </trkpt>
      <trkpt lat="31.401534983888268" lon="-3.915536999702454">
        <ele>845.10000000000002</ele>
        <time>2003-04-17T16:27:26Z</time>
      </trkpt>
      <trkpt lat="31.401008013635874" lon="-3.916554981842637">
        <ele>844.60000000000002</ele>
        <time>2003-04-17T16:27:34Z</time>
      </trkpt>
      <trkpt lat="31.400610040873289" lon="-3.917664997279644">
        <ele>844</ele>
        <time>2003-04-17T16:27:42Z</time>
      </trkpt>
      <trkpt lat="31.400287002325058" lon="-3.918739976361394">
        <ele>843.5</ele>
        <time>2003-04-17T16:27:49Z</time>
      </trkpt>
      <trkpt lat="31.39999195933342" lon="-3.91989198513329">
        <ele>842.89999999999998</ele>
        <time>2003-04-17T16:27:55Z</time>
      </trkpt>
      <trkpt lat="31.399787021800876" lon="-3.921039970591664">
        <ele>842.29999999999995</ele>
        <time>2003-04-17T16:28:02Z</time>
      </trkpt>
      <trkpt lat="31.399709992110729" lon="-3.922198014333844">
        <ele>842.20000000000005</ele>
        <time>2003-04-17T16:28:10Z</time>
      </trkpt>
      <trkpt lat="31.399640003219247" lon="-3.92337198369205">
        <ele>842.20000000000005</ele>
        <time>2003-04-17T16:28:17Z</time>
      </trkpt>
      <trkpt lat="31.39951704069972" lon="-3.924540001899004">
        <ele>841.89999999999998</ele>
        <time>2003-04-17T16:28:24Z</time>
      </trkpt>
      <trkpt lat="31.399336997419596" lon="-3.925720006227493">
        <ele>841.89999999999998</ele>
        <time>2003-04-17T16:28:30Z</time>
      </trkpt>
      <trkpt lat="31.399137005209923" lon="-3.926876960322261">
        <ele>842</ele>
        <time>2003-04-17T16:28:37Z</time>
      </trkpt>
      <trkpt lat="31.399037009105086" lon="-3.928052019327879">
        <ele>842.39999999999998</ele>
        <time>2003-04-17T16:28:44Z</time>
      </trkpt>
      <trkpt lat="31.398944975808263" lon="-3.928536996245384">
        <ele>842.60000000000002</ele>
        <time>2003-04-17T16:28:48Z</time>
      </trkpt>
      <trkpt lat="31.398689998313785" lon="-3.929496975615621">
        <ele>842.79999999999995</ele>
        <time>2003-04-17T16:28:53Z</time>
      </trkpt>
      <trkpt lat="31.398531999439001" lon="-3.930667005479336">
        <ele>843.10000000000002</ele>
        <time>2003-04-17T16:29:00Z</time>
      </trkpt>
      <trkpt lat="31.398524958640337" lon="-3.931139996275306">
        <ele>842.89999999999998</ele>
        <time>2003-04-17T16:29:04Z</time>
      </trkpt>
      <trkpt lat="31.398501992225647" lon="-3.931614998728037">
        <ele>843.10000000000002</ele>
        <time>2003-04-17T16:29:07Z</time>
      </trkpt>
      <trkpt lat="31.398352961987257" lon="-3.932725014165044">
        <ele>843.39999999999998</ele>
        <time>2003-04-17T16:29:14Z</time>
      </trkpt>
      <trkpt lat="31.398323038592935" lon="-3.933013016358018">
        <ele>843.70000000000005</ele>
        <time>2003-04-17T16:29:15Z</time>
      </trkpt>
      <trkpt lat="31.398226981982589" lon="-3.933305041864514">
        <ele>843.70000000000005</ele>
        <time>2003-04-17T16:29:18Z</time>
      </trkpt>
      <trkpt lat="31.398145006969571" lon="-3.93359798938036">
        <ele>842.79999999999995</ele>
        <time>2003-04-17T16:29:19Z</time>
      </trkpt>
      <trkpt lat="31.397918025031686" lon="-3.93462996929884">
        <ele>841.70000000000005</ele>
        <time>2003-04-17T16:29:27Z</time>
      </trkpt>
      <trkpt lat="31.397792967036366" lon="-3.935492970049381">
        <ele>843.60000000000002</ele>
        <time>2003-04-17T16:29:33Z</time>
      </trkpt>
      <trkpt lat="31.397566990926862" lon="-3.936024969443679">
        <ele>842.10000000000002</ele>
        <time>2003-04-17T16:29:37Z</time>
      </trkpt>
      <trkpt lat="31.397460037842393" lon="-3.936211969703436">
        <ele>841.70000000000005</ele>
        <time>2003-04-17T16:29:38Z</time>
      </trkpt>
      <trkpt lat="31.397404968738556" lon="-3.936382960528135">
        <ele>841.39999999999998</ele>
        <time>2003-04-17T16:29:41Z</time>
      </trkpt>
      <trkpt lat="31.39739197678864" lon="-3.936574989929795">
        <ele>841.10000000000002</ele>
        <time>2003-04-17T16:29:42Z</time>
      </trkpt>
      <trkpt lat="31.397443022578955" lon="-3.936707004904747">
        <ele>840.79999999999995</ele>
        <time>2003-04-17T16:29:45Z</time>
      </trkpt>
      <trkpt lat="31.397552993148565" lon="-3.936786968261004">
        <ele>840.79999999999995</ele>
        <time>2003-04-17T16:29:47Z</time>
      </trkpt>
      <trkpt lat="31.397585012018681" lon="-3.936922000721097">
        <ele>840.89999999999998</ele>
        <time>2003-04-17T16:29:50Z</time>
      </trkpt>
      <trkpt lat="31.397513011470437" lon="-3.93701302818954">
        <ele>840.60000000000002</ele>
        <time>2003-04-17T16:29:53Z</time>
      </trkpt>
      <trkpt lat="31.397451991215348" lon="-3.937136996537447">
        <ele>840.79999999999995</ele>
        <time>2003-04-17T16:29:54Z</time>
      </trkpt>
      <trkpt lat="31.397379990667105" lon="-3.937261970713735">
        <ele>840.89999999999998</ele>
        <time>2003-04-17T16:29:57Z</time>
      </trkpt>
      <trkpt lat="31.397317964583635" lon="-3.937381999567151">
        <ele>840.79999999999995</ele>
        <time>2003-04-17T16:29:58Z</time>
      </trkpt>
      <trkpt lat="31.397306984290481" lon="-3.937522983178496">
        <ele>841.20000000000005</ele>
        <time>2003-04-17T16:30:01Z</time>
      </trkpt>
      <trkpt lat="31.397261973470449" lon="-3.938293028622866">
        <ele>842.29999999999995</ele>
        <time>2003-04-17T16:30:10Z</time>
      </trkpt>
      <trkpt lat="31.397225009277463" lon="-3.938457984477282">
        <ele>841.89999999999998</ele>
        <time>2003-04-17T16:30:13Z</time>
      </trkpt>
      <trkpt lat="31.397172035649419" lon="-3.938817987218499">
        <ele>841.5</ele>
        <time>2003-04-17T16:30:17Z</time>
      </trkpt>
      <trkpt lat="31.397144962102175" lon="-3.93952701240778">
        <ele>842</ele>
        <time>2003-04-17T16:30:25Z</time>
      </trkpt>
      <trkpt lat="31.397101962938905" lon="-3.93974200822413">
        <ele>842.10000000000002</ele>
        <time>2003-04-17T16:30:27Z</time>
      </trkpt>
      <trkpt lat="31.397012025117874" lon="-3.939942000433803">
        <ele>842.39999999999998</ele>
        <time>2003-04-17T16:30:28Z</time>
      </trkpt>
      <trkpt lat="31.396947987377644" lon="-3.940032022073865">
        <ele>842.29999999999995</ele>
        <time>2003-04-17T16:30:29Z</time>
      </trkpt>
      <trkpt lat="31.396650010719895" lon="-3.9403669629246">
        <ele>842.10000000000002</ele>
        <time>2003-04-17T16:30:33Z</time>
      </trkpt>
      <trkpt lat="31.396007034927607" lon="-3.941102977842093">
        <ele>841.39999999999998</ele>
        <time>2003-04-17T16:30:41Z</time>
      </trkpt>
      <trkpt lat="31.395577965304255" lon="-3.941583009436727">
        <ele>841.10000000000002</ele>
        <time>2003-04-17T16:30:47Z</time>
      </trkpt>
      <trkpt lat="31.395360035821795" lon="-3.941736984997988">
        <ele>840.89999999999998</ele>
        <time>2003-04-17T16:30:48Z</time>
      </trkpt>
      <trkpt lat="31.395237995311618" lon="-3.941789958626032">
        <ele>840.70000000000005</ele>
        <time>2003-04-17T16:30:50Z</time>
      </trkpt>
      <trkpt lat="31.39438203535974" lon="-3.942139986902475">
        <ele>839.39999999999998</ele>
        <time>2003-04-17T16:30:56Z</time>
      </trkpt>
      <trkpt lat="31.394163016229868" lon="-3.942263033241034">
        <ele>839</ele>
        <time>2003-04-17T16:30:59Z</time>
      </trkpt>
      <trkpt lat="31.393551975488663" lon="-3.942784974351525">
        <ele>838</ele>
        <time>2003-04-17T16:31:04Z</time>
      </trkpt>
      <trkpt lat="31.393276965245605" lon="-3.943017991259694">
        <ele>837.60000000000002</ele>
        <time>2003-04-17T16:31:07Z</time>
      </trkpt>
      <trkpt lat="31.392976976931095" lon="-3.943165009841323">
        <ele>837.20000000000005</ele>
        <time>2003-04-17T16:31:11Z</time>
      </trkpt>
      <trkpt lat="31.392112970352173" lon="-3.943562982603908">
        <ele>836.10000000000002</ele>
        <time>2003-04-17T16:31:19Z</time>
      </trkpt>
      <trkpt lat="31.391258016228676" lon="-3.943909993395209">
        <ele>835.29999999999995</ele>
        <time>2003-04-17T16:31:26Z</time>
      </trkpt>
      <trkpt lat="31.390782007947564" lon="-3.944136975333095">
        <ele>834.60000000000002</ele>
        <time>2003-04-17T16:31:30Z</time>
      </trkpt>
      <trkpt lat="31.390010034665465" lon="-3.944597980007529">
        <ele>834</ele>
        <time>2003-04-17T16:31:37Z</time>
      </trkpt>
      <trkpt lat="31.389829991385341" lon="-3.944809958338738">
        <ele>833.60000000000002</ele>
        <time>2003-04-17T16:31:38Z</time>
      </trkpt>
      <trkpt lat="31.389648020267487" lon="-3.944982960820198">
        <ele>834.10000000000002</ele>
        <time>2003-04-17T16:31:41Z</time>
      </trkpt>
      <trkpt lat="31.38954701833427" lon="-3.945041969418526">
        <ele>834</ele>
        <time>2003-04-17T16:31:42Z</time>
      </trkpt>
      <trkpt lat="31.389321964234114" lon="-3.945125034078956">
        <ele>833.20000000000005</ele>
        <time>2003-04-17T16:31:44Z</time>
      </trkpt>
      <trkpt lat="31.388972019776702" lon="-3.945255037397146">
        <ele>833.5</ele>
        <time>2003-04-17T16:31:46Z</time>
      </trkpt>
      <trkpt lat="31.388755012303591" lon="-3.945414964109659">
        <ele>833</ele>
        <time>2003-04-17T16:31:49Z</time>
      </trkpt>
      <trkpt lat="31.388361984863877" lon="-3.945794999599457">
        <ele>833</ele>
        <time>2003-04-17T16:31:53Z</time>
      </trkpt>
      <trkpt lat="31.387969963252544" lon="-3.946348037570715">
        <ele>832.70000000000005</ele>
        <time>2003-04-17T16:31:57Z</time>
      </trkpt>
      <trkpt lat="31.387925036251545" lon="-3.946492038667202">
        <ele>832.70000000000005</ele>
        <time>2003-04-17T16:31:58Z</time>
      </trkpt>
      <trkpt lat="31.38780701905489" lon="-3.946757996454835">
        <ele>832.39999999999998</ele>
        <time>2003-04-17T16:32:01Z</time>
      </trkpt>
      <trkpt lat="31.387617001309991" lon="-3.947159992530942">
        <ele>831.89999999999998</ele>
        <time>2003-04-17T16:32:04Z</time>
      </trkpt>
      <trkpt lat="31.3873799610883" lon="-3.9478649944067">
        <ele>831.79999999999995</ele>
        <time>2003-04-17T16:32:09Z</time>
      </trkpt>
      <trkpt lat="31.387220034375787" lon="-3.948103040456772">
        <ele>831.89999999999998</ele>
        <time>2003-04-17T16:32:11Z</time>
      </trkpt>
      <trkpt lat="31.387094976380467" lon="-3.948367992416024">
        <ele>832</ele>
        <time>2003-04-17T16:32:13Z</time>
      </trkpt>
      <trkpt lat="31.386952986940742" lon="-3.948822962120175">
        <ele>831.79999999999995</ele>
        <time>2003-04-17T16:32:16Z</time>
      </trkpt>
      <trkpt lat="31.386852990835905" lon="-3.949112975969911">
        <ele>832.10000000000002</ele>
        <time>2003-04-17T16:32:17Z</time>
      </trkpt>
      <trkpt lat="31.386643024161458" lon="-3.949661990627646">
        <ele>832.5</ele>
        <time>2003-04-17T16:32:21Z</time>
      </trkpt>
      <trkpt lat="31.386589966714382" lon="-3.949789982289076">
        <ele>832.5</ele>
        <time>2003-04-17T16:32:23Z</time>
      </trkpt>
      <trkpt lat="31.386516960337758" lon="-3.949906993657351">
        <ele>832.60000000000002</ele>
        <time>2003-04-17T16:32:24Z</time>
      </trkpt>
      <trkpt lat="31.386343035846949" lon="-3.950117966160178">
        <ele>832.79999999999995</ele>
        <time>2003-04-17T16:32:25Z</time>
      </trkpt>
      <trkpt lat="31.386270029470325" lon="-3.950240006670356">
        <ele>832.79999999999995</ele>
        <time>2003-04-17T16:32:27Z</time>
      </trkpt>
      <trkpt lat="31.386086968705058" lon="-3.950630016624928">
        <ele>833</ele>
        <time>2003-04-17T16:32:29Z</time>
      </trkpt>
      <trkpt lat="31.385922012850642" lon="-3.950954983010888">
        <ele>833.79999999999995</ele>
        <time>2003-04-17T16:32:32Z</time>
      </trkpt>
      <trkpt lat="31.385880019515753" lon="-3.951057996600866">
        <ele>833.5</ele>
        <time>2003-04-17T16:32:33Z</time>
      </trkpt>
      <trkpt lat="31.385855041444302" lon="-3.951162016019225">
        <ele>832.89999999999998</ele>
        <time>2003-04-17T16:32:35Z</time>
      </trkpt>
      <trkpt lat="31.385872978717089" lon="-3.951369971036911">
        <ele>833.5</ele>
        <time>2003-04-17T16:32:36Z</time>
      </trkpt>
      <trkpt lat="31.385923018679023" lon="-3.951468039304018">
        <ele>833.89999999999998</ele>
        <time>2003-04-17T16:32:38Z</time>
      </trkpt>
      <trkpt lat="31.385993007570505" lon="-3.951557977125049">
        <ele>833.70000000000005</ele>
        <time>2003-04-17T16:32:39Z</time>
      </trkpt>
      <trkpt lat="31.386119993403554" lon="-3.951747994869947">
        <ele>834.29999999999995</ele>
        <time>2003-04-17T16:32:40Z</time>
      </trkpt>
      <trkpt lat="31.386150000616908" lon="-3.951859977096319">
        <ele>834.29999999999995</ele>
        <time>2003-04-17T16:32:42Z</time>
      </trkpt>
      <trkpt lat="31.386134997010231" lon="-3.952068015933037">
        <ele>834.5</ele>
        <time>2003-04-17T16:32:43Z</time>
      </trkpt>
      <trkpt lat="31.386012034490705" lon="-3.952232971787453">
        <ele>834.29999999999995</ele>
        <time>2003-04-17T16:32:46Z</time>
      </trkpt>
      <trkpt lat="31.385754961520433" lon="-3.952468000352383">
        <ele>833.79999999999995</ele>
        <time>2003-04-17T16:32:48Z</time>
      </trkpt>
      <trkpt lat="31.385652031749487" lon="-3.952517034485936">
        <ele>833.89999999999998</ele>
        <time>2003-04-17T16:32:50Z</time>
      </trkpt>
      <trkpt lat="31.38536000624299" lon="-3.95259196870029">
        <ele>833.60000000000002</ele>
        <time>2003-04-17T16:32:52Z</time>
      </trkpt>
      <trkpt lat="31.385267972946167" lon="-3.95259004086256">
        <ele>833.5</ele>
        <time>2003-04-17T16:32:54Z</time>
      </trkpt>
      <trkpt lat="31.385178035125136" lon="-3.952562967315316">
        <ele>833.39999999999998</ele>
        <time>2003-04-17T16:32:55Z</time>
      </trkpt>
      <trkpt lat="31.384932026267052" lon="-3.952542012557387">
        <ele>833.29999999999995</ele>
        <time>2003-04-17T16:32:58Z</time>
      </trkpt>
      <trkpt lat="31.3848000112921" lon="-3.952636979520321">
        <ele>833.10000000000002</ele>
        <time>2003-04-17T16:32:59Z</time>
      </trkpt>
      <trkpt lat="31.384721975773573" lon="-3.952736975625157">
        <ele>832.5</ele>
        <time>2003-04-17T16:33:02Z</time>
      </trkpt>
      <trkpt lat="31.384522989392281" lon="-3.95302196033299">
        <ele>832</ele>
        <time>2003-04-17T16:33:07Z</time>
      </trkpt>
      <trkpt lat="31.384474961087108" lon="-3.953145006671548">
        <ele>832.5</ele>
        <time>2003-04-17T16:33:09Z</time>
      </trkpt>
      <trkpt lat="31.384372031316161" lon="-3.953422028571367">
        <ele>832.70000000000005</ele>
        <time>2003-04-17T16:33:13Z</time>
      </trkpt>
      <trkpt lat="31.384221995249391" lon="-3.953822012990713">
        <ele>832.70000000000005</ele>
        <time>2003-04-17T16:33:18Z</time>
      </trkpt>
      <trkpt lat="31.384121999144554" lon="-3.954002978280187">
        <ele>833</ele>
        <time>2003-04-17T16:33:19Z</time>
      </trkpt>
      <trkpt lat="31.383807007223368" lon="-3.954483009874821">
        <ele>833</ele>
        <time>2003-04-17T16:33:25Z</time>
      </trkpt>
      <trkpt lat="31.383256986737251" lon="-3.955422034487128">
        <ele>834.89999999999998</ele>
        <time>2003-04-17T16:33:34Z</time>
      </trkpt>
      <trkpt lat="31.383227985352278" lon="-3.955539967864752">
        <ele>835.10000000000002</ele>
        <time>2003-04-17T16:33:34Z</time>
      </trkpt>
      <trkpt lat="31.383093036711216" lon="-3.956042965874076">
        <ele>835.60000000000002</ele>
        <time>2003-04-17T16:33:38Z</time>
      </trkpt>
      <trkpt lat="31.38288801535964" lon="-3.956513023003936">
        <ele>836.20000000000005</ele>
        <time>2003-04-17T16:33:42Z</time>
      </trkpt>
      <trkpt lat="31.382747031748295" lon="-3.956712009385228">
        <ele>836</ele>
        <time>2003-04-17T16:33:45Z</time>
      </trkpt>
      <trkpt lat="31.382366996258497" lon="-3.957192962989211">
        <ele>834.29999999999995</ele>
        <time>2003-04-17T16:33:49Z</time>
      </trkpt>
      <trkpt lat="31.382230035960674" lon="-3.957420028746128">
        <ele>833.70000000000005</ele>
        <time>2003-04-17T16:33:52Z</time>
      </trkpt>
      <trkpt lat="31.381913032382727" lon="-3.957807021215558">
        <ele>832.79999999999995</ele>
        <time>2003-04-17T16:33:56Z</time>
      </trkpt>
      <trkpt lat="31.381477005779743" lon="-3.958180015906692">
        <ele>832</ele>
        <time>2003-04-17T16:34:01Z</time>
      </trkpt>
      <trkpt lat="31.38129997998476" lon="-3.958212034776807">
        <ele>831.70000000000005</ele>
        <time>2003-04-17T16:34:03Z</time>
      </trkpt>
      <trkpt lat="31.381162013858557" lon="-3.958276994526386">
        <ele>831.10000000000002</ele>
        <time>2003-04-17T16:34:04Z</time>
      </trkpt>
      <trkpt lat="31.381054976955056" lon="-3.958446979522705">
        <ele>830.70000000000005</ele>
        <time>2003-04-17T16:34:07Z</time>
      </trkpt>
      <trkpt lat="31.380852973088622" lon="-3.958727018907666">
        <ele>830.20000000000005</ele>
        <time>2003-04-17T16:34:09Z</time>
      </trkpt>
      <trkpt lat="31.380669996142387" lon="-3.958892980590463">
        <ele>829.70000000000005</ele>
        <time>2003-04-17T16:34:12Z</time>
      </trkpt>
      <trkpt lat="31.380562959238887" lon="-3.958949977532029">
        <ele>829.60000000000002</ele>
        <time>2003-04-17T16:34:12Z</time>
      </trkpt>
      <trkpt lat="31.380364978685975" lon="-3.959077969193459">
        <ele>829</ele>
        <time>2003-04-17T16:34:15Z</time>
      </trkpt>
      <trkpt lat="31.380281997844577" lon="-3.959175031632185">
        <ele>828.89999999999998</ele>
        <time>2003-04-17T16:34:16Z</time>
      </trkpt>
      <trkpt lat="31.380116958171129" lon="-3.959336970001459">
        <ele>828.39999999999998</ele>
        <time>2003-04-17T16:34:17Z</time>
      </trkpt>
      <trkpt lat="31.38003003783524" lon="-3.959390027448535">
        <ele>828.39999999999998</ele>
        <time>2003-04-17T16:34:19Z</time>
      </trkpt>
      <trkpt lat="31.379812024533749" lon="-3.959563029929996">
        <ele>827.39999999999998</ele>
        <time>2003-04-17T16:34:21Z</time>
      </trkpt>
      <trkpt lat="31.379770031198859" lon="-3.95966000854969">
        <ele>827.5</ele>
        <time>2003-04-17T16:34:23Z</time>
      </trkpt>
      <trkpt lat="31.379743041470647" lon="-3.959772996604443">
        <ele>827.70000000000005</ele>
        <time>2003-04-17T16:34:24Z</time>
      </trkpt>
      <trkpt lat="31.379729965701699" lon="-3.959887996315956">
        <ele>827.5</ele>
        <time>2003-04-17T16:34:24Z</time>
      </trkpt>
      <trkpt lat="31.379625024273992" lon="-3.960056975483894">
        <ele>828</ele>
        <time>2003-04-17T16:34:27Z</time>
      </trkpt>
      <trkpt lat="31.379441963508725" lon="-3.960208017379046">
        <ele>827.60000000000002</ele>
        <time>2003-04-17T16:34:28Z</time>
      </trkpt>
      <trkpt lat="31.378929996863008" lon="-3.960659969598055">
        <ele>826.89999999999998</ele>
        <time>2003-04-17T16:34:35Z</time>
      </trkpt>
      <trkpt lat="31.378878029063344" lon="-3.960834983736277">
        <ele>826.70000000000005</ele>
        <time>2003-04-17T16:34:36Z</time>
      </trkpt>
      <trkpt lat="31.378860007971525" lon="-3.960982002317905">
        <ele>826</ele>
        <time>2003-04-17T16:34:39Z</time>
      </trkpt>
      <trkpt lat="31.378839975222945" lon="-3.961115023121238">
        <ele>825.89999999999998</ele>
        <time>2003-04-17T16:34:42Z</time>
      </trkpt>
      <trkpt lat="31.378812985494733" lon="-3.961315015330911">
        <ele>827</ele>
        <time>2003-04-17T16:34:44Z</time>
      </trkpt>
      <trkpt lat="31.378756994381547" lon="-3.96157200448215">
        <ele>826.79999999999995</ele>
        <time>2003-04-17T16:34:47Z</time>
      </trkpt>
      <trkpt lat="31.378699997439981" lon="-3.9617870002985">
        <ele>826.5</ele>
        <time>2003-04-17T16:34:50Z</time>
      </trkpt>
      <trkpt lat="31.378597989678383" lon="-3.962152032181621">
        <ele>826.5</ele>
        <time>2003-04-17T16:34:53Z</time>
      </trkpt>
      <trkpt lat="31.378260031342506" lon="-3.963245032355189">
        <ele>825.39999999999998</ele>
        <time>2003-04-17T16:35:01Z</time>
      </trkpt>
      <trkpt lat="31.377970017492771" lon="-3.964045001193881">
        <ele>824.89999999999998</ele>
        <time>2003-04-17T16:35:06Z</time>
      </trkpt>
      <trkpt lat="31.377508006989956" lon="-3.965002968907356">
        <ele>822.5</ele>
        <time>2003-04-17T16:35:14Z</time>
      </trkpt>
      <trkpt lat="31.377459978684783" lon="-3.965132972225547">
        <ele>822.20000000000005</ele>
        <time>2003-04-17T16:35:15Z</time>
      </trkpt>
      <trkpt lat="31.377340033650398" lon="-3.965391973033547">
        <ele>821.70000000000005</ele>
        <time>2003-04-17T16:35:18Z</time>
      </trkpt>
      <trkpt lat="31.37687299400568" lon="-3.966401992365718">
        <ele>821.60000000000002</ele>
        <time>2003-04-17T16:35:25Z</time>
      </trkpt>
      <trkpt lat="31.376507040113211" lon="-3.967417040839791">
        <ele>820.29999999999995</ele>
        <time>2003-04-17T16:35:32Z</time>
      </trkpt>
      <trkpt lat="31.376264970749617" lon="-3.968126988038421">
        <ele>820</ele>
        <time>2003-04-17T16:35:37Z</time>
      </trkpt>
      <trkpt lat="31.376209985464811" lon="-3.968286998569965">
        <ele>819.5</ele>
        <time>2003-04-17T16:35:38Z</time>
      </trkpt>
      <trkpt lat="31.376058021560311" lon="-3.968586986884475">
        <ele>820</ele>
        <time>2003-04-17T16:35:41Z</time>
      </trkpt>
      <trkpt lat="31.375909997150302" lon="-3.968965010717511">
        <ele>819.79999999999995</ele>
        <time>2003-04-17T16:35:45Z</time>
      </trkpt>
      <trkpt lat="31.375800026580691" lon="-3.969352003186941">
        <ele>819.5</ele>
        <time>2003-04-17T16:35:48Z</time>
      </trkpt>
      <trkpt lat="31.375659964978695" lon="-3.969966983422637">
        <ele>819.29999999999995</ele>
        <time>2003-04-17T16:35:52Z</time>
      </trkpt>
      <trkpt lat="31.375334998592734" lon="-3.971014972776175">
        <ele>818.79999999999995</ele>
        <time>2003-04-17T16:36:01Z</time>
      </trkpt>
      <trkpt lat="31.375150009989738" lon="-3.971570022404194">
        <ele>817.39999999999998</ele>
        <time>2003-04-17T16:36:07Z</time>
      </trkpt>
      <trkpt lat="31.374733010306954" lon="-3.972505023702979">
        <ele>816.29999999999995</ele>
        <time>2003-04-17T16:36:15Z</time>
      </trkpt>
      <trkpt lat="31.374672995880246" lon="-3.972762012854219">
        <ele>817.10000000000002</ele>
        <time>2003-04-17T16:36:18Z</time>
      </trkpt>
      <trkpt lat="31.374609963968396" lon="-3.972990000620484">
        <ele>816.70000000000005</ele>
        <time>2003-04-17T16:36:19Z</time>
      </trkpt>
      <trkpt lat="31.37450804002583" lon="-3.973207008093596">
        <ele>815.20000000000005</ele>
        <time>2003-04-17T16:36:22Z</time>
      </trkpt>
      <trkpt lat="31.37442204169929" lon="-3.9734329842031">
        <ele>816.5</ele>
        <time>2003-04-17T16:36:23Z</time>
      </trkpt>
      <trkpt lat="31.374105038121343" lon="-3.974478039890528">
        <ele>815.5</ele>
        <time>2003-04-17T16:36:32Z</time>
      </trkpt>
      <trkpt lat="31.373898005113006" lon="-3.975087990984321">
        <ele>815.20000000000005</ele>
        <time>2003-04-17T16:36:38Z</time>
      </trkpt>
      <trkpt lat="31.373832039535046" lon="-3.975182035937905">
        <ele>815.79999999999995</ele>
        <time>2003-04-17T16:36:39Z</time>
      </trkpt>
      <trkpt lat="31.373717039823532" lon="-3.975355038419366">
        <ele>815.20000000000005</ele>
        <time>2003-04-17T16:36:41Z</time>
      </trkpt>
      <trkpt lat="31.373689966276288" lon="-3.975499961525202">
        <ele>815.39999999999998</ele>
        <time>2003-04-17T16:36:43Z</time>
      </trkpt>
      <trkpt lat="31.373610002920032" lon="-3.975616972893477">
        <ele>815.5</ele>
        <time>2003-04-17T16:36:45Z</time>
      </trkpt>
      <trkpt lat="31.373472958803177" lon="-3.975706994533539">
        <ele>814.89999999999998</ele>
        <time>2003-04-17T16:36:46Z</time>
      </trkpt>
      <trkpt lat="31.37332702986896" lon="-3.975831968709827">
        <ele>814.70000000000005</ele>
        <time>2003-04-17T16:36:49Z</time>
      </trkpt>
      <trkpt lat="31.373257040977478" lon="-3.975917967036367">
        <ele>814.89999999999998</ele>
        <time>2003-04-17T16:36:50Z</time>
      </trkpt>
      <trkpt lat="31.373146986588836" lon="-3.976117959246039">
        <ele>814.5</ele>
        <time>2003-04-17T16:36:51Z</time>
      </trkpt>
      <trkpt lat="31.373129971325397" lon="-3.976234970614314">
        <ele>815</ele>
        <time>2003-04-17T16:36:53Z</time>
      </trkpt>
      <trkpt lat="31.37304799631238" lon="-3.976884987205267">
        <ele>815.79999999999995</ele>
        <time>2003-04-17T16:36:58Z</time>
      </trkpt>
      <trkpt lat="31.372965015470982" lon="-3.97753500379622">
        <ele>815.39999999999998</ele>
        <time>2003-04-17T16:37:02Z</time>
      </trkpt>
      <trkpt lat="31.373008014634252" lon="-3.977814959362149">
        <ele>815.39999999999998</ele>
        <time>2003-04-17T16:37:05Z</time>
      </trkpt>
      <trkpt lat="31.373042967170477" lon="-3.978088041767478">
        <ele>815.89999999999998</ele>
        <time>2003-04-17T16:37:06Z</time>
      </trkpt>
      <trkpt lat="31.372997034341097" lon="-3.978893039748073">
        <ele>817.5</ele>
        <time>2003-04-17T16:37:13Z</time>
      </trkpt>
      <trkpt lat="31.372908018529415" lon="-3.97925203666091">
        <ele>817.89999999999998</ele>
        <time>2003-04-17T16:37:16Z</time>
      </trkpt>
      <trkpt lat="31.372593026608229" lon="-3.980249986052513">
        <ele>816.79999999999995</ele>
        <time>2003-04-17T16:37:24Z</time>
      </trkpt>
      <trkpt lat="31.372488001361489" lon="-3.980477973818779">
        <ele>816.89999999999998</ele>
        <time>2003-04-17T16:37:25Z</time>
      </trkpt>
      <trkpt lat="31.372307036072016" lon="-3.980839988216758">
        <ele>816.89999999999998</ele>
        <time>2003-04-17T16:37:29Z</time>
      </trkpt>
      <trkpt lat="31.372118024155498" lon="-3.981472989544272">
        <ele>816.29999999999995</ele>
        <time>2003-04-17T16:37:33Z</time>
      </trkpt>
      <trkpt lat="31.371917026117444" lon="-3.982515027746558">
        <ele>817.20000000000005</ele>
        <time>2003-04-17T16:37:41Z</time>
      </trkpt>
      <trkpt lat="31.371712004765868" lon="-3.983639962971211">
        <ele>817.79999999999995</ele>
        <time>2003-04-17T16:37:49Z</time>
      </trkpt>
      <trkpt lat="31.371521987020969" lon="-3.98473204113543">
        <ele>818.5</ele>
        <time>2003-04-17T16:37:57Z</time>
      </trkpt>
      <trkpt lat="31.371385026723146" lon="-3.985724961385131">
        <ele>818.89999999999998</ele>
        <time>2003-04-17T16:38:06Z</time>
      </trkpt>
      <trkpt lat="31.371391983702779" lon="-3.986253021284938">
        <ele>819.60000000000002</ele>
        <time>2003-04-17T16:38:10Z</time>
      </trkpt>
      <trkpt lat="31.371361976489425" lon="-3.986657029017806">
        <ele>819.89999999999998</ele>
        <time>2003-04-17T16:38:12Z</time>
      </trkpt>
      <trkpt lat="31.371336998417974" lon="-3.987058019265533">
        <ele>819.10000000000002</ele>
        <time>2003-04-17T16:38:15Z</time>
      </trkpt>
      <trkpt lat="31.371319983154535" lon="-3.987594963982701">
        <ele>820.29999999999995</ele>
        <time>2003-04-17T16:38:19Z</time>
      </trkpt>
      <trkpt lat="31.371307997033" lon="-3.987892018631101">
        <ele>819.89999999999998</ele>
        <time>2003-04-17T16:38:22Z</time>
      </trkpt>
      <trkpt lat="31.371291987597942" lon="-3.988207010552287">
        <ele>819.5</ele>
        <time>2003-04-17T16:38:23Z</time>
      </trkpt>
      <trkpt lat="31.371114961802959" lon="-3.989267991855741">
        <ele>819.5</ele>
        <time>2003-04-17T16:38:31Z</time>
      </trkpt>
      <trkpt lat="31.37107296846807" lon="-3.989407969638705">
        <ele>819.70000000000005</ele>
        <time>2003-04-17T16:38:31Z</time>
      </trkpt>
      <trkpt lat="31.370816985145211" lon="-3.990392005071044">
        <ele>820.60000000000002</ele>
        <time>2003-04-17T16:38:38Z</time>
      </trkpt>
      <trkpt lat="31.370757976546884" lon="-3.991209995001555">
        <ele>820.20000000000005</ele>
        <time>2003-04-17T16:38:45Z</time>
      </trkpt>
      <trkpt lat="31.370753031224012" lon="-3.991337986662984">
        <ele>819.79999999999995</ele>
        <time>2003-04-17T16:38:46Z</time>
      </trkpt>
      <trkpt lat="31.370768034830689" lon="-3.991473019123077">
        <ele>819.5</ele>
        <time>2003-04-17T16:38:46Z</time>
      </trkpt>
      <trkpt lat="31.37079200707376" lon="-3.991847019642592">
        <ele>818.70000000000005</ele>
        <time>2003-04-17T16:38:50Z</time>
      </trkpt>
      <trkpt lat="31.370789995416999" lon="-3.992362003773451">
        <ele>818.79999999999995</ele>
        <time>2003-04-17T16:38:54Z</time>
      </trkpt>
      <trkpt lat="31.370901977643371" lon="-3.99300497956574">
        <ele>819.89999999999998</ele>
        <time>2003-04-17T16:38:58Z</time>
      </trkpt>
      <trkpt lat="31.370923016220331" lon="-3.993228022009134">
        <ele>818.79999999999995</ele>
        <time>2003-04-17T16:39:01Z</time>
      </trkpt>
      <trkpt lat="31.370929973199964" lon="-3.994109965860844">
        <ele>819.10000000000002</ele>
        <time>2003-04-17T16:39:08Z</time>
      </trkpt>
      <trkpt lat="31.371091995388269" lon="-3.995176982134581">
        <ele>818.70000000000005</ele>
        <time>2003-04-17T16:39:14Z</time>
      </trkpt>
      <trkpt lat="31.371170030906796" lon="-3.995398012921214">
        <ele>818.70000000000005</ele>
        <time>2003-04-17T16:39:17Z</time>
      </trkpt>
      <trkpt lat="31.371192997321486" lon="-3.99558300152421">
        <ele>818.29999999999995</ele>
        <time>2003-04-17T16:39:18Z</time>
      </trkpt>
      <trkpt lat="31.371155027300119" lon="-3.995762960985303">
        <ele>818.29999999999995</ele>
        <time>2003-04-17T16:39:21Z</time>
      </trkpt>
      <trkpt lat="31.371137006208301" lon="-3.995943004265428">
        <ele>818.10000000000002</ele>
        <time>2003-04-17T16:39:23Z</time>
      </trkpt>
      <trkpt lat="31.371143041178584" lon="-3.996235029771924">
        <ele>818</ele>
        <time>2003-04-17T16:39:25Z</time>
      </trkpt>
      <trkpt lat="31.371132982894778" lon="-3.996447008103132">
        <ele>818.20000000000005</ele>
        <time>2003-04-17T16:39:28Z</time>
      </trkpt>
      <trkpt lat="31.370989987626672" lon="-3.997080009430647">
        <ele>818.29999999999995</ele>
        <time>2003-04-17T16:39:33Z</time>
      </trkpt>
      <trkpt lat="31.37085503898561" lon="-3.997585019096732">
        <ele>817.89999999999998</ele>
        <time>2003-04-17T16:39:37Z</time>
      </trkpt>
      <trkpt lat="31.370692010968924" lon="-3.998172003775835">
        <ele>817.60000000000002</ele>
        <time>2003-04-17T16:39:43Z</time>
      </trkpt>
      <trkpt lat="31.370422029867768" lon="-3.999001979827881">
        <ele>816.89999999999998</ele>
        <time>2003-04-17T16:39:51Z</time>
      </trkpt>
      <trkpt lat="31.370393028482795" lon="-3.999223010614514">
        <ele>816.70000000000005</ele>
        <time>2003-04-17T16:39:52Z</time>
      </trkpt>
      <trkpt lat="31.370345000177622" lon="-3.999649984762073">
        <ele>815.89999999999998</ele>
        <time>2003-04-17T16:39:56Z</time>
      </trkpt>
      <trkpt lat="31.370286997407675" lon="-3.99973195977509">
        <ele>815.70000000000005</ele>
        <time>2003-04-17T16:39:58Z</time>
      </trkpt>
      <trkpt lat="31.370205022394657" lon="-3.999797003343701">
        <ele>816.10000000000002</ele>
        <time>2003-04-17T16:39:59Z</time>
      </trkpt>
      <trkpt lat="31.370115000754595" lon="-3.999842014163733">
        <ele>816</ele>
        <time>2003-04-17T16:39:59Z</time>
      </trkpt>
      <trkpt lat="31.369964964687824" lon="-3.999947961419821">
        <ele>816.60000000000002</ele>
        <time>2003-04-17T16:40:02Z</time>
      </trkpt>
      <trkpt lat="31.369134988635778" lon="-4.000581968575716">
        <ele>814.5</ele>
        <time>2003-04-17T16:40:11Z</time>
      </trkpt>
      <trkpt lat="31.368940025568008" lon="-4.000708032399416">
        <ele>814.10000000000002</ele>
        <time>2003-04-17T16:40:14Z</time>
      </trkpt>
      <trkpt lat="31.368740033358335" lon="-4.000762011855841">
        <ele>813.89999999999998</ele>
        <time>2003-04-17T16:40:15Z</time>
      </trkpt>
      <trkpt lat="31.368533000349998" lon="-4.000816997140646">
        <ele>813.79999999999995</ele>
        <time>2003-04-17T16:40:18Z</time>
      </trkpt>
      <trkpt lat="31.368332002311945" lon="-4.000939959660173">
        <ele>813.5</ele>
        <time>2003-04-17T16:40:19Z</time>
      </trkpt>
      <trkpt lat="31.367543013766408" lon="-4.001500038430095">
        <ele>812.39999999999998</ele>
        <time>2003-04-17T16:40:27Z</time>
      </trkpt>
      <trkpt lat="31.367297004908323" lon="-4.001687960699201">
        <ele>811.89999999999998</ele>
        <time>2003-04-17T16:40:30Z</time>
      </trkpt>
      <trkpt lat="31.367231961339712" lon="-4.001772031188011">
        <ele>811.79999999999995</ele>
        <time>2003-04-17T16:40:31Z</time>
      </trkpt>
      <trkpt lat="31.367130037397146" lon="-4.001975040882826">
        <ele>811.79999999999995</ele>
        <time>2003-04-17T16:40:34Z</time>
      </trkpt>
      <trkpt lat="31.367102963849902" lon="-4.002092974260449">
        <ele>811.70000000000005</ele>
        <time>2003-04-17T16:40:34Z</time>
      </trkpt>
      <trkpt lat="31.367058036848903" lon="-4.002196993678808">
        <ele>811.79999999999995</ele>
        <time>2003-04-17T16:40:35Z</time>
      </trkpt>
      <trkpt lat="31.366676995530725" lon="-4.002926973626018">
        <ele>811.20000000000005</ele>
        <time>2003-04-17T16:40:42Z</time>
      </trkpt>
      <trkpt lat="31.366247003898025" lon="-4.003574978560209">
        <ele>810.79999999999995</ele>
        <time>2003-04-17T16:40:49Z</time>
      </trkpt>
      <trkpt lat="31.36608799919486" lon="-4.003716967999935">
        <ele>810.10000000000002</ele>
        <time>2003-04-17T16:40:52Z</time>
      </trkpt>
      <trkpt lat="31.365956990048289" lon="-4.003830039873719">
        <ele>809.89999999999998</ele>
        <time>2003-04-17T16:40:53Z</time>
      </trkpt>
      <trkpt lat="31.36585297062993" lon="-4.003925006836653">
        <ele>809.89999999999998</ele>
        <time>2003-04-17T16:40:56Z</time>
      </trkpt>
      <trkpt lat="31.365741994231939" lon="-4.003991978242993">
        <ele>810.20000000000005</ele>
        <time>2003-04-17T16:40:57Z</time>
      </trkpt>
      <trkpt lat="31.365643003955483" lon="-4.004031959921122">
        <ele>811.29999999999995</ele>
        <time>2003-04-17T16:42:37Z</time>
      </trkpt>
      <trkpt lat="31.365533033385873" lon="-4.004081999883056">
        <ele>811.20000000000005</ele>
        <time>2003-04-17T16:42:38Z</time>
      </trkpt>
      <trkpt lat="31.365388026461005" lon="-4.004147965461016">
        <ele>811.20000000000005</ele>
        <time>2003-04-17T16:42:41Z</time>
      </trkpt>
      <trkpt lat="31.365025006234646" lon="-4.00434996932745">
        <ele>811.20000000000005</ele>
        <time>2003-04-17T16:42:46Z</time>
      </trkpt>
      <trkpt lat="31.364513039588928" lon="-4.004730004817247">
        <ele>811.10000000000002</ele>
        <time>2003-04-17T16:42:54Z</time>
      </trkpt>
      <trkpt lat="31.364272981882095" lon="-4.004986993968487">
        <ele>810.5</ele>
        <time>2003-04-17T16:42:59Z</time>
      </trkpt>
      <trkpt lat="31.364168040454388" lon="-4.005148010328412">
        <ele>810.60000000000002</ele>
        <time>2003-04-17T16:43:01Z</time>
      </trkpt>
      <trkpt lat="31.364082964137197" lon="-4.005338028073311">
        <ele>810.20000000000005</ele>
        <time>2003-04-17T16:43:03Z</time>
      </trkpt>
      <trkpt lat="31.363856988027692" lon="-4.006125004962087">
        <ele>809.29999999999995</ele>
        <time>2003-04-17T16:43:09Z</time>
      </trkpt>
      <trkpt lat="31.363533027470112" lon="-4.007138041779399">
        <ele>808.39999999999998</ele>
        <time>2003-04-17T16:43:17Z</time>
      </trkpt>
      <trkpt lat="31.363351978361607" lon="-4.007537020370364">
        <ele>808.29999999999995</ele>
        <time>2003-04-17T16:43:20Z</time>
      </trkpt>
      <trkpt lat="31.363028017804027" lon="-4.008272029459477">
        <ele>808.29999999999995</ele>
        <time>2003-04-17T16:43:27Z</time>
      </trkpt>
      <trkpt lat="31.362715037539601" lon="-4.009339967742562">
        <ele>807.89999999999998</ele>
        <time>2003-04-17T16:43:35Z</time>
      </trkpt>
      <trkpt lat="31.362365009263158" lon="-4.010400027036667">
        <ele>806.89999999999998</ele>
        <time>2003-04-17T16:43:42Z</time>
      </trkpt>
      <trkpt lat="31.362122017890215" lon="-4.010990029200912">
        <ele>806.89999999999998</ele>
        <time>2003-04-17T16:43:46Z</time>
      </trkpt>
      <trkpt lat="31.361817000433803" lon="-4.011529991403222">
        <ele>805.60000000000002</ele>
        <time>2003-04-17T16:43:50Z</time>
      </trkpt>
      <trkpt lat="31.361718010157347" lon="-4.01163199916482">
        <ele>805.29999999999995</ele>
        <time>2003-04-17T16:43:51Z</time>
      </trkpt>
      <trkpt lat="31.361450040712953" lon="-4.011940034106374">
        <ele>804.79999999999995</ele>
        <time>2003-04-17T16:43:54Z</time>
      </trkpt>
      <trkpt lat="31.361243007704616" lon="-4.012283021584153">
        <ele>804.60000000000002</ele>
        <time>2003-04-17T16:43:57Z</time>
      </trkpt>
      <trkpt lat="31.361090037971735" lon="-4.012502040714026">
        <ele>804.5</ele>
        <time>2003-04-17T16:43:58Z</time>
      </trkpt>
      <trkpt lat="31.360604977235198" lon="-4.013217017054558">
        <ele>804.20000000000005</ele>
        <time>2003-04-17T16:44:05Z</time>
      </trkpt>
      <trkpt lat="31.360104996711016" lon="-4.014161992818117">
        <ele>804</ele>
        <time>2003-04-17T16:44:11Z</time>
      </trkpt>
      <trkpt lat="31.359537960961461" lon="-4.015003032982349">
        <ele>803.79999999999995</ele>
        <time>2003-04-17T16:44:18Z</time>
      </trkpt>
      <trkpt lat="31.35934199206531" lon="-4.01543696410954">
        <ele>803.5</ele>
        <time>2003-04-17T16:44:22Z</time>
      </trkpt>
      <trkpt lat="31.359173012897372" lon="-4.01597298681736">
        <ele>803.20000000000005</ele>
        <time>2003-04-17T16:44:25Z</time>
      </trkpt>
      <trkpt lat="31.359145017340779" lon="-4.016117993742228">
        <ele>803</ele>
        <time>2003-04-17T16:44:28Z</time>
      </trkpt>
      <trkpt lat="31.35912699624896" lon="-4.016317985951901">
        <ele>803.10000000000002</ele>
        <time>2003-04-17T16:44:29Z</time>
      </trkpt>
      <trkpt lat="31.359111992642283" lon="-4.016691986471415">
        <ele>803.89999999999998</ele>
        <time>2003-04-17T16:44:33Z</time>
      </trkpt>
      <trkpt lat="31.359045021235943" lon="-4.017660012468696">
        <ele>803.60000000000002</ele>
        <time>2003-04-17T16:44:40Z</time>
      </trkpt>
      <trkpt lat="31.359052984043956" lon="-4.018090004101396">
        <ele>803.39999999999998</ele>
        <time>2003-04-17T16:44:42Z</time>
      </trkpt>
      <trkpt lat="31.359032029286027" lon="-4.018582021817565">
        <ele>802.10000000000002</ele>
        <time>2003-04-17T16:44:47Z</time>
      </trkpt>
      <trkpt lat="31.359043009579182" lon="-4.018782014027238">
        <ele>801.39999999999998</ele>
        <time>2003-04-17T16:44:49Z</time>
      </trkpt>
      <trkpt lat="31.359077040106058" lon="-4.019219968467951">
        <ele>802.39999999999998</ele>
        <time>2003-04-17T16:44:52Z</time>
      </trkpt>
      <trkpt lat="31.359036974608898" lon="-4.01934796012938">
        <ele>802.29999999999995</ele>
        <time>2003-04-17T16:44:53Z</time>
      </trkpt>
      <trkpt lat="31.358927004039288" lon="-4.019835032522678">
        <ele>802.29999999999995</ele>
        <time>2003-04-17T16:44:57Z</time>
      </trkpt>
      <trkpt lat="31.358909988775849" lon="-4.020108031108975">
        <ele>802.39999999999998</ele>
        <time>2003-04-17T16:45:00Z</time>
      </trkpt>
      <trkpt lat="31.358875036239624" lon="-4.020689986646175">
        <ele>802.89999999999998</ele>
        <time>2003-04-17T16:45:04Z</time>
      </trkpt>
      <trkpt lat="31.358777973800898" lon="-4.02112802490592">
        <ele>802.20000000000005</ele>
        <time>2003-04-17T16:45:07Z</time>
      </trkpt>
      <trkpt lat="31.358561972156167" lon="-4.021775024011731">
        <ele>801.60000000000002</ele>
        <time>2003-04-17T16:45:12Z</time>
      </trkpt>
      <trkpt lat="31.358491983264685" lon="-4.022037964314222">
        <ele>801.79999999999995</ele>
        <time>2003-04-17T16:45:14Z</time>
      </trkpt>
      <trkpt lat="31.358497012406588" lon="-4.022177020087838">
        <ele>802.5</ele>
        <time>2003-04-17T16:45:15Z</time>
      </trkpt>
      <trkpt lat="31.358487959951162" lon="-4.022452030330896">
        <ele>802</ele>
        <time>2003-04-17T16:45:16Z</time>
      </trkpt>
      <trkpt lat="31.358452001586556" lon="-4.022582033649087">
        <ele>802.20000000000005</ele>
        <time>2003-04-17T16:45:18Z</time>
      </trkpt>
      <trkpt lat="31.35820297524333" lon="-4.023566991090775">
        <ele>800.89999999999998</ele>
        <time>2003-04-17T16:45:26Z</time>
      </trkpt>
      <trkpt lat="31.358219990506768" lon="-4.023676961660385">
        <ele>801.89999999999998</ele>
        <time>2003-04-17T16:45:27Z</time>
      </trkpt>
      <trkpt lat="31.358253015205264" lon="-4.023845018818975">
        <ele>801.29999999999995</ele>
        <time>2003-04-17T16:45:28Z</time>
      </trkpt>
      <trkpt lat="31.358261983841658" lon="-4.02403000742197">
        <ele>800.29999999999995</ele>
        <time>2003-04-17T16:45:31Z</time>
      </trkpt>
      <trkpt lat="31.358268018811941" lon="-4.024362014606595">
        <ele>801.5</ele>
        <time>2003-04-17T16:45:34Z</time>
      </trkpt>
      <trkpt lat="31.358323004096746" lon="-4.025059975683689">
        <ele>801.10000000000002</ele>
        <time>2003-04-17T16:45:39Z</time>
      </trkpt>
      <trkpt lat="31.358421994373202" lon="-4.025206994265318">
        <ele>801.70000000000005</ele>
        <time>2003-04-17T16:45:42Z</time>
      </trkpt>
      <trkpt lat="31.358482008799911" lon="-4.025344960391522">
        <ele>801.79999999999995</ele>
        <time>2003-04-17T16:45:43Z</time>
      </trkpt>
      <trkpt lat="31.358516961336136" lon="-4.025500025600195">
        <ele>801.29999999999995</ele>
        <time>2003-04-17T16:45:46Z</time>
      </trkpt>
      <trkpt lat="31.358507992699742" lon="-4.025675039738417">
        <ele>802.10000000000002</ele>
        <time>2003-04-17T16:45:47Z</time>
      </trkpt>
      <trkpt lat="31.358528025448322" lon="-4.025879977270961">
        <ele>801.29999999999995</ele>
        <time>2003-04-17T16:45:50Z</time>
      </trkpt>
      <trkpt lat="31.35863296687603" lon="-4.02600503526628">
        <ele>801.60000000000002</ele>
        <time>2003-04-17T16:45:51Z</time>
      </trkpt>
      <trkpt lat="31.358736986294389" lon="-4.026120034977794">
        <ele>801.5</ele>
        <time>2003-04-17T16:45:54Z</time>
      </trkpt>
      <trkpt lat="31.358822984620929" lon="-4.026227993890643">
        <ele>801.70000000000005</ele>
        <time>2003-04-17T16:45:55Z</time>
      </trkpt>
      <trkpt lat="31.358832959085703" lon="-4.026365038007498">
        <ele>801.70000000000005</ele>
        <time>2003-04-17T16:45:58Z</time>
      </trkpt>
      <trkpt lat="31.35880496352911" lon="-4.026537034660578">
        <ele>801.60000000000002</ele>
        <time>2003-04-17T16:45:59Z</time>
      </trkpt>
      <trkpt lat="31.358736986294389" lon="-4.026725040748715">
        <ele>801.70000000000005</ele>
        <time>2003-04-17T16:46:02Z</time>
      </trkpt>
      <trkpt lat="31.358677977696061" lon="-4.026965014636517">
        <ele>801.89999999999998</ele>
        <time>2003-04-17T16:46:03Z</time>
      </trkpt>
      <trkpt lat="31.358446972444654" lon="-4.028048040345311">
        <ele>800.70000000000005</ele>
        <time>2003-04-17T16:46:13Z</time>
      </trkpt>
      <trkpt lat="31.358312023803592" lon="-4.028644999489188">
        <ele>800.20000000000005</ele>
        <time>2003-04-17T16:46:17Z</time>
      </trkpt>
      <trkpt lat="31.358144972473383" lon="-4.028974995017052">
        <ele>800</ele>
        <time>2003-04-17T16:46:21Z</time>
      </trkpt>
      <trkpt lat="31.357872979715466" lon="-4.029506994411349">
        <ele>799.29999999999995</ele>
        <time>2003-04-17T16:46:25Z</time>
      </trkpt>
      <trkpt lat="31.357682961970568" lon="-4.02993799187243">
        <ele>799.60000000000002</ele>
        <time>2003-04-17T16:46:29Z</time>
      </trkpt>
      <trkpt lat="31.357252970337868" lon="-4.030624972656369">
        <ele>798.39999999999998</ele>
        <time>2003-04-17T16:46:37Z</time>
      </trkpt>
      <trkpt lat="31.356907971203327" lon="-4.031090000644326">
        <ele>797.79999999999995</ele>
        <time>2003-04-17T16:46:40Z</time>
      </trkpt>
      <trkpt lat="31.356537993997335" lon="-4.031544970348477">
        <ele>797.70000000000005</ele>
        <time>2003-04-17T16:46:44Z</time>
      </trkpt>
      <trkpt lat="31.355927037075162" lon="-4.032391961663961">
        <ele>796.60000000000002</ele>
        <time>2003-04-17T16:46:52Z</time>
      </trkpt>
      <trkpt lat="31.355650015175343" lon="-4.032954974099994">
        <ele>796</ele>
        <time>2003-04-17T16:46:56Z</time>
      </trkpt>
      <trkpt lat="31.355611961334944" lon="-4.033108027651906">
        <ele>795.89999999999998</ele>
        <time>2003-04-17T16:46:56Z</time>
      </trkpt>
      <trkpt lat="31.355574997141957" lon="-4.033397035673261">
        <ele>796</ele>
        <time>2003-04-17T16:46:59Z</time>
      </trkpt>
      <trkpt lat="31.355456979945302" lon="-4.03457704000175">
        <ele>796</ele>
        <time>2003-04-17T16:47:07Z</time>
      </trkpt>
      <trkpt lat="31.35540802963078" lon="-4.03552302159369">
        <ele>795.5</ele>
        <time>2003-04-17T16:47:12Z</time>
      </trkpt>
      <trkpt lat="31.355448011308908" lon="-4.035812029615045">
        <ele>795.89999999999998</ele>
        <time>2003-04-17T16:47:15Z</time>
      </trkpt>
      <trkpt lat="31.355620007961988" lon="-4.036852978169918">
        <ele>794.39999999999998</ele>
        <time>2003-04-17T16:47:22Z</time>
      </trkpt>
      <trkpt lat="31.355638029053807" lon="-4.037332003936172">
        <ele>794.20000000000005</ele>
        <time>2003-04-17T16:47:24Z</time>
      </trkpt>
      <trkpt lat="31.355582037940621" lon="-4.038049997761846">
        <ele>793.29999999999995</ele>
        <time>2003-04-17T16:47:30Z</time>
      </trkpt>
      <trkpt lat="31.355487992987037" lon="-4.038555007427931">
        <ele>793.20000000000005</ele>
        <time>2003-04-17T16:47:34Z</time>
      </trkpt>
      <trkpt lat="31.35523502714932" lon="-4.039650019258261">
        <ele>792.70000000000005</ele>
        <time>2003-04-17T16:47:42Z</time>
      </trkpt>
      <trkpt lat="31.354949958622456" lon="-4.040685016661882">
        <ele>792.5</ele>
        <time>2003-04-17T16:47:49Z</time>
      </trkpt>
      <trkpt lat="31.354594985023141" lon="-4.04173300601542">
        <ele>791.60000000000002</ele>
        <time>2003-04-17T16:47:56Z</time>
      </trkpt>
      <trkpt lat="31.354242023080587" lon="-4.042755011469126">
        <ele>791.10000000000002</ele>
        <time>2003-04-17T16:48:02Z</time>
      </trkpt>
      <trkpt lat="31.354173040017486" lon="-4.043122977018356">
        <ele>790.5</ele>
        <time>2003-04-17T16:48:05Z</time>
      </trkpt>
      <trkpt lat="31.354179996997118" lon="-4.043236970901489">
        <ele>790.70000000000005</ele>
        <time>2003-04-17T16:48:06Z</time>
      </trkpt>
      <trkpt lat="31.354212015867233" lon="-4.043439980596304">
        <ele>790</ele>
        <time>2003-04-17T16:48:09Z</time>
      </trkpt>
      <trkpt lat="31.354247974231839" lon="-4.043552968651056">
        <ele>790.70000000000005</ele>
        <time>2003-04-17T16:48:09Z</time>
      </trkpt>
      <trkpt lat="31.354337995871902" lon="-4.044005004689097">
        <ele>789.89999999999998</ele>
        <time>2003-04-17T16:48:13Z</time>
      </trkpt>
      <trkpt lat="31.354347970336676" lon="-4.044240033254027">
        <ele>790.29999999999995</ele>
        <time>2003-04-17T16:48:16Z</time>
      </trkpt>
      <trkpt lat="31.35435501113534" lon="-4.044807991012931">
        <ele>789.89999999999998</ele>
        <time>2003-04-17T16:48:21Z</time>
      </trkpt>
      <trkpt lat="31.354374960064888" lon="-4.045200012624264">
        <ele>789.79999999999995</ele>
        <time>2003-04-17T16:48:24Z</time>
      </trkpt>
      <trkpt lat="31.35433497838676" lon="-4.046317990869284">
        <ele>789.70000000000005</ele>
        <time>2003-04-17T16:48:32Z</time>
      </trkpt>
      <trkpt lat="31.354247974231839" lon="-4.047130029648542">
        <ele>789.10000000000002</ele>
        <time>2003-04-17T16:48:37Z</time>
      </trkpt>
      <trkpt lat="31.354216961190104" lon="-4.047712991014123">
        <ele>789.10000000000002</ele>
        <time>2003-04-17T16:48:41Z</time>
      </trkpt>
      <trkpt lat="31.354143032804132" lon="-4.048459986224771">
        <ele>789</ele>
        <time>2003-04-17T16:48:47Z</time>
      </trkpt>
      <trkpt lat="31.354116965085268" lon="-4.048734996467829">
        <ele>788.89999999999998</ele>
        <time>2003-04-17T16:48:48Z</time>
      </trkpt>
      <trkpt lat="31.354087041690946" lon="-4.049097010865808">
        <ele>788.60000000000002</ele>
        <time>2003-04-17T16:48:52Z</time>
      </trkpt>
      <trkpt lat="31.354087041690946" lon="-4.049442010000348">
        <ele>788.29999999999995</ele>
        <time>2003-04-17T16:48:55Z</time>
      </trkpt>
      <trkpt lat="31.35407698340714" lon="-4.049691958352923">
        <ele>788.29999999999995</ele>
        <time>2003-04-17T16:48:56Z</time>
      </trkpt>
      <trkpt lat="31.354017974808812" lon="-4.050293024629355">
        <ele>788.20000000000005</ele>
        <time>2003-04-17T16:49:02Z</time>
      </trkpt>
      <trkpt lat="31.353998025879264" lon="-4.050608016550541">
        <ele>787.89999999999998</ele>
        <time>2003-04-17T16:49:04Z</time>
      </trkpt>
      <trkpt lat="31.353970030322671" lon="-4.050772972404957">
        <ele>787.89999999999998</ele>
        <time>2003-04-17T16:49:07Z</time>
      </trkpt>
      <trkpt lat="31.353957960382104" lon="-4.05088503845036">
        <ele>787.70000000000005</ele>
        <time>2003-04-17T16:49:08Z</time>
      </trkpt>
      <trkpt lat="31.353959972038865" lon="-4.051032979041338">
        <ele>789.5</ele>
        <time>2003-04-17T16:51:09Z</time>
      </trkpt>
      <trkpt lat="31.3539719581604" lon="-4.051240012049675">
        <ele>789.20000000000005</ele>
        <time>2003-04-17T16:51:11Z</time>
      </trkpt>
      <trkpt lat="31.353982016444206" lon="-4.051432041451335">
        <ele>788.89999999999998</ele>
        <time>2003-04-17T16:51:14Z</time>
      </trkpt>
      <trkpt lat="31.353976987302303" lon="-4.051624992862344">
        <ele>788.60000000000002</ele>
        <time>2003-04-17T16:51:15Z</time>
      </trkpt>
      <trkpt lat="31.35390498675406" lon="-4.052133020013571">
        <ele>788.20000000000005</ele>
        <time>2003-04-17T16:51:21Z</time>
      </trkpt>
      <trkpt lat="31.353816976770759" lon="-4.052395038306713">
        <ele>788.20000000000005</ele>
        <time>2003-04-17T16:51:23Z</time>
      </trkpt>
      <trkpt lat="31.353707006201148" lon="-4.052769960835576">
        <ele>787.70000000000005</ele>
        <time>2003-04-17T16:51:27Z</time>
      </trkpt>
      <trkpt lat="31.353683033958077" lon="-4.052955033257604">
        <ele>787.5</ele>
        <time>2003-04-17T16:51:30Z</time>
      </trkpt>
      <trkpt lat="31.353671969845891" lon="-4.053661962971091">
        <ele>787.10000000000002</ele>
        <time>2003-04-17T16:51:37Z</time>
      </trkpt>
      <trkpt lat="31.353680016472936" lon="-4.053951976820827">
        <ele>786.89999999999998</ele>
        <time>2003-04-17T16:51:41Z</time>
      </trkpt>
      <trkpt lat="31.35364799760282" lon="-4.054739959537983">
        <ele>786.29999999999995</ele>
        <time>2003-04-17T16:51:48Z</time>
      </trkpt>
      <trkpt lat="31.35366702452302" lon="-4.055107003077865">
        <ele>785.60000000000002</ele>
        <time>2003-04-17T16:51:50Z</time>
      </trkpt>
      <trkpt lat="31.353659983724356" lon="-4.055452002212405">
        <ele>785.10000000000002</ele>
        <time>2003-04-17T16:51:53Z</time>
      </trkpt>
      <trkpt lat="31.353556970134377" lon="-4.056326989084482">
        <ele>784.79999999999995</ele>
        <time>2003-04-17T16:52:01Z</time>
      </trkpt>
      <trkpt lat="31.353601980954409" lon="-4.056929983198643">
        <ele>784.29999999999995</ele>
        <time>2003-04-17T16:52:05Z</time>
      </trkpt>
      <trkpt lat="31.353655038401484" lon="-4.057256961241365">
        <ele>784.20000000000005</ele>
        <time>2003-04-17T16:52:08Z</time>
      </trkpt>
      <trkpt lat="31.353638023138046" lon="-4.057476986199617">
        <ele>784.89999999999998</ele>
        <time>2003-04-17T16:52:11Z</time>
      </trkpt>
      <trkpt lat="31.353592006489635" lon="-4.058081991970539">
        <ele>784.5</ele>
        <time>2003-04-17T16:52:16Z</time>
      </trkpt>
      <trkpt lat="31.353612961247563" lon="-4.058187017217279">
        <ele>784.29999999999995</ele>
        <time>2003-04-17T16:52:16Z</time>
      </trkpt>
      <trkpt lat="31.353672975674272" lon="-4.058354990556836">
        <ele>784.29999999999995</ele>
        <time>2003-04-17T16:52:19Z</time>
      </trkpt>
      <trkpt lat="31.35375696234405" lon="-4.058630000799894">
        <ele>784.10000000000002</ele>
        <time>2003-04-17T16:52:21Z</time>
      </trkpt>
      <trkpt lat="31.353761991485953" lon="-4.058739971369505">
        <ele>784.39999999999998</ele>
        <time>2003-04-17T16:52:23Z</time>
      </trkpt>
      <trkpt lat="31.353786969557405" lon="-4.059701962396503">
        <ele>783.79999999999995</ele>
        <time>2003-04-17T16:52:31Z</time>
      </trkpt>
      <trkpt lat="31.35373299010098" lon="-4.059922993183136">
        <ele>783.5</ele>
        <time>2003-04-17T16:52:34Z</time>
      </trkpt>
      <trkpt lat="31.353595023974776" lon="-4.060603016987443">
        <ele>783.70000000000005</ele>
        <time>2003-04-17T16:52:39Z</time>
      </trkpt>
      <trkpt lat="31.353532997891307" lon="-4.06169299967587">
        <ele>783.5</ele>
        <time>2003-04-17T16:52:48Z</time>
      </trkpt>
      <trkpt lat="31.353512965142727" lon="-4.062799997627735">
        <ele>782.70000000000005</ele>
        <time>2003-04-17T16:52:57Z</time>
      </trkpt>
      <trkpt lat="31.3533900026232" lon="-4.063901966437697">
        <ele>782.29999999999995</ele>
        <time>2003-04-17T16:53:03Z</time>
      </trkpt>
      <trkpt lat="31.35315204039216" lon="-4.064975017681718">
        <ele>781.70000000000005</ele>
        <time>2003-04-17T16:53:10Z</time>
      </trkpt>
      <trkpt lat="31.352990018203855" lon="-4.065822008997202">
        <ele>781.29999999999995</ele>
        <time>2003-04-17T16:53:17Z</time>
      </trkpt>
      <trkpt lat="31.352836964651942" lon="-4.066887013614178">
        <ele>780.79999999999995</ele>
        <time>2003-04-17T16:53:25Z</time>
      </trkpt>
      <trkpt lat="31.352703021839261" lon="-4.06785998493433">
        <ele>780.89999999999998</ele>
        <time>2003-04-17T16:53:33Z</time>
      </trkpt>
      <trkpt lat="31.352533036842942" lon="-4.068943010643125">
        <ele>780.79999999999995</ele>
        <time>2003-04-17T16:53:42Z</time>
      </trkpt>
      <trkpt lat="31.352479979395866" lon="-4.069708026945591">
        <ele>780.5</ele>
        <time>2003-04-17T16:53:49Z</time>
      </trkpt>
      <trkpt lat="31.352406973019242" lon="-4.070794992148876">
        <ele>780.10000000000002</ele>
        <time>2003-04-17T16:53:56Z</time>
      </trkpt>
      <trkpt lat="31.352273030206561" lon="-4.071957981213927">
        <ele>779.5</ele>
        <time>2003-04-17T16:54:05Z</time>
      </trkpt>
      <trkpt lat="31.352127017453313" lon="-4.072773037478328">
        <ele>779.5</ele>
        <time>2003-04-17T16:54:12Z</time>
      </trkpt>
      <trkpt lat="31.351991984993219" lon="-4.073296990245581">
        <ele>779.39999999999998</ele>
        <time>2003-04-17T16:54:16Z</time>
      </trkpt>
      <trkpt lat="31.351889977231622" lon="-4.074432989582419">
        <ele>779.20000000000005</ele>
        <time>2003-04-17T16:54:23Z</time>
      </trkpt>
      <trkpt lat="31.351843038573861" lon="-4.075530013069511">
        <ele>778.60000000000002</ele>
        <time>2003-04-17T16:54:31Z</time>
      </trkpt>
      <trkpt lat="31.351806996390224" lon="-4.07632696442306">
        <ele>777.79999999999995</ele>
        <time>2003-04-17T16:54:35Z</time>
      </trkpt>
      <trkpt lat="31.351702976971865" lon="-4.07701201736927">
        <ele>777.70000000000005</ele>
        <time>2003-04-17T16:54:41Z</time>
      </trkpt>
      <trkpt lat="31.351695014163852" lon="-4.077273029834032">
        <ele>777.70000000000005</ele>
        <time>2003-04-17T16:54:43Z</time>
      </trkpt>
      <trkpt lat="31.35171202942729" lon="-4.077409990131855">
        <ele>777.60000000000002</ele>
        <time>2003-04-17T16:54:43Z</time>
      </trkpt>
      <trkpt lat="31.351753016933799" lon="-4.07754703424871">
        <ele>777.60000000000002</ele>
        <time>2003-04-17T16:54:45Z</time>
      </trkpt>
      <trkpt lat="31.351964995265007" lon="-4.078072998672724">
        <ele>777.20000000000005</ele>
        <time>2003-04-17T16:54:49Z</time>
      </trkpt>
      <trkpt lat="31.352122994139791" lon="-4.078483041375876">
        <ele>777.39999999999998</ele>
        <time>2003-04-17T16:54:51Z</time>
      </trkpt>
      <trkpt lat="31.35214202105999" lon="-4.078637016937137">
        <ele>777.70000000000005</ele>
        <time>2003-04-17T16:54:53Z</time>
      </trkpt>
      <trkpt lat="31.352237993851304" lon="-4.079404966905713">
        <ele>776.89999999999998</ele>
        <time>2003-04-17T16:54:58Z</time>
      </trkpt>
      <trkpt lat="31.352494983002543" lon="-4.080450022593141">
        <ele>776.20000000000005</ele>
        <time>2003-04-17T16:55:05Z</time>
      </trkpt>
      <trkpt lat="31.352726994082332" lon="-4.081492982804775">
        <ele>775.29999999999995</ele>
        <time>2003-04-17T16:55:12Z</time>
      </trkpt>
      <trkpt lat="31.352897984907031" lon="-4.082173006609082">
        <ele>775.60000000000002</ele>
        <time>2003-04-17T16:55:17Z</time>
      </trkpt>
      <trkpt lat="31.353012984618545" lon="-4.082418009638786">
        <ele>775.60000000000002</ele>
        <time>2003-04-17T16:55:18Z</time>
      </trkpt>
      <trkpt lat="31.353156985715032" lon="-4.082605009898543">
        <ele>775.5</ele>
        <time>2003-04-17T16:55:21Z</time>
      </trkpt>
      <trkpt lat="31.353297969326377" lon="-4.082720009610057">
        <ele>775.39999999999998</ele>
        <time>2003-04-17T16:55:22Z</time>
      </trkpt>
      <trkpt lat="31.353593012318015" lon="-4.082902986556292">
        <ele>775.60000000000002</ele>
        <time>2003-04-17T16:55:26Z</time>
      </trkpt>
      <trkpt lat="31.353674987331033" lon="-4.082963000983">
        <ele>775.60000000000002</ele>
        <time>2003-04-17T16:55:28Z</time>
      </trkpt>
      <trkpt lat="31.35392501950264" lon="-4.083191994577646">
        <ele>775.89999999999998</ele>
        <time>2003-04-17T16:55:30Z</time>
      </trkpt>
      <trkpt lat="31.354624992236495" lon="-4.083891967311502">
        <ele>775.70000000000005</ele>
        <time>2003-04-17T16:55:40Z</time>
      </trkpt>
      <trkpt lat="31.354766981676221" lon="-4.084096988663077">
        <ele>775.79999999999995</ele>
        <time>2003-04-17T16:55:41Z</time>
      </trkpt>
      <trkpt lat="31.355217006057501" lon="-4.084974993020296">
        <ele>775.89999999999998</ele>
        <time>2003-04-17T16:55:48Z</time>
      </trkpt>
      <trkpt lat="31.355654960498214" lon="-4.085996998474002">
        <ele>776</ele>
        <time>2003-04-17T16:55:56Z</time>
      </trkpt>
      <trkpt lat="31.35590298101306" lon="-4.08676796592772">
        <ele>776.29999999999995</ele>
        <time>2003-04-17T16:56:00Z</time>
      </trkpt>
      <trkpt lat="31.356134992092848" lon="-4.087876975536346">
        <ele>775.5</ele>
        <time>2003-04-17T16:56:07Z</time>
      </trkpt>
      <trkpt lat="31.356382006779313" lon="-4.089014986529946">
        <ele>775.39999999999998</ele>
        <time>2003-04-17T16:56:15Z</time>
      </trkpt>
      <trkpt lat="31.356597002595663" lon="-4.089921992272139">
        <ele>774.89999999999998</ele>
        <time>2003-04-17T16:56:20Z</time>
      </trkpt>
      <trkpt lat="31.35678299702704" lon="-4.09041702747345">
        <ele>774.70000000000005</ele>
        <time>2003-04-17T16:56:26Z</time>
      </trkpt>
      <trkpt lat="31.356866983696818" lon="-4.090606961399317">
        <ele>774.70000000000005</ele>
        <time>2003-04-17T16:56:27Z</time>
      </trkpt>
      <trkpt lat="31.35725699365139" lon="-4.091468034312129">
        <ele>775.5</ele>
        <time>2003-04-17T16:56:37Z</time>
      </trkpt>
      <trkpt lat="31.357297981157899" lon="-4.091582028195262">
        <ele>775.79999999999995</ele>
        <time>2003-04-17T16:56:37Z</time>
      </trkpt>
      <trkpt lat="31.357407029718161" lon="-4.09198796376586">
        <ele>776.29999999999995</ele>
        <time>2003-04-17T16:56:41Z</time>
      </trkpt>
      <trkpt lat="31.357552036643028" lon="-4.09246196039021">
        <ele>775.70000000000005</ele>
        <time>2003-04-17T16:56:45Z</time>
      </trkpt>
      <trkpt lat="31.357899969443679" lon="-4.093542974442244">
        <ele>775.89999999999998</ele>
        <time>2003-04-17T16:56:54Z</time>
      </trkpt>
      <trkpt lat="31.358122006058693" lon="-4.09407296217978">
        <ele>776.5</ele>
        <time>2003-04-17T16:56:58Z</time>
      </trkpt>
      <trkpt lat="31.358646964654326" lon="-4.094957001507282">
        <ele>776.89999999999998</ele>
        <time>2003-04-17T16:57:04Z</time>
      </trkpt>
      <trkpt lat="31.359167983755469" lon="-4.095837017521262">
        <ele>777.39999999999998</ele>
        <time>2003-04-17T16:57:12Z</time>
      </trkpt>
      <trkpt lat="31.359222969040275" lon="-4.095980012789369">
        <ele>777.29999999999995</ele>
        <time>2003-04-17T16:57:13Z</time>
      </trkpt>
      <trkpt lat="31.359575008973479" lon="-4.096990032121539">
        <ele>777.89999999999998</ele>
        <time>2003-04-17T16:57:20Z</time>
      </trkpt>
      <trkpt lat="31.359944986179471" lon="-4.098035003989935">
        <ele>779.10000000000002</ele>
        <time>2003-04-17T16:57:28Z</time>
      </trkpt>
      <trkpt lat="31.360414959490299" lon="-4.099106965586543">
        <ele>780.29999999999995</ele>
        <time>2003-04-17T16:57:36Z</time>
      </trkpt>
      <trkpt lat="31.361018037423491" lon="-4.10008798353374">
        <ele>781.10000000000002</ele>
        <time>2003-04-17T16:57:43Z</time>
      </trkpt>
      <trkpt lat="31.361590018495917" lon="-4.101107977330685">
        <ele>781.60000000000002</ele>
        <time>2003-04-17T16:57:50Z</time>
      </trkpt>
      <trkpt lat="31.361933005973697" lon="-4.102084971964359">
        <ele>780.89999999999998</ele>
        <time>2003-04-17T16:57:55Z</time>
      </trkpt>
      <trkpt lat="31.362359980121255" lon="-4.103160034865141">
        <ele>782.29999999999995</ele>
        <time>2003-04-17T16:58:03Z</time>
      </trkpt>
      <trkpt lat="31.362749990075827" lon="-4.104301985353231">
        <ele>783.20000000000005</ele>
        <time>2003-04-17T16:58:10Z</time>
      </trkpt>
      <trkpt lat="31.362983006983995" lon="-4.105336982756853">
        <ele>783.20000000000005</ele>
        <time>2003-04-17T16:58:15Z</time>
      </trkpt>
      <trkpt lat="31.363083003088832" lon="-4.106416990980506">
        <ele>783.60000000000002</ele>
        <time>2003-04-17T16:58:22Z</time>
      </trkpt>
      <trkpt lat="31.363151986151934" lon="-4.107522983103991">
        <ele>783.79999999999995</ele>
        <time>2003-04-17T16:58:27Z</time>
      </trkpt>
      <trkpt lat="31.363172018900514" lon="-4.10865998826921">
        <ele>784</ele>
        <time>2003-04-17T16:58:34Z</time>
      </trkpt>
      <trkpt lat="31.36314201168716" lon="-4.10981803201139">
        <ele>784.70000000000005</ele>
        <time>2003-04-17T16:58:39Z</time>
      </trkpt>
      <trkpt lat="31.363077973946929" lon="-4.110955037176609">
        <ele>785.10000000000002</ele>
        <time>2003-04-17T16:58:46Z</time>
      </trkpt>
      <trkpt lat="31.363092977553606" lon="-4.111325014382601">
        <ele>785.20000000000005</ele>
        <time>2003-04-17T16:58:48Z</time>
      </trkpt>
      <trkpt lat="31.363187022507191" lon="-4.112335033714771">
        <ele>785.39999999999998</ele>
        <time>2003-04-17T16:58:53Z</time>
      </trkpt>
      <trkpt lat="31.363182999193668" lon="-4.112632004544139">
        <ele>785.20000000000005</ele>
        <time>2003-04-17T16:58:56Z</time>
      </trkpt>
      <trkpt lat="31.363088032230735" lon="-4.113414958119392">
        <ele>785.5</ele>
        <time>2003-04-17T16:59:01Z</time>
      </trkpt>
      <trkpt lat="31.362883010879159" lon="-4.114430006593466">
        <ele>785.29999999999995</ele>
        <time>2003-04-17T16:59:08Z</time>
      </trkpt>
      <trkpt lat="31.362822996452451" lon="-4.114957982674241">
        <ele>784.89999999999998</ele>
        <time>2003-04-17T16:59:12Z</time>
      </trkpt>
      <trkpt lat="31.362770022824407" lon="-4.115056972950697">
        <ele>784.89999999999998</ele>
        <time>2003-04-17T16:59:13Z</time>
      </trkpt>
      <trkpt lat="31.362697016447783" lon="-4.115142971277237">
        <ele>785.39999999999998</ele>
        <time>2003-04-17T16:59:13Z</time>
      </trkpt>
      <trkpt lat="31.362487971782684" lon="-4.115419993177056">
        <ele>784.60000000000002</ele>
        <time>2003-04-17T16:59:16Z</time>
      </trkpt>
      <trkpt lat="31.36245796456933" lon="-4.115523006767035">
        <ele>784.79999999999995</ele>
        <time>2003-04-17T16:59:17Z</time>
      </trkpt>
      <trkpt lat="31.36245503090322" lon="-4.115716964006424">
        <ele>785.39999999999998</ele>
        <time>2003-04-17T16:59:20Z</time>
      </trkpt>
      <trkpt lat="31.362504987046123" lon="-4.115891978144646">
        <ele>785.39999999999998</ele>
        <time>2003-04-17T16:59:21Z</time>
      </trkpt>
      <trkpt lat="31.362601965665817" lon="-4.116052994504571">
        <ele>786.79999999999995</ele>
        <time>2003-04-17T16:59:24Z</time>
      </trkpt>
      <trkpt lat="31.362707996740937" lon="-4.116172017529607">
        <ele>787.10000000000002</ele>
        <time>2003-04-17T16:59:25Z</time>
      </trkpt>
      <trkpt lat="31.362789971753955" lon="-4.116270001977682">
        <ele>787.5</ele>
        <time>2003-04-17T16:59:28Z</time>
      </trkpt>
      <trkpt lat="31.362832970917225" lon="-4.116407968103886">
        <ele>787.5</ele>
        <time>2003-04-17T16:59:29Z</time>
      </trkpt>
      <trkpt lat="31.362913018092513" lon="-4.116809964179993">
        <ele>786.89999999999998</ele>
        <time>2003-04-17T16:59:36Z</time>
      </trkpt>
      <trkpt lat="31.36290698312223" lon="-4.11695203743875">
        <ele>786.89999999999998</ele>
        <time>2003-04-17T16:59:38Z</time>
      </trkpt>
      <trkpt lat="31.362898014485836" lon="-4.117101989686489">
        <ele>787</ele>
        <time>2003-04-17T16:59:40Z</time>
      </trkpt>
      <trkpt lat="31.362879993394017" lon="-4.117369959130883">
        <ele>787.29999999999995</ele>
        <time>2003-04-17T16:59:43Z</time>
      </trkpt>
      <trkpt lat="31.362817967310548" lon="-4.117493005469441">
        <ele>787</ele>
        <time>2003-04-17T16:59:46Z</time>
      </trkpt>
      <trkpt lat="31.362716965377331" lon="-4.117568023502827">
        <ele>787.10000000000002</ele>
        <time>2003-04-17T16:59:47Z</time>
      </trkpt>
      <trkpt lat="31.362577993422747" lon="-4.117655027657747">
        <ele>786.60000000000002</ele>
        <time>2003-04-17T16:59:50Z</time>
      </trkpt>
      <trkpt lat="31.362442960962653" lon="-4.117782013490796">
        <ele>786.29999999999995</ele>
        <time>2003-04-17T16:59:51Z</time>
      </trkpt>
      <trkpt lat="31.362331984564662" lon="-4.117947975173593">
        <ele>786.10000000000002</ele>
        <time>2003-04-17T16:59:54Z</time>
      </trkpt>
      <trkpt lat="31.362107014283538" lon="-4.118388025090098">
        <ele>785.89999999999998</ele>
        <time>2003-04-17T16:59:59Z</time>
      </trkpt>
      <trkpt lat="31.362001989036798" lon="-4.118699999526143">
        <ele>785.5</ele>
        <time>2003-04-17T17:00:03Z</time>
      </trkpt>
      <trkpt lat="31.361967958509922" lon="-4.118902003392577">
        <ele>784.70000000000005</ele>
        <time>2003-04-17T17:00:06Z</time>
      </trkpt>
      <trkpt lat="31.362001989036798" lon="-4.119017003104091">
        <ele>785</ele>
        <time>2003-04-17T17:00:07Z</time>
      </trkpt>
      <trkpt lat="31.362087987363338" lon="-4.119111970067024">
        <ele>784.79999999999995</ele>
        <time>2003-04-17T17:00:10Z</time>
      </trkpt>
      <trkpt lat="31.362186977639794" lon="-4.119181958958507">
        <ele>784.79999999999995</ele>
        <time>2003-04-17T17:00:13Z</time>
      </trkpt>
      <trkpt lat="31.362341959029436" lon="-4.119325038045645">
        <ele>784.5</ele>
        <time>2003-04-17T17:00:18Z</time>
      </trkpt>
      <trkpt lat="31.362438015639782" lon="-4.119457975029945">
        <ele>784.5</ele>
        <time>2003-04-17T17:00:21Z</time>
      </trkpt>
      <trkpt lat="31.362529965117574" lon="-4.119586972519755">
        <ele>784.60000000000002</ele>
        <time>2003-04-17T17:00:23Z</time>
      </trkpt>
      <trkpt lat="31.362601965665817" lon="-4.119685040786862">
        <ele>784.60000000000002</ele>
        <time>2003-04-17T17:00:26Z</time>
      </trkpt>
      <trkpt lat="31.362727023661137" lon="-4.119828036054969">
        <ele>784.5</ele>
        <time>2003-04-17T17:00:29Z</time>
      </trkpt>
      <trkpt lat="31.36286498978734" lon="-4.119937000796199">
        <ele>784.79999999999995</ele>
        <time>2003-04-17T17:00:32Z</time>
      </trkpt>
      <trkpt lat="31.363106975331903" lon="-4.120043031871319">
        <ele>784.79999999999995</ele>
        <time>2003-04-17T17:00:36Z</time>
      </trkpt>
      <trkpt lat="31.363257011398673" lon="-4.120094999670982">
        <ele>785</ele>
        <time>2003-04-17T17:00:37Z</time>
      </trkpt>
      <trkpt lat="31.363388020545244" lon="-4.120140010491014">
        <ele>785.20000000000005</ele>
        <time>2003-04-17T17:00:40Z</time>
      </trkpt>
      <trkpt lat="31.363532021641731" lon="-4.120192984119058">
        <ele>785.20000000000005</ele>
        <time>2003-04-17T17:00:41Z</time>
      </trkpt>
      <trkpt lat="31.363871991634369" lon="-4.120285017415881">
        <ele>785.20000000000005</ele>
        <time>2003-04-17T17:00:45Z</time>
      </trkpt>
      <trkpt lat="31.364024961367249" lon="-4.120366992428899">
        <ele>785.20000000000005</ele>
        <time>2003-04-17T17:00:48Z</time>
      </trkpt>
      <trkpt lat="31.364162005484104" lon="-4.120494984090328">
        <ele>784.79999999999995</ele>
        <time>2003-04-17T17:00:49Z</time>
      </trkpt>
      <trkpt lat="31.364629967138171" lon="-4.12107702344656">
        <ele>785.79999999999995</ele>
        <time>2003-04-17T17:00:57Z</time>
      </trkpt>
      <trkpt lat="31.364844962954521" lon="-4.121399978175759">
        <ele>786</ele>
        <time>2003-04-17T17:01:01Z</time>
      </trkpt>
      <trkpt lat="31.364987958222628" lon="-4.1215930134058">
        <ele>785.89999999999998</ele>
        <time>2003-04-17T17:01:04Z</time>
      </trkpt>
      <trkpt lat="31.365097006782889" lon="-4.121692003682256">
        <ele>786</ele>
        <time>2003-04-17T17:01:05Z</time>
      </trkpt>
      <trkpt lat="31.365283001214266" lon="-4.121827958151698">
        <ele>785.79999999999995</ele>
        <time>2003-04-17T17:01:08Z</time>
      </trkpt>
      <trkpt lat="31.365403030067682" lon="-4.121940024197102">
        <ele>786.20000000000005</ele>
        <time>2003-04-17T17:01:11Z</time>
      </trkpt>
      <trkpt lat="31.365481987595558" lon="-4.122058041393757">
        <ele>786.39999999999998</ele>
        <time>2003-04-17T17:01:12Z</time>
      </trkpt>
      <trkpt lat="31.365779964253306" lon="-4.122443022206426">
        <ele>786.70000000000005</ele>
        <time>2003-04-17T17:01:20Z</time>
      </trkpt>
      <trkpt lat="31.365842996165156" lon="-4.122558021917939">
        <ele>786.5</ele>
        <time>2003-04-17T17:01:24Z</time>
      </trkpt>
      <trkpt lat="31.365939974784851" lon="-4.122721971943975">
        <ele>786.10000000000002</ele>
        <time>2003-04-17T17:01:28Z</time>
      </trkpt>
      <trkpt lat="31.366029996424913" lon="-4.122812999412417">
        <ele>785.89999999999998</ele>
        <time>2003-04-17T17:01:31Z</time>
      </trkpt>
      <trkpt lat="31.36617299169302" lon="-4.122927999123931">
        <ele>786.20000000000005</ele>
        <time>2003-04-17T17:01:34Z</time>
      </trkpt>
      <trkpt lat="31.366316992789507" lon="-4.123003017157316">
        <ele>786.60000000000002</ele>
        <time>2003-04-17T17:01:35Z</time>
      </trkpt>
      <trkpt lat="31.366446996107697" lon="-4.123015003278852">
        <ele>786.29999999999995</ele>
        <time>2003-04-17T17:01:38Z</time>
      </trkpt>
      <trkpt lat="31.366541963070631" lon="-4.123022966086865">
        <ele>786.20000000000005</ele>
        <time>2003-04-17T17:01:39Z</time>
      </trkpt>
      <trkpt lat="31.366604994982481" lon="-4.12309798412025">
        <ele>786.39999999999998</ele>
        <time>2003-04-17T17:01:43Z</time>
      </trkpt>
      <trkpt lat="31.366674983873963" lon="-4.123280039057136">
        <ele>787.29999999999995</ele>
        <time>2003-04-17T17:01:54Z</time>
      </trkpt>
      <trkpt lat="31.36673298664391" lon="-4.123375006020069">
        <ele>787.20000000000005</ele>
        <time>2003-04-17T17:01:55Z</time>
      </trkpt>
      <trkpt lat="31.366814961656928" lon="-4.123478019610047">
        <ele>787.29999999999995</ele>
        <time>2003-04-17T17:01:58Z</time>
      </trkpt>
      <trkpt lat="31.366923004388809" lon="-4.123608022928238">
        <ele>787.20000000000005</ele>
        <time>2003-04-17T17:01:59Z</time>
      </trkpt>
      <trkpt lat="31.36729197576642" lon="-4.124016975983977">
        <ele>787.29999999999995</ele>
        <time>2003-04-17T17:02:06Z</time>
      </trkpt>
      <trkpt lat="31.367552988231182" lon="-4.124370021745563">
        <ele>787.5</ele>
        <time>2003-04-17T17:02:13Z</time>
      </trkpt>
      <trkpt lat="31.367815006524324" lon="-4.124747961759567">
        <ele>787.10000000000002</ele>
        <time>2003-04-17T17:02:18Z</time>
      </trkpt>
      <trkpt lat="31.367973005399108" lon="-4.125022972002626">
        <ele>787.29999999999995</ele>
        <time>2003-04-17T17:02:21Z</time>
      </trkpt>
      <trkpt lat="31.368411965668201" lon="-4.125835010781884">
        <ele>786.89999999999998</ele>
        <time>2003-04-17T17:02:29Z</time>
      </trkpt>
      <trkpt lat="31.368684964254498" lon="-4.12616802379489">
        <ele>786.89999999999998</ele>
        <time>2003-04-17T17:02:33Z</time>
      </trkpt>
      <trkpt lat="31.369140017777681" lon="-4.126587035134435">
        <ele>787.5</ele>
        <time>2003-04-17T17:02:38Z</time>
      </trkpt>
      <trkpt lat="31.369427014142275" lon="-4.126815022900701">
        <ele>787.29999999999995</ele>
        <time>2003-04-17T17:02:42Z</time>
      </trkpt>
      <trkpt lat="31.369643015787005" lon="-4.127073017880321">
        <ele>787.10000000000002</ele>
        <time>2003-04-17T17:02:45Z</time>
      </trkpt>
      <trkpt lat="31.369960019364953" lon="-4.127592025324702">
        <ele>787.79999999999995</ele>
        <time>2003-04-17T17:02:51Z</time>
      </trkpt>
      <trkpt lat="31.370356986299157" lon="-4.128489978611469">
        <ele>787.70000000000005</ele>
        <time>2003-04-17T17:02:57Z</time>
      </trkpt>
      <trkpt lat="31.370799969881773" lon="-4.129505027085543">
        <ele>787.29999999999995</ele>
        <time>2003-04-17T17:03:04Z</time>
      </trkpt>
      <trkpt lat="31.371177993714809" lon="-4.130557961761951">
        <ele>788</ele>
        <time>2003-04-17T17:03:12Z</time>
      </trkpt>
      <trkpt lat="31.371527016162872" lon="-4.131603017449379">
        <ele>788</ele>
        <time>2003-04-17T17:03:19Z</time>
      </trkpt>
      <trkpt lat="31.371885007247329" lon="-4.132714960724115">
        <ele>787.29999999999995</ele>
        <time>2003-04-17T17:03:26Z</time>
      </trkpt>
      <trkpt lat="31.372222965583205" lon="-4.133826987817884">
        <ele>787.39999999999998</ele>
        <time>2003-04-17T17:03:32Z</time>
      </trkpt>
      <trkpt lat="31.372548015788198" lon="-4.134928034618497">
        <ele>787.5</ele>
        <time>2003-04-17T17:03:39Z</time>
      </trkpt>
      <trkpt lat="31.372699979692698" lon="-4.135476965457201">
        <ele>787.20000000000005</ele>
        <time>2003-04-17T17:03:43Z</time>
      </trkpt>
      <trkpt lat="31.372993011027575" lon="-4.136544987559319">
        <ele>786.89999999999998</ele>
        <time>2003-04-17T17:03:53Z</time>
      </trkpt>
      <trkpt lat="31.373276989907026" lon="-4.137675035744906">
        <ele>786.70000000000005</ele>
        <time>2003-04-17T17:04:01Z</time>
      </trkpt>
      <trkpt lat="31.373467007651925" lon="-4.138808017596602">
        <ele>786.29999999999995</ele>
        <time>2003-04-17T17:04:08Z</time>
      </trkpt>
      <trkpt lat="31.373522998765111" lon="-4.139321995899081">
        <ele>786.20000000000005</ele>
        <time>2003-04-17T17:04:10Z</time>
      </trkpt>
      <trkpt lat="31.373507995158434" lon="-4.139837985858321">
        <ele>786</ele>
        <time>2003-04-17T17:04:13Z</time>
      </trkpt>
      <trkpt lat="31.373376986011863" lon="-4.140978008508682">
        <ele>785.89999999999998</ele>
        <time>2003-04-17T17:04:21Z</time>
      </trkpt>
      <trkpt lat="31.373347984626889" lon="-4.141374975442886">
        <ele>785.89999999999998</ele>
        <time>2003-04-17T17:04:24Z</time>
      </trkpt>
      <trkpt lat="31.373397018760443" lon="-4.14168301038444">
        <ele>786.10000000000002</ele>
        <time>2003-04-17T17:04:26Z</time>
      </trkpt>
      <trkpt lat="31.373368017375469" lon="-4.141815025359392">
        <ele>786.29999999999995</ele>
        <time>2003-04-17T17:04:29Z</time>
      </trkpt>
      <trkpt lat="31.373355025425553" lon="-4.141952991485596">
        <ele>786.20000000000005</ele>
        <time>2003-04-17T17:04:32Z</time>
      </trkpt>
      <trkpt lat="31.373376986011863" lon="-4.142188020050526">
        <ele>786</ele>
        <time>2003-04-17T17:04:35Z</time>
      </trkpt>
      <trkpt lat="31.373447980731726" lon="-4.142341995611787">
        <ele>786.10000000000002</ele>
        <time>2003-04-17T17:04:37Z</time>
      </trkpt>
      <trkpt lat="31.373600028455257" lon="-4.142722031101584">
        <ele>786.29999999999995</ele>
        <time>2003-04-17T17:04:41Z</time>
      </trkpt>
      <trkpt lat="31.373732965439558" lon="-4.143317984417081">
        <ele>785.60000000000002</ele>
        <time>2003-04-17T17:04:48Z</time>
      </trkpt>
      <trkpt lat="31.373803038150072" lon="-4.143661977723241">
        <ele>785.60000000000002</ele>
        <time>2003-04-17T17:04:52Z</time>
      </trkpt>
      <trkpt lat="31.373867997899652" lon="-4.143898012116551">
        <ele>785.60000000000002</ele>
        <time>2003-04-17T17:04:56Z</time>
      </trkpt>
      <trkpt lat="31.373902028426528" lon="-4.144030027091503">
        <ele>784.60000000000002</ele>
        <time>2003-04-17T17:05:00Z</time>
      </trkpt>
      <trkpt lat="31.373936980962753" lon="-4.144177967682481">
        <ele>784.79999999999995</ele>
        <time>2003-04-17T17:05:03Z</time>
      </trkpt>
      <trkpt lat="31.373998001217842" lon="-4.144427999854088">
        <ele>784.29999999999995</ele>
        <time>2003-04-17T17:05:06Z</time>
      </trkpt>
      <trkpt lat="31.374075030907989" lon="-4.144747015088797">
        <ele>784.5</ele>
        <time>2003-04-17T17:05:08Z</time>
      </trkpt>
      <trkpt lat="31.374369990080595" lon="-4.145810008049011">
        <ele>783.60000000000002</ele>
        <time>2003-04-17T17:05:18Z</time>
      </trkpt>
      <trkpt lat="31.374733010306954" lon="-4.146803012117744">
        <ele>784.20000000000005</ele>
        <time>2003-04-17T17:05:26Z</time>
      </trkpt>
      <trkpt lat="31.375126959756017" lon="-4.14778302423656">
        <ele>784.39999999999998</ele>
        <time>2003-04-17T17:05:34Z</time>
      </trkpt>
      <trkpt lat="31.375313038006425" lon="-4.148672008886933">
        <ele>781.5</ele>
        <time>2003-04-17T17:05:43Z</time>
      </trkpt>
      <trkpt lat="31.37551998719573" lon="-4.149154974147677">
        <ele>780.89999999999998</ele>
        <time>2003-04-17T17:05:49Z</time>
      </trkpt>
      <trkpt lat="31.375570027157664" lon="-4.149254970252514">
        <ele>780.79999999999995</ele>
        <time>2003-04-17T17:05:50Z</time>
      </trkpt>
      <trkpt lat="31.375592993572354" lon="-4.149356978014112">
        <ele>781.10000000000002</ele>
        <time>2003-04-17T17:05:53Z</time>
      </trkpt>
      <trkpt lat="31.375658037140965" lon="-4.149446999654174">
        <ele>781.20000000000005</ele>
        <time>2003-04-17T17:05:56Z</time>
      </trkpt>
      <trkpt lat="31.37575501576066" lon="-4.149542972445488">
        <ele>781.20000000000005</ele>
        <time>2003-04-17T17:05:58Z</time>
      </trkpt>
      <trkpt lat="31.375779993832111" lon="-4.149655038490892">
        <ele>781.10000000000002</ele>
        <time>2003-04-17T17:06:01Z</time>
      </trkpt>
      <trkpt lat="31.375800026580691" lon="-4.149819994345307">
        <ele>781.70000000000005</ele>
        <time>2003-04-17T17:06:02Z</time>
      </trkpt>
      <trkpt lat="31.375834979116917" lon="-4.15001998655498">
        <ele>781.60000000000002</ele>
        <time>2003-04-17T17:06:05Z</time>
      </trkpt>
      <trkpt lat="31.375919971615076" lon="-4.150567995384336">
        <ele>781.60000000000002</ele>
        <time>2003-04-17T17:06:09Z</time>
      </trkpt>
      <trkpt lat="31.376045029610395" lon="-4.151271991431713">
        <ele>782</ele>
        <time>2003-04-17T17:06:16Z</time>
      </trkpt>
      <trkpt lat="31.376243010163307" lon="-4.151912033557892">
        <ele>782.10000000000002</ele>
        <time>2003-04-17T17:06:21Z</time>
      </trkpt>
      <trkpt lat="31.376303024590015" lon="-4.152092998847365">
        <ele>782.20000000000005</ele>
        <time>2003-04-17T17:06:24Z</time>
      </trkpt>
      <trkpt lat="31.376347029581666" lon="-4.152427017688751">
        <ele>781.60000000000002</ele>
        <time>2003-04-17T17:06:27Z</time>
      </trkpt>
      <trkpt lat="31.376332025974989" lon="-4.152672020718455">
        <ele>781.5</ele>
        <time>2003-04-17T17:06:28Z</time>
      </trkpt>
      <trkpt lat="31.376233035698533" lon="-4.152836976572871">
        <ele>782.29999999999995</ele>
        <time>2003-04-17T17:06:31Z</time>
      </trkpt>
      <trkpt lat="31.376143014058471" lon="-4.152975026518107">
        <ele>781.10000000000002</ele>
        <time>2003-04-17T17:06:32Z</time>
      </trkpt>
      <trkpt lat="31.376102026551962" lon="-4.153145011514425">
        <ele>781.29999999999995</ele>
        <time>2003-04-17T17:06:35Z</time>
      </trkpt>
      <trkpt lat="31.375985015183687" lon="-4.153678016737104">
        <ele>782</ele>
        <time>2003-04-17T17:06:41Z</time>
      </trkpt>
      <trkpt lat="31.375966994091868" lon="-4.153792010620236">
        <ele>782.10000000000002</ele>
        <time>2003-04-17T17:06:45Z</time>
      </trkpt>
      <trkpt lat="31.375943021848798" lon="-4.153910027816892">
        <ele>782.79999999999995</ele>
        <time>2003-04-17T17:06:48Z</time>
      </trkpt>
      <trkpt lat="31.375947967171669" lon="-4.154055034741759">
        <ele>783.20000000000005</ele>
        <time>2003-04-17T17:06:50Z</time>
      </trkpt>
      <trkpt lat="31.375998007133603" lon="-4.154219990596175">
        <ele>783.79999999999995</ele>
        <time>2003-04-17T17:06:52Z</time>
      </trkpt>
      <trkpt lat="31.37607797048986" lon="-4.154504975304008">
        <ele>783.5</ele>
        <time>2003-04-17T17:06:55Z</time>
      </trkpt>
      <trkpt lat="31.376134967431426" lon="-4.155194973573089">
        <ele>784.20000000000005</ele>
        <time>2003-04-17T17:07:00Z</time>
      </trkpt>
      <trkpt lat="31.376122981309891" lon="-4.156005000695586">
        <ele>784.5</ele>
        <time>2003-04-17T17:07:07Z</time>
      </trkpt>
      <trkpt lat="31.376049974933267" lon="-4.15652995929122">
        <ele>785.29999999999995</ele>
        <time>2003-04-17T17:07:11Z</time>
      </trkpt>
      <trkpt lat="31.376036982983351" lon="-4.156646970659494">
        <ele>784.60000000000002</ele>
        <time>2003-04-17T17:07:11Z</time>
      </trkpt>
      <trkpt lat="31.37603497132659" lon="-4.157004961743951">
        <ele>785.10000000000002</ele>
        <time>2003-04-17T17:07:15Z</time>
      </trkpt>
      <trkpt lat="31.376088028773665" lon="-4.157382985576987">
        <ele>785.39999999999998</ele>
        <time>2003-04-17T17:07:18Z</time>
      </trkpt>
      <trkpt lat="31.376203028485179" lon="-4.158371966332197">
        <ele>785.60000000000002</ele>
        <time>2003-04-17T17:07:25Z</time>
      </trkpt>
      <trkpt lat="31.376254996284842" lon="-4.15878301486373">
        <ele>785.5</ele>
        <time>2003-04-17T17:07:27Z</time>
      </trkpt>
      <trkpt lat="31.376285003498197" lon="-4.158983007073402">
        <ele>785.20000000000005</ele>
        <time>2003-04-17T17:07:30Z</time>
      </trkpt>
      <trkpt lat="31.376373013481498" lon="-4.159605028107762">
        <ele>785.5</ele>
        <time>2003-04-17T17:07:35Z</time>
      </trkpt>
      <trkpt lat="31.376402014866471" lon="-4.159848019480705">
        <ele>785.10000000000002</ele>
        <time>2003-04-17T17:07:38Z</time>
      </trkpt>
      <trkpt lat="31.376424981281161" lon="-4.160193018615246">
        <ele>785.60000000000002</ele>
        <time>2003-04-17T17:07:42Z</time>
      </trkpt>
      <trkpt lat="31.376390028744936" lon="-4.160617981106043">
        <ele>785.29999999999995</ele>
        <time>2003-04-17T17:07:48Z</time>
      </trkpt>
      <trkpt lat="31.376388017088175" lon="-4.160734992474318">
        <ele>785.29999999999995</ele>
        <time>2003-04-17T17:07:54Z</time>
      </trkpt>
      <trkpt lat="31.376377958804369" lon="-4.160887040197849">
        <ele>785.70000000000005</ele>
        <time>2003-04-17T17:08:00Z</time>
      </trkpt>
      <trkpt lat="31.376347029581666" lon="-4.161113016307354">
        <ele>785.89999999999998</ele>
        <time>2003-04-17T17:08:04Z</time>
      </trkpt>
      <trkpt lat="31.376302018761635" lon="-4.161552982404828">
        <ele>786.39999999999998</ele>
        <time>2003-04-17T17:08:12Z</time>
      </trkpt>
      <trkpt lat="31.376272011548281" lon="-4.161739982664585">
        <ele>786.39999999999998</ele>
        <time>2003-04-17T17:08:13Z</time>
      </trkpt>
      <trkpt lat="31.376155000180006" lon="-4.162342976778746">
        <ele>787</ele>
        <time>2003-04-17T17:08:20Z</time>
      </trkpt>
      <trkpt lat="31.376064978539944" lon="-4.162742961198092">
        <ele>788.29999999999995</ele>
        <time>2003-04-17T17:08:24Z</time>
      </trkpt>
      <trkpt lat="31.376049974933267" lon="-4.162949994206429">
        <ele>789.29999999999995</ele>
        <time>2003-04-17T17:08:25Z</time>
      </trkpt>
      <trkpt lat="31.376047041267157" lon="-4.16308200918138">
        <ele>791.29999999999995</ele>
        <time>2003-04-17T17:08:28Z</time>
      </trkpt>
      <trkpt lat="31.375998007133603" lon="-4.163242019712925">
        <ele>790.60000000000002</ele>
        <time>2003-04-17T17:08:29Z</time>
      </trkpt>
      <trkpt lat="31.375879989936948" lon="-4.163394989445806">
        <ele>789.89999999999998</ele>
        <time>2003-04-17T17:08:32Z</time>
      </trkpt>
      <trkpt lat="31.375498026609421" lon="-4.163849959149957">
        <ele>789.70000000000005</ele>
        <time>2003-04-17T17:08:38Z</time>
      </trkpt>
      <trkpt lat="31.375371962785721" lon="-4.164108037948608">
        <ele>789.10000000000002</ele>
        <time>2003-04-17T17:08:40Z</time>
      </trkpt>
      <trkpt lat="31.375231985002756" lon="-4.164472986012697">
        <ele>789.10000000000002</ele>
        <time>2003-04-17T17:08:44Z</time>
      </trkpt>
      <trkpt lat="31.375041967257857" lon="-4.165246970951557">
        <ele>789.10000000000002</ele>
        <time>2003-04-17T17:08:52Z</time>
      </trkpt>
      <trkpt lat="31.375031992793083" lon="-4.165733037516475">
        <ele>788.79999999999995</ele>
        <time>2003-04-17T17:08:56Z</time>
      </trkpt>
      <trkpt lat="31.375137018039823" lon="-4.16688303463161">
        <ele>786.29999999999995</ele>
        <time>2003-04-17T17:09:06Z</time>
      </trkpt>
      <trkpt lat="31.375169958919287" lon="-4.166999962180853">
        <ele>786.20000000000005</ele>
        <time>2003-04-17T17:09:07Z</time>
      </trkpt>
      <trkpt lat="31.375219998881221" lon="-4.167106999084353">
        <ele>786.20000000000005</ele>
        <time>2003-04-17T17:09:07Z</time>
      </trkpt>
      <trkpt lat="31.375247994437814" lon="-4.167215041816235">
        <ele>785.60000000000002</ele>
        <time>2003-04-17T17:09:09Z</time>
      </trkpt>
      <trkpt lat="31.37534799054265" lon="-4.167527016252279">
        <ele>785.60000000000002</ele>
        <time>2003-04-17T17:09:11Z</time>
      </trkpt>
      <trkpt lat="31.375393001362681" lon="-4.167718039825559">
        <ele>785.70000000000005</ele>
        <time>2003-04-17T17:09:14Z</time>
      </trkpt>
      <trkpt lat="31.375467013567686" lon="-4.168009981513023">
        <ele>784.5</ele>
        <time>2003-04-17T17:09:17Z</time>
      </trkpt>
      <trkpt lat="31.375589976087213" lon="-4.168322961777449">
        <ele>784</ele>
        <time>2003-04-17T17:09:21Z</time>
      </trkpt>
      <trkpt lat="31.375591987743974" lon="-4.168484983965755">
        <ele>783.5</ele>
        <time>2003-04-17T17:09:22Z</time>
      </trkpt>
      <trkpt lat="31.375649990513921" lon="-4.16866997256875">
        <ele>783.70000000000005</ele>
        <time>2003-04-17T17:09:25Z</time>
      </trkpt>
      <trkpt lat="31.375792985782027" lon="-4.169199960306287">
        <ele>781.29999999999995</ele>
        <time>2003-04-17T17:09:30Z</time>
      </trkpt>
      <trkpt lat="31.375922989100218" lon="-4.169532973319292">
        <ele>780.79999999999995</ele>
        <time>2003-04-17T17:09:33Z</time>
      </trkpt>
      <trkpt lat="31.376067996025085" lon="-4.169789962470532">
        <ele>781</ele>
        <time>2003-04-17T17:09:36Z</time>
      </trkpt>
      <trkpt lat="31.376137984916568" lon="-4.169919965788722">
        <ele>781.10000000000002</ele>
        <time>2003-04-17T17:09:37Z</time>
      </trkpt>
      <trkpt lat="31.376345017924905" lon="-4.170228000730276">
        <ele>781.70000000000005</ele>
        <time>2003-04-17T17:09:41Z</time>
      </trkpt>
      <trkpt lat="31.376554984599352" lon="-4.170737033709884">
        <ele>781.79999999999995</ele>
        <time>2003-04-17T17:09:46Z</time>
      </trkpt>
      <trkpt lat="31.376724969595671" lon="-4.171104999259114">
        <ele>782.10000000000002</ele>
        <time>2003-04-17T17:09:50Z</time>
      </trkpt>
      <trkpt lat="31.376890009269118" lon="-4.171284958720207">
        <ele>782.60000000000002</ele>
        <time>2003-04-17T17:09:53Z</time>
      </trkpt>
      <trkpt lat="31.377184968441725" lon="-4.171586958691478">
        <ele>782.89999999999998</ele>
        <time>2003-04-17T17:09:56Z</time>
      </trkpt>
      <trkpt lat="31.377832973375916" lon="-4.172257008031011">
        <ele>783.5</ele>
        <time>2003-04-17T17:10:01Z</time>
      </trkpt>
      <trkpt lat="31.378605030477047" lon="-4.173026969656348">
        <ele>783.79999999999995</ele>
        <time>2003-04-17T17:10:08Z</time>
      </trkpt>
      <trkpt lat="31.379197966307402" lon="-4.173467019572854">
        <ele>783.70000000000005</ele>
        <time>2003-04-17T17:10:12Z</time>
      </trkpt>
      <trkpt lat="31.379689984023571" lon="-4.173697018995881">
        <ele>783.89999999999998</ele>
        <time>2003-04-17T17:10:15Z</time>
      </trkpt>
      <trkpt lat="31.380177978426218" lon="-4.173834985122085">
        <ele>783.70000000000005</ele>
        <time>2003-04-17T17:10:17Z</time>
      </trkpt>
      <trkpt lat="31.380818020552397" lon="-4.173892987892032">
        <ele>783.79999999999995</ele>
        <time>2003-04-17T17:10:21Z</time>
      </trkpt>
      <trkpt lat="31.38114801608026" lon="-4.173892987892032">
        <ele>783.70000000000005</ele>
        <time>2003-04-17T17:10:24Z</time>
      </trkpt>
      <trkpt lat="31.381483040750027" lon="-4.173887958750129">
        <ele>783.60000000000002</ele>
        <time>2003-04-17T17:10:26Z</time>
      </trkpt>
      <trkpt lat="31.381644979119301" lon="-4.17388703674078">
        <ele>783.70000000000005</ele>
        <time>2003-04-17T17:10:27Z</time>
      </trkpt>
      <trkpt lat="31.382585009559989" lon="-4.173868009820581">
        <ele>784</ele>
        <time>2003-04-17T17:10:32Z</time>
      </trkpt>
      <trkpt lat="31.382864965125918" lon="-4.173907991498709">
        <ele>784</ele>
        <time>2003-04-17T17:10:35Z</time>
      </trkpt>
      <trkpt lat="31.38314500451088" lon="-4.174015028402209">
        <ele>784.10000000000002</ele>
        <time>2003-04-17T17:10:36Z</time>
      </trkpt>
      <trkpt lat="31.383390007540584" lon="-4.174191970378161">
        <ele>784.20000000000005</ele>
        <time>2003-04-17T17:10:39Z</time>
      </trkpt>
      <trkpt lat="31.383589999750257" lon="-4.174402020871639">
        <ele>784.5</ele>
        <time>2003-04-17T17:10:40Z</time>
      </trkpt>
      <trkpt lat="31.383861992508173" lon="-4.17479001916945">
        <ele>784.60000000000002</ele>
        <time>2003-04-17T17:10:43Z</time>
      </trkpt>
      <trkpt lat="31.384488036856055" lon="-4.175719991326332">
        <ele>786.10000000000002</ele>
        <time>2003-04-17T17:10:51Z</time>
      </trkpt>
      <trkpt lat="31.385102011263371" lon="-4.176591960713267">
        <ele>786.70000000000005</ele>
        <time>2003-04-17T17:10:58Z</time>
      </trkpt>
      <trkpt lat="31.385735012590885" lon="-4.177538026124239">
        <ele>786.70000000000005</ele>
        <time>2003-04-17T17:11:06Z</time>
      </trkpt>
      <trkpt lat="31.386397015303373" lon="-4.178483001887798">
        <ele>786.5</ele>
        <time>2003-04-17T17:11:13Z</time>
      </trkpt>
      <trkpt lat="31.387039991095662" lon="-4.179429989308119">
        <ele>786.29999999999995</ele>
        <time>2003-04-17T17:11:20Z</time>
      </trkpt>
      <trkpt lat="31.38735800050199" lon="-4.179887976497412">
        <ele>786.20000000000005</ele>
        <time>2003-04-17T17:11:24Z</time>
      </trkpt>
      <trkpt lat="31.387978009879589" lon="-4.180796993896365">
        <ele>786.10000000000002</ele>
        <time>2003-04-17T17:11:32Z</time>
      </trkpt>
      <trkpt lat="31.388447983190417" lon="-4.181478023529053">
        <ele>786.5</ele>
        <time>2003-04-17T17:11:38Z</time>
      </trkpt>
      <trkpt lat="31.38907796703279" lon="-4.182334989309311">
        <ele>786.79999999999995</ele>
        <time>2003-04-17T17:11:48Z</time>
      </trkpt>
      <trkpt lat="31.389795038849115" lon="-4.183111991733313">
        <ele>787.20000000000005</ele>
        <time>2003-04-17T17:11:56Z</time>
      </trkpt>
      <trkpt lat="31.390577992424369" lon="-4.183808024972677">
        <ele>787.79999999999995</ele>
        <time>2003-04-17T17:12:05Z</time>
      </trkpt>
      <trkpt lat="31.391317024827003" lon="-4.184432979673147">
        <ele>788</ele>
        <time>2003-04-17T17:12:14Z</time>
      </trkpt>
      <trkpt lat="31.39208204112947" lon="-4.185075033456087">
        <ele>788.20000000000005</ele>
        <time>2003-04-17T17:12:20Z</time>
      </trkpt>
      <trkpt lat="31.392849991098046" lon="-4.185732007026672">
        <ele>788.60000000000002</ele>
        <time>2003-04-17T17:12:27Z</time>
      </trkpt>
      <trkpt lat="31.393202031031251" lon="-4.186046998947859">
        <ele>788.70000000000005</ele>
        <time>2003-04-17T17:12:31Z</time>
      </trkpt>
      <trkpt lat="31.393750039860606" lon="-4.186497023329139">
        <ele>789.10000000000002</ele>
        <time>2003-04-17T17:12:39Z</time>
      </trkpt>
      <trkpt lat="31.393848024308681" lon="-4.186583021655679">
        <ele>789.39999999999998</ele>
        <time>2003-04-17T17:12:41Z</time>
      </trkpt>
      <trkpt lat="31.39421297237277" lon="-4.186902036890388">
        <ele>789.79999999999995</ele>
        <time>2003-04-17T17:12:46Z</time>
      </trkpt>
      <trkpt lat="31.394480019807816" lon="-4.187121978029609">
        <ele>790</ele>
        <time>2003-04-17T17:12:50Z</time>
      </trkpt>
      <trkpt lat="31.394886961206794" lon="-4.187469994649291">
        <ele>790.29999999999995</ele>
        <time>2003-04-17T17:12:54Z</time>
      </trkpt>
      <trkpt lat="31.395491966977715" lon="-4.187982967123389">
        <ele>790.60000000000002</ele>
        <time>2003-04-17T17:12:58Z</time>
      </trkpt>
      <trkpt lat="31.396277016028762" lon="-4.188657039776444">
        <ele>791.39999999999998</ele>
        <time>2003-04-17T17:13:05Z</time>
      </trkpt>
      <trkpt lat="31.397123001515865" lon="-4.189381990581751">
        <ele>792.29999999999995</ele>
        <time>2003-04-17T17:13:10Z</time>
      </trkpt>
      <trkpt lat="31.397972004488111" lon="-4.190107025206089">
        <ele>793.20000000000005</ele>
        <time>2003-04-17T17:13:17Z</time>
      </trkpt>
      <trkpt lat="31.398820001631975" lon="-4.190838010981679">
        <ele>794.29999999999995</ele>
        <time>2003-04-17T17:13:22Z</time>
      </trkpt>
      <trkpt lat="31.399675039574504" lon="-4.191558016464114">
        <ele>795.79999999999995</ele>
        <time>2003-04-17T17:13:29Z</time>
      </trkpt>
      <trkpt lat="31.400535022839904" lon="-4.192305011674762">
        <ele>797.39999999999998</ele>
        <time>2003-04-17T17:13:35Z</time>
      </trkpt>
      <trkpt lat="31.401291992515326" lon="-4.192938013002276">
        <ele>798.39999999999998</ele>
        <time>2003-04-17T17:13:40Z</time>
      </trkpt>
      <trkpt lat="31.402148036286235" lon="-4.193681990727782">
        <ele>799.10000000000002</ele>
        <time>2003-04-17T17:13:45Z</time>
      </trkpt>
      <trkpt lat="31.402987986803055" lon="-4.194392021745443">
        <ele>800</ele>
        <time>2003-04-17T17:13:52Z</time>
      </trkpt>
      <trkpt lat="31.403802037239075" lon="-4.195082020014525">
        <ele>801</ele>
        <time>2003-04-17T17:13:57Z</time>
      </trkpt>
      <trkpt lat="31.404651962220669" lon="-4.195815017446876">
        <ele>802.5</ele>
        <time>2003-04-17T17:14:04Z</time>
      </trkpt>
      <trkpt lat="31.405517980456352" lon="-4.196548014879227">
        <ele>805.5</ele>
        <time>2003-04-17T17:14:10Z</time>
      </trkpt>
      <trkpt lat="31.406322978436947" lon="-4.197240024805069">
        <ele>809.10000000000002</ele>
        <time>2003-04-17T17:14:15Z</time>
      </trkpt>
      <trkpt lat="31.407156977802515" lon="-4.197947038337588">
        <ele>808.10000000000002</ele>
        <time>2003-04-17T17:14:22Z</time>
      </trkpt>
      <trkpt lat="31.407900033518672" lon="-4.198588002473116">
        <ele>806.39999999999998</ele>
        <time>2003-04-17T17:14:27Z</time>
      </trkpt>
      <trkpt lat="31.40864996239543" lon="-4.199231984093785">
        <ele>807.70000000000005</ele>
        <time>2003-04-17T17:14:31Z</time>
      </trkpt>
      <trkpt lat="31.409432999789715" lon="-4.199898010119796">
        <ele>809.10000000000002</ele>
        <time>2003-04-17T17:14:37Z</time>
      </trkpt>
      <trkpt lat="31.410230034962296" lon="-4.200578033924103">
        <ele>810.39999999999998</ele>
        <time>2003-04-17T17:14:42Z</time>
      </trkpt>
      <trkpt lat="31.411035032942891" lon="-4.201265014708042">
        <ele>810.79999999999995</ele>
        <time>2003-04-17T17:14:46Z</time>
      </trkpt>
      <trkpt lat="31.411841958761215" lon="-4.201947972178459">
        <ele>811.29999999999995</ele>
        <time>2003-04-17T17:14:51Z</time>
      </trkpt>
      <trkpt lat="31.412618039175868" lon="-4.202622966840863">
        <ele>811.89999999999998</ele>
        <time>2003-04-17T17:14:57Z</time>
      </trkpt>
      <trkpt lat="31.413380037993193" lon="-4.2032599914819">
        <ele>811.5</ele>
        <time>2003-04-17T17:15:01Z</time>
      </trkpt>
      <trkpt lat="31.414237003773451" lon="-4.203974967822433">
        <ele>810.89999999999998</ele>
        <time>2003-04-17T17:15:08Z</time>
      </trkpt>
      <trkpt lat="31.415036972612143" lon="-4.204681981354952">
        <ele>811.60000000000002</ele>
        <time>2003-04-17T17:15:13Z</time>
      </trkpt>
      <trkpt lat="31.415901985019445" lon="-4.205420007929206">
        <ele>812.70000000000005</ele>
        <time>2003-04-17T17:15:20Z</time>
      </trkpt>
      <trkpt lat="31.416658032685518" lon="-4.20607496984303">
        <ele>815.29999999999995</ele>
        <time>2003-04-17T17:15:25Z</time>
      </trkpt>
      <trkpt lat="31.417442997917533" lon="-4.206736972555518">
        <ele>816.70000000000005</ele>
        <time>2003-04-17T17:15:29Z</time>
      </trkpt>
      <trkpt lat="31.418208014219999" lon="-4.207407021895051">
        <ele>816.79999999999995</ele>
        <time>2003-04-17T17:15:35Z</time>
      </trkpt>
      <trkpt lat="31.41894000582397" lon="-4.208086961880326">
        <ele>817</ele>
        <time>2003-04-17T17:15:40Z</time>
      </trkpt>
      <trkpt lat="31.419637966901064" lon="-4.208794981241226">
        <ele>816.60000000000002</ele>
        <time>2003-04-17T17:15:44Z</time>
      </trkpt>
      <trkpt lat="31.420361995697021" lon="-4.209520015865564">
        <ele>816.29999999999995</ele>
        <time>2003-04-17T17:15:50Z</time>
      </trkpt>
      <trkpt lat="31.42108803614974" lon="-4.210252007469535">
        <ele>816</ele>
        <time>2003-04-17T17:15:55Z</time>
      </trkpt>
      <trkpt lat="31.421820027753711" lon="-4.210988022387028">
        <ele>816.29999999999995</ele>
        <time>2003-04-17T17:15:59Z</time>
      </trkpt>
      <trkpt lat="31.422537015751004" lon="-4.211708027869463">
        <ele>815.79999999999995</ele>
        <time>2003-04-17T17:16:04Z</time>
      </trkpt>
      <trkpt lat="31.423249980434775" lon="-4.212429961189628">
        <ele>815.20000000000005</ele>
        <time>2003-04-17T17:16:10Z</time>
      </trkpt>
      <trkpt lat="31.423977026715875" lon="-4.213151978328824">
        <ele>815.20000000000005</ele>
        <time>2003-04-17T17:16:15Z</time>
      </trkpt>
      <trkpt lat="31.424708012491465" lon="-4.213886987417936">
        <ele>816.70000000000005</ele>
        <time>2003-04-17T17:16:19Z</time>
      </trkpt>
      <trkpt lat="31.425394993275404" lon="-4.214585032314062">
        <ele>817.79999999999995</ele>
        <time>2003-04-17T17:16:25Z</time>
      </trkpt>
      <trkpt lat="31.426207032054663" lon="-4.215390030294657">
        <ele>819.70000000000005</ele>
        <time>2003-04-17T17:16:30Z</time>
      </trkpt>
      <trkpt lat="31.427022004500031" lon="-4.216217994689941">
        <ele>821.29999999999995</ele>
        <time>2003-04-17T17:16:37Z</time>
      </trkpt>
      <trkpt lat="31.427824990823865" lon="-4.2170300334692">
        <ele>822.10000000000002</ele>
        <time>2003-04-17T17:16:42Z</time>
      </trkpt>
      <trkpt lat="31.42860702238977" lon="-4.217817010357976">
        <ele>822.79999999999995</ele>
        <time>2003-04-17T17:16:49Z</time>
      </trkpt>
      <trkpt lat="31.429197024554014" lon="-4.218550007790327">
        <ele>823.29999999999995</ele>
        <time>2003-04-17T17:16:53Z</time>
      </trkpt>
      <trkpt lat="31.429472034797072" lon="-4.219089969992638">
        <ele>822.60000000000002</ele>
        <time>2003-04-17T17:16:57Z</time>
      </trkpt>
      <trkpt lat="31.429876964539289" lon="-4.220071993768215">
        <ele>821.79999999999995</ele>
        <time>2003-04-17T17:17:01Z</time>
      </trkpt>
      <trkpt lat="31.430366970598698" lon="-4.221172034740448">
        <ele>820.39999999999998</ele>
        <time>2003-04-17T17:17:08Z</time>
      </trkpt>
      <trkpt lat="31.43077801913023" lon="-4.222152968868613">
        <ele>817.70000000000005</ele>
        <time>2003-04-17T17:17:13Z</time>
      </trkpt>
      <trkpt lat="31.430916991084814" lon="-4.222682034596801">
        <ele>815.70000000000005</ele>
        <time>2003-04-17T17:17:16Z</time>
      </trkpt>
      <trkpt lat="31.430962001904845" lon="-4.223038014024496">
        <ele>814.29999999999995</ele>
        <time>2003-04-17T17:17:19Z</time>
      </trkpt>
      <trkpt lat="31.431040037423372" lon="-4.224090026691556">
        <ele>810.70000000000005</ele>
        <time>2003-04-17T17:17:24Z</time>
      </trkpt>
      <trkpt lat="31.431112037971616" lon="-4.224580032750964">
        <ele>808.79999999999995</ele>
        <time>2003-04-17T17:17:28Z</time>
      </trkpt>
      <trkpt lat="31.431238017976284" lon="-4.225019998848438">
        <ele>806.70000000000005</ele>
        <time>2003-04-17T17:17:31Z</time>
      </trkpt>
      <trkpt lat="31.431406997144222" lon="-4.225398022681475">
        <ele>804.60000000000002</ele>
        <time>2003-04-17T17:17:33Z</time>
      </trkpt>
      <trkpt lat="31.431885017082095" lon="-4.226292036473751">
        <ele>798.79999999999995</ele>
        <time>2003-04-17T17:17:42Z</time>
      </trkpt>
      <trkpt lat="31.432358007878065" lon="-4.227156965062022">
        <ele>798.79999999999995</ele>
        <time>2003-04-17T17:17:51Z</time>
      </trkpt>
      <trkpt lat="31.432571997866035" lon="-4.2275570333004">
        <ele>800.5</ele>
        <time>2003-04-17T17:17:55Z</time>
      </trkpt>
      <trkpt lat="31.432630000635982" lon="-4.227658035233617">
        <ele>802.10000000000002</ele>
        <time>2003-04-17T17:18:00Z</time>
      </trkpt>
      <trkpt lat="31.432767966762185" lon="-4.227894991636276">
        <ele>804.60000000000002</ele>
        <time>2003-04-17T17:18:07Z</time>
      </trkpt>
      <trkpt lat="31.433025039732456" lon="-4.228409975767136">
        <ele>806.89999999999998</ele>
        <time>2003-04-17T17:18:19Z</time>
      </trkpt>
      <trkpt lat="31.433135010302067" lon="-4.228605022653937">
        <ele>807.10000000000002</ele>
        <time>2003-04-17T17:18:23Z</time>
      </trkpt>
      <trkpt lat="31.433376995846629" lon="-4.229089999571443">
        <ele>808.20000000000005</ele>
        <time>2003-04-17T17:18:32Z</time>
      </trkpt>
      <trkpt lat="31.433432986959815" lon="-4.229204999282956">
        <ele>807.79999999999995</ele>
        <time>2003-04-17T17:18:34Z</time>
      </trkpt>
      <trkpt lat="31.433882005512714" lon="-4.230132959783077">
        <ele>809.10000000000002</ele>
        <time>2003-04-17T17:18:54Z</time>
      </trkpt>
      <trkpt lat="31.433945037424564" lon="-4.230237985029817">
        <ele>808.70000000000005</ele>
        <time>2003-04-17T17:18:57Z</time>
      </trkpt>
      <trkpt lat="31.434013014659286" lon="-4.230349967256188">
        <ele>809.20000000000005</ele>
        <time>2003-04-17T17:19:01Z</time>
      </trkpt>
      <trkpt lat="31.434061964973807" lon="-4.230447029694915">
        <ele>809.5</ele>
        <time>2003-04-17T17:19:04Z</time>
      </trkpt>
      <trkpt lat="31.434119967743754" lon="-4.230572003871203">
        <ele>809.5</ele>
        <time>2003-04-17T17:19:05Z</time>
      </trkpt>
      <trkpt lat="31.434567980468273" lon="-4.231495019048452">
        <ele>810.39999999999998</ele>
        <time>2003-04-17T17:19:20Z</time>
      </trkpt>
      <trkpt lat="31.435035020112991" lon="-4.232454998418689">
        <ele>811</ele>
        <time>2003-04-17T17:19:32Z</time>
      </trkpt>
      <trkpt lat="31.435274994000793" lon="-4.232933018356562">
        <ele>811.89999999999998</ele>
        <time>2003-04-17T17:19:39Z</time>
      </trkpt>
      <trkpt lat="31.435474986210465" lon="-4.233301989734173">
        <ele>812.89999999999998</ele>
        <time>2003-04-17T17:19:57Z</time>
      </trkpt>
      <trkpt lat="31.43556802533567" lon="-4.23331699334085">
        <ele>812.29999999999995</ele>
        <time>2003-04-17T17:19:59Z</time>
      </trkpt>
      <trkpt lat="31.435653017833829" lon="-4.233278017491102">
        <ele>811.79999999999995</ele>
        <time>2003-04-17T17:20:02Z</time>
      </trkpt>
      <trkpt lat="31.435855021700263" lon="-4.233167041093111">
        <ele>811.39999999999998</ele>
        <time>2003-04-17T17:20:06Z</time>
      </trkpt>
      <trkpt lat="31.436219969764352" lon="-4.232971994206309">
        <ele>811.70000000000005</ele>
        <time>2003-04-17T17:20:14Z</time>
      </trkpt>
      <trkpt lat="31.437045000493526" lon="-4.232552982866764">
        <ele>809.89999999999998</ele>
        <time>2003-04-17T17:20:34Z</time>
      </trkpt>
      <trkpt lat="31.437822002917528" lon="-4.232179988175631">
        <ele>810.10000000000002</ele>
        <time>2003-04-17T17:20:49Z</time>
      </trkpt>
      <trkpt lat="31.438702018931508" lon="-4.231759971007705">
        <ele>809.60000000000002</ele>
        <time>2003-04-17T17:21:04Z</time>
      </trkpt>
      <trkpt lat="31.439237035810947" lon="-4.231519997119904">
        <ele>809.39999999999998</ele>
        <time>2003-04-17T17:21:14Z</time>
      </trkpt>
      <trkpt lat="31.439586980268359" lon="-4.231357974931598">
        <ele>809.60000000000002</ele>
        <time>2003-04-17T17:21:19Z</time>
      </trkpt>
      <trkpt lat="31.439684964716434" lon="-4.231316987425089">
        <ele>810.5</ele>
        <time>2003-04-17T17:21:26Z</time>
      </trkpt>
      <trkpt lat="31.439778003841639" lon="-4.231272982433438">
        <ele>811.20000000000005</ele>
        <time>2003-04-17T17:21:28Z</time>
      </trkpt>
      <trkpt lat="31.440252000465989" lon="-4.231065027415752">
        <ele>811.60000000000002</ele>
        <time>2003-04-17T17:21:39Z</time>
      </trkpt>
      <trkpt lat="31.440519969910383" lon="-4.23093200661242">
        <ele>811.5</ele>
        <time>2003-04-17T17:21:43Z</time>
      </trkpt>
      <trkpt lat="31.441309964284301" lon="-4.230592036619782">
        <ele>811.29999999999995</ele>
        <time>2003-04-17T17:21:55Z</time>
      </trkpt>
      <trkpt lat="31.441518003121018" lon="-4.230500003322959">
        <ele>811.89999999999998</ele>
        <time>2003-04-17T17:22:01Z</time>
      </trkpt>
      <trkpt lat="31.441599978134036" lon="-4.230436971411109">
        <ele>811.60000000000002</ele>
        <time>2003-04-17T17:22:05Z</time>
      </trkpt>
      <trkpt lat="31.441652029752731" lon="-4.230349967256188">
        <ele>811.89999999999998</ele>
        <time>2003-04-17T17:22:10Z</time>
      </trkpt>
      <trkpt lat="31.441677007824183" lon="-4.230247037485242">
        <ele>813.39999999999998</ele>
        <time>2003-04-17T17:22:17Z</time>
      </trkpt>
      <trkpt lat="31.441787984222174" lon="-4.230236979201436">
        <ele>841.70000000000005</ele>
        <time>2003-04-17T17:23:51Z</time>
      </trkpt>
      <trkpt lat="31.441653035581112" lon="-4.230219963937998">
        <ele>790.29999999999995</ele>
        <time>2003-04-17T17:24:51Z</time>
      </trkpt>
      <trkpt lat="31.441590003669262" lon="-4.23013798892498">
        <ele>767.70000000000005</ele>
        <time>2003-04-17T17:25:53Z</time>
      </trkpt>
      <trkpt lat="31.441746996715665" lon="-4.230147041380405">
        <ele>782.5</ele>
        <time>2003-04-17T17:27:09Z</time>
      </trkpt>
      <trkpt lat="31.441832995042205" lon="-4.230076968669891">
        <ele>795.20000000000005</ele>
        <time>2003-04-17T17:28:38Z</time>
      </trkpt>
      <trkpt lat="31.441424963995814" lon="-4.23005199059844">
        <ele>791.79999999999995</ele>
        <time>2003-04-17T17:28:48Z</time>
      </trkpt>
      <trkpt lat="31.441662004217505" lon="-4.230076968669891">
        <ele>788</ele>
        <time>2003-04-17T17:28:51Z</time>
      </trkpt>
      <trkpt lat="31.441771974787116" lon="-4.230102030560374">
        <ele>787.10000000000002</ele>
        <time>2003-04-17T17:28:54Z</time>
      </trkpt>
      <trkpt lat="31.441956963390112" lon="-4.23011502251029">
        <ele>825.60000000000002</ele>
        <time>2003-04-17T17:37:01Z</time>
      </trkpt>
      <trkpt lat="31.442042961716652" lon="-4.230224993079901">
        <ele>816.29999999999995</ele>
        <time>2003-04-17T17:37:05Z</time>
      </trkpt>
      <trkpt lat="31.44214203581214" lon="-4.230221975594759">
        <ele>816.20000000000005</ele>
        <time>2003-04-17T17:37:08Z</time>
      </trkpt>
      <trkpt lat="31.44231797195971" lon="-4.230155004188418">
        <ele>817.20000000000005</ele>
        <time>2003-04-17T17:37:16Z</time>
      </trkpt>
      <trkpt lat="31.442551994696259" lon="-4.23002801835537">
        <ele>818</ele>
        <time>2003-04-17T17:38:06Z</time>
      </trkpt>
      <trkpt lat="31.442643022164702" lon="-4.229973033070564">
        <ele>817.39999999999998</ele>
        <time>2003-04-17T17:38:20Z</time>
      </trkpt>
      <trkpt lat="31.442743018269539" lon="-4.22992198728025">
        <ele>817.5</ele>
        <time>2003-04-17T17:38:22Z</time>
      </trkpt>
      <trkpt lat="31.442921971902251" lon="-4.229819979518652">
        <ele>817.39999999999998</ele>
        <time>2003-04-17T17:38:25Z</time>
      </trkpt>
      <trkpt lat="31.443077037110925" lon="-4.22972702421248">
        <ele>817.29999999999995</ele>
        <time>2003-04-17T17:38:26Z</time>
      </trkpt>
      <trkpt lat="31.443414995446801" lon="-4.229486966505647">
        <ele>817</ele>
        <time>2003-04-17T17:38:30Z</time>
      </trkpt>
      <trkpt lat="31.444002985954285" lon="-4.229069966822863">
        <ele>817.20000000000005</ele>
        <time>2003-04-17T17:38:37Z</time>
      </trkpt>
      <trkpt lat="31.444798009470105" lon="-4.228517012670636">
        <ele>817.20000000000005</ele>
        <time>2003-04-17T17:38:45Z</time>
      </trkpt>
      <trkpt lat="31.445567971095443" lon="-4.228066988289356">
        <ele>817.20000000000005</ele>
        <time>2003-04-17T17:38:52Z</time>
      </trkpt>
      <trkpt lat="31.446523005142808" lon="-4.227676978334785">
        <ele>817.20000000000005</ele>
        <time>2003-04-17T17:39:01Z</time>
      </trkpt>
      <trkpt lat="31.447478039190173" lon="-4.227392999455333">
        <ele>817.89999999999998</ele>
        <time>2003-04-17T17:39:11Z</time>
      </trkpt>
      <trkpt lat="31.44779303111136" lon="-4.227256961166859">
        <ele>817.89999999999998</ele>
        <time>2003-04-17T17:39:14Z</time>
      </trkpt>
      <trkpt lat="31.448637004941702" lon="-4.226847002282739">
        <ele>818.70000000000005</ele>
        <time>2003-04-17T17:39:22Z</time>
      </trkpt>
      <trkpt lat="31.44955700263381" lon="-4.226430002599955">
        <ele>818.79999999999995</ele>
        <time>2003-04-17T17:39:30Z</time>
      </trkpt>
      <trkpt lat="31.449905019253492" lon="-4.226311985403299">
        <ele>819.29999999999995</ele>
        <time>2003-04-17T17:39:32Z</time>
      </trkpt>
      <trkpt lat="31.450795009732246" lon="-4.226128002628684">
        <ele>819.39999999999998</ele>
        <time>2003-04-17T17:39:39Z</time>
      </trkpt>
      <trkpt lat="31.451752977445722" lon="-4.225972015410662">
        <ele>819.60000000000002</ele>
        <time>2003-04-17T17:39:46Z</time>
      </trkpt>
      <trkpt lat="31.452442975714803" lon="-4.225783003494144">
        <ele>819.29999999999995</ele>
        <time>2003-04-17T17:39:51Z</time>
      </trkpt>
      <trkpt lat="31.452831979840994" lon="-4.225553004071116">
        <ele>819.29999999999995</ele>
        <time>2003-04-17T17:39:54Z</time>
      </trkpt>
      <trkpt lat="31.45368299447" lon="-4.224961996078491">
        <ele>819.29999999999995</ele>
        <time>2003-04-17T17:40:02Z</time>
      </trkpt>
      <trkpt lat="31.454290011897683" lon="-4.224524963647127">
        <ele>819.79999999999995</ele>
        <time>2003-04-17T17:40:06Z</time>
      </trkpt>
      <trkpt lat="31.455001970753074" lon="-4.223877964541316">
        <ele>820.39999999999998</ele>
        <time>2003-04-17T17:40:13Z</time>
      </trkpt>
      <trkpt lat="31.45531696267426" lon="-4.223632961511612">
        <ele>820.70000000000005</ele>
        <time>2003-04-17T17:40:16Z</time>
      </trkpt>
      <trkpt lat="31.455458030104637" lon="-4.223521985113621">
        <ele>821</ele>
        <time>2003-04-17T17:40:17Z</time>
      </trkpt>
      <trkpt lat="31.455588033422828" lon="-4.223428023979068">
        <ele>821.10000000000002</ele>
        <time>2003-04-17T17:40:20Z</time>
      </trkpt>
      <trkpt lat="31.456275014206767" lon="-4.222922008484602">
        <ele>821.39999999999998</ele>
        <time>2003-04-17T17:40:29Z</time>
      </trkpt>
      <trkpt lat="31.456731995567679" lon="-4.222535016015172">
        <ele>821.89999999999998</ele>
        <time>2003-04-17T17:40:35Z</time>
      </trkpt>
      <trkpt lat="31.457177996635437" lon="-4.222192028537393">
        <ele>822.10000000000002</ele>
        <time>2003-04-17T17:40:39Z</time>
      </trkpt>
      <trkpt lat="31.457664985209703" lon="-4.221897991374135">
        <ele>822.70000000000005</ele>
        <time>2003-04-17T17:40:43Z</time>
      </trkpt>
      <trkpt lat="31.457996992394328" lon="-4.22177704051137">
        <ele>822.89999999999998</ele>
        <time>2003-04-17T17:40:45Z</time>
      </trkpt>
      <trkpt lat="31.458143005147576" lon="-4.221722977235913">
        <ele>822.79999999999995</ele>
        <time>2003-04-17T17:40:48Z</time>
      </trkpt>
      <trkpt lat="31.458463026210666" lon="-4.221590040251613">
        <ele>822.39999999999998</ele>
        <time>2003-04-17T17:40:52Z</time>
      </trkpt>
      <trkpt lat="31.458769971504807" lon="-4.221382001414895">
        <ele>822.20000000000005</ele>
        <time>2003-04-17T17:40:56Z</time>
      </trkpt>
      <trkpt lat="31.458857981488109" lon="-4.221298014745116">
        <ele>822.10000000000002</ele>
        <time>2003-04-17T17:40:57Z</time>
      </trkpt>
      <trkpt lat="31.459232987836003" lon="-4.220929965376854">
        <ele>821.89999999999998</ele>
        <time>2003-04-17T17:41:04Z</time>
      </trkpt>
      <trkpt lat="31.459447983652353" lon="-4.22068496234715">
        <ele>822.10000000000002</ele>
        <time>2003-04-17T17:41:07Z</time>
      </trkpt>
      <trkpt lat="31.459777979180217" lon="-4.220323031768203">
        <ele>822.10000000000002</ele>
        <time>2003-04-17T17:41:11Z</time>
      </trkpt>
      <trkpt lat="31.460527991876006" lon="-4.219548041000962">
        <ele>822.20000000000005</ele>
        <time>2003-04-17T17:41:19Z</time>
      </trkpt>
      <trkpt lat="31.461084969341755" lon="-4.218902969732881">
        <ele>822.70000000000005</ele>
        <time>2003-04-17T17:41:27Z</time>
      </trkpt>
      <trkpt lat="31.46120198071003" lon="-4.21877003274858">
        <ele>822.70000000000005</ele>
        <time>2003-04-17T17:41:29Z</time>
      </trkpt>
      <trkpt lat="31.461706990376115" lon="-4.21829997561872">
        <ele>822.89999999999998</ele>
        <time>2003-04-17T17:41:35Z</time>
      </trkpt>
      <trkpt lat="31.462497990578413" lon="-4.217637972906232">
        <ele>823.20000000000005</ele>
        <time>2003-04-17T17:41:46Z</time>
      </trkpt>
      <trkpt lat="31.463220007717609" lon="-4.216949986293912">
        <ele>823.29999999999995</ele>
        <time>2003-04-17T17:41:57Z</time>
      </trkpt>
      <trkpt lat="31.463470039889216" lon="-4.216777989640832">
        <ele>822.79999999999995</ele>
        <time>2003-04-17T17:42:00Z</time>
      </trkpt>
      <trkpt lat="31.463887039572001" lon="-4.21658000908792">
        <ele>821.79999999999995</ele>
        <time>2003-04-17T17:42:05Z</time>
      </trkpt>
      <trkpt lat="31.464077979326248" lon="-4.216552013531327">
        <ele>821.60000000000002</ele>
        <time>2003-04-17T17:42:06Z</time>
      </trkpt>
      <trkpt lat="31.464400012046099" lon="-4.216557964682579">
        <ele>821.39999999999998</ele>
        <time>2003-04-17T17:42:09Z</time>
      </trkpt>
      <trkpt lat="31.464630011469126" lon="-4.216619990766048">
        <ele>821.39999999999998</ele>
        <time>2003-04-17T17:42:12Z</time>
      </trkpt>
      <trkpt lat="31.465440038591623" lon="-4.216949986293912">
        <ele>821.29999999999995</ele>
        <time>2003-04-17T17:42:20Z</time>
      </trkpt>
      <trkpt lat="31.465964997187257" lon="-4.217147966846824">
        <ele>821.29999999999995</ele>
        <time>2003-04-17T17:42:25Z</time>
      </trkpt>
      <trkpt lat="31.466153003275394" lon="-4.217157019302249">
        <ele>821.39999999999998</ele>
        <time>2003-04-17T17:42:28Z</time>
      </trkpt>
      <trkpt lat="31.466243024915457" lon="-4.21711795963347">
        <ele>821.29999999999995</ele>
        <time>2003-04-17T17:42:28Z</time>
      </trkpt>
      <trkpt lat="31.466321982443333" lon="-4.217062974348664">
        <ele>821</ele>
        <time>2003-04-17T17:42:29Z</time>
      </trkpt>
      <trkpt lat="31.466622976586223" lon="-4.216897012665868">
        <ele>821.20000000000005</ele>
        <time>2003-04-17T17:42:33Z</time>
      </trkpt>
      <trkpt lat="31.467180037871003" lon="-4.216702971607447">
        <ele>821.29999999999995</ele>
        <time>2003-04-17T17:42:40Z</time>
      </trkpt>
      <trkpt lat="31.467463010922074" lon="-4.21651697717607">
        <ele>821.20000000000005</ele>
        <time>2003-04-17T17:42:44Z</time>
      </trkpt>
      <trkpt lat="31.46762696094811" lon="-4.216416981071234">
        <ele>820.60000000000002</ele>
        <time>2003-04-17T17:42:47Z</time>
      </trkpt>
      <trkpt lat="31.467827958986163" lon="-4.216314973309636">
        <ele>820.29999999999995</ele>
        <time>2003-04-17T17:42:51Z</time>
      </trkpt>
      <trkpt lat="31.46796802058816" lon="-4.216292006894946">
        <ele>820.10000000000002</ele>
        <time>2003-04-17T17:42:54Z</time>
      </trkpt>
      <trkpt lat="31.468128031119704" lon="-4.21629804186523">
        <ele>820.10000000000002</ele>
        <time>2003-04-17T17:42:55Z</time>
      </trkpt>
      <trkpt lat="31.468298016116023" lon="-4.216369958594441">
        <ele>820.20000000000005</ele>
        <time>2003-04-17T17:42:58Z</time>
      </trkpt>
      <trkpt lat="31.468436988070607" lon="-4.216498034074903">
        <ele>820.39999999999998</ele>
        <time>2003-04-17T17:42:59Z</time>
      </trkpt>
      <trkpt lat="31.468811994418502" lon="-4.216902041807771">
        <ele>820.60000000000002</ele>
        <time>2003-04-17T17:43:04Z</time>
      </trkpt>
      <trkpt lat="31.46906697191298" lon="-4.217191971838474">
        <ele>820.39999999999998</ele>
        <time>2003-04-17T17:43:08Z</time>
      </trkpt>
      <trkpt lat="31.469237040728331" lon="-4.217351982370019">
        <ele>820.70000000000005</ele>
        <time>2003-04-17T17:43:11Z</time>
      </trkpt>
      <trkpt lat="31.469392022117972" lon="-4.217405039817095">
        <ele>820.79999999999995</ele>
        <time>2003-04-17T17:43:14Z</time>
      </trkpt>
      <trkpt lat="31.469562007114291" lon="-4.217391964048147">
        <ele>820.89999999999998</ele>
        <time>2003-04-17T17:43:15Z</time>
      </trkpt>
      <trkpt lat="31.469852020964026" lon="-4.217321975156665">
        <ele>821</ele>
        <time>2003-04-17T17:43:19Z</time>
      </trkpt>
      <trkpt lat="31.470661964267492" lon="-4.217028021812439">
        <ele>821.89999999999998</ele>
        <time>2003-04-17T17:43:26Z</time>
      </trkpt>
      <trkpt lat="31.471103020012379" lon="-4.216842027381063">
        <ele>822.20000000000005</ele>
        <time>2003-04-17T17:43:30Z</time>
      </trkpt>
      <trkpt lat="31.472097029909492" lon="-4.216542961075902">
        <ele>823</ele>
        <time>2003-04-17T17:43:39Z</time>
      </trkpt>
      <trkpt lat="31.472939997911453" lon="-4.216353027150035">
        <ele>825.10000000000002</ele>
        <time>2003-04-17T17:43:46Z</time>
      </trkpt>
      <trkpt lat="31.47332196123898" lon="-4.216335006058216">
        <ele>825.20000000000005</ele>
        <time>2003-04-17T17:43:49Z</time>
      </trkpt>
      <trkpt lat="31.474298033863306" lon="-4.216437013819814">
        <ele>825.10000000000002</ele>
        <time>2003-04-17T17:43:56Z</time>
      </trkpt>
      <trkpt lat="31.475348034873605" lon="-4.21653700992465">
        <ele>825.20000000000005</ele>
        <time>2003-04-17T17:44:02Z</time>
      </trkpt>
      <trkpt lat="31.476282030344009" lon="-4.216572968289256">
        <ele>825.10000000000002</ele>
        <time>2003-04-17T17:44:09Z</time>
      </trkpt>
      <trkpt lat="31.477311998605728" lon="-4.216608004644513">
        <ele>825.79999999999995</ele>
        <time>2003-04-17T17:44:16Z</time>
      </trkpt>
      <trkpt lat="31.477590026333928" lon="-4.216608004644513">
        <ele>826</ele>
        <time>2003-04-17T17:44:17Z</time>
      </trkpt>
      <trkpt lat="31.478555034846067" lon="-4.216649997979403">
        <ele>825.10000000000002</ele>
        <time>2003-04-17T17:44:24Z</time>
      </trkpt>
      <trkpt lat="31.47946497425437" lon="-4.21668796800077">
        <ele>824.79999999999995</ele>
        <time>2003-04-17T17:44:32Z</time>
      </trkpt>
      <trkpt lat="31.480420008301735" lon="-4.21672803349793">
        <ele>824.60000000000002</ele>
        <time>2003-04-17T17:44:38Z</time>
      </trkpt>
      <trkpt lat="31.481430027633905" lon="-4.216768015176058">
        <ele>824.39999999999998</ele>
        <time>2003-04-17T17:44:43Z</time>
      </trkpt>
      <trkpt lat="31.482424959540367" lon="-4.216800034046173">
        <ele>824.20000000000005</ele>
        <time>2003-04-17T17:44:50Z</time>
      </trkpt>
      <trkpt lat="31.482742968946695" lon="-4.216792993247509">
        <ele>824.20000000000005</ele>
        <time>2003-04-17T17:44:51Z</time>
      </trkpt>
      <trkpt lat="31.483065001666546" lon="-4.216734990477562">
        <ele>824.20000000000005</ele>
        <time>2003-04-17T17:44:54Z</time>
      </trkpt>
      <trkpt lat="31.483506979420781" lon="-4.216582020744681">
        <ele>824</ele>
        <time>2003-04-17T17:44:56Z</time>
      </trkpt>
      <trkpt lat="31.483902018517256" lon="-4.216355038806796">
        <ele>823.89999999999998</ele>
        <time>2003-04-17T17:44:59Z</time>
      </trkpt>
      <trkpt lat="31.484250035136938" lon="-4.216057984158397">
        <ele>823.89999999999998</ele>
        <time>2003-04-17T17:45:03Z</time>
      </trkpt>
      <trkpt lat="31.484511969611049" lon="-4.215772999450564">
        <ele>824.10000000000002</ele>
        <time>2003-04-17T17:45:06Z</time>
      </trkpt>
      <trkpt lat="31.485189981758595" lon="-4.215030027553439">
        <ele>823.29999999999995</ele>
        <time>2003-04-17T17:45:13Z</time>
      </trkpt>
      <trkpt lat="31.485860031098127" lon="-4.214220000430942">
        <ele>822.79999999999995</ele>
        <time>2003-04-17T17:45:22Z</time>
      </trkpt>
      <trkpt lat="31.486524967476726" lon="-4.213456995785236">
        <ele>822.79999999999995</ele>
        <time>2003-04-17T17:45:30Z</time>
      </trkpt>
      <trkpt lat="31.486656982451677" lon="-4.213322969153523">
        <ele>823</ele>
        <time>2003-04-17T17:45:32Z</time>
      </trkpt>
      <trkpt lat="31.486777011305094" lon="-4.213236970826984">
        <ele>823</ele>
        <time>2003-04-17T17:45:34Z</time>
      </trkpt>
      <trkpt lat="31.486880024895072" lon="-4.213254991918802">
        <ele>822.89999999999998</ele>
        <time>2003-04-17T17:45:36Z</time>
      </trkpt>
      <trkpt lat="31.486971974372864" lon="-4.213362028822303">
        <ele>823.10000000000002</ele>
        <time>2003-04-17T17:45:38Z</time>
      </trkpt>
      <trkpt lat="31.4870719704777" lon="-4.213473005220294">
        <ele>823.20000000000005</ele>
        <time>2003-04-17T17:45:42Z</time>
      </trkpt>
      <trkpt lat="31.487201973795891" lon="-4.213599991053343">
        <ele>823.70000000000005</ele>
        <time>2003-04-17T17:45:49Z</time>
      </trkpt>
      <trkpt lat="31.48728302679956" lon="-4.213675009086728">
        <ele>823.89999999999998</ele>
        <time>2003-04-17T17:45:52Z</time>
      </trkpt>
      <trkpt lat="31.487453011795878" lon="-4.213577024638653">
        <ele>823.60000000000002</ele>
        <time>2003-04-17T17:46:01Z</time>
      </trkpt>
    </trkseg>
  </trk>

  <trk>
    <name>030418</name>
    <extensions>
      <gpxx:TrackExtension xmlns:gpxx="http://www.garmin.com/xmlschemas/GpxExtensions/v3">
        <gpxx:DisplayColor>Cyan</gpxx:DisplayColor>
      </gpxx:TrackExtension>
    </extensions>
    <trkseg>
      <trkpt lat="31.487368019297719" lon="-4.213579958304763">
        <ele>-236.80000000000001</ele>
        <time>2003-04-18T08:15:37Z</time>
      </trkpt>
      <trkpt lat="31.487291995435953" lon="-4.213514998555183">
        <ele>844.29999999999995</ele>
        <time>2003-04-18T08:15:40Z</time>
      </trkpt>
      <trkpt lat="31.487189987674356" lon="-4.213505024090409">
        <ele>849.89999999999998</ele>
        <time>2003-04-18T08:15:43Z</time>
      </trkpt>
      <trkpt lat="31.486999969929457" lon="-4.213424976915121">
        <ele>829.79999999999995</ele>
        <time>2003-04-18T08:15:48Z</time>
      </trkpt>
      <trkpt lat="31.486835014075041" lon="-4.213297991082072">
        <ele>828.39999999999998</ele>
        <time>2003-04-18T08:15:54Z</time>
      </trkpt>
      <trkpt lat="31.486718002706766" lon="-4.213302014395595">
        <ele>827.89999999999998</ele>
        <time>2003-04-18T08:15:56Z</time>
      </trkpt>
      <trkpt lat="31.486612977460027" lon="-4.213384995236993">
        <ele>827.79999999999995</ele>
        <time>2003-04-18T08:15:59Z</time>
      </trkpt>
      <trkpt lat="31.486422959715128" lon="-4.213603008538485">
        <ele>827.60000000000002</ele>
        <time>2003-04-18T08:16:04Z</time>
      </trkpt>
      <trkpt lat="31.486266972497106" lon="-4.213784979656339">
        <ele>827.20000000000005</ele>
        <time>2003-04-18T08:16:07Z</time>
      </trkpt>
      <trkpt lat="31.486022975295782" lon="-4.2140650190413">
        <ele>826.70000000000005</ele>
        <time>2003-04-18T08:16:11Z</time>
      </trkpt>
      <trkpt lat="31.485329959541559" lon="-4.214872028678656">
        <ele>825.39999999999998</ele>
        <time>2003-04-18T08:16:22Z</time>
      </trkpt>
      <trkpt lat="31.484641972929239" lon="-4.215654982253909">
        <ele>825</ele>
        <time>2003-04-18T08:16:31Z</time>
      </trkpt>
      <trkpt lat="31.484329998493195" lon="-4.216007022187114">
        <ele>825.10000000000002</ele>
        <time>2003-04-18T08:16:37Z</time>
      </trkpt>
      <trkpt lat="31.4840620290488" lon="-4.216259988024831">
        <ele>825.10000000000002</ele>
        <time>2003-04-18T08:16:41Z</time>
      </trkpt>
      <trkpt lat="31.483797999098897" lon="-4.216446988284588">
        <ele>824.39999999999998</ele>
        <time>2003-04-18T08:16:44Z</time>
      </trkpt>
      <trkpt lat="31.483383011072874" lon="-4.216667013242841">
        <ele>824</ele>
        <time>2003-04-18T08:16:48Z</time>
      </trkpt>
      <trkpt lat="31.482916977256536" lon="-4.216801961883903">
        <ele>823.79999999999995</ele>
        <time>2003-04-18T08:16:52Z</time>
      </trkpt>
      <trkpt lat="31.482435017824173" lon="-4.216846972703934">
        <ele>823.89999999999998</ele>
        <time>2003-04-18T08:16:56Z</time>
      </trkpt>
      <trkpt lat="31.481745019555092" lon="-4.216832974925637">
        <ele>824</ele>
        <time>2003-04-18T08:17:01Z</time>
      </trkpt>
      <trkpt lat="31.48081798106432" lon="-4.216801961883903">
        <ele>824.39999999999998</ele>
        <time>2003-04-18T08:17:06Z</time>
      </trkpt>
      <trkpt lat="31.479867976158857" lon="-4.216755023226142">
        <ele>824.60000000000002</ele>
        <time>2003-04-18T08:17:13Z</time>
      </trkpt>
      <trkpt lat="31.478923000395298" lon="-4.216723004356027">
        <ele>824.89999999999998</ele>
        <time>2003-04-18T08:17:19Z</time>
      </trkpt>
      <trkpt lat="31.477978024631739" lon="-4.216683022677898">
        <ele>825.29999999999995</ele>
        <time>2003-04-18T08:17:24Z</time>
      </trkpt>
      <trkpt lat="31.477051991969347" lon="-4.216667013242841">
        <ele>826.29999999999995</ele>
        <time>2003-04-18T08:17:31Z</time>
      </trkpt>
      <trkpt lat="31.476138029247522" lon="-4.216625019907951">
        <ele>826.10000000000002</ele>
        <time>2003-04-18T08:17:36Z</time>
      </trkpt>
      <trkpt lat="31.47523001767695" lon="-4.216585038229823">
        <ele>826.20000000000005</ele>
        <time>2003-04-18T08:17:43Z</time>
      </trkpt>
      <trkpt lat="31.474302979186177" lon="-4.216495016589761">
        <ele>826.79999999999995</ele>
        <time>2003-04-18T08:17:48Z</time>
      </trkpt>
      <trkpt lat="31.473311986774206" lon="-4.216404994949698">
        <ele>826.79999999999995</ele>
        <time>2003-04-18T08:17:55Z</time>
      </trkpt>
      <trkpt lat="31.472817035391927" lon="-4.216427961364389">
        <ele>827</ele>
        <time>2003-04-18T08:17:59Z</time>
      </trkpt>
      <trkpt lat="31.472400035709143" lon="-4.216529969125986">
        <ele>826.70000000000005</ele>
        <time>2003-04-18T08:18:03Z</time>
      </trkpt>
      <trkpt lat="31.471420023590326" lon="-4.216792993247509">
        <ele>826</ele>
        <time>2003-04-18T08:18:10Z</time>
      </trkpt>
      <trkpt lat="31.470732036978006" lon="-4.217058029025793">
        <ele>825.20000000000005</ele>
        <time>2003-04-18T08:18:14Z</time>
      </trkpt>
      <trkpt lat="31.469956962391734" lon="-4.217364974319935">
        <ele>824.5</ele>
        <time>2003-04-18T08:18:21Z</time>
      </trkpt>
      <trkpt lat="31.469746995717287" lon="-4.217403028160334">
        <ele>824.39999999999998</ele>
        <time>2003-04-18T08:18:22Z</time>
      </trkpt>
      <trkpt lat="31.469262018799782" lon="-4.217436974868178">
        <ele>824.10000000000002</ele>
        <time>2003-04-18T08:18:27Z</time>
      </trkpt>
      <trkpt lat="31.469165040180087" lon="-4.217375032603741">
        <ele>824.10000000000002</ele>
        <time>2003-04-18T08:18:29Z</time>
      </trkpt>
      <trkpt lat="31.469077030196786" lon="-4.217285010963678">
        <ele>823.89999999999998</ele>
        <time>2003-04-18T08:18:30Z</time>
      </trkpt>
      <trkpt lat="31.468622982501984" lon="-4.216768015176058">
        <ele>822.60000000000002</ele>
        <time>2003-04-18T08:18:34Z</time>
      </trkpt>
      <trkpt lat="31.468247976154089" lon="-4.216404994949698">
        <ele>821.70000000000005</ele>
        <time>2003-04-18T08:18:38Z</time>
      </trkpt>
      <trkpt lat="31.468144962564111" lon="-4.216347998008132">
        <ele>821.5</ele>
        <time>2003-04-18T08:18:40Z</time>
      </trkpt>
      <trkpt lat="31.468032980337739" lon="-4.216320002451539">
        <ele>821.5</ele>
        <time>2003-04-18T08:18:41Z</time>
      </trkpt>
      <trkpt lat="31.46792502142489" lon="-4.216325031593442">
        <ele>821.5</ele>
        <time>2003-04-18T08:18:41Z</time>
      </trkpt>
      <trkpt lat="31.467823013663292" lon="-4.216346992179751">
        <ele>821.60000000000002</ele>
        <time>2003-04-18T08:18:42Z</time>
      </trkpt>
      <trkpt lat="31.467727962881327" lon="-4.216397032141686">
        <ele>821.70000000000005</ele>
        <time>2003-04-18T08:18:44Z</time>
      </trkpt>
      <trkpt lat="31.467277016490698" lon="-4.216686962172389">
        <ele>821.39999999999998</ele>
        <time>2003-04-18T08:18:49Z</time>
      </trkpt>
      <trkpt lat="31.467096973210573" lon="-4.216791987419128">
        <ele>821.10000000000002</ele>
        <time>2003-04-18T08:18:50Z</time>
      </trkpt>
      <trkpt lat="31.466802014037967" lon="-4.21690296381712">
        <ele>820.29999999999995</ele>
        <time>2003-04-18T08:18:53Z</time>
      </trkpt>
      <trkpt lat="31.466197008267045" lon="-4.217162970453501">
        <ele>819.39999999999998</ele>
        <time>2003-04-18T08:19:00Z</time>
      </trkpt>
      <trkpt lat="31.46610296331346" lon="-4.217213010415435">
        <ele>819.5</ele>
        <time>2003-04-18T08:19:01Z</time>
      </trkpt>
      <trkpt lat="31.465997016057372" lon="-4.217217033728957">
        <ele>819.60000000000002</ele>
        <time>2003-04-18T08:19:01Z</time>
      </trkpt>
      <trkpt lat="31.465885033831" lon="-4.217187026515603">
        <ele>819.5</ele>
        <time>2003-04-18T08:19:03Z</time>
      </trkpt>
      <trkpt lat="31.465772967785597" lon="-4.217136986553669">
        <ele>819.29999999999995</ele>
        <time>2003-04-18T08:19:04Z</time>
      </trkpt>
      <trkpt lat="31.465280028060079" lon="-4.21694302931428">
        <ele>819</ele>
        <time>2003-04-18T08:19:08Z</time>
      </trkpt>
      <trkpt lat="31.464407974854112" lon="-4.216617979109287">
        <ele>819</ele>
        <time>2003-04-18T08:19:15Z</time>
      </trkpt>
      <trkpt lat="31.464177975431085" lon="-4.216593001037836">
        <ele>819.10000000000002</ele>
        <time>2003-04-18T08:19:16Z</time>
      </trkpt>
      <trkpt lat="31.463959962129593" lon="-4.216608004644513">
        <ele>819.10000000000002</ele>
        <time>2003-04-18T08:19:19Z</time>
      </trkpt>
      <trkpt lat="31.463757958263159" lon="-4.216662989929318">
        <ele>819.39999999999998</ele>
        <time>2003-04-18T08:19:20Z</time>
      </trkpt>
      <trkpt lat="31.463499963283539" lon="-4.216777989640832">
        <ele>819.70000000000005</ele>
        <time>2003-04-18T08:19:24Z</time>
      </trkpt>
      <trkpt lat="31.463141972199082" lon="-4.217064986005426">
        <ele>820.10000000000002</ele>
        <time>2003-04-18T08:19:28Z</time>
      </trkpt>
      <trkpt lat="31.462642997503281" lon="-4.217547029256821">
        <ele>820.60000000000002</ele>
        <time>2003-04-18T08:19:34Z</time>
      </trkpt>
      <trkpt lat="31.461882004514337" lon="-4.218226969242096">
        <ele>819.70000000000005</ele>
        <time>2003-04-18T08:19:39Z</time>
      </trkpt>
      <trkpt lat="31.461380012333393" lon="-4.218627037480474">
        <ele>819.89999999999998</ele>
        <time>2003-04-18T08:19:44Z</time>
      </trkpt>
      <trkpt lat="31.460837032645941" lon="-4.219247968867421">
        <ele>819.60000000000002</ele>
        <time>2003-04-18T08:19:51Z</time>
      </trkpt>
      <trkpt lat="31.460079979151487" lon="-4.220078028738499">
        <ele>819.10000000000002</ele>
        <time>2003-04-18T08:19:58Z</time>
      </trkpt>
      <trkpt lat="31.459389980882406" lon="-4.220801973715425">
        <ele>818.60000000000002</ele>
        <time>2003-04-18T08:20:03Z</time>
      </trkpt>
      <trkpt lat="31.4587979670614" lon="-4.221403039991856">
        <ele>817.39999999999998</ele>
        <time>2003-04-18T08:20:09Z</time>
      </trkpt>
      <trkpt lat="31.458402005955577" lon="-4.221662962809205">
        <ele>817.20000000000005</ele>
        <time>2003-04-18T08:20:11Z</time>
      </trkpt>
      <trkpt lat="31.457517966628075" lon="-4.222020031884313">
        <ele>816.39999999999998</ele>
        <time>2003-04-18T08:20:18Z</time>
      </trkpt>
      <trkpt lat="31.457252008840442" lon="-4.222178030759096">
        <ele>816.10000000000002</ele>
        <time>2003-04-18T08:20:21Z</time>
      </trkpt>
      <trkpt lat="31.456467965617776" lon="-4.222798040136695">
        <ele>815.29999999999995</ele>
        <time>2003-04-18T08:20:26Z</time>
      </trkpt>
      <trkpt lat="31.455618040636182" lon="-4.223457025364041">
        <ele>814.5</ele>
        <time>2003-04-18T08:20:33Z</time>
      </trkpt>
      <trkpt lat="31.454802984371781" lon="-4.224081980064511">
        <ele>813.10000000000002</ele>
        <time>2003-04-18T08:20:41Z</time>
      </trkpt>
      <trkpt lat="31.454432001337409" lon="-4.224439971148968">
        <ele>813.20000000000005</ele>
        <time>2003-04-18T08:20:45Z</time>
      </trkpt>
      <trkpt lat="31.454271990805864" lon="-4.224563017487526">
        <ele>813.29999999999995</ele>
        <time>2003-04-18T08:20:47Z</time>
      </trkpt>
      <trkpt lat="31.453812997788191" lon="-4.224886978045106">
        <ele>813.29999999999995</ele>
        <time>2003-04-18T08:20:52Z</time>
      </trkpt>
      <trkpt lat="31.453002970665693" lon="-4.225461976602674">
        <ele>813.29999999999995</ele>
        <time>2003-04-18T08:20:59Z</time>
      </trkpt>
      <trkpt lat="31.452354965731502" lon="-4.2258629668504">
        <ele>813.39999999999998</ele>
        <time>2003-04-18T08:21:04Z</time>
      </trkpt>
      <trkpt lat="31.451932014897466" lon="-4.225976960733533">
        <ele>813.39999999999998</ele>
        <time>2003-04-18T08:21:07Z</time>
      </trkpt>
      <trkpt lat="31.450970023870468" lon="-4.226148035377264">
        <ele>813.79999999999995</ele>
        <time>2003-04-18T08:21:14Z</time>
      </trkpt>
      <trkpt lat="31.449950030073524" lon="-4.226335035637021">
        <ele>814.70000000000005</ele>
        <time>2003-04-18T08:21:20Z</time>
      </trkpt>
      <trkpt lat="31.449357010424137" lon="-4.226537039503455">
        <ele>813.79999999999995</ele>
        <time>2003-04-18T08:21:24Z</time>
      </trkpt>
      <trkpt lat="31.448486968874931" lon="-4.226925037801266">
        <ele>814.29999999999995</ele>
        <time>2003-04-18T08:21:31Z</time>
      </trkpt>
      <trkpt lat="31.447572000324726" lon="-4.227337008342147">
        <ele>813.60000000000002</ele>
        <time>2003-04-18T08:21:38Z</time>
      </trkpt>
      <trkpt lat="31.446670023724437" lon="-4.227677984163165">
        <ele>812.79999999999995</ele>
        <time>2003-04-18T08:21:45Z</time>
      </trkpt>
      <trkpt lat="31.445718007162213" lon="-4.228077968582511">
        <ele>812.60000000000002</ele>
        <time>2003-04-18T08:21:53Z</time>
      </trkpt>
      <trkpt lat="31.444832039996982" lon="-4.228588007390499">
        <ele>812.29999999999995</ele>
        <time>2003-04-18T08:21:59Z</time>
      </trkpt>
      <trkpt lat="31.443974990397692" lon="-4.229186978191137">
        <ele>811.29999999999995</ele>
        <time>2003-04-18T08:22:06Z</time>
      </trkpt>
      <trkpt lat="31.443166974931955" lon="-4.229758037254214">
        <ele>810.70000000000005</ele>
        <time>2003-04-18T08:22:13Z</time>
      </trkpt>
      <trkpt lat="31.442787023261189" lon="-4.2299850191921">
        <ele>811.10000000000002</ele>
        <time>2003-04-18T08:22:17Z</time>
      </trkpt>
      <trkpt lat="31.442646961659193" lon="-4.230055008083582">
        <ele>810.79999999999995</ele>
        <time>2003-04-18T08:22:20Z</time>
      </trkpt>
      <trkpt lat="31.44253296777606" lon="-4.230119967833161">
        <ele>809.5</ele>
        <time>2003-04-18T08:22:21Z</time>
      </trkpt>
      <trkpt lat="31.442321995273232" lon="-4.230212001129985">
        <ele>809.29999999999995</ele>
        <time>2003-04-18T08:22:25Z</time>
      </trkpt>
      <trkpt lat="31.442053020000458" lon="-4.230327000841498">
        <ele>808.5</ele>
        <time>2003-04-18T08:22:33Z</time>
      </trkpt>
      <trkpt lat="31.441959980875254" lon="-4.23035298474133">
        <ele>808.39999999999998</ele>
        <time>2003-04-18T08:22:37Z</time>
      </trkpt>
      <trkpt lat="31.441820003092289" lon="-4.230402018874884">
        <ele>808.60000000000002</ele>
        <time>2003-04-18T08:22:40Z</time>
      </trkpt>
      <trkpt lat="31.441711960360408" lon="-4.230424985289574">
        <ele>807.10000000000002</ele>
        <time>2003-04-18T08:22:44Z</time>
      </trkpt>
      <trkpt lat="31.441684970632195" lon="-4.230319960042834">
        <ele>806.70000000000005</ele>
        <time>2003-04-18T08:22:47Z</time>
      </trkpt>
      <trkpt lat="31.441787984222174" lon="-4.230257011950016">
        <ele>807.70000000000005</ele>
        <time>2003-04-18T08:22:51Z</time>
      </trkpt>
      <trkpt lat="31.441957969218493" lon="-4.230212001129985">
        <ele>811.89999999999998</ele>
        <time>2003-04-18T08:23:08Z</time>
      </trkpt>
      <trkpt lat="31.442117979750037" lon="-4.230247959494591">
        <ele>822.39999999999998</ele>
        <time>2003-04-18T09:32:10Z</time>
      </trkpt>
      <trkpt lat="31.442206995561719" lon="-4.230206971988082">
        <ele>824.29999999999995</ele>
        <time>2003-04-18T09:32:18Z</time>
      </trkpt>
      <trkpt lat="31.442325012758374" lon="-4.230162966996431">
        <ele>826.89999999999998</ele>
        <time>2003-04-18T09:32:29Z</time>
      </trkpt>
      <trkpt lat="31.442342028021812" lon="-4.230049978941679">
        <ele>829</ele>
        <time>2003-04-18T09:33:09Z</time>
      </trkpt>
      <trkpt lat="31.442479994148016" lon="-4.230057019740343">
        <ele>819.60000000000002</ele>
        <time>2003-04-18T09:36:24Z</time>
      </trkpt>
      <trkpt lat="31.44274796359241" lon="-4.229955011978746">
        <ele>819.5</ele>
        <time>2003-04-18T09:36:31Z</time>
      </trkpt>
      <trkpt lat="31.442902022972703" lon="-4.229870019480586">
        <ele>819.39999999999998</ele>
        <time>2003-04-18T09:36:33Z</time>
      </trkpt>
      <trkpt lat="31.443030014634132" lon="-4.229776980355382">
        <ele>819.5</ele>
        <time>2003-04-18T09:36:36Z</time>
      </trkpt>
      <trkpt lat="31.443322962149978" lon="-4.229570031166077">
        <ele>819.79999999999995</ele>
        <time>2003-04-18T09:36:40Z</time>
      </trkpt>
      <trkpt lat="31.443595038726926" lon="-4.229368027299643">
        <ele>820.70000000000005</ele>
        <time>2003-04-18T09:36:43Z</time>
      </trkpt>
      <trkpt lat="31.444127960130572" lon="-4.228986985981464">
        <ele>821.20000000000005</ele>
        <time>2003-04-18T09:36:48Z</time>
      </trkpt>
      <trkpt lat="31.444927006959915" lon="-4.228456998243928">
        <ele>821.20000000000005</ele>
        <time>2003-04-18T09:36:55Z</time>
      </trkpt>
      <trkpt lat="31.445617005228996" lon="-4.228072017431259">
        <ele>821</ele>
        <time>2003-04-18T09:37:00Z</time>
      </trkpt>
      <trkpt lat="31.446498027071357" lon="-4.227687958627939">
        <ele>821</ele>
        <time>2003-04-18T09:37:07Z</time>
      </trkpt>
      <trkpt lat="31.447502011433244" lon="-4.22732301056385">
        <ele>822.10000000000002</ele>
        <time>2003-04-18T09:37:15Z</time>
      </trkpt>
      <trkpt lat="31.448483029380441" lon="-4.22687198035419">
        <ele>822.20000000000005</ele>
        <time>2003-04-18T09:37:21Z</time>
      </trkpt>
      <trkpt lat="31.449351981282234" lon="-4.22648498788476">
        <ele>822.29999999999995</ele>
        <time>2003-04-18T09:37:26Z</time>
      </trkpt>
      <trkpt lat="31.449851961806417" lon="-4.226307040080428">
        <ele>821.39999999999998</ele>
        <time>2003-04-18T09:37:29Z</time>
      </trkpt>
      <trkpt lat="31.450777994468808" lon="-4.226152980700135">
        <ele>821.29999999999995</ele>
        <time>2003-04-18T09:37:34Z</time>
      </trkpt>
      <trkpt lat="31.451799999922514" lon="-4.225960029289126">
        <ele>821.60000000000002</ele>
        <time>2003-04-18T09:37:41Z</time>
      </trkpt>
      <trkpt lat="31.452422020956874" lon="-4.225818039849401">
        <ele>821.70000000000005</ele>
        <time>2003-04-18T09:37:45Z</time>
      </trkpt>
      <trkpt lat="31.452862992882729" lon="-4.225540012121201">
        <ele>821.60000000000002</ele>
        <time>2003-04-18T09:37:48Z</time>
      </trkpt>
      <trkpt lat="31.453658016398549" lon="-4.224987979978323">
        <ele>821.5</ele>
        <time>2003-04-18T09:37:53Z</time>
      </trkpt>
      <trkpt lat="31.454495033249259" lon="-4.224388003349304">
        <ele>821.70000000000005</ele>
        <time>2003-04-18T09:37:57Z</time>
      </trkpt>
      <trkpt lat="31.454629981890321" lon="-4.224239978939295">
        <ele>821.79999999999995</ele>
        <time>2003-04-18T09:37:58Z</time>
      </trkpt>
      <trkpt lat="31.455042036250234" lon="-4.2238649725914">
        <ele>822.29999999999995</ele>
        <time>2003-04-18T09:38:01Z</time>
      </trkpt>
      <trkpt lat="31.455909982323647" lon="-4.22319701872766">
        <ele>823</ele>
        <time>2003-04-18T09:38:08Z</time>
      </trkpt>
      <trkpt lat="31.456680027768016" lon="-4.222611961886287">
        <ele>823</ele>
        <time>2003-04-18T09:38:13Z</time>
      </trkpt>
      <trkpt lat="31.457474967464805" lon="-4.221996981650591">
        <ele>822.89999999999998</ele>
        <time>2003-04-18T09:38:17Z</time>
      </trkpt>
      <trkpt lat="31.457843016833067" lon="-4.221837976947427">
        <ele>822.89999999999998</ele>
        <time>2003-04-18T09:38:20Z</time>
      </trkpt>
      <trkpt lat="31.458765026181936" lon="-4.221406979486346">
        <ele>823.20000000000005</ele>
        <time>2003-04-18T09:38:24Z</time>
      </trkpt>
      <trkpt lat="31.45907498896122" lon="-4.22111202031374">
        <ele>823.70000000000005</ele>
        <time>2003-04-18T09:38:27Z</time>
      </trkpt>
      <trkpt lat="31.459831958636642" lon="-4.22027500346303">
        <ele>824.89999999999998</ele>
        <time>2003-04-18T09:38:32Z</time>
      </trkpt>
      <trkpt lat="31.460617007687688" lon="-4.219479979947209">
        <ele>825</ele>
        <time>2003-04-18T09:38:36Z</time>
      </trkpt>
      <trkpt lat="31.461256965994835" lon="-4.218722004443407">
        <ele>825.29999999999995</ele>
        <time>2003-04-18T09:38:42Z</time>
      </trkpt>
      <trkpt lat="31.461757030338049" lon="-4.218262005597353">
        <ele>825.5</ele>
        <time>2003-04-18T09:38:46Z</time>
      </trkpt>
      <trkpt lat="31.462607961148024" lon="-4.217537976801395">
        <ele>825.70000000000005</ele>
        <time>2003-04-18T09:38:51Z</time>
      </trkpt>
      <trkpt lat="31.463320003822446" lon="-4.216861976310611">
        <ele>825.5</ele>
        <time>2003-04-18T09:38:56Z</time>
      </trkpt>
      <trkpt lat="31.463638013228774" lon="-4.216682016849518">
        <ele>825.29999999999995</ele>
        <time>2003-04-18T09:38:59Z</time>
      </trkpt>
      <trkpt lat="31.463962979614735" lon="-4.216547990217805">
        <ele>825.29999999999995</ele>
        <time>2003-04-18T09:39:00Z</time>
      </trkpt>
      <trkpt lat="31.464131958782673" lon="-4.216528041288257">
        <ele>825.20000000000005</ele>
        <time>2003-04-18T09:39:02Z</time>
      </trkpt>
      <trkpt lat="31.464298004284501" lon="-4.216540027409792">
        <ele>824.89999999999998</ele>
        <time>2003-04-18T09:39:03Z</time>
      </trkpt>
      <trkpt lat="31.464462960138917" lon="-4.21658000908792">
        <ele>824.60000000000002</ele>
        <time>2003-04-18T09:39:03Z</time>
      </trkpt>
      <trkpt lat="31.465139966458082" lon="-4.216840015724301">
        <ele>824.29999999999995</ele>
        <time>2003-04-18T09:39:09Z</time>
      </trkpt>
      <trkpt lat="31.465937001630664" lon="-4.217179985716939">
        <ele>823.79999999999995</ele>
        <time>2003-04-18T09:39:13Z</time>
      </trkpt>
      <trkpt lat="31.466053007170558" lon="-4.21720496378839">
        <ele>823.89999999999998</ele>
        <time>2003-04-18T09:39:14Z</time>
      </trkpt>
      <trkpt lat="31.466158032417297" lon="-4.217183003202081">
        <ele>823.79999999999995</ele>
        <time>2003-04-18T09:39:14Z</time>
      </trkpt>
      <trkpt lat="31.466252999380231" lon="-4.217127012088895">
        <ele>823.79999999999995</ele>
        <time>2003-04-18T09:39:15Z</time>
      </trkpt>
      <trkpt lat="31.466773012652993" lon="-4.216864993795753">
        <ele>823.39999999999998</ele>
        <time>2003-04-18T09:39:21Z</time>
      </trkpt>
      <trkpt lat="31.467178026214242" lon="-4.216710012406111">
        <ele>823.29999999999995</ele>
        <time>2003-04-18T09:39:23Z</time>
      </trkpt>
      <trkpt lat="31.467308029532433" lon="-4.216629965230823">
        <ele>823.39999999999998</ele>
        <time>2003-04-18T09:39:25Z</time>
      </trkpt>
      <trkpt lat="31.467932984232903" lon="-4.216299969702959">
        <ele>823.79999999999995</ele>
        <time>2003-04-18T09:39:30Z</time>
      </trkpt>
      <trkpt lat="31.468042032793164" lon="-4.216286977753043">
        <ele>824</ele>
        <time>2003-04-18T09:39:30Z</time>
      </trkpt>
      <trkpt lat="31.468142028898001" lon="-4.216304998844862">
        <ele>824.20000000000005</ele>
        <time>2003-04-18T09:39:32Z</time>
      </trkpt>
      <trkpt lat="31.468238001689315" lon="-4.216350009664893">
        <ele>824.10000000000002</ele>
        <time>2003-04-18T09:39:33Z</time>
      </trkpt>
      <trkpt lat="31.468328023329377" lon="-4.216417986899614">
        <ele>824</ele>
        <time>2003-04-18T09:39:34Z</time>
      </trkpt>
      <trkpt lat="31.468497002497315" lon="-4.216593001037836">
        <ele>824.20000000000005</ele>
        <time>2003-04-18T09:39:36Z</time>
      </trkpt>
      <trkpt lat="31.468692971393466" lon="-4.216802967712283">
        <ele>824</ele>
        <time>2003-04-18T09:39:38Z</time>
      </trkpt>
      <trkpt lat="31.469265036284924" lon="-4.217411996796727">
        <ele>824.70000000000005</ele>
        <time>2003-04-18T09:39:48Z</time>
      </trkpt>
      <trkpt lat="31.469414988532662" lon="-4.217448038980365">
        <ele>824.60000000000002</ele>
        <time>2003-04-18T09:39:49Z</time>
      </trkpt>
      <trkpt lat="31.469505010172725" lon="-4.217442004010081">
        <ele>824.70000000000005</ele>
        <time>2003-04-18T09:39:50Z</time>
      </trkpt>
      <trkpt lat="31.469677006825805" lon="-4.217402022331953">
        <ele>824.60000000000002</ele>
        <time>2003-04-18T09:39:53Z</time>
      </trkpt>
      <trkpt lat="31.470353007316589" lon="-4.217212004587054">
        <ele>825.29999999999995</ele>
        <time>2003-04-18T09:40:00Z</time>
      </trkpt>
      <trkpt lat="31.470630029216409" lon="-4.217077977955341">
        <ele>825.70000000000005</ele>
        <time>2003-04-18T09:40:03Z</time>
      </trkpt>
      <trkpt lat="31.470830021426082" lon="-4.21698996797204">
        <ele>826.10000000000002</ele>
        <time>2003-04-18T09:40:04Z</time>
      </trkpt>
      <trkpt lat="31.471077958121896" lon="-4.216904975473881">
        <ele>826.29999999999995</ele>
        <time>2003-04-18T09:40:07Z</time>
      </trkpt>
      <trkpt lat="31.471529994159937" lon="-4.216762986034155">
        <ele>827</ele>
        <time>2003-04-18T09:40:09Z</time>
      </trkpt>
      <trkpt lat="31.472522998228669" lon="-4.216462997719646">
        <ele>827.5</ele>
        <time>2003-04-18T09:40:16Z</time>
      </trkpt>
      <trkpt lat="31.473266975954175" lon="-4.216347998008132">
        <ele>828.29999999999995</ele>
        <time>2003-04-18T09:40:20Z</time>
      </trkpt>
      <trkpt lat="31.473854966461658" lon="-4.216369958594441">
        <ele>828.89999999999998</ele>
        <time>2003-04-18T09:40:23Z</time>
      </trkpt>
      <trkpt lat="31.474271966144443" lon="-4.216465009376407">
        <ele>828.89999999999998</ele>
        <time>2003-04-18T09:40:24Z</time>
      </trkpt>
      <trkpt lat="31.475352980196476" lon="-4.216568022966385">
        <ele>829.10000000000002</ele>
        <time>2003-04-18T09:40:30Z</time>
      </trkpt>
      <trkpt lat="31.476284964010119" lon="-4.216612027958036">
        <ele>828.60000000000002</ele>
        <time>2003-04-18T09:40:34Z</time>
      </trkpt>
      <trkpt lat="31.47727302275598" lon="-4.216655027121306">
        <ele>827.89999999999998</ele>
        <time>2003-04-18T09:40:39Z</time>
      </trkpt>
      <trkpt lat="31.478295028209686" lon="-4.21668796800077">
        <ele>827.70000000000005</ele>
        <time>2003-04-18T09:40:42Z</time>
      </trkpt>
      <trkpt lat="31.479352992027998" lon="-4.216715041548014">
        <ele>827.20000000000005</ele>
        <time>2003-04-18T09:40:46Z</time>
      </trkpt>
      <trkpt lat="31.480437023565173" lon="-4.216752005741">
        <ele>826.5</ele>
        <time>2003-04-18T09:40:50Z</time>
      </trkpt>
      <trkpt lat="31.481528012081981" lon="-4.216791987419128">
        <ele>826</ele>
        <time>2003-04-18T09:40:54Z</time>
      </trkpt>
      <trkpt lat="31.482556974515319" lon="-4.21681696549058">
        <ele>825.5</ele>
        <time>2003-04-18T09:40:58Z</time>
      </trkpt>
      <trkpt lat="31.482798038050532" lon="-4.216798022389412">
        <ele>825.39999999999998</ele>
        <time>2003-04-18T09:40:58Z</time>
      </trkpt>
      <trkpt lat="31.483249990269542" lon="-4.216700037941337">
        <ele>825.70000000000005</ele>
        <time>2003-04-18T09:41:01Z</time>
      </trkpt>
      <trkpt lat="31.483661960810423" lon="-4.216519994661212">
        <ele>825.29999999999995</ele>
        <time>2003-04-18T09:41:02Z</time>
      </trkpt>
      <trkpt lat="31.484032021835446" lon="-4.216263005509973">
        <ele>825.60000000000002</ele>
        <time>2003-04-18T09:41:05Z</time>
      </trkpt>
      <trkpt lat="31.484381966292858" lon="-4.215939966961741">
        <ele>825.70000000000005</ele>
        <time>2003-04-18T09:41:06Z</time>
      </trkpt>
      <trkpt lat="31.485052015632391" lon="-4.215167993679643">
        <ele>826.20000000000005</ele>
        <time>2003-04-18T09:41:10Z</time>
      </trkpt>
      <trkpt lat="31.485713012516499" lon="-4.214386967942119">
        <ele>826.79999999999995</ele>
        <time>2003-04-18T09:41:14Z</time>
      </trkpt>
      <trkpt lat="31.486351964995265" lon="-4.213641984388232">
        <ele>827.29999999999995</ele>
        <time>2003-04-18T09:41:18Z</time>
      </trkpt>
      <trkpt lat="31.48711496964097" lon="-4.212788036093116">
        <ele>828.10000000000002</ele>
        <time>2003-04-18T09:41:24Z</time>
      </trkpt>
      <trkpt lat="31.487891972064972" lon="-4.211901985108852">
        <ele>829</ele>
        <time>2003-04-18T09:41:29Z</time>
      </trkpt>
      <trkpt lat="31.488535031676292" lon="-4.211162030696869">
        <ele>829.79999999999995</ele>
        <time>2003-04-18T09:41:33Z</time>
      </trkpt>
      <trkpt lat="31.489197034388781" lon="-4.210406988859177">
        <ele>830.70000000000005</ele>
        <time>2003-04-18T09:41:37Z</time>
      </trkpt>
      <trkpt lat="31.489877980202436" lon="-4.209627974778414">
        <ele>831.20000000000005</ele>
        <time>2003-04-18T09:41:41Z</time>
      </trkpt>
      <trkpt lat="31.49057300761342" lon="-4.208833035081625">
        <ele>831.79999999999995</ele>
        <time>2003-04-18T09:41:45Z</time>
      </trkpt>
      <trkpt lat="31.491283038631082" lon="-4.208025019615889">
        <ele>832.10000000000002</ele>
        <time>2003-04-18T09:41:49Z</time>
      </trkpt>
      <trkpt lat="31.492004971951246" lon="-4.207207029685378">
        <ele>832.70000000000005</ele>
        <time>2003-04-18T09:41:52Z</time>
      </trkpt>
      <trkpt lat="31.492724977433681" lon="-4.206383004784584">
        <ele>833.10000000000002</ele>
        <time>2003-04-18T09:41:56Z</time>
      </trkpt>
      <trkpt lat="31.49342997930944" lon="-4.205587981268764">
        <ele>833.79999999999995</ele>
        <time>2003-04-18T09:42:00Z</time>
      </trkpt>
      <trkpt lat="31.494134981185198" lon="-4.204782983288169">
        <ele>834.60000000000002</ele>
        <time>2003-04-18T09:42:04Z</time>
      </trkpt>
      <trkpt lat="31.494867978617549" lon="-4.204057026654482">
        <ele>835.89999999999998</ele>
        <time>2003-04-18T09:42:09Z</time>
      </trkpt>
      <trkpt lat="31.495452029630542" lon="-4.203614965081215">
        <ele>836.20000000000005</ele>
        <time>2003-04-18T09:42:12Z</time>
      </trkpt>
      <trkpt lat="31.495885038748384" lon="-4.203392006456852">
        <ele>836.10000000000002</ele>
        <time>2003-04-18T09:42:14Z</time>
      </trkpt>
      <trkpt lat="31.496760025620461" lon="-4.202971989288926">
        <ele>836</ele>
        <time>2003-04-18T09:42:18Z</time>
      </trkpt>
      <trkpt lat="31.49766300804913" lon="-4.202512996271253">
        <ele>836.29999999999995</ele>
        <time>2003-04-18T09:42:22Z</time>
      </trkpt>
      <trkpt lat="31.498602032661438" lon="-4.202037993818522">
        <ele>836.79999999999995</ele>
        <time>2003-04-18T09:42:26Z</time>
      </trkpt>
      <trkpt lat="31.499342992901802" lon="-4.201779998838902">
        <ele>836.89999999999998</ele>
        <time>2003-04-18T09:42:28Z</time>
      </trkpt>
      <trkpt lat="31.499869963154197" lon="-4.201715039089322">
        <ele>836.70000000000005</ele>
        <time>2003-04-18T09:42:31Z</time>
      </trkpt>
      <trkpt lat="31.500138016417623" lon="-4.201717972755432">
        <ele>836.5</ele>
        <time>2003-04-18T09:42:31Z</time>
      </trkpt>
      <trkpt lat="31.501220036298037" lon="-4.201834984123707">
        <ele>836</ele>
        <time>2003-04-18T09:42:35Z</time>
      </trkpt>
      <trkpt lat="31.502323010936379" lon="-4.201983008533716">
        <ele>835.79999999999995</ele>
        <time>2003-04-18T09:42:39Z</time>
      </trkpt>
      <trkpt lat="31.503445012494922" lon="-4.202130027115345">
        <ele>835.60000000000002</ele>
        <time>2003-04-18T09:42:43Z</time>
      </trkpt>
      <trkpt lat="31.504582017660141" lon="-4.202285008504987">
        <ele>835.70000000000005</ele>
        <time>2003-04-18T09:42:47Z</time>
      </trkpt>
      <trkpt lat="31.505692033097148" lon="-4.202391961589456">
        <ele>835</ele>
        <time>2003-04-18T09:42:51Z</time>
      </trkpt>
      <trkpt lat="31.505969977006316" lon="-4.202390033751726">
        <ele>834.79999999999995</ele>
        <time>2003-04-18T09:42:53Z</time>
      </trkpt>
      <trkpt lat="31.506507005542517" lon="-4.20229003764689">
        <ele>835.10000000000002</ele>
        <time>2003-04-18T09:42:54Z</time>
      </trkpt>
      <trkpt lat="31.507021989673376" lon="-4.202087027952075">
        <ele>836.20000000000005</ele>
        <time>2003-04-18T09:42:57Z</time>
      </trkpt>
      <trkpt lat="31.507507972419262" lon="-4.201800031587482">
        <ele>837.10000000000002</ele>
        <time>2003-04-18T09:42:58Z</time>
      </trkpt>
      <trkpt lat="31.507956990972161" lon="-4.201427036896348">
        <ele>837.20000000000005</ele>
        <time>2003-04-18T09:43:01Z</time>
      </trkpt>
      <trkpt lat="31.508816974237561" lon="-4.200605023652315">
        <ele>837.89999999999998</ele>
        <time>2003-04-18T09:43:05Z</time>
      </trkpt>
      <trkpt lat="31.509705036878586" lon="-4.199792984873056">
        <ele>838.29999999999995</ele>
        <time>2003-04-18T09:43:09Z</time>
      </trkpt>
      <trkpt lat="31.510610030964017" lon="-4.198972983285785">
        <ele>838.60000000000002</ele>
        <time>2003-04-18T09:43:13Z</time>
      </trkpt>
      <trkpt lat="31.511517036706209" lon="-4.198154993355274">
        <ele>840.29999999999995</ele>
        <time>2003-04-18T09:43:17Z</time>
      </trkpt>
      <trkpt lat="31.51242203079164" lon="-4.19732803478837">
        <ele>841.20000000000005</ele>
        <time>2003-04-18T09:43:21Z</time>
      </trkpt>
      <trkpt lat="31.513323001563549" lon="-4.196518007665873">
        <ele>843.70000000000005</ele>
        <time>2003-04-18T09:43:25Z</time>
      </trkpt>
      <trkpt lat="31.514215003699064" lon="-4.195694988593459">
        <ele>844.89999999999998</ele>
        <time>2003-04-18T09:43:29Z</time>
      </trkpt>
      <trkpt lat="31.515122009441257" lon="-4.194876998662949">
        <ele>845.10000000000002</ele>
        <time>2003-04-18T09:43:33Z</time>
      </trkpt>
      <trkpt lat="31.516022980213165" lon="-4.194041993469">
        <ele>846.70000000000005</ele>
        <time>2003-04-18T09:43:37Z</time>
      </trkpt>
      <trkpt lat="31.516920011490583" lon="-4.193243030458689">
        <ele>850</ele>
        <time>2003-04-18T09:43:40Z</time>
      </trkpt>
      <trkpt lat="31.51781796477735" lon="-4.192429985851049">
        <ele>851.10000000000002</ele>
        <time>2003-04-18T09:43:44Z</time>
      </trkpt>
      <trkpt lat="31.518720025196671" lon="-4.191605038940907">
        <ele>851.70000000000005</ele>
        <time>2003-04-18T09:43:48Z</time>
      </trkpt>
      <trkpt lat="31.519631976261735" lon="-4.190772967413068">
        <ele>852.60000000000002</ele>
        <time>2003-04-18T09:43:52Z</time>
      </trkpt>
      <trkpt lat="31.520572006702423" lon="-4.189966963604093">
        <ele>853.5</ele>
        <time>2003-04-18T09:43:56Z</time>
      </trkpt>
      <trkpt lat="31.521587977185845" lon="-4.189291968941689">
        <ele>852.89999999999998</ele>
        <time>2003-04-18T09:44:00Z</time>
      </trkpt>
      <trkpt lat="31.522617023438215" lon="-4.188628038391471">
        <ele>850.89999999999998</ele>
        <time>2003-04-18T09:44:04Z</time>
      </trkpt>
      <trkpt lat="31.523629976436496" lon="-4.187975004315376">
        <ele>848.79999999999995</ele>
        <time>2003-04-18T09:44:08Z</time>
      </trkpt>
      <trkpt lat="31.524647958576679" lon="-4.187332028523088">
        <ele>847.60000000000002</ele>
        <time>2003-04-18T09:44:12Z</time>
      </trkpt>
      <trkpt lat="31.525687985122204" lon="-4.186662985011935">
        <ele>845.29999999999995</ele>
        <time>2003-04-18T09:44:16Z</time>
      </trkpt>
      <trkpt lat="31.526476973667741" lon="-4.186144983395934">
        <ele>841.89999999999998</ele>
        <time>2003-04-18T09:44:19Z</time>
      </trkpt>
      <trkpt lat="31.527442988008261" lon="-4.185518017038703">
        <ele>842.60000000000002</ele>
        <time>2003-04-18T09:44:23Z</time>
      </trkpt>
      <trkpt lat="31.528276987373829" lon="-4.18499699793756">
        <ele>848.60000000000002</ele>
        <time>2003-04-18T09:44:27Z</time>
      </trkpt>
      <trkpt lat="31.528674960136414" lon="-4.184843022376299">
        <ele>850.5</ele>
        <time>2003-04-18T09:44:31Z</time>
      </trkpt>
      <trkpt lat="31.529105035588145" lon="-4.184751994907856">
        <ele>851.10000000000002</ele>
        <time>2003-04-18T09:44:31Z</time>
      </trkpt>
      <trkpt lat="31.529554976150393" lon="-4.184731962159276">
        <ele>851.60000000000002</ele>
        <time>2003-04-18T09:44:34Z</time>
      </trkpt>
      <trkpt lat="31.529784975573421" lon="-4.184749983251095">
        <ele>851</ele>
        <time>2003-04-18T09:44:34Z</time>
      </trkpt>
      <trkpt lat="31.530161993578076" lon="-4.184792982414365">
        <ele>851.20000000000005</ele>
        <time>2003-04-18T09:44:37Z</time>
      </trkpt>
      <trkpt lat="31.53042996302247" lon="-4.184821983799338">
        <ele>851.29999999999995</ele>
        <time>2003-04-18T09:44:38Z</time>
      </trkpt>
      <trkpt lat="31.531379967927933" lon="-4.184903036803007">
        <ele>851.10000000000002</ele>
        <time>2003-04-18T09:44:46Z</time>
      </trkpt>
      <trkpt lat="31.532216984778643" lon="-4.184967996552587">
        <ele>850.79999999999995</ele>
        <time>2003-04-18T09:44:50Z</time>
      </trkpt>
      <trkpt lat="31.53322197496891" lon="-4.185052989050746">
        <ele>850.60000000000002</ele>
        <time>2003-04-18T09:44:56Z</time>
      </trkpt>
      <trkpt lat="31.534332996234298" lon="-4.185137981548905">
        <ele>850.39999999999998</ele>
        <time>2003-04-18T09:45:01Z</time>
      </trkpt>
      <trkpt lat="31.535292975604534" lon="-4.185220040380955">
        <ele>850.5</ele>
        <time>2003-04-18T09:45:05Z</time>
      </trkpt>
      <trkpt lat="31.536293020471931" lon="-4.18529799208045">
        <ele>850.60000000000002</ele>
        <time>2003-04-18T09:45:09Z</time>
      </trkpt>
      <trkpt lat="31.537231961265206" lon="-4.185369992628694">
        <ele>850.70000000000005</ele>
        <time>2003-04-18T09:45:13Z</time>
      </trkpt>
      <trkpt lat="31.537935035303235" lon="-4.185507958754897">
        <ele>850.89999999999998</ele>
        <time>2003-04-18T09:45:17Z</time>
      </trkpt>
      <trkpt lat="31.538886968046427" lon="-4.185842983424664">
        <ele>852</ele>
        <time>2003-04-18T09:45:20Z</time>
      </trkpt>
      <trkpt lat="31.539776958525181" lon="-4.186137020587921">
        <ele>851.60000000000002</ele>
        <time>2003-04-18T09:45:24Z</time>
      </trkpt>
      <trkpt lat="31.540196975693107" lon="-4.186182031407952">
        <ele>851.39999999999998</ele>
        <time>2003-04-18T09:45:27Z</time>
      </trkpt>
      <trkpt lat="31.540386993438005" lon="-4.186167027801275">
        <ele>850.89999999999998</ele>
        <time>2003-04-18T09:45:28Z</time>
      </trkpt>
      <trkpt lat="31.540793012827635" lon="-4.186069965362549">
        <ele>851.29999999999995</ele>
        <time>2003-04-18T09:45:29Z</time>
      </trkpt>
      <trkpt lat="31.541873021051288" lon="-4.185790009796619">
        <ele>850.70000000000005</ele>
        <time>2003-04-18T09:45:35Z</time>
      </trkpt>
      <trkpt lat="31.54278296045959" lon="-4.185563027858734">
        <ele>851.79999999999995</ele>
        <time>2003-04-18T09:45:39Z</time>
      </trkpt>
      <trkpt lat="31.543730031698942" lon="-4.185333028435707">
        <ele>853</ele>
        <time>2003-04-18T09:45:43Z</time>
      </trkpt>
      <trkpt lat="31.544686993584037" lon="-4.185107974335551">
        <ele>854.39999999999998</ele>
        <time>2003-04-18T09:45:47Z</time>
      </trkpt>
      <trkpt lat="31.545689972117543" lon="-4.184964979067445">
        <ele>854</ele>
        <time>2003-04-18T09:45:51Z</time>
      </trkpt>
      <trkpt lat="31.546558002009988" lon="-4.184872023761272">
        <ele>854.60000000000002</ele>
        <time>2003-04-18T09:45:55Z</time>
      </trkpt>
      <trkpt lat="31.546875005587935" lon="-4.184834975749254">
        <ele>854.60000000000002</ele>
        <time>2003-04-18T09:45:56Z</time>
      </trkpt>
      <trkpt lat="31.547123026102781" lon="-4.184807986021042">
        <ele>854.5</ele>
        <time>2003-04-18T09:45:59Z</time>
      </trkpt>
      <trkpt lat="31.547576989978552" lon="-4.184753000736237">
        <ele>854.39999999999998</ele>
        <time>2003-04-18T09:46:03Z</time>
      </trkpt>
      <trkpt lat="31.547867003828287" lon="-4.184721987694502">
        <ele>854.29999999999995</ele>
        <time>2003-04-18T09:46:06Z</time>
      </trkpt>
      <trkpt lat="31.548019973561168" lon="-4.184702960774303">
        <ele>854.20000000000005</ele>
        <time>2003-04-18T09:46:07Z</time>
      </trkpt>
      <trkpt lat="31.548217032104731" lon="-4.184685023501515">
        <ele>854.10000000000002</ele>
        <time>2003-04-18T09:46:11Z</time>
      </trkpt>
      <trkpt lat="31.548370001837611" lon="-4.184668008238077">
        <ele>854</ele>
        <time>2003-04-18T09:46:14Z</time>
      </trkpt>
      <trkpt lat="31.548526994884014" lon="-4.184638001024723">
        <ele>853.89999999999998</ele>
        <time>2003-04-18T09:46:18Z</time>
      </trkpt>
      <trkpt lat="31.548626990988851" lon="-4.184573041275144">
        <ele>854</ele>
        <time>2003-04-18T09:46:22Z</time>
      </trkpt>
      <trkpt lat="31.548641994595528" lon="-4.184440020471811">
        <ele>859</ele>
        <time>2003-04-18T09:48:27Z</time>
      </trkpt>
      <trkpt lat="31.548697985708714" lon="-4.184338012710214">
        <ele>858.5</ele>
        <time>2003-04-18T09:48:41Z</time>
      </trkpt>
      <trkpt lat="31.548814997076988" lon="-4.184098038822413">
        <ele>858.60000000000002</ele>
        <time>2003-04-18T09:48:52Z</time>
      </trkpt>
      <trkpt lat="31.549009960144758" lon="-4.183826968073845">
        <ele>859.29999999999995</ele>
        <time>2003-04-18T09:49:00Z</time>
      </trkpt>
      <trkpt lat="31.549067040905356" lon="-4.183742981404066">
        <ele>859.29999999999995</ele>
        <time>2003-04-18T09:49:03Z</time>
      </trkpt>
      <trkpt lat="31.549201989546418" lon="-4.183537038043141">
        <ele>859.29999999999995</ele>
        <time>2003-04-18T09:49:08Z</time>
      </trkpt>
      <trkpt lat="31.549326963722706" lon="-4.18334199115634">
        <ele>859.29999999999995</ele>
        <time>2003-04-18T09:49:11Z</time>
      </trkpt>
      <trkpt lat="31.549432994797826" lon="-4.183173011988401">
        <ele>859.29999999999995</ele>
        <time>2003-04-18T09:49:12Z</time>
      </trkpt>
      <trkpt lat="31.550004975870252" lon="-4.182304982095957">
        <ele>860.10000000000002</ele>
        <time>2003-04-18T09:49:24Z</time>
      </trkpt>
      <trkpt lat="31.550552984699607" lon="-4.181465031579137">
        <ele>860.60000000000002</ele>
        <time>2003-04-18T09:49:34Z</time>
      </trkpt>
      <trkpt lat="31.551157990470529" lon="-4.180542016401887">
        <ele>861.10000000000002</ele>
        <time>2003-04-18T09:49:43Z</time>
      </trkpt>
      <trkpt lat="31.551495026797056" lon="-4.180032983422279">
        <ele>861.60000000000002</ele>
        <time>2003-04-18T09:49:48Z</time>
      </trkpt>
      <trkpt lat="31.552104977890849" lon="-4.179122960194945">
        <ele>862.29999999999995</ele>
        <time>2003-04-18T09:49:58Z</time>
      </trkpt>
      <trkpt lat="31.552711995318532" lon="-4.178200028836727">
        <ele>863.29999999999995</ele>
        <time>2003-04-18T09:50:06Z</time>
      </trkpt>
      <trkpt lat="31.553320018574595" lon="-4.177277013659477">
        <ele>863.79999999999995</ele>
        <time>2003-04-18T09:50:14Z</time>
      </trkpt>
      <trkpt lat="31.553908009082079" lon="-4.176439996808767">
        <ele>864.29999999999995</ele>
        <time>2003-04-18T09:50:22Z</time>
      </trkpt>
      <trkpt lat="31.554517038166523" lon="-4.175597028806806">
        <ele>865.10000000000002</ele>
        <time>2003-04-18T09:50:29Z</time>
      </trkpt>
      <trkpt lat="31.555167976766825" lon="-4.174771998077631">
        <ele>865.5</ele>
        <time>2003-04-18T09:50:36Z</time>
      </trkpt>
      <trkpt lat="31.555883036926389" lon="-4.173892987892032">
        <ele>865.79999999999995</ele>
        <time>2003-04-18T09:50:42Z</time>
      </trkpt>
      <trkpt lat="31.556592984125018" lon="-4.173025041818619">
        <ele>866.89999999999998</ele>
        <time>2003-04-18T09:50:49Z</time>
      </trkpt>
      <trkpt lat="31.557215005159378" lon="-4.1721919644624">
        <ele>867.89999999999998</ele>
        <time>2003-04-18T09:50:56Z</time>
      </trkpt>
      <trkpt lat="31.557827973738313" lon="-4.17128998786211">
        <ele>868.29999999999995</ele>
        <time>2003-04-18T09:51:04Z</time>
      </trkpt>
      <trkpt lat="31.558517972007394" lon="-4.170402009040117">
        <ele>869</ele>
        <time>2003-04-18T09:51:11Z</time>
      </trkpt>
      <trkpt lat="31.559230014681816" lon="-4.169512018561363">
        <ele>870.29999999999995</ele>
        <time>2003-04-18T09:51:18Z</time>
      </trkpt>
      <trkpt lat="31.559956977143884" lon="-4.168663015589118">
        <ele>870.60000000000002</ele>
        <time>2003-04-18T09:51:24Z</time>
      </trkpt>
      <trkpt lat="31.560692992061377" lon="-4.167839996516705">
        <ele>871.39999999999998</ele>
        <time>2003-04-18T09:51:31Z</time>
      </trkpt>
      <trkpt lat="31.561439987272024" lon="-4.16701203212142">
        <ele>872.89999999999998</ele>
        <time>2003-04-18T09:51:39Z</time>
      </trkpt>
      <trkpt lat="31.561992019414902" lon="-4.166411971673369">
        <ele>873.10000000000002</ele>
        <time>2003-04-18T09:51:45Z</time>
      </trkpt>
      <trkpt lat="31.562613034620881" lon="-4.165545031428337">
        <ele>874.70000000000005</ele>
        <time>2003-04-18T09:51:53Z</time>
      </trkpt>
      <trkpt lat="31.563206976279616" lon="-4.164722012355924">
        <ele>875.89999999999998</ele>
        <time>2003-04-18T09:52:01Z</time>
      </trkpt>
      <trkpt lat="31.563860010355711" lon="-4.163881978020072">
        <ele>876.29999999999995</ele>
        <time>2003-04-18T09:52:09Z</time>
      </trkpt>
      <trkpt lat="31.564477002248168" lon="-4.1630619764328">
        <ele>876.5</ele>
        <time>2003-04-18T09:52:17Z</time>
      </trkpt>
      <trkpt lat="31.565137999132276" lon="-4.162202998995781">
        <ele>877.60000000000002</ele>
        <time>2003-04-18T09:52:25Z</time>
      </trkpt>
      <trkpt lat="31.565796984359622" lon="-4.161324994638562">
        <ele>878.70000000000005</ele>
        <time>2003-04-18T09:52:33Z</time>
      </trkpt>
      <trkpt lat="31.566423028707504" lon="-4.160504993051291">
        <ele>879.10000000000002</ele>
        <time>2003-04-18T09:52:40Z</time>
      </trkpt>
      <trkpt lat="31.567061981186271" lon="-4.159693038091064">
        <ele>880.39999999999998</ele>
        <time>2003-04-18T09:52:48Z</time>
      </trkpt>
      <trkpt lat="31.567700011655688" lon="-4.158821990713477">
        <ele>881.29999999999995</ele>
        <time>2003-04-18T09:52:55Z</time>
      </trkpt>
      <trkpt lat="31.568296970799565" lon="-4.158025039359927">
        <ele>881.70000000000005</ele>
        <time>2003-04-18T09:53:02Z</time>
      </trkpt>
      <trkpt lat="31.568959979340434" lon="-4.157139994204044">
        <ele>882.70000000000005</ele>
        <time>2003-04-18T09:53:10Z</time>
      </trkpt>
      <trkpt lat="31.569585017859936" lon="-4.156286967918277">
        <ele>883.10000000000002</ele>
        <time>2003-04-18T09:53:16Z</time>
      </trkpt>
      <trkpt lat="31.570199998095632" lon="-4.155456991866231">
        <ele>884</ele>
        <time>2003-04-18T09:53:23Z</time>
      </trkpt>
      <trkpt lat="31.570797963067889" lon="-4.15465802885592">
        <ele>885.5</ele>
        <time>2003-04-18T09:53:31Z</time>
      </trkpt>
      <trkpt lat="31.571429958567023" lon="-4.153816988691688">
        <ele>885.89999999999998</ele>
        <time>2003-04-18T09:53:38Z</time>
      </trkpt>
      <trkpt lat="31.572111994028091" lon="-4.152934961020947">
        <ele>886.5</ele>
        <time>2003-04-18T09:53:47Z</time>
      </trkpt>
      <trkpt lat="31.572762010619044" lon="-4.152091993018985">
        <ele>887.5</ele>
        <time>2003-04-18T09:53:56Z</time>
      </trkpt>
      <trkpt lat="31.573223015293479" lon="-4.151499979197979">
        <ele>888</ele>
        <time>2003-04-18T09:54:01Z</time>
      </trkpt>
      <trkpt lat="31.573576983064413" lon="-4.15109203197062">
        <ele>888.70000000000005</ele>
        <time>2003-04-18T09:54:06Z</time>
      </trkpt>
      <trkpt lat="31.573747973889112" lon="-4.15096202865243">
        <ele>888.79999999999995</ele>
        <time>2003-04-18T09:54:09Z</time>
      </trkpt>
      <trkpt lat="31.574073024094105" lon="-4.150718031451106">
        <ele>888.70000000000005</ele>
        <time>2003-04-18T09:54:13Z</time>
      </trkpt>
      <trkpt lat="31.574630001559854" lon="-4.150097016245127">
        <ele>888.60000000000002</ele>
        <time>2003-04-18T09:54:20Z</time>
      </trkpt>
      <trkpt lat="31.575171975418925" lon="-4.149486981332302">
        <ele>888.89999999999998</ele>
        <time>2003-04-18T09:54:27Z</time>
      </trkpt>
      <trkpt lat="31.575855016708374" lon="-4.148696986958385">
        <ele>889.60000000000002</ele>
        <time>2003-04-18T09:54:36Z</time>
      </trkpt>
      <trkpt lat="31.576291965320706" lon="-4.148225001990795">
        <ele>890.10000000000002</ele>
        <time>2003-04-18T09:54:41Z</time>
      </trkpt>
      <trkpt lat="31.576818013563752" lon="-4.14765696041286">
        <ele>890.60000000000002</ele>
        <time>2003-04-18T09:54:47Z</time>
      </trkpt>
      <trkpt lat="31.577508011832833" lon="-4.146899990737438">
        <ele>891</ele>
        <time>2003-04-18T09:54:52Z</time>
      </trkpt>
      <trkpt lat="31.578212007880211" lon="-4.146103039383888">
        <ele>891.60000000000002</ele>
        <time>2003-04-18T09:54:59Z</time>
      </trkpt>
      <trkpt lat="31.578942993655801" lon="-4.145287983119488">
        <ele>892.60000000000002</ele>
        <time>2003-04-18T09:55:07Z</time>
      </trkpt>
      <trkpt lat="31.579635003581643" lon="-4.144488014280796">
        <ele>893.5</ele>
        <time>2003-04-18T09:55:14Z</time>
      </trkpt>
      <trkpt lat="31.580304969102144" lon="-4.143721992149949">
        <ele>894.60000000000002</ele>
        <time>2003-04-18T09:55:21Z</time>
      </trkpt>
      <trkpt lat="31.580988010391593" lon="-4.142947001382709">
        <ele>895.70000000000005</ele>
        <time>2003-04-18T09:55:27Z</time>
      </trkpt>
      <trkpt lat="31.581665016710758" lon="-4.142130017280579">
        <ele>897.29999999999995</ele>
        <time>2003-04-18T09:55:34Z</time>
      </trkpt>
      <trkpt lat="31.582216965034604" lon="-4.141507996246219">
        <ele>898.39999999999998</ele>
        <time>2003-04-18T09:55:41Z</time>
      </trkpt>
      <trkpt lat="31.582724992185831" lon="-4.140917994081974">
        <ele>899.60000000000002</ele>
        <time>2003-04-18T09:55:49Z</time>
      </trkpt>
      <trkpt lat="31.583414990454912" lon="-4.140107966959477">
        <ele>899</ele>
        <time>2003-04-18T09:55:57Z</time>
      </trkpt>
      <trkpt lat="31.58409995958209" lon="-4.139431966468692">
        <ele>899</ele>
        <time>2003-04-18T09:56:08Z</time>
      </trkpt>
      <trkpt lat="31.58416299149394" lon="-4.139342028647661">
        <ele>899.70000000000005</ele>
        <time>2003-04-18T09:56:13Z</time>
      </trkpt>
      <trkpt lat="31.584237003698945" lon="-4.13927698507905">
        <ele>900</ele>
        <time>2003-04-18T09:56:15Z</time>
      </trkpt>
      <trkpt lat="31.584323002025485" lon="-4.139187969267368">
        <ele>900.60000000000002</ele>
        <time>2003-04-18T09:56:16Z</time>
      </trkpt>
      <trkpt lat="31.584442025050521" lon="-4.139067018404603">
        <ele>901.10000000000002</ele>
        <time>2003-04-18T09:56:19Z</time>
      </trkpt>
      <trkpt lat="31.584881991147995" lon="-4.13867499679327">
        <ele>902.20000000000005</ele>
        <time>2003-04-18T09:56:27Z</time>
      </trkpt>
      <trkpt lat="31.585157001391053" lon="-4.138444997370243">
        <ele>903</ele>
        <time>2003-04-18T09:56:32Z</time>
      </trkpt>
      <trkpt lat="31.585567966103554" lon="-4.138105027377605">
        <ele>902.89999999999998</ele>
        <time>2003-04-18T09:56:36Z</time>
      </trkpt>
      <trkpt lat="31.586131984367967" lon="-4.13764301687479">
        <ele>903.89999999999998</ele>
        <time>2003-04-18T09:56:43Z</time>
      </trkpt>
      <trkpt lat="31.586602041497827" lon="-4.137242026627064">
        <ele>904.20000000000005</ele>
        <time>2003-04-18T09:56:47Z</time>
      </trkpt>
      <trkpt lat="31.586725004017353" lon="-4.137134989723563">
        <ele>904.39999999999998</ele>
        <time>2003-04-18T09:56:50Z</time>
      </trkpt>
      <trkpt lat="31.58742799423635" lon="-4.136463012546301">
        <ele>905.29999999999995</ele>
        <time>2003-04-18T09:56:59Z</time>
      </trkpt>
      <trkpt lat="31.588038029149175" lon="-4.13590301759541">
        <ele>905.89999999999998</ele>
        <time>2003-04-18T09:57:07Z</time>
      </trkpt>
      <trkpt lat="31.588519988581538" lon="-4.13538996130228">
        <ele>907.5</ele>
        <time>2003-04-18T09:57:13Z</time>
      </trkpt>
      <trkpt lat="31.588617973029613" lon="-4.135327013209462">
        <ele>907.39999999999998</ele>
        <time>2003-04-18T09:57:14Z</time>
      </trkpt>
      <trkpt lat="31.58901703543961" lon="-4.13510799407959">
        <ele>908.5</ele>
        <time>2003-04-18T09:57:21Z</time>
      </trkpt>
      <trkpt lat="31.58944996073842" lon="-4.134862991049886">
        <ele>909.10000000000002</ele>
        <time>2003-04-18T09:57:26Z</time>
      </trkpt>
      <trkpt lat="31.59030701033771" lon="-4.134348006919026">
        <ele>909.60000000000002</ele>
        <time>2003-04-18T09:57:34Z</time>
      </trkpt>
      <trkpt lat="31.591140003874898" lon="-4.133875016123056">
        <ele>910.29999999999995</ele>
        <time>2003-04-18T09:57:44Z</time>
      </trkpt>
      <trkpt lat="31.592022031545639" lon="-4.133398002013564">
        <ele>911.20000000000005</ele>
        <time>2003-04-18T09:57:53Z</time>
      </trkpt>
      <trkpt lat="31.592608010396361" lon="-4.132998017594218">
        <ele>911.10000000000002</ele>
        <time>2003-04-18T09:57:57Z</time>
      </trkpt>
      <trkpt lat="31.593010006472468" lon="-4.132687970995903">
        <ele>911.10000000000002</ele>
        <time>2003-04-18T09:58:01Z</time>
      </trkpt>
      <trkpt lat="31.593724982813001" lon="-4.132020017132163">
        <ele>911.10000000000002</ele>
        <time>2003-04-18T09:58:09Z</time>
      </trkpt>
      <trkpt lat="31.594512965530157" lon="-4.131264975294471">
        <ele>911.5</ele>
        <time>2003-04-18T09:58:17Z</time>
      </trkpt>
      <trkpt lat="31.594976987689734" lon="-4.130807993933559">
        <ele>911.79999999999995</ele>
        <time>2003-04-18T09:58:23Z</time>
      </trkpt>
      <trkpt lat="31.595658017322421" lon="-4.130117995664477">
        <ele>913</ele>
        <time>2003-04-18T09:58:31Z</time>
      </trkpt>
      <trkpt lat="31.596220023930073" lon="-4.129567975178361">
        <ele>913.5</ele>
        <time>2003-04-18T09:58:38Z</time>
      </trkpt>
      <trkpt lat="31.596768032759428" lon="-4.128821985796094">
        <ele>915.29999999999995</ele>
        <time>2003-04-18T09:58:46Z</time>
      </trkpt>
      <trkpt lat="31.597343031316996" lon="-4.127925038337708">
        <ele>913.89999999999998</ele>
        <time>2003-04-18T09:58:54Z</time>
      </trkpt>
      <trkpt lat="31.597948037087917" lon="-4.127027001231909">
        <ele>914.20000000000005</ele>
        <time>2003-04-18T09:59:02Z</time>
      </trkpt>
      <trkpt lat="31.598054990172386" lon="-4.126747967675328">
        <ele>914.39999999999998</ele>
        <time>2003-04-18T09:59:03Z</time>
      </trkpt>
      <trkpt lat="31.59821298904717" lon="-4.126162994652987">
        <ele>915.29999999999995</ele>
        <time>2003-04-18T09:59:07Z</time>
      </trkpt>
      <trkpt lat="31.598273003473878" lon="-4.125937018543482">
        <ele>915.29999999999995</ele>
        <time>2003-04-18T09:59:10Z</time>
      </trkpt>
      <trkpt lat="31.598547007888556" lon="-4.12509698420763">
        <ele>914.60000000000002</ele>
        <time>2003-04-18T09:59:17Z</time>
      </trkpt>
      <trkpt lat="31.598739959299564" lon="-4.124057041481137">
        <ele>916.29999999999995</ele>
        <time>2003-04-18T09:59:25Z</time>
      </trkpt>
      <trkpt lat="31.598940035328269" lon="-4.12290696054697">
        <ele>919.5</ele>
        <time>2003-04-18T09:59:33Z</time>
      </trkpt>
      <trkpt lat="31.599183026701212" lon="-4.122262978926301">
        <ele>920</ele>
        <time>2003-04-18T09:59:38Z</time>
      </trkpt>
      <trkpt lat="31.599487038329244" lon="-4.121578009799123">
        <ele>920.5</ele>
        <time>2003-04-18T09:59:45Z</time>
      </trkpt>
      <trkpt lat="31.599582005292177" lon="-4.121354967355728">
        <ele>920.5</ele>
        <time>2003-04-18T09:59:47Z</time>
      </trkpt>
      <trkpt lat="31.599988024681807" lon="-4.12041200324893">
        <ele>920.60000000000002</ele>
        <time>2003-04-18T09:59:55Z</time>
      </trkpt>
      <trkpt lat="31.600364958867431" lon="-4.11946501582861">
        <ele>920.10000000000002</ele>
        <time>2003-04-18T10:00:03Z</time>
      </trkpt>
      <trkpt lat="31.600439976900816" lon="-4.118969980627298">
        <ele>921.70000000000005</ele>
        <time>2003-04-18T10:00:07Z</time>
      </trkpt>
      <trkpt lat="31.60053301602602" lon="-4.118402022868395">
        <ele>923.39999999999998</ele>
        <time>2003-04-18T10:00:12Z</time>
      </trkpt>
      <trkpt lat="31.600599987432361" lon="-4.118222985416651">
        <ele>922.20000000000005</ele>
        <time>2003-04-18T10:00:14Z</time>
      </trkpt>
      <trkpt lat="31.60066201351583" lon="-4.118127012625337">
        <ele>921.20000000000005</ele>
        <time>2003-04-18T10:00:16Z</time>
      </trkpt>
      <trkpt lat="31.600739965215325" lon="-4.118004972115159">
        <ele>922.10000000000002</ele>
        <time>2003-04-18T10:00:19Z</time>
      </trkpt>
      <trkpt lat="31.600802997127175" lon="-4.117887960746884">
        <ele>923.20000000000005</ele>
        <time>2003-04-18T10:00:22Z</time>
      </trkpt>
      <trkpt lat="31.600871980190277" lon="-4.117738008499146">
        <ele>923.70000000000005</ele>
        <time>2003-04-18T10:00:23Z</time>
      </trkpt>
      <trkpt lat="31.600911961868405" lon="-4.117557965219021">
        <ele>924</ele>
        <time>2003-04-18T10:00:26Z</time>
      </trkpt>
      <trkpt lat="31.601029979065061" lon="-4.117184970527887">
        <ele>924.70000000000005</ele>
        <time>2003-04-18T10:00:30Z</time>
      </trkpt>
      <trkpt lat="31.601219996809959" lon="-4.1166300047189">
        <ele>925.5</ele>
        <time>2003-04-18T10:00:35Z</time>
      </trkpt>
      <trkpt lat="31.601570025086403" lon="-4.115616967901588">
        <ele>925.10000000000002</ele>
        <time>2003-04-18T10:00:43Z</time>
      </trkpt>
      <trkpt lat="31.601966992020607" lon="-4.114547017961741">
        <ele>925.5</ele>
        <time>2003-04-18T10:00:50Z</time>
      </trkpt>
      <trkpt lat="31.602111998945475" lon="-4.114182991907001">
        <ele>925.29999999999995</ele>
        <time>2003-04-18T10:00:54Z</time>
      </trkpt>
      <trkpt lat="31.602164972573519" lon="-4.114042008295655">
        <ele>925.39999999999998</ele>
        <time>2003-04-18T10:00:55Z</time>
      </trkpt>
      <trkpt lat="31.60220998339355" lon="-4.113921979442239">
        <ele>925</ele>
        <time>2003-04-18T10:00:58Z</time>
      </trkpt>
      <trkpt lat="31.602257005870342" lon="-4.113817038014531">
        <ele>924.89999999999998</ele>
        <time>2003-04-18T10:01:02Z</time>
      </trkpt>
      <trkpt lat="31.602306962013245" lon="-4.113679993897677">
        <ele>924.79999999999995</ele>
        <time>2003-04-18T10:01:06Z</time>
      </trkpt>
      <trkpt lat="31.602366976439953" lon="-4.11353699862957">
        <ele>925</ele>
        <time>2003-04-18T10:01:08Z</time>
      </trkpt>
      <trkpt lat="31.602466972544789" lon="-4.113286966457963">
        <ele>925.10000000000002</ele>
        <time>2003-04-18T10:01:10Z</time>
      </trkpt>
      <trkpt lat="31.602558000013232" lon="-4.113078005611897">
        <ele>924.60000000000002</ele>
        <time>2003-04-18T10:01:13Z</time>
      </trkpt>
      <trkpt lat="31.602865029126406" lon="-4.112384989857674">
        <ele>924.89999999999998</ele>
        <time>2003-04-18T10:01:18Z</time>
      </trkpt>
      <trkpt lat="31.603297032415867" lon="-4.111413024365902">
        <ele>925.79999999999995</ele>
        <time>2003-04-18T10:01:26Z</time>
      </trkpt>
      <trkpt lat="31.603738004341722" lon="-4.110350031405687">
        <ele>927.39999999999998</ele>
        <time>2003-04-18T10:01:35Z</time>
      </trkpt>
      <trkpt lat="31.60416497848928" lon="-4.109297012910247">
        <ele>928.29999999999995</ele>
        <time>2003-04-18T10:01:43Z</time>
      </trkpt>
      <trkpt lat="31.604562029242516" lon="-4.108233014121652">
        <ele>927.89999999999998</ele>
        <time>2003-04-18T10:01:51Z</time>
      </trkpt>
      <trkpt lat="31.604894958436489" lon="-4.107360038906336">
        <ele>928.79999999999995</ele>
        <time>2003-04-18T10:01:57Z</time>
      </trkpt>
      <trkpt lat="31.604969976469874" lon="-4.107183013111353">
        <ele>928.60000000000002</ele>
        <time>2003-04-18T10:02:00Z</time>
      </trkpt>
      <trkpt lat="31.605387981981039" lon="-4.106177017092705">
        <ele>930.10000000000002</ele>
        <time>2003-04-18T10:02:10Z</time>
      </trkpt>
      <trkpt lat="31.605815039947629" lon="-4.10511301830411">
        <ele>931.29999999999995</ele>
        <time>2003-04-18T10:02:19Z</time>
      </trkpt>
      <trkpt lat="31.605985024943948" lon="-4.104755027219653">
        <ele>931.29999999999995</ele>
        <time>2003-04-18T10:02:23Z</time>
      </trkpt>
      <trkpt lat="31.606032969430089" lon="-4.104562997817993">
        <ele>930.70000000000005</ele>
        <time>2003-04-18T10:02:24Z</time>
      </trkpt>
      <trkpt lat="31.606051996350288" lon="-4.104269966483116">
        <ele>930.5</ele>
        <time>2003-04-18T10:02:27Z</time>
      </trkpt>
      <trkpt lat="31.606042021885514" lon="-4.103773003444076">
        <ele>931.79999999999995</ele>
        <time>2003-04-18T10:02:33Z</time>
      </trkpt>
      <trkpt lat="31.605973038822412" lon="-4.103333037346602">
        <ele>933.5</ele>
        <time>2003-04-18T10:02:38Z</time>
      </trkpt>
      <trkpt lat="31.605795007199049" lon="-4.102657958865166">
        <ele>933.70000000000005</ele>
        <time>2003-04-18T10:02:45Z</time>
      </trkpt>
      <trkpt lat="31.605783021077514" lon="-4.10230197943747">
        <ele>934</ele>
        <time>2003-04-18T10:02:47Z</time>
      </trkpt>
      <trkpt lat="31.60586298443377" lon="-4.101657997816801">
        <ele>936.5</ele>
        <time>2003-04-18T10:02:53Z</time>
      </trkpt>
      <trkpt lat="31.605901960283518" lon="-4.101320039480925">
        <ele>937.5</ele>
        <time>2003-04-18T10:02:56Z</time>
      </trkpt>
      <trkpt lat="31.605989970266819" lon="-4.100661976262927">
        <ele>938.70000000000005</ele>
        <time>2003-04-18T10:03:01Z</time>
      </trkpt>
      <trkpt lat="31.606134977191687" lon="-4.100176999345422">
        <ele>939.60000000000002</ele>
        <time>2003-04-18T10:03:05Z</time>
      </trkpt>
      <trkpt lat="31.60650797188282" lon="-4.099177038297057">
        <ele>940.29999999999995</ele>
        <time>2003-04-18T10:03:14Z</time>
      </trkpt>
      <trkpt lat="31.606920026242733" lon="-4.098359970375896">
        <ele>940.20000000000005</ele>
        <time>2003-04-18T10:03:23Z</time>
      </trkpt>
      <trkpt lat="31.607195036485791" lon="-4.097853032872081">
        <ele>939.79999999999995</ele>
        <time>2003-04-18T10:03:28Z</time>
      </trkpt>
      <trkpt lat="31.607269970700145" lon="-4.097672989591956">
        <ele>938.79999999999995</ele>
        <time>2003-04-18T10:03:29Z</time>
      </trkpt>
      <trkpt lat="31.60732202231884" lon="-4.097524965181947">
        <ele>939.60000000000002</ele>
        <time>2003-04-18T10:03:32Z</time>
      </trkpt>
      <trkpt lat="31.607342977076769" lon="-4.097347017377615">
        <ele>940.39999999999998</ele>
        <time>2003-04-18T10:03:33Z</time>
      </trkpt>
      <trkpt lat="31.607386982068419" lon="-4.096960024908185">
        <ele>940.60000000000002</ele>
        <time>2003-04-18T10:03:37Z</time>
      </trkpt>
      <trkpt lat="31.607484966516495" lon="-4.096791967749596">
        <ele>941</ele>
        <time>2003-04-18T10:03:40Z</time>
      </trkpt>
      <trkpt lat="31.607612958177924" lon="-4.096647966653109">
        <ele>941.10000000000002</ele>
        <time>2003-04-18T10:03:41Z</time>
      </trkpt>
      <trkpt lat="31.607849998399615" lon="-4.096321994438767">
        <ele>941.70000000000005</ele>
        <time>2003-04-18T10:03:45Z</time>
      </trkpt>
      <trkpt lat="31.608158033341169" lon="-4.095674995332956">
        <ele>941.5</ele>
        <time>2003-04-18T10:03:52Z</time>
      </trkpt>
      <trkpt lat="31.608458021655679" lon="-4.095092033967376">
        <ele>942.60000000000002</ele>
        <time>2003-04-18T10:03:56Z</time>
      </trkpt>
      <trkpt lat="31.60882699303329" lon="-4.094053013250232">
        <ele>942.70000000000005</ele>
        <time>2003-04-18T10:04:04Z</time>
      </trkpt>
      <trkpt lat="31.608917014673352" lon="-4.09385796636343">
        <ele>942.60000000000002</ele>
        <time>2003-04-18T10:04:07Z</time>
      </trkpt>
      <trkpt lat="31.609287997707725" lon="-4.093160005286336">
        <ele>941.79999999999995</ele>
        <time>2003-04-18T10:04:15Z</time>
      </trkpt>
      <trkpt lat="31.609375001862645" lon="-4.092912990599871">
        <ele>942.70000000000005</ele>
        <time>2003-04-18T10:04:18Z</time>
      </trkpt>
      <trkpt lat="31.609412971884012" lon="-4.092811988666654">
        <ele>942.70000000000005</ele>
        <time>2003-04-18T10:04:19Z</time>
      </trkpt>
      <trkpt lat="31.609463011845946" lon="-4.092706963419914">
        <ele>941.79999999999995</ele>
        <time>2003-04-18T10:04:26Z</time>
      </trkpt>
      <trkpt lat="31.609538029879332" lon="-4.092606967315078">
        <ele>940</ele>
        <time>2003-04-18T10:04:31Z</time>
      </trkpt>
      <trkpt lat="31.609646994620562" lon="-4.092472018674016">
        <ele>941.20000000000005</ele>
        <time>2003-04-18T10:04:35Z</time>
      </trkpt>
      <trkpt lat="31.609752019867301" lon="-4.092321982607245">
        <ele>941.89999999999998</ele>
        <time>2003-04-18T10:04:38Z</time>
      </trkpt>
      <trkpt lat="31.609847992658615" lon="-4.09213699400425">
        <ele>942.39999999999998</ele>
        <time>2003-04-18T10:04:42Z</time>
      </trkpt>
      <trkpt lat="31.609886968508363" lon="-4.091995004564524">
        <ele>942.29999999999995</ele>
        <time>2003-04-18T10:04:44Z</time>
      </trkpt>
      <trkpt lat="31.609931979328394" lon="-4.091814961284399">
        <ele>943</ele>
        <time>2003-04-18T10:04:46Z</time>
      </trkpt>
      <trkpt lat="31.610046979039907" lon="-4.09153500571847">
        <ele>943.70000000000005</ele>
        <time>2003-04-18T10:04:49Z</time>
      </trkpt>
      <trkpt lat="31.610513012856245" lon="-4.090702012181282">
        <ele>945.89999999999998</ele>
        <time>2003-04-18T10:04:57Z</time>
      </trkpt>
      <trkpt lat="31.610826998949051" lon="-4.090117961168289">
        <ele>946.5</ele>
        <time>2003-04-18T10:05:02Z</time>
      </trkpt>
      <trkpt lat="31.611437033861876" lon="-4.089163010939956">
        <ele>947.60000000000002</ele>
        <time>2003-04-18T10:05:11Z</time>
      </trkpt>
      <trkpt lat="31.612023012712598" lon="-4.088324988260865">
        <ele>948.60000000000002</ele>
        <time>2003-04-18T10:05:17Z</time>
      </trkpt>
      <trkpt lat="31.612395001575351" lon="-4.087783014401794">
        <ele>949.70000000000005</ele>
        <time>2003-04-18T10:05:23Z</time>
      </trkpt>
      <trkpt lat="31.612706976011395" lon="-4.087319998070598">
        <ele>950.70000000000005</ele>
        <time>2003-04-18T10:05:28Z</time>
      </trkpt>
      <trkpt lat="31.613172003999352" lon="-4.086688002571464">
        <ele>951.79999999999995</ele>
        <time>2003-04-18T10:05:35Z</time>
      </trkpt>
      <trkpt lat="31.613562013953924" lon="-4.086243007332087">
        <ele>953</ele>
        <time>2003-04-18T10:05:40Z</time>
      </trkpt>
      <trkpt lat="31.614302974194288" lon="-4.085597014054656">
        <ele>953.79999999999995</ele>
        <time>2003-04-18T10:05:47Z</time>
      </trkpt>
      <trkpt lat="31.615048041567206" lon="-4.085112037137151">
        <ele>954.70000000000005</ele>
        <time>2003-04-18T10:05:55Z</time>
      </trkpt>
      <trkpt lat="31.61527301184833" lon="-4.085022015497088">
        <ele>954.79999999999995</ele>
        <time>2003-04-18T10:05:56Z</time>
      </trkpt>
      <trkpt lat="31.615729993209243" lon="-4.084937022998929">
        <ele>954.89999999999998</ele>
        <time>2003-04-18T10:06:00Z</time>
      </trkpt>
      <trkpt lat="31.615967033430934" lon="-4.084937022998929">
        <ele>954.89999999999998</ele>
        <time>2003-04-18T10:06:03Z</time>
      </trkpt>
      <trkpt lat="31.616652002558112" lon="-4.085042970255017">
        <ele>956</ele>
        <time>2003-04-18T10:06:09Z</time>
      </trkpt>
      <trkpt lat="31.616907985880971" lon="-4.085138021036983">
        <ele>956.5</ele>
        <time>2003-04-18T10:06:11Z</time>
      </trkpt>
      <trkpt lat="31.617037989199162" lon="-4.085180014371872">
        <ele>956.29999999999995</ele>
        <time>2003-04-18T10:06:14Z</time>
      </trkpt>
      <trkpt lat="31.617157012224197" lon="-4.08519996330142">
        <ele>954.89999999999998</ele>
        <time>2003-04-18T10:06:15Z</time>
      </trkpt>
      <trkpt lat="31.617272011935711" lon="-4.085193006321788">
        <ele>954.70000000000005</ele>
        <time>2003-04-18T10:06:19Z</time>
      </trkpt>
      <trkpt lat="31.617426993325353" lon="-4.085225025191903">
        <ele>955.5</ele>
        <time>2003-04-18T10:06:23Z</time>
      </trkpt>
      <trkpt lat="31.617599995806813" lon="-4.08528302796185">
        <ele>955.89999999999998</ele>
        <time>2003-04-18T10:06:26Z</time>
      </trkpt>
      <trkpt lat="31.617729999125004" lon="-4.085299959406257">
        <ele>956</ele>
        <time>2003-04-18T10:06:29Z</time>
      </trkpt>
      <trkpt lat="31.617967961356044" lon="-4.085340024903417">
        <ele>956.60000000000002</ele>
        <time>2003-04-18T10:06:32Z</time>
      </trkpt>
      <trkpt lat="31.61875301040709" lon="-4.085523001849651">
        <ele>958.39999999999998</ele>
        <time>2003-04-18T10:06:41Z</time>
      </trkpt>
      <trkpt lat="31.61920202895999" lon="-4.085631966590881">
        <ele>958.79999999999995</ele>
        <time>2003-04-18T10:06:45Z</time>
      </trkpt>
      <trkpt lat="31.619942989200354" lon="-4.085843022912741">
        <ele>960.70000000000005</ele>
        <time>2003-04-18T10:06:52Z</time>
      </trkpt>
      <trkpt lat="31.620302991941571" lon="-4.085870012640953">
        <ele>961</ele>
        <time>2003-04-18T10:06:56Z</time>
      </trkpt>
      <trkpt lat="31.620580013841391" lon="-4.085837993770838">
        <ele>961.39999999999998</ele>
        <time>2003-04-18T10:06:59Z</time>
      </trkpt>
      <trkpt lat="31.621276969090104" lon="-4.085698015987873">
        <ele>962.5</ele>
        <time>2003-04-18T10:07:05Z</time>
      </trkpt>
      <trkpt lat="31.62156798876822" lon="-4.085552003234625">
        <ele>962.70000000000005</ele>
        <time>2003-04-18T10:07:08Z</time>
      </trkpt>
      <trkpt lat="31.6217399854213" lon="-4.085410013794899">
        <ele>962.89999999999998</ele>
        <time>2003-04-18T10:07:12Z</time>
      </trkpt>
      <trkpt lat="31.621867977082729" lon="-4.085255032405257">
        <ele>962</ele>
        <time>2003-04-18T10:07:12Z</time>
      </trkpt>
      <trkpt lat="31.621963027864695" lon="-4.085131986066699">
        <ele>961.29999999999995</ele>
        <time>2003-04-18T10:07:16Z</time>
      </trkpt>
      <trkpt lat="31.622045002877712" lon="-4.085056968033314">
        <ele>960.29999999999995</ele>
        <time>2003-04-18T10:07:17Z</time>
      </trkpt>
      <trkpt lat="31.62214801646769" lon="-4.085016986355186">
        <ele>959.89999999999998</ele>
        <time>2003-04-18T10:07:20Z</time>
      </trkpt>
      <trkpt lat="31.622263016179204" lon="-4.084957977756858">
        <ele>960.39999999999998</ele>
        <time>2003-04-18T10:07:23Z</time>
      </trkpt>
      <trkpt lat="31.622329987585545" lon="-4.084867034107447">
        <ele>960.60000000000002</ele>
        <time>2003-04-18T10:07:24Z</time>
      </trkpt>
      <trkpt lat="31.622372986748815" lon="-4.084716998040676">
        <ele>960.70000000000005</ele>
        <time>2003-04-18T10:07:27Z</time>
      </trkpt>
      <trkpt lat="31.622450016438961" lon="-4.084456991404295">
        <ele>961.5</ele>
        <time>2003-04-18T10:07:30Z</time>
      </trkpt>
      <trkpt lat="31.622553030028939" lon="-4.084160020574927">
        <ele>962.60000000000002</ele>
        <time>2003-04-18T10:07:32Z</time>
      </trkpt>
      <trkpt lat="31.622725026682019" lon="-4.083773028105497">
        <ele>962.5</ele>
        <time>2003-04-18T10:07:36Z</time>
      </trkpt>
      <trkpt lat="31.622844971716404" lon="-4.083502041175962">
        <ele>962</ele>
        <time>2003-04-18T10:07:39Z</time>
      </trkpt>
      <trkpt lat="31.622874978929758" lon="-4.08332996070385">
        <ele>962.5</ele>
        <time>2003-04-18T10:07:42Z</time>
      </trkpt>
      <trkpt lat="31.622940022498369" lon="-4.082829980179668">
        <ele>963.79999999999995</ele>
        <time>2003-04-18T10:07:47Z</time>
      </trkpt>
      <trkpt lat="31.622928036376834" lon="-4.082267973572016">
        <ele>967.20000000000005</ele>
        <time>2003-04-18T10:07:54Z</time>
      </trkpt>
      <trkpt lat="31.622927030548453" lon="-4.082088014110923">
        <ele>967</ele>
        <time>2003-04-18T10:07:55Z</time>
      </trkpt>
      <trkpt lat="31.622913032770157" lon="-4.081657016649842">
        <ele>966.89999999999998</ele>
        <time>2003-04-18T10:07:59Z</time>
      </trkpt>
      <trkpt lat="31.62294496782124" lon="-4.081310005858541">
        <ele>967.79999999999995</ele>
        <time>2003-04-18T10:08:02Z</time>
      </trkpt>
      <trkpt lat="31.623037001118064" lon="-4.080965006724">
        <ele>968.39999999999998</ele>
        <time>2003-04-18T10:08:06Z</time>
      </trkpt>
      <trkpt lat="31.623261971399188" lon="-4.080380033701658">
        <ele>969.39999999999998</ele>
        <time>2003-04-18T10:08:10Z</time>
      </trkpt>
      <trkpt lat="31.623662039637566" lon="-4.079737979918718">
        <ele>970.29999999999995</ele>
        <time>2003-04-18T10:08:17Z</time>
      </trkpt>
      <trkpt lat="31.623849961906672" lon="-4.079498006030917">
        <ele>970</ele>
        <time>2003-04-18T10:08:20Z</time>
      </trkpt>
      <trkpt lat="31.623937971889973" lon="-4.079361967742443">
        <ele>970.29999999999995</ele>
        <time>2003-04-18T10:08:22Z</time>
      </trkpt>
      <trkpt lat="31.624012989923358" lon="-4.079155018553138">
        <ele>968.29999999999995</ele>
        <time>2003-04-18T10:08:25Z</time>
      </trkpt>
      <trkpt lat="31.62403997965157" lon="-4.079044964164496">
        <ele>967.79999999999995</ele>
        <time>2003-04-18T10:08:26Z</time>
      </trkpt>
      <trkpt lat="31.62406001240015" lon="-4.078934993594885">
        <ele>967.29999999999995</ele>
        <time>2003-04-18T10:08:29Z</time>
      </trkpt>
      <trkpt lat="31.624087002128363" lon="-4.078832985833287">
        <ele>967.60000000000002</ele>
        <time>2003-04-18T10:08:33Z</time>
      </trkpt>
      <trkpt lat="31.624133018776774" lon="-4.078741958364844">
        <ele>967.79999999999995</ele>
        <time>2003-04-18T10:08:34Z</time>
      </trkpt>
      <trkpt lat="31.624218011274934" lon="-4.078553030267358">
        <ele>967.60000000000002</ele>
        <time>2003-04-18T10:08:37Z</time>
      </trkpt>
      <trkpt lat="31.624307027086616" lon="-4.078237032517791">
        <ele>968.10000000000002</ele>
        <time>2003-04-18T10:08:41Z</time>
      </trkpt>
      <trkpt lat="31.624377015978098" lon="-4.078056989237666">
        <ele>968.5</ele>
        <time>2003-04-18T10:08:44Z</time>
      </trkpt>
      <trkpt lat="31.624516993761063" lon="-4.077803017571569">
        <ele>969</ele>
        <time>2003-04-18T10:08:47Z</time>
      </trkpt>
      <trkpt lat="31.624646997079253" lon="-4.077648036181927">
        <ele>969.29999999999995</ele>
        <time>2003-04-18T10:08:49Z</time>
      </trkpt>
      <trkpt lat="31.625373037531972" lon="-4.076876984909177">
        <ele>970.79999999999995</ele>
        <time>2003-04-18T10:08:59Z</time>
      </trkpt>
      <trkpt lat="31.62607803940773" lon="-4.07604499720037">
        <ele>972.29999999999995</ele>
        <time>2003-04-18T10:09:08Z</time>
      </trkpt>
      <trkpt lat="31.626614984124899" lon="-4.075287021696568">
        <ele>974</ele>
        <time>2003-04-18T10:09:16Z</time>
      </trkpt>
      <trkpt lat="31.626883037388325" lon="-4.074729960411787">
        <ele>975.60000000000002</ele>
        <time>2003-04-18T10:09:20Z</time>
      </trkpt>
      <trkpt lat="31.627191994339228" lon="-4.073956981301308">
        <ele>975.5</ele>
        <time>2003-04-18T10:09:27Z</time>
      </trkpt>
      <trkpt lat="31.627238010987639" lon="-4.073784984648228">
        <ele>975.70000000000005</ele>
        <time>2003-04-18T10:09:30Z</time>
      </trkpt>
      <trkpt lat="31.627244967967272" lon="-4.073633020743728">
        <ele>975.39999999999998</ele>
        <time>2003-04-18T10:09:31Z</time>
      </trkpt>
      <trkpt lat="31.627210015431046" lon="-4.073511986061931">
        <ele>975.39999999999998</ele>
        <time>2003-04-18T10:09:34Z</time>
      </trkpt>
      <trkpt lat="31.626922013238072" lon="-4.072762979194522">
        <ele>976.5</ele>
        <time>2003-04-18T10:09:46Z</time>
      </trkpt>
      <trkpt lat="31.626841966062784" lon="-4.072612021118403">
        <ele>976.89999999999998</ele>
        <time>2003-04-18T10:09:47Z</time>
      </trkpt>
      <trkpt lat="31.626784969121218" lon="-4.072528034448624">
        <ele>976.79999999999995</ele>
        <time>2003-04-18T10:09:49Z</time>
      </trkpt>
      <trkpt lat="31.626638034358621" lon="-4.072376992553473">
        <ele>976.89999999999998</ele>
        <time>2003-04-18T10:09:50Z</time>
      </trkpt>
      <trkpt lat="31.626177029684186" lon="-4.072042973712087">
        <ele>977.20000000000005</ele>
        <time>2003-04-18T10:09:55Z</time>
      </trkpt>
      <trkpt lat="31.62567000836134" lon="-4.07176704145968">
        <ele>977.70000000000005</ele>
        <time>2003-04-18T10:10:01Z</time>
      </trkpt>
      <trkpt lat="31.624783035367727" lon="-4.071542993187904">
        <ele>977.89999999999998</ele>
        <time>2003-04-18T10:10:09Z</time>
      </trkpt>
      <trkpt lat="31.624497966840863" lon="-4.071481972932816">
        <ele>978.10000000000002</ele>
        <time>2003-04-18T10:10:12Z</time>
      </trkpt>
      <trkpt lat="31.624384978786111" lon="-4.071439979597926">
        <ele>977.20000000000005</ele>
        <time>2003-04-18T10:10:13Z</time>
      </trkpt>
      <trkpt lat="31.624237960204482" lon="-4.071377031505108">
        <ele>976.5</ele>
        <time>2003-04-18T10:10:17Z</time>
      </trkpt>
      <trkpt lat="31.6239969804883" lon="-4.071262031793594">
        <ele>976.5</ele>
        <time>2003-04-18T10:10:21Z</time>
      </trkpt>
      <trkpt lat="31.623407984152436" lon="-4.071034966036677">
        <ele>977.10000000000002</ele>
        <time>2003-04-18T10:10:29Z</time>
      </trkpt>
      <trkpt lat="31.623270018026233" lon="-4.071000013500452">
        <ele>977.29999999999995</ele>
        <time>2003-04-18T10:10:32Z</time>
      </trkpt>
      <trkpt lat="31.623121993616223" lon="-4.070975035429001">
        <ele>977.89999999999998</ele>
        <time>2003-04-18T10:10:33Z</time>
      </trkpt>
      <trkpt lat="31.622976986691356" lon="-4.070915021002293">
        <ele>978.29999999999995</ele>
        <time>2003-04-18T10:10:36Z</time>
      </trkpt>
      <trkpt lat="31.62264296784997" lon="-4.070751992985606">
        <ele>978.29999999999995</ele>
        <time>2003-04-18T10:10:40Z</time>
      </trkpt>
      <trkpt lat="31.621745014563203" lon="-4.070410011336207">
        <ele>980</ele>
        <time>2003-04-18T10:10:48Z</time>
      </trkpt>
      <trkpt lat="31.621519960463047" lon="-4.070250000804663">
        <ele>979.5</ele>
        <time>2003-04-18T10:10:52Z</time>
      </trkpt>
      <trkpt lat="31.621413007378578" lon="-4.070156961679459">
        <ele>979.5</ele>
        <time>2003-04-18T10:10:53Z</time>
      </trkpt>
      <trkpt lat="31.621102038770914" lon="-4.069869965314865">
        <ele>979.39999999999998</ele>
        <time>2003-04-18T10:10:59Z</time>
      </trkpt>
      <trkpt lat="31.620940016582608" lon="-4.069718001410365">
        <ele>979.29999999999995</ele>
        <time>2003-04-18T10:11:02Z</time>
      </trkpt>
      <trkpt lat="31.62081697024405" lon="-4.069612976163626">
        <ele>979.5</ele>
        <time>2003-04-18T10:11:04Z</time>
      </trkpt>
      <trkpt lat="31.620686966925859" lon="-4.069482972845435">
        <ele>979.70000000000005</ele>
        <time>2003-04-18T10:11:07Z</time>
      </trkpt>
      <trkpt lat="31.620610021054745" lon="-4.069356992840767">
        <ele>980.39999999999998</ele>
        <time>2003-04-18T10:11:10Z</time>
      </trkpt>
      <trkpt lat="31.620562998577952" lon="-4.069209974259138">
        <ele>981</ele>
        <time>2003-04-18T10:11:11Z</time>
      </trkpt>
      <trkpt lat="31.620512958616018" lon="-4.068936975672841">
        <ele>981.20000000000005</ele>
        <time>2003-04-18T10:11:15Z</time>
      </trkpt>
      <trkpt lat="31.620456967502832" lon="-4.068603040650487">
        <ele>981.5</ele>
        <time>2003-04-18T10:11:18Z</time>
      </trkpt>
      <trkpt lat="31.620365018025041" lon="-4.067801982164383">
        <ele>983.39999999999998</ele>
        <time>2003-04-18T10:11:24Z</time>
      </trkpt>
      <trkpt lat="31.620397958904505" lon="-4.067187001928687">
        <ele>983.39999999999998</ele>
        <time>2003-04-18T10:11:30Z</time>
      </trkpt>
      <trkpt lat="31.620463002473116" lon="-4.066877961158752">
        <ele>984.39999999999998</ele>
        <time>2003-04-18T10:11:33Z</time>
      </trkpt>
      <trkpt lat="31.620557969436049" lon="-4.066542014479637">
        <ele>985.10000000000002</ele>
        <time>2003-04-18T10:11:37Z</time>
      </trkpt>
      <trkpt lat="31.620598034933209" lon="-4.06641704030335">
        <ele>984.70000000000005</ele>
        <time>2003-04-18T10:11:38Z</time>
      </trkpt>
      <trkpt lat="31.620650002732873" lon="-4.066277984529734">
        <ele>983</ele>
        <time>2003-04-18T10:11:42Z</time>
      </trkpt>
      <trkpt lat="31.620702976360917" lon="-4.066152004525065">
        <ele>983.20000000000005</ele>
        <time>2003-04-18T10:11:46Z</time>
      </trkpt>
      <trkpt lat="31.6207280382514" lon="-4.066004985943437">
        <ele>983.70000000000005</ele>
        <time>2003-04-18T10:11:49Z</time>
      </trkpt>
      <trkpt lat="31.620719991624355" lon="-4.065850004553795">
        <ele>984.39999999999998</ele>
        <time>2003-04-18T10:11:50Z</time>
      </trkpt>
      <trkpt lat="31.62068503908813" lon="-4.065714972093701">
        <ele>985.39999999999998</ele>
        <time>2003-04-18T10:11:53Z</time>
      </trkpt>
      <trkpt lat="31.620627036318183" lon="-4.065557979047298">
        <ele>986.29999999999995</ele>
        <time>2003-04-18T10:11:54Z</time>
      </trkpt>
      <trkpt lat="31.620571967214346" lon="-4.065371984615922">
        <ele>986.39999999999998</ele>
        <time>2003-04-18T10:11:57Z</time>
      </trkpt>
      <trkpt lat="31.62049300968647" lon="-4.065037965774536">
        <ele>987</ele>
        <time>2003-04-18T10:12:00Z</time>
      </trkpt>
      <trkpt lat="31.620423020794988" lon="-4.064642004668713">
        <ele>987.10000000000002</ele>
        <time>2003-04-18T10:12:02Z</time>
      </trkpt>
      <trkpt lat="31.620327970013022" lon="-4.063632991164923">
        <ele>987.79999999999995</ele>
        <time>2003-04-18T10:12:09Z</time>
      </trkpt>
      <trkpt lat="31.620399970561266" lon="-4.06311197206378">
        <ele>988.5</ele>
        <time>2003-04-18T10:12:13Z</time>
      </trkpt>
      <trkpt lat="31.620586970821023" lon="-4.062185017392039">
        <ele>989.29999999999995</ele>
        <time>2003-04-18T10:12:21Z</time>
      </trkpt>
      <trkpt lat="31.620589988306165" lon="-4.061816968023777">
        <ele>989.29999999999995</ele>
        <time>2003-04-18T10:12:24Z</time>
      </trkpt>
      <trkpt lat="31.620522011071444" lon="-4.06145503744483">
        <ele>990.5</ele>
        <time>2003-04-18T10:12:27Z</time>
      </trkpt>
      <trkpt lat="31.620412962511182" lon="-4.061102997511625">
        <ele>990.10000000000002</ele>
        <time>2003-04-18T10:12:29Z</time>
      </trkpt>
      <trkpt lat="31.620302991941571" lon="-4.060892025008798">
        <ele>991.20000000000005</ele>
        <time>2003-04-18T10:12:32Z</time>
      </trkpt>
      <trkpt lat="31.620167959481478" lon="-4.060711981728673">
        <ele>991.60000000000002</ele>
        <time>2003-04-18T10:12:33Z</time>
      </trkpt>
      <trkpt lat="31.619857996702194" lon="-4.060290036723018">
        <ele>991.60000000000002</ele>
        <time>2003-04-18T10:12:39Z</time>
      </trkpt>
      <trkpt lat="31.619765041396022" lon="-4.060161961242557">
        <ele>990.5</ele>
        <time>2003-04-18T10:12:40Z</time>
      </trkpt>
      <trkpt lat="31.619648030027747" lon="-4.060068000108004">
        <ele>990</ele>
        <time>2003-04-18T10:12:43Z</time>
      </trkpt>
      <trkpt lat="31.619449965655804" lon="-4.059942020103335">
        <ele>990.5</ele>
        <time>2003-04-18T10:12:45Z</time>
      </trkpt>
      <trkpt lat="31.619370002299547" lon="-4.059812016785145">
        <ele>990.60000000000002</ele>
        <time>2003-04-18T10:12:48Z</time>
      </trkpt>
      <trkpt lat="31.61926799453795" lon="-4.059646977111697">
        <ele>991.10000000000002</ele>
        <time>2003-04-18T10:12:51Z</time>
      </trkpt>
      <trkpt lat="31.619051992893219" lon="-4.059422006830573">
        <ele>993</ele>
        <time>2003-04-18T10:12:55Z</time>
      </trkpt>
      <trkpt lat="31.618822999298573" lon="-4.059252021834254">
        <ele>992.89999999999998</ele>
        <time>2003-04-18T10:12:58Z</time>
      </trkpt>
      <trkpt lat="31.618272978812456" lon="-4.058893024921417">
        <ele>993.20000000000005</ele>
        <time>2003-04-18T10:13:04Z</time>
      </trkpt>
      <trkpt lat="31.618201984092593" lon="-4.058823036029935">
        <ele>992</ele>
        <time>2003-04-18T10:13:08Z</time>
      </trkpt>
      <trkpt lat="31.618133001029491" lon="-4.058752963319421">
        <ele>991.5</ele>
        <time>2003-04-18T10:13:11Z</time>
      </trkpt>
      <trkpt lat="31.617990005761385" lon="-4.058602005243301">
        <ele>992.20000000000005</ele>
        <time>2003-04-18T10:13:15Z</time>
      </trkpt>
      <trkpt lat="31.61785002797842" lon="-4.058445012196899">
        <ele>993.39999999999998</ele>
        <time>2003-04-18T10:13:19Z</time>
      </trkpt>
      <trkpt lat="31.617665039375424" lon="-4.058151980862021">
        <ele>993.79999999999995</ele>
        <time>2003-04-18T10:13:22Z</time>
      </trkpt>
      <trkpt lat="31.617588009685278" lon="-4.057915024459362">
        <ele>993.89999999999998</ele>
        <time>2003-04-18T10:13:26Z</time>
      </trkpt>
      <trkpt lat="31.617596978321671" lon="-4.057704973965883">
        <ele>993.60000000000002</ele>
        <time>2003-04-18T10:13:27Z</time>
      </trkpt>
      <trkpt lat="31.617596978321671" lon="-4.057489978149533">
        <ele>993.5</ele>
        <time>2003-04-18T10:13:30Z</time>
      </trkpt>
      <trkpt lat="31.617567976936698" lon="-4.057386964559555">
        <ele>994.70000000000005</ele>
        <time>2003-04-18T10:13:30Z</time>
      </trkpt>
      <trkpt lat="31.617497988045216" lon="-4.057198036462069">
        <ele>995.60000000000002</ele>
        <time>2003-04-18T10:13:33Z</time>
      </trkpt>
      <trkpt lat="31.617262959480286" lon="-4.056520024314523">
        <ele>997</ele>
        <time>2003-04-18T10:13:39Z</time>
      </trkpt>
      <trkpt lat="31.617243010550737" lon="-4.056312991306186">
        <ele>997.29999999999995</ele>
        <time>2003-04-18T10:13:42Z</time>
      </trkpt>
      <trkpt lat="31.617258014157414" lon="-4.056112999096513">
        <ele>997.60000000000002</ele>
        <time>2003-04-18T10:13:44Z</time>
      </trkpt>
      <trkpt lat="31.617339989170432" lon="-4.055459965020418">
        <ele>998.89999999999998</ele>
        <time>2003-04-18T10:13:50Z</time>
      </trkpt>
      <trkpt lat="31.617402015253901" lon="-4.055282017216086">
        <ele>999.5</ele>
        <time>2003-04-18T10:13:53Z</time>
      </trkpt>
      <trkpt lat="31.617473009973764" lon="-4.055185038596392">
        <ele>999.89999999999998</ele>
        <time>2003-04-18T10:13:56Z</time>
      </trkpt>
      <trkpt lat="31.617620028555393" lon="-4.055046988651156">
        <ele>1000.8</ele>
        <time>2003-04-18T10:14:00Z</time>
      </trkpt>
      <trkpt lat="31.617709966376424" lon="-4.054950010031462">
        <ele>1001.3</ele>
        <time>2003-04-18T10:14:02Z</time>
      </trkpt>
      <trkpt lat="31.617775009945035" lon="-4.054840039461851">
        <ele>1001.6</ele>
        <time>2003-04-18T10:14:08Z</time>
      </trkpt>
      <trkpt lat="31.617808034643531" lon="-4.054707018658519">
        <ele>1001.6</ele>
        <time>2003-04-18T10:14:11Z</time>
      </trkpt>
      <trkpt lat="31.617820020765066" lon="-4.054529992863536">
        <ele>1001.8</ele>
        <time>2003-04-18T10:14:13Z</time>
      </trkpt>
      <trkpt lat="31.617799988016486" lon="-4.054371993988752">
        <ele>1002.2</ele>
        <time>2003-04-18T10:14:16Z</time>
      </trkpt>
      <trkpt lat="31.617756988853216" lon="-4.054239979013801">
        <ele>1002.1</ele>
        <time>2003-04-18T10:14:20Z</time>
      </trkpt>
      <trkpt lat="31.617673002183437" lon="-4.054094972088933">
        <ele>1003.3</ele>
        <time>2003-04-18T10:14:24Z</time>
      </trkpt>
      <trkpt lat="31.617581974714994" lon="-4.053990030661225">
        <ele>1003.8</ele>
        <time>2003-04-18T10:14:27Z</time>
      </trkpt>
      <trkpt lat="31.617497988045216" lon="-4.053885005414486">
        <ele>1004.2</ele>
        <time>2003-04-18T10:14:29Z</time>
      </trkpt>
      <trkpt lat="31.617487007752061" lon="-4.05372298322618">
        <ele>1004.8</ele>
        <time>2003-04-18T10:14:32Z</time>
      </trkpt>
      <trkpt lat="31.617467980831861" lon="-4.053609995171428">
        <ele>1005.2</ele>
        <time>2003-04-18T10:14:35Z</time>
      </trkpt>
      <trkpt lat="31.617460018023849" lon="-4.053492983803153">
        <ele>1005.3</ele>
        <time>2003-04-18T10:14:36Z</time>
      </trkpt>
      <trkpt lat="31.617430010810494" lon="-4.053161982446909">
        <ele>1006.3</ele>
        <time>2003-04-18T10:14:43Z</time>
      </trkpt>
      <trkpt lat="31.617375025525689" lon="-4.052977999672294">
        <ele>1007.2</ele>
        <time>2003-04-18T10:14:47Z</time>
      </trkpt>
      <trkpt lat="31.617277041077614" lon="-4.052801979705691">
        <ele>1007.6</ele>
        <time>2003-04-18T10:14:51Z</time>
      </trkpt>
      <trkpt lat="31.61722800694406" lon="-4.052702989429236">
        <ele>1007.9</ele>
        <time>2003-04-18T10:14:52Z</time>
      </trkpt>
      <trkpt lat="31.617190036922693" lon="-4.052557982504368">
        <ele>1008.9</ele>
        <time>2003-04-18T10:14:55Z</time>
      </trkpt>
      <trkpt lat="31.617203028872609" lon="-4.052438037469983">
        <ele>1009.5</ele>
        <time>2003-04-18T10:14:59Z</time>
      </trkpt>
      <trkpt lat="31.617251979187131" lon="-4.052278026938438">
        <ele>1010.1</ele>
        <time>2003-04-18T10:15:03Z</time>
      </trkpt>
      <trkpt lat="31.617337977513671" lon="-4.052150035277009">
        <ele>1010.2</ele>
        <time>2003-04-18T10:15:07Z</time>
      </trkpt>
      <trkpt lat="31.617387011647224" lon="-4.052051967009902">
        <ele>1009.6</ele>
        <time>2003-04-18T10:15:13Z</time>
      </trkpt>
      <trkpt lat="31.617478039115667" lon="-4.052009973675013">
        <ele>1009.4</ele>
        <time>2003-04-18T10:15:18Z</time>
      </trkpt>
      <trkpt lat="31.617536963894963" lon="-4.052130002528429">
        <ele>1009.2</ele>
        <time>2003-04-18T10:15:21Z</time>
      </trkpt>
      <trkpt lat="31.617622040212154" lon="-4.052177025005221">
        <ele>1009.4</ele>
        <time>2003-04-18T10:15:22Z</time>
      </trkpt>
      <trkpt lat="31.61772295832634" lon="-4.052169984206557">
        <ele>1009.2</ele>
        <time>2003-04-18T10:15:25Z</time>
      </trkpt>
      <trkpt lat="31.617896966636181" lon="-4.052163027226925">
        <ele>1009.2</ele>
        <time>2003-04-18T10:15:29Z</time>
      </trkpt>
      <trkpt lat="31.618052031844854" lon="-4.052171995863318">
        <ele>1009</ele>
        <time>2003-04-18T10:15:30Z</time>
      </trkpt>
      <trkpt lat="31.618182035163045" lon="-4.05217501334846">
        <ele>1009.2</ele>
        <time>2003-04-18T10:15:34Z</time>
      </trkpt>
      <trkpt lat="31.618332993239164" lon="-4.052173001691699">
        <ele>1009</ele>
        <time>2003-04-18T10:15:37Z</time>
      </trkpt>
      <trkpt lat="31.618755022063851" lon="-4.05213201418519">
        <ele>1007.9</ele>
        <time>2003-04-18T10:15:44Z</time>
      </trkpt>
      <trkpt lat="31.619679965078831" lon="-4.052002010867">
        <ele>1005.1</ele>
        <time>2003-04-18T10:15:59Z</time>
      </trkpt>
      <trkpt lat="31.620286982506514" lon="-4.05193998478353">
        <ele>1003.8</ele>
        <time>2003-04-18T10:16:08Z</time>
      </trkpt>
      <trkpt lat="31.621192982420325" lon="-4.051802018657327">
        <ele>1002.5</ele>
        <time>2003-04-18T10:16:20Z</time>
      </trkpt>
      <trkpt lat="31.622114991769195" lon="-4.051632033661008">
        <ele>1003.2</ele>
        <time>2003-04-18T10:16:32Z</time>
      </trkpt>
      <trkpt lat="31.62262000143528" lon="-4.051576964557171">
        <ele>1002.7</ele>
        <time>2003-04-18T10:16:39Z</time>
      </trkpt>
      <trkpt lat="31.623074971139431" lon="-4.05153002589941">
        <ele>1001</ele>
        <time>2003-04-18T10:16:44Z</time>
      </trkpt>
      <trkpt lat="31.624021958559752" lon="-4.051364986225963">
        <ele>1000.3</ele>
        <time>2003-04-18T10:16:55Z</time>
      </trkpt>
      <trkpt lat="31.624326976016164" lon="-4.051317041739821">
        <ele>1000.4</ele>
        <time>2003-04-18T10:16:58Z</time>
      </trkpt>
      <trkpt lat="31.62449000403285" lon="-4.051304971799254">
        <ele>1000.5</ele>
        <time>2003-04-18T10:16:59Z</time>
      </trkpt>
      <trkpt lat="31.624716985970736" lon="-4.051267001777887">
        <ele>1001.1</ele>
        <time>2003-04-18T10:17:02Z</time>
      </trkpt>
      <trkpt lat="31.625131973996758" lon="-4.051091987639666">
        <ele>1001.6</ele>
        <time>2003-04-18T10:17:07Z</time>
      </trkpt>
      <trkpt lat="31.625617034733295" lon="-4.050876991823316">
        <ele>999.5</ele>
        <time>2003-04-18T10:17:13Z</time>
      </trkpt>
      <trkpt lat="31.626287000253797" lon="-4.050584966316819">
        <ele>997.5</ele>
        <time>2003-04-18T10:17:20Z</time>
      </trkpt>
      <trkpt lat="31.627204986289144" lon="-4.050108036026359">
        <ele>996.20000000000005</ele>
        <time>2003-04-18T10:17:29Z</time>
      </trkpt>
      <trkpt lat="31.628096988424659" lon="-4.049718026071787">
        <ele>994.70000000000005</ele>
        <time>2003-04-18T10:17:38Z</time>
      </trkpt>
      <trkpt lat="31.628853036090732" lon="-4.049306977540255">
        <ele>993.20000000000005</ele>
        <time>2003-04-18T10:17:47Z</time>
      </trkpt>
      <trkpt lat="31.629119999706745" lon="-4.049155013635755">
        <ele>993.60000000000002</ele>
        <time>2003-04-18T10:17:49Z</time>
      </trkpt>
      <trkpt lat="31.629998004063964" lon="-4.048725022003055">
        <ele>993.60000000000002</ele>
        <time>2003-04-18T10:17:59Z</time>
      </trkpt>
      <trkpt lat="31.630835020914674" lon="-4.048301987349987">
        <ele>995</ele>
        <time>2003-04-18T10:18:07Z</time>
      </trkpt>
      <trkpt lat="31.631587967276573" lon="-4.047952964901924">
        <ele>994.70000000000005</ele>
        <time>2003-04-18T10:18:14Z</time>
      </trkpt>
      <trkpt lat="31.631798017770052" lon="-4.047932010143995">
        <ele>994.20000000000005</ele>
        <time>2003-04-18T10:18:16Z</time>
      </trkpt>
      <trkpt lat="31.632217029109597" lon="-4.047863027080894">
        <ele>993.39999999999998</ele>
        <time>2003-04-18T10:18:19Z</time>
      </trkpt>
      <trkpt lat="31.633122023195028" lon="-4.047721959650517">
        <ele>992.29999999999995</ele>
        <time>2003-04-18T10:18:27Z</time>
      </trkpt>
      <trkpt lat="31.634031962603331" lon="-4.047577036544681">
        <ele>990.5</ele>
        <time>2003-04-18T10:18:35Z</time>
      </trkpt>
      <trkpt lat="31.634357012808323" lon="-4.047482991591096">
        <ele>989.79999999999995</ele>
        <time>2003-04-18T10:18:39Z</time>
      </trkpt>
      <trkpt lat="31.634882977232337" lon="-4.047322981059551">
        <ele>988.20000000000005</ele>
        <time>2003-04-18T10:18:43Z</time>
      </trkpt>
      <trkpt lat="31.634981967508793" lon="-4.047333039343357">
        <ele>988.10000000000002</ele>
        <time>2003-04-18T10:18:45Z</time>
      </trkpt>
      <trkpt lat="31.635333001613617" lon="-4.047402022406459">
        <ele>987.20000000000005</ele>
        <time>2003-04-18T10:18:49Z</time>
      </trkpt>
      <trkpt lat="31.63626498542726" lon="-4.047669991850853">
        <ele>985.89999999999998</ele>
        <time>2003-04-18T10:19:02Z</time>
      </trkpt>
      <trkpt lat="31.636639991775155" lon="-4.047771999612451">
        <ele>987.79999999999995</ele>
        <time>2003-04-18T10:19:05Z</time>
      </trkpt>
      <trkpt lat="31.637520007789135" lon="-4.048018008470535">
        <ele>990.5</ele>
        <time>2003-04-18T10:19:13Z</time>
      </trkpt>
      <trkpt lat="31.637877998873591" lon="-4.048129990696907">
        <ele>991.60000000000002</ele>
        <time>2003-04-18T10:19:17Z</time>
      </trkpt>
      <trkpt lat="31.638043038547039" lon="-4.048105012625456">
        <ele>991.39999999999998</ele>
        <time>2003-04-18T10:19:20Z</time>
      </trkpt>
      <trkpt lat="31.6385199688375" lon="-4.048029994592071">
        <ele>991.89999999999998</ele>
        <time>2003-04-18T10:19:25Z</time>
      </trkpt>
      <trkpt lat="31.639329995959997" lon="-4.047927986830473">
        <ele>992.20000000000005</ele>
        <time>2003-04-18T10:19:33Z</time>
      </trkpt>
      <trkpt lat="31.640170030295849" lon="-4.047793038189411">
        <ele>993.10000000000002</ele>
        <time>2003-04-18T10:19:40Z</time>
      </trkpt>
      <trkpt lat="31.641160016879439" lon="-4.047520039603114">
        <ele>992.70000000000005</ele>
        <time>2003-04-18T10:19:48Z</time>
      </trkpt>
      <trkpt lat="31.641508033499122" lon="-4.04733999632299">
        <ele>992.20000000000005</ele>
        <time>2003-04-18T10:19:51Z</time>
      </trkpt>
      <trkpt lat="31.64236499927938" lon="-4.046698026359081">
        <ele>989.89999999999998</ele>
        <time>2003-04-18T10:19:59Z</time>
      </trkpt>
      <trkpt lat="31.643220037221909" lon="-4.046062007546425">
        <ele>988</ele>
        <time>2003-04-18T10:20:07Z</time>
      </trkpt>
      <trkpt lat="31.64356998167932" lon="-4.045893028378487">
        <ele>987.10000000000002</ele>
        <time>2003-04-18T10:20:10Z</time>
      </trkpt>
      <trkpt lat="31.643937025219202" lon="-4.045796971768141">
        <ele>986.20000000000005</ele>
        <time>2003-04-18T10:20:12Z</time>
      </trkpt>
      <trkpt lat="31.644894992932677" lon="-4.045590022578836">
        <ele>984.79999999999995</ele>
        <time>2003-04-18T10:20:20Z</time>
      </trkpt>
      <trkpt lat="31.645793030038476" lon="-4.045426994562149">
        <ele>983</ele>
        <time>2003-04-18T10:20:29Z</time>
      </trkpt>
      <trkpt lat="31.646701963618398" lon="-4.045248040929437">
        <ele>982.39999999999998</ele>
        <time>2003-04-18T10:20:37Z</time>
      </trkpt>
      <trkpt lat="31.647618021816015" lon="-4.045006977394223">
        <ele>980.79999999999995</ele>
        <time>2003-04-18T10:20:45Z</time>
      </trkpt>
      <trkpt lat="31.648197965696454" lon="-4.044894995167851">
        <ele>979.89999999999998</ele>
        <time>2003-04-18T10:20:50Z</time>
      </trkpt>
      <trkpt lat="31.648416984826326" lon="-4.044922990724444">
        <ele>979.89999999999998</ele>
        <time>2003-04-18T10:20:51Z</time>
      </trkpt>
      <trkpt lat="31.648686965927482" lon="-4.045007983222604">
        <ele>979.5</ele>
        <time>2003-04-18T10:20:54Z</time>
      </trkpt>
      <trkpt lat="31.648782016709447" lon="-4.045037990435958">
        <ele>978.60000000000002</ele>
        <time>2003-04-18T10:20:57Z</time>
      </trkpt>
      <trkpt lat="31.649227011948824" lon="-4.04517000541091">
        <ele>979.60000000000002</ele>
        <time>2003-04-18T10:21:05Z</time>
      </trkpt>
      <trkpt lat="31.649490036070347" lon="-4.045177968218923">
        <ele>980.29999999999995</ele>
        <time>2003-04-18T10:21:08Z</time>
      </trkpt>
      <trkpt lat="31.64969002828002" lon="-4.045147961005569">
        <ele>980.5</ele>
        <time>2003-04-18T10:21:09Z</time>
      </trkpt>
      <trkpt lat="31.649893037974834" lon="-4.045060034841299">
        <ele>980.29999999999995</ele>
        <time>2003-04-18T10:21:12Z</time>
      </trkpt>
      <trkpt lat="31.650302996858954" lon="-4.044774966314435">
        <ele>980.5</ele>
        <time>2003-04-18T10:21:16Z</time>
      </trkpt>
      <trkpt lat="31.65108704008162" lon="-4.04414196498692">
        <ele>979.29999999999995</ele>
        <time>2003-04-18T10:21:24Z</time>
      </trkpt>
      <trkpt lat="31.6518600191921" lon="-4.043514998629689">
        <ele>976.79999999999995</ele>
        <time>2003-04-18T10:21:32Z</time>
      </trkpt>
      <trkpt lat="31.652607014402747" lon="-4.042917033657432">
        <ele>974.60000000000002</ele>
        <time>2003-04-18T10:21:39Z</time>
      </trkpt>
      <trkpt lat="31.653410000726581" lon="-4.042274979874492">
        <ele>973.39999999999998</ele>
        <time>2003-04-18T10:21:47Z</time>
      </trkpt>
      <trkpt lat="31.654022969305515" lon="-4.041748009622097">
        <ele>972.60000000000002</ele>
        <time>2003-04-18T10:21:54Z</time>
      </trkpt>
      <trkpt lat="31.654078038409352" lon="-4.041650025174022">
        <ele>972.20000000000005</ele>
        <time>2003-04-18T10:21:55Z</time>
      </trkpt>
      <trkpt lat="31.654142998158932" lon="-4.041430000215769">
        <ele>971.10000000000002</ele>
        <time>2003-04-18T10:21:56Z</time>
      </trkpt>
      <trkpt lat="31.654147021472454" lon="-4.0411969833076">
        <ele>970.5</ele>
        <time>2003-04-18T10:21:59Z</time>
      </trkpt>
      <trkpt lat="31.654121959581971" lon="-4.04108801856637">
        <ele>969.79999999999995</ele>
        <time>2003-04-18T10:21:59Z</time>
      </trkpt>
      <trkpt lat="31.654078038409352" lon="-4.040985004976392">
        <ele>969.10000000000002</ele>
        <time>2003-04-18T10:22:00Z</time>
      </trkpt>
      <trkpt lat="31.654021963477135" lon="-4.040890038013458">
        <ele>968.5</ele>
        <time>2003-04-18T10:22:02Z</time>
      </trkpt>
      <trkpt lat="31.653785007074475" lon="-4.040459962561727">
        <ele>966.60000000000002</ele>
        <time>2003-04-18T10:22:07Z</time>
      </trkpt>
      <trkpt lat="31.653728010132909" lon="-4.040347980335355">
        <ele>966.5</ele>
        <time>2003-04-18T10:22:08Z</time>
      </trkpt>
      <trkpt lat="31.653632959350944" lon="-4.040200039744377">
        <ele>964.79999999999995</ele>
        <time>2003-04-18T10:22:11Z</time>
      </trkpt>
      <trkpt lat="31.653462974354625" lon="-4.03997196815908">
        <ele>963.60000000000002</ele>
        <time>2003-04-18T10:22:15Z</time>
      </trkpt>
      <trkpt lat="31.653421986848116" lon="-4.039855040609837">
        <ele>963.10000000000002</ele>
        <time>2003-04-18T10:22:18Z</time>
      </trkpt>
      <trkpt lat="31.653397008776665" lon="-4.039722019806504">
        <ele>962.60000000000002</ele>
        <time>2003-04-18T10:22:23Z</time>
      </trkpt>
      <trkpt lat="31.653355015441775" lon="-4.039537031203508">
        <ele>964.20000000000005</ele>
        <time>2003-04-18T10:22:30Z</time>
      </trkpt>
      <trkpt lat="31.653312016278505" lon="-4.039438040927053">
        <ele>964.70000000000005</ele>
        <time>2003-04-18T10:22:31Z</time>
      </trkpt>
      <trkpt lat="31.653213026002049" lon="-4.039286999031901">
        <ele>965.79999999999995</ele>
        <time>2003-04-18T10:22:34Z</time>
      </trkpt>
      <trkpt lat="31.653077993541956" lon="-4.039156995713711">
        <ele>966.5</ele>
        <time>2003-04-18T10:22:38Z</time>
      </trkpt>
      <trkpt lat="31.652928041294217" lon="-4.039048030972481">
        <ele>968.10000000000002</ele>
        <time>2003-04-18T10:22:41Z</time>
      </trkpt>
      <trkpt lat="31.652523027732968" lon="-4.038827000185847">
        <ele>970.5</ele>
        <time>2003-04-18T10:22:48Z</time>
      </trkpt>
      <trkpt lat="31.652453038841486" lon="-4.038688028231263">
        <ele>971.20000000000005</ele>
        <time>2003-04-18T10:22:49Z</time>
      </trkpt>
      <trkpt lat="31.652426971122622" lon="-4.038528017699719">
        <ele>972</ele>
        <time>2003-04-18T10:22:52Z</time>
      </trkpt>
      <trkpt lat="31.652422025799751" lon="-4.03827304020524">
        <ele>973.29999999999995</ele>
        <time>2003-04-18T10:22:54Z</time>
      </trkpt>
      <trkpt lat="31.652459995821118" lon="-4.03801697306335">
        <ele>973.39999999999998</ele>
        <time>2003-04-18T10:22:57Z</time>
      </trkpt>
      <trkpt lat="31.652526967227459" lon="-4.037862997502089">
        <ele>973.79999999999995</ele>
        <time>2003-04-18T10:23:00Z</time>
      </trkpt>
      <trkpt lat="31.652629980817437" lon="-4.037699969485402">
        <ele>973.39999999999998</ele>
        <time>2003-04-18T10:23:01Z</time>
      </trkpt>
      <trkpt lat="31.652827039361" lon="-4.037447003647685">
        <ele>973.29999999999995</ele>
        <time>2003-04-18T10:23:05Z</time>
      </trkpt>
      <trkpt lat="31.653095008805394" lon="-4.037252040579915">
        <ele>973.29999999999995</ele>
        <time>2003-04-18T10:23:08Z</time>
      </trkpt>
      <trkpt lat="31.654030010104179" lon="-4.036837974563241">
        <ele>972.79999999999995</ele>
        <time>2003-04-18T10:23:16Z</time>
      </trkpt>
      <trkpt lat="31.654982026666403" lon="-4.036582997068763">
        <ele>971.20000000000005</ele>
        <time>2003-04-18T10:23:25Z</time>
      </trkpt>
      <trkpt lat="31.65532199665904" lon="-4.036477971822023">
        <ele>969.70000000000005</ele>
        <time>2003-04-18T10:23:29Z</time>
      </trkpt>
      <trkpt lat="31.65557999163866" lon="-4.036432038992643">
        <ele>969.20000000000005</ele>
        <time>2003-04-18T10:23:32Z</time>
      </trkpt>
      <trkpt lat="31.655898001044989" lon="-4.036377975717187">
        <ele>969.20000000000005</ele>
        <time>2003-04-18T10:23:36Z</time>
      </trkpt>
      <trkpt lat="31.65650300681591" lon="-4.036230035126209">
        <ele>969.60000000000002</ele>
        <time>2003-04-18T10:23:40Z</time>
      </trkpt>
      <trkpt lat="31.657412024214864" lon="-4.035897022113204">
        <ele>967.20000000000005</ele>
        <time>2003-04-18T10:23:48Z</time>
      </trkpt>
      <trkpt lat="31.658290028572083" lon="-4.035505000501871">
        <ele>965.39999999999998</ele>
        <time>2003-04-18T10:23:55Z</time>
      </trkpt>
      <trkpt lat="31.658857986330986" lon="-4.035318000242114">
        <ele>964.60000000000002</ele>
        <time>2003-04-18T10:23:59Z</time>
      </trkpt>
      <trkpt lat="31.659822994843125" lon="-4.035048019140959">
        <ele>963.5</ele>
        <time>2003-04-18T10:24:07Z</time>
      </trkpt>
      <trkpt lat="31.660709967836738" lon="-4.034737972542644">
        <ele>961.79999999999995</ele>
        <time>2003-04-18T10:24:14Z</time>
      </trkpt>
      <trkpt lat="31.66129301302135" lon="-4.034447958692908">
        <ele>960.89999999999998</ele>
        <time>2003-04-18T10:24:18Z</time>
      </trkpt>
      <trkpt lat="31.662209993228316" lon="-4.034182000905275">
        <ele>959.89999999999998</ele>
        <time>2003-04-18T10:24:26Z</time>
      </trkpt>
      <trkpt lat="31.663152035325766" lon="-4.033827027305961">
        <ele>959.70000000000005</ele>
        <time>2003-04-18T10:24:33Z</time>
      </trkpt>
      <trkpt lat="31.664091981947422" lon="-4.033363005146384">
        <ele>958.89999999999998</ele>
        <time>2003-04-18T10:24:40Z</time>
      </trkpt>
      <trkpt lat="31.664999993517995" lon="-4.032908035442233">
        <ele>958.29999999999995</ele>
        <time>2003-04-18T10:24:46Z</time>
      </trkpt>
      <trkpt lat="31.665895013138652" lon="-4.032445019111037">
        <ele>957.10000000000002</ele>
        <time>2003-04-18T10:24:53Z</time>
      </trkpt>
      <trkpt lat="31.666572019457817" lon="-4.032075041905046">
        <ele>956.70000000000005</ele>
        <time>2003-04-18T10:25:00Z</time>
      </trkpt>
      <trkpt lat="31.667156992480159" lon="-4.031907990574837">
        <ele>956.10000000000002</ele>
        <time>2003-04-18T10:25:04Z</time>
      </trkpt>
      <trkpt lat="31.667616991326213" lon="-4.031746974214912">
        <ele>956</ele>
        <time>2003-04-18T10:25:08Z</time>
      </trkpt>
      <trkpt lat="31.668502958491445" lon="-4.031286975368857">
        <ele>956</ele>
        <time>2003-04-18T10:25:16Z</time>
      </trkpt>
      <trkpt lat="31.669356990605593" lon="-4.03088497929275">
        <ele>956</ele>
        <time>2003-04-18T10:25:24Z</time>
      </trkpt>
      <trkpt lat="31.670113038271666" lon="-4.030521959066391">
        <ele>955.10000000000002</ele>
        <time>2003-04-18T10:25:31Z</time>
      </trkpt>
      <trkpt lat="31.671028006821871" lon="-4.030062966048718">
        <ele>955</ele>
        <time>2003-04-18T10:25:39Z</time>
      </trkpt>
      <trkpt lat="31.671874998137355" lon="-4.02965996414423">
        <ele>955</ele>
        <time>2003-04-18T10:25:44Z</time>
      </trkpt>
      <trkpt lat="31.672736993059516" lon="-4.029259979724884">
        <ele>954.5</ele>
        <time>2003-04-18T10:25:51Z</time>
      </trkpt>
      <trkpt lat="31.673660008236766" lon="-4.028833005577326">
        <ele>953.89999999999998</ele>
        <time>2003-04-18T10:25:58Z</time>
      </trkpt>
      <trkpt lat="31.674543041735888" lon="-4.028367977589369">
        <ele>953.5</ele>
        <time>2003-04-18T10:26:05Z</time>
      </trkpt>
      <trkpt lat="31.675449963659048" lon="-4.027932034805417">
        <ele>953.39999999999998</ele>
        <time>2003-04-18T10:26:11Z</time>
      </trkpt>
      <trkpt lat="31.67635302990675" lon="-4.027561973780394">
        <ele>953.10000000000002</ele>
        <time>2003-04-18T10:26:18Z</time>
      </trkpt>
      <trkpt lat="31.677261963486671" lon="-4.027110021561384">
        <ele>953.10000000000002</ele>
        <time>2003-04-18T10:26:25Z</time>
      </trkpt>
      <trkpt lat="31.677826987579465" lon="-4.026842974126339">
        <ele>953.39999999999998</ele>
        <time>2003-04-18T10:26:30Z</time>
      </trkpt>
      <trkpt lat="31.678710021078587" lon="-4.026369983330369">
        <ele>953.39999999999998</ele>
        <time>2003-04-18T10:26:38Z</time>
      </trkpt>
      <trkpt lat="31.679183011874557" lon="-4.026126991957426">
        <ele>953.60000000000002</ele>
        <time>2003-04-18T10:26:42Z</time>
      </trkpt>
      <trkpt lat="31.679297005757689" lon="-4.026117017492652">
        <ele>953.79999999999995</ele>
        <time>2003-04-18T10:26:44Z</time>
      </trkpt>
      <trkpt lat="31.679627001285553" lon="-4.026094973087311">
        <ele>954.29999999999995</ele>
        <time>2003-04-18T10:26:47Z</time>
      </trkpt>
      <trkpt lat="31.679851971566677" lon="-4.026135038584471">
        <ele>954.5</ele>
        <time>2003-04-18T10:26:49Z</time>
      </trkpt>
      <trkpt lat="31.680196970701218" lon="-4.026266969740391">
        <ele>953.79999999999995</ele>
        <time>2003-04-18T10:26:52Z</time>
      </trkpt>
      <trkpt lat="31.681031975895166" lon="-4.026753036305308">
        <ele>954.39999999999998</ele>
        <time>2003-04-18T10:26:59Z</time>
      </trkpt>
      <trkpt lat="31.681858012452722" lon="-4.027289981022477">
        <ele>958.5</ele>
        <time>2003-04-18T10:27:05Z</time>
      </trkpt>
      <trkpt lat="31.681945016607642" lon="-4.027404980733991">
        <ele>958.39999999999998</ele>
        <time>2003-04-18T10:27:07Z</time>
      </trkpt>
      <trkpt lat="31.682011988013983" lon="-4.02753297239542">
        <ele>957.79999999999995</ele>
        <time>2003-04-18T10:27:08Z</time>
      </trkpt>
      <trkpt lat="31.682063033804297" lon="-4.027679990977049">
        <ele>956.20000000000005</ele>
        <time>2003-04-18T10:27:08Z</time>
      </trkpt>
      <trkpt lat="31.68213302269578" lon="-4.027817035093904">
        <ele>956.20000000000005</ele>
        <time>2003-04-18T10:27:09Z</time>
      </trkpt>
      <trkpt lat="31.682682959362864" lon="-4.028793023899198">
        <ele>955.10000000000002</ele>
        <time>2003-04-18T10:27:18Z</time>
      </trkpt>
      <trkpt lat="31.683198027312756" lon="-4.029812011867762">
        <ele>954.20000000000005</ele>
        <time>2003-04-18T10:27:27Z</time>
      </trkpt>
      <trkpt lat="31.683792974799871" lon="-4.030941976234317">
        <ele>954.20000000000005</ele>
        <time>2003-04-18T10:27:36Z</time>
      </trkpt>
      <trkpt lat="31.684294966980815" lon="-4.031902961432934">
        <ele>953.79999999999995</ele>
        <time>2003-04-18T10:27:45Z</time>
      </trkpt>
      <trkpt lat="31.684908019378781" lon="-4.033012976869941">
        <ele>953.79999999999995</ele>
        <time>2003-04-18T10:27:54Z</time>
      </trkpt>
      <trkpt lat="31.685423003509641" lon="-4.034012015908957">
        <ele>953.39999999999998</ele>
        <time>2003-04-18T10:28:02Z</time>
      </trkpt>
      <trkpt lat="31.685949973762035" lon="-4.034977024421096">
        <ele>953.10000000000002</ele>
        <time>2003-04-18T10:28:10Z</time>
      </trkpt>
      <trkpt lat="31.686462024226785" lon="-4.035914959385991">
        <ele>952.89999999999998</ele>
        <time>2003-04-18T10:28:17Z</time>
      </trkpt>
      <trkpt lat="31.686957981437445" lon="-4.036896983161569">
        <ele>952.70000000000005</ele>
        <time>2003-04-18T10:28:25Z</time>
      </trkpt>
      <trkpt lat="31.687455028295517" lon="-4.037835001945496">
        <ele>953.39999999999998</ele>
        <time>2003-04-18T10:28:33Z</time>
      </trkpt>
      <trkpt lat="31.687964983284473" lon="-4.038797998800874">
        <ele>952.20000000000005</ele>
        <time>2003-04-18T10:28:41Z</time>
      </trkpt>
      <trkpt lat="31.688318029046059" lon="-4.039472993463278">
        <ele>952.39999999999998</ele>
        <time>2003-04-18T10:28:48Z</time>
      </trkpt>
      <trkpt lat="31.688381982967257" lon="-4.039586987346411">
        <ele>952.20000000000005</ele>
        <time>2003-04-18T10:28:48Z</time>
      </trkpt>
      <trkpt lat="31.688763024285436" lon="-4.040327025577426">
        <ele>951</ele>
        <time>2003-04-18T10:28:56Z</time>
      </trkpt>
      <trkpt lat="31.688852962106466" lon="-4.040451999753714">
        <ele>951.60000000000002</ele>
        <time>2003-04-18T10:28:57Z</time>
      </trkpt>
      <trkpt lat="31.689122021198273" lon="-4.040837986394763">
        <ele>951.5</ele>
        <time>2003-04-18T10:29:03Z</time>
      </trkpt>
      <trkpt lat="31.689297035336494" lon="-4.041178040206432">
        <ele>951.39999999999998</ele>
        <time>2003-04-18T10:29:07Z</time>
      </trkpt>
      <trkpt lat="31.689657038077712" lon="-4.041780028492212">
        <ele>951</ele>
        <time>2003-04-18T10:29:11Z</time>
      </trkpt>
      <trkpt lat="31.689902041107416" lon="-4.042084962129593">
        <ele>951.20000000000005</ele>
        <time>2003-04-18T10:29:14Z</time>
      </trkpt>
      <trkpt lat="31.690002037212253" lon="-4.042155034840107">
        <ele>951.5</ele>
        <time>2003-04-18T10:29:15Z</time>
      </trkpt>
      <trkpt lat="31.690088035538793" lon="-4.042244972661138">
        <ele>951.60000000000002</ele>
        <time>2003-04-18T10:29:15Z</time>
      </trkpt>
      <trkpt lat="31.690779961645603" lon="-4.042982999235392">
        <ele>952.10000000000002</ele>
        <time>2003-04-18T10:29:23Z</time>
      </trkpt>
      <trkpt lat="31.690875012427568" lon="-4.043062040582299">
        <ele>952.20000000000005</ele>
        <time>2003-04-18T10:29:24Z</time>
      </trkpt>
      <trkpt lat="31.691080033779144" lon="-4.043188020586968">
        <ele>952.79999999999995</ele>
        <time>2003-04-18T10:29:27Z</time>
      </trkpt>
      <trkpt lat="31.691371975466609" lon="-4.043392036110163">
        <ele>953.20000000000005</ele>
        <time>2003-04-18T10:29:30Z</time>
      </trkpt>
      <trkpt lat="31.692225001752377" lon="-4.043999975547195">
        <ele>952.10000000000002</ele>
        <time>2003-04-18T10:29:38Z</time>
      </trkpt>
      <trkpt lat="31.693062018603086" lon="-4.044552007690072">
        <ele>953.39999999999998</ele>
        <time>2003-04-18T10:29:45Z</time>
      </trkpt>
      <trkpt lat="31.693925019353628" lon="-4.045066991820931">
        <ele>953.29999999999995</ele>
        <time>2003-04-18T10:29:51Z</time>
      </trkpt>
      <trkpt lat="31.694833030924201" lon="-4.04559999704361">
        <ele>951.70000000000005</ele>
        <time>2003-04-18T10:30:00Z</time>
      </trkpt>
      <trkpt lat="31.695742970332503" lon="-4.046074999496341">
        <ele>950.89999999999998</ele>
        <time>2003-04-18T10:30:08Z</time>
      </trkpt>
      <trkpt lat="31.696622986346483" lon="-4.046512031927705">
        <ele>949.89999999999998</ele>
        <time>2003-04-18T10:30:14Z</time>
      </trkpt>
      <trkpt lat="31.6973249707371" lon="-4.046872034668922">
        <ele>950.70000000000005</ele>
        <time>2003-04-18T10:30:21Z</time>
      </trkpt>
      <trkpt lat="31.698171962052584" lon="-4.047337984666228">
        <ele>949.70000000000005</ele>
        <time>2003-04-18T10:30:29Z</time>
      </trkpt>
      <trkpt lat="31.699033034965396" lon="-4.047797983512282">
        <ele>951.70000000000005</ele>
        <time>2003-04-18T10:30:37Z</time>
      </trkpt>
      <trkpt lat="31.69983996078372" lon="-4.048252031207085">
        <ele>955.20000000000005</ele>
        <time>2003-04-18T10:30:44Z</time>
      </trkpt>
      <trkpt lat="31.700325021520257" lon="-4.048468032851815">
        <ele>954.10000000000002</ele>
        <time>2003-04-18T10:30:48Z</time>
      </trkpt>
      <trkpt lat="31.701234960928559" lon="-4.048889977857471">
        <ele>953.29999999999995</ele>
        <time>2003-04-18T10:30:55Z</time>
      </trkpt>
      <trkpt lat="31.702214973047376" lon="-4.049245035275817">
        <ele>952</ele>
        <time>2003-04-18T10:31:03Z</time>
      </trkpt>
      <trkpt lat="31.703118039295077" lon="-4.049507975578308">
        <ele>950.39999999999998</ele>
        <time>2003-04-18T10:31:10Z</time>
      </trkpt>
      <trkpt lat="31.704111965373158" lon="-4.04976999387145">
        <ele>948.79999999999995</ele>
        <time>2003-04-18T10:31:18Z</time>
      </trkpt>
      <trkpt lat="31.704495018348098" lon="-4.049827996641398">
        <ele>948.5</ele>
        <time>2003-04-18T10:31:21Z</time>
      </trkpt>
      <trkpt lat="31.705500008538365" lon="-4.049969986081123">
        <ele>948.39999999999998</ele>
        <time>2003-04-18T10:31:29Z</time>
      </trkpt>
      <trkpt lat="31.706399973481894" lon="-4.050126979127526">
        <ele>948.39999999999998</ele>
        <time>2003-04-18T10:31:37Z</time>
      </trkpt>
      <trkpt lat="31.707370011135936" lon="-4.050326971337199">
        <ele>948.29999999999995</ele>
        <time>2003-04-18T10:31:45Z</time>
      </trkpt>
      <trkpt lat="31.707802014425397" lon="-4.050423027947545">
        <ele>948.70000000000005</ele>
        <time>2003-04-18T10:31:49Z</time>
      </trkpt>
      <trkpt lat="31.707927994430065" lon="-4.050442976877093">
        <ele>948.79999999999995</ele>
        <time>2003-04-18T10:31:52Z</time>
      </trkpt>
      <trkpt lat="31.708278022706509" lon="-4.05049997381866">
        <ele>948.60000000000002</ele>
        <time>2003-04-18T10:31:54Z</time>
      </trkpt>
      <trkpt lat="31.708610029891133" lon="-4.050567029044032">
        <ele>948.5</ele>
        <time>2003-04-18T10:31:57Z</time>
      </trkpt>
      <trkpt lat="31.709232972934842" lon="-4.050697032362223">
        <ele>948.10000000000002</ele>
        <time>2003-04-18T10:32:04Z</time>
      </trkpt>
      <trkpt lat="31.709813000634313" lon="-4.050799962133169">
        <ele>948</ele>
        <time>2003-04-18T10:32:09Z</time>
      </trkpt>
      <trkpt lat="31.710812961682677" lon="-4.050989979878068">
        <ele>947.79999999999995</ele>
        <time>2003-04-18T10:32:17Z</time>
      </trkpt>
      <trkpt lat="31.71178299933672" lon="-4.051204975694418">
        <ele>947.70000000000005</ele>
        <time>2003-04-18T10:32:25Z</time>
      </trkpt>
      <trkpt lat="31.712671983987093" lon="-4.051417037844658">
        <ele>947.39999999999998</ele>
        <time>2003-04-18T10:32:32Z</time>
      </trkpt>
      <trkpt lat="31.713557029142976" lon="-4.05170202255249">
        <ele>947.79999999999995</ele>
        <time>2003-04-18T10:32:40Z</time>
      </trkpt>
      <trkpt lat="31.71429798938334" lon="-4.051879970356822">
        <ele>947.5</ele>
        <time>2003-04-18T10:32:46Z</time>
      </trkpt>
      <trkpt lat="31.71528797596693" lon="-4.051927998661995">
        <ele>947.20000000000005</ele>
        <time>2003-04-18T10:32:54Z</time>
      </trkpt>
      <trkpt lat="31.715731965377927" lon="-4.051996981725097">
        <ele>947</ele>
        <time>2003-04-18T10:32:58Z</time>
      </trkpt>
      <trkpt lat="31.716652968898416" lon="-4.052211977541447">
        <ele>946.89999999999998</ele>
        <time>2003-04-18T10:33:06Z</time>
      </trkpt>
      <trkpt lat="31.717353025451303" lon="-4.052378023043275">
        <ele>947</ele>
        <time>2003-04-18T10:33:10Z</time>
      </trkpt>
      <trkpt lat="31.718266988173127" lon="-4.052587989717722">
        <ele>947.20000000000005</ele>
        <time>2003-04-18T10:33:17Z</time>
      </trkpt>
      <trkpt lat="31.71919796615839" lon="-4.052812959998846">
        <ele>947</ele>
        <time>2003-04-18T10:33:23Z</time>
      </trkpt>
      <trkpt lat="31.719502983614802" lon="-4.052899964153767">
        <ele>946.5</ele>
        <time>2003-04-18T10:33:26Z</time>
      </trkpt>
      <trkpt lat="31.720398003235459" lon="-4.05316298827529">
        <ele>945.70000000000005</ele>
        <time>2003-04-18T10:33:36Z</time>
      </trkpt>
      <trkpt lat="31.721354965120554" lon="-4.053402040153742">
        <ele>945.60000000000002</ele>
        <time>2003-04-18T10:33:45Z</time>
      </trkpt>
      <trkpt lat="31.722313016653061" lon="-4.053628016263247">
        <ele>947</ele>
        <time>2003-04-18T10:33:54Z</time>
      </trkpt>
      <trkpt lat="31.72246003523469" lon="-4.053676966577768">
        <ele>946.79999999999995</ele>
        <time>2003-04-18T10:33:57Z</time>
      </trkpt>
      <trkpt lat="31.723037967458367" lon="-4.053860027343035">
        <ele>944.10000000000002</ele>
        <time>2003-04-18T10:34:04Z</time>
      </trkpt>
      <trkpt lat="31.723659988492727" lon="-4.054018026217818">
        <ele>943.89999999999998</ele>
        <time>2003-04-18T10:34:11Z</time>
      </trkpt>
      <trkpt lat="31.723780017346144" lon="-4.054051972925663">
        <ele>942.79999999999995</ele>
        <time>2003-04-18T10:34:13Z</time>
      </trkpt>
      <trkpt lat="31.723891999572515" lon="-4.054107964038849">
        <ele>943.5</ele>
        <time>2003-04-18T10:34:16Z</time>
      </trkpt>
      <trkpt lat="31.724029965698719" lon="-4.05415297485888">
        <ele>944.20000000000005</ele>
        <time>2003-04-18T10:34:17Z</time>
      </trkpt>
      <trkpt lat="31.724191987887025" lon="-4.054181976243854">
        <ele>943.89999999999998</ele>
        <time>2003-04-18T10:34:20Z</time>
      </trkpt>
      <trkpt lat="31.725045014172792" lon="-4.054384985938668">
        <ele>945.10000000000002</ele>
        <time>2003-04-18T10:34:30Z</time>
      </trkpt>
      <trkpt lat="31.725141992792487" lon="-4.054426979273558">
        <ele>945.20000000000005</ele>
        <time>2003-04-18T10:34:35Z</time>
      </trkpt>
      <trkpt lat="31.725262021645904" lon="-4.054484982043505">
        <ele>945.89999999999998</ele>
        <time>2003-04-18T10:34:39Z</time>
      </trkpt>
      <trkpt lat="31.725477017462254" lon="-4.054581960663199">
        <ele>945.39999999999998</ele>
        <time>2003-04-18T10:34:43Z</time>
      </trkpt>
      <trkpt lat="31.725622024387121" lon="-4.054652033373714">
        <ele>945.20000000000005</ele>
        <time>2003-04-18T10:34:44Z</time>
      </trkpt>
      <trkpt lat="31.725750016048551" lon="-4.054753035306931">
        <ele>945.10000000000002</ele>
        <time>2003-04-18T10:34:47Z</time>
      </trkpt>
      <trkpt lat="31.726343035697937" lon="-4.055201970040798">
        <ele>943.89999999999998</ele>
        <time>2003-04-18T10:34:55Z</time>
      </trkpt>
      <trkpt lat="31.726679988205433" lon="-4.055372960865498">
        <ele>943.5</ele>
        <time>2003-04-18T10:35:01Z</time>
      </trkpt>
      <trkpt lat="31.726794987916946" lon="-4.055457031354308">
        <ele>944.10000000000002</ele>
        <time>2003-04-18T10:35:02Z</time>
      </trkpt>
      <trkpt lat="31.726919962093234" lon="-4.055522996932268">
        <ele>943.89999999999998</ele>
        <time>2003-04-18T10:35:05Z</time>
      </trkpt>
      <trkpt lat="31.727163037285209" lon="-4.055621987208724">
        <ele>945.20000000000005</ele>
        <time>2003-04-18T10:35:09Z</time>
      </trkpt>
      <trkpt lat="31.727250041440129" lon="-4.055653000250459">
        <ele>944.70000000000005</ele>
        <time>2003-04-18T10:35:10Z</time>
      </trkpt>
      <trkpt lat="31.72736001200974" lon="-4.055704968050122">
        <ele>944.89999999999998</ele>
        <time>2003-04-18T10:35:14Z</time>
      </trkpt>
      <trkpt lat="31.727441987022758" lon="-4.055803036317229">
        <ele>944.89999999999998</ele>
        <time>2003-04-18T10:35:18Z</time>
      </trkpt>
      <trkpt lat="31.727547012269497" lon="-4.055904960259795">
        <ele>945.39999999999998</ele>
        <time>2003-04-18T10:35:21Z</time>
      </trkpt>
      <trkpt lat="31.727654971182346" lon="-4.05600001104176">
        <ele>944.89999999999998</ele>
        <time>2003-04-18T10:36:32Z</time>
      </trkpt>
      <trkpt lat="31.727744992822409" lon="-4.056079974398017">
        <ele>944.29999999999995</ele>
        <time>2003-04-18T10:36:35Z</time>
      </trkpt>
      <trkpt lat="31.72785303555429" lon="-4.056187011301518">
        <ele>944.5</ele>
        <time>2003-04-18T10:36:39Z</time>
      </trkpt>
      <trkpt lat="31.727957976981997" lon="-4.056335035711527">
        <ele>944.79999999999995</ele>
        <time>2003-04-18T10:36:43Z</time>
      </trkpt>
      <trkpt lat="31.728012040257454" lon="-4.056447017937899">
        <ele>944.60000000000002</ele>
        <time>2003-04-18T10:36:46Z</time>
      </trkpt>
      <trkpt lat="31.728089991956949" lon="-4.05655799433589">
        <ele>945.10000000000002</ele>
        <time>2003-04-18T10:36:49Z</time>
      </trkpt>
      <trkpt lat="31.728168027475476" lon="-4.056678023189306">
        <ele>945.60000000000002</ele>
        <time>2003-04-18T10:36:51Z</time>
      </trkpt>
      <trkpt lat="31.72821999527514" lon="-4.056771984323859">
        <ele>945</ele>
        <time>2003-04-18T10:36:54Z</time>
      </trkpt>
      <trkpt lat="31.728291995823383" lon="-4.05688296072185">
        <ele>945.29999999999995</ele>
        <time>2003-04-18T10:36:55Z</time>
      </trkpt>
      <trkpt lat="31.728437002748251" lon="-4.057053029537201">
        <ele>945.20000000000005</ele>
        <time>2003-04-18T10:36:58Z</time>
      </trkpt>
      <trkpt lat="31.728616962209344" lon="-4.057276993989945">
        <ele>945.60000000000002</ele>
        <time>2003-04-18T10:37:02Z</time>
      </trkpt>
      <trkpt lat="31.729269996285439" lon="-4.058152986690402">
        <ele>945.5</ele>
        <time>2003-04-18T10:37:13Z</time>
      </trkpt>
      <trkpt lat="31.729972986504436" lon="-4.05900701880455">
        <ele>946</ele>
        <time>2003-04-18T10:37:22Z</time>
      </trkpt>
      <trkpt lat="31.730380011722445" lon="-4.059513034299016">
        <ele>945.89999999999998</ele>
        <time>2003-04-18T10:37:28Z</time>
      </trkpt>
      <trkpt lat="31.730987029150128" lon="-4.060364970937371">
        <ele>946.10000000000002</ele>
        <time>2003-04-18T10:37:37Z</time>
      </trkpt>
      <trkpt lat="31.73163503408432" lon="-4.061233000829816">
        <ele>947.70000000000005</ele>
        <time>2003-04-18T10:37:47Z</time>
      </trkpt>
      <trkpt lat="31.732212966307998" lon="-4.061942026019096">
        <ele>949.10000000000002</ele>
        <time>2003-04-18T10:37:53Z</time>
      </trkpt>
      <trkpt lat="31.733042020350695" lon="-4.062607968226075">
        <ele>950.79999999999995</ele>
        <time>2003-04-18T10:38:02Z</time>
      </trkpt>
      <trkpt lat="31.733924970030785" lon="-4.063237030059099">
        <ele>951.29999999999995</ele>
        <time>2003-04-18T10:38:10Z</time>
      </trkpt>
      <trkpt lat="31.734716976061463" lon="-4.063767017796636">
        <ele>953</ele>
        <time>2003-04-18T10:38:16Z</time>
      </trkpt>
      <trkpt lat="31.73550202511251" lon="-4.064432037994266">
        <ele>952.89999999999998</ele>
        <time>2003-04-18T10:38:23Z</time>
      </trkpt>
      <trkpt lat="31.736365025863051" lon="-4.065051963552833">
        <ele>953.5</ele>
        <time>2003-04-18T10:38:31Z</time>
      </trkpt>
      <trkpt lat="31.737206988036633" lon="-4.065702985972166">
        <ele>953.89999999999998</ele>
        <time>2003-04-18T10:38:38Z</time>
      </trkpt>
      <trkpt lat="31.737999999895692" lon="-4.066274967044592">
        <ele>954.39999999999998</ele>
        <time>2003-04-18T10:38:45Z</time>
      </trkpt>
      <trkpt lat="31.738151963800192" lon="-4.066385021433234">
        <ele>954.29999999999995</ele>
        <time>2003-04-18T10:38:46Z</time>
      </trkpt>
      <trkpt lat="31.738927960395813" lon="-4.066926995292306">
        <ele>954.70000000000005</ele>
        <time>2003-04-18T10:38:56Z</time>
      </trkpt>
      <trkpt lat="31.739315036684275" lon="-4.067187001928687">
        <ele>955.10000000000002</ele>
        <time>2003-04-18T10:39:01Z</time>
      </trkpt>
      <trkpt lat="31.739427018910646" lon="-4.067260008305311">
        <ele>955.20000000000005</ele>
        <time>2003-04-18T10:39:02Z</time>
      </trkpt>
      <trkpt lat="31.739515028893948" lon="-4.067322034388781">
        <ele>955.10000000000002</ele>
        <time>2003-04-18T10:39:05Z</time>
      </trkpt>
      <trkpt lat="31.739624999463558" lon="-4.067395040765405">
        <ele>955.10000000000002</ele>
        <time>2003-04-18T10:39:08Z</time>
      </trkpt>
      <trkpt lat="31.739758020266891" lon="-4.06749302521348">
        <ele>955.10000000000002</ele>
        <time>2003-04-18T10:39:09Z</time>
      </trkpt>
      <trkpt lat="31.739918030798435" lon="-4.067616993561387">
        <ele>955.20000000000005</ele>
        <time>2003-04-18T10:39:12Z</time>
      </trkpt>
      <trkpt lat="31.740275016054511" lon="-4.067895021289587">
        <ele>955.60000000000002</ele>
        <time>2003-04-18T10:39:16Z</time>
      </trkpt>
      <trkpt lat="31.741127958521247" lon="-4.068474965170026">
        <ele>956.60000000000002</ele>
        <time>2003-04-18T10:39:24Z</time>
      </trkpt>
      <trkpt lat="31.741973021999002" lon="-4.069015011191368">
        <ele>957.39999999999998</ele>
        <time>2003-04-18T10:39:31Z</time>
      </trkpt>
      <trkpt lat="31.742810038849711" lon="-4.069575006142259">
        <ele>958.29999999999995</ele>
        <time>2003-04-18T10:39:37Z</time>
      </trkpt>
      <trkpt lat="31.743585029616952" lon="-4.070198033004999">
        <ele>959.20000000000005</ele>
        <time>2003-04-18T10:39:44Z</time>
      </trkpt>
      <trkpt lat="31.744412994012237" lon="-4.070873027667403">
        <ele>959.89999999999998</ele>
        <time>2003-04-18T10:39:52Z</time>
      </trkpt>
      <trkpt lat="31.744707031175494" lon="-4.07116798684001">
        <ele>960</ele>
        <time>2003-04-18T10:39:55Z</time>
      </trkpt>
      <trkpt lat="31.744857989251614" lon="-4.07140301540494">
        <ele>959.89999999999998</ele>
        <time>2003-04-18T10:39:58Z</time>
      </trkpt>
      <trkpt lat="31.74530197866261" lon="-4.072352014482021">
        <ele>958.20000000000005</ele>
        <time>2003-04-18T10:40:06Z</time>
      </trkpt>
      <trkpt lat="31.745725013315678" lon="-4.073291961103678">
        <ele>957.79999999999995</ele>
        <time>2003-04-18T10:40:14Z</time>
      </trkpt>
      <trkpt lat="31.746162967756391" lon="-4.074267027899623">
        <ele>956.89999999999998</ele>
        <time>2003-04-18T10:40:21Z</time>
      </trkpt>
      <trkpt lat="31.746588014066219" lon="-4.075249973684549">
        <ele>956.10000000000002</ele>
        <time>2003-04-18T10:40:27Z</time>
      </trkpt>
      <trkpt lat="31.746803009882569" lon="-4.075592961162329">
        <ele>957.20000000000005</ele>
        <time>2003-04-18T10:40:30Z</time>
      </trkpt>
      <trkpt lat="31.746886996552348" lon="-4.075663033872843">
        <ele>957.70000000000005</ele>
        <time>2003-04-18T10:40:31Z</time>
      </trkpt>
      <trkpt lat="31.747059999033809" lon="-4.075760012492538">
        <ele>957.70000000000005</ele>
        <time>2003-04-18T10:40:34Z</time>
      </trkpt>
      <trkpt lat="31.747476998716593" lon="-4.075966961681843">
        <ele>954</ele>
        <time>2003-04-18T10:40:38Z</time>
      </trkpt>
      <trkpt lat="31.748349973931909" lon="-4.07632696442306">
        <ele>953.60000000000002</ele>
        <time>2003-04-18T10:40:45Z</time>
      </trkpt>
      <trkpt lat="31.7490170057863" lon="-4.076501978561282">
        <ele>953.10000000000002</ele>
        <time>2003-04-18T10:40:49Z</time>
      </trkpt>
      <trkpt lat="31.749859973788261" lon="-4.076699959114194">
        <ele>953.10000000000002</ele>
        <time>2003-04-18T10:40:57Z</time>
      </trkpt>
      <trkpt lat="31.750817019492388" lon="-4.07699198462069">
        <ele>953.89999999999998</ele>
        <time>2003-04-18T10:41:05Z</time>
      </trkpt>
      <trkpt lat="31.751786973327398" lon="-4.077379982918501">
        <ele>956.10000000000002</ele>
        <time>2003-04-18T10:41:12Z</time>
      </trkpt>
      <trkpt lat="31.752147981896996" lon="-4.07752700150013">
        <ele>958.29999999999995</ele>
        <time>2003-04-18T10:41:16Z</time>
      </trkpt>
      <trkpt lat="31.752232974395156" lon="-4.0775700006634">
        <ele>960.20000000000005</ele>
        <time>2003-04-18T10:41:16Z</time>
      </trkpt>
      <trkpt lat="31.752987010404468" lon="-4.077939977869391">
        <ele>958.60000000000002</ele>
        <time>2003-04-18T10:41:23Z</time>
      </trkpt>
      <trkpt lat="31.753193037584424" lon="-4.078037040308118">
        <ele>958.39999999999998</ele>
        <time>2003-04-18T10:41:24Z</time>
      </trkpt>
      <trkpt lat="31.753327986225486" lon="-4.078099988400936">
        <ele>958.60000000000002</ele>
        <time>2003-04-18T10:41:27Z</time>
      </trkpt>
      <trkpt lat="31.753433011472225" lon="-4.078156985342503">
        <ele>958.39999999999998</ele>
        <time>2003-04-18T10:41:28Z</time>
      </trkpt>
      <trkpt lat="31.753595033660531" lon="-4.078237032517791">
        <ele>958.5</ele>
        <time>2003-04-18T10:42:21Z</time>
      </trkpt>
      <trkpt lat="31.753707015886903" lon="-4.078293023630977">
        <ele>958.39999999999998</ele>
        <time>2003-04-18T10:42:22Z</time>
      </trkpt>
      <trkpt lat="31.753840036690235" lon="-4.078359995037317">
        <ele>958.10000000000002</ele>
        <time>2003-04-18T10:42:25Z</time>
      </trkpt>
      <trkpt lat="31.754012033343315" lon="-4.078446999192238">
        <ele>957.60000000000002</ele>
        <time>2003-04-18T10:42:26Z</time>
      </trkpt>
      <trkpt lat="31.754312021657825" lon="-4.078597035259008">
        <ele>956.89999999999998</ele>
        <time>2003-04-18T10:42:30Z</time>
      </trkpt>
      <trkpt lat="31.755236964672804" lon="-4.079076983034611">
        <ele>956.39999999999998</ele>
        <time>2003-04-18T10:42:37Z</time>
      </trkpt>
      <trkpt lat="31.756080016493797" lon="-4.079506974667311">
        <ele>955.70000000000005</ele>
        <time>2003-04-18T10:42:45Z</time>
      </trkpt>
      <trkpt lat="31.756487041711807" lon="-4.079726999625564">
        <ele>954.89999999999998</ele>
        <time>2003-04-18T10:42:49Z</time>
      </trkpt>
      <trkpt lat="31.75662299618125" lon="-4.079805035144091">
        <ele>954.60000000000002</ele>
        <time>2003-04-18T10:42:50Z</time>
      </trkpt>
      <trkpt lat="31.757277958095074" lon="-4.080281965434551">
        <ele>955.20000000000005</ele>
        <time>2003-04-18T10:43:00Z</time>
      </trkpt>
      <trkpt lat="31.75804196856916" lon="-4.081022003665566">
        <ele>955.89999999999998</ele>
        <time>2003-04-18T10:43:09Z</time>
      </trkpt>
      <trkpt lat="31.758491992950439" lon="-4.08143799751997">
        <ele>955.89999999999998</ele>
        <time>2003-04-18T10:43:15Z</time>
      </trkpt>
      <trkpt lat="31.759264972060919" lon="-4.082182981073856">
        <ele>956.20000000000005</ele>
        <time>2003-04-18T10:43:23Z</time>
      </trkpt>
      <trkpt lat="31.760022025555372" lon="-4.082935005426407">
        <ele>956.89999999999998</ele>
        <time>2003-04-18T10:43:31Z</time>
      </trkpt>
      <trkpt lat="31.760804979130626" lon="-4.083707984536886">
        <ele>958.10000000000002</ele>
        <time>2003-04-18T10:43:39Z</time>
      </trkpt>
      <trkpt lat="31.761518027633429" lon="-4.084442993625999">
        <ele>959.70000000000005</ele>
        <time>2003-04-18T10:43:46Z</time>
      </trkpt>
      <trkpt lat="31.762256976217031" lon="-4.085193006321788">
        <ele>961.60000000000002</ele>
        <time>2003-04-18T10:43:53Z</time>
      </trkpt>
      <trkpt lat="31.762976981699467" lon="-4.085958022624254">
        <ele>963.20000000000005</ele>
        <time>2003-04-18T10:43:59Z</time>
      </trkpt>
      <trkpt lat="31.763639990240335" lon="-4.086792021989822">
        <ele>964.60000000000002</ele>
        <time>2003-04-18T10:44:06Z</time>
      </trkpt>
      <trkpt lat="31.764242984354496" lon="-4.087576987221837">
        <ele>965.60000000000002</ele>
        <time>2003-04-18T10:44:14Z</time>
      </trkpt>
      <trkpt lat="31.764927031472325" lon="-4.088466977700591">
        <ele>961.70000000000005</ele>
        <time>2003-04-18T10:44:22Z</time>
      </trkpt>
      <trkpt lat="31.765618035569787" lon="-4.089297959581018">
        <ele>961.70000000000005</ele>
        <time>2003-04-18T10:44:29Z</time>
      </trkpt>
      <trkpt lat="31.766282971948385" lon="-4.090104969218373">
        <ele>962.20000000000005</ele>
        <time>2003-04-18T10:44:36Z</time>
      </trkpt>
      <trkpt lat="31.766569968312979" lon="-4.090479975566268">
        <ele>963.10000000000002</ele>
        <time>2003-04-18T10:44:38Z</time>
      </trkpt>
      <trkpt lat="31.766697037965059" lon="-4.090645015239716">
        <ele>963.10000000000002</ele>
        <time>2003-04-18T10:44:41Z</time>
      </trkpt>
      <trkpt lat="31.767097022384405" lon="-4.091193024069071">
        <ele>964.20000000000005</ele>
        <time>2003-04-18T10:44:45Z</time>
      </trkpt>
      <trkpt lat="31.767191989347339" lon="-4.091389998793602">
        <ele>963.79999999999995</ele>
        <time>2003-04-18T10:44:49Z</time>
      </trkpt>
      <trkpt lat="31.7674720287323" lon="-4.09194303676486">
        <ele>964.39999999999998</ele>
        <time>2003-04-18T10:44:53Z</time>
      </trkpt>
      <trkpt lat="31.767997993156314" lon="-4.092815006151795">
        <ele>967.39999999999998</ele>
        <time>2003-04-18T10:45:00Z</time>
      </trkpt>
      <trkpt lat="31.76811701618135" lon="-4.093035031110048">
        <ele>966.89999999999998</ele>
        <time>2003-04-18T10:45:03Z</time>
      </trkpt>
      <trkpt lat="31.768351960927248" lon="-4.09346804022789">
        <ele>968.70000000000005</ele>
        <time>2003-04-18T10:45:07Z</time>
      </trkpt>
      <trkpt lat="31.768874991685152" lon="-4.094131970778108">
        <ele>970.29999999999995</ele>
        <time>2003-04-18T10:45:12Z</time>
      </trkpt>
      <trkpt lat="31.769317975267768" lon="-4.094894975423813">
        <ele>970.39999999999998</ele>
        <time>2003-04-18T10:45:19Z</time>
      </trkpt>
      <trkpt lat="31.770042004063725" lon="-4.095720006152988">
        <ele>971.10000000000002</ele>
        <time>2003-04-18T10:45:27Z</time>
      </trkpt>
      <trkpt lat="31.770239984616637" lon="-4.095829976722598">
        <ele>971.5</ele>
        <time>2003-04-18T10:45:30Z</time>
      </trkpt>
      <trkpt lat="31.771142967045307" lon="-4.096189979463816">
        <ele>969.29999999999995</ele>
        <time>2003-04-18T10:45:38Z</time>
      </trkpt>
      <trkpt lat="31.772111998870969" lon="-4.096561968326569">
        <ele>966.79999999999995</ele>
        <time>2003-04-18T10:45:46Z</time>
      </trkpt>
      <trkpt lat="31.773002995178103" lon="-4.096900010481477">
        <ele>965.10000000000002</ele>
        <time>2003-04-18T10:45:53Z</time>
      </trkpt>
      <trkpt lat="31.773882005363703" lon="-4.097247021272779">
        <ele>963.70000000000005</ele>
        <time>2003-04-18T10:45:59Z</time>
      </trkpt>
      <trkpt lat="31.77479999139905" lon="-4.097575005143881">
        <ele>962</ele>
        <time>2003-04-18T10:46:08Z</time>
      </trkpt>
      <trkpt lat="31.775740021839738" lon="-4.097922015935183">
        <ele>961.10000000000002</ele>
        <time>2003-04-18T10:46:16Z</time>
      </trkpt>
      <trkpt lat="31.776639986783266" lon="-4.098171964287758">
        <ele>961</ele>
        <time>2003-04-18T10:46:22Z</time>
      </trkpt>
      <trkpt lat="31.77714197896421" lon="-4.098343038931489">
        <ele>960.89999999999998</ele>
        <time>2003-04-18T10:46:26Z</time>
      </trkpt>
      <trkpt lat="31.777770034968853" lon="-4.098602961748838">
        <ele>961.10000000000002</ele>
        <time>2003-04-18T10:46:32Z</time>
      </trkpt>
      <trkpt lat="31.778600011020899" lon="-4.098964976146817">
        <ele>961.39999999999998</ele>
        <time>2003-04-18T10:46:39Z</time>
      </trkpt>
      <trkpt lat="31.778820035979152" lon="-4.099130015820265">
        <ele>961.60000000000002</ele>
        <time>2003-04-18T10:46:40Z</time>
      </trkpt>
      <trkpt lat="31.779166962951422" lon="-4.099487001076341">
        <ele>961.20000000000005</ele>
        <time>2003-04-18T10:46:44Z</time>
      </trkpt>
      <trkpt lat="31.779214991256595" lon="-4.099586997181177">
        <ele>961.60000000000002</ele>
        <time>2003-04-18T10:46:45Z</time>
      </trkpt>
      <trkpt lat="31.779287997633219" lon="-4.099784977734089">
        <ele>961.60000000000002</ele>
        <time>2003-04-18T10:46:48Z</time>
      </trkpt>
      <trkpt lat="31.779338037595153" lon="-4.099874999374151">
        <ele>961</ele>
        <time>2003-04-18T10:46:48Z</time>
      </trkpt>
      <trkpt lat="31.779469968751073" lon="-4.100195020437241">
        <ele>961.29999999999995</ele>
        <time>2003-04-18T10:46:52Z</time>
      </trkpt>
      <trkpt lat="31.779480027034879" lon="-4.100308008491993">
        <ele>961.39999999999998</ele>
        <time>2003-04-18T10:46:52Z</time>
      </trkpt>
      <trkpt lat="31.779514979571104" lon="-4.100519986823201">
        <ele>961.5</ele>
        <time>2003-04-18T10:46:55Z</time>
      </trkpt>
      <trkpt lat="31.779607012867928" lon="-4.100679997354746">
        <ele>963.10000000000002</ele>
        <time>2003-04-18T10:46:56Z</time>
      </trkpt>
      <trkpt lat="31.779683036729693" lon="-4.100813018158078">
        <ele>962.10000000000002</ele>
        <time>2003-04-18T10:46:59Z</time>
      </trkpt>
      <trkpt lat="31.77987196482718" lon="-4.101217025890946">
        <ele>963.20000000000005</ele>
        <time>2003-04-18T10:47:04Z</time>
      </trkpt>
      <trkpt lat="31.779946982860565" lon="-4.101343005895615">
        <ele>963</ele>
        <time>2003-04-18T10:47:06Z</time>
      </trkpt>
      <trkpt lat="31.780023006722331" lon="-4.101427998393774">
        <ele>962.79999999999995</ele>
        <time>2003-04-18T10:47:07Z</time>
      </trkpt>
      <trkpt lat="31.780179999768734" lon="-4.101663026958704">
        <ele>964.10000000000002</ele>
        <time>2003-04-18T10:47:12Z</time>
      </trkpt>
      <trkpt lat="31.780347973108292" lon="-4.101986987516284">
        <ele>964</ele>
        <time>2003-04-18T10:47:19Z</time>
      </trkpt>
      <trkpt lat="31.780382003635168" lon="-4.102154960855842">
        <ele>963.89999999999998</ele>
        <time>2003-04-18T10:47:23Z</time>
      </trkpt>
      <trkpt lat="31.780507983639836" lon="-4.102413039654493">
        <ele>963.70000000000005</ele>
        <time>2003-04-18T10:47:27Z</time>
      </trkpt>
      <trkpt lat="31.780575038865209" lon="-4.102529967203736">
        <ele>963.39999999999998</ele>
        <time>2003-04-18T10:47:30Z</time>
      </trkpt>
      <trkpt lat="31.780652990564704" lon="-4.102652007713914">
        <ele>963.29999999999995</ele>
        <time>2003-04-18T10:47:31Z</time>
      </trkpt>
      <trkpt lat="31.780775031074882" lon="-4.102855017408729">
        <ele>963.39999999999998</ele>
        <time>2003-04-18T10:47:35Z</time>
      </trkpt>
      <trkpt lat="31.780828004702926" lon="-4.102945039048791">
        <ele>963.79999999999995</ele>
        <time>2003-04-18T10:47:38Z</time>
      </trkpt>
      <trkpt lat="31.781006958335638" lon="-4.103200016543269">
        <ele>963</ele>
        <time>2003-04-18T10:47:45Z</time>
      </trkpt>
      <trkpt lat="31.781147019937634" lon="-4.103322979062796">
        <ele>963.60000000000002</ele>
        <time>2003-04-18T10:47:49Z</time>
      </trkpt>
      <trkpt lat="31.781369978561997" lon="-4.103477038443089">
        <ele>964.20000000000005</ele>
        <time>2003-04-18T10:47:54Z</time>
      </trkpt>
      <trkpt lat="31.781435022130609" lon="-4.103554990142584">
        <ele>963.10000000000002</ele>
        <time>2003-04-18T10:47:57Z</time>
      </trkpt>
      <trkpt lat="31.781516997143626" lon="-4.103636965155602">
        <ele>961.89999999999998</ele>
        <time>2003-04-18T10:47:58Z</time>
      </trkpt>
      <trkpt lat="31.781672984361649" lon="-4.103771997615695">
        <ele>962.20000000000005</ele>
        <time>2003-04-18T10:48:01Z</time>
      </trkpt>
      <trkpt lat="31.781789995729923" lon="-4.10386998206377">
        <ele>963</ele>
        <time>2003-04-18T10:48:04Z</time>
      </trkpt>
      <trkpt lat="31.781929973512888" lon="-4.103996967896819">
        <ele>964</ele>
        <time>2003-04-18T10:48:06Z</time>
      </trkpt>
      <trkpt lat="31.782037010416389" lon="-4.104111967608333">
        <ele>964.60000000000002</ele>
        <time>2003-04-18T10:48:09Z</time>
      </trkpt>
      <trkpt lat="31.782267009839416" lon="-4.104399969801307">
        <ele>964.60000000000002</ele>
        <time>2003-04-18T10:48:17Z</time>
      </trkpt>
      <trkpt lat="31.782391984015703" lon="-4.104525027796626">
        <ele>964.29999999999995</ele>
        <time>2003-04-18T10:48:21Z</time>
      </trkpt>
      <trkpt lat="31.78272801451385" lon="-4.104931969195604">
        <ele>964.89999999999998</ele>
        <time>2003-04-18T10:48:31Z</time>
      </trkpt>
      <trkpt lat="31.782806972041726" lon="-4.10500698722899">
        <ele>963</ele>
        <time>2003-04-18T10:48:32Z</time>
      </trkpt>
      <trkpt lat="31.782951978966594" lon="-4.105142019689083">
        <ele>962.89999999999998</ele>
        <time>2003-04-18T10:48:36Z</time>
      </trkpt>
      <trkpt lat="31.78343796171248" lon="-4.105519959703088">
        <ele>962.5</ele>
        <time>2003-04-18T10:48:45Z</time>
      </trkpt>
      <trkpt lat="31.78356695920229" lon="-4.105575028806925">
        <ele>962.89999999999998</ele>
        <time>2003-04-18T10:48:48Z</time>
      </trkpt>
      <trkpt lat="31.78369696252048" lon="-4.105634959414601">
        <ele>964.5</ele>
        <time>2003-04-18T10:48:50Z</time>
      </trkpt>
      <trkpt lat="31.783980019390583" lon="-4.105751970782876">
        <ele>963.89999999999998</ele>
        <time>2003-04-18T10:48:55Z</time>
      </trkpt>
      <trkpt lat="31.784082027152181" lon="-4.105787007138133">
        <ele>964.60000000000002</ele>
        <time>2003-04-18T10:48:56Z</time>
      </trkpt>
      <trkpt lat="31.784223010763526" lon="-4.105820031836629">
        <ele>964.60000000000002</ele>
        <time>2003-04-18T10:48:59Z</time>
      </trkpt>
      <trkpt lat="31.784322001039982" lon="-4.105856996029615">
        <ele>964.79999999999995</ele>
        <time>2003-04-18T10:49:02Z</time>
      </trkpt>
      <trkpt lat="31.784415040165186" lon="-4.105912987142801">
        <ele>964.20000000000005</ele>
        <time>2003-04-18T10:49:03Z</time>
      </trkpt>
      <trkpt lat="31.784510007128119" lon="-4.105979958549142">
        <ele>964.60000000000002</ele>
        <time>2003-04-18T10:49:07Z</time>
      </trkpt>
      <trkpt lat="31.784587036818266" lon="-4.10603703930974">
        <ele>964.5</ele>
        <time>2003-04-18T10:49:08Z</time>
      </trkpt>
      <trkpt lat="31.784643027931452" lon="-4.10614499822259">
        <ele>963.89999999999998</ele>
        <time>2003-04-18T10:49:11Z</time>
      </trkpt>
      <trkpt lat="31.784712010994554" lon="-4.106247005984187">
        <ele>964.20000000000005</ele>
        <time>2003-04-18T10:49:12Z</time>
      </trkpt>
      <trkpt lat="31.784774959087372" lon="-4.106347002089024">
        <ele>964.10000000000002</ele>
        <time>2003-04-18T10:49:15Z</time>
      </trkpt>
      <trkpt lat="31.784847965463996" lon="-4.106431994587183">
        <ele>965.20000000000005</ele>
        <time>2003-04-18T10:49:17Z</time>
      </trkpt>
      <trkpt lat="31.784915020689368" lon="-4.106516987085342">
        <ele>964.89999999999998</ele>
        <time>2003-04-18T10:49:19Z</time>
      </trkpt>
      <trkpt lat="31.784987021237612" lon="-4.106599967926741">
        <ele>964.70000000000005</ele>
        <time>2003-04-18T10:49:21Z</time>
      </trkpt>
      <trkpt lat="31.785115012899041" lon="-4.106755033135414">
        <ele>964.89999999999998</ele>
        <time>2003-04-18T10:49:25Z</time>
      </trkpt>
      <trkpt lat="31.785324979573488" lon="-4.107025014236569">
        <ele>963.39999999999998</ele>
        <time>2003-04-18T10:49:30Z</time>
      </trkpt>
      <trkpt lat="31.785447020083666" lon="-4.107149988412857">
        <ele>963.5</ele>
        <time>2003-04-18T10:49:34Z</time>
      </trkpt>
      <trkpt lat="31.7855229601264" lon="-4.107213020324707">
        <ele>963.60000000000002</ele>
        <time>2003-04-18T10:49:37Z</time>
      </trkpt>
      <trkpt lat="31.785592027008533" lon="-4.107292983680964">
        <ele>963.5</ele>
        <time>2003-04-18T10:49:38Z</time>
      </trkpt>
      <trkpt lat="31.785647012293339" lon="-4.107391973957419">
        <ele>964</ele>
        <time>2003-04-18T10:49:41Z</time>
      </trkpt>
      <trkpt lat="31.785708032548428" lon="-4.107498005032539">
        <ele>964.20000000000005</ele>
        <time>2003-04-18T10:49:42Z</time>
      </trkpt>
      <trkpt lat="31.785853039473295" lon="-4.107679976150394">
        <ele>963.10000000000002</ele>
        <time>2003-04-18T10:49:48Z</time>
      </trkpt>
      <trkpt lat="31.785927973687649" lon="-4.107797993347049">
        <ele>962.60000000000002</ele>
        <time>2003-04-18T10:49:50Z</time>
      </trkpt>
      <trkpt lat="31.785992011427879" lon="-4.107905030250549">
        <ele>961.20000000000005</ele>
        <time>2003-04-18T10:49:58Z</time>
      </trkpt>
      <trkpt lat="31.786078009754419" lon="-4.108022041618824">
        <ele>961.5</ele>
        <time>2003-04-18T10:50:01Z</time>
      </trkpt>
      <trkpt lat="31.786207007244229" lon="-4.108150033280253">
        <ele>961.20000000000005</ele>
        <time>2003-04-18T10:50:05Z</time>
      </trkpt>
      <trkpt lat="31.786634987220168" lon="-4.108608020469546">
        <ele>961.79999999999995</ele>
        <time>2003-04-18T10:50:13Z</time>
      </trkpt>
      <trkpt lat="31.78670497611165" lon="-4.10868002101779">
        <ele>961.5</ele>
        <time>2003-04-18T10:50:16Z</time>
      </trkpt>
      <trkpt lat="31.786900022998452" lon="-4.108859980478883">
        <ele>961.70000000000005</ele>
        <time>2003-04-18T10:50:20Z</time>
      </trkpt>
      <trkpt lat="31.786997001618147" lon="-4.108929969370365">
        <ele>962.10000000000002</ele>
        <time>2003-04-18T10:50:24Z</time>
      </trkpt>
      <trkpt lat="31.787098003551364" lon="-4.108998030424118">
        <ele>963</ele>
        <time>2003-04-18T10:50:27Z</time>
      </trkpt>
      <trkpt lat="31.787206968292594" lon="-4.109102971851826">
        <ele>963.10000000000002</ele>
        <time>2003-04-18T10:50:29Z</time>
      </trkpt>
      <trkpt lat="31.787517014890909" lon="-4.109340012073517">
        <ele>964.70000000000005</ele>
        <time>2003-04-18T10:50:36Z</time>
      </trkpt>
      <trkpt lat="31.787551967427135" lon="-4.109440008178353">
        <ele>963.29999999999995</ele>
        <time>2003-04-18T10:54:12Z</time>
      </trkpt>
      <trkpt lat="31.787449959665537" lon="-4.109479989856482">
        <ele>963.39999999999998</ele>
        <time>2003-04-18T10:54:16Z</time>
      </trkpt>
      <trkpt lat="31.787403021007776" lon="-4.109359961003065">
        <ele>963.20000000000005</ele>
        <time>2003-04-18T10:54:18Z</time>
      </trkpt>
      <trkpt lat="31.787339989095926" lon="-4.109183019027114">
        <ele>962.20000000000005</ele>
        <time>2003-04-18T10:54:20Z</time>
      </trkpt>
      <trkpt lat="31.787224989384413" lon="-4.109104983508587">
        <ele>961.79999999999995</ele>
        <time>2003-04-18T10:54:23Z</time>
      </trkpt>
      <trkpt lat="31.787106972187757" lon="-4.109008004888892">
        <ele>961.20000000000005</ele>
        <time>2003-04-18T10:54:24Z</time>
      </trkpt>
      <trkpt lat="31.786957019940019" lon="-4.10889501683414">
        <ele>960.39999999999998</ele>
        <time>2003-04-18T10:54:27Z</time>
      </trkpt>
      <trkpt lat="31.786861969158053" lon="-4.10883198492229">
        <ele>960.39999999999998</ele>
        <time>2003-04-18T10:54:30Z</time>
      </trkpt>
      <trkpt lat="31.786513030529022" lon="-4.10846502520144">
        <ele>959.60000000000002</ele>
        <time>2003-04-18T10:54:39Z</time>
      </trkpt>
      <trkpt lat="31.786408005282283" lon="-4.108371986076236">
        <ele>959.60000000000002</ele>
        <time>2003-04-18T10:54:41Z</time>
      </trkpt>
      <trkpt lat="31.786291999742389" lon="-4.108245000243187">
        <ele>959.5</ele>
        <time>2003-04-18T10:54:43Z</time>
      </trkpt>
      <trkpt lat="31.785989999771118" lon="-4.107921961694956">
        <ele>959.89999999999998</ele>
        <time>2003-04-18T10:54:49Z</time>
      </trkpt>
      <trkpt lat="31.785927973687649" lon="-4.107811991125345">
        <ele>960.60000000000002</ele>
        <time>2003-04-18T10:54:54Z</time>
      </trkpt>
      <trkpt lat="31.785848010331392" lon="-4.107675030827522">
        <ele>961.60000000000002</ele>
        <time>2003-04-18T10:54:58Z</time>
      </trkpt>
      <trkpt lat="31.785752037540078" lon="-4.107527006417513">
        <ele>962</ele>
        <time>2003-04-18T10:55:01Z</time>
      </trkpt>
      <trkpt lat="31.785593032836914" lon="-4.107321985065937">
        <ele>961.29999999999995</ele>
        <time>2003-04-18T10:55:06Z</time>
      </trkpt>
      <trkpt lat="31.785494964569807" lon="-4.107192987576127">
        <ele>960.79999999999995</ele>
        <time>2003-04-18T10:55:08Z</time>
      </trkpt>
      <trkpt lat="31.785382982343435" lon="-4.107098020613194">
        <ele>960.89999999999998</ele>
        <time>2003-04-18T10:55:10Z</time>
      </trkpt>
      <trkpt lat="31.785278040915728" lon="-4.106987966224551">
        <ele>960.79999999999995</ele>
        <time>2003-04-18T10:55:12Z</time>
      </trkpt>
      <trkpt lat="31.785158012062311" lon="-4.106829967349768">
        <ele>962</ele>
        <time>2003-04-18T10:55:14Z</time>
      </trkpt>
      <trkpt lat="31.785100009292364" lon="-4.106740029528737">
        <ele>961.89999999999998</ele>
        <time>2003-04-18T10:55:17Z</time>
      </trkpt>
      <trkpt lat="31.785019962117076" lon="-4.106652019545436">
        <ele>962.70000000000005</ele>
        <time>2003-04-18T10:55:21Z</time>
      </trkpt>
      <trkpt lat="31.784912003204226" lon="-4.10653199069202">
        <ele>962.29999999999995</ele>
        <time>2003-04-18T10:55:25Z</time>
      </trkpt>
      <trkpt lat="31.784843020141125" lon="-4.106444986537099">
        <ele>962.60000000000002</ele>
        <time>2003-04-18T10:55:28Z</time>
      </trkpt>
      <trkpt lat="31.784734977409244" lon="-4.106320012360811">
        <ele>962.10000000000002</ele>
        <time>2003-04-18T10:55:30Z</time>
      </trkpt>
      <trkpt lat="31.784659959375858" lon="-4.106205012649298">
        <ele>961.89999999999998</ele>
        <time>2003-04-18T10:55:33Z</time>
      </trkpt>
      <trkpt lat="31.784572033211589" lon="-4.106022035703063">
        <ele>962.20000000000005</ele>
        <time>2003-04-18T10:55:36Z</time>
      </trkpt>
      <trkpt lat="31.784477988258004" lon="-4.105947017669678">
        <ele>962.5</ele>
        <time>2003-04-18T10:55:37Z</time>
      </trkpt>
      <trkpt lat="31.784372963011265" lon="-4.105912987142801">
        <ele>962.20000000000005</ele>
        <time>2003-04-18T10:55:40Z</time>
      </trkpt>
      <trkpt lat="31.784271961078048" lon="-4.105841992422938">
        <ele>962.39999999999998</ele>
        <time>2003-04-18T10:55:41Z</time>
      </trkpt>
      <trkpt lat="31.784157967194915" lon="-4.105803016573191">
        <ele>962.10000000000002</ele>
        <time>2003-04-18T10:55:44Z</time>
      </trkpt>
      <trkpt lat="31.783742979168892" lon="-4.105673013255">
        <ele>961.60000000000002</ele>
        <time>2003-04-18T10:55:51Z</time>
      </trkpt>
      <trkpt lat="31.78335196338594" lon="-4.105466986075044">
        <ele>960.89999999999998</ele>
        <time>2003-04-18T10:55:56Z</time>
      </trkpt>
      <trkpt lat="31.78305197507143" lon="-4.105245033279061">
        <ele>961.70000000000005</ele>
        <time>2003-04-18T10:56:02Z</time>
      </trkpt>
      <trkpt lat="31.782781993970275" lon="-4.104991983622313">
        <ele>961.5</ele>
        <time>2003-04-18T10:56:07Z</time>
      </trkpt>
      <trkpt lat="31.78259801119566" lon="-4.104785034433007">
        <ele>962.29999999999995</ele>
        <time>2003-04-18T10:56:11Z</time>
      </trkpt>
      <trkpt lat="31.782519975677133" lon="-4.104693001136184">
        <ele>962.89999999999998</ele>
        <time>2003-04-18T10:56:12Z</time>
      </trkpt>
      <trkpt lat="31.782198026776314" lon="-4.104327969253063">
        <ele>961.79999999999995</ele>
        <time>2003-04-18T10:56:20Z</time>
      </trkpt>
      <trkpt lat="31.782106999307871" lon="-4.104235013946891">
        <ele>961.20000000000005</ele>
        <time>2003-04-18T10:56:23Z</time>
      </trkpt>
      <trkpt lat="31.78201999515295" lon="-4.104112973436713">
        <ele>962.10000000000002</ele>
        <time>2003-04-18T10:56:26Z</time>
      </trkpt>
      <trkpt lat="31.781929973512888" lon="-4.104008032009006">
        <ele>962.10000000000002</ele>
        <time>2003-04-18T10:56:29Z</time>
      </trkpt>
      <trkpt lat="31.78184799849987" lon="-4.103937959298492">
        <ele>961.5</ele>
        <time>2003-04-18T10:56:31Z</time>
      </trkpt>
      <trkpt lat="31.781710032373667" lon="-4.103809967637062">
        <ele>960.5</ele>
        <time>2003-04-18T10:56:34Z</time>
      </trkpt>
      <trkpt lat="31.781533006578684" lon="-4.103672001510859">
        <ele>959.60000000000002</ele>
        <time>2003-04-18T10:56:38Z</time>
      </trkpt>
      <trkpt lat="31.781424963846803" lon="-4.103554990142584">
        <ele>960</ele>
        <time>2003-04-18T10:56:39Z</time>
      </trkpt>
      <trkpt lat="31.781347012147307" lon="-4.103469997644424">
        <ele>961.39999999999998</ele>
        <time>2003-04-18T10:56:42Z</time>
      </trkpt>
      <trkpt lat="31.781256990507245" lon="-4.1033969912678">
        <ele>961.39999999999998</ele>
        <time>2003-04-18T10:56:45Z</time>
      </trkpt>
      <trkpt lat="31.781062027439475" lon="-4.103261958807707">
        <ele>960.79999999999995</ele>
        <time>2003-04-18T10:56:50Z</time>
      </trkpt>
      <trkpt lat="31.78092498332262" lon="-4.103104965761304">
        <ele>960.70000000000005</ele>
        <time>2003-04-18T10:56:54Z</time>
      </trkpt>
      <trkpt lat="31.780845019966364" lon="-4.102985020726919">
        <ele>960.70000000000005</ele>
        <time>2003-04-18T10:56:57Z</time>
      </trkpt>
      <trkpt lat="31.780764972791076" lon="-4.102872032672167">
        <ele>961</ele>
        <time>2003-04-18T10:57:00Z</time>
      </trkpt>
      <trkpt lat="31.780675034970045" lon="-4.102867003530264">
        <ele>960.79999999999995</ele>
        <time>2003-04-18T10:57:01Z</time>
      </trkpt>
      <trkpt lat="31.78062298335135" lon="-4.102776981890202">
        <ele>961.10000000000002</ele>
        <time>2003-04-18T10:57:05Z</time>
      </trkpt>
      <trkpt lat="31.780718034133315" lon="-4.102759966626763">
        <ele>961</ele>
        <time>2003-04-18T10:57:08Z</time>
      </trkpt>
      <trkpt lat="31.780766984447837" lon="-4.10287999548018">
        <ele>961</ele>
        <time>2003-04-18T10:57:10Z</time>
      </trkpt>
      <trkpt lat="31.780862035229802" lon="-4.103077976033092">
        <ele>960.79999999999995</ele>
        <time>2003-04-18T10:57:14Z</time>
      </trkpt>
      <trkpt lat="31.780930012464523" lon="-4.103164980188012">
        <ele>961.10000000000002</ele>
        <time>2003-04-18T10:57:17Z</time>
      </trkpt>
      <trkpt lat="31.780996983870864" lon="-4.103261958807707">
        <ele>960.5</ele>
        <time>2003-04-18T10:57:18Z</time>
      </trkpt>
      <trkpt lat="31.781002013012767" lon="-4.103391962125897">
        <ele>960.10000000000002</ele>
        <time>2003-04-18T10:57:21Z</time>
      </trkpt>
      <trkpt lat="31.781012993305922" lon="-4.103575022891164">
        <ele>959.70000000000005</ele>
        <time>2003-04-18T10:57:24Z</time>
      </trkpt>
      <trkpt lat="31.781105026602745" lon="-4.103590026497841">
        <ele>960</ele>
        <time>2003-04-18T10:57:25Z</time>
      </trkpt>
      <trkpt lat="31.780997989699244" lon="-4.103464968502522">
        <ele>959.60000000000002</ele>
        <time>2003-04-18T10:59:08Z</time>
      </trkpt>
      <trkpt lat="31.780996983870864" lon="-4.103317027911544">
        <ele>959.79999999999995</ele>
        <time>2003-04-18T10:59:11Z</time>
      </trkpt>
      <trkpt lat="31.781075019389391" lon="-4.10324796102941">
        <ele>960.60000000000002</ele>
        <time>2003-04-18T10:59:15Z</time>
      </trkpt>
      <trkpt lat="31.78116001188755" lon="-4.103319961577654">
        <ele>961.10000000000002</ele>
        <time>2003-04-18T10:59:19Z</time>
      </trkpt>
      <trkpt lat="31.781282974407077" lon="-4.103411994874477">
        <ele>961.70000000000005</ele>
        <time>2003-04-18T10:59:23Z</time>
      </trkpt>
      <trkpt lat="31.78148003295064" lon="-4.103579968214035">
        <ele>960.5</ele>
        <time>2003-04-18T10:59:28Z</time>
      </trkpt>
      <trkpt lat="31.781641971319914" lon="-4.103726986795664">
        <ele>960.39999999999998</ele>
        <time>2003-04-18T10:59:31Z</time>
      </trkpt>
      <trkpt lat="31.781750014051795" lon="-4.103830000385642">
        <ele>961.20000000000005</ele>
        <time>2003-04-18T10:59:32Z</time>
      </trkpt>
      <trkpt lat="31.781907007098198" lon="-4.103982970118523">
        <ele>962.39999999999998</ele>
        <time>2003-04-18T10:59:36Z</time>
      </trkpt>
      <trkpt lat="31.782029969617724" lon="-4.104107022285461">
        <ele>963.20000000000005</ele>
        <time>2003-04-18T10:59:39Z</time>
      </trkpt>
      <trkpt lat="31.782112028449774" lon="-4.104248005896807">
        <ele>962.79999999999995</ele>
        <time>2003-04-18T10:59:42Z</time>
      </trkpt>
      <trkpt lat="31.782187968492508" lon="-4.104338027536869">
        <ele>962.20000000000005</ele>
        <time>2003-04-18T10:59:43Z</time>
      </trkpt>
      <trkpt lat="31.782285030931234" lon="-4.104412039741874">
        <ele>963.89999999999998</ele>
        <time>2003-04-18T10:59:46Z</time>
      </trkpt>
      <trkpt lat="31.782358037307858" lon="-4.104489991441369">
        <ele>964.10000000000002</ele>
        <time>2003-04-18T10:59:47Z</time>
      </trkpt>
      <trkpt lat="31.782440012320876" lon="-4.104591999202967">
        <ele>963.60000000000002</ele>
        <time>2003-04-18T10:59:50Z</time>
      </trkpt>
      <trkpt lat="31.782603040337563" lon="-4.104804983362556">
        <ele>963.29999999999995</ele>
        <time>2003-04-18T10:59:54Z</time>
      </trkpt>
      <trkpt lat="31.782873021438718" lon="-4.105068007484078">
        <ele>962.79999999999995</ele>
        <time>2003-04-18T10:59:59Z</time>
      </trkpt>
      <trkpt lat="31.783012999221683" lon="-4.105202034115791">
        <ele>963.20000000000005</ele>
        <time>2003-04-18T11:00:02Z</time>
      </trkpt>
      <trkpt lat="31.783252973109484" lon="-4.105385011062026">
        <ele>962.79999999999995</ele>
        <time>2003-04-18T11:00:06Z</time>
      </trkpt>
      <trkpt lat="31.783462017774582" lon="-4.105536974966526">
        <ele>962.60000000000002</ele>
        <time>2003-04-18T11:00:10Z</time>
      </trkpt>
      <trkpt lat="31.783620016649365" lon="-4.105628002434969">
        <ele>963.29999999999995</ele>
        <time>2003-04-18T11:00:13Z</time>
      </trkpt>
      <trkpt lat="31.783792013302445" lon="-4.105722969397903">
        <ele>963.5</ele>
        <time>2003-04-18T11:00:17Z</time>
      </trkpt>
      <trkpt lat="31.784127037972212" lon="-4.105939976871014">
        <ele>965.79999999999995</ele>
        <time>2003-04-18T11:00:23Z</time>
      </trkpt>
      <trkpt lat="31.784255029633641" lon="-4.10603997297585">
        <ele>966.29999999999995</ele>
        <time>2003-04-18T11:00:26Z</time>
      </trkpt>
      <trkpt lat="31.784334992989898" lon="-4.106108034029603">
        <ele>965.60000000000002</ele>
        <time>2003-04-18T11:00:29Z</time>
      </trkpt>
      <trkpt lat="31.784546971321106" lon="-4.10633803345263">
        <ele>967.29999999999995</ele>
        <time>2003-04-18T11:00:34Z</time>
      </trkpt>
      <trkpt lat="31.784634981304407" lon="-4.10651003010571">
        <ele>967.70000000000005</ele>
        <time>2003-04-18T11:00:37Z</time>
      </trkpt>
      <trkpt lat="31.784719973802567" lon="-4.10664196126163">
        <ele>965.79999999999995</ele>
        <time>2003-04-18T11:00:41Z</time>
      </trkpt>
      <trkpt lat="31.784843020141125" lon="-4.10674799233675">
        <ele>963.5</ele>
        <time>2003-04-18T11:00:44Z</time>
      </trkpt>
      <trkpt lat="31.784943016245961" lon="-4.106776993721724">
        <ele>965.29999999999995</ele>
        <time>2003-04-18T11:00:45Z</time>
      </trkpt>
      <trkpt lat="31.785045024007559" lon="-4.106828039512038">
        <ele>965.29999999999995</ele>
        <time>2003-04-18T11:00:49Z</time>
      </trkpt>
      <trkpt lat="31.785145020112395" lon="-4.106898028403521">
        <ele>964.29999999999995</ele>
        <time>2003-04-18T11:00:50Z</time>
      </trkpt>
      <trkpt lat="31.785620022565126" lon="-4.107332965359092">
        <ele>963.5</ele>
        <time>2003-04-18T11:01:01Z</time>
      </trkpt>
      <trkpt lat="31.785763017833233" lon="-4.107561958953738">
        <ele>964.29999999999995</ele>
        <time>2003-04-18T11:01:04Z</time>
      </trkpt>
      <trkpt lat="31.785882040858269" lon="-4.107721969485283">
        <ele>963.29999999999995</ele>
        <time>2003-04-18T11:01:08Z</time>
      </trkpt>
      <trkpt lat="31.785937026143074" lon="-4.107807967811823">
        <ele>962.5</ele>
        <time>2003-04-18T11:01:12Z</time>
      </trkpt>
      <trkpt lat="31.786082033067942" lon="-4.108022041618824">
        <ele>961.5</ele>
        <time>2003-04-18T11:01:20Z</time>
      </trkpt>
      <trkpt lat="31.786232991144061" lon="-4.108177023008466">
        <ele>961</ele>
        <time>2003-04-18T11:01:24Z</time>
      </trkpt>
      <trkpt lat="31.786721991375089" lon="-4.108704999089241">
        <ele>961.60000000000002</ele>
        <time>2003-04-18T11:01:32Z</time>
      </trkpt>
      <trkpt lat="31.78683003410697" lon="-4.108795020729303">
        <ele>961.79999999999995</ele>
        <time>2003-04-18T11:01:35Z</time>
      </trkpt>
      <trkpt lat="31.786987027153373" lon="-4.108916977420449">
        <ele>962.39999999999998</ele>
        <time>2003-04-18T11:01:38Z</time>
      </trkpt>
      <trkpt lat="31.787119964137673" lon="-4.10900498740375">
        <ele>963.29999999999995</ele>
        <time>2003-04-18T11:01:40Z</time>
      </trkpt>
      <trkpt lat="31.787187019363046" lon="-4.109092997387052">
        <ele>963.20000000000005</ele>
        <time>2003-04-18T11:01:43Z</time>
      </trkpt>
      <trkpt lat="31.787267988547683" lon="-4.109167009592056">
        <ele>963.60000000000002</ele>
        <time>2003-04-18T11:01:44Z</time>
      </trkpt>
      <trkpt lat="31.787448031827807" lon="-4.10926298238337">
        <ele>963.89999999999998</ele>
        <time>2003-04-18T11:01:48Z</time>
      </trkpt>
      <trkpt lat="31.787556996569037" lon="-4.109343029558659">
        <ele>964.39999999999998</ele>
        <time>2003-04-18T11:01:51Z</time>
      </trkpt>
      <trkpt lat="31.787679959088564" lon="-4.109430033713579">
        <ele>964.20000000000005</ele>
        <time>2003-04-18T11:01:54Z</time>
      </trkpt>
      <trkpt lat="31.787767969071865" lon="-4.10945501178503">
        <ele>963.79999999999995</ele>
        <time>2003-04-18T11:01:55Z</time>
      </trkpt>
      <trkpt lat="31.787869976833463" lon="-4.109466997906566">
        <ele>963.89999999999998</ele>
        <time>2003-04-18T11:01:58Z</time>
      </trkpt>
      <trkpt lat="31.787977013736963" lon="-4.109567999839783">
        <ele>964.20000000000005</ele>
        <time>2003-04-18T11:04:28Z</time>
      </trkpt>
      <trkpt lat="31.788084972649813" lon="-4.109585015103221">
        <ele>963.79999999999995</ele>
        <time>2003-04-18T11:04:29Z</time>
      </trkpt>
      <trkpt lat="31.788208018988371" lon="-4.109600018709898">
        <ele>963.39999999999998</ele>
        <time>2003-04-18T11:04:32Z</time>
      </trkpt>
      <trkpt lat="31.788407005369663" lon="-4.109681993722916">
        <ele>963.60000000000002</ele>
        <time>2003-04-18T11:04:35Z</time>
      </trkpt>
      <trkpt lat="31.788619989529252" lon="-4.109792970120907">
        <ele>964.39999999999998</ele>
        <time>2003-04-18T11:04:37Z</time>
      </trkpt>
      <trkpt lat="31.788762984797359" lon="-4.109894977882505">
        <ele>964.79999999999995</ele>
        <time>2003-04-18T11:04:40Z</time>
      </trkpt>
      <trkpt lat="31.789503023028374" lon="-4.110427983105183">
        <ele>968.20000000000005</ele>
        <time>2003-04-18T11:04:49Z</time>
      </trkpt>
      <trkpt lat="31.789664961397648" lon="-4.110477017238736">
        <ele>969.20000000000005</ele>
        <time>2003-04-18T11:04:52Z</time>
      </trkpt>
      <trkpt lat="31.789832012727857" lon="-4.110460001975298">
        <ele>970.39999999999998</ele>
        <time>2003-04-18T11:04:53Z</time>
      </trkpt>
      <trkpt lat="31.790111968293786" lon="-4.110392024740577">
        <ele>974.60000000000002</ele>
        <time>2003-04-18T11:04:57Z</time>
      </trkpt>
      <trkpt lat="31.790492003783584" lon="-4.110288005322218">
        <ele>974.60000000000002</ele>
        <time>2003-04-18T11:05:03Z</time>
      </trkpt>
      <trkpt lat="31.79067799821496" lon="-4.110275013372302">
        <ele>974.60000000000002</ele>
        <time>2003-04-18T11:05:04Z</time>
      </trkpt>
      <trkpt lat="31.790768019855022" lon="-4.11029496230185">
        <ele>974.60000000000002</ele>
        <time>2003-04-18T11:05:06Z</time>
      </trkpt>
      <trkpt lat="31.790929958224297" lon="-4.110367968678474">
        <ele>974.29999999999995</ele>
        <time>2003-04-18T11:05:07Z</time>
      </trkpt>
      <trkpt lat="31.791076976805925" lon="-4.110471988096833">
        <ele>974.20000000000005</ele>
        <time>2003-04-18T11:05:10Z</time>
      </trkpt>
      <trkpt lat="31.791200023144484" lon="-4.11059302277863">
        <ele>973.70000000000005</ele>
        <time>2003-04-18T11:05:11Z</time>
      </trkpt>
      <trkpt lat="31.791534963995218" lon="-4.110970040783286">
        <ele>974</ele>
        <time>2003-04-18T11:05:16Z</time>
      </trkpt>
      <trkpt lat="31.792205013334751" lon="-4.11177696660161">
        <ele>976</ele>
        <time>2003-04-18T11:05:26Z</time>
      </trkpt>
      <trkpt lat="31.792922001332045" lon="-4.112494960427284">
        <ele>977.89999999999998</ele>
        <time>2003-04-18T11:05:34Z</time>
      </trkpt>
      <trkpt lat="31.793666984885931" lon="-4.113198034465313">
        <ele>979.20000000000005</ele>
        <time>2003-04-18T11:05:43Z</time>
      </trkpt>
      <trkpt lat="31.794145004823804" lon="-4.113613022491336">
        <ele>980</ele>
        <time>2003-04-18T11:05:49Z</time>
      </trkpt>
      <trkpt lat="31.795034995302558" lon="-4.114232026040554">
        <ele>979.20000000000005</ele>
        <time>2003-04-18T11:05:57Z</time>
      </trkpt>
      <trkpt lat="31.79587796330452" lon="-4.114786991849542">
        <ele>978.39999999999998</ele>
        <time>2003-04-18T11:06:04Z</time>
      </trkpt>
      <trkpt lat="31.796682039275765" lon="-4.115335000678897">
        <ele>977.70000000000005</ele>
        <time>2003-04-18T11:06:09Z</time>
      </trkpt>
      <trkpt lat="31.797502040863037" lon="-4.115919973701239">
        <ele>977.20000000000005</ele>
        <time>2003-04-18T11:06:16Z</time>
      </trkpt>
      <trkpt lat="31.798315001651645" lon="-4.116509975865483">
        <ele>975.70000000000005</ele>
        <time>2003-04-18T11:06:21Z</time>
      </trkpt>
      <trkpt lat="31.799176996573806" lon="-4.117112969979644">
        <ele>974.20000000000005</ele>
        <time>2003-04-18T11:06:28Z</time>
      </trkpt>
      <trkpt lat="31.800047038123012" lon="-4.117689980193973">
        <ele>974.39999999999998</ele>
        <time>2003-04-18T11:06:33Z</time>
      </trkpt>
      <trkpt lat="31.800953038036823" lon="-4.118261961266398">
        <ele>976.29999999999995</ele>
        <time>2003-04-18T11:06:40Z</time>
      </trkpt>
      <trkpt lat="31.801772033795714" lon="-4.118802007287741">
        <ele>976.70000000000005</ele>
        <time>2003-04-18T11:06:45Z</time>
      </trkpt>
      <trkpt lat="31.802615001797676" lon="-4.119326965883374">
        <ele>976.39999999999998</ele>
        <time>2003-04-18T11:06:52Z</time>
      </trkpt>
      <trkpt lat="31.803542962297797" lon="-4.119904981926084">
        <ele>976.5</ele>
        <time>2003-04-18T11:06:59Z</time>
      </trkpt>
      <trkpt lat="31.804158026352525" lon="-4.12028300575912">
        <ele>977.10000000000002</ele>
        <time>2003-04-18T11:07:03Z</time>
      </trkpt>
      <trkpt lat="31.804933017119765" lon="-4.120854986831546">
        <ele>977.5</ele>
        <time>2003-04-18T11:07:11Z</time>
      </trkpt>
      <trkpt lat="31.805795012041926" lon="-4.121423028409481">
        <ele>980.20000000000005</ele>
        <time>2003-04-18T11:07:18Z</time>
      </trkpt>
      <trkpt lat="31.806611996144056" lon="-4.121971959248185">
        <ele>981</ele>
        <time>2003-04-18T11:07:25Z</time>
      </trkpt>
      <trkpt lat="31.807222031056881" lon="-4.122383007779717">
        <ele>980.89999999999998</ele>
        <time>2003-04-18T11:07:30Z</time>
      </trkpt>
      <trkpt lat="31.808076985180378" lon="-4.122920036315918">
        <ele>981.5</ele>
        <time>2003-04-18T11:07:38Z</time>
      </trkpt>
      <trkpt lat="31.808892963454127" lon="-4.123396966606379">
        <ele>982.29999999999995</ele>
        <time>2003-04-18T11:07:46Z</time>
      </trkpt>
      <trkpt lat="31.809723023325205" lon="-4.123898036777973">
        <ele>981.79999999999995</ele>
        <time>2003-04-18T11:07:53Z</time>
      </trkpt>
      <trkpt lat="31.810264997184277" lon="-4.124204982072115">
        <ele>981.89999999999998</ele>
        <time>2003-04-18T11:08:01Z</time>
      </trkpt>
      <trkpt lat="31.810419978573918" lon="-4.124264996498823">
        <ele>981.79999999999995</ele>
        <time>2003-04-18T11:08:02Z</time>
      </trkpt>
      <trkpt lat="31.81063799187541" lon="-4.124289974570274">
        <ele>980.70000000000005</ele>
        <time>2003-04-18T11:08:05Z</time>
      </trkpt>
      <trkpt lat="31.810843013226986" lon="-4.124349988996983">
        <ele>980.70000000000005</ele>
        <time>2003-04-18T11:08:09Z</time>
      </trkpt>
      <trkpt lat="31.810969999060035" lon="-4.124432969838381">
        <ele>981.39999999999998</ele>
        <time>2003-04-18T11:08:09Z</time>
      </trkpt>
      <trkpt lat="31.811181977391243" lon="-4.124607983976603">
        <ele>982.20000000000005</ele>
        <time>2003-04-18T11:08:13Z</time>
      </trkpt>
      <trkpt lat="31.811277028173208" lon="-4.12475198507309">
        <ele>982.60000000000002</ele>
        <time>2003-04-18T11:08:16Z</time>
      </trkpt>
      <trkpt lat="31.811422035098076" lon="-4.124873019754887">
        <ele>983.20000000000005</ele>
        <time>2003-04-18T11:08:17Z</time>
      </trkpt>
      <trkpt lat="31.811686987057328" lon="-4.125090027227998">
        <ele>983.70000000000005</ele>
        <time>2003-04-18T11:08:21Z</time>
      </trkpt>
      <trkpt lat="31.812429958954453" lon="-4.125587996095419">
        <ele>985.60000000000002</ele>
        <time>2003-04-18T11:08:28Z</time>
      </trkpt>
      <trkpt lat="31.813239986076951" lon="-4.126116978004575">
        <ele>987</ele>
        <time>2003-04-18T11:08:36Z</time>
      </trkpt>
      <trkpt lat="31.814078008756042" lon="-4.126702034845948">
        <ele>989.39999999999998</ele>
        <time>2003-04-18T11:08:43Z</time>
      </trkpt>
      <trkpt lat="31.814973028376698" lon="-4.127264963462949">
        <ele>989.60000000000002</ele>
        <time>2003-04-18T11:08:50Z</time>
      </trkpt>
      <trkpt lat="31.815886991098523" lon="-4.127862006425858">
        <ele>990.60000000000002</ele>
        <time>2003-04-18T11:08:56Z</time>
      </trkpt>
      <trkpt lat="31.816697018221021" lon="-4.128392999991775">
        <ele>991.79999999999995</ele>
        <time>2003-04-18T11:09:03Z</time>
      </trkpt>
      <trkpt lat="31.817592037841678" lon="-4.128977973014116">
        <ele>993.10000000000002</ele>
        <time>2003-04-18T11:09:10Z</time>
      </trkpt>
      <trkpt lat="31.818414973095059" lon="-4.129548026248813">
        <ele>994.20000000000005</ele>
        <time>2003-04-18T11:09:17Z</time>
      </trkpt>
      <trkpt lat="31.819303035736084" lon="-4.130087988451123">
        <ele>995.10000000000002</ele>
        <time>2003-04-18T11:09:23Z</time>
      </trkpt>
      <trkpt lat="31.819720035418868" lon="-4.130370039492846">
        <ele>995.39999999999998</ele>
        <time>2003-04-18T11:09:27Z</time>
      </trkpt>
      <trkpt lat="31.820522015914321" lon="-4.130862979218364">
        <ele>995.39999999999998</ele>
        <time>2003-04-18T11:09:34Z</time>
      </trkpt>
      <trkpt lat="31.821364983916283" lon="-4.13139003328979">
        <ele>996.79999999999995</ele>
        <time>2003-04-18T11:09:41Z</time>
      </trkpt>
      <trkpt lat="31.822172999382019" lon="-4.131897976621985">
        <ele>998.39999999999998</ele>
        <time>2003-04-18T11:09:49Z</time>
      </trkpt>
      <trkpt lat="31.822467958554626" lon="-4.13207701407373">
        <ele>999.10000000000002</ele>
        <time>2003-04-18T11:09:52Z</time>
      </trkpt>
      <trkpt lat="31.823327019810677" lon="-4.132623011246324">
        <ele>999.5</ele>
        <time>2003-04-18T11:10:00Z</time>
      </trkpt>
      <trkpt lat="31.824224973097444" lon="-4.133172025904059">
        <ele>1000.2</ele>
        <time>2003-04-18T11:10:08Z</time>
      </trkpt>
      <trkpt lat="31.825129967182875" lon="-4.133751969784498">
        <ele>1000.9</ele>
        <time>2003-04-18T11:10:15Z</time>
      </trkpt>
      <trkpt lat="31.825939994305372" lon="-4.134233007207513">
        <ele>1001.1</ele>
        <time>2003-04-18T11:10:20Z</time>
      </trkpt>
      <trkpt lat="31.826862003654242" lon="-4.134799959138036">
        <ele>1002.1</ele>
        <time>2003-04-18T11:10:28Z</time>
      </trkpt>
      <trkpt lat="31.82776004076004" lon="-4.135388033464551">
        <ele>1004.1</ele>
        <time>2003-04-18T11:10:35Z</time>
      </trkpt>
      <trkpt lat="31.828542994335294" lon="-4.135918021202087">
        <ele>1004.7</ele>
        <time>2003-04-18T11:10:40Z</time>
      </trkpt>
      <trkpt lat="31.829365007579327" lon="-4.136448008939624">
        <ele>1004.9</ele>
        <time>2003-04-18T11:10:47Z</time>
      </trkpt>
      <trkpt lat="31.830281987786293" lon="-4.137032981961966">
        <ele>1005.6</ele>
        <time>2003-04-18T11:10:54Z</time>
      </trkpt>
      <trkpt lat="31.830986989662051" lon="-4.137462973594666">
        <ele>1006.2</ele>
        <time>2003-04-18T11:10:59Z</time>
      </trkpt>
      <trkpt lat="31.831879997625947" lon="-4.13805297575891">
        <ele>1006.9</ele>
        <time>2003-04-18T11:11:07Z</time>
      </trkpt>
      <trkpt lat="31.832694970071316" lon="-4.138582041487098">
        <ele>1007.2</ele>
        <time>2003-04-18T11:11:14Z</time>
      </trkpt>
      <trkpt lat="31.833552019670606" lon="-4.139140024781227">
        <ele>1008.2</ele>
        <time>2003-04-18T11:11:22Z</time>
      </trkpt>
      <trkpt lat="31.834406973794103" lon="-4.139681998640299">
        <ele>1009.1</ele>
        <time>2003-04-18T11:11:29Z</time>
      </trkpt>
      <trkpt lat="31.835290007293224" lon="-4.140258003026247">
        <ele>1009.4</ele>
        <time>2003-04-18T11:11:36Z</time>
      </trkpt>
      <trkpt lat="31.836086958646774" lon="-4.140759995207191">
        <ele>1010.3</ele>
        <time>2003-04-18T11:11:41Z</time>
      </trkpt>
      <trkpt lat="31.836948031559587" lon="-4.141310015693307">
        <ele>1010.8</ele>
        <time>2003-04-18T11:11:48Z</time>
      </trkpt>
      <trkpt lat="31.837876997888088" lon="-4.141927007585764">
        <ele>1011.6</ele>
        <time>2003-04-18T11:11:53Z</time>
      </trkpt>
      <trkpt lat="31.838815016672015" lon="-4.142535030841827">
        <ele>1012.7</ele>
        <time>2003-04-18T11:12:00Z</time>
      </trkpt>
      <trkpt lat="31.839616997167468" lon="-4.143040040507913">
        <ele>1013.8</ele>
        <time>2003-04-18T11:12:04Z</time>
      </trkpt>
      <trkpt lat="31.840432975441217" lon="-4.143557036295533">
        <ele>1013.8</ele>
        <time>2003-04-18T11:12:09Z</time>
      </trkpt>
      <trkpt lat="31.841332018375397" lon="-4.144107978790999">
        <ele>1013.7</ele>
        <time>2003-04-18T11:12:16Z</time>
      </trkpt>
      <trkpt lat="31.842250004410744" lon="-4.144607959315181">
        <ele>1013.6</ele>
        <time>2003-04-18T11:12:22Z</time>
      </trkpt>
      <trkpt lat="31.843217024579644" lon="-4.145116992294788">
        <ele>1014.5</ele>
        <time>2003-04-18T11:12:27Z</time>
      </trkpt>
      <trkpt lat="31.84408999979496" lon="-4.145470038056374">
        <ele>1015.5</ele>
        <time>2003-04-18T11:12:32Z</time>
      </trkpt>
      <trkpt lat="31.845083003863692" lon="-4.145840015262365">
        <ele>1015.6</ele>
        <time>2003-04-18T11:12:39Z</time>
      </trkpt>
      <trkpt lat="31.845990009605885" lon="-4.146319963037968">
        <ele>1016.2</ele>
        <time>2003-04-18T11:12:45Z</time>
      </trkpt>
      <trkpt lat="31.846359986811876" lon="-4.146506963297725">
        <ele>1016.1</ele>
        <time>2003-04-18T11:12:47Z</time>
      </trkpt>
      <trkpt lat="31.846574982628226" lon="-4.146564966067672">
        <ele>1016.2</ele>
        <time>2003-04-18T11:12:50Z</time>
      </trkpt>
      <trkpt lat="31.846804982051253" lon="-4.146573012694717">
        <ele>1016</ele>
        <time>2003-04-18T11:12:51Z</time>
      </trkpt>
      <trkpt lat="31.847188035026193" lon="-4.146528001874685">
        <ele>1014.6</ele>
        <time>2003-04-18T11:12:54Z</time>
      </trkpt>
      <trkpt lat="31.847667982801795" lon="-4.146397998556495">
        <ele>1013.7</ele>
        <time>2003-04-18T11:12:58Z</time>
      </trkpt>
      <trkpt lat="31.847988003864884" lon="-4.146266989409924">
        <ele>1013.6</ele>
        <time>2003-04-18T11:13:02Z</time>
      </trkpt>
      <trkpt lat="31.848882017657161" lon="-4.145947974175215">
        <ele>1011.6</ele>
        <time>2003-04-18T11:13:09Z</time>
      </trkpt>
      <trkpt lat="31.849662037566304" lon="-4.145667012780905">
        <ele>1009.4</ele>
        <time>2003-04-18T11:13:16Z</time>
      </trkpt>
      <trkpt lat="31.849764967337251" lon="-4.145668018609285">
        <ele>1008.9</ele>
        <time>2003-04-18T11:13:17Z</time>
      </trkpt>
      <trkpt lat="31.849875021725893" lon="-4.145689979195595">
        <ele>1008.9</ele>
        <time>2003-04-18T11:13:17Z</time>
      </trkpt>
      <trkpt lat="31.849990021437407" lon="-4.145732978358865">
        <ele>1009</ele>
        <time>2003-04-18T11:13:18Z</time>
      </trkpt>
      <trkpt lat="31.850927034392953" lon="-4.146068003028631">
        <ele>1009.1</ele>
        <time>2003-04-18T11:13:28Z</time>
      </trkpt>
      <trkpt lat="31.85158702544868" lon="-4.146500006318092">
        <ele>1008.9</ele>
        <time>2003-04-18T11:13:36Z</time>
      </trkpt>
      <trkpt lat="31.851677969098091" lon="-4.146524984389544">
        <ele>1009.2</ele>
        <time>2003-04-18T11:13:37Z</time>
      </trkpt>
      <trkpt lat="31.852214997634292" lon="-4.146737968549132">
        <ele>1009</ele>
        <time>2003-04-18T11:13:43Z</time>
      </trkpt>
      <trkpt lat="31.852365033701062" lon="-4.146841987967491">
        <ele>1009</ele>
        <time>2003-04-18T11:13:44Z</time>
      </trkpt>
      <trkpt lat="31.852544993162155" lon="-4.146977020427585">
        <ele>1009.3</ele>
        <time>2003-04-18T11:13:48Z</time>
      </trkpt>
      <trkpt lat="31.852601990103722" lon="-4.147078022360802">
        <ele>1009</ele>
        <time>2003-04-18T11:13:49Z</time>
      </trkpt>
      <trkpt lat="31.85262001119554" lon="-4.147207019850612">
        <ele>1009.2</ele>
        <time>2003-04-18T11:13:52Z</time>
      </trkpt>
      <trkpt lat="31.852605007588863" lon="-4.147346997633576">
        <ele>1009.2</ele>
        <time>2003-04-18T11:13:53Z</time>
      </trkpt>
      <trkpt lat="31.852562008425593" lon="-4.14752502925694">
        <ele>1009.5</ele>
        <time>2003-04-18T11:13:56Z</time>
      </trkpt>
      <trkpt lat="31.852495037019253" lon="-4.147731978446245">
        <ele>1009.9</ele>
        <time>2003-04-18T11:13:57Z</time>
      </trkpt>
      <trkpt lat="31.852454971522093" lon="-4.147942028939724">
        <ele>1010.1</ele>
        <time>2003-04-18T11:14:00Z</time>
      </trkpt>
      <trkpt lat="31.852420018985868" lon="-4.148521972820163">
        <ele>1010.4</ele>
        <time>2003-04-18T11:14:04Z</time>
      </trkpt>
      <trkpt lat="31.852507023140788" lon="-4.149620002135634">
        <ele>1010.7</ele>
        <time>2003-04-18T11:14:15Z</time>
      </trkpt>
      <trkpt lat="31.852612970396876" lon="-4.15010497905314">
        <ele>1010.7</ele>
        <time>2003-04-18T11:14:19Z</time>
      </trkpt>
      <trkpt lat="31.852693017572165" lon="-4.150245040655136">
        <ele>1009.2</ele>
        <time>2003-04-18T11:14:23Z</time>
      </trkpt>
      <trkpt lat="31.85274800285697" lon="-4.150421982631087">
        <ele>1009.7</ele>
        <time>2003-04-18T11:14:24Z</time>
      </trkpt>
      <trkpt lat="31.852846993133426" lon="-4.150713002309203">
        <ele>1010.4</ele>
        <time>2003-04-18T11:14:27Z</time>
      </trkpt>
      <trkpt lat="31.852987976744771" lon="-4.150945013388991">
        <ele>1010.7</ele>
        <time>2003-04-18T11:14:31Z</time>
      </trkpt>
      <trkpt lat="31.853067018091679" lon="-4.151002010330558">
        <ele>1011</ele>
        <time>2003-04-18T11:14:31Z</time>
      </trkpt>
      <trkpt lat="31.853387961164117" lon="-4.151252964511514">
        <ele>1011.2</ele>
        <time>2003-04-18T11:14:35Z</time>
      </trkpt>
      <trkpt lat="31.853632964193821" lon="-4.151505008339882">
        <ele>1011.4</ele>
        <time>2003-04-18T11:14:38Z</time>
      </trkpt>
      <trkpt lat="31.854067984968424" lon="-4.15197498165071">
        <ele>1013.9</ele>
        <time>2003-04-18T11:14:45Z</time>
      </trkpt>
      <trkpt lat="31.854194970801473" lon="-4.152144966647029">
        <ele>1013.4</ele>
        <time>2003-04-18T11:14:46Z</time>
      </trkpt>
      <trkpt lat="31.854378031566739" lon="-4.152487032115459">
        <ele>1014</ele>
        <time>2003-04-18T11:14:50Z</time>
      </trkpt>
      <trkpt lat="31.854722024872899" lon="-4.153052978217602">
        <ele>1014.9</ele>
        <time>2003-04-18T11:14:54Z</time>
      </trkpt>
      <trkpt lat="31.855189986526966" lon="-4.153642980381846">
        <ele>1015.2</ele>
        <time>2003-04-18T11:15:01Z</time>
      </trkpt>
      <trkpt lat="31.855947962030768" lon="-4.154283022508025">
        <ele>1015.7</ele>
        <time>2003-04-18T11:15:08Z</time>
      </trkpt>
      <trkpt lat="31.856747008860111" lon="-4.15498299524188">
        <ele>1016.2</ele>
        <time>2003-04-18T11:15:14Z</time>
      </trkpt>
      <trkpt lat="31.857431977987289" lon="-4.155682967975736">
        <ele>1017.5</ele>
        <time>2003-04-18T11:15:21Z</time>
      </trkpt>
      <trkpt lat="31.857998007908463" lon="-4.156531970947981">
        <ele>1019.2</ele>
        <time>2003-04-18T11:15:27Z</time>
      </trkpt>
      <trkpt lat="31.858624974265695" lon="-4.157402012497187">
        <ele>1019.7</ele>
        <time>2003-04-18T11:15:33Z</time>
      </trkpt>
      <trkpt lat="31.858727987855673" lon="-4.157605022192001">
        <ele>1020.1</ele>
        <time>2003-04-18T11:15:36Z</time>
      </trkpt>
      <trkpt lat="31.859059995040298" lon="-4.15835302323103">
        <ele>1019.9</ele>
        <time>2003-04-18T11:15:41Z</time>
      </trkpt>
      <trkpt lat="31.859546983614564" lon="-4.159412998706102">
        <ele>1022.1</ele>
        <time>2003-04-18T11:15:50Z</time>
      </trkpt>
      <trkpt lat="31.859977981075644" lon="-4.160235011950135">
        <ele>1024</ele>
        <time>2003-04-18T11:15:56Z</time>
      </trkpt>
      <trkpt lat="31.860089963302016" lon="-4.160399967804551">
        <ele>1024.8</ele>
        <time>2003-04-18T11:15:59Z</time>
      </trkpt>
      <trkpt lat="31.860209992155433" lon="-4.160525025799871">
        <ele>1026.9000000000001</ele>
        <time>2003-04-18T11:16:00Z</time>
      </trkpt>
      <trkpt lat="31.860307976603508" lon="-4.160625021904707">
        <ele>1027.5999999999999</ele>
        <time>2003-04-18T11:16:03Z</time>
      </trkpt>
      <trkpt lat="31.860388023778796" lon="-4.160797018557787">
        <ele>1028.2</ele>
        <time>2003-04-18T11:16:04Z</time>
      </trkpt>
      <trkpt lat="31.860520038753748" lon="-4.161107987165451">
        <ele>1027.4000000000001</ele>
        <time>2003-04-18T11:16:07Z</time>
      </trkpt>
      <trkpt lat="31.860750038176775" lon="-4.161585001274943">
        <ele>1028.3</ele>
        <time>2003-04-18T11:16:11Z</time>
      </trkpt>
      <trkpt lat="31.861142981797457" lon="-4.162531988695264">
        <ele>1029.0999999999999</ele>
        <time>2003-04-18T11:16:19Z</time>
      </trkpt>
      <trkpt lat="31.861205007880926" lon="-4.162742039188743">
        <ele>1029.8</ele>
        <time>2003-04-18T11:16:22Z</time>
      </trkpt>
      <trkpt lat="31.861408017575741" lon="-4.16314797475934">
        <ele>1033.2</ele>
        <time>2003-04-18T11:16:26Z</time>
      </trkpt>
      <trkpt lat="31.861452022567391" lon="-4.163247970864177">
        <ele>1033.5999999999999</ele>
        <time>2003-04-18T11:16:26Z</time>
      </trkpt>
      <trkpt lat="31.861616978421807" lon="-4.163545025512576">
        <ele>1032.2</ele>
        <time>2003-04-18T11:16:30Z</time>
      </trkpt>
      <trkpt lat="31.861774977296591" lon="-4.163715010508895">
        <ele>1032</ele>
        <time>2003-04-18T11:16:31Z</time>
      </trkpt>
      <trkpt lat="31.862000031396747" lon="-4.163969988003373">
        <ele>1031.5999999999999</ele>
        <time>2003-04-18T11:16:34Z</time>
      </trkpt>
      <trkpt lat="31.862100027501583" lon="-4.164152964949608">
        <ele>1030.8</ele>
        <time>2003-04-18T11:16:37Z</time>
      </trkpt>
      <trkpt lat="31.862187031656504" lon="-4.16437198407948">
        <ele>1031</ele>
        <time>2003-04-18T11:16:38Z</time>
      </trkpt>
      <trkpt lat="31.862376965582371" lon="-4.164872970432043">
        <ele>1030.8</ele>
        <time>2003-04-18T11:16:42Z</time>
      </trkpt>
      <trkpt lat="31.862585004419088" lon="-4.165206989273429">
        <ele>1029.0999999999999</ele>
        <time>2003-04-18T11:16:46Z</time>
      </trkpt>
      <trkpt lat="31.863196967169642" lon="-4.166124975308776">
        <ele>1027.4000000000001</ele>
        <time>2003-04-18T11:16:53Z</time>
      </trkpt>
      <trkpt lat="31.863708011806011" lon="-4.167099958285689">
        <ele>1025.7</ele>
        <time>2003-04-18T11:17:01Z</time>
      </trkpt>
      <trkpt lat="31.86426498927176" lon="-4.167951978743076">
        <ele>1024.5999999999999</ele>
        <time>2003-04-18T11:17:08Z</time>
      </trkpt>
      <trkpt lat="31.864561960101128" lon="-4.168327990919352">
        <ele>1024.0999999999999</ele>
        <time>2003-04-18T11:17:12Z</time>
      </trkpt>
      <trkpt lat="31.864649970084429" lon="-4.16840803809464">
        <ele>1024.4000000000001</ele>
        <time>2003-04-18T11:17:13Z</time>
      </trkpt>
      <trkpt lat="31.864839987829328" lon="-4.168514991179109">
        <ele>1024.5999999999999</ele>
        <time>2003-04-18T11:17:15Z</time>
      </trkpt>
      <trkpt lat="31.865226980298758" lon="-4.168616998940706">
        <ele>1024.3</ele>
        <time>2003-04-18T11:17:19Z</time>
      </trkpt>
      <trkpt lat="31.865323036909103" lon="-4.168601995334029">
        <ele>1024.5</ele>
        <time>2003-04-18T11:17:20Z</time>
      </trkpt>
      <trkpt lat="31.865927036851645" lon="-4.168503005057573">
        <ele>1024.4000000000001</ele>
        <time>2003-04-18T11:17:27Z</time>
      </trkpt>
      <trkpt lat="31.86607195995748" lon="-4.168512979522348">
        <ele>1023.9</ele>
        <time>2003-04-18T11:17:28Z</time>
      </trkpt>
      <trkpt lat="31.866229958832264" lon="-4.168505016714335">
        <ele>1023.8</ele>
        <time>2003-04-18T11:17:31Z</time>
      </trkpt>
      <trkpt lat="31.866743015125394" lon="-4.168472997844219">
        <ele>1023.2</ele>
        <time>2003-04-18T11:17:36Z</time>
      </trkpt>
      <trkpt lat="31.867090025916696" lon="-4.168439973145723">
        <ele>1023.1</ele>
        <time>2003-04-18T11:17:40Z</time>
      </trkpt>
      <trkpt lat="31.867793016135693" lon="-4.168512979522348">
        <ele>1022.4</ele>
        <time>2003-04-18T11:17:47Z</time>
      </trkpt>
      <trkpt lat="31.868010023608804" lon="-4.168514991179109">
        <ele>1022.6</ele>
        <time>2003-04-18T11:17:50Z</time>
      </trkpt>
      <trkpt lat="31.868116976693273" lon="-4.168524965643883">
        <ele>1022.8</ele>
        <time>2003-04-18T11:17:51Z</time>
      </trkpt>
      <trkpt lat="31.868446972221136" lon="-4.168601995334029">
        <ele>1023</ele>
        <time>2003-04-18T11:17:54Z</time>
      </trkpt>
      <trkpt lat="31.868994981050491" lon="-4.168833000585437">
        <ele>1023.2</ele>
        <time>2003-04-18T11:17:59Z</time>
      </trkpt>
      <trkpt lat="31.869460009038448" lon="-4.169223010540009">
        <ele>1022.6</ele>
        <time>2003-04-18T11:18:03Z</time>
      </trkpt>
      <trkpt lat="31.869669975712895" lon="-4.169507995247841">
        <ele>1022.3</ele>
        <time>2003-04-18T11:18:07Z</time>
      </trkpt>
      <trkpt lat="31.869780030101538" lon="-4.169736988842487">
        <ele>1021.9</ele>
        <time>2003-04-18T11:18:09Z</time>
      </trkpt>
      <trkpt lat="31.869842978194356" lon="-4.169990038499236">
        <ele>1021.7</ele>
        <time>2003-04-18T11:18:10Z</time>
      </trkpt>
      <trkpt lat="31.870026960968971" lon="-4.17094498872757">
        <ele>1021.7</ele>
        <time>2003-04-18T11:18:18Z</time>
      </trkpt>
      <trkpt lat="31.870138021185994" lon="-4.171189991757274">
        <ele>1021.5</ele>
        <time>2003-04-18T11:18:19Z</time>
      </trkpt>
      <trkpt lat="31.87021697871387" lon="-4.171302979812026">
        <ele>1021.5</ele>
        <time>2003-04-18T11:18:21Z</time>
      </trkpt>
      <trkpt lat="31.870442032814026" lon="-4.171683015301824">
        <ele>1021.4</ele>
        <time>2003-04-18T11:18:23Z</time>
      </trkpt>
      <trkpt lat="31.870712013915181" lon="-4.172224989160895">
        <ele>1021.4</ele>
        <time>2003-04-18T11:18:27Z</time>
      </trkpt>
      <trkpt lat="31.870936984196305" lon="-4.172626985237002">
        <ele>1021.4</ele>
        <time>2003-04-18T11:18:30Z</time>
      </trkpt>
      <trkpt lat="31.871384996920824" lon="-4.173685032874346">
        <ele>1021.8</ele>
        <time>2003-04-18T11:18:37Z</time>
      </trkpt>
      <trkpt lat="31.871869973838329" lon="-4.174694968387485">
        <ele>1021.9</ele>
        <time>2003-04-18T11:18:45Z</time>
      </trkpt>
      <trkpt lat="31.872327039018273" lon="-4.175578001886606">
        <ele>1021.8</ele>
        <time>2003-04-18T11:18:50Z</time>
      </trkpt>
      <trkpt lat="31.872667009010911" lon="-4.17668298818171">
        <ele>1021.4</ele>
        <time>2003-04-18T11:18:57Z</time>
      </trkpt>
      <trkpt lat="31.872779997065663" lon="-4.176894966512919">
        <ele>1021.4</ele>
        <time>2003-04-18T11:19:00Z</time>
      </trkpt>
      <trkpt lat="31.872864989563823" lon="-4.177066963165999">
        <ele>1021.5</ele>
        <time>2003-04-18T11:19:01Z</time>
      </trkpt>
      <trkpt lat="31.872951993718743" lon="-4.177196966484189">
        <ele>1021.5</ele>
        <time>2003-04-18T11:19:04Z</time>
      </trkpt>
      <trkpt lat="31.873239995911717" lon="-4.177552023902535">
        <ele>1021.9</ele>
        <time>2003-04-18T11:19:08Z</time>
      </trkpt>
      <trkpt lat="31.873452980071306" lon="-4.17779702693224">
        <ele>1022.3</ele>
        <time>2003-04-18T11:19:12Z</time>
      </trkpt>
      <trkpt lat="31.873647021129727" lon="-4.178146971389651">
        <ele>1021.9</ele>
        <time>2003-04-18T11:19:16Z</time>
      </trkpt>
      <trkpt lat="31.8737399764359" lon="-4.178409995511174">
        <ele>1021.3</ele>
        <time>2003-04-18T11:19:19Z</time>
      </trkpt>
      <trkpt lat="31.874032001942396" lon="-4.179490003734827">
        <ele>1020</ele>
        <time>2003-04-18T11:19:30Z</time>
      </trkpt>
      <trkpt lat="31.87406200915575" lon="-4.179789992049336">
        <ele>1019.1</ele>
        <time>2003-04-18T11:19:32Z</time>
      </trkpt>
      <trkpt lat="31.874059997498989" lon="-4.179959977045655">
        <ele>1018.4</ele>
        <time>2003-04-18T11:19:35Z</time>
      </trkpt>
      <trkpt lat="31.874059997498989" lon="-4.180164998397231">
        <ele>1018.4</ele>
        <time>2003-04-18T11:19:38Z</time>
      </trkpt>
      <trkpt lat="31.874047005549073" lon="-4.180313022807241">
        <ele>1020.1</ele>
        <time>2003-04-18T11:19:40Z</time>
      </trkpt>
      <trkpt lat="31.874016998335719" lon="-4.180415030568838">
        <ele>1020.1</ele>
        <time>2003-04-18T11:19:43Z</time>
      </trkpt>
      <trkpt lat="31.873957989737391" lon="-4.180558025836945">
        <ele>1019.6</ele>
        <time>2003-04-18T11:19:44Z</time>
      </trkpt>
      <trkpt lat="31.873875008895993" lon="-4.180691968649626">
        <ele>1019.2</ele>
        <time>2003-04-18T11:19:47Z</time>
      </trkpt>
      <trkpt lat="31.873818011954427" lon="-4.180830018594861">
        <ele>1019</ele>
        <time>2003-04-18T11:19:48Z</time>
      </trkpt>
      <trkpt lat="31.873827986419201" lon="-4.180952981114388">
        <ele>1019.1</ele>
        <time>2003-04-18T11:19:51Z</time>
      </trkpt>
      <trkpt lat="31.873938040807843" lon="-4.181039985269308">
        <ele>1018.8</ele>
        <time>2003-04-18T11:19:54Z</time>
      </trkpt>
      <trkpt lat="31.874067038297653" lon="-4.181015007197857">
        <ele>1019.1</ele>
        <time>2003-04-18T11:19:57Z</time>
      </trkpt>
      <trkpt lat="31.874202992767096" lon="-4.181024981662631">
        <ele>1019.1</ele>
        <time>2003-04-18T11:19:58Z</time>
      </trkpt>
      <trkpt lat="31.874295026063919" lon="-4.181036967784166">
        <ele>1019.3</ele>
        <time>2003-04-18T11:19:59Z</time>
      </trkpt>
      <trkpt lat="31.874462999403477" lon="-4.181092958897352">
        <ele>1019.7</ele>
        <time>2003-04-18T11:20:02Z</time>
      </trkpt>
      <trkpt lat="31.874571964144707" lon="-4.181226985529065">
        <ele>1019.3</ele>
        <time>2003-04-18T11:20:03Z</time>
      </trkpt>
      <trkpt lat="31.87477296218276" lon="-4.181699976325035">
        <ele>1020.4</ele>
        <time>2003-04-18T11:20:10Z</time>
      </trkpt>
      <trkpt lat="31.87479198910296" lon="-4.181848000735045">
        <ele>1020.1</ele>
        <time>2003-04-18T11:20:11Z</time>
      </trkpt>
      <trkpt lat="31.874823002144694" lon="-4.182017985731363">
        <ele>1019.7</ele>
        <time>2003-04-18T11:20:14Z</time>
      </trkpt>
      <trkpt lat="31.874938001856208" lon="-4.182080011814833">
        <ele>1019.9</ele>
        <time>2003-04-18T11:20:17Z</time>
      </trkpt>
      <trkpt lat="31.875102035701275" lon="-4.18203298933804">
        <ele>1019.8</ele>
        <time>2003-04-18T11:20:18Z</time>
      </trkpt>
      <trkpt lat="31.875375034287572" lon="-4.18198999017477">
        <ele>1019.7</ele>
        <time>2003-04-18T11:20:22Z</time>
      </trkpt>
      <trkpt lat="31.875981967896223" lon="-4.182027960196137">
        <ele>1020.3</ele>
        <time>2003-04-18T11:20:29Z</time>
      </trkpt>
      <trkpt lat="31.876525031402707" lon="-4.181984961032867">
        <ele>1020.4</ele>
        <time>2003-04-18T11:20:33Z</time>
      </trkpt>
      <trkpt lat="31.876800041645765" lon="-4.182023014873266">
        <ele>1020.8</ele>
        <time>2003-04-18T11:20:36Z</time>
      </trkpt>
      <trkpt lat="31.876904983073473" lon="-4.182104989886284">
        <ele>1020.7</ele>
        <time>2003-04-18T11:20:37Z</time>
      </trkpt>
      <trkpt lat="31.876970026642084" lon="-4.182217977941036">
        <ele>1021.4</ele>
        <time>2003-04-18T11:20:40Z</time>
      </trkpt>
      <trkpt lat="31.877082008868456" lon="-4.182342030107975">
        <ele>1021.6</ele>
        <time>2003-04-18T11:20:41Z</time>
      </trkpt>
      <trkpt lat="31.877207988873124" lon="-4.182410007342696">
        <ele>1021.6</ele>
        <time>2003-04-18T11:20:44Z</time>
      </trkpt>
      <trkpt lat="31.877334974706173" lon="-4.182487037032843">
        <ele>1021.6</ele>
        <time>2003-04-18T11:20:45Z</time>
      </trkpt>
      <trkpt lat="31.877470007166266" lon="-4.182559959590435">
        <ele>1021.4</ele>
        <time>2003-04-18T11:20:48Z</time>
      </trkpt>
      <trkpt lat="31.87760797329247" lon="-4.182636989280582">
        <ele>1021.7</ele>
        <time>2003-04-18T11:20:49Z</time>
      </trkpt>
      <trkpt lat="31.87777996994555" lon="-4.182706978172064">
        <ele>1022.5</ele>
        <time>2003-04-18T11:20:52Z</time>
      </trkpt>
      <trkpt lat="31.877875020727515" lon="-4.182717958465219">
        <ele>1022.6</ele>
        <time>2003-04-18T11:20:52Z</time>
      </trkpt>
      <trkpt lat="31.878220019862056" lon="-4.182777972891927">
        <ele>1022.8</ele>
        <time>2003-04-18T11:20:57Z</time>
      </trkpt>
      <trkpt lat="31.878396961838007" lon="-4.182894984260202">
        <ele>1023.1</ele>
        <time>2003-04-18T11:21:00Z</time>
      </trkpt>
      <trkpt lat="31.878872970119119" lon="-4.183200001716614">
        <ele>1023</ele>
        <time>2003-04-18T11:21:05Z</time>
      </trkpt>
      <trkpt lat="31.879012025892735" lon="-4.183296980336309">
        <ele>1023.9</ele>
        <time>2003-04-18T11:21:08Z</time>
      </trkpt>
      <trkpt lat="31.879072962328792" lon="-4.183378033339977">
        <ele>1023.5</ele>
        <time>2003-04-18T11:21:08Z</time>
      </trkpt>
      <trkpt lat="31.879213023930788" lon="-4.183529997244477">
        <ele>1023.9</ele>
        <time>2003-04-18T11:21:11Z</time>
      </trkpt>
      <trkpt lat="31.879297010600567" lon="-4.183572996407747">
        <ele>1023.8</ele>
        <time>2003-04-18T11:21:12Z</time>
      </trkpt>
      <trkpt lat="31.879557017236948" lon="-4.183727977797389">
        <ele>1023.6</ele>
        <time>2003-04-18T11:21:15Z</time>
      </trkpt>
      <trkpt lat="31.87964997254312" lon="-4.183780029416084">
        <ele>1024</ele>
        <time>2003-04-18T11:21:16Z</time>
      </trkpt>
      <trkpt lat="31.879751980304718" lon="-4.183810036629438">
        <ele>1024.0999999999999</ele>
        <time>2003-04-18T11:21:16Z</time>
      </trkpt>
      <trkpt lat="31.880082981660962" lon="-4.183925036340952">
        <ele>1024</ele>
        <time>2003-04-18T11:21:19Z</time>
      </trkpt>
      <trkpt lat="31.880710031837225" lon="-4.184271963313222">
        <ele>1024.3</ele>
        <time>2003-04-18T11:21:26Z</time>
      </trkpt>
      <trkpt lat="31.881243037059903" lon="-4.184657027944922">
        <ele>1024.7</ele>
        <time>2003-04-18T11:21:31Z</time>
      </trkpt>
      <trkpt lat="31.881464989855886" lon="-4.18476196937263">
        <ele>1024.5999999999999</ele>
        <time>2003-04-18T11:21:35Z</time>
      </trkpt>
      <trkpt lat="31.881597004830837" lon="-4.18480203486979">
        <ele>1024.2</ele>
        <time>2003-04-18T11:21:36Z</time>
      </trkpt>
      <trkpt lat="31.881818035617471" lon="-4.184851991012693">
        <ele>1024.4000000000001</ele>
        <time>2003-04-18T11:21:39Z</time>
      </trkpt>
      <trkpt lat="31.882196981459856" lon="-4.184979982674122">
        <ele>1024.5</ele>
        <time>2003-04-18T11:21:45Z</time>
      </trkpt>
      <trkpt lat="31.882382975891232" lon="-4.185107974335551">
        <ele>1024.8</ele>
        <time>2003-04-18T11:21:46Z</time>
      </trkpt>
      <trkpt lat="31.882690005004406" lon="-4.18527795933187">
        <ele>1024.9000000000001</ele>
        <time>2003-04-18T11:21:50Z</time>
      </trkpt>
      <trkpt lat="31.882877005264163" lon="-4.18538298457861">
        <ele>1025</ele>
        <time>2003-04-18T11:21:51Z</time>
      </trkpt>
      <trkpt lat="31.882946994155645" lon="-4.185452973470092">
        <ele>1025.4000000000001</ele>
        <time>2003-04-18T11:21:53Z</time>
      </trkpt>
      <trkpt lat="31.883313031867146" lon="-4.185811970382929">
        <ele>1025.7</ele>
        <time>2003-04-18T11:21:58Z</time>
      </trkpt>
      <trkpt lat="31.883821981027722" lon="-4.186127968132496">
        <ele>1026.4000000000001</ele>
        <time>2003-04-18T11:22:02Z</time>
      </trkpt>
      <trkpt lat="31.884302012622356" lon="-4.186395015567541">
        <ele>1026.4000000000001</ele>
        <time>2003-04-18T11:22:08Z</time>
      </trkpt>
      <trkpt lat="31.884837029501796" lon="-4.186567012220621">
        <ele>1027.4000000000001</ele>
        <time>2003-04-18T11:22:13Z</time>
      </trkpt>
      <trkpt lat="31.885476987808943" lon="-4.186687963083386">
        <ele>1027.7</ele>
        <time>2003-04-18T11:22:17Z</time>
      </trkpt>
      <trkpt lat="31.886018039658666" lon="-4.186957022175193">
        <ele>1028.2</ele>
        <time>2003-04-18T11:22:21Z</time>
      </trkpt>
      <trkpt lat="31.886871987953782" lon="-4.187500001862645">
        <ele>1028.5999999999999</ele>
        <time>2003-04-18T11:22:29Z</time>
      </trkpt>
      <trkpt lat="31.887144986540079" lon="-4.187611984089017">
        <ele>1029.0999999999999</ele>
        <time>2003-04-18T11:22:30Z</time>
      </trkpt>
      <trkpt lat="31.887691989541054" lon="-4.187866961583495">
        <ele>1029.5999999999999</ele>
        <time>2003-04-18T11:22:35Z</time>
      </trkpt>
      <trkpt lat="31.88791997730732" lon="-4.188048010692">
        <ele>1030.5999999999999</ele>
        <time>2003-04-18T11:22:37Z</time>
      </trkpt>
      <trkpt lat="31.888592038303614" lon="-4.188619991764426">
        <ele>1031.3</ele>
        <time>2003-04-18T11:22:43Z</time>
      </trkpt>
      <trkpt lat="31.88884299248457" lon="-4.188740020617843">
        <ele>1031</ele>
        <time>2003-04-18T11:22:44Z</time>
      </trkpt>
      <trkpt lat="31.889613037928939" lon="-4.189106980338693">
        <ele>1032.3</ele>
        <time>2003-04-18T11:22:51Z</time>
      </trkpt>
      <trkpt lat="31.890209997072816" lon="-4.189390037208796">
        <ele>1032.7</ele>
        <time>2003-04-18T11:22:56Z</time>
      </trkpt>
      <trkpt lat="31.890903012827039" lon="-4.189663035795093">
        <ele>1033.3</ele>
        <time>2003-04-18T11:23:02Z</time>
      </trkpt>
      <trkpt lat="31.891124965623021" lon="-4.189762026071549">
        <ele>1033.4000000000001</ele>
        <time>2003-04-18T11:23:04Z</time>
      </trkpt>
      <trkpt lat="31.891353037208319" lon="-4.189807958900929">
        <ele>1033.5</ele>
        <time>2003-04-18T11:23:06Z</time>
      </trkpt>
      <trkpt lat="31.891472982242703" lon="-4.189847018569708">
        <ele>1033.5999999999999</ele>
        <time>2003-04-18T11:23:07Z</time>
      </trkpt>
      <trkpt lat="31.891699964180589" lon="-4.189956989139319">
        <ele>1034.0999999999999</ele>
        <time>2003-04-18T11:23:08Z</time>
      </trkpt>
      <trkpt lat="31.891931975260377" lon="-4.190029995515943">
        <ele>1034.2</ele>
        <time>2003-04-18T11:23:11Z</time>
      </trkpt>
      <trkpt lat="31.892909975722432" lon="-4.19028296135366">
        <ele>1034.9000000000001</ele>
        <time>2003-04-18T11:23:19Z</time>
      </trkpt>
      <trkpt lat="31.893793009221554" lon="-4.190520001575351">
        <ele>1035.9000000000001</ele>
        <time>2003-04-18T11:23:24Z</time>
      </trkpt>
      <trkpt lat="31.8944519944489" lon="-4.190761987119913">
        <ele>1036.5</ele>
        <time>2003-04-18T11:23:30Z</time>
      </trkpt>
      <trkpt lat="31.89492498524487" lon="-4.190937001258135">
        <ele>1037</ele>
        <time>2003-04-18T11:23:34Z</time>
      </trkpt>
      <trkpt lat="31.895169988274574" lon="-4.191013025119901">
        <ele>1037.4000000000001</ele>
        <time>2003-04-18T11:23:35Z</time>
      </trkpt>
      <trkpt lat="31.895533008500934" lon="-4.191125007346273">
        <ele>1038</ele>
        <time>2003-04-18T11:23:38Z</time>
      </trkpt>
      <trkpt lat="31.895641973242164" lon="-4.191104974597693">
        <ele>1038.2</ele>
        <time>2003-04-18T11:23:39Z</time>
      </trkpt>
      <trkpt lat="31.896474966779351" lon="-4.190953010693193">
        <ele>1038.5999999999999</ele>
        <time>2003-04-18T11:23:46Z</time>
      </trkpt>
      <trkpt lat="31.896588038653135" lon="-4.190957034006715">
        <ele>1038.7</ele>
        <time>2003-04-18T11:23:47Z</time>
      </trkpt>
      <trkpt lat="31.896706977859139" lon="-4.190957034006715">
        <ele>1038.9000000000001</ele>
        <time>2003-04-18T11:23:49Z</time>
      </trkpt>
      <trkpt lat="31.896809991449118" lon="-4.190959967672825">
        <ele>1039.2</ele>
        <time>2003-04-18T11:23:50Z</time>
      </trkpt>
      <trkpt lat="31.897121965885162" lon="-4.19099198654294">
        <ele>1039.3</ele>
        <time>2003-04-18T11:23:53Z</time>
      </trkpt>
      <trkpt lat="31.898022014647722" lon="-4.191159959882498">
        <ele>1040.2</ele>
        <time>2003-04-18T11:24:01Z</time>
      </trkpt>
      <trkpt lat="31.89831999130547" lon="-4.191158032044768">
        <ele>1040.5</ele>
        <time>2003-04-18T11:24:04Z</time>
      </trkpt>
      <trkpt lat="31.898410012945533" lon="-4.191117966547608">
        <ele>1040.4000000000001</ele>
        <time>2003-04-18T11:24:05Z</time>
      </trkpt>
      <trkpt lat="31.898728022351861" lon="-4.190983017906547">
        <ele>1040.4000000000001</ele>
        <time>2003-04-18T11:24:09Z</time>
      </trkpt>
      <trkpt lat="31.898891972377896" lon="-4.190983017906547">
        <ele>1040.2</ele>
        <time>2003-04-18T11:24:10Z</time>
      </trkpt>
      <trkpt lat="31.899094982072711" lon="-4.191006990149617">
        <ele>1039.2</ele>
        <time>2003-04-18T11:24:13Z</time>
      </trkpt>
      <trkpt lat="31.899236971512437" lon="-4.190970025956631">
        <ele>1039.3</ele>
        <time>2003-04-18T11:24:16Z</time>
      </trkpt>
      <trkpt lat="31.899390025064349" lon="-4.190927026793361">
        <ele>1039.5999999999999</ele>
        <time>2003-04-18T11:24:17Z</time>
      </trkpt>
      <trkpt lat="31.89952002838254" lon="-4.19094798155129">
        <ele>1039.5</ele>
        <time>2003-04-18T11:24:20Z</time>
      </trkpt>
      <trkpt lat="31.899617007002234" lon="-4.190989974886179">
        <ele>1039.8</ele>
        <time>2003-04-18T11:24:21Z</time>
      </trkpt>
      <trkpt lat="31.899705016985536" lon="-4.191112015396357">
        <ele>1040.7</ele>
        <time>2003-04-18T11:24:48Z</time>
      </trkpt>
      <trkpt lat="31.899737035855651" lon="-4.191217040643096">
        <ele>1040.5999999999999</ele>
        <time>2003-04-18T11:24:51Z</time>
      </trkpt>
      <trkpt lat="31.899722032248974" lon="-4.191352995112538">
        <ele>1040.2</ele>
        <time>2003-04-18T11:24:52Z</time>
      </trkpt>
      <trkpt lat="31.899678027257323" lon="-4.191519962623715">
        <ele>1040</ele>
        <time>2003-04-18T11:24:55Z</time>
      </trkpt>
      <trkpt lat="31.899622958153486" lon="-4.191718026995659">
        <ele>1039.9000000000001</ele>
        <time>2003-04-18T11:24:56Z</time>
      </trkpt>
      <trkpt lat="31.899562021717429" lon="-4.191945008933544">
        <ele>1040</ele>
        <time>2003-04-18T11:24:59Z</time>
      </trkpt>
      <trkpt lat="31.899460013955832" lon="-4.192337030544877">
        <ele>1040.3</ele>
        <time>2003-04-18T11:25:02Z</time>
      </trkpt>
      <trkpt lat="31.899266978725791" lon="-4.193067010492086">
        <ele>1039.5999999999999</ele>
        <time>2003-04-18T11:25:07Z</time>
      </trkpt>
      <trkpt lat="31.899077966809273" lon="-4.193807970732451">
        <ele>1038.8</ele>
        <time>2003-04-18T11:25:11Z</time>
      </trkpt>
      <trkpt lat="31.898777978494763" lon="-4.194976994767785">
        <ele>1037.8</ele>
        <time>2003-04-18T11:25:17Z</time>
      </trkpt>
      <trkpt lat="31.898485030978918" lon="-4.196112994104624">
        <ele>1036.9000000000001</ele>
        <time>2003-04-18T11:25:22Z</time>
      </trkpt>
      <trkpt lat="31.898191999644041" lon="-4.197257040068507">
        <ele>1035.9000000000001</ele>
        <time>2003-04-18T11:25:29Z</time>
      </trkpt>
      <trkpt lat="31.897868039086461" lon="-4.198457999154925">
        <ele>1034.8</ele>
        <time>2003-04-18T11:25:34Z</time>
      </trkpt>
      <trkpt lat="31.897603003308177" lon="-4.199531972408295">
        <ele>1033.9000000000001</ele>
        <time>2003-04-18T11:25:39Z</time>
      </trkpt>
      <trkpt lat="31.89730703830719" lon="-4.200663026422262">
        <ele>1033.0999999999999</ele>
        <time>2003-04-18T11:25:45Z</time>
      </trkpt>
      <trkpt lat="31.896992968395352" lon="-4.201864991337061">
        <ele>1032.2</ele>
        <time>2003-04-18T11:25:49Z</time>
      </trkpt>
      <trkpt lat="31.896722987294197" lon="-4.20289303176105">
        <ele>1031.4000000000001</ele>
        <time>2003-04-18T11:25:53Z</time>
      </trkpt>
      <trkpt lat="31.896442025899887" lon="-4.203991983085871">
        <ele>1030.7</ele>
        <time>2003-04-18T11:25:57Z</time>
      </trkpt>
      <trkpt lat="31.896142959594727" lon="-4.205137034878135">
        <ele>1030</ele>
        <time>2003-04-18T11:26:01Z</time>
      </trkpt>
      <trkpt lat="31.895840037614107" lon="-4.206300023943186">
        <ele>1029.3</ele>
        <time>2003-04-18T11:26:05Z</time>
      </trkpt>
      <trkpt lat="31.895538037642837" lon="-4.207478016614914">
        <ele>1028.5999999999999</ele>
        <time>2003-04-18T11:26:09Z</time>
      </trkpt>
      <trkpt lat="31.895252969115973" lon="-4.208573028445244">
        <ele>1028.2</ele>
        <time>2003-04-18T11:26:13Z</time>
      </trkpt>
      <trkpt lat="31.895078038796782" lon="-4.209236958995462">
        <ele>1028</ele>
        <time>2003-04-18T11:26:16Z</time>
      </trkpt>
      <trkpt lat="31.894885003566742" lon="-4.209992000833154">
        <ele>1028</ele>
        <time>2003-04-18T11:26:20Z</time>
      </trkpt>
      <trkpt lat="31.894762041047215" lon="-4.210462979972363">
        <ele>1028</ele>
        <time>2003-04-18T11:26:24Z</time>
      </trkpt>
      <trkpt lat="31.894476972520351" lon="-4.211554974317551">
        <ele>1027.8</ele>
        <time>2003-04-18T11:26:31Z</time>
      </trkpt>
      <trkpt lat="31.894272034987807" lon="-4.212359972298145">
        <ele>1027.2</ele>
        <time>2003-04-18T11:26:35Z</time>
      </trkpt>
      <trkpt lat="31.893980009481311" lon="-4.213466970250011">
        <ele>1025.7</ele>
        <time>2003-04-18T11:26:40Z</time>
      </trkpt>
      <trkpt lat="31.893682032823563" lon="-4.214631970971823">
        <ele>1024</ele>
        <time>2003-04-18T11:26:44Z</time>
      </trkpt>
      <trkpt lat="31.893360000103712" lon="-4.215867966413498">
        <ele>1020</ele>
        <time>2003-04-18T11:26:50Z</time>
      </trkpt>
      <trkpt lat="31.893003014847636" lon="-4.217109996825457">
        <ele>1021.6</ele>
        <time>2003-04-18T11:26:55Z</time>
      </trkpt>
      <trkpt lat="31.892594983801246" lon="-4.218287989497185">
        <ele>1025.2</ele>
        <time>2003-04-18T11:26:59Z</time>
      </trkpt>
      <trkpt lat="31.892143031582236" lon="-4.219424994662404">
        <ele>1026.9000000000001</ele>
        <time>2003-04-18T11:27:05Z</time>
      </trkpt>
      <trkpt lat="31.891602985560894" lon="-4.220563005656004">
        <ele>1026.5999999999999</ele>
        <time>2003-04-18T11:27:10Z</time>
      </trkpt>
      <trkpt lat="31.891112979501486" lon="-4.221467999741435">
        <ele>1024.8</ele>
        <time>2003-04-18T11:27:14Z</time>
      </trkpt>
      <trkpt lat="31.890569999814034" lon="-4.222367964684963">
        <ele>1023</ele>
        <time>2003-04-18T11:27:18Z</time>
      </trkpt>
      <trkpt lat="31.889991983771324" lon="-4.22326197847724">
        <ele>1020.5</ele>
        <time>2003-04-18T11:27:22Z</time>
      </trkpt>
      <trkpt lat="31.889408016577363" lon="-4.224169990047813">
        <ele>1018.3</ele>
        <time>2003-04-18T11:27:26Z</time>
      </trkpt>
      <trkpt lat="31.888833018019795" lon="-4.225062998011708">
        <ele>1016.1</ele>
        <time>2003-04-18T11:27:30Z</time>
      </trkpt>
      <trkpt lat="31.888261958956718" lon="-4.225943014025688">
        <ele>1014</ele>
        <time>2003-04-18T11:27:34Z</time>
      </trkpt>
      <trkpt lat="31.88768201507628" lon="-4.226839961484075">
        <ele>1012</ele>
        <time>2003-04-18T11:27:37Z</time>
      </trkpt>
      <trkpt lat="31.887084972113371" lon="-4.227743027731776">
        <ele>1011.2</ele>
        <time>2003-04-18T11:27:41Z</time>
      </trkpt>
      <trkpt lat="31.886496981605887" lon="-4.228662019595504">
        <ele>1012.3</ele>
        <time>2003-04-18T11:27:45Z</time>
      </trkpt>
      <trkpt lat="31.885894993320107" lon="-4.229591991752386">
        <ele>1011.9</ele>
        <time>2003-04-18T11:27:49Z</time>
      </trkpt>
      <trkpt lat="31.885283030569553" lon="-4.230532022193074">
        <ele>1011.6</ele>
        <time>2003-04-18T11:27:53Z</time>
      </trkpt>
      <trkpt lat="31.884669978171587" lon="-4.231465011835098">
        <ele>1011.4</ele>
        <time>2003-04-18T11:27:57Z</time>
      </trkpt>
      <trkpt lat="31.884060027077794" lon="-4.232415016740561">
        <ele>1011.6</ele>
        <time>2003-04-18T11:28:01Z</time>
      </trkpt>
      <trkpt lat="31.883457032963634" lon="-4.233326967805624">
        <ele>1012</ele>
        <time>2003-04-18T11:28:05Z</time>
      </trkpt>
      <trkpt lat="31.882782038301229" lon="-4.234352996572852">
        <ele>1013.1</ele>
        <time>2003-04-18T11:28:11Z</time>
      </trkpt>
      <trkpt lat="31.882037976756692" lon="-4.235352035611868">
        <ele>1012.1</ele>
        <time>2003-04-18T11:28:16Z</time>
      </trkpt>
      <trkpt lat="31.881374968215823" lon="-4.236143035814166">
        <ele>1010</ele>
        <time>2003-04-18T11:28:20Z</time>
      </trkpt>
      <trkpt lat="31.880687987431884" lon="-4.236943004652858">
        <ele>1008.3</ele>
        <time>2003-04-18T11:28:24Z</time>
      </trkpt>
      <trkpt lat="31.879988014698029" lon="-4.237756971269846">
        <ele>1006.8</ele>
        <time>2003-04-18T11:28:28Z</time>
      </trkpt>
      <trkpt lat="31.879276977851987" lon="-4.238577978685498">
        <ele>1005.7</ele>
        <time>2003-04-18T11:28:31Z</time>
      </trkpt>
      <trkpt lat="31.878556972369552" lon="-4.239405021071434">
        <ele>1004.6</ele>
        <time>2003-04-18T11:28:35Z</time>
      </trkpt>
      <trkpt lat="31.877851970493793" lon="-4.240229967981577">
        <ele>1003.1</ele>
        <time>2003-04-18T11:28:39Z</time>
      </trkpt>
      <trkpt lat="31.877146968618035" lon="-4.241036977618933">
        <ele>1002.2</ele>
        <time>2003-04-18T11:28:43Z</time>
      </trkpt>
      <trkpt lat="31.876431992277503" lon="-4.241863014176488">
        <ele>1001.1</ele>
        <time>2003-04-18T11:28:47Z</time>
      </trkpt>
      <trkpt lat="31.875707041472197" lon="-4.242691984400153">
        <ele>1000.5</ele>
        <time>2003-04-18T11:28:51Z</time>
      </trkpt>
      <trkpt lat="31.874961974099278" lon="-4.243539981544018">
        <ele>999.10000000000002</ele>
        <time>2003-04-18T11:28:55Z</time>
      </trkpt>
      <trkpt lat="31.874208021908998" lon="-4.244414968416095">
        <ele>997.79999999999995</ele>
        <time>2003-04-18T11:28:59Z</time>
      </trkpt>
      <trkpt lat="31.873443005606532" lon="-4.245307976379991">
        <ele>997.10000000000002</ele>
        <time>2003-04-18T11:29:03Z</time>
      </trkpt>
      <trkpt lat="31.872672960162163" lon="-4.246195033192635">
        <ele>996.5</ele>
        <time>2003-04-18T11:29:07Z</time>
      </trkpt>
      <trkpt lat="31.871901992708445" lon="-4.247102960944176">
        <ele>995.39999999999998</ele>
        <time>2003-04-18T11:29:11Z</time>
      </trkpt>
      <trkpt lat="31.871106969192624" lon="-4.248007033020258">
        <ele>994.60000000000002</ele>
        <time>2003-04-18T11:29:15Z</time>
      </trkpt>
      <trkpt lat="31.870317980647087" lon="-4.248927030712366">
        <ele>994.20000000000005</ele>
        <time>2003-04-18T11:29:20Z</time>
      </trkpt>
      <trkpt lat="31.869526980444789" lon="-4.24983998760581">
        <ele>993.70000000000005</ele>
        <time>2003-04-18T11:29:24Z</time>
      </trkpt>
      <trkpt lat="31.868730029091239" lon="-4.25076199695468">
        <ele>993</ele>
        <time>2003-04-18T11:29:28Z</time>
      </trkpt>
      <trkpt lat="31.867941962555051" lon="-4.251664979383349">
        <ele>992.20000000000005</ele>
        <time>2003-04-18T11:29:32Z</time>
      </trkpt>
      <trkpt lat="31.867184992879629" lon="-4.252554969862104">
        <ele>991.20000000000005</ele>
        <time>2003-04-18T11:29:36Z</time>
      </trkpt>
      <trkpt lat="31.866487031802535" lon="-4.253397015854716">
        <ele>990.60000000000002</ele>
        <time>2003-04-18T11:29:40Z</time>
      </trkpt>
      <trkpt lat="31.86583299189806" lon="-4.254288012161851">
        <ele>990.79999999999995</ele>
        <time>2003-04-18T11:29:44Z</time>
      </trkpt>
      <trkpt lat="31.865263022482395" lon="-4.255182025954127">
        <ele>990.79999999999995</ele>
        <time>2003-04-18T11:29:48Z</time>
      </trkpt>
      <trkpt lat="31.864724988117814" lon="-4.256122978404164">
        <ele>990.60000000000002</ele>
        <time>2003-04-18T11:29:52Z</time>
      </trkpt>
      <trkpt lat="31.864222995936871" lon="-4.257114976644516">
        <ele>989.79999999999995</ele>
        <time>2003-04-18T11:29:56Z</time>
      </trkpt>
      <trkpt lat="31.863761991262436" lon="-4.258136982098222">
        <ele>989.5</ele>
        <time>2003-04-18T11:30:00Z</time>
      </trkpt>
      <trkpt lat="31.863344991579652" lon="-4.259180026128888">
        <ele>988.60000000000002</ele>
        <time>2003-04-18T11:30:04Z</time>
      </trkpt>
      <trkpt lat="31.862981971353292" lon="-4.260232038795948">
        <ele>987</ele>
        <time>2003-04-18T11:30:08Z</time>
      </trkpt>
      <trkpt lat="31.862663039937615" lon="-4.261344987899065">
        <ele>984.70000000000005</ele>
        <time>2003-04-18T11:30:12Z</time>
      </trkpt>
      <trkpt lat="31.862400015816092" lon="-4.262458020821214">
        <ele>982.29999999999995</ele>
        <time>2003-04-18T11:30:16Z</time>
      </trkpt>
      <trkpt lat="31.862204968929291" lon="-4.263505004346371">
        <ele>980.89999999999998</ele>
        <time>2003-04-18T11:30:19Z</time>
      </trkpt>
      <trkpt lat="31.862012017518282" lon="-4.26470504142344">
        <ele>982.10000000000002</ele>
        <time>2003-04-18T11:30:24Z</time>
      </trkpt>
      <trkpt lat="31.861825017258525" lon="-4.265804998576641">
        <ele>981.70000000000005</ele>
        <time>2003-04-18T11:30:30Z</time>
      </trkpt>
      <trkpt lat="31.861638016998768" lon="-4.266930017620325">
        <ele>980.79999999999995</ele>
        <time>2003-04-18T11:30:35Z</time>
      </trkpt>
      <trkpt lat="31.861444981768727" lon="-4.268055036664009">
        <ele>979.79999999999995</ele>
        <time>2003-04-18T11:30:39Z</time>
      </trkpt>
      <trkpt lat="31.861267033964396" lon="-4.269147031009197">
        <ele>979</ele>
        <time>2003-04-18T11:30:45Z</time>
      </trkpt>
      <trkpt lat="31.861072992905974" lon="-4.27035503089428">
        <ele>979.79999999999995</ele>
        <time>2003-04-18T11:30:50Z</time>
      </trkpt>
      <trkpt lat="31.86102001927793" lon="-4.27065996453166">
        <ele>980</ele>
        <time>2003-04-18T11:30:53Z</time>
      </trkpt>
      <trkpt lat="31.860830001533031" lon="-4.271727986633778">
        <ele>980</ele>
        <time>2003-04-18T11:30:59Z</time>
      </trkpt>
      <trkpt lat="31.860702009871602" lon="-4.272613031789661">
        <ele>979.89999999999998</ele>
        <time>2003-04-18T11:31:05Z</time>
      </trkpt>
      <trkpt lat="31.860626991838217" lon="-4.273675018921495">
        <ele>979.79999999999995</ele>
        <time>2003-04-18T11:31:10Z</time>
      </trkpt>
      <trkpt lat="31.860645012930036" lon="-4.274800037965179">
        <ele>980</ele>
        <time>2003-04-18T11:31:14Z</time>
      </trkpt>
      <trkpt lat="31.860763030126691" lon="-4.275971995666623">
        <ele>980.20000000000005</ele>
        <time>2003-04-18T11:31:20Z</time>
      </trkpt>
      <trkpt lat="31.860996969044209" lon="-4.277138002216816">
        <ele>981.10000000000002</ele>
        <time>2003-04-18T11:31:25Z</time>
      </trkpt>
      <trkpt lat="31.861359989270568" lon="-4.278314989060164">
        <ele>982.29999999999995</ele>
        <time>2003-04-18T11:31:29Z</time>
      </trkpt>
      <trkpt lat="31.861767014488578" lon="-4.27946699783206">
        <ele>983.10000000000002</ele>
        <time>2003-04-18T11:31:35Z</time>
      </trkpt>
      <trkpt lat="31.862188037484884" lon="-4.280682038515806">
        <ele>983.60000000000002</ele>
        <time>2003-04-18T11:31:40Z</time>
      </trkpt>
      <trkpt lat="31.862600008025765" lon="-4.281858019530773">
        <ele>983.5</ele>
        <time>2003-04-18T11:31:45Z</time>
      </trkpt>
      <trkpt lat="31.862982977181673" lon="-4.28301296196878">
        <ele>985.89999999999998</ele>
        <time>2003-04-18T11:31:51Z</time>
      </trkpt>
      <trkpt lat="31.863356977701187" lon="-4.284002026543021">
        <ele>987.10000000000002</ele>
        <time>2003-04-18T11:31:55Z</time>
      </trkpt>
      <trkpt lat="31.863732989877462" lon="-4.285029983147979">
        <ele>988.20000000000005</ele>
        <time>2003-04-18T11:31:59Z</time>
      </trkpt>
      <trkpt lat="31.864202041178942" lon="-4.286070009693503">
        <ele>989</ele>
        <time>2003-04-18T11:32:02Z</time>
      </trkpt>
      <trkpt lat="31.864728005602956" lon="-4.287101989611983">
        <ele>990.10000000000002</ele>
        <time>2003-04-18T11:32:06Z</time>
      </trkpt>
      <trkpt lat="31.865308033302426" lon="-4.28810496814549">
        <ele>991.20000000000005</ele>
        <time>2003-04-18T11:32:10Z</time>
      </trkpt>
      <trkpt lat="31.865938017144799" lon="-4.289077017456293">
        <ele>991.79999999999995</ele>
        <time>2003-04-18T11:32:14Z</time>
      </trkpt>
      <trkpt lat="31.86656498350203" lon="-4.290044959634543">
        <ele>992.60000000000002</ele>
        <time>2003-04-18T11:32:18Z</time>
      </trkpt>
      <trkpt lat="31.867173006758094" lon="-4.290996976196766">
        <ele>993.20000000000005</ele>
        <time>2003-04-18T11:32:23Z</time>
      </trkpt>
      <trkpt lat="31.867777006700635" lon="-4.291938012465835">
        <ele>993.20000000000005</ele>
        <time>2003-04-18T11:32:27Z</time>
      </trkpt>
      <trkpt lat="31.86834798194468" lon="-4.292843006551266">
        <ele>993.39999999999998</ele>
        <time>2003-04-18T11:32:31Z</time>
      </trkpt>
      <trkpt lat="31.868964973837137" lon="-4.293761998414993">
        <ele>993.79999999999995</ele>
        <time>2003-04-18T11:32:34Z</time>
      </trkpt>
      <trkpt lat="31.869566962122917" lon="-4.29467998445034">
        <ele>993.20000000000005</ele>
        <time>2003-04-18T11:32:38Z</time>
      </trkpt>
      <trkpt lat="31.87010801397264" lon="-4.295533010736108">
        <ele>993.60000000000002</ele>
        <time>2003-04-18T11:32:42Z</time>
      </trkpt>
      <trkpt lat="31.870692986994982" lon="-4.296446973457933">
        <ele>996</ele>
        <time>2003-04-18T11:32:47Z</time>
      </trkpt>
      <trkpt lat="31.870849980041385" lon="-4.29669801145792">
        <ele>996.20000000000005</ele>
        <time>2003-04-18T11:32:50Z</time>
      </trkpt>
      <trkpt lat="31.870912006124854" lon="-4.296792978420854">
        <ele>996.29999999999995</ele>
        <time>2003-04-18T11:32:50Z</time>
      </trkpt>
      <trkpt lat="31.871464960277081" lon="-4.297627983614802">
        <ele>996.20000000000005</ele>
        <time>2003-04-18T11:32:58Z</time>
      </trkpt>
      <trkpt lat="31.871780036017299" lon="-4.298126958310604">
        <ele>995.10000000000002</ele>
        <time>2003-04-18T11:33:01Z</time>
      </trkpt>
      <trkpt lat="31.872368026524782" lon="-4.299047961831093">
        <ele>994.20000000000005</ele>
        <time>2003-04-18T11:33:05Z</time>
      </trkpt>
      <trkpt lat="31.873017037287354" lon="-4.300047000870109">
        <ele>992.70000000000005</ele>
        <time>2003-04-18T11:33:10Z</time>
      </trkpt>
      <trkpt lat="31.873572003096342" lon="-4.300904972478747">
        <ele>992.29999999999995</ele>
        <time>2003-04-18T11:33:14Z</time>
      </trkpt>
      <trkpt lat="31.874129986390471" lon="-4.301788005977869">
        <ele>993.20000000000005</ele>
        <time>2003-04-18T11:33:18Z</time>
      </trkpt>
      <trkpt lat="31.87477296218276" lon="-4.302800036966801">
        <ele>993.5</ele>
        <time>2003-04-18T11:33:24Z</time>
      </trkpt>
      <trkpt lat="31.875364976003766" lon="-4.303602017462254">
        <ele>992.39999999999998</ele>
        <time>2003-04-18T11:33:28Z</time>
      </trkpt>
      <trkpt lat="31.876018010079861" lon="-4.304456971585751">
        <ele>990.60000000000002</ele>
        <time>2003-04-18T11:33:32Z</time>
      </trkpt>
      <trkpt lat="31.876683030277491" lon="-4.305352997034788">
        <ele>989.70000000000005</ele>
        <time>2003-04-18T11:33:36Z</time>
      </trkpt>
      <trkpt lat="31.877346960827708" lon="-4.306250028312206">
        <ele>990.10000000000002</ele>
        <time>2003-04-18T11:33:40Z</time>
      </trkpt>
      <trkpt lat="31.877997983247042" lon="-4.307128032669425">
        <ele>990.60000000000002</ele>
        <time>2003-04-18T11:33:44Z</time>
      </trkpt>
      <trkpt lat="31.87863701954484" lon="-4.307990027591586">
        <ele>990.29999999999995</ele>
        <time>2003-04-18T11:33:48Z</time>
      </trkpt>
      <trkpt lat="31.879273038357496" lon="-4.308856967836618">
        <ele>990.70000000000005</ele>
        <time>2003-04-18T11:33:52Z</time>
      </trkpt>
      <trkpt lat="31.879888018593192" lon="-4.309685016050935">
        <ele>992.10000000000002</ele>
        <time>2003-04-18T11:33:55Z</time>
      </trkpt>
      <trkpt lat="31.880495036020875" lon="-4.310512980446219">
        <ele>993</ele>
        <time>2003-04-18T11:33:59Z</time>
      </trkpt>
      <trkpt lat="31.881102975457907" lon="-4.311367012560368">
        <ele>993.70000000000005</ele>
        <time>2003-04-18T11:34:03Z</time>
      </trkpt>
      <trkpt lat="31.881751986220479" lon="-4.31218801997602">
        <ele>994.60000000000002</ele>
        <time>2003-04-18T11:34:07Z</time>
      </trkpt>
      <trkpt lat="31.882381970062852" lon="-4.313029982149601">
        <ele>995.20000000000005</ele>
        <time>2003-04-18T11:34:11Z</time>
      </trkpt>
      <trkpt lat="31.883002985268831" lon="-4.313862975686789">
        <ele>994.20000000000005</ele>
        <time>2003-04-18T11:34:15Z</time>
      </trkpt>
      <trkpt lat="31.883734976872802" lon="-4.314857991412282">
        <ele>995.29999999999995</ele>
        <time>2003-04-18T11:34:21Z</time>
      </trkpt>
      <trkpt lat="31.884427992627025" lon="-4.31579701602459">
        <ele>995.60000000000002</ele>
        <time>2003-04-18T11:34:26Z</time>
      </trkpt>
      <trkpt lat="31.885065017268062" lon="-4.316666973754764">
        <ele>996.20000000000005</ele>
        <time>2003-04-18T11:34:30Z</time>
      </trkpt>
      <trkpt lat="31.885757027193904" lon="-4.317598035559058">
        <ele>996.89999999999998</ele>
        <time>2003-04-18T11:34:37Z</time>
      </trkpt>
      <trkpt lat="31.886422969400883" lon="-4.318491965532303">
        <ele>996.79999999999995</ele>
        <time>2003-04-18T11:34:42Z</time>
      </trkpt>
      <trkpt lat="31.887077009305358" lon="-4.31936502456665">
        <ele>996.89999999999998</ele>
        <time>2003-04-18T11:34:49Z</time>
      </trkpt>
      <trkpt lat="31.887712022289634" lon="-4.320227019488812">
        <ele>997</ele>
        <time>2003-04-18T11:34:54Z</time>
      </trkpt>
      <trkpt lat="31.888345023617148" lon="-4.321093037724495">
        <ele>998.10000000000002</ele>
        <time>2003-04-18T11:35:01Z</time>
      </trkpt>
      <trkpt lat="31.88892999663949" lon="-4.321899963542819">
        <ele>998.29999999999995</ele>
        <time>2003-04-18T11:35:06Z</time>
      </trkpt>
      <trkpt lat="31.889519998803735" lon="-4.322721976786852">
        <ele>998.29999999999995</ele>
        <time>2003-04-18T11:35:13Z</time>
      </trkpt>
      <trkpt lat="31.890168003737926" lon="-4.323569973930717">
        <ele>998.70000000000005</ele>
        <time>2003-04-18T11:35:19Z</time>
      </trkpt>
      <trkpt lat="31.890784995630383" lon="-4.324428029358387">
        <ele>999.5</ele>
        <time>2003-04-18T11:35:24Z</time>
      </trkpt>
      <trkpt lat="31.891442975029349" lon="-4.325303016230464">
        <ele>999.89999999999998</ele>
        <time>2003-04-18T11:35:31Z</time>
      </trkpt>
      <trkpt lat="31.892085028812289" lon="-4.32619996368885">
        <ele>1000.4</ele>
        <time>2003-04-18T11:35:36Z</time>
      </trkpt>
      <trkpt lat="31.892757005989552" lon="-4.32710001245141">
        <ele>1001.1</ele>
        <time>2003-04-18T11:35:43Z</time>
      </trkpt>
      <trkpt lat="31.893412973731756" lon="-4.327984973788261">
        <ele>1001.3</ele>
        <time>2003-04-18T11:35:48Z</time>
      </trkpt>
      <trkpt lat="31.89406500197947" lon="-4.328868007287383">
        <ele>1001.8</ele>
        <time>2003-04-18T11:35:55Z</time>
      </trkpt>
      <trkpt lat="31.894436990842223" lon="-4.329366981983185">
        <ele>1002.1</ele>
        <time>2003-04-18T11:35:59Z</time>
      </trkpt>
      <trkpt lat="31.894664978608489" lon="-4.329666970297694">
        <ele>1002</ele>
        <time>2003-04-18T11:36:02Z</time>
      </trkpt>
      <trkpt lat="31.894787019118667" lon="-4.329824969172478">
        <ele>1001.9</ele>
        <time>2003-04-18T11:36:03Z</time>
      </trkpt>
      <trkpt lat="31.894939988851547" lon="-4.330029990524054">
        <ele>1001.8</ele>
        <time>2003-04-18T11:36:07Z</time>
      </trkpt>
      <trkpt lat="31.895020036026835" lon="-4.330127974972129">
        <ele>1002</ele>
        <time>2003-04-18T11:36:09Z</time>
      </trkpt>
      <trkpt lat="31.895092036575079" lon="-4.330216990783811">
        <ele>1001.8</ele>
        <time>2003-04-18T11:36:11Z</time>
      </trkpt>
      <trkpt lat="31.895179962739348" lon="-4.330299971625209">
        <ele>1001.8</ele>
        <time>2003-04-18T11:36:15Z</time>
      </trkpt>
      <trkpt lat="31.895262021571398" lon="-4.330389993265271">
        <ele>1002.1</ele>
        <time>2003-04-18T11:36:19Z</time>
      </trkpt>
      <trkpt lat="31.895314995199442" lon="-4.330498035997152">
        <ele>1003</ele>
        <time>2003-04-18T11:41:37Z</time>
      </trkpt>
      <trkpt lat="31.895363023504615" lon="-4.330629967153072">
        <ele>1003.3</ele>
        <time>2003-04-18T11:41:38Z</time>
      </trkpt>
      <trkpt lat="31.895450027659535" lon="-4.330768017098308">
        <ele>1003.4</ele>
        <time>2003-04-18T11:41:41Z</time>
      </trkpt>
      <trkpt lat="31.895556980744004" lon="-4.330927021801472">
        <ele>1003.4</ele>
        <time>2003-04-18T11:41:42Z</time>
      </trkpt>
      <trkpt lat="31.895701987668872" lon="-4.331115027889609">
        <ele>1003.2</ele>
        <time>2003-04-18T11:41:45Z</time>
      </trkpt>
      <trkpt lat="31.895946990698576" lon="-4.331466984003782">
        <ele>1003.5</ele>
        <time>2003-04-18T11:41:47Z</time>
      </trkpt>
      <trkpt lat="31.896337000653148" lon="-4.33212798088789">
        <ele>1004.1</ele>
        <time>2003-04-18T11:41:53Z</time>
      </trkpt>
      <trkpt lat="31.896776966750622" lon="-4.333091983571649">
        <ele>1004.8</ele>
        <time>2003-04-18T11:41:58Z</time>
      </trkpt>
      <trkpt lat="31.897278036922216" lon="-4.334154976531863">
        <ele>1005.5</ele>
        <time>2003-04-18T11:42:05Z</time>
      </trkpt>
      <trkpt lat="31.897729989141226" lon="-4.33509198948741">
        <ele>1005.5</ele>
        <time>2003-04-18T11:42:09Z</time>
      </trkpt>
      <trkpt lat="31.89818998798728" lon="-4.336066972464323">
        <ele>1005.6</ele>
        <time>2003-04-18T11:42:14Z</time>
      </trkpt>
      <trkpt lat="31.898525012657046" lon="-4.336898038163781">
        <ele>1006.8</ele>
        <time>2003-04-18T11:42:18Z</time>
      </trkpt>
      <trkpt lat="31.898803040385246" lon="-4.337992966175079">
        <ele>1008.7</ele>
        <time>2003-04-18T11:42:24Z</time>
      </trkpt>
      <trkpt lat="31.899076960980892" lon="-4.339104993268848">
        <ele>1010.5</ele>
        <time>2003-04-18T11:42:28Z</time>
      </trkpt>
      <trkpt lat="31.899358006194234" lon="-4.340245015919209">
        <ele>1011.6</ele>
        <time>2003-04-18T11:42:33Z</time>
      </trkpt>
      <trkpt lat="31.899637039750814" lon="-4.34140800498426">
        <ele>1013</ele>
        <time>2003-04-18T11:42:39Z</time>
      </trkpt>
      <trkpt lat="31.899931998923421" lon="-4.342599995434284">
        <ele>1013.6</ele>
        <time>2003-04-18T11:42:44Z</time>
      </trkpt>
      <trkpt lat="31.900241961702704" lon="-4.343807995319367">
        <ele>1013.7</ele>
        <time>2003-04-18T11:42:48Z</time>
      </trkpt>
      <trkpt lat="31.90061504021287" lon="-4.344996968284249">
        <ele>1014</ele>
        <time>2003-04-18T11:42:54Z</time>
      </trkpt>
      <trkpt lat="31.901052994653583" lon="-4.346147971227765">
        <ele>1014.8</ele>
        <time>2003-04-18T11:42:59Z</time>
      </trkpt>
      <trkpt lat="31.901547024026513" lon="-4.347257986664772">
        <ele>1016</ele>
        <time>2003-04-18T11:43:03Z</time>
      </trkpt>
      <trkpt lat="31.902093021199107" lon="-4.348340006545186">
        <ele>1016.9</ele>
        <time>2003-04-18T11:43:08Z</time>
      </trkpt>
      <trkpt lat="31.902706995606422" lon="-4.349399982020259">
        <ele>1017.6</ele>
        <time>2003-04-18T11:43:14Z</time>
      </trkpt>
      <trkpt lat="31.903349971398711" lon="-4.350449983030558">
        <ele>1017.5</ele>
        <time>2003-04-18T11:43:19Z</time>
      </trkpt>
      <trkpt lat="31.90401297993958" lon="-4.351496966555715">
        <ele>1017.8</ele>
        <time>2003-04-18T11:43:23Z</time>
      </trkpt>
      <trkpt lat="31.904670037329197" lon="-4.352549985051155">
        <ele>1018.5</ele>
        <time>2003-04-18T11:43:29Z</time>
      </trkpt>
      <trkpt lat="31.905330028384924" lon="-4.353611972182989">
        <ele>1018.4</ele>
        <time>2003-04-18T11:43:34Z</time>
      </trkpt>
      <trkpt lat="31.905866973102093" lon="-4.35447002761066">
        <ele>1018.9</ele>
        <time>2003-04-18T11:43:38Z</time>
      </trkpt>
      <trkpt lat="31.90641799941659" lon="-4.355345014482737">
        <ele>1017.7</ele>
        <time>2003-04-18T11:43:42Z</time>
      </trkpt>
      <trkpt lat="31.906970031559467" lon="-4.356246991083026">
        <ele>1018.1</ele>
        <time>2003-04-18T11:43:46Z</time>
      </trkpt>
      <trkpt lat="31.907527009025216" lon="-4.357137987390161">
        <ele>1018.1</ele>
        <time>2003-04-18T11:43:50Z</time>
      </trkpt>
      <trkpt lat="31.908077029511333" lon="-4.358033007010818">
        <ele>1019.3</ele>
        <time>2003-04-18T11:43:54Z</time>
      </trkpt>
      <trkpt lat="31.908714976161718" lon="-4.359072027727962">
        <ele>1021.2</ele>
        <time>2003-04-18T11:44:00Z</time>
      </trkpt>
      <trkpt lat="31.909321993589401" lon="-4.360039969906211">
        <ele>1021.8</ele>
        <time>2003-04-18T11:44:05Z</time>
      </trkpt>
      <trkpt lat="31.909918030723929" lon="-4.360987041145563">
        <ele>1022.6</ele>
        <time>2003-04-18T11:44:09Z</time>
      </trkpt>
      <trkpt lat="31.910526975989342" lon="-4.3619470205158">
        <ele>1023</ele>
        <time>2003-04-18T11:44:15Z</time>
      </trkpt>
      <trkpt lat="31.911171963438392" lon="-4.362955028191209">
        <ele>1022.6</ele>
        <time>2003-04-18T11:44:20Z</time>
      </trkpt>
      <trkpt lat="31.91185500472784" lon="-4.363988013938069">
        <ele>1022.5</ele>
        <time>2003-04-18T11:44:24Z</time>
      </trkpt>
      <trkpt lat="31.912407036870718" lon="-4.364827964454889">
        <ele>1020.9</ele>
        <time>2003-04-18T11:44:28Z</time>
      </trkpt>
      <trkpt lat="31.913086976855993" lon="-4.365870002657175">
        <ele>1022.2</ele>
        <time>2003-04-18T11:44:33Z</time>
      </trkpt>
      <trkpt lat="31.91372299566865" lon="-4.366853032261133">
        <ele>1022.7</ele>
        <time>2003-04-18T11:44:39Z</time>
      </trkpt>
      <trkpt lat="31.914358008652925" lon="-4.36779297888279">
        <ele>1023.5</ele>
        <time>2003-04-18T11:44:43Z</time>
      </trkpt>
      <trkpt lat="31.914963014423847" lon="-4.368718005716801">
        <ele>1024.5</ele>
        <time>2003-04-18T11:44:48Z</time>
      </trkpt>
      <trkpt lat="31.915597021579742" lon="-4.369664993137121">
        <ele>1025.0999999999999</ele>
        <time>2003-04-18T11:44:54Z</time>
      </trkpt>
      <trkpt lat="31.916230022907257" lon="-4.370632013306022">
        <ele>1025.3</ele>
        <time>2003-04-18T11:44:59Z</time>
      </trkpt>
      <trkpt lat="31.91688003949821" lon="-4.371616970747709">
        <ele>1025.0999999999999</ele>
        <time>2003-04-18T11:45:03Z</time>
      </trkpt>
      <trkpt lat="31.917532989755273" lon="-4.372602012008429">
        <ele>1025.8</ele>
        <time>2003-04-18T11:45:09Z</time>
      </trkpt>
      <trkpt lat="31.918198009952903" lon="-4.373602978885174">
        <ele>1025.9000000000001</ele>
        <time>2003-04-18T11:45:14Z</time>
      </trkpt>
      <trkpt lat="31.918875016272068" lon="-4.374628001824021">
        <ele>1025.9000000000001</ele>
        <time>2003-04-18T11:45:18Z</time>
      </trkpt>
      <trkpt lat="31.919552022591233" lon="-4.375670040026307">
        <ele>1026.3</ele>
        <time>2003-04-18T11:45:23Z</time>
      </trkpt>
      <trkpt lat="31.920231962576509" lon="-4.376691961660981">
        <ele>1028.0999999999999</ele>
        <time>2003-04-18T11:45:29Z</time>
      </trkpt>
      <trkpt lat="31.92087703384459" lon="-4.377687983214855">
        <ele>1031.4000000000001</ele>
        <time>2003-04-18T11:45:34Z</time>
      </trkpt>
      <trkpt lat="31.92154498770833" lon="-4.378672018647194">
        <ele>1033.2</ele>
        <time>2003-04-18T11:45:38Z</time>
      </trkpt>
      <trkpt lat="31.922198021784425" lon="-4.379665022715926">
        <ele>1033.5999999999999</ele>
        <time>2003-04-18T11:45:44Z</time>
      </trkpt>
      <trkpt lat="31.922845020890236" lon="-4.380657020956278">
        <ele>1035.4000000000001</ele>
        <time>2003-04-18T11:45:49Z</time>
      </trkpt>
      <trkpt lat="31.923492019996047" lon="-4.381618006154895">
        <ele>1035.9000000000001</ele>
        <time>2003-04-18T11:45:53Z</time>
      </trkpt>
      <trkpt lat="31.924108006060123" lon="-4.382549989968538">
        <ele>1035.9000000000001</ele>
        <time>2003-04-18T11:45:59Z</time>
      </trkpt>
      <trkpt lat="31.924734972417355" lon="-4.383535031229258">
        <ele>1036.5999999999999</ele>
        <time>2003-04-18T11:46:04Z</time>
      </trkpt>
      <trkpt lat="31.925408039242029" lon="-4.384525017812848">
        <ele>1037.3</ele>
        <time>2003-04-18T11:46:11Z</time>
      </trkpt>
      <trkpt lat="31.926050009205937" lon="-4.385463036596775">
        <ele>1037.7</ele>
        <time>2003-04-18T11:46:16Z</time>
      </trkpt>
      <trkpt lat="31.926612015813589" lon="-4.38635503873229">
        <ele>1038</ele>
        <time>2003-04-18T11:46:21Z</time>
      </trkpt>
      <trkpt lat="31.927294973284006" lon="-4.387334967032075">
        <ele>1037.3</ele>
        <time>2003-04-18T11:46:27Z</time>
      </trkpt>
      <trkpt lat="31.927977008745074" lon="-4.388357978314161">
        <ele>1036.8</ele>
        <time>2003-04-18T11:46:31Z</time>
      </trkpt>
      <trkpt lat="31.928582014515996" lon="-4.389303037896752">
        <ele>1035.2</ele>
        <time>2003-04-18T11:46:36Z</time>
      </trkpt>
      <trkpt lat="31.929242005571723" lon="-4.390284977853298">
        <ele>1033</ele>
        <time>2003-04-18T11:46:42Z</time>
      </trkpt>
      <trkpt lat="31.929923035204411" lon="-4.391307989135385">
        <ele>1032.9000000000001</ele>
        <time>2003-04-18T11:46:47Z</time>
      </trkpt>
      <trkpt lat="31.930601969361305" lon="-4.392293030396104">
        <ele>1034.2</ele>
        <time>2003-04-18T11:46:51Z</time>
      </trkpt>
      <trkpt lat="31.931177973747253" lon="-4.393213028088212">
        <ele>1035.8</ele>
        <time>2003-04-18T11:46:57Z</time>
      </trkpt>
      <trkpt lat="31.93172799423337" lon="-4.394124979153276">
        <ele>1036.3</ele>
        <time>2003-04-18T11:47:02Z</time>
      </trkpt>
      <trkpt lat="31.932047009468079" lon="-4.39490701071918">
        <ele>1036.3</ele>
        <time>2003-04-18T11:47:06Z</time>
      </trkpt>
      <trkpt lat="31.932397037744522" lon="-4.395896997302771">
        <ele>1036.9000000000001</ele>
        <time>2003-04-18T11:47:10Z</time>
      </trkpt>
      <trkpt lat="31.932768020778894" lon="-4.397005001083016">
        <ele>1037.5</ele>
        <time>2003-04-18T11:47:17Z</time>
      </trkpt>
      <trkpt lat="31.93314797244966" lon="-4.398082997649908">
        <ele>1036.9000000000001</ele>
        <time>2003-04-18T11:47:22Z</time>
      </trkpt>
      <trkpt lat="31.933303037658334" lon="-4.398542996495962">
        <ele>1037.2</ele>
        <time>2003-04-18T11:47:25Z</time>
      </trkpt>
      <trkpt lat="31.933376966044307" lon="-4.398756986483932">
        <ele>1037.3</ele>
        <time>2003-04-18T11:47:28Z</time>
      </trkpt>
      <trkpt lat="31.933415019884706" lon="-4.398869974538684">
        <ele>1037.3</ele>
        <time>2003-04-18T11:47:30Z</time>
      </trkpt>
      <trkpt lat="31.933443015441298" lon="-4.398984974250197">
        <ele>1037.0999999999999</ele>
        <time>2003-04-18T11:47:33Z</time>
      </trkpt>
      <trkpt lat="31.933494983240962" lon="-4.399163005873561">
        <ele>1036.5</ele>
        <time>2003-04-18T11:47:34Z</time>
      </trkpt>
      <trkpt lat="31.933573018759489" lon="-4.399382025003433">
        <ele>1036.3</ele>
        <time>2003-04-18T11:47:37Z</time>
      </trkpt>
      <trkpt lat="31.933666979894042" lon="-4.39963499084115">
        <ele>1036.5</ele>
        <time>2003-04-18T11:47:38Z</time>
      </trkpt>
      <trkpt lat="31.933956993743777" lon="-4.400328006595373">
        <ele>1037.8</ele>
        <time>2003-04-18T11:47:44Z</time>
      </trkpt>
      <trkpt lat="31.934105018153787" lon="-4.400639981031418">
        <ele>1038.2</ele>
        <time>2003-04-18T11:47:45Z</time>
      </trkpt>
      <trkpt lat="31.934676999226213" lon="-4.401599960401654">
        <ele>1038.8</ele>
        <time>2003-04-18T11:47:52Z</time>
      </trkpt>
      <trkpt lat="31.934917978942394" lon="-4.401944959536195">
        <ele>1039.2</ele>
        <time>2003-04-18T11:47:55Z</time>
      </trkpt>
      <trkpt lat="31.935008000582457" lon="-4.402076974511147">
        <ele>1039.3</ele>
        <time>2003-04-18T11:47:56Z</time>
      </trkpt>
      <trkpt lat="31.935062985867262" lon="-4.402219969779253">
        <ele>1039.3</ele>
        <time>2003-04-18T11:47:59Z</time>
      </trkpt>
      <trkpt lat="31.93512199446559" lon="-4.402307979762554">
        <ele>1039.2</ele>
        <time>2003-04-18T11:48:00Z</time>
      </trkpt>
      <trkpt lat="31.935259960591793" lon="-4.40249296836555">
        <ele>1039.3</ele>
        <time>2003-04-18T11:48:01Z</time>
      </trkpt>
      <trkpt lat="31.93553295917809" lon="-4.402922037988901">
        <ele>1038.4000000000001</ele>
        <time>2003-04-18T11:48:05Z</time>
      </trkpt>
      <trkpt lat="31.936078034341335" lon="-4.403801970183849">
        <ele>1039.2</ele>
        <time>2003-04-18T11:48:12Z</time>
      </trkpt>
      <trkpt lat="31.936516994610429" lon="-4.404487023130059">
        <ele>1041.3</ele>
        <time>2003-04-18T11:48:19Z</time>
      </trkpt>
      <trkpt lat="31.936620008200407" lon="-4.404662037268281">
        <ele>1041.7</ele>
        <time>2003-04-18T11:48:20Z</time>
      </trkpt>
      <trkpt lat="31.936823017895222" lon="-4.404967976734042">
        <ele>1041.7</ele>
        <time>2003-04-18T11:48:24Z</time>
      </trkpt>
      <trkpt lat="31.937059974297881" lon="-4.405299983918667">
        <ele>1041.5999999999999</ele>
        <time>2003-04-18T11:48:28Z</time>
      </trkpt>
      <trkpt lat="31.937492983415723" lon="-4.405786972492933">
        <ele>1041.5</ele>
        <time>2003-04-18T11:48:35Z</time>
      </trkpt>
      <trkpt lat="31.938248025253415" lon="-4.406437994912267">
        <ele>1041.9000000000001</ele>
        <time>2003-04-18T11:48:43Z</time>
      </trkpt>
      <trkpt lat="31.939022010192275" lon="-4.40708801150322">
        <ele>1042.5999999999999</ele>
        <time>2003-04-18T11:48:50Z</time>
      </trkpt>
      <trkpt lat="31.93952701985836" lon="-4.407554967328906">
        <ele>1042.9000000000001</ele>
        <time>2003-04-18T11:48:55Z</time>
      </trkpt>
      <trkpt lat="31.940292036160827" lon="-4.408142035827041">
        <ele>1043.5</ele>
        <time>2003-04-18T11:49:02Z</time>
      </trkpt>
      <trkpt lat="31.941022016108036" lon="-4.408828010782599">
        <ele>1043.8</ele>
        <time>2003-04-18T11:49:10Z</time>
      </trkpt>
      <trkpt lat="31.94118001498282" lon="-4.409051975235343">
        <ele>1044</ele>
        <time>2003-04-18T11:49:13Z</time>
      </trkpt>
      <trkpt lat="31.941442033275962" lon="-4.409601995721459">
        <ele>1044.0999999999999</ele>
        <time>2003-04-18T11:49:17Z</time>
      </trkpt>
      <trkpt lat="31.941636996343732" lon="-4.410257041454315">
        <ele>1043.9000000000001</ele>
        <time>2003-04-18T11:49:21Z</time>
      </trkpt>
      <trkpt lat="31.941685024648905" lon="-4.410594999790192">
        <ele>1044.0999999999999</ele>
        <time>2003-04-18T11:49:22Z</time>
      </trkpt>
      <trkpt lat="31.941698016598821" lon="-4.411092968657613">
        <ele>1044</ele>
        <time>2003-04-18T11:49:25Z</time>
      </trkpt>
      <trkpt lat="31.941644959151745" lon="-4.411590015515685">
        <ele>1043.9000000000001</ele>
        <time>2003-04-18T11:49:29Z</time>
      </trkpt>
      <trkpt lat="31.941359974443913" lon="-4.412736995145679">
        <ele>1043.3</ele>
        <time>2003-04-18T11:49:36Z</time>
      </trkpt>
      <trkpt lat="31.941080018877983" lon="-4.413777021691203">
        <ele>1043.5</ele>
        <time>2003-04-18T11:49:43Z</time>
      </trkpt>
      <trkpt lat="31.940795034170151" lon="-4.414838002994657">
        <ele>1043.4000000000001</ele>
        <time>2003-04-18T11:49:51Z</time>
      </trkpt>
      <trkpt lat="31.940505020320415" lon="-4.415912982076407">
        <ele>1042.8</ele>
        <time>2003-04-18T11:49:57Z</time>
      </trkpt>
      <trkpt lat="31.940227998420596" lon="-4.416921995580196">
        <ele>1042.4000000000001</ele>
        <time>2003-04-18T11:50:04Z</time>
      </trkpt>
      <trkpt lat="31.939943013712764" lon="-4.417969984933734">
        <ele>1041.5999999999999</ele>
        <time>2003-04-18T11:50:12Z</time>
      </trkpt>
      <trkpt lat="31.939749978482723" lon="-4.418507013469935">
        <ele>1041.0999999999999</ele>
        <time>2003-04-18T11:50:16Z</time>
      </trkpt>
      <trkpt lat="31.939676972106099" lon="-4.4186279643327">
        <ele>1040.9000000000001</ele>
        <time>2003-04-18T11:50:18Z</time>
      </trkpt>
      <trkpt lat="31.939417971298099" lon="-4.418976986780763">
        <ele>1040.2</ele>
        <time>2003-04-18T11:50:20Z</time>
      </trkpt>
      <trkpt lat="31.938746999949217" lon="-4.419747032225132">
        <ele>1040.2</ele>
        <time>2003-04-18T11:50:27Z</time>
      </trkpt>
      <trkpt lat="31.938021965324879" lon="-4.420542977750301">
        <ele>1040.5</ele>
        <time>2003-04-18T11:50:34Z</time>
      </trkpt>
      <trkpt lat="31.937307994812727" lon="-4.421342024579644">
        <ele>1040.2</ele>
        <time>2003-04-18T11:50:42Z</time>
      </trkpt>
      <trkpt lat="31.936608022078872" lon="-4.422067981213331">
        <ele>1042.3</ele>
        <time>2003-04-18T11:50:49Z</time>
      </trkpt>
      <trkpt lat="31.9363699760288" lon="-4.422227991744876">
        <ele>1043.5</ele>
        <time>2003-04-18T11:50:50Z</time>
      </trkpt>
      <trkpt lat="31.93613201379776" lon="-4.422327987849712">
        <ele>1044.5</ele>
        <time>2003-04-18T11:50:53Z</time>
      </trkpt>
      <trkpt lat="31.935911988839507" lon="-4.422378027811647">
        <ele>1044.5</ele>
        <time>2003-04-18T11:50:54Z</time>
      </trkpt>
      <trkpt lat="31.934944968670607" lon="-4.422616995871067">
        <ele>1045.8</ele>
        <time>2003-04-18T11:51:04Z</time>
      </trkpt>
      <trkpt lat="31.933994963765144" lon="-4.422857975587249">
        <ele>1045.9000000000001</ele>
        <time>2003-04-18T11:51:12Z</time>
      </trkpt>
      <trkpt lat="31.9334049616009" lon="-4.423056961968541">
        <ele>1046.5999999999999</ele>
        <time>2003-04-18T11:51:17Z</time>
      </trkpt>
      <trkpt lat="31.933200024068356" lon="-4.423193000257015">
        <ele>1047.0999999999999</ele>
        <time>2003-04-18T11:51:18Z</time>
      </trkpt>
      <trkpt lat="31.932774977758527" lon="-4.423562977463007">
        <ele>1048.3</ele>
        <time>2003-04-18T11:51:24Z</time>
      </trkpt>
      <trkpt lat="31.932656960561872" lon="-4.423685017973185">
        <ele>1048.5999999999999</ele>
        <time>2003-04-18T11:51:25Z</time>
      </trkpt>
      <trkpt lat="31.932574985548854" lon="-4.423773027956486">
        <ele>1048.8</ele>
        <time>2003-04-18T11:51:28Z</time>
      </trkpt>
      <trkpt lat="31.93250298500061" lon="-4.423877969384193">
        <ele>1049.3</ele>
        <time>2003-04-18T11:51:32Z</time>
      </trkpt>
      <trkpt lat="31.932414975017309" lon="-4.424011996015906">
        <ele>1048.8</ele>
        <time>2003-04-18T11:51:35Z</time>
      </trkpt>
      <trkpt lat="31.93230701610446" lon="-4.424117021262646">
        <ele>1052.8</ele>
        <time>2003-04-18T11:51:58Z</time>
      </trkpt>
      <trkpt lat="31.932220011949539" lon="-4.424203019589186">
        <ele>1052.2</ele>
        <time>2003-04-18T11:52:03Z</time>
      </trkpt>
      <trkpt lat="31.932127978652716" lon="-4.424294969066978">
        <ele>1051.2</ele>
        <time>2003-04-18T11:52:15Z</time>
      </trkpt>
      <trkpt lat="31.932035023346543" lon="-4.42438499070704">
        <ele>1050.9000000000001</ele>
        <time>2003-04-18T11:52:17Z</time>
      </trkpt>
      <trkpt lat="31.931912982836366" lon="-4.424508037045598">
        <ele>1050</ele>
        <time>2003-04-18T11:52:19Z</time>
      </trkpt>
      <trkpt lat="31.931466981768608" lon="-4.424953032284975">
        <ele>1045.4000000000001</ele>
        <time>2003-04-18T11:52:26Z</time>
      </trkpt>
      <trkpt lat="31.931152995675802" lon="-4.425310017541051">
        <ele>1042.5</ele>
        <time>2003-04-18T11:52:35Z</time>
      </trkpt>
      <trkpt lat="31.931160036474466" lon="-4.425434991717339">
        <ele>1041.4000000000001</ele>
        <time>2003-04-18T11:52:38Z</time>
      </trkpt>
      <trkpt lat="31.931117037311196" lon="-4.425553008913994">
        <ele>1041.9000000000001</ele>
        <time>2003-04-18T11:52:42Z</time>
      </trkpt>
      <trkpt lat="31.931049982085824" lon="-4.425667002797127">
        <ele>1043.3</ele>
        <time>2003-04-18T11:52:48Z</time>
      </trkpt>
      <trkpt lat="31.933083012700081" lon="-4.454137980937958">
        <ele>1064</ele>
        <time>2003-04-18T13:59:05Z</time>
      </trkpt>
      <trkpt lat="31.93323003128171" lon="-4.454252980649471">
        <ele>1064</ele>
        <time>2003-04-18T13:59:05Z</time>
      </trkpt>
      <trkpt lat="31.934052966535091" lon="-4.454878019168973">
        <ele>1052.9000000000001</ele>
        <time>2003-04-18T13:59:12Z</time>
      </trkpt>
      <trkpt lat="31.934829968959093" lon="-4.455442037433386">
        <ele>1053.2</ele>
        <time>2003-04-18T13:59:17Z</time>
      </trkpt>
      <trkpt lat="31.935624992474914" lon="-4.456042014062405">
        <ele>1053.5</ele>
        <time>2003-04-18T13:59:24Z</time>
      </trkpt>
      <trkpt lat="31.936399983242154" lon="-4.456652970984578">
        <ele>1053.9000000000001</ele>
        <time>2003-04-18T13:59:29Z</time>
      </trkpt>
      <trkpt lat="31.937244962900877" lon="-4.457342969253659">
        <ele>1054.5999999999999</ele>
        <time>2003-04-18T13:59:36Z</time>
      </trkpt>
      <trkpt lat="31.937979971989989" lon="-4.45796700194478">
        <ele>1055.4000000000001</ele>
        <time>2003-04-18T13:59:40Z</time>
      </trkpt>
      <trkpt lat="31.93873300217092" lon="-4.458626993000507">
        <ele>1056.7</ele>
        <time>2003-04-18T13:59:46Z</time>
      </trkpt>
      <trkpt lat="31.939468011260033" lon="-4.459310034289956">
        <ele>1057.7</ele>
        <time>2003-04-18T13:59:51Z</time>
      </trkpt>
      <trkpt lat="31.940282983705401" lon="-4.460077984258533">
        <ele>1059.0999999999999</ele>
        <time>2003-04-18T13:59:56Z</time>
      </trkpt>
      <trkpt lat="31.941092004999518" lon="-4.460860015824437">
        <ele>1061.0999999999999</ele>
        <time>2003-04-18T14:00:03Z</time>
      </trkpt>
      <trkpt lat="31.941852997988462" lon="-4.461616985499859">
        <ele>1062.9000000000001</ele>
        <time>2003-04-18T14:00:09Z</time>
      </trkpt>
      <trkpt lat="31.942637963220477" lon="-4.462428018450737">
        <ele>1065</ele>
        <time>2003-04-18T14:00:14Z</time>
      </trkpt>
      <trkpt lat="31.943428041413426" lon="-4.463267968967557">
        <ele>1066.5999999999999</ele>
        <time>2003-04-18T14:00:21Z</time>
      </trkpt>
      <trkpt lat="31.944098006933928" lon="-4.463998032733798">
        <ele>1068.8</ele>
        <time>2003-04-18T14:00:26Z</time>
      </trkpt>
      <trkpt lat="31.944778030738235" lon="-4.464752990752459">
        <ele>1071.2</ele>
        <time>2003-04-18T14:00:30Z</time>
      </trkpt>
      <trkpt lat="31.945471968501806" lon="-4.46552999317646">
        <ele>1073.5999999999999</ele>
        <time>2003-04-18T14:00:36Z</time>
      </trkpt>
      <trkpt lat="31.946200020611286" lon="-4.466325016692281">
        <ele>1075.0999999999999</ele>
        <time>2003-04-18T14:00:41Z</time>
      </trkpt>
      <trkpt lat="31.946942992508411" lon="-4.467151975259185">
        <ele>1078.0999999999999</ele>
        <time>2003-04-18T14:00:45Z</time>
      </trkpt>
      <trkpt lat="31.947695016860962" lon="-4.467986980453134">
        <ele>1082.3</ele>
        <time>2003-04-18T14:00:50Z</time>
      </trkpt>
      <trkpt lat="31.948458021506667" lon="-4.468828020617366">
        <ele>1085.7</ele>
        <time>2003-04-18T14:00:56Z</time>
      </trkpt>
      <trkpt lat="31.949207028374076" lon="-4.469641987234354">
        <ele>1085.2</ele>
        <time>2003-04-18T14:01:01Z</time>
      </trkpt>
      <trkpt lat="31.949937008321285" lon="-4.470447991043329">
        <ele>1082.2</ele>
        <time>2003-04-18T14:01:05Z</time>
      </trkpt>
      <trkpt lat="31.950704958289862" lon="-4.471303028985858">
        <ele>1077.9000000000001</ele>
        <time>2003-04-18T14:01:11Z</time>
      </trkpt>
      <trkpt lat="31.951523032039404" lon="-4.472217997536063">
        <ele>1075.7</ele>
        <time>2003-04-18T14:01:16Z</time>
      </trkpt>
      <trkpt lat="31.952192997559905" lon="-4.472964992746711">
        <ele>1076.3</ele>
        <time>2003-04-18T14:01:20Z</time>
      </trkpt>
      <trkpt lat="31.952855000272393" lon="-4.473697990179062">
        <ele>1077</ele>
        <time>2003-04-18T14:01:24Z</time>
      </trkpt>
      <trkpt lat="31.953639965504408" lon="-4.474557973444462">
        <ele>1078</ele>
        <time>2003-04-18T14:01:28Z</time>
      </trkpt>
      <trkpt lat="31.95441504009068" lon="-4.475417034700513">
        <ele>1078.9000000000001</ele>
        <time>2003-04-18T14:01:34Z</time>
      </trkpt>
      <trkpt lat="31.955192964524031" lon="-4.476269977167249">
        <ele>1079.7</ele>
        <time>2003-04-18T14:01:39Z</time>
      </trkpt>
      <trkpt lat="31.955969966948032" lon="-4.477116968482733">
        <ele>1080.4000000000001</ele>
        <time>2003-04-18T14:01:43Z</time>
      </trkpt>
      <trkpt lat="31.956731965765357" lon="-4.477973012253642">
        <ele>1081.4000000000001</ele>
        <time>2003-04-18T14:01:48Z</time>
      </trkpt>
      <trkpt lat="31.957496982067823" lon="-4.478814974427223">
        <ele>1082.2</ele>
        <time>2003-04-18T14:01:54Z</time>
      </trkpt>
      <trkpt lat="31.958268033340573" lon="-4.479672024026513">
        <ele>1083</ele>
        <time>2003-04-18T14:01:58Z</time>
      </trkpt>
      <trkpt lat="31.959051992744207" lon="-4.480537036433816">
        <ele>1083.8</ele>
        <time>2003-04-18T14:02:03Z</time>
      </trkpt>
      <trkpt lat="31.959847016260028" lon="-4.481413029134274">
        <ele>1084.5999999999999</ele>
        <time>2003-04-18T14:02:09Z</time>
      </trkpt>
      <trkpt lat="31.9606479909271" lon="-4.482278041541576">
        <ele>1085.3</ele>
        <time>2003-04-18T14:02:14Z</time>
      </trkpt>
      <trkpt lat="31.961494982242584" lon="-4.483077004551888">
        <ele>1086.3</ele>
        <time>2003-04-18T14:02:18Z</time>
      </trkpt>
      <trkpt lat="31.962386984378099" lon="-4.483812013641">
        <ele>1087.0999999999999</ele>
        <time>2003-04-18T14:02:24Z</time>
      </trkpt>
      <trkpt lat="31.963309999555349" lon="-4.484511986374855">
        <ele>1087.5</ele>
        <time>2003-04-18T14:02:29Z</time>
      </trkpt>
      <trkpt lat="31.96425698697567" lon="-4.485212964937091">
        <ele>1087.7</ele>
        <time>2003-04-18T14:02:33Z</time>
      </trkpt>
      <trkpt lat="31.965167010203004" lon="-4.485892988741398">
        <ele>1088.4000000000001</ele>
        <time>2003-04-18T14:02:38Z</time>
      </trkpt>
      <trkpt lat="31.966069992631674" lon="-4.486569995060563">
        <ele>1089.2</ele>
        <time>2003-04-18T14:02:44Z</time>
      </trkpt>
      <trkpt lat="31.966968029737473" lon="-4.487239960581064">
        <ele>1090.0999999999999</ele>
        <time>2003-04-18T14:02:49Z</time>
      </trkpt>
      <trkpt lat="31.967875035479665" lon="-4.48791797272861">
        <ele>1090.5999999999999</ele>
        <time>2003-04-18T14:02:53Z</time>
      </trkpt>
      <trkpt lat="31.968767959624529" lon="-4.488588022068143">
        <ele>1090.8</ele>
        <time>2003-04-18T14:02:59Z</time>
      </trkpt>
      <trkpt lat="31.969646969810128" lon="-4.489241978153586">
        <ele>1091.0999999999999</ele>
        <time>2003-04-18T14:03:04Z</time>
      </trkpt>
      <trkpt lat="31.97055003605783" lon="-4.489925019443035">
        <ele>1091.5999999999999</ele>
        <time>2003-04-18T14:03:08Z</time>
      </trkpt>
      <trkpt lat="31.971501968801022" lon="-4.490634966641665">
        <ele>1092.0999999999999</ele>
        <time>2003-04-18T14:03:14Z</time>
      </trkpt>
      <trkpt lat="31.972291963174939" lon="-4.491232009604573">
        <ele>1092.2</ele>
        <time>2003-04-18T14:03:18Z</time>
      </trkpt>
      <trkpt lat="31.973120011389256" lon="-4.491855036467314">
        <ele>1092.0999999999999</ele>
        <time>2003-04-18T14:03:22Z</time>
      </trkpt>
      <trkpt lat="31.973953004926443" lon="-4.492477979511023">
        <ele>1093.5</ele>
        <time>2003-04-18T14:03:26Z</time>
      </trkpt>
      <trkpt lat="31.974766971543431" lon="-4.493096983060241">
        <ele>1095.7</ele>
        <time>2003-04-18T14:03:30Z</time>
      </trkpt>
      <trkpt lat="31.975582027807832" lon="-4.493705006316304">
        <ele>1098.3</ele>
        <time>2003-04-18T14:03:34Z</time>
      </trkpt>
      <trkpt lat="31.976387025788426" lon="-4.494306994602084">
        <ele>1102.0999999999999</ele>
        <time>2003-04-18T14:03:38Z</time>
      </trkpt>
      <trkpt lat="31.977180037647486" lon="-4.494904959574342">
        <ele>1106.0999999999999</ele>
        <time>2003-04-18T14:03:42Z</time>
      </trkpt>
      <trkpt lat="31.977970032021403" lon="-4.495497979223728">
        <ele>1111.8</ele>
        <time>2003-04-18T14:03:46Z</time>
      </trkpt>
      <trkpt lat="31.978745022788644" lon="-4.496046993881464">
        <ele>1116.5999999999999</ele>
        <time>2003-04-18T14:03:50Z</time>
      </trkpt>
      <trkpt lat="31.979729980230331" lon="-4.496649987995625">
        <ele>1126.3</ele>
        <time>2003-04-18T14:03:54Z</time>
      </trkpt>
      <trkpt lat="31.980739999562502" lon="-4.497145023196936">
        <ele>1133.9000000000001</ele>
        <time>2003-04-18T14:03:59Z</time>
      </trkpt>
      <trkpt lat="31.981802992522717" lon="-4.497545007616282">
        <ele>1137.3</ele>
        <time>2003-04-18T14:04:05Z</time>
      </trkpt>
      <trkpt lat="31.982717961072922" lon="-4.497818006202579">
        <ele>1139.2</ele>
        <time>2003-04-18T14:04:09Z</time>
      </trkpt>
      <trkpt lat="31.983696967363358" lon="-4.497999977320433">
        <ele>1141.3</ele>
        <time>2003-04-18T14:04:13Z</time>
      </trkpt>
      <trkpt lat="31.984721990302205" lon="-4.498110031709075">
        <ele>1142.8</ele>
        <time>2003-04-18T14:04:17Z</time>
      </trkpt>
      <trkpt lat="31.985781965777278" lon="-4.498129980638623">
        <ele>1143.5999999999999</ele>
        <time>2003-04-18T14:04:21Z</time>
      </trkpt>
      <trkpt lat="31.986855017021298" lon="-4.498052028939128">
        <ele>1144.8</ele>
        <time>2003-04-18T14:04:25Z</time>
      </trkpt>
      <trkpt lat="31.987937036901712" lon="-4.49786301702261">
        <ele>1145.9000000000001</ele>
        <time>2003-04-18T14:04:29Z</time>
      </trkpt>
      <trkpt lat="31.989002041518688" lon="-4.497588006779552">
        <ele>1148.9000000000001</ele>
        <time>2003-04-18T14:04:33Z</time>
      </trkpt>
      <trkpt lat="31.990047013387084" lon="-4.497190034016967">
        <ele>1150.4000000000001</ele>
        <time>2003-04-18T14:04:37Z</time>
      </trkpt>
      <trkpt lat="31.991079999133945" lon="-4.496692987158895">
        <ele>1150.7</ele>
        <time>2003-04-18T14:04:40Z</time>
      </trkpt>
      <trkpt lat="31.992075014859438" lon="-4.496092004701495">
        <ele>1151.2</ele>
        <time>2003-04-18T14:04:44Z</time>
      </trkpt>
      <trkpt lat="31.993034994229674" lon="-4.495448023080826">
        <ele>1153.7</ele>
        <time>2003-04-18T14:04:48Z</time>
      </trkpt>
      <trkpt lat="31.993972007185221" lon="-4.494817033410072">
        <ele>1156.9000000000001</ele>
        <time>2003-04-18T14:04:52Z</time>
      </trkpt>
      <trkpt lat="31.99491698294878" lon="-4.494206998497248">
        <ele>1156.7</ele>
        <time>2003-04-18T14:04:56Z</time>
      </trkpt>
      <trkpt lat="31.995877968147397" lon="-4.493582965806127">
        <ele>1156.5</ele>
        <time>2003-04-18T14:05:00Z</time>
      </trkpt>
      <trkpt lat="31.996812969446182" lon="-4.492952981963754">
        <ele>1160.4000000000001</ele>
        <time>2003-04-18T14:05:04Z</time>
      </trkpt>
      <trkpt lat="31.997717963531613" lon="-4.49236499145627">
        <ele>1166.2</ele>
        <time>2003-04-18T14:05:10Z</time>
      </trkpt>
      <trkpt lat="31.998597979545593" lon="-4.4917849637568">
        <ele>1169.8</ele>
        <time>2003-04-18T14:05:12Z</time>
      </trkpt>
      <trkpt lat="31.999453017488122" lon="-4.491208037361503">
        <ele>1175</ele>
        <time>2003-04-18T14:05:16Z</time>
      </trkpt>
      <trkpt lat="32.000306965783238" lon="-4.490657011047006">
        <ele>1179.0999999999999</ele>
        <time>2003-04-18T14:05:20Z</time>
      </trkpt>
      <trkpt lat="32.00161999091506" lon="-4.4897869694978">
        <ele>1180.4000000000001</ele>
        <time>2003-04-18T14:05:27Z</time>
      </trkpt>
      <trkpt lat="32.00252003967762" lon="-4.48918498121202">
        <ele>1181.3</ele>
        <time>2003-04-18T14:05:31Z</time>
      </trkpt>
      <trkpt lat="32.003435008227825" lon="-4.488596990704536">
        <ele>1182.5</ele>
        <time>2003-04-18T14:05:35Z</time>
      </trkpt>
      <trkpt lat="32.004355005919933" lon="-4.487987961620092">
        <ele>1183.2</ele>
        <time>2003-04-18T14:05:39Z</time>
      </trkpt>
      <trkpt lat="32.005267040804029" lon="-4.487374993041158">
        <ele>1187.7</ele>
        <time>2003-04-18T14:05:42Z</time>
      </trkpt>
      <trkpt lat="32.006158037111163" lon="-4.486784990876913">
        <ele>1192.3</ele>
        <time>2003-04-18T14:05:47Z</time>
      </trkpt>
      <trkpt lat="32.007048027589917" lon="-4.486203035339713">
        <ele>1194.3</ele>
        <time>2003-04-18T14:05:51Z</time>
      </trkpt>
      <trkpt lat="32.007919996976852" lon="-4.485623007640243">
        <ele>1195.8</ele>
        <time>2003-04-18T14:05:56Z</time>
      </trkpt>
      <trkpt lat="32.008798001334071" lon="-4.485047003254294">
        <ele>1195.5</ele>
        <time>2003-04-18T14:06:00Z</time>
      </trkpt>
      <trkpt lat="32.009696960449219" lon="-4.484441997483373">
        <ele>1193.8</ele>
        <time>2003-04-18T14:06:04Z</time>
      </trkpt>
      <trkpt lat="32.010634979233146" lon="-4.483828023076057">
        <ele>1191.8</ele>
        <time>2003-04-18T14:06:08Z</time>
      </trkpt>
      <trkpt lat="32.011592024937272" lon="-4.483197033405304">
        <ele>1189.8</ele>
        <time>2003-04-18T14:06:12Z</time>
      </trkpt>
      <trkpt lat="32.012540018185973" lon="-4.482562020421028">
        <ele>1184.9000000000001</ele>
        <time>2003-04-18T14:06:16Z</time>
      </trkpt>
      <trkpt lat="32.01345800422132" lon="-4.481949973851442">
        <ele>1179.8</ele>
        <time>2003-04-18T14:06:20Z</time>
      </trkpt>
      <trkpt lat="32.014367021620274" lon="-4.481359971687198">
        <ele>1174.5</ele>
        <time>2003-04-18T14:06:24Z</time>
      </trkpt>
      <trkpt lat="32.015290036797523" lon="-4.480887986719608">
        <ele>1169.4000000000001</ele>
        <time>2003-04-18T14:06:28Z</time>
      </trkpt>
      <trkpt lat="32.016248004510999" lon="-4.480493031442165">
        <ele>1164.4000000000001</ele>
        <time>2003-04-18T14:06:32Z</time>
      </trkpt>
      <trkpt lat="32.017203038558364" lon="-4.480092041194439">
        <ele>1164.4000000000001</ele>
        <time>2003-04-18T14:06:36Z</time>
      </trkpt>
      <trkpt lat="32.018135022372007" lon="-4.47968702763319">
        <ele>1164.9000000000001</ele>
        <time>2003-04-18T14:06:40Z</time>
      </trkpt>
      <trkpt lat="32.019076980650425" lon="-4.479285031557083">
        <ele>1165.7</ele>
        <time>2003-04-18T14:06:44Z</time>
      </trkpt>
      <trkpt lat="32.02001198194921" lon="-4.478886974975467">
        <ele>1166.7</ele>
        <time>2003-04-18T14:06:48Z</time>
      </trkpt>
      <trkpt lat="32.020946983247995" lon="-4.478492019698024">
        <ele>1167.3</ele>
        <time>2003-04-18T14:06:52Z</time>
      </trkpt>
      <trkpt lat="32.021909980103374" lon="-4.47807502001524">
        <ele>1166.4000000000001</ele>
        <time>2003-04-18T14:06:55Z</time>
      </trkpt>
      <trkpt lat="32.022912036627531" lon="-4.477655002847314">
        <ele>1165.3</ele>
        <time>2003-04-18T14:06:59Z</time>
      </trkpt>
      <trkpt lat="32.023896994069219" lon="-4.477236997336149">
        <ele>1160.7</ele>
        <time>2003-04-18T14:07:03Z</time>
      </trkpt>
      <trkpt lat="32.0248650200665" lon="-4.47672301903367">
        <ele>1152.0999999999999</ele>
        <time>2003-04-18T14:07:07Z</time>
      </trkpt>
      <trkpt lat="32.025271961465478" lon="-4.476353041827679">
        <ele>1151</ele>
        <time>2003-04-18T14:07:10Z</time>
      </trkpt>
      <trkpt lat="32.025806978344917" lon="-4.47569296695292">
        <ele>1149.5</ele>
        <time>2003-04-18T14:07:12Z</time>
      </trkpt>
      <trkpt lat="32.026228001341224" lon="-4.474919987842441">
        <ele>1148.9000000000001</ele>
        <time>2003-04-18T14:07:15Z</time>
      </trkpt>
      <trkpt lat="32.026545004919171" lon="-4.474060004577041">
        <ele>1149.5999999999999</ele>
        <time>2003-04-18T14:07:19Z</time>
      </trkpt>
      <trkpt lat="32.026639971882105" lon="-4.473454998806119">
        <ele>1153.7</ele>
        <time>2003-04-18T14:07:21Z</time>
      </trkpt>
      <trkpt lat="32.026666961610317" lon="-4.472571965306997">
        <ele>1158.4000000000001</ele>
        <time>2003-04-18T14:07:23Z</time>
      </trkpt>
      <trkpt lat="32.026607031002641" lon="-4.472020016983151">
        <ele>1159.2</ele>
        <time>2003-04-18T14:07:26Z</time>
      </trkpt>
      <trkpt lat="32.026366973295808" lon="-4.470966998487711">
        <ele>1157.9000000000001</ele>
        <time>2003-04-18T14:07:30Z</time>
      </trkpt>
      <trkpt lat="32.02611199580133" lon="-4.469878021627665">
        <ele>1154.0999999999999</ele>
        <time>2003-04-18T14:07:34Z</time>
      </trkpt>
      <trkpt lat="32.02587797306478" lon="-4.468831960111857">
        <ele>1153.5</ele>
        <time>2003-04-18T14:07:38Z</time>
      </trkpt>
      <trkpt lat="32.025632970035076" lon="-4.467797968536615">
        <ele>1152.5999999999999</ele>
        <time>2003-04-18T14:07:42Z</time>
      </trkpt>
      <trkpt lat="32.025401964783669" lon="-4.466758025810123">
        <ele>1152.5999999999999</ele>
        <time>2003-04-18T14:07:46Z</time>
      </trkpt>
      <trkpt lat="32.025156961753964" lon="-4.465692015364766">
        <ele>1156.9000000000001</ele>
        <time>2003-04-18T14:07:49Z</time>
      </trkpt>
      <trkpt lat="32.024927968159318" lon="-4.464636985212565">
        <ele>1162.2</ele>
        <time>2003-04-18T14:07:53Z</time>
      </trkpt>
      <trkpt lat="32.024835012853146" lon="-4.463568041101098">
        <ele>1165.5</ele>
        <time>2003-04-18T14:07:57Z</time>
      </trkpt>
      <trkpt lat="32.024883041158319" lon="-4.462497001513839">
        <ele>1168.5</ele>
        <time>2003-04-18T14:08:01Z</time>
      </trkpt>
      <trkpt lat="32.025089990347624" lon="-4.461441971361637">
        <ele>1170.4000000000001</ele>
        <time>2003-04-18T14:08:05Z</time>
      </trkpt>
      <trkpt lat="32.025353014469147" lon="-4.460675027221441">
        <ele>1171.8</ele>
        <time>2003-04-18T14:08:09Z</time>
      </trkpt>
      <trkpt lat="32.025707988068461" lon="-4.459943035617471">
        <ele>1172.5</ele>
        <time>2003-04-18T14:08:12Z</time>
      </trkpt>
      <trkpt lat="32.026303019374609" lon="-4.459035024046898">
        <ele>1173.7</ele>
        <time>2003-04-18T14:08:16Z</time>
      </trkpt>
      <trkpt lat="32.026844993233681" lon="-4.458437981083989">
        <ele>1175.0999999999999</ele>
        <time>2003-04-18T14:08:19Z</time>
      </trkpt>
      <trkpt lat="32.027459973469377" lon="-4.457959961146116">
        <ele>1176.5</ele>
        <time>2003-04-18T14:08:21Z</time>
      </trkpt>
      <trkpt lat="32.028277041390538" lon="-4.457453023642302">
        <ele>1177.2</ele>
        <time>2003-04-18T14:08:25Z</time>
      </trkpt>
      <trkpt lat="32.029086984694004" lon="-4.456971986219287">
        <ele>1173.7</ele>
        <time>2003-04-18T14:08:29Z</time>
      </trkpt>
      <trkpt lat="32.029945040121675" lon="-4.456449961289764">
        <ele>1168.8</ele>
        <time>2003-04-18T14:08:33Z</time>
      </trkpt>
      <trkpt lat="32.030552979558706" lon="-4.455973030999303">
        <ele>1168.2</ele>
        <time>2003-04-18T14:08:36Z</time>
      </trkpt>
      <trkpt lat="32.030888004228473" lon="-4.455546978861094">
        <ele>1167.5999999999999</ele>
        <time>2003-04-18T14:08:39Z</time>
      </trkpt>
      <trkpt lat="32.03116200864315" lon="-4.455056972801685">
        <ele>1167.3</ele>
        <time>2003-04-18T14:08:40Z</time>
      </trkpt>
      <trkpt lat="32.031357977539301" lon="-4.454522039741278">
        <ele>1166.5999999999999</ele>
        <time>2003-04-18T14:08:43Z</time>
      </trkpt>
      <trkpt lat="32.03146300278604" lon="-4.453973025083542">
        <ele>1166.5</ele>
        <time>2003-04-18T14:08:44Z</time>
      </trkpt>
      <trkpt lat="32.031510025262833" lon="-4.453431973233819">
        <ele>1166</ele>
        <time>2003-04-18T14:08:47Z</time>
      </trkpt>
      <trkpt lat="32.031474988907576" lon="-4.452882958576083">
        <ele>1165.4000000000001</ele>
        <time>2003-04-18T14:08:48Z</time>
      </trkpt>
      <trkpt lat="32.031354960054159" lon="-4.452362023293972">
        <ele>1165</ele>
        <time>2003-04-18T14:08:51Z</time>
      </trkpt>
      <trkpt lat="32.031057989224792" lon="-4.451643023639917">
        <ele>1163.9000000000001</ele>
        <time>2003-04-18T14:08:54Z</time>
      </trkpt>
      <trkpt lat="32.030793037265539" lon="-4.451204985380173">
        <ele>1163.2</ele>
        <time>2003-04-18T14:08:55Z</time>
      </trkpt>
      <trkpt lat="32.030449965968728" lon="-4.45083299651742">
        <ele>1162.4000000000001</ele>
        <time>2003-04-18T14:08:58Z</time>
      </trkpt>
      <trkpt lat="32.029683021828532" lon="-4.450169987976551">
        <ele>1163.2</ele>
        <time>2003-04-18T14:09:02Z</time>
      </trkpt>
      <trkpt lat="32.028790013864636" lon="-4.449404971674085">
        <ele>1173.4000000000001</ele>
        <time>2003-04-18T14:09:07Z</time>
      </trkpt>
      <trkpt lat="32.028332026675344" lon="-4.448931980878115">
        <ele>1176.3</ele>
        <time>2003-04-18T14:09:10Z</time>
      </trkpt>
      <trkpt lat="32.027942016720772" lon="-4.44838497787714">
        <ele>1177.2</ele>
        <time>2003-04-18T14:09:13Z</time>
      </trkpt>
      <trkpt lat="32.027631970122457" lon="-4.447757005691528">
        <ele>1176.4000000000001</ele>
        <time>2003-04-18T14:09:15Z</time>
      </trkpt>
      <trkpt lat="32.027416974306107" lon="-4.447043035179377">
        <ele>1173.5</ele>
        <time>2003-04-18T14:09:18Z</time>
      </trkpt>
      <trkpt lat="32.027301974594593" lon="-4.446254968643189">
        <ele>1169.4000000000001</ele>
        <time>2003-04-18T14:09:22Z</time>
      </trkpt>
      <trkpt lat="32.027312032878399" lon="-4.445726992562413">
        <ele>1168.0999999999999</ele>
        <time>2003-04-18T14:09:23Z</time>
      </trkpt>
      <trkpt lat="32.027480006217957" lon="-4.444429976865649">
        <ele>1167.2</ele>
        <time>2003-04-18T14:09:29Z</time>
      </trkpt>
      <trkpt lat="32.027661977335811" lon="-4.443177971988916">
        <ele>1166.0999999999999</ele>
        <time>2003-04-18T14:09:34Z</time>
      </trkpt>
      <trkpt lat="32.027836991474032" lon="-4.441975001245737">
        <ele>1165</ele>
        <time>2003-04-18T14:09:38Z</time>
      </trkpt>
      <trkpt lat="32.028027009218931" lon="-4.440702041611075">
        <ele>1163.7</ele>
        <time>2003-04-18T14:09:44Z</time>
      </trkpt>
      <trkpt lat="32.028187019750476" lon="-4.4396370369941">
        <ele>1161.8</ele>
        <time>2003-04-18T14:09:48Z</time>
      </trkpt>
      <trkpt lat="32.028343006968498" lon="-4.438534984365106">
        <ele>1159.5</ele>
        <time>2003-04-18T14:09:52Z</time>
      </trkpt>
      <trkpt lat="32.028521960601211" lon="-4.437417006120086">
        <ele>1157.2</ele>
        <time>2003-04-18T14:09:56Z</time>
      </trkpt>
      <trkpt lat="32.028667973354459" lon="-4.436334986239672">
        <ele>1163.0999999999999</ele>
        <time>2003-04-18T14:10:00Z</time>
      </trkpt>
      <trkpt lat="32.028866959735751" lon="-4.435050040483475">
        <ele>1167.8</ele>
        <time>2003-04-18T14:10:04Z</time>
      </trkpt>
      <trkpt lat="32.029047003015876" lon="-4.433768028393388">
        <ele>1170.3</ele>
        <time>2003-04-18T14:10:09Z</time>
      </trkpt>
      <trkpt lat="32.029197039082646" lon="-4.43272003903985">
        <ele>1171.4000000000001</ele>
        <time>2003-04-18T14:10:13Z</time>
      </trkpt>
      <trkpt lat="32.029404994100332" lon="-4.431676995009184">
        <ele>1172</ele>
        <time>2003-04-18T14:10:17Z</time>
      </trkpt>
      <trkpt lat="32.029665000736713" lon="-4.430929999798536">
        <ele>1172.8</ele>
        <time>2003-04-18T14:10:20Z</time>
      </trkpt>
      <trkpt lat="32.030175039544702" lon="-4.429991981014609">
        <ele>1173.0999999999999</ele>
        <time>2003-04-18T14:10:24Z</time>
      </trkpt>
      <trkpt lat="32.03066797927022" lon="-4.429355040192604">
        <ele>1173.7</ele>
        <time>2003-04-18T14:10:28Z</time>
      </trkpt>
      <trkpt lat="32.031239960342646" lon="-4.428808037191629">
        <ele>1174.7</ele>
        <time>2003-04-18T14:10:31Z</time>
      </trkpt>
      <trkpt lat="32.031876984983683" lon="-4.428377039730549">
        <ele>1176.8</ele>
        <time>2003-04-18T14:10:34Z</time>
      </trkpt>
      <trkpt lat="32.032560026273131" lon="-4.428049977868795">
        <ele>1178.7</ele>
        <time>2003-04-18T14:10:36Z</time>
      </trkpt>
      <trkpt lat="32.033280031755567" lon="-4.427868006750941">
        <ele>1180.5</ele>
        <time>2003-04-18T14:10:39Z</time>
      </trkpt>
      <trkpt lat="32.034228025004268" lon="-4.427631972357631">
        <ele>1182.3</ele>
        <time>2003-04-18T14:10:43Z</time>
      </trkpt>
      <trkpt lat="32.034645024687052" lon="-4.427408007904887">
        <ele>1183.4000000000001</ele>
        <time>2003-04-18T14:10:46Z</time>
      </trkpt>
      <trkpt lat="32.035205019637942" lon="-4.426959995180368">
        <ele>1186.8</ele>
        <time>2003-04-18T14:10:48Z</time>
      </trkpt>
      <trkpt lat="32.035671975463629" lon="-4.426392037421465">
        <ele>1189.8</ele>
        <time>2003-04-18T14:10:51Z</time>
      </trkpt>
      <trkpt lat="32.036289973184466" lon="-4.425361985340715">
        <ele>1196.8</ele>
        <time>2003-04-18T14:10:57Z</time>
      </trkpt>
      <trkpt lat="32.036707978695631" lon="-4.424801990389824">
        <ele>1199.3</ele>
        <time>2003-04-18T14:10:59Z</time>
      </trkpt>
      <trkpt lat="32.037194967269897" lon="-4.424371998757124">
        <ele>1203.7</ele>
        <time>2003-04-18T14:11:02Z</time>
      </trkpt>
      <trkpt lat="32.03808001242578" lon="-4.423867994919419">
        <ele>1207.4000000000001</ele>
        <time>2003-04-18T14:11:07Z</time>
      </trkpt>
      <trkpt lat="32.039000010117888" lon="-4.423361979424954">
        <ele>1211.0999999999999</ele>
        <time>2003-04-18T14:11:13Z</time>
      </trkpt>
      <trkpt lat="32.039335034787655" lon="-4.423137009143829">
        <ele>1211.3</ele>
        <time>2003-04-18T14:11:14Z</time>
      </trkpt>
      <trkpt lat="32.0396279823035" lon="-4.422827968373895">
        <ele>1210.5</ele>
        <time>2003-04-18T14:11:17Z</time>
      </trkpt>
      <trkpt lat="32.039871979504824" lon="-4.422442987561226">
        <ele>1210.2</ele>
        <time>2003-04-18T14:11:18Z</time>
      </trkpt>
      <trkpt lat="32.040065014734864" lon="-4.422015007585287">
        <ele>1210.5999999999999</ele>
        <time>2003-04-18T14:11:21Z</time>
      </trkpt>
      <trkpt lat="32.040192000567913" lon="-4.421557020395994">
        <ele>1212.9000000000001</ele>
        <time>2003-04-18T14:11:22Z</time>
      </trkpt>
      <trkpt lat="32.040257966145873" lon="-4.421086963266134">
        <ele>1215.5</ele>
        <time>2003-04-18T14:11:25Z</time>
      </trkpt>
      <trkpt lat="32.040461981669068" lon="-4.419951969757676">
        <ele>1221.2</ele>
        <time>2003-04-18T14:11:29Z</time>
      </trkpt>
      <trkpt lat="32.040621992200613" lon="-4.419521978124976">
        <ele>1224.5999999999999</ele>
        <time>2003-04-18T14:11:32Z</time>
      </trkpt>
      <trkpt lat="32.040832964703441" lon="-4.419113025069237">
        <ele>1226</ele>
        <time>2003-04-18T14:11:33Z</time>
      </trkpt>
      <trkpt lat="32.041105041280389" lon="-4.418738018721342">
        <ele>1226.5</ele>
        <time>2003-04-18T14:11:36Z</time>
      </trkpt>
      <trkpt lat="32.041417015716434" lon="-4.418407017365098">
        <ele>1229.2</ele>
        <time>2003-04-18T14:11:37Z</time>
      </trkpt>
      <trkpt lat="32.042252020910382" lon="-4.417664967477322">
        <ele>1234.4000000000001</ele>
        <time>2003-04-18T14:11:42Z</time>
      </trkpt>
      <trkpt lat="32.043051989749074" lon="-4.416938005015254">
        <ele>1244.0999999999999</ele>
        <time>2003-04-18T14:11:48Z</time>
      </trkpt>
      <trkpt lat="32.043309984728694" lon="-4.416580013930798">
        <ele>1247.3</ele>
        <time>2003-04-18T14:11:49Z</time>
      </trkpt>
      <trkpt lat="32.043506959453225" lon="-4.416178017854691">
        <ele>1248.7</ele>
        <time>2003-04-18T14:11:52Z</time>
      </trkpt>
      <trkpt lat="32.043981961905956" lon="-4.415191970765591">
        <ele>1256</ele>
        <time>2003-04-18T14:11:56Z</time>
      </trkpt>
      <trkpt lat="32.044456964358687" lon="-4.414248000830412">
        <ele>1264.5999999999999</ele>
        <time>2003-04-18T14:12:01Z</time>
      </trkpt>
      <trkpt lat="32.044916963204741" lon="-4.413326997309923">
        <ele>1271.3</ele>
        <time>2003-04-18T14:12:07Z</time>
      </trkpt>
      <trkpt lat="32.045445023104548" lon="-4.412238020449877">
        <ele>1277.5</ele>
        <time>2003-04-18T14:12:12Z</time>
      </trkpt>
      <trkpt lat="32.04596302472055" lon="-4.411181984469295">
        <ele>1287.5</ele>
        <time>2003-04-18T14:12:19Z</time>
      </trkpt>
      <trkpt lat="32.046550009399652" lon="-4.410246983170509">
        <ele>1295</ele>
        <time>2003-04-18T14:12:24Z</time>
      </trkpt>
      <trkpt lat="32.047034986317158" lon="-4.409501999616623">
        <ele>1302.8</ele>
        <time>2003-04-18T14:12:30Z</time>
      </trkpt>
      <trkpt lat="32.047097012400627" lon="-4.409327991306782">
        <ele>1302.8</ele>
        <time>2003-04-18T14:12:31Z</time>
      </trkpt>
      <trkpt lat="32.047122996300459" lon="-4.409139985218644">
        <ele>1304.7</ele>
        <time>2003-04-18T14:12:31Z</time>
      </trkpt>
      <trkpt lat="32.04714696854353" lon="-4.408574961125851">
        <ele>1307.5</ele>
        <time>2003-04-18T14:12:35Z</time>
      </trkpt>
      <trkpt lat="32.04710497520864" lon="-4.408214958384633">
        <ele>1309.7</ele>
        <time>2003-04-18T14:12:36Z</time>
      </trkpt>
      <trkpt lat="32.04693297855556" lon="-4.407079964876175">
        <ele>1316.5</ele>
        <time>2003-04-18T14:12:43Z</time>
      </trkpt>
      <trkpt lat="32.046782020479441" lon="-4.405962992459536">
        <ele>1323.8</ele>
        <time>2003-04-18T14:12:49Z</time>
      </trkpt>
      <trkpt lat="32.046740027144551" lon="-4.405674990266562">
        <ele>1325.5</ele>
        <time>2003-04-18T14:12:50Z</time>
      </trkpt>
      <trkpt lat="32.046601977199316" lon="-4.404567992314696">
        <ele>1332.4000000000001</ele>
        <time>2003-04-18T14:12:58Z</time>
      </trkpt>
      <trkpt lat="32.04658797942102" lon="-4.404170019552112">
        <ele>1334.7</ele>
        <time>2003-04-18T14:13:02Z</time>
      </trkpt>
      <trkpt lat="32.046614969149232" lon="-4.403816973790526">
        <ele>1336.9000000000001</ele>
        <time>2003-04-18T14:13:05Z</time>
      </trkpt>
      <trkpt lat="32.046670038253069" lon="-4.403589991852641">
        <ele>1338.5</ele>
        <time>2003-04-18T14:13:06Z</time>
      </trkpt>
      <trkpt lat="32.046765005216002" lon="-4.403369966894388">
        <ele>1340.4000000000001</ele>
        <time>2003-04-18T14:13:09Z</time>
      </trkpt>
      <trkpt lat="32.04701797105372" lon="-4.402937041595578">
        <ele>1342.8</ele>
        <time>2003-04-18T14:13:13Z</time>
      </trkpt>
      <trkpt lat="32.047183010727167" lon="-4.402762027457357">
        <ele>1344.3</ele>
        <time>2003-04-18T14:13:14Z</time>
      </trkpt>
      <trkpt lat="32.047447040677071" lon="-4.402554994449019">
        <ele>1346.9000000000001</ele>
        <time>2003-04-18T14:13:17Z</time>
      </trkpt>
      <trkpt lat="32.047736970707774" lon="-4.402411999180913">
        <ele>1349.5</ele>
        <time>2003-04-18T14:13:21Z</time>
      </trkpt>
      <trkpt lat="32.047945009544492" lon="-4.402370005846024">
        <ele>1351.3</ele>
        <time>2003-04-18T14:13:22Z</time>
      </trkpt>
      <trkpt lat="32.048250027000904" lon="-4.402360031381249">
        <ele>1353.9000000000001</ele>
        <time>2003-04-18T14:13:25Z</time>
      </trkpt>
      <trkpt lat="32.048659985885024" lon="-4.402424991130829">
        <ele>1356.5999999999999</ele>
        <time>2003-04-18T14:13:29Z</time>
      </trkpt>
      <trkpt lat="32.0488650072366" lon="-4.402509983628988">
        <ele>1357.9000000000001</ele>
        <time>2003-04-18T14:13:32Z</time>
      </trkpt>
      <trkpt lat="32.049162983894348" lon="-4.402700001373887">
        <ele>1360.0999999999999</ele>
        <time>2003-04-18T14:13:35Z</time>
      </trkpt>
      <trkpt lat="32.049428019672632" lon="-4.402941986918449">
        <ele>1361.0999999999999</ele>
        <time>2003-04-18T14:13:37Z</time>
      </trkpt>
      <trkpt lat="32.049621976912022" lon="-4.403214985504746">
        <ele>1362</ele>
        <time>2003-04-18T14:13:40Z</time>
      </trkpt>
      <trkpt lat="32.049709986895323" lon="-4.403450014069676">
        <ele>1361.8</ele>
        <time>2003-04-18T14:13:43Z</time>
      </trkpt>
      <trkpt lat="32.04989698715508" lon="-4.404121991246939">
        <ele>1361</ele>
        <time>2003-04-18T14:13:48Z</time>
      </trkpt>
      <trkpt lat="32.050142996013165" lon="-4.40489798784256">
        <ele>1360.3</ele>
        <time>2003-04-18T14:13:52Z</time>
      </trkpt>
      <trkpt lat="32.050227988511324" lon="-4.405012987554073">
        <ele>1360.3</ele>
        <time>2003-04-18T14:13:53Z</time>
      </trkpt>
      <trkpt lat="32.050324967131019" lon="-4.40511298365891">
        <ele>1360.9000000000001</ele>
        <time>2003-04-18T14:13:55Z</time>
      </trkpt>
      <trkpt lat="32.051044972613454" lon="-4.405807005241513">
        <ele>1360.8</ele>
        <time>2003-04-18T14:14:02Z</time>
      </trkpt>
      <trkpt lat="32.051200037822127" lon="-4.406089978292584">
        <ele>1359.9000000000001</ele>
        <time>2003-04-18T14:14:04Z</time>
      </trkpt>
      <trkpt lat="32.051683003082871" lon="-4.407051969319582">
        <ele>1355.3</ele>
        <time>2003-04-18T14:14:11Z</time>
      </trkpt>
      <trkpt lat="32.051843013614416" lon="-4.407424964010716">
        <ele>1353.3</ele>
        <time>2003-04-18T14:14:14Z</time>
      </trkpt>
      <trkpt lat="32.051905039697886" lon="-4.407742973417044">
        <ele>1351.5</ele>
        <time>2003-04-18T14:14:15Z</time>
      </trkpt>
      <trkpt lat="32.051967987790704" lon="-4.408319983631373">
        <ele>1348</ele>
        <time>2003-04-18T14:14:19Z</time>
      </trkpt>
      <trkpt lat="32.052156999707222" lon="-4.409373002126813">
        <ele>1340.8</ele>
        <time>2003-04-18T14:14:23Z</time>
      </trkpt>
      <trkpt lat="32.052290020510554" lon="-4.409737028181553">
        <ele>1337.2</ele>
        <time>2003-04-18T14:14:26Z</time>
      </trkpt>
      <trkpt lat="32.052402002736926" lon="-4.409892009571195">
        <ele>1335.7</ele>
        <time>2003-04-18T14:14:27Z</time>
      </trkpt>
      <trkpt lat="32.0525380410254" lon="-4.41001296043396">
        <ele>1334.5</ele>
        <time>2003-04-18T14:14:27Z</time>
      </trkpt>
      <trkpt lat="32.0526900049299" lon="-4.410101976245642">
        <ele>1333.7</ele>
        <time>2003-04-18T14:14:29Z</time>
      </trkpt>
      <trkpt lat="32.053176993504167" lon="-4.41026802174747">
        <ele>1332.0999999999999</ele>
        <time>2003-04-18T14:14:31Z</time>
      </trkpt>
      <trkpt lat="32.053343039005995" lon="-4.41024798899889">
        <ele>1332</ele>
        <time>2003-04-18T14:14:33Z</time>
      </trkpt>
      <trkpt lat="32.053502965718508" lon="-4.410186968743801">
        <ele>1331.7</ele>
        <time>2003-04-18T14:14:34Z</time>
      </trkpt>
      <trkpt lat="32.053661970421672" lon="-4.410095019266009">
        <ele>1331.5</ele>
        <time>2003-04-18T14:14:34Z</time>
      </trkpt>
      <trkpt lat="32.053972017019987" lon="-4.409859990701079">
        <ele>1329.8</ele>
        <time>2003-04-18T14:14:37Z</time>
      </trkpt>
      <trkpt lat="32.054802998900414" lon="-4.409145014360547">
        <ele>1326.7</ele>
        <time>2003-04-18T14:14:42Z</time>
      </trkpt>
      <trkpt lat="32.055685026571155" lon="-4.408455016091466">
        <ele>1325.4000000000001</ele>
        <time>2003-04-18T14:14:46Z</time>
      </trkpt>
      <trkpt lat="32.056079981848598" lon="-4.408300034701824">
        <ele>1325.3</ele>
        <time>2003-04-18T14:14:49Z</time>
      </trkpt>
      <trkpt lat="32.05649203620851" lon="-4.40820699557662">
        <ele>1324.9000000000001</ele>
        <time>2003-04-18T14:14:50Z</time>
      </trkpt>
      <trkpt lat="32.057585036382079" lon="-4.40805796533823">
        <ele>1321</ele>
        <time>2003-04-18T14:14:56Z</time>
      </trkpt>
      <trkpt lat="32.05801997333765" lon="-4.407907007262111">
        <ele>1318.9000000000001</ele>
        <time>2003-04-18T14:14:58Z</time>
      </trkpt>
      <trkpt lat="32.058436973020434" lon="-4.407662004232407">
        <ele>1315.9000000000001</ele>
        <time>2003-04-18T14:15:00Z</time>
      </trkpt>
      <trkpt lat="32.059262003749609" lon="-4.407043000683188">
        <ele>1311.2</ele>
        <time>2003-04-18T14:15:04Z</time>
      </trkpt>
      <trkpt lat="32.060136990621686" lon="-4.406421985477209">
        <ele>1309.0999999999999</ele>
        <time>2003-04-18T14:15:08Z</time>
      </trkpt>
      <trkpt lat="32.061002003028989" lon="-4.405802981927991">
        <ele>1307.0999999999999</ele>
        <time>2003-04-18T14:15:12Z</time>
      </trkpt>
      <trkpt lat="32.061823010444641" lon="-4.405222032219172">
        <ele>1305.5</ele>
        <time>2003-04-18T14:15:16Z</time>
      </trkpt>
      <trkpt lat="32.062622979283333" lon="-4.404609985649586">
        <ele>1300.7</ele>
        <time>2003-04-18T14:15:20Z</time>
      </trkpt>
      <trkpt lat="32.063165036961436" lon="-4.404032975435257">
        <ele>1295.0999999999999</ele>
        <time>2003-04-18T14:15:23Z</time>
      </trkpt>
      <trkpt lat="32.063812036067247" lon="-4.403097974136472">
        <ele>1290.0999999999999</ele>
        <time>2003-04-18T14:15:27Z</time>
      </trkpt>
      <trkpt lat="32.064447971060872" lon="-4.402152998372912">
        <ele>1286.9000000000001</ele>
        <time>2003-04-18T14:15:31Z</time>
      </trkpt>
      <trkpt lat="32.065078038722277" lon="-4.401190001517534">
        <ele>1281.4000000000001</ele>
        <time>2003-04-18T14:15:35Z</time>
      </trkpt>
      <trkpt lat="32.065657982602715" lon="-4.400232033804059">
        <ele>1278.0999999999999</ele>
        <time>2003-04-18T14:15:39Z</time>
      </trkpt>
      <trkpt lat="32.065980015322566" lon="-4.399447990581393">
        <ele>1274.8</ele>
        <time>2003-04-18T14:15:41Z</time>
      </trkpt>
      <trkpt lat="32.066182019189" lon="-4.398611979559064">
        <ele>1275.5999999999999</ele>
        <time>2003-04-18T14:15:44Z</time>
      </trkpt>
      <trkpt lat="32.066272962838411" lon="-4.397758031263948">
        <ele>1275.3</ele>
        <time>2003-04-18T14:15:48Z</time>
      </trkpt>
      <trkpt lat="32.066389974206686" lon="-4.39664700999856">
        <ele>1275.8</ele>
        <time>2003-04-18T14:15:52Z</time>
      </trkpt>
      <trkpt lat="32.0665049739182" lon="-4.395567001774907">
        <ele>1275.8</ele>
        <time>2003-04-18T14:15:55Z</time>
      </trkpt>
      <trkpt lat="32.066668001934886" lon="-4.39452001824975">
        <ele>1272.5999999999999</ele>
        <time>2003-04-18T14:15:59Z</time>
      </trkpt>
      <trkpt lat="32.066845027729869" lon="-4.394036969169974">
        <ele>1271.2</ele>
        <time>2003-04-18T14:16:02Z</time>
      </trkpt>
      <trkpt lat="32.067094976082444" lon="-4.393581999465823">
        <ele>1269.5999999999999</ele>
        <time>2003-04-18T14:16:03Z</time>
      </trkpt>
      <trkpt lat="32.067714985460043" lon="-4.392712041735649">
        <ele>1265</ele>
        <time>2003-04-18T14:16:07Z</time>
      </trkpt>
      <trkpt lat="32.068338012322783" lon="-4.391803024336696">
        <ele>1256.9000000000001</ele>
        <time>2003-04-18T14:16:11Z</time>
      </trkpt>
      <trkpt lat="32.068979982286692" lon="-4.390928037464619">
        <ele>1249.3</ele>
        <time>2003-04-18T14:16:15Z</time>
      </trkpt>
      <trkpt lat="32.069333028048277" lon="-4.390550013631582">
        <ele>1245.7</ele>
        <time>2003-04-18T14:16:18Z</time>
      </trkpt>
      <trkpt lat="32.069752961397171" lon="-4.390280032530427">
        <ele>1242</ele>
        <time>2003-04-18T14:16:19Z</time>
      </trkpt>
      <trkpt lat="32.070647981017828" lon="-4.389924975112081">
        <ele>1235.4000000000001</ele>
        <time>2003-04-18T14:16:23Z</time>
      </trkpt>
      <trkpt lat="32.071258015930653" lon="-4.389562038704753">
        <ele>1231.8</ele>
        <time>2003-04-18T14:16:26Z</time>
      </trkpt>
      <trkpt lat="32.071615001186728" lon="-4.389221984893084">
        <ele>1228.5999999999999</ele>
        <time>2003-04-18T14:16:29Z</time>
      </trkpt>
      <trkpt lat="32.07249996252358" lon="-4.388493010774255">
        <ele>1217.8</ele>
        <time>2003-04-18T14:16:34Z</time>
      </trkpt>
      <trkpt lat="32.072825012728572" lon="-4.388320008292794">
        <ele>1215.2</ele>
        <time>2003-04-18T14:16:35Z</time>
      </trkpt>
      <trkpt lat="32.073145033791661" lon="-4.388235015794635">
        <ele>1212.5</ele>
        <time>2003-04-18T14:16:38Z</time>
      </trkpt>
      <trkpt lat="32.073317030444741" lon="-4.388239961117506">
        <ele>1211.2</ele>
        <time>2003-04-18T14:16:38Z</time>
      </trkpt>
      <trkpt lat="32.074317997321486" lon="-4.388384968042374">
        <ele>1205.0999999999999</ele>
        <time>2003-04-18T14:16:45Z</time>
      </trkpt>
      <trkpt lat="32.075304966419935" lon="-4.388541961088777">
        <ele>1197.8</ele>
        <time>2003-04-18T14:16:50Z</time>
      </trkpt>
      <trkpt lat="32.076233010739088" lon="-4.388613039627671">
        <ele>1195.5</ele>
        <time>2003-04-18T14:16:56Z</time>
      </trkpt>
      <trkpt lat="32.076426967978477" lon="-4.388613039627671">
        <ele>1195.5</ele>
        <time>2003-04-18T14:16:57Z</time>
      </trkpt>
      <trkpt lat="32.076622014865279" lon="-4.388614967465401">
        <ele>1194.9000000000001</ele>
        <time>2003-04-18T14:16:57Z</time>
      </trkpt>
      <trkpt lat="32.077006995677948" lon="-4.388612033799291">
        <ele>1193.5999999999999</ele>
        <time>2003-04-18T14:17:00Z</time>
      </trkpt>
      <trkpt lat="32.0779799669981" lon="-4.388550007715821">
        <ele>1190.0999999999999</ele>
        <time>2003-04-18T14:17:05Z</time>
      </trkpt>
      <trkpt lat="32.07902804017067" lon="-4.38850499689579">
        <ele>1182.8</ele>
        <time>2003-04-18T14:17:09Z</time>
      </trkpt>
      <trkpt lat="32.079442022368312" lon="-4.388429978862405">
        <ele>1179.8</ele>
        <time>2003-04-18T14:17:12Z</time>
      </trkpt>
      <trkpt lat="32.079832032322884" lon="-4.388248007744551">
        <ele>1175.8</ele>
        <time>2003-04-18T14:17:13Z</time>
      </trkpt>
      <trkpt lat="32.080181976780295" lon="-4.387978026643395">
        <ele>1174.5999999999999</ele>
        <time>2003-04-18T14:17:16Z</time>
      </trkpt>
      <trkpt lat="32.080324972048402" lon="-4.387809969484806">
        <ele>1174.5999999999999</ele>
        <time>2003-04-18T14:17:16Z</time>
      </trkpt>
      <trkpt lat="32.080563018098474" lon="-4.387422977015376">
        <ele>1173.7</ele>
        <time>2003-04-18T14:17:20Z</time>
      </trkpt>
      <trkpt lat="32.080653039738536" lon="-4.387198006734252">
        <ele>1173.4000000000001</ele>
        <time>2003-04-18T14:17:20Z</time>
      </trkpt>
      <trkpt lat="32.08102997392416" lon="-4.385967962443829">
        <ele>1170.7</ele>
        <time>2003-04-18T14:17:25Z</time>
      </trkpt>
      <trkpt lat="32.081342032179236" lon="-4.38491796143353">
        <ele>1170.3</ele>
        <time>2003-04-18T14:17:29Z</time>
      </trkpt>
      <trkpt lat="32.081717038527131" lon="-4.383711973205209">
        <ele>1171.7</ele>
        <time>2003-04-18T14:17:35Z</time>
      </trkpt>
      <trkpt lat="32.082051979377866" lon="-4.382619978860021">
        <ele>1173.2</ele>
        <time>2003-04-18T14:17:40Z</time>
      </trkpt>
      <trkpt lat="32.082230011001229" lon="-4.382240027189255">
        <ele>1174.5999999999999</ele>
        <time>2003-04-18T14:17:42Z</time>
      </trkpt>
      <trkpt lat="32.082454981282353" lon="-4.381935009732842">
        <ele>1177.7</ele>
        <time>2003-04-18T14:17:43Z</time>
      </trkpt>
      <trkpt lat="32.082594959065318" lon="-4.381814980879426">
        <ele>1179.2</ele>
        <time>2003-04-18T14:17:44Z</time>
      </trkpt>
      <trkpt lat="32.082752035930753" lon="-4.381716996431351">
        <ele>1180.5999999999999</ele>
        <time>2003-04-18T14:17:46Z</time>
      </trkpt>
      <trkpt lat="32.083422001451254" lon="-4.381390018388629">
        <ele>1185.0999999999999</ele>
        <time>2003-04-18T14:17:50Z</time>
      </trkpt>
      <trkpt lat="32.084312997758389" lon="-4.380981987342238">
        <ele>1192.2</ele>
        <time>2003-04-18T14:17:55Z</time>
      </trkpt>
      <trkpt lat="32.085269959643483" lon="-4.380527017638087">
        <ele>1194.7</ele>
        <time>2003-04-18T14:17:59Z</time>
      </trkpt>
      <trkpt lat="32.085687965154648" lon="-4.380387039855123">
        <ele>1194.0999999999999</ele>
        <time>2003-04-18T14:18:02Z</time>
      </trkpt>
      <trkpt lat="32.086362959817052" lon="-4.380272040143609">
        <ele>1192.9000000000001</ele>
        <time>2003-04-18T14:18:05Z</time>
      </trkpt>
      <trkpt lat="32.086837962269783" lon="-4.380268016830087">
        <ele>1191.9000000000001</ele>
        <time>2003-04-18T14:18:07Z</time>
      </trkpt>
      <trkpt lat="32.087561991065741" lon="-4.380379999056459">
        <ele>1191.3</ele>
        <time>2003-04-18T14:18:10Z</time>
      </trkpt>
      <trkpt lat="32.088507972657681" lon="-4.38057697378099">
        <ele>1190.2</ele>
        <time>2003-04-18T14:18:14Z</time>
      </trkpt>
      <trkpt lat="32.089468035846949" lon="-4.380785012617707">
        <ele>1188.5999999999999</ele>
        <time>2003-04-18T14:18:18Z</time>
      </trkpt>
      <trkpt lat="32.090547038242221" lon="-4.381013000383973">
        <ele>1189.8</ele>
        <time>2003-04-18T14:18:22Z</time>
      </trkpt>
      <trkpt lat="32.091257991269231" lon="-4.381102016195655">
        <ele>1190.5999999999999</ele>
        <time>2003-04-18T14:18:26Z</time>
      </trkpt>
      <trkpt lat="32.091390006244183" lon="-4.381052982062101">
        <ele>1190.7</ele>
        <time>2003-04-18T14:18:27Z</time>
      </trkpt>
      <trkpt lat="32.091501988470554" lon="-4.380967989563942">
        <ele>1191.0999999999999</ele>
        <time>2003-04-18T14:18:29Z</time>
      </trkpt>
      <trkpt lat="32.091597961261868" lon="-4.380845027044416">
        <ele>1191.0999999999999</ele>
        <time>2003-04-18T14:18:30Z</time>
      </trkpt>
      <trkpt lat="32.091678008437157" lon="-4.380694990977645">
        <ele>1191</ele>
        <time>2003-04-18T14:18:30Z</time>
      </trkpt>
      <trkpt lat="32.091741962358356" lon="-4.380528023466468">
        <ele>1190.8</ele>
        <time>2003-04-18T14:18:32Z</time>
      </trkpt>
      <trkpt lat="32.092014960944653" lon="-4.379797037690878">
        <ele>1188.5999999999999</ele>
        <time>2003-04-18T14:18:36Z</time>
      </trkpt>
      <trkpt lat="32.092217970639467" lon="-4.379447009414434">
        <ele>1186.9000000000001</ele>
        <time>2003-04-18T14:18:37Z</time>
      </trkpt>
      <trkpt lat="32.092483006417751" lon="-4.379145009443164">
        <ele>1185.3</ele>
        <time>2003-04-18T14:18:40Z</time>
      </trkpt>
      <trkpt lat="32.093158001080155" lon="-4.378415029495955">
        <ele>1180.8</ele>
        <time>2003-04-18T14:18:45Z</time>
      </trkpt>
      <trkpt lat="32.093390012159944" lon="-4.378092996776104">
        <ele>1179.0999999999999</ele>
        <time>2003-04-18T14:18:46Z</time>
      </trkpt>
      <trkpt lat="32.093567959964275" lon="-4.377712039276958">
        <ele>1178.0999999999999</ele>
        <time>2003-04-18T14:18:49Z</time>
      </trkpt>
      <trkpt lat="32.093682959675789" lon="-4.377290010452271">
        <ele>1178.7</ele>
        <time>2003-04-18T14:18:50Z</time>
      </trkpt>
      <trkpt lat="32.093874989077449" lon="-4.376188041642308">
        <ele>1177.3</ele>
        <time>2003-04-18T14:18:56Z</time>
      </trkpt>
      <trkpt lat="32.093941960483789" lon="-4.374990016222">
        <ele>1178.8</ele>
        <time>2003-04-18T14:19:01Z</time>
      </trkpt>
      <trkpt lat="32.094138013198972" lon="-4.373797019943595">
        <ele>1181.0999999999999</ele>
        <time>2003-04-18T14:19:05Z</time>
      </trkpt>
      <trkpt lat="32.094404976814985" lon="-4.372620033100247">
        <ele>1181.2</ele>
        <time>2003-04-18T14:19:11Z</time>
      </trkpt>
      <trkpt lat="32.094770008698106" lon="-4.371485039591789">
        <ele>1180.0999999999999</ele>
        <time>2003-04-18T14:19:16Z</time>
      </trkpt>
      <trkpt lat="32.095190025866032" lon="-4.37067199498415">
        <ele>1179.3</ele>
        <time>2003-04-18T14:19:20Z</time>
      </trkpt>
      <trkpt lat="32.095614988356829" lon="-4.370115017518401">
        <ele>1180.2</ele>
        <time>2003-04-18T14:19:23Z</time>
      </trkpt>
      <trkpt lat="32.096308004111052" lon="-4.369116984307766">
        <ele>1182.5</ele>
        <time>2003-04-18T14:19:28Z</time>
      </trkpt>
      <trkpt lat="32.096960032358766" lon="-4.368092967197299">
        <ele>1190.3</ele>
        <time>2003-04-18T14:19:32Z</time>
      </trkpt>
      <trkpt lat="32.097608037292957" lon="-4.367123013362289">
        <ele>1194.9000000000001</ele>
        <time>2003-04-18T14:19:38Z</time>
      </trkpt>
      <trkpt lat="32.098240032792091" lon="-4.366481965407729">
        <ele>1196.4000000000001</ele>
        <time>2003-04-18T14:19:42Z</time>
      </trkpt>
      <trkpt lat="32.098983004689217" lon="-4.36596798710525">
        <ele>1196.9000000000001</ele>
        <time>2003-04-18T14:19:46Z</time>
      </trkpt>
      <trkpt lat="32.099812980741262" lon="-4.365617958828807">
        <ele>1197.9000000000001</ele>
        <time>2003-04-18T14:19:50Z</time>
      </trkpt>
      <trkpt lat="32.100474983453751" lon="-4.365477981045842">
        <ele>1198.8</ele>
        <time>2003-04-18T14:19:53Z</time>
      </trkpt>
      <trkpt lat="32.101149978116155" lon="-4.365453002974391">
        <ele>1200.2</ele>
        <time>2003-04-18T14:19:55Z</time>
      </trkpt>
      <trkpt lat="32.102056983858347" lon="-4.365477981045842">
        <ele>1202.9000000000001</ele>
        <time>2003-04-18T14:19:59Z</time>
      </trkpt>
      <trkpt lat="32.102286983281374" lon="-4.365473035722971">
        <ele>1203.3</ele>
        <time>2003-04-18T14:20:01Z</time>
      </trkpt>
      <trkpt lat="32.103212010115385" lon="-4.365392988547683">
        <ele>1204.9000000000001</ele>
        <time>2003-04-18T14:20:05Z</time>
      </trkpt>
      <trkpt lat="32.104118010029197" lon="-4.365317970514298">
        <ele>1206.2</ele>
        <time>2003-04-18T14:20:09Z</time>
      </trkpt>
      <trkpt lat="32.105234982445836" lon="-4.365114960819483">
        <ele>1205</ele>
        <time>2003-04-18T14:20:14Z</time>
      </trkpt>
      <trkpt lat="32.106179958209395" lon="-4.36487196944654">
        <ele>1203.3</ele>
        <time>2003-04-18T14:20:18Z</time>
      </trkpt>
      <trkpt lat="32.107140021398664" lon="-4.364629983901978">
        <ele>1201.3</ele>
        <time>2003-04-18T14:20:22Z</time>
      </trkpt>
      <trkpt lat="32.108066976070404" lon="-4.364416999742389">
        <ele>1199.7</ele>
        <time>2003-04-18T14:20:25Z</time>
      </trkpt>
      <trkpt lat="32.108514988794923" lon="-4.364412976428866">
        <ele>1199.3</ele>
        <time>2003-04-18T14:20:28Z</time>
      </trkpt>
      <trkpt lat="32.109172968193889" lon="-4.364553038030863">
        <ele>1201.8</ele>
        <time>2003-04-18T14:20:30Z</time>
      </trkpt>
      <trkpt lat="32.110192961990833" lon="-4.364732997491956">
        <ele>1203.9000000000001</ele>
        <time>2003-04-18T14:20:36Z</time>
      </trkpt>
      <trkpt lat="32.110597975552082" lon="-4.364717993885279">
        <ele>1203.8</ele>
        <time>2003-04-18T14:20:37Z</time>
      </trkpt>
      <trkpt lat="32.1112169791013" lon="-4.364601988345385">
        <ele>1200.5</ele>
        <time>2003-04-18T14:20:41Z</time>
      </trkpt>
      <trkpt lat="32.112277960404754" lon="-4.364286996424198">
        <ele>1195.2</ele>
        <time>2003-04-18T14:20:45Z</time>
      </trkpt>
      <trkpt lat="32.113165017217398" lon="-4.364026989787817">
        <ele>1193.7</ele>
        <time>2003-04-18T14:20:49Z</time>
      </trkpt>
      <trkpt lat="32.114045033231378" lon="-4.363767988979816">
        <ele>1194.3</ele>
        <time>2003-04-18T14:20:53Z</time>
      </trkpt>
      <trkpt lat="32.115054968744516" lon="-4.363468000665307">
        <ele>1194.8</ele>
        <time>2003-04-18T14:20:59Z</time>
      </trkpt>
      <trkpt lat="32.115614963695407" lon="-4.363231966271997">
        <ele>1194.7</ele>
        <time>2003-04-18T14:21:01Z</time>
      </trkpt>
      <trkpt lat="32.116552982479334" lon="-4.362708013504744">
        <ele>1194.3</ele>
        <time>2003-04-18T14:21:07Z</time>
      </trkpt>
      <trkpt lat="32.116962019354105" lon="-4.36259200796485">
        <ele>1194.2</ele>
        <time>2003-04-18T14:21:08Z</time>
      </trkpt>
      <trkpt lat="32.117597032338381" lon="-4.36255001462996">
        <ele>1194.5</ele>
        <time>2003-04-18T14:21:12Z</time>
      </trkpt>
      <trkpt lat="32.118677040562034" lon="-4.362753024324775">
        <ele>1194.9000000000001</ele>
        <time>2003-04-18T14:21:16Z</time>
      </trkpt>
      <trkpt lat="32.119092028588057" lon="-4.362913034856319">
        <ele>1195.2</ele>
        <time>2003-04-18T14:21:19Z</time>
      </trkpt>
      <trkpt lat="32.120059970766306" lon="-4.363451991230249">
        <ele>1196.3</ele>
        <time>2003-04-18T14:21:23Z</time>
      </trkpt>
      <trkpt lat="32.121032020077109" lon="-4.363887012004852">
        <ele>1197</ele>
        <time>2003-04-18T14:21:28Z</time>
      </trkpt>
      <trkpt lat="32.121974984183908" lon="-4.364245003089309">
        <ele>1199.4000000000001</ele>
        <time>2003-04-18T14:21:34Z</time>
      </trkpt>
      <trkpt lat="32.122551994398236" lon="-4.364354973658919">
        <ele>1200.4000000000001</ele>
        <time>2003-04-18T14:21:36Z</time>
      </trkpt>
      <trkpt lat="32.122942004352808" lon="-4.364337958395481">
        <ele>1201.9000000000001</ele>
        <time>2003-04-18T14:21:39Z</time>
      </trkpt>
      <trkpt lat="32.123880023136735" lon="-4.364220025017858">
        <ele>1203.5999999999999</ele>
        <time>2003-04-18T14:21:43Z</time>
      </trkpt>
      <trkpt lat="32.124597011134028" lon="-4.364166967570782">
        <ele>1203</ele>
        <time>2003-04-18T14:21:47Z</time>
      </trkpt>
      <trkpt lat="32.125107971951365" lon="-4.364233016967773">
        <ele>1202.7</ele>
        <time>2003-04-18T14:21:50Z</time>
      </trkpt>
      <trkpt lat="32.125441990792751" lon="-4.364352962002158">
        <ele>1203</ele>
        <time>2003-04-18T14:21:53Z</time>
      </trkpt>
      <trkpt lat="32.125908024609089" lon="-4.364623026922345">
        <ele>1204.4000000000001</ele>
        <time>2003-04-18T14:21:55Z</time>
      </trkpt>
      <trkpt lat="32.126331981271505" lon="-4.364982023835182">
        <ele>1205.7</ele>
        <time>2003-04-18T14:21:58Z</time>
      </trkpt>
      <trkpt lat="32.127062967047095" lon="-4.365564985200763">
        <ele>1203.5</ele>
        <time>2003-04-18T14:22:03Z</time>
      </trkpt>
      <trkpt lat="32.1275669708848" lon="-4.365817029029131">
        <ele>1199.0999999999999</ele>
        <time>2003-04-18T14:22:06Z</time>
      </trkpt>
      <trkpt lat="32.127926973626018" lon="-4.365909984335303">
        <ele>1198.4000000000001</ele>
        <time>2003-04-18T14:22:09Z</time>
      </trkpt>
      <trkpt lat="32.128117997199297" lon="-4.365922976285219">
        <ele>1197.4000000000001</ele>
        <time>2003-04-18T14:22:10Z</time>
      </trkpt>
      <trkpt lat="32.128514964133501" lon="-4.365921970456839">
        <ele>1196.5</ele>
        <time>2003-04-18T14:22:12Z</time>
      </trkpt>
      <trkpt lat="32.129537975415587" lon="-4.365787021815777">
        <ele>1196.7</ele>
        <time>2003-04-18T14:22:17Z</time>
      </trkpt>
      <trkpt lat="32.130578001961112" lon="-4.365598009899259">
        <ele>1197</ele>
        <time>2003-04-18T14:22:21Z</time>
      </trkpt>
      <trkpt lat="32.131542004644871" lon="-4.365379996597767">
        <ele>1201</ele>
        <time>2003-04-18T14:22:26Z</time>
      </trkpt>
      <trkpt lat="32.132510030642152" lon="-4.365098029375076">
        <ele>1201.5999999999999</ele>
        <time>2003-04-18T14:22:32Z</time>
      </trkpt>
      <trkpt lat="32.132901968434453" lon="-4.36491496860981">
        <ele>1200.3</ele>
        <time>2003-04-18T14:22:33Z</time>
      </trkpt>
      <trkpt lat="32.133915005251765" lon="-4.364399984478951">
        <ele>1197.8</ele>
        <time>2003-04-18T14:22:39Z</time>
      </trkpt>
      <trkpt lat="32.134778006002307" lon="-4.364036964252591">
        <ele>1195.3</ele>
        <time>2003-04-18T14:22:43Z</time>
      </trkpt>
      <trkpt lat="32.135632038116455" lon="-4.363676961511374">
        <ele>1195.9000000000001</ele>
        <time>2003-04-18T14:22:47Z</time>
      </trkpt>
      <trkpt lat="32.136067980900407" lon="-4.363558022305369">
        <ele>1196.3</ele>
        <time>2003-04-18T14:22:48Z</time>
      </trkpt>
      <trkpt lat="32.137180007994175" lon="-4.363417960703373">
        <ele>1195.8</ele>
        <time>2003-04-18T14:22:53Z</time>
      </trkpt>
      <trkpt lat="32.138082990422845" lon="-4.363403040915728">
        <ele>1196.3</ele>
        <time>2003-04-18T14:22:57Z</time>
      </trkpt>
      <trkpt lat="32.139141960069537" lon="-4.363370016217232">
        <ele>1197</ele>
        <time>2003-04-18T14:23:03Z</time>
      </trkpt>
      <trkpt lat="32.140081990510225" lon="-4.363362975418568">
        <ele>1197.9000000000001</ele>
        <time>2003-04-18T14:23:07Z</time>
      </trkpt>
      <trkpt lat="32.14026496745646" lon="-4.363403040915728">
        <ele>1197.9000000000001</ele>
        <time>2003-04-18T14:23:08Z</time>
      </trkpt>
      <trkpt lat="32.140622036531568" lon="-4.363547964021564">
        <ele>1199.3</ele>
        <time>2003-04-18T14:23:11Z</time>
      </trkpt>
      <trkpt lat="32.141517978161573" lon="-4.364015003666282">
        <ele>1200.9000000000001</ele>
        <time>2003-04-18T14:23:15Z</time>
      </trkpt>
      <trkpt lat="32.142494972795248" lon="-4.364444995298982">
        <ele>1201.5</ele>
        <time>2003-04-18T14:23:20Z</time>
      </trkpt>
      <trkpt lat="32.14352703653276" lon="-4.364887978881598">
        <ele>1202.2</ele>
        <time>2003-04-18T14:23:26Z</time>
      </trkpt>
      <trkpt lat="32.144575025886297" lon="-4.365357030183077">
        <ele>1198.9000000000001</ele>
        <time>2003-04-18T14:23:31Z</time>
      </trkpt>
      <trkpt lat="32.1451620105654" lon="-4.365776963531971">
        <ele>1200</ele>
        <time>2003-04-18T14:23:34Z</time>
      </trkpt>
      <trkpt lat="32.145910011604428" lon="-4.36641700565815">
        <ele>1200.7</ele>
        <time>2003-04-18T14:23:38Z</time>
      </trkpt>
      <trkpt lat="32.146394988521934" lon="-4.366992004215717">
        <ele>1201.3</ele>
        <time>2003-04-18T14:23:41Z</time>
      </trkpt>
      <trkpt lat="32.146775024011731" lon="-4.367653001099825">
        <ele>1201.2</ele>
        <time>2003-04-18T14:23:43Z</time>
      </trkpt>
      <trkpt lat="32.146948026493192" lon="-4.368145018815994">
        <ele>1200.9000000000001</ele>
        <time>2003-04-18T14:23:46Z</time>
      </trkpt>
      <trkpt lat="32.147108037024736" lon="-4.3689080234617">
        <ele>1201.4000000000001</ele>
        <time>2003-04-18T14:23:49Z</time>
      </trkpt>
      <trkpt lat="32.147363014519215" lon="-4.370167991146445">
        <ele>1200.5999999999999</ele>
        <time>2003-04-18T14:23:54Z</time>
      </trkpt>
      <trkpt lat="32.147672977298498" lon="-4.371340032666922">
        <ele>1203.8</ele>
        <time>2003-04-18T14:23:58Z</time>
      </trkpt>
      <trkpt lat="32.14787196367979" lon="-4.371749991551042">
        <ele>1205.8</ele>
        <time>2003-04-18T14:24:01Z</time>
      </trkpt>
      <trkpt lat="32.148131970316172" lon="-4.372117035090923">
        <ele>1207</ele>
        <time>2003-04-18T14:24:02Z</time>
      </trkpt>
      <trkpt lat="32.148803025484085" lon="-4.373017000034452">
        <ele>1212</ele>
        <time>2003-04-18T14:24:08Z</time>
      </trkpt>
      <trkpt lat="32.149467961862683" lon="-4.373857034370303">
        <ele>1215.7</ele>
        <time>2003-04-18T14:24:13Z</time>
      </trkpt>
      <trkpt lat="32.149940030649304" lon="-4.374266993254423">
        <ele>1217.5</ele>
        <time>2003-04-18T14:24:16Z</time>
      </trkpt>
      <trkpt lat="32.150470018386841" lon="-4.374597994610667">
        <ele>1218.7</ele>
        <time>2003-04-18T14:24:18Z</time>
      </trkpt>
      <trkpt lat="32.151057003065944" lon="-4.37481701374054">
        <ele>1220.5</ele>
        <time>2003-04-18T14:24:21Z</time>
      </trkpt>
      <trkpt lat="32.152019999921322" lon="-4.375062016770244">
        <ele>1222.8</ele>
        <time>2003-04-18T14:24:27Z</time>
      </trkpt>
      <trkpt lat="32.152372039854527" lon="-4.375086994841695">
        <ele>1222.9000000000001</ele>
        <time>2003-04-18T14:24:28Z</time>
      </trkpt>
      <trkpt lat="32.152551999315619" lon="-4.375056987628341">
        <ele>1223.2</ele>
        <time>2003-04-18T14:24:29Z</time>
      </trkpt>
      <trkpt lat="32.153072012588382" lon="-4.374894965440035">
        <ele>1223.5</ele>
        <time>2003-04-18T14:24:32Z</time>
      </trkpt>
      <trkpt lat="32.153375018388033" lon="-4.374684998765588">
        <ele>1223.2</ele>
        <time>2003-04-18T14:24:35Z</time>
      </trkpt>
      <trkpt lat="32.153652040287852" lon="-4.374402025714517">
        <ele>1222.5</ele>
        <time>2003-04-18T14:24:36Z</time>
      </trkpt>
      <trkpt lat="32.153874998912215" lon="-4.374068006873131">
        <ele>1221.4000000000001</ele>
        <time>2003-04-18T14:24:39Z</time>
      </trkpt>
      <trkpt lat="32.153963008895516" lon="-4.37387497164309">
        <ele>1221.0999999999999</ele>
        <time>2003-04-18T14:24:40Z</time>
      </trkpt>
      <trkpt lat="32.154026962816715" lon="-4.373672967776656">
        <ele>1221</ele>
        <time>2003-04-18T14:24:40Z</time>
      </trkpt>
      <trkpt lat="32.15416501276195" lon="-4.373001996427774">
        <ele>1219.9000000000001</ele>
        <time>2003-04-18T14:24:44Z</time>
      </trkpt>
      <trkpt lat="32.154346983879805" lon="-4.37183297239244">
        <ele>1219.2</ele>
        <time>2003-04-18T14:24:48Z</time>
      </trkpt>
      <trkpt lat="32.154370034113526" lon="-4.371346989646554">
        <ele>1219.4000000000001</ele>
        <time>2003-04-18T14:24:51Z</time>
      </trkpt>
      <trkpt lat="32.154365004971623" lon="-4.370055003091693">
        <ele>1218.7</ele>
        <time>2003-04-18T14:24:55Z</time>
      </trkpt>
      <trkpt lat="32.154412027448416" lon="-4.368942975997925">
        <ele>1217.5</ele>
        <time>2003-04-18T14:24:59Z</time>
      </trkpt>
      <trkpt lat="32.154489979147911" lon="-4.367821980267763">
        <ele>1216.8</ele>
        <time>2003-04-18T14:25:03Z</time>
      </trkpt>
      <trkpt lat="32.154710004106164" lon="-4.366744989529252">
        <ele>1216.9000000000001</ele>
        <time>2003-04-18T14:25:07Z</time>
      </trkpt>
      <trkpt lat="32.155013009905815" lon="-4.365994976833463">
        <ele>1216.4000000000001</ele>
        <time>2003-04-18T14:25:11Z</time>
      </trkpt>
      <trkpt lat="32.155507961288095" lon="-4.365083025768399">
        <ele>1216.0999999999999</ele>
        <time>2003-04-18T14:25:15Z</time>
      </trkpt>
      <trkpt lat="32.155823037028313" lon="-4.364693015813828">
        <ele>1215.5999999999999</ele>
        <time>2003-04-18T14:25:17Z</time>
      </trkpt>
      <trkpt lat="32.156370040029287" lon="-4.364196974784136">
        <ele>1215.5999999999999</ele>
        <time>2003-04-18T14:25:19Z</time>
      </trkpt>
      <trkpt lat="32.157145030796528" lon="-4.363655000925064">
        <ele>1219</ele>
        <time>2003-04-18T14:25:23Z</time>
      </trkpt>
      <trkpt lat="32.157727992162108" lon="-4.363351995125413">
        <ele>1223.2</ele>
        <time>2003-04-18T14:25:26Z</time>
      </trkpt>
      <trkpt lat="32.158326962962747" lon="-4.363164994865656">
        <ele>1226.5</ele>
        <time>2003-04-18T14:25:30Z</time>
      </trkpt>
      <trkpt lat="32.158723007887602" lon="-4.363113027065992">
        <ele>1228.0999999999999</ele>
        <time>2003-04-18T14:25:31Z</time>
      </trkpt>
      <trkpt lat="32.159711988642812" lon="-4.363115038722754">
        <ele>1230.5</ele>
        <time>2003-04-18T14:25:37Z</time>
      </trkpt>
      <trkpt lat="32.160099986940622" lon="-4.363202964887023">
        <ele>1230.3</ele>
        <time>2003-04-18T14:25:38Z</time>
      </trkpt>
      <trkpt lat="32.160678002983332" lon="-4.36345299705863">
        <ele>1228.9000000000001</ele>
        <time>2003-04-18T14:25:42Z</time>
      </trkpt>
      <trkpt lat="32.161700008437037" lon="-4.364009974524379">
        <ele>1225.9000000000001</ele>
        <time>2003-04-18T14:25:46Z</time>
      </trkpt>
      <trkpt lat="32.162511963397264" lon="-4.364669965580106">
        <ele>1223.8</ele>
        <time>2003-04-18T14:25:50Z</time>
      </trkpt>
      <trkpt lat="32.16331503354013" lon="-4.365502959117293">
        <ele>1221.3</ele>
        <time>2003-04-18T14:25:54Z</time>
      </trkpt>
      <trkpt lat="32.164173005148768" lon="-4.366317009553313">
        <ele>1220.9000000000001</ele>
        <time>2003-04-18T14:25:58Z</time>
      </trkpt>
      <trkpt lat="32.165067018941045" lon="-4.367099963128567">
        <ele>1223.7</ele>
        <time>2003-04-18T14:26:02Z</time>
      </trkpt>
      <trkpt lat="32.165851984173059" lon="-4.367972016334534">
        <ele>1232.5</ele>
        <time>2003-04-18T14:26:06Z</time>
      </trkpt>
      <trkpt lat="32.166596967726946" lon="-4.368748012930155">
        <ele>1239.5999999999999</ele>
        <time>2003-04-18T14:26:11Z</time>
      </trkpt>
      <trkpt lat="32.167325019836426" lon="-4.369698017835617">
        <ele>1247.3</ele>
        <time>2003-04-18T14:26:16Z</time>
      </trkpt>
      <trkpt lat="32.16759298928082" lon="-4.370239991694689">
        <ele>1250.0999999999999</ele>
        <time>2003-04-18T14:26:19Z</time>
      </trkpt>
      <trkpt lat="32.167813014239073" lon="-4.370497986674309">
        <ele>1252.2</ele>
        <time>2003-04-18T14:26:20Z</time>
      </trkpt>
      <trkpt lat="32.167947962880135" lon="-4.370593037456274">
        <ele>1252.7</ele>
        <time>2003-04-18T14:26:21Z</time>
      </trkpt>
      <trkpt lat="32.16834501363337" lon="-4.370818007737398">
        <ele>1253.3</ele>
        <time>2003-04-18T14:26:24Z</time>
      </trkpt>
      <trkpt lat="32.16849697753787" lon="-4.370837034657598">
        <ele>1253.5</ele>
        <time>2003-04-18T14:26:25Z</time>
      </trkpt>
      <trkpt lat="32.168652964755893" lon="-4.370812978595495">
        <ele>1253.5</ele>
        <time>2003-04-18T14:26:27Z</time>
      </trkpt>
      <trkpt lat="32.168801994994283" lon="-4.370766961947084">
        <ele>1253.2</ele>
        <time>2003-04-18T14:26:28Z</time>
      </trkpt>
      <trkpt lat="32.168933004140854" lon="-4.370677024126053">
        <ele>1252.9000000000001</ele>
        <time>2003-04-18T14:26:28Z</time>
      </trkpt>
      <trkpt lat="32.16905202716589" lon="-4.370565041899681">
        <ele>1252.7</ele>
        <time>2003-04-18T14:26:29Z</time>
      </trkpt>
      <trkpt lat="32.169278003275394" lon="-4.370300006121397">
        <ele>1250.9000000000001</ele>
        <time>2003-04-18T14:26:32Z</time>
      </trkpt>
      <trkpt lat="32.169802961871028" lon="-4.369587041437626">
        <ele>1244.8</ele>
        <time>2003-04-18T14:26:36Z</time>
      </trkpt>
      <trkpt lat="32.169847972691059" lon="-4.36940498650074">
        <ele>1243.9000000000001</ele>
        <time>2003-04-18T14:26:38Z</time>
      </trkpt>
      <trkpt lat="32.169997002929449" lon="-4.368867035955191">
        <ele>1242.3</ele>
        <time>2003-04-18T14:26:40Z</time>
      </trkpt>
      <trkpt lat="32.170087024569511" lon="-4.368707025423646">
        <ele>1242.5</ele>
        <time>2003-04-18T14:26:42Z</time>
      </trkpt>
      <trkpt lat="32.170198000967503" lon="-4.36856696382165">
        <ele>1242.9000000000001</ele>
        <time>2003-04-18T14:26:43Z</time>
      </trkpt>
      <trkpt lat="32.170328004285693" lon="-4.368451964110136">
        <ele>1244.2</ele>
        <time>2003-04-18T14:26:43Z</time>
      </trkpt>
      <trkpt lat="32.171123027801514" lon="-4.367883000522852">
        <ele>1250.9000000000001</ele>
        <time>2003-04-18T14:26:50Z</time>
      </trkpt>
      <trkpt lat="32.171267028898001" lon="-4.367832038551569">
        <ele>1252.3</ele>
        <time>2003-04-18T14:26:51Z</time>
      </trkpt>
      <trkpt lat="32.171556958928704" lon="-4.3677700124681">
        <ele>1253.0999999999999</ele>
        <time>2003-04-18T14:26:52Z</time>
      </trkpt>
      <trkpt lat="32.171701965853572" lon="-4.367775041610003">
        <ele>1253.8</ele>
        <time>2003-04-18T14:26:54Z</time>
      </trkpt>
      <trkpt lat="32.171991979703307" lon="-4.367791973054409">
        <ele>1254.7</ele>
        <time>2003-04-18T14:26:55Z</time>
      </trkpt>
      <trkpt lat="32.172134974971414" lon="-4.36779297888279">
        <ele>1255.3</ele>
        <time>2003-04-18T14:26:56Z</time>
      </trkpt>
      <trkpt lat="32.172279981896281" lon="-4.36779297888279">
        <ele>1256</ele>
        <time>2003-04-18T14:26:59Z</time>
      </trkpt>
      <trkpt lat="32.172569995746017" lon="-4.367818040773273">
        <ele>1255.9000000000001</ele>
        <time>2003-04-18T14:26:59Z</time>
      </trkpt>
      <trkpt lat="32.173024965450168" lon="-4.367915019392967">
        <ele>1255.9000000000001</ele>
        <time>2003-04-18T14:27:03Z</time>
      </trkpt>
      <trkpt lat="32.173165027052164" lon="-4.368000011891127">
        <ele>1255.9000000000001</ele>
        <time>2003-04-18T14:27:03Z</time>
      </trkpt>
      <trkpt lat="32.173295030370355" lon="-4.368111994117498">
        <ele>1255.9000000000001</ele>
        <time>2003-04-18T14:27:05Z</time>
      </trkpt>
      <trkpt lat="32.173998020589352" lon="-4.369142968207598">
        <ele>1275.0999999999999</ele>
        <time>2003-04-18T14:27:09Z</time>
      </trkpt>
      <trkpt lat="32.174040013924241" lon="-4.369308007881045">
        <ele>1285.3</ele>
        <time>2003-04-18T14:27:10Z</time>
      </trkpt>
      <trkpt lat="32.173717981204391" lon="-4.369052024558187">
        <ele>1298.0999999999999</ele>
        <time>2003-04-18T14:27:11Z</time>
      </trkpt>
      <trkpt lat="32.173837004229426" lon="-4.369213040918112">
        <ele>1301.8</ele>
        <time>2003-04-18T14:27:11Z</time>
      </trkpt>
      <trkpt lat="32.173937000334263" lon="-4.369222009554505">
        <ele>1301.8</ele>
        <time>2003-04-18T14:27:13Z</time>
      </trkpt>
      <trkpt lat="32.174047976732254" lon="-4.369216980412602">
        <ele>1303.9000000000001</ele>
        <time>2003-04-18T14:27:14Z</time>
      </trkpt>
      <trkpt lat="32.174130035564303" lon="-4.369132993742824">
        <ele>1300.0999999999999</ele>
        <time>2003-04-18T14:27:14Z</time>
      </trkpt>
      <trkpt lat="32.174194995313883" lon="-4.369027968496084">
        <ele>1299</ele>
        <time>2003-04-18T14:27:15Z</time>
      </trkpt>
      <trkpt lat="32.17423296533525" lon="-4.368899976834655">
        <ele>1298.5</ele>
        <time>2003-04-18T14:27:17Z</time>
      </trkpt>
      <trkpt lat="32.174236988648772" lon="-4.368762010708451">
        <ele>1298.0999999999999</ele>
        <time>2003-04-18T14:27:18Z</time>
      </trkpt>
      <trkpt lat="32.174261966720223" lon="-4.368335036560893">
        <ele>1296.0999999999999</ele>
        <time>2003-04-18T14:27:21Z</time>
      </trkpt>
      <trkpt lat="32.174303038045764" lon="-4.368175026029348">
        <ele>1295.0999999999999</ele>
        <time>2003-04-18T14:27:22Z</time>
      </trkpt>
      <trkpt lat="32.174367997795343" lon="-4.367828015238047">
        <ele>1293.4000000000001</ele>
        <time>2003-04-18T14:27:23Z</time>
      </trkpt>
      <trkpt lat="32.174552986398339" lon="-4.366856971755624">
        <ele>1289.4000000000001</ele>
        <time>2003-04-18T14:27:30Z</time>
      </trkpt>
      <trkpt lat="32.174637978896499" lon="-4.366750018671155">
        <ele>1288.3</ele>
        <time>2003-04-18T14:27:30Z</time>
      </trkpt>
      <trkpt lat="32.174947019666433" lon="-4.366365037858486">
        <ele>1285.5</ele>
        <time>2003-04-18T14:27:34Z</time>
      </trkpt>
      <trkpt lat="32.175041986629367" lon="-4.366124980151653">
        <ele>1284.5999999999999</ele>
        <time>2003-04-18T14:27:37Z</time>
      </trkpt>
      <trkpt lat="32.175086997449398" lon="-4.365857010707259">
        <ele>1283</ele>
        <time>2003-04-18T14:27:38Z</time>
      </trkpt>
      <trkpt lat="32.175147011876106" lon="-4.365140022709966">
        <ele>1278.5</ele>
        <time>2003-04-18T14:27:44Z</time>
      </trkpt>
      <trkpt lat="32.175354966893792" lon="-4.36456804163754">
        <ele>1273</ele>
        <time>2003-04-18T14:27:48Z</time>
      </trkpt>
      <trkpt lat="32.175674987956882" lon="-4.363791961222887">
        <ele>1266</ele>
        <time>2003-04-18T14:27:53Z</time>
      </trkpt>
      <trkpt lat="32.175786970183253" lon="-4.363594986498356">
        <ele>1264</ele>
        <time>2003-04-18T14:27:56Z</time>
      </trkpt>
      <trkpt lat="32.175874980166554" lon="-4.363524997606874">
        <ele>1263.5999999999999</ele>
        <time>2003-04-18T14:27:57Z</time>
      </trkpt>
      <trkpt lat="32.175974976271391" lon="-4.363472023978829">
        <ele>1263.2</ele>
        <time>2003-04-18T14:27:57Z</time>
      </trkpt>
      <trkpt lat="32.176262978464365" lon="-4.363267002627254">
        <ele>1261</ele>
        <time>2003-04-18T14:28:01Z</time>
      </trkpt>
      <trkpt lat="32.176887011155486" lon="-4.362723017111421">
        <ele>1257.3</ele>
        <time>2003-04-18T14:28:08Z</time>
      </trkpt>
      <trkpt lat="32.17702497728169" lon="-4.362665014341474">
        <ele>1257.3</ele>
        <time>2003-04-18T14:28:08Z</time>
      </trkpt>
      <trkpt lat="32.177178030833602" lon="-4.362626960501075">
        <ele>1257</ele>
        <time>2003-04-18T14:28:08Z</time>
      </trkpt>
      <trkpt lat="32.177341980859637" lon="-4.36261204071343">
        <ele>1255.5999999999999</ele>
        <time>2003-04-18T14:28:09Z</time>
      </trkpt>
      <trkpt lat="32.177671976387501" lon="-4.362610029056668">
        <ele>1254</ele>
        <time>2003-04-18T14:28:12Z</time>
      </trkpt>
      <trkpt lat="32.177986968308687" lon="-4.362659985199571">
        <ele>1253.3</ele>
        <time>2003-04-18T14:28:13Z</time>
      </trkpt>
      <trkpt lat="32.178866984322667" lon="-4.36285000294447">
        <ele>1250.4000000000001</ele>
        <time>2003-04-18T14:28:20Z</time>
      </trkpt>
      <trkpt lat="32.179380040615797" lon="-4.362898031249642">
        <ele>1249.0999999999999</ele>
        <time>2003-04-18T14:28:24Z</time>
      </trkpt>
      <trkpt lat="32.179633006453514" lon="-4.362853020429611">
        <ele>1248.5</ele>
        <time>2003-04-18T14:28:27Z</time>
      </trkpt>
      <trkpt lat="32.180328033864498" lon="-4.362652022391558">
        <ele>1247.7</ele>
        <time>2003-04-18T14:28:31Z</time>
      </trkpt>
      <trkpt lat="32.180491983890533" lon="-4.362667025998235">
        <ele>1247.4000000000001</ele>
        <time>2003-04-18T14:28:32Z</time>
      </trkpt>
      <trkpt lat="32.181003028526902" lon="-4.362740032374859">
        <ele>1247.7</ele>
        <time>2003-04-18T14:28:35Z</time>
      </trkpt>
      <trkpt lat="32.181935012340546" lon="-4.363115038722754">
        <ele>1247.9000000000001</ele>
        <time>2003-04-18T14:28:40Z</time>
      </trkpt>
      <trkpt lat="32.18228998593986" lon="-4.363360041752458">
        <ele>1248.2</ele>
        <time>2003-04-18T14:28:43Z</time>
      </trkpt>
      <trkpt lat="32.18278300948441" lon="-4.363849963992834">
        <ele>1247.5</ele>
        <time>2003-04-18T14:28:46Z</time>
      </trkpt>
      <trkpt lat="32.1835330221802" lon="-4.36474003829062">
        <ele>1244.8</ele>
        <time>2003-04-18T14:28:51Z</time>
      </trkpt>
      <trkpt lat="32.184299966320395" lon="-4.365606978535652">
        <ele>1241.5</ele>
        <time>2003-04-18T14:28:55Z</time>
      </trkpt>
      <trkpt lat="32.185034975409508" lon="-4.366275016218424">
        <ele>1238.8</ele>
        <time>2003-04-18T14:28:59Z</time>
      </trkpt>
      <trkpt lat="32.185894958674908" lon="-4.366937018930912">
        <ele>1234.5999999999999</ele>
        <time>2003-04-18T14:29:03Z</time>
      </trkpt>
      <trkpt lat="32.186789978295565" lon="-4.367602961137891">
        <ele>1234.7</ele>
        <time>2003-04-18T14:29:07Z</time>
      </trkpt>
      <trkpt lat="32.187712993472815" lon="-4.368284996598959">
        <ele>1234.9000000000001</ele>
        <time>2003-04-18T14:29:11Z</time>
      </trkpt>
      <trkpt lat="32.188646988943219" lon="-4.368984969332814">
        <ele>1237.9000000000001</ele>
        <time>2003-04-18T14:29:15Z</time>
      </trkpt>
      <trkpt lat="32.189518036320806" lon="-4.369755014777184">
        <ele>1239.5</ele>
        <time>2003-04-18T14:29:20Z</time>
      </trkpt>
      <trkpt lat="32.190337032079697" lon="-4.370641987770796">
        <ele>1239.4000000000001</ele>
        <time>2003-04-18T14:29:24Z</time>
      </trkpt>
      <trkpt lat="32.191134989261627" lon="-4.371546981856227">
        <ele>1241.8</ele>
        <time>2003-04-18T14:29:28Z</time>
      </trkpt>
      <trkpt lat="32.191930012777448" lon="-4.37243496067822">
        <ele>1244</ele>
        <time>2003-04-18T14:29:32Z</time>
      </trkpt>
      <trkpt lat="32.192702991887927" lon="-4.373326962813735">
        <ele>1247.2</ele>
        <time>2003-04-18T14:29:36Z</time>
      </trkpt>
      <trkpt lat="32.193479994311929" lon="-4.374198010191321">
        <ele>1248.7</ele>
        <time>2003-04-18T14:29:40Z</time>
      </trkpt>
      <trkpt lat="32.194245010614395" lon="-4.375048018991947">
        <ele>1250.8</ele>
        <time>2003-04-18T14:29:44Z</time>
      </trkpt>
      <trkpt lat="32.194989994168282" lon="-4.375901967287064">
        <ele>1249.5999999999999</ele>
        <time>2003-04-18T14:29:48Z</time>
      </trkpt>
      <trkpt lat="32.195776971057057" lon="-4.376766979694367">
        <ele>1248.5</ele>
        <time>2003-04-18T14:29:52Z</time>
      </trkpt>
      <trkpt lat="32.196666961535811" lon="-4.377527972683311">
        <ele>1247.9000000000001</ele>
        <time>2003-04-18T14:29:56Z</time>
      </trkpt>
      <trkpt lat="32.197621995583177" lon="-4.378231968730688">
        <ele>1247.4000000000001</ele>
        <time>2003-04-18T14:30:00Z</time>
      </trkpt>
      <trkpt lat="32.198564959689975" lon="-4.378969995304942">
        <ele>1247.8</ele>
        <time>2003-04-18T14:30:04Z</time>
      </trkpt>
      <trkpt lat="32.199489986523986" lon="-4.379702992737293">
        <ele>1249.4000000000001</ele>
        <time>2003-04-18T14:30:08Z</time>
      </trkpt>
      <trkpt lat="32.200403027236462" lon="-4.380432972684503">
        <ele>1248.9000000000001</ele>
        <time>2003-04-18T14:30:12Z</time>
      </trkpt>
      <trkpt lat="32.201332999393344" lon="-4.381139986217022">
        <ele>1251</ele>
        <time>2003-04-18T14:30:16Z</time>
      </trkpt>
      <trkpt lat="32.202260037884116" lon="-4.381859991699457">
        <ele>1251.7</ele>
        <time>2003-04-18T14:30:19Z</time>
      </trkpt>
      <trkpt lat="32.203169977292418" lon="-4.382583014667034">
        <ele>1252.9000000000001</ele>
        <time>2003-04-18T14:30:23Z</time>
      </trkpt>
      <trkpt lat="32.20407497137785" lon="-4.38330695964396">
        <ele>1254.5</ele>
        <time>2003-04-18T14:30:27Z</time>
      </trkpt>
      <trkpt lat="32.204993041232228" lon="-4.384016990661621">
        <ele>1255.2</ele>
        <time>2003-04-18T14:30:31Z</time>
      </trkpt>
      <trkpt lat="32.205910021439195" lon="-4.384738001972437">
        <ele>1256.3</ele>
        <time>2003-04-18T14:30:35Z</time>
      </trkpt>
      <trkpt lat="32.206830019131303" lon="-4.385460019111633">
        <ele>1257.7</ele>
        <time>2003-04-18T14:30:39Z</time>
      </trkpt>
      <trkpt lat="32.207750016823411" lon="-4.386187987402082">
        <ele>1259</ele>
        <time>2003-04-18T14:30:43Z</time>
      </trkpt>
      <trkpt lat="32.208673032000661" lon="-4.386912016198039">
        <ele>1260.3</ele>
        <time>2003-04-18T14:30:47Z</time>
      </trkpt>
      <trkpt lat="32.209612978622317" lon="-4.387609977275133">
        <ele>1261.2</ele>
        <time>2003-04-18T14:30:51Z</time>
      </trkpt>
      <trkpt lat="32.210612017661333" lon="-4.388211965560913">
        <ele>1261.7</ele>
        <time>2003-04-18T14:30:55Z</time>
      </trkpt>
      <trkpt lat="32.211652966216207" lon="-4.38876198604703">
        <ele>1261.4000000000001</ele>
        <time>2003-04-18T14:30:59Z</time>
      </trkpt>
      <trkpt lat="32.212687963619828" lon="-4.389346959069371">
        <ele>1263.8</ele>
        <time>2003-04-18T14:31:03Z</time>
      </trkpt>
      <trkpt lat="32.213730001822114" lon="-4.389918018132448">
        <ele>1263.5</ele>
        <time>2003-04-18T14:31:08Z</time>
      </trkpt>
      <trkpt lat="32.214782014489174" lon="-4.39050299115479">
        <ele>1263.5</ele>
        <time>2003-04-18T14:31:12Z</time>
      </trkpt>
      <trkpt lat="32.215832015499473" lon="-4.391087964177132">
        <ele>1264</ele>
        <time>2003-04-18T14:31:16Z</time>
      </trkpt>
      <trkpt lat="32.216883022338152" lon="-4.391660029068589">
        <ele>1263.8</ele>
        <time>2003-04-18T14:31:20Z</time>
      </trkpt>
      <trkpt lat="32.217926988378167" lon="-4.392241984605789">
        <ele>1263.7</ele>
        <time>2003-04-18T14:31:24Z</time>
      </trkpt>
      <trkpt lat="32.218971960246563" lon="-4.39282301813364">
        <ele>1263.7</ele>
        <time>2003-04-18T14:31:28Z</time>
      </trkpt>
      <trkpt lat="32.220021961256862" lon="-4.393391981720924">
        <ele>1265</ele>
        <time>2003-04-18T14:31:32Z</time>
      </trkpt>
      <trkpt lat="32.221052013337612" lon="-4.393975026905537">
        <ele>1265.5</ele>
        <time>2003-04-18T14:31:36Z</time>
      </trkpt>
      <trkpt lat="32.222087010741234" lon="-4.394547007977963">
        <ele>1265.5999999999999</ele>
        <time>2003-04-18T14:31:40Z</time>
      </trkpt>
      <trkpt lat="32.223112033680081" lon="-4.395112032070756">
        <ele>1266.0999999999999</ele>
        <time>2003-04-18T14:31:44Z</time>
      </trkpt>
      <trkpt lat="32.224090034142137" lon="-4.395647970959544">
        <ele>1266.3</ele>
        <time>2003-04-18T14:31:48Z</time>
      </trkpt>
      <trkpt lat="32.225038027390838" lon="-4.396179970353842">
        <ele>1265.9000000000001</ele>
        <time>2003-04-18T14:31:52Z</time>
      </trkpt>
      <trkpt lat="32.226006975397468" lon="-4.396708030253649">
        <ele>1266</ele>
        <time>2003-04-18T14:31:56Z</time>
      </trkpt>
      <trkpt lat="32.226982964202762" lon="-4.397252015769482">
        <ele>1266.2</ele>
        <time>2003-04-18T14:32:00Z</time>
      </trkpt>
      <trkpt lat="32.227958030998707" lon="-4.397800024598837">
        <ele>1266</ele>
        <time>2003-04-18T14:32:04Z</time>
      </trkpt>
      <trkpt lat="32.228941982612014" lon="-4.398333029821515">
        <ele>1265.8</ele>
        <time>2003-04-18T14:32:07Z</time>
      </trkpt>
      <trkpt lat="32.229928029701114" lon="-4.398862011730671">
        <ele>1264.9000000000001</ele>
        <time>2003-04-18T14:32:11Z</time>
      </trkpt>
      <trkpt lat="32.230697991326451" lon="-4.399140039458871">
        <ele>1264</ele>
        <time>2003-04-18T14:32:15Z</time>
      </trkpt>
      <trkpt lat="32.231787974014878" lon="-4.399350006133318">
        <ele>1263.5</ele>
        <time>2003-04-18T14:32:19Z</time>
      </trkpt>
      <trkpt lat="32.232332965359092" lon="-4.399335002526641">
        <ele>1263.5999999999999</ele>
        <time>2003-04-18T14:32:20Z</time>
      </trkpt>
      <trkpt lat="32.233435017988086" lon="-4.399178009480238">
        <ele>1263.5999999999999</ele>
        <time>2003-04-18T14:32:24Z</time>
      </trkpt>
      <trkpt lat="32.23424001596868" lon="-4.398901993408799">
        <ele>1263.7</ele>
        <time>2003-04-18T14:32:27Z</time>
      </trkpt>
      <trkpt lat="32.235286999493837" lon="-4.398381980136037">
        <ele>1263.5</ele>
        <time>2003-04-18T14:32:31Z</time>
      </trkpt>
      <trkpt lat="32.236316967755556" lon="-4.397792983800173">
        <ele>1263.5999999999999</ele>
        <time>2003-04-18T14:32:35Z</time>
      </trkpt>
      <trkpt lat="32.237307960167527" lon="-4.397250004112721">
        <ele>1263.5999999999999</ele>
        <time>2003-04-18T14:32:39Z</time>
      </trkpt>
      <trkpt lat="32.238223012536764" lon="-4.396738037467003">
        <ele>1263.8</ele>
        <time>2003-04-18T14:32:43Z</time>
      </trkpt>
      <trkpt lat="32.239132029935718" lon="-4.396254988387227">
        <ele>1263.9000000000001</ele>
        <time>2003-04-18T14:32:47Z</time>
      </trkpt>
      <trkpt lat="32.240005005151033" lon="-4.395757019519806">
        <ele>1264.9000000000001</ele>
        <time>2003-04-18T14:32:51Z</time>
      </trkpt>
      <trkpt lat="32.240998009219766" lon="-4.395199958235025">
        <ele>1266.5</ele>
        <time>2003-04-18T14:32:57Z</time>
      </trkpt>
      <trkpt lat="32.24197500385344" lon="-4.394657984375954">
        <ele>1267.4000000000001</ele>
        <time>2003-04-18T14:33:01Z</time>
      </trkpt>
      <trkpt lat="32.242970019578934" lon="-4.394107041880488">
        <ele>1268.3</ele>
        <time>2003-04-18T14:33:06Z</time>
      </trkpt>
      <trkpt lat="32.243802007287741" lon="-4.39366196282208">
        <ele>1268.5999999999999</ele>
        <time>2003-04-18T14:33:10Z</time>
      </trkpt>
      <trkpt lat="32.244653021916747" lon="-4.393187966197729">
        <ele>1269.4000000000001</ele>
        <time>2003-04-18T14:33:14Z</time>
      </trkpt>
      <trkpt lat="32.245502024888992" lon="-4.392705000936985">
        <ele>1269.9000000000001</ele>
        <time>2003-04-18T14:33:18Z</time>
      </trkpt>
      <trkpt lat="32.246324960142374" lon="-4.392184987664223">
        <ele>1270.5999999999999</ele>
        <time>2003-04-18T14:33:23Z</time>
      </trkpt>
      <trkpt lat="32.247104980051517" lon="-4.391591968014836">
        <ele>1271</ele>
        <time>2003-04-18T14:33:27Z</time>
      </trkpt>
      <trkpt lat="32.247896986082196" lon="-4.390982016921043">
        <ele>1272.0999999999999</ele>
        <time>2003-04-18T14:33:31Z</time>
      </trkpt>
      <trkpt lat="32.248667031526566" lon="-4.390284977853298">
        <ele>1272.9000000000001</ele>
        <time>2003-04-18T14:33:35Z</time>
      </trkpt>
      <trkpt lat="32.249432969838381" lon="-4.389543011784554">
        <ele>1274.3</ele>
        <time>2003-04-18T14:33:39Z</time>
      </trkpt>
      <trkpt lat="32.250207960605621" lon="-4.388795010745525">
        <ele>1276.8</ele>
        <time>2003-04-18T14:33:43Z</time>
      </trkpt>
      <trkpt lat="32.251012958586216" lon="-4.388082968071103">
        <ele>1278.9000000000001</ele>
        <time>2003-04-18T14:33:47Z</time>
      </trkpt>
      <trkpt lat="32.251858022063971" lon="-4.387462958693504">
        <ele>1280</ele>
        <time>2003-04-18T14:33:51Z</time>
      </trkpt>
      <trkpt lat="32.252642987295985" lon="-4.386934982612729">
        <ele>1281.5999999999999</ele>
        <time>2003-04-18T14:33:55Z</time>
      </trkpt>
      <trkpt lat="32.253072978928685" lon="-4.386759968474507">
        <ele>1283.0999999999999</ele>
        <time>2003-04-18T14:33:56Z</time>
      </trkpt>
      <trkpt lat="32.253525014966726" lon="-4.386682016775012">
        <ele>1284.8</ele>
        <time>2003-04-18T14:33:59Z</time>
      </trkpt>
      <trkpt lat="32.253983002156019" lon="-4.386695008724928">
        <ele>1286.3</ele>
        <time>2003-04-18T14:34:00Z</time>
      </trkpt>
      <trkpt lat="32.25443503819406" lon="-4.386798022314906">
        <ele>1288.3</ele>
        <time>2003-04-18T14:34:03Z</time>
      </trkpt>
      <trkpt lat="32.25486502982676" lon="-4.386989967897534">
        <ele>1290.5</ele>
        <time>2003-04-18T14:34:04Z</time>
      </trkpt>
      <trkpt lat="32.255259985104203" lon="-4.387267995625734">
        <ele>1292.3</ele>
        <time>2003-04-18T14:34:07Z</time>
      </trkpt>
      <trkpt lat="32.255979990586638" lon="-4.387926980853081">
        <ele>1296.5</ele>
        <time>2003-04-18T14:34:11Z</time>
      </trkpt>
      <trkpt lat="32.256311997771263" lon="-4.38829000107944">
        <ele>1298.2</ele>
        <time>2003-04-18T14:34:12Z</time>
      </trkpt>
      <trkpt lat="32.25673302076757" lon="-4.388927025720477">
        <ele>1301.0999999999999</ele>
        <time>2003-04-18T14:34:15Z</time>
      </trkpt>
      <trkpt lat="32.257178016006947" lon="-4.389882981777191">
        <ele>1303.8</ele>
        <time>2003-04-18T14:34:19Z</time>
      </trkpt>
      <trkpt lat="32.257629968225956" lon="-4.390770038589835">
        <ele>1303.9000000000001</ele>
        <time>2003-04-18T14:34:23Z</time>
      </trkpt>
      <trkpt lat="32.258192980661988" lon="-4.391567995771766">
        <ele>1301.4000000000001</ele>
        <time>2003-04-18T14:34:27Z</time>
      </trkpt>
      <trkpt lat="32.258884990587831" lon="-4.392292024567723">
        <ele>1296.7</ele>
        <time>2003-04-18T14:34:31Z</time>
      </trkpt>
      <trkpt lat="32.259080037474632" lon="-4.39243501983583">
        <ele>1293.7</ele>
        <time>2003-04-18T14:34:33Z</time>
      </trkpt>
      <trkpt lat="32.25987003184855" lon="-4.392986968159676">
        <ele>1289.3</ele>
        <time>2003-04-18T14:34:37Z</time>
      </trkpt>
      <trkpt lat="32.260232968255877" lon="-4.393312018364668">
        <ele>1285.4000000000001</ele>
        <time>2003-04-18T14:34:38Z</time>
      </trkpt>
      <trkpt lat="32.260536979883909" lon="-4.393700016662478">
        <ele>1284.7</ele>
        <time>2003-04-18T14:34:41Z</time>
      </trkpt>
      <trkpt lat="32.260772008448839" lon="-4.394127996638417">
        <ele>1283.0999999999999</ele>
        <time>2003-04-18T14:34:42Z</time>
      </trkpt>
      <trkpt lat="32.26092497818172" lon="-4.394599981606007">
        <ele>1282.5999999999999</ele>
        <time>2003-04-18T14:34:45Z</time>
      </trkpt>
      <trkpt lat="32.261060010641813" lon="-4.395376984030008">
        <ele>1280.9000000000001</ele>
        <time>2003-04-18T14:34:48Z</time>
      </trkpt>
      <trkpt lat="32.261079959571362" lon="-4.395894985646009">
        <ele>1279.8</ele>
        <time>2003-04-18T14:34:49Z</time>
      </trkpt>
      <trkpt lat="32.261048024520278" lon="-4.396147029474378">
        <ele>1279.8</ele>
        <time>2003-04-18T14:34:50Z</time>
      </trkpt>
      <trkpt lat="32.260843003168702" lon="-4.397208010777831">
        <ele>1278.4000000000001</ele>
        <time>2003-04-18T14:34:54Z</time>
      </trkpt>
      <trkpt lat="32.26060202345252" lon="-4.398347027599812">
        <ele>1277.9000000000001</ele>
        <time>2003-04-18T14:34:58Z</time>
      </trkpt>
      <trkpt lat="32.260377975180745" lon="-4.399532983079553">
        <ele>1279.0999999999999</ele>
        <time>2003-04-18T14:35:02Z</time>
      </trkpt>
      <trkpt lat="32.260146969929338" lon="-4.400702007114887">
        <ele>1285.4000000000001</ele>
        <time>2003-04-18T14:35:06Z</time>
      </trkpt>
      <trkpt lat="32.259923005476594" lon="-4.401858039200306">
        <ele>1286.5999999999999</ele>
        <time>2003-04-18T14:35:11Z</time>
      </trkpt>
      <trkpt lat="32.259680014103651" lon="-4.403065033257008">
        <ele>1284.2</ele>
        <time>2003-04-18T14:35:15Z</time>
      </trkpt>
      <trkpt lat="32.25944297388196" lon="-4.404266998171806">
        <ele>1285.3</ele>
        <time>2003-04-18T14:35:19Z</time>
      </trkpt>
      <trkpt lat="32.259214986115694" lon="-4.405418001115322">
        <ele>1290.5</ele>
        <time>2003-04-18T14:35:23Z</time>
      </trkpt>
      <trkpt lat="32.259011976420879" lon="-4.406468002125621">
        <ele>1291.8</ele>
        <time>2003-04-18T14:35:27Z</time>
      </trkpt>
      <trkpt lat="32.258827993646264" lon="-4.407735010609031">
        <ele>1286.3</ele>
        <time>2003-04-18T14:35:32Z</time>
      </trkpt>
      <trkpt lat="32.258748030290008" lon="-4.408798003569245">
        <ele>1287.2</ele>
        <time>2003-04-18T14:35:36Z</time>
      </trkpt>
      <trkpt lat="32.258664965629578" lon="-4.410037016496062">
        <ele>1293.2</ele>
        <time>2003-04-18T14:35:40Z</time>
      </trkpt>
      <trkpt lat="32.258702013641596" lon="-4.410728020593524">
        <ele>1293</ele>
        <time>2003-04-18T14:35:43Z</time>
      </trkpt>
      <trkpt lat="32.258841991424561" lon="-4.411411983892322">
        <ele>1290.9000000000001</ele>
        <time>2003-04-18T14:35:47Z</time>
      </trkpt>
      <trkpt lat="32.259026980027556" lon="-4.411838036030531">
        <ele>1288.2</ele>
        <time>2003-04-18T14:35:48Z</time>
      </trkpt>
      <trkpt lat="32.259411960840225" lon="-4.412447987124324">
        <ele>1283.9000000000001</ele>
        <time>2003-04-18T14:35:51Z</time>
      </trkpt>
      <trkpt lat="32.259729970246553" lon="-4.412798015400767">
        <ele>1281.5</ele>
        <time>2003-04-18T14:35:54Z</time>
      </trkpt>
      <trkpt lat="32.260110005736351" lon="-4.413076965138316">
        <ele>1280</ele>
        <time>2003-04-18T14:35:55Z</time>
      </trkpt>
      <trkpt lat="32.260522982105613" lon="-4.41327796317637">
        <ele>1279.9000000000001</ele>
        <time>2003-04-18T14:35:58Z</time>
      </trkpt>
      <trkpt lat="32.260954985395074" lon="-4.413396986201406">
        <ele>1280.3</ele>
        <time>2003-04-18T14:35:59Z</time>
      </trkpt>
      <trkpt lat="32.261377014219761" lon="-4.413390029221773">
        <ele>1281.3</ele>
        <time>2003-04-18T14:36:02Z</time>
      </trkpt>
      <trkpt lat="32.261776998639107" lon="-4.413279974833131">
        <ele>1281.3</ele>
        <time>2003-04-18T14:36:03Z</time>
      </trkpt>
      <trkpt lat="32.26275198161602" lon="-4.412874961271882">
        <ele>1282.7</ele>
        <time>2003-04-18T14:36:09Z</time>
      </trkpt>
      <trkpt lat="32.263708021491766" lon="-4.412470031529665">
        <ele>1282.8</ele>
        <time>2003-04-18T14:36:14Z</time>
      </trkpt>
      <trkpt lat="32.264498015865684" lon="-4.412237014621496">
        <ele>1283.5</ele>
        <time>2003-04-18T14:36:18Z</time>
      </trkpt>
      <trkpt lat="32.264692978933454" lon="-4.412261992692947">
        <ele>1284.8</ele>
        <time>2003-04-18T14:36:18Z</time>
      </trkpt>
      <trkpt lat="32.264885008335114" lon="-4.412317983806133">
        <ele>1284.8</ele>
        <time>2003-04-18T14:36:19Z</time>
      </trkpt>
      <trkpt lat="32.265418013557792" lon="-4.41256701014936">
        <ele>1287.4000000000001</ele>
        <time>2003-04-18T14:36:22Z</time>
      </trkpt>
      <trkpt lat="32.265572994947433" lon="-4.412687039002776">
        <ele>1288.5</ele>
        <time>2003-04-18T14:36:23Z</time>
      </trkpt>
      <trkpt lat="32.265846999362111" lon="-4.41297696903348">
        <ele>1290.4000000000001</ele>
        <time>2003-04-18T14:36:26Z</time>
      </trkpt>
      <trkpt lat="32.266086973249912" lon="-4.413288021460176">
        <ele>1292.5</ele>
        <time>2003-04-18T14:36:27Z</time>
      </trkpt>
      <trkpt lat="32.266255030408502" lon="-4.413657998666167">
        <ele>1294.9000000000001</ele>
        <time>2003-04-18T14:36:30Z</time>
      </trkpt>
      <trkpt lat="32.266357038170099" lon="-4.414067035540938">
        <ele>1294.9000000000001</ele>
        <time>2003-04-18T14:36:32Z</time>
      </trkpt>
      <trkpt lat="32.266402970999479" lon="-4.41450297832489">
        <ele>1294.8</ele>
        <time>2003-04-18T14:36:34Z</time>
      </trkpt>
      <trkpt lat="32.266397019848228" lon="-4.415460024029017">
        <ele>1292.8</ele>
        <time>2003-04-18T14:36:37Z</time>
      </trkpt>
      <trkpt lat="32.266374975442886" lon="-4.416740024462342">
        <ele>1292</ele>
        <time>2003-04-18T14:36:42Z</time>
      </trkpt>
      <trkpt lat="32.266370030120015" lon="-4.418050032109022">
        <ele>1293.9000000000001</ele>
        <time>2003-04-18T14:36:48Z</time>
      </trkpt>
      <trkpt lat="32.266340022906661" lon="-4.419377977028489">
        <ele>1295.3</ele>
        <time>2003-04-18T14:36:53Z</time>
      </trkpt>
      <trkpt lat="32.266346979886293" lon="-4.420454967767">
        <ele>1294.5</ele>
        <time>2003-04-18T14:36:57Z</time>
      </trkpt>
      <trkpt lat="32.266328036785126" lon="-4.421537993475795">
        <ele>1294.9000000000001</ele>
        <time>2003-04-18T14:37:01Z</time>
      </trkpt>
      <trkpt lat="32.266319990158081" lon="-4.422633005306125">
        <ele>1296.0999999999999</ele>
        <time>2003-04-18T14:37:04Z</time>
      </trkpt>
      <trkpt lat="32.266306998208165" lon="-4.423951981589198">
        <ele>1296.3</ele>
        <time>2003-04-18T14:37:09Z</time>
      </trkpt>
      <trkpt lat="32.26629501208663" lon="-4.425253020599484">
        <ele>1294.9000000000001</ele>
        <time>2003-04-18T14:37:15Z</time>
      </trkpt>
      <trkpt lat="32.26627497933805" lon="-4.426545007154346">
        <ele>1295.0999999999999</ele>
        <time>2003-04-18T14:37:20Z</time>
      </trkpt>
      <trkpt lat="32.266271961852908" lon="-4.427831964567304">
        <ele>1297.2</ele>
        <time>2003-04-18T14:37:24Z</time>
      </trkpt>
      <trkpt lat="32.266255030408502" lon="-4.429154964163899">
        <ele>1297.0999999999999</ele>
        <time>2003-04-18T14:37:30Z</time>
      </trkpt>
      <trkpt lat="32.266219994053245" lon="-4.430236984044313">
        <ele>1297.0999999999999</ele>
        <time>2003-04-18T14:37:34Z</time>
      </trkpt>
      <trkpt lat="32.266074987128377" lon="-4.431341970339418">
        <ele>1296.9000000000001</ele>
        <time>2003-04-18T14:37:38Z</time>
      </trkpt>
      <trkpt lat="32.265817997977138" lon="-4.432439999654889">
        <ele>1296.9000000000001</ele>
        <time>2003-04-18T14:37:42Z</time>
      </trkpt>
      <trkpt lat="32.265541981905699" lon="-4.433542974293232">
        <ele>1296.5999999999999</ele>
        <time>2003-04-18T14:37:46Z</time>
      </trkpt>
      <trkpt lat="32.265272000804543" lon="-4.434651983901858">
        <ele>1296.9000000000001</ele>
        <time>2003-04-18T14:37:50Z</time>
      </trkpt>
      <trkpt lat="32.265017023310065" lon="-4.435769962146878">
        <ele>1297.4000000000001</ele>
        <time>2003-04-18T14:37:54Z</time>
      </trkpt>
      <trkpt lat="32.264724997803569" lon="-4.436876960098743">
        <ele>1297.7</ele>
        <time>2003-04-18T14:37:58Z</time>
      </trkpt>
      <trkpt lat="32.264413023367524" lon="-4.437989993020892">
        <ele>1297.7</ele>
        <time>2003-04-18T14:38:02Z</time>
      </trkpt>
      <trkpt lat="32.264083027839661" lon="-4.439115012064576">
        <ele>1297.8</ele>
        <time>2003-04-18T14:38:06Z</time>
      </trkpt>
      <trkpt lat="32.263777004554868" lon="-4.440232990309596">
        <ele>1297.5999999999999</ele>
        <time>2003-04-18T14:38:10Z</time>
      </trkpt>
      <trkpt lat="32.26346000097692" lon="-4.441311992704868">
        <ele>1297.7</ele>
        <time>2003-04-18T14:38:14Z</time>
      </trkpt>
      <trkpt lat="32.263173004612327" lon="-4.442402981221676">
        <ele>1297.9000000000001</ele>
        <time>2003-04-18T14:38:18Z</time>
      </trkpt>
      <trkpt lat="32.262939987704158" lon="-4.443512996658683">
        <ele>1297.9000000000001</ele>
        <time>2003-04-18T14:38:22Z</time>
      </trkpt>
      <trkpt lat="32.262747958302498" lon="-4.444642961025238">
        <ele>1298.4000000000001</ele>
        <time>2003-04-18T14:38:25Z</time>
      </trkpt>
      <trkpt lat="32.262555006891489" lon="-4.445756999775767">
        <ele>1299.7</ele>
        <time>2003-04-18T14:38:29Z</time>
      </trkpt>
      <trkpt lat="32.262419974431396" lon="-4.446838013827801">
        <ele>1300.8</ele>
        <time>2003-04-18T14:38:33Z</time>
      </trkpt>
      <trkpt lat="32.262417962774634" lon="-4.447900000959635">
        <ele>1299.3</ele>
        <time>2003-04-18T14:38:37Z</time>
      </trkpt>
      <trkpt lat="32.262532040476799" lon="-4.449210008606315">
        <ele>1301.7</ele>
        <time>2003-04-18T14:38:44Z</time>
      </trkpt>
      <trkpt lat="32.262649973854423" lon="-4.450537031516433">
        <ele>1303.5</ele>
        <time>2003-04-18T14:38:49Z</time>
      </trkpt>
      <trkpt lat="32.262747036293149" lon="-4.451662972569466">
        <ele>1300.4000000000001</ele>
        <time>2003-04-18T14:38:52Z</time>
      </trkpt>
      <trkpt lat="32.262866981327534" lon="-4.452969962731004">
        <ele>1305.9000000000001</ele>
        <time>2003-04-18T14:38:56Z</time>
      </trkpt>
      <trkpt lat="32.263024980202317" lon="-4.453909993171692">
        <ele>1307.5</ele>
        <time>2003-04-18T14:39:01Z</time>
      </trkpt>
      <trkpt lat="32.263302002102137" lon="-4.454818004742265">
        <ele>1308.2</ele>
        <time>2003-04-18T14:39:05Z</time>
      </trkpt>
      <trkpt lat="32.26373802870512" lon="-4.45592500269413">
        <ele>1309.5</ele>
        <time>2003-04-18T14:39:11Z</time>
      </trkpt>
      <trkpt lat="32.264155028387904" lon="-4.45697802118957">
        <ele>1311.3</ele>
        <time>2003-04-18T14:39:16Z</time>
      </trkpt>
      <trkpt lat="32.264679986983538" lon="-4.458057023584843">
        <ele>1313.5</ele>
        <time>2003-04-18T14:39:20Z</time>
      </trkpt>
      <trkpt lat="32.265326986089349" lon="-4.459132002666593">
        <ele>1314.0999999999999</ele>
        <time>2003-04-18T14:39:26Z</time>
      </trkpt>
      <trkpt lat="32.265848005190492" lon="-4.460010007023811">
        <ele>1313.5</ele>
        <time>2003-04-18T14:39:30Z</time>
      </trkpt>
      <trkpt lat="32.266374975442886" lon="-4.460884993895888">
        <ele>1313.0999999999999</ele>
        <time>2003-04-18T14:39:34Z</time>
      </trkpt>
      <trkpt lat="32.267019962891936" lon="-4.46196299046278">
        <ele>1315.5999999999999</ele>
        <time>2003-04-18T14:39:39Z</time>
      </trkpt>
      <trkpt lat="32.267547016963363" lon="-4.462842000648379">
        <ele>1317.5999999999999</ele>
        <time>2003-04-18T14:39:43Z</time>
      </trkpt>
      <trkpt lat="32.268067030236125" lon="-4.463725034147501">
        <ele>1323.0999999999999</ele>
        <time>2003-04-18T14:39:46Z</time>
      </trkpt>
      <trkpt lat="32.268710006028414" lon="-4.464809987694025">
        <ele>1325.4000000000001</ele>
        <time>2003-04-18T14:39:51Z</time>
      </trkpt>
      <trkpt lat="32.269347030669451" lon="-4.465878009796143">
        <ele>1326.4000000000001</ele>
        <time>2003-04-18T14:39:57Z</time>
      </trkpt>
      <trkpt lat="32.269944995641708" lon="-4.46688199415803">
        <ele>1327.5</ele>
        <time>2003-04-18T14:40:02Z</time>
      </trkpt>
      <trkpt lat="32.270514965057373" lon="-4.4678920134902">
        <ele>1330.7</ele>
        <time>2003-04-18T14:40:06Z</time>
      </trkpt>
      <trkpt lat="32.270846972241998" lon="-4.468730036169291">
        <ele>1331.5999999999999</ele>
        <time>2003-04-18T14:40:10Z</time>
      </trkpt>
      <trkpt lat="32.271273024380207" lon="-4.469796968623996">
        <ele>1332.9000000000001</ele>
        <time>2003-04-18T14:40:16Z</time>
      </trkpt>
      <trkpt lat="32.27160201407969" lon="-4.470417983829975">
        <ele>1333.8</ele>
        <time>2003-04-18T14:40:18Z</time>
      </trkpt>
      <trkpt lat="32.272277008742094" lon="-4.471466979011893">
        <ele>1334.3</ele>
        <time>2003-04-18T14:40:24Z</time>
      </trkpt>
      <trkpt lat="32.272853013128042" lon="-4.472320005297661">
        <ele>1334.9000000000001</ele>
        <time>2003-04-18T14:40:28Z</time>
      </trkpt>
      <trkpt lat="32.27347201667726" lon="-4.473277973011136">
        <ele>1334.9000000000001</ele>
        <time>2003-04-18T14:40:33Z</time>
      </trkpt>
      <trkpt lat="32.273662034422159" lon="-4.473679969087243">
        <ele>1335.0999999999999</ele>
        <time>2003-04-18T14:40:35Z</time>
      </trkpt>
      <trkpt lat="32.273787008598447" lon="-4.474129993468523">
        <ele>1334.5999999999999</ele>
        <time>2003-04-18T14:40:37Z</time>
      </trkpt>
      <trkpt lat="32.273848028853536" lon="-4.474597033113241">
        <ele>1334.4000000000001</ele>
        <time>2003-04-18T14:40:39Z</time>
      </trkpt>
      <trkpt lat="32.273909971117973" lon="-4.475830011069775">
        <ele>1333.3</ele>
        <time>2003-04-18T14:40:44Z</time>
      </trkpt>
      <trkpt lat="32.273971997201443" lon="-4.476897027343512">
        <ele>1332.0999999999999</ele>
        <time>2003-04-18T14:40:48Z</time>
      </trkpt>
      <trkpt lat="32.274020025506616" lon="-4.478077031672001">
        <ele>1331</ele>
        <time>2003-04-18T14:40:52Z</time>
      </trkpt>
      <trkpt lat="32.274048021063209" lon="-4.479347979649901">
        <ele>1329.9000000000001</ele>
        <time>2003-04-18T14:40:56Z</time>
      </trkpt>
      <trkpt lat="32.274077022448182" lon="-4.480641977861524">
        <ele>1328.4000000000001</ele>
        <time>2003-04-18T14:41:00Z</time>
      </trkpt>
      <trkpt lat="32.274109963327646" lon="-4.481834974139929">
        <ele>1328.7</ele>
        <time>2003-04-18T14:41:04Z</time>
      </trkpt>
      <trkpt lat="32.274137958884239" lon="-4.482929985970259">
        <ele>1329.3</ele>
        <time>2003-04-18T14:41:07Z</time>
      </trkpt>
      <trkpt lat="32.274163020774722" lon="-4.484132034704089">
        <ele>1337.5999999999999</ele>
        <time>2003-04-18T14:41:12Z</time>
      </trkpt>
      <trkpt lat="32.274248013272882" lon="-4.484799988567829">
        <ele>1340.5999999999999</ele>
        <time>2003-04-18T14:41:15Z</time>
      </trkpt>
      <trkpt lat="32.274356978014112" lon="-4.485195027664304">
        <ele>1341.3</ele>
        <time>2003-04-18T14:41:18Z</time>
      </trkpt>
      <trkpt lat="32.27473801933229" lon="-4.486089963465929">
        <ele>1341.0999999999999</ele>
        <time>2003-04-18T14:41:23Z</time>
      </trkpt>
      <trkpt lat="32.275157030671835" lon="-4.487071987241507">
        <ele>1340.5999999999999</ele>
        <time>2003-04-18T14:41:27Z</time>
      </trkpt>
      <trkpt lat="32.275612000375986" lon="-4.488140009343624">
        <ele>1340.3</ele>
        <time>2003-04-18T14:41:33Z</time>
      </trkpt>
      <trkpt lat="32.276108041405678" lon="-4.489310039207339">
        <ele>1339.4000000000001</ele>
        <time>2003-04-18T14:41:38Z</time>
      </trkpt>
      <trkpt lat="32.276535015553236" lon="-4.490312011912465">
        <ele>1339.8</ele>
        <time>2003-04-18T14:41:42Z</time>
      </trkpt>
      <trkpt lat="32.276968024671078" lon="-4.491326976567507">
        <ele>1340.0999999999999</ele>
        <time>2003-04-18T14:41:46Z</time>
      </trkpt>
      <trkpt lat="32.277474962174892" lon="-4.492504969239235">
        <ele>1340.3</ele>
        <time>2003-04-18T14:41:50Z</time>
      </trkpt>
      <trkpt lat="32.277951976284385" lon="-4.493618002161384">
        <ele>1341.5</ele>
        <time>2003-04-18T14:41:56Z</time>
      </trkpt>
      <trkpt lat="32.278424967080355" lon="-4.49472701177001">
        <ele>1342.8</ele>
        <time>2003-04-18T14:42:01Z</time>
      </trkpt>
      <trkpt lat="32.278910027816892" lon="-4.495872985571623">
        <ele>1343.3</ele>
        <time>2003-04-18T14:42:05Z</time>
      </trkpt>
      <trkpt lat="32.279328033328056" lon="-4.496836988255382">
        <ele>1341.0999999999999</ele>
        <time>2003-04-18T14:42:09Z</time>
      </trkpt>
      <trkpt lat="32.279794989153743" lon="-4.497818006202579">
        <ele>1340</ele>
        <time>2003-04-18T14:42:13Z</time>
      </trkpt>
      <trkpt lat="32.280262028798461" lon="-4.498802041634917">
        <ele>1341.2</ele>
        <time>2003-04-18T14:42:17Z</time>
      </trkpt>
      <trkpt lat="32.280735019594431" lon="-4.499782975763083">
        <ele>1342.5999999999999</ele>
        <time>2003-04-18T14:42:21Z</time>
      </trkpt>
      <trkpt lat="32.281615035608411" lon="-4.501632023602724">
        <ele>1343.4000000000001</ele>
        <time>2003-04-18T14:42:29Z</time>
      </trkpt>
      <trkpt lat="32.282128008082509" lon="-4.502717982977629">
        <ele>1346.0999999999999</ele>
        <time>2003-04-18T14:42:35Z</time>
      </trkpt>
      <trkpt lat="32.282666964456439" lon="-4.50379497371614">
        <ele>1347.9000000000001</ele>
        <time>2003-04-18T14:42:40Z</time>
      </trkpt>
      <trkpt lat="32.283282028511167" lon="-4.504898032173514">
        <ele>1349.4000000000001</ele>
        <time>2003-04-18T14:42:44Z</time>
      </trkpt>
      <trkpt lat="32.28384998627007" lon="-4.50579296797514">
        <ele>1350.5999999999999</ele>
        <time>2003-04-18T14:42:48Z</time>
      </trkpt>
      <trkpt lat="32.284447029232979" lon="-4.506720006465912">
        <ele>1352.2</ele>
        <time>2003-04-18T14:42:52Z</time>
      </trkpt>
      <trkpt lat="32.285077013075352" lon="-4.507672023028135">
        <ele>1353.7</ele>
        <time>2003-04-18T14:42:56Z</time>
      </trkpt>
      <trkpt lat="32.285708002746105" lon="-4.50869201682508">
        <ele>1354.4000000000001</ele>
        <time>2003-04-18T14:43:00Z</time>
      </trkpt>
      <trkpt lat="32.286376962438226" lon="-4.509736988693476">
        <ele>1355.3</ele>
        <time>2003-04-18T14:43:04Z</time>
      </trkpt>
      <trkpt lat="32.287087999284267" lon="-4.510792018845677">
        <ele>1356.3</ele>
        <time>2003-04-18T14:43:08Z</time>
      </trkpt>
      <trkpt lat="32.287795012816787" lon="-4.511882001534104">
        <ele>1357.5</ele>
        <time>2003-04-18T14:43:12Z</time>
      </trkpt>
      <trkpt lat="32.288502026349306" lon="-4.512999979779124">
        <ele>1358.8</ele>
        <time>2003-04-18T14:43:17Z</time>
      </trkpt>
      <trkpt lat="32.289190012961626" lon="-4.514022991061211">
        <ele>1359.8</ele>
        <time>2003-04-18T14:43:21Z</time>
      </trkpt>
      <trkpt lat="32.289827959612012" lon="-4.515007026493549">
        <ele>1361.2</ele>
        <time>2003-04-18T14:43:25Z</time>
      </trkpt>
      <trkpt lat="32.290468001738191" lon="-4.516004975885153">
        <ele>1362.3</ele>
        <time>2003-04-18T14:43:29Z</time>
      </trkpt>
      <trkpt lat="32.291117012500763" lon="-4.517002003267407">
        <ele>1364.7</ele>
        <time>2003-04-18T14:43:33Z</time>
      </trkpt>
      <trkpt lat="32.291772980242968" lon="-4.518002970144153">
        <ele>1365.4000000000001</ele>
        <time>2003-04-18T14:43:37Z</time>
      </trkpt>
      <trkpt lat="32.292436994612217" lon="-4.51900502666831">
        <ele>1365.9000000000001</ele>
        <time>2003-04-18T14:43:41Z</time>
      </trkpt>
      <trkpt lat="32.293094974011183" lon="-4.52001303434372">
        <ele>1366.9000000000001</ele>
        <time>2003-04-18T14:43:45Z</time>
      </trkpt>
      <trkpt lat="32.293757982552052" lon="-4.521026993170381">
        <ele>1368.0999999999999</ele>
        <time>2003-04-18T14:43:49Z</time>
      </trkpt>
      <trkpt lat="32.294412022456527" lon="-4.522031983360648">
        <ele>1369.3</ele>
        <time>2003-04-18T14:43:53Z</time>
      </trkpt>
      <trkpt lat="32.2950420062989" lon="-4.522987017408013">
        <ele>1370.4000000000001</ele>
        <time>2003-04-18T14:43:57Z</time>
      </trkpt>
      <trkpt lat="32.29566696099937" lon="-4.523957977071405">
        <ele>1371.4000000000001</ele>
        <time>2003-04-18T14:44:01Z</time>
      </trkpt>
      <trkpt lat="32.296301973983645" lon="-4.524928014725447">
        <ele>1372</ele>
        <time>2003-04-18T14:44:05Z</time>
      </trkpt>
      <trkpt lat="32.29693497531116" lon="-4.525896962732077">
        <ele>1373.8</ele>
        <time>2003-04-18T14:44:09Z</time>
      </trkpt>
      <trkpt lat="32.297567976638675" lon="-4.5268680062145">
        <ele>1375.2</ele>
        <time>2003-04-18T14:44:13Z</time>
      </trkpt>
      <trkpt lat="32.298208018764853" lon="-4.527856986969709">
        <ele>1376.2</ele>
        <time>2003-04-18T14:44:16Z</time>
      </trkpt>
      <trkpt lat="32.298858035355806" lon="-4.528843034058809">
        <ele>1377.4000000000001</ele>
        <time>2003-04-18T14:44:20Z</time>
      </trkpt>
      <trkpt lat="32.299505034461617" lon="-4.52983696013689">
        <ele>1378.7</ele>
        <time>2003-04-18T14:44:24Z</time>
      </trkpt>
      <trkpt lat="32.300147004425526" lon="-4.53082300722599">
        <ele>1380</ele>
        <time>2003-04-18T14:44:28Z</time>
      </trkpt>
      <trkpt lat="32.300783023238182" lon="-4.531805031001568">
        <ele>1380.0999999999999</ele>
        <time>2003-04-18T14:44:32Z</time>
      </trkpt>
      <trkpt lat="32.301398003473878" lon="-4.532807003706694">
        <ele>1380.4000000000001</ele>
        <time>2003-04-18T14:44:36Z</time>
      </trkpt>
      <trkpt lat="32.301977025344968" lon="-4.53385197557509">
        <ele>1380.5</ele>
        <time>2003-04-18T14:44:40Z</time>
      </trkpt>
      <trkpt lat="32.30254297144711" lon="-4.534887978807092">
        <ele>1379</ele>
        <time>2003-04-18T14:44:44Z</time>
      </trkpt>
      <trkpt lat="32.303102966398001" lon="-4.535909984260798">
        <ele>1379.9000000000001</ele>
        <time>2003-04-18T14:44:48Z</time>
      </trkpt>
      <trkpt lat="32.303632032126188" lon="-4.536869963631034">
        <ele>1381.5999999999999</ele>
        <time>2003-04-18T14:44:52Z</time>
      </trkpt>
      <trkpt lat="32.304160008206964" lon="-4.537832038477063">
        <ele>1382.0999999999999</ele>
        <time>2003-04-18T14:44:56Z</time>
      </trkpt>
      <trkpt lat="32.304686978459358" lon="-4.538780031725764">
        <ele>1381.5</ele>
        <time>2003-04-18T14:45:00Z</time>
      </trkpt>
      <trkpt lat="32.305185031145811" lon="-4.53971503302455">
        <ele>1380.9000000000001</ele>
        <time>2003-04-18T14:45:05Z</time>
      </trkpt>
      <trkpt lat="32.305688029155135" lon="-4.54087701626122">
        <ele>1378.2</ele>
        <time>2003-04-18T14:45:10Z</time>
      </trkpt>
      <trkpt lat="32.305945018306375" lon="-4.541261997073889">
        <ele>1377.3</ele>
        <time>2003-04-18T14:45:11Z</time>
      </trkpt>
      <trkpt lat="32.306266967207193" lon="-4.541592998430133">
        <ele>1376.3</ele>
        <time>2003-04-18T14:45:14Z</time>
      </trkpt>
      <trkpt lat="32.306635016575456" lon="-4.541872031986713">
        <ele>1375.3</ele>
        <time>2003-04-18T14:45:15Z</time>
      </trkpt>
      <trkpt lat="32.307607987895608" lon="-4.542502015829086">
        <ele>1378.3</ele>
        <time>2003-04-18T14:45:21Z</time>
      </trkpt>
      <trkpt lat="32.308407034724951" lon="-4.543023034930229">
        <ele>1382.0999999999999</ele>
        <time>2003-04-18T14:45:25Z</time>
      </trkpt>
      <trkpt lat="32.30922200717032" lon="-4.543555034324527">
        <ele>1384.3</ele>
        <time>2003-04-18T14:45:29Z</time>
      </trkpt>
      <trkpt lat="32.31003999710083" lon="-4.54410002566874">
        <ele>1386</ele>
        <time>2003-04-18T14:45:33Z</time>
      </trkpt>
      <trkpt lat="32.310890005901456" lon="-4.544626995921135">
        <ele>1386</ele>
        <time>2003-04-18T14:45:37Z</time>
      </trkpt>
      <trkpt lat="32.3118029627949" lon="-4.545056987553835">
        <ele>1385.9000000000001</ele>
        <time>2003-04-18T14:45:41Z</time>
      </trkpt>
      <trkpt lat="32.312757996842265" lon="-4.545402992516756">
        <ele>1383</ele>
        <time>2003-04-18T14:45:45Z</time>
      </trkpt>
      <trkpt lat="32.31373499147594" lon="-4.545787973329425">
        <ele>1380.7</ele>
        <time>2003-04-18T14:45:49Z</time>
      </trkpt>
      <trkpt lat="32.314679967239499" lon="-4.546151999384165">
        <ele>1380.3</ele>
        <time>2003-04-18T14:45:53Z</time>
      </trkpt>
      <trkpt lat="32.315550008788705" lon="-4.546479983255267">
        <ele>1381.0999999999999</ele>
        <time>2003-04-18T14:45:57Z</time>
      </trkpt>
      <trkpt lat="32.316461959853768" lon="-4.546824982389808">
        <ele>1382.2</ele>
        <time>2003-04-18T14:46:01Z</time>
      </trkpt>
      <trkpt lat="32.317405007779598" lon="-4.547177022323012">
        <ele>1382.9000000000001</ele>
        <time>2003-04-18T14:46:04Z</time>
      </trkpt>
      <trkpt lat="32.318374961614609" lon="-4.547535013407469">
        <ele>1383.5999999999999</ele>
        <time>2003-04-18T14:46:08Z</time>
      </trkpt>
      <trkpt lat="32.319318009540439" lon="-4.548001969233155">
        <ele>1385.5999999999999</ele>
        <time>2003-04-18T14:46:12Z</time>
      </trkpt>
      <trkpt lat="32.32020003721118" lon="-4.548587026074529">
        <ele>1387.5</ele>
        <time>2003-04-18T14:46:16Z</time>
      </trkpt>
      <trkpt lat="32.32097796164453" lon="-4.549222039058805">
        <ele>1388.9000000000001</ele>
        <time>2003-04-18T14:46:20Z</time>
      </trkpt>
      <trkpt lat="32.321517001837492" lon="-4.549526972696185">
        <ele>1390.8</ele>
        <time>2003-04-18T14:46:24Z</time>
      </trkpt>
      <trkpt lat="32.321716994047165" lon="-4.549569971859455">
        <ele>1391.2</ele>
        <time>2003-04-18T14:46:24Z</time>
      </trkpt>
      <trkpt lat="32.322123013436794" lon="-4.549582963809371">
        <ele>1391.5</ele>
        <time>2003-04-18T14:46:27Z</time>
      </trkpt>
      <trkpt lat="32.323152981698513" lon="-4.549390012398362">
        <ele>1390.8</ele>
        <time>2003-04-18T14:46:31Z</time>
      </trkpt>
      <trkpt lat="32.323684981092811" lon="-4.549401998519898">
        <ele>1389.9000000000001</ele>
        <time>2003-04-18T14:46:35Z</time>
      </trkpt>
      <trkpt lat="32.323838034644723" lon="-4.549496965482831">
        <ele>1389.5999999999999</ele>
        <time>2003-04-18T14:46:35Z</time>
      </trkpt>
      <trkpt lat="32.324413033202291" lon="-4.549787985160947">
        <ele>1389.2</ele>
        <time>2003-04-18T14:46:39Z</time>
      </trkpt>
      <trkpt lat="32.324562985450029" lon="-4.549768036231399">
        <ele>1389.4000000000001</ele>
        <time>2003-04-18T14:46:40Z</time>
      </trkpt>
      <trkpt lat="32.324710004031658" lon="-4.549714978784323">
        <ele>1389.4000000000001</ele>
        <time>2003-04-18T14:46:42Z</time>
      </trkpt>
      <trkpt lat="32.32563997618854" lon="-4.549297979101539">
        <ele>1389.7</ele>
        <time>2003-04-18T14:46:47Z</time>
      </trkpt>
      <trkpt lat="32.325999978929758" lon="-4.54925799742341">
        <ele>1389.7</ele>
        <time>2003-04-18T14:46:50Z</time>
      </trkpt>
      <trkpt lat="32.326177004724741" lon="-4.549309965223074">
        <ele>1390.3</ele>
        <time>2003-04-18T14:46:51Z</time>
      </trkpt>
      <trkpt lat="32.326335003599524" lon="-4.549396969377995">
        <ele>1391</ele>
        <time>2003-04-18T14:46:51Z</time>
      </trkpt>
      <trkpt lat="32.32647699303925" lon="-4.549518004059792">
        <ele>1391.7</ele>
        <time>2003-04-18T14:46:53Z</time>
      </trkpt>
      <trkpt lat="32.326600039377809" lon="-4.549668040126562">
        <ele>1392.4000000000001</ele>
        <time>2003-04-18T14:46:54Z</time>
      </trkpt>
      <trkpt lat="32.326701963320374" lon="-4.549840036779642">
        <ele>1393</ele>
        <time>2003-04-18T14:46:55Z</time>
      </trkpt>
      <trkpt lat="32.327298000454903" lon="-4.55084502696991">
        <ele>1397.0999999999999</ele>
        <time>2003-04-18T14:47:01Z</time>
      </trkpt>
      <trkpt lat="32.327682981267571" lon="-4.551282981410623">
        <ele>1398.2</ele>
        <time>2003-04-18T14:47:03Z</time>
      </trkpt>
      <trkpt lat="32.327993027865887" lon="-4.551535025238991">
        <ele>1398.8</ele>
        <time>2003-04-18T14:47:06Z</time>
      </trkpt>
      <trkpt lat="32.328532990068197" lon="-4.551833001896739">
        <ele>1399</ele>
        <time>2003-04-18T14:47:09Z</time>
      </trkpt>
      <trkpt lat="32.329503027722239" lon="-4.55230800434947">
        <ele>1399</ele>
        <time>2003-04-18T14:47:14Z</time>
      </trkpt>
      <trkpt lat="32.329932013526559" lon="-4.552421998232603">
        <ele>1399.5</ele>
        <time>2003-04-18T14:47:15Z</time>
      </trkpt>
      <trkpt lat="32.330377008765936" lon="-4.552461979910731">
        <ele>1400.0999999999999</ele>
        <time>2003-04-18T14:47:18Z</time>
      </trkpt>
      <trkpt lat="32.330599967390299" lon="-4.552440019324422">
        <ele>1400.0999999999999</ele>
        <time>2003-04-18T14:47:18Z</time>
      </trkpt>
      <trkpt lat="32.331038005650043" lon="-4.552332982420921">
        <ele>1400.8</ele>
        <time>2003-04-18T14:47:21Z</time>
      </trkpt>
      <trkpt lat="32.331458022817969" lon="-4.552153022959828">
        <ele>1401.5</ele>
        <time>2003-04-18T14:47:22Z</time>
      </trkpt>
      <trkpt lat="32.331854989752173" lon="-4.551874995231628">
        <ele>1402.2</ele>
        <time>2003-04-18T14:47:25Z</time>
      </trkpt>
      <trkpt lat="32.332580024376512" lon="-4.551167981699109">
        <ele>1403.0999999999999</ele>
        <time>2003-04-18T14:47:29Z</time>
      </trkpt>
      <trkpt lat="32.333313021808863" lon="-4.55046197399497">
        <ele>1404.4000000000001</ele>
        <time>2003-04-18T14:47:33Z</time>
      </trkpt>
      <trkpt lat="32.33406001701951" lon="-4.549740040674806">
        <ele>1406</ele>
        <time>2003-04-18T14:47:37Z</time>
      </trkpt>
      <trkpt lat="32.334823021665215" lon="-4.549024980515242">
        <ele>1408.0999999999999</ele>
        <time>2003-04-18T14:47:41Z</time>
      </trkpt>
      <trkpt lat="32.335597006604075" lon="-4.548276979476214">
        <ele>1409.2</ele>
        <time>2003-04-18T14:47:45Z</time>
      </trkpt>
      <trkpt lat="32.336382977664471" lon="-4.547514980658889">
        <ele>1411.4000000000001</ele>
        <time>2003-04-18T14:47:49Z</time>
      </trkpt>
      <trkpt lat="32.337186969816685" lon="-4.546736972406507">
        <ele>1412.4000000000001</ele>
        <time>2003-04-18T14:47:52Z</time>
      </trkpt>
      <trkpt lat="32.338007977232337" lon="-4.545998023822904">
        <ele>1412.8</ele>
        <time>2003-04-18T14:47:56Z</time>
      </trkpt>
      <trkpt lat="32.338837031275034" lon="-4.545312970876694">
        <ele>1412.3</ele>
        <time>2003-04-18T14:48:00Z</time>
      </trkpt>
      <trkpt lat="32.339659966528416" lon="-4.544617021456361">
        <ele>1413</ele>
        <time>2003-04-18T14:48:04Z</time>
      </trkpt>
      <trkpt lat="32.340473011136055" lon="-4.543917970731854">
        <ele>1413.4000000000001</ele>
        <time>2003-04-18T14:48:08Z</time>
      </trkpt>
      <trkpt lat="32.341297036036849" lon="-4.543248005211353">
        <ele>1414.3</ele>
        <time>2003-04-18T14:48:12Z</time>
      </trkpt>
      <trkpt lat="32.342109996825457" lon="-4.542557001113892">
        <ele>1415.9000000000001</ele>
        <time>2003-04-18T14:48:16Z</time>
      </trkpt>
      <trkpt lat="32.34291298314929" lon="-4.541861973702908">
        <ele>1417.5999999999999</ele>
        <time>2003-04-18T14:48:20Z</time>
      </trkpt>
      <trkpt lat="32.343698032200336" lon="-4.541144985705614">
        <ele>1420.2</ele>
        <time>2003-04-18T14:48:24Z</time>
      </trkpt>
      <trkpt lat="32.344496995210648" lon="-4.540412994101644">
        <ele>1421.8</ele>
        <time>2003-04-18T14:48:28Z</time>
      </trkpt>
      <trkpt lat="32.345310039818287" lon="-4.539664993062615">
        <ele>1423.3</ele>
        <time>2003-04-18T14:48:32Z</time>
      </trkpt>
      <trkpt lat="32.346143033355474" lon="-4.538911962881684">
        <ele>1424.8</ele>
        <time>2003-04-18T14:48:36Z</time>
      </trkpt>
      <trkpt lat="32.346992958337069" lon="-4.538162034004927">
        <ele>1426.5999999999999</ele>
        <time>2003-04-18T14:48:41Z</time>
      </trkpt>
      <trkpt lat="32.347837015986443" lon="-4.537389976903796">
        <ele>1428.8</ele>
        <time>2003-04-18T14:48:45Z</time>
      </trkpt>
      <trkpt lat="32.348672021180391" lon="-4.53660300001502">
        <ele>1430.7</ele>
        <time>2003-04-18T14:48:49Z</time>
      </trkpt>
      <trkpt lat="32.349522029981017" lon="-4.535824991762638">
        <ele>1430.9000000000001</ele>
        <time>2003-04-18T14:48:53Z</time>
      </trkpt>
      <trkpt lat="32.350368015468121" lon="-4.535068022087216">
        <ele>1432.9000000000001</ele>
        <time>2003-04-18T14:48:57Z</time>
      </trkpt>
      <trkpt lat="32.351222969591618" lon="-4.534290013834834">
        <ele>1434.2</ele>
        <time>2003-04-18T14:49:01Z</time>
      </trkpt>
      <trkpt lat="32.352080019190907" lon="-4.533512005582452">
        <ele>1436.9000000000001</ele>
        <time>2003-04-18T14:49:05Z</time>
      </trkpt>
      <trkpt lat="32.35294503159821" lon="-4.532725028693676">
        <ele>1437</ele>
        <time>2003-04-18T14:49:09Z</time>
      </trkpt>
      <trkpt lat="32.353792022913694" lon="-4.531954983249307">
        <ele>1441</ele>
        <time>2003-04-18T14:49:13Z</time>
      </trkpt>
      <trkpt lat="32.354625016450882" lon="-4.53118703328073">
        <ele>1442.5999999999999</ele>
        <time>2003-04-18T14:49:17Z</time>
      </trkpt>
      <trkpt lat="32.355463039129972" lon="-4.530417993664742">
        <ele>1444.5</ele>
        <time>2003-04-18T14:49:21Z</time>
      </trkpt>
      <trkpt lat="32.356314975768328" lon="-4.5296620298177">
        <ele>1446.3</ele>
        <time>2003-04-18T14:49:25Z</time>
      </trkpt>
      <trkpt lat="32.357160039246082" lon="-4.52888997271657">
        <ele>1448.8</ele>
        <time>2003-04-18T14:49:29Z</time>
      </trkpt>
      <trkpt lat="32.358012981712818" lon="-4.528111964464188">
        <ele>1450</ele>
        <time>2003-04-18T14:49:33Z</time>
      </trkpt>
      <trkpt lat="32.358870031312108" lon="-4.52732197009027">
        <ele>1453.2</ele>
        <time>2003-04-18T14:49:37Z</time>
      </trkpt>
      <trkpt lat="32.35973303206265" lon="-4.526528036221862">
        <ele>1454.5999999999999</ele>
        <time>2003-04-18T14:49:40Z</time>
      </trkpt>
      <trkpt lat="32.360595026984811" lon="-4.525739969685674">
        <ele>1456</ele>
        <time>2003-04-18T14:49:44Z</time>
      </trkpt>
      <trkpt lat="32.361455010250211" lon="-4.524967996403575">
        <ele>1456.8</ele>
        <time>2003-04-18T14:49:49Z</time>
      </trkpt>
      <trkpt lat="32.362309964373708" lon="-4.524193005636334">
        <ele>1458.7</ele>
        <time>2003-04-18T14:49:53Z</time>
      </trkpt>
      <trkpt lat="32.363152010366321" lon="-4.523417009040713">
        <ele>1462.3</ele>
        <time>2003-04-18T14:49:57Z</time>
      </trkpt>
      <trkpt lat="32.363985003903508" lon="-4.522645035758615">
        <ele>1464.9000000000001</ele>
        <time>2003-04-18T14:50:02Z</time>
      </trkpt>
      <trkpt lat="32.36482503823936" lon="-4.521901980042458">
        <ele>1466.5</ele>
        <time>2003-04-18T14:50:06Z</time>
      </trkpt>
      <trkpt lat="32.365637999027967" lon="-4.521150039508939">
        <ele>1469.4000000000001</ele>
        <time>2003-04-18T14:50:10Z</time>
      </trkpt>
      <trkpt lat="32.366448026150465" lon="-4.520406983792782">
        <ele>1472.2</ele>
        <time>2003-04-18T14:50:14Z</time>
      </trkpt>
      <trkpt lat="32.367268027737737" lon="-4.519656971096993">
        <ele>1475</ele>
        <time>2003-04-18T14:50:18Z</time>
      </trkpt>
      <trkpt lat="32.368094986304641" lon="-4.518900001421571">
        <ele>1477.5</ele>
        <time>2003-04-18T14:50:22Z</time>
      </trkpt>
      <trkpt lat="32.368939965963364" lon="-4.51814697124064">
        <ele>1479.5999999999999</ele>
        <time>2003-04-18T14:50:26Z</time>
      </trkpt>
      <trkpt lat="32.369785029441118" lon="-4.517369968816638">
        <ele>1481.7</ele>
        <time>2003-04-18T14:50:30Z</time>
      </trkpt>
      <trkpt lat="32.370645012706518" lon="-4.516585003584623">
        <ele>1483</ele>
        <time>2003-04-18T14:50:34Z</time>
      </trkpt>
      <trkpt lat="32.371512036770582" lon="-4.515785034745932">
        <ele>1483.9000000000001</ele>
        <time>2003-04-18T14:50:38Z</time>
      </trkpt>
      <trkpt lat="32.372383000329137" lon="-4.514981964603066">
        <ele>1484.9000000000001</ele>
        <time>2003-04-18T14:50:42Z</time>
      </trkpt>
      <trkpt lat="32.373247006908059" lon="-4.514173027127981">
        <ele>1487.5999999999999</ele>
        <time>2003-04-18T14:50:46Z</time>
      </trkpt>
      <trkpt lat="32.374102966859937" lon="-4.51339703053236">
        <ele>1488.5</ele>
        <time>2003-04-18T14:50:50Z</time>
      </trkpt>
      <trkpt lat="32.374960016459227" lon="-4.512607036158443">
        <ele>1488.0999999999999</ele>
        <time>2003-04-18T14:50:54Z</time>
      </trkpt>
      <trkpt lat="32.375831985846162" lon="-4.511812012642622">
        <ele>1488</ele>
        <time>2003-04-18T14:50:58Z</time>
      </trkpt>
      <trkpt lat="32.376732034608722" lon="-4.51099201105535">
        <ele>1487.8</ele>
        <time>2003-04-18T14:51:01Z</time>
      </trkpt>
      <trkpt lat="32.377642979845405" lon="-4.510152982547879">
        <ele>1489.3</ele>
        <time>2003-04-18T14:51:05Z</time>
      </trkpt>
      <trkpt lat="32.378561971709132" lon="-4.509308002889156">
        <ele>1487.2</ele>
        <time>2003-04-18T14:51:09Z</time>
      </trkpt>
      <trkpt lat="32.379484986886382" lon="-4.508467968553305">
        <ele>1487.8</ele>
        <time>2003-04-18T14:51:13Z</time>
      </trkpt>
      <trkpt lat="32.380402972921729" lon="-4.507628018036485">
        <ele>1489</ele>
        <time>2003-04-18T14:51:17Z</time>
      </trkpt>
      <trkpt lat="32.38132799975574" lon="-4.506778009235859">
        <ele>1488.0999999999999</ele>
        <time>2003-04-18T14:51:21Z</time>
      </trkpt>
      <trkpt lat="32.382255038246512" lon="-4.50594300404191">
        <ele>1487.7</ele>
        <time>2003-04-18T14:51:25Z</time>
      </trkpt>
      <trkpt lat="32.383158020675182" lon="-4.505134988576174">
        <ele>1487.4000000000001</ele>
        <time>2003-04-18T14:51:29Z</time>
      </trkpt>
      <trkpt lat="32.384039964526892" lon="-4.504341976717114">
        <ele>1486.8</ele>
        <time>2003-04-18T14:51:33Z</time>
      </trkpt>
      <trkpt lat="32.384900031611323" lon="-4.503570003435016">
        <ele>1485</ele>
        <time>2003-04-18T14:51:37Z</time>
      </trkpt>
      <trkpt lat="32.385542001575232" lon="-4.503073040395975">
        <ele>1482.5999999999999</ele>
        <time>2003-04-18T14:51:40Z</time>
      </trkpt>
      <trkpt lat="32.386018009856343" lon="-4.502814961597323">
        <ele>1479</ele>
        <time>2003-04-18T14:51:43Z</time>
      </trkpt>
      <trkpt lat="32.386532993987203" lon="-4.502650005742908">
        <ele>1476.7</ele>
        <time>2003-04-18T14:51:44Z</time>
      </trkpt>
      <trkpt lat="32.387057030573487" lon="-4.502587979659438">
        <ele>1476.0999999999999</ele>
        <time>2003-04-18T14:51:47Z</time>
      </trkpt>
      <trkpt lat="32.387577965855598" lon="-4.502604994922876">
        <ele>1476.2</ele>
        <time>2003-04-18T14:51:48Z</time>
      </trkpt>
      <trkpt lat="32.388620004057884" lon="-4.50278302654624">
        <ele>1476.8</ele>
        <time>2003-04-18T14:51:52Z</time>
      </trkpt>
      <trkpt lat="32.389628011733294" lon="-4.502931972965598">
        <ele>1479.5999999999999</ele>
        <time>2003-04-18T14:51:56Z</time>
      </trkpt>
      <trkpt lat="32.390639958903193" lon="-4.503113022074103">
        <ele>1478.9000000000001</ele>
        <time>2003-04-18T14:52:00Z</time>
      </trkpt>
      <trkpt lat="32.391692977398634" lon="-4.503285018727183">
        <ele>1474.5</ele>
        <time>2003-04-18T14:52:04Z</time>
      </trkpt>
      <trkpt lat="32.392747001722455" lon="-4.503394989296794">
        <ele>1475.4000000000001</ele>
        <time>2003-04-18T14:52:08Z</time>
      </trkpt>
      <trkpt lat="32.392992004752159" lon="-4.50336498208344">
        <ele>1476.3</ele>
        <time>2003-04-18T14:52:10Z</time>
      </trkpt>
      <trkpt lat="32.393457032740116" lon="-4.503249982371926">
        <ele>1478.7</ele>
        <time>2003-04-18T14:52:11Z</time>
      </trkpt>
      <trkpt lat="32.393898004665971" lon="-4.503046972677112">
        <ele>1479.3</ele>
        <time>2003-04-18T14:52:14Z</time>
      </trkpt>
      <trkpt lat="32.394094979390502" lon="-4.50289199128747">
        <ele>1479</ele>
        <time>2003-04-18T14:52:15Z</time>
      </trkpt>
      <trkpt lat="32.394463028758764" lon="-4.502532994374633">
        <ele>1478.8</ele>
        <time>2003-04-18T14:52:17Z</time>
      </trkpt>
      <trkpt lat="32.395114973187447" lon="-4.501677034422755">
        <ele>1478.8</ele>
        <time>2003-04-18T14:52:21Z</time>
      </trkpt>
      <trkpt lat="32.395732970908284" lon="-4.500801963731647">
        <ele>1478.7</ele>
        <time>2003-04-18T14:52:25Z</time>
      </trkpt>
      <trkpt lat="32.397362999618053" lon="-4.499287018552423">
        <ele>1482</ele>
        <time>2003-04-18T14:52:34Z</time>
      </trkpt>
      <trkpt lat="32.398187024518847" lon="-4.498676983639598">
        <ele>1482.5999999999999</ele>
        <time>2003-04-18T14:52:38Z</time>
      </trkpt>
      <trkpt lat="32.399039966985583" lon="-4.498059991747141">
        <ele>1482.4000000000001</ele>
        <time>2003-04-18T14:52:42Z</time>
      </trkpt>
      <trkpt lat="32.399883018806577" lon="-4.497442999854684">
        <ele>1482.4000000000001</ele>
        <time>2003-04-18T14:52:46Z</time>
      </trkpt>
      <trkpt lat="32.4007279984653" lon="-4.496807986870408">
        <ele>1484.0999999999999</ele>
        <time>2003-04-18T14:52:49Z</time>
      </trkpt>
      <trkpt lat="32.401568032801151" lon="-4.49616702273488">
        <ele>1485.5</ele>
        <time>2003-04-18T14:52:53Z</time>
      </trkpt>
      <trkpt lat="32.402385016903281" lon="-4.495494961738586">
        <ele>1487.5</ele>
        <time>2003-04-18T14:52:57Z</time>
      </trkpt>
      <trkpt lat="32.403218010440469" lon="-4.494807980954647">
        <ele>1488.3</ele>
        <time>2003-04-18T14:53:01Z</time>
      </trkpt>
      <trkpt lat="32.404074976220727" lon="-4.494089987128973">
        <ele>1489</ele>
        <time>2003-04-18T14:53:05Z</time>
      </trkpt>
      <trkpt lat="32.404954992234707" lon="-4.493357995525003">
        <ele>1490.3</ele>
        <time>2003-04-18T14:53:09Z</time>
      </trkpt>
      <trkpt lat="32.405825033783913" lon="-4.492628015577793">
        <ele>1492.8</ele>
        <time>2003-04-18T14:53:13Z</time>
      </trkpt>
      <trkpt lat="32.406691974028945" lon="-4.491922007873654">
        <ele>1495.2</ele>
        <time>2003-04-18T14:53:17Z</time>
      </trkpt>
      <trkpt lat="32.407548017799854" lon="-4.491209965199232">
        <ele>1494.8</ele>
        <time>2003-04-18T14:53:21Z</time>
      </trkpt>
      <trkpt lat="32.408402971923351" lon="-4.490498006343842">
        <ele>1495.8</ele>
        <time>2003-04-18T14:53:25Z</time>
      </trkpt>
      <trkpt lat="32.40925800986588" lon="-4.489787975326181">
        <ele>1498.7</ele>
        <time>2003-04-18T14:53:29Z</time>
      </trkpt>
      <trkpt lat="32.410126961767673" lon="-4.489063024520874">
        <ele>1500.0999999999999</ele>
        <time>2003-04-18T14:53:33Z</time>
      </trkpt>
      <trkpt lat="32.411004966124892" lon="-4.488328015431762">
        <ele>1501.4000000000001</ele>
        <time>2003-04-18T14:53:38Z</time>
      </trkpt>
      <trkpt lat="32.411886993795633" lon="-4.487578002735972">
        <ele>1502.5</ele>
        <time>2003-04-18T14:53:42Z</time>
      </trkpt>
      <trkpt lat="32.412768015637994" lon="-4.486835030838847">
        <ele>1504.3</ele>
        <time>2003-04-18T14:53:46Z</time>
      </trkpt>
      <trkpt lat="32.413633028045297" lon="-4.48611200787127">
        <ele>1505.9000000000001</ele>
        <time>2003-04-18T14:53:50Z</time>
      </trkpt>
      <trkpt lat="32.414463004097342" lon="-4.485416980460286">
        <ele>1508.2</ele>
        <time>2003-04-18T14:53:54Z</time>
      </trkpt>
      <trkpt lat="32.41527495905757" lon="-4.484727988019586">
        <ele>1511.5</ele>
        <time>2003-04-18T14:53:58Z</time>
      </trkpt>
      <trkpt lat="32.416096972301602" lon="-4.484043018892407">
        <ele>1511.5999999999999</ele>
        <time>2003-04-18T14:54:02Z</time>
      </trkpt>
      <trkpt lat="32.41692703217268" lon="-4.48334002867341">
        <ele>1512.4000000000001</ele>
        <time>2003-04-18T14:54:06Z</time>
      </trkpt>
      <trkpt lat="32.41776798851788" lon="-4.482626980170608">
        <ele>1514.4000000000001</ele>
        <time>2003-04-18T14:54:10Z</time>
      </trkpt>
      <trkpt lat="32.418601987883449" lon="-4.481942011043429">
        <ele>1517.3</ele>
        <time>2003-04-18T14:54:14Z</time>
      </trkpt>
      <trkpt lat="32.419419977813959" lon="-4.481244971975684">
        <ele>1517.9000000000001</ele>
        <time>2003-04-18T14:54:18Z</time>
      </trkpt>
      <trkpt lat="32.420251965522766" lon="-4.480539970099926">
        <ele>1519.7</ele>
        <time>2003-04-18T14:54:22Z</time>
      </trkpt>
      <trkpt lat="32.421097029000521" lon="-4.479847960174084">
        <ele>1521.2</ele>
        <time>2003-04-18T14:54:26Z</time>
      </trkpt>
      <trkpt lat="32.421967992559075" lon="-4.479242032393813">
        <ele>1522.9000000000001</ele>
        <time>2003-04-18T14:54:30Z</time>
      </trkpt>
      <trkpt lat="32.422833004966378" lon="-4.478616993874311">
        <ele>1523.3</ele>
        <time>2003-04-18T14:54:34Z</time>
      </trkpt>
      <trkpt lat="32.423683013767004" lon="-4.478007964789867">
        <ele>1524.5</ele>
        <time>2003-04-18T14:54:37Z</time>
      </trkpt>
      <trkpt lat="32.424535034224391" lon="-4.477412011474371">
        <ele>1524.8</ele>
        <time>2003-04-18T14:54:41Z</time>
      </trkpt>
      <trkpt lat="32.425399962812662" lon="-4.476801976561546">
        <ele>1526.3</ele>
        <time>2003-04-18T14:54:45Z</time>
      </trkpt>
      <trkpt lat="32.426267992705107" lon="-4.476192025467753">
        <ele>1527.5999999999999</ele>
        <time>2003-04-18T14:54:49Z</time>
      </trkpt>
      <trkpt lat="32.42713300511241" lon="-4.475566986948252">
        <ele>1528.9000000000001</ele>
        <time>2003-04-18T14:54:53Z</time>
      </trkpt>
      <trkpt lat="32.42799298837781" lon="-4.474938008934259">
        <ele>1530.2</ele>
        <time>2003-04-18T14:54:57Z</time>
      </trkpt>
      <trkpt lat="32.428824976086617" lon="-4.474341971799731">
        <ele>1532.9000000000001</ele>
        <time>2003-04-18T14:55:01Z</time>
      </trkpt>
      <trkpt lat="32.429637014865875" lon="-4.473817013204098">
        <ele>1535.8</ele>
        <time>2003-04-18T14:55:05Z</time>
      </trkpt>
      <trkpt lat="32.430272027850151" lon="-4.473554994910955">
        <ele>1536.7</ele>
        <time>2003-04-18T14:55:08Z</time>
      </trkpt>
      <trkpt lat="32.430711993947625" lon="-4.473477965220809">
        <ele>1536.8</ele>
        <time>2003-04-18T14:55:11Z</time>
      </trkpt>
      <trkpt lat="32.431804994121194" lon="-4.473428009077907">
        <ele>1538.2</ele>
        <time>2003-04-18T14:55:16Z</time>
      </trkpt>
      <trkpt lat="32.432221993803978" lon="-4.473530016839504">
        <ele>1538.8</ele>
        <time>2003-04-18T14:55:17Z</time>
      </trkpt>
      <trkpt lat="32.432617032900453" lon="-4.473711987957358">
        <ele>1539.9000000000001</ele>
        <time>2003-04-18T14:55:20Z</time>
      </trkpt>
      <trkpt lat="32.433284986764193" lon="-4.474196964874864">
        <ele>1541</ele>
        <time>2003-04-18T14:55:24Z</time>
      </trkpt>
      <trkpt lat="32.43338699452579" lon="-4.474369967356324">
        <ele>1541.2</ele>
        <time>2003-04-18T14:55:24Z</time>
      </trkpt>
      <trkpt lat="32.433460000902414" lon="-4.474569959565997">
        <ele>1541.8</ele>
        <time>2003-04-18T14:55:26Z</time>
      </trkpt>
      <trkpt lat="32.433623028919101" lon="-4.475073041394353">
        <ele>1542.5999999999999</ele>
        <time>2003-04-18T14:55:28Z</time>
      </trkpt>
      <trkpt lat="32.433662004768848" lon="-4.475177982822061">
        <ele>1542.8</ele>
        <time>2003-04-18T14:55:30Z</time>
      </trkpt>
      <trkpt lat="32.433857973664999" lon="-4.475730014964938">
        <ele>1543.5</ele>
        <time>2003-04-18T14:55:35Z</time>
      </trkpt>
      <trkpt lat="32.433942966163158" lon="-4.47607702575624">
        <ele>1544</ele>
        <time>2003-04-18T14:55:38Z</time>
      </trkpt>
      <trkpt lat="32.433972973376513" lon="-4.476375002413988">
        <ele>1544.2</ele>
        <time>2003-04-18T14:55:39Z</time>
      </trkpt>
      <trkpt lat="32.433953024446964" lon="-4.476542975753546">
        <ele>1544.3</ele>
        <time>2003-04-18T14:55:40Z</time>
      </trkpt>
      <trkpt lat="32.433910025283694" lon="-4.476712960749865">
        <ele>1544.4000000000001</ele>
        <time>2003-04-18T14:55:42Z</time>
      </trkpt>
      <trkpt lat="32.433777004480362" lon="-4.47704697959125">
        <ele>1544.8</ele>
        <time>2003-04-18T14:55:43Z</time>
      </trkpt>
      <trkpt lat="32.433527978137136" lon="-4.477751981467009">
        <ele>1545.5</ele>
        <time>2003-04-18T14:55:47Z</time>
      </trkpt>
      <trkpt lat="32.433418007567525" lon="-4.478396968916059">
        <ele>1545.9000000000001</ele>
        <time>2003-04-18T14:55:51Z</time>
      </trkpt>
      <trkpt lat="32.433424964547157" lon="-4.47887297719717">
        <ele>1546.0999999999999</ele>
        <time>2003-04-18T14:55:53Z</time>
      </trkpt>
      <trkpt lat="32.433463018387556" lon="-4.479116974398494">
        <ele>1546.0999999999999</ele>
        <time>2003-04-18T14:55:54Z</time>
      </trkpt>
      <trkpt lat="32.433599978685379" lon="-4.479591976851225">
        <ele>1546.5</ele>
        <time>2003-04-18T14:55:55Z</time>
      </trkpt>
      <trkpt lat="32.433802988380194" lon="-4.480048036202788">
        <ele>1547.4000000000001</ele>
        <time>2003-04-18T14:55:58Z</time>
      </trkpt>
      <trkpt lat="32.43407498113811" lon="-4.480463024228811">
        <ele>1548.3</ele>
        <time>2003-04-18T14:55:59Z</time>
      </trkpt>
      <trkpt lat="32.43471703492105" lon="-4.481222005560994">
        <ele>1549.0999999999999</ele>
        <time>2003-04-18T14:56:03Z</time>
      </trkpt>
      <trkpt lat="32.435115007683635" lon="-4.481516964733601">
        <ele>1549.3</ele>
        <time>2003-04-18T14:56:06Z</time>
      </trkpt>
      <trkpt lat="32.435993012040854" lon="-4.482011999934912">
        <ele>1548.9000000000001</ele>
        <time>2003-04-18T14:56:10Z</time>
      </trkpt>
      <trkpt lat="32.436918038874865" lon="-4.482541987672448">
        <ele>1547.4000000000001</ele>
        <time>2003-04-18T14:56:14Z</time>
      </trkpt>
      <trkpt lat="32.437880029901862" lon="-4.483097037300468">
        <ele>1546.4000000000001</ele>
        <time>2003-04-18T14:56:18Z</time>
      </trkpt>
      <trkpt lat="32.438855012878776" lon="-4.483653008937836">
        <ele>1547.2</ele>
        <time>2003-04-18T14:56:22Z</time>
      </trkpt>
      <trkpt lat="32.439794959500432" lon="-4.484188025817275">
        <ele>1549.7</ele>
        <time>2003-04-18T14:56:25Z</time>
      </trkpt>
      <trkpt lat="32.440427960827947" lon="-4.484622962772846">
        <ele>1551.9000000000001</ele>
        <time>2003-04-18T14:56:29Z</time>
      </trkpt>
      <trkpt lat="32.440768014639616" lon="-4.485002998262644">
        <ele>1553.3</ele>
        <time>2003-04-18T14:56:30Z</time>
      </trkpt>
      <trkpt lat="32.441388024017215" lon="-4.48585300706327">
        <ele>1555.5</ele>
        <time>2003-04-18T14:56:34Z</time>
      </trkpt>
      <trkpt lat="32.441978026181459" lon="-4.486682983115315">
        <ele>1557.9000000000001</ele>
        <time>2003-04-18T14:56:38Z</time>
      </trkpt>
      <trkpt lat="32.442425033077598" lon="-4.487235015258193">
        <ele>1558.0999999999999</ele>
        <time>2003-04-18T14:56:41Z</time>
      </trkpt>
      <trkpt lat="32.442602980881929" lon="-4.487365018576384">
        <ele>1558.0999999999999</ele>
        <time>2003-04-18T14:56:42Z</time>
      </trkpt>
      <trkpt lat="32.442795010283589" lon="-4.487457973882556">
        <ele>1557.5999999999999</ele>
        <time>2003-04-18T14:56:44Z</time>
      </trkpt>
      <trkpt lat="32.443202035501599" lon="-4.487557969987392">
        <ele>1557.5</ele>
        <time>2003-04-18T14:56:45Z</time>
      </trkpt>
      <trkpt lat="32.443400016054511" lon="-4.487538021057844">
        <ele>1558.3</ele>
        <time>2003-04-18T14:56:47Z</time>
      </trkpt>
      <trkpt lat="32.443588022142649" lon="-4.48748697526753">
        <ele>1559.2</ele>
        <time>2003-04-18T14:56:48Z</time>
      </trkpt>
      <trkpt lat="32.444538027048111" lon="-4.487154968082905">
        <ele>1561</ele>
        <time>2003-04-18T14:56:52Z</time>
      </trkpt>
      <trkpt lat="32.44548300281167" lon="-4.486836958676577">
        <ele>1562.5999999999999</ele>
        <time>2003-04-18T14:56:57Z</time>
      </trkpt>
      <trkpt lat="32.446420015767217" lon="-4.486594973132014">
        <ele>1564.4000000000001</ele>
        <time>2003-04-18T14:57:03Z</time>
      </trkpt>
      <trkpt lat="32.44679301045835" lon="-4.486596984788775">
        <ele>1565.4000000000001</ele>
        <time>2003-04-18T14:57:04Z</time>
      </trkpt>
      <trkpt lat="32.4471599701792" lon="-4.486658005043864">
        <ele>1566.3</ele>
        <time>2003-04-18T14:57:07Z</time>
      </trkpt>
      <trkpt lat="32.447517961263657" lon="-4.486787002533674">
        <ele>1566.5</ele>
        <time>2003-04-18T14:57:08Z</time>
      </trkpt>
      <trkpt lat="32.448371993377805" lon="-4.487216994166374">
        <ele>1568.2</ele>
        <time>2003-04-18T14:57:14Z</time>
      </trkpt>
      <trkpt lat="32.448678016662598" lon="-4.487483035773039">
        <ele>1570</ele>
        <time>2003-04-18T14:57:16Z</time>
      </trkpt>
      <trkpt lat="32.44941302575171" lon="-4.488207986578345">
        <ele>1573.9000000000001</ele>
        <time>2003-04-18T14:57:20Z</time>
      </trkpt>
      <trkpt lat="32.45016697794199" lon="-4.488935032859445">
        <ele>1580.8</ele>
        <time>2003-04-18T14:57:26Z</time>
      </trkpt>
      <trkpt lat="32.450707023963332" lon="-4.489559987559915">
        <ele>1586.2</ele>
        <time>2003-04-18T14:57:30Z</time>
      </trkpt>
      <trkpt lat="32.450801990926266" lon="-4.489740030840039">
        <ele>1587.8</ele>
        <time>2003-04-18T14:57:31Z</time>
      </trkpt>
      <trkpt lat="32.450946997851133" lon="-4.490122999995947">
        <ele>1590.5999999999999</ele>
        <time>2003-04-18T14:57:32Z</time>
      </trkpt>
      <trkpt lat="32.451298031955957" lon="-4.491232009604573">
        <ele>1596.5</ele>
        <time>2003-04-18T14:57:39Z</time>
      </trkpt>
      <trkpt lat="32.451307000592351" lon="-4.491616990417242">
        <ele>1598.2</ele>
        <time>2003-04-18T14:57:41Z</time>
      </trkpt>
      <trkpt lat="32.451332984492183" lon="-4.491993002593517">
        <ele>1599</ele>
        <time>2003-04-18T14:57:43Z</time>
      </trkpt>
      <trkpt lat="32.451406996697187" lon="-4.492351999506354">
        <ele>1600</ele>
        <time>2003-04-18T14:57:45Z</time>
      </trkpt>
      <trkpt lat="32.451555021107197" lon="-4.492681995034218">
        <ele>1601.5</ele>
        <time>2003-04-18T14:57:46Z</time>
      </trkpt>
      <trkpt lat="32.451668009161949" lon="-4.492819961160421">
        <ele>1602.2</ele>
        <time>2003-04-18T14:57:47Z</time>
      </trkpt>
      <trkpt lat="32.452375022694468" lon="-4.493548013269901">
        <ele>1606</ele>
        <time>2003-04-18T14:57:54Z</time>
      </trkpt>
      <trkpt lat="32.452627988532186" lon="-4.49371699243784">
        <ele>1606.7</ele>
        <time>2003-04-18T14:57:55Z</time>
      </trkpt>
      <trkpt lat="32.452795039862394" lon="-4.493887983262539">
        <ele>1608</ele>
        <time>2003-04-18T14:57:58Z</time>
      </trkpt>
      <trkpt lat="32.452822029590607" lon="-4.493999965488911">
        <ele>1608.0999999999999</ele>
        <time>2003-04-18T14:57:58Z</time>
      </trkpt>
      <trkpt lat="32.452818006277084" lon="-4.49412502348423">
        <ele>1607.7</ele>
        <time>2003-04-18T14:57:59Z</time>
      </trkpt>
      <trkpt lat="32.452796967700124" lon="-4.494252009317279">
        <ele>1607.3</ele>
        <time>2003-04-18T14:58:01Z</time>
      </trkpt>
      <trkpt lat="32.452772995457053" lon="-4.494485026225448">
        <ele>1606.4000000000001</ele>
        <time>2003-04-18T14:58:02Z</time>
      </trkpt>
      <trkpt lat="32.45278799906373" lon="-4.494606982916594">
        <ele>1606.0999999999999</ele>
        <time>2003-04-18T14:58:03Z</time>
      </trkpt>
      <trkpt lat="32.452824963256717" lon="-4.494737992063165">
        <ele>1605.4000000000001</ele>
        <time>2003-04-18T14:58:05Z</time>
      </trkpt>
      <trkpt lat="32.452882966026664" lon="-4.494872018694878">
        <ele>1605</ele>
        <time>2003-04-18T14:58:06Z</time>
      </trkpt>
      <trkpt lat="32.452954966574907" lon="-4.494992969557643">
        <ele>1604.4000000000001</ele>
        <time>2003-04-18T14:58:06Z</time>
      </trkpt>
      <trkpt lat="32.453116988763213" lon="-4.495367975905538">
        <ele>1602.3</ele>
        <time>2003-04-18T14:58:10Z</time>
      </trkpt>
      <trkpt lat="32.453122017905116" lon="-4.495511977002025">
        <ele>1601.7</ele>
        <time>2003-04-18T14:58:10Z</time>
      </trkpt>
      <trkpt lat="32.453102990984917" lon="-4.49565002694726">
        <ele>1601.7</ele>
        <time>2003-04-18T14:58:12Z</time>
      </trkpt>
      <trkpt lat="32.452999977394938" lon="-4.496040036901832">
        <ele>1600.5</ele>
        <time>2003-04-18T14:58:14Z</time>
      </trkpt>
      <trkpt lat="32.452886989340186" lon="-4.496286967769265">
        <ele>1600.0999999999999</ele>
        <time>2003-04-18T14:58:17Z</time>
      </trkpt>
      <trkpt lat="32.452803002670407" lon="-4.496402973309159">
        <ele>1599.5999999999999</ele>
        <time>2003-04-18T14:58:17Z</time>
      </trkpt>
      <trkpt lat="32.452541990205646" lon="-4.496817961335182">
        <ele>1597.5999999999999</ele>
        <time>2003-04-18T14:58:21Z</time>
      </trkpt>
      <trkpt lat="32.4524200335145" lon="-4.497157009318471">
        <ele>1596.8</ele>
        <time>2003-04-18T14:58:22Z</time>
      </trkpt>
      <trkpt lat="32.452309979125857" lon="-4.497678028419614">
        <ele>1594.2</ele>
        <time>2003-04-18T14:58:25Z</time>
      </trkpt>
      <trkpt lat="32.452311990782619" lon="-4.497867040336132">
        <ele>1593.8</ele>
        <time>2003-04-18T14:58:26Z</time>
      </trkpt>
      <trkpt lat="32.452347027137876" lon="-4.498054962605238">
        <ele>1593.0999999999999</ele>
        <time>2003-04-18T14:58:28Z</time>
      </trkpt>
      <trkpt lat="32.452417016029358" lon="-4.498231988400221">
        <ele>1592.5999999999999</ele>
        <time>2003-04-18T14:58:29Z</time>
      </trkpt>
      <trkpt lat="32.45250997133553" lon="-4.498387975618243">
        <ele>1592</ele>
        <time>2003-04-18T14:58:29Z</time>
      </trkpt>
      <trkpt lat="32.452633017674088" lon="-4.498523008078337">
        <ele>1591.2</ele>
        <time>2003-04-18T14:58:30Z</time>
      </trkpt>
      <trkpt lat="32.452922025695443" lon="-4.498753007501364">
        <ele>1590.5999999999999</ele>
        <time>2003-04-18T14:58:33Z</time>
      </trkpt>
      <trkpt lat="32.453555027022958" lon="-4.49917302466929">
        <ele>1589.2</ele>
        <time>2003-04-18T14:58:37Z</time>
      </trkpt>
      <trkpt lat="32.453742027282715" lon="-4.499222980812192">
        <ele>1588.7</ele>
        <time>2003-04-18T14:58:37Z</time>
      </trkpt>
      <trkpt lat="32.453928021714091" lon="-4.499234966933727">
        <ele>1588</ele>
        <time>2003-04-18T14:58:39Z</time>
      </trkpt>
      <trkpt lat="32.454107981175184" lon="-4.499215018004179">
        <ele>1587.7</ele>
        <time>2003-04-18T14:58:40Z</time>
      </trkpt>
      <trkpt lat="32.454281989485025" lon="-4.499162966385484">
        <ele>1587.3</ele>
        <time>2003-04-18T14:58:41Z</time>
      </trkpt>
      <trkpt lat="32.455212967470288" lon="-4.498791983351111">
        <ele>1585.7</ele>
        <time>2003-04-18T14:58:45Z</time>
      </trkpt>
      <trkpt lat="32.456185016781092" lon="-4.49844497255981">
        <ele>1585.7</ele>
        <time>2003-04-18T14:58:51Z</time>
      </trkpt>
      <trkpt lat="32.45656999759376" lon="-4.498371966183186">
        <ele>1586</ele>
        <time>2003-04-18T14:58:52Z</time>
      </trkpt>
      <trkpt lat="32.456769989803433" lon="-4.498378001153469">
        <ele>1586</ele>
        <time>2003-04-18T14:58:53Z</time>
      </trkpt>
      <trkpt lat="32.457165028899908" lon="-4.498482020571828">
        <ele>1586.0999999999999</ele>
        <time>2003-04-18T14:58:56Z</time>
      </trkpt>
      <trkpt lat="32.457537017762661" lon="-4.498692993074656">
        <ele>1586.2</ele>
        <time>2003-04-18T14:58:57Z</time>
      </trkpt>
      <trkpt lat="32.457849998027086" lon="-4.498994993045926">
        <ele>1586.0999999999999</ele>
        <time>2003-04-18T14:59:00Z</time>
      </trkpt>
      <trkpt lat="32.458592969924212" lon="-4.499805020168424">
        <ele>1584.5</ele>
        <time>2003-04-18T14:59:04Z</time>
      </trkpt>
      <trkpt lat="32.459227982908487" lon="-4.500444978475571">
        <ele>1585</ele>
        <time>2003-04-18T14:59:08Z</time>
      </trkpt>
      <trkpt lat="32.460212018340826" lon="-4.500813027843833">
        <ele>1587.8</ele>
        <time>2003-04-18T14:59:14Z</time>
      </trkpt>
      <trkpt lat="32.460417961701751" lon="-4.500792995095253">
        <ele>1589.0999999999999</ele>
        <time>2003-04-18T14:59:15Z</time>
      </trkpt>
      <trkpt lat="32.460828004404902" lon="-4.50067799538374">
        <ele>1590.5</ele>
        <time>2003-04-18T14:59:16Z</time>
      </trkpt>
      <trkpt lat="32.4612080398947" lon="-4.500470040366054">
        <ele>1591.5</ele>
        <time>2003-04-18T14:59:19Z</time>
      </trkpt>
      <trkpt lat="32.461556978523731" lon="-4.500178014859557">
        <ele>1592.7</ele>
        <time>2003-04-18T14:59:20Z</time>
      </trkpt>
      <trkpt lat="32.462431965395808" lon="-4.499402018263936">
        <ele>1594.3</ele>
        <time>2003-04-18T14:59:26Z</time>
      </trkpt>
      <trkpt lat="32.463277028873563" lon="-4.498712019994855">
        <ele>1595.9000000000001</ele>
        <time>2003-04-18T14:59:31Z</time>
      </trkpt>
      <trkpt lat="32.463667038828135" lon="-4.498512027785182">
        <ele>1596.7</ele>
        <time>2003-04-18T14:59:33Z</time>
      </trkpt>
      <trkpt lat="32.464265003800392" lon="-4.498340031132102">
        <ele>1597.4000000000001</ele>
        <time>2003-04-18T14:59:35Z</time>
      </trkpt>
      <trkpt lat="32.465281980112195" lon="-4.498116988688707">
        <ele>1597.5</ele>
        <time>2003-04-18T14:59:41Z</time>
      </trkpt>
      <trkpt lat="32.466393001377583" lon="-4.497865028679371">
        <ele>1597.8</ele>
        <time>2003-04-18T14:59:46Z</time>
      </trkpt>
      <trkpt lat="32.467343006283045" lon="-4.497650032863021">
        <ele>1598.7</ele>
        <time>2003-04-18T14:59:50Z</time>
      </trkpt>
      <trkpt lat="32.468304997310042" lon="-4.497402012348175">
        <ele>1601.4000000000001</ele>
        <time>2003-04-18T14:59:54Z</time>
      </trkpt>
      <trkpt lat="32.469228012487292" lon="-4.497052989900112">
        <ele>1603.0999999999999</ele>
        <time>2003-04-18T14:59:58Z</time>
      </trkpt>
      <trkpt lat="32.469892026856542" lon="-4.496587961912155">
        <ele>1603.0999999999999</ele>
        <time>2003-04-18T15:00:01Z</time>
      </trkpt>
      <trkpt lat="32.470768019556999" lon="-4.495923025533557">
        <ele>1603</ele>
        <time>2003-04-18T15:00:05Z</time>
      </trkpt>
      <trkpt lat="32.471645018085837" lon="-4.495233027264476">
        <ele>1603.4000000000001</ele>
        <time>2003-04-18T15:00:09Z</time>
      </trkpt>
      <trkpt lat="32.472522016614676" lon="-4.49455501511693">
        <ele>1607.7</ele>
        <time>2003-04-18T15:00:13Z</time>
      </trkpt>
      <trkpt lat="32.473415024578571" lon="-4.493880020454526">
        <ele>1608.2</ele>
        <time>2003-04-18T15:00:17Z</time>
      </trkpt>
      <trkpt lat="32.474252041429281" lon="-4.49324500747025">
        <ele>1609.3</ele>
        <time>2003-04-18T15:00:21Z</time>
      </trkpt>
      <trkpt lat="32.475129961967468" lon="-4.492609994485974">
        <ele>1609.5</ele>
        <time>2003-04-18T15:00:25Z</time>
      </trkpt>
      <trkpt lat="32.475624997168779" lon="-4.492382006719708">
        <ele>1610.2</ele>
        <time>2003-04-18T15:00:27Z</time>
      </trkpt>
      <trkpt lat="32.476652031764388" lon="-4.491991996765137">
        <ele>1611.4000000000001</ele>
        <time>2003-04-18T15:00:31Z</time>
      </trkpt>
      <trkpt lat="32.477703038603067" lon="-4.491602992638946">
        <ele>1612</ele>
        <time>2003-04-18T15:00:35Z</time>
      </trkpt>
      <trkpt lat="32.478744992986321" lon="-4.491239972412586">
        <ele>1612.5</ele>
        <time>2003-04-18T15:00:39Z</time>
      </trkpt>
      <trkpt lat="32.479789964854717" lon="-4.491012990474701">
        <ele>1614.3</ele>
        <time>2003-04-18T15:00:43Z</time>
      </trkpt>
      <trkpt lat="32.480841977521777" lon="-4.49081702157855">
        <ele>1616.5999999999999</ele>
        <time>2003-04-18T15:00:47Z</time>
      </trkpt>
      <trkpt lat="32.481828024610877" lon="-4.490509992465377">
        <ele>1615.9000000000001</ele>
        <time>2003-04-18T15:00:51Z</time>
      </trkpt>
      <trkpt lat="32.482794960960746" lon="-4.49017496779561">
        <ele>1618.2</ele>
        <time>2003-04-18T15:00:55Z</time>
      </trkpt>
      <trkpt lat="32.483738008886576" lon="-4.489857964217663">
        <ele>1620.9000000000001</ele>
        <time>2003-04-18T15:00:59Z</time>
      </trkpt>
      <trkpt lat="32.484787004068494" lon="-4.489517994225025">
        <ele>1621.9000000000001</ele>
        <time>2003-04-18T15:01:03Z</time>
      </trkpt>
      <trkpt lat="32.485772967338562" lon="-4.489211970940232">
        <ele>1623</ele>
        <time>2003-04-18T15:01:10Z</time>
      </trkpt>
      <trkpt lat="32.48679799027741" lon="-4.488879963755608">
        <ele>1625.4000000000001</ele>
        <time>2003-04-18T15:01:15Z</time>
      </trkpt>
      <trkpt lat="32.487891996279359" lon="-4.488533036783338">
        <ele>1625.5999999999999</ele>
        <time>2003-04-18T15:01:19Z</time>
      </trkpt>
      <trkpt lat="32.488842001184821" lon="-4.488236987963319">
        <ele>1626.0999999999999</ele>
        <time>2003-04-18T15:01:22Z</time>
      </trkpt>
      <trkpt lat="32.489774990826845" lon="-4.48793800547719">
        <ele>1625.8</ele>
        <time>2003-04-18T15:01:26Z</time>
      </trkpt>
      <trkpt lat="32.490728013217449" lon="-4.487627958878875">
        <ele>1628.4000000000001</ele>
        <time>2003-04-18T15:01:31Z</time>
      </trkpt>
      <trkpt lat="32.491705007851124" lon="-4.487322019413114">
        <ele>1630.4000000000001</ele>
        <time>2003-04-18T15:01:35Z</time>
      </trkpt>
      <trkpt lat="32.492691976949573" lon="-4.487003004178405">
        <ele>1633.2</ele>
        <time>2003-04-18T15:01:39Z</time>
      </trkpt>
      <trkpt lat="32.493690010160208" lon="-4.486696980893612">
        <ele>1634.5</ele>
        <time>2003-04-18T15:01:44Z</time>
      </trkpt>
      <trkpt lat="32.494695000350475" lon="-4.486376959830523">
        <ele>1637.4000000000001</ele>
        <time>2003-04-18T15:01:48Z</time>
      </trkpt>
      <trkpt lat="32.495699990540743" lon="-4.486058028414846">
        <ele>1638.0999999999999</ele>
        <time>2003-04-18T15:01:52Z</time>
      </trkpt>
      <trkpt lat="32.496647983789444" lon="-4.485761979594827">
        <ele>1641.4000000000001</ele>
        <time>2003-04-18T15:01:56Z</time>
      </trkpt>
      <trkpt lat="32.497692033648491" lon="-4.485437013208866">
        <ele>1643.2</ele>
        <time>2003-04-18T15:02:01Z</time>
      </trkpt>
      <trkpt lat="32.498677996918559" lon="-4.48512302711606">
        <ele>1645.0999999999999</ele>
        <time>2003-04-18T15:02:05Z</time>
      </trkpt>
      <trkpt lat="32.499743001535535" lon="-4.484786996617913">
        <ele>1644.2</ele>
        <time>2003-04-18T15:02:11Z</time>
      </trkpt>
      <trkpt lat="32.500647995620966" lon="-4.484511986374855">
        <ele>1644.8</ele>
        <time>2003-04-18T15:02:15Z</time>
      </trkpt>
      <trkpt lat="32.501446958631277" lon="-4.484257008880377">
        <ele>1645.5</ele>
        <time>2003-04-18T15:02:19Z</time>
      </trkpt>
      <trkpt lat="32.502272995188832" lon="-4.483992978930473">
        <ele>1646.5</ele>
        <time>2003-04-18T15:02:24Z</time>
      </trkpt>
      <trkpt lat="32.503215037286282" lon="-4.48370698839426">
        <ele>1647</ele>
        <time>2003-04-18T15:02:29Z</time>
      </trkpt>
      <trkpt lat="32.504063034430146" lon="-4.483586959540844">
        <ele>1647.5999999999999</ele>
        <time>2003-04-18T15:02:35Z</time>
      </trkpt>
      <trkpt lat="32.505116974934936" lon="-4.483537003397942">
        <ele>1648.5</ele>
        <time>2003-04-18T15:02:40Z</time>
      </trkpt>
      <trkpt lat="32.506158007308841" lon="-4.483470031991601">
        <ele>1648.3</ele>
        <time>2003-04-18T15:02:47Z</time>
      </trkpt>
      <trkpt lat="32.50701698474586" lon="-4.483414962887764">
        <ele>1649.0999999999999</ele>
        <time>2003-04-18T15:02:51Z</time>
      </trkpt>
      <trkpt lat="32.507268022745848" lon="-4.483401970937848">
        <ele>1649.2</ele>
        <time>2003-04-18T15:02:54Z</time>
      </trkpt>
      <trkpt lat="32.507846960797906" lon="-4.483370035886765">
        <ele>1650</ele>
        <time>2003-04-18T15:02:59Z</time>
      </trkpt>
      <trkpt lat="32.508247029036283" lon="-4.483334999531508">
        <ele>1650.8</ele>
        <time>2003-04-18T15:03:03Z</time>
      </trkpt>
      <trkpt lat="32.508387006819248" lon="-4.483317984268069">
        <ele>1651.0999999999999</ele>
        <time>2003-04-18T15:03:05Z</time>
      </trkpt>
      <trkpt lat="32.508479962125421" lon="-4.483307003974915">
        <ele>1651.3</ele>
        <time>2003-04-18T15:03:07Z</time>
      </trkpt>
      <trkpt lat="32.508607031777501" lon="-4.483292000368238">
        <ele>1647.5</ele>
        <time>2003-04-18T15:04:12Z</time>
      </trkpt>
      <trkpt lat="32.508703004568815" lon="-4.483247995376587">
        <ele>1647.9000000000001</ele>
        <time>2003-04-18T15:04:16Z</time>
      </trkpt>
      <trkpt lat="32.508573001250625" lon="-4.483127966523171">
        <ele>1646</ele>
        <time>2003-04-18T15:11:16Z</time>
      </trkpt>
      <trkpt lat="32.508364962413907" lon="-4.48299796320498">
        <ele>1645.3</ele>
        <time>2003-04-18T15:11:24Z</time>
      </trkpt>
      <trkpt lat="32.508292039856315" lon="-4.482935015112162">
        <ele>1644.9000000000001</ele>
        <time>2003-04-18T15:11:31Z</time>
      </trkpt>
      <trkpt lat="32.50819799490273" lon="-4.482838036492467">
        <ele>1645.5999999999999</ele>
        <time>2003-04-18T15:11:54Z</time>
      </trkpt>
      <trkpt lat="32.508143009617925" lon="-4.482742985710502">
        <ele>1645.5</ele>
        <time>2003-04-18T15:11:56Z</time>
      </trkpt>
      <trkpt lat="32.508124988526106" lon="-4.482623040676117">
        <ele>1645</ele>
        <time>2003-04-18T15:11:59Z</time>
      </trkpt>
      <trkpt lat="32.508173016831279" lon="-4.482492031529546">
        <ele>1643.7</ele>
        <time>2003-04-18T15:12:05Z</time>
      </trkpt>
      <trkpt lat="32.508305031806231" lon="-4.482358004897833">
        <ele>1642.8</ele>
        <time>2003-04-18T15:12:09Z</time>
      </trkpt>
      <trkpt lat="32.508364962413907" lon="-4.482272006571293">
        <ele>1643.7</ele>
        <time>2003-04-18T15:12:10Z</time>
      </trkpt>
      <trkpt lat="32.508442997932434" lon="-4.482202017679811">
        <ele>1643.7</ele>
        <time>2003-04-18T15:12:13Z</time>
      </trkpt>
      <trkpt lat="32.508524972945452" lon="-4.482154995203018">
        <ele>1643.5</ele>
        <time>2003-04-18T15:12:14Z</time>
      </trkpt>
      <trkpt lat="32.508717002347112" lon="-4.482015017420054">
        <ele>1644.0999999999999</ele>
        <time>2003-04-18T15:12:18Z</time>
      </trkpt>
      <trkpt lat="32.508980026468635" lon="-4.481803039088845">
        <ele>1645.0999999999999</ele>
        <time>2003-04-18T15:12:23Z</time>
      </trkpt>
      <trkpt lat="32.509140037000179" lon="-4.481667000800371">
        <ele>1647.0999999999999</ele>
        <time>2003-04-18T15:12:26Z</time>
      </trkpt>
      <trkpt lat="32.509455028921366" lon="-4.481398025527597">
        <ele>1647.7</ele>
        <time>2003-04-18T15:12:32Z</time>
      </trkpt>
      <trkpt lat="32.509591989219189" lon="-4.481244971975684">
        <ele>1648.3</ele>
        <time>2003-04-18T15:12:34Z</time>
      </trkpt>
      <trkpt lat="32.509744958952069" lon="-4.480978008359671">
        <ele>1649.5999999999999</ele>
        <time>2003-04-18T15:12:37Z</time>
      </trkpt>
      <trkpt lat="32.509945034980774" lon="-4.480552962049842">
        <ele>1647.5999999999999</ele>
        <time>2003-04-18T15:12:41Z</time>
      </trkpt>
      <trkpt lat="32.510273018851876" lon="-4.479502039030194">
        <ele>1647.0999999999999</ele>
        <time>2003-04-18T15:12:50Z</time>
      </trkpt>
      <trkpt lat="32.510364968329668" lon="-4.479382010176778">
        <ele>1647</ele>
        <time>2003-04-18T15:12:53Z</time>
      </trkpt>
      <trkpt lat="32.510430011898279" lon="-4.479295006021857">
        <ele>1645.5</ele>
        <time>2003-04-18T15:12:54Z</time>
      </trkpt>
      <trkpt lat="32.510635033249855" lon="-4.479002980515361">
        <ele>1646.4000000000001</ele>
        <time>2003-04-18T15:13:00Z</time>
      </trkpt>
      <trkpt lat="32.510826978832483" lon="-4.478822015225887">
        <ele>1647</ele>
        <time>2003-04-18T15:13:03Z</time>
      </trkpt>
      <trkpt lat="32.510956982150674" lon="-4.47865697555244">
        <ele>1647.4000000000001</ele>
        <time>2003-04-18T15:13:04Z</time>
      </trkpt>
      <trkpt lat="32.511299969628453" lon="-4.478263026103377">
        <ele>1652.2</ele>
        <time>2003-04-18T15:13:09Z</time>
      </trkpt>
      <trkpt lat="32.512068003416061" lon="-4.477698002010584">
        <ele>1657.5</ele>
        <time>2003-04-18T15:13:19Z</time>
      </trkpt>
      <trkpt lat="32.512362962588668" lon="-4.477521982043982">
        <ele>1657.7</ele>
        <time>2003-04-18T15:13:21Z</time>
      </trkpt>
      <trkpt lat="32.513201991096139" lon="-4.477008003741503">
        <ele>1660.5</ele>
        <time>2003-04-18T15:13:30Z</time>
      </trkpt>
      <trkpt lat="32.513570040464401" lon="-4.476774986833334">
        <ele>1661.3</ele>
        <time>2003-04-18T15:13:34Z</time>
      </trkpt>
      <trkpt lat="32.513695014640689" lon="-4.476693011820316">
        <ele>1661.5999999999999</ele>
        <time>2003-04-18T15:13:35Z</time>
      </trkpt>
      <trkpt lat="32.514549968764186" lon="-4.476127987727523">
        <ele>1663</ele>
        <time>2003-04-18T15:13:48Z</time>
      </trkpt>
      <trkpt lat="32.514981972053647" lon="-4.475734960287809">
        <ele>1663</ele>
        <time>2003-04-18T15:13:54Z</time>
      </trkpt>
      <trkpt lat="32.515477007254958" lon="-4.475346961989999">
        <ele>1664</ele>
        <time>2003-04-18T15:13:58Z</time>
      </trkpt>
      <trkpt lat="32.516197012737393" lon="-4.474898027256131">
        <ele>1664.7</ele>
        <time>2003-04-18T15:14:06Z</time>
      </trkpt>
      <trkpt lat="32.516817022114992" lon="-4.474218003451824">
        <ele>1664.5999999999999</ele>
        <time>2003-04-18T15:14:14Z</time>
      </trkpt>
      <trkpt lat="32.516848035156727" lon="-4.474097974598408">
        <ele>1664.4000000000001</ele>
        <time>2003-04-18T15:14:14Z</time>
      </trkpt>
      <trkpt lat="32.51702799461782" lon="-4.47360503487289">
        <ele>1665.8</ele>
        <time>2003-04-18T15:14:18Z</time>
      </trkpt>
      <trkpt lat="32.517497967928648" lon="-4.472625022754073">
        <ele>1668.3</ele>
        <time>2003-04-18T15:14:26Z</time>
      </trkpt>
      <trkpt lat="32.517771972343326" lon="-4.471506960690022">
        <ele>1670.9000000000001</ele>
        <time>2003-04-18T15:14:34Z</time>
      </trkpt>
      <trkpt lat="32.517878003418446" lon="-4.470912013202906">
        <ele>1671.5999999999999</ele>
        <time>2003-04-18T15:14:38Z</time>
      </trkpt>
      <trkpt lat="32.518042959272861" lon="-4.470169963315129">
        <ele>1673.2</ele>
        <time>2003-04-18T15:14:44Z</time>
      </trkpt>
      <trkpt lat="32.51818997785449" lon="-4.469907023012638">
        <ele>1674.0999999999999</ele>
        <time>2003-04-18T15:14:45Z</time>
      </trkpt>
      <trkpt lat="32.518721977248788" lon="-4.469036981463432">
        <ele>1677.3</ele>
        <time>2003-04-18T15:14:52Z</time>
      </trkpt>
      <trkpt lat="32.519222041592002" lon="-4.468101980164647">
        <ele>1678.4000000000001</ele>
        <time>2003-04-18T15:15:00Z</time>
      </trkpt>
      <trkpt lat="32.519408036023378" lon="-4.467584984377027">
        <ele>1679.7</ele>
        <time>2003-04-18T15:15:04Z</time>
      </trkpt>
      <trkpt lat="32.519457992166281" lon="-4.467162033542991">
        <ele>1680.4000000000001</ele>
        <time>2003-04-18T15:15:08Z</time>
      </trkpt>
      <trkpt lat="32.519511971622705" lon="-4.466879982501268">
        <ele>1680.7</ele>
        <time>2003-04-18T15:15:09Z</time>
      </trkpt>
      <trkpt lat="32.51975697465241" lon="-4.465727973729372">
        <ele>1683</ele>
        <time>2003-04-18T15:15:18Z</time>
      </trkpt>
      <trkpt lat="32.519914973527193" lon="-4.465092960745096">
        <ele>1684.8</ele>
        <time>2003-04-18T15:15:23Z</time>
      </trkpt>
      <trkpt lat="32.519968030974269" lon="-4.464943008497357">
        <ele>1684.8</ele>
        <time>2003-04-18T15:15:24Z</time>
      </trkpt>
      <trkpt lat="32.520132986828685" lon="-4.464547969400883">
        <ele>1685.5999999999999</ele>
        <time>2003-04-18T15:15:28Z</time>
      </trkpt>
      <trkpt lat="32.520317975431681" lon="-4.464072966948152">
        <ele>1687</ele>
        <time>2003-04-18T15:15:34Z</time>
      </trkpt>
      <trkpt lat="32.520461976528168" lon="-4.463684968650341">
        <ele>1687.3</ele>
        <time>2003-04-18T15:15:38Z</time>
      </trkpt>
      <trkpt lat="32.52065802924335" lon="-4.46327299810946">
        <ele>1688</ele>
        <time>2003-04-18T15:15:42Z</time>
      </trkpt>
      <trkpt lat="32.520840000361204" lon="-4.462760025635362">
        <ele>1688.9000000000001</ele>
        <time>2003-04-18T15:15:46Z</time>
      </trkpt>
      <trkpt lat="32.521302010864019" lon="-4.461786970496178">
        <ele>1690.7</ele>
        <time>2003-04-18T15:15:53Z</time>
      </trkpt>
      <trkpt lat="32.521342998370528" lon="-4.461650010198355">
        <ele>1690.9000000000001</ele>
        <time>2003-04-18T15:15:54Z</time>
      </trkpt>
      <trkpt lat="32.5214549805969" lon="-4.461393021047115">
        <ele>1691.4000000000001</ele>
        <time>2003-04-18T15:15:55Z</time>
      </trkpt>
      <trkpt lat="32.521937023848295" lon="-4.460473023355007">
        <ele>1693.0999999999999</ele>
        <time>2003-04-18T15:16:02Z</time>
      </trkpt>
      <trkpt lat="32.522468017414212" lon="-4.459401983767748">
        <ele>1694.7</ele>
        <time>2003-04-18T15:16:10Z</time>
      </trkpt>
      <trkpt lat="32.522949976846576" lon="-4.45846002548933">
        <ele>1696.3</ele>
        <time>2003-04-18T15:16:16Z</time>
      </trkpt>
      <trkpt lat="32.5234529748559" lon="-4.457546984776855">
        <ele>1697.8</ele>
        <time>2003-04-18T15:16:21Z</time>
      </trkpt>
      <trkpt lat="32.523957984521985" lon="-4.456624975427985">
        <ele>1699.9000000000001</ele>
        <time>2003-04-18T15:16:28Z</time>
      </trkpt>
      <trkpt lat="32.524301977828145" lon="-4.456019969657064">
        <ele>1700.5</ele>
        <time>2003-04-18T15:16:32Z</time>
      </trkpt>
      <trkpt lat="32.524546980857849" lon="-4.455547984689474">
        <ele>1701.0999999999999</ele>
        <time>2003-04-18T15:16:35Z</time>
      </trkpt>
      <trkpt lat="32.524797013029456" lon="-4.455084968358278">
        <ele>1701.8</ele>
        <time>2003-04-18T15:16:37Z</time>
      </trkpt>
      <trkpt lat="32.525047967210412" lon="-4.454623041674495">
        <ele>1702.4000000000001</ele>
        <time>2003-04-18T15:16:40Z</time>
      </trkpt>
      <trkpt lat="32.525382991880178" lon="-4.45401200093329">
        <ele>1702.8</ele>
        <time>2003-04-18T15:16:44Z</time>
      </trkpt>
      <trkpt lat="32.525563035160303" lon="-4.453568011522293">
        <ele>1703.0999999999999</ele>
        <time>2003-04-18T15:16:48Z</time>
      </trkpt>
      <trkpt lat="32.526125041767955" lon="-4.452537959441543">
        <ele>1706.2</ele>
        <time>2003-04-18T15:16:55Z</time>
      </trkpt>
      <trkpt lat="32.526186984032393" lon="-4.452384989708662">
        <ele>1706.4000000000001</ele>
        <time>2003-04-18T15:16:56Z</time>
      </trkpt>
      <trkpt lat="32.526686964556575" lon="-4.451316967606545">
        <ele>1708.9000000000001</ele>
        <time>2003-04-18T15:17:03Z</time>
      </trkpt>
      <trkpt lat="32.527131959795952" lon="-4.450341984629631">
        <ele>1710.9000000000001</ele>
        <time>2003-04-18T15:17:08Z</time>
      </trkpt>
      <trkpt lat="32.527590030804276" lon="-4.449315033853054">
        <ele>1713.5</ele>
        <time>2003-04-18T15:17:15Z</time>
      </trkpt>
      <trkpt lat="32.52807199023664" lon="-4.448308032006025">
        <ele>1716.7</ele>
        <time>2003-04-18T15:17:20Z</time>
      </trkpt>
      <trkpt lat="32.528561996296048" lon="-4.447236992418766">
        <ele>1719.3</ele>
        <time>2003-04-18T15:17:27Z</time>
      </trkpt>
      <trkpt lat="32.528662998229265" lon="-4.44694303907454">
        <ele>1719.9000000000001</ele>
        <time>2003-04-18T15:17:30Z</time>
      </trkpt>
      <trkpt lat="32.528728041797876" lon="-4.446697030216456">
        <ele>1720.4000000000001</ele>
        <time>2003-04-18T15:17:31Z</time>
      </trkpt>
      <trkpt lat="32.528817979618907" lon="-4.446477005258203">
        <ele>1720.9000000000001</ele>
        <time>2003-04-18T15:17:34Z</time>
      </trkpt>
      <trkpt lat="32.529091984033585" lon="-4.44584702141583">
        <ele>1721.9000000000001</ele>
        <time>2003-04-18T15:17:39Z</time>
      </trkpt>
      <trkpt lat="32.529100030660629" lon="-4.445715006440878">
        <ele>1722.3</ele>
        <time>2003-04-18T15:17:41Z</time>
      </trkpt>
      <trkpt lat="32.529153004288673" lon="-4.445340000092983">
        <ele>1723</ele>
        <time>2003-04-18T15:17:43Z</time>
      </trkpt>
      <trkpt lat="32.529157027602196" lon="-4.445217959582806">
        <ele>1723.2</ele>
        <time>2003-04-18T15:17:45Z</time>
      </trkpt>
      <trkpt lat="32.52916800789535" lon="-4.444052958860993">
        <ele>1726.0999999999999</ele>
        <time>2003-04-18T15:17:54Z</time>
      </trkpt>
      <trkpt lat="32.529157027602196" lon="-4.443715000525117">
        <ele>1726.4000000000001</ele>
        <time>2003-04-18T15:17:57Z</time>
      </trkpt>
      <trkpt lat="32.529136994853616" lon="-4.443515008315444">
        <ele>1725.7</ele>
        <time>2003-04-18T15:17:58Z</time>
      </trkpt>
      <trkpt lat="32.529113022610545" lon="-4.443192975595594">
        <ele>1723.2</ele>
        <time>2003-04-18T15:18:01Z</time>
      </trkpt>
      <trkpt lat="32.529043033719063" lon="-4.442702969536185">
        <ele>1719.7</ele>
        <time>2003-04-18T15:18:05Z</time>
      </trkpt>
      <trkpt lat="32.529128026217222" lon="-4.441617010161281">
        <ele>1724.5999999999999</ele>
        <time>2003-04-18T15:18:13Z</time>
      </trkpt>
      <trkpt lat="32.529237996786833" lon="-4.441064978018403">
        <ele>1726</ele>
        <time>2003-04-18T15:18:17Z</time>
      </trkpt>
      <trkpt lat="32.529315026476979" lon="-4.440946960821748">
        <ele>1726.8</ele>
        <time>2003-04-18T15:18:18Z</time>
      </trkpt>
      <trkpt lat="32.529530022293329" lon="-4.440557034686208">
        <ele>1726.7</ele>
        <time>2003-04-18T15:18:21Z</time>
      </trkpt>
      <trkpt lat="32.529662037268281" lon="-4.440146991983056">
        <ele>1728.9000000000001</ele>
        <time>2003-04-18T15:18:25Z</time>
      </trkpt>
      <trkpt lat="32.52966295927763" lon="-4.440012965351343">
        <ele>1728.9000000000001</ele>
        <time>2003-04-18T15:18:25Z</time>
      </trkpt>
      <trkpt lat="32.529705036431551" lon="-4.439352974295616">
        <ele>1728.9000000000001</ele>
        <time>2003-04-18T15:18:31Z</time>
      </trkpt>
      <trkpt lat="32.529742000624537" lon="-4.439088022336364">
        <ele>1729.0999999999999</ele>
        <time>2003-04-18T15:18:32Z</time>
      </trkpt>
      <trkpt lat="32.529781982302666" lon="-4.438821980729699">
        <ele>1729.5999999999999</ele>
        <time>2003-04-18T15:18:35Z</time>
      </trkpt>
      <trkpt lat="32.529839985072613" lon="-4.438515035435557">
        <ele>1730.7</ele>
        <time>2003-04-18T15:18:37Z</time>
      </trkpt>
      <trkpt lat="32.529745018109679" lon="-4.438353013247252">
        <ele>1731.2</ele>
        <time>2003-04-18T15:18:40Z</time>
      </trkpt>
      <trkpt lat="32.529537985101342" lon="-4.438171964138746">
        <ele>1732.4000000000001</ele>
        <time>2003-04-18T15:18:43Z</time>
      </trkpt>
      <trkpt lat="32.529392978176475" lon="-4.438146986067295">
        <ele>1731.9000000000001</ele>
        <time>2003-04-18T15:18:44Z</time>
      </trkpt>
      <trkpt lat="32.529304968193173" lon="-4.438122007995844">
        <ele>1732.0999999999999</ele>
        <time>2003-04-18T15:18:47Z</time>
      </trkpt>
      <trkpt lat="32.529228022322059" lon="-4.438016982749105">
        <ele>1731.9000000000001</ele>
        <time>2003-04-18T15:18:48Z</time>
      </trkpt>
      <trkpt lat="32.529182005673647" lon="-4.437868036329746">
        <ele>1732.4000000000001</ele>
        <time>2003-04-18T15:18:51Z</time>
      </trkpt>
      <trkpt lat="32.529106987640262" lon="-4.437524965032935">
        <ele>1732.9000000000001</ele>
        <time>2003-04-18T15:18:55Z</time>
      </trkpt>
      <trkpt lat="32.52905803732574" lon="-4.437305023893714">
        <ele>1731.9000000000001</ele>
        <time>2003-04-18T15:18:56Z</time>
      </trkpt>
      <trkpt lat="32.52893297933042" lon="-4.436736982315779">
        <ele>1731.8</ele>
        <time>2003-04-18T15:19:02Z</time>
      </trkpt>
      <trkpt lat="32.528859972953796" lon="-4.436494996771216">
        <ele>1731.9000000000001</ele>
        <time>2003-04-18T15:19:03Z</time>
      </trkpt>
      <trkpt lat="32.528746984899044" lon="-4.435801981016994">
        <ele>1733.8</ele>
        <time>2003-04-18T15:19:08Z</time>
      </trkpt>
      <trkpt lat="32.528712032362819" lon="-4.435133021324873">
        <ele>1735.5999999999999</ele>
        <time>2003-04-18T15:19:14Z</time>
      </trkpt>
      <trkpt lat="32.528684958815575" lon="-4.434733036905527">
        <ele>1735.5999999999999</ele>
        <time>2003-04-18T15:19:17Z</time>
      </trkpt>
      <trkpt lat="32.528698034584522" lon="-4.434473030269146">
        <ele>1736.5</ele>
        <time>2003-04-18T15:19:19Z</time>
      </trkpt>
      <trkpt lat="32.528765005990863" lon="-4.434251999482513">
        <ele>1737.2</ele>
        <time>2003-04-18T15:19:21Z</time>
      </trkpt>
      <trkpt lat="32.52882300876081" lon="-4.434146974235773">
        <ele>1737.5</ele>
        <time>2003-04-18T15:19:22Z</time>
      </trkpt>
      <trkpt lat="32.528983019292355" lon="-4.433812033385038">
        <ele>1738.2</ele>
        <time>2003-04-18T15:19:25Z</time>
      </trkpt>
      <trkpt lat="32.529010009020567" lon="-4.4336879812181">
        <ele>1738.4000000000001</ele>
        <time>2003-04-18T15:19:26Z</time>
      </trkpt>
      <trkpt lat="32.529031969606876" lon="-4.433444989845157">
        <ele>1738.5999999999999</ele>
        <time>2003-04-18T15:19:27Z</time>
      </trkpt>
      <trkpt lat="32.529076980426908" lon="-4.433218007907271">
        <ele>1739</ele>
        <time>2003-04-18T15:19:30Z</time>
      </trkpt>
      <trkpt lat="32.529122997075319" lon="-4.433123040944338">
        <ele>1739.3</ele>
        <time>2003-04-18T15:19:30Z</time>
      </trkpt>
      <trkpt lat="32.529285019263625" lon="-4.433026984333992">
        <ele>1739.7</ele>
        <time>2003-04-18T15:19:33Z</time>
      </trkpt>
      <trkpt lat="32.529562963172793" lon="-4.432918019592762">
        <ele>1740.2</ele>
        <time>2003-04-18T15:19:35Z</time>
      </trkpt>
      <trkpt lat="32.52963999286294" lon="-4.432845013216138">
        <ele>1740.7</ele>
        <time>2003-04-18T15:19:37Z</time>
      </trkpt>
      <trkpt lat="32.529800003394485" lon="-4.432781981304288">
        <ele>1741.3</ele>
        <time>2003-04-18T15:19:38Z</time>
      </trkpt>
      <trkpt lat="32.529960013926029" lon="-4.432707969099283">
        <ele>1742.8</ele>
        <time>2003-04-18T15:19:41Z</time>
      </trkpt>
      <trkpt lat="32.53034801222384" lon="-4.432443017140031">
        <ele>1745.5999999999999</ele>
        <time>2003-04-18T15:19:46Z</time>
      </trkpt>
      <trkpt lat="32.530840029940009" lon="-4.43224998190999">
        <ele>1749.5999999999999</ele>
        <time>2003-04-18T15:19:50Z</time>
      </trkpt>
      <trkpt lat="32.531172959133983" lon="-4.432232966646552">
        <ele>1750.4000000000001</ele>
        <time>2003-04-18T15:19:53Z</time>
      </trkpt>
      <trkpt lat="32.531273039057851" lon="-4.432236989960074">
        <ele>1750.7</ele>
        <time>2003-04-18T15:19:54Z</time>
      </trkpt>
      <trkpt lat="32.531373035162687" lon="-4.432230032980442">
        <ele>1750.4000000000001</ele>
        <time>2003-04-18T15:19:56Z</time>
      </trkpt>
      <trkpt lat="32.531764972954988" lon="-4.432182004675269">
        <ele>1753.5999999999999</ele>
        <time>2003-04-18T15:20:00Z</time>
      </trkpt>
      <trkpt lat="32.531907968223095" lon="-4.432091983035207">
        <ele>1753.8</ele>
        <time>2003-04-18T15:20:01Z</time>
      </trkpt>
      <trkpt lat="32.53208801150322" lon="-4.431983018293977">
        <ele>1751.0999999999999</ele>
        <time>2003-04-18T15:20:04Z</time>
      </trkpt>
      <trkpt lat="32.532290015369654" lon="-4.431886961683631">
        <ele>1750.7</ele>
        <time>2003-04-18T15:20:05Z</time>
      </trkpt>
      <trkpt lat="32.532397974282503" lon="-4.431891990825534">
        <ele>1750.4000000000001</ele>
        <time>2003-04-18T15:20:06Z</time>
      </trkpt>
      <trkpt lat="32.532505011186004" lon="-4.431919986382127">
        <ele>1750.5</ele>
        <time>2003-04-18T15:20:08Z</time>
      </trkpt>
      <trkpt lat="32.532807011157274" lon="-4.431944964453578">
        <ele>1750.8</ele>
        <time>2003-04-18T15:20:11Z</time>
      </trkpt>
      <trkpt lat="32.532902983948588" lon="-4.431912023574114">
        <ele>1751.5</ele>
        <time>2003-04-18T15:20:12Z</time>
      </trkpt>
      <trkpt lat="32.532993005588651" lon="-4.431857960298657">
        <ele>1751.7</ele>
        <time>2003-04-18T15:20:13Z</time>
      </trkpt>
      <trkpt lat="32.533091995865107" lon="-4.431834993883967">
        <ele>1752.8</ele>
        <time>2003-04-18T15:20:13Z</time>
      </trkpt>
      <trkpt lat="32.53318696282804" lon="-4.431843040511012">
        <ele>1753.5</ele>
        <time>2003-04-18T15:20:15Z</time>
      </trkpt>
      <trkpt lat="32.533355019986629" lon="-4.431892996653915">
        <ele>1753.8</ele>
        <time>2003-04-18T15:20:16Z</time>
      </trkpt>
      <trkpt lat="32.533447975292802" lon="-4.431910011917353">
        <ele>1755</ele>
        <time>2003-04-18T15:20:17Z</time>
      </trkpt>
      <trkpt lat="32.533592982217669" lon="-4.431843040511012">
        <ele>1755.7</ele>
        <time>2003-04-18T15:20:20Z</time>
      </trkpt>
      <trkpt lat="32.533692978322506" lon="-4.431665008887649">
        <ele>1756.3</ele>
        <time>2003-04-18T15:20:21Z</time>
      </trkpt>
      <trkpt lat="32.533862963318825" lon="-4.431352028623223">
        <ele>1756.7</ele>
        <time>2003-04-18T15:20:24Z</time>
      </trkpt>
      <trkpt lat="32.534327991306782" lon="-4.43053001537919">
        <ele>1759</ele>
        <time>2003-04-18T15:20:32Z</time>
      </trkpt>
      <trkpt lat="32.534577017650008" lon="-4.430155009031296">
        <ele>1759.8</ele>
        <time>2003-04-18T15:20:35Z</time>
      </trkpt>
      <trkpt lat="32.534780027344823" lon="-4.429815039038658">
        <ele>1761.0999999999999</ele>
        <time>2003-04-18T15:20:38Z</time>
      </trkpt>
      <trkpt lat="32.534912964329123" lon="-4.429582022130489">
        <ele>1760.7</ele>
        <time>2003-04-18T15:20:40Z</time>
      </trkpt>
      <trkpt lat="32.535157967358828" lon="-4.429129986092448">
        <ele>1760.5</ele>
        <time>2003-04-18T15:20:43Z</time>
      </trkpt>
      <trkpt lat="32.535227034240961" lon="-4.428903004154563">
        <ele>1761.3</ele>
        <time>2003-04-18T15:20:46Z</time>
      </trkpt>
      <trkpt lat="32.535327030345798" lon="-4.428394977003336">
        <ele>1763.4000000000001</ele>
        <time>2003-04-18T15:20:50Z</time>
      </trkpt>
      <trkpt lat="32.535395007580519" lon="-4.427989963442087">
        <ele>1765.2</ele>
        <time>2003-04-18T15:20:52Z</time>
      </trkpt>
      <trkpt lat="32.535543031990528" lon="-4.426935017108917">
        <ele>1765.8</ele>
        <time>2003-04-18T15:21:00Z</time>
      </trkpt>
      <trkpt lat="32.53561302088201" lon="-4.426536960527301">
        <ele>1767.4000000000001</ele>
        <time>2003-04-18T15:21:03Z</time>
      </trkpt>
      <trkpt lat="32.535645039752126" lon="-4.426272008568049">
        <ele>1767.2</ele>
        <time>2003-04-18T15:21:06Z</time>
      </trkpt>
      <trkpt lat="32.535694995895028" lon="-4.426007978618145">
        <ele>1768.3</ele>
        <time>2003-04-18T15:21:07Z</time>
      </trkpt>
      <trkpt lat="32.535727014765143" lon="-4.425725005567074">
        <ele>1767.5999999999999</ele>
        <time>2003-04-18T15:21:10Z</time>
      </trkpt>
      <trkpt lat="32.535761967301369" lon="-4.425428034737706">
        <ele>1768.9000000000001</ele>
        <time>2003-04-18T15:21:11Z</time>
      </trkpt>
      <trkpt lat="32.535922983661294" lon="-4.424290023744106">
        <ele>1771.9000000000001</ele>
        <time>2003-04-18T15:21:19Z</time>
      </trkpt>
      <trkpt lat="32.535970006138086" lon="-4.423821978271008">
        <ele>1769.8</ele>
        <time>2003-04-18T15:21:23Z</time>
      </trkpt>
      <trkpt lat="32.536009987816215" lon="-4.423715025186539">
        <ele>1771</ele>
        <time>2003-04-18T15:21:25Z</time>
      </trkpt>
      <trkpt lat="32.536066984757781" lon="-4.423468010500073">
        <ele>1772.8</ele>
        <time>2003-04-18T15:21:26Z</time>
      </trkpt>
      <trkpt lat="32.536143008619547" lon="-4.422889994457364">
        <ele>1773.9000000000001</ele>
        <time>2003-04-18T15:21:30Z</time>
      </trkpt>
      <trkpt lat="32.53627703525126" lon="-4.421911993995309">
        <ele>1774.4000000000001</ele>
        <time>2003-04-18T15:21:37Z</time>
      </trkpt>
      <trkpt lat="32.536233030259609" lon="-4.421666990965605">
        <ele>1774.8</ele>
        <time>2003-04-18T15:21:40Z</time>
      </trkpt>
      <trkpt lat="32.53617201000452" lon="-4.421545034274459">
        <ele>1775.3</ele>
        <time>2003-04-18T15:21:41Z</time>
      </trkpt>
      <trkpt lat="32.536004958674312" lon="-4.421167010441423">
        <ele>1776.3</ele>
        <time>2003-04-18T15:21:44Z</time>
      </trkpt>
      <trkpt lat="32.535668006166816" lon="-4.420307027176023">
        <ele>1776.3</ele>
        <time>2003-04-18T15:21:49Z</time>
      </trkpt>
      <trkpt lat="32.535244971513748" lon="-4.419268006458879">
        <ele>1781.0999999999999</ele>
        <time>2003-04-18T15:21:57Z</time>
      </trkpt>
      <trkpt lat="32.535168025642633" lon="-4.419042030349374">
        <ele>1783.2</ele>
        <time>2003-04-18T15:22:00Z</time>
      </trkpt>
      <trkpt lat="32.535150004550815" lon="-4.41892703063786">
        <ele>1781.2</ele>
        <time>2003-04-18T15:22:01Z</time>
      </trkpt>
      <trkpt lat="32.534931991249323" lon="-4.417914999648929">
        <ele>1780.5999999999999</ele>
        <time>2003-04-18T15:22:08Z</time>
      </trkpt>
      <trkpt lat="32.534696962684393" lon="-4.416867010295391">
        <ele>1777.2</ele>
        <time>2003-04-18T15:22:16Z</time>
      </trkpt>
      <trkpt lat="32.534501999616623" lon="-4.416316989809275">
        <ele>1776.9000000000001</ele>
        <time>2003-04-18T15:22:20Z</time>
      </trkpt>
      <trkpt lat="32.534377025440335" lon="-4.416123032569885">
        <ele>1773.8</ele>
        <time>2003-04-18T15:22:21Z</time>
      </trkpt>
      <trkpt lat="32.534202011302114" lon="-4.415799994021654">
        <ele>1772.8</ele>
        <time>2003-04-18T15:22:24Z</time>
      </trkpt>
      <trkpt lat="32.534126993268728" lon="-4.415622968226671">
        <ele>1774.2</ele>
        <time>2003-04-18T15:22:27Z</time>
      </trkpt>
      <trkpt lat="32.534132022410631" lon="-4.415457006543875">
        <ele>1773</ele>
        <time>2003-04-18T15:22:28Z</time>
      </trkpt>
      <trkpt lat="32.534162029623985" lon="-4.415349969640374">
        <ele>1771.9000000000001</ele>
        <time>2003-04-18T15:22:30Z</time>
      </trkpt>
      <trkpt lat="32.534211985766888" lon="-4.415239999070764">
        <ele>1770.7</ele>
        <time>2003-04-18T15:22:31Z</time>
      </trkpt>
      <trkpt lat="32.53438800573349" lon="-4.414768014103174">
        <ele>1773.5999999999999</ele>
        <time>2003-04-18T15:22:35Z</time>
      </trkpt>
      <trkpt lat="32.534518009051681" lon="-4.414111962541938">
        <ele>1777.4000000000001</ele>
        <time>2003-04-18T15:22:39Z</time>
      </trkpt>
      <trkpt lat="32.534641977399588" lon="-4.413373013958335">
        <ele>1779</ele>
        <time>2003-04-18T15:22:46Z</time>
      </trkpt>
      <trkpt lat="32.534927967935801" lon="-4.412261992692947">
        <ele>1782.5999999999999</ele>
        <time>2003-04-18T15:22:54Z</time>
      </trkpt>
      <trkpt lat="32.535089990124106" lon="-4.411509968340397">
        <ele>1783</ele>
        <time>2003-04-18T15:22:58Z</time>
      </trkpt>
      <trkpt lat="32.535168025642633" lon="-4.411206962540746">
        <ele>1786.3</ele>
        <time>2003-04-18T15:23:01Z</time>
      </trkpt>
      <trkpt lat="32.535467008128762" lon="-4.410102982074022">
        <ele>1786.5999999999999</ele>
        <time>2003-04-18T15:23:07Z</time>
      </trkpt>
      <trkpt lat="32.535737995058298" lon="-4.409072007983923">
        <ele>1793.4000000000001</ele>
        <time>2003-04-18T15:23:14Z</time>
      </trkpt>
      <trkpt lat="32.535770013928413" lon="-4.408819964155555">
        <ele>1794.9000000000001</ele>
        <time>2003-04-18T15:23:17Z</time>
      </trkpt>
      <trkpt lat="32.535802032798529" lon="-4.408585019409657">
        <ele>1794.5999999999999</ele>
        <time>2003-04-18T15:23:18Z</time>
      </trkpt>
      <trkpt lat="32.53584997728467" lon="-4.408453004434705">
        <ele>1793.4000000000001</ele>
        <time>2003-04-18T15:23:20Z</time>
      </trkpt>
      <trkpt lat="32.536037983372808" lon="-4.407889991998673">
        <ele>1793.9000000000001</ele>
        <time>2003-04-18T15:23:24Z</time>
      </trkpt>
      <trkpt lat="32.536130016669631" lon="-4.407441979274154">
        <ele>1795</ele>
        <time>2003-04-18T15:23:26Z</time>
      </trkpt>
      <trkpt lat="32.536190031096339" lon="-4.407184990122914">
        <ele>1794.9000000000001</ele>
        <time>2003-04-18T15:23:29Z</time>
      </trkpt>
      <trkpt lat="32.536267982795835" lon="-4.40693998709321">
        <ele>1794.4000000000001</ele>
        <time>2003-04-18T15:23:30Z</time>
      </trkpt>
      <trkpt lat="32.536297990009189" lon="-4.406802020967007">
        <ele>1793.2</ele>
        <time>2003-04-18T15:23:32Z</time>
      </trkpt>
      <trkpt lat="32.536311987787485" lon="-4.406657014042139">
        <ele>1794</ele>
        <time>2003-04-18T15:23:33Z</time>
      </trkpt>
      <trkpt lat="32.536339983344078" lon="-4.406519969925284">
        <ele>1797</ele>
        <time>2003-04-18T15:23:33Z</time>
      </trkpt>
      <trkpt lat="32.53638700582087" lon="-4.406391978263855">
        <ele>1797</ele>
        <time>2003-04-18T15:23:34Z</time>
      </trkpt>
      <trkpt lat="32.536448026075959" lon="-4.406112022697926">
        <ele>1798.4000000000001</ele>
        <time>2003-04-18T15:23:37Z</time>
      </trkpt>
      <trkpt lat="32.536641983315349" lon="-4.405507016927004">
        <ele>1796.2</ele>
        <time>2003-04-18T15:23:41Z</time>
      </trkpt>
      <trkpt lat="32.536786990240216" lon="-4.405244998633862">
        <ele>1792.0999999999999</ele>
        <time>2003-04-18T15:23:44Z</time>
      </trkpt>
      <trkpt lat="32.536895032972097" lon="-4.404960013926029">
        <ele>1797.9000000000001</ele>
        <time>2003-04-18T15:23:45Z</time>
      </trkpt>
      <trkpt lat="32.536984970793128" lon="-4.404551982879639">
        <ele>1798.7</ele>
        <time>2003-04-18T15:23:49Z</time>
      </trkpt>
      <trkpt lat="32.537040039896965" lon="-4.403598038479686">
        <ele>1800</ele>
        <time>2003-04-18T15:23:56Z</time>
      </trkpt>
      <trkpt lat="32.5370520260185" lon="-4.403465017676354">
        <ele>1800</ele>
        <time>2003-04-18T15:23:56Z</time>
      </trkpt>
      <trkpt lat="32.537125032395124" lon="-4.402347039431334">
        <ele>1802.3</ele>
        <time>2003-04-18T15:24:04Z</time>
      </trkpt>
      <trkpt lat="32.537157973274589" lon="-4.401670033112168">
        <ele>1803.3</ele>
        <time>2003-04-18T15:24:09Z</time>
      </trkpt>
      <trkpt lat="32.536997040733695" lon="-4.40059999935329">
        <ele>1807.7</ele>
        <time>2003-04-18T15:24:18Z</time>
      </trkpt>
      <trkpt lat="32.536947000771761" lon="-4.40047200769186">
        <ele>1808</ele>
        <time>2003-04-18T15:24:19Z</time>
      </trkpt>
      <trkpt lat="32.536893021315336" lon="-4.400218036025763">
        <ele>1810.8</ele>
        <time>2003-04-18T15:24:20Z</time>
      </trkpt>
      <trkpt lat="32.536795036867261" lon="-4.399514961987734">
        <ele>1820.5</ele>
        <time>2003-04-18T15:24:27Z</time>
      </trkpt>
      <trkpt lat="32.536612981930375" lon="-4.398432020097971">
        <ele>1822.8</ele>
        <time>2003-04-18T15:24:35Z</time>
      </trkpt>
      <trkpt lat="32.536505023017526" lon="-4.397712014615536">
        <ele>1816.3</ele>
        <time>2003-04-18T15:24:42Z</time>
      </trkpt>
      <trkpt lat="32.536421958357096" lon="-4.397217985242605">
        <ele>1816</ele>
        <time>2003-04-18T15:24:46Z</time>
      </trkpt>
      <trkpt lat="32.536439979448915" lon="-4.39709996804595">
        <ele>1816.7</ele>
        <time>2003-04-18T15:24:46Z</time>
      </trkpt>
      <trkpt lat="32.536487001925707" lon="-4.397002989426255">
        <ele>1818.9000000000001</ele>
        <time>2003-04-18T15:24:47Z</time>
      </trkpt>
      <trkpt lat="32.5366669613868" lon="-4.396747006103396">
        <ele>1823.5999999999999</ele>
        <time>2003-04-18T15:24:50Z</time>
      </trkpt>
      <trkpt lat="32.536693029105663" lon="-4.396639969199896">
        <ele>1823.5999999999999</ele>
        <time>2003-04-18T15:24:51Z</time>
      </trkpt>
      <trkpt lat="32.536682970821857" lon="-4.396479958668351">
        <ele>1826.5</ele>
        <time>2003-04-18T15:24:54Z</time>
      </trkpt>
      <trkpt lat="32.536618011072278" lon="-4.396356996148825">
        <ele>1826.9000000000001</ele>
        <time>2003-04-18T15:24:55Z</time>
      </trkpt>
      <trkpt lat="32.53649496473372" lon="-4.396236967295408">
        <ele>1826.7</ele>
        <time>2003-04-18T15:24:58Z</time>
      </trkpt>
      <trkpt lat="32.536418018862605" lon="-4.396057007834315">
        <ele>1826.4000000000001</ele>
        <time>2003-04-18T15:24:59Z</time>
      </trkpt>
      <trkpt lat="32.53640997223556" lon="-4.395855003967881">
        <ele>1826.4000000000001</ele>
        <time>2003-04-18T15:25:02Z</time>
      </trkpt>
      <trkpt lat="32.536358004435897" lon="-4.395513022318482">
        <ele>1824.4000000000001</ele>
        <time>2003-04-18T15:25:05Z</time>
      </trkpt>
      <trkpt lat="32.536294972524047" lon="-4.394931988790631">
        <ele>1827.5999999999999</ele>
        <time>2003-04-18T15:25:10Z</time>
      </trkpt>
      <trkpt lat="32.536241998896003" lon="-4.394075023010373">
        <ele>1824.2</ele>
        <time>2003-04-18T15:25:17Z</time>
      </trkpt>
      <trkpt lat="32.53621500916779" lon="-4.393879976123571">
        <ele>1823.0999999999999</ele>
        <time>2003-04-18T15:25:18Z</time>
      </trkpt>
      <trkpt lat="32.536309976130724" lon="-4.39372499473393">
        <ele>1822</ele>
        <time>2003-04-18T15:25:21Z</time>
      </trkpt>
      <trkpt lat="32.536458000540733" lon="-4.393482003360987">
        <ele>1818.0999999999999</ele>
        <time>2003-04-18T15:25:24Z</time>
      </trkpt>
      <trkpt lat="32.536469986662269" lon="-4.393373038619757">
        <ele>1818.0999999999999</ele>
        <time>2003-04-18T15:25:25Z</time>
      </trkpt>
      <trkpt lat="32.536445008590817" lon="-4.393267007544637">
        <ele>1818.0999999999999</ele>
        <time>2003-04-18T15:25:25Z</time>
      </trkpt>
      <trkpt lat="32.536405026912689" lon="-4.393170028924942">
        <ele>1818.8</ele>
        <time>2003-04-18T15:25:26Z</time>
      </trkpt>
      <trkpt lat="32.536427993327379" lon="-4.393002977594733">
        <ele>1823.2</ele>
        <time>2003-04-18T15:25:29Z</time>
      </trkpt>
      <trkpt lat="32.536507034674287" lon="-4.392857970669866">
        <ele>1824.3</ele>
        <time>2003-04-18T15:25:30Z</time>
      </trkpt>
      <trkpt lat="32.536629997193813" lon="-4.392705000936985">
        <ele>1826.5999999999999</ele>
        <time>2003-04-18T15:25:33Z</time>
      </trkpt>
      <trkpt lat="32.536812974140048" lon="-4.392463015392423">
        <ele>1825.5</ele>
        <time>2003-04-18T15:25:36Z</time>
      </trkpt>
      <trkpt lat="32.536948006600142" lon="-4.392184987664223">
        <ele>1827.4000000000001</ele>
        <time>2003-04-18T15:25:39Z</time>
      </trkpt>
      <trkpt lat="32.536911964416504" lon="-4.392022965475917">
        <ele>1828.9000000000001</ele>
        <time>2003-04-18T15:25:40Z</time>
      </trkpt>
      <trkpt lat="32.536948006600142" lon="-4.391894973814488">
        <ele>1830.5999999999999</ele>
        <time>2003-04-18T15:25:43Z</time>
      </trkpt>
      <trkpt lat="32.537080021575093" lon="-4.391733035445213">
        <ele>1831</ele>
        <time>2003-04-18T15:25:45Z</time>
      </trkpt>
      <trkpt lat="32.537186974659562" lon="-4.391615018248558">
        <ele>1830.9000000000001</ele>
        <time>2003-04-18T15:25:48Z</time>
      </trkpt>
      <trkpt lat="32.537365006282926" lon="-4.391407985240221">
        <ele>1831.3</ele>
        <time>2003-04-18T15:25:51Z</time>
      </trkpt>
      <trkpt lat="32.53771997988224" lon="-4.390927031636238">
        <ele>1832.5999999999999</ele>
        <time>2003-04-18T15:25:56Z</time>
      </trkpt>
      <trkpt lat="32.537773037329316" lon="-4.390771966427565">
        <ele>1832.7</ele>
        <time>2003-04-18T15:25:59Z</time>
      </trkpt>
      <trkpt lat="32.537787035107613" lon="-4.390627965331078">
        <ele>1832.5</ele>
        <time>2003-04-18T15:26:00Z</time>
      </trkpt>
      <trkpt lat="32.537767002359033" lon="-4.390254970639944">
        <ele>1830.4000000000001</ele>
        <time>2003-04-18T15:26:06Z</time>
      </trkpt>
      <trkpt lat="32.537712017074227" lon="-4.390103006735444">
        <ele>1828.7</ele>
        <time>2003-04-18T15:26:07Z</time>
      </trkpt>
      <trkpt lat="32.537640016525984" lon="-4.389988007023931">
        <ele>1831.5</ele>
        <time>2003-04-18T15:26:10Z</time>
      </trkpt>
      <trkpt lat="32.537538008764386" lon="-4.389894967898727">
        <ele>1832.3</ele>
        <time>2003-04-18T15:26:11Z</time>
      </trkpt>
      <trkpt lat="32.537391996011138" lon="-4.389743003994227">
        <ele>1832.5</ele>
        <time>2003-04-18T15:26:15Z</time>
      </trkpt>
      <trkpt lat="32.537063006311655" lon="-4.389498000964522">
        <ele>1832.4000000000001</ele>
        <time>2003-04-18T15:26:24Z</time>
      </trkpt>
      <trkpt lat="32.536917999386787" lon="-4.389400016516447">
        <ele>1832</ele>
        <time>2003-04-18T15:26:29Z</time>
      </trkpt>
      <trkpt lat="32.536801993846893" lon="-4.389375038444996">
        <ele>1831.4000000000001</ele>
        <time>2003-04-18T15:26:33Z</time>
      </trkpt>
      <trkpt lat="32.536738039925694" lon="-4.389458019286394">
        <ele>1831</ele>
        <time>2003-04-18T15:26:35Z</time>
      </trkpt>
      <trkpt lat="32.536701997742057" lon="-4.389575030654669">
        <ele>1830.5999999999999</ele>
        <time>2003-04-18T15:26:38Z</time>
      </trkpt>
      <trkpt lat="32.536654975265265" lon="-4.389735041186214">
        <ele>1830.4000000000001</ele>
        <time>2003-04-18T15:26:43Z</time>
      </trkpt>
      <trkpt lat="32.53653503023088" lon="-4.389692964032292">
        <ele>1829.0999999999999</ele>
        <time>2003-04-18T15:26:46Z</time>
      </trkpt>
      <trkpt lat="32.536490019410849" lon="-4.389577964320779">
        <ele>1829</ele>
        <time>2003-04-18T15:26:49Z</time>
      </trkpt>
      <trkpt lat="32.536462023854256" lon="-4.389470005407929">
        <ele>1828.7</ele>
        <time>2003-04-18T15:26:50Z</time>
      </trkpt>
      <trkpt lat="32.536421958357096" lon="-4.389221984893084">
        <ele>1827.4000000000001</ele>
        <time>2003-04-18T15:26:54Z</time>
      </trkpt>
      <trkpt lat="32.536381976678967" lon="-4.388791993260384">
        <ele>1827.2</ele>
        <time>2003-04-18T15:27:01Z</time>
      </trkpt>
      <trkpt lat="32.536326991394162" lon="-4.388199979439378">
        <ele>1827.5999999999999</ele>
        <time>2003-04-18T15:27:09Z</time>
      </trkpt>
      <trkpt lat="32.536317016929388" lon="-4.388090008869767">
        <ele>1827.8</ele>
        <time>2003-04-18T15:27:13Z</time>
      </trkpt>
      <trkpt lat="32.536264965310693" lon="-4.387909965589643">
        <ele>1826.9000000000001</ele>
        <time>2003-04-18T15:27:37Z</time>
      </trkpt>
      <trkpt lat="32.536248033866286" lon="-4.38779697753489">
        <ele>1826.3</ele>
        <time>2003-04-18T15:27:40Z</time>
      </trkpt>
      <trkpt lat="32.536222971975803" lon="-4.387590028345585">
        <ele>1827.4000000000001</ele>
        <time>2003-04-18T15:27:44Z</time>
      </trkpt>
      <trkpt lat="32.536233030259609" lon="-4.387443009763956">
        <ele>1827.9000000000001</ele>
        <time>2003-04-18T15:27:47Z</time>
      </trkpt>
      <trkpt lat="32.536332020536065" lon="-4.38734301365912">
        <ele>1829.5</ele>
        <time>2003-04-18T15:27:48Z</time>
      </trkpt>
      <trkpt lat="32.536530001088977" lon="-4.387219967320561">
        <ele>1831.3</ele>
        <time>2003-04-18T15:27:52Z</time>
      </trkpt>
      <trkpt lat="32.536705015227199" lon="-4.387051993981004">
        <ele>1832.7</ele>
        <time>2003-04-18T15:27:55Z</time>
      </trkpt>
      <trkpt lat="32.536802999675274" lon="-4.38687002286315">
        <ele>1833.8</ele>
        <time>2003-04-18T15:27:56Z</time>
      </trkpt>
      <trkpt lat="32.536910036578774" lon="-4.386583026498556">
        <ele>1836.0999999999999</ele>
        <time>2003-04-18T15:27:59Z</time>
      </trkpt>
      <trkpt lat="32.536917999386787" lon="-4.386387979611754">
        <ele>1836.9000000000001</ele>
        <time>2003-04-18T15:28:02Z</time>
      </trkpt>
      <trkpt lat="32.53690198995173" lon="-4.386108024045825">
        <ele>1839.5999999999999</ele>
        <time>2003-04-18T15:28:04Z</time>
      </trkpt>
      <trkpt lat="32.536872988566756" lon="-4.385972991585732">
        <ele>1840.9000000000001</ele>
        <time>2003-04-18T15:28:07Z</time>
      </trkpt>
      <trkpt lat="32.536847004666924" lon="-4.385705022141337">
        <ele>1842.5999999999999</ele>
        <time>2003-04-18T15:28:10Z</time>
      </trkpt>
      <trkpt lat="32.536786990240216" lon="-4.385290034115315">
        <ele>1847.5</ele>
        <time>2003-04-18T15:28:14Z</time>
      </trkpt>
      <trkpt lat="32.536699986085296" lon="-4.385132035240531">
        <ele>1848.4000000000001</ele>
        <time>2003-04-18T15:28:15Z</time>
      </trkpt>
      <trkpt lat="32.536633014678955" lon="-4.384952997788787">
        <ele>1849.0999999999999</ele>
        <time>2003-04-18T15:28:18Z</time>
      </trkpt>
      <trkpt lat="32.536580041050911" lon="-4.384652003645897">
        <ele>1850</ele>
        <time>2003-04-18T15:28:21Z</time>
      </trkpt>
      <trkpt lat="32.536375019699335" lon="-4.383597979322076">
        <ele>1851.4000000000001</ele>
        <time>2003-04-18T15:28:30Z</time>
      </trkpt>
      <trkpt lat="32.536243004724383" lon="-4.383034966886044">
        <ele>1848.2</ele>
        <time>2003-04-18T15:28:37Z</time>
      </trkpt>
      <trkpt lat="32.536130016669631" lon="-4.382843021303415">
        <ele>1845.5</ele>
        <time>2003-04-18T15:28:38Z</time>
      </trkpt>
      <trkpt lat="32.535817036405206" lon="-4.382491987198591">
        <ele>1842.5999999999999</ele>
        <time>2003-04-18T15:28:44Z</time>
      </trkpt>
      <trkpt lat="32.535717962309718" lon="-4.382447982206941">
        <ele>1842.5</ele>
        <time>2003-04-18T15:28:46Z</time>
      </trkpt>
      <trkpt lat="32.535589970648289" lon="-4.382459968328476">
        <ele>1841.9000000000001</ele>
        <time>2003-04-18T15:28:49Z</time>
      </trkpt>
      <trkpt lat="32.535457033663988" lon="-4.382432978600264">
        <ele>1841.5</ele>
        <time>2003-04-18T15:28:50Z</time>
      </trkpt>
      <trkpt lat="32.535367012023926" lon="-4.38229501247406">
        <ele>1840.9000000000001</ele>
        <time>2003-04-18T15:28:53Z</time>
      </trkpt>
      <trkpt lat="32.535325018689036" lon="-4.382137013599277">
        <ele>1840.3</ele>
        <time>2003-04-18T15:28:54Z</time>
      </trkpt>
      <trkpt lat="32.535287970677018" lon="-4.38184498809278">
        <ele>1839.9000000000001</ele>
        <time>2003-04-18T15:28:58Z</time>
      </trkpt>
      <trkpt lat="32.535352008417249" lon="-4.381641978397965">
        <ele>1839.8</ele>
        <time>2003-04-18T15:29:01Z</time>
      </trkpt>
      <trkpt lat="32.535442030057311" lon="-4.381452966481447">
        <ele>1840.8</ele>
        <time>2003-04-18T15:29:02Z</time>
      </trkpt>
      <trkpt lat="32.535630036145449" lon="-4.381120037287474">
        <ele>1841.3</ele>
        <time>2003-04-18T15:29:06Z</time>
      </trkpt>
      <trkpt lat="32.535637998953462" lon="-4.380907975137234">
        <ele>1841.7</ele>
        <time>2003-04-18T15:29:09Z</time>
      </trkpt>
      <trkpt lat="32.535687033087015" lon="-4.380721980705857">
        <ele>1841.8</ele>
        <time>2003-04-18T15:29:11Z</time>
      </trkpt>
      <trkpt lat="32.535734977573156" lon="-4.380600024014711">
        <ele>1841.8</ele>
        <time>2003-04-18T15:29:13Z</time>
      </trkpt>
      <trkpt lat="32.535866992548108" lon="-4.380302969366312">
        <ele>1842.5999999999999</ele>
        <time>2003-04-18T15:29:16Z</time>
      </trkpt>
      <trkpt lat="32.535861963406205" lon="-4.380099959671497">
        <ele>1842.5</ele>
        <time>2003-04-18T15:29:19Z</time>
      </trkpt>
      <trkpt lat="32.535894988104701" lon="-4.379920000210404">
        <ele>1842.8</ele>
        <time>2003-04-18T15:29:20Z</time>
      </trkpt>
      <trkpt lat="32.535906974226236" lon="-4.379742974415422">
        <ele>1843.3</ele>
        <time>2003-04-18T15:29:23Z</time>
      </trkpt>
      <trkpt lat="32.53580798394978" lon="-4.37943996861577">
        <ele>1844</ele>
        <time>2003-04-18T15:29:25Z</time>
      </trkpt>
      <trkpt lat="32.535768002271652" lon="-4.379237964749336">
        <ele>1844.8</ele>
        <time>2003-04-18T15:29:28Z</time>
      </trkpt>
      <trkpt lat="32.535782000049949" lon="-4.379045013338327">
        <ele>1845.0999999999999</ele>
        <time>2003-04-18T15:29:29Z</time>
      </trkpt>
      <trkpt lat="32.53582701086998" lon="-4.378851978108287">
        <ele>1845.3</ele>
        <time>2003-04-18T15:29:32Z</time>
      </trkpt>
      <trkpt lat="32.535883001983166" lon="-4.378567999228835">
        <ele>1846.0999999999999</ele>
        <time>2003-04-18T15:29:35Z</time>
      </trkpt>
      <trkpt lat="32.535817958414555" lon="-4.378400025889278">
        <ele>1846.5999999999999</ele>
        <time>2003-04-18T15:29:36Z</time>
      </trkpt>
      <trkpt lat="32.535694995895028" lon="-4.378185030072928">
        <ele>1847.7</ele>
        <time>2003-04-18T15:29:40Z</time>
      </trkpt>
      <trkpt lat="32.535640010610223" lon="-4.378061983734369">
        <ele>1848.0999999999999</ele>
        <time>2003-04-18T15:29:42Z</time>
      </trkpt>
      <trkpt lat="32.535606985911727" lon="-4.377923011779785">
        <ele>1848.4000000000001</ele>
        <time>2003-04-18T15:29:43Z</time>
      </trkpt>
      <trkpt lat="32.535564992576838" lon="-4.377780016511679">
        <ele>1848.7</ele>
        <time>2003-04-18T15:29:46Z</time>
      </trkpt>
      <trkpt lat="32.535472037270665" lon="-4.377502994611859">
        <ele>1848.7</ele>
        <time>2003-04-18T15:29:50Z</time>
      </trkpt>
      <trkpt lat="32.535428032279015" lon="-4.377367040142417">
        <ele>1849</ele>
        <time>2003-04-18T15:29:51Z</time>
      </trkpt>
      <trkpt lat="32.535317977890372" lon="-4.377102004364133">
        <ele>1849.7</ele>
        <time>2003-04-18T15:29:55Z</time>
      </trkpt>
      <trkpt lat="32.535325018689036" lon="-4.376956997439265">
        <ele>1850.2</ele>
        <time>2003-04-18T15:29:58Z</time>
      </trkpt>
      <trkpt lat="32.535322001203895" lon="-4.376833029091358">
        <ele>1850.8</ele>
        <time>2003-04-18T15:30:02Z</time>
      </trkpt>
      <trkpt lat="32.535319989547133" lon="-4.376700008288026">
        <ele>1851.4000000000001</ele>
        <time>2003-04-18T15:30:05Z</time>
      </trkpt>
      <trkpt lat="32.535272967070341" lon="-4.376518037170172">
        <ele>1852.0999999999999</ele>
        <time>2003-04-18T15:30:07Z</time>
      </trkpt>
      <trkpt lat="32.535234997048974" lon="-4.376358026638627">
        <ele>1852.7</ele>
        <time>2003-04-18T15:30:10Z</time>
      </trkpt>
      <trkpt lat="32.535186968743801" lon="-4.376115035265684">
        <ele>1855.4000000000001</ele>
        <time>2003-04-18T15:30:13Z</time>
      </trkpt>
      <trkpt lat="32.535207001492381" lon="-4.375862991437316">
        <ele>1856.2</ele>
        <time>2003-04-18T15:30:15Z</time>
      </trkpt>
      <trkpt lat="32.535270033404231" lon="-4.375650007277727">
        <ele>1857.5999999999999</ele>
        <time>2003-04-18T15:30:18Z</time>
      </trkpt>
      <trkpt lat="32.535298028960824" lon="-4.375512963160873">
        <ele>1858.9000000000001</ele>
        <time>2003-04-18T15:30:22Z</time>
      </trkpt>
      <trkpt lat="32.535352008417249" lon="-4.375329986214638">
        <ele>1859.7</ele>
        <time>2003-04-18T15:30:25Z</time>
      </trkpt>
      <trkpt lat="32.535438006743789" lon="-4.37511800788343">
        <ele>1860.8</ele>
        <time>2003-04-18T15:30:27Z</time>
      </trkpt>
      <trkpt lat="32.535553006455302" lon="-4.374902006238699">
        <ele>1862</ele>
        <time>2003-04-18T15:30:30Z</time>
      </trkpt>
      <trkpt lat="32.535670017823577" lon="-4.374681981280446">
        <ele>1863.9000000000001</ele>
        <time>2003-04-18T15:30:34Z</time>
      </trkpt>
      <trkpt lat="32.535791974514723" lon="-4.374232040718198">
        <ele>1864.8</ele>
        <time>2003-04-18T15:30:40Z</time>
      </trkpt>
      <trkpt lat="32.535885013639927" lon="-4.373755026608706">
        <ele>1869.0999999999999</ele>
        <time>2003-04-18T15:30:45Z</time>
      </trkpt>
      <trkpt lat="32.53580798394978" lon="-4.374030036851764">
        <ele>1867.0999999999999</ele>
        <time>2003-04-18T15:31:16Z</time>
      </trkpt>
      <trkpt lat="32.535727014765143" lon="-4.374077981337905">
        <ele>1866.3</ele>
        <time>2003-04-18T15:31:35Z</time>
      </trkpt>
      <trkpt lat="32.53569801338017" lon="-4.373932974413037">
        <ele>1867.5</ele>
        <time>2003-04-18T15:31:39Z</time>
      </trkpt>
      <trkpt lat="32.535730032250285" lon="-4.373792996630073">
        <ele>1868</ele>
        <time>2003-04-18T15:31:42Z</time>
      </trkpt>
      <trkpt lat="32.535822987556458" lon="-4.373719990253449">
        <ele>1869.2</ele>
        <time>2003-04-18T15:31:43Z</time>
      </trkpt>
      <trkpt lat="32.535891970619559" lon="-4.373634997755289">
        <ele>1869.4000000000001</ele>
        <time>2003-04-18T15:31:46Z</time>
      </trkpt>
      <trkpt lat="32.535888031125069" lon="-4.373502982780337">
        <ele>1870.9000000000001</ele>
        <time>2003-04-18T15:31:47Z</time>
      </trkpt>
      <trkpt lat="32.535888031125069" lon="-4.373371973633766">
        <ele>1872.0999999999999</ele>
        <time>2003-04-18T15:31:50Z</time>
      </trkpt>
      <trkpt lat="32.53591300919652" lon="-4.372897977009416">
        <ele>1872.2</ele>
        <time>2003-04-18T15:31:57Z</time>
      </trkpt>
      <trkpt lat="32.53589297644794" lon="-4.372760010883212">
        <ele>1873.2</ele>
        <time>2003-04-18T15:31:58Z</time>
      </trkpt>
      <trkpt lat="32.535851988941431" lon="-4.372607041150332">
        <ele>1874</ele>
        <time>2003-04-18T15:32:01Z</time>
      </trkpt>
      <trkpt lat="32.535817036405206" lon="-4.372385004535317">
        <ele>1874.0999999999999</ele>
        <time>2003-04-18T15:32:03Z</time>
      </trkpt>
      <trkpt lat="32.535809995606542" lon="-4.37223999761045">
        <ele>1873.8</ele>
        <time>2003-04-18T15:32:06Z</time>
      </trkpt>
      <trkpt lat="32.535840002819896" lon="-4.372122986242175">
        <ele>1871.3</ele>
        <time>2003-04-18T15:32:10Z</time>
      </trkpt>
      <trkpt lat="32.535842014476657" lon="-4.372007986530662">
        <ele>1870.8</ele>
        <time>2003-04-18T15:32:13Z</time>
      </trkpt>
      <trkpt lat="32.535840002819896" lon="-4.371802965179086">
        <ele>1871</ele>
        <time>2003-04-18T15:32:17Z</time>
      </trkpt>
      <trkpt lat="32.535894988104701" lon="-4.371706992387772">
        <ele>1870.9000000000001</ele>
        <time>2003-04-18T15:32:18Z</time>
      </trkpt>
      <trkpt lat="32.535992972552776" lon="-4.371546981856227">
        <ele>1869.3</ele>
        <time>2003-04-18T15:32:22Z</time>
      </trkpt>
      <trkpt lat="32.536017028614879" lon="-4.371434999629855">
        <ele>1871</ele>
        <time>2003-04-18T15:32:24Z</time>
      </trkpt>
      <trkpt lat="32.536081988364458" lon="-4.371317988261581">
        <ele>1870.8</ele>
        <time>2003-04-18T15:32:26Z</time>
      </trkpt>
      <trkpt lat="32.53614803776145" lon="-4.371212041005492">
        <ele>1870.2</ele>
        <time>2003-04-18T15:32:29Z</time>
      </trkpt>
      <trkpt lat="32.536137979477644" lon="-4.371071979403496">
        <ele>1871.4000000000001</ele>
        <time>2003-04-18T15:32:32Z</time>
      </trkpt>
      <trkpt lat="32.536185001954436" lon="-4.370975000783801">
        <ele>1874.9000000000001</ele>
        <time>2003-04-18T15:32:37Z</time>
      </trkpt>
      <trkpt lat="32.536273011937737" lon="-4.370933007448912">
        <ele>1876.4000000000001</ele>
        <time>2003-04-18T15:32:41Z</time>
      </trkpt>
      <trkpt lat="32.536352975293994" lon="-4.370877016335726">
        <ele>1876.5999999999999</ele>
        <time>2003-04-18T15:32:42Z</time>
      </trkpt>
      <trkpt lat="32.536518014967442" lon="-4.370747013017535">
        <ele>1878.3</ele>
        <time>2003-04-18T15:32:48Z</time>
      </trkpt>
      <trkpt lat="32.536584986373782" lon="-4.370657997205854">
        <ele>1878.5</ele>
        <time>2003-04-18T15:32:51Z</time>
      </trkpt>
      <trkpt lat="32.536603007465601" lon="-4.370511984452605">
        <ele>1878.3</ele>
        <time>2003-04-18T15:32:53Z</time>
      </trkpt>
      <trkpt lat="32.536784978583455" lon="-4.370402013882995">
        <ele>1879.2</ele>
        <time>2003-04-18T15:33:00Z</time>
      </trkpt>
      <trkpt lat="32.536818003281951" lon="-4.370260024443269">
        <ele>1879.5</ele>
        <time>2003-04-18T15:33:03Z</time>
      </trkpt>
      <trkpt lat="32.536812974140048" lon="-4.370124991983175">
        <ele>1880</ele>
        <time>2003-04-18T15:33:04Z</time>
      </trkpt>
      <trkpt lat="32.536824960261583" lon="-4.369976967573166">
        <ele>1879.9000000000001</ele>
        <time>2003-04-18T15:33:08Z</time>
      </trkpt>
      <trkpt lat="32.536856979131699" lon="-4.369787033647299">
        <ele>1879.0999999999999</ele>
        <time>2003-04-18T15:33:12Z</time>
      </trkpt>
      <trkpt lat="32.536907019093633" lon="-4.369638003408909">
        <ele>1877.7</ele>
        <time>2003-04-18T15:33:15Z</time>
      </trkpt>
      <trkpt lat="32.53690299578011" lon="-4.369455026462674">
        <ele>1879.5999999999999</ele>
        <time>2003-04-18T15:33:18Z</time>
      </trkpt>
      <trkpt lat="32.536869971081614" lon="-4.369301972910762">
        <ele>1878.9000000000001</ele>
        <time>2003-04-18T15:33:19Z</time>
      </trkpt>
      <trkpt lat="32.536869971081614" lon="-4.369140034541488">
        <ele>1879.7</ele>
        <time>2003-04-18T15:33:22Z</time>
      </trkpt>
      <trkpt lat="32.536887992173433" lon="-4.368972983211279">
        <ele>1881.3</ele>
        <time>2003-04-18T15:33:23Z</time>
      </trkpt>
      <trkpt lat="32.536974996328354" lon="-4.368829987943173">
        <ele>1881.8</ele>
        <time>2003-04-18T15:33:26Z</time>
      </trkpt>
      <trkpt lat="32.537016989663243" lon="-4.368682969361544">
        <ele>1882.7</ele>
        <time>2003-04-18T15:33:27Z</time>
      </trkpt>
      <trkpt lat="32.536968039348722" lon="-4.368537040427327">
        <ele>1883.3</ele>
        <time>2003-04-18T15:33:30Z</time>
      </trkpt>
      <trkpt lat="32.536897966638207" lon="-4.368462022393942">
        <ele>1883.5</ele>
        <time>2003-04-18T15:33:31Z</time>
      </trkpt>
      <trkpt lat="32.536984970793128" lon="-4.368396978825331">
        <ele>1883.5</ele>
        <time>2003-04-18T15:33:47Z</time>
      </trkpt>
      <trkpt lat="32.537053031846881" lon="-4.368484988808632">
        <ele>1884.2</ele>
        <time>2003-04-18T15:33:50Z</time>
      </trkpt>
      <trkpt lat="32.537140036001801" lon="-4.368590014055371">
        <ele>1884.7</ele>
        <time>2003-04-18T15:33:51Z</time>
      </trkpt>
      <trkpt lat="32.537227962166071" lon="-4.368682969361544">
        <ele>1885.5</ele>
        <time>2003-04-18T15:33:54Z</time>
      </trkpt>
      <trkpt lat="32.537344973534346" lon="-4.368720017373562">
        <ele>1888</ele>
        <time>2003-04-18T15:33:57Z</time>
      </trkpt>
      <trkpt lat="32.537443041801453" lon="-4.368712976574898">
        <ele>1889.5999999999999</ele>
        <time>2003-04-18T15:33:58Z</time>
      </trkpt>
      <trkpt lat="32.537574972957373" lon="-4.368699984624982">
        <ele>1891.5</ele>
        <time>2003-04-18T15:34:02Z</time>
      </trkpt>
      <trkpt lat="32.53754798322916" lon="-4.368818001821637">
        <ele>1892.8</ele>
        <time>2003-04-18T15:34:08Z</time>
      </trkpt>
      <trkpt lat="32.537346985191107" lon="-4.368763016536832">
        <ele>1888</ele>
        <time>2003-04-18T15:34:17Z</time>
      </trkpt>
      <trkpt lat="32.537256963551044" lon="-4.368797969073057">
        <ele>1886.9000000000001</ele>
        <time>2003-04-18T15:34:20Z</time>
      </trkpt>
      <trkpt lat="32.537171971052885" lon="-4.368890002369881">
        <ele>1886.4000000000001</ele>
        <time>2003-04-18T15:34:22Z</time>
      </trkpt>
      <trkpt lat="32.537122014909983" lon="-4.368993015959859">
        <ele>1887</ele>
        <time>2003-04-18T15:34:30Z</time>
      </trkpt>
      <trkpt lat="32.537087984383106" lon="-4.36910298652947">
        <ele>1885.7</ele>
        <time>2003-04-18T15:34:33Z</time>
      </trkpt>
      <trkpt lat="32.536977007985115" lon="-4.369183033704758">
        <ele>1883.3</ele>
        <time>2003-04-18T15:34:37Z</time>
      </trkpt>
      <trkpt lat="32.536920011043549" lon="-4.369270037859678">
        <ele>1881.5</ele>
        <time>2003-04-18T15:34:39Z</time>
      </trkpt>
      <trkpt lat="32.536897966638207" lon="-4.36938202008605">
        <ele>1879.9000000000001</ele>
        <time>2003-04-18T15:34:40Z</time>
      </trkpt>
      <trkpt lat="32.536905007436872" lon="-4.369525015354157">
        <ele>1880.3</ele>
        <time>2003-04-18T15:34:44Z</time>
      </trkpt>
      <trkpt lat="32.53690299578011" lon="-4.369653007015586">
        <ele>1879.9000000000001</ele>
        <time>2003-04-18T15:34:47Z</time>
      </trkpt>
      <trkpt lat="32.53688296303153" lon="-4.369764989241958">
        <ele>1879.4000000000001</ele>
        <time>2003-04-18T15:34:48Z</time>
      </trkpt>
      <trkpt lat="32.536844993010163" lon="-4.369894992560148">
        <ele>1881.5</ele>
        <time>2003-04-18T15:34:52Z</time>
      </trkpt>
      <trkpt lat="32.536835018545389" lon="-4.370085010305047">
        <ele>1882.2</ele>
        <time>2003-04-18T15:34:57Z</time>
      </trkpt>
      <trkpt lat="32.53683703020215" lon="-4.370388016104698">
        <ele>1882.4000000000001</ele>
        <time>2003-04-18T15:35:04Z</time>
      </trkpt>
      <trkpt lat="32.536741979420185" lon="-4.370443001389504">
        <ele>1881.5999999999999</ele>
        <time>2003-04-18T15:35:10Z</time>
      </trkpt>
      <trkpt lat="32.536647012457252" lon="-4.370451970025897">
        <ele>1880.8</ele>
        <time>2003-04-18T15:35:12Z</time>
      </trkpt>
      <trkpt lat="32.536599989980459" lon="-4.370582979172468">
        <ele>1880.8</ele>
        <time>2003-04-18T15:35:16Z</time>
      </trkpt>
      <trkpt lat="32.53657802939415" lon="-4.370705019682646">
        <ele>1880.9000000000001</ele>
        <time>2003-04-18T15:35:19Z</time>
      </trkpt>
      <trkpt lat="32.536467975005507" lon="-4.370782971382141">
        <ele>1880.4000000000001</ele>
        <time>2003-04-18T15:35:23Z</time>
      </trkpt>
      <trkpt lat="32.536388011649251" lon="-4.370835023000836">
        <ele>1879.4000000000001</ele>
        <time>2003-04-18T15:35:24Z</time>
      </trkpt>
      <trkpt lat="32.536248033866286" lon="-4.370952034369111">
        <ele>1878.0999999999999</ele>
        <time>2003-04-18T15:35:29Z</time>
      </trkpt>
      <trkpt lat="32.536166980862617" lon="-4.371001990512013">
        <ele>1876</ele>
        <time>2003-04-18T15:35:34Z</time>
      </trkpt>
      <trkpt lat="32.536121970042586" lon="-4.371099974960089">
        <ele>1873.9000000000001</ele>
        <time>2003-04-18T15:35:42Z</time>
      </trkpt>
      <trkpt lat="32.536133034154773" lon="-4.371244981884956">
        <ele>1871.8</ele>
        <time>2003-04-18T15:35:43Z</time>
      </trkpt>
      <trkpt lat="32.536070002242923" lon="-4.371347995474935">
        <ele>1871.5</ele>
        <time>2003-04-18T15:35:46Z</time>
      </trkpt>
      <trkpt lat="32.53600001335144" lon="-4.371427036821842">
        <ele>1872.5999999999999</ele>
        <time>2003-04-18T15:35:47Z</time>
      </trkpt>
      <trkpt lat="32.53597998060286" lon="-4.371587969362736">
        <ele>1870.9000000000001</ele>
        <time>2003-04-18T15:35:50Z</time>
      </trkpt>
      <trkpt lat="32.535904962569475" lon="-4.37170498073101">
        <ele>1872</ele>
        <time>2003-04-18T15:35:53Z</time>
      </trkpt>
      <trkpt lat="32.535840002819896" lon="-4.371807994320989">
        <ele>1873.2</ele>
        <time>2003-04-18T15:35:54Z</time>
      </trkpt>
      <trkpt lat="32.535832962021232" lon="-4.371936991810799">
        <ele>1872.5999999999999</ele>
        <time>2003-04-18T15:35:58Z</time>
      </trkpt>
      <trkpt lat="32.535851988941431" lon="-4.37209197320044">
        <ele>1873.4000000000001</ele>
        <time>2003-04-18T15:36:01Z</time>
      </trkpt>
      <trkpt lat="32.535832962021232" lon="-4.372206972911954">
        <ele>1874.5999999999999</ele>
        <time>2003-04-18T15:36:04Z</time>
      </trkpt>
      <trkpt lat="32.535817036405206" lon="-4.372334964573383">
        <ele>1875.4000000000001</ele>
        <time>2003-04-18T15:36:08Z</time>
      </trkpt>
      <trkpt lat="32.535845031961799" lon="-4.372505033388734">
        <ele>1875.0999999999999</ele>
        <time>2003-04-18T15:36:10Z</time>
      </trkpt>
      <trkpt lat="32.535876967012882" lon="-4.372677030041814">
        <ele>1874.9000000000001</ele>
        <time>2003-04-18T15:36:13Z</time>
      </trkpt>
      <trkpt lat="32.535927006974816" lon="-4.373011970892549">
        <ele>1873</ele>
        <time>2003-04-18T15:36:17Z</time>
      </trkpt>
      <trkpt lat="32.535900017246604" lon="-4.373327968642116">
        <ele>1873.2</ele>
        <time>2003-04-18T15:36:20Z</time>
      </trkpt>
      <trkpt lat="32.535889958962798" lon="-4.373595016077161">
        <ele>1871.7</ele>
        <time>2003-04-18T15:36:23Z</time>
      </trkpt>
      <trkpt lat="32.535857018083334" lon="-4.373710015788674">
        <ele>1869.8</ele>
        <time>2003-04-18T15:36:25Z</time>
      </trkpt>
      <trkpt lat="32.535766996443272" lon="-4.373791990801692">
        <ele>1869.0999999999999</ele>
        <time>2003-04-18T15:36:28Z</time>
      </trkpt>
      <trkpt lat="32.535702036693692" lon="-4.373887041583657">
        <ele>1868</ele>
        <time>2003-04-18T15:36:29Z</time>
      </trkpt>
      <trkpt lat="32.535717962309718" lon="-4.374007992446423">
        <ele>1867.5999999999999</ele>
        <time>2003-04-18T15:36:32Z</time>
      </trkpt>
      <trkpt lat="32.535776970908046" lon="-4.374161968007684">
        <ele>1865.7</ele>
        <time>2003-04-18T15:36:33Z</time>
      </trkpt>
      <trkpt lat="32.535804966464639" lon="-4.374285014346242">
        <ele>1866.5999999999999</ele>
        <time>2003-04-18T15:36:36Z</time>
      </trkpt>
      <trkpt lat="32.535762973129749" lon="-4.374442007392645">
        <ele>1865.4000000000001</ele>
        <time>2003-04-18T15:36:37Z</time>
      </trkpt>
      <trkpt lat="32.535567004233599" lon="-4.374918015673757">
        <ele>1863.9000000000001</ele>
        <time>2003-04-18T15:36:44Z</time>
      </trkpt>
      <trkpt lat="32.535482011735439" lon="-4.375056987628341">
        <ele>1861.7</ele>
        <time>2003-04-18T15:36:45Z</time>
      </trkpt>
      <trkpt lat="32.535313032567501" lon="-4.375499971210957">
        <ele>1859.2</ele>
        <time>2003-04-18T15:36:51Z</time>
      </trkpt>
      <trkpt lat="32.535261986777186" lon="-4.375761989504099">
        <ele>1859</ele>
        <time>2003-04-18T15:36:54Z</time>
      </trkpt>
      <trkpt lat="32.535199960693717" lon="-4.375968016684055">
        <ele>1857.0999999999999</ele>
        <time>2003-04-18T15:36:56Z</time>
      </trkpt>
      <trkpt lat="32.535191997885704" lon="-4.376125009730458">
        <ele>1856.4000000000001</ele>
        <time>2003-04-18T15:36:59Z</time>
      </trkpt>
      <trkpt lat="32.535229967907071" lon="-4.376292983070016">
        <ele>1854.9000000000001</ele>
        <time>2003-04-18T15:37:00Z</time>
      </trkpt>
      <trkpt lat="32.535353014245629" lon="-4.376809978857637">
        <ele>1852.5</ele>
        <time>2003-04-18T15:37:07Z</time>
      </trkpt>
      <trkpt lat="32.535282019525766" lon="-4.376915004104376">
        <ele>1852.5999999999999</ele>
        <time>2003-04-18T15:37:11Z</time>
      </trkpt>
      <trkpt lat="32.535187974572182" lon="-4.376873010769486">
        <ele>1852.4000000000001</ele>
        <time>2003-04-18T15:37:12Z</time>
      </trkpt>
      <trkpt lat="32.535174982622266" lon="-4.376760022714734">
        <ele>1852.4000000000001</ele>
        <time>2003-04-18T15:37:15Z</time>
      </trkpt>
      <trkpt lat="32.535127038136125" lon="-4.376660026609898">
        <ele>1852.7</ele>
        <time>2003-04-18T15:37:17Z</time>
      </trkpt>
      <trkpt lat="32.535029975697398" lon="-4.376572016626597">
        <ele>1852.7</ele>
        <time>2003-04-18T15:37:19Z</time>
      </trkpt>
      <trkpt lat="32.534927967935801" lon="-4.376437989994884">
        <ele>1853.3</ele>
        <time>2003-04-18T15:37:21Z</time>
      </trkpt>
      <trkpt lat="32.534810034558177" lon="-4.376212013885379">
        <ele>1853.8</ele>
        <time>2003-04-18T15:37:23Z</time>
      </trkpt>
      <trkpt lat="32.534771980717778" lon="-4.376025013625622">
        <ele>1854.3</ele>
        <time>2003-04-18T15:37:26Z</time>
      </trkpt>
      <trkpt lat="32.534718001261353" lon="-4.375867014750838">
        <ele>1854.7</ele>
        <time>2003-04-18T15:37:27Z</time>
      </trkpt>
      <trkpt lat="32.534675002098083" lon="-4.37569996342063">
        <ele>1855.2</ele>
        <time>2003-04-18T15:37:30Z</time>
      </trkpt>
      <trkpt lat="32.534642983227968" lon="-4.375342978164554">
        <ele>1856.5</ele>
        <time>2003-04-18T15:37:34Z</time>
      </trkpt>
      <trkpt lat="32.534654969349504" lon="-4.375126976519823">
        <ele>1856.5999999999999</ele>
        <time>2003-04-18T15:37:35Z</time>
      </trkpt>
      <trkpt lat="32.534642983227968" lon="-4.374809972941876">
        <ele>1857.5</ele>
        <time>2003-04-18T15:37:38Z</time>
      </trkpt>
      <trkpt lat="32.534641977399588" lon="-4.374575028195977">
        <ele>1857.8</ele>
        <time>2003-04-18T15:37:41Z</time>
      </trkpt>
      <trkpt lat="32.534659998491406" lon="-4.374362966045737">
        <ele>1858.3</ele>
        <time>2003-04-18T15:37:42Z</time>
      </trkpt>
      <trkpt lat="32.534678019583225" lon="-4.37413296662271">
        <ele>1859.0999999999999</ele>
        <time>2003-04-18T15:37:46Z</time>
      </trkpt>
      <trkpt lat="32.534675002098083" lon="-4.373977985233069">
        <ele>1859.3</ele>
        <time>2003-04-18T15:37:48Z</time>
      </trkpt>
      <trkpt lat="32.534638037905097" lon="-4.373695012181997">
        <ele>1859.9000000000001</ele>
        <time>2003-04-18T15:37:50Z</time>
      </trkpt>
      <trkpt lat="32.534538041800261" lon="-4.372692033648491">
        <ele>1861.7</ele>
        <time>2003-04-18T15:38:01Z</time>
      </trkpt>
      <trkpt lat="32.534607024863362" lon="-4.37256496399641">
        <ele>1862.2</ele>
        <time>2003-04-18T15:38:02Z</time>
      </trkpt>
      <trkpt lat="32.534720012918115" lon="-4.372496986761689">
        <ele>1862.9000000000001</ele>
        <time>2003-04-18T15:38:05Z</time>
      </trkpt>
      <trkpt lat="32.534786984324455" lon="-4.372400008141995">
        <ele>1862.8</ele>
        <time>2003-04-18T15:38:06Z</time>
      </trkpt>
      <trkpt lat="32.534892009571195" lon="-4.372300012037158">
        <ele>1863.4000000000001</ele>
        <time>2003-04-18T15:38:09Z</time>
      </trkpt>
      <trkpt lat="32.534965015947819" lon="-4.372194986790419">
        <ele>1863.5</ele>
        <time>2003-04-18T15:38:11Z</time>
      </trkpt>
      <trkpt lat="32.534978007897735" lon="-4.3720250017941">
        <ele>1863.7</ele>
        <time>2003-04-18T15:38:13Z</time>
      </trkpt>
      <trkpt lat="32.535002985969186" lon="-4.371742028743029">
        <ele>1864.4000000000001</ele>
        <time>2003-04-18T15:38:16Z</time>
      </trkpt>
      <trkpt lat="32.535067023709416" lon="-4.371544970199466">
        <ele>1864.7</ele>
        <time>2003-04-18T15:38:17Z</time>
      </trkpt>
      <trkpt lat="32.535084960982203" lon="-4.371440028771758">
        <ele>1864.7</ele>
        <time>2003-04-18T15:38:19Z</time>
      </trkpt>
      <trkpt lat="32.535157967358828" lon="-4.371231989935041">
        <ele>1864.9000000000001</ele>
        <time>2003-04-18T15:38:20Z</time>
      </trkpt>
      <trkpt lat="32.535228040069342" lon="-4.371010037139058">
        <ele>1865.5999999999999</ele>
        <time>2003-04-18T15:38:23Z</time>
      </trkpt>
      <trkpt lat="32.535316972061992" lon="-4.370556995272636">
        <ele>1865.9000000000001</ele>
        <time>2003-04-18T15:38:27Z</time>
      </trkpt>
      <trkpt lat="32.535389978438616" lon="-4.370012003928423">
        <ele>1867.7</ele>
        <time>2003-04-18T15:38:32Z</time>
      </trkpt>
      <trkpt lat="32.535467008128762" lon="-4.369643032550812">
        <ele>1868.3</ele>
        <time>2003-04-18T15:38:36Z</time>
      </trkpt>
      <trkpt lat="32.535528028383851" lon="-4.369428036734462">
        <ele>1868.7</ele>
        <time>2003-04-18T15:38:39Z</time>
      </trkpt>
      <trkpt lat="32.535562980920076" lon="-4.369322005659342">
        <ele>1868.8</ele>
        <time>2003-04-18T15:38:40Z</time>
      </trkpt>
      <trkpt lat="32.535602040588856" lon="-4.369222009554505">
        <ele>1869</ele>
        <time>2003-04-18T15:38:43Z</time>
      </trkpt>
      <trkpt lat="32.535662977024913" lon="-4.369082031771541">
        <ele>1869</ele>
        <time>2003-04-18T15:38:54Z</time>
      </trkpt>
      <trkpt lat="32.535734977573156" lon="-4.368939958512783">
        <ele>1870</ele>
        <time>2003-04-18T15:38:58Z</time>
      </trkpt>
      <trkpt lat="32.535851988941431" lon="-4.368488006293774">
        <ele>1872.4000000000001</ele>
        <time>2003-04-18T15:39:07Z</time>
      </trkpt>
      <trkpt lat="32.535858023911715" lon="-4.36837300658226">
        <ele>1872.7</ele>
        <time>2003-04-18T15:39:10Z</time>
      </trkpt>
      <trkpt lat="32.535872021690011" lon="-4.368264963850379">
        <ele>1872.9000000000001</ele>
        <time>2003-04-18T15:39:15Z</time>
      </trkpt>
      <trkpt lat="32.535879984498024" lon="-4.368128003552556">
        <ele>1873.5</ele>
        <time>2003-04-18T15:39:27Z</time>
      </trkpt>
      <trkpt lat="32.535932958126068" lon="-4.36794200912118">
        <ele>1871.9000000000001</ele>
        <time>2003-04-18T15:39:45Z</time>
      </trkpt>
      <trkpt lat="32.535922983661294" lon="-4.367806976661086">
        <ele>1872</ele>
        <time>2003-04-18T15:39:48Z</time>
      </trkpt>
      <trkpt lat="32.535879984498024" lon="-4.36759801581502">
        <ele>1872.2</ele>
        <time>2003-04-18T15:39:50Z</time>
      </trkpt>
      <trkpt lat="32.535800021141768" lon="-4.367453008890152">
        <ele>1872.4000000000001</ele>
        <time>2003-04-18T15:39:53Z</time>
      </trkpt>
      <trkpt lat="32.535728020593524" lon="-4.367332980036736">
        <ele>1872.5999999999999</ele>
        <time>2003-04-18T15:39:54Z</time>
      </trkpt>
      <trkpt lat="32.535737995058298" lon="-4.367174981161952">
        <ele>1872.9000000000001</ele>
        <time>2003-04-18T15:39:57Z</time>
      </trkpt>
      <trkpt lat="32.535791974514723" lon="-4.366961997002363">
        <ele>1873.0999999999999</ele>
        <time>2003-04-18T15:40:00Z</time>
      </trkpt>
      <trkpt lat="32.53587001003325" lon="-4.366840040311217">
        <ele>1874</ele>
        <time>2003-04-18T15:40:01Z</time>
      </trkpt>
      <trkpt lat="32.536066984757781" lon="-4.366599982604384">
        <ele>1873.9000000000001</ele>
        <time>2003-04-18T15:40:07Z</time>
      </trkpt>
      <trkpt lat="32.536096991971135" lon="-4.366451958194375">
        <ele>1873.8</ele>
        <time>2003-04-18T15:40:09Z</time>
      </trkpt>
      <trkpt lat="32.536126999184489" lon="-4.366327989846468">
        <ele>1873.9000000000001</ele>
        <time>2003-04-18T15:40:12Z</time>
      </trkpt>
      <trkpt lat="32.536239987239242" lon="-4.365997994318605">
        <ele>1875.3</ele>
        <time>2003-04-18T15:40:16Z</time>
      </trkpt>
      <trkpt lat="32.536309976130724" lon="-4.365877965465188">
        <ele>1875.8</ele>
        <time>2003-04-18T15:40:19Z</time>
      </trkpt>
      <trkpt lat="32.536427993327379" lon="-4.365651989355683">
        <ele>1876.5999999999999</ele>
        <time>2003-04-18T15:40:23Z</time>
      </trkpt>
      <trkpt lat="32.536460012197495" lon="-4.36553698964417">
        <ele>1876.7</ele>
        <time>2003-04-18T15:40:24Z</time>
      </trkpt>
      <trkpt lat="32.536475015804172" lon="-4.365373039618135">
        <ele>1877.0999999999999</ele>
        <time>2003-04-18T15:40:28Z</time>
      </trkpt>
      <trkpt lat="32.536463029682636" lon="-4.365232978016138">
        <ele>1878.0999999999999</ele>
        <time>2003-04-18T15:40:31Z</time>
      </trkpt>
      <trkpt lat="32.536454983055592" lon="-4.365123007446528">
        <ele>1878</ele>
        <time>2003-04-18T15:40:34Z</time>
      </trkpt>
      <trkpt lat="32.536445008590817" lon="-4.36493500135839">
        <ele>1878.7</ele>
        <time>2003-04-18T15:40:43Z</time>
      </trkpt>
      <trkpt lat="32.536432016640902" lon="-4.364787982776761">
        <ele>1879.4000000000001</ele>
        <time>2003-04-18T15:40:47Z</time>
      </trkpt>
      <trkpt lat="32.53643000498414" lon="-4.364659991115332">
        <ele>1880.5</ele>
        <time>2003-04-18T15:40:50Z</time>
      </trkpt>
      <trkpt lat="32.536424975842237" lon="-4.364426974207163">
        <ele>1880.4000000000001</ele>
        <time>2003-04-18T15:40:55Z</time>
      </trkpt>
      <trkpt lat="32.536432016640902" lon="-4.364305017516017">
        <ele>1880.5</ele>
        <time>2003-04-18T15:40:58Z</time>
      </trkpt>
      <trkpt lat="32.536456994712353" lon="-4.364166967570782">
        <ele>1882.0999999999999</ele>
        <time>2003-04-18T15:41:02Z</time>
      </trkpt>
      <trkpt lat="32.536488007754087" lon="-4.363987008109689">
        <ele>1882.5</ele>
        <time>2003-04-18T15:41:06Z</time>
      </trkpt>
      <trkpt lat="32.536548022180796" lon="-4.363867985084653">
        <ele>1882.8</ele>
        <time>2003-04-18T15:41:09Z</time>
      </trkpt>
      <trkpt lat="32.536633014678955" lon="-4.363773018121719">
        <ele>1882.9000000000001</ele>
        <time>2003-04-18T15:41:11Z</time>
      </trkpt>
      <trkpt lat="32.536742985248566" lon="-4.36364502646029">
        <ele>1883.3</ele>
        <time>2003-04-18T15:41:15Z</time>
      </trkpt>
      <trkpt lat="32.53683996386826" lon="-4.363503037020564">
        <ele>1883.5</ele>
        <time>2003-04-18T15:41:21Z</time>
      </trkpt>
      <trkpt lat="32.53690198995173" lon="-4.363383008167148">
        <ele>1883.2</ele>
        <time>2003-04-18T15:41:29Z</time>
      </trkpt>
      <trkpt lat="32.536925040185452" lon="-4.363277982920408">
        <ele>1883.3</ele>
        <time>2003-04-18T15:41:33Z</time>
      </trkpt>
      <trkpt lat="32.536912970244884" lon="-4.363164994865656">
        <ele>1883.4000000000001</ele>
        <time>2003-04-18T15:41:37Z</time>
      </trkpt>
      <trkpt lat="32.536865025758743" lon="-4.363025017082691">
        <ele>1884.3</ele>
        <time>2003-04-18T15:41:44Z</time>
      </trkpt>
      <trkpt lat="32.536925040185452" lon="-4.362940024584532">
        <ele>1884.7</ele>
        <time>2003-04-18T15:41:47Z</time>
      </trkpt>
      <trkpt lat="32.536986982449889" lon="-4.36280800960958">
        <ele>1886.2</ele>
        <time>2003-04-18T15:41:49Z</time>
      </trkpt>
      <trkpt lat="32.536997962743044" lon="-4.362677000463009">
        <ele>1887.9000000000001</ele>
        <time>2003-04-18T15:41:52Z</time>
      </trkpt>
      <trkpt lat="32.536948006600142" lon="-4.362538028508425">
        <ele>1889.7</ele>
        <time>2003-04-18T15:41:56Z</time>
      </trkpt>
      <trkpt lat="32.536950018256903" lon="-4.362395033240318">
        <ele>1890.9000000000001</ele>
        <time>2003-04-18T15:41:59Z</time>
      </trkpt>
      <trkpt lat="32.536982959136367" lon="-4.362241979688406">
        <ele>1892.5999999999999</ele>
        <time>2003-04-18T15:42:01Z</time>
      </trkpt>
      <trkpt lat="32.537050014361739" lon="-4.362050034105778">
        <ele>1894.3</ele>
        <time>2003-04-18T15:42:04Z</time>
      </trkpt>
      <trkpt lat="32.537144981324673" lon="-4.361812993884087">
        <ele>1896.5</ele>
        <time>2003-04-18T15:42:08Z</time>
      </trkpt>
      <trkpt lat="32.53733298741281" lon="-4.36143497005105">
        <ele>1897</ele>
        <time>2003-04-18T15:42:14Z</time>
      </trkpt>
      <trkpt lat="32.537502972409129" lon="-4.361031968146563">
        <ele>1893.7</ele>
        <time>2003-04-18T15:42:20Z</time>
      </trkpt>
      <trkpt lat="32.537517976015806" lon="-4.360882015898824">
        <ele>1892.8</ele>
        <time>2003-04-18T15:42:23Z</time>
      </trkpt>
      <trkpt lat="32.537501966580749" lon="-4.360752012580633">
        <ele>1893.3</ele>
        <time>2003-04-18T15:42:24Z</time>
      </trkpt>
      <trkpt lat="32.537476988509297" lon="-4.360527964308858">
        <ele>1894.0999999999999</ele>
        <time>2003-04-18T15:42:27Z</time>
      </trkpt>
      <trkpt lat="32.537474976852536" lon="-4.36022998765111">
        <ele>1897.0999999999999</ele>
        <time>2003-04-18T15:42:31Z</time>
      </trkpt>
      <trkpt lat="32.537497021257877" lon="-4.360009962692857">
        <ele>1897.8</ele>
        <time>2003-04-18T15:42:35Z</time>
      </trkpt>
      <trkpt lat="32.53750498406589" lon="-4.359772000461817">
        <ele>1898.7</ele>
        <time>2003-04-18T15:42:38Z</time>
      </trkpt>
      <trkpt lat="32.537577990442514" lon="-4.35947704128921">
        <ele>1901.8</ele>
        <time>2003-04-18T15:42:42Z</time>
      </trkpt>
      <trkpt lat="32.537583019584417" lon="-4.359324993565679">
        <ele>1902.0999999999999</ele>
        <time>2003-04-18T15:42:43Z</time>
      </trkpt>
      <trkpt lat="32.537595005705953" lon="-4.359183004125953">
        <ele>1903.5</ele>
        <time>2003-04-18T15:42:46Z</time>
      </trkpt>
      <trkpt lat="32.537685027346015" lon="-4.358676988631487">
        <ele>1906.3</ele>
        <time>2003-04-18T15:42:53Z</time>
      </trkpt>
      <trkpt lat="32.537791980430484" lon="-4.358129985630512">
        <ele>1909.3</ele>
        <time>2003-04-18T15:42:59Z</time>
      </trkpt>
      <trkpt lat="32.537862975150347" lon="-4.357460020110011">
        <ele>1911.7</ele>
        <time>2003-04-18T15:43:08Z</time>
      </trkpt>
      <trkpt lat="32.537930030375719" lon="-4.357326999306679">
        <ele>1910.0999999999999</ele>
        <time>2003-04-18T15:43:10Z</time>
      </trkpt>
      <trkpt lat="32.53801804035902" lon="-4.357161959633231">
        <ele>1908.5999999999999</ele>
        <time>2003-04-18T15:43:13Z</time>
      </trkpt>
      <trkpt lat="32.538042012602091" lon="-4.357055006548762">
        <ele>1907.5</ele>
        <time>2003-04-18T15:43:17Z</time>
      </trkpt>
      <trkpt lat="32.538032960146666" lon="-4.35694201849401">
        <ele>1908</ele>
        <time>2003-04-18T15:43:21Z</time>
      </trkpt>
      <trkpt lat="32.538034971803427" lon="-4.356817966327071">
        <ele>1909.5</ele>
        <time>2003-04-18T15:43:24Z</time>
      </trkpt>
      <trkpt lat="32.538045030087233" lon="-4.356687963008881">
        <ele>1909.4000000000001</ele>
        <time>2003-04-18T15:43:26Z</time>
      </trkpt>
      <trkpt lat="32.538079982623458" lon="-4.356314968317747">
        <ele>1906.9000000000001</ele>
        <time>2003-04-18T15:43:32Z</time>
      </trkpt>
      <trkpt lat="32.538037989288568" lon="-4.356142971664667">
        <ele>1905.8</ele>
        <time>2003-04-18T15:43:33Z</time>
      </trkpt>
      <trkpt lat="32.5379120092839" lon="-4.355694958940148">
        <ele>1906.5999999999999</ele>
        <time>2003-04-18T15:43:40Z</time>
      </trkpt>
      <trkpt lat="32.53782500512898" lon="-4.355442998930812">
        <ele>1906.2</ele>
        <time>2003-04-18T15:43:44Z</time>
      </trkpt>
      <trkpt lat="32.537817964330316" lon="-4.355258010327816">
        <ele>1906.5999999999999</ele>
        <time>2003-04-18T15:43:47Z</time>
      </trkpt>
      <trkpt lat="32.537842020392418" lon="-4.355134963989258">
        <ele>1906.5999999999999</ele>
        <time>2003-04-18T15:43:48Z</time>
      </trkpt>
      <trkpt lat="32.537836991250515" lon="-4.355013007298112">
        <ele>1907.4000000000001</ele>
        <time>2003-04-18T15:43:51Z</time>
      </trkpt>
      <trkpt lat="32.537836991250515" lon="-4.354852996766567">
        <ele>1908.0999999999999</ele>
        <time>2003-04-18T15:43:53Z</time>
      </trkpt>
      <trkpt lat="32.53784503787756" lon="-4.35472802259028">
        <ele>1908.5999999999999</ele>
        <time>2003-04-18T15:44:00Z</time>
      </trkpt>
      <trkpt lat="32.53789197653532" lon="-4.354634983465076">
        <ele>1909.2</ele>
        <time>2003-04-18T15:44:04Z</time>
      </trkpt>
      <trkpt lat="32.537931958213449" lon="-4.354510009288788">
        <ele>1909.7</ele>
        <time>2003-04-18T15:44:07Z</time>
      </trkpt>
      <trkpt lat="32.538003036752343" lon="-4.3544299621135">
        <ele>1909.8</ele>
        <time>2003-04-18T15:44:10Z</time>
      </trkpt>
      <trkpt lat="32.538007982075214" lon="-4.354262994602323">
        <ele>1914.2</ele>
        <time>2003-04-18T15:45:21Z</time>
      </trkpt>
      <trkpt lat="32.538004964590073" lon="-4.354147994890809">
        <ele>1914.3</ele>
        <time>2003-04-18T15:45:23Z</time>
      </trkpt>
      <trkpt lat="32.53797696903348" lon="-4.354027966037393">
        <ele>1914.9000000000001</ele>
        <time>2003-04-18T15:45:25Z</time>
      </trkpt>
      <trkpt lat="32.537947967648506" lon="-4.353908021003008">
        <ele>1914.7</ele>
        <time>2003-04-18T15:45:27Z</time>
      </trkpt>
      <trkpt lat="32.537945033982396" lon="-4.353684978559613">
        <ele>1914.7</ele>
        <time>2003-04-18T15:45:29Z</time>
      </trkpt>
      <trkpt lat="32.537970012053847" lon="-4.353488003835082">
        <ele>1915</ele>
        <time>2003-04-18T15:45:32Z</time>
      </trkpt>
      <trkpt lat="32.538027008995414" lon="-4.353315001353622">
        <ele>1915.4000000000001</ele>
        <time>2003-04-18T15:45:33Z</time>
      </trkpt>
      <trkpt lat="32.538047041743994" lon="-4.353169994428754">
        <ele>1915.8</ele>
        <time>2003-04-18T15:45:36Z</time>
      </trkpt>
      <trkpt lat="32.538030026480556" lon="-4.353057006374002">
        <ele>1915.7</ele>
        <time>2003-04-18T15:45:37Z</time>
      </trkpt>
      <trkpt lat="32.538067996501923" lon="-4.352939995005727">
        <ele>1916.3</ele>
        <time>2003-04-18T15:45:40Z</time>
      </trkpt>
      <trkpt lat="32.538160029798746" lon="-4.352822983637452">
        <ele>1916.8</ele>
        <time>2003-04-18T15:45:41Z</time>
      </trkpt>
      <trkpt lat="32.538221972063184" lon="-4.352661967277527">
        <ele>1917.0999999999999</ele>
        <time>2003-04-18T15:45:44Z</time>
      </trkpt>
      <trkpt lat="32.538309982046485" lon="-4.352377988398075">
        <ele>1917.4000000000001</ele>
        <time>2003-04-18T15:45:47Z</time>
      </trkpt>
      <trkpt lat="32.53836203366518" lon="-4.352287966758013">
        <ele>1917.5999999999999</ele>
        <time>2003-04-18T15:45:48Z</time>
      </trkpt>
      <trkpt lat="32.538494970649481" lon="-4.352080011740327">
        <ele>1917.7</ele>
        <time>2003-04-18T15:45:51Z</time>
      </trkpt>
      <trkpt lat="32.538692029193044" lon="-4.351846994832158">
        <ele>1918</ele>
        <time>2003-04-18T15:45:55Z</time>
      </trkpt>
      <trkpt lat="32.538803005591035" lon="-4.351682960987091">
        <ele>1918.3</ele>
        <time>2003-04-18T15:45:56Z</time>
      </trkpt>
      <trkpt lat="32.539001991972327" lon="-4.351211981847882">
        <ele>1919.4000000000001</ele>
        <time>2003-04-18T15:46:02Z</time>
      </trkpt>
      <trkpt lat="32.539027975872159" lon="-4.350954992696643">
        <ele>1919.9000000000001</ele>
        <time>2003-04-18T15:46:04Z</time>
      </trkpt>
      <trkpt lat="32.538997968658805" lon="-4.350824989378452">
        <ele>1920.3</ele>
        <time>2003-04-18T15:46:07Z</time>
      </trkpt>
      <trkpt lat="32.538954969495535" lon="-4.350704960525036">
        <ele>1920.5</ele>
        <time>2003-04-18T15:46:10Z</time>
      </trkpt>
      <trkpt lat="32.538957986980677" lon="-4.350549979135394">
        <ele>1921.0999999999999</ele>
        <time>2003-04-18T15:46:11Z</time>
      </trkpt>
      <trkpt lat="32.538926973938942" lon="-4.350413018837571">
        <ele>1921.7</ele>
        <time>2003-04-18T15:46:15Z</time>
      </trkpt>
      <trkpt lat="32.538882968947291" lon="-4.350315034389496">
        <ele>1921.9000000000001</ele>
        <time>2003-04-18T15:46:17Z</time>
      </trkpt>
      <trkpt lat="32.53885799087584" lon="-4.350197017192841">
        <ele>1922.0999999999999</ele>
        <time>2003-04-18T15:46:19Z</time>
      </trkpt>
      <trkpt lat="32.538827983662486" lon="-4.349959976971149">
        <ele>1924.0999999999999</ele>
        <time>2003-04-18T15:46:22Z</time>
      </trkpt>
      <trkpt lat="32.53883502446115" lon="-4.349755039438605">
        <ele>1924.5999999999999</ele>
        <time>2003-04-18T15:46:23Z</time>
      </trkpt>
      <trkpt lat="32.538908030837774" lon="-4.349360000342131">
        <ele>1926.4000000000001</ele>
        <time>2003-04-18T15:46:27Z</time>
      </trkpt>
      <trkpt lat="32.538892021402717" lon="-4.349217005074024">
        <ele>1925.5999999999999</ele>
        <time>2003-04-18T15:46:30Z</time>
      </trkpt>
      <trkpt lat="32.538809962570667" lon="-4.348920034244657">
        <ele>1928.5999999999999</ele>
        <time>2003-04-18T15:46:35Z</time>
      </trkpt>
      <trkpt lat="32.538763023912907" lon="-4.348767986521125">
        <ele>1929.5999999999999</ele>
        <time>2003-04-18T15:46:38Z</time>
      </trkpt>
      <trkpt lat="32.538724970072508" lon="-4.348596995696425">
        <ele>1931.2</ele>
        <time>2003-04-18T15:46:39Z</time>
      </trkpt>
      <trkpt lat="32.538733016699553" lon="-4.348398009315133">
        <ele>1932.9000000000001</ele>
        <time>2003-04-18T15:46:42Z</time>
      </trkpt>
      <trkpt lat="32.538742991164327" lon="-4.348053010180593">
        <ele>1934.5999999999999</ele>
        <time>2003-04-18T15:46:45Z</time>
      </trkpt>
      <trkpt lat="32.538709966465831" lon="-4.347286988049746">
        <ele>1935.4000000000001</ele>
        <time>2003-04-18T15:46:50Z</time>
      </trkpt>
      <trkpt lat="32.538660010322928" lon="-4.346936959773302">
        <ele>1935.9000000000001</ele>
        <time>2003-04-18T15:46:53Z</time>
      </trkpt>
      <trkpt lat="32.538707032799721" lon="-4.34673797339201">
        <ele>1935.7</ele>
        <time>2003-04-18T15:46:56Z</time>
      </trkpt>
      <trkpt lat="32.53870502114296" lon="-4.346622973680496">
        <ele>1935.7</ele>
        <time>2003-04-18T15:46:57Z</time>
      </trkpt>
      <trkpt lat="32.538714995607734" lon="-4.34641501866281">
        <ele>1938.7</ele>
        <time>2003-04-18T15:46:58Z</time>
      </trkpt>
      <trkpt lat="32.538769980892539" lon="-4.346134979277849">
        <ele>1937.7</ele>
        <time>2003-04-18T15:47:01Z</time>
      </trkpt>
      <trkpt lat="32.53881499171257" lon="-4.345867009833455">
        <ele>1936</ele>
        <time>2003-04-18T15:47:05Z</time>
      </trkpt>
      <trkpt lat="32.538907025009394" lon="-4.345755027607083">
        <ele>1934.9000000000001</ele>
        <time>2003-04-18T15:47:06Z</time>
      </trkpt>
      <trkpt lat="32.539038034155965" lon="-4.345646984875202">
        <ele>1935.8</ele>
        <time>2003-04-18T15:47:09Z</time>
      </trkpt>
      <trkpt lat="32.539138030260801" lon="-4.345502983778715">
        <ele>1936</ele>
        <time>2003-04-18T15:47:11Z</time>
      </trkpt>
      <trkpt lat="32.539159990847111" lon="-4.345299974083901">
        <ele>1936.2</ele>
        <time>2003-04-18T15:47:13Z</time>
      </trkpt>
      <trkpt lat="32.539192009717226" lon="-4.345086989924312">
        <ele>1936.4000000000001</ele>
        <time>2003-04-18T15:47:15Z</time>
      </trkpt>
      <trkpt lat="32.539212964475155" lon="-4.344863025471568">
        <ele>1936.8</ele>
        <time>2003-04-18T15:47:16Z</time>
      </trkpt>
      <trkpt lat="32.539210030809045" lon="-4.344687005504966">
        <ele>1937.4000000000001</ele>
        <time>2003-04-18T15:47:19Z</time>
      </trkpt>
      <trkpt lat="32.539148004725575" lon="-4.344582986086607">
        <ele>1937.5</ele>
        <time>2003-04-18T15:47:20Z</time>
      </trkpt>
      <trkpt lat="32.539084972813725" lon="-4.34450201690197">
        <ele>1938.5999999999999</ele>
        <time>2003-04-18T15:47:23Z</time>
      </trkpt>
      <trkpt lat="32.539054965600371" lon="-4.344372013583779">
        <ele>1938.7</ele>
        <time>2003-04-18T15:47:24Z</time>
      </trkpt>
      <trkpt lat="32.539053037762642" lon="-4.344122987240553">
        <ele>1938.9000000000001</ele>
        <time>2003-04-18T15:47:28Z</time>
      </trkpt>
      <trkpt lat="32.539022024720907" lon="-4.343947973102331">
        <ele>1939.0999999999999</ele>
        <time>2003-04-18T15:47:29Z</time>
      </trkpt>
      <trkpt lat="32.538952035829425" lon="-4.343801960349083">
        <ele>1939.4000000000001</ele>
        <time>2003-04-18T15:47:32Z</time>
      </trkpt>
      <trkpt lat="32.538842987269163" lon="-4.343653013929725">
        <ele>1939.5</ele>
        <time>2003-04-18T15:47:35Z</time>
      </trkpt>
      <trkpt lat="32.538801999762654" lon="-4.343546982854605">
        <ele>1939.7</ele>
        <time>2003-04-18T15:47:36Z</time>
      </trkpt>
      <trkpt lat="32.538796970620751" lon="-4.343408010900021">
        <ele>1941.0999999999999</ele>
        <time>2003-04-18T15:47:39Z</time>
      </trkpt>
      <trkpt lat="32.538784984499216" lon="-4.343244982883334">
        <ele>1941.9000000000001</ele>
        <time>2003-04-18T15:47:40Z</time>
      </trkpt>
      <trkpt lat="32.538832006976008" lon="-4.343090001493692">
        <ele>1946.0999999999999</ele>
        <time>2003-04-18T15:47:43Z</time>
      </trkpt>
      <trkpt lat="32.538908030837774" lon="-4.342932002618909">
        <ele>1946</ele>
        <time>2003-04-18T15:47:44Z</time>
      </trkpt>
      <trkpt lat="32.538959998637438" lon="-4.342750031501055">
        <ele>1946.5</ele>
        <time>2003-04-18T15:47:47Z</time>
      </trkpt>
      <trkpt lat="32.53909201361239" lon="-4.34213999658823">
        <ele>1949.7</ele>
        <time>2003-04-18T15:47:52Z</time>
      </trkpt>
      <trkpt lat="32.539171976968646" lon="-4.341840008273721">
        <ele>1951</ele>
        <time>2003-04-18T15:47:55Z</time>
      </trkpt>
      <trkpt lat="32.539297034963965" lon="-4.341401970013976">
        <ele>1953.5999999999999</ele>
        <time>2003-04-18T15:48:00Z</time>
      </trkpt>
      <trkpt lat="32.539562992751598" lon="-4.340942976996303">
        <ele>1949.5</ele>
        <time>2003-04-18T15:48:07Z</time>
      </trkpt>
      <trkpt lat="32.539782011881471" lon="-4.34059202671051">
        <ele>1949.8</ele>
        <time>2003-04-18T15:48:14Z</time>
      </trkpt>
      <trkpt lat="32.539915032684803" lon="-4.340471997857094">
        <ele>1950.0999999999999</ele>
        <time>2003-04-18T15:48:18Z</time>
      </trkpt>
      <trkpt lat="32.539988039061427" lon="-4.34039999730885">
        <ele>1950.0999999999999</ele>
        <time>2003-04-18T15:48:21Z</time>
      </trkpt>
      <trkpt lat="32.540058027952909" lon="-4.340311987325549">
        <ele>1950.4000000000001</ele>
        <time>2003-04-18T15:48:26Z</time>
      </trkpt>
      <trkpt lat="32.540106978267431" lon="-4.340197993442416">
        <ele>1950</ele>
        <time>2003-04-18T15:48:30Z</time>
      </trkpt>
      <trkpt lat="32.540192976593971" lon="-4.340106965973973">
        <ele>1951.3</ele>
        <time>2003-04-18T15:48:34Z</time>
      </trkpt>
      <trkpt lat="32.540362039580941" lon="-4.339985009282827">
        <ele>1951.7</ele>
        <time>2003-04-18T15:48:37Z</time>
      </trkpt>
      <trkpt lat="32.540422976016998" lon="-4.339892975986004">
        <ele>1952.3</ele>
        <time>2003-04-18T15:48:40Z</time>
      </trkpt>
      <trkpt lat="32.540463041514158" lon="-4.339781999588013">
        <ele>1952.5999999999999</ele>
        <time>2003-04-18T15:48:41Z</time>
      </trkpt>
      <trkpt lat="32.540515009313822" lon="-4.339527022093535">
        <ele>1952.3</ele>
        <time>2003-04-18T15:48:45Z</time>
      </trkpt>
      <trkpt lat="32.540502017363906" lon="-4.339372962713242">
        <ele>1952.4000000000001</ele>
        <time>2003-04-18T15:48:48Z</time>
      </trkpt>
      <trkpt lat="32.540462035685778" lon="-4.339101975783706">
        <ele>1953</ele>
        <time>2003-04-18T15:48:52Z</time>
      </trkpt>
      <trkpt lat="32.540448037907481" lon="-4.338978007435799">
        <ele>1953.2</ele>
        <time>2003-04-18T15:48:53Z</time>
      </trkpt>
      <trkpt lat="32.540462035685778" lon="-4.338862001895905">
        <ele>1953.5</ele>
        <time>2003-04-18T15:48:56Z</time>
      </trkpt>
      <trkpt lat="32.540506962686777" lon="-4.338747002184391">
        <ele>1953.9000000000001</ele>
        <time>2003-04-18T15:48:57Z</time>
      </trkpt>
      <trkpt lat="32.540512997657061" lon="-4.338624961674213">
        <ele>1954.4000000000001</ele>
        <time>2003-04-18T15:49:00Z</time>
      </trkpt>
      <trkpt lat="32.540490031242371" lon="-4.33850702829659">
        <ele>1955</ele>
        <time>2003-04-18T15:49:01Z</time>
      </trkpt>
      <trkpt lat="32.540472010150552" lon="-4.338397979736328">
        <ele>1955.0999999999999</ele>
        <time>2003-04-18T15:49:04Z</time>
      </trkpt>
      <trkpt lat="32.540466981008649" lon="-4.338241992518306">
        <ele>1955.9000000000001</ele>
        <time>2003-04-18T15:49:07Z</time>
      </trkpt>
      <trkpt lat="32.540517020970583" lon="-4.337902022525668">
        <ele>1957.2</ele>
        <time>2003-04-18T15:49:12Z</time>
      </trkpt>
      <trkpt lat="32.540520038455725" lon="-4.337762966752052">
        <ele>1957.8</ele>
        <time>2003-04-18T15:49:15Z</time>
      </trkpt>
      <trkpt lat="32.540505034849048" lon="-4.337462978437543">
        <ele>1958.5999999999999</ele>
        <time>2003-04-18T15:49:19Z</time>
      </trkpt>
      <trkpt lat="32.540497994050384" lon="-4.337272960692644">
        <ele>1959.3</ele>
        <time>2003-04-18T15:49:21Z</time>
      </trkpt>
      <trkpt lat="32.540482990443707" lon="-4.337113033980131">
        <ele>1960</ele>
        <time>2003-04-18T15:49:24Z</time>
      </trkpt>
      <trkpt lat="32.540477039292455" lon="-4.336995016783476">
        <ele>1960.9000000000001</ele>
        <time>2003-04-18T15:49:27Z</time>
      </trkpt>
      <trkpt lat="32.540448037907481" lon="-4.336759988218546">
        <ele>1961.3</ele>
        <time>2003-04-18T15:49:31Z</time>
      </trkpt>
      <trkpt lat="32.540452983230352" lon="-4.336582962423563">
        <ele>1962.0999999999999</ele>
        <time>2003-04-18T15:49:34Z</time>
      </trkpt>
      <trkpt lat="32.540517020970583" lon="-4.336294960230589">
        <ele>1962.9000000000001</ele>
        <time>2003-04-18T15:49:38Z</time>
      </trkpt>
      <trkpt lat="32.54053202457726" lon="-4.33612204156816">
        <ele>1963.3</ele>
        <time>2003-04-18T15:49:40Z</time>
      </trkpt>
      <trkpt lat="32.540524983778596" lon="-4.335975022986531">
        <ele>1964.0999999999999</ele>
        <time>2003-04-18T15:49:43Z</time>
      </trkpt>
      <trkpt lat="32.540506962686777" lon="-4.335809983313084">
        <ele>1964.9000000000001</ele>
        <time>2003-04-18T15:49:47Z</time>
      </trkpt>
      <trkpt lat="32.540469998493791" lon="-4.335696995258331">
        <ele>1965.7</ele>
        <time>2003-04-18T15:49:50Z</time>
      </trkpt>
      <trkpt lat="32.540434962138534" lon="-4.335560034960508">
        <ele>1966.2</ele>
        <time>2003-04-18T15:49:54Z</time>
      </trkpt>
      <trkpt lat="32.540391962975264" lon="-4.335407987236977">
        <ele>1966.5999999999999</ele>
        <time>2003-04-18T15:49:57Z</time>
      </trkpt>
      <trkpt lat="32.54036002792418" lon="-4.33528795838356">
        <ele>1968.4000000000001</ele>
        <time>2003-04-18T15:50:02Z</time>
      </trkpt>
      <trkpt lat="32.540321974083781" lon="-4.335157033056021">
        <ele>1970.2</ele>
        <time>2003-04-18T15:50:05Z</time>
      </trkpt>
      <trkpt lat="32.540009999647737" lon="-4.334154976531863">
        <ele>1978.5</ele>
        <time>2003-04-18T15:50:24Z</time>
      </trkpt>
      <trkpt lat="32.539934981614351" lon="-4.333905028179288">
        <ele>1980.3</ele>
        <time>2003-04-18T15:50:28Z</time>
      </trkpt>
      <trkpt lat="32.539906986057758" lon="-4.333733031526208">
        <ele>1980.7</ele>
        <time>2003-04-18T15:50:29Z</time>
      </trkpt>
      <trkpt lat="32.539902040734887" lon="-4.333554999902844">
        <ele>1981.0999999999999</ele>
        <time>2003-04-18T15:50:32Z</time>
      </trkpt>
      <trkpt lat="32.539927018806338" lon="-4.333385014906526">
        <ele>1981.4000000000001</ele>
        <time>2003-04-18T15:50:33Z</time>
      </trkpt>
      <trkpt lat="32.539967000484467" lon="-4.333231961354613">
        <ele>1982.0999999999999</ele>
        <time>2003-04-18T15:50:36Z</time>
      </trkpt>
      <trkpt lat="32.540173027664423" lon="-4.332589991390705">
        <ele>1978.2</ele>
        <time>2003-04-18T15:50:45Z</time>
      </trkpt>
      <trkpt lat="32.540185013785958" lon="-4.332426963374019">
        <ele>1978.7</ele>
        <time>2003-04-18T15:50:49Z</time>
      </trkpt>
      <trkpt lat="32.540187025442719" lon="-4.332263013347983">
        <ele>1978.0999999999999</ele>
        <time>2003-04-18T15:50:52Z</time>
      </trkpt>
      <trkpt lat="32.540175039321184" lon="-4.332135021686554">
        <ele>1979.4000000000001</ele>
        <time>2003-04-18T15:50:53Z</time>
      </trkpt>
      <trkpt lat="32.540134973824024" lon="-4.331997977569699">
        <ele>1979.5999999999999</ele>
        <time>2003-04-18T15:50:56Z</time>
      </trkpt>
      <trkpt lat="32.54014695994556" lon="-4.331850036978722">
        <ele>1979.8</ele>
        <time>2003-04-18T15:50:57Z</time>
      </trkpt>
      <trkpt lat="32.5401880312711" lon="-4.331554993987083">
        <ele>1981.2</ele>
        <time>2003-04-18T15:51:03Z</time>
      </trkpt>
      <trkpt lat="32.540179984644055" lon="-4.331304961815476">
        <ele>1982</ele>
        <time>2003-04-18T15:51:08Z</time>
      </trkpt>
      <trkpt lat="32.540191970765591" lon="-4.331046966835856">
        <ele>1986.5</ele>
        <time>2003-04-18T15:55:46Z</time>
      </trkpt>
      <trkpt lat="32.540151989087462" lon="-4.330938002094626">
        <ele>1986.8</ele>
        <time>2003-04-18T15:55:48Z</time>
      </trkpt>
      <trkpt lat="32.540073031559587" lon="-4.330723006278276">
        <ele>1988.5999999999999</ele>
        <time>2003-04-18T15:55:52Z</time>
      </trkpt>
      <trkpt lat="32.540092980489135" lon="-4.330572970211506">
        <ele>1989.5999999999999</ele>
        <time>2003-04-18T15:55:57Z</time>
      </trkpt>
      <trkpt lat="32.540132040157914" lon="-4.330457970499992">
        <ele>1990</ele>
        <time>2003-04-18T15:55:58Z</time>
      </trkpt>
      <trkpt lat="32.540206974372268" lon="-4.330259989947081">
        <ele>1991.7</ele>
        <time>2003-04-18T15:56:02Z</time>
      </trkpt>
      <trkpt lat="32.540251985192299" lon="-4.330137027427554">
        <ele>1992.2</ele>
        <time>2003-04-18T15:56:05Z</time>
      </trkpt>
      <trkpt lat="32.540262965485454" lon="-4.330008029937744">
        <ele>1994.5999999999999</ele>
        <time>2003-04-18T15:56:06Z</time>
      </trkpt>
      <trkpt lat="32.540234969928861" lon="-4.329596981406212">
        <ele>1996.9000000000001</ele>
        <time>2003-04-18T15:56:13Z</time>
      </trkpt>
      <trkpt lat="32.540191970765591" lon="-4.329188028350473">
        <ele>1999.7</ele>
        <time>2003-04-18T15:56:19Z</time>
      </trkpt>
      <trkpt lat="32.540219966322184" lon="-4.328523008152843">
        <ele>2003.5999999999999</ele>
        <time>2003-04-18T15:56:28Z</time>
      </trkpt>
      <trkpt lat="32.540267994627357" lon="-4.328227965161204">
        <ele>2004</ele>
        <time>2003-04-18T15:56:32Z</time>
      </trkpt>
      <trkpt lat="32.540281992405653" lon="-4.328114977106452">
        <ele>2004.0999999999999</ele>
        <time>2003-04-18T15:56:40Z</time>
      </trkpt>
      <trkpt lat="32.540372014045715" lon="-4.327854970470071">
        <ele>2011.0999999999999</ele>
        <time>2003-04-18T16:00:24Z</time>
      </trkpt>
      <trkpt lat="32.540372014045715" lon="-4.327654978260398">
        <ele>2011.5</ele>
        <time>2003-04-18T16:00:28Z</time>
      </trkpt>
      <trkpt lat="32.540405038744211" lon="-4.327339986339212">
        <ele>2012.2</ele>
        <time>2003-04-18T16:00:34Z</time>
      </trkpt>
      <trkpt lat="32.540418030694127" lon="-4.327154997736216">
        <ele>2012.7</ele>
        <time>2003-04-18T16:00:35Z</time>
      </trkpt>
      <trkpt lat="32.540449965745211" lon="-4.326836988329887">
        <ele>2013.4000000000001</ele>
        <time>2003-04-18T16:00:39Z</time>
      </trkpt>
      <trkpt lat="32.54051199182868" lon="-4.326125029474497">
        <ele>2016.7</ele>
        <time>2003-04-18T16:00:46Z</time>
      </trkpt>
      <trkpt lat="32.540485002100468" lon="-4.325937023386359">
        <ele>2017.5999999999999</ele>
        <time>2003-04-18T16:00:47Z</time>
      </trkpt>
      <trkpt lat="32.540421970188618" lon="-4.325752034783363">
        <ele>2018.2</ele>
        <time>2003-04-18T16:00:50Z</time>
      </trkpt>
      <trkpt lat="32.540222983807325" lon="-4.325177958235145">
        <ele>2017.3</ele>
        <time>2003-04-18T16:00:55Z</time>
      </trkpt>
      <trkpt lat="32.540242010727525" lon="-4.324973020702601">
        <ele>2015.5999999999999</ele>
        <time>2003-04-18T16:00:58Z</time>
      </trkpt>
      <trkpt lat="32.540303030982614" lon="-4.324766993522644">
        <ele>2013.9000000000001</ele>
        <time>2003-04-18T16:00:59Z</time>
      </trkpt>
      <trkpt lat="32.540560020133853" lon="-4.324098033830524">
        <ele>2009.5999999999999</ele>
        <time>2003-04-18T16:01:06Z</time>
      </trkpt>
      <trkpt lat="32.540802005678415" lon="-4.323586989194155">
        <ele>2007.5999999999999</ele>
        <time>2003-04-18T16:01:13Z</time>
      </trkpt>
      <trkpt lat="32.540856990963221" lon="-4.323427984490991">
        <ele>2007.2</ele>
        <time>2003-04-18T16:01:16Z</time>
      </trkpt>
      <trkpt lat="32.540866965427995" lon="-4.323251964524388">
        <ele>2008.2</ele>
        <time>2003-04-18T16:01:17Z</time>
      </trkpt>
      <trkpt lat="32.540914993733168" lon="-4.322283016517758">
        <ele>2002.4000000000001</ele>
        <time>2003-04-18T16:01:28Z</time>
      </trkpt>
      <trkpt lat="32.540980037301779" lon="-4.321390008553863">
        <ele>1997.4000000000001</ele>
        <time>2003-04-18T16:01:37Z</time>
      </trkpt>
      <trkpt lat="32.540965033695102" lon="-4.321247013285756">
        <ele>1996.2</ele>
        <time>2003-04-18T16:01:39Z</time>
      </trkpt>
      <trkpt lat="32.540960004553199" lon="-4.321103012189269">
        <ele>1995.0999999999999</ele>
        <time>2003-04-18T16:01:41Z</time>
      </trkpt>
      <trkpt lat="32.540971990674734" lon="-4.320978038012981">
        <ele>1994</ele>
        <time>2003-04-18T16:01:45Z</time>
      </trkpt>
      <trkpt lat="32.541008032858372" lon="-4.320872006937861">
        <ele>1993.0999999999999</ele>
        <time>2003-04-18T16:01:48Z</time>
      </trkpt>
      <trkpt lat="32.541039967909455" lon="-4.320682995021343">
        <ele>1993.3</ele>
        <time>2003-04-18T16:01:52Z</time>
      </trkpt>
      <trkpt lat="32.541067041456699" lon="-4.320377977564931">
        <ele>1993.2</ele>
        <time>2003-04-18T16:01:56Z</time>
      </trkpt>
      <trkpt lat="32.541097970679402" lon="-4.320170022547245">
        <ele>1992.5</ele>
        <time>2003-04-18T16:01:59Z</time>
      </trkpt>
      <trkpt lat="32.541226968169212" lon="-4.31925798766315">
        <ele>1988.5999999999999</ele>
        <time>2003-04-18T16:02:08Z</time>
      </trkpt>
      <trkpt lat="32.541226968169212" lon="-4.318954981863499">
        <ele>1987.7</ele>
        <time>2003-04-18T16:02:12Z</time>
      </trkpt>
      <trkpt lat="32.541208025068045" lon="-4.318462964147329">
        <ele>1983.3</ele>
        <time>2003-04-18T16:02:20Z</time>
      </trkpt>
      <trkpt lat="32.541165025904775" lon="-4.318189965561032">
        <ele>1984.9000000000001</ele>
        <time>2003-04-18T16:02:27Z</time>
      </trkpt>
      <trkpt lat="32.541129989549518" lon="-4.318044958636165">
        <ele>1984</ele>
        <time>2003-04-18T16:02:31Z</time>
      </trkpt>
      <trkpt lat="32.541080033406615" lon="-4.317767014726996">
        <ele>1983.9000000000001</ele>
        <time>2003-04-18T16:02:38Z</time>
      </trkpt>
      <trkpt lat="32.541132001206279" lon="-4.317631982266903">
        <ele>1983.5</ele>
        <time>2003-04-18T16:02:42Z</time>
      </trkpt>
      <trkpt lat="32.541172988712788" lon="-4.317522011697292">
        <ele>1983.5</ele>
        <time>2003-04-18T16:02:43Z</time>
      </trkpt>
      <trkpt lat="32.541214982047677" lon="-4.317380022257567">
        <ele>1983.8</ele>
        <time>2003-04-18T16:02:46Z</time>
      </trkpt>
      <trkpt lat="32.541238032281399" lon="-4.317147005349398">
        <ele>1983.9000000000001</ele>
        <time>2003-04-18T16:02:49Z</time>
      </trkpt>
      <trkpt lat="32.541223028674722" lon="-4.316988000646234">
        <ele>1983.5</ele>
        <time>2003-04-18T16:02:50Z</time>
      </trkpt>
      <trkpt lat="32.541217999532819" lon="-4.316762024536729">
        <ele>1983.3</ele>
        <time>2003-04-18T16:02:54Z</time>
      </trkpt>
      <trkpt lat="32.541237026453018" lon="-4.316322980448604">
        <ele>1982</ele>
        <time>2003-04-18T16:02:58Z</time>
      </trkpt>
      <trkpt lat="32.541253035888076" lon="-4.315806990489364">
        <ele>1980</ele>
        <time>2003-04-18T16:03:04Z</time>
      </trkpt>
      <trkpt lat="32.541290000081062" lon="-4.315586965531111">
        <ele>1979.4000000000001</ele>
        <time>2003-04-18T16:03:05Z</time>
      </trkpt>
      <trkpt lat="32.541404999792576" lon="-4.314996963366866">
        <ele>1976.4000000000001</ele>
        <time>2003-04-18T16:03:12Z</time>
      </trkpt>
      <trkpt lat="32.541427966207266" lon="-4.314863020554185">
        <ele>1974.4000000000001</ele>
        <time>2003-04-18T16:03:13Z</time>
      </trkpt>
      <trkpt lat="32.541452022269368" lon="-4.314627991989255">
        <ele>1972.2</ele>
        <time>2003-04-18T16:03:17Z</time>
      </trkpt>
      <trkpt lat="32.541486974805593" lon="-4.314432023093104">
        <ele>1969.8</ele>
        <time>2003-04-18T16:03:21Z</time>
      </trkpt>
      <trkpt lat="32.541465014219284" lon="-4.314322974532843">
        <ele>1970.7</ele>
        <time>2003-04-18T16:03:24Z</time>
      </trkpt>
      <trkpt lat="32.541425032541156" lon="-4.314181990921497">
        <ele>1970.7</ele>
        <time>2003-04-18T16:03:25Z</time>
      </trkpt>
      <trkpt lat="32.541387984529138" lon="-4.313989961519837">
        <ele>1970.4000000000001</ele>
        <time>2003-04-18T16:03:28Z</time>
      </trkpt>
      <trkpt lat="32.541254963725805" lon="-4.313159985467792">
        <ele>1971.2</ele>
        <time>2003-04-18T16:03:36Z</time>
      </trkpt>
      <trkpt lat="32.541248006746173" lon="-4.312058016657829">
        <ele>1969.5</ele>
        <time>2003-04-18T16:03:48Z</time>
      </trkpt>
      <trkpt lat="32.541272984817624" lon="-4.311919966712594">
        <ele>1968.5</ele>
        <time>2003-04-18T16:03:51Z</time>
      </trkpt>
      <trkpt lat="32.541286982595921" lon="-4.311779988929629">
        <ele>1967.5999999999999</ele>
        <time>2003-04-18T16:03:54Z</time>
      </trkpt>
      <trkpt lat="32.541316989809275" lon="-4.311446975916624">
        <ele>1964.9000000000001</ele>
        <time>2003-04-18T16:03:59Z</time>
      </trkpt>
      <trkpt lat="32.541272984817624" lon="-4.31130800396204">
        <ele>1965.5</ele>
        <time>2003-04-18T16:04:02Z</time>
      </trkpt>
      <trkpt lat="32.541101993992925" lon="-4.310786984860897">
        <ele>1965</ele>
        <time>2003-04-18T16:04:08Z</time>
      </trkpt>
      <trkpt lat="32.541071986779571" lon="-4.310537958517671">
        <ele>1962.7</ele>
        <time>2003-04-18T16:04:11Z</time>
      </trkpt>
      <trkpt lat="32.541033010929823" lon="-4.310324974358082">
        <ele>1963.0999999999999</ele>
        <time>2003-04-18T16:04:15Z</time>
      </trkpt>
      <trkpt lat="32.540711984038353" lon="-4.309377986937761">
        <ele>1953.9000000000001</ele>
        <time>2003-04-18T16:04:30Z</time>
      </trkpt>
      <trkpt lat="32.540658004581928" lon="-4.309237003326416">
        <ele>1953.5</ele>
        <time>2003-04-18T16:04:31Z</time>
      </trkpt>
      <trkpt lat="32.540609976276755" lon="-4.309082021936774">
        <ele>1953.4000000000001</ele>
        <time>2003-04-18T16:04:33Z</time>
      </trkpt>
      <trkpt lat="32.540557002648711" lon="-4.308871971443296">
        <ele>1953.3</ele>
        <time>2003-04-18T16:04:35Z</time>
      </trkpt>
      <trkpt lat="32.540473015978932" lon="-4.308757977560163">
        <ele>1951.0999999999999</ele>
        <time>2003-04-18T16:04:38Z</time>
      </trkpt>
      <trkpt lat="32.540405038744211" lon="-4.308641972020268">
        <ele>1950.4000000000001</ele>
        <time>2003-04-18T16:04:39Z</time>
      </trkpt>
      <trkpt lat="32.540390035137534" lon="-4.308511968702078">
        <ele>1949.3</ele>
        <time>2003-04-18T16:04:42Z</time>
      </trkpt>
      <trkpt lat="32.540372014045715" lon="-4.308322034776211">
        <ele>1948.5</ele>
        <time>2003-04-18T16:04:45Z</time>
      </trkpt>
      <trkpt lat="32.540281992405653" lon="-4.308248022571206">
        <ele>1949.5999999999999</ele>
        <time>2003-04-18T16:04:46Z</time>
      </trkpt>
      <trkpt lat="32.540191970765591" lon="-4.308145008981228">
        <ele>1949.7</ele>
        <time>2003-04-18T16:04:49Z</time>
      </trkpt>
      <trkpt lat="32.540117958560586" lon="-4.308024980127811">
        <ele>1949.2</ele>
        <time>2003-04-18T16:04:52Z</time>
      </trkpt>
      <trkpt lat="32.539927018806338" lon="-4.307743012905121">
        <ele>1948.3</ele>
        <time>2003-04-18T16:04:56Z</time>
      </trkpt>
      <trkpt lat="32.539604986086488" lon="-4.307392984628677">
        <ele>1948.3</ele>
        <time>2003-04-18T16:05:04Z</time>
      </trkpt>
      <trkpt lat="32.539444975554943" lon="-4.307146975770593">
        <ele>1949.0999999999999</ele>
        <time>2003-04-18T16:05:08Z</time>
      </trkpt>
      <trkpt lat="32.539402982220054" lon="-4.306991994380951">
        <ele>1948.9000000000001</ele>
        <time>2003-04-18T16:05:09Z</time>
      </trkpt>
      <trkpt lat="32.539314972236753" lon="-4.306480027735233">
        <ele>1947</ele>
        <time>2003-04-18T16:05:16Z</time>
      </trkpt>
      <trkpt lat="32.539323018863797" lon="-4.306314988061786">
        <ele>1946.7</ele>
        <time>2003-04-18T16:05:19Z</time>
      </trkpt>
      <trkpt lat="32.539438018575311" lon="-4.305432960391045">
        <ele>1945.7</ele>
        <time>2003-04-18T16:05:28Z</time>
      </trkpt>
      <trkpt lat="32.53952200524509" lon="-4.304817980155349">
        <ele>1944.4000000000001</ele>
        <time>2003-04-18T16:05:35Z</time>
      </trkpt>
      <trkpt lat="32.539542960003018" lon="-4.304704992100596">
        <ele>1943.9000000000001</ele>
        <time>2003-04-18T16:05:36Z</time>
      </trkpt>
      <trkpt lat="32.539570033550262" lon="-4.304597033187747">
        <ele>1943</ele>
        <time>2003-04-18T16:05:40Z</time>
      </trkpt>
      <trkpt lat="32.539655026048422" lon="-4.304193025454879">
        <ele>1938.9000000000001</ele>
        <time>2003-04-18T16:05:48Z</time>
      </trkpt>
      <trkpt lat="32.539668017998338" lon="-4.304041983559728">
        <ele>1938.9000000000001</ele>
        <time>2003-04-18T16:05:51Z</time>
      </trkpt>
      <trkpt lat="32.539701964706182" lon="-4.303633030503988">
        <ele>1942.4000000000001</ele>
        <time>2003-04-18T16:05:55Z</time>
      </trkpt>
      <trkpt lat="32.539729960262775" lon="-4.303122991696">
        <ele>1942.3</ele>
        <time>2003-04-18T16:06:00Z</time>
      </trkpt>
      <trkpt lat="32.539774971082807" lon="-4.302802970632911">
        <ele>1942.2</ele>
        <time>2003-04-18T16:06:03Z</time>
      </trkpt>
      <trkpt lat="32.539831968024373" lon="-4.30249803699553">
        <ele>1940.8</ele>
        <time>2003-04-18T16:06:07Z</time>
      </trkpt>
      <trkpt lat="32.539792992174625" lon="-4.302295027300715">
        <ele>1940.4000000000001</ele>
        <time>2003-04-18T16:06:09Z</time>
      </trkpt>
      <trkpt lat="32.539692996069789" lon="-4.301924966275692">
        <ele>1939.5999999999999</ele>
        <time>2003-04-18T16:06:13Z</time>
      </trkpt>
      <trkpt lat="32.539657037705183" lon="-4.301462033763528">
        <ele>1935.5999999999999</ele>
        <time>2003-04-18T16:06:18Z</time>
      </trkpt>
      <trkpt lat="32.539591994136572" lon="-4.301275033503771">
        <ele>1935.7</ele>
        <time>2003-04-18T16:06:19Z</time>
      </trkpt>
      <trkpt lat="32.539455033838749" lon="-4.300913019105792">
        <ele>1934.9000000000001</ele>
        <time>2003-04-18T16:06:23Z</time>
      </trkpt>
      <trkpt lat="32.539425026625395" lon="-4.300734987482429">
        <ele>1934.4000000000001</ele>
        <time>2003-04-18T16:06:26Z</time>
      </trkpt>
      <trkpt lat="32.539392001926899" lon="-4.300212040543556">
        <ele>1932.5999999999999</ele>
        <time>2003-04-18T16:06:30Z</time>
      </trkpt>
      <trkpt lat="32.53945997916162" lon="-4.299588007852435">
        <ele>1931.5</ele>
        <time>2003-04-18T16:06:36Z</time>
      </trkpt>
      <trkpt lat="32.53958503715694" lon="-4.298883005976677">
        <ele>1934.5999999999999</ele>
        <time>2003-04-18T16:06:41Z</time>
      </trkpt>
      <trkpt lat="32.539798021316528" lon="-4.297810038551688">
        <ele>1928.4000000000001</ele>
        <time>2003-04-18T16:06:53Z</time>
      </trkpt>
      <trkpt lat="32.540052998811007" lon="-4.296694993972778">
        <ele>1930.0999999999999</ele>
        <time>2003-04-18T16:07:04Z</time>
      </trkpt>
      <trkpt lat="32.540117958560586" lon="-4.296316970139742">
        <ele>1930.0999999999999</ele>
        <time>2003-04-18T16:07:07Z</time>
      </trkpt>
      <trkpt lat="32.540177972987294" lon="-4.296080013737083">
        <ele>1931.7</ele>
        <time>2003-04-18T16:07:08Z</time>
      </trkpt>
      <trkpt lat="32.540262965485454" lon="-4.295869963243604">
        <ele>1931.8</ele>
        <time>2003-04-18T16:07:11Z</time>
      </trkpt>
      <trkpt lat="32.540349969640374" lon="-4.295707019045949">
        <ele>1932</ele>
        <time>2003-04-18T16:07:12Z</time>
      </trkpt>
      <trkpt lat="32.540409984067082" lon="-4.295547008514404">
        <ele>1930.5</ele>
        <time>2003-04-18T16:07:15Z</time>
      </trkpt>
      <trkpt lat="32.540536969900131" lon="-4.294975027441979">
        <ele>1925</ele>
        <time>2003-04-18T16:07:21Z</time>
      </trkpt>
      <trkpt lat="32.540557002648711" lon="-4.294730024412274">
        <ele>1922.4000000000001</ele>
        <time>2003-04-18T16:07:24Z</time>
      </trkpt>
      <trkpt lat="32.540581980720162" lon="-4.29457001388073">
        <ele>1921.0999999999999</ele>
        <time>2003-04-18T16:07:27Z</time>
      </trkpt>
      <trkpt lat="32.540605030953884" lon="-4.294257033616304">
        <ele>1918.3</ele>
        <time>2003-04-18T16:07:31Z</time>
      </trkpt>
      <trkpt lat="32.540648030117154" lon="-4.293798040598631">
        <ele>1918.0999999999999</ele>
        <time>2003-04-18T16:07:36Z</time>
      </trkpt>
      <trkpt lat="32.540730005130172" lon="-4.293312979862094">
        <ele>1916.5</ele>
        <time>2003-04-18T16:07:43Z</time>
      </trkpt>
      <trkpt lat="32.540782978758216" lon="-4.293122040107846">
        <ele>1914.2</ele>
        <time>2003-04-18T16:07:47Z</time>
      </trkpt>
      <trkpt lat="32.540788007900119" lon="-4.293009974062443">
        <ele>1914</ele>
        <time>2003-04-18T16:07:51Z</time>
      </trkpt>
      <trkpt lat="32.540752971544862" lon="-4.292857004329562">
        <ele>1914.7</ele>
        <time>2003-04-18T16:07:55Z</time>
      </trkpt>
      <trkpt lat="32.540784990414977" lon="-4.292752984911203">
        <ele>1912.4000000000001</ele>
        <time>2003-04-18T16:08:02Z</time>
      </trkpt>
      <trkpt lat="32.540881969034672" lon="-4.29270202293992">
        <ele>1911.0999999999999</ele>
        <time>2003-04-18T16:08:07Z</time>
      </trkpt>
      <trkpt lat="32.540972996503115" lon="-4.292528014630079">
        <ele>1913.8</ele>
        <time>2003-04-18T16:08:18Z</time>
      </trkpt>
      <trkpt lat="32.541042985394597" lon="-4.292432041838765">
        <ele>1914.8</ele>
        <time>2003-04-18T16:08:22Z</time>
      </trkpt>
      <trkpt lat="32.541142981499434" lon="-4.292197013273835">
        <ele>1917.5999999999999</ele>
        <time>2003-04-18T16:08:30Z</time>
      </trkpt>
      <trkpt lat="32.541178017854691" lon="-4.292098022997379">
        <ele>1918.9000000000001</ele>
        <time>2003-04-18T16:08:33Z</time>
      </trkpt>
      <trkpt lat="32.541201990097761" lon="-4.29197003133595">
        <ele>1920.2</ele>
        <time>2003-04-18T16:08:37Z</time>
      </trkpt>
      <trkpt lat="32.541237026453018" lon="-4.291784958913922">
        <ele>1922.7</ele>
        <time>2003-04-18T16:08:41Z</time>
      </trkpt>
      <trkpt lat="32.541284970939159" lon="-4.291554959490895">
        <ele>1926.3</ele>
        <time>2003-04-18T16:08:45Z</time>
      </trkpt>
      <trkpt lat="32.541314978152514" lon="-4.291401989758015">
        <ele>1929.4000000000001</ele>
        <time>2003-04-18T16:08:49Z</time>
      </trkpt>
      <trkpt lat="32.541335010901093" lon="-4.291287995874882">
        <ele>1930.2</ele>
        <time>2003-04-18T16:08:51Z</time>
      </trkpt>
      <trkpt lat="32.541383039206266" lon="-4.291099989786744">
        <ele>1930.8</ele>
        <time>2003-04-18T16:08:53Z</time>
      </trkpt>
      <trkpt lat="32.541492003947496" lon="-4.290824979543686">
        <ele>1929.4000000000001</ele>
        <time>2003-04-18T16:08:57Z</time>
      </trkpt>
      <trkpt lat="32.541595017537475" lon="-4.290517028421164">
        <ele>1927</ele>
        <time>2003-04-18T16:09:01Z</time>
      </trkpt>
      <trkpt lat="32.541619995608926" lon="-4.29025299847126">
        <ele>1928.9000000000001</ele>
        <time>2003-04-18T16:09:04Z</time>
      </trkpt>
      <trkpt lat="32.54162703640759" lon="-4.290047977119684">
        <ele>1929.4000000000001</ele>
        <time>2003-04-18T16:09:08Z</time>
      </trkpt>
      <trkpt lat="32.541702976450324" lon="-4.28915798664093">
        <ele>1930.3</ele>
        <time>2003-04-18T16:09:19Z</time>
      </trkpt>
      <trkpt lat="32.541840020567179" lon="-4.288279982283711">
        <ele>1929.4000000000001</ele>
        <time>2003-04-18T16:09:31Z</time>
      </trkpt>
      <trkpt lat="32.541872039437294" lon="-4.288089964538813">
        <ele>1932.0999999999999</ele>
        <time>2003-04-18T16:09:35Z</time>
      </trkpt>
      <trkpt lat="32.541961977258325" lon="-4.287647986784577">
        <ele>1931.9000000000001</ele>
        <time>2003-04-18T16:09:41Z</time>
      </trkpt>
      <trkpt lat="32.542207986116409" lon="-4.28655699826777">
        <ele>1933.8</ele>
        <time>2003-04-18T16:09:54Z</time>
      </trkpt>
      <trkpt lat="32.542275041341782" lon="-4.28642800077796">
        <ele>1933.8</ele>
        <time>2003-04-18T16:09:57Z</time>
      </trkpt>
      <trkpt lat="32.542362967506051" lon="-4.286247035488486">
        <ele>1931.9000000000001</ele>
        <time>2003-04-18T16:09:59Z</time>
      </trkpt>
      <trkpt lat="32.542387023568153" lon="-4.286124994978309">
        <ele>1932.4000000000001</ele>
        <time>2003-04-18T16:10:02Z</time>
      </trkpt>
      <trkpt lat="32.542432034388185" lon="-4.285928020253778">
        <ele>1935</ele>
        <time>2003-04-18T16:10:05Z</time>
      </trkpt>
      <trkpt lat="32.542494982481003" lon="-4.285806985571981">
        <ele>1936.7</ele>
        <time>2003-04-18T16:10:06Z</time>
      </trkpt>
      <trkpt lat="32.542566983029246" lon="-4.285646975040436">
        <ele>1936.8</ele>
        <time>2003-04-18T16:10:09Z</time>
      </trkpt>
      <trkpt lat="32.542591961100698" lon="-4.285465003922582">
        <ele>1936.4000000000001</ele>
        <time>2003-04-18T16:10:10Z</time>
      </trkpt>
      <trkpt lat="32.542712995782495" lon="-4.284522039815784">
        <ele>1940.8</ele>
        <time>2003-04-18T16:10:21Z</time>
      </trkpt>
      <trkpt lat="32.54278801381588" lon="-4.284362029284239">
        <ele>1942.3</ele>
        <time>2003-04-18T16:10:22Z</time>
      </trkpt>
      <trkpt lat="32.542965039610863" lon="-4.283922985196114">
        <ele>1944.4000000000001</ele>
        <time>2003-04-18T16:10:28Z</time>
      </trkpt>
      <trkpt lat="32.543078027665615" lon="-4.283645041286945">
        <ele>1946.0999999999999</ele>
        <time>2003-04-18T16:10:30Z</time>
      </trkpt>
      <trkpt lat="32.543395031243563" lon="-4.282965017482638">
        <ele>1948.7</ele>
        <time>2003-04-18T16:10:39Z</time>
      </trkpt>
      <trkpt lat="32.543423026800156" lon="-4.282786985859275">
        <ele>1949.0999999999999</ele>
        <time>2003-04-18T16:10:40Z</time>
      </trkpt>
      <trkpt lat="32.54358496516943" lon="-4.281676970422268">
        <ele>1960.4000000000001</ele>
        <time>2003-04-18T16:10:52Z</time>
      </trkpt>
      <trkpt lat="32.54362503066659" lon="-4.281472032889724">
        <ele>1961.2</ele>
        <time>2003-04-18T16:10:55Z</time>
      </trkpt>
      <trkpt lat="32.543859975412488" lon="-4.280465031042695">
        <ele>1965.3</ele>
        <time>2003-04-18T16:11:04Z</time>
      </trkpt>
      <trkpt lat="32.543917978182435" lon="-4.28032698109746">
        <ele>1964.5</ele>
        <time>2003-04-18T16:11:07Z</time>
      </trkpt>
      <trkpt lat="32.54409802146256" lon="-4.279869999736548">
        <ele>1961.9000000000001</ele>
        <time>2003-04-18T16:11:12Z</time>
      </trkpt>
      <trkpt lat="32.544127022847533" lon="-4.279655003920198">
        <ele>1963.2</ele>
        <time>2003-04-18T16:11:15Z</time>
      </trkpt>
      <trkpt lat="32.544204974547029" lon="-4.279187964275479">
        <ele>1967</ele>
        <time>2003-04-18T16:11:19Z</time>
      </trkpt>
      <trkpt lat="32.544242022559047" lon="-4.278983026742935">
        <ele>1965.7</ele>
        <time>2003-04-18T16:11:23Z</time>
      </trkpt>
      <trkpt lat="32.544283010065556" lon="-4.278637021780014">
        <ele>1964.5999999999999</ele>
        <time>2003-04-18T16:11:27Z</time>
      </trkpt>
      <trkpt lat="32.544304970651865" lon="-4.278482040390372">
        <ele>1966.8</ele>
        <time>2003-04-18T16:11:30Z</time>
      </trkpt>
      <trkpt lat="32.544457018375397" lon="-4.277558019384742">
        <ele>1969.7</ele>
        <time>2003-04-18T16:11:42Z</time>
      </trkpt>
      <trkpt lat="32.544494988396764" lon="-4.277417035773397">
        <ele>1971.3</ele>
        <time>2003-04-18T16:11:43Z</time>
      </trkpt>
      <trkpt lat="32.544598001986742" lon="-4.277285020798445">
        <ele>1972.5</ele>
        <time>2003-04-18T16:11:46Z</time>
      </trkpt>
      <trkpt lat="32.544711995869875" lon="-4.277136996388435">
        <ele>1974.5999999999999</ele>
        <time>2003-04-18T16:11:47Z</time>
      </trkpt>
      <trkpt lat="32.545011984184384" lon="-4.276740029454231">
        <ele>1978.5</ele>
        <time>2003-04-18T16:11:54Z</time>
      </trkpt>
      <trkpt lat="32.545093037188053" lon="-4.276612037792802">
        <ele>1978.5</ele>
        <time>2003-04-18T16:11:57Z</time>
      </trkpt>
      <trkpt lat="32.54510804079473" lon="-4.276487985625863">
        <ele>1978.5999999999999</ele>
        <time>2003-04-18T16:11:58Z</time>
      </trkpt>
      <trkpt lat="32.545137964189053" lon="-4.276377009227872">
        <ele>1979.5</ele>
        <time>2003-04-18T16:12:01Z</time>
      </trkpt>
      <trkpt lat="32.545188004150987" lon="-4.276257986202836">
        <ele>1981.3</ele>
        <time>2003-04-18T16:12:02Z</time>
      </trkpt>
      <trkpt lat="32.545278025791049" lon="-4.276033015921712">
        <ele>1982.0999999999999</ele>
        <time>2003-04-18T16:12:05Z</time>
      </trkpt>
      <trkpt lat="32.545441975817084" lon="-4.275575028732419">
        <ele>1982.0999999999999</ele>
        <time>2003-04-18T16:12:12Z</time>
      </trkpt>
      <trkpt lat="32.545529985800385" lon="-4.274992989376187">
        <ele>1985.2</ele>
        <time>2003-04-18T16:12:18Z</time>
      </trkpt>
      <trkpt lat="32.545592011883855" lon="-4.274702975526452">
        <ele>1987</ele>
        <time>2003-04-18T16:12:23Z</time>
      </trkpt>
      <trkpt lat="32.54568999633193" lon="-4.274268038570881">
        <ele>1986.7</ele>
        <time>2003-04-18T16:12:28Z</time>
      </trkpt>
      <trkpt lat="32.54568999633193" lon="-4.274102998897433">
        <ele>1985.4000000000001</ele>
        <time>2003-04-18T16:12:31Z</time>
      </trkpt>
      <trkpt lat="32.545697959139943" lon="-4.273664960637689">
        <ele>1989.7</ele>
        <time>2003-04-18T16:12:36Z</time>
      </trkpt>
      <trkpt lat="32.545769959688187" lon="-4.273267993703485">
        <ele>1992.3</ele>
        <time>2003-04-18T16:12:40Z</time>
      </trkpt>
      <trkpt lat="32.545876996591687" lon="-4.273017039522529">
        <ele>1993.9000000000001</ele>
        <time>2003-04-18T16:12:43Z</time>
      </trkpt>
      <trkpt lat="32.545932987704873" lon="-4.272894999012351">
        <ele>1994.2</ele>
        <time>2003-04-18T16:12:44Z</time>
      </trkpt>
      <trkpt lat="32.546012029051781" lon="-4.272672040387988">
        <ele>1993.3</ele>
        <time>2003-04-18T16:12:48Z</time>
      </trkpt>
      <trkpt lat="32.546012029051781" lon="-4.272538013756275">
        <ele>1993.7</ele>
        <time>2003-04-18T16:12:51Z</time>
      </trkpt>
      <trkpt lat="32.546049999073148" lon="-4.272371968254447">
        <ele>1994.0999999999999</ele>
        <time>2003-04-18T16:12:52Z</time>
      </trkpt>
      <trkpt lat="32.546071959659457" lon="-4.272193014621735">
        <ele>1993</ele>
        <time>2003-04-18T16:12:55Z</time>
      </trkpt>
      <trkpt lat="32.546128034591675" lon="-4.271541992202401">
        <ele>1996.0999999999999</ele>
        <time>2003-04-18T16:13:02Z</time>
      </trkpt>
      <trkpt lat="32.546040024608374" lon="-4.27083196118474">
        <ele>1999.9000000000001</ele>
        <time>2003-04-18T16:13:08Z</time>
      </trkpt>
      <trkpt lat="32.54607698880136" lon="-4.270652001723647">
        <ele>2000.0999999999999</ele>
        <time>2003-04-18T16:13:11Z</time>
      </trkpt>
      <trkpt lat="32.546186959370971" lon="-4.270347990095615">
        <ele>1998.7</ele>
        <time>2003-04-18T16:13:15Z</time>
      </trkpt>
      <trkpt lat="32.546338001266122" lon="-4.269911963492632">
        <ele>1995.3</ele>
        <time>2003-04-18T16:13:21Z</time>
      </trkpt>
      <trkpt lat="32.546587027609348" lon="-4.269167985767126">
        <ele>1989.0999999999999</ele>
        <time>2003-04-18T16:13:30Z</time>
      </trkpt>
      <trkpt lat="32.546675037592649" lon="-4.26887696608901">
        <ele>1990.3</ele>
        <time>2003-04-18T16:13:34Z</time>
      </trkpt>
      <trkpt lat="32.546937977895141" lon="-4.267854960635305">
        <ele>1983</ele>
        <time>2003-04-18T16:13:49Z</time>
      </trkpt>
      <trkpt lat="32.54697997123003" lon="-4.267620015889406">
        <ele>1983.3</ele>
        <time>2003-04-18T16:13:52Z</time>
      </trkpt>
      <trkpt lat="32.547011990100145" lon="-4.26741499453783">
        <ele>1983.5999999999999</ele>
        <time>2003-04-18T16:13:53Z</time>
      </trkpt>
      <trkpt lat="32.547102011740208" lon="-4.266962958499789">
        <ele>1983</ele>
        <time>2003-04-18T16:13:58Z</time>
      </trkpt>
      <trkpt lat="32.547154985368252" lon="-4.26681300625205">
        <ele>1982</ele>
        <time>2003-04-18T16:14:01Z</time>
      </trkpt>
      <trkpt lat="32.547256993129849" lon="-4.266594992950559">
        <ele>1979.5999999999999</ele>
        <time>2003-04-18T16:14:04Z</time>
      </trkpt>
      <trkpt lat="32.547311978414655" lon="-4.266419978812337">
        <ele>1979.2</ele>
        <time>2003-04-18T16:14:05Z</time>
      </trkpt>
      <trkpt lat="32.547378027811646" lon="-4.266016976907849">
        <ele>1979.0999999999999</ele>
        <time>2003-04-18T16:14:09Z</time>
      </trkpt>
      <trkpt lat="32.547452962026" lon="-4.2649229709059">
        <ele>1975.0999999999999</ele>
        <time>2003-04-18T16:14:20Z</time>
      </trkpt>
      <trkpt lat="32.547486992552876" lon="-4.264509994536638">
        <ele>1972.5999999999999</ele>
        <time>2003-04-18T16:14:25Z</time>
      </trkpt>
      <trkpt lat="32.547523034736514" lon="-4.264189973473549">
        <ele>1968.4000000000001</ele>
        <time>2003-04-18T16:14:29Z</time>
      </trkpt>
      <trkpt lat="32.547623030841351" lon="-4.26354699768126">
        <ele>1968.7</ele>
        <time>2003-04-18T16:14:36Z</time>
      </trkpt>
      <trkpt lat="32.547642979770899" lon="-4.263026984408498">
        <ele>1966.5</ele>
        <time>2003-04-18T16:14:43Z</time>
      </trkpt>
      <trkpt lat="32.547680027782917" lon="-4.262822968885303">
        <ele>1964.5999999999999</ele>
        <time>2003-04-18T16:14:46Z</time>
      </trkpt>
      <trkpt lat="32.547711962834001" lon="-4.262694977223873">
        <ele>1963.5999999999999</ele>
        <time>2003-04-18T16:14:47Z</time>
      </trkpt>
      <trkpt lat="32.547746999189258" lon="-4.262159960344434">
        <ele>1961.4000000000001</ele>
        <time>2003-04-18T16:14:55Z</time>
      </trkpt>
      <trkpt lat="32.547757979482412" lon="-4.262002967298031">
        <ele>1961.4000000000001</ele>
        <time>2003-04-18T16:14:56Z</time>
      </trkpt>
      <trkpt lat="32.547807013615966" lon="-4.261777997016907">
        <ele>1959.3</ele>
        <time>2003-04-18T16:14:59Z</time>
      </trkpt>
      <trkpt lat="32.547853030264378" lon="-4.261546991765499">
        <ele>1958.5999999999999</ele>
        <time>2003-04-18T16:15:03Z</time>
      </trkpt>
      <trkpt lat="32.548046987503767" lon="-4.260477963835001">
        <ele>1954.8</ele>
        <time>2003-04-18T16:15:17Z</time>
      </trkpt>
      <trkpt lat="32.548108007758856" lon="-4.260032968595624">
        <ele>1953.0999999999999</ele>
        <time>2003-04-18T16:15:23Z</time>
      </trkpt>
      <trkpt lat="32.548119993880391" lon="-4.259919980540872">
        <ele>1951.9000000000001</ele>
        <time>2003-04-18T16:15:29Z</time>
      </trkpt>
      <trkpt lat="32.548119993880391" lon="-4.259759970009327">
        <ele>1952.0999999999999</ele>
        <time>2003-04-18T16:15:32Z</time>
      </trkpt>
      <trkpt lat="32.548146983608603" lon="-4.259559977799654">
        <ele>1950.9000000000001</ele>
        <time>2003-04-18T16:15:34Z</time>
      </trkpt>
      <trkpt lat="32.548182019963861" lon="-4.25931497476995">
        <ele>1947.8</ele>
        <time>2003-04-18T16:15:37Z</time>
      </trkpt>
      <trkpt lat="32.548280004411936" lon="-4.258252987638116">
        <ele>1946.5999999999999</ele>
        <time>2003-04-18T16:15:49Z</time>
      </trkpt>
      <trkpt lat="32.548427022993565" lon="-4.257308011874557">
        <ele>1945.3</ele>
        <time>2003-04-18T16:15:59Z</time>
      </trkpt>
      <trkpt lat="32.548485025763512" lon="-4.257056973874569">
        <ele>1943.4000000000001</ele>
        <time>2003-04-18T16:16:04Z</time>
      </trkpt>
      <trkpt lat="32.548579992726445" lon="-4.25669495947659">
        <ele>1944.5999999999999</ele>
        <time>2003-04-18T16:16:08Z</time>
      </trkpt>
      <trkpt lat="32.548609999939799" lon="-4.256503013893962">
        <ele>1942.8</ele>
        <time>2003-04-18T16:16:09Z</time>
      </trkpt>
      <trkpt lat="32.548598013818264" lon="-4.256292963400483">
        <ele>1943.4000000000001</ele>
        <time>2003-04-18T16:16:12Z</time>
      </trkpt>
      <trkpt lat="32.548543028533459" lon="-4.255202980712056">
        <ele>1937.3</ele>
        <time>2003-04-18T16:16:24Z</time>
      </trkpt>
      <trkpt lat="32.548527019098401" lon="-4.254480041563511">
        <ele>1932.7</ele>
        <time>2003-04-18T16:16:31Z</time>
      </trkpt>
      <trkpt lat="32.54848200827837" lon="-4.253867994993925">
        <ele>1928.9000000000001</ele>
        <time>2003-04-18T16:16:39Z</time>
      </trkpt>
      <trkpt lat="32.548479996621609" lon="-4.25372701138258">
        <ele>1926.3</ele>
        <time>2003-04-18T16:16:42Z</time>
      </trkpt>
      <trkpt lat="32.548476979136467" lon="-4.253549985587597">
        <ele>1925.8</ele>
        <time>2003-04-18T16:16:43Z</time>
      </trkpt>
      <trkpt lat="32.548472033813596" lon="-4.253200041130185">
        <ele>1923.0999999999999</ele>
        <time>2003-04-18T16:16:47Z</time>
      </trkpt>
      <trkpt lat="32.548398021608591" lon="-4.252865016460419">
        <ele>1921.8</ele>
        <time>2003-04-18T16:16:53Z</time>
      </trkpt>
      <trkpt lat="32.548368014395237" lon="-4.252667035907507">
        <ele>1920.5999999999999</ele>
        <time>2003-04-18T16:16:55Z</time>
      </trkpt>
      <trkpt lat="32.548370026051998" lon="-4.252312984317541">
        <ele>1919.8</ele>
        <time>2003-04-18T16:17:01Z</time>
      </trkpt>
      <trkpt lat="32.548413025215268" lon="-4.252127995714545">
        <ele>1917.4000000000001</ele>
        <time>2003-04-18T16:17:02Z</time>
      </trkpt>
      <trkpt lat="32.548422999680042" lon="-4.251920040696859">
        <ele>1918.2</ele>
        <time>2003-04-18T16:17:05Z</time>
      </trkpt>
      <trkpt lat="32.548452001065016" lon="-4.251727005466819">
        <ele>1921</ele>
        <time>2003-04-18T16:17:06Z</time>
      </trkpt>
      <trkpt lat="32.548487959429622" lon="-4.251451995223761">
        <ele>1919.2</ele>
        <time>2003-04-18T16:17:10Z</time>
      </trkpt>
      <trkpt lat="32.548468010500073" lon="-4.25035203807056">
        <ele>1917.9000000000001</ele>
        <time>2003-04-18T16:17:21Z</time>
      </trkpt>
      <trkpt lat="32.548464993014932" lon="-4.249707972630858">
        <ele>1915.3</ele>
        <time>2003-04-18T16:17:28Z</time>
      </trkpt>
      <trkpt lat="32.548459963873029" lon="-4.24940999597311">
        <ele>1916.3</ele>
        <time>2003-04-18T16:17:30Z</time>
      </trkpt>
      <trkpt lat="32.548491982743144" lon="-4.249057034030557">
        <ele>1914.2</ele>
        <time>2003-04-18T16:17:34Z</time>
      </trkpt>
      <trkpt lat="32.54854504019022" lon="-4.248887971043587">
        <ele>1911.9000000000001</ele>
        <time>2003-04-18T16:17:37Z</time>
      </trkpt>
      <trkpt lat="32.54858803935349" lon="-4.248719997704029">
        <ele>1910.4000000000001</ele>
        <time>2003-04-18T16:17:38Z</time>
      </trkpt>
      <trkpt lat="32.548589967191219" lon="-4.248542971909046">
        <ele>1910.4000000000001</ele>
        <time>2003-04-18T16:17:41Z</time>
      </trkpt>
      <trkpt lat="32.548555014654994" lon="-4.248009966686368">
        <ele>1908.7</ele>
        <time>2003-04-18T16:17:47Z</time>
      </trkpt>
      <trkpt lat="32.548537999391556" lon="-4.247664967551827">
        <ele>1909.5999999999999</ele>
        <time>2003-04-18T16:17:51Z</time>
      </trkpt>
      <trkpt lat="32.548521989956498" lon="-4.247243022546172">
        <ele>1907.3</ele>
        <time>2003-04-18T16:17:56Z</time>
      </trkpt>
      <trkpt lat="32.548512015491724" lon="-4.247044958174229">
        <ele>1905.5999999999999</ele>
        <time>2003-04-18T16:18:00Z</time>
      </trkpt>
      <trkpt lat="32.548479996621609" lon="-4.246828034520149">
        <ele>1904.8</ele>
        <time>2003-04-18T16:18:03Z</time>
      </trkpt>
      <trkpt lat="32.548438003286719" lon="-4.246510025113821">
        <ele>1901.9000000000001</ele>
        <time>2003-04-18T16:18:07Z</time>
      </trkpt>
      <trkpt lat="32.548338007181883" lon="-4.245402021333575">
        <ele>1898.4000000000001</ele>
        <time>2003-04-18T16:18:20Z</time>
      </trkpt>
      <trkpt lat="32.548325015231967" lon="-4.245128016918898">
        <ele>1897</ele>
        <time>2003-04-18T16:18:24Z</time>
      </trkpt>
      <trkpt lat="32.548447977751493" lon="-4.244022024795413">
        <ele>1892</ele>
        <time>2003-04-18T16:18:39Z</time>
      </trkpt>
      <trkpt lat="32.548498017713428" lon="-4.243805017322302">
        <ele>1892.3</ele>
        <time>2003-04-18T16:18:43Z</time>
      </trkpt>
      <trkpt lat="32.548540011048317" lon="-4.243575017899275">
        <ele>1890.9000000000001</ele>
        <time>2003-04-18T16:18:46Z</time>
      </trkpt>
      <trkpt lat="32.548517966642976" lon="-4.243420036509633">
        <ele>1891.9000000000001</ele>
        <time>2003-04-18T16:18:47Z</time>
      </trkpt>
      <trkpt lat="32.548444960266352" lon="-4.242977974936366">
        <ele>1888.2</ele>
        <time>2003-04-18T16:18:54Z</time>
      </trkpt>
      <trkpt lat="32.548412019386888" lon="-4.242745041847229">
        <ele>1887.8</ele>
        <time>2003-04-18T16:18:57Z</time>
      </trkpt>
      <trkpt lat="32.548387041315436" lon="-4.242604980245233">
        <ele>1888.2</ele>
        <time>2003-04-18T16:18:58Z</time>
      </trkpt>
      <trkpt lat="32.548334989696741" lon="-4.242068035528064">
        <ele>1885.8</ele>
        <time>2003-04-18T16:19:06Z</time>
      </trkpt>
      <trkpt lat="32.548316968604922" lon="-4.241647012531757">
        <ele>1883.9000000000001</ele>
        <time>2003-04-18T16:19:10Z</time>
      </trkpt>
      <trkpt lat="32.548227030783892" lon="-4.241032032296062">
        <ele>1878.7</ele>
        <time>2003-04-18T16:19:18Z</time>
      </trkpt>
      <trkpt lat="32.548206998035312" lon="-4.240892976522446">
        <ele>1877.9000000000001</ele>
        <time>2003-04-18T16:19:21Z</time>
      </trkpt>
      <trkpt lat="32.548182019963861" lon="-4.240773031488061">
        <ele>1877.0999999999999</ele>
        <time>2003-04-18T16:19:24Z</time>
      </trkpt>
      <trkpt lat="32.548113036900759" lon="-4.240434989333153">
        <ele>1872.3</ele>
        <time>2003-04-18T16:19:33Z</time>
      </trkpt>
      <trkpt lat="32.548110019415617" lon="-4.240289982408285">
        <ele>1873.9000000000001</ele>
        <time>2003-04-18T16:19:36Z</time>
      </trkpt>
      <trkpt lat="32.548076994717121" lon="-4.240180011838675">
        <ele>1874.4000000000001</ele>
        <time>2003-04-18T16:19:37Z</time>
      </trkpt>
      <trkpt lat="32.548012034967542" lon="-4.240017989650369">
        <ele>1875.4000000000001</ele>
        <time>2003-04-18T16:19:40Z</time>
      </trkpt>
      <trkpt lat="32.548004994168878" lon="-4.239795031026006">
        <ele>1875.7</ele>
        <time>2003-04-18T16:19:44Z</time>
      </trkpt>
      <trkpt lat="32.548002982512116" lon="-4.239622028544545">
        <ele>1875.9000000000001</ele>
        <time>2003-04-18T16:19:45Z</time>
      </trkpt>
      <trkpt lat="32.548017986118793" lon="-4.239435028284788">
        <ele>1875.9000000000001</ele>
        <time>2003-04-18T16:19:48Z</time>
      </trkpt>
      <trkpt lat="32.548255026340485" lon="-4.238306991755962">
        <ele>1875</ele>
        <time>2003-04-18T16:19:59Z</time>
      </trkpt>
      <trkpt lat="32.548272963613272" lon="-4.238029969856143">
        <ele>1875.0999999999999</ele>
        <time>2003-04-18T16:20:02Z</time>
      </trkpt>
      <trkpt lat="32.54824697971344" lon="-4.237863002344966">
        <ele>1873.8</ele>
        <time>2003-04-18T16:20:04Z</time>
      </trkpt>
      <trkpt lat="32.548176990821958" lon="-4.237460000440478">
        <ele>1871.3</ele>
        <time>2003-04-18T16:20:08Z</time>
      </trkpt>
      <trkpt lat="32.54792301915586" lon="-4.236498009413481">
        <ele>1863.4000000000001</ele>
        <time>2003-04-18T16:20:19Z</time>
      </trkpt>
      <trkpt lat="32.547953026369214" lon="-4.236287036910653">
        <ele>1864.2</ele>
        <time>2003-04-18T16:20:22Z</time>
      </trkpt>
      <trkpt lat="32.548032989725471" lon="-4.235726958140731">
        <ele>1866.4000000000001</ele>
        <time>2003-04-18T16:20:27Z</time>
      </trkpt>
      <trkpt lat="32.548007005825639" lon="-4.235569965094328">
        <ele>1864.0999999999999</ele>
        <time>2003-04-18T16:20:30Z</time>
      </trkpt>
      <trkpt lat="32.548038018867373" lon="-4.235426969826222">
        <ele>1864.4000000000001</ele>
        <time>2003-04-18T16:20:31Z</time>
      </trkpt>
      <trkpt lat="32.548062996938825" lon="-4.235263019800186">
        <ele>1865.3</ele>
        <time>2003-04-18T16:20:34Z</time>
      </trkpt>
      <trkpt lat="32.548065008595586" lon="-4.23512002453208">
        <ele>1864.8</ele>
        <time>2003-04-18T16:20:35Z</time>
      </trkpt>
      <trkpt lat="32.548019997775555" lon="-4.235026985406876">
        <ele>1862.3</ele>
        <time>2003-04-18T16:20:38Z</time>
      </trkpt>
      <trkpt lat="32.547974986955523" lon="-4.234909974038601">
        <ele>1862.0999999999999</ele>
        <time>2003-04-18T16:20:39Z</time>
      </trkpt>
      <trkpt lat="32.547947997227311" lon="-4.234743006527424">
        <ele>1862.9000000000001</ele>
        <time>2003-04-18T16:20:42Z</time>
      </trkpt>
      <trkpt lat="32.547904998064041" lon="-4.234562963247299">
        <ele>1864.5999999999999</ele>
        <time>2003-04-18T16:20:43Z</time>
      </trkpt>
      <trkpt lat="32.547872979193926" lon="-4.234407981857657">
        <ele>1863.9000000000001</ele>
        <time>2003-04-18T16:20:46Z</time>
      </trkpt>
      <trkpt lat="32.547842971980572" lon="-4.233612036332488">
        <ele>1861</ele>
        <time>2003-04-18T16:20:54Z</time>
      </trkpt>
      <trkpt lat="32.54783702082932" lon="-4.233474992215633">
        <ele>1861.5</ele>
        <time>2003-04-18T16:20:57Z</time>
      </trkpt>
      <trkpt lat="32.547808019444346" lon="-4.233327973634005">
        <ele>1857.9000000000001</ele>
        <time>2003-04-18T16:20:58Z</time>
      </trkpt>
      <trkpt lat="32.547805001959205" lon="-4.233212973922491">
        <ele>1858.8</ele>
        <time>2003-04-18T16:21:01Z</time>
      </trkpt>
      <trkpt lat="32.547805001959205" lon="-4.233050029724836">
        <ele>1859.8</ele>
        <time>2003-04-18T16:21:02Z</time>
      </trkpt>
      <trkpt lat="32.547772983089089" lon="-4.23288700170815">
        <ele>1862.2</ele>
        <time>2003-04-18T16:21:05Z</time>
      </trkpt>
      <trkpt lat="32.547756973654032" lon="-4.232703018933535">
        <ele>1862.2</ele>
        <time>2003-04-18T16:21:06Z</time>
      </trkpt>
      <trkpt lat="32.54768799059093" lon="-4.232192980125547">
        <ele>1862</ele>
        <time>2003-04-18T16:21:12Z</time>
      </trkpt>
      <trkpt lat="32.547614984214306" lon="-4.231372978538275">
        <ele>1870.5</ele>
        <time>2003-04-18T16:21:20Z</time>
      </trkpt>
      <trkpt lat="32.547550024464726" lon="-4.231241969391704">
        <ele>1871.9000000000001</ele>
        <time>2003-04-18T16:21:21Z</time>
      </trkpt>
      <trkpt lat="32.547423038631678" lon="-4.230960002169013">
        <ele>1869.4000000000001</ele>
        <time>2003-04-18T16:21:25Z</time>
      </trkpt>
      <trkpt lat="32.547423038631678" lon="-4.230807032436132">
        <ele>1868.0999999999999</ele>
        <time>2003-04-18T16:21:28Z</time>
      </trkpt>
      <trkpt lat="32.547475006431341" lon="-4.230671999976039">
        <ele>1867.5999999999999</ele>
        <time>2003-04-18T16:21:29Z</time>
      </trkpt>
      <trkpt lat="32.547633005306125" lon="-4.2304150108248">
        <ele>1865.9000000000001</ele>
        <time>2003-04-18T16:21:33Z</time>
      </trkpt>
      <trkpt lat="32.548050004988909" lon="-4.229807993397117">
        <ele>1858.0999999999999</ele>
        <time>2003-04-18T16:21:44Z</time>
      </trkpt>
      <trkpt lat="32.548129968345165" lon="-4.229672960937023">
        <ele>1856.5999999999999</ele>
        <time>2003-04-18T16:21:45Z</time>
      </trkpt>
      <trkpt lat="32.548228036612272" lon="-4.22957799397409">
        <ele>1856.4000000000001</ele>
        <time>2003-04-18T16:21:48Z</time>
      </trkpt>
      <trkpt lat="32.548359967768192" lon="-4.22938697040081">
        <ele>1856.3</ele>
        <time>2003-04-18T16:21:51Z</time>
      </trkpt>
      <trkpt lat="32.548527019098401" lon="-4.229146996513009">
        <ele>1853.7</ele>
        <time>2003-04-18T16:21:55Z</time>
      </trkpt>
      <trkpt lat="32.54863497801125" lon="-4.229065021499991">
        <ele>1852.4000000000001</ele>
        <time>2003-04-18T16:21:56Z</time>
      </trkpt>
      <trkpt lat="32.549181981012225" lon="-4.228671994060278">
        <ele>1847.7</ele>
        <time>2003-04-18T16:22:07Z</time>
      </trkpt>
      <trkpt lat="32.549288012087345" lon="-4.228578032925725">
        <ele>1847.2</ele>
        <time>2003-04-18T16:22:11Z</time>
      </trkpt>
      <trkpt lat="32.549593029543757" lon="-4.228317020460963">
        <ele>1844.5</ele>
        <time>2003-04-18T16:22:19Z</time>
      </trkpt>
      <trkpt lat="32.549671987071633" lon="-4.228197997435927">
        <ele>1842.9000000000001</ele>
        <time>2003-04-18T16:22:22Z</time>
      </trkpt>
      <trkpt lat="32.549741975963116" lon="-4.228115016594529">
        <ele>1841.3</ele>
        <time>2003-04-18T16:22:26Z</time>
      </trkpt>
      <trkpt lat="32.549825040623546" lon="-4.22800999134779">
        <ele>1842</ele>
        <time>2003-04-18T16:22:29Z</time>
      </trkpt>
      <trkpt lat="32.549907015636563" lon="-4.227897003293037">
        <ele>1840.2</ele>
        <time>2003-04-18T16:22:31Z</time>
      </trkpt>
      <trkpt lat="32.550014974549413" lon="-4.227787032723427">
        <ele>1840.7</ele>
        <time>2003-04-18T16:22:35Z</time>
      </trkpt>
      <trkpt lat="32.550078006461263" lon="-4.22768703661859">
        <ele>1838.9000000000001</ele>
        <time>2003-04-18T16:22:38Z</time>
      </trkpt>
      <trkpt lat="32.550112958997488" lon="-4.227587962523103">
        <ele>1837</ele>
        <time>2003-04-18T16:22:42Z</time>
      </trkpt>
      <trkpt lat="32.550229970365763" lon="-4.227527026087046">
        <ele>1838.0999999999999</ele>
        <time>2003-04-18T16:22:45Z</time>
      </trkpt>
      <trkpt lat="32.55041697062552" lon="-4.227470029145479">
        <ele>1835.8</ele>
        <time>2003-04-18T16:22:49Z</time>
      </trkpt>
      <trkpt lat="32.550517972558737" lon="-4.227427029982209">
        <ele>1832.7</ele>
        <time>2003-04-18T16:22:54Z</time>
      </trkpt>
      <trkpt lat="32.550625009462237" lon="-4.227370033040643">
        <ele>1832.2</ele>
        <time>2003-04-18T16:22:58Z</time>
      </trkpt>
      <trkpt lat="32.550704972818494" lon="-4.227316975593567">
        <ele>1830.9000000000001</ele>
        <time>2003-04-18T16:23:01Z</time>
      </trkpt>
      <trkpt lat="32.550785019993782" lon="-4.227231983095408">
        <ele>1830.5999999999999</ele>
        <time>2003-04-18T16:23:05Z</time>
      </trkpt>
      <trkpt lat="32.550842016935349" lon="-4.227104997262359">
        <ele>1831.3</ele>
        <time>2003-04-18T16:23:08Z</time>
      </trkpt>
      <trkpt lat="32.55090999417007" lon="-4.226953033357859">
        <ele>1830.4000000000001</ele>
        <time>2003-04-18T16:23:11Z</time>
      </trkpt>
      <trkpt lat="32.551067993044853" lon="-4.226678023114801">
        <ele>1829.5</ele>
        <time>2003-04-18T16:23:16Z</time>
      </trkpt>
      <trkpt lat="32.551492033526301" lon="-4.22605499625206">
        <ele>1827.3</ele>
        <time>2003-04-18T16:23:27Z</time>
      </trkpt>
      <trkpt lat="32.551527991890907" lon="-4.225894985720515">
        <ele>1826.0999999999999</ele>
        <time>2003-04-18T16:23:28Z</time>
      </trkpt>
      <trkpt lat="32.551547018811107" lon="-4.225707985460758">
        <ele>1824.2</ele>
        <time>2003-04-18T16:23:32Z</time>
      </trkpt>
      <trkpt lat="32.551573002710938" lon="-4.225579993799329">
        <ele>1822.5999999999999</ele>
        <time>2003-04-18T16:23:35Z</time>
      </trkpt>
      <trkpt lat="32.551587000489235" lon="-4.225442027673125">
        <ele>1820.9000000000001</ele>
        <time>2003-04-18T16:23:39Z</time>
      </trkpt>
      <trkpt lat="32.551588006317616" lon="-4.225201969966292">
        <ele>1818.3</ele>
        <time>2003-04-18T16:23:43Z</time>
      </trkpt>
      <trkpt lat="32.551612984389067" lon="-4.225074984133244">
        <ele>1819.5999999999999</ele>
        <time>2003-04-18T16:23:46Z</time>
      </trkpt>
      <trkpt lat="32.551632011309266" lon="-4.224832998588681">
        <ele>1820.8</ele>
        <time>2003-04-18T16:23:48Z</time>
      </trkpt>
      <trkpt lat="32.551697976887226" lon="-4.224452963098884">
        <ele>1823.5999999999999</ele>
        <time>2003-04-18T16:23:52Z</time>
      </trkpt>
      <trkpt lat="32.551805013790727" lon="-4.223903026431799">
        <ele>1821.2</ele>
        <time>2003-04-18T16:23:59Z</time>
      </trkpt>
      <trkpt lat="32.551807025447488" lon="-4.223574958741665">
        <ele>1821.0999999999999</ele>
        <time>2003-04-18T16:24:02Z</time>
      </trkpt>
      <trkpt lat="32.551787998527288" lon="-4.223295003175736">
        <ele>1825.9000000000001</ele>
        <time>2003-04-18T16:24:05Z</time>
      </trkpt>
      <trkpt lat="32.551820017397404" lon="-4.223010018467903">
        <ele>1825.3</ele>
        <time>2003-04-18T16:24:07Z</time>
      </trkpt>
      <trkpt lat="32.551968041807413" lon="-4.222109969705343">
        <ele>1820.5999999999999</ele>
        <time>2003-04-18T16:24:18Z</time>
      </trkpt>
      <trkpt lat="32.551947003230453" lon="-4.221632033586502">
        <ele>1818.5</ele>
        <time>2003-04-18T16:24:22Z</time>
      </trkpt>
      <trkpt lat="32.551911966875196" lon="-4.221355011686683">
        <ele>1818.0999999999999</ele>
        <time>2003-04-18T16:24:26Z</time>
      </trkpt>
      <trkpt lat="32.551935017108917" lon="-4.221187960356474">
        <ele>1816.7</ele>
        <time>2003-04-18T16:24:27Z</time>
      </trkpt>
      <trkpt lat="32.551980027928948" lon="-4.221038008108735">
        <ele>1815.9000000000001</ele>
        <time>2003-04-18T16:24:30Z</time>
      </trkpt>
      <trkpt lat="32.552065020427108" lon="-4.220816977322102">
        <ele>1813.9000000000001</ele>
        <time>2003-04-18T16:24:33Z</time>
      </trkpt>
      <trkpt lat="32.55217700265348" lon="-4.220571974292398">
        <ele>1811.2</ele>
        <time>2003-04-18T16:24:37Z</time>
      </trkpt>
      <trkpt lat="32.552229976281524" lon="-4.220378017053008">
        <ele>1809</ele>
        <time>2003-04-18T16:24:41Z</time>
      </trkpt>
      <trkpt lat="32.552231987938285" lon="-4.220239967107773">
        <ele>1807.9000000000001</ele>
        <time>2003-04-18T16:24:42Z</time>
      </trkpt>
      <trkpt lat="32.552247997373343" lon="-4.220072999596596">
        <ele>1808</ele>
        <time>2003-04-18T16:24:45Z</time>
      </trkpt>
      <trkpt lat="32.552226958796382" lon="-4.219897985458374">
        <ele>1808.4000000000001</ele>
        <time>2003-04-18T16:24:46Z</time>
      </trkpt>
      <trkpt lat="32.552222013473511" lon="-4.219706961885095">
        <ele>1808.5</ele>
        <time>2003-04-18T16:24:49Z</time>
      </trkpt>
      <trkpt lat="32.55222000181675" lon="-4.219542006030679">
        <ele>1808.3</ele>
        <time>2003-04-18T16:24:53Z</time>
      </trkpt>
      <trkpt lat="32.552259983494878" lon="-4.219445027410984">
        <ele>1808.3</ele>
        <time>2003-04-18T16:24:54Z</time>
      </trkpt>
      <trkpt lat="32.552347993478179" lon="-4.219245035201311">
        <ele>1807.2</ele>
        <time>2003-04-18T16:25:00Z</time>
      </trkpt>
      <trkpt lat="32.55245503038168" lon="-4.219170017167926">
        <ele>1806.4000000000001</ele>
        <time>2003-04-18T16:25:03Z</time>
      </trkpt>
      <trkpt lat="32.552547985687852" lon="-4.21913699246943">
        <ele>1805.8</ele>
        <time>2003-04-18T16:25:04Z</time>
      </trkpt>
      <trkpt lat="32.552672037854791" lon="-4.219121988862753">
        <ele>1805.4000000000001</ele>
        <time>2003-04-18T16:25:08Z</time>
      </trkpt>
      <trkpt lat="32.552747977897525" lon="-4.219064991921186">
        <ele>1805.0999999999999</ele>
        <time>2003-04-18T16:25:11Z</time>
      </trkpt>
      <trkpt lat="32.552762981504202" lon="-4.218938006088138">
        <ele>1805.5999999999999</ele>
        <time>2003-04-18T16:25:13Z</time>
      </trkpt>
      <trkpt lat="32.552761975675821" lon="-4.21881303191185">
        <ele>1805.8</ele>
        <time>2003-04-18T16:25:16Z</time>
      </trkpt>
      <trkpt lat="32.552768010646105" lon="-4.218531986698508">
        <ele>1803.3</ele>
        <time>2003-04-18T16:25:28Z</time>
      </trkpt>
      <trkpt lat="32.552795000374317" lon="-4.218392008915544">
        <ele>1803.3</ele>
        <time>2003-04-18T16:25:31Z</time>
      </trkpt>
      <trkpt lat="32.552776979282498" lon="-4.21827700920403">
        <ele>1804.0999999999999</ele>
        <time>2003-04-18T16:25:35Z</time>
      </trkpt>
      <trkpt lat="32.552770022302866" lon="-4.218141976743937">
        <ele>1805.5</ele>
        <time>2003-04-18T16:25:38Z</time>
      </trkpt>
      <trkpt lat="32.552744960412383" lon="-4.217866966500878">
        <ele>1808.4000000000001</ele>
        <time>2003-04-18T16:25:43Z</time>
      </trkpt>
      <trkpt lat="32.552744960412383" lon="-4.217443009838462">
        <ele>1810.0999999999999</ele>
        <time>2003-04-18T16:25:51Z</time>
      </trkpt>
      <trkpt lat="32.55271696485579" lon="-4.217282999306917">
        <ele>1811</ele>
        <time>2003-04-18T16:25:54Z</time>
      </trkpt>
      <trkpt lat="32.552642030641437" lon="-4.217145033180714">
        <ele>1810.5</ele>
        <time>2003-04-18T16:25:55Z</time>
      </trkpt>
      <trkpt lat="32.552422005683184" lon="-4.21679500490427">
        <ele>1808.3</ele>
        <time>2003-04-18T16:26:01Z</time>
      </trkpt>
      <trkpt lat="32.552341958507895" lon="-4.216538015753031">
        <ele>1808.3</ele>
        <time>2003-04-18T16:26:03Z</time>
      </trkpt>
      <trkpt lat="32.552140038460493" lon="-4.21572295948863">
        <ele>1804</ele>
        <time>2003-04-18T16:26:14Z</time>
      </trkpt>
      <trkpt lat="32.552093015983701" lon="-4.214662984013557">
        <ele>1798.8</ele>
        <time>2003-04-18T16:26:28Z</time>
      </trkpt>
      <trkpt lat="32.552125034853816" lon="-4.214537004008889">
        <ele>1798.0999999999999</ele>
        <time>2003-04-18T16:26:29Z</time>
      </trkpt>
      <trkpt lat="32.552168034017086" lon="-4.21432301402092">
        <ele>1795.7</ele>
        <time>2003-04-18T16:26:33Z</time>
      </trkpt>
      <trkpt lat="32.552183037623763" lon="-4.214210025966167">
        <ele>1794.4000000000001</ele>
        <time>2003-04-18T16:26:37Z</time>
      </trkpt>
      <trkpt lat="32.552189994603395" lon="-4.214062001556158">
        <ele>1793.3</ele>
        <time>2003-04-18T16:26:42Z</time>
      </trkpt>
      <trkpt lat="32.552212039008737" lon="-4.213938033208251">
        <ele>1792.5999999999999</ele>
        <time>2003-04-18T16:26:51Z</time>
      </trkpt>
      <trkpt lat="32.552223019301891" lon="-4.213793026283383">
        <ele>1793.3</ele>
        <time>2003-04-18T16:26:55Z</time>
      </trkpt>
      <trkpt lat="32.55224296823144" lon="-4.213607031852007">
        <ele>1792.9000000000001</ele>
        <time>2003-04-18T16:26:59Z</time>
      </trkpt>
      <trkpt lat="32.552180020138621" lon="-4.213482979685068">
        <ele>1792.3</ele>
        <time>2003-04-18T16:27:01Z</time>
      </trkpt>
      <trkpt lat="32.55206803791225" lon="-4.213318023830652">
        <ele>1791.0999999999999</ele>
        <time>2003-04-18T16:27:07Z</time>
      </trkpt>
      <trkpt lat="32.552033001556993" lon="-4.213182991370559">
        <ele>1789.5999999999999</ele>
        <time>2003-04-18T16:27:09Z</time>
      </trkpt>
      <trkpt lat="32.551972987130284" lon="-4.21303303912282">
        <ele>1789.0999999999999</ele>
        <time>2003-04-18T16:27:12Z</time>
      </trkpt>
      <trkpt lat="32.551865028217435" lon="-4.212787030264735">
        <ele>1790.5</ele>
        <time>2003-04-18T16:27:18Z</time>
      </trkpt>
      <trkpt lat="32.551862010732293" lon="-4.212658032774925">
        <ele>1789.8</ele>
        <time>2003-04-18T16:27:20Z</time>
      </trkpt>
      <trkpt lat="32.551933005452156" lon="-4.212527023628354">
        <ele>1788</ele>
        <time>2003-04-18T16:28:01Z</time>
      </trkpt>
      <trkpt lat="32.552016992121935" lon="-4.212423004209995">
        <ele>1786.5</ele>
        <time>2003-04-18T16:28:10Z</time>
      </trkpt>
      <trkpt lat="32.552116988226771" lon="-4.212271962314844">
        <ele>1783.2</ele>
        <time>2003-04-18T16:28:35Z</time>
      </trkpt>
      <trkpt lat="32.552216984331608" lon="-4.212256958708167">
        <ele>1784.0999999999999</ele>
        <time>2003-04-18T16:28:37Z</time>
      </trkpt>
      <trkpt lat="32.552429968491197" lon="-4.212242960929871">
        <ele>1784.2</ele>
        <time>2003-04-18T16:28:43Z</time>
      </trkpt>
      <trkpt lat="32.552634989842772" lon="-4.212283026427031">
        <ele>1784.0999999999999</ele>
        <time>2003-04-18T16:28:47Z</time>
      </trkpt>
      <trkpt lat="32.552958028391004" lon="-4.212362989783287">
        <ele>1782.8</ele>
        <time>2003-04-18T16:28:52Z</time>
      </trkpt>
      <trkpt lat="32.553277965635061" lon="-4.212346980348229">
        <ele>1782.5</ele>
        <time>2003-04-18T16:28:57Z</time>
      </trkpt>
      <trkpt lat="32.553387014195323" lon="-4.212308004498482">
        <ele>1782</ele>
        <time>2003-04-18T16:29:00Z</time>
      </trkpt>
      <trkpt lat="32.553466977551579" lon="-4.212238015606999">
        <ele>1781.9000000000001</ele>
        <time>2003-04-18T16:29:02Z</time>
      </trkpt>
      <trkpt lat="32.553509976714849" lon="-4.212140031158924">
        <ele>1781.3</ele>
        <time>2003-04-18T16:29:04Z</time>
      </trkpt>
      <trkpt lat="32.553506959229708" lon="-4.212016984820366">
        <ele>1779.2</ele>
        <time>2003-04-18T16:29:07Z</time>
      </trkpt>
      <trkpt lat="32.553496984764934" lon="-4.211901985108852">
        <ele>1778</ele>
        <time>2003-04-18T16:29:12Z</time>
      </trkpt>
      <trkpt lat="32.553494973108172" lon="-4.211569977924228">
        <ele>1782.3</ele>
        <time>2003-04-18T16:29:20Z</time>
      </trkpt>
      <trkpt lat="32.553503019735217" lon="-4.211305025964975">
        <ele>1782.3</ele>
        <time>2003-04-18T16:29:24Z</time>
      </trkpt>
      <trkpt lat="32.553532021120191" lon="-4.210882997140288">
        <ele>1782.2</ele>
        <time>2003-04-18T16:29:30Z</time>
      </trkpt>
      <trkpt lat="32.553520034998655" lon="-4.210719969123602">
        <ele>1781.7</ele>
        <time>2003-04-18T16:29:31Z</time>
      </trkpt>
      <trkpt lat="32.553517017513514" lon="-4.210532968863845">
        <ele>1781.5999999999999</ele>
        <time>2003-04-18T16:29:34Z</time>
      </trkpt>
      <trkpt lat="32.553533026948571" lon="-4.210113035514951">
        <ele>1780.5999999999999</ele>
        <time>2003-04-18T16:29:38Z</time>
      </trkpt>
      <trkpt lat="32.553536966443062" lon="-4.20972503721714">
        <ele>1780.0999999999999</ele>
        <time>2003-04-18T16:29:42Z</time>
      </trkpt>
      <trkpt lat="32.553541995584965" lon="-4.209381965920329">
        <ele>1780.5999999999999</ele>
        <time>2003-04-18T16:29:46Z</time>
      </trkpt>
      <trkpt lat="32.553594969213009" lon="-4.209260009229183">
        <ele>1780.2</ele>
        <time>2003-04-18T16:29:47Z</time>
      </trkpt>
      <trkpt lat="32.553666969761252" lon="-4.209169987589121">
        <ele>1779</ele>
        <time>2003-04-18T16:29:50Z</time>
      </trkpt>
      <trkpt lat="32.553884983062744" lon="-4.208905035629869">
        <ele>1774.4000000000001</ele>
        <time>2003-04-18T16:30:05Z</time>
      </trkpt>
      <trkpt lat="32.553981961682439" lon="-4.208849966526032">
        <ele>1773.9000000000001</ele>
        <time>2003-04-18T16:30:08Z</time>
      </trkpt>
      <trkpt lat="32.554062008857727" lon="-4.208791963756084">
        <ele>1773.3</ele>
        <time>2003-04-18T16:30:12Z</time>
      </trkpt>
      <trkpt lat="32.554168039932847" lon="-4.208664977923036">
        <ele>1772.5</ele>
        <time>2003-04-18T16:30:17Z</time>
      </trkpt>
      <trkpt lat="32.554226964712143" lon="-4.208573028445244">
        <ele>1771.5999999999999</ele>
        <time>2003-04-18T16:30:21Z</time>
      </trkpt>
      <trkpt lat="32.554316986352205" lon="-4.208379993215203">
        <ele>1770.3</ele>
        <time>2003-04-18T16:30:28Z</time>
      </trkpt>
      <trkpt lat="32.554377000778913" lon="-4.208191987127066">
        <ele>1770</ele>
        <time>2003-04-18T16:30:35Z</time>
      </trkpt>
      <trkpt lat="32.554444978013635" lon="-4.208047986030579">
        <ele>1769.0999999999999</ele>
        <time>2003-04-18T16:30:40Z</time>
      </trkpt>
      <trkpt lat="32.554556960240006" lon="-4.207602990791202">
        <ele>1768.7</ele>
        <time>2003-04-18T16:30:51Z</time>
      </trkpt>
      <trkpt lat="32.554638013243675" lon="-4.207531996071339">
        <ele>1767.9000000000001</ele>
        <time>2003-04-18T16:30:55Z</time>
      </trkpt>
      <trkpt lat="32.554738009348512" lon="-4.207487991079688">
        <ele>1767.3</ele>
        <time>2003-04-18T16:31:00Z</time>
      </trkpt>
      <trkpt lat="32.554821996018291" lon="-4.207378020510078">
        <ele>1767.2</ele>
        <time>2003-04-18T16:31:03Z</time>
      </trkpt>
      <trkpt lat="32.555062975734472" lon="-4.207069985568523">
        <ele>1766.4000000000001</ele>
        <time>2003-04-18T16:31:11Z</time>
      </trkpt>
      <trkpt lat="32.555152997374535" lon="-4.207011982798576">
        <ele>1765.5</ele>
        <time>2003-04-18T16:31:15Z</time>
      </trkpt>
      <trkpt lat="32.555255005136132" lon="-4.206935036927462">
        <ele>1764.5</ele>
        <time>2003-04-18T16:31:21Z</time>
      </trkpt>
      <trkpt lat="32.555313007906079" lon="-4.206848032772541">
        <ele>1763.9000000000001</ele>
        <time>2003-04-18T16:31:26Z</time>
      </trkpt>
      <trkpt lat="32.555347960442305" lon="-4.206748036667705">
        <ele>1765.4000000000001</ele>
        <time>2003-04-18T16:31:30Z</time>
      </trkpt>
      <trkpt lat="32.555432030931115" lon="-4.206562964245677">
        <ele>1766.2</ele>
        <time>2003-04-18T16:31:37Z</time>
      </trkpt>
      <trkpt lat="32.555496990680695" lon="-4.206442013382912">
        <ele>1764.3</ele>
        <time>2003-04-18T16:31:39Z</time>
      </trkpt>
      <trkpt lat="32.555506965145469" lon="-4.20633003115654">
        <ele>1764</ele>
        <time>2003-04-18T16:31:42Z</time>
      </trkpt>
      <trkpt lat="32.555494979023933" lon="-4.206217965111136">
        <ele>1763.8</ele>
        <time>2003-04-18T16:31:44Z</time>
      </trkpt>
      <trkpt lat="32.555462960153818" lon="-4.206112017855048">
        <ele>1763.5999999999999</ele>
        <time>2003-04-18T16:31:46Z</time>
      </trkpt>
      <trkpt lat="32.55544301122427" lon="-4.205974973738194">
        <ele>1763</ele>
        <time>2003-04-18T16:31:49Z</time>
      </trkpt>
      <trkpt lat="32.55548701621592" lon="-4.205872965976596">
        <ele>1762.2</ele>
        <time>2003-04-18T16:31:53Z</time>
      </trkpt>
      <trkpt lat="32.555542001500726" lon="-4.205786967650056">
        <ele>1760.7</ele>
        <time>2003-04-18T16:31:57Z</time>
      </trkpt>
      <trkpt lat="32.55557301454246" lon="-4.205657970160246">
        <ele>1760.5</ele>
        <time>2003-04-18T16:32:01Z</time>
      </trkpt>
      <trkpt lat="32.555630011484027" lon="-4.205541964620352">
        <ele>1760.3</ele>
        <time>2003-04-18T16:32:05Z</time>
      </trkpt>
      <trkpt lat="32.555709974840283" lon="-4.205467030405998">
        <ele>1760.3</ele>
        <time>2003-04-18T16:32:06Z</time>
      </trkpt>
      <trkpt lat="32.55591700784862" lon="-4.205295033752918">
        <ele>1759.8</ele>
        <time>2003-04-18T16:32:11Z</time>
      </trkpt>
      <trkpt lat="32.556020021438599" lon="-4.205181961879134">
        <ele>1759.5</ele>
        <time>2003-04-18T16:32:13Z</time>
      </trkpt>
      <trkpt lat="32.556096967309713" lon="-4.205057993531227">
        <ele>1759.5</ele>
        <time>2003-04-18T16:32:15Z</time>
      </trkpt>
      <trkpt lat="32.556139966472983" lon="-4.204945005476475">
        <ele>1759.3</ele>
        <time>2003-04-18T16:32:16Z</time>
      </trkpt>
      <trkpt lat="32.556171985343099" lon="-4.204807039350271">
        <ele>1760.3</ele>
        <time>2003-04-18T16:32:20Z</time>
      </trkpt>
      <trkpt lat="32.556184977293015" lon="-4.204690027981997">
        <ele>1760.8</ele>
        <time>2003-04-18T16:32:23Z</time>
      </trkpt>
      <trkpt lat="32.556223031133413" lon="-4.204518031328917">
        <ele>1761.4000000000001</ele>
        <time>2003-04-18T16:32:25Z</time>
      </trkpt>
      <trkpt lat="32.556254966184497" lon="-4.204332958906889">
        <ele>1760.4000000000001</ele>
        <time>2003-04-18T16:32:28Z</time>
      </trkpt>
      <trkpt lat="32.556262006983161" lon="-4.204147970303893">
        <ele>1760.0999999999999</ele>
        <time>2003-04-18T16:32:29Z</time>
      </trkpt>
      <trkpt lat="32.556269969791174" lon="-4.203570038080216">
        <ele>1759</ele>
        <time>2003-04-18T16:32:36Z</time>
      </trkpt>
      <trkpt lat="32.556371977552772" lon="-4.203114984557033">
        <ele>1758.0999999999999</ele>
        <time>2003-04-18T16:32:43Z</time>
      </trkpt>
      <trkpt lat="32.556402990594506" lon="-4.203009959310293">
        <ele>1756.8</ele>
        <time>2003-04-18T16:32:47Z</time>
      </trkpt>
      <trkpt lat="32.556472979485989" lon="-4.202926978468895">
        <ele>1755.7</ele>
        <time>2003-04-18T16:32:50Z</time>
      </trkpt>
      <trkpt lat="32.556601976975799" lon="-4.202760010957718">
        <ele>1754.9000000000001</ele>
        <time>2003-04-18T16:32:55Z</time>
      </trkpt>
      <trkpt lat="32.5566899869591" lon="-4.202697984874249">
        <ele>1754</ele>
        <time>2003-04-18T16:32:59Z</time>
      </trkpt>
      <trkpt lat="32.556802975013852" lon="-4.202681975439191">
        <ele>1754.5999999999999</ele>
        <time>2003-04-18T16:33:03Z</time>
      </trkpt>
      <trkpt lat="32.556977989152074" lon="-4.202707037329674">
        <ele>1753.7</ele>
        <time>2003-04-18T16:33:07Z</time>
      </trkpt>
      <trkpt lat="32.557087959721684" lon="-4.202712988480926">
        <ele>1753.2</ele>
        <time>2003-04-18T16:33:10Z</time>
      </trkpt>
      <trkpt lat="32.557204971089959" lon="-4.202692033722997">
        <ele>1754.5999999999999</ele>
        <time>2003-04-18T16:33:14Z</time>
      </trkpt>
      <trkpt lat="32.557303039357066" lon="-4.202622966840863">
        <ele>1756</ele>
        <time>2003-04-18T16:33:18Z</time>
      </trkpt>
      <trkpt lat="32.55733204074204" lon="-4.202521964907646">
        <ele>1755.7</ele>
        <time>2003-04-18T16:33:19Z</time>
      </trkpt>
      <trkpt lat="32.55735500715673" lon="-4.202381987124682">
        <ele>1754.8</ele>
        <time>2003-04-18T16:33:22Z</time>
      </trkpt>
      <trkpt lat="32.557403035461903" lon="-4.202204961329699">
        <ele>1752.7</ele>
        <time>2003-04-18T16:33:26Z</time>
      </trkpt>
      <trkpt lat="32.557447962462902" lon="-4.202057020738721">
        <ele>1752</ele>
        <time>2003-04-18T16:33:30Z</time>
      </trkpt>
      <trkpt lat="32.557494984939694" lon="-4.201885024085641">
        <ele>1750.7</ele>
        <time>2003-04-18T16:33:36Z</time>
      </trkpt>
      <trkpt lat="32.557530021294951" lon="-4.201758038252592">
        <ele>1753.0999999999999</ele>
        <time>2003-04-18T16:33:40Z</time>
      </trkpt>
      <trkpt lat="32.557557011023164" lon="-4.201621999964118">
        <ele>1753.9000000000001</ele>
        <time>2003-04-18T16:33:42Z</time>
      </trkpt>
      <trkpt lat="32.557618031278253" lon="-4.20149995945394">
        <ele>1754.0999999999999</ele>
        <time>2003-04-18T16:33:45Z</time>
      </trkpt>
      <trkpt lat="32.557706963270903" lon="-4.201422007754445">
        <ele>1753.8</ele>
        <time>2003-04-18T16:33:49Z</time>
      </trkpt>
      <trkpt lat="32.557843001559377" lon="-4.201350007206202">
        <ele>1752.5999999999999</ele>
        <time>2003-04-18T16:33:53Z</time>
      </trkpt>
      <trkpt lat="32.557932017371058" lon="-4.201302984729409">
        <ele>1751.5</ele>
        <time>2003-04-18T16:34:01Z</time>
      </trkpt>
      <trkpt lat="32.558117005974054" lon="-4.201120007783175">
        <ele>1767.0999999999999</ele>
        <time>2003-04-18T16:34:24Z</time>
      </trkpt>
      <trkpt lat="32.558135027065873" lon="-4.200963014736772">
        <ele>1750.3</ele>
        <time>2003-04-18T16:34:42Z</time>
      </trkpt>
      <trkpt lat="32.558186994865537" lon="-4.2008320055902">
        <ele>1750.2</ele>
        <time>2003-04-18T16:34:44Z</time>
      </trkpt>
      <trkpt lat="32.558218007907271" lon="-4.2007249686867">
        <ele>1749.5999999999999</ele>
        <time>2003-04-18T16:34:47Z</time>
      </trkpt>
      <trkpt lat="32.5582579895854" lon="-4.200605023652315">
        <ele>1749.4000000000001</ele>
        <time>2003-04-18T16:34:51Z</time>
      </trkpt>
      <trkpt lat="32.558254972100258" lon="-4.200496980920434">
        <ele>1749.3</ele>
        <time>2003-04-18T16:34:55Z</time>
      </trkpt>
      <trkpt lat="32.558262012898922" lon="-4.200373012572527">
        <ele>1749.5999999999999</ele>
        <time>2003-04-18T16:34:58Z</time>
      </trkpt>
      <trkpt lat="32.558277016505599" lon="-4.200245020911098">
        <ele>1749.5</ele>
        <time>2003-04-18T16:35:02Z</time>
      </trkpt>
      <trkpt lat="32.558353040367365" lon="-4.200172014534473">
        <ele>1749.0999999999999</ele>
        <time>2003-04-18T16:35:07Z</time>
      </trkpt>
      <trkpt lat="32.558401990681887" lon="-4.200066989287734">
        <ele>1749.4000000000001</ele>
        <time>2003-04-18T16:35:10Z</time>
      </trkpt>
      <trkpt lat="32.558442978188396" lon="-4.199924999848008">
        <ele>1750</ele>
        <time>2003-04-18T16:35:14Z</time>
      </trkpt>
      <trkpt lat="32.558486983180046" lon="-4.19969298876822">
        <ele>1751.8</ele>
        <time>2003-04-18T16:35:18Z</time>
      </trkpt>
      <trkpt lat="32.558562001213431" lon="-4.199616964906454">
        <ele>1751.3</ele>
        <time>2003-04-18T16:35:24Z</time>
      </trkpt>
      <trkpt lat="32.558626960963011" lon="-4.199389982968569">
        <ele>1752.9000000000001</ele>
        <time>2003-04-18T16:35:30Z</time>
      </trkpt>
      <trkpt lat="32.558692004531622" lon="-4.199172975495458">
        <ele>1752.5</ele>
        <time>2003-04-18T16:35:36Z</time>
      </trkpt>
      <trkpt lat="32.558747995644808" lon="-4.199071973562241">
        <ele>1751.5999999999999</ele>
        <time>2003-04-18T16:35:37Z</time>
      </trkpt>
      <trkpt lat="32.559106992557645" lon="-4.198590014129877">
        <ele>1747.5</ele>
        <time>2003-04-18T16:35:47Z</time>
      </trkpt>
      <trkpt lat="32.559313019737601" lon="-4.198303017765284">
        <ele>1746.5</ele>
        <time>2003-04-18T16:35:53Z</time>
      </trkpt>
      <trkpt lat="32.559383008629084" lon="-4.198134960606694">
        <ele>1746.3</ele>
        <time>2003-04-18T16:35:57Z</time>
      </trkpt>
      <trkpt lat="32.559431958943605" lon="-4.198019960895181">
        <ele>1746.2</ele>
        <time>2003-04-18T16:36:00Z</time>
      </trkpt>
      <trkpt lat="32.559521980583668" lon="-4.197734976187348">
        <ele>1746.2</ele>
        <time>2003-04-18T16:36:08Z</time>
      </trkpt>
      <trkpt lat="32.559562968090177" lon="-4.197625005617738">
        <ele>1746.2</ele>
        <time>2003-04-18T16:36:11Z</time>
      </trkpt>
      <trkpt lat="32.559657013043761" lon="-4.1974369995296">
        <ele>1746.2</ele>
        <time>2003-04-18T16:36:16Z</time>
      </trkpt>
      <trkpt lat="32.559802019968629" lon="-4.197252010926604">
        <ele>1745.4000000000001</ele>
        <time>2003-04-18T16:36:23Z</time>
      </trkpt>
      <trkpt lat="32.559843007475138" lon="-4.197142962366343">
        <ele>1745.2</ele>
        <time>2003-04-18T16:36:26Z</time>
      </trkpt>
      <trkpt lat="32.559885000810027" lon="-4.197019999846816">
        <ele>1744.7</ele>
        <time>2003-04-18T16:36:30Z</time>
      </trkpt>
      <trkpt lat="32.559947026893497" lon="-4.196929978206754">
        <ele>1744.2</ele>
        <time>2003-04-18T16:36:32Z</time>
      </trkpt>
      <trkpt lat="32.560079963877797" lon="-4.196757981553674">
        <ele>1743.2</ele>
        <time>2003-04-18T16:36:39Z</time>
      </trkpt>
      <trkpt lat="32.56010502576828" lon="-4.196622027084231">
        <ele>1742.5999999999999</ele>
        <time>2003-04-18T16:36:42Z</time>
      </trkpt>
      <trkpt lat="32.560099996626377" lon="-4.196460004895926">
        <ele>1744.0999999999999</ele>
        <time>2003-04-18T16:36:46Z</time>
      </trkpt>
      <trkpt lat="32.560093039646745" lon="-4.196345005184412">
        <ele>1744.5</ele>
        <time>2003-04-18T16:36:49Z</time>
      </trkpt>
      <trkpt lat="32.560096979141235" lon="-4.196218019351363">
        <ele>1744.7</ele>
        <time>2003-04-18T16:36:50Z</time>
      </trkpt>
      <trkpt lat="32.560139978304505" lon="-4.196077035740018">
        <ele>1745.0999999999999</ele>
        <time>2003-04-18T16:36:54Z</time>
      </trkpt>
      <trkpt lat="32.560232011601329" lon="-4.19599698856473">
        <ele>1744.5</ele>
        <time>2003-04-18T16:36:57Z</time>
      </trkpt>
      <trkpt lat="32.560322033241391" lon="-4.19597796164453">
        <ele>1743.5999999999999</ele>
        <time>2003-04-18T16:36:58Z</time>
      </trkpt>
      <trkpt lat="32.560414988547564" lon="-4.195939991623163">
        <ele>1741.8</ele>
        <time>2003-04-18T16:37:01Z</time>
      </trkpt>
      <trkpt lat="32.560597965493798" lon="-4.19582499191165">
        <ele>1739.2</ele>
        <time>2003-04-18T16:37:05Z</time>
      </trkpt>
      <trkpt lat="32.560677006840706" lon="-4.195747962221503">
        <ele>1739.5</ele>
        <time>2003-04-18T16:37:08Z</time>
      </trkpt>
      <trkpt lat="32.560792006552219" lon="-4.195597004145384">
        <ele>1739.8</ele>
        <time>2003-04-18T16:37:12Z</time>
      </trkpt>
      <trkpt lat="32.560904994606972" lon="-4.195416960865259">
        <ele>1740</ele>
        <time>2003-04-18T16:37:17Z</time>
      </trkpt>
      <trkpt lat="32.561074979603291" lon="-4.195195008069277">
        <ele>1738</ele>
        <time>2003-04-18T16:37:22Z</time>
      </trkpt>
      <trkpt lat="32.561170030385256" lon="-4.195077996701002">
        <ele>1736.5</ele>
        <time>2003-04-18T16:37:25Z</time>
      </trkpt>
      <trkpt lat="32.561268014833331" lon="-4.195068022236228">
        <ele>1735.4000000000001</ele>
        <time>2003-04-18T16:37:29Z</time>
      </trkpt>
      <trkpt lat="32.561359964311123" lon="-4.195019993931055">
        <ele>1733.5999999999999</ele>
        <time>2003-04-18T16:37:36Z</time>
      </trkpt>
      <trkpt lat="32.561551993712783" lon="-4.19496500864625">
        <ele>1732.0999999999999</ele>
        <time>2003-04-18T16:37:43Z</time>
      </trkpt>
      <trkpt lat="32.561646960675716" lon="-4.19492200948298">
        <ele>1732</ele>
        <time>2003-04-18T16:37:44Z</time>
      </trkpt>
      <trkpt lat="32.561933035030961" lon="-4.194801980629563">
        <ele>1731.5</ele>
        <time>2003-04-18T16:37:51Z</time>
      </trkpt>
      <trkpt lat="32.56210695952177" lon="-4.194738026708365">
        <ele>1731.5999999999999</ele>
        <time>2003-04-18T16:37:56Z</time>
      </trkpt>
      <trkpt lat="32.562182983383536" lon="-4.194657979533076">
        <ele>1731</ele>
        <time>2003-04-18T16:38:00Z</time>
      </trkpt>
      <trkpt lat="32.562290020287037" lon="-4.194544991478324">
        <ele>1731</ele>
        <time>2003-04-18T16:38:04Z</time>
      </trkpt>
      <trkpt lat="32.562508033588529" lon="-4.194344999268651">
        <ele>1730.2</ele>
        <time>2003-04-18T16:38:08Z</time>
      </trkpt>
      <trkpt lat="32.562638036906719" lon="-4.194197980687022">
        <ele>1731.4000000000001</ele>
        <time>2003-04-18T16:38:12Z</time>
      </trkpt>
      <trkpt lat="32.562672989442945" lon="-4.19406202621758">
        <ele>1730.0999999999999</ele>
        <time>2003-04-18T16:38:16Z</time>
      </trkpt>
      <trkpt lat="32.562605012208223" lon="-4.193936968222261">
        <ele>1729.5999999999999</ele>
        <time>2003-04-18T16:38:19Z</time>
      </trkpt>
      <trkpt lat="32.562538040801883" lon="-4.193860022351146">
        <ele>1729.9000000000001</ele>
        <time>2003-04-18T16:38:22Z</time>
      </trkpt>
      <trkpt lat="32.562466962262988" lon="-4.19371803291142">
        <ele>1730.2</ele>
        <time>2003-04-18T16:38:24Z</time>
      </trkpt>
      <trkpt lat="32.562478026375175" lon="-4.193602027371526">
        <ele>1730.4000000000001</ele>
        <time>2003-04-18T16:38:27Z</time>
      </trkpt>
      <trkpt lat="32.562552960589528" lon="-4.193306984379888">
        <ele>1730.3</ele>
        <time>2003-04-18T16:38:31Z</time>
      </trkpt>
      <trkpt lat="32.562618004158139" lon="-4.193174969404936">
        <ele>1730.7</ele>
        <time>2003-04-18T16:38:34Z</time>
      </trkpt>
      <trkpt lat="32.562627978622913" lon="-4.19303297996521">
        <ele>1730.9000000000001</ele>
        <time>2003-04-18T16:38:38Z</time>
      </trkpt>
      <trkpt lat="32.562633007764816" lon="-4.192916974425316">
        <ele>1732.0999999999999</ele>
        <time>2003-04-18T16:38:42Z</time>
      </trkpt>
      <trkpt lat="32.562669971957803" lon="-4.192813038825989">
        <ele>1732.5</ele>
        <time>2003-04-18T16:38:45Z</time>
      </trkpt>
      <trkpt lat="32.562699979171157" lon="-4.192708013579249">
        <ele>1732.5</ele>
        <time>2003-04-18T16:38:49Z</time>
      </trkpt>
      <trkpt lat="32.562626972794533" lon="-4.192622015252709">
        <ele>1732.5</ele>
        <time>2003-04-18T16:38:54Z</time>
      </trkpt>
      <trkpt lat="32.562548015266657" lon="-4.192550014704466">
        <ele>1733.0999999999999</ele>
        <time>2003-04-18T16:38:57Z</time>
      </trkpt>
      <trkpt lat="32.562375012785196" lon="-4.192386986687779">
        <ele>1735</ele>
        <time>2003-04-18T16:39:04Z</time>
      </trkpt>
      <trkpt lat="32.562347017228603" lon="-4.192282967269421">
        <ele>1736.5999999999999</ele>
        <time>2003-04-18T16:39:06Z</time>
      </trkpt>
      <trkpt lat="32.562393033877015" lon="-4.192178025841713">
        <ele>1737.4000000000001</ele>
        <time>2003-04-18T16:39:09Z</time>
      </trkpt>
      <trkpt lat="32.562437960878015" lon="-4.191950038075447">
        <ele>1740.5</ele>
        <time>2003-04-18T16:39:17Z</time>
      </trkpt>
      <trkpt lat="32.562475008890033" lon="-4.191832020878792">
        <ele>1740.0999999999999</ele>
        <time>2003-04-18T16:39:20Z</time>
      </trkpt>
      <trkpt lat="32.562566958367825" lon="-4.191575031727552">
        <ele>1739.5999999999999</ele>
        <time>2003-04-18T16:39:25Z</time>
      </trkpt>
      <trkpt lat="32.562622027471662" lon="-4.191373027861118">
        <ele>1739.7</ele>
        <time>2003-04-18T16:39:28Z</time>
      </trkpt>
      <trkpt lat="32.562695033848286" lon="-4.191113021224737">
        <ele>1741.7</ele>
        <time>2003-04-18T16:39:32Z</time>
      </trkpt>
      <trkpt lat="32.562759993597865" lon="-4.190897019580007">
        <ele>1744</ele>
        <time>2003-04-18T16:39:36Z</time>
      </trkpt>
      <trkpt lat="32.562832999974489" lon="-4.190802974626422">
        <ele>1744.4000000000001</ele>
        <time>2003-04-18T16:39:40Z</time>
      </trkpt>
      <trkpt lat="32.563047995790839" lon="-4.190655034035444">
        <ele>1744.8</ele>
        <time>2003-04-18T16:39:47Z</time>
      </trkpt>
      <trkpt lat="32.563152015209198" lon="-4.19051798991859">
        <ele>1748.9000000000001</ele>
        <time>2003-04-18T16:40:54Z</time>
      </trkpt>
      <trkpt lat="32.56332702934742" lon="-4.190359991043806">
        <ele>1749.0999999999999</ele>
        <time>2003-04-18T16:41:01Z</time>
      </trkpt>
      <trkpt lat="32.563410010188818" lon="-4.190271981060505">
        <ele>1749.3</ele>
        <time>2003-04-18T16:41:05Z</time>
      </trkpt>
      <trkpt lat="32.563292998820543" lon="-4.190186988562346">
        <ele>1747.2</ele>
        <time>2003-04-18T16:42:18Z</time>
      </trkpt>
      <trkpt lat="32.56315796636045" lon="-4.189986996352673">
        <ele>1745.5999999999999</ele>
        <time>2003-04-18T16:42:26Z</time>
      </trkpt>
      <trkpt lat="32.563101975247264" lon="-4.189887000247836">
        <ele>1745.5999999999999</ele>
        <time>2003-04-18T16:42:30Z</time>
      </trkpt>
      <trkpt lat="32.56307196803391" lon="-4.189754985272884">
        <ele>1745.9000000000001</ele>
        <time>2003-04-18T16:42:34Z</time>
      </trkpt>
      <trkpt lat="32.563052019104362" lon="-4.189603021368384">
        <ele>1746.5</ele>
        <time>2003-04-18T16:42:38Z</time>
      </trkpt>
      <trkpt lat="32.563035003840923" lon="-4.189477041363716">
        <ele>1746.8</ele>
        <time>2003-04-18T16:42:41Z</time>
      </trkpt>
      <trkpt lat="32.563035003840923" lon="-4.189360029995441">
        <ele>1747.2</ele>
        <time>2003-04-18T16:42:45Z</time>
      </trkpt>
      <trkpt lat="32.56302704103291" lon="-4.189189961180091">
        <ele>1746.7</ele>
        <time>2003-04-18T16:42:50Z</time>
      </trkpt>
      <trkpt lat="32.562965014949441" lon="-4.189094994217157">
        <ele>1746.8</ele>
        <time>2003-04-18T16:42:54Z</time>
      </trkpt>
      <trkpt lat="32.562980018556118" lon="-4.188972031697631">
        <ele>1739</ele>
        <time>2003-04-18T16:43:34Z</time>
      </trkpt>
      <trkpt lat="32.562968032434583" lon="-4.189183004200459">
        <ele>1740.5999999999999</ele>
        <time>2003-04-18T16:43:53Z</time>
      </trkpt>
      <trkpt lat="32.563020000234246" lon="-4.18929498642683">
        <ele>1741.2</ele>
        <time>2003-04-18T16:43:57Z</time>
      </trkpt>
      <trkpt lat="32.563022011891007" lon="-4.189409986138344">
        <ele>1740.4000000000001</ele>
        <time>2003-04-18T16:43:59Z</time>
      </trkpt>
      <trkpt lat="32.563012959435582" lon="-4.189532026648521">
        <ele>1740.4000000000001</ele>
        <time>2003-04-18T16:44:02Z</time>
      </trkpt>
      <trkpt lat="32.563035003840923" lon="-4.189639985561371">
        <ele>1740.4000000000001</ele>
        <time>2003-04-18T16:44:06Z</time>
      </trkpt>
      <trkpt lat="32.563132988288999" lon="-4.190060002729297">
        <ele>1741.9000000000001</ele>
        <time>2003-04-18T16:44:18Z</time>
      </trkpt>
      <trkpt lat="32.563213035464287" lon="-4.190118005499244">
        <ele>1742.9000000000001</ele>
        <time>2003-04-18T16:44:22Z</time>
      </trkpt>
      <trkpt lat="32.563316971063614" lon="-4.190201992169023">
        <ele>1745.0999999999999</ele>
        <time>2003-04-18T16:44:26Z</time>
      </trkpt>
      <trkpt lat="32.56311203353107" lon="-4.190637012943626">
        <ele>1763.4000000000001</ele>
        <time>2003-04-18T16:45:31Z</time>
      </trkpt>
      <trkpt lat="32.563040032982826" lon="-4.190729968249798">
        <ele>1760.2</ele>
        <time>2003-04-18T16:45:34Z</time>
      </trkpt>
      <trkpt lat="32.562944982200861" lon="-4.190800040960312">
        <ele>1759.0999999999999</ele>
        <time>2003-04-18T16:45:35Z</time>
      </trkpt>
      <trkpt lat="32.562817996367812" lon="-4.190872963517904">
        <ele>1758.2</ele>
        <time>2003-04-18T16:45:39Z</time>
      </trkpt>
      <trkpt lat="32.56276804022491" lon="-4.190983017906547">
        <ele>1756.5</ele>
        <time>2003-04-18T16:45:42Z</time>
      </trkpt>
      <trkpt lat="32.562733003869653" lon="-4.191132970154285">
        <ele>1753.0999999999999</ele>
        <time>2003-04-18T16:45:43Z</time>
      </trkpt>
      <trkpt lat="32.562659997493029" lon="-4.191389959305525">
        <ele>1750.4000000000001</ele>
        <time>2003-04-18T16:45:46Z</time>
      </trkpt>
      <trkpt lat="32.56244701333344" lon="-4.192062020301819">
        <ele>1748.4000000000001</ele>
        <time>2003-04-18T16:45:55Z</time>
      </trkpt>
      <trkpt lat="32.562437960878015" lon="-4.192201998084784">
        <ele>1746.4000000000001</ele>
        <time>2003-04-18T16:45:58Z</time>
      </trkpt>
      <trkpt lat="32.562378030270338" lon="-4.192342981696129">
        <ele>1744.8</ele>
        <time>2003-04-18T16:46:02Z</time>
      </trkpt>
      <trkpt lat="32.562480038031936" lon="-4.192520007491112">
        <ele>1742.2</ele>
        <time>2003-04-18T16:46:06Z</time>
      </trkpt>
      <trkpt lat="32.562575004994869" lon="-4.192589996382594">
        <ele>1741.9000000000001</ele>
        <time>2003-04-18T16:46:08Z</time>
      </trkpt>
      <trkpt lat="32.562667038291693" lon="-4.192704996094108">
        <ele>1741</ele>
        <time>2003-04-18T16:46:13Z</time>
      </trkpt>
      <trkpt lat="32.562722023576498" lon="-4.192797029390931">
        <ele>1740.5</ele>
        <time>2003-04-18T16:46:16Z</time>
      </trkpt>
      <trkpt lat="32.562667960301042" lon="-4.192987969145179">
        <ele>1740.5</ele>
        <time>2003-04-18T16:46:43Z</time>
      </trkpt>
      <trkpt lat="32.562659997493029" lon="-4.193113027140498">
        <ele>1740.4000000000001</ele>
        <time>2003-04-18T16:46:45Z</time>
      </trkpt>
      <trkpt lat="32.562644993886352" lon="-4.19324797578156">
        <ele>1739.5999999999999</ele>
        <time>2003-04-18T16:46:48Z</time>
      </trkpt>
      <trkpt lat="32.562578022480011" lon="-4.193449979647994">
        <ele>1738.5999999999999</ele>
        <time>2003-04-18T16:46:53Z</time>
      </trkpt>
      <trkpt lat="32.562495041638613" lon="-4.193733036518097">
        <ele>1738.0999999999999</ele>
        <time>2003-04-18T16:46:57Z</time>
      </trkpt>
      <trkpt lat="32.562501998618245" lon="-4.193845018744469">
        <ele>1737.8</ele>
        <time>2003-04-18T16:47:00Z</time>
      </trkpt>
      <trkpt lat="32.56255698390305" lon="-4.193936968222261">
        <ele>1737</ele>
        <time>2003-04-18T16:47:03Z</time>
      </trkpt>
      <trkpt lat="32.562638036906719" lon="-4.194003017619252">
        <ele>1737.2</ele>
        <time>2003-04-18T16:47:04Z</time>
      </trkpt>
      <trkpt lat="32.562677012756467" lon="-4.194165039807558">
        <ele>1737.7</ele>
        <time>2003-04-18T16:47:11Z</time>
      </trkpt>
      <trkpt lat="32.562638036906719" lon="-4.194282973185182">
        <ele>1738.0999999999999</ele>
        <time>2003-04-18T16:47:15Z</time>
      </trkpt>
      <trkpt lat="32.562541980296373" lon="-4.194380035623908">
        <ele>1736.9000000000001</ele>
        <time>2003-04-18T16:47:18Z</time>
      </trkpt>
      <trkpt lat="32.562251966446638" lon="-4.194638030603528">
        <ele>1735.3</ele>
        <time>2003-04-18T16:47:27Z</time>
      </trkpt>
      <trkpt lat="32.562141995877028" lon="-4.194677006453276">
        <ele>1735.3</ele>
        <time>2003-04-18T16:47:33Z</time>
      </trkpt>
      <trkpt lat="32.562222965061665" lon="-4.19462202116847">
        <ele>1732.9000000000001</ele>
        <time>2003-04-18T16:48:05Z</time>
      </trkpt>
      <trkpt lat="32.562164962291718" lon="-4.194769961759448">
        <ele>1729.9000000000001</ele>
        <time>2003-04-18T16:48:17Z</time>
      </trkpt>
      <trkpt lat="32.562241991981864" lon="-4.194838022813201">
        <ele>1729.5999999999999</ele>
        <time>2003-04-18T16:48:23Z</time>
      </trkpt>
      <trkpt lat="32.562312986701727" lon="-4.194914968684316">
        <ele>1729.5</ele>
        <time>2003-04-18T16:48:25Z</time>
      </trkpt>
      <trkpt lat="32.562397979199886" lon="-4.195007001981139">
        <ele>1729.2</ele>
        <time>2003-04-18T16:48:27Z</time>
      </trkpt>
      <trkpt lat="32.562452964484692" lon="-4.195143040269613">
        <ele>1728.5</ele>
        <time>2003-04-18T16:48:28Z</time>
      </trkpt>
      <trkpt lat="32.562538040801883" lon="-4.195255022495985">
        <ele>1727.5999999999999</ele>
        <time>2003-04-18T16:48:31Z</time>
      </trkpt>
      <trkpt lat="32.562627978622913" lon="-4.195298021659255">
        <ele>1727.4000000000001</ele>
        <time>2003-04-18T16:48:32Z</time>
      </trkpt>
      <trkpt lat="32.562722023576498" lon="-4.195292992517352">
        <ele>1727.0999999999999</ele>
        <time>2003-04-18T16:48:36Z</time>
      </trkpt>
      <trkpt lat="32.562817996367812" lon="-4.195315036922693">
        <ele>1725.5999999999999</ele>
        <time>2003-04-18T16:48:44Z</time>
      </trkpt>
      <trkpt lat="32.562908018007874" lon="-4.195287963375449">
        <ele>1724.5</ele>
        <time>2003-04-18T16:48:48Z</time>
      </trkpt>
      <trkpt lat="32.563008014112711" lon="-4.195213029161096">
        <ele>1722.8</ele>
        <time>2003-04-18T16:48:52Z</time>
      </trkpt>
      <trkpt lat="32.563098035752773" lon="-4.195152008906007">
        <ele>1722.8</ele>
        <time>2003-04-18T16:48:55Z</time>
      </trkpt>
      <trkpt lat="32.563225021585822" lon="-4.195098029449582">
        <ele>1722.5</ele>
        <time>2003-04-18T16:48:56Z</time>
      </trkpt>
      <trkpt lat="32.563367011025548" lon="-4.195016976445913">
        <ele>1722.5999999999999</ele>
        <time>2003-04-18T16:48:59Z</time>
      </trkpt>
      <trkpt lat="32.563592987135053" lon="-4.194916980341077">
        <ele>1722.5999999999999</ele>
        <time>2003-04-18T16:49:02Z</time>
      </trkpt>
      <trkpt lat="32.563949972391129" lon="-4.194778008386493">
        <ele>1721.7</ele>
        <time>2003-04-18T16:49:06Z</time>
      </trkpt>
      <trkpt lat="32.564157005399466" lon="-4.194659991189838">
        <ele>1720.5999999999999</ele>
        <time>2003-04-18T16:49:08Z</time>
      </trkpt>
      <trkpt lat="32.564239986240864" lon="-4.194605005905032">
        <ele>1719.5</ele>
        <time>2003-04-18T16:49:11Z</time>
      </trkpt>
      <trkpt lat="32.564342999830842" lon="-4.194552032276988">
        <ele>1718.7</ele>
        <time>2003-04-18T16:49:14Z</time>
      </trkpt>
      <trkpt lat="32.564433021470904" lon="-4.194499980658293">
        <ele>1718.4000000000001</ele>
        <time>2003-04-18T16:49:15Z</time>
      </trkpt>
      <trkpt lat="32.564539974555373" lon="-4.194484977051616">
        <ele>1718.0999999999999</ele>
        <time>2003-04-18T16:49:18Z</time>
      </trkpt>
      <trkpt lat="32.564662015065551" lon="-4.1944719851017">
        <ele>1717.5999999999999</ele>
        <time>2003-04-18T16:49:19Z</time>
      </trkpt>
      <trkpt lat="32.564786989241838" lon="-4.194433009251952">
        <ele>1717.3</ele>
        <time>2003-04-18T16:49:22Z</time>
      </trkpt>
      <trkpt lat="32.564896959811449" lon="-4.194478020071983">
        <ele>1717.0999999999999</ele>
        <time>2003-04-18T16:49:23Z</time>
      </trkpt>
      <trkpt lat="32.564952028915286" lon="-4.194577010348439">
        <ele>1716.8</ele>
        <time>2003-04-18T16:49:26Z</time>
      </trkpt>
      <trkpt lat="32.565065016970038" lon="-4.194590002298355">
        <ele>1716.5999999999999</ele>
        <time>2003-04-18T16:49:29Z</time>
      </trkpt>
      <trkpt lat="32.565184962004423" lon="-4.194582039490342">
        <ele>1716.2</ele>
        <time>2003-04-18T16:49:31Z</time>
      </trkpt>
      <trkpt lat="32.565313037484884" lon="-4.194568041712046">
        <ele>1715.8</ele>
        <time>2003-04-18T16:49:34Z</time>
      </trkpt>
      <trkpt lat="32.565704975277185" lon="-4.194529987871647">
        <ele>1715.2</ele>
        <time>2003-04-18T16:49:39Z</time>
      </trkpt>
      <trkpt lat="32.565807988867164" lon="-4.19449302367866">
        <ele>1714.7</ele>
        <time>2003-04-18T16:49:42Z</time>
      </trkpt>
      <trkpt lat="32.56592801772058" lon="-4.194499980658293">
        <ele>1714.4000000000001</ele>
        <time>2003-04-18T16:49:45Z</time>
      </trkpt>
      <trkpt lat="32.566028013825417" lon="-4.1944529581815">
        <ele>1714.0999999999999</ele>
        <time>2003-04-18T16:49:46Z</time>
      </trkpt>
      <trkpt lat="32.566113006323576" lon="-4.194352040067315">
        <ele>1715.0999999999999</ele>
        <time>2003-04-18T16:49:49Z</time>
      </trkpt>
      <trkpt lat="32.566179977729917" lon="-4.194224970415235">
        <ele>1714.9000000000001</ele>
        <time>2003-04-18T16:49:52Z</time>
      </trkpt>
      <trkpt lat="32.566247032955289" lon="-4.194056997075677">
        <ele>1714.7</ele>
        <time>2003-04-18T16:49:53Z</time>
      </trkpt>
      <trkpt lat="32.566407965496182" lon="-4.193637985736132">
        <ele>1714.3</ele>
        <time>2003-04-18T16:49:58Z</time>
      </trkpt>
      <trkpt lat="32.566475020721555" lon="-4.193543018773198">
        <ele>1714.0999999999999</ele>
        <time>2003-04-18T16:50:01Z</time>
      </trkpt>
      <trkpt lat="32.566569987684488" lon="-4.193447967991233">
        <ele>1713.7</ele>
        <time>2003-04-18T16:50:04Z</time>
      </trkpt>
      <trkpt lat="32.566657997667789" lon="-4.193412009626627">
        <ele>1713.5</ele>
        <time>2003-04-18T16:50:05Z</time>
      </trkpt>
      <trkpt lat="32.56680803373456" lon="-4.193431958556175">
        <ele>1709.2</ele>
        <time>2003-04-18T16:52:36Z</time>
      </trkpt>
      <trkpt lat="32.566918004304171" lon="-4.193498007953167">
        <ele>1709.5</ele>
        <time>2003-04-18T16:52:40Z</time>
      </trkpt>
      <trkpt lat="32.56702302955091" lon="-4.193560034036636">
        <ele>1709</ele>
        <time>2003-04-18T16:52:46Z</time>
      </trkpt>
      <trkpt lat="32.56711196154356" lon="-4.19363203458488">
        <ele>1708.4000000000001</ele>
        <time>2003-04-18T16:52:51Z</time>
      </trkpt>
      <trkpt lat="32.567186979576945" lon="-4.193692971020937">
        <ele>1708.0999999999999</ele>
        <time>2003-04-18T16:52:54Z</time>
      </trkpt>
      <trkpt lat="32.56738998927176" lon="-4.193824985995889">
        <ele>1707.5999999999999</ele>
        <time>2003-04-18T16:52:59Z</time>
      </trkpt>
      <trkpt lat="32.567486967891455" lon="-4.193909978494048">
        <ele>1707.7</ele>
        <time>2003-04-18T16:53:02Z</time>
      </trkpt>
      <trkpt lat="32.567571960389614" lon="-4.194024978205562">
        <ele>1708.4000000000001</ele>
        <time>2003-04-18T16:53:06Z</time>
      </trkpt>
      <trkpt lat="32.567657958716154" lon="-4.194262018427253">
        <ele>1707.2</ele>
        <time>2003-04-18T16:53:17Z</time>
      </trkpt>
      <trkpt lat="32.567743035033345" lon="-4.194395039230585">
        <ele>1709.4000000000001</ele>
        <time>2003-04-18T16:53:24Z</time>
      </trkpt>
      <trkpt lat="32.567807994782925" lon="-4.194482965394855">
        <ele>1710.3</ele>
        <time>2003-04-18T16:53:29Z</time>
      </trkpt>
      <trkpt lat="32.567838001996279" lon="-4.19460198841989">
        <ele>1708.7</ele>
        <time>2003-04-18T16:53:36Z</time>
      </trkpt>
      <trkpt lat="32.567891981452703" lon="-4.194726962596178">
        <ele>1707.9000000000001</ele>
        <time>2003-04-18T16:53:41Z</time>
      </trkpt>
      <trkpt lat="32.567925006151199" lon="-4.194841962307692">
        <ele>1708.4000000000001</ele>
        <time>2003-04-18T16:53:44Z</time>
      </trkpt>
      <trkpt lat="32.567968005314469" lon="-4.194942964240909">
        <ele>1707.0999999999999</ele>
        <time>2003-04-18T16:53:47Z</time>
      </trkpt>
      <trkpt lat="32.568019973114133" lon="-4.195040026679635">
        <ele>1705.0999999999999</ele>
        <time>2003-04-18T16:53:51Z</time>
      </trkpt>
      <trkpt lat="32.568073030561209" lon="-4.195131976157427">
        <ele>1704.9000000000001</ele>
        <time>2003-04-18T16:53:55Z</time>
      </trkpt>
      <trkpt lat="32.568243015557528" lon="-4.195455014705658">
        <ele>1706.5999999999999</ele>
        <time>2003-04-18T16:54:07Z</time>
      </trkpt>
      <trkpt lat="32.568322978913784" lon="-4.195517962798476">
        <ele>1706.5999999999999</ele>
        <time>2003-04-18T16:54:09Z</time>
      </trkpt>
      <trkpt lat="32.56842196919024" lon="-4.195615025237203">
        <ele>1706.9000000000001</ele>
        <time>2003-04-18T16:54:12Z</time>
      </trkpt>
      <trkpt lat="32.568511990830302" lon="-4.19576003216207">
        <ele>1706.8</ele>
        <time>2003-04-18T16:54:16Z</time>
      </trkpt>
      <trkpt lat="32.568566976115108" lon="-4.195872014388442">
        <ele>1706.7</ele>
        <time>2003-04-18T16:54:18Z</time>
      </trkpt>
      <trkpt lat="32.568588014692068" lon="-4.19599698856473">
        <ele>1706.3</ele>
        <time>2003-04-18T16:54:19Z</time>
      </trkpt>
      <trkpt lat="32.568639982491732" lon="-4.196107964962721">
        <ele>1706</ele>
        <time>2003-04-18T16:54:22Z</time>
      </trkpt>
      <trkpt lat="32.568730004131794" lon="-4.196177031844854">
        <ele>1706.0999999999999</ele>
        <time>2003-04-18T16:54:23Z</time>
      </trkpt>
      <trkpt lat="32.568917004391551" lon="-4.196309968829155">
        <ele>1706.4000000000001</ele>
        <time>2003-04-18T16:54:27Z</time>
      </trkpt>
      <trkpt lat="32.569039966911077" lon="-4.196409964933991">
        <ele>1705.7</ele>
        <time>2003-04-18T16:54:31Z</time>
      </trkpt>
      <trkpt lat="32.569118002429605" lon="-4.196466961875558">
        <ele>1706.0999999999999</ele>
        <time>2003-04-18T16:54:35Z</time>
      </trkpt>
      <trkpt lat="32.56919695995748" lon="-4.196547009050846">
        <ele>1707</ele>
        <time>2003-04-18T16:54:39Z</time>
      </trkpt>
      <trkpt lat="32.569269966334105" lon="-4.196622027084231">
        <ele>1707.4000000000001</ele>
        <time>2003-04-18T16:54:42Z</time>
      </trkpt>
      <trkpt lat="32.569363005459309" lon="-4.196584979072213">
        <ele>1708.0999999999999</ele>
        <time>2003-04-18T16:54:46Z</time>
      </trkpt>
      <trkpt lat="32.56945202127099" lon="-4.196526976302266">
        <ele>1707.9000000000001</ele>
        <time>2003-04-18T16:54:51Z</time>
      </trkpt>
      <trkpt lat="32.569531984627247" lon="-4.196465034037828">
        <ele>1707.4000000000001</ele>
        <time>2003-04-18T16:54:58Z</time>
      </trkpt>
      <trkpt lat="32.569586969912052" lon="-4.196373000741005">
        <ele>1707</ele>
        <time>2003-04-18T16:55:03Z</time>
      </trkpt>
      <trkpt lat="32.569670034572482" lon="-4.196124980226159">
        <ele>1710.8</ele>
        <time>2003-04-18T16:55:13Z</time>
      </trkpt>
      <trkpt lat="32.569671962410212" lon="-4.196011992171407">
        <ele>1705.5999999999999</ele>
        <time>2003-04-18T16:55:39Z</time>
      </trkpt>
      <trkpt lat="32.569695012643933" lon="-4.195879977196455">
        <ele>1705.5</ele>
        <time>2003-04-18T16:55:40Z</time>
      </trkpt>
      <trkpt lat="32.569740023463964" lon="-4.195707980543375">
        <ele>1707.0999999999999</ele>
        <time>2003-04-18T16:55:44Z</time>
      </trkpt>
      <trkpt lat="32.569923000410199" lon="-4.195327023044229">
        <ele>1708.5999999999999</ele>
        <time>2003-04-18T16:55:53Z</time>
      </trkpt>
      <trkpt lat="32.570047974586487" lon="-4.195129964500666">
        <ele>1707.9000000000001</ele>
        <time>2003-04-18T16:55:59Z</time>
      </trkpt>
      <trkpt lat="32.570145037025213" lon="-4.195070033892989">
        <ele>1706.7</ele>
        <time>2003-04-18T16:56:02Z</time>
      </trkpt>
      <trkpt lat="32.570317033678293" lon="-4.194997027516365">
        <ele>1705.4000000000001</ele>
        <time>2003-04-18T16:56:07Z</time>
      </trkpt>
      <trkpt lat="32.570413006469607" lon="-4.195047989487648">
        <ele>1704.4000000000001</ele>
        <time>2003-04-18T16:56:08Z</time>
      </trkpt>
      <trkpt lat="32.570507973432541" lon="-4.19507497921586">
        <ele>1704</ele>
        <time>2003-04-18T16:56:11Z</time>
      </trkpt>
      <trkpt lat="32.570673013105989" lon="-4.195123007521033">
        <ele>1703.2</ele>
        <time>2003-04-18T16:56:15Z</time>
      </trkpt>
      <trkpt lat="32.570777032524347" lon="-4.195221997797489">
        <ele>1702.3</ele>
        <time>2003-04-18T16:56:18Z</time>
      </trkpt>
      <trkpt lat="32.570842998102307" lon="-4.195295004174113">
        <ele>1702.3</ele>
        <time>2003-04-18T16:56:20Z</time>
      </trkpt>
      <trkpt lat="32.570903012529016" lon="-4.195383014157414">
        <ele>1702.0999999999999</ele>
        <time>2003-04-18T16:56:23Z</time>
      </trkpt>
      <trkpt lat="32.570939976722002" lon="-4.19550497084856">
        <ele>1701.9000000000001</ele>
        <time>2003-04-18T16:56:27Z</time>
      </trkpt>
      <trkpt lat="32.570965038612485" lon="-4.195646960288286">
        <ele>1702.3</ele>
        <time>2003-04-18T16:56:31Z</time>
      </trkpt>
      <trkpt lat="32.570986999198794" lon="-4.195906966924667">
        <ele>1702</ele>
        <time>2003-04-18T16:56:37Z</time>
      </trkpt>
      <trkpt lat="32.570969983935356" lon="-4.196048034355044">
        <ele>1701.5</ele>
        <time>2003-04-18T16:56:38Z</time>
      </trkpt>
      <trkpt lat="32.570911981165409" lon="-4.19662001542747">
        <ele>1701</ele>
        <time>2003-04-18T16:56:46Z</time>
      </trkpt>
      <trkpt lat="32.570932013913989" lon="-4.196739960461855">
        <ele>1700.8</ele>
        <time>2003-04-18T16:56:49Z</time>
      </trkpt>
      <trkpt lat="32.570988005027175" lon="-4.197008013725281">
        <ele>1699.5999999999999</ele>
        <time>2003-04-18T16:56:54Z</time>
      </trkpt>
      <trkpt lat="32.571072997525334" lon="-4.197083031758666">
        <ele>1699.5999999999999</ele>
        <time>2003-04-18T16:56:58Z</time>
      </trkpt>
      <trkpt lat="32.571133011952043" lon="-4.197183027863503">
        <ele>1699.3</ele>
        <time>2003-04-18T16:57:02Z</time>
      </trkpt>
      <trkpt lat="32.571210041642189" lon="-4.197271959856153">
        <ele>1698.0999999999999</ele>
        <time>2003-04-18T16:57:08Z</time>
      </trkpt>
      <trkpt lat="32.571350019425154" lon="-4.197385031729937">
        <ele>1697.3</ele>
        <time>2003-04-18T16:57:14Z</time>
      </trkpt>
      <trkpt lat="32.571392012760043" lon="-4.19747999869287">
        <ele>1696.0999999999999</ele>
        <time>2003-04-18T16:57:17Z</time>
      </trkpt>
      <trkpt lat="32.571444986388087" lon="-4.197572031989694">
        <ele>1695.7</ele>
        <time>2003-04-18T16:57:21Z</time>
      </trkpt>
      <trkpt lat="32.571478011086583" lon="-4.197698011994362">
        <ele>1695.7</ele>
        <time>2003-04-18T16:57:25Z</time>
      </trkpt>
      <trkpt lat="32.571446998044848" lon="-4.197802031412721">
        <ele>1695.4000000000001</ele>
        <time>2003-04-18T16:57:27Z</time>
      </trkpt>
      <trkpt lat="32.571344990283251" lon="-4.197927005589008">
        <ele>1695.9000000000001</ele>
        <time>2003-04-18T16:57:31Z</time>
      </trkpt>
      <trkpt lat="32.571295034140348" lon="-4.198072012513876">
        <ele>1696.5</ele>
        <time>2003-04-18T16:57:32Z</time>
      </trkpt>
      <trkpt lat="32.571252034977078" lon="-4.198192963376641">
        <ele>1696.5999999999999</ele>
        <time>2003-04-18T16:57:35Z</time>
      </trkpt>
      <trkpt lat="32.571182968094945" lon="-4.198302011936903">
        <ele>1697</ele>
        <time>2003-04-18T16:57:36Z</time>
      </trkpt>
      <trkpt lat="32.571092024445534" lon="-4.198473002761602">
        <ele>1696.2</ele>
        <time>2003-04-18T16:57:40Z</time>
      </trkpt>
      <trkpt lat="32.571032010018826" lon="-4.1985750105232">
        <ele>1695.7</ele>
        <time>2003-04-18T16:57:41Z</time>
      </trkpt>
      <trkpt lat="32.570963026955724" lon="-4.198712976649404">
        <ele>1695.5</ele>
        <time>2003-04-18T16:57:44Z</time>
      </trkpt>
      <trkpt lat="32.570907035842538" lon="-4.198796963319182">
        <ele>1695.5</ele>
        <time>2003-04-18T16:57:47Z</time>
      </trkpt>
      <trkpt lat="32.570824977010489" lon="-4.198963008821011">
        <ele>1695.9000000000001</ele>
        <time>2003-04-18T16:57:50Z</time>
      </trkpt>
      <trkpt lat="32.570730010047555" lon="-4.199359975755215">
        <ele>1695.5999999999999</ele>
        <time>2003-04-18T16:57:59Z</time>
      </trkpt>
      <trkpt lat="32.57071802392602" lon="-4.199497019872069">
        <ele>1695.5999999999999</ele>
        <time>2003-04-18T16:58:03Z</time>
      </trkpt>
      <trkpt lat="32.570705031976104" lon="-4.199668010696769">
        <ele>1695.5</ele>
        <time>2003-04-18T16:58:06Z</time>
      </trkpt>
      <trkpt lat="32.570807039737701" lon="-4.199749985709786">
        <ele>1695.4000000000001</ele>
        <time>2003-04-18T16:58:08Z</time>
      </trkpt>
      <trkpt lat="32.570911981165409" lon="-4.199789967387915">
        <ele>1694.4000000000001</ele>
        <time>2003-04-18T16:58:11Z</time>
      </trkpt>
      <trkpt lat="32.571126976981759" lon="-4.199874959886074">
        <ele>1692.7</ele>
        <time>2003-04-18T16:58:15Z</time>
      </trkpt>
      <trkpt lat="32.571759978309274" lon="-4.200219959020615">
        <ele>1690.2</ele>
        <time>2003-04-18T16:58:29Z</time>
      </trkpt>
      <trkpt lat="32.571852011606097" lon="-4.200277961790562">
        <ele>1690.5</ele>
        <time>2003-04-18T16:58:30Z</time>
      </trkpt>
      <trkpt lat="32.57194303907454" lon="-4.200307969003916">
        <ele>1690.5</ele>
        <time>2003-04-18T16:58:33Z</time>
      </trkpt>
      <trkpt lat="32.572038006037474" lon="-4.200318027287722">
        <ele>1690.2</ele>
        <time>2003-04-18T16:58:34Z</time>
      </trkpt>
      <trkpt lat="32.57213800214231" lon="-4.200305035337806">
        <ele>1693.2</ele>
        <time>2003-04-18T16:58:37Z</time>
      </trkpt>
      <trkpt lat="32.572219977155328" lon="-4.20025197789073">
        <ele>1695.5999999999999</ele>
        <time>2003-04-18T16:58:38Z</time>
      </trkpt>
      <trkpt lat="32.572270017117262" lon="-4.200104959309101">
        <ele>1695.7</ele>
        <time>2003-04-18T16:58:42Z</time>
      </trkpt>
      <trkpt lat="32.572288038209081" lon="-4.199955007061362">
        <ele>1695.8</ele>
        <time>2003-04-18T16:58:44Z</time>
      </trkpt>
      <trkpt lat="32.572364984080195" lon="-4.199658036231995">
        <ele>1696.3</ele>
        <time>2003-04-18T16:58:48Z</time>
      </trkpt>
      <trkpt lat="32.572452994063497" lon="-4.199423007667065">
        <ele>1696.9000000000001</ele>
        <time>2003-04-18T16:58:52Z</time>
      </trkpt>
      <trkpt lat="32.572547039017081" lon="-4.199276994913817">
        <ele>1697.4000000000001</ele>
        <time>2003-04-18T16:58:56Z</time>
      </trkpt>
      <trkpt lat="32.572657009586692" lon="-4.199152020737529">
        <ele>1697.3</ele>
        <time>2003-04-18T16:59:01Z</time>
      </trkpt>
      <trkpt lat="32.572817020118237" lon="-4.199225027114153">
        <ele>1695.4000000000001</ele>
        <time>2003-04-18T16:59:08Z</time>
      </trkpt>
      <trkpt lat="32.572818025946617" lon="-4.199347989633679">
        <ele>1694.2</ele>
        <time>2003-04-18T16:59:11Z</time>
      </trkpt>
      <trkpt lat="32.572764968499541" lon="-4.199570026248694">
        <ele>1692.8</ele>
        <time>2003-04-18T16:59:15Z</time>
      </trkpt>
      <trkpt lat="32.572745019569993" lon="-4.199798014014959">
        <ele>1692.0999999999999</ele>
        <time>2003-04-18T16:59:17Z</time>
      </trkpt>
      <trkpt lat="32.572662960737944" lon="-4.200191963464022">
        <ele>1691</ele>
        <time>2003-04-18T16:59:24Z</time>
      </trkpt>
      <trkpt lat="32.572670001536608" lon="-4.200443001464009">
        <ele>1689.2</ele>
        <time>2003-04-18T16:59:28Z</time>
      </trkpt>
      <trkpt lat="32.572733033448458" lon="-4.200535034760833">
        <ele>1688.8</ele>
        <time>2003-04-18T16:59:32Z</time>
      </trkpt>
      <trkpt lat="32.572863036766648" lon="-4.200566969811916">
        <ele>1688</ele>
        <time>2003-04-18T16:59:35Z</time>
      </trkpt>
      <trkpt lat="32.572990022599697" lon="-4.2005730047822">
        <ele>1686.5</ele>
        <time>2003-04-18T16:59:36Z</time>
      </trkpt>
      <trkpt lat="32.573188003152609" lon="-4.200590020045638">
        <ele>1685.2</ele>
        <time>2003-04-18T16:59:40Z</time>
      </trkpt>
      <trkpt lat="32.573469970375299" lon="-4.2005730047822">
        <ele>1680.2</ele>
        <time>2003-04-18T16:59:44Z</time>
      </trkpt>
      <trkpt lat="32.573582036420703" lon="-4.200545009225607">
        <ele>1679.8</ele>
        <time>2003-04-18T16:59:47Z</time>
      </trkpt>
      <trkpt lat="32.573756966739893" lon="-4.200467979535461">
        <ele>1678.3</ele>
        <time>2003-04-18T16:59:50Z</time>
      </trkpt>
      <trkpt lat="32.573865009471774" lon="-4.200387010350823">
        <ele>1676.9000000000001</ele>
        <time>2003-04-18T16:59:51Z</time>
      </trkpt>
      <trkpt lat="32.573971962556243" lon="-4.200287014245987">
        <ele>1676.8</ele>
        <time>2003-04-18T16:59:54Z</time>
      </trkpt>
      <trkpt lat="32.574279997497797" lon="-4.199912007898092">
        <ele>1675</ele>
        <time>2003-04-18T17:00:00Z</time>
      </trkpt>
      <trkpt lat="32.574682999402285" lon="-4.199334997683764">
        <ele>1675.0999999999999</ele>
        <time>2003-04-18T17:00:10Z</time>
      </trkpt>
      <trkpt lat="32.574777966365218" lon="-4.199255034327507">
        <ele>1674.9000000000001</ele>
        <time>2003-04-18T17:00:13Z</time>
      </trkpt>
      <trkpt lat="32.574875028803945" lon="-4.199223015457392">
        <ele>1674.8</ele>
        <time>2003-04-18T17:00:14Z</time>
      </trkpt>
      <trkpt lat="32.574963038787246" lon="-4.199195019900799">
        <ele>1674.8</ele>
        <time>2003-04-18T17:00:17Z</time>
      </trkpt>
      <trkpt lat="32.575063034892082" lon="-4.199298033490777">
        <ele>1674.5</ele>
        <time>2003-04-18T17:00:19Z</time>
      </trkpt>
      <trkpt lat="32.575097987428308" lon="-4.199437005445361">
        <ele>1673.0999999999999</ele>
        <time>2003-04-18T17:00:22Z</time>
      </trkpt>
      <trkpt lat="32.575164958834648" lon="-4.199572037905455">
        <ele>1672.0999999999999</ele>
        <time>2003-04-18T17:00:23Z</time>
      </trkpt>
      <trkpt lat="32.575282976031303" lon="-4.199776975437999">
        <ele>1669.4000000000001</ele>
        <time>2003-04-18T17:00:27Z</time>
      </trkpt>
      <trkpt lat="32.575396969914436" lon="-4.19982198625803">
        <ele>1669.2</ele>
        <time>2003-04-18T17:00:30Z</time>
      </trkpt>
      <trkpt lat="32.575501995161176" lon="-4.19984201900661">
        <ele>1669.3</ele>
        <time>2003-04-18T17:00:34Z</time>
      </trkpt>
      <trkpt lat="32.575650019571185" lon="-4.199745040386915">
        <ele>1668.5999999999999</ele>
        <time>2003-04-18T17:00:41Z</time>
      </trkpt>
      <trkpt lat="32.575812041759491" lon="-4.199683014303446">
        <ele>1670.3</ele>
        <time>2003-04-18T17:00:52Z</time>
      </trkpt>
      <trkpt lat="32.575922012329102" lon="-4.199687959626317">
        <ele>1668.9000000000001</ele>
        <time>2003-04-18T17:00:56Z</time>
      </trkpt>
      <trkpt lat="32.576029971241951" lon="-4.199751997366548">
        <ele>1668.0999999999999</ele>
        <time>2003-04-18T17:00:59Z</time>
      </trkpt>
      <trkpt lat="32.576112030074" lon="-4.199797008186579">
        <ele>1667.8</ele>
        <time>2003-04-18T17:01:01Z</time>
      </trkpt>
      <trkpt lat="32.576208002865314" lon="-4.199819974601269">
        <ele>1667.7</ele>
        <time>2003-04-18T17:01:03Z</time>
      </trkpt>
      <trkpt lat="32.576313028112054" lon="-4.199822992086411">
        <ele>1668.3</ele>
        <time>2003-04-18T17:01:05Z</time>
      </trkpt>
      <trkpt lat="32.576453005895019" lon="-4.199810000136495">
        <ele>1667.9000000000001</ele>
        <time>2003-04-18T17:01:09Z</time>
      </trkpt>
      <trkpt lat="32.576579991728067" lon="-4.199783010408282">
        <ele>1667.5999999999999</ele>
        <time>2003-04-18T17:01:12Z</time>
      </trkpt>
      <trkpt lat="32.576724998652935" lon="-4.199743028730154">
        <ele>1666.9000000000001</ele>
        <time>2003-04-18T17:01:16Z</time>
      </trkpt>
      <trkpt lat="32.57684201002121" lon="-4.199762977659702">
        <ele>1666.9000000000001</ele>
        <time>2003-04-18T17:01:20Z</time>
      </trkpt>
      <trkpt lat="32.576960027217865" lon="-4.199764989316464">
        <ele>1666.8</ele>
        <time>2003-04-18T17:01:23Z</time>
      </trkpt>
      <trkpt lat="32.577075026929379" lon="-4.199773035943508">
        <ele>1666.2</ele>
        <time>2003-04-18T17:01:26Z</time>
      </trkpt>
      <trkpt lat="32.577177034690976" lon="-4.199827015399933">
        <ele>1665.2</ele>
        <time>2003-04-18T17:01:28Z</time>
      </trkpt>
      <trkpt lat="32.577303014695644" lon="-4.199857022613287">
        <ele>1665.4000000000001</ele>
        <time>2003-04-18T17:01:30Z</time>
      </trkpt>
      <trkpt lat="32.577447015792131" lon="-4.199862973764539">
        <ele>1664.9000000000001</ele>
        <time>2003-04-18T17:01:32Z</time>
      </trkpt>
      <trkpt lat="32.577608032152057" lon="-4.199753003194928">
        <ele>1665.3</ele>
        <time>2003-04-18T17:01:36Z</time>
      </trkpt>
      <trkpt lat="32.577797966077924" lon="-4.199616964906454">
        <ele>1664.3</ele>
        <time>2003-04-18T17:01:42Z</time>
      </trkpt>
      <trkpt lat="32.577882036566734" lon="-4.19967002235353">
        <ele>1664.3</ele>
        <time>2003-04-18T17:01:44Z</time>
      </trkpt>
      <trkpt lat="32.578001981601119" lon="-4.199751997366548">
        <ele>1664.2</ele>
        <time>2003-04-18T17:01:47Z</time>
      </trkpt>
      <trkpt lat="32.57804699242115" lon="-4.199845036491752">
        <ele>1664.0999999999999</ele>
        <time>2003-04-18T17:01:50Z</time>
      </trkpt>
      <trkpt lat="32.578098038211465" lon="-4.199937991797924">
        <ele>1664.5</ele>
        <time>2003-04-18T17:01:51Z</time>
      </trkpt>
      <trkpt lat="32.57815201766789" lon="-4.200051985681057">
        <ele>1664.5</ele>
        <time>2003-04-18T17:01:54Z</time>
      </trkpt>
      <trkpt lat="32.578317979350686" lon="-4.200311992317438">
        <ele>1664.3</ele>
        <time>2003-04-18T17:01:59Z</time>
      </trkpt>
      <trkpt lat="32.578413030132651" lon="-4.200333030894399">
        <ele>1663.9000000000001</ele>
        <time>2003-04-18T17:02:02Z</time>
      </trkpt>
      <trkpt lat="32.578506991267204" lon="-4.200260024517775">
        <ele>1663.9000000000001</ele>
        <time>2003-04-18T17:02:06Z</time>
      </trkpt>
      <trkpt lat="32.5785400159657" lon="-4.200145024806261">
        <ele>1664.0999999999999</ele>
        <time>2003-04-18T17:02:07Z</time>
      </trkpt>
      <trkpt lat="32.57856298238039" lon="-4.199876971542835">
        <ele>1664.4000000000001</ele>
        <time>2003-04-18T17:02:11Z</time>
      </trkpt>
      <trkpt lat="32.578592989593744" lon="-4.199383025988936">
        <ele>1664.2</ele>
        <time>2003-04-18T17:02:18Z</time>
      </trkpt>
      <trkpt lat="32.578598018735647" lon="-4.199246987700462">
        <ele>1664.0999999999999</ele>
        <time>2003-04-18T17:02:22Z</time>
      </trkpt>
      <trkpt lat="32.578638000413775" lon="-4.199132993817329">
        <ele>1663.2</ele>
        <time>2003-04-18T17:02:25Z</time>
      </trkpt>
      <trkpt lat="32.578683011233807" lon="-4.199032997712493">
        <ele>1662.8</ele>
        <time>2003-04-18T17:02:29Z</time>
      </trkpt>
      <trkpt lat="32.578742019832134" lon="-4.198948005214334">
        <ele>1663.0999999999999</ele>
        <time>2003-04-18T17:02:33Z</time>
      </trkpt>
      <trkpt lat="32.57886003702879" lon="-4.198972983285785">
        <ele>1662.0999999999999</ele>
        <time>2003-04-18T17:02:37Z</time>
      </trkpt>
      <trkpt lat="32.578952992334962" lon="-4.199072979390621">
        <ele>1661.0999999999999</ele>
        <time>2003-04-18T17:02:41Z</time>
      </trkpt>
      <trkpt lat="32.579024992883205" lon="-4.199172975495458">
        <ele>1661</ele>
        <time>2003-04-18T17:02:44Z</time>
      </trkpt>
      <trkpt lat="32.579177040606737" lon="-4.199397023767233">
        <ele>1660.3</ele>
        <time>2003-04-18T17:02:49Z</time>
      </trkpt>
      <trkpt lat="32.579284999519587" lon="-4.199613025411964">
        <ele>1659.2</ele>
        <time>2003-04-18T17:02:53Z</time>
      </trkpt>
      <trkpt lat="32.579417014494538" lon="-4.199800025671721">
        <ele>1654.5999999999999</ele>
        <time>2003-04-18T17:02:59Z</time>
      </trkpt>
      <trkpt lat="32.579497983679175" lon="-4.199892980977893">
        <ele>1653</ele>
        <time>2003-04-18T17:03:01Z</time>
      </trkpt>
      <trkpt lat="32.579575013369322" lon="-4.199975039809942">
        <ele>1651.5</ele>
        <time>2003-04-18T17:03:05Z</time>
      </trkpt>
      <trkpt lat="32.579666962847114" lon="-4.200007980689406">
        <ele>1650.4000000000001</ele>
        <time>2003-04-18T17:03:09Z</time>
      </trkpt>
      <trkpt lat="32.579757990315557" lon="-4.200013009831309">
        <ele>1643.9000000000001</ele>
        <time>2003-04-18T17:03:20Z</time>
      </trkpt>
      <trkpt lat="32.579844994470477" lon="-4.199976967647672">
        <ele>1643.5</ele>
        <time>2003-04-18T17:03:23Z</time>
      </trkpt>
      <trkpt lat="32.579992013052106" lon="-4.199891975149512">
        <ele>1643.4000000000001</ele>
        <time>2003-04-18T17:03:27Z</time>
      </trkpt>
      <trkpt lat="32.580093014985323" lon="-4.199770018458366">
        <ele>1645.5999999999999</ele>
        <time>2003-04-18T17:03:31Z</time>
      </trkpt>
      <trkpt lat="32.580169960856438" lon="-4.199685025960207">
        <ele>1647.2</ele>
        <time>2003-04-18T17:03:35Z</time>
      </trkpt>
      <trkpt lat="32.580278003588319" lon="-4.199615037068725">
        <ele>1646.8</ele>
        <time>2003-04-18T17:03:41Z</time>
      </trkpt>
      <trkpt lat="32.580370036885142" lon="-4.199658036231995">
        <ele>1647</ele>
        <time>2003-04-18T17:03:45Z</time>
      </trkpt>
      <trkpt lat="32.580512026324868" lon="-4.199772030115128">
        <ele>1647.0999999999999</ele>
        <time>2003-04-18T17:03:50Z</time>
      </trkpt>
      <trkpt lat="32.580655021592975" lon="-4.199952995404601">
        <ele>1648</ele>
        <time>2003-04-18T17:03:54Z</time>
      </trkpt>
      <trkpt lat="32.580747976899147" lon="-4.200073024258018">
        <ele>1648.2</ele>
        <time>2003-04-18T17:03:58Z</time>
      </trkpt>
      <trkpt lat="32.580877980217338" lon="-4.200254995375872">
        <ele>1648.5999999999999</ele>
        <time>2003-04-18T17:04:02Z</time>
      </trkpt>
      <trkpt lat="32.58094796910882" lon="-4.200348034501076">
        <ele>1648.5999999999999</ele>
        <time>2003-04-18T17:04:03Z</time>
      </trkpt>
      <trkpt lat="32.581032961606979" lon="-4.200422968715429">
        <ele>1649.5</ele>
        <time>2003-04-18T17:04:06Z</time>
      </trkpt>
      <trkpt lat="32.581213004887104" lon="-4.20055003836751">
        <ele>1648.2</ele>
        <time>2003-04-18T17:04:10Z</time>
      </trkpt>
      <trkpt lat="32.58133496157825" lon="-4.200547020882368">
        <ele>1647.8</ele>
        <time>2003-04-18T17:04:13Z</time>
      </trkpt>
      <trkpt lat="32.581439986824989" lon="-4.200488012284041">
        <ele>1647.3</ele>
        <time>2003-04-18T17:04:17Z</time>
      </trkpt>
      <trkpt lat="32.58154802955687" lon="-4.200409976765513">
        <ele>1647.3</ele>
        <time>2003-04-18T17:04:20Z</time>
      </trkpt>
      <trkpt lat="32.581788003444672" lon="-4.200233034789562">
        <ele>1647.5</ele>
        <time>2003-04-18T17:04:26Z</time>
      </trkpt>
      <trkpt lat="32.581903003156185" lon="-4.200266981497407">
        <ele>1647.2</ele>
        <time>2003-04-18T17:04:30Z</time>
      </trkpt>
      <trkpt lat="32.581997970119119" lon="-4.200311992317438">
        <ele>1645.5999999999999</ele>
        <time>2003-04-18T17:04:39Z</time>
      </trkpt>
      <trkpt lat="32.582159992307425" lon="-4.200277961790562">
        <ele>1646.4000000000001</ele>
        <time>2003-04-18T17:05:02Z</time>
      </trkpt>
      <trkpt lat="32.582316985353827" lon="-4.20025197789073">
        <ele>1647.3</ele>
        <time>2003-04-18T17:05:15Z</time>
      </trkpt>
      <trkpt lat="32.582374988123775" lon="-4.200115017592907">
        <ele>1647.2</ele>
        <time>2003-04-18T17:05:19Z</time>
      </trkpt>
      <trkpt lat="32.582414969801903" lon="-4.199952995404601">
        <ele>1647.0999999999999</ele>
        <time>2003-04-18T17:05:22Z</time>
      </trkpt>
      <trkpt lat="32.58247297257185" lon="-4.199625011533499">
        <ele>1647.3</ele>
        <time>2003-04-18T17:05:27Z</time>
      </trkpt>
      <trkpt lat="32.582482025027275" lon="-4.199261991307139">
        <ele>1647.7</ele>
        <time>2003-04-18T17:05:31Z</time>
      </trkpt>
      <trkpt lat="32.582471966743469" lon="-4.199069961905479">
        <ele>1647.8</ele>
        <time>2003-04-18T17:05:34Z</time>
      </trkpt>
      <trkpt lat="32.582491999492049" lon="-4.198926966637373">
        <ele>1647.9000000000001</ele>
        <time>2003-04-18T17:05:38Z</time>
      </trkpt>
      <trkpt lat="32.58258000947535" lon="-4.198637958616018">
        <ele>1648.5999999999999</ele>
        <time>2003-04-18T17:05:45Z</time>
      </trkpt>
      <trkpt lat="32.582686962559819" lon="-4.198550032451749">
        <ele>1646.7</ele>
        <time>2003-04-18T17:05:47Z</time>
      </trkpt>
      <trkpt lat="32.582825012505054" lon="-4.198388010263443">
        <ele>1644.7</ele>
        <time>2003-04-18T17:05:51Z</time>
      </trkpt>
      <trkpt lat="32.582982005551457" lon="-4.198126997798681">
        <ele>1645.5</ele>
        <time>2003-04-18T17:05:57Z</time>
      </trkpt>
      <trkpt lat="32.583019975572824" lon="-4.198006968945265">
        <ele>1645.5999999999999</ele>
        <time>2003-04-18T17:05:58Z</time>
      </trkpt>
      <trkpt lat="32.5830730330199" lon="-4.197888029739261">
        <ele>1645.5999999999999</ele>
        <time>2003-04-18T17:06:01Z</time>
      </trkpt>
      <trkpt lat="32.583166994154453" lon="-4.197707986459136">
        <ele>1646.3</ele>
        <time>2003-04-18T17:06:04Z</time>
      </trkpt>
      <trkpt lat="32.58333002217114" lon="-4.197367010638118">
        <ele>1648.4000000000001</ele>
        <time>2003-04-18T17:06:09Z</time>
      </trkpt>
      <trkpt lat="32.583402022719383" lon="-4.197189984843135">
        <ele>1648.4000000000001</ele>
        <time>2003-04-18T17:06:13Z</time>
      </trkpt>
      <trkpt lat="32.58346295915544" lon="-4.19707003980875">
        <ele>1649.2</ele>
        <time>2003-04-18T17:06:14Z</time>
      </trkpt>
      <trkpt lat="32.583575025200844" lon="-4.19677197933197">
        <ele>1649.9000000000001</ele>
        <time>2003-04-18T17:06:20Z</time>
      </trkpt>
      <trkpt lat="32.5836549885571" lon="-4.196537034586072">
        <ele>1650.3</ele>
        <time>2003-04-18T17:06:24Z</time>
      </trkpt>
      <trkpt lat="32.58369698189199" lon="-4.196422034874558">
        <ele>1650.2</ele>
        <time>2003-04-18T17:06:25Z</time>
      </trkpt>
      <trkpt lat="32.583750039339066" lon="-4.196308040991426">
        <ele>1650.8</ele>
        <time>2003-04-18T17:06:28Z</time>
      </trkpt>
      <trkpt lat="32.583797983825207" lon="-4.196197986602783">
        <ele>1650.7</ele>
        <time>2003-04-18T17:06:31Z</time>
      </trkpt>
      <trkpt lat="32.583862021565437" lon="-4.196102013811469">
        <ele>1649.8</ele>
        <time>2003-04-18T17:06:35Z</time>
      </trkpt>
      <trkpt lat="32.583920024335384" lon="-4.196002017706633">
        <ele>1648.9000000000001</ele>
        <time>2003-04-18T17:06:39Z</time>
      </trkpt>
      <trkpt lat="32.583956988528371" lon="-4.195894980803132">
        <ele>1647.9000000000001</ele>
        <time>2003-04-18T17:06:44Z</time>
      </trkpt>
      <trkpt lat="32.584035024046898" lon="-4.195785010233522">
        <ele>1647.9000000000001</ele>
        <time>2003-04-18T17:06:50Z</time>
      </trkpt>
      <trkpt lat="32.58412797935307" lon="-4.195728013291955">
        <ele>1647.5999999999999</ele>
        <time>2003-04-18T17:06:55Z</time>
      </trkpt>
      <trkpt lat="32.584220012649894" lon="-4.195667998865247">
        <ele>1647.3</ele>
        <time>2003-04-18T17:07:00Z</time>
      </trkpt>
      <trkpt lat="32.584317997097969" lon="-4.195681996643543">
        <ele>1645.3</ele>
        <time>2003-04-18T17:07:04Z</time>
      </trkpt>
      <trkpt lat="32.584440037608147" lon="-4.195817029103637">
        <ele>1643.4000000000001</ele>
        <time>2003-04-18T17:07:17Z</time>
      </trkpt>
      <trkpt lat="32.584520000964403" lon="-4.195892969146371">
        <ele>1642.5999999999999</ele>
        <time>2003-04-18T17:07:21Z</time>
      </trkpt>
      <trkpt lat="32.58457699790597" lon="-4.196022972464562">
        <ele>1641.3</ele>
        <time>2003-04-18T17:07:25Z</time>
      </trkpt>
      <trkpt lat="32.584627959877253" lon="-4.196167979389429">
        <ele>1640.5</ele>
        <time>2003-04-18T17:07:27Z</time>
      </trkpt>
      <trkpt lat="32.584659978747368" lon="-4.196409964933991">
        <ele>1639.5</ele>
        <time>2003-04-18T17:07:33Z</time>
      </trkpt>
      <trkpt lat="32.584612034261227" lon="-4.196550026535988">
        <ele>1639.7</ele>
        <time>2003-04-18T17:07:35Z</time>
      </trkpt>
      <trkpt lat="32.584529975429177" lon="-4.196759993210435">
        <ele>1639.3</ele>
        <time>2003-04-18T17:07:42Z</time>
      </trkpt>
      <trkpt lat="32.584420004859567" lon="-4.196956967934966">
        <ele>1640.0999999999999</ele>
        <time>2003-04-18T17:07:49Z</time>
      </trkpt>
      <trkpt lat="32.584386980161071" lon="-4.19707003980875">
        <ele>1640.5</ele>
        <time>2003-04-18T17:07:53Z</time>
      </trkpt>
      <trkpt lat="32.58434196934104" lon="-4.197213035076857">
        <ele>1640.5999999999999</ele>
        <time>2003-04-18T17:08:00Z</time>
      </trkpt>
      <trkpt lat="32.584367031231523" lon="-4.19737002812326">
        <ele>1636.9000000000001</ele>
        <time>2003-04-18T17:08:20Z</time>
      </trkpt>
      <trkpt lat="32.584432996809483" lon="-4.197510005906224">
        <ele>1637</ele>
        <time>2003-04-18T17:08:47Z</time>
      </trkpt>
      <trkpt lat="32.584512960165739" lon="-4.197689965367317">
        <ele>1636.8</ele>
        <time>2003-04-18T17:09:03Z</time>
      </trkpt>
      <trkpt lat="32.584612034261227" lon="-4.197727013379335">
        <ele>1636.5999999999999</ele>
        <time>2003-04-18T17:09:07Z</time>
      </trkpt>
      <trkpt lat="32.584712030366063" lon="-4.197697006165981">
        <ele>1637</ele>
        <time>2003-04-18T17:09:10Z</time>
      </trkpt>
      <trkpt lat="32.584847984835505" lon="-4.197612013667822">
        <ele>1637.0999999999999</ele>
        <time>2003-04-18T17:09:14Z</time>
      </trkpt>
      <trkpt lat="32.585112014785409" lon="-4.197380002588034">
        <ele>1637.2</ele>
        <time>2003-04-18T17:09:21Z</time>
      </trkpt>
      <trkpt lat="32.585198013111949" lon="-4.19724497012794">
        <ele>1637.4000000000001</ele>
        <time>2003-04-18T17:09:23Z</time>
      </trkpt>
      <trkpt lat="32.585340002551675" lon="-4.197047995403409">
        <ele>1637.8</ele>
        <time>2003-04-18T17:09:26Z</time>
      </trkpt>
      <trkpt lat="32.585427006706595" lon="-4.196922015398741">
        <ele>1638.5</ele>
        <time>2003-04-18T17:09:29Z</time>
      </trkpt>
      <trkpt lat="32.585492972284555" lon="-4.196784971281886">
        <ele>1638.5999999999999</ele>
        <time>2003-04-18T17:09:30Z</time>
      </trkpt>
      <trkpt lat="32.585642002522945" lon="-4.196488000452519">
        <ele>1639.5</ele>
        <time>2003-04-18T17:09:36Z</time>
      </trkpt>
      <trkpt lat="32.585821961984038" lon="-4.196215001866221">
        <ele>1640</ele>
        <time>2003-04-18T17:09:41Z</time>
      </trkpt>
      <trkpt lat="32.585887005552649" lon="-4.196097990497947">
        <ele>1640.5</ele>
        <time>2003-04-18T17:09:42Z</time>
      </trkpt>
      <trkpt lat="32.585969986394048" lon="-4.196002017706633">
        <ele>1640.9000000000001</ele>
        <time>2003-04-18T17:09:45Z</time>
      </trkpt>
      <trkpt lat="32.586069982498884" lon="-4.195913001894951">
        <ele>1640.7</ele>
        <time>2003-04-18T17:09:48Z</time>
      </trkpt>
      <trkpt lat="32.586148018017411" lon="-4.195842007175088">
        <ele>1639.4000000000001</ele>
        <time>2003-04-18T17:09:52Z</time>
      </trkpt>
      <trkpt lat="32.586250025779009" lon="-4.195798002183437">
        <ele>1638.5999999999999</ele>
        <time>2003-04-18T17:09:56Z</time>
      </trkpt>
      <trkpt lat="32.586353039368987" lon="-4.195777969434857">
        <ele>1638.4000000000001</ele>
        <time>2003-04-18T17:09:59Z</time>
      </trkpt>
      <trkpt lat="32.58646703325212" lon="-4.19578299857676">
        <ele>1637.5</ele>
        <time>2003-04-18T17:10:01Z</time>
      </trkpt>
      <trkpt lat="32.58664196357131" lon="-4.195788027718663">
        <ele>1636.5</ele>
        <time>2003-04-18T17:10:05Z</time>
      </trkpt>
      <trkpt lat="32.586789987981319" lon="-4.195772018283606">
        <ele>1635.5</ele>
        <time>2003-04-18T17:10:11Z</time>
      </trkpt>
      <trkpt lat="32.586893001571298" lon="-4.195770006626844">
        <ele>1635.5999999999999</ele>
        <time>2003-04-18T17:10:15Z</time>
      </trkpt>
      <trkpt lat="32.587000038474798" lon="-4.195657018572092">
        <ele>1635.7</ele>
        <time>2003-04-18T17:10:34Z</time>
      </trkpt>
      <trkpt lat="32.587029961869121" lon="-4.195530032739043">
        <ele>1634.7</ele>
        <time>2003-04-18T17:10:43Z</time>
      </trkpt>
      <trkpt lat="32.587044965475798" lon="-4.195416960865259">
        <ele>1634.4000000000001</ele>
        <time>2003-04-18T17:10:47Z</time>
      </trkpt>
      <trkpt lat="32.587117971852422" lon="-4.195336997509003">
        <ele>1634</ele>
        <time>2003-04-18T17:10:50Z</time>
      </trkpt>
      <trkpt lat="32.587201958522201" lon="-4.195206994190812">
        <ele>1633.8</ele>
        <time>2003-04-18T17:10:54Z</time>
      </trkpt>
      <trkpt lat="32.58730698376894" lon="-4.195161983370781">
        <ele>1633.8</ele>
        <time>2003-04-18T17:10:57Z</time>
      </trkpt>
      <trkpt lat="32.587509993463755" lon="-4.195053018629551">
        <ele>1633.2</ele>
        <time>2003-04-18T17:11:05Z</time>
      </trkpt>
      <trkpt lat="32.587567996233702" lon="-4.19494497589767">
        <ele>1633.0999999999999</ele>
        <time>2003-04-18T17:11:07Z</time>
      </trkpt>
      <trkpt lat="32.587587023153901" lon="-4.194787982851267">
        <ele>1633.2</ele>
        <time>2003-04-18T17:11:10Z</time>
      </trkpt>
      <trkpt lat="32.587615018710494" lon="-4.194654962047935">
        <ele>1633.3</ele>
        <time>2003-04-18T17:11:13Z</time>
      </trkpt>
      <trkpt lat="32.587634967640042" lon="-4.194459998980165">
        <ele>1633.2</ele>
        <time>2003-04-18T17:11:15Z</time>
      </trkpt>
      <trkpt lat="32.587662041187286" lon="-4.194357991218567">
        <ele>1633.0999999999999</ele>
        <time>2003-04-18T17:11:18Z</time>
      </trkpt>
      <trkpt lat="32.587745022028685" lon="-4.194232011213899">
        <ele>1633.5999999999999</ele>
        <time>2003-04-18T17:11:22Z</time>
      </trkpt>
      <trkpt lat="32.587854992598295" lon="-4.19425698928535">
        <ele>1633.9000000000001</ele>
        <time>2003-04-18T17:11:25Z</time>
      </trkpt>
      <trkpt lat="32.587963035330176" lon="-4.194456981495023">
        <ele>1634.2</ele>
        <time>2003-04-18T17:11:32Z</time>
      </trkpt>
      <trkpt lat="32.588024977594614" lon="-4.194548008963466">
        <ele>1633.4000000000001</ele>
        <time>2003-04-18T17:11:36Z</time>
      </trkpt>
      <trkpt lat="32.588111981749535" lon="-4.194587990641594">
        <ele>1633.4000000000001</ele>
        <time>2003-04-18T17:11:38Z</time>
      </trkpt>
      <trkpt lat="32.5882070325315" lon="-4.194610035046935">
        <ele>1633.4000000000001</ele>
        <time>2003-04-18T17:11:41Z</time>
      </trkpt>
      <trkpt lat="32.588314991444349" lon="-4.19468798674643">
        <ele>1633.8</ele>
        <time>2003-04-18T17:11:45Z</time>
      </trkpt>
      <trkpt lat="32.588433008641005" lon="-4.194682035595179">
        <ele>1633</ele>
        <time>2003-04-18T17:11:48Z</time>
      </trkpt>
      <trkpt lat="32.58855496533215" lon="-4.194657979533076">
        <ele>1631.0999999999999</ele>
        <time>2003-04-18T17:11:51Z</time>
      </trkpt>
      <trkpt lat="32.588641969487071" lon="-4.194616992026568">
        <ele>1630.0999999999999</ele>
        <time>2003-04-18T17:11:52Z</time>
      </trkpt>
      <trkpt lat="32.58883198723197" lon="-4.194423034787178">
        <ele>1628.2</ele>
        <time>2003-04-18T17:12:00Z</time>
      </trkpt>
      <trkpt lat="32.588808014988899" lon="-4.194290013983846">
        <ele>1628.0999999999999</ele>
        <time>2003-04-18T17:12:03Z</time>
      </trkpt>
      <trkpt lat="32.588804997503757" lon="-4.194152969866991">
        <ele>1628.0999999999999</ele>
        <time>2003-04-18T17:12:05Z</time>
      </trkpt>
      <trkpt lat="32.588812038302422" lon="-4.194026989862323">
        <ele>1627.5999999999999</ele>
        <time>2003-04-18T17:12:08Z</time>
      </trkpt>
      <trkpt lat="32.588883033022285" lon="-4.193885000422597">
        <ele>1627.2</ele>
        <time>2003-04-18T17:12:12Z</time>
      </trkpt>
      <trkpt lat="32.588985040783882" lon="-4.193766983225942">
        <ele>1627.3</ele>
        <time>2003-04-18T17:12:15Z</time>
      </trkpt>
      <trkpt lat="32.589059974998236" lon="-4.193702023476362">
        <ele>1626.9000000000001</ele>
        <time>2003-04-18T17:12:16Z</time>
      </trkpt>
      <trkpt lat="32.589165000244975" lon="-4.193643014878035">
        <ele>1626.2</ele>
        <time>2003-04-18T17:12:19Z</time>
      </trkpt>
      <trkpt lat="32.589272959157825" lon="-4.193633040413261">
        <ele>1626.2</ele>
        <time>2003-04-18T17:12:23Z</time>
      </trkpt>
      <trkpt lat="32.589376978576183" lon="-4.193658018484712">
        <ele>1626.2</ele>
        <time>2003-04-18T17:12:26Z</time>
      </trkpt>
      <trkpt lat="32.589479992166162" lon="-4.193737981840968">
        <ele>1626.2</ele>
        <time>2003-04-18T17:12:28Z</time>
      </trkpt>
      <trkpt lat="32.589557021856308" lon="-4.193836972117424">
        <ele>1626.2</ele>
        <time>2003-04-18T17:12:31Z</time>
      </trkpt>
      <trkpt lat="32.589658023789525" lon="-4.193966975435615">
        <ele>1626.2</ele>
        <time>2003-04-18T17:12:34Z</time>
      </trkpt>
      <trkpt lat="32.58986203931272" lon="-4.194175014272332">
        <ele>1624.9000000000001</ele>
        <time>2003-04-18T17:12:39Z</time>
      </trkpt>
      <trkpt lat="32.589952982962132" lon="-4.194205021485686">
        <ele>1624</ele>
        <time>2003-04-18T17:12:42Z</time>
      </trkpt>
      <trkpt lat="32.59007996879518" lon="-4.194242991507053">
        <ele>1623.4000000000001</ele>
        <time>2003-04-18T17:12:45Z</time>
      </trkpt>
      <trkpt lat="32.590196980163455" lon="-4.19425799511373">
        <ele>1623.5</ele>
        <time>2003-04-18T17:12:47Z</time>
      </trkpt>
      <trkpt lat="32.590322038158774" lon="-4.194248020648956">
        <ele>1623.5</ele>
        <time>2003-04-18T17:12:50Z</time>
      </trkpt>
      <trkpt lat="32.590445000678301" lon="-4.194207033142448">
        <ele>1623.5</ele>
        <time>2003-04-18T17:12:54Z</time>
      </trkpt>
      <trkpt lat="32.590557988733053" lon="-4.194142995402217">
        <ele>1623.0999999999999</ele>
        <time>2003-04-18T17:12:57Z</time>
      </trkpt>
      <trkpt lat="32.590650022029877" lon="-4.194047022610903">
        <ele>1622.3</ele>
        <time>2003-04-18T17:12:59Z</time>
      </trkpt>
      <trkpt lat="32.590757980942726" lon="-4.193862034007907">
        <ele>1621.7</ele>
        <time>2003-04-18T17:13:03Z</time>
      </trkpt>
      <trkpt lat="32.590844985097647" lon="-4.193627005442977">
        <ele>1622.0999999999999</ele>
        <time>2003-04-18T17:13:08Z</time>
      </trkpt>
      <trkpt lat="32.590869963169098" lon="-4.193492978811264">
        <ele>1622.3</ele>
        <time>2003-04-18T17:13:10Z</time>
      </trkpt>
      <trkpt lat="32.590880021452904" lon="-4.193221991881728">
        <ele>1621.3</ele>
        <time>2003-04-18T17:13:13Z</time>
      </trkpt>
      <trkpt lat="32.590868035331368" lon="-4.192961985245347">
        <ele>1620.8</ele>
        <time>2003-04-18T17:13:17Z</time>
      </trkpt>
      <trkpt lat="32.590944981202483" lon="-4.19260298833251">
        <ele>1619.4000000000001</ele>
        <time>2003-04-18T17:13:25Z</time>
      </trkpt>
      <trkpt lat="32.591012036427855" lon="-4.192510033026338">
        <ele>1619.8</ele>
        <time>2003-04-18T17:13:26Z</time>
      </trkpt>
      <trkpt lat="32.591161988675594" lon="-4.19236502610147">
        <ele>1619.3</ele>
        <time>2003-04-18T17:13:29Z</time>
      </trkpt>
      <trkpt lat="32.591262990608811" lon="-4.192244997248054">
        <ele>1619.2</ele>
        <time>2003-04-18T17:13:32Z</time>
      </trkpt>
      <trkpt lat="32.591342031955719" lon="-4.192111976444721">
        <ele>1618.9000000000001</ele>
        <time>2003-04-18T17:13:33Z</time>
      </trkpt>
      <trkpt lat="32.591519979760051" lon="-4.191818023100495">
        <ele>1618.5</ele>
        <time>2003-04-18T17:13:39Z</time>
      </trkpt>
      <trkpt lat="32.591636991128325" lon="-4.191703023388982">
        <ele>1617.4000000000001</ele>
        <time>2003-04-18T17:13:41Z</time>
      </trkpt>
      <trkpt lat="32.591740004718304" lon="-4.191669998690486">
        <ele>1617.3</ele>
        <time>2003-04-18T17:13:44Z</time>
      </trkpt>
      <trkpt lat="32.59184000082314" lon="-4.191703023388982">
        <ele>1617.3</ele>
        <time>2003-04-18T17:13:48Z</time>
      </trkpt>
      <trkpt lat="32.591890040785074" lon="-4.191843001171947">
        <ele>1617.3</ele>
        <time>2003-04-18T17:13:52Z</time>
      </trkpt>
      <trkpt lat="32.59188199415803" lon="-4.191975016146898">
        <ele>1617.3</ele>
        <time>2003-04-18T17:13:55Z</time>
      </trkpt>
      <trkpt lat="32.591836983337998" lon="-4.192813038825989">
        <ele>1617.2</ele>
        <time>2003-04-18T17:14:07Z</time>
      </trkpt>
      <trkpt lat="32.59186196140945" lon="-4.192931978031993">
        <ele>1617.2</ele>
        <time>2003-04-18T17:14:10Z</time>
      </trkpt>
      <trkpt lat="32.591985007748008" lon="-4.193000039085746">
        <ele>1617.2</ele>
        <time>2003-04-18T17:14:11Z</time>
      </trkpt>
      <trkpt lat="32.592145018279552" lon="-4.193095006048679">
        <ele>1617.2</ele>
        <time>2003-04-18T17:14:15Z</time>
      </trkpt>
      <trkpt lat="32.592257000505924" lon="-4.193142028525472">
        <ele>1617.0999999999999</ele>
        <time>2003-04-18T17:14:16Z</time>
      </trkpt>
      <trkpt lat="32.592375017702579" lon="-4.193158037960529">
        <ele>1616.4000000000001</ele>
        <time>2003-04-18T17:14:19Z</time>
      </trkpt>
      <trkpt lat="32.592812972143292" lon="-4.193201959133148">
        <ele>1616.3</ele>
        <time>2003-04-18T17:14:26Z</time>
      </trkpt>
      <trkpt lat="32.592911962419748" lon="-4.193102968856692">
        <ele>1616.3</ele>
        <time>2003-04-18T17:14:27Z</time>
      </trkpt>
      <trkpt lat="32.593016987666488" lon="-4.192972965538502">
        <ele>1616.2</ele>
        <time>2003-04-18T17:14:30Z</time>
      </trkpt>
      <trkpt lat="32.593157971277833" lon="-4.192784959450364">
        <ele>1614.9000000000001</ele>
        <time>2003-04-18T17:14:33Z</time>
      </trkpt>
      <trkpt lat="32.593465000391006" lon="-4.192468039691448">
        <ele>1614</ele>
        <time>2003-04-18T17:14:38Z</time>
      </trkpt>
      <trkpt lat="32.593653006479144" lon="-4.192353039979935">
        <ele>1613.9000000000001</ele>
        <time>2003-04-18T17:14:42Z</time>
      </trkpt>
      <trkpt lat="32.593779992312193" lon="-4.192265029996634">
        <ele>1613.9000000000001</ele>
        <time>2003-04-18T17:14:43Z</time>
      </trkpt>
      <trkpt lat="32.594237979501486" lon="-4.191907960921526">
        <ele>1611.0999999999999</ele>
        <time>2003-04-18T17:14:51Z</time>
      </trkpt>
      <trkpt lat="32.594334958121181" lon="-4.191845012828708">
        <ele>1610.9000000000001</ele>
        <time>2003-04-18T17:14:54Z</time>
      </trkpt>
      <trkpt lat="32.594524975866079" lon="-4.191707968711853">
        <ele>1609.2</ele>
        <time>2003-04-18T17:14:58Z</time>
      </trkpt>
      <trkpt lat="32.594648022204638" lon="-4.191582994535565">
        <ele>1608</ele>
        <time>2003-04-18T17:15:01Z</time>
      </trkpt>
      <trkpt lat="32.594772996380925" lon="-4.191419966518879">
        <ele>1607</ele>
        <time>2003-04-18T17:15:05Z</time>
      </trkpt>
      <trkpt lat="32.594852037727833" lon="-4.191245036199689">
        <ele>1607</ele>
        <time>2003-04-18T17:15:08Z</time>
      </trkpt>
      <trkpt lat="32.595026968047023" lon="-4.190755030140281">
        <ele>1606.0999999999999</ele>
        <time>2003-04-18T17:15:17Z</time>
      </trkpt>
      <trkpt lat="32.595065021887422" lon="-4.190642964094877">
        <ele>1605.9000000000001</ele>
        <time>2003-04-18T17:15:18Z</time>
      </trkpt>
      <trkpt lat="32.59512796998024" lon="-4.190383041277528">
        <ele>1605.2</ele>
        <time>2003-04-18T17:15:23Z</time>
      </trkpt>
      <trkpt lat="32.595138028264046" lon="-4.190233005210757">
        <ele>1604.5</ele>
        <time>2003-04-18T17:15:25Z</time>
      </trkpt>
      <trkpt lat="32.595150014385581" lon="-4.18944301083684">
        <ele>1603.5999999999999</ele>
        <time>2003-04-18T17:15:36Z</time>
      </trkpt>
      <trkpt lat="32.595129981637001" lon="-4.188934983685613">
        <ele>1601.5999999999999</ele>
        <time>2003-04-18T17:15:48Z</time>
      </trkpt>
      <trkpt lat="32.595097962766886" lon="-4.188772961497307">
        <ele>1600.8</ele>
        <time>2003-04-18T17:15:52Z</time>
      </trkpt>
      <trkpt lat="32.59512796998024" lon="-4.188657961785793">
        <ele>1600.5999999999999</ele>
        <time>2003-04-18T17:15:55Z</time>
      </trkpt>
      <trkpt lat="32.595169963315129" lon="-4.188559977337718">
        <ele>1600.2</ele>
        <time>2003-04-18T17:15:58Z</time>
      </trkpt>
      <trkpt lat="32.595259984955192" lon="-4.188361996784806">
        <ele>1599.5999999999999</ele>
        <time>2003-04-18T17:16:03Z</time>
      </trkpt>
      <trkpt lat="32.595365010201931" lon="-4.188167033717036">
        <ele>1600.2</ele>
        <time>2003-04-18T17:16:07Z</time>
      </trkpt>
      <trkpt lat="32.595499958842993" lon="-4.187888000160456">
        <ele>1600.2</ele>
        <time>2003-04-18T17:16:11Z</time>
      </trkpt>
      <trkpt lat="32.59555502794683" lon="-4.187796972692013">
        <ele>1599.8</ele>
        <time>2003-04-18T17:16:14Z</time>
      </trkpt>
      <trkpt lat="32.595843030139804" lon="-4.187385002151132">
        <ele>1599.5</ele>
        <time>2003-04-18T17:16:23Z</time>
      </trkpt>
      <trkpt lat="32.59598501957953" lon="-4.187248041853309">
        <ele>1598.3</ele>
        <time>2003-04-18T17:16:30Z</time>
      </trkpt>
      <trkpt lat="32.596204960718751" lon="-4.187032040208578">
        <ele>1595.7</ele>
        <time>2003-04-18T17:16:42Z</time>
      </trkpt>
      <trkpt lat="32.596288025379181" lon="-4.186900025233626">
        <ele>1595.0999999999999</ele>
        <time>2003-04-18T17:16:48Z</time>
      </trkpt>
      <trkpt lat="32.596332030370831" lon="-4.186747977510095">
        <ele>1595.5</ele>
        <time>2003-04-18T17:16:53Z</time>
      </trkpt>
      <trkpt lat="32.596336975693703" lon="-4.186586961150169">
        <ele>1595.4000000000001</ele>
        <time>2003-04-18T17:16:57Z</time>
      </trkpt>
      <trkpt lat="32.596358014270663" lon="-4.18607197701931">
        <ele>1593.9000000000001</ele>
        <time>2003-04-18T17:17:08Z</time>
      </trkpt>
      <trkpt lat="32.596422974020243" lon="-4.185781963169575">
        <ele>1592.8</ele>
        <time>2003-04-18T17:17:16Z</time>
      </trkpt>
      <trkpt lat="32.596460022032261" lon="-4.185642991214991">
        <ele>1592.5</ele>
        <time>2003-04-18T17:17:20Z</time>
      </trkpt>
      <trkpt lat="32.596512995660305" lon="-4.185405028983951">
        <ele>1593</ele>
        <time>2003-04-18T17:17:27Z</time>
      </trkpt>
      <trkpt lat="32.596584996208549" lon="-4.185206964612007">
        <ele>1593.3</ele>
        <time>2003-04-18T17:17:32Z</time>
      </trkpt>
      <trkpt lat="32.596620032563806" lon="-4.185090037062764">
        <ele>1592.9000000000001</ele>
        <time>2003-04-18T17:17:35Z</time>
      </trkpt>
      <trkpt lat="32.59669303894043" lon="-4.18501996435225">
        <ele>1592.5999999999999</ele>
        <time>2003-04-18T17:17:38Z</time>
      </trkpt>
      <trkpt lat="32.596856988966465" lon="-4.18488702736795">
        <ele>1591.2</ele>
        <time>2003-04-18T17:17:43Z</time>
      </trkpt>
      <trkpt lat="32.596950028091669" lon="-4.18486699461937">
        <ele>1590.7</ele>
        <time>2003-04-18T17:17:47Z</time>
      </trkpt>
      <trkpt lat="32.597042983397841" lon="-4.184876969084144">
        <ele>1590.4000000000001</ele>
        <time>2003-04-18T17:17:50Z</time>
      </trkpt>
      <trkpt lat="32.597239958122373" lon="-4.184917034581304">
        <ele>1589.9000000000001</ele>
        <time>2003-04-18T17:17:55Z</time>
      </trkpt>
      <trkpt lat="32.597459983080626" lon="-4.184964979067445">
        <ele>1589.0999999999999</ele>
        <time>2003-04-18T17:17:59Z</time>
      </trkpt>
      <trkpt lat="32.597550004720688" lon="-4.184958022087812">
        <ele>1588.9000000000001</ele>
        <time>2003-04-18T17:18:02Z</time>
      </trkpt>
      <trkpt lat="32.59768302552402" lon="-4.18493296019733">
        <ele>1588.5999999999999</ele>
        <time>2003-04-18T17:18:05Z</time>
      </trkpt>
      <trkpt lat="32.597761983051896" lon="-4.184876969084144">
        <ele>1588.4000000000001</ele>
        <time>2003-04-18T17:18:07Z</time>
      </trkpt>
      <trkpt lat="32.597849993035197" lon="-4.184832964092493">
        <ele>1588.2</ele>
        <time>2003-04-18T17:18:09Z</time>
      </trkpt>
      <trkpt lat="32.597942026332021" lon="-4.184783007949591">
        <ele>1587.9000000000001</ele>
        <time>2003-04-18T17:18:10Z</time>
      </trkpt>
      <trkpt lat="32.598012015223503" lon="-4.18469499796629">
        <ele>1587.7</ele>
        <time>2003-04-18T17:18:13Z</time>
      </trkpt>
      <trkpt lat="32.598045039921999" lon="-4.184587961062789">
        <ele>1587.5</ele>
        <time>2003-04-18T17:18:14Z</time>
      </trkpt>
      <trkpt lat="32.598045039921999" lon="-4.184472039341927">
        <ele>1587.2</ele>
        <time>2003-04-18T17:18:17Z</time>
      </trkpt>
      <trkpt lat="32.598042022436857" lon="-4.184338012710214">
        <ele>1586.9000000000001</ele>
        <time>2003-04-18T17:18:18Z</time>
      </trkpt>
      <trkpt lat="32.598042022436857" lon="-4.184204991906881">
        <ele>1586.8</ele>
        <time>2003-04-18T17:18:21Z</time>
      </trkpt>
      <trkpt lat="32.598015032708645" lon="-4.18409300968051">
        <ele>1586.7</ele>
        <time>2003-04-18T17:18:22Z</time>
      </trkpt>
      <trkpt lat="32.597967004403472" lon="-4.183963006362319">
        <ele>1586.2</ele>
        <time>2003-04-18T17:18:26Z</time>
      </trkpt>
      <trkpt lat="32.597974967211485" lon="-4.183829985558987">
        <ele>1586.9000000000001</ele>
        <time>2003-04-18T17:18:29Z</time>
      </trkpt>
      <trkpt lat="32.597987959161401" lon="-4.183614989742637">
        <ele>1586.4000000000001</ele>
        <time>2003-04-18T17:18:34Z</time>
      </trkpt>
      <trkpt lat="32.597987037152052" lon="-4.18349496088922">
        <ele>1586.0999999999999</ele>
        <time>2003-04-18T17:18:37Z</time>
      </trkpt>
      <trkpt lat="32.597989970818162" lon="-4.183388007804751">
        <ele>1585.9000000000001</ele>
        <time>2003-04-18T17:18:40Z</time>
      </trkpt>
      <trkpt lat="32.597998017445207" lon="-4.183069998398423">
        <ele>1585.3</ele>
        <time>2003-04-18T17:18:46Z</time>
      </trkpt>
      <trkpt lat="32.5980069860816" lon="-4.182867994531989">
        <ele>1585.2</ele>
        <time>2003-04-18T17:18:50Z</time>
      </trkpt>
      <trkpt lat="32.598012015223503" lon="-4.182540010660887">
        <ele>1583.8</ele>
        <time>2003-04-18T17:18:57Z</time>
      </trkpt>
      <trkpt lat="32.597974967211485" lon="-4.182407995685935">
        <ele>1584</ele>
        <time>2003-04-18T17:19:00Z</time>
      </trkpt>
      <trkpt lat="32.597934985533357" lon="-4.182282015681267">
        <ele>1582.8</ele>
        <time>2003-04-18T17:19:04Z</time>
      </trkpt>
      <trkpt lat="32.597925011068583" lon="-4.182101972401142">
        <ele>1583.2</ele>
        <time>2003-04-18T17:19:08Z</time>
      </trkpt>
      <trkpt lat="32.597925011068583" lon="-4.181956965476275">
        <ele>1582</ele>
        <time>2003-04-18T17:19:12Z</time>
      </trkpt>
      <trkpt lat="32.597872037440538" lon="-4.181823022663593">
        <ele>1581.3</ele>
        <time>2003-04-18T17:19:16Z</time>
      </trkpt>
      <trkpt lat="32.597797019407153" lon="-4.18173199519515">
        <ele>1581.4000000000001</ele>
        <time>2003-04-18T17:19:20Z</time>
      </trkpt>
      <trkpt lat="32.597742034122348" lon="-4.181638034060597">
        <ele>1579.7</ele>
        <time>2003-04-18T17:19:24Z</time>
      </trkpt>
      <trkpt lat="32.597713032737374" lon="-4.181511970236898">
        <ele>1579.9000000000001</ele>
        <time>2003-04-18T17:19:28Z</time>
      </trkpt>
      <trkpt lat="32.597770029678941" lon="-4.181418009102345">
        <ele>1581.3</ele>
        <time>2003-04-18T17:19:50Z</time>
      </trkpt>
      <trkpt lat="32.597789978608489" lon="-4.181263027712703">
        <ele>1582.2</ele>
        <time>2003-04-18T17:19:54Z</time>
      </trkpt>
      <trkpt lat="32.597757959738374" lon="-4.181012995541096">
        <ele>1583.4000000000001</ele>
        <time>2003-04-18T17:19:57Z</time>
      </trkpt>
      <trkpt lat="32.597765000537038" lon="-4.180834963917732">
        <ele>1583.9000000000001</ele>
        <time>2003-04-18T17:19:58Z</time>
      </trkpt>
      <trkpt lat="32.597743039950728" lon="-4.180466998368502">
        <ele>1583.5</ele>
        <time>2003-04-18T17:20:02Z</time>
      </trkpt>
      <trkpt lat="32.597668021917343" lon="-4.180143037810922">
        <ele>1582.8</ele>
        <time>2003-04-18T17:20:06Z</time>
      </trkpt>
      <trkpt lat="32.59755696170032" lon="-4.179842965677381">
        <ele>1581.9000000000001</ele>
        <time>2003-04-18T17:20:10Z</time>
      </trkpt>
      <trkpt lat="32.597562996670604" lon="-4.179686978459358">
        <ele>1582</ele>
        <time>2003-04-18T17:20:13Z</time>
      </trkpt>
      <trkpt lat="32.597629968076944" lon="-4.179539959877729">
        <ele>1582</ele>
        <time>2003-04-18T17:20:15Z</time>
      </trkpt>
      <trkpt lat="32.59787698276341" lon="-4.179075015708804">
        <ele>1583.9000000000001</ele>
        <time>2003-04-18T17:20:22Z</time>
      </trkpt>
      <trkpt lat="32.598102036863565" lon="-4.178717024624348">
        <ele>1585.7</ele>
        <time>2003-04-18T17:20:25Z</time>
      </trkpt>
      <trkpt lat="32.598313009366393" lon="-4.178246967494488">
        <ele>1580.2</ele>
        <time>2003-04-18T17:20:32Z</time>
      </trkpt>
      <trkpt lat="32.598497997969389" lon="-4.178032977506518">
        <ele>1575.8</ele>
        <time>2003-04-18T17:20:37Z</time>
      </trkpt>
      <trkpt lat="32.59862800128758" lon="-4.177876990288496">
        <ele>1575.4000000000001</ele>
        <time>2003-04-18T17:20:38Z</time>
      </trkpt>
      <trkpt lat="32.598712993785739" lon="-4.177742041647434">
        <ele>1575.2</ele>
        <time>2003-04-18T17:20:41Z</time>
      </trkpt>
      <trkpt lat="32.598848026245832" lon="-4.177512964233756">
        <ele>1576</ele>
        <time>2003-04-18T17:20:47Z</time>
      </trkpt>
      <trkpt lat="32.598918015137315" lon="-4.177310038357973">
        <ele>1576.7</ele>
        <time>2003-04-18T17:20:49Z</time>
      </trkpt>
      <trkpt lat="32.598967971280217" lon="-4.177178023383021">
        <ele>1576</ele>
        <time>2003-04-18T17:20:52Z</time>
      </trkpt>
      <trkpt lat="32.599063022062182" lon="-4.176978031173348">
        <ele>1574.0999999999999</ele>
        <time>2003-04-18T17:20:55Z</time>
      </trkpt>
      <trkpt lat="32.599172992631793" lon="-4.176881974563003">
        <ele>1572.5999999999999</ele>
        <time>2003-04-18T17:20:56Z</time>
      </trkpt>
      <trkpt lat="32.599365022033453" lon="-4.176709977909923">
        <ele>1572.0999999999999</ele>
        <time>2003-04-18T17:21:00Z</time>
      </trkpt>
      <trkpt lat="32.599467029795051" lon="-4.176630014553666">
        <ele>1571.8</ele>
        <time>2003-04-18T17:21:03Z</time>
      </trkpt>
      <trkpt lat="32.59976701810956" lon="-4.176464974880219">
        <ele>1568.9000000000001</ele>
        <time>2003-04-18T17:21:07Z</time>
      </trkpt>
      <trkpt lat="32.599887968972325" lon="-4.176406972110272">
        <ele>1568.7</ele>
        <time>2003-04-18T17:21:08Z</time>
      </trkpt>
      <trkpt lat="32.600006991997361" lon="-4.176334971562028">
        <ele>1567.3</ele>
        <time>2003-04-18T17:21:11Z</time>
      </trkpt>
      <trkpt lat="32.600167002528906" lon="-4.17623296380043">
        <ele>1566.3</ele>
        <time>2003-04-18T17:21:14Z</time>
      </trkpt>
      <trkpt lat="32.600274961441755" lon="-4.176222989335656">
        <ele>1566.5</ele>
        <time>2003-04-18T17:21:16Z</time>
      </trkpt>
      <trkpt lat="32.600387027487159" lon="-4.176202034577727">
        <ele>1565.9000000000001</ele>
        <time>2003-04-18T17:21:18Z</time>
      </trkpt>
      <trkpt lat="32.600542008876801" lon="-4.176121987402439">
        <ele>1565.5</ele>
        <time>2003-04-18T17:21:20Z</time>
      </trkpt>
      <trkpt lat="32.600751975551248" lon="-4.176043029874563">
        <ele>1565.0999999999999</ele>
        <time>2003-04-18T17:21:24Z</time>
      </trkpt>
      <trkpt lat="32.600858006626368" lon="-4.175987038761377">
        <ele>1564.7</ele>
        <time>2003-04-18T17:21:27Z</time>
      </trkpt>
      <trkpt lat="32.600966971367598" lon="-4.175943033769727">
        <ele>1564.3</ele>
        <time>2003-04-18T17:21:28Z</time>
      </trkpt>
      <trkpt lat="32.601081971079111" lon="-4.17592803016305">
        <ele>1563.8</ele>
        <time>2003-04-18T17:21:31Z</time>
      </trkpt>
      <trkpt lat="32.601193031296134" lon="-4.175942027941346">
        <ele>1563.2</ele>
        <time>2003-04-18T17:21:32Z</time>
      </trkpt>
      <trkpt lat="32.601297972723842" lon="-4.17592803016305">
        <ele>1562.5</ele>
        <time>2003-04-18T17:21:35Z</time>
      </trkpt>
      <trkpt lat="32.601402997970581" lon="-4.175916966050863">
        <ele>1561.8</ele>
        <time>2003-04-18T17:21:38Z</time>
      </trkpt>
      <trkpt lat="32.60150802321732" lon="-4.175961976870894">
        <ele>1561.3</ele>
        <time>2003-04-18T17:21:39Z</time>
      </trkpt>
      <trkpt lat="32.601620005443692" lon="-4.176043029874563">
        <ele>1560.5999999999999</ele>
        <time>2003-04-18T17:21:42Z</time>
      </trkpt>
      <trkpt lat="32.601761994883418" lon="-4.176131961867213">
        <ele>1560.8</ele>
        <time>2003-04-18T17:21:43Z</time>
      </trkpt>
      <trkpt lat="32.602146975696087" lon="-4.176330026239157">
        <ele>1561.4000000000001</ele>
        <time>2003-04-18T17:21:49Z</time>
      </trkpt>
      <trkpt lat="32.60234504006803" lon="-4.176428010687232">
        <ele>1561.2</ele>
        <time>2003-04-18T17:21:51Z</time>
      </trkpt>
      <trkpt lat="32.603107960894704" lon="-4.177045002579689">
        <ele>1560.3</ele>
        <time>2003-04-18T17:22:05Z</time>
      </trkpt>
      <trkpt lat="32.603341983631253" lon="-4.177220016717911">
        <ele>1560.0999999999999</ele>
        <time>2003-04-18T17:22:09Z</time>
      </trkpt>
      <trkpt lat="32.603638032451272" lon="-4.177512964233756">
        <ele>1560.3</ele>
        <time>2003-04-18T17:22:14Z</time>
      </trkpt>
      <trkpt lat="32.603993006050587" lon="-4.17773500084877">
        <ele>1559.0999999999999</ele>
        <time>2003-04-18T17:22:21Z</time>
      </trkpt>
      <trkpt lat="32.604102976620197" lon="-4.17784295976162">
        <ele>1558.3</ele>
        <time>2003-04-18T17:22:22Z</time>
      </trkpt>
      <trkpt lat="32.60428000241518" lon="-4.178002970293164">
        <ele>1557.9000000000001</ele>
        <time>2003-04-18T17:22:25Z</time>
      </trkpt>
      <trkpt lat="32.604387039318681" lon="-4.178087962791324">
        <ele>1557.4000000000001</ele>
        <time>2003-04-18T17:22:28Z</time>
      </trkpt>
      <trkpt lat="32.604444958269596" lon="-4.178202040493488">
        <ele>1556.8</ele>
        <time>2003-04-18T17:22:29Z</time>
      </trkpt>
      <trkpt lat="32.604540009051561" lon="-4.17842298746109">
        <ele>1554.9000000000001</ele>
        <time>2003-04-18T17:22:33Z</time>
      </trkpt>
      <trkpt lat="32.604640005156398" lon="-4.17850797995925">
        <ele>1552.5</ele>
        <time>2003-04-18T17:22:37Z</time>
      </trkpt>
      <trkpt lat="32.604790041223168" lon="-4.178607976064086">
        <ele>1553.8</ele>
        <time>2003-04-18T17:23:46Z</time>
      </trkpt>
      <trkpt lat="32.604921972379088" lon="-4.178737979382277">
        <ele>1550.8</ele>
        <time>2003-04-18T17:24:29Z</time>
      </trkpt>
      <trkpt lat="32.605048036202788" lon="-4.1788300126791">
        <ele>1554.2</ele>
        <time>2003-04-18T17:25:22Z</time>
      </trkpt>
      <trkpt lat="32.60511701926589" lon="-4.178915005177259">
        <ele>1553.5</ele>
        <time>2003-04-18T17:25:29Z</time>
      </trkpt>
      <trkpt lat="32.605324974283576" lon="-4.179114997386932">
        <ele>1552.9000000000001</ele>
        <time>2003-04-18T17:25:45Z</time>
      </trkpt>
      <trkpt lat="32.605371996760368" lon="-4.179223040118814">
        <ele>1553</ele>
        <time>2003-04-18T17:25:48Z</time>
      </trkpt>
      <trkpt lat="32.605447014793754" lon="-4.179367963224649">
        <ele>1552.7</ele>
        <time>2003-04-18T17:25:52Z</time>
      </trkpt>
      <trkpt lat="32.605522032827139" lon="-4.179477011784911">
        <ele>1552.9000000000001</ele>
        <time>2003-04-18T17:25:56Z</time>
      </trkpt>
      <trkpt lat="32.605586992576718" lon="-4.179574996232987">
        <ele>1553.2</ele>
        <time>2003-04-18T17:25:58Z</time>
      </trkpt>
      <trkpt lat="32.605692017823458" lon="-4.179707011207938">
        <ele>1555.2</ele>
        <time>2003-04-18T17:26:01Z</time>
      </trkpt>
      <trkpt lat="32.605768041685224" lon="-4.179872972890735">
        <ele>1558.7</ele>
        <time>2003-04-18T17:26:05Z</time>
      </trkpt>
      <trkpt lat="32.605786984786391" lon="-4.179987972602248">
        <ele>1560</ele>
        <time>2003-04-18T17:26:06Z</time>
      </trkpt>
      <trkpt lat="32.605835013091564" lon="-4.180127028375864">
        <ele>1560.8</ele>
        <time>2003-04-18T17:26:09Z</time>
      </trkpt>
      <trkpt lat="32.605952024459839" lon="-4.180300030857325">
        <ele>1560.7</ele>
        <time>2003-04-18T17:26:13Z</time>
      </trkpt>
      <trkpt lat="32.606057971715927" lon="-4.180387035012245">
        <ele>1560.4000000000001</ele>
        <time>2003-04-18T17:26:16Z</time>
      </trkpt>
      <trkpt lat="32.60629802942276" lon="-4.180579986423254">
        <ele>1561.4000000000001</ele>
        <time>2003-04-18T17:26:20Z</time>
      </trkpt>
      <trkpt lat="32.606461979448795" lon="-4.180800011381507">
        <ele>1561.5</ele>
        <time>2003-04-18T17:26:23Z</time>
      </trkpt>
      <trkpt lat="32.606528028845787" lon="-4.180939989164472">
        <ele>1562.4000000000001</ele>
        <time>2003-04-18T17:26:24Z</time>
      </trkpt>
      <trkpt lat="32.606627019122243" lon="-4.181147022172809">
        <ele>1561.2</ele>
        <time>2003-04-18T17:26:28Z</time>
      </trkpt>
      <trkpt lat="32.606653003022075" lon="-4.18132203631103">
        <ele>1560.9000000000001</ele>
        <time>2003-04-18T17:26:29Z</time>
      </trkpt>
      <trkpt lat="32.606689967215061" lon="-4.181486992165446">
        <ele>1561.0999999999999</ele>
        <time>2003-04-18T17:26:32Z</time>
      </trkpt>
      <trkpt lat="32.606843020766973" lon="-4.182016979902983">
        <ele>1554.9000000000001</ele>
        <time>2003-04-18T17:26:39Z</time>
      </trkpt>
      <trkpt lat="32.606821982190013" lon="-4.18213801458478">
        <ele>1553.7</ele>
        <time>2003-04-18T17:26:40Z</time>
      </trkpt>
      <trkpt lat="32.606794992461801" lon="-4.182244967669249">
        <ele>1553.5999999999999</ele>
        <time>2003-04-18T17:26:43Z</time>
      </trkpt>
      <trkpt lat="32.606813013553619" lon="-4.182359967380762">
        <ele>1553.8</ele>
        <time>2003-04-18T17:26:47Z</time>
      </trkpt>
      <trkpt lat="32.606891971081495" lon="-4.182474967092276">
        <ele>1555.3</ele>
        <time>2003-04-18T17:26:51Z</time>
      </trkpt>
      <trkpt lat="32.607047958299518" lon="-4.182657022029162">
        <ele>1556.3</ele>
        <time>2003-04-18T17:26:55Z</time>
      </trkpt>
      <trkpt lat="32.607182990759611" lon="-4.182794988155365">
        <ele>1555.7</ele>
        <time>2003-04-18T17:26:58Z</time>
      </trkpt>
      <trkpt lat="32.607300002127886" lon="-4.18284997344017">
        <ele>1555.4000000000001</ele>
        <time>2003-04-18T17:26:59Z</time>
      </trkpt>
      <trkpt lat="32.607542993500829" lon="-4.1829330381006">
        <ele>1554.3</ele>
        <time>2003-04-18T17:27:03Z</time>
      </trkpt>
      <trkpt lat="32.607657993212342" lon="-4.182928008958697">
        <ele>1553.4000000000001</ele>
        <time>2003-04-18T17:27:06Z</time>
      </trkpt>
      <trkpt lat="32.60778003372252" lon="-4.182867994531989">
        <ele>1553.0999999999999</ele>
        <time>2003-04-18T17:27:09Z</time>
      </trkpt>
      <trkpt lat="32.607929985970259" lon="-4.182791970670223">
        <ele>1552.4000000000001</ele>
        <time>2003-04-18T17:27:11Z</time>
      </trkpt>
      <trkpt lat="32.608108017593622" lon="-4.182715024799109">
        <ele>1550.0999999999999</ele>
        <time>2003-04-18T17:27:15Z</time>
      </trkpt>
      <trkpt lat="32.608225028961897" lon="-4.18267697095871">
        <ele>1548.5</ele>
        <time>2003-04-18T17:27:19Z</time>
      </trkpt>
      <trkpt lat="32.608327036723495" lon="-4.182702032849193">
        <ele>1547.5</ele>
        <time>2003-04-18T17:27:22Z</time>
      </trkpt>
      <trkpt lat="32.608391996473074" lon="-4.182781996205449">
        <ele>1547.5</ele>
        <time>2003-04-18T17:27:25Z</time>
      </trkpt>
      <trkpt lat="32.608487969264388" lon="-4.182875035330653">
        <ele>1548.3</ele>
        <time>2003-04-18T17:27:26Z</time>
      </trkpt>
      <trkpt lat="32.608602968975902" lon="-4.182930020615459">
        <ele>1547.5999999999999</ele>
        <time>2003-04-18T17:27:29Z</time>
      </trkpt>
      <trkpt lat="32.608638005331159" lon="-4.183063041418791">
        <ele>1547.3</ele>
        <time>2003-04-18T17:27:30Z</time>
      </trkpt>
      <trkpt lat="32.60857698507607" lon="-4.18319002725184">
        <ele>1547.5999999999999</ele>
        <time>2003-04-18T17:27:33Z</time>
      </trkpt>
      <trkpt lat="32.608438013121486" lon="-4.18342798948288">
        <ele>1548.9000000000001</ele>
        <time>2003-04-18T17:27:37Z</time>
      </trkpt>
      <trkpt lat="32.608423009514809" lon="-4.183569978922606">
        <ele>1548.8</ele>
        <time>2003-04-18T17:27:41Z</time>
      </trkpt>
      <trkpt lat="32.608452010899782" lon="-4.183681961148977">
        <ele>1549</ele>
        <time>2003-04-18T17:27:45Z</time>
      </trkpt>
      <trkpt lat="32.608580002561212" lon="-4.183977004140616">
        <ele>1551.9000000000001</ele>
        <time>2003-04-18T17:27:53Z</time>
      </trkpt>
      <trkpt lat="32.608717968687415" lon="-4.184327032417059">
        <ele>1555.0999999999999</ele>
        <time>2003-04-18T17:28:00Z</time>
      </trkpt>
      <trkpt lat="32.608761973679066" lon="-4.18448000214994">
        <ele>1555.5999999999999</ele>
        <time>2003-04-18T17:28:01Z</time>
      </trkpt>
      <trkpt lat="32.608831962570548" lon="-4.184753000736237">
        <ele>1557.8</ele>
        <time>2003-04-18T17:28:04Z</time>
      </trkpt>
      <trkpt lat="32.609036983922124" lon="-4.185237977653742">
        <ele>1558</ele>
        <time>2003-04-18T17:28:09Z</time>
      </trkpt>
      <trkpt lat="32.609119964763522" lon="-4.185290029272437">
        <ele>1558.7</ele>
        <time>2003-04-18T17:28:11Z</time>
      </trkpt>
      <trkpt lat="32.609254997223616" lon="-4.185422966256738">
        <ele>1559.9000000000001</ele>
        <time>2003-04-18T17:28:12Z</time>
      </trkpt>
      <trkpt lat="32.60930797085166" lon="-4.185509970411658">
        <ele>1560.2</ele>
        <time>2003-04-18T17:28:13Z</time>
      </trkpt>
      <trkpt lat="32.609334960579872" lon="-4.185618013143539">
        <ele>1561.3</ele>
        <time>2003-04-18T17:28:15Z</time>
      </trkpt>
      <trkpt lat="32.609324986115098" lon="-4.185816999524832">
        <ele>1561.5</ele>
        <time>2003-04-18T17:28:16Z</time>
      </trkpt>
      <trkpt lat="32.609402015805244" lon="-4.185944991186261">
        <ele>1561</ele>
        <time>2003-04-18T17:28:19Z</time>
      </trkpt>
      <trkpt lat="32.609582981094718" lon="-4.18615504167974">
        <ele>1561.0999999999999</ele>
        <time>2003-04-18T17:28:21Z</time>
      </trkpt>
      <trkpt lat="32.609669985249639" lon="-4.186199968680739">
        <ele>1561.3</ele>
        <time>2003-04-18T17:28:23Z</time>
      </trkpt>
      <trkpt lat="32.61031698435545" lon="-4.186485037207604">
        <ele>1561.2</ele>
        <time>2003-04-18T17:28:30Z</time>
      </trkpt>
      <trkpt lat="32.611147966235876" lon="-4.186638006940484">
        <ele>1559</ele>
        <time>2003-04-18T17:28:38Z</time>
      </trkpt>
      <trkpt lat="32.611336978152394" lon="-4.186577992513776">
        <ele>1558.5</ele>
        <time>2003-04-18T17:28:39Z</time>
      </trkpt>
      <trkpt lat="32.61141300201416" lon="-4.186517978087068">
        <ele>1557.5999999999999</ele>
        <time>2003-04-18T17:28:40Z</time>
      </trkpt>
      <trkpt lat="32.611572006717324" lon="-4.186416976153851">
        <ele>1556.9000000000001</ele>
        <time>2003-04-18T17:28:43Z</time>
      </trkpt>
      <trkpt lat="32.611748026683927" lon="-4.186401972547174">
        <ele>1556.5</ele>
        <time>2003-04-18T17:28:44Z</time>
      </trkpt>
      <trkpt lat="32.61184198781848" lon="-4.186402978375554">
        <ele>1556.3</ele>
        <time>2003-04-18T17:28:46Z</time>
      </trkpt>
      <trkpt lat="32.612029993906617" lon="-4.186432985588908">
        <ele>1555.8</ele>
        <time>2003-04-18T17:28:47Z</time>
      </trkpt>
      <trkpt lat="32.612201990559697" lon="-4.186495011672378">
        <ele>1555.7</ele>
        <time>2003-04-18T17:28:50Z</time>
      </trkpt>
      <trkpt lat="32.612356971949339" lon="-4.18658796697855">
        <ele>1555.5999999999999</ele>
        <time>2003-04-18T17:28:51Z</time>
      </trkpt>
      <trkpt lat="32.612535003572702" lon="-4.186742026358843">
        <ele>1555.5</ele>
        <time>2003-04-18T17:28:55Z</time>
      </trkpt>
      <trkpt lat="32.612595017999411" lon="-4.186836993321776">
        <ele>1555.8</ele>
        <time>2003-04-18T17:28:58Z</time>
      </trkpt>
      <trkpt lat="32.612613039091229" lon="-4.186945036053658">
        <ele>1555.4000000000001</ele>
        <time>2003-04-18T17:29:06Z</time>
      </trkpt>
      <trkpt lat="32.612670036032796" lon="-4.187096999958158">
        <ele>1549.3</ele>
        <time>2003-04-18T17:31:02Z</time>
      </trkpt>
      <trkpt lat="32.612780006602407" lon="-4.187332028523088">
        <ele>1549.7</ele>
        <time>2003-04-18T17:31:10Z</time>
      </trkpt>
      <trkpt lat="32.612855024635792" lon="-4.187507964670658">
        <ele>1549.2</ele>
        <time>2003-04-18T17:31:13Z</time>
      </trkpt>
      <trkpt lat="32.612931970506907" lon="-4.187736958265305">
        <ele>1549.5</ele>
        <time>2003-04-18T17:31:14Z</time>
      </trkpt>
      <trkpt lat="32.613072032108903" lon="-4.188135014846921">
        <ele>1548.3</ele>
        <time>2003-04-18T17:31:17Z</time>
      </trkpt>
      <trkpt lat="32.613174961879849" lon="-4.188482025638223">
        <ele>1548.8</ele>
        <time>2003-04-18T17:31:21Z</time>
      </trkpt>
      <trkpt lat="32.613417031243443" lon="-4.189187027513981">
        <ele>1546.3</ele>
        <time>2003-04-18T17:31:26Z</time>
      </trkpt>
      <trkpt lat="32.613547034561634" lon="-4.189405040815473">
        <ele>1545.9000000000001</ele>
        <time>2003-04-18T17:31:29Z</time>
      </trkpt>
      <trkpt lat="32.613692963495851" lon="-4.189666975289583">
        <ele>1545.8</ele>
        <time>2003-04-18T17:31:32Z</time>
      </trkpt>
      <trkpt lat="32.613817015662789" lon="-4.189992025494576">
        <ele>1544.7</ele>
        <time>2003-04-18T17:31:35Z</time>
      </trkpt>
      <trkpt lat="32.614257987588644" lon="-4.19088201597333">
        <ele>1542.0999999999999</ele>
        <time>2003-04-18T17:31:43Z</time>
      </trkpt>
      <trkpt lat="32.614324958994985" lon="-4.191057030111551">
        <ele>1541.4000000000001</ele>
        <time>2003-04-18T17:31:44Z</time>
      </trkpt>
      <trkpt lat="32.614538026973605" lon="-4.19163697399199">
        <ele>1539.2</ele>
        <time>2003-04-18T17:31:52Z</time>
      </trkpt>
      <trkpt lat="32.614610027521849" lon="-4.19180796481669">
        <ele>1538.4000000000001</ele>
        <time>2003-04-18T17:31:55Z</time>
      </trkpt>
      <trkpt lat="32.61459301225841" lon="-4.191918019205332">
        <ele>1537.5999999999999</ele>
        <time>2003-04-18T17:31:57Z</time>
      </trkpt>
      <trkpt lat="32.61459301225841" lon="-4.192071994766593">
        <ele>1537.9000000000001</ele>
        <time>2003-04-18T17:32:00Z</time>
      </trkpt>
      <trkpt lat="32.614632993936539" lon="-4.192212978377938">
        <ele>1539.2</ele>
        <time>2003-04-18T17:32:03Z</time>
      </trkpt>
      <trkpt lat="32.614631988108158" lon="-4.192363014444709">
        <ele>1538.5</ele>
        <time>2003-04-18T17:32:04Z</time>
      </trkpt>
      <trkpt lat="32.614732990041375" lon="-4.192467033863068">
        <ele>1538.8</ele>
        <time>2003-04-18T17:32:07Z</time>
      </trkpt>
      <trkpt lat="32.61482996866107" lon="-4.192625032737851">
        <ele>1539.0999999999999</ele>
        <time>2003-04-18T17:32:08Z</time>
      </trkpt>
      <trkpt lat="32.615170022472739" lon="-4.193251999095082">
        <ele>1537.3</ele>
        <time>2003-04-18T17:32:15Z</time>
      </trkpt>
      <trkpt lat="32.615748038515449" lon="-4.194145007058978">
        <ele>1534.8</ele>
        <time>2003-04-18T17:32:26Z</time>
      </trkpt>
      <trkpt lat="32.615927997976542" lon="-4.194542979821563">
        <ele>1534</ele>
        <time>2003-04-18T17:32:30Z</time>
      </trkpt>
      <trkpt lat="32.616122039034963" lon="-4.194871969521046">
        <ele>1533</ele>
        <time>2003-04-18T17:32:33Z</time>
      </trkpt>
      <trkpt lat="32.616544989868999" lon="-4.195387037470937">
        <ele>1532</ele>
        <time>2003-04-18T17:32:38Z</time>
      </trkpt>
      <trkpt lat="32.616812959313393" lon="-4.195597004145384">
        <ele>1531.4000000000001</ele>
        <time>2003-04-18T17:32:42Z</time>
      </trkpt>
      <trkpt lat="32.617128035053611" lon="-4.195758020505309">
        <ele>1530.5999999999999</ele>
        <time>2003-04-18T17:32:45Z</time>
      </trkpt>
      <trkpt lat="32.617807975038886" lon="-4.196030013263226">
        <ele>1529.5</ele>
        <time>2003-04-18T17:32:51Z</time>
      </trkpt>
      <trkpt lat="32.617897996678948" lon="-4.19608298689127">
        <ele>1529.4000000000001</ele>
        <time>2003-04-18T17:32:53Z</time>
      </trkpt>
      <trkpt lat="32.618145011365414" lon="-4.196241991594434">
        <ele>1528.4000000000001</ele>
        <time>2003-04-18T17:32:56Z</time>
      </trkpt>
      <trkpt lat="32.618251964449883" lon="-4.196336958557367">
        <ele>1527</ele>
        <time>2003-04-18T17:32:58Z</time>
      </trkpt>
      <trkpt lat="32.618348021060228" lon="-4.196402002125979">
        <ele>1527.3</ele>
        <time>2003-04-18T17:33:00Z</time>
      </trkpt>
      <trkpt lat="32.61850199662149" lon="-4.196432009339333">
        <ele>1526.8</ele>
        <time>2003-04-18T17:33:01Z</time>
      </trkpt>
      <trkpt lat="32.618682961910963" lon="-4.196452964097261">
        <ele>1526.9000000000001</ele>
        <time>2003-04-18T17:33:04Z</time>
      </trkpt>
      <trkpt lat="32.619027039036155" lon="-4.196529993787408">
        <ele>1526.4000000000001</ele>
        <time>2003-04-18T17:33:08Z</time>
      </trkpt>
      <trkpt lat="32.619687030091882" lon="-4.19681497849524">
        <ele>1524.8</ele>
        <time>2003-04-18T17:33:14Z</time>
      </trkpt>
      <trkpt lat="32.620441988110542" lon="-4.197185039520264">
        <ele>1522.9000000000001</ele>
        <time>2003-04-18T17:33:23Z</time>
      </trkpt>
      <trkpt lat="32.620547013357282" lon="-4.197176992893219">
        <ele>1522.0999999999999</ele>
        <time>2003-04-18T17:33:24Z</time>
      </trkpt>
      <trkpt lat="32.620750023052096" lon="-4.197189984843135">
        <ele>1518.5</ele>
        <time>2003-04-18T17:33:25Z</time>
      </trkpt>
      <trkpt lat="32.620925037190318" lon="-4.197187973186374">
        <ele>1519.4000000000001</ele>
        <time>2003-04-18T17:33:28Z</time>
      </trkpt>
      <trkpt lat="32.621044982224703" lon="-4.197183027863503">
        <ele>1519.4000000000001</ele>
        <time>2003-04-18T17:33:29Z</time>
      </trkpt>
      <trkpt lat="32.621161993592978" lon="-4.197291992604733">
        <ele>1519.4000000000001</ele>
        <time>2003-04-18T17:33:32Z</time>
      </trkpt>
      <trkpt lat="32.621347988024354" lon="-4.197512017562985">
        <ele>1519.5999999999999</ele>
        <time>2003-04-18T17:33:35Z</time>
      </trkpt>
      <trkpt lat="32.621504981070757" lon="-4.197616958990693">
        <ele>1520.3</ele>
        <time>2003-04-18T17:33:36Z</time>
      </trkpt>
      <trkpt lat="32.621996998786926" lon="-4.197860034182668">
        <ele>1519.0999999999999</ele>
        <time>2003-04-18T17:33:43Z</time>
      </trkpt>
      <trkpt lat="32.622249964624643" lon="-4.197961958125234">
        <ele>1518.3</ele>
        <time>2003-04-18T17:33:45Z</time>
      </trkpt>
      <trkpt lat="32.622503014281392" lon="-4.198060026392341">
        <ele>1517.5999999999999</ele>
        <time>2003-04-18T17:33:48Z</time>
      </trkpt>
      <trkpt lat="32.622717004269361" lon="-4.198075029999018">
        <ele>1517.5</ele>
        <time>2003-04-18T17:33:52Z</time>
      </trkpt>
      <trkpt lat="32.623129980638623" lon="-4.198103025555611">
        <ele>1516.7</ele>
        <time>2003-04-18T17:33:56Z</time>
      </trkpt>
      <trkpt lat="32.623600037768483" lon="-4.198212996125221">
        <ele>1515.2</ele>
        <time>2003-04-18T17:34:02Z</time>
      </trkpt>
      <trkpt lat="32.623685030266643" lon="-4.198262030258775">
        <ele>1515.2</ele>
        <time>2003-04-18T17:34:03Z</time>
      </trkpt>
      <trkpt lat="32.624549958854914" lon="-4.198767961934209">
        <ele>1513.2</ele>
        <time>2003-04-18T17:34:12Z</time>
      </trkpt>
      <trkpt lat="32.624663030728698" lon="-4.198920009657741">
        <ele>1513.2</ele>
        <time>2003-04-18T17:34:15Z</time>
      </trkpt>
      <trkpt lat="32.624794961884618" lon="-4.198999973013997">
        <ele>1512.8</ele>
        <time>2003-04-18T17:34:17Z</time>
      </trkpt>
      <trkpt lat="32.624939968809485" lon="-4.199032997712493">
        <ele>1513.0999999999999</ele>
        <time>2003-04-18T17:34:19Z</time>
      </trkpt>
      <trkpt lat="32.625338025391102" lon="-4.199201976880431">
        <ele>1512.7</ele>
        <time>2003-04-18T17:34:23Z</time>
      </trkpt>
      <trkpt lat="32.625429974868894" lon="-4.199213040992618">
        <ele>1511.5999999999999</ele>
        <time>2003-04-18T17:34:25Z</time>
      </trkpt>
      <trkpt lat="32.625523013994098" lon="-4.199204994365573">
        <ele>1511.0999999999999</ele>
        <time>2003-04-18T17:34:26Z</time>
      </trkpt>
      <trkpt lat="32.626166995614767" lon="-4.199110027402639">
        <ele>1510</ele>
        <time>2003-04-18T17:34:33Z</time>
      </trkpt>
      <trkpt lat="32.62636698782444" lon="-4.199077002704144">
        <ele>1509.5999999999999</ele>
        <time>2003-04-18T17:34:34Z</time>
      </trkpt>
      <trkpt lat="32.626657001674175" lon="-4.199010031297803">
        <ele>1509.5999999999999</ele>
        <time>2003-04-18T17:34:38Z</time>
      </trkpt>
      <trkpt lat="32.626811983063817" lon="-4.19898203574121">
        <ele>1509.5</ele>
        <time>2003-04-18T17:34:39Z</time>
      </trkpt>
      <trkpt lat="32.626952966675162" lon="-4.198989998549223">
        <ele>1508.8</ele>
        <time>2003-04-18T17:34:42Z</time>
      </trkpt>
      <trkpt lat="32.627093028277159" lon="-4.198957979679108">
        <ele>1507.7</ele>
        <time>2003-04-18T17:34:44Z</time>
      </trkpt>
      <trkpt lat="32.627465017139912" lon="-4.198835017159581">
        <ele>1507.0999999999999</ele>
        <time>2003-04-18T17:34:49Z</time>
      </trkpt>
      <trkpt lat="32.62767699547112" lon="-4.198765028268099">
        <ele>1506.4000000000001</ele>
        <time>2003-04-18T17:34:52Z</time>
      </trkpt>
      <trkpt lat="32.627774979919195" lon="-4.198650028556585">
        <ele>1505.5999999999999</ele>
        <time>2003-04-18T17:34:53Z</time>
      </trkpt>
      <trkpt lat="32.627895008772612" lon="-4.198565036058426">
        <ele>1503.5999999999999</ele>
        <time>2003-04-18T17:34:56Z</time>
      </trkpt>
      <trkpt lat="32.628043033182621" lon="-4.198533017188311">
        <ele>1503.2</ele>
        <time>2003-04-18T17:34:57Z</time>
      </trkpt>
      <trkpt lat="32.628177981823683" lon="-4.198436960577965">
        <ele>1503.5999999999999</ele>
        <time>2003-04-18T17:35:00Z</time>
      </trkpt>
      <trkpt lat="32.628332041203976" lon="-4.198294971138239">
        <ele>1502.8</ele>
        <time>2003-04-18T17:35:02Z</time>
      </trkpt>
      <trkpt lat="32.628464978188276" lon="-4.198262030258775">
        <ele>1504.0999999999999</ele>
        <time>2003-04-18T17:35:05Z</time>
      </trkpt>
      <trkpt lat="32.628572015091777" lon="-4.198181983083487">
        <ele>1504.9000000000001</ele>
        <time>2003-04-18T17:35:06Z</time>
      </trkpt>
      <trkpt lat="32.628694977611303" lon="-4.198103025555611">
        <ele>1504.5</ele>
        <time>2003-04-18T17:35:09Z</time>
      </trkpt>
      <trkpt lat="32.628822969272733" lon="-4.198054997250438">
        <ele>1504.5999999999999</ele>
        <time>2003-04-18T17:35:11Z</time>
      </trkpt>
      <trkpt lat="32.629401991143823" lon="-4.197933040559292">
        <ele>1503.5999999999999</ele>
        <time>2003-04-18T17:35:19Z</time>
      </trkpt>
      <trkpt lat="32.629648000001907" lon="-4.197927005589008">
        <ele>1502.9000000000001</ele>
        <time>2003-04-18T17:35:21Z</time>
      </trkpt>
      <trkpt lat="32.629740033298731" lon="-4.197921976447105">
        <ele>1503</ele>
        <time>2003-04-18T17:35:23Z</time>
      </trkpt>
      <trkpt lat="32.630337998270988" lon="-4.197875037789345">
        <ele>1504.4000000000001</ele>
        <time>2003-04-18T17:35:29Z</time>
      </trkpt>
      <trkpt lat="32.630483005195856" lon="-4.197840001434088">
        <ele>1503.8</ele>
        <time>2003-04-18T17:35:32Z</time>
      </trkpt>
      <trkpt lat="32.630651984363794" lon="-4.197785016149283">
        <ele>1503.4000000000001</ele>
        <time>2003-04-18T17:35:35Z</time>
      </trkpt>
      <trkpt lat="32.630767989903688" lon="-4.197777975350618">
        <ele>1502.3</ele>
        <time>2003-04-18T17:35:36Z</time>
      </trkpt>
      <trkpt lat="32.630891958251595" lon="-4.197691977024078">
        <ele>1502.0999999999999</ele>
        <time>2003-04-18T17:35:39Z</time>
      </trkpt>
      <trkpt lat="32.631148025393486" lon="-4.197531966492534">
        <ele>1503.4000000000001</ele>
        <time>2003-04-18T17:35:43Z</time>
      </trkpt>
      <trkpt lat="32.631318010389805" lon="-4.19741302728653">
        <ele>1504.9000000000001</ele>
        <time>2003-04-18T17:35:46Z</time>
      </trkpt>
      <trkpt lat="32.6314149890095" lon="-4.197291992604733">
        <ele>1505.2</ele>
        <time>2003-04-18T17:35:47Z</time>
      </trkpt>
      <trkpt lat="32.63156502507627" lon="-4.19711303897202">
        <ele>1505.9000000000001</ele>
        <time>2003-04-18T17:35:51Z</time>
      </trkpt>
      <trkpt lat="32.631671978160739" lon="-4.196982029825449">
        <ele>1505.3</ele>
        <time>2003-04-18T17:35:52Z</time>
      </trkpt>
      <trkpt lat="32.631763005629182" lon="-4.196799974888563">
        <ele>1505.8</ele>
        <time>2003-04-18T17:35:55Z</time>
      </trkpt>
      <trkpt lat="32.631892003118992" lon="-4.19644701294601">
        <ele>1505.2</ele>
        <time>2003-04-18T17:35:59Z</time>
      </trkpt>
      <trkpt lat="32.631946988403797" lon="-4.196312986314297">
        <ele>1507.2</ele>
        <time>2003-04-18T17:36:00Z</time>
      </trkpt>
      <trkpt lat="32.631983030587435" lon="-4.196141995489597">
        <ele>1508.3</ele>
        <time>2003-04-18T17:36:03Z</time>
      </trkpt>
      <trkpt lat="32.632040027529001" lon="-4.195963041856885">
        <ele>1509.2</ele>
        <time>2003-04-18T17:36:05Z</time>
      </trkpt>
      <trkpt lat="32.632138011977077" lon="-4.195791967213154">
        <ele>1509.5999999999999</ele>
        <time>2003-04-18T17:36:07Z</time>
      </trkpt>
      <trkpt lat="32.632208000868559" lon="-4.195632040500641">
        <ele>1510.3</ele>
        <time>2003-04-18T17:36:09Z</time>
      </trkpt>
      <trkpt lat="32.632227027788758" lon="-4.195467000827193">
        <ele>1510</ele>
        <time>2003-04-18T17:36:10Z</time>
      </trkpt>
      <trkpt lat="32.632257035002112" lon="-4.195361975580454">
        <ele>1509.4000000000001</ele>
        <time>2003-04-18T17:36:13Z</time>
      </trkpt>
      <trkpt lat="32.632392989471555" lon="-4.195336997509003">
        <ele>1508.3</ele>
        <time>2003-04-18T17:36:14Z</time>
      </trkpt>
      <trkpt lat="32.632521986961365" lon="-4.195238007232547">
        <ele>1507.7</ele>
        <time>2003-04-18T17:36:17Z</time>
      </trkpt>
      <trkpt lat="32.632621983066201" lon="-4.195057963952422">
        <ele>1507</ele>
        <time>2003-04-18T17:36:18Z</time>
      </trkpt>
      <trkpt lat="32.632743017747998" lon="-4.194908011704683">
        <ele>1506.8</ele>
        <time>2003-04-18T17:36:21Z</time>
      </trkpt>
      <trkpt lat="32.632842008024454" lon="-4.194797035306692">
        <ele>1507.5</ele>
        <time>2003-04-18T17:36:22Z</time>
      </trkpt>
      <trkpt lat="32.632924988865852" lon="-4.194671977311373">
        <ele>1506.7</ele>
        <time>2003-04-18T17:36:25Z</time>
      </trkpt>
      <trkpt lat="32.633192958310246" lon="-4.194227987900376">
        <ele>1504.0999999999999</ele>
        <time>2003-04-18T17:36:32Z</time>
      </trkpt>
      <trkpt lat="32.633373001590371" lon="-4.194048028439283">
        <ele>1502.8</ele>
        <time>2003-04-18T17:36:36Z</time>
      </trkpt>
      <trkpt lat="32.633460005745292" lon="-4.193932022899389">
        <ele>1501</ele>
        <time>2003-04-18T17:36:37Z</time>
      </trkpt>
      <trkpt lat="32.633526977151632" lon="-4.193792967125773">
        <ele>1500.3</ele>
        <time>2003-04-18T17:36:40Z</time>
      </trkpt>
      <trkpt lat="32.633612975478172" lon="-4.19367796741426">
        <ele>1499.3</ele>
        <time>2003-04-18T17:36:41Z</time>
      </trkpt>
      <trkpt lat="32.633678019046783" lon="-4.193562967702746">
        <ele>1498.0999999999999</ele>
        <time>2003-04-18T17:36:44Z</time>
      </trkpt>
      <trkpt lat="32.633769968524575" lon="-4.193337997421622">
        <ele>1497.8</ele>
        <time>2003-04-18T17:36:48Z</time>
      </trkpt>
      <trkpt lat="32.633877005428076" lon="-4.193129958584905">
        <ele>1495.5</ele>
        <time>2003-04-18T17:36:50Z</time>
      </trkpt>
      <trkpt lat="32.6339500118047" lon="-4.192955028265715">
        <ele>1494.9000000000001</ele>
        <time>2003-04-18T17:36:53Z</time>
      </trkpt>
      <trkpt lat="32.634012037888169" lon="-4.192856959998608">
        <ele>1494.7</ele>
        <time>2003-04-18T17:36:56Z</time>
      </trkpt>
      <trkpt lat="32.634076997637749" lon="-4.192737014964223">
        <ele>1493.7</ele>
        <time>2003-04-18T17:36:57Z</time>
      </trkpt>
      <trkpt lat="32.634167019277811" lon="-4.192453036084771">
        <ele>1493.0999999999999</ele>
        <time>2003-04-18T17:37:01Z</time>
      </trkpt>
      <trkpt lat="32.63431697152555" lon="-4.191849958151579">
        <ele>1492.0999999999999</ele>
        <time>2003-04-18T17:37:11Z</time>
      </trkpt>
      <trkpt lat="32.634549988433719" lon="-4.19122701510787">
        <ele>1491.5</ele>
        <time>2003-04-18T17:37:20Z</time>
      </trkpt>
      <trkpt lat="32.634613020345569" lon="-4.190889978781343">
        <ele>1491.5</ele>
        <time>2003-04-18T17:37:24Z</time>
      </trkpt>
      <trkpt lat="32.634585024788976" lon="-4.190772967413068">
        <ele>1491.5</ele>
        <time>2003-04-18T17:37:26Z</time>
      </trkpt>
      <trkpt lat="32.634513024240732" lon="-4.190691998228431">
        <ele>1492.2</ele>
        <time>2003-04-18T17:37:28Z</time>
      </trkpt>
      <trkpt lat="32.634417973458767" lon="-4.190683029592037">
        <ele>1492.7</ele>
        <time>2003-04-18T17:37:34Z</time>
      </trkpt>
      <trkpt lat="32.634395007044077" lon="-4.190501980483532">
        <ele>1492.0999999999999</ele>
        <time>2003-04-18T17:37:46Z</time>
      </trkpt>
      <trkpt lat="32.634501960128546" lon="-4.190363008528948">
        <ele>1492.3</ele>
        <time>2003-04-18T17:37:50Z</time>
      </trkpt>
      <trkpt lat="32.634610002860427" lon="-4.19032302685082">
        <ele>1491.8</ele>
        <time>2003-04-18T17:37:53Z</time>
      </trkpt>
      <trkpt lat="32.634709998965263" lon="-4.190339958295226">
        <ele>1491.5999999999999</ele>
        <time>2003-04-18T17:37:55Z</time>
      </trkpt>
      <trkpt lat="32.634836984798312" lon="-4.190344987437129">
        <ele>1490.2</ele>
        <time>2003-04-18T17:37:57Z</time>
      </trkpt>
      <trkpt lat="32.634964976459742" lon="-4.19028002768755">
        <ele>1489.9000000000001</ele>
        <time>2003-04-18T17:37:58Z</time>
      </trkpt>
      <trkpt lat="32.635076958686113" lon="-4.190139966085553">
        <ele>1489.0999999999999</ele>
        <time>2003-04-18T17:38:01Z</time>
      </trkpt>
      <trkpt lat="32.635163040831685" lon="-4.189972998574376">
        <ele>1490.0999999999999</ele>
        <time>2003-04-18T17:38:02Z</time>
      </trkpt>
      <trkpt lat="32.635372001677752" lon="-4.189563039690256">
        <ele>1486.5999999999999</ele>
        <time>2003-04-18T17:38:07Z</time>
      </trkpt>
      <trkpt lat="32.635469986125827" lon="-4.189447034150362">
        <ele>1487.0999999999999</ele>
        <time>2003-04-18T17:38:10Z</time>
      </trkpt>
      <trkpt lat="32.635560007765889" lon="-4.189303033053875">
        <ele>1485.8</ele>
        <time>2003-04-18T17:38:11Z</time>
      </trkpt>
      <trkpt lat="32.635665033012629" lon="-4.189172023907304">
        <ele>1486.0999999999999</ele>
        <time>2003-04-18T17:38:14Z</time>
      </trkpt>
      <trkpt lat="32.635780032724142" lon="-4.189027016982436">
        <ele>1485.0999999999999</ele>
        <time>2003-04-18T17:38:15Z</time>
      </trkpt>
      <trkpt lat="32.635867036879063" lon="-4.188859965652227">
        <ele>1484.5</ele>
        <time>2003-04-18T17:38:18Z</time>
      </trkpt>
      <trkpt lat="32.636087983846664" lon="-4.188504992052913">
        <ele>1482.8</ele>
        <time>2003-04-18T17:38:22Z</time>
      </trkpt>
      <trkpt lat="32.636193009093404" lon="-4.188361996784806">
        <ele>1482.4000000000001</ele>
        <time>2003-04-18T17:38:25Z</time>
      </trkpt>
      <trkpt lat="32.636328041553497" lon="-4.188150018453598">
        <ele>1481.8</ele>
        <time>2003-04-18T17:38:28Z</time>
      </trkpt>
      <trkpt lat="32.636453015729785" lon="-4.188078017905355">
        <ele>1481.4000000000001</ele>
        <time>2003-04-18T17:38:29Z</time>
      </trkpt>
      <trkpt lat="32.636882001534104" lon="-4.187886994332075">
        <ele>1478.3</ele>
        <time>2003-04-18T17:38:36Z</time>
      </trkpt>
      <trkpt lat="32.637760005891323" lon="-4.187512993812561">
        <ele>1477.3</ele>
        <time>2003-04-18T17:38:45Z</time>
      </trkpt>
      <trkpt lat="32.63796703889966" lon="-4.18740302324295">
        <ele>1475.8</ele>
        <time>2003-04-18T17:38:49Z</time>
      </trkpt>
      <trkpt lat="32.638044990599155" lon="-4.187328005209565">
        <ele>1476.2</ele>
        <time>2003-04-18T17:38:51Z</time>
      </trkpt>
      <trkpt lat="32.638125037774444" lon="-4.187275031581521">
        <ele>1475.7</ele>
        <time>2003-04-18T17:38:53Z</time>
      </trkpt>
      <trkpt lat="32.638229979202151" lon="-4.187272014096379">
        <ele>1475.7</ele>
        <time>2003-04-18T17:38:56Z</time>
      </trkpt>
      <trkpt lat="32.638387978076935" lon="-4.187215017154813">
        <ele>1474</ele>
        <time>2003-04-18T17:38:57Z</time>
      </trkpt>
      <trkpt lat="32.639287021011114" lon="-4.186876974999905">
        <ele>1469.0999999999999</ele>
        <time>2003-04-18T17:39:11Z</time>
      </trkpt>
      <trkpt lat="32.639636965468526" lon="-4.18671696446836">
        <ele>1467.7</ele>
        <time>2003-04-18T17:39:16Z</time>
      </trkpt>
      <trkpt lat="32.639778032898903" lon="-4.186615040525794">
        <ele>1466.9000000000001</ele>
        <time>2003-04-18T17:39:18Z</time>
      </trkpt>
      <trkpt lat="32.639878029003739" lon="-4.186462992802262">
        <ele>1465.5</ele>
        <time>2003-04-18T17:39:19Z</time>
      </trkpt>
      <trkpt lat="32.640067040920258" lon="-4.186095027253032">
        <ele>1465.2</ele>
        <time>2003-04-18T17:39:24Z</time>
      </trkpt>
      <trkpt lat="32.640235014259815" lon="-4.185509970411658">
        <ele>1465.4000000000001</ele>
        <time>2003-04-18T17:39:31Z</time>
      </trkpt>
      <trkpt lat="32.640422014519572" lon="-4.184747971594334">
        <ele>1465.7</ele>
        <time>2003-04-18T17:39:39Z</time>
      </trkpt>
      <trkpt lat="32.640550006181002" lon="-4.184482013806701">
        <ele>1465.4000000000001</ele>
        <time>2003-04-18T17:39:43Z</time>
      </trkpt>
      <trkpt lat="32.640743041411042" lon="-4.184097032994032">
        <ele>1464.8</ele>
        <time>2003-04-18T17:39:47Z</time>
      </trkpt>
      <trkpt lat="32.640821998938918" lon="-4.183868039399386">
        <ele>1465</ele>
        <time>2003-04-18T17:39:50Z</time>
      </trkpt>
      <trkpt lat="32.640872038900852" lon="-4.183710040524602">
        <ele>1463</ele>
        <time>2003-04-18T17:39:53Z</time>
      </trkpt>
      <trkpt lat="32.641064990311861" lon="-4.18329999782145">
        <ele>1461.9000000000001</ele>
        <time>2003-04-18T17:39:58Z</time>
      </trkpt>
      <trkpt lat="32.641153000295162" lon="-4.183111991733313">
        <ele>1461.5</ele>
        <time>2003-04-18T17:39:59Z</time>
      </trkpt>
      <trkpt lat="32.641572011634707" lon="-4.182114964351058">
        <ele>1458.7</ele>
        <time>2003-04-18T17:40:12Z</time>
      </trkpt>
      <trkpt lat="32.641802011057734" lon="-4.181405017152429">
        <ele>1457.7</ele>
        <time>2003-04-18T17:40:18Z</time>
      </trkpt>
      <trkpt lat="32.641860013827682" lon="-4.181266967207193">
        <ele>1457</ele>
        <time>2003-04-18T17:40:21Z</time>
      </trkpt>
      <trkpt lat="32.641917010769248" lon="-4.18110997416079">
        <ele>1456.8</ele>
        <time>2003-04-18T17:40:22Z</time>
      </trkpt>
      <trkpt lat="32.642037961632013" lon="-4.180751983076334">
        <ele>1456.7</ele>
        <time>2003-04-18T17:40:28Z</time>
      </trkpt>
      <trkpt lat="32.642395030707121" lon="-4.179648002609611">
        <ele>1454.9000000000001</ele>
        <time>2003-04-18T17:40:37Z</time>
      </trkpt>
      <trkpt lat="32.642441969364882" lon="-4.179444992914796">
        <ele>1454.7</ele>
        <time>2003-04-18T17:40:40Z</time>
      </trkpt>
      <trkpt lat="32.642492009326816" lon="-4.1792600043118">
        <ele>1453.9000000000001</ele>
        <time>2003-04-18T17:40:41Z</time>
      </trkpt>
      <trkpt lat="32.642822004854679" lon="-4.178234981372953">
        <ele>1454.4000000000001</ele>
        <time>2003-04-18T17:40:53Z</time>
      </trkpt>
      <trkpt lat="32.643044963479042" lon="-4.177483040839434">
        <ele>1454.3</ele>
        <time>2003-04-18T17:41:00Z</time>
      </trkpt>
      <trkpt lat="32.643302958458662" lon="-4.176560025662184">
        <ele>1453.3</ele>
        <time>2003-04-18T17:41:07Z</time>
      </trkpt>
      <trkpt lat="32.643466992303729" lon="-4.175640027970076">
        <ele>1451.8</ele>
        <time>2003-04-18T17:41:15Z</time>
      </trkpt>
      <trkpt lat="32.643624991178513" lon="-4.174765041097999">
        <ele>1450.2</ele>
        <time>2003-04-18T17:41:23Z</time>
      </trkpt>
      <trkpt lat="32.643643012270331" lon="-4.174650041386485">
        <ele>1450.0999999999999</ele>
        <time>2003-04-18T17:41:23Z</time>
      </trkpt>
      <trkpt lat="32.64368299394846" lon="-4.174200017005205">
        <ele>1448.9000000000001</ele>
        <time>2003-04-18T17:41:27Z</time>
      </trkpt>
      <trkpt lat="32.6437499653548" lon="-4.174017040058971">
        <ele>1448.7</ele>
        <time>2003-04-18T17:41:30Z</time>
      </trkpt>
      <trkpt lat="32.643794976174831" lon="-4.173825010657311">
        <ele>1448.2</ele>
        <time>2003-04-18T17:41:31Z</time>
      </trkpt>
      <trkpt lat="32.644015001133084" lon="-4.172742990776897">
        <ele>1446.2</ele>
        <time>2003-04-18T17:41:42Z</time>
      </trkpt>
      <trkpt lat="32.644096976146102" lon="-4.172381982207298">
        <ele>1445.5999999999999</ele>
        <time>2003-04-18T17:41:46Z</time>
      </trkpt>
      <trkpt lat="32.644229996949434" lon="-4.17199800722301">
        <ele>1445.8</ele>
        <time>2003-04-18T17:41:50Z</time>
      </trkpt>
      <trkpt lat="32.644292023032904" lon="-4.171767001971602">
        <ele>1445.2</ele>
        <time>2003-04-18T17:41:53Z</time>
      </trkpt>
      <trkpt lat="32.644396964460611" lon="-4.171365005895495">
        <ele>1444.5999999999999</ele>
        <time>2003-04-18T17:41:57Z</time>
      </trkpt>
      <trkpt lat="32.644474999979138" lon="-4.171122014522553">
        <ele>1445.4000000000001</ele>
        <time>2003-04-18T17:42:00Z</time>
      </trkpt>
      <trkpt lat="32.644537026062608" lon="-4.170933002606034">
        <ele>1444.8</ele>
        <time>2003-04-18T17:42:01Z</time>
      </trkpt>
      <trkpt lat="32.644727965816855" lon="-4.170309975743294">
        <ele>1444.5999999999999</ele>
        <time>2003-04-18T17:42:08Z</time>
      </trkpt>
      <trkpt lat="32.644959976896644" lon="-4.169717961922288">
        <ele>1443.7</ele>
        <time>2003-04-18T17:42:13Z</time>
      </trkpt>
      <trkpt lat="32.645383011549711" lon="-4.16869000531733">
        <ele>1443.4000000000001</ele>
        <time>2003-04-18T17:42:21Z</time>
      </trkpt>
      <trkpt lat="32.645755000412464" lon="-4.167672023177147">
        <ele>1443</ele>
        <time>2003-04-18T17:42:31Z</time>
      </trkpt>
      <trkpt lat="32.646109974011779" lon="-4.166580028831959">
        <ele>1444.3</ele>
        <time>2003-04-18T17:42:40Z</time>
      </trkpt>
      <trkpt lat="32.646222962066531" lon="-4.16617501527071">
        <ele>1444.9000000000001</ele>
        <time>2003-04-18T17:42:44Z</time>
      </trkpt>
      <trkpt lat="32.646317007020116" lon="-4.165857005864382">
        <ele>1445.8</ele>
        <time>2003-04-18T17:42:48Z</time>
      </trkpt>
      <trkpt lat="32.646335028111935" lon="-4.165748041123152">
        <ele>1446.7</ele>
        <time>2003-04-18T17:42:48Z</time>
      </trkpt>
      <trkpt lat="32.646486992016435" lon="-4.164880011230707">
        <ele>1446.5</ele>
        <time>2003-04-18T17:42:55Z</time>
      </trkpt>
      <trkpt lat="32.646638033911586" lon="-4.163787011057138">
        <ele>1447.4000000000001</ele>
        <time>2003-04-18T17:43:03Z</time>
      </trkpt>
      <trkpt lat="32.646714979782701" lon="-4.163270015269518">
        <ele>1447.7</ele>
        <time>2003-04-18T17:43:07Z</time>
      </trkpt>
      <trkpt lat="32.646795026957989" lon="-4.162997016683221">
        <ele>1448.0999999999999</ele>
        <time>2003-04-18T17:43:10Z</time>
      </trkpt>
      <trkpt lat="32.647017985582352" lon="-4.162037959322333">
        <ele>1447.0999999999999</ele>
        <time>2003-04-18T17:43:17Z</time>
      </trkpt>
      <trkpt lat="32.647091997787356" lon="-4.161551976576448">
        <ele>1447.5999999999999</ele>
        <time>2003-04-18T17:43:21Z</time>
      </trkpt>
      <trkpt lat="32.647089986130595" lon="-4.161430019885302">
        <ele>1447.5</ele>
        <time>2003-04-18T17:43:22Z</time>
      </trkpt>
      <trkpt lat="32.647171961143613" lon="-4.161294987425208">
        <ele>1447.4000000000001</ele>
        <time>2003-04-18T17:43:26Z</time>
      </trkpt>
      <trkpt lat="32.647200040519238" lon="-4.161176970228553">
        <ele>1446.8</ele>
        <time>2003-04-18T17:43:27Z</time>
      </trkpt>
      <trkpt lat="32.647238010540605" lon="-4.160906989127398">
        <ele>1447.2</ele>
        <time>2003-04-18T17:43:31Z</time>
      </trkpt>
      <trkpt lat="32.647302970290184" lon="-4.160743039101362">
        <ele>1447.7</ele>
        <time>2003-04-18T17:43:34Z</time>
      </trkpt>
      <trkpt lat="32.647332977503538" lon="-4.160538017749786">
        <ele>1448.5</ele>
        <time>2003-04-18T17:43:35Z</time>
      </trkpt>
      <trkpt lat="32.647391986101866" lon="-4.160346994176507">
        <ele>1448.5</ele>
        <time>2003-04-18T17:43:38Z</time>
      </trkpt>
      <trkpt lat="32.64744303189218" lon="-4.160174997523427">
        <ele>1448.8</ele>
        <time>2003-04-18T17:43:39Z</time>
      </trkpt>
      <trkpt lat="32.647494999691844" lon="-4.159851958975196">
        <ele>1449.0999999999999</ele>
        <time>2003-04-18T17:43:42Z</time>
      </trkpt>
      <trkpt lat="32.647500028833747" lon="-4.159667976200581">
        <ele>1449.5999999999999</ele>
        <time>2003-04-18T17:43:45Z</time>
      </trkpt>
      <trkpt lat="32.6475749630481" lon="-4.159539984539151">
        <ele>1449.8</ele>
        <time>2003-04-18T17:43:46Z</time>
      </trkpt>
      <trkpt lat="32.64763698913157" lon="-4.159394977614284">
        <ele>1449.9000000000001</ele>
        <time>2003-04-18T17:43:49Z</time>
      </trkpt>
      <trkpt lat="32.647681999951601" lon="-4.159100018441677">
        <ele>1450.5</ele>
        <time>2003-04-18T17:43:52Z</time>
      </trkpt>
      <trkpt lat="32.64774695970118" lon="-4.158894997090101">
        <ele>1451.5999999999999</ele>
        <time>2003-04-18T17:43:53Z</time>
      </trkpt>
      <trkpt lat="32.647821977734566" lon="-4.15869802236557">
        <ele>1452.3</ele>
        <time>2003-04-18T17:43:56Z</time>
      </trkpt>
      <trkpt lat="32.647834969684482" lon="-4.158586962148547">
        <ele>1452.5</ele>
        <time>2003-04-18T17:43:57Z</time>
      </trkpt>
      <trkpt lat="32.647898001596332" lon="-4.158257972449064">
        <ele>1453</ele>
        <time>2003-04-18T17:44:00Z</time>
      </trkpt>
      <trkpt lat="32.647924991324544" lon="-4.15803300216794">
        <ele>1454.2</ele>
        <time>2003-04-18T17:44:01Z</time>
      </trkpt>
      <trkpt lat="32.647919962182641" lon="-4.15792303159833">
        <ele>1454.5</ele>
        <time>2003-04-18T17:44:02Z</time>
      </trkpt>
      <trkpt lat="32.647890038788319" lon="-4.157718010246754">
        <ele>1454.5999999999999</ele>
        <time>2003-04-18T17:44:05Z</time>
      </trkpt>
      <trkpt lat="32.647849973291159" lon="-4.157405029982328">
        <ele>1455.0999999999999</ele>
        <time>2003-04-18T17:44:08Z</time>
      </trkpt>
      <trkpt lat="32.647864976897836" lon="-4.157232027500868">
        <ele>1455.3</ele>
        <time>2003-04-18T17:44:09Z</time>
      </trkpt>
      <trkpt lat="32.647864976897836" lon="-4.157061958685517">
        <ele>1456.2</ele>
        <time>2003-04-18T17:44:12Z</time>
      </trkpt>
      <trkpt lat="32.64776699244976" lon="-4.156621992588043">
        <ele>1457.5</ele>
        <time>2003-04-18T17:44:17Z</time>
      </trkpt>
      <trkpt lat="32.64774695970118" lon="-4.156476985663176">
        <ele>1457.8</ele>
        <time>2003-04-18T17:44:20Z</time>
      </trkpt>
      <trkpt lat="32.647703038528562" lon="-4.156168028712273">
        <ele>1458.8</ele>
        <time>2003-04-18T17:44:28Z</time>
      </trkpt>
      <trkpt lat="32.647806974127889" lon="-4.156244974583387">
        <ele>1459.2</ele>
        <time>2003-04-18T17:44:51Z</time>
      </trkpt>
      <trkpt lat="32.647792976349592" lon="-4.156352011486888">
        <ele>1458.9000000000001</ele>
        <time>2003-04-18T17:44:55Z</time>
      </trkpt>
      <trkpt lat="32.64776699244976" lon="-4.15646499954164">
        <ele>1458.3</ele>
        <time>2003-04-18T17:44:56Z</time>
      </trkpt>
      <trkpt lat="32.647755006328225" lon="-4.156579999253154">
        <ele>1457.7</ele>
        <time>2003-04-18T17:44:59Z</time>
      </trkpt>
      <trkpt lat="32.647777972742915" lon="-4.156715031713247">
        <ele>1457.3</ele>
        <time>2003-04-18T17:45:00Z</time>
      </trkpt>
      <trkpt lat="32.647843016311526" lon="-4.15702298283577">
        <ele>1456.5</ele>
        <time>2003-04-18T17:45:05Z</time>
      </trkpt>
      <trkpt lat="32.647879980504513" lon="-4.157335041090846">
        <ele>1455.7</ele>
        <time>2003-04-18T17:45:09Z</time>
      </trkpt>
      <trkpt lat="32.647845027968287" lon="-4.157466972246766">
        <ele>1455.5999999999999</ele>
        <time>2003-04-18T17:45:10Z</time>
      </trkpt>
      <trkpt lat="32.6478720176965" lon="-4.157608039677143">
        <ele>1455.0999999999999</ele>
        <time>2003-04-18T17:45:14Z</time>
      </trkpt>
      <trkpt lat="32.647911999374628" lon="-4.157863017171621">
        <ele>1454.0999999999999</ele>
        <time>2003-04-18T17:45:18Z</time>
      </trkpt>
      <trkpt lat="32.648048037663102" lon="-4.158974960446358">
        <ele>1451.5999999999999</ele>
        <time>2003-04-18T17:45:32Z</time>
      </trkpt>
      <trkpt lat="32.648092964664102" lon="-4.159327000379562">
        <ele>1450.9000000000001</ele>
        <time>2003-04-18T17:45:37Z</time>
      </trkpt>
      <trkpt lat="32.648112997412682" lon="-4.159562028944492">
        <ele>1450.5999999999999</ele>
        <time>2003-04-18T17:45:41Z</time>
      </trkpt>
      <trkpt lat="32.648158008232713" lon="-4.159747017547488">
        <ele>1449.7</ele>
        <time>2003-04-18T17:45:45Z</time>
      </trkpt>
      <trkpt lat="32.648207964375615" lon="-4.159937035292387">
        <ele>1449.9000000000001</ele>
        <time>2003-04-18T17:45:49Z</time>
      </trkpt>
      <trkpt lat="32.648237971588969" lon="-4.160111965611577">
        <ele>1450.3</ele>
        <time>2003-04-18T17:45:52Z</time>
      </trkpt>
      <trkpt lat="32.648230008780956" lon="-4.160252027213574">
        <ele>1450.7</ele>
        <time>2003-04-18T17:45:54Z</time>
      </trkpt>
      <trkpt lat="32.648269990459085" lon="-4.160384964197874">
        <ele>1451.2</ele>
        <time>2003-04-18T17:45:57Z</time>
      </trkpt>
      <trkpt lat="32.64838800765574" lon="-4.160450007766485">
        <ele>1452.0999999999999</ele>
        <time>2003-04-18T17:45:59Z</time>
      </trkpt>
      <trkpt lat="32.64851700514555" lon="-4.160399967804551">
        <ele>1452.9000000000001</ele>
        <time>2003-04-18T17:46:01Z</time>
      </trkpt>
      <trkpt lat="32.648575007915497" lon="-4.160268036648631">
        <ele>1452.7</ele>
        <time>2003-04-18T17:46:03Z</time>
      </trkpt>
      <trkpt lat="32.648644996806979" lon="-4.16013702750206">
        <ele>1453.2</ele>
        <time>2003-04-18T17:46:04Z</time>
      </trkpt>
      <trkpt lat="32.648835014551878" lon="-4.159842990338802">
        <ele>1454.8</ele>
        <time>2003-04-18T17:46:08Z</time>
      </trkpt>
      <trkpt lat="32.648984966799617" lon="-4.159607039764524">
        <ele>1454.5999999999999</ele>
        <time>2003-04-18T17:46:12Z</time>
      </trkpt>
      <trkpt lat="32.649086974561214" lon="-4.159448035061359">
        <ele>1455.0999999999999</ele>
        <time>2003-04-18T17:46:13Z</time>
      </trkpt>
      <trkpt lat="32.649267017841339" lon="-4.159182999283075">
        <ele>1454.7</ele>
        <time>2003-04-18T17:46:17Z</time>
      </trkpt>
      <trkpt lat="32.649382017552853" lon="-4.159006979316473">
        <ele>1454.8</ele>
        <time>2003-04-18T17:46:20Z</time>
      </trkpt>
      <trkpt lat="32.649500034749508" lon="-4.158919975161552">
        <ele>1454.8</ele>
        <time>2003-04-18T17:46:23Z</time>
      </trkpt>
      <trkpt lat="32.649619979783893" lon="-4.158822996541858">
        <ele>1455</ele>
        <time>2003-04-18T17:46:24Z</time>
      </trkpt>
      <trkpt lat="32.649728022515774" lon="-4.15867698378861">
        <ele>1455</ele>
        <time>2003-04-18T17:46:27Z</time>
      </trkpt>
      <trkpt lat="32.649977970868349" lon="-4.158261995762587">
        <ele>1456.0999999999999</ele>
        <time>2003-04-18T17:46:31Z</time>
      </trkpt>
      <trkpt lat="32.650097999721766" lon="-4.157908027991653">
        <ele>1456</ele>
        <time>2003-04-18T17:46:35Z</time>
      </trkpt>
      <trkpt lat="32.65019497834146" lon="-4.157777018845081">
        <ele>1456.0999999999999</ele>
        <time>2003-04-18T17:46:38Z</time>
      </trkpt>
      <trkpt lat="32.650277959182858" lon="-4.157652966678143">
        <ele>1456.0999999999999</ele>
        <time>2003-04-18T17:46:39Z</time>
      </trkpt>
      <trkpt lat="32.650332022458315" lon="-4.157554982230067">
        <ele>1456.4000000000001</ele>
        <time>2003-04-18T17:46:42Z</time>
      </trkpt>
      <trkpt lat="32.650367980822921" lon="-4.157448029145598">
        <ele>1457.0999999999999</ele>
        <time>2003-04-18T17:46:48Z</time>
      </trkpt>
      <trkpt lat="32.650422966107726" lon="-4.157354990020394">
        <ele>1457.4000000000001</ele>
        <time>2003-04-18T17:46:54Z</time>
      </trkpt>
      <trkpt lat="32.65049303881824" lon="-4.1572580114007">
        <ele>1457.8</ele>
        <time>2003-04-18T17:46:55Z</time>
      </trkpt>
      <trkpt lat="32.650626981630921" lon="-4.157090038061142">
        <ele>1457.7</ele>
        <time>2003-04-18T17:46:58Z</time>
      </trkpt>
      <trkpt lat="32.650737036019564" lon="-4.15693799033761">
        <ele>1457.9000000000001</ele>
        <time>2003-04-18T17:47:01Z</time>
      </trkpt>
      <trkpt lat="32.650875002145767" lon="-4.15680798701942">
        <ele>1457.8</ele>
        <time>2003-04-18T17:47:02Z</time>
      </trkpt>
      <trkpt lat="32.651016991585493" lon="-4.156668009236455">
        <ele>1458.3</ele>
        <time>2003-04-18T17:47:05Z</time>
      </trkpt>
      <trkpt lat="32.651112964376807" lon="-4.156515039503574">
        <ele>1458.5</ele>
        <time>2003-04-18T17:47:06Z</time>
      </trkpt>
      <trkpt lat="32.651201980188489" lon="-4.156371960416436">
        <ele>1458.8</ele>
        <time>2003-04-18T17:47:09Z</time>
      </trkpt>
      <trkpt lat="32.651389986276627" lon="-4.156065015122294">
        <ele>1460.9000000000001</ele>
        <time>2003-04-18T17:47:14Z</time>
      </trkpt>
      <trkpt lat="32.651457041501999" lon="-4.155967030674219">
        <ele>1461.9000000000001</ele>
        <time>2003-04-18T17:47:17Z</time>
      </trkpt>
      <trkpt lat="32.651487970724702" lon="-4.155838033184409">
        <ele>1462.7</ele>
        <time>2003-04-18T17:47:21Z</time>
      </trkpt>
      <trkpt lat="32.65150498598814" lon="-4.155684979632497">
        <ele>1463.5999999999999</ele>
        <time>2003-04-18T17:47:24Z</time>
      </trkpt>
      <trkpt lat="32.651557037606835" lon="-4.155563022941351">
        <ele>1464.2</ele>
        <time>2003-04-18T17:47:25Z</time>
      </trkpt>
      <trkpt lat="32.651655022054911" lon="-4.155456991866231">
        <ele>1464.7</ele>
        <time>2003-04-18T17:47:28Z</time>
      </trkpt>
      <trkpt lat="32.65176298096776" lon="-4.155339980497956">
        <ele>1465.3</ele>
        <time>2003-04-18T17:47:29Z</time>
      </trkpt>
      <trkpt lat="32.651994992047548" lon="-4.155062036588788">
        <ele>1466.5999999999999</ele>
        <time>2003-04-18T17:47:33Z</time>
      </trkpt>
      <trkpt lat="32.652046959847212" lon="-4.154972014948726">
        <ele>1467.5</ele>
        <time>2003-04-18T17:47:34Z</time>
      </trkpt>
      <trkpt lat="32.652158020064235" lon="-4.154847040772438">
        <ele>1467.7</ele>
        <time>2003-04-18T17:47:37Z</time>
      </trkpt>
      <trkpt lat="32.652273019775748" lon="-4.154717959463596">
        <ele>1468.0999999999999</ele>
        <time>2003-04-18T17:47:38Z</time>
      </trkpt>
      <trkpt lat="32.652473011985421" lon="-4.154458036646247">
        <ele>1467.7</ele>
        <time>2003-04-18T17:47:41Z</time>
      </trkpt>
      <trkpt lat="32.652782974764705" lon="-4.154056962579489">
        <ele>1467.5</ele>
        <time>2003-04-18T17:47:45Z</time>
      </trkpt>
      <trkpt lat="32.653355039656162" lon="-4.153381967917085">
        <ele>1465.5999999999999</ele>
        <time>2003-04-18T17:47:52Z</time>
      </trkpt>
      <trkpt lat="32.653589984402061" lon="-4.153188010677695">
        <ele>1465.0999999999999</ele>
        <time>2003-04-18T17:47:56Z</time>
      </trkpt>
      <trkpt lat="32.653797017410398" lon="-4.15304702706635">
        <ele>1463.4000000000001</ele>
        <time>2003-04-18T17:47:59Z</time>
      </trkpt>
      <trkpt lat="32.654127012938261" lon="-4.152860026806593">
        <ele>1461.7</ele>
        <time>2003-04-18T17:48:04Z</time>
      </trkpt>
      <trkpt lat="32.654333040118217" lon="-4.152715019881725">
        <ele>1459.7</ele>
        <time>2003-04-18T17:48:08Z</time>
      </trkpt>
      <trkpt lat="32.654521968215704" lon="-4.152573030441999">
        <ele>1459.9000000000001</ele>
        <time>2003-04-18T17:48:11Z</time>
      </trkpt>
      <trkpt lat="32.654832014814019" lon="-4.152340013533831">
        <ele>1458.8</ele>
        <time>2003-04-18T17:48:16Z</time>
      </trkpt>
      <trkpt lat="32.655472978949547" lon="-4.151808014139533">
        <ele>1454.5</ele>
        <time>2003-04-18T17:48:26Z</time>
      </trkpt>
      <trkpt lat="32.655547996982932" lon="-4.15165001526475">
        <ele>1454.0999999999999</ele>
        <time>2003-04-18T17:48:27Z</time>
      </trkpt>
      <trkpt lat="32.655641958117485" lon="-4.151496961712837">
        <ele>1453.0999999999999</ele>
        <time>2003-04-18T17:48:30Z</time>
      </trkpt>
      <trkpt lat="32.655725022777915" lon="-4.151357989758253">
        <ele>1452.2</ele>
        <time>2003-04-18T17:48:31Z</time>
      </trkpt>
      <trkpt lat="32.65580297447741" lon="-4.151173001155257">
        <ele>1451</ele>
        <time>2003-04-18T17:48:35Z</time>
      </trkpt>
      <trkpt lat="32.655883021652699" lon="-4.151073005050421">
        <ele>1450.2</ele>
        <time>2003-04-18T17:48:38Z</time>
      </trkpt>
      <trkpt lat="32.655972959473729" lon="-4.151021959260106">
        <ele>1449.0999999999999</ele>
        <time>2003-04-18T17:48:43Z</time>
      </trkpt>
      <trkpt lat="32.65603800304234" lon="-4.150947025045753">
        <ele>1448.8</ele>
        <time>2003-04-18T17:48:46Z</time>
      </trkpt>
      <trkpt lat="32.656061975285411" lon="-4.150832025334239">
        <ele>1449.5999999999999</ele>
        <time>2003-04-18T17:48:47Z</time>
      </trkpt>
      <trkpt lat="32.656092988327146" lon="-4.150688024237752">
        <ele>1449.5</ele>
        <time>2003-04-18T17:48:50Z</time>
      </trkpt>
      <trkpt lat="32.656173035502434" lon="-4.150447966530919">
        <ele>1449</ele>
        <time>2003-04-18T17:48:53Z</time>
      </trkpt>
      <trkpt lat="32.656257022172213" lon="-4.150257026776671">
        <ele>1449</ele>
        <time>2003-04-18T17:48:54Z</time>
      </trkpt>
      <trkpt lat="32.656413009390235" lon="-4.149942034855485">
        <ele>1448</ele>
        <time>2003-04-18T17:48:58Z</time>
      </trkpt>
      <trkpt lat="32.656809976324439" lon="-4.14913703687489">
        <ele>1445</ele>
        <time>2003-04-18T17:49:06Z</time>
      </trkpt>
      <trkpt lat="32.65689698047936" lon="-4.148971997201443">
        <ele>1444.5999999999999</ele>
        <time>2003-04-18T17:49:08Z</time>
      </trkpt>
      <trkpt lat="32.657036958262324" lon="-4.148854985833168">
        <ele>1444.5</ele>
        <time>2003-04-18T17:49:10Z</time>
      </trkpt>
      <trkpt lat="32.657387992367148" lon="-4.148633033037186">
        <ele>1443.8</ele>
        <time>2003-04-18T17:49:13Z</time>
      </trkpt>
      <trkpt lat="32.657631989568472" lon="-4.148452989757061">
        <ele>1443.3</ele>
        <time>2003-04-18T17:49:17Z</time>
      </trkpt>
      <trkpt lat="32.657914962619543" lon="-4.148258026689291">
        <ele>1442.5999999999999</ele>
        <time>2003-04-18T17:49:21Z</time>
      </trkpt>
      <trkpt lat="32.658025017008185" lon="-4.148230031132698">
        <ele>1441.5999999999999</ele>
        <time>2003-04-18T17:49:22Z</time>
      </trkpt>
      <trkpt lat="32.658107997849584" lon="-4.148168005049229">
        <ele>1441.3</ele>
        <time>2003-04-18T17:49:25Z</time>
      </trkpt>
      <trkpt lat="32.658210005611181" lon="-4.148051999509335">
        <ele>1441.0999999999999</ele>
        <time>2003-04-18T17:49:26Z</time>
      </trkpt>
      <trkpt lat="32.658349983394146" lon="-4.147959966212511">
        <ele>1441.3</ele>
        <time>2003-04-18T17:49:29Z</time>
      </trkpt>
      <trkpt lat="32.658479986712337" lon="-4.147853013128042">
        <ele>1440.2</ele>
        <time>2003-04-18T17:49:30Z</time>
      </trkpt>
      <trkpt lat="32.659184988588095" lon="-4.147205008193851">
        <ele>1437</ele>
        <time>2003-04-18T17:49:40Z</time>
      </trkpt>
      <trkpt lat="32.659314991906285" lon="-4.14707500487566">
        <ele>1437.4000000000001</ele>
        <time>2003-04-18T17:49:43Z</time>
      </trkpt>
      <trkpt lat="32.659477014094591" lon="-4.146852968260646">
        <ele>1436.0999999999999</ele>
        <time>2003-04-18T17:49:45Z</time>
      </trkpt>
      <trkpt lat="32.659668037667871" lon="-4.146534958854318">
        <ele>1435</ele>
        <time>2003-04-18T17:49:49Z</time>
      </trkpt>
      <trkpt lat="32.659705001860857" lon="-4.146336978301406">
        <ele>1434.7</ele>
        <time>2003-04-18T17:49:52Z</time>
      </trkpt>
      <trkpt lat="32.659695027396083" lon="-4.146032966673374">
        <ele>1434.0999999999999</ele>
        <time>2003-04-18T17:49:55Z</time>
      </trkpt>
      <trkpt lat="32.659668037667871" lon="-4.145297035574913">
        <ele>1433.5</ele>
        <time>2003-04-18T17:50:02Z</time>
      </trkpt>
      <trkpt lat="32.659735009074211" lon="-4.145101988688111">
        <ele>1432.8</ele>
        <time>2003-04-18T17:50:04Z</time>
      </trkpt>
      <trkpt lat="32.659840034320951" lon="-4.14490501396358">
        <ele>1432</ele>
        <time>2003-04-18T17:50:06Z</time>
      </trkpt>
      <trkpt lat="32.659913040697575" lon="-4.144820021465421">
        <ele>1431.9000000000001</ele>
        <time>2003-04-18T17:50:07Z</time>
      </trkpt>
      <trkpt lat="32.660117978230119" lon="-4.144639978185296">
        <ele>1431.7</ele>
        <time>2003-04-18T17:50:10Z</time>
      </trkpt>
      <trkpt lat="32.660240018740296" lon="-4.14460301399231">
        <ele>1430.5</ele>
        <time>2003-04-18T17:50:11Z</time>
      </trkpt>
      <trkpt lat="32.660336997359991" lon="-4.144536964595318">
        <ele>1430.3</ele>
        <time>2003-04-18T17:50:14Z</time>
      </trkpt>
      <trkpt lat="32.660447973757982" lon="-4.144464964047074">
        <ele>1431.3</ele>
        <time>2003-04-18T17:50:15Z</time>
      </trkpt>
      <trkpt lat="32.660612007603049" lon="-4.144403021782637">
        <ele>1430.2</ele>
        <time>2003-04-18T17:50:18Z</time>
      </trkpt>
      <trkpt lat="32.66089498065412" lon="-4.144300008192658">
        <ele>1429.3</ele>
        <time>2003-04-18T17:50:20Z</time>
      </trkpt>
      <trkpt lat="32.661081980913877" lon="-4.144188025966287">
        <ele>1428.7</ele>
        <time>2003-04-18T17:50:23Z</time>
      </trkpt>
      <trkpt lat="32.661932995542884" lon="-4.143662983551621">
        <ele>1425.7</ele>
        <time>2003-04-18T17:50:31Z</time>
      </trkpt>
      <trkpt lat="32.662271959707141" lon="-4.143527029082179">
        <ele>1425</ele>
        <time>2003-04-18T17:50:34Z</time>
      </trkpt>
      <trkpt lat="32.663187012076378" lon="-4.143178006634116">
        <ele>1422.9000000000001</ele>
        <time>2003-04-18T17:50:43Z</time>
      </trkpt>
      <trkpt lat="32.663450036197901" lon="-4.14310198277235">
        <ele>1421.8</ele>
        <time>2003-04-18T17:50:46Z</time>
      </trkpt>
      <trkpt lat="32.663612980395555" lon="-4.143023025244474">
        <ele>1421.2</ele>
        <time>2003-04-18T17:50:49Z</time>
      </trkpt>
      <trkpt lat="32.66381498426199" lon="-4.14290701970458">
        <ele>1420.2</ele>
        <time>2003-04-18T17:50:51Z</time>
      </trkpt>
      <trkpt lat="32.663950016722083" lon="-4.142896961420775">
        <ele>1419.8</ele>
        <time>2003-04-18T17:50:54Z</time>
      </trkpt>
      <trkpt lat="32.664107009768486" lon="-4.142895033583045">
        <ele>1419.9000000000001</ele>
        <time>2003-04-18T17:50:56Z</time>
      </trkpt>
      <trkpt lat="32.664250005036592" lon="-4.142916994169354">
        <ele>1419.7</ele>
        <time>2003-04-18T17:50:58Z</time>
      </trkpt>
      <trkpt lat="32.66441697254777" lon="-4.142953036352992">
        <ele>1419.3</ele>
        <time>2003-04-18T17:51:00Z</time>
      </trkpt>
      <trkpt lat="32.66480497084558" lon="-4.142974996939302">
        <ele>1419.0999999999999</ele>
        <time>2003-04-18T17:51:04Z</time>
      </trkpt>
      <trkpt lat="32.664902033284307" lon="-4.142978014424443">
        <ele>1419.2</ele>
        <time>2003-04-18T17:51:05Z</time>
      </trkpt>
      <trkpt lat="32.665502009913325" lon="-4.143054960295558">
        <ele>1418.0999999999999</ele>
        <time>2003-04-18T17:51:10Z</time>
      </trkpt>
      <trkpt lat="32.665594965219498" lon="-4.143065018579364">
        <ele>1418</ele>
        <time>2003-04-18T17:51:12Z</time>
      </trkpt>
      <trkpt lat="32.665972989052534" lon="-4.143067030236125">
        <ele>1417.3</ele>
        <time>2003-04-18T17:51:16Z</time>
      </trkpt>
      <trkpt lat="32.666156971827149" lon="-4.143017996102572">
        <ele>1416.8</ele>
        <time>2003-04-18T17:51:17Z</time>
      </trkpt>
      <trkpt lat="32.666331985965371" lon="-4.142923029139638">
        <ele>1416.5999999999999</ele>
        <time>2003-04-18T17:51:20Z</time>
      </trkpt>
      <trkpt lat="32.667158022522926" lon="-4.14247996173799">
        <ele>1414.8</ele>
        <time>2003-04-18T17:51:28Z</time>
      </trkpt>
      <trkpt lat="32.668092017993331" lon="-4.142066985368729">
        <ele>1412.3</ele>
        <time>2003-04-18T17:51:39Z</time>
      </trkpt>
      <trkpt lat="32.668722001835704" lon="-4.141794992610812">
        <ele>1411.0999999999999</ele>
        <time>2003-04-18T17:51:44Z</time>
      </trkpt>
      <trkpt lat="32.669366989284754" lon="-4.141431972384453">
        <ele>1408.8</ele>
        <time>2003-04-18T17:51:48Z</time>
      </trkpt>
      <trkpt lat="32.669682987034321" lon="-4.14123198017478">
        <ele>1409</ele>
        <time>2003-04-18T17:51:52Z</time>
      </trkpt>
      <trkpt lat="32.669820031151175" lon="-4.141138019040227">
        <ele>1408.0999999999999</ele>
        <time>2003-04-18T17:51:54Z</time>
      </trkpt>
      <trkpt lat="32.669926984235644" lon="-4.1410599835217">
        <ele>1406.5999999999999</ele>
        <time>2003-04-18T17:51:56Z</time>
      </trkpt>
      <trkpt lat="32.670033015310764" lon="-4.140978008508682">
        <ele>1407.0999999999999</ele>
        <time>2003-04-18T17:51:59Z</time>
      </trkpt>
      <trkpt lat="32.67015497200191" lon="-4.140850016847253">
        <ele>1406.2</ele>
        <time>2003-04-18T17:51:59Z</time>
      </trkpt>
      <trkpt lat="32.670295033603907" lon="-4.140699980780482">
        <ele>1405.4000000000001</ele>
        <time>2003-04-18T17:52:03Z</time>
      </trkpt>
      <trkpt lat="32.671016966924071" lon="-4.139994978904724">
        <ele>1404.0999999999999</ele>
        <time>2003-04-18T17:52:12Z</time>
      </trkpt>
      <trkpt lat="32.671758010983467" lon="-4.139291988685727">
        <ele>1402.2</ele>
        <time>2003-04-18T17:52:22Z</time>
      </trkpt>
      <trkpt lat="32.671862030401826" lon="-4.139198027551174">
        <ele>1402.2</ele>
        <time>2003-04-18T17:52:23Z</time>
      </trkpt>
      <trkpt lat="32.671996979042888" lon="-4.139057965949178">
        <ele>1404.7</ele>
        <time>2003-04-18T17:59:04Z</time>
      </trkpt>
      <trkpt lat="32.67210703343153" lon="-4.138955036178231">
        <ele>1403.5999999999999</ele>
        <time>2003-04-18T17:59:07Z</time>
      </trkpt>
      <trkpt lat="32.672297973185778" lon="-4.138686982914805">
        <ele>1403</ele>
        <time>2003-04-18T17:59:12Z</time>
      </trkpt>
      <trkpt lat="32.672592010349035" lon="-4.138317005708814">
        <ele>1402.2</ele>
        <time>2003-04-18T17:59:19Z</time>
      </trkpt>
      <trkpt lat="32.673201961442828" lon="-4.137477977201343">
        <ele>1400.5999999999999</ele>
        <time>2003-04-18T17:59:31Z</time>
      </trkpt>
      <trkpt lat="32.673517959192395" lon="-4.13708696141839">
        <ele>1399.0999999999999</ele>
        <time>2003-04-18T17:59:37Z</time>
      </trkpt>
      <trkpt lat="32.673657014966011" lon="-4.136993000283837">
        <ele>1398.9000000000001</ele>
        <time>2003-04-18T17:59:38Z</time>
      </trkpt>
      <trkpt lat="32.673958009108901" lon="-4.136802982538939">
        <ele>1397.7</ele>
        <time>2003-04-18T17:59:43Z</time>
      </trkpt>
      <trkpt lat="32.674066973850131" lon="-4.136599972844124">
        <ele>1397.3</ele>
        <time>2003-04-18T17:59:49Z</time>
      </trkpt>
      <trkpt lat="32.674184991046786" lon="-4.136622017249465">
        <ele>1397.0999999999999</ele>
        <time>2003-04-18T17:59:50Z</time>
      </trkpt>
      <trkpt lat="32.674314994364977" lon="-4.136640038341284">
        <ele>1397.0999999999999</ele>
        <time>2003-04-18T17:59:53Z</time>
      </trkpt>
      <trkpt lat="32.674544993788004" lon="-4.136663004755974">
        <ele>1396.4000000000001</ele>
        <time>2003-04-18T17:59:56Z</time>
      </trkpt>
      <trkpt lat="32.675042962655425" lon="-4.136752020567656">
        <ele>1396.2</ele>
        <time>2003-04-18T18:00:02Z</time>
      </trkpt>
      <trkpt lat="32.675259970128536" lon="-4.13674003444612">
        <ele>1397.0999999999999</ele>
        <time>2003-04-18T18:00:05Z</time>
      </trkpt>
      <trkpt lat="32.675440013408661" lon="-4.136702986434102">
        <ele>1396</ele>
        <time>2003-04-18T18:00:08Z</time>
      </trkpt>
      <trkpt lat="32.67603999003768" lon="-4.136595027521253">
        <ele>1395.2</ele>
        <time>2003-04-18T18:00:13Z</time>
      </trkpt>
      <trkpt lat="32.677012039348483" lon="-4.136429987847805">
        <ele>1393.4000000000001</ele>
        <time>2003-04-18T18:00:23Z</time>
      </trkpt>
      <trkpt lat="32.677549989894032" lon="-4.136367961764336">
        <ele>1392.5</ele>
        <time>2003-04-18T18:00:28Z</time>
      </trkpt>
      <trkpt lat="32.677747970446944" lon="-4.136367039754987">
        <ele>1391.7</ele>
        <time>2003-04-18T18:00:29Z</time>
      </trkpt>
      <trkpt lat="32.677979981526732" lon="-4.136384977027774">
        <ele>1391</ele>
        <time>2003-04-18T18:00:32Z</time>
      </trkpt>
      <trkpt lat="32.678090035915375" lon="-4.136362010613084">
        <ele>1390.5999999999999</ele>
        <time>2003-04-18T18:00:35Z</time>
      </trkpt>
      <trkpt lat="32.678221967071295" lon="-4.136281963437796">
        <ele>1389.9000000000001</ele>
        <time>2003-04-18T18:00:36Z</time>
      </trkpt>
      <trkpt lat="32.678388012573123" lon="-4.136233013123274">
        <ele>1389.8</ele>
        <time>2003-04-18T18:00:39Z</time>
      </trkpt>
      <trkpt lat="32.678684983402491" lon="-4.136177022010088">
        <ele>1389.4000000000001</ele>
        <time>2003-04-18T18:00:41Z</time>
      </trkpt>
      <trkpt lat="32.679229974746704" lon="-4.136042995378375">
        <ele>1388.5999999999999</ele>
        <time>2003-04-18T18:00:48Z</time>
      </trkpt>
      <trkpt lat="32.679350003600121" lon="-4.135994967073202">
        <ele>1388.5</ele>
        <time>2003-04-18T18:00:51Z</time>
      </trkpt>
      <trkpt lat="32.679537003859878" lon="-4.135958002880216">
        <ele>1389</ele>
        <time>2003-04-18T18:00:54Z</time>
      </trkpt>
      <trkpt lat="32.679698020219803" lon="-4.135939981788397">
        <ele>1388.5</ele>
        <time>2003-04-18T18:00:55Z</time>
      </trkpt>
      <trkpt lat="32.679866999387741" lon="-4.135884996503592">
        <ele>1387.7</ele>
        <time>2003-04-18T18:00:58Z</time>
      </trkpt>
      <trkpt lat="32.680185008794069" lon="-4.13581701926887">
        <ele>1386.9000000000001</ele>
        <time>2003-04-18T18:01:02Z</time>
      </trkpt>
      <trkpt lat="32.681127972900867" lon="-4.135642005130649">
        <ele>1389.2</ele>
        <time>2003-04-18T18:01:14Z</time>
      </trkpt>
      <trkpt lat="32.681335005909204" lon="-4.13560202345252">
        <ele>1389.4000000000001</ele>
        <time>2003-04-18T18:01:17Z</time>
      </trkpt>
      <trkpt lat="32.681637005880475" lon="-4.135532034561038">
        <ele>1392.4000000000001</ele>
        <time>2003-04-18T18:01:21Z</time>
      </trkpt>
      <trkpt lat="32.681907992810011" lon="-4.135470008477569">
        <ele>1394.7</ele>
        <time>2003-04-18T18:01:23Z</time>
      </trkpt>
      <trkpt lat="32.682606959715486" lon="-4.135319972410798">
        <ele>1402</ele>
        <time>2003-04-18T18:01:31Z</time>
      </trkpt>
      <trkpt lat="32.683235015720129" lon="-4.135070024058223">
        <ele>1403.2</ele>
        <time>2003-04-18T18:01:39Z</time>
      </trkpt>
      <trkpt lat="32.683927025645971" lon="-4.134780010208488">
        <ele>1401.7</ele>
        <time>2003-04-18T18:01:46Z</time>
      </trkpt>
      <trkpt lat="32.684781979769468" lon="-4.13439704105258">
        <ele>1397.9000000000001</ele>
        <time>2003-04-18T18:01:54Z</time>
      </trkpt>
      <trkpt lat="32.684942996129394" lon="-4.134338032454252">
        <ele>1397.7</ele>
        <time>2003-04-18T18:01:57Z</time>
      </trkpt>
      <trkpt lat="32.685262011364102" lon="-4.134220015257597">
        <ele>1396.9000000000001</ele>
        <time>2003-04-18T18:02:00Z</time>
      </trkpt>
      <trkpt lat="32.685641963034868" lon="-4.134045001119375">
        <ele>1396</ele>
        <time>2003-04-18T18:02:02Z</time>
      </trkpt>
      <trkpt lat="32.686560032889247" lon="-4.133682986721396">
        <ele>1394.7</ele>
        <time>2003-04-18T18:02:09Z</time>
      </trkpt>
      <trkpt lat="32.687499979510903" lon="-4.133332958444953">
        <ele>1392.2</ele>
        <time>2003-04-18T18:02:16Z</time>
      </trkpt>
      <trkpt lat="32.688012029975653" lon="-4.133113017305732">
        <ele>1389.5</ele>
        <time>2003-04-18T18:02:20Z</time>
      </trkpt>
      <trkpt lat="32.68886798992753" lon="-4.132540030404925">
        <ele>1386.9000000000001</ele>
        <time>2003-04-18T18:02:28Z</time>
      </trkpt>
      <trkpt lat="32.689720010384917" lon="-4.131939969956875">
        <ele>1385.4000000000001</ele>
        <time>2003-04-18T18:02:35Z</time>
      </trkpt>
      <trkpt lat="32.690527020022273" lon="-4.131367988884449">
        <ele>1382.5</ele>
        <time>2003-04-18T18:02:43Z</time>
      </trkpt>
      <trkpt lat="32.691311985254288" lon="-4.130723001435399">
        <ele>1380.5</ele>
        <time>2003-04-18T18:02:50Z</time>
      </trkpt>
      <trkpt lat="32.692099967971444" lon="-4.130074996501207">
        <ele>1380.9000000000001</ele>
        <time>2003-04-18T18:02:56Z</time>
      </trkpt>
      <trkpt lat="32.692922987043858" lon="-4.129469990730286">
        <ele>1378.9000000000001</ele>
        <time>2003-04-18T18:03:03Z</time>
      </trkpt>
      <trkpt lat="32.69378799945116" lon="-4.128846963867545">
        <ele>1375.9000000000001</ele>
        <time>2003-04-18T18:03:11Z</time>
      </trkpt>
      <trkpt lat="32.694602971896529" lon="-4.128223014995456">
        <ele>1373.4000000000001</ele>
        <time>2003-04-18T18:03:19Z</time>
      </trkpt>
      <trkpt lat="32.694888040423393" lon="-4.127916991710663">
        <ele>1372.7</ele>
        <time>2003-04-18T18:03:22Z</time>
      </trkpt>
      <trkpt lat="32.69550796598196" lon="-4.127109982073307">
        <ele>1370.2</ele>
        <time>2003-04-18T18:03:30Z</time>
      </trkpt>
      <trkpt lat="32.695736959576607" lon="-4.126777974888682">
        <ele>1369.5</ele>
        <time>2003-04-18T18:03:33Z</time>
      </trkpt>
      <trkpt lat="32.696340037509799" lon="-4.125931989401579">
        <ele>1363.5999999999999</ele>
        <time>2003-04-18T18:03:41Z</time>
      </trkpt>
      <trkpt lat="32.696499964222312" lon="-4.12576200440526">
        <ele>1362.9000000000001</ele>
        <time>2003-04-18T18:03:42Z</time>
      </trkpt>
      <trkpt lat="32.69664497114718" lon="-4.125584978610277">
        <ele>1361.5</ele>
        <time>2003-04-18T18:03:45Z</time>
      </trkpt>
      <trkpt lat="32.69681503996253" lon="-4.125411976128817">
        <ele>1360.7</ele>
        <time>2003-04-18T18:03:46Z</time>
      </trkpt>
      <trkpt lat="32.696913024410605" lon="-4.125351961702108">
        <ele>1359.7</ele>
        <time>2003-04-18T18:03:48Z</time>
      </trkpt>
      <trkpt lat="32.696994999423623" lon="-4.125281972810626">
        <ele>1359.7</ele>
        <time>2003-04-18T18:03:49Z</time>
      </trkpt>
      <trkpt lat="32.697758004069328" lon="-4.124628016725183">
        <ele>1355.8</ele>
        <time>2003-04-18T18:03:57Z</time>
      </trkpt>
      <trkpt lat="32.697858000174165" lon="-4.124506982043386">
        <ele>1355.5999999999999</ele>
        <time>2003-04-18T18:04:00Z</time>
      </trkpt>
      <trkpt lat="32.698024967685342" lon="-4.124427018687129">
        <ele>1355.0999999999999</ele>
        <time>2003-04-18T18:04:01Z</time>
      </trkpt>
      <trkpt lat="32.698214985430241" lon="-4.124325010925531">
        <ele>1354.5999999999999</ele>
        <time>2003-04-18T18:04:04Z</time>
      </trkpt>
      <trkpt lat="32.698635002598166" lon="-4.124055029824376">
        <ele>1354.7</ele>
        <time>2003-04-18T18:04:08Z</time>
      </trkpt>
      <trkpt lat="32.698852010071278" lon="-4.123925026506186">
        <ele>1354.5</ele>
        <time>2003-04-18T18:04:09Z</time>
      </trkpt>
      <trkpt lat="32.699073040857911" lon="-4.123812038451433">
        <ele>1354.3</ele>
        <time>2003-04-18T18:04:12Z</time>
      </trkpt>
      <trkpt lat="32.699971999973059" lon="-4.123492017388344">
        <ele>1349.8</ele>
        <time>2003-04-18T18:04:19Z</time>
      </trkpt>
      <trkpt lat="32.700880011543632" lon="-4.123160010203719">
        <ele>1348.5</ele>
        <time>2003-04-18T18:04:26Z</time>
      </trkpt>
      <trkpt lat="32.701540002599359" lon="-4.122975021600723">
        <ele>1349.8</ele>
        <time>2003-04-18T18:04:31Z</time>
      </trkpt>
      <trkpt lat="32.702544992789626" lon="-4.122766982764006">
        <ele>1347.4000000000001</ele>
        <time>2003-04-18T18:04:39Z</time>
      </trkpt>
      <trkpt lat="32.703298022970557" lon="-4.122633039951325">
        <ele>1346.4000000000001</ele>
        <time>2003-04-18T18:04:43Z</time>
      </trkpt>
      <trkpt lat="32.704194970428944" lon="-4.122461965307593">
        <ele>1346.2</ele>
        <time>2003-04-18T18:04:50Z</time>
      </trkpt>
      <trkpt lat="32.704290021210909" lon="-4.122440004721284">
        <ele>1348.3</ele>
        <time>2003-04-18T18:04:51Z</time>
      </trkpt>
      <trkpt lat="32.704478027299047" lon="-4.122374961152673">
        <ele>1348.3</ele>
        <time>2003-04-18T18:04:53Z</time>
      </trkpt>
      <trkpt lat="32.704563019797206" lon="-4.122310001403093">
        <ele>1348.2</ele>
        <time>2003-04-18T18:04:54Z</time>
      </trkpt>
      <trkpt lat="32.704950012266636" lon="-4.121967013925314">
        <ele>1347.9000000000001</ele>
        <time>2003-04-18T18:04:58Z</time>
      </trkpt>
      <trkpt lat="32.705429960042238" lon="-4.121567029505968">
        <ele>1346.9000000000001</ele>
        <time>2003-04-18T18:05:02Z</time>
      </trkpt>
      <trkpt lat="32.706073019653559" lon="-4.121063025668263">
        <ele>1345.5</ele>
        <time>2003-04-18T18:05:06Z</time>
      </trkpt>
      <trkpt lat="32.706792019307613" lon="-4.12071299739182">
        <ele>1343.5</ele>
        <time>2003-04-18T18:05:11Z</time>
      </trkpt>
      <trkpt lat="32.707298034802079" lon="-4.120415020734072">
        <ele>1342.7</ele>
        <time>2003-04-18T18:05:15Z</time>
      </trkpt>
      <trkpt lat="32.707467013970017" lon="-4.120206981897354">
        <ele>1342.2</ele>
        <time>2003-04-18T18:05:18Z</time>
      </trkpt>
      <trkpt lat="32.707668012008071" lon="-4.119813032448292">
        <ele>1341.5999999999999</ele>
        <time>2003-04-18T18:05:21Z</time>
      </trkpt>
      <trkpt lat="32.708091968670487" lon="-4.118836959823966">
        <ele>1339.5</ele>
        <time>2003-04-18T18:05:28Z</time>
      </trkpt>
      <trkpt lat="32.708382988348603" lon="-4.118028022348881">
        <ele>1337.5</ele>
        <time>2003-04-18T18:05:33Z</time>
      </trkpt>
      <trkpt lat="32.708479966968298" lon="-4.117659972980619">
        <ele>1337</ele>
        <time>2003-04-18T18:05:37Z</time>
      </trkpt>
      <trkpt lat="32.708563031628728" lon="-4.117444977164269">
        <ele>1336.8</ele>
        <time>2003-04-18T18:05:38Z</time>
      </trkpt>
      <trkpt lat="32.708775009959936" lon="-4.117052033543587">
        <ele>1335.4000000000001</ele>
        <time>2003-04-18T18:05:42Z</time>
      </trkpt>
      <trkpt lat="32.708967039361596" lon="-4.116662023589015">
        <ele>1333.2</ele>
        <time>2003-04-18T18:05:47Z</time>
      </trkpt>
      <trkpt lat="32.709110034629703" lon="-4.116322975605726">
        <ele>1329.9000000000001</ele>
        <time>2003-04-18T18:05:49Z</time>
      </trkpt>
      <trkpt lat="32.709193015471101" lon="-4.116239994764328">
        <ele>1329.5</ele>
        <time>2003-04-18T18:05:51Z</time>
      </trkpt>
      <trkpt lat="32.709858035668731" lon="-4.11551303230226">
        <ele>1322.8</ele>
        <time>2003-04-18T18:05:59Z</time>
      </trkpt>
      <trkpt lat="32.709959959611297" lon="-4.115353021770716">
        <ele>1321.5</ele>
        <time>2003-04-18T18:06:00Z</time>
      </trkpt>
      <trkpt lat="32.709979992359877" lon="-4.115241961553693">
        <ele>1320.2</ele>
        <time>2003-04-18T18:06:03Z</time>
      </trkpt>
      <trkpt lat="32.70990296266973" lon="-4.115146994590759">
        <ele>1319.0999999999999</ele>
        <time>2003-04-18T18:06:04Z</time>
      </trkpt>
      <trkpt lat="32.709764996543527" lon="-4.115112964063883">
        <ele>1318.4000000000001</ele>
        <time>2003-04-18T18:06:07Z</time>
      </trkpt>
      <trkpt lat="32.709547989070415" lon="-4.115048004314303">
        <ele>1317.0999999999999</ele>
        <time>2003-04-18T18:06:09Z</time>
      </trkpt>
      <trkpt lat="32.709416979923844" lon="-4.115007016807795">
        <ele>1316</ele>
        <time>2003-04-18T18:06:12Z</time>
      </trkpt>
      <trkpt lat="32.709304997697473" lon="-4.114922024309635">
        <ele>1314.7</ele>
        <time>2003-04-18T18:06:14Z</time>
      </trkpt>
      <trkpt lat="32.709222016856074" lon="-4.114767964929342">
        <ele>1312.3</ele>
        <time>2003-04-18T18:06:16Z</time>
      </trkpt>
      <trkpt lat="32.709201984107494" lon="-4.114582976326346">
        <ele>1311.3</ele>
        <time>2003-04-18T18:06:18Z</time>
      </trkpt>
      <trkpt lat="32.70923500880599" lon="-4.114415002986789">
        <ele>1309</ele>
        <time>2003-04-18T18:06:19Z</time>
      </trkpt>
      <trkpt lat="32.709316983819008" lon="-4.114262033253908">
        <ele>1307.4000000000001</ele>
        <time>2003-04-18T18:06:22Z</time>
      </trkpt>
      <trkpt lat="32.709437012672424" lon="-4.114028010517359">
        <ele>1305.4000000000001</ele>
        <time>2003-04-18T18:06:24Z</time>
      </trkpt>
      <trkpt lat="32.709627030417323" lon="-4.113683011382818">
        <ele>1300.0999999999999</ele>
        <time>2003-04-18T18:06:28Z</time>
      </trkpt>
      <trkpt lat="32.709668017923832" lon="-4.113587960600853">
        <ele>1298.8</ele>
        <time>2003-04-18T18:06:30Z</time>
      </trkpt>
      <trkpt lat="32.709832973778248" lon="-4.113232987001538">
        <ele>1297.5</ele>
        <time>2003-04-18T18:06:34Z</time>
      </trkpt>
      <trkpt lat="32.709906985983253" lon="-4.113080017268658">
        <ele>1297.0999999999999</ele>
        <time>2003-04-18T18:06:35Z</time>
      </trkpt>
      <trkpt lat="32.710079988464713" lon="-4.112769970670342">
        <ele>1294.4000000000001</ele>
        <time>2003-04-18T18:06:39Z</time>
      </trkpt>
      <trkpt lat="32.710252990946174" lon="-4.112580036744475">
        <ele>1292.4000000000001</ele>
        <time>2003-04-18T18:06:43Z</time>
      </trkpt>
      <trkpt lat="32.71041501313448" lon="-4.112379960715771">
        <ele>1289.4000000000001</ele>
        <time>2003-04-18T18:06:46Z</time>
      </trkpt>
      <trkpt lat="32.710496988147497" lon="-4.112215004861355">
        <ele>1286.3</ele>
        <time>2003-04-18T18:06:47Z</time>
      </trkpt>
      <trkpt lat="32.71054501645267" lon="-4.112022975459695">
        <ele>1285.7</ele>
        <time>2003-04-18T18:06:50Z</time>
      </trkpt>
      <trkpt lat="32.710578041151166" lon="-4.111760035157204">
        <ele>1283.9000000000001</ele>
        <time>2003-04-18T18:06:53Z</time>
      </trkpt>
      <trkpt lat="32.710611987859011" lon="-4.111628020182252">
        <ele>1282.3</ele>
        <time>2003-04-18T18:06:54Z</time>
      </trkpt>
      <trkpt lat="32.710705026984215" lon="-4.111470021307468">
        <ele>1281</ele>
        <time>2003-04-18T18:06:57Z</time>
      </trkpt>
      <trkpt lat="32.710877023637295" lon="-4.111276986077428">
        <ele>1279.9000000000001</ele>
        <time>2003-04-18T18:06:59Z</time>
      </trkpt>
      <trkpt lat="32.711047008633614" lon="-4.111212026327848">
        <ele>1279.2</ele>
        <time>2003-04-18T18:07:02Z</time>
      </trkpt>
      <trkpt lat="32.711216993629932" lon="-4.111198028549552">
        <ele>1279</ele>
        <time>2003-04-18T18:07:03Z</time>
      </trkpt>
      <trkpt lat="32.711446993052959" lon="-4.111147988587618">
        <ele>1277.7</ele>
        <time>2003-04-18T18:07:06Z</time>
      </trkpt>
      <trkpt lat="32.711544977501035" lon="-4.111123010516167">
        <ele>1277.9000000000001</ele>
        <time>2003-04-18T18:07:09Z</time>
      </trkpt>
      <trkpt lat="32.711685039103031" lon="-4.111091997474432">
        <ele>1277.5</ele>
        <time>2003-04-18T18:07:10Z</time>
      </trkpt>
      <trkpt lat="32.71181202493608" lon="-4.110992001369596">
        <ele>1277.7</ele>
        <time>2003-04-18T18:07:13Z</time>
      </trkpt>
      <trkpt lat="32.7120700199157" lon="-4.110767031088471">
        <ele>1277.9000000000001</ele>
        <time>2003-04-18T18:07:17Z</time>
      </trkpt>
      <trkpt lat="32.712232964113355" lon="-4.110696958377957">
        <ele>1278.9000000000001</ele>
        <time>2003-04-18T18:07:18Z</time>
      </trkpt>
      <trkpt lat="32.712337989360094" lon="-4.110665023326874">
        <ele>1279.5</ele>
        <time>2003-04-18T18:07:21Z</time>
      </trkpt>
      <trkpt lat="32.712428011000156" lon="-4.110631998628378">
        <ele>1278.8</ele>
        <time>2003-04-18T18:07:24Z</time>
      </trkpt>
      <trkpt lat="32.712552985176444" lon="-4.110562009736896">
        <ele>1279.3</ele>
        <time>2003-04-18T18:07:25Z</time>
      </trkpt>
      <trkpt lat="32.712724981829524" lon="-4.110524961724877">
        <ele>1280.7</ele>
        <time>2003-04-18T18:07:28Z</time>
      </trkpt>
      <trkpt lat="32.7129300031811" lon="-4.110527979210019">
        <ele>1278.7</ele>
        <time>2003-04-18T18:07:29Z</time>
      </trkpt>
      <trkpt lat="32.713022036477923" lon="-4.110526973381639">
        <ele>1278.7</ele>
        <time>2003-04-18T18:07:30Z</time>
      </trkpt>
      <trkpt lat="32.713281959295273" lon="-4.110467964783311">
        <ele>1279.4000000000001</ele>
        <time>2003-04-18T18:07:33Z</time>
      </trkpt>
      <trkpt lat="32.713397964835167" lon="-4.110386995598674">
        <ele>1281.4000000000001</ele>
        <time>2003-04-18T18:07:36Z</time>
      </trkpt>
      <trkpt lat="32.713571973145008" lon="-4.110288005322218">
        <ele>1279.8</ele>
        <time>2003-04-18T18:07:37Z</time>
      </trkpt>
      <trkpt lat="32.713883025571704" lon="-4.110127994790673">
        <ele>1278.7</ele>
        <time>2003-04-18T18:07:40Z</time>
      </trkpt>
      <trkpt lat="32.714243028312922" lon="-4.109928002581">
        <ele>1278.2</ele>
        <time>2003-04-18T18:07:44Z</time>
      </trkpt>
      <trkpt lat="32.714479984715581" lon="-4.109760029241443">
        <ele>1277.5</ele>
        <time>2003-04-18T18:07:48Z</time>
      </trkpt>
      <trkpt lat="32.714839987456799" lon="-4.10947797819972">
        <ele>1276.2</ele>
        <time>2003-04-18T18:07:52Z</time>
      </trkpt>
      <trkpt lat="32.714922968298197" lon="-4.109392985701561">
        <ele>1275.3</ele>
        <time>2003-04-18T18:07:55Z</time>
      </trkpt>
      <trkpt lat="32.715042997151613" lon="-4.109273040667176">
        <ele>1273.0999999999999</ele>
        <time>2003-04-18T18:07:56Z</time>
      </trkpt>
      <trkpt lat="32.715171994641423" lon="-4.109100038185716">
        <ele>1271.5</ele>
        <time>2003-04-18T18:07:59Z</time>
      </trkpt>
      <trkpt lat="32.715295040979981" lon="-4.108952013775706">
        <ele>1273.7</ele>
        <time>2003-04-18T18:08:00Z</time>
      </trkpt>
      <trkpt lat="32.715392019599676" lon="-4.108829973265529">
        <ele>1274.3</ele>
        <time>2003-04-18T18:08:03Z</time>
      </trkpt>
      <trkpt lat="32.716019991785288" lon="-4.107988011091948">
        <ele>1271.4000000000001</ele>
        <time>2003-04-18T18:08:15Z</time>
      </trkpt>
      <trkpt lat="32.716428022831678" lon="-4.107236992567778">
        <ele>1268.2</ele>
        <time>2003-04-18T18:08:23Z</time>
      </trkpt>
      <trkpt lat="32.716545034199953" lon="-4.106952007859945">
        <ele>1269.0999999999999</ele>
        <time>2003-04-18T18:08:26Z</time>
      </trkpt>
      <trkpt lat="32.716652993112803" lon="-4.106814963743091">
        <ele>1268.3</ele>
        <time>2003-04-18T18:08:27Z</time>
      </trkpt>
      <trkpt lat="32.716824989765882" lon="-4.106567027047277">
        <ele>1268.9000000000001</ele>
        <time>2003-04-18T18:08:31Z</time>
      </trkpt>
      <trkpt lat="32.716867988929152" lon="-4.106417996808887">
        <ele>1270.2</ele>
        <time>2003-04-18T18:08:33Z</time>
      </trkpt>
      <trkpt lat="32.716962033882737" lon="-4.106150027364492">
        <ele>1270.8</ele>
        <time>2003-04-18T18:08:35Z</time>
      </trkpt>
      <trkpt lat="32.717133024707437" lon="-4.105851966887713">
        <ele>1271.0999999999999</ele>
        <time>2003-04-18T18:08:38Z</time>
      </trkpt>
      <trkpt lat="32.71720502525568" lon="-4.105752976611257">
        <ele>1271.2</ele>
        <time>2003-04-18T18:08:39Z</time>
      </trkpt>
      <trkpt lat="32.717823022976518" lon="-4.104798026382923">
        <ele>1270.5999999999999</ele>
        <time>2003-04-18T18:08:49Z</time>
      </trkpt>
      <trkpt lat="32.717955037951469" lon="-4.104565009474754">
        <ele>1271</ele>
        <time>2003-04-18T18:08:50Z</time>
      </trkpt>
      <trkpt lat="32.718492988497019" lon="-4.103636965155602">
        <ele>1268</ele>
        <time>2003-04-18T18:08:58Z</time>
      </trkpt>
      <trkpt lat="32.719043008983135" lon="-4.102715039625764">
        <ele>1266.5999999999999</ele>
        <time>2003-04-18T18:09:06Z</time>
      </trkpt>
      <trkpt lat="32.719224980100989" lon="-4.102453021332622">
        <ele>1266.2</ele>
        <time>2003-04-18T18:09:09Z</time>
      </trkpt>
      <trkpt lat="32.719463026151061" lon="-4.102144986391068">
        <ele>1265.8</ele>
        <time>2003-04-18T18:09:13Z</time>
      </trkpt>
      <trkpt lat="32.719551958143711" lon="-4.102097041904926">
        <ele>1265.8</ele>
        <time>2003-04-18T18:09:14Z</time>
      </trkpt>
      <trkpt lat="32.719826968386769" lon="-4.101953040808439">
        <ele>1264.2</ele>
        <time>2003-04-18T18:09:17Z</time>
      </trkpt>
      <trkpt lat="32.719902992248535" lon="-4.101863019168377">
        <ele>1264.2</ele>
        <time>2003-04-18T18:09:18Z</time>
      </trkpt>
      <trkpt lat="32.720071971416473" lon="-4.101702002808452">
        <ele>1264.7</ele>
        <time>2003-04-18T18:09:21Z</time>
      </trkpt>
      <trkpt lat="32.720161993056536" lon="-4.101657997816801">
        <ele>1264.7</ele>
        <time>2003-04-18T18:09:21Z</time>
      </trkpt>
      <trkpt lat="32.720331978052855" lon="-4.101622039452195">
        <ele>1262.9000000000001</ele>
        <time>2003-04-18T18:09:24Z</time>
      </trkpt>
      <trkpt lat="32.720462987199426" lon="-4.101605024188757">
        <ele>1261.5999999999999</ele>
        <time>2003-04-18T18:09:25Z</time>
      </trkpt>
      <trkpt lat="32.720628026872873" lon="-4.101492036134005">
        <ele>1261.3</ele>
        <time>2003-04-18T18:09:31Z</time>
      </trkpt>
      <trkpt lat="32.720743026584387" lon="-4.101409977301955">
        <ele>1261.9000000000001</ele>
        <time>2003-04-18T18:09:32Z</time>
      </trkpt>
      <trkpt lat="32.720940001308918" lon="-4.101273017004132">
        <ele>1262.7</ele>
        <time>2003-04-18T18:09:36Z</time>
      </trkpt>
      <trkpt lat="32.721062041819096" lon="-4.101218031719327">
        <ele>1262.5</ele>
        <time>2003-04-18T18:09:37Z</time>
      </trkpt>
      <trkpt lat="32.721166983246803" lon="-4.101188024505973">
        <ele>1261.5999999999999</ele>
        <time>2003-04-18T18:09:40Z</time>
      </trkpt>
      <trkpt lat="32.721311990171671" lon="-4.101164974272251">
        <ele>1260.4000000000001</ele>
        <time>2003-04-18T18:09:41Z</time>
      </trkpt>
      <trkpt lat="32.721442999318242" lon="-4.101103032007814">
        <ele>1259.5999999999999</ele>
        <time>2003-04-18T18:09:44Z</time>
      </trkpt>
      <trkpt lat="32.721617007628083" lon="-4.100976968184114">
        <ele>1258.5</ele>
        <time>2003-04-18T18:09:47Z</time>
      </trkpt>
      <trkpt lat="32.721733013167977" lon="-4.100860040634871">
        <ele>1260.9000000000001</ele>
        <time>2003-04-18T18:09:48Z</time>
      </trkpt>
      <trkpt lat="32.721832003444433" lon="-4.100783010944724">
        <ele>1263.3</ele>
        <time>2003-04-18T18:09:51Z</time>
      </trkpt>
      <trkpt lat="32.721971981227398" lon="-4.100774964317679">
        <ele>1263.2</ele>
        <time>2003-04-18T18:09:52Z</time>
      </trkpt>
      <trkpt lat="32.722097039222717" lon="-4.100715033710003">
        <ele>1262.5999999999999</ele>
        <time>2003-04-18T18:09:55Z</time>
      </trkpt>
      <trkpt lat="32.722148001194" lon="-4.100568015128374">
        <ele>1264.4000000000001</ele>
        <time>2003-04-18T18:09:56Z</time>
      </trkpt>
      <trkpt lat="32.72223299369216" lon="-4.100457960739732">
        <ele>1265.5999999999999</ele>
        <time>2003-04-18T18:09:59Z</time>
      </trkpt>
      <trkpt lat="32.72234296426177" lon="-4.100380009040237">
        <ele>1265.8</ele>
        <time>2003-04-18T18:10:00Z</time>
      </trkpt>
      <trkpt lat="32.722527030855417" lon="-4.100370034575462">
        <ele>1265.5999999999999</ele>
        <time>2003-04-18T18:10:03Z</time>
      </trkpt>
      <trkpt lat="32.722627026960254" lon="-4.100368022918701">
        <ele>1265.3</ele>
        <time>2003-04-18T18:10:03Z</time>
      </trkpt>
      <trkpt lat="32.722730040550232" lon="-4.100350001826882">
        <ele>1264.7</ele>
        <time>2003-04-18T18:10:04Z</time>
      </trkpt>
      <trkpt lat="32.722928021103144" lon="-4.100289987400174">
        <ele>1264.5999999999999</ele>
        <time>2003-04-18T18:10:07Z</time>
      </trkpt>
      <trkpt lat="32.723119966685772" lon="-4.100192002952099">
        <ele>1264.2</ele>
        <time>2003-04-18T18:10:08Z</time>
      </trkpt>
      <trkpt lat="32.72347804158926" lon="-4.099922021850944">
        <ele>1263.2</ele>
        <time>2003-04-18T18:10:12Z</time>
      </trkpt>
      <trkpt lat="32.72421196103096" lon="-4.099277034401894">
        <ele>1258.7</ele>
        <time>2003-04-18T18:10:21Z</time>
      </trkpt>
      <trkpt lat="32.724371971562505" lon="-4.099187012761831">
        <ele>1258.2</ele>
        <time>2003-04-18T18:10:22Z</time>
      </trkpt>
      <trkpt lat="32.724468028172851" lon="-4.099148036912084">
        <ele>1257.7</ele>
        <time>2003-04-18T18:10:25Z</time>
      </trkpt>
      <trkpt lat="32.724562995135784" lon="-4.099073018878698">
        <ele>1258</ele>
        <time>2003-04-18T18:10:27Z</time>
      </trkpt>
      <trkpt lat="32.724671959877014" lon="-4.098998000845313">
        <ele>1257.7</ele>
        <time>2003-04-18T18:10:30Z</time>
      </trkpt>
      <trkpt lat="32.724829958751798" lon="-4.098912002518773">
        <ele>1256.9000000000001</ele>
        <time>2003-04-18T18:10:31Z</time>
      </trkpt>
      <trkpt lat="32.724944958463311" lon="-4.098758026957512">
        <ele>1257</ele>
        <time>2003-04-18T18:10:34Z</time>
      </trkpt>
      <trkpt lat="32.725013019517064" lon="-4.098687032237649">
        <ele>1256.5999999999999</ele>
        <time>2003-04-18T18:10:34Z</time>
      </trkpt>
      <trkpt lat="32.725094994530082" lon="-4.098627017810941">
        <ele>1256.5999999999999</ele>
        <time>2003-04-18T18:10:35Z</time>
      </trkpt>
      <trkpt lat="32.725375033915043" lon="-4.098459966480732">
        <ele>1255.5999999999999</ele>
        <time>2003-04-18T18:10:38Z</time>
      </trkpt>
      <trkpt lat="32.725581983104348" lon="-4.098401963710785">
        <ele>1255.3</ele>
        <time>2003-04-18T18:10:41Z</time>
      </trkpt>
      <trkpt lat="32.725794967263937" lon="-4.098386960104108">
        <ele>1255.8</ele>
        <time>2003-04-18T18:10:44Z</time>
      </trkpt>
      <trkpt lat="32.725966963917017" lon="-4.098386960104108">
        <ele>1256.5999999999999</ele>
        <time>2003-04-18T18:10:45Z</time>
      </trkpt>
      <trkpt lat="32.726095039397478" lon="-4.098377991467714">
        <ele>1255.9000000000001</ele>
        <time>2003-04-18T18:10:46Z</time>
      </trkpt>
      <trkpt lat="32.726416988298297" lon="-4.098319988697767">
        <ele>1256.9000000000001</ele>
        <time>2003-04-18T18:10:50Z</time>
      </trkpt>
      <trkpt lat="32.726742038503289" lon="-4.098270032554865">
        <ele>1256.5999999999999</ele>
        <time>2003-04-18T18:10:53Z</time>
      </trkpt>
      <trkpt lat="32.727121990174055" lon="-4.098219992592931">
        <ele>1256.0999999999999</ele>
        <time>2003-04-18T18:10:57Z</time>
      </trkpt>
      <trkpt lat="32.72743203677237" lon="-4.098168024793267">
        <ele>1255.7</ele>
        <time>2003-04-18T18:11:01Z</time>
      </trkpt>
      <trkpt lat="32.727512000128627" lon="-4.098099963739514">
        <ele>1256.2</ele>
        <time>2003-04-18T18:11:01Z</time>
      </trkpt>
      <trkpt lat="32.727703023701906" lon="-4.097974989563227">
        <ele>1256.5999999999999</ele>
        <time>2003-04-18T18:11:04Z</time>
      </trkpt>
      <trkpt lat="32.727848030626774" lon="-4.097880022600293">
        <ele>1259.0999999999999</ele>
        <time>2003-04-18T18:11:05Z</time>
      </trkpt>
      <trkpt lat="32.727982979267836" lon="-4.097838029265404">
        <ele>1259.7</ele>
        <time>2003-04-18T18:11:08Z</time>
      </trkpt>
      <trkpt lat="32.728152964264154" lon="-4.097777009010315">
        <ele>1258.7</ele>
        <time>2003-04-18T18:11:09Z</time>
      </trkpt>
      <trkpt lat="32.728333007544279" lon="-4.09768296405673">
        <ele>1257.4000000000001</ele>
        <time>2003-04-18T18:11:12Z</time>
      </trkpt>
      <trkpt lat="32.72859301418066" lon="-4.097533011808991">
        <ele>1255.9000000000001</ele>
        <time>2003-04-18T18:11:15Z</time>
      </trkpt>
      <trkpt lat="32.728922003880143" lon="-4.097420023754239">
        <ele>1253.8</ele>
        <time>2003-04-18T18:11:17Z</time>
      </trkpt>
      <trkpt lat="32.72900003939867" lon="-4.097342994064093">
        <ele>1253.7</ele>
        <time>2003-04-18T18:11:19Z</time>
      </trkpt>
      <trkpt lat="32.729089977219701" lon="-4.097279962152243">
        <ele>1254.4000000000001</ele>
        <time>2003-04-18T18:11:20Z</time>
      </trkpt>
      <trkpt lat="32.729242024943233" lon="-4.097145013511181">
        <ele>1253.3</ele>
        <time>2003-04-18T18:11:21Z</time>
      </trkpt>
      <trkpt lat="32.729440005496144" lon="-4.096973016858101">
        <ele>1252.5</ele>
        <time>2003-04-18T18:11:24Z</time>
      </trkpt>
      <trkpt lat="32.729591969400644" lon="-4.09695197828114">
        <ele>1251.8</ele>
        <time>2003-04-18T18:11:27Z</time>
      </trkpt>
      <trkpt lat="32.729748040437698" lon="-4.096975028514862">
        <ele>1251.0999999999999</ele>
        <time>2003-04-18T18:11:28Z</time>
      </trkpt>
      <trkpt lat="32.729930011555552" lon="-4.096936974674463">
        <ele>1250.3</ele>
        <time>2003-04-18T18:11:31Z</time>
      </trkpt>
      <trkpt lat="32.730024978518486" lon="-4.096934963017702">
        <ele>1250.3</ele>
        <time>2003-04-18T18:11:32Z</time>
      </trkpt>
      <trkpt lat="32.73011801764369" lon="-4.096943009644747">
        <ele>1250.2</ele>
        <time>2003-04-18T18:11:32Z</time>
      </trkpt>
      <trkpt lat="32.730280039831996" lon="-4.096957007423043">
        <ele>1250.7</ele>
        <time>2003-04-18T18:11:35Z</time>
      </trkpt>
      <trkpt lat="32.730405014008284" lon="-4.096882995218039">
        <ele>1251.0999999999999</ele>
        <time>2003-04-18T18:11:36Z</time>
      </trkpt>
      <trkpt lat="32.730601988732815" lon="-4.09669297747314">
        <ele>1250</ele>
        <time>2003-04-18T18:11:40Z</time>
      </trkpt>
      <trkpt lat="32.73074003867805" lon="-4.096517963334918">
        <ele>1248.7</ele>
        <time>2003-04-18T18:11:42Z</time>
      </trkpt>
      <trkpt lat="32.731204982846975" lon="-4.095952017232776">
        <ele>1247.5999999999999</ele>
        <time>2003-04-18T18:11:47Z</time>
      </trkpt>
      <trkpt lat="32.731692977249622" lon="-4.095401996746659">
        <ele>1245.3</ele>
        <time>2003-04-18T18:11:54Z</time>
      </trkpt>
      <trkpt lat="32.731866985559464" lon="-4.095107037574053">
        <ele>1244.9000000000001</ele>
        <time>2003-04-18T18:11:56Z</time>
      </trkpt>
      <trkpt lat="32.732196981087327" lon="-4.094577971845865">
        <ele>1244</ele>
        <time>2003-04-18T18:12:02Z</time>
      </trkpt>
      <trkpt lat="32.732711965218186" lon="-4.093971960246563">
        <ele>1244.5999999999999</ele>
        <time>2003-04-18T18:12:09Z</time>
      </trkpt>
      <trkpt lat="32.73304196074605" lon="-4.093608018010855">
        <ele>1242.0999999999999</ele>
        <time>2003-04-18T18:12:13Z</time>
      </trkpt>
      <trkpt lat="32.733156960457563" lon="-4.093502992764115">
        <ele>1243.2</ele>
        <time>2003-04-18T18:12:14Z</time>
      </trkpt>
      <trkpt lat="32.733502965420485" lon="-4.093281961977482">
        <ele>1242.8</ele>
        <time>2003-04-18T18:12:18Z</time>
      </trkpt>
      <trkpt lat="32.733891969546676" lon="-4.093105020001531">
        <ele>1240.8</ele>
        <time>2003-04-18T18:12:22Z</time>
      </trkpt>
      <trkpt lat="32.734036976471543" lon="-4.093071995303035">
        <ele>1243.5999999999999</ele>
        <time>2003-04-18T18:12:25Z</time>
      </trkpt>
      <trkpt lat="32.734248032793403" lon="-4.093011980876327">
        <ele>1240.5</ele>
        <time>2003-04-18T18:12:26Z</time>
      </trkpt>
      <trkpt lat="32.734708031639457" lon="-4.092899998649955">
        <ele>1239.5</ele>
        <time>2003-04-18T18:12:32Z</time>
      </trkpt>
      <trkpt lat="32.734848009422421" lon="-4.092866973951459">
        <ele>1238.5</ele>
        <time>2003-04-18T18:12:34Z</time>
      </trkpt>
      <trkpt lat="32.7351029869169" lon="-4.092777036130428">
        <ele>1237.3</ele>
        <time>2003-04-18T18:12:37Z</time>
      </trkpt>
      <trkpt lat="32.735540019348264" lon="-4.092648038640618">
        <ele>1237.4000000000001</ele>
        <time>2003-04-18T18:12:41Z</time>
      </trkpt>
      <trkpt lat="32.73566298186779" lon="-4.092617025598884">
        <ele>1237.3</ele>
        <time>2003-04-18T18:12:44Z</time>
      </trkpt>
      <trkpt lat="32.735852999612689" lon="-4.092573020607233">
        <ele>1237</ele>
        <time>2003-04-18T18:12:45Z</time>
      </trkpt>
      <trkpt lat="32.736076964065433" lon="-4.092517029494047">
        <ele>1236.5999999999999</ele>
        <time>2003-04-18T18:12:48Z</time>
      </trkpt>
      <trkpt lat="32.736754976212978" lon="-4.092377973720431">
        <ele>1234.5999999999999</ele>
        <time>2003-04-18T18:12:54Z</time>
      </trkpt>
      <trkpt lat="32.737223021686077" lon="-4.092113021761179">
        <ele>1233.4000000000001</ele>
        <time>2003-04-18T18:13:00Z</time>
      </trkpt>
      <trkpt lat="32.737542958930135" lon="-4.091915041208267">
        <ele>1232.7</ele>
        <time>2003-04-18T18:13:03Z</time>
      </trkpt>
      <trkpt lat="32.737637003883719" lon="-4.091912023723126">
        <ele>1232.5</ele>
        <time>2003-04-18T18:13:04Z</time>
      </trkpt>
      <trkpt lat="32.737736999988556" lon="-4.091919986531138">
        <ele>1232.0999999999999</ele>
        <time>2003-04-18T18:13:05Z</time>
      </trkpt>
      <trkpt lat="32.737825009971857" lon="-4.091946976259351">
        <ele>1232.0999999999999</ele>
        <time>2003-04-18T18:13:07Z</time>
      </trkpt>
      <trkpt lat="32.73819699883461" lon="-4.092016965150833">
        <ele>1232.7</ele>
        <time>2003-04-18T18:13:11Z</time>
      </trkpt>
      <trkpt lat="32.738294983282685" lon="-4.092013025656343">
        <ele>1232.7</ele>
        <time>2003-04-18T18:13:12Z</time>
      </trkpt>
      <trkpt lat="32.738479971885681" lon="-4.091967009007931">
        <ele>1233.4000000000001</ele>
        <time>2003-04-18T18:13:13Z</time>
      </trkpt>
      <trkpt lat="32.738566976040602" lon="-4.091916969045997">
        <ele>1233.4000000000001</ele>
        <time>2003-04-18T18:13:15Z</time>
      </trkpt>
      <trkpt lat="32.738762022927403" lon="-4.09177296794951">
        <ele>1232.0999999999999</ele>
        <time>2003-04-18T18:13:16Z</time>
      </trkpt>
      <trkpt lat="32.739110039547086" lon="-4.091427968814969">
        <ele>1232.2</ele>
        <time>2003-04-18T18:13:20Z</time>
      </trkpt>
      <trkpt lat="32.739542964845896" lon="-4.090815000236034">
        <ele>1231.5999999999999</ele>
        <time>2003-04-18T18:13:27Z</time>
      </trkpt>
      <trkpt lat="32.739689983427525" lon="-4.090666975826025">
        <ele>1231.5999999999999</ele>
        <time>2003-04-18T18:13:28Z</time>
      </trkpt>
      <trkpt lat="32.739883018657565" lon="-4.090577960014343">
        <ele>1231.4000000000001</ele>
        <time>2003-04-18T18:13:31Z</time>
      </trkpt>
      <trkpt lat="32.74004302918911" lon="-4.090481987223029">
        <ele>1232.0999999999999</ele>
        <time>2003-04-18T18:13:32Z</time>
      </trkpt>
      <trkpt lat="32.740185018628836" lon="-4.090342009440064">
        <ele>1231.5</ele>
        <time>2003-04-18T18:13:35Z</time>
      </trkpt>
      <trkpt lat="32.740327008068562" lon="-4.090132964774966">
        <ele>1230.3</ele>
        <time>2003-04-18T18:13:36Z</time>
      </trkpt>
      <trkpt lat="32.74053999222815" lon="-4.089807998389006">
        <ele>1228.7</ele>
        <time>2003-04-18T18:13:39Z</time>
      </trkpt>
      <trkpt lat="32.740833023563027" lon="-4.089522007852793">
        <ele>1228</ele>
        <time>2003-04-18T18:13:43Z</time>
      </trkpt>
      <trkpt lat="32.740939976647496" lon="-4.089467022567987">
        <ele>1228.3</ele>
        <time>2003-04-18T18:13:43Z</time>
      </trkpt>
      <trkpt lat="32.741047013550997" lon="-4.089440032839775">
        <ele>1228.3</ele>
        <time>2003-04-18T18:13:44Z</time>
      </trkpt>
      <trkpt lat="32.74174002930522" lon="-4.089286979287863">
        <ele>1228</ele>
        <time>2003-04-18T18:13:51Z</time>
      </trkpt>
      <trkpt lat="32.742294995114207" lon="-4.089257977902889">
        <ele>1229.7</ele>
        <time>2003-04-18T18:13:55Z</time>
      </trkpt>
      <trkpt lat="32.742605041712523" lon="-4.089244985952973">
        <ele>1229.4000000000001</ele>
        <time>2003-04-18T18:13:58Z</time>
      </trkpt>
      <trkpt lat="32.74270998314023" lon="-4.089241968467832">
        <ele>1228.8</ele>
        <time>2003-04-18T18:13:59Z</time>
      </trkpt>
      <trkpt lat="32.743027992546558" lon="-4.08917298540473">
        <ele>1229</ele>
        <time>2003-04-18T18:14:02Z</time>
      </trkpt>
      <trkpt lat="32.743120025843382" lon="-4.089116994291544">
        <ele>1228.7</ele>
        <time>2003-04-18T18:14:03Z</time>
      </trkpt>
      <trkpt lat="32.743199989199638" lon="-4.089042982086539">
        <ele>1228.7</ele>
        <time>2003-04-18T18:14:05Z</time>
      </trkpt>
      <trkpt lat="32.743266960605979" lon="-4.088960001245141">
        <ele>1228.8</ele>
        <time>2003-04-18T18:14:06Z</time>
      </trkpt>
      <trkpt lat="32.743318006396294" lon="-4.08885195851326">
        <ele>1225.9000000000001</ele>
        <time>2003-04-18T18:14:06Z</time>
      </trkpt>
      <trkpt lat="32.743350025266409" lon="-4.088735030964017">
        <ele>1226.8</ele>
        <time>2003-04-18T18:14:07Z</time>
      </trkpt>
      <trkpt lat="32.743435017764568" lon="-4.088511988520622">
        <ele>1225</ele>
        <time>2003-04-18T18:14:10Z</time>
      </trkpt>
      <trkpt lat="32.74356996640563" lon="-4.08824703656137">
        <ele>1224.7</ele>
        <time>2003-04-18T18:14:11Z</time>
      </trkpt>
      <trkpt lat="32.743701981380582" lon="-4.087943024933338">
        <ele>1223.5</ele>
        <time>2003-04-18T18:14:14Z</time>
      </trkpt>
      <trkpt lat="32.743801977485418" lon="-4.087543040513992">
        <ele>1222.9000000000001</ele>
        <time>2003-04-18T18:14:17Z</time>
      </trkpt>
      <trkpt lat="32.743914965540171" lon="-4.08698296174407">
        <ele>1221.5999999999999</ele>
        <time>2003-04-18T18:14:21Z</time>
      </trkpt>
      <trkpt lat="32.743982020765543" lon="-4.086869973689318">
        <ele>1221.5999999999999</ele>
        <time>2003-04-18T18:14:22Z</time>
      </trkpt>
      <trkpt lat="32.744065001606941" lon="-4.086780035868287">
        <ele>1221.3</ele>
        <time>2003-04-18T18:14:22Z</time>
      </trkpt>
      <trkpt lat="32.744264993816614" lon="-4.086627988144755">
        <ele>1220.4000000000001</ele>
        <time>2003-04-18T18:14:25Z</time>
      </trkpt>
      <trkpt lat="32.744385022670031" lon="-4.08657199703157">
        <ele>1220.3</ele>
        <time>2003-04-18T18:14:25Z</time>
      </trkpt>
      <trkpt lat="32.744845021516085" lon="-4.086311990395188">
        <ele>1220.5</ele>
        <time>2003-04-18T18:14:29Z</time>
      </trkpt>
      <trkpt lat="32.745371991768479" lon="-4.085937989875674">
        <ele>1218.5999999999999</ele>
        <time>2003-04-18T18:14:34Z</time>
      </trkpt>
      <trkpt lat="32.745612971484661" lon="-4.085653005167842">
        <ele>1219.4000000000001</ele>
        <time>2003-04-18T18:14:37Z</time>
      </trkpt>
      <trkpt lat="32.746243039146066" lon="-4.085127040743828">
        <ele>1218.9000000000001</ele>
        <time>2003-04-18T18:14:44Z</time>
      </trkpt>
      <trkpt lat="32.746344963088632" lon="-4.085092004388571">
        <ele>1218.5</ele>
        <time>2003-04-18T18:14:45Z</time>
      </trkpt>
      <trkpt lat="32.746531963348389" lon="-4.085071971639991">
        <ele>1217.9000000000001</ele>
        <time>2003-04-18T18:14:47Z</time>
      </trkpt>
      <trkpt lat="32.746685016900301" lon="-4.085147995501757">
        <ele>1217.7</ele>
        <time>2003-04-18T18:14:49Z</time>
      </trkpt>
      <trkpt lat="32.746764980256557" lon="-4.085214966908097">
        <ele>1217.8</ele>
        <time>2003-04-18T18:14:49Z</time>
      </trkpt>
      <trkpt lat="32.74704996496439" lon="-4.085392998531461">
        <ele>1216.5999999999999</ele>
        <time>2003-04-18T18:14:52Z</time>
      </trkpt>
      <trkpt lat="32.747256997972727" lon="-4.085428034886718">
        <ele>1216.9000000000001</ele>
        <time>2003-04-18T18:14:55Z</time>
      </trkpt>
      <trkpt lat="32.74735196493566" lon="-4.085425017401576">
        <ele>1216.5</ele>
        <time>2003-04-18T18:14:56Z</time>
      </trkpt>
      <trkpt lat="32.747441986575723" lon="-4.085404984652996">
        <ele>1216.5</ele>
        <time>2003-04-18T18:14:56Z</time>
      </trkpt>
      <trkpt lat="32.747527984902263" lon="-4.085359973832965">
        <ele>1217.0999999999999</ele>
        <time>2003-04-18T18:14:57Z</time>
      </trkpt>
      <trkpt lat="32.747599985450506" lon="-4.085286967456341">
        <ele>1216.5999999999999</ele>
        <time>2003-04-18T18:14:59Z</time>
      </trkpt>
      <trkpt lat="32.747654970735312" lon="-4.085192000493407">
        <ele>1216.5999999999999</ele>
        <time>2003-04-18T18:15:00Z</time>
      </trkpt>
      <trkpt lat="32.747754966840148" lon="-4.084971975535154">
        <ele>1216.8</ele>
        <time>2003-04-18T18:15:01Z</time>
      </trkpt>
      <trkpt lat="32.747787991538644" lon="-4.084842978045344">
        <ele>1216.5</ele>
        <time>2003-04-18T18:15:03Z</time>
      </trkpt>
      <trkpt lat="32.747956970706582" lon="-4.084322964772582">
        <ele>1215</ele>
        <time>2003-04-18T18:15:07Z</time>
      </trkpt>
      <trkpt lat="32.748180013149977" lon="-4.083598013967276">
        <ele>1215.8</ele>
        <time>2003-04-18T18:15:12Z</time>
      </trkpt>
      <trkpt lat="32.748240027576685" lon="-4.083214960992336">
        <ele>1214.9000000000001</ele>
        <time>2003-04-18T18:15:15Z</time>
      </trkpt>
      <trkpt lat="32.748344969004393" lon="-4.082769965752959">
        <ele>1211.8</ele>
        <time>2003-04-18T18:15:19Z</time>
      </trkpt>
      <trkpt lat="32.74840003810823" lon="-4.08266301266849">
        <ele>1211.8</ele>
        <time>2003-04-18T18:15:19Z</time>
      </trkpt>
      <trkpt lat="32.748662978410721" lon="-4.082236960530281">
        <ele>1211.7</ele>
        <time>2003-04-18T18:15:23Z</time>
      </trkpt>
      <trkpt lat="32.748977970331907" lon="-4.081749971956015">
        <ele>1209.5999999999999</ele>
        <time>2003-04-18T18:15:27Z</time>
      </trkpt>
      <trkpt lat="32.749160025268793" lon="-4.081536987796426">
        <ele>1209.3</ele>
        <time>2003-04-18T18:15:30Z</time>
      </trkpt>
      <trkpt lat="32.749360017478466" lon="-4.08137496560812">
        <ele>1208.9000000000001</ele>
        <time>2003-04-18T18:15:31Z</time>
      </trkpt>
      <trkpt lat="32.750172978267074" lon="-4.080838020890951">
        <ele>1207.5999999999999</ele>
        <time>2003-04-18T18:15:39Z</time>
      </trkpt>
      <trkpt lat="32.750538010150194" lon="-4.080629982054234">
        <ele>1207.2</ele>
        <time>2003-04-18T18:15:42Z</time>
      </trkpt>
      <trkpt lat="32.751428000628948" lon="-4.080280037596822">
        <ele>1205.7</ele>
        <time>2003-04-18T18:15:49Z</time>
      </trkpt>
      <trkpt lat="32.752295024693012" lon="-4.079879969358444">
        <ele>1203.5999999999999</ele>
        <time>2003-04-18T18:15:55Z</time>
      </trkpt>
      <trkpt lat="32.752830041572452" lon="-4.079681988805533">
        <ele>1202.2</ele>
        <time>2003-04-18T18:15:59Z</time>
      </trkpt>
      <trkpt lat="32.753302026540041" lon="-4.079487025737763">
        <ele>1202.3</ele>
        <time>2003-04-18T18:16:03Z</time>
      </trkpt>
      <trkpt lat="32.753396993502975" lon="-4.079415025189519">
        <ele>1201.5999999999999</ele>
        <time>2003-04-18T18:16:05Z</time>
      </trkpt>
      <trkpt lat="32.753567984327674" lon="-4.079242022708058">
        <ele>1200.8</ele>
        <time>2003-04-18T18:16:06Z</time>
      </trkpt>
      <trkpt lat="32.754154969006777" lon="-4.078689990565181">
        <ele>1198.7</ele>
        <time>2003-04-18T18:16:13Z</time>
      </trkpt>
      <trkpt lat="32.754277009516954" lon="-4.078631987795234">
        <ele>1199</ele>
        <time>2003-04-18T18:16:13Z</time>
      </trkpt>
      <trkpt lat="32.755188038572669" lon="-4.078248012810946">
        <ele>1197.8</ele>
        <time>2003-04-18T18:16:21Z</time>
      </trkpt>
      <trkpt lat="32.756060007959604" lon="-4.077797988429666">
        <ele>1195.8</ele>
        <time>2003-04-18T18:16:28Z</time>
      </trkpt>
      <trkpt lat="32.756644980981946" lon="-4.077470004558563">
        <ele>1194.5999999999999</ele>
        <time>2003-04-18T18:16:33Z</time>
      </trkpt>
      <trkpt lat="32.756798034533858" lon="-4.077272024005652">
        <ele>1194</ele>
        <time>2003-04-18T18:16:35Z</time>
      </trkpt>
      <trkpt lat="32.756961984559894" lon="-4.076979998499155">
        <ele>1193.8</ele>
        <time>2003-04-18T18:16:37Z</time>
      </trkpt>
      <trkpt lat="32.757117971777916" lon="-4.076749999076128">
        <ele>1193.9000000000001</ele>
        <time>2003-04-18T18:16:40Z</time>
      </trkpt>
      <trkpt lat="32.757264990359545" lon="-4.07658495940268">
        <ele>1193.8</ele>
        <time>2003-04-18T18:16:44Z</time>
      </trkpt>
      <trkpt lat="32.757353000342846" lon="-4.076537014916539">
        <ele>1193.7</ele>
        <time>2003-04-18T18:16:47Z</time>
      </trkpt>
      <trkpt lat="32.757446961477399" lon="-4.07636996358633">
        <ele>1193.5</ele>
        <time>2003-04-18T18:17:19Z</time>
      </trkpt>
      <trkpt lat="32.757549975067377" lon="-4.076284971088171">
        <ele>1193.4000000000001</ele>
        <time>2003-04-18T18:17:22Z</time>
      </trkpt>
      <trkpt lat="32.757652988657355" lon="-4.076169971376658">
        <ele>1193</ele>
        <time>2003-04-18T18:17:23Z</time>
      </trkpt>
      <trkpt lat="32.757824985310435" lon="-4.075954975560308">
        <ele>1191.3</ele>
        <time>2003-04-18T18:17:27Z</time>
      </trkpt>
      <trkpt lat="32.757967980578542" lon="-4.075741991400719">
        <ele>1188.4000000000001</ele>
        <time>2003-04-18T18:17:29Z</time>
      </trkpt>
      <trkpt lat="32.758235028013587" lon="-4.075258020311594">
        <ele>1189.4000000000001</ele>
        <time>2003-04-18T18:17:33Z</time>
      </trkpt>
      <trkpt lat="32.758502997457981" lon="-4.074659971520305">
        <ele>1188.4000000000001</ele>
        <time>2003-04-18T18:17:38Z</time>
      </trkpt>
      <trkpt lat="32.758582038804889" lon="-4.074576990678906">
        <ele>1188.4000000000001</ele>
        <time>2003-04-18T18:17:38Z</time>
      </trkpt>
      <trkpt lat="32.758999960497022" lon="-4.074135012924671">
        <ele>1185.7</ele>
        <time>2003-04-18T18:17:43Z</time>
      </trkpt>
      <trkpt lat="32.759097022935748" lon="-4.07389503903687">
        <ele>1185.7</ele>
        <time>2003-04-18T18:17:46Z</time>
      </trkpt>
      <trkpt lat="32.759134992957115" lon="-4.073797976598144">
        <ele>1186.3</ele>
        <time>2003-04-18T18:17:57Z</time>
      </trkpt>
      <trkpt lat="32.759192995727062" lon="-4.073697980493307">
        <ele>1185.8</ele>
        <time>2003-04-18T18:17:58Z</time>
      </trkpt>
      <trkpt lat="32.75923197157681" lon="-4.073579963296652">
        <ele>1185.9000000000001</ele>
        <time>2003-04-18T18:18:01Z</time>
      </trkpt>
      <trkpt lat="32.759336996823549" lon="-4.07325197942555">
        <ele>1186</ele>
        <time>2003-04-18T18:18:06Z</time>
      </trkpt>
      <trkpt lat="32.759413020685315" lon="-4.073070008307695">
        <ele>1187.3</ele>
        <time>2003-04-18T18:18:09Z</time>
      </trkpt>
      <trkpt lat="32.759459959343076" lon="-4.072860041633248">
        <ele>1186.9000000000001</ele>
        <time>2003-04-18T18:18:13Z</time>
      </trkpt>
      <trkpt lat="32.759512010961771" lon="-4.072668012231588">
        <ele>1186</ele>
        <time>2003-04-18T18:18:16Z</time>
      </trkpt>
      <trkpt lat="32.759598009288311" lon="-4.072471959516406">
        <ele>1185.9000000000001</ele>
        <time>2003-04-18T18:18:17Z</time>
      </trkpt>
      <trkpt lat="32.759722983464599" lon="-4.072314966470003">
        <ele>1186.5</ele>
        <time>2003-04-18T18:18:20Z</time>
      </trkpt>
      <trkpt lat="32.75987796485424" lon="-4.072214970365167">
        <ele>1186.4000000000001</ele>
        <time>2003-04-18T18:18:21Z</time>
      </trkpt>
      <trkpt lat="32.760273003950715" lon="-4.072052026167512">
        <ele>1185.2</ele>
        <time>2003-04-18T18:18:25Z</time>
      </trkpt>
      <trkpt lat="32.761128041893244" lon="-4.071648018434644">
        <ele>1182.4000000000001</ele>
        <time>2003-04-18T18:18:33Z</time>
      </trkpt>
      <trkpt lat="32.761757019907236" lon="-4.071307964622974">
        <ele>1184.0999999999999</ele>
        <time>2003-04-18T18:18:40Z</time>
      </trkpt>
      <trkpt lat="32.761864978820086" lon="-4.071292961016297">
        <ele>1184.7</ele>
        <time>2003-04-18T18:18:40Z</time>
      </trkpt>
      <trkpt lat="32.762100007385015" lon="-4.071303019300103">
        <ele>1184.5</ele>
        <time>2003-04-18T18:18:43Z</time>
      </trkpt>
      <trkpt lat="32.762348027899861" lon="-4.071363033726811">
        <ele>1183.5</ele>
        <time>2003-04-18T18:18:44Z</time>
      </trkpt>
      <trkpt lat="32.762594958767295" lon="-4.071402009576559">
        <ele>1182.9000000000001</ele>
        <time>2003-04-18T18:18:47Z</time>
      </trkpt>
      <trkpt lat="32.762856977060437" lon="-4.071358004584909">
        <ele>1182</ele>
        <time>2003-04-18T18:18:48Z</time>
      </trkpt>
      <trkpt lat="32.763542030006647" lon="-4.071230012923479">
        <ele>1179.5</ele>
        <time>2003-04-18T18:18:54Z</time>
      </trkpt>
      <trkpt lat="32.764090038836002" lon="-4.071079976856709">
        <ele>1177</ele>
        <time>2003-04-18T18:18:58Z</time>
      </trkpt>
      <trkpt lat="32.764302017167211" lon="-4.071054998785257">
        <ele>1176.5999999999999</ele>
        <time>2003-04-18T18:18:59Z</time>
      </trkpt>
      <trkpt lat="32.76438700966537" lon="-4.07101702876389">
        <ele>1175.4000000000001</ele>
        <time>2003-04-18T18:19:00Z</time>
      </trkpt>
      <trkpt lat="32.764467978850007" lon="-4.070949973538518">
        <ele>1175.4000000000001</ele>
        <time>2003-04-18T18:19:02Z</time>
      </trkpt>
      <trkpt lat="32.764541991055012" lon="-4.0708679985255">
        <ele>1174.4000000000001</ele>
        <time>2003-04-18T18:19:03Z</time>
      </trkpt>
      <trkpt lat="32.764632012695074" lon="-4.070803038775921">
        <ele>1174.2</ele>
        <time>2003-04-18T18:19:03Z</time>
      </trkpt>
      <trkpt lat="32.764812977984548" lon="-4.070625007152557">
        <ele>1173.0999999999999</ele>
        <time>2003-04-18T18:19:06Z</time>
      </trkpt>
      <trkpt lat="32.765027973800898" lon="-4.070442030206323">
        <ele>1173.2</ele>
        <time>2003-04-18T18:19:07Z</time>
      </trkpt>
      <trkpt lat="32.765501970425248" lon="-4.070037016645074">
        <ele>1171.5</ele>
        <time>2003-04-18T18:19:12Z</time>
      </trkpt>
      <trkpt lat="32.765562990680337" lon="-4.069846998900175">
        <ele>1170.5999999999999</ele>
        <time>2003-04-18T18:19:15Z</time>
      </trkpt>
      <trkpt lat="32.765627028420568" lon="-4.069644995033741">
        <ele>1169.7</ele>
        <time>2003-04-18T18:19:17Z</time>
      </trkpt>
      <trkpt lat="32.765707997605205" lon="-4.069587998092175">
        <ele>1168.9000000000001</ele>
        <time>2003-04-18T18:19:18Z</time>
      </trkpt>
      <trkpt lat="32.765810005366802" lon="-4.069548016414046">
        <ele>1168.9000000000001</ele>
        <time>2003-04-18T18:19:19Z</time>
      </trkpt>
      <trkpt lat="32.766009997576475" lon="-4.069418013095856">
        <ele>1167.7</ele>
        <time>2003-04-18T18:19:21Z</time>
      </trkpt>
      <trkpt lat="32.766076968982816" lon="-4.069322962313891">
        <ele>1167.7</ele>
        <time>2003-04-18T18:19:22Z</time>
      </trkpt>
      <trkpt lat="32.766294982284307" lon="-4.069024985656142">
        <ele>1168.4000000000001</ele>
        <time>2003-04-18T18:19:25Z</time>
      </trkpt>
      <trkpt lat="32.766718016937375" lon="-4.068687027320266">
        <ele>1168</ele>
        <time>2003-04-18T18:19:29Z</time>
      </trkpt>
      <trkpt lat="32.767039965838194" lon="-4.068560041487217">
        <ele>1167.8</ele>
        <time>2003-04-18T18:19:31Z</time>
      </trkpt>
      <trkpt lat="32.768007991835475" lon="-4.068300034850836">
        <ele>1165.8</ele>
        <time>2003-04-18T18:19:39Z</time>
      </trkpt>
      <trkpt lat="32.768203038722277" lon="-4.068249994888902">
        <ele>1167.0999999999999</ele>
        <time>2003-04-18T18:19:42Z</time>
      </trkpt>
      <trkpt lat="32.768566980957985" lon="-4.06811797991395">
        <ele>1167</ele>
        <time>2003-04-18T18:19:46Z</time>
      </trkpt>
      <trkpt lat="32.768648033961654" lon="-4.068042039871216">
        <ele>1166</ele>
        <time>2003-04-18T18:19:46Z</time>
      </trkpt>
      <trkpt lat="32.768802009522915" lon="-4.067835006862879">
        <ele>1164.4000000000001</ele>
        <time>2003-04-18T18:19:49Z</time>
      </trkpt>
      <trkpt lat="32.769096968695521" lon="-4.067482966929674">
        <ele>1165.3</ele>
        <time>2003-04-18T18:19:53Z</time>
      </trkpt>
      <trkpt lat="32.769314981997013" lon="-4.067372996360064">
        <ele>1164.5</ele>
        <time>2003-04-18T18:19:54Z</time>
      </trkpt>
      <trkpt lat="32.769569959491491" lon="-4.067308036610484">
        <ele>1163.4000000000001</ele>
        <time>2003-04-18T18:19:57Z</time>
      </trkpt>
      <trkpt lat="32.770417034626007" lon="-4.067163029685617">
        <ele>1161.0999999999999</ele>
        <time>2003-04-18T18:20:04Z</time>
      </trkpt>
      <trkpt lat="32.770539997145534" lon="-4.067094968631864">
        <ele>1161</ele>
        <time>2003-04-18T18:20:05Z</time>
      </trkpt>
      <trkpt lat="32.770722974091768" lon="-4.066943004727364">
        <ele>1160.4000000000001</ele>
        <time>2003-04-18T18:20:09Z</time>
      </trkpt>
      <trkpt lat="32.770858006551862" lon="-4.066788023337722">
        <ele>1159.7</ele>
        <time>2003-04-18T18:20:11Z</time>
      </trkpt>
      <trkpt lat="32.770952973514795" lon="-4.0666320361197">
        <ele>1159.7</ele>
        <time>2003-04-18T18:20:13Z</time>
      </trkpt>
      <trkpt lat="32.771057998761535" lon="-4.066389966756105">
        <ele>1158.8</ele>
        <time>2003-04-18T18:20:16Z</time>
      </trkpt>
      <trkpt lat="32.771084988489747" lon="-4.066219981759787">
        <ele>1160.2</ele>
        <time>2003-04-18T18:20:17Z</time>
      </trkpt>
      <trkpt lat="32.771096974611282" lon="-4.066091990098357">
        <ele>1160.5</ele>
        <time>2003-04-18T18:20:20Z</time>
      </trkpt>
      <trkpt lat="32.771156989037991" lon="-4.06573299318552">
        <ele>1158.2</ele>
        <time>2003-04-18T18:20:24Z</time>
      </trkpt>
      <trkpt lat="32.771180039271712" lon="-4.065577005967498">
        <ele>1157.5999999999999</ele>
        <time>2003-04-18T18:20:27Z</time>
      </trkpt>
      <trkpt lat="32.771181967109442" lon="-4.065386988222599">
        <ele>1156.7</ele>
        <time>2003-04-18T18:20:28Z</time>
      </trkpt>
      <trkpt lat="32.771147014573216" lon="-4.065056992694736">
        <ele>1156.4000000000001</ele>
        <time>2003-04-18T18:20:32Z</time>
      </trkpt>
      <trkpt lat="32.771093035116792" lon="-4.064542008563876">
        <ele>1155.7</ele>
        <time>2003-04-18T18:20:36Z</time>
      </trkpt>
      <trkpt lat="32.771114995703101" lon="-4.064419968053699">
        <ele>1154.8</ele>
        <time>2003-04-18T18:20:39Z</time>
      </trkpt>
      <trkpt lat="32.771129999309778" lon="-4.064289964735508">
        <ele>1153.7</ele>
        <time>2003-04-18T18:20:42Z</time>
      </trkpt>
      <trkpt lat="32.771295038983226" lon="-4.064125008881092">
        <ele>1152.5999999999999</ele>
        <time>2003-04-18T18:21:18Z</time>
      </trkpt>
      <trkpt lat="32.771324962377548" lon="-4.063989976420999">
        <ele>1151.5999999999999</ele>
        <time>2003-04-18T18:21:22Z</time>
      </trkpt>
      <trkpt lat="32.771418001502752" lon="-4.063882017508149">
        <ele>1151.4000000000001</ele>
        <time>2003-04-18T18:21:25Z</time>
      </trkpt>
      <trkpt lat="32.771487990394235" lon="-4.063787972554565">
        <ele>1151.5999999999999</ele>
        <time>2003-04-18T18:21:26Z</time>
      </trkpt>
      <trkpt lat="32.77156300842762" lon="-4.063697028905153">
        <ele>1151.7</ele>
        <time>2003-04-18T18:21:29Z</time>
      </trkpt>
      <trkpt lat="32.771659987047315" lon="-4.063629973679781">
        <ele>1151.7</ele>
        <time>2003-04-18T18:21:30Z</time>
      </trkpt>
      <trkpt lat="32.771787978708744" lon="-4.063592003658414">
        <ele>1151.7</ele>
        <time>2003-04-18T18:21:33Z</time>
      </trkpt>
      <trkpt lat="32.771922005340457" lon="-4.063602983951569">
        <ele>1151.5999999999999</ele>
        <time>2003-04-18T18:21:34Z</time>
      </trkpt>
      <trkpt lat="32.772043040022254" lon="-4.063650006428361">
        <ele>1151.5</ele>
        <time>2003-04-18T18:21:37Z</time>
      </trkpt>
      <trkpt lat="32.772402036935091" lon="-4.063785038888454">
        <ele>1151.2</ele>
        <time>2003-04-18T18:21:42Z</time>
      </trkpt>
      <trkpt lat="32.772543020546436" lon="-4.063786966726184">
        <ele>1151.5</ele>
        <time>2003-04-18T18:21:45Z</time>
      </trkpt>
      <trkpt lat="32.772687021642923" lon="-4.063810016959906">
        <ele>1151.7</ele>
        <time>2003-04-18T18:21:46Z</time>
      </trkpt>
      <trkpt lat="32.773317005485296" lon="-4.063917975872755">
        <ele>1151.4000000000001</ele>
        <time>2003-04-18T18:21:56Z</time>
      </trkpt>
      <trkpt lat="32.773456983268261" lon="-4.063880005851388">
        <ele>1151.2</ele>
        <time>2003-04-18T18:21:57Z</time>
      </trkpt>
      <trkpt lat="32.773680025711656" lon="-4.063855027779937">
        <ele>1151.2</ele>
        <time>2003-04-18T18:22:01Z</time>
      </trkpt>
      <trkpt lat="32.77392796240747" lon="-4.063868019729853">
        <ele>1151</ele>
        <time>2003-04-18T18:22:04Z</time>
      </trkpt>
      <trkpt lat="32.77431302703917" lon="-4.063857039436698">
        <ele>1150.5</ele>
        <time>2003-04-18T18:22:08Z</time>
      </trkpt>
      <trkpt lat="32.774443030357361" lon="-4.063832983374596">
        <ele>1150.7</ele>
        <time>2003-04-18T18:22:11Z</time>
      </trkpt>
      <trkpt lat="32.774532968178391" lon="-4.063770035281777">
        <ele>1150.2</ele>
        <time>2003-04-18T18:22:12Z</time>
      </trkpt>
      <trkpt lat="32.774661965668201" lon="-4.063727036118507">
        <ele>1150.0999999999999</ele>
        <time>2003-04-18T18:22:16Z</time>
      </trkpt>
      <trkpt lat="32.774732038378716" lon="-4.063656963407993">
        <ele>1149.8</ele>
        <time>2003-04-18T18:22:19Z</time>
      </trkpt>
      <trkpt lat="32.774822982028127" lon="-4.063535006716847">
        <ele>1149.7</ele>
        <time>2003-04-18T18:22:21Z</time>
      </trkpt>
      <trkpt lat="32.774943010881543" lon="-4.063484966754913">
        <ele>1149.8</ele>
        <time>2003-04-18T18:22:24Z</time>
      </trkpt>
      <trkpt lat="32.775057004764676" lon="-4.063471974804997">
        <ele>1149.4000000000001</ele>
        <time>2003-04-18T18:22:26Z</time>
      </trkpt>
      <trkpt lat="32.775264959782362" lon="-4.063484966754913">
        <ele>1148.9000000000001</ele>
        <time>2003-04-18T18:22:30Z</time>
      </trkpt>
      <trkpt lat="32.775403009727597" lon="-4.06352000311017">
        <ele>1148.8</ele>
        <time>2003-04-18T18:22:31Z</time>
      </trkpt>
      <trkpt lat="32.77562496252358" lon="-4.06354296952486">
        <ele>1148.9000000000001</ele>
        <time>2003-04-18T18:22:34Z</time>
      </trkpt>
      <trkpt lat="32.775765024125576" lon="-4.063480021432042">
        <ele>1149.0999999999999</ele>
        <time>2003-04-18T18:22:35Z</time>
      </trkpt>
      <trkpt lat="32.775892009958625" lon="-4.063387988135219">
        <ele>1148.9000000000001</ele>
        <time>2003-04-18T18:22:38Z</time>
      </trkpt>
      <trkpt lat="32.77601002715528" lon="-4.063257984817028">
        <ele>1148.3</ele>
        <time>2003-04-18T18:22:39Z</time>
      </trkpt>
      <trkpt lat="32.7761419583112" lon="-4.063137033954263">
        <ele>1147.8</ele>
        <time>2003-04-18T18:22:42Z</time>
      </trkpt>
      <trkpt lat="32.776285037398338" lon="-4.063039971515536">
        <ele>1147.5</ele>
        <time>2003-04-18T18:22:43Z</time>
      </trkpt>
      <trkpt lat="32.776501961052418" lon="-4.062942992895842">
        <ele>1147.0999999999999</ele>
        <time>2003-04-18T18:22:47Z</time>
      </trkpt>
      <trkpt lat="32.776688039302826" lon="-4.062878033146262">
        <ele>1146.8</ele>
        <time>2003-04-18T18:22:50Z</time>
      </trkpt>
      <trkpt lat="32.776824999600649" lon="-4.062807960435748">
        <ele>1146.7</ele>
        <time>2003-04-18T18:22:54Z</time>
      </trkpt>
      <trkpt lat="32.776907980442047" lon="-4.062741994857788">
        <ele>1146.7</ele>
        <time>2003-04-18T18:22:55Z</time>
      </trkpt>
      <trkpt lat="32.777006970718503" lon="-4.062658008188009">
        <ele>1146.5999999999999</ele>
        <time>2003-04-18T18:22:58Z</time>
      </trkpt>
      <trkpt lat="32.777206962928176" lon="-4.062620038166642">
        <ele>1146.2</ele>
        <time>2003-04-18T18:23:05Z</time>
      </trkpt>
      <trkpt lat="32.777292039245367" lon="-4.062706958502531">
        <ele>1146.4000000000001</ele>
        <time>2003-04-18T18:23:10Z</time>
      </trkpt>
      <trkpt lat="32.777373008430004" lon="-4.062805026769638">
        <ele>1146.2</ele>
        <time>2003-04-18T18:23:13Z</time>
      </trkpt>
      <trkpt lat="32.777482978999615" lon="-4.062871998175979">
        <ele>1145.9000000000001</ele>
        <time>2003-04-18T18:23:15Z</time>
      </trkpt>
      <trkpt lat="32.777580041438341" lon="-4.062871998175979">
        <ele>1145.5999999999999</ele>
        <time>2003-04-18T18:23:18Z</time>
      </trkpt>
      <trkpt lat="32.777812974527478" lon="-4.06285498291254">
        <ele>1145.7</ele>
        <time>2003-04-18T18:23:22Z</time>
      </trkpt>
      <trkpt lat="32.777953036129475" lon="-4.062866969034076">
        <ele>1145.7</ele>
        <time>2003-04-18T18:23:24Z</time>
      </trkpt>
      <trkpt lat="32.778092008084059" lon="-4.062860012054443">
        <ele>1145.7</ele>
        <time>2003-04-18T18:23:25Z</time>
      </trkpt>
      <trkpt lat="32.778259981423616" lon="-4.062865041196346">
        <ele>1145.5999999999999</ele>
        <time>2003-04-18T18:23:29Z</time>
      </trkpt>
      <trkpt lat="32.778367018327117" lon="-4.062914997339249">
        <ele>1145.5999999999999</ele>
        <time>2003-04-18T18:23:30Z</time>
      </trkpt>
      <trkpt lat="32.778453016653657" lon="-4.062986997887492">
        <ele>1145.7</ele>
        <time>2003-04-18T18:23:33Z</time>
      </trkpt>
      <trkpt lat="32.778700031340122" lon="-4.063207022845745">
        <ele>1145.2</ele>
        <time>2003-04-18T18:23:38Z</time>
      </trkpt>
      <trkpt lat="32.778792986646295" lon="-4.063290003687143">
        <ele>1144.5999999999999</ele>
        <time>2003-04-18T18:23:41Z</time>
      </trkpt>
      <trkpt lat="32.778872027993202" lon="-4.063382958993316">
        <ele>1144.4000000000001</ele>
        <time>2003-04-18T18:23:42Z</time>
      </trkpt>
      <trkpt lat="32.778946962207556" lon="-4.063469963148236">
        <ele>1144</ele>
        <time>2003-04-18T18:23:45Z</time>
      </trkpt>
      <trkpt lat="32.778964983299375" lon="-4.063617987558246">
        <ele>1144.2</ele>
        <time>2003-04-18T18:23:56Z</time>
      </trkpt>
      <trkpt lat="32.779070008546114" lon="-4.06371203251183">
        <ele>1143.5999999999999</ele>
        <time>2003-04-18T18:24:00Z</time>
      </trkpt>
      <trkpt lat="32.77906296774745" lon="-4.06381999142468">
        <ele>1143.5</ele>
        <time>2003-04-18T18:24:04Z</time>
      </trkpt>
      <trkpt lat="32.779032038524747" lon="-4.063942031934857">
        <ele>1143.3</ele>
        <time>2003-04-18T18:24:07Z</time>
      </trkpt>
      <trkpt lat="32.778992978855968" lon="-4.064070023596287">
        <ele>1142.9000000000001</ele>
        <time>2003-04-18T18:24:09Z</time>
      </trkpt>
      <trkpt lat="32.778930030763149" lon="-4.064177982509136">
        <ele>1142.7</ele>
        <time>2003-04-18T18:24:12Z</time>
      </trkpt>
      <trkpt lat="32.778842020779848" lon="-4.064304968342185">
        <ele>1142</ele>
        <time>2003-04-18T18:24:16Z</time>
      </trkpt>
      <trkpt lat="32.778772031888366" lon="-4.064406976103783">
        <ele>1141.2</ele>
        <time>2003-04-18T18:24:20Z</time>
      </trkpt>
      <trkpt lat="32.778685027733445" lon="-4.06444201245904">
        <ele>1141.5999999999999</ele>
        <time>2003-04-18T18:24:23Z</time>
      </trkpt>
      <trkpt lat="32.778577990829945" lon="-4.06442298553884">
        <ele>1141.8</ele>
        <time>2003-04-18T18:24:24Z</time>
      </trkpt>
      <trkpt lat="32.778472965583205" lon="-4.064462967216969">
        <ele>1141.9000000000001</ele>
        <time>2003-04-18T18:24:27Z</time>
      </trkpt>
      <trkpt lat="32.778386967256665" lon="-4.064542008563876">
        <ele>1141.9000000000001</ele>
        <time>2003-04-18T18:24:28Z</time>
      </trkpt>
      <trkpt lat="32.778274985030293" lon="-4.06467997469008">
        <ele>1141.5</ele>
        <time>2003-04-18T18:24:31Z</time>
      </trkpt>
      <trkpt lat="32.778232991695404" lon="-4.064790029078722">
        <ele>1141.2</ele>
        <time>2003-04-18T18:24:34Z</time>
      </trkpt>
      <trkpt lat="32.778227040544152" lon="-4.06491500325501">
        <ele>1141</ele>
        <time>2003-04-18T18:24:35Z</time>
      </trkpt>
      <trkpt lat="32.778235003352165" lon="-4.065048024058342">
        <ele>1140.5999999999999</ele>
        <time>2003-04-18T18:24:39Z</time>
      </trkpt>
      <trkpt lat="32.778225028887391" lon="-4.065181966871023">
        <ele>1140.0999999999999</ele>
        <time>2003-04-18T18:24:42Z</time>
      </trkpt>
      <trkpt lat="32.778256963938475" lon="-4.06528196297586">
        <ele>1139.7</ele>
        <time>2003-04-18T18:24:43Z</time>
      </trkpt>
      <trkpt lat="32.778325024992228" lon="-4.06541196629405">
        <ele>1140.0999999999999</ele>
        <time>2003-04-18T18:24:46Z</time>
      </trkpt>
      <trkpt lat="32.778414962813258" lon="-4.065522020682693">
        <ele>1139.8</ele>
        <time>2003-04-18T18:24:50Z</time>
      </trkpt>
      <trkpt lat="32.778508001938462" lon="-4.06553702428937">
        <ele>1139.9000000000001</ele>
        <time>2003-04-18T18:24:51Z</time>
      </trkpt>
      <trkpt lat="32.77861000970006" lon="-4.065531995147467">
        <ele>1139.7</ele>
        <time>2003-04-18T18:24:54Z</time>
      </trkpt>
      <trkpt lat="32.778701959177852" lon="-4.065486984327436">
        <ele>1139.7</ele>
        <time>2003-04-18T18:24:55Z</time>
      </trkpt>
      <trkpt lat="32.778772031888366" lon="-4.065410038456321">
        <ele>1139.5</ele>
        <time>2003-04-18T18:24:58Z</time>
      </trkpt>
      <trkpt lat="32.778851995244622" lon="-4.065339965745807">
        <ele>1139.4000000000001</ele>
        <time>2003-04-18T18:25:01Z</time>
      </trkpt>
      <trkpt lat="32.779172016307712" lon="-4.065154977142811">
        <ele>1139.3</ele>
        <time>2003-04-18T18:25:10Z</time>
      </trkpt>
      <trkpt lat="32.779542999342084" lon="-4.064979963004589">
        <ele>1139.4000000000001</ele>
        <time>2003-04-18T18:25:20Z</time>
      </trkpt>
      <trkpt lat="32.779652969911695" lon="-4.064907040446997">
        <ele>1139.3</ele>
        <time>2003-04-18T18:25:22Z</time>
      </trkpt>
      <trkpt lat="32.779767969623208" lon="-4.064890025183559">
        <ele>1139.2</ele>
        <time>2003-04-18T18:25:25Z</time>
      </trkpt>
      <trkpt lat="32.77992001734674" lon="-4.064875021576881">
        <ele>1139.0999999999999</ele>
        <time>2003-04-18T18:25:29Z</time>
      </trkpt>
      <trkpt lat="32.780033005401492" lon="-4.064835039898753">
        <ele>1139.0999999999999</ele>
        <time>2003-04-18T18:25:33Z</time>
      </trkpt>
      <trkpt lat="32.780314972624183" lon="-4.064705036580563">
        <ele>1138.7</ele>
        <time>2003-04-18T18:25:40Z</time>
      </trkpt>
      <trkpt lat="32.780457967892289" lon="-4.064672011882067">
        <ele>1138.5</ele>
        <time>2003-04-18T18:25:43Z</time>
      </trkpt>
      <trkpt lat="32.780685033649206" lon="-4.064591964706779">
        <ele>1138.5</ele>
        <time>2003-04-18T18:25:48Z</time>
      </trkpt>
      <trkpt lat="32.780804978683591" lon="-4.064579978585243">
        <ele>1138.2</ele>
        <time>2003-04-18T18:25:51Z</time>
      </trkpt>
      <trkpt lat="32.780898017808795" lon="-4.064573021605611">
        <ele>1138.2</ele>
        <time>2003-04-18T18:25:52Z</time>
      </trkpt>
      <trkpt lat="32.781633026897907" lon="-4.064503032714129">
        <ele>1137.7</ele>
        <time>2003-04-18T18:26:07Z</time>
      </trkpt>
      <trkpt lat="32.781717013567686" lon="-4.064452992752194">
        <ele>1137.5</ele>
        <time>2003-04-18T18:26:08Z</time>
      </trkpt>
      <trkpt lat="32.781817009672523" lon="-4.064391972497106">
        <ele>1136.9000000000001</ele>
        <time>2003-04-18T18:26:11Z</time>
      </trkpt>
      <trkpt lat="32.781903007999063" lon="-4.064315026625991">
        <ele>1136.3</ele>
        <time>2003-04-18T18:26:15Z</time>
      </trkpt>
      <trkpt lat="32.782009961083531" lon="-4.064289964735508">
        <ele>1136.0999999999999</ele>
        <time>2003-04-18T18:26:19Z</time>
      </trkpt>
      <trkpt lat="32.782132001593709" lon="-4.064272027462721">
        <ele>1136.2</ele>
        <time>2003-04-18T18:26:23Z</time>
      </trkpt>
      <trkpt lat="32.782233003526926" lon="-4.064277978613973">
        <ele>1136.3</ele>
        <time>2003-04-18T18:26:24Z</time>
      </trkpt>
      <trkpt lat="32.782341968268156" lon="-4.064298011362553">
        <ele>1136.2</ele>
        <time>2003-04-18T18:26:27Z</time>
      </trkpt>
      <trkpt lat="32.782441964372993" lon="-4.064342016354203">
        <ele>1136.3</ele>
        <time>2003-04-18T18:26:29Z</time>
      </trkpt>
      <trkpt lat="32.782644974067807" lon="-4.064404964447022">
        <ele>1136.3</ele>
        <time>2003-04-18T18:26:34Z</time>
      </trkpt>
      <trkpt lat="32.782757040113211" lon="-4.064418040215969">
        <ele>1136.3</ele>
        <time>2003-04-18T18:26:37Z</time>
      </trkpt>
      <trkpt lat="32.782846977934241" lon="-4.064475037157536">
        <ele>1136.7</ele>
        <time>2003-04-18T18:26:39Z</time>
      </trkpt>
      <trkpt lat="32.782910009846091" lon="-4.064582996070385">
        <ele>1136.3</ele>
        <time>2003-04-18T18:26:43Z</time>
      </trkpt>
      <trkpt lat="32.782936999574304" lon="-4.064739989116788">
        <ele>1135.5999999999999</ele>
        <time>2003-04-18T18:26:47Z</time>
      </trkpt>
      <trkpt lat="32.782977987080812" lon="-4.064917014911771">
        <ele>1136</ele>
        <time>2003-04-18T18:26:51Z</time>
      </trkpt>
      <trkpt lat="32.782959965988994" lon="-4.065047018229961">
        <ele>1135.9000000000001</ele>
        <time>2003-04-18T18:26:54Z</time>
      </trkpt>
      <trkpt lat="32.782955020666122" lon="-4.065186996012926">
        <ele>1135.5999999999999</ele>
        <time>2003-04-18T18:26:58Z</time>
      </trkpt>
      <trkpt lat="32.782979998737574" lon="-4.065320016816258">
        <ele>1135</ele>
        <time>2003-04-18T18:27:01Z</time>
      </trkpt>
      <trkpt lat="32.783038001507521" lon="-4.065535012632608">
        <ele>1134.4000000000001</ele>
        <time>2003-04-18T18:27:05Z</time>
      </trkpt>
      <trkpt lat="32.78303699567914" lon="-4.065693011507392">
        <ele>1134.3</ele>
        <time>2003-04-18T18:27:09Z</time>
      </trkpt>
      <trkpt lat="32.783072032034397" lon="-4.065807005390525">
        <ele>1134.2</ele>
        <time>2003-04-18T18:27:10Z</time>
      </trkpt>
      <trkpt lat="32.783128023147583" lon="-4.065893003717065">
        <ele>1134.0999999999999</ele>
        <time>2003-04-18T18:27:13Z</time>
      </trkpt>
      <trkpt lat="32.783225001767278" lon="-4.065937008708715">
        <ele>1134.2</ele>
        <time>2003-04-18T18:27:16Z</time>
      </trkpt>
      <trkpt lat="32.783318040892482" lon="-4.065901972353458">
        <ele>1134.3</ele>
        <time>2003-04-18T18:27:24Z</time>
      </trkpt>
      <trkpt lat="32.783430023118854" lon="-4.065893003717065">
        <ele>1133.7</ele>
        <time>2003-04-18T18:27:58Z</time>
      </trkpt>
      <trkpt lat="32.783545022830367" lon="-4.065913036465645">
        <ele>1134.2</ele>
        <time>2003-04-18T18:28:04Z</time>
      </trkpt>
      <trkpt lat="32.783682988956571" lon="-4.065886968746781">
        <ele>1133.8</ele>
        <time>2003-04-18T18:28:07Z</time>
      </trkpt>
      <trkpt lat="32.783787008374929" lon="-4.065898032858968">
        <ele>1133.8</ele>
        <time>2003-04-18T18:28:10Z</time>
      </trkpt>
      <trkpt lat="32.783894967287779" lon="-4.065942037850618">
        <ele>1133.8</ele>
        <time>2003-04-18T18:28:11Z</time>
      </trkpt>
      <trkpt lat="32.784024970605969" lon="-4.066019989550114">
        <ele>1133.8</ele>
        <time>2003-04-18T18:28:14Z</time>
      </trkpt>
      <trkpt lat="32.784123038873076" lon="-4.066117973998189">
        <ele>1134.0999999999999</ele>
        <time>2003-04-18T18:28:15Z</time>
      </trkpt>
      <trkpt lat="32.78419797308743" lon="-4.066244959831238">
        <ele>1134</ele>
        <time>2003-04-18T18:28:18Z</time>
      </trkpt>
      <trkpt lat="32.784438030794263" lon="-4.066747035831213">
        <ele>1133.2</ele>
        <time>2003-04-18T18:28:26Z</time>
      </trkpt>
      <trkpt lat="32.784492010250688" lon="-4.066862035542727">
        <ele>1133</ele>
        <time>2003-04-18T18:28:27Z</time>
      </trkpt>
      <trkpt lat="32.784574991092086" lon="-4.066941998898983">
        <ele>1133</ele>
        <time>2003-04-18T18:28:30Z</time>
      </trkpt>
      <trkpt lat="32.784684961661696" lon="-4.066992960870266">
        <ele>1133</ele>
        <time>2003-04-18T18:28:31Z</time>
      </trkpt>
      <trkpt lat="32.784789986908436" lon="-4.067058004438877">
        <ele>1132.8</ele>
        <time>2003-04-18T18:28:34Z</time>
      </trkpt>
      <trkpt lat="32.784914961084723" lon="-4.067142996937037">
        <ele>1132.7</ele>
        <time>2003-04-18T18:28:37Z</time>
      </trkpt>
      <trkpt lat="32.785049993544817" lon="-4.067152971401811">
        <ele>1132.5</ele>
        <time>2003-04-18T18:28:39Z</time>
      </trkpt>
      <trkpt lat="32.785149989649653" lon="-4.067107038572431">
        <ele>1132.4000000000001</ele>
        <time>2003-04-18T18:28:42Z</time>
      </trkpt>
      <trkpt lat="32.785662962123752" lon="-4.06682800501585">
        <ele>1132</ele>
        <time>2003-04-18T18:28:50Z</time>
      </trkpt>
      <trkpt lat="32.785773016512394" lon="-4.066732032224536">
        <ele>1131.3</ele>
        <time>2003-04-18T18:28:53Z</time>
      </trkpt>
      <trkpt lat="32.785954987630248" lon="-4.066537991166115">
        <ele>1131.2</ele>
        <time>2003-04-18T18:28:57Z</time>
      </trkpt>
      <trkpt lat="32.786064958199859" lon="-4.066461967304349">
        <ele>1131.0999999999999</ele>
        <time>2003-04-18T18:28:58Z</time>
      </trkpt>
      <trkpt lat="32.786252964287996" lon="-4.066361971199513">
        <ele>1130.5</ele>
        <time>2003-04-18T18:29:02Z</time>
      </trkpt>
      <trkpt lat="32.786342985928059" lon="-4.066346967592835">
        <ele>1130.3</ele>
        <time>2003-04-18T18:29:05Z</time>
      </trkpt>
      <trkpt lat="32.786457985639572" lon="-4.066347973421216">
        <ele>1130.7</ele>
        <time>2003-04-18T18:29:09Z</time>
      </trkpt>
      <trkpt lat="32.786557981744409" lon="-4.06644000671804">
        <ele>1130.7</ele>
        <time>2003-04-18T18:29:12Z</time>
      </trkpt>
      <trkpt lat="32.786653032526374" lon="-4.066530028358102">
        <ele>1130.0999999999999</ele>
        <time>2003-04-18T18:29:13Z</time>
      </trkpt>
      <trkpt lat="32.786742970347404" lon="-4.066628012806177">
        <ele>1130.5999999999999</ele>
        <time>2003-04-18T18:29:16Z</time>
      </trkpt>
      <trkpt lat="32.786859981715679" lon="-4.066685009747744">
        <ele>1130.4000000000001</ele>
        <time>2003-04-18T18:29:17Z</time>
      </trkpt>
      <trkpt lat="32.786962995305657" lon="-4.066762961447239">
        <ele>1130.2</ele>
        <time>2003-04-18T18:29:20Z</time>
      </trkpt>
      <trkpt lat="32.787057040259242" lon="-4.066863041371107">
        <ele>1130</ele>
        <time>2003-04-18T18:29:21Z</time>
      </trkpt>
      <trkpt lat="32.787215039134026" lon="-4.06706496141851">
        <ele>1129.5</ele>
        <time>2003-04-18T18:29:25Z</time>
      </trkpt>
      <trkpt lat="32.787313023582101" lon="-4.067245004698634">
        <ele>1129.2</ele>
        <time>2003-04-18T18:29:28Z</time>
      </trkpt>
      <trkpt lat="32.787388041615486" lon="-4.067460000514984">
        <ele>1128.9000000000001</ele>
        <time>2003-04-18T18:29:32Z</time>
      </trkpt>
      <trkpt lat="32.787455013021827" lon="-4.067667033523321">
        <ele>1128.8</ele>
        <time>2003-04-18T18:29:35Z</time>
      </trkpt>
      <trkpt lat="32.787532964721322" lon="-4.067772980779409">
        <ele>1128.5</ele>
        <time>2003-04-18T18:29:36Z</time>
      </trkpt>
      <trkpt lat="32.787627009674907" lon="-4.067825032398105">
        <ele>1128.3</ele>
        <time>2003-04-18T18:29:39Z</time>
      </trkpt>
      <trkpt lat="32.787694986909628" lon="-4.067898038774729">
        <ele>1127.9000000000001</ele>
        <time>2003-04-18T18:29:40Z</time>
      </trkpt>
      <trkpt lat="32.787776961922646" lon="-4.068019995465875">
        <ele>1128.0999999999999</ele>
        <time>2003-04-18T18:29:43Z</time>
      </trkpt>
      <trkpt lat="32.787887016311288" lon="-4.068137006834149">
        <ele>1128</ele>
        <time>2003-04-18T18:29:44Z</time>
      </trkpt>
      <trkpt lat="32.788011990487576" lon="-4.068229962140322">
        <ele>1128</ele>
        <time>2003-04-18T18:29:47Z</time>
      </trkpt>
      <trkpt lat="32.788405017927289" lon="-4.068521987646818">
        <ele>1127.9000000000001</ele>
        <time>2003-04-18T18:29:54Z</time>
      </trkpt>
      <trkpt lat="32.788897035643458" lon="-4.069092040881515">
        <ele>1127.0999999999999</ele>
        <time>2003-04-18T18:30:05Z</time>
      </trkpt>
      <trkpt lat="32.789072971791029" lon="-4.069347018375993">
        <ele>1126.8</ele>
        <time>2003-04-18T18:30:10Z</time>
      </trkpt>
      <trkpt lat="32.789295008406043" lon="-4.069584980607033">
        <ele>1127</ele>
        <time>2003-04-18T18:30:14Z</time>
      </trkpt>
      <trkpt lat="32.789670014753938" lon="-4.070059983059764">
        <ele>1126.5999999999999</ele>
        <time>2003-04-18T18:30:23Z</time>
      </trkpt>
      <trkpt lat="32.789888028055429" lon="-4.070314960554242">
        <ele>1126.2</ele>
        <time>2003-04-18T18:30:30Z</time>
      </trkpt>
      <trkpt lat="32.789945024996996" lon="-4.070440018549562">
        <ele>1126.2</ele>
        <time>2003-04-18T18:30:32Z</time>
      </trkpt>
      <trkpt lat="32.790021970868111" lon="-4.070706982165575">
        <ele>1125.9000000000001</ele>
        <time>2003-04-18T18:30:36Z</time>
      </trkpt>
      <trkpt lat="32.790091959759593" lon="-4.071642989292741">
        <ele>1124.5999999999999</ele>
        <time>2003-04-18T18:30:49Z</time>
      </trkpt>
      <trkpt lat="32.790085002779961" lon="-4.072054959833622">
        <ele>1123.8</ele>
        <time>2003-04-18T18:30:54Z</time>
      </trkpt>
      <trkpt lat="32.790032029151917" lon="-4.072302980348468">
        <ele>1123.2</ele>
        <time>2003-04-18T18:30:59Z</time>
      </trkpt>
      <trkpt lat="32.789979977533221" lon="-4.072399958968163">
        <ele>1122.9000000000001</ele>
        <time>2003-04-18T18:31:01Z</time>
      </trkpt>
      <trkpt lat="32.789870006963611" lon="-4.072561981156468">
        <ele>1122.5</ele>
        <time>2003-04-18T18:31:04Z</time>
      </trkpt>
      <trkpt lat="32.789788031950593" lon="-4.072698019444943">
        <ele>1121.4000000000001</ele>
        <time>2003-04-18T18:31:08Z</time>
      </trkpt>
      <trkpt lat="32.789766993373632" lon="-4.072845038026571">
        <ele>1121.2</ele>
        <time>2003-04-18T18:31:12Z</time>
      </trkpt>
      <trkpt lat="32.789787026122212" lon="-4.072964983060956">
        <ele>1121.2</ele>
        <time>2003-04-18T18:31:13Z</time>
      </trkpt>
      <trkpt lat="32.789836982265115" lon="-4.07314301468432">
        <ele>1120.9000000000001</ele>
        <time>2003-04-18T18:31:17Z</time>
      </trkpt>
      <trkpt lat="32.789915017783642" lon="-4.073227001354098">
        <ele>1120.8</ele>
        <time>2003-04-18T18:31:21Z</time>
      </trkpt>
      <trkpt lat="32.789991963654757" lon="-4.073302019387484">
        <ele>1120.7</ele>
        <time>2003-04-18T18:31:24Z</time>
      </trkpt>
      <trkpt lat="32.790051978081465" lon="-4.073421964421868">
        <ele>1120.7</ele>
        <time>2003-04-18T18:31:28Z</time>
      </trkpt>
      <trkpt lat="32.790207965299487" lon="-4.073622962459922">
        <ele>1121.9000000000001</ele>
        <time>2003-04-18T18:31:34Z</time>
      </trkpt>
      <trkpt lat="32.790317013859749" lon="-4.073714995756745">
        <ele>1121.5</ele>
        <time>2003-04-18T18:31:38Z</time>
      </trkpt>
      <trkpt lat="32.790432013571262" lon="-4.073784984648228">
        <ele>1121.0999999999999</ele>
        <time>2003-04-18T18:31:40Z</time>
      </trkpt>
      <trkpt lat="32.790545001626015" lon="-4.073871988803148">
        <ele>1121.2</ele>
        <time>2003-04-18T18:31:43Z</time>
      </trkpt>
      <trkpt lat="32.790638040751219" lon="-4.073877017945051">
        <ele>1121.5</ele>
        <time>2003-04-18T18:31:46Z</time>
      </trkpt>
      <trkpt lat="32.790723033249378" lon="-4.073837036266923">
        <ele>1121.2</ele>
        <time>2003-04-18T18:31:47Z</time>
      </trkpt>
      <trkpt lat="32.790772989392281" lon="-4.073735028505325">
        <ele>1121.0999999999999</ele>
        <time>2003-04-18T18:31:50Z</time>
      </trkpt>
      <trkpt lat="32.79079201631248" lon="-4.073626985773444">
        <ele>1121.2</ele>
        <time>2003-04-18T18:31:51Z</time>
      </trkpt>
      <trkpt lat="32.79083501547575" lon="-4.073518021032214">
        <ele>1121.2</ele>
        <time>2003-04-18T18:31:54Z</time>
      </trkpt>
      <trkpt lat="32.790897963568568" lon="-4.073430011048913">
        <ele>1121.3</ele>
        <time>2003-04-18T18:31:55Z</time>
      </trkpt>
      <trkpt lat="32.790993014350533" lon="-4.073362033814192">
        <ele>1121</ele>
        <time>2003-04-18T18:31:58Z</time>
      </trkpt>
      <trkpt lat="32.791097033768892" lon="-4.073320040479302">
        <ele>1120.9000000000001</ele>
        <time>2003-04-18T18:31:59Z</time>
      </trkpt>
      <trkpt lat="32.791342036798596" lon="-4.07325298525393">
        <ele>1120.8</ele>
        <time>2003-04-18T18:32:05Z</time>
      </trkpt>
      <trkpt lat="32.791510010138154" lon="-4.073267988860607">
        <ele>1121.0999999999999</ele>
        <time>2003-04-18T18:32:09Z</time>
      </trkpt>
      <trkpt lat="32.791627021506429" lon="-4.073218032717705">
        <ele>1120.9000000000001</ele>
        <time>2003-04-18T18:32:11Z</time>
      </trkpt>
      <trkpt lat="32.791707990691066" lon="-4.073158018290997">
        <ele>1120.5</ele>
        <time>2003-04-18T18:32:14Z</time>
      </trkpt>
      <trkpt lat="32.791803041473031" lon="-4.073192970827222">
        <ele>1119.8</ele>
        <time>2003-04-18T18:32:18Z</time>
      </trkpt>
      <trkpt lat="32.791945030912757" lon="-4.07307998277247">
        <ele>1122</ele>
        <time>2003-04-18T18:36:40Z</time>
      </trkpt>
      <trkpt lat="32.79206003062427" lon="-4.07312298193574">
        <ele>1121.8</ele>
        <time>2003-04-18T18:36:44Z</time>
      </trkpt>
      <trkpt lat="32.792157009243965" lon="-4.073207974433899">
        <ele>1121.7</ele>
        <time>2003-04-18T18:36:48Z</time>
      </trkpt>
      <trkpt lat="32.792233033105731" lon="-4.073334960266948">
        <ele>1121.5</ele>
        <time>2003-04-18T18:36:52Z</time>
      </trkpt>
      <trkpt lat="32.792330011725426" lon="-4.073512991890311">
        <ele>1120.5999999999999</ele>
        <time>2003-04-18T18:36:56Z</time>
      </trkpt>
      <trkpt lat="32.792484993115067" lon="-4.073671996593475">
        <ele>1120.3</ele>
        <time>2003-04-18T18:37:03Z</time>
      </trkpt>
      <trkpt lat="32.79253302142024" lon="-4.073766963556409">
        <ele>1120.4000000000001</ele>
        <time>2003-04-18T18:37:06Z</time>
      </trkpt>
      <trkpt lat="32.792577026411891" lon="-4.073907025158405">
        <ele>1120.3</ele>
        <time>2003-04-18T18:37:11Z</time>
      </trkpt>
      <trkpt lat="32.792603010311723" lon="-4.074092013761401">
        <ele>1120</ele>
        <time>2003-04-18T18:37:17Z</time>
      </trkpt>
      <trkpt lat="32.792584989219904" lon="-4.074199972674251">
        <ele>1119.7</ele>
        <time>2003-04-18T18:37:22Z</time>
      </trkpt>
      <trkpt lat="32.792548025026917" lon="-4.07434799708426">
        <ele>1119.5</ele>
        <time>2003-04-18T18:38:51Z</time>
      </trkpt>
      <trkpt lat="32.792460015043616" lon="-4.074412034824491">
        <ele>1118.9000000000001</ele>
        <time>2003-04-18T18:38:55Z</time>
      </trkpt>
      <trkpt lat="32.792354989796877" lon="-4.074486969038844">
        <ele>1118.5</ele>
        <time>2003-04-18T18:38:59Z</time>
      </trkpt>
      <trkpt lat="32.792226998135448" lon="-4.074576990678906">
        <ele>1118</ele>
        <time>2003-04-18T18:39:06Z</time>
      </trkpt>
      <trkpt lat="32.792158015072346" lon="-4.074649997055531">
        <ele>1117.2</ele>
        <time>2003-04-18T18:39:26Z</time>
      </trkpt>
      <trkpt lat="32.792106969282031" lon="-4.074746975675225">
        <ele>1116.5</ele>
        <time>2003-04-18T18:39:30Z</time>
      </trkpt>
      <trkpt lat="32.792000016197562" lon="-4.074959959834814">
        <ele>1116</ele>
        <time>2003-04-18T18:39:37Z</time>
      </trkpt>
      <trkpt lat="32.791966991499066" lon="-4.075060039758682">
        <ele>1115.5</ele>
        <time>2003-04-18T18:39:41Z</time>
      </trkpt>
      <trkpt lat="32.791962968185544" lon="-4.075191970914602">
        <ele>1114.7</ele>
        <time>2003-04-18T18:39:44Z</time>
      </trkpt>
      <trkpt lat="32.79201996512711" lon="-4.075339995324612">
        <ele>1114.9000000000001</ele>
        <time>2003-04-18T18:39:48Z</time>
      </trkpt>
      <trkpt lat="32.792087020352483" lon="-4.075436973944306">
        <ele>1114.5999999999999</ele>
        <time>2003-04-18T18:39:50Z</time>
      </trkpt>
      <trkpt lat="32.792264968156815" lon="-4.075681976974011">
        <ele>1114.9000000000001</ele>
        <time>2003-04-18T18:39:57Z</time>
      </trkpt>
      <trkpt lat="32.792378040030599" lon="-4.07574500888586">
        <ele>1114.9000000000001</ele>
        <time>2003-04-18T18:40:01Z</time>
      </trkpt>
      <trkpt lat="32.792550036683679" lon="-4.075797982513905">
        <ele>1115.3</ele>
        <time>2003-04-18T18:40:04Z</time>
      </trkpt>
      <trkpt lat="32.79307197779417" lon="-4.07596000470221">
        <ele>1114.8</ele>
        <time>2003-04-18T18:40:16Z</time>
      </trkpt>
      <trkpt lat="32.79337196610868" lon="-4.076127978041768">
        <ele>1114.5999999999999</ele>
        <time>2003-04-18T18:40:24Z</time>
      </trkpt>
      <trkpt lat="32.793772034347057" lon="-4.076363006606698">
        <ele>1114</ele>
        <time>2003-04-18T18:40:34Z</time>
      </trkpt>
      <trkpt lat="32.793955011293292" lon="-4.076450010761619">
        <ele>1113.9000000000001</ele>
        <time>2003-04-18T18:40:39Z</time>
      </trkpt>
      <trkpt lat="32.794022988528013" lon="-4.076537014916539">
        <ele>1113.7</ele>
        <time>2003-04-18T18:40:43Z</time>
      </trkpt>
      <trkpt lat="32.794103035703301" lon="-4.076612032949925">
        <ele>1113.3</ele>
        <time>2003-04-18T18:40:46Z</time>
      </trkpt>
      <trkpt lat="32.794194985181093" lon="-4.076691996306181">
        <ele>1112.8</ele>
        <time>2003-04-18T18:40:48Z</time>
      </trkpt>
      <trkpt lat="32.794303027912974" lon="-4.076752010732889">
        <ele>1112.8</ele>
        <time>2003-04-18T18:40:51Z</time>
      </trkpt>
      <trkpt lat="32.794441999867558" lon="-4.076812025159597">
        <ele>1112.8</ele>
        <time>2003-04-18T18:40:55Z</time>
      </trkpt>
      <trkpt lat="32.794543001800776" lon="-4.076897017657757">
        <ele>1111.5999999999999</ele>
        <time>2003-04-18T18:41:01Z</time>
      </trkpt>
      <trkpt lat="32.794620031490922" lon="-4.077028026804328">
        <ele>1111.2</ele>
        <time>2003-04-18T18:41:05Z</time>
      </trkpt>
      <trkpt lat="32.794714998453856" lon="-4.077107990160584">
        <ele>1111.3</ele>
        <time>2003-04-18T18:41:07Z</time>
      </trkpt>
      <trkpt lat="32.794779958203435" lon="-4.077191976830363">
        <ele>1111.0999999999999</ele>
        <time>2003-04-18T18:41:10Z</time>
      </trkpt>
      <trkpt lat="32.794981962069869" lon="-4.077488025650382">
        <ele>1110.7</ele>
        <time>2003-04-18T18:41:20Z</time>
      </trkpt>
      <trkpt lat="32.795072989538312" lon="-4.077539993450046">
        <ele>1110.7</ele>
        <time>2003-04-18T18:41:22Z</time>
      </trkpt>
      <trkpt lat="32.795162005349994" lon="-4.077572012320161">
        <ele>1111.0999999999999</ele>
        <time>2003-04-18T18:41:25Z</time>
      </trkpt>
      <trkpt lat="32.795252026990056" lon="-4.077566983178258">
        <ele>1111.0999999999999</ele>
        <time>2003-04-18T18:41:29Z</time>
      </trkpt>
      <trkpt lat="32.795342970639467" lon="-4.077519960701466">
        <ele>1111.2</ele>
        <time>2003-04-18T18:41:32Z</time>
      </trkpt>
      <trkpt lat="32.79543299227953" lon="-4.077477967366576">
        <ele>1110.8</ele>
        <time>2003-04-18T18:41:34Z</time>
      </trkpt>
      <trkpt lat="32.795552015304565" lon="-4.077460030093789">
        <ele>1110.8</ele>
        <time>2003-04-18T18:41:37Z</time>
      </trkpt>
      <trkpt lat="32.795667015016079" lon="-4.077470004558563">
        <ele>1110.7</ele>
        <time>2003-04-18T18:41:41Z</time>
      </trkpt>
      <trkpt lat="32.795759970322251" lon="-4.077473022043705">
        <ele>1110.5999999999999</ele>
        <time>2003-04-18T18:41:44Z</time>
      </trkpt>
      <trkpt lat="32.795849991962314" lon="-4.077488025650382">
        <ele>1110.5999999999999</ele>
        <time>2003-04-18T18:41:47Z</time>
      </trkpt>
      <trkpt lat="32.796170013025403" lon="-4.077539993450046">
        <ele>1110.4000000000001</ele>
        <time>2003-04-18T18:41:56Z</time>
      </trkpt>
      <trkpt lat="32.796279983595014" lon="-4.077572012320161">
        <ele>1110.5</ele>
        <time>2003-04-18T18:42:00Z</time>
      </trkpt>
      <trkpt lat="32.796487016603351" lon="-4.077666979283094">
        <ele>1110.2</ele>
        <time>2003-04-18T18:42:04Z</time>
      </trkpt>
      <trkpt lat="32.796877026557922" lon="-4.077963028103113">
        <ele>1110.2</ele>
        <time>2003-04-18T18:42:15Z</time>
      </trkpt>
      <trkpt lat="32.796941986307502" lon="-4.078135024756193">
        <ele>1110.0999999999999</ele>
        <time>2003-04-18T18:42:24Z</time>
      </trkpt>
      <trkpt lat="32.797075007110834" lon="-4.078339962288737">
        <ele>1109.3</ele>
        <time>2003-04-18T18:42:31Z</time>
      </trkpt>
      <trkpt lat="32.797178020700812" lon="-4.078484969213605">
        <ele>1109.3</ele>
        <time>2003-04-18T18:42:35Z</time>
      </trkpt>
      <trkpt lat="32.797684958204627" lon="-4.07898997887969">
        <ele>1108.5</ele>
        <time>2003-04-18T18:42:50Z</time>
      </trkpt>
      <trkpt lat="32.797938007861376" lon="-4.079189971089363">
        <ele>1108.3</ele>
        <time>2003-04-18T18:42:55Z</time>
      </trkpt>
      <trkpt lat="32.798104975372553" lon="-4.079345036298037">
        <ele>1108.3</ele>
        <time>2003-04-18T18:42:59Z</time>
      </trkpt>
      <trkpt lat="32.79831200838089" lon="-4.079455006867647">
        <ele>1108.3</ele>
        <time>2003-04-18T18:43:05Z</time>
      </trkpt>
      <trkpt lat="32.798482999205589" lon="-4.079500017687678">
        <ele>1108.0999999999999</ele>
        <time>2003-04-18T18:43:09Z</time>
      </trkpt>
      <trkpt lat="32.798585006967187" lon="-4.079522984102368">
        <ele>1107.8</ele>
        <time>2003-04-18T18:43:12Z</time>
      </trkpt>
      <trkpt lat="32.798745017498732" lon="-4.079577969387174">
        <ele>1107.4000000000001</ele>
        <time>2003-04-18T18:43:16Z</time>
      </trkpt>
      <trkpt lat="32.798856999725103" lon="-4.079551985487342">
        <ele>1107.2</ele>
        <time>2003-04-18T18:43:18Z</time>
      </trkpt>
      <trkpt lat="32.798951966688037" lon="-4.07954796217382">
        <ele>1107</ele>
        <time>2003-04-18T18:43:21Z</time>
      </trkpt>
      <trkpt lat="32.799051962792873" lon="-4.079521978273988">
        <ele>1106.9000000000001</ele>
        <time>2003-04-18T18:43:22Z</time>
      </trkpt>
      <trkpt lat="32.799238041043282" lon="-4.079497000202537">
        <ele>1106.3</ele>
        <time>2003-04-18T18:43:26Z</time>
      </trkpt>
      <trkpt lat="32.799474997445941" lon="-4.079489959403873">
        <ele>1105.9000000000001</ele>
        <time>2003-04-18T18:43:32Z</time>
      </trkpt>
      <trkpt lat="32.799650011584163" lon="-4.079534970223904">
        <ele>1105.5999999999999</ele>
        <time>2003-04-18T18:43:36Z</time>
      </trkpt>
      <trkpt lat="32.799991993233562" lon="-4.079775027930737">
        <ele>1104.8</ele>
        <time>2003-04-18T18:43:44Z</time>
      </trkpt>
      <trkpt lat="32.800179999321699" lon="-4.079921962693334">
        <ele>1105.2</ele>
        <time>2003-04-18T18:43:48Z</time>
      </trkpt>
      <trkpt lat="32.800863040611148" lon="-4.080377016216517">
        <ele>1105.3</ele>
        <time>2003-04-18T18:44:03Z</time>
      </trkpt>
      <trkpt lat="32.800958007574081" lon="-4.08047198317945">
        <ele>1105</ele>
        <time>2003-04-18T18:44:07Z</time>
      </trkpt>
      <trkpt lat="32.801050040870905" lon="-4.080520011484623">
        <ele>1105.0999999999999</ele>
        <time>2003-04-18T18:44:08Z</time>
      </trkpt>
      <trkpt lat="32.801267970353365" lon="-4.080627970397472">
        <ele>1105.3</ele>
        <time>2003-04-18T18:44:12Z</time>
      </trkpt>
      <trkpt lat="32.802001973614097" lon="-4.081085035577416">
        <ele>1105.0999999999999</ele>
        <time>2003-04-18T18:44:26Z</time>
      </trkpt>
      <trkpt lat="32.802112028002739" lon="-4.081155024468899">
        <ele>1105</ele>
        <time>2003-04-18T18:44:27Z</time>
      </trkpt>
      <trkpt lat="32.80239500105381" lon="-4.081310005858541">
        <ele>1105.0999999999999</ele>
        <time>2003-04-18T18:44:33Z</time>
      </trkpt>
      <trkpt lat="32.802637992426753" lon="-4.081521984189749">
        <ele>1105.4000000000001</ele>
        <time>2003-04-18T18:44:38Z</time>
      </trkpt>
      <trkpt lat="32.802751986309886" lon="-4.081560038030148">
        <ele>1105.0999999999999</ele>
        <time>2003-04-18T18:44:41Z</time>
      </trkpt>
      <trkpt lat="32.802911996841431" lon="-4.081615023314953">
        <ele>1104.5</ele>
        <time>2003-04-18T18:44:43Z</time>
      </trkpt>
      <trkpt lat="32.803079970180988" lon="-4.081728011369705">
        <ele>1104.4000000000001</ele>
        <time>2003-04-18T18:44:47Z</time>
      </trkpt>
      <trkpt lat="32.803217014297843" lon="-4.081864971667528">
        <ele>1104.2</ele>
        <time>2003-04-18T18:44:51Z</time>
      </trkpt>
      <trkpt lat="32.803493030369282" lon="-4.082169989123941">
        <ele>1103.4000000000001</ele>
        <time>2003-04-18T18:45:01Z</time>
      </trkpt>
      <trkpt lat="32.803841968998313" lon="-4.082454973831773">
        <ele>1102.5999999999999</ele>
        <time>2003-04-18T18:45:12Z</time>
      </trkpt>
      <trkpt lat="32.803923022001982" lon="-4.08257701434195">
        <ele>1102.5999999999999</ele>
        <time>2003-04-18T18:45:17Z</time>
      </trkpt>
      <trkpt lat="32.803987981751561" lon="-4.082712968811393">
        <ele>1102.3</ele>
        <time>2003-04-18T18:45:21Z</time>
      </trkpt>
      <trkpt lat="32.804052019491792" lon="-4.082902986556292">
        <ele>1102.5999999999999</ele>
        <time>2003-04-18T18:45:25Z</time>
      </trkpt>
      <trkpt lat="32.804095018655062" lon="-4.083032989874482">
        <ele>1102.4000000000001</ele>
        <time>2003-04-18T18:45:28Z</time>
      </trkpt>
      <trkpt lat="32.804197026416659" lon="-4.083272963762283">
        <ele>1102.2</ele>
        <time>2003-04-18T18:45:35Z</time>
      </trkpt>
      <trkpt lat="32.804262991994619" lon="-4.083385029807687">
        <ele>1101.9000000000001</ele>
        <time>2003-04-18T18:45:37Z</time>
      </trkpt>
      <trkpt lat="32.804367011412978" lon="-4.083298025652766">
        <ele>1103.5</ele>
        <time>2003-04-18T18:47:36Z</time>
      </trkpt>
      <trkpt lat="32.804423002526164" lon="-4.083400033414364">
        <ele>1103.4000000000001</ele>
        <time>2003-04-18T18:47:43Z</time>
      </trkpt>
      <trkpt lat="32.804492991417646" lon="-4.0835000295192">
        <ele>1103.3</ele>
        <time>2003-04-18T18:47:47Z</time>
      </trkpt>
      <trkpt lat="32.804567003622651" lon="-4.083577981218696">
        <ele>1102.8</ele>
        <time>2003-04-18T18:47:51Z</time>
      </trkpt>
      <trkpt lat="32.804666999727488" lon="-4.083617962896824">
        <ele>1102.5</ele>
        <time>2003-04-18T18:47:55Z</time>
      </trkpt>
      <trkpt lat="32.804802032187581" lon="-4.083670014515519">
        <ele>1102</ele>
        <time>2003-04-18T18:48:00Z</time>
      </trkpt>
      <trkpt lat="32.804898004978895" lon="-4.083691975101829">
        <ele>1101.4000000000001</ele>
        <time>2003-04-18T18:48:03Z</time>
      </trkpt>
      <trkpt lat="32.805002024397254" lon="-4.083706978708506">
        <ele>1101.5999999999999</ele>
        <time>2003-04-18T18:48:07Z</time>
      </trkpt>
      <trkpt lat="32.805121969431639" lon="-4.083697004243732">
        <ele>1101.4000000000001</ele>
        <time>2003-04-18T18:48:10Z</time>
      </trkpt>
      <trkpt lat="32.805239986628294" lon="-4.083640007302165">
        <ele>1100.9000000000001</ele>
        <time>2003-04-18T18:48:13Z</time>
      </trkpt>
      <trkpt lat="32.805335037410259" lon="-4.083546968176961">
        <ele>1100.7</ele>
        <time>2003-04-18T18:48:15Z</time>
      </trkpt>
      <trkpt lat="32.80540301464498" lon="-4.083432974293828">
        <ele>1099.8</ele>
        <time>2003-04-18T18:48:18Z</time>
      </trkpt>
      <trkpt lat="32.805477026849985" lon="-4.083270030096173">
        <ele>1099.4000000000001</ele>
        <time>2003-04-18T18:48:22Z</time>
      </trkpt>
      <trkpt lat="32.805524971336126" lon="-4.083156958222389">
        <ele>1098.7</ele>
        <time>2003-04-18T18:48:26Z</time>
      </trkpt>
      <trkpt lat="32.805594960227609" lon="-4.08302997238934">
        <ele>1098.8</ele>
        <time>2003-04-18T18:48:30Z</time>
      </trkpt>
      <trkpt lat="32.805707026273012" lon="-4.082912039011717">
        <ele>1098.5</ele>
        <time>2003-04-18T18:48:36Z</time>
      </trkpt>
      <trkpt lat="32.805801993235946" lon="-4.082880020141602">
        <ele>1098.0999999999999</ele>
        <time>2003-04-18T18:48:38Z</time>
      </trkpt>
      <trkpt lat="32.806010032072663" lon="-4.082861999049783">
        <ele>1097.3</ele>
        <time>2003-04-18T18:48:45Z</time>
      </trkpt>
      <trkpt lat="32.806122014299035" lon="-4.082889994606376">
        <ele>1097.3</ele>
        <time>2003-04-18T18:48:48Z</time>
      </trkpt>
      <trkpt lat="32.80630499124527" lon="-4.082971969619393">
        <ele>1096.9000000000001</ele>
        <time>2003-04-18T18:48:52Z</time>
      </trkpt>
      <trkpt lat="32.806422002613544" lon="-4.08307196572423">
        <ele>1096.8</ele>
        <time>2003-04-18T18:48:53Z</time>
      </trkpt>
      <trkpt lat="32.806527027860284" lon="-4.083189982920885">
        <ele>1096.9000000000001</ele>
        <time>2003-04-18T18:48:56Z</time>
      </trkpt>
      <trkpt lat="32.807181989774108" lon="-4.084033034741879">
        <ele>1096.7</ele>
        <time>2003-04-18T18:49:09Z</time>
      </trkpt>
      <trkpt lat="32.807242004200816" lon="-4.084194973111153">
        <ele>1096.5999999999999</ele>
        <time>2003-04-18T18:49:12Z</time>
      </trkpt>
      <trkpt lat="32.807482983916998" lon="-4.085007011890411">
        <ele>1096.2</ele>
        <time>2003-04-18T18:49:23Z</time>
      </trkpt>
      <trkpt lat="32.807556996122003" lon="-4.085141960531473">
        <ele>1096.2</ele>
        <time>2003-04-18T18:49:26Z</time>
      </trkpt>
      <trkpt lat="32.807645006105304" lon="-4.085223013535142">
        <ele>1096.2</ele>
        <time>2003-04-18T18:49:28Z</time>
      </trkpt>
      <trkpt lat="32.807777021080256" lon="-4.085331978276372">
        <ele>1096.0999999999999</ele>
        <time>2003-04-18T18:49:35Z</time>
      </trkpt>
      <trkpt lat="32.807897971943021" lon="-4.08541202545166">
        <ele>1095.7</ele>
        <time>2003-04-18T18:49:39Z</time>
      </trkpt>
      <trkpt lat="32.808169964700937" lon="-4.085612017661333">
        <ele>1095.9000000000001</ele>
        <time>2003-04-18T18:49:51Z</time>
      </trkpt>
      <trkpt lat="32.808256968855858" lon="-4.085643030703068">
        <ele>1095.9000000000001</ele>
        <time>2003-04-18T18:49:55Z</time>
      </trkpt>
      <trkpt lat="32.808353025466204" lon="-4.085643030703068">
        <ele>1095.8</ele>
        <time>2003-04-18T18:49:58Z</time>
      </trkpt>
      <trkpt lat="32.808491997420788" lon="-4.085625009611249">
        <ele>1095.8</ele>
        <time>2003-04-18T18:50:02Z</time>
      </trkpt>
      <trkpt lat="32.808600040152669" lon="-4.085630038753152">
        <ele>1095.3</ele>
        <time>2003-04-18T18:50:06Z</time>
      </trkpt>
      <trkpt lat="32.808719985187054" lon="-4.085651999339461">
        <ele>1095.0999999999999</ele>
        <time>2003-04-18T18:50:09Z</time>
      </trkpt>
      <trkpt lat="32.808836996555328" lon="-4.085668008774519">
        <ele>1095.0999999999999</ele>
        <time>2003-04-18T18:50:10Z</time>
      </trkpt>
      <trkpt lat="32.809081999585032" lon="-4.085745038464665">
        <ele>1095</ele>
        <time>2003-04-18T18:50:15Z</time>
      </trkpt>
      <trkpt lat="32.809257013723254" lon="-4.085837993770838">
        <ele>1094.7</ele>
        <time>2003-04-18T18:50:20Z</time>
      </trkpt>
      <trkpt lat="32.809375030919909" lon="-4.085930027067661">
        <ele>1094.8</ele>
        <time>2003-04-18T18:50:22Z</time>
      </trkpt>
      <trkpt lat="32.809467986226082" lon="-4.085985012352467">
        <ele>1094.5999999999999</ele>
        <time>2003-04-18T18:50:25Z</time>
      </trkpt>
      <trkpt lat="32.809551972895861" lon="-4.086027005687356">
        <ele>1094.8</ele>
        <time>2003-04-18T18:50:28Z</time>
      </trkpt>
      <trkpt lat="32.809637971222401" lon="-4.0860799793154">
        <ele>1094.8</ele>
        <time>2003-04-18T18:50:32Z</time>
      </trkpt>
      <trkpt lat="32.809771997854114" lon="-4.086172012612224">
        <ele>1094.9000000000001</ele>
        <time>2003-04-18T18:50:37Z</time>
      </trkpt>
      <trkpt lat="32.80989496037364" lon="-4.086243007332087">
        <ele>1094.8</ele>
        <time>2003-04-18T18:50:40Z</time>
      </trkpt>
      <trkpt lat="32.810190003365278" lon="-4.086437970399857">
        <ele>1094.4000000000001</ele>
        <time>2003-04-18T18:50:48Z</time>
      </trkpt>
      <trkpt lat="32.810278013348579" lon="-4.086611978709698">
        <ele>1093.3</ele>
        <time>2003-04-18T18:51:12Z</time>
      </trkpt>
      <trkpt lat="32.810359988361597" lon="-4.08668196760118">
        <ele>1093.5999999999999</ele>
        <time>2003-04-18T18:51:16Z</time>
      </trkpt>
      <trkpt lat="32.810412961989641" lon="-4.086777018383145">
        <ele>1092.9000000000001</ele>
        <time>2003-04-18T18:51:19Z</time>
      </trkpt>
      <trkpt lat="32.810482028871775" lon="-4.086971981450915">
        <ele>1092.9000000000001</ele>
        <time>2003-04-18T18:51:23Z</time>
      </trkpt>
      <trkpt lat="32.810512958094478" lon="-4.087082035839558">
        <ele>1092.7</ele>
        <time>2003-04-18T18:51:24Z</time>
      </trkpt>
      <trkpt lat="32.810570038855076" lon="-4.087198041379452">
        <ele>1092.7</ele>
        <time>2003-04-18T18:51:28Z</time>
      </trkpt>
      <trkpt lat="32.810625024139881" lon="-4.087340030819178">
        <ele>1092.4000000000001</ele>
        <time>2003-04-18T18:51:35Z</time>
      </trkpt>
      <trkpt lat="32.810674980282784" lon="-4.087437009438872">
        <ele>1092.4000000000001</ele>
        <time>2003-04-18T18:51:39Z</time>
      </trkpt>
      <trkpt lat="32.810742035508156" lon="-4.087549997493625">
        <ele>1092.4000000000001</ele>
        <time>2003-04-18T18:51:43Z</time>
      </trkpt>
      <trkpt lat="32.810876984149218" lon="-4.087804974988103">
        <ele>1092.4000000000001</ele>
        <time>2003-04-18T18:51:49Z</time>
      </trkpt>
      <trkpt lat="32.810930041596293" lon="-4.08799197524786">
        <ele>1092.3</ele>
        <time>2003-04-18T18:51:53Z</time>
      </trkpt>
      <trkpt lat="32.810957031324506" lon="-4.088176963850856">
        <ele>1092.0999999999999</ele>
        <time>2003-04-18T18:51:58Z</time>
      </trkpt>
      <trkpt lat="32.810982009395957" lon="-4.088396988809109">
        <ele>1092.0999999999999</ele>
        <time>2003-04-18T18:52:03Z</time>
      </trkpt>
      <trkpt lat="32.811068007722497" lon="-4.088841984048486">
        <ele>1091.5999999999999</ele>
        <time>2003-04-18T18:52:13Z</time>
      </trkpt>
      <trkpt lat="32.811137996613979" lon="-4.089171979576349">
        <ele>1091.3</ele>
        <time>2003-04-18T18:52:18Z</time>
      </trkpt>
      <trkpt lat="32.811162974685431" lon="-4.08949501812458">
        <ele>1090.9000000000001</ele>
        <time>2003-04-18T18:52:25Z</time>
      </trkpt>
      <trkpt lat="32.81128803268075" lon="-4.09005300141871">
        <ele>1090.8</ele>
        <time>2003-04-18T18:52:36Z</time>
      </trkpt>
      <trkpt lat="32.811413006857038" lon="-4.090464971959591">
        <ele>1090.4000000000001</ele>
        <time>2003-04-18T18:52:44Z</time>
      </trkpt>
      <trkpt lat="32.811502022668719" lon="-4.090563040226698">
        <ele>1090.2</ele>
        <time>2003-04-18T18:52:48Z</time>
      </trkpt>
      <trkpt lat="32.811588020995259" lon="-4.090615008026362">
        <ele>1090.0999999999999</ele>
        <time>2003-04-18T18:52:49Z</time>
      </trkpt>
      <trkpt lat="32.81167795881629" lon="-4.090639986097813">
        <ele>1090.3</ele>
        <time>2003-04-18T18:52:52Z</time>
      </trkpt>
      <trkpt lat="32.811860013753176" lon="-4.090677034109831">
        <ele>1090.2</ele>
        <time>2003-04-18T18:52:56Z</time>
      </trkpt>
      <trkpt lat="32.811963027343154" lon="-4.090639986097813">
        <ele>1090.0999999999999</ele>
        <time>2003-04-18T18:52:57Z</time>
      </trkpt>
      <trkpt lat="32.812138041481376" lon="-4.090524986386299">
        <ele>1089.5</ele>
        <time>2003-04-18T18:53:00Z</time>
      </trkpt>
      <trkpt lat="32.812295034527779" lon="-4.090422978624702">
        <ele>1088.8</ele>
        <time>2003-04-18T18:53:03Z</time>
      </trkpt>
      <trkpt lat="32.81266501173377" lon="-4.090146962553263">
        <ele>1088.7</ele>
        <time>2003-04-18T18:53:07Z</time>
      </trkpt>
      <trkpt lat="32.813097015023232" lon="-4.08981797285378">
        <ele>1088</ele>
        <time>2003-04-18T18:53:14Z</time>
      </trkpt>
      <trkpt lat="32.813336988911033" lon="-4.089700039476156">
        <ele>1087.5999999999999</ele>
        <time>2003-04-18T18:53:18Z</time>
      </trkpt>
      <trkpt lat="32.813432961702347" lon="-4.089625021442771">
        <ele>1087.4000000000001</ele>
        <time>2003-04-18T18:53:19Z</time>
      </trkpt>
      <trkpt lat="32.813642006367445" lon="-4.089450007304549">
        <ele>1087</ele>
        <time>2003-04-18T18:53:23Z</time>
      </trkpt>
      <trkpt lat="32.813742002472281" lon="-4.089320003986359">
        <ele>1086.7</ele>
        <time>2003-04-18T18:53:26Z</time>
      </trkpt>
      <trkpt lat="32.813811991363764" lon="-4.089238028973341">
        <ele>1086.5999999999999</ele>
        <time>2003-04-18T18:53:27Z</time>
      </trkpt>
      <trkpt lat="32.813892960548401" lon="-4.089153036475182">
        <ele>1086.7</ele>
        <time>2003-04-18T18:53:34Z</time>
      </trkpt>
      <trkpt lat="32.814009971916676" lon="-4.089048011228442">
        <ele>1086.4000000000001</ele>
        <time>2003-04-18T18:53:37Z</time>
      </trkpt>
      <trkpt lat="32.814163025468588" lon="-4.088895041495562">
        <ele>1085.9000000000001</ele>
        <time>2003-04-18T18:53:39Z</time>
      </trkpt>
      <trkpt lat="32.814377015456557" lon="-4.08872296102345">
        <ele>1085.9000000000001</ele>
        <time>2003-04-18T18:53:43Z</time>
      </trkpt>
      <trkpt lat="32.814722014591098" lon="-4.088466977700591">
        <ele>1085.7</ele>
        <time>2003-04-18T18:53:50Z</time>
      </trkpt>
      <trkpt lat="32.814825028181076" lon="-4.088405035436153">
        <ele>1085.5</ele>
        <time>2003-04-18T18:53:53Z</time>
      </trkpt>
      <trkpt lat="32.814942039549351" lon="-4.088366981595755">
        <ele>1084.8</ele>
        <time>2003-04-18T18:53:54Z</time>
      </trkpt>
      <trkpt lat="32.81507296487689" lon="-4.088330017402768">
        <ele>1084.7</ele>
        <time>2003-04-18T18:53:58Z</time>
      </trkpt>
      <trkpt lat="32.815246973186731" lon="-4.088277965784073">
        <ele>1084.2</ele>
        <time>2003-04-18T18:54:04Z</time>
      </trkpt>
      <trkpt lat="32.815358033403754" lon="-4.088264973834157">
        <ele>1083.8</ele>
        <time>2003-04-18T18:54:06Z</time>
      </trkpt>
      <trkpt lat="32.815587026998401" lon="-4.088247958570719">
        <ele>1084.0999999999999</ele>
        <time>2003-04-18T18:54:17Z</time>
      </trkpt>
      <trkpt lat="32.815673025324941" lon="-4.088215017691255">
        <ele>1084.5</ele>
        <time>2003-04-18T18:54:21Z</time>
      </trkpt>
      <trkpt lat="32.815775033086538" lon="-4.08820697106421">
        <ele>1084.5</ele>
        <time>2003-04-18T18:54:24Z</time>
      </trkpt>
      <trkpt lat="32.815932026132941" lon="-4.088198002427816">
        <ele>1084.3</ele>
        <time>2003-04-18T18:54:27Z</time>
      </trkpt>
      <trkpt lat="32.816039985045791" lon="-4.088202025741339">
        <ele>1084.2</ele>
        <time>2003-04-18T18:54:28Z</time>
      </trkpt>
      <trkpt lat="32.816142998635769" lon="-4.088239995762706">
        <ele>1084.2</ele>
        <time>2003-04-18T18:54:32Z</time>
      </trkpt>
      <trkpt lat="32.816217010840774" lon="-4.088311996310949">
        <ele>1084</ele>
        <time>2003-04-18T18:54:36Z</time>
      </trkpt>
      <trkpt lat="32.816335028037429" lon="-4.088417021557689">
        <ele>1084.3</ele>
        <time>2003-04-18T18:54:41Z</time>
      </trkpt>
      <trkpt lat="32.816569972783327" lon="-4.088509976863861">
        <ele>1084.2</ele>
        <time>2003-04-18T18:54:48Z</time>
      </trkpt>
      <trkpt lat="32.816654965281487" lon="-4.088620031252503">
        <ele>1083.9000000000001</ele>
        <time>2003-04-18T18:54:55Z</time>
      </trkpt>
      <trkpt lat="32.816701987758279" lon="-4.088727990165353">
        <ele>1083.8</ele>
        <time>2003-04-18T18:54:56Z</time>
      </trkpt>
      <trkpt lat="32.816816987469792" lon="-4.088944997638464">
        <ele>1083.3</ele>
        <time>2003-04-18T18:55:00Z</time>
      </trkpt>
      <trkpt lat="32.816898040473461" lon="-4.089032001793385">
        <ele>1083.4000000000001</ele>
        <time>2003-04-18T18:55:03Z</time>
      </trkpt>
      <trkpt lat="32.817007005214691" lon="-4.089080030098558">
        <ele>1083.5999999999999</ele>
        <time>2003-04-18T18:55:04Z</time>
      </trkpt>
      <trkpt lat="32.817112030461431" lon="-4.089084975421429">
        <ele>1083.5999999999999</ele>
        <time>2003-04-18T18:55:07Z</time>
      </trkpt>
      <trkpt lat="32.817225018516183" lon="-4.089057985693216">
        <ele>1083.5999999999999</ele>
        <time>2003-04-18T18:55:11Z</time>
      </trkpt>
      <trkpt lat="32.817319985479116" lon="-4.089059997349978">
        <ele>1083.5</ele>
        <time>2003-04-18T18:55:12Z</time>
      </trkpt>
      <trkpt lat="32.817427022382617" lon="-4.089057985693216">
        <ele>1083.4000000000001</ele>
        <time>2003-04-18T18:55:15Z</time>
      </trkpt>
      <trkpt lat="32.817691974341869" lon="-4.089014986529946">
        <ele>1082.8</ele>
        <time>2003-04-18T18:55:21Z</time>
      </trkpt>
      <trkpt lat="32.817937983199954" lon="-4.088960001245141">
        <ele>1081.9000000000001</ele>
        <time>2003-04-18T18:55:27Z</time>
      </trkpt>
      <trkpt lat="32.818028004840016" lon="-4.088963018730283">
        <ele>1081.5</ele>
        <time>2003-04-18T18:55:31Z</time>
      </trkpt>
      <trkpt lat="32.818133030086756" lon="-4.088966958224773">
        <ele>1081.5999999999999</ele>
        <time>2003-04-18T18:55:34Z</time>
      </trkpt>
      <trkpt lat="32.818248029798269" lon="-4.088980033993721">
        <ele>1081.7</ele>
        <time>2003-04-18T18:55:37Z</time>
      </trkpt>
      <trkpt lat="32.818418014794588" lon="-4.088990008458495">
        <ele>1081.4000000000001</ele>
        <time>2003-04-18T18:55:39Z</time>
      </trkpt>
      <trkpt lat="32.818532008677721" lon="-4.088969975709915">
        <ele>1081.5999999999999</ele>
        <time>2003-04-18T18:55:42Z</time>
      </trkpt>
      <trkpt lat="32.81863703392446" lon="-4.088888000696898">
        <ele>1081.4000000000001</ele>
        <time>2003-04-18T18:55:44Z</time>
      </trkpt>
      <trkpt lat="32.818708028644323" lon="-4.088780041784048">
        <ele>1081.3</ele>
        <time>2003-04-18T18:55:46Z</time>
      </trkpt>
      <trkpt lat="32.818777011707425" lon="-4.088626988232136">
        <ele>1081.8</ele>
        <time>2003-04-18T18:55:49Z</time>
      </trkpt>
      <trkpt lat="32.818833002820611" lon="-4.08852799795568">
        <ele>1081.8</ele>
        <time>2003-04-18T18:55:50Z</time>
      </trkpt>
      <trkpt lat="32.818957976996899" lon="-4.088334962725639">
        <ele>1080.5999999999999</ele>
        <time>2003-04-18T18:55:54Z</time>
      </trkpt>
      <trkpt lat="32.819016985595226" lon="-4.088232032954693">
        <ele>1080.8</ele>
        <time>2003-04-18T18:55:57Z</time>
      </trkpt>
      <trkpt lat="32.819052021950483" lon="-4.088119966909289">
        <ele>1080.4000000000001</ele>
        <time>2003-04-18T18:55:58Z</time>
      </trkpt>
      <trkpt lat="32.819180013611913" lon="-4.087815033271909">
        <ele>1079.9000000000001</ele>
        <time>2003-04-18T18:56:05Z</time>
      </trkpt>
      <trkpt lat="32.819265006110072" lon="-4.087710008025169">
        <ele>1079.7</ele>
        <time>2003-04-18T18:56:09Z</time>
      </trkpt>
      <trkpt lat="32.819344969466329" lon="-4.087644964456558">
        <ele>1079.5999999999999</ele>
        <time>2003-04-18T18:56:11Z</time>
      </trkpt>
      <trkpt lat="32.819438008591533" lon="-4.087610011920333">
        <ele>1079.5</ele>
        <time>2003-04-18T18:56:13Z</time>
      </trkpt>
      <trkpt lat="32.819525012746453" lon="-4.087570030242205">
        <ele>1079</ele>
        <time>2003-04-18T18:56:15Z</time>
      </trkpt>
      <trkpt lat="32.819725004956126" lon="-4.087477996945381">
        <ele>1078.3</ele>
        <time>2003-04-18T18:56:19Z</time>
      </trkpt>
      <trkpt lat="32.819904964417219" lon="-4.087444972246885">
        <ele>1077.4000000000001</ele>
        <time>2003-04-18T18:56:23Z</time>
      </trkpt>
      <trkpt lat="32.819996997714043" lon="-4.087404990568757">
        <ele>1077.0999999999999</ele>
        <time>2003-04-18T18:56:24Z</time>
      </trkpt>
      <trkpt lat="32.820512987673283" lon="-4.08717499114573">
        <ele>1076.5999999999999</ele>
        <time>2003-04-18T18:56:36Z</time>
      </trkpt>
      <trkpt lat="32.820629999041557" lon="-4.087192006409168">
        <ele>1076.5999999999999</ele>
        <time>2003-04-18T18:56:40Z</time>
      </trkpt>
      <trkpt lat="32.820781962946057" lon="-4.087225031107664">
        <ele>1076.5</ele>
        <time>2003-04-18T18:56:43Z</time>
      </trkpt>
      <trkpt lat="32.820882964879274" lon="-4.087283033877611">
        <ele>1076.8</ele>
        <time>2003-04-18T18:56:47Z</time>
      </trkpt>
      <trkpt lat="32.820948008447886" lon="-4.087368026375771">
        <ele>1076.9000000000001</ele>
        <time>2003-04-18T18:56:50Z</time>
      </trkpt>
      <trkpt lat="32.821026965975761" lon="-4.087457964196801">
        <ele>1076.4000000000001</ele>
        <time>2003-04-18T18:56:52Z</time>
      </trkpt>
      <trkpt lat="32.821201980113983" lon="-4.087612023577094">
        <ele>1076.5999999999999</ele>
        <time>2003-04-18T18:56:58Z</time>
      </trkpt>
      <trkpt lat="32.821295019239187" lon="-4.087643036618829">
        <ele>1077.3</ele>
        <time>2003-04-18T18:56:59Z</time>
      </trkpt>
      <trkpt lat="32.821395015344024" lon="-4.087649993598461">
        <ele>1077.4000000000001</ele>
        <time>2003-04-18T18:57:02Z</time>
      </trkpt>
      <trkpt lat="32.821492999792099" lon="-4.087652005255222">
        <ele>1077.4000000000001</ele>
        <time>2003-04-18T18:57:03Z</time>
      </trkpt>
      <trkpt lat="32.822002032771707" lon="-4.087736997753382">
        <ele>1077.3</ele>
        <time>2003-04-18T18:57:13Z</time>
      </trkpt>
      <trkpt lat="32.822104962542653" lon="-4.087758036330342">
        <ele>1077.2</ele>
        <time>2003-04-18T18:57:14Z</time>
      </trkpt>
      <trkpt lat="32.822200013324618" lon="-4.087758036330342">
        <ele>1077.3</ele>
        <time>2003-04-18T18:57:17Z</time>
      </trkpt>
      <trkpt lat="32.822302021086216" lon="-4.087779996916652">
        <ele>1077.0999999999999</ele>
        <time>2003-04-18T18:57:18Z</time>
      </trkpt>
      <trkpt lat="32.822914989665151" lon="-4.087876975536346">
        <ele>1076.7</ele>
        <time>2003-04-18T18:57:30Z</time>
      </trkpt>
      <trkpt lat="32.823677994310856" lon="-4.087932966649532">
        <ele>1075.3</ele>
        <time>2003-04-18T18:57:42Z</time>
      </trkpt>
      <trkpt lat="32.823780002072453" lon="-4.087957022711635">
        <ele>1075</ele>
        <time>2003-04-18T18:57:45Z</time>
      </trkpt>
      <trkpt lat="32.823887038975954" lon="-4.087970014661551">
        <ele>1075.2</ele>
        <time>2003-04-18T18:57:46Z</time>
      </trkpt>
      <trkpt lat="32.823998015373945" lon="-4.087937995791435">
        <ele>1075.2</ele>
        <time>2003-04-18T18:57:49Z</time>
      </trkpt>
      <trkpt lat="32.824234971776605" lon="-4.087798018008471">
        <ele>1074.7</ele>
        <time>2003-04-18T18:57:53Z</time>
      </trkpt>
      <trkpt lat="32.824317030608654" lon="-4.087727023288608">
        <ele>1074.3</ele>
        <time>2003-04-18T18:57:56Z</time>
      </trkpt>
      <trkpt lat="32.824457008391619" lon="-4.087600037455559">
        <ele>1074.4000000000001</ele>
        <time>2003-04-18T18:58:00Z</time>
      </trkpt>
      <trkpt lat="32.824530014768243" lon="-4.087531976401806">
        <ele>1074.3</ele>
        <time>2003-04-18T18:58:03Z</time>
      </trkpt>
      <trkpt lat="32.824633028358221" lon="-4.087493000552058">
        <ele>1074.2</ele>
        <time>2003-04-18T18:58:05Z</time>
      </trkpt>
      <trkpt lat="32.824818016961217" lon="-4.087398033589125">
        <ele>1073.4000000000001</ele>
        <time>2003-04-18T18:58:11Z</time>
      </trkpt>
      <trkpt lat="32.824996970593929" lon="-4.087284961715341">
        <ele>1073.3</ele>
        <time>2003-04-18T18:58:16Z</time>
      </trkpt>
      <trkpt lat="32.825103001669049" lon="-4.087263001129031">
        <ele>1072.8</ele>
        <time>2003-04-18T18:58:17Z</time>
      </trkpt>
      <trkpt lat="32.825211966410279" lon="-4.087237017229199">
        <ele>1072.5999999999999</ele>
        <time>2003-04-18T18:58:20Z</time>
      </trkpt>
      <trkpt lat="32.825333001092076" lon="-4.087216984480619">
        <ele>1072.2</ele>
        <time>2003-04-18T18:58:23Z</time>
      </trkpt>
      <trkpt lat="32.825426962226629" lon="-4.087217990309">
        <ele>1072.3</ele>
        <time>2003-04-18T18:58:24Z</time>
      </trkpt>
      <trkpt lat="32.825544979423285" lon="-4.087208015844226">
        <ele>1072.3</ele>
        <time>2003-04-18T18:58:27Z</time>
      </trkpt>
      <trkpt lat="32.825657967478037" lon="-4.08717499114573">
        <ele>1072</ele>
        <time>2003-04-18T18:58:28Z</time>
      </trkpt>
      <trkpt lat="32.82577296718955" lon="-4.087141966447234">
        <ele>1071.7</ele>
        <time>2003-04-18T18:58:31Z</time>
      </trkpt>
      <trkpt lat="32.825886961072683" lon="-4.087127968668938">
        <ele>1071.2</ele>
        <time>2003-04-18T18:58:32Z</time>
      </trkpt>
      <trkpt lat="32.825998021289706" lon="-4.087132997810841">
        <ele>1071.4000000000001</ele>
        <time>2003-04-18T18:58:35Z</time>
      </trkpt>
      <trkpt lat="32.826217040419579" lon="-4.087198041379452">
        <ele>1071.3</ele>
        <time>2003-04-18T18:58:39Z</time>
      </trkpt>
      <trkpt lat="32.826377972960472" lon="-4.087247997522354">
        <ele>1071.3</ele>
        <time>2003-04-18T18:58:42Z</time>
      </trkpt>
      <trkpt lat="32.826648037880659" lon="-4.087267024442554">
        <ele>1071.2</ele>
        <time>2003-04-18T18:58:46Z</time>
      </trkpt>
      <trkpt lat="32.826947020366788" lon="-4.087271969765425">
        <ele>1069.5</ele>
        <time>2003-04-18T18:58:50Z</time>
      </trkpt>
      <trkpt lat="32.827367037534714" lon="-4.087255038321018">
        <ele>1068.5999999999999</ele>
        <time>2003-04-18T18:58:55Z</time>
      </trkpt>
      <trkpt lat="32.827698038890958" lon="-4.087307006120682">
        <ele>1068.9000000000001</ele>
        <time>2003-04-18T18:59:01Z</time>
      </trkpt>
      <trkpt lat="32.827914962545037" lon="-4.087341958656907">
        <ele>1069</ele>
        <time>2003-04-18T18:59:05Z</time>
      </trkpt>
      <trkpt lat="32.828038008883595" lon="-4.087292002514005">
        <ele>1068.9000000000001</ele>
        <time>2003-04-18T18:59:06Z</time>
      </trkpt>
      <trkpt lat="32.828230038285255" lon="-4.087227964773774">
        <ele>1068.8</ele>
        <time>2003-04-18T18:59:10Z</time>
      </trkpt>
      <trkpt lat="32.828788021579385" lon="-4.087225031107664">
        <ele>1068.5</ele>
        <time>2003-04-18T18:59:18Z</time>
      </trkpt>
      <trkpt lat="32.829042999073863" lon="-4.087286973372102">
        <ele>1068.4000000000001</ele>
        <time>2003-04-18T18:59:24Z</time>
      </trkpt>
      <trkpt lat="32.829212984070182" lon="-4.087317986413837">
        <ele>1068.5999999999999</ele>
        <time>2003-04-18T18:59:26Z</time>
      </trkpt>
      <trkpt lat="32.829326977953315" lon="-4.087292002514005">
        <ele>1068.7</ele>
        <time>2003-04-18T18:59:29Z</time>
      </trkpt>
      <trkpt lat="32.829671977087855" lon="-4.087235005572438">
        <ele>1067.8</ele>
        <time>2003-04-18T18:59:36Z</time>
      </trkpt>
      <trkpt lat="32.829807009547949" lon="-4.087226958945394">
        <ele>1067.5999999999999</ele>
        <time>2003-04-18T18:59:38Z</time>
      </trkpt>
      <trkpt lat="32.830068022012711" lon="-4.087269958108664">
        <ele>1067.5999999999999</ele>
        <time>2003-04-18T18:59:44Z</time>
      </trkpt>
      <trkpt lat="32.830170029774308" lon="-4.087283033877611">
        <ele>1067.5</ele>
        <time>2003-04-18T18:59:45Z</time>
      </trkpt>
      <trkpt lat="32.830343032255769" lon="-4.087312035262585">
        <ele>1067.4000000000001</ele>
        <time>2003-04-18T18:59:49Z</time>
      </trkpt>
      <trkpt lat="32.830651989206672" lon="-4.087417982518673">
        <ele>1067.7</ele>
        <time>2003-04-18T18:59:59Z</time>
      </trkpt>
      <trkpt lat="32.830827003344893" lon="-4.087455030530691">
        <ele>1067.4000000000001</ele>
        <time>2003-04-18T19:00:36Z</time>
      </trkpt>
      <trkpt lat="32.830939991399646" lon="-4.087459975853562">
        <ele>1066.9000000000001</ele>
        <time>2003-04-18T19:00:41Z</time>
      </trkpt>
      <trkpt lat="32.831096984446049" lon="-4.087399961426854">
        <ele>1067.7</ele>
        <time>2003-04-18T19:00:50Z</time>
      </trkpt>
      <trkpt lat="32.831221958622336" lon="-4.087357968091965">
        <ele>1070.4000000000001</ele>
        <time>2003-04-18T19:00:54Z</time>
      </trkpt>
      <trkpt lat="32.831326983869076" lon="-4.087269958108664">
        <ele>1071.9000000000001</ele>
        <time>2003-04-18T19:00:57Z</time>
      </trkpt>
      <trkpt lat="32.831405019387603" lon="-4.087172979488969">
        <ele>1073.5</ele>
        <time>2003-04-18T19:00:58Z</time>
      </trkpt>
      <trkpt lat="32.831581961363554" lon="-4.086929988116026">
        <ele>1077.0999999999999</ele>
        <time>2003-04-18T19:01:02Z</time>
      </trkpt>
      <trkpt lat="32.831826964393258" lon="-4.086557999253273">
        <ele>1075.5</ele>
        <time>2003-04-18T19:01:09Z</time>
      </trkpt>
      <trkpt lat="32.832052018493414" lon="-4.08618500456214">
        <ele>1073.0999999999999</ele>
        <time>2003-04-18T19:01:16Z</time>
      </trkpt>
      <trkpt lat="32.832144973799586" lon="-4.086061958223581">
        <ele>1075.5</ele>
        <time>2003-04-18T19:01:17Z</time>
      </trkpt>
      <trkpt lat="32.832204988226295" lon="-4.085964979603887">
        <ele>1077.3</ele>
        <time>2003-04-18T19:01:20Z</time>
      </trkpt>
      <trkpt lat="32.832402968779206" lon="-4.085687035694718">
        <ele>1080.3</ele>
        <time>2003-04-18T19:01:25Z</time>
      </trkpt>
      <trkpt lat="32.832534983754158" lon="-4.085579998791218">
        <ele>1082.0999999999999</ele>
        <time>2003-04-18T19:01:26Z</time>
      </trkpt>
      <trkpt lat="32.832691976800561" lon="-4.085510009899736">
        <ele>1082.9000000000001</ele>
        <time>2003-04-18T19:01:29Z</time>
      </trkpt>
      <trkpt lat="32.833309974521399" lon="-4.085256960242987">
        <ele>1091.9000000000001</ele>
        <time>2003-04-18T19:01:36Z</time>
      </trkpt>
      <trkpt lat="32.833738038316369" lon="-4.084971975535154">
        <ele>1094</ele>
        <time>2003-04-18T19:01:40Z</time>
      </trkpt>
      <trkpt lat="32.834319993853569" lon="-4.084607027471066">
        <ele>1092.5999999999999</ele>
        <time>2003-04-18T19:01:47Z</time>
      </trkpt>
      <trkpt lat="32.834425019100308" lon="-4.084567967802286">
        <ele>1092.5999999999999</ele>
        <time>2003-04-18T19:01:48Z</time>
      </trkpt>
      <trkpt lat="32.834702041000128" lon="-4.084492027759552">
        <ele>1093.5</ele>
        <time>2003-04-18T19:01:51Z</time>
      </trkpt>
      <trkpt lat="32.835451969876885" lon="-4.084272002801299">
        <ele>1086</ele>
        <time>2003-04-18T19:01:59Z</time>
      </trkpt>
      <trkpt lat="32.836410021409392" lon="-4.083873024210334">
        <ele>1082.5</ele>
        <time>2003-04-18T19:02:07Z</time>
      </trkpt>
      <trkpt lat="32.836591992527246" lon="-4.083767998963594">
        <ele>1082.2</ele>
        <time>2003-04-18T19:02:08Z</time>
      </trkpt>
      <trkpt lat="32.836812017485499" lon="-4.08362802118063">
        <ele>1081.7</ele>
        <time>2003-04-18T19:02:11Z</time>
      </trkpt>
      <trkpt lat="32.836947971954942" lon="-4.083589967340231">
        <ele>1081.2</ele>
        <time>2003-04-18T19:02:14Z</time>
      </trkpt>
      <trkpt lat="32.83713698387146" lon="-4.083547974005342">
        <ele>1080.3</ele>
        <time>2003-04-18T19:02:15Z</time>
      </trkpt>
      <trkpt lat="32.837467985227704" lon="-4.083455018699169">
        <ele>1079</ele>
        <time>2003-04-18T19:02:19Z</time>
      </trkpt>
      <trkpt lat="32.83844799734652" lon="-4.08324496820569">
        <ele>1076.4000000000001</ele>
        <time>2003-04-18T19:02:27Z</time>
      </trkpt>
      <trkpt lat="32.838746979832649" lon="-4.083195012062788">
        <ele>1075.8</ele>
        <time>2003-04-18T19:02:30Z</time>
      </trkpt>
      <trkpt lat="32.838887041434646" lon="-4.083174979314208">
        <ele>1075.5999999999999</ele>
        <time>2003-04-18T19:02:31Z</time>
      </trkpt>
      <trkpt lat="32.838977985084057" lon="-4.083171961829066">
        <ele>1075.5</ele>
        <time>2003-04-18T19:02:34Z</time>
      </trkpt>
      <trkpt lat="32.839083010330796" lon="-4.083162993192673">
        <ele>1075.5999999999999</ele>
        <time>2003-04-18T19:02:38Z</time>
      </trkpt>
      <trkpt lat="32.839185018092394" lon="-4.083119994029403">
        <ele>1075.7</ele>
        <time>2003-04-18T19:02:39Z</time>
      </trkpt>
      <trkpt lat="32.83930798061192" lon="-4.083056962117553">
        <ele>1075.9000000000001</ele>
        <time>2003-04-18T19:02:42Z</time>
      </trkpt>
      <trkpt lat="32.839458016678691" lon="-4.082999965175986">
        <ele>1075.7</ele>
        <time>2003-04-18T19:02:43Z</time>
      </trkpt>
      <trkpt lat="32.839884990826249" lon="-4.082886977121234">
        <ele>1074.8</ele>
        <time>2003-04-18T19:02:49Z</time>
      </trkpt>
      <trkpt lat="32.840785039588809" lon="-4.082801984623075">
        <ele>1071.0999999999999</ele>
        <time>2003-04-18T19:02:58Z</time>
      </trkpt>
      <trkpt lat="32.841736972332001" lon="-4.082678016275168">
        <ele>1069.7</ele>
        <time>2003-04-18T19:03:09Z</time>
      </trkpt>
      <trkpt lat="32.841866975650191" lon="-4.082682961598039">
        <ele>1069.7</ele>
        <time>2003-04-18T19:03:12Z</time>
      </trkpt>
      <trkpt lat="32.841978035867214" lon="-4.082674998790026">
        <ele>1069.5999999999999</ele>
        <time>2003-04-18T19:03:13Z</time>
      </trkpt>
      <trkpt lat="32.842139974236488" lon="-4.082657983526588">
        <ele>1069.4000000000001</ele>
        <time>2003-04-18T19:03:16Z</time>
      </trkpt>
      <trkpt lat="32.842629980295897" lon="-4.08259998075664">
        <ele>1069</ele>
        <time>2003-04-18T19:03:23Z</time>
      </trkpt>
      <trkpt lat="32.842714972794056" lon="-4.082526974380016">
        <ele>1069.0999999999999</ele>
        <time>2003-04-18T19:03:25Z</time>
      </trkpt>
      <trkpt lat="32.842755038291216" lon="-4.082399988546968">
        <ele>1068.5</ele>
        <time>2003-04-18T19:03:28Z</time>
      </trkpt>
      <trkpt lat="32.842923011630774" lon="-4.082356989383698">
        <ele>1068.4000000000001</ele>
        <time>2003-04-18T19:03:41Z</time>
      </trkpt>
      <trkpt lat="32.843037005513906" lon="-4.082366963848472">
        <ele>1068.3</ele>
        <time>2003-04-18T19:03:44Z</time>
      </trkpt>
      <trkpt lat="32.843176983296871" lon="-4.082403006032109">
        <ele>1068</ele>
        <time>2003-04-18T19:03:45Z</time>
      </trkpt>
      <trkpt lat="32.843349985778332" lon="-4.082439970225096">
        <ele>1067.9000000000001</ele>
        <time>2003-04-18T19:03:48Z</time>
      </trkpt>
      <trkpt lat="32.844277024269104" lon="-4.082716992124915">
        <ele>1066.0999999999999</ele>
        <time>2003-04-18T19:03:59Z</time>
      </trkpt>
      <trkpt lat="32.84448497928679" lon="-4.082777006551623">
        <ele>1065.9000000000001</ele>
        <time>2003-04-18T19:04:02Z</time>
      </trkpt>
      <trkpt lat="32.844737023115158" lon="-4.082852024585009">
        <ele>1065.3</ele>
        <time>2003-04-18T19:04:04Z</time>
      </trkpt>
      <trkpt lat="32.845617961138487" lon="-4.083117982372642">
        <ele>1063.5999999999999</ele>
        <time>2003-04-18T19:04:15Z</time>
      </trkpt>
      <trkpt lat="32.846522033214569" lon="-4.0833929926157">
        <ele>1062.0999999999999</ele>
        <time>2003-04-18T19:04:26Z</time>
      </trkpt>
      <trkpt lat="32.84661297686398" lon="-4.083417970687151">
        <ele>1061.8</ele>
        <time>2003-04-18T19:04:30Z</time>
      </trkpt>
      <trkpt lat="32.84678203985095" lon="-4.083447977900505">
        <ele>1061.4000000000001</ele>
        <time>2003-04-18T19:04:41Z</time>
      </trkpt>
      <trkpt lat="32.846883041784167" lon="-4.083442026749253">
        <ele>1060.5</ele>
        <time>2003-04-18T19:04:46Z</time>
      </trkpt>
      <trkpt lat="32.846980020403862" lon="-4.083421994000673">
        <ele>1060.5</ele>
        <time>2003-04-18T19:04:49Z</time>
      </trkpt>
      <trkpt lat="32.847087979316711" lon="-4.083428028970957">
        <ele>1059.7</ele>
        <time>2003-04-18T19:04:53Z</time>
      </trkpt>
      <trkpt lat="32.847270034253597" lon="-4.083474967628717">
        <ele>1059.5</ele>
        <time>2003-04-18T19:04:57Z</time>
      </trkpt>
      <trkpt lat="32.847446976229548" lon="-4.083507992327213">
        <ele>1059.2</ele>
        <time>2003-04-18T19:05:00Z</time>
      </trkpt>
      <trkpt lat="32.847583014518023" lon="-4.083497012034059">
        <ele>1059</ele>
        <time>2003-04-18T19:05:01Z</time>
      </trkpt>
      <trkpt lat="32.847737995907664" lon="-4.083470022305846">
        <ele>1059.2</ele>
        <time>2003-04-18T19:05:05Z</time>
      </trkpt>
      <trkpt lat="32.847862970083952" lon="-4.083489971235395">
        <ele>1058.8</ele>
        <time>2003-04-18T19:05:06Z</time>
      </trkpt>
      <trkpt lat="32.848612982779741" lon="-4.083692980930209">
        <ele>1055.8</ele>
        <time>2003-04-18T19:05:19Z</time>
      </trkpt>
      <trkpt lat="32.848925041034818" lon="-4.083798006176949">
        <ele>1055.5999999999999</ele>
        <time>2003-04-18T19:05:23Z</time>
      </trkpt>
      <trkpt lat="32.849317984655499" lon="-4.083964973688126">
        <ele>1055.9000000000001</ele>
        <time>2003-04-18T19:05:28Z</time>
      </trkpt>
      <trkpt lat="32.849592994898558" lon="-4.084143005311489">
        <ele>1053.7</ele>
        <time>2003-04-18T19:05:31Z</time>
      </trkpt>
      <trkpt lat="32.849774966016412" lon="-4.084232021123171">
        <ele>1053.5</ele>
        <time>2003-04-18T19:05:32Z</time>
      </trkpt>
      <trkpt lat="32.850047964602709" lon="-4.084307961165905">
        <ele>1053.4000000000001</ele>
        <time>2003-04-18T19:05:36Z</time>
      </trkpt>
      <trkpt lat="32.850198000669479" lon="-4.084351966157556">
        <ele>1053.2</ele>
        <time>2003-04-18T19:05:38Z</time>
      </trkpt>
      <trkpt lat="32.850320041179657" lon="-4.084377028048039">
        <ele>1053.2</ele>
        <time>2003-04-18T19:05:40Z</time>
      </trkpt>
      <trkpt lat="32.850441997870803" lon="-4.08438197337091">
        <ele>1053.2</ele>
        <time>2003-04-18T19:05:42Z</time>
      </trkpt>
      <trkpt lat="32.850550040602684" lon="-4.084409968927503">
        <ele>1053</ele>
        <time>2003-04-18T19:05:43Z</time>
      </trkpt>
      <trkpt lat="32.850708039477468" lon="-4.08448800444603">
        <ele>1052.2</ele>
        <time>2003-04-18T19:05:47Z</time>
      </trkpt>
      <trkpt lat="32.850817004218698" lon="-4.084537038579583">
        <ele>1051.5999999999999</ele>
        <time>2003-04-18T19:05:50Z</time>
      </trkpt>
      <trkpt lat="32.85120802000165" lon="-4.0846829675138">
        <ele>1051.5</ele>
        <time>2003-04-18T19:05:59Z</time>
      </trkpt>
      <trkpt lat="32.851372975856066" lon="-4.084782963618636">
        <ele>1051.9000000000001</ele>
        <time>2003-04-18T19:06:03Z</time>
      </trkpt>
      <trkpt lat="32.851478001102805" lon="-4.084878014400601">
        <ele>1051.9000000000001</ele>
        <time>2003-04-18T19:06:05Z</time>
      </trkpt>
      <trkpt lat="32.851787963882089" lon="-4.085114970803261">
        <ele>1051.5999999999999</ele>
        <time>2003-04-18T19:06:10Z</time>
      </trkpt>
      <trkpt lat="32.851937999948859" lon="-4.085174985229969">
        <ele>1051.0999999999999</ele>
        <time>2003-04-18T19:06:11Z</time>
      </trkpt>
      <trkpt lat="32.852287022396922" lon="-4.085250003263354">
        <ele>1049.3</ele>
        <time>2003-04-18T19:06:15Z</time>
      </trkpt>
      <trkpt lat="32.852705027908087" lon="-4.085342036560178">
        <ele>1048.4000000000001</ele>
        <time>2003-04-18T19:06:19Z</time>
      </trkpt>
      <trkpt lat="32.853670036420226" lon="-4.085576981306076">
        <ele>1048.7</ele>
        <time>2003-04-18T19:06:29Z</time>
      </trkpt>
      <trkpt lat="32.853942029178143" lon="-4.085634984076023">
        <ele>1048.7</ele>
        <time>2003-04-18T19:06:32Z</time>
      </trkpt>
      <trkpt lat="32.854113020002842" lon="-4.085615035146475">
        <ele>1048.2</ele>
        <time>2003-04-18T19:06:34Z</time>
      </trkpt>
      <trkpt lat="32.854415019974113" lon="-4.085521996021271">
        <ele>1046.3</ele>
        <time>2003-04-18T19:06:37Z</time>
      </trkpt>
      <trkpt lat="32.855152040719986" lon="-4.085293002426624">
        <ele>1043.0999999999999</ele>
        <time>2003-04-18T19:06:45Z</time>
      </trkpt>
      <trkpt lat="32.856013029813766" lon="-4.08498496748507">
        <ele>1041</ele>
        <time>2003-04-18T19:06:54Z</time>
      </trkpt>
      <trkpt lat="32.856747033074498" lon="-4.084727978333831">
        <ele>1039</ele>
        <time>2003-04-18T19:07:03Z</time>
      </trkpt>
      <trkpt lat="32.857090020552278" lon="-4.08463703468442">
        <ele>1038.5999999999999</ele>
        <time>2003-04-18T19:07:07Z</time>
      </trkpt>
      <trkpt lat="32.857405012473464" lon="-4.084537960588932">
        <ele>1038.5999999999999</ele>
        <time>2003-04-18T19:07:12Z</time>
      </trkpt>
      <trkpt lat="32.857541972771287" lon="-4.084486998617649">
        <ele>1038.0999999999999</ele>
        <time>2003-04-18T19:07:15Z</time>
      </trkpt>
      <trkpt lat="32.857737019658089" lon="-4.08442203886807">
        <ele>1038</ele>
        <time>2003-04-18T19:07:17Z</time>
      </trkpt>
      <trkpt lat="32.857972970232368" lon="-4.084345009177923">
        <ele>1037.5</ele>
        <time>2003-04-18T19:07:20Z</time>
      </trkpt>
      <trkpt lat="32.858383012935519" lon="-4.08418801613152">
        <ele>1037.0999999999999</ele>
        <time>2003-04-18T19:07:27Z</time>
      </trkpt>
      <trkpt lat="32.858566995710135" lon="-4.084141999483109">
        <ele>1036.5</ele>
        <time>2003-04-18T19:07:30Z</time>
      </trkpt>
      <trkpt lat="32.858730023726821" lon="-4.084094977006316">
        <ele>1036.4000000000001</ele>
        <time>2003-04-18T19:07:32Z</time>
      </trkpt>
      <trkpt lat="32.858819961547852" lon="-4.084073016420007">
        <ele>1036</ele>
        <time>2003-04-18T19:07:35Z</time>
      </trkpt>
      <trkpt lat="32.858952982351184" lon="-4.084057006984949">
        <ele>1035.8</ele>
        <time>2003-04-18T19:07:39Z</time>
      </trkpt>
      <trkpt lat="32.859075022861362" lon="-4.084013001993299">
        <ele>1035.7</ele>
        <time>2003-04-18T19:07:42Z</time>
      </trkpt>
      <trkpt lat="32.85928700119257" lon="-4.083937983959913">
        <ele>1036</ele>
        <time>2003-04-18T19:07:47Z</time>
      </trkpt>
      <trkpt lat="32.859408035874367" lon="-4.083892973139882">
        <ele>1036.3</ele>
        <time>2003-04-18T19:07:48Z</time>
      </trkpt>
      <trkpt lat="32.859578020870686" lon="-4.083809992298484">
        <ele>1036.5999999999999</ele>
        <time>2003-04-18T19:07:51Z</time>
      </trkpt>
      <trkpt lat="32.859682962298393" lon="-4.083691975101829">
        <ele>1036.4000000000001</ele>
        <time>2003-04-18T19:07:54Z</time>
      </trkpt>
      <trkpt lat="32.85982302390039" lon="-4.083558032289147">
        <ele>1036.4000000000001</ele>
        <time>2003-04-18T19:07:55Z</time>
      </trkpt>
      <trkpt lat="32.859998038038611" lon="-4.083417970687151">
        <ele>1036.4000000000001</ele>
        <time>2003-04-18T19:07:58Z</time>
      </trkpt>
      <trkpt lat="32.860606983304024" lon="-4.08294003456831">
        <ele>1035.5</ele>
        <time>2003-04-18T19:08:05Z</time>
      </trkpt>
      <trkpt lat="32.860788032412529" lon="-4.082872979342938">
        <ele>1035</ele>
        <time>2003-04-18T19:08:06Z</time>
      </trkpt>
      <trkpt lat="32.861054996028543" lon="-4.08281497657299">
        <ele>1034.4000000000001</ele>
        <time>2003-04-18T19:08:10Z</time>
      </trkpt>
      <trkpt lat="32.861335035413504" lon="-4.082805002108216">
        <ele>1034.2</ele>
        <time>2003-04-18T19:08:13Z</time>
      </trkpt>
      <trkpt lat="32.862342037260532" lon="-4.082871973514557">
        <ele>1033.4000000000001</ele>
        <time>2003-04-18T19:08:22Z</time>
      </trkpt>
      <trkpt lat="32.862455025315285" lon="-4.082871973514557">
        <ele>1033.3</ele>
        <time>2003-04-18T19:08:24Z</time>
      </trkpt>
      <trkpt lat="32.862817039713264" lon="-4.082874990999699">
        <ele>1032.8</ele>
        <time>2003-04-18T19:08:26Z</time>
      </trkpt>
      <trkpt lat="32.862942013889551" lon="-4.082874990999699">
        <ele>1032.8</ele>
        <time>2003-04-18T19:08:28Z</time>
      </trkpt>
      <trkpt lat="32.863844996318221" lon="-4.082783041521907">
        <ele>1031.4000000000001</ele>
        <time>2003-04-18T19:08:34Z</time>
      </trkpt>
      <trkpt lat="32.864169962704182" lon="-4.082652032375336">
        <ele>1030.2</ele>
        <time>2003-04-18T19:08:37Z</time>
      </trkpt>
      <trkpt lat="32.865091972053051" lon="-4.082226986065507">
        <ele>1029</ele>
        <time>2003-04-18T19:08:45Z</time>
      </trkpt>
      <trkpt lat="32.865527998656034" lon="-4.082066975533962">
        <ele>1028.4000000000001</ele>
        <time>2003-04-18T19:08:49Z</time>
      </trkpt>
      <trkpt lat="32.866497030481696" lon="-4.081926997750998">
        <ele>1025.2</ele>
        <time>2003-04-18T19:08:59Z</time>
      </trkpt>
      <trkpt lat="32.867303034290671" lon="-4.081896990537643">
        <ele>1023.5</ele>
        <time>2003-04-18T19:09:07Z</time>
      </trkpt>
      <trkpt lat="32.867562035098672" lon="-4.081864971667528">
        <ele>1023.1</ele>
        <time>2003-04-18T19:09:09Z</time>
      </trkpt>
      <trkpt lat="32.867684997618198" lon="-4.081813003867865">
        <ele>1023.1</ele>
        <time>2003-04-18T19:09:12Z</time>
      </trkpt>
      <trkpt lat="32.867777030915022" lon="-4.081757012754679">
        <ele>1022.9</ele>
        <time>2003-04-18T19:09:14Z</time>
      </trkpt>
      <trkpt lat="32.867851965129375" lon="-4.081655004993081">
        <ele>1022.8</ele>
        <time>2003-04-18T19:09:16Z</time>
      </trkpt>
      <trkpt lat="32.867960007861257" lon="-4.081547968089581">
        <ele>1022.7</ele>
        <time>2003-04-18T19:09:18Z</time>
      </trkpt>
      <trkpt lat="32.86805204115808" lon="-4.081398015841842">
        <ele>1022.4</ele>
        <time>2003-04-18T19:09:19Z</time>
      </trkpt>
      <trkpt lat="32.868077019229531" lon="-4.081215038895607">
        <ele>1022.5</ele>
        <time>2003-04-18T19:09:22Z</time>
      </trkpt>
      <trkpt lat="32.868132004514337" lon="-4.081013035029173">
        <ele>1022.6</ele>
        <time>2003-04-18T19:09:23Z</time>
      </trkpt>
      <trkpt lat="32.868256978690624" lon="-4.080541972070932">
        <ele>1023.1</ele>
        <time>2003-04-18T19:09:27Z</time>
      </trkpt>
      <trkpt lat="32.868557972833514" lon="-4.079445032402873">
        <ele>1021.4</ele>
        <time>2003-04-18T19:09:36Z</time>
      </trkpt>
      <trkpt lat="32.868852009996772" lon="-4.078337028622627">
        <ele>1021.7</ele>
        <time>2003-04-18T19:09:46Z</time>
      </trkpt>
      <trkpt lat="32.869117967784405" lon="-4.077287027612329">
        <ele>1021.4</ele>
        <time>2003-04-18T19:09:54Z</time>
      </trkpt>
      <trkpt lat="32.869409993290901" lon="-4.07619796693325">
        <ele>1020.6</ele>
        <time>2003-04-18T19:10:02Z</time>
      </trkpt>
      <trkpt lat="32.869677962735295" lon="-4.07516498118639">
        <ele>1019.2</ele>
        <time>2003-04-18T19:10:10Z</time>
      </trkpt>
      <trkpt lat="32.869726996868849" lon="-4.074985021725297">
        <ele>1019.6</ele>
        <time>2003-04-18T19:10:12Z</time>
      </trkpt>
      <trkpt lat="32.869763039052486" lon="-4.074859963729978">
        <ele>1018.5</ele>
        <time>2003-04-18T19:10:13Z</time>
      </trkpt>
      <trkpt lat="32.869792962446809" lon="-4.074728032574058">
        <ele>1018.1</ele>
        <time>2003-04-18T19:10:17Z</time>
      </trkpt>
      <trkpt lat="32.869811989367008" lon="-4.074601968750358">
        <ele>1018.5</ele>
        <time>2003-04-18T19:10:20Z</time>
      </trkpt>
      <trkpt lat="32.869830010458827" lon="-4.074493004009128">
        <ele>1018.1</ele>
        <time>2003-04-18T19:10:21Z</time>
      </trkpt>
      <trkpt lat="32.869881978258491" lon="-4.074378004297614">
        <ele>1018.5</ele>
        <time>2003-04-18T19:10:24Z</time>
      </trkpt>
      <trkpt lat="32.869956996291876" lon="-4.074137024581432">
        <ele>1018.5</ele>
        <time>2003-04-18T19:10:26Z</time>
      </trkpt>
      <trkpt lat="32.870014999061823" lon="-4.073914987966418">
        <ele>1018.5</ele>
        <time>2003-04-18T19:10:29Z</time>
      </trkpt>
      <trkpt lat="32.870220020413399" lon="-4.073055004701018">
        <ele>1018.8</ele>
        <time>2003-04-18T19:10:37Z</time>
      </trkpt>
      <trkpt lat="32.87026503123343" lon="-4.0728850197047">
        <ele>1018.9</ele>
        <time>2003-04-18T19:10:40Z</time>
      </trkpt>
      <trkpt lat="32.870318004861474" lon="-4.07271696254611">
        <ele>1019.1</ele>
        <time>2003-04-18T19:10:41Z</time>
      </trkpt>
      <trkpt lat="32.87039696238935" lon="-4.072417980059981">
        <ele>1019.7</ele>
        <time>2003-04-18T19:10:44Z</time>
      </trkpt>
      <trkpt lat="32.870646994560957" lon="-4.071442997083068">
        <ele>1017.8</ele>
        <time>2003-04-18T19:10:53Z</time>
      </trkpt>
      <trkpt lat="32.870757970958948" lon="-4.071037983521819">
        <ele>1017.8</ele>
        <time>2003-04-18T19:10:57Z</time>
      </trkpt>
      <trkpt lat="32.870787978172302" lon="-4.070885013788939">
        <ele>1017.8</ele>
        <time>2003-04-18T19:11:00Z</time>
      </trkpt>
      <trkpt lat="32.870810022577643" lon="-4.070702036842704">
        <ele>1017.6</ele>
        <time>2003-04-18T19:11:03Z</time>
      </trkpt>
      <trkpt lat="32.870871964842081" lon="-4.07056700438261">
        <ele>1016.8</ele>
        <time>2003-04-18T19:11:07Z</time>
      </trkpt>
      <trkpt lat="32.870897026732564" lon="-4.07043700106442">
        <ele>1015.7</ele>
        <time>2003-04-18T19:11:08Z</time>
      </trkpt>
      <trkpt lat="32.870957963168621" lon="-4.070228040218353">
        <ele>1017.2</ele>
        <time>2003-04-18T19:11:11Z</time>
      </trkpt>
      <trkpt lat="32.871006997302175" lon="-4.07007004134357">
        <ele>1017.4</ele>
        <time>2003-04-18T19:11:14Z</time>
      </trkpt>
      <trkpt lat="32.871077992022038" lon="-4.069748008623719">
        <ele>1017.7</ele>
        <time>2003-04-18T19:11:18Z</time>
      </trkpt>
      <trkpt lat="32.871106993407011" lon="-4.069596966728568">
        <ele>1017.8</ele>
        <time>2003-04-18T19:11:19Z</time>
      </trkpt>
      <trkpt lat="32.871216963976622" lon="-4.069251967594028">
        <ele>1018</ele>
        <time>2003-04-18T19:11:23Z</time>
      </trkpt>
      <trkpt lat="32.871264992281795" lon="-4.069067984819412">
        <ele>1018.3</ele>
        <time>2003-04-18T19:11:26Z</time>
      </trkpt>
      <trkpt lat="32.871334981173277" lon="-4.068858018144965">
        <ele>1017.5</ele>
        <time>2003-04-18T19:11:29Z</time>
      </trkpt>
      <trkpt lat="32.871359959244728" lon="-4.068737989291549">
        <ele>1017.2</ele>
        <time>2003-04-18T19:11:31Z</time>
      </trkpt>
      <trkpt lat="32.87138300947845" lon="-4.068519975990057">
        <ele>1017.2</ele>
        <time>2003-04-18T19:11:34Z</time>
      </trkpt>
      <trkpt lat="32.871460039168596" lon="-4.068282013759017">
        <ele>1017.4</ele>
        <time>2003-04-18T19:11:38Z</time>
      </trkpt>
      <trkpt lat="32.871489962562919" lon="-4.068097025156021">
        <ele>1017.4</ele>
        <time>2003-04-18T19:11:42Z</time>
      </trkpt>
      <trkpt lat="32.871528016403317" lon="-4.067997029051185">
        <ele>1016.7</ele>
        <time>2003-04-18T19:11:46Z</time>
      </trkpt>
      <trkpt lat="32.871567998081446" lon="-4.067886974662542">
        <ele>1017.5</ele>
        <time>2003-04-18T19:11:47Z</time>
      </trkpt>
      <trkpt lat="32.87161803804338" lon="-4.067726964130998">
        <ele>1017.5</ele>
        <time>2003-04-18T19:11:50Z</time>
      </trkpt>
      <trkpt lat="32.871673023328185" lon="-4.067522026598454">
        <ele>1017.3</ele>
        <time>2003-04-18T19:11:51Z</time>
      </trkpt>
      <trkpt lat="32.871957002207637" lon="-4.066466996446252">
        <ele>1018.7</ele>
        <time>2003-04-18T19:12:01Z</time>
      </trkpt>
      <trkpt lat="32.872212985530496" lon="-4.065329991281033">
        <ele>1018.5</ele>
        <time>2003-04-18T19:12:13Z</time>
      </trkpt>
      <trkpt lat="32.872456982731819" lon="-4.064287031069398">
        <ele>1018.9</ele>
        <time>2003-04-18T19:12:21Z</time>
      </trkpt>
      <trkpt lat="32.872580029070377" lon="-4.064019983634353">
        <ele>1018.6</ele>
        <time>2003-04-18T19:12:25Z</time>
      </trkpt>
      <trkpt lat="32.872774992138147" lon="-4.063631985336542">
        <ele>1017.7</ele>
        <time>2003-04-18T19:12:29Z</time>
      </trkpt>
      <trkpt lat="32.872829977422953" lon="-4.063484966754913">
        <ele>1017.7</ele>
        <time>2003-04-18T19:12:32Z</time>
      </trkpt>
      <trkpt lat="32.872919999063015" lon="-4.063380025327206">
        <ele>1017.3</ele>
        <time>2003-04-18T19:12:35Z</time>
      </trkpt>
      <trkpt lat="32.872982025146484" lon="-4.063222026452422">
        <ele>1017.8</ele>
        <time>2003-04-18T19:12:36Z</time>
      </trkpt>
      <trkpt lat="32.873057965189219" lon="-4.063037959858775">
        <ele>1017.6</ele>
        <time>2003-04-18T19:12:39Z</time>
      </trkpt>
      <trkpt lat="32.873204983770847" lon="-4.062718022614718">
        <ele>1017.3</ele>
        <time>2003-04-18T19:12:41Z</time>
      </trkpt>
      <trkpt lat="32.873343033716083" lon="-4.062376962974668">
        <ele>1018.4</ele>
        <time>2003-04-18T19:12:44Z</time>
      </trkpt>
      <trkpt lat="32.87381200119853" lon="-4.061425030231476">
        <ele>1022</ele>
        <time>2003-04-18T19:12:52Z</time>
      </trkpt>
      <trkpt lat="32.874015010893345" lon="-4.061042983084917">
        <ele>1021.3</ele>
        <time>2003-04-18T19:12:55Z</time>
      </trkpt>
      <trkpt lat="32.874207040295005" lon="-4.060648027807474">
        <ele>1019</ele>
        <time>2003-04-18T19:12:59Z</time>
      </trkpt>
      <trkpt lat="32.874354980885983" lon="-4.060391960665584">
        <ele>1018.2</ele>
        <time>2003-04-18T19:13:00Z</time>
      </trkpt>
      <trkpt lat="32.874622028321028" lon="-4.0599300339818">
        <ele>1016.4</ele>
        <time>2003-04-18T19:13:04Z</time>
      </trkpt>
      <trkpt lat="32.875113040208817" lon="-4.059023028239608">
        <ele>1018.9</ele>
        <time>2003-04-18T19:13:12Z</time>
      </trkpt>
      <trkpt lat="32.87533700466156" lon="-4.058473007753491">
        <ele>1017.5</ele>
        <time>2003-04-18T19:13:18Z</time>
      </trkpt>
      <trkpt lat="32.875374974682927" lon="-4.058320038020611">
        <ele>1016.7</ele>
        <time>2003-04-18T19:13:19Z</time>
      </trkpt>
      <trkpt lat="32.875453010201454" lon="-4.058009991422296">
        <ele>1014.6</ele>
        <time>2003-04-18T19:13:23Z</time>
      </trkpt>
      <trkpt lat="32.875415040180087" lon="-4.057862972840667">
        <ele>1013.4</ele>
        <time>2003-04-18T19:13:46Z</time>
      </trkpt>
      <trkpt lat="32.875395007431507" lon="-4.057706985622644">
        <ele>1012</ele>
        <time>2003-04-18T19:13:49Z</time>
      </trkpt>
      <trkpt lat="32.87535997107625" lon="-4.05756801366806">
        <ele>1010.7</ele>
        <time>2003-04-18T19:13:53Z</time>
      </trkpt>
      <trkpt lat="32.875347984954715" lon="-4.057449996471405">
        <ele>1011.5</ele>
        <time>2003-04-18T19:13:57Z</time>
      </trkpt>
      <trkpt lat="32.87535997107625" lon="-4.057316975668073">
        <ele>1011.9</ele>
        <time>2003-04-18T19:13:58Z</time>
      </trkpt>
      <trkpt lat="32.875372041016817" lon="-4.057156965136528">
        <ele>1011.8</ele>
        <time>2003-04-18T19:14:01Z</time>
      </trkpt>
      <trkpt lat="32.875415040180087" lon="-4.056775001809001">
        <ele>1013.3</ele>
        <time>2003-04-18T19:14:05Z</time>
      </trkpt>
      <trkpt lat="32.875447981059551" lon="-4.056652961298823">
        <ele>1013.8</ele>
        <time>2003-04-18T19:14:09Z</time>
      </trkpt>
      <trkpt lat="32.875462984666228" lon="-4.056462021544576">
        <ele>1014.6</ele>
        <time>2003-04-18T19:14:43Z</time>
      </trkpt>
      <trkpt lat="32.875491986051202" lon="-4.056321959942579">
        <ele>1014.5</ele>
        <time>2003-04-18T19:14:44Z</time>
      </trkpt>
      <trkpt lat="32.875515036284924" lon="-4.05617200769484">
        <ele>1014.7</ele>
        <time>2003-04-18T19:14:47Z</time>
      </trkpt>
      <trkpt lat="32.875538002699614" lon="-4.055977966636419">
        <ele>1015.1</ele>
        <time>2003-04-18T19:14:48Z</time>
      </trkpt>
      <trkpt lat="32.875602040439844" lon="-4.055487960577011">
        <ele>1019.1</ele>
        <time>2003-04-18T19:14:55Z</time>
      </trkpt>
      <trkpt lat="32.875640010461211" lon="-4.055327028036118">
        <ele>1019.6</ele>
        <time>2003-04-18T19:14:59Z</time>
      </trkpt>
      <trkpt lat="32.875694995746017" lon="-4.055157965049148">
        <ele>1019.4</ele>
        <time>2003-04-18T19:15:00Z</time>
      </trkpt>
      <trkpt lat="32.876017028465867" lon="-4.054118022322655">
        <ele>1018.1</ele>
        <time>2003-04-18T19:15:13Z</time>
      </trkpt>
      <trkpt lat="32.876305030658841" lon="-4.053202969953418">
        <ele>1021.1</ele>
        <time>2003-04-18T19:15:26Z</time>
      </trkpt>
      <trkpt lat="32.876569982618093" lon="-4.052533004432917">
        <ele>1022.2</ele>
        <time>2003-04-18T19:15:37Z</time>
      </trkpt>
      <trkpt lat="32.876665033400059" lon="-4.052248019725084">
        <ele>1022.5</ele>
        <time>2003-04-18T19:15:44Z</time>
      </trkpt>
      <trkpt lat="32.876724964007735" lon="-4.051978038623929">
        <ele>1022.5</ele>
        <time>2003-04-18T19:15:48Z</time>
      </trkpt>
      <trkpt lat="32.876756982877851" lon="-4.051797995343804">
        <ele>1023.5</ele>
        <time>2003-04-18T19:15:50Z</time>
      </trkpt>
      <trkpt lat="32.876805011183023" lon="-4.051696993410587">
        <ele>1023.6</ele>
        <time>2003-04-18T19:15:53Z</time>
      </trkpt>
      <trkpt lat="32.876895032823086" lon="-4.051503036171198">
        <ele>1024</ele>
        <time>2003-04-18T19:15:56Z</time>
      </trkpt>
      <trkpt lat="32.876944988965988" lon="-4.051347970962524">
        <ele>1024.2</ele>
        <time>2003-04-18T19:15:57Z</time>
      </trkpt>
      <trkpt lat="32.876972984522581" lon="-4.051234982907772">
        <ele>1024.2</ele>
        <time>2003-04-18T19:16:00Z</time>
      </trkpt>
      <trkpt lat="32.877002991735935" lon="-4.05112199485302">
        <ele>1024.4000000000001</ele>
        <time>2003-04-18T19:16:03Z</time>
      </trkpt>
      <trkpt lat="32.877020006999373" lon="-4.050983022898436">
        <ele>1024.4000000000001</ele>
        <time>2003-04-18T19:16:08Z</time>
      </trkpt>
      <trkpt lat="32.877026963979006" lon="-4.050847990438342">
        <ele>1023.7</ele>
        <time>2003-04-18T19:16:13Z</time>
      </trkpt>
      <trkpt lat="32.877037022262812" lon="-4.050707006826997">
        <ele>1022.6</ele>
        <time>2003-04-18T19:16:23Z</time>
      </trkpt>
      <trkpt lat="32.87709703668952" lon="-4.050569962710142">
        <ele>1023</ele>
        <time>2003-04-18T19:16:26Z</time>
      </trkpt>
      <trkpt lat="32.877159984782338" lon="-4.050357984378934">
        <ele>1022.9</ele>
        <time>2003-04-18T19:16:28Z</time>
      </trkpt>
      <trkpt lat="32.877193009480834" lon="-4.05015698634088">
        <ele>1023.1</ele>
        <time>2003-04-18T19:16:31Z</time>
      </trkpt>
      <trkpt lat="32.877242965623736" lon="-4.04981198720634">
        <ele>1024.2</ele>
        <time>2003-04-18T19:16:34Z</time>
      </trkpt>
      <trkpt lat="32.877342039719224" lon="-4.049351988360286">
        <ele>1026.0999999999999</ele>
        <time>2003-04-18T19:16:38Z</time>
      </trkpt>
      <trkpt lat="32.877572039142251" lon="-4.048231998458505">
        <ele>1025.4000000000001</ele>
        <time>2003-04-18T19:16:47Z</time>
      </trkpt>
      <trkpt lat="32.877612020820379" lon="-4.048020020127296">
        <ele>1025.4000000000001</ele>
        <time>2003-04-18T19:16:50Z</time>
      </trkpt>
      <trkpt lat="32.877653008326888" lon="-4.047842994332314">
        <ele>1024.9000000000001</ele>
        <time>2003-04-18T19:16:51Z</time>
      </trkpt>
      <trkpt lat="32.877855012193322" lon="-4.047000026330352">
        <ele>1026.2</ele>
        <time>2003-04-18T19:17:02Z</time>
      </trkpt>
      <trkpt lat="32.877861969172955" lon="-4.046840015798807">
        <ele>1026.0999999999999</ele>
        <time>2003-04-18T19:17:03Z</time>
      </trkpt>
      <trkpt lat="32.877836991101503" lon="-4.046719986945391">
        <ele>1026.3</ele>
        <time>2003-04-18T19:17:06Z</time>
      </trkpt>
      <trkpt lat="32.877925001084805" lon="-4.046519994735718">
        <ele>1025.3</ele>
        <time>2003-04-18T19:17:17Z</time>
      </trkpt>
      <trkpt lat="32.87797998636961" lon="-4.046414969488978">
        <ele>1026.2</ele>
        <time>2003-04-18T19:17:18Z</time>
      </trkpt>
      <trkpt lat="32.878028014674783" lon="-4.046268034726381">
        <ele>1026.7</ele>
        <time>2003-04-18T19:17:21Z</time>
      </trkpt>
      <trkpt lat="32.878030026331544" lon="-4.046102995052934">
        <ele>1025.9000000000001</ele>
        <time>2003-04-18T19:17:22Z</time>
      </trkpt>
      <trkpt lat="32.877943022176623" lon="-4.045962011441588">
        <ele>1027.8</ele>
        <time>2003-04-18T19:17:25Z</time>
      </trkpt>
      <trkpt lat="32.877862975001335" lon="-4.04583502560854">
        <ele>1027.7</ele>
        <time>2003-04-18T19:17:26Z</time>
      </trkpt>
      <trkpt lat="32.87787202745676" lon="-4.045712985098362">
        <ele>1027.5999999999999</ele>
        <time>2003-04-18T19:17:29Z</time>
      </trkpt>
      <trkpt lat="32.877940004691482" lon="-4.045627992600203">
        <ele>1027.7</ele>
        <time>2003-04-18T19:17:30Z</time>
      </trkpt>
      <trkpt lat="32.878045029938221" lon="-4.045560015365481">
        <ele>1028</ele>
        <time>2003-04-18T19:17:37Z</time>
      </trkpt>
      <trkpt lat="32.878121975809336" lon="-4.045482985675335">
        <ele>1028</ele>
        <time>2003-04-18T19:17:38Z</time>
      </trkpt>
      <trkpt lat="32.878190036863089" lon="-4.045366980135441">
        <ele>1028.2</ele>
        <time>2003-04-18T19:17:41Z</time>
      </trkpt>
      <trkpt lat="32.878326997160912" lon="-4.045083001255989">
        <ele>1028.5</ele>
        <time>2003-04-18T19:17:45Z</time>
      </trkpt>
      <trkpt lat="32.878377959132195" lon="-4.044902035966516">
        <ele>1029.5</ele>
        <time>2003-04-18T19:17:47Z</time>
      </trkpt>
      <trkpt lat="32.878464963287115" lon="-4.044428039342165">
        <ele>1031.0999999999999</ele>
        <time>2003-04-18T19:17:52Z</time>
      </trkpt>
      <trkpt lat="32.878507040441036" lon="-4.044286971911788">
        <ele>1032</ele>
        <time>2003-04-18T19:17:55Z</time>
      </trkpt>
      <trkpt lat="32.878705020993948" lon="-4.043810041621327">
        <ele>1031.9000000000001</ele>
        <time>2003-04-18T19:18:00Z</time>
      </trkpt>
      <trkpt lat="32.878844998776913" lon="-4.043407961726189">
        <ele>1030.8</ele>
        <time>2003-04-18T19:18:04Z</time>
      </trkpt>
      <trkpt lat="32.878967961296439" lon="-4.04302298091352">
        <ele>1031.3</ele>
        <time>2003-04-18T19:18:08Z</time>
      </trkpt>
      <trkpt lat="32.879026969894767" lon="-4.042924996465445">
        <ele>1031.4000000000001</ele>
        <time>2003-04-18T19:18:11Z</time>
      </trkpt>
      <trkpt lat="32.879137024283409" lon="-4.042734978720546">
        <ele>1031.9000000000001</ele>
        <time>2003-04-18T19:18:14Z</time>
      </trkpt>
      <trkpt lat="32.879211958497763" lon="-4.04254999011755">
        <ele>1032.7</ele>
        <time>2003-04-18T19:18:16Z</time>
      </trkpt>
      <trkpt lat="32.879301980137825" lon="-4.042280009016395">
        <ele>1033.5</ele>
        <time>2003-04-18T19:18:19Z</time>
      </trkpt>
      <trkpt lat="32.879498032853007" lon="-4.041224978864193">
        <ele>1034.5</ele>
        <time>2003-04-18T19:18:30Z</time>
      </trkpt>
      <trkpt lat="32.879629964008927" lon="-4.040174977853894">
        <ele>1035.3</ele>
        <time>2003-04-18T19:18:42Z</time>
      </trkpt>
      <trkpt lat="32.879643039777875" lon="-4.040053021162748">
        <ele>1035.3</ele>
        <time>2003-04-18T19:18:45Z</time>
      </trkpt>
      <trkpt lat="32.8796779923141" lon="-4.039695030078292">
        <ele>1034.3</ele>
        <time>2003-04-18T19:18:54Z</time>
      </trkpt>
      <trkpt lat="32.879717973992229" lon="-4.039554968476296">
        <ele>1035.3</ele>
        <time>2003-04-18T19:18:57Z</time>
      </trkpt>
      <trkpt lat="32.879738006740808" lon="-4.039407027885318">
        <ele>1036.5</ele>
        <time>2003-04-18T19:18:58Z</time>
      </trkpt>
      <trkpt lat="32.879737000912428" lon="-4.039122965186834">
        <ele>1037</ele>
        <time>2003-04-18T19:19:02Z</time>
      </trkpt>
      <trkpt lat="32.879813024774194" lon="-4.038987010717392">
        <ele>1037.4000000000001</ele>
        <time>2003-04-18T19:19:06Z</time>
      </trkpt>
      <trkpt lat="32.879947973415256" lon="-4.038819959387183">
        <ele>1037.3</ele>
        <time>2003-04-18T19:19:10Z</time>
      </trkpt>
      <trkpt lat="32.880002036690712" lon="-4.038732033222914">
        <ele>1037.5</ele>
        <time>2003-04-18T19:19:12Z</time>
      </trkpt>
      <trkpt lat="32.880079988390207" lon="-4.038670007139444">
        <ele>1037.4000000000001</ele>
        <time>2003-04-18T19:19:13Z</time>
      </trkpt>
      <trkpt lat="32.880143020302057" lon="-4.038572022691369">
        <ele>1038.8</ele>
        <time>2003-04-18T19:19:16Z</time>
      </trkpt>
      <trkpt lat="32.880142014473677" lon="-4.038432966917753">
        <ele>1039.5</ele>
        <time>2003-04-18T19:19:17Z</time>
      </trkpt>
      <trkpt lat="32.880155006423593" lon="-4.038055026903749">
        <ele>1042.0999999999999</ele>
        <time>2003-04-18T19:19:24Z</time>
      </trkpt>
      <trkpt lat="32.880122987553477" lon="-4.037919994443655">
        <ele>1041.4000000000001</ele>
        <time>2003-04-18T19:19:26Z</time>
      </trkpt>
      <trkpt lat="32.880087029188871" lon="-4.037732994183898">
        <ele>1042.5</ele>
        <time>2003-04-18T19:19:29Z</time>
      </trkpt>
      <trkpt lat="32.880130028352141" lon="-4.037584969773889">
        <ele>1043.4000000000001</ele>
        <time>2003-04-18T19:19:32Z</time>
      </trkpt>
      <trkpt lat="32.880262965336442" lon="-4.037282969802618">
        <ele>1047.0999999999999</ele>
        <time>2003-04-18T19:19:36Z</time>
      </trkpt>
      <trkpt lat="32.880349969491363" lon="-4.03713502921164">
        <ele>1048.7</ele>
        <time>2003-04-18T19:19:37Z</time>
      </trkpt>
      <trkpt lat="32.880539987236261" lon="-4.036881979554892">
        <ele>1052.8</ele>
        <time>2003-04-18T19:19:41Z</time>
      </trkpt>
      <trkpt lat="32.880682982504368" lon="-4.036788018420339">
        <ele>1052.7</ele>
        <time>2003-04-18T19:19:44Z</time>
      </trkpt>
      <trkpt lat="32.880827989429235" lon="-4.03670797124505">
        <ele>1053.3</ele>
        <time>2003-04-18T19:19:45Z</time>
      </trkpt>
      <trkpt lat="32.880952041596174" lon="-4.036703025922179">
        <ele>1053.8</ele>
        <time>2003-04-18T19:19:48Z</time>
      </trkpt>
      <trkpt lat="32.881108028814197" lon="-4.036745019257069">
        <ele>1053.3</ele>
        <time>2003-04-18T19:19:49Z</time>
      </trkpt>
      <trkpt lat="32.881274996325374" lon="-4.036775026470423">
        <ele>1054.9000000000001</ele>
        <time>2003-04-18T19:19:52Z</time>
      </trkpt>
      <trkpt lat="32.881382033228874" lon="-4.03672800399363">
        <ele>1054.9000000000001</ele>
        <time>2003-04-18T19:19:53Z</time>
      </trkpt>
      <trkpt lat="32.881467025727034" lon="-4.036609986796975">
        <ele>1054.8</ele>
        <time>2003-04-18T19:19:56Z</time>
      </trkpt>
      <trkpt lat="32.881532991304994" lon="-4.036430027335882">
        <ele>1055.2</ele>
        <time>2003-04-18T19:19:57Z</time>
      </trkpt>
      <trkpt lat="32.881531985476613" lon="-4.036257024854422">
        <ele>1056.2</ele>
        <time>2003-04-18T19:20:00Z</time>
      </trkpt>
      <trkpt lat="32.881452022120357" lon="-4.036151999607682">
        <ele>1057.7</ele>
        <time>2003-04-18T19:20:02Z</time>
      </trkpt>
      <trkpt lat="32.881326964125037" lon="-4.036098020151258">
        <ele>1057.5999999999999</ele>
        <time>2003-04-18T19:20:04Z</time>
      </trkpt>
      <trkpt lat="32.88118296302855" lon="-4.036042029038072">
        <ele>1058.4000000000001</ele>
        <time>2003-04-18T19:20:06Z</time>
      </trkpt>
      <trkpt lat="32.881071986630559" lon="-4.035952007398009">
        <ele>1060.4000000000001</ele>
        <time>2003-04-18T19:20:07Z</time>
      </trkpt>
      <trkpt lat="32.880972996354103" lon="-4.035829966887832">
        <ele>1061.2</ele>
        <time>2003-04-18T19:20:10Z</time>
      </trkpt>
      <trkpt lat="32.880865037441254" lon="-4.035727037116885">
        <ele>1062</ele>
        <time>2003-04-18T19:20:11Z</time>
      </trkpt>
      <trkpt lat="32.880756994709373" lon="-4.035672973841429">
        <ele>1062.9000000000001</ele>
        <time>2003-04-18T19:20:14Z</time>
      </trkpt>
      <trkpt lat="32.880575023591518" lon="-4.035584963858128">
        <ele>1063.3</ele>
        <time>2003-04-18T19:20:16Z</time>
      </trkpt>
      <trkpt lat="32.880457006394863" lon="-4.035483039915562">
        <ele>1063.7</ele>
        <time>2003-04-18T19:20:19Z</time>
      </trkpt>
      <trkpt lat="32.880317028611898" lon="-4.03530802577734">
        <ele>1064.3</ele>
        <time>2003-04-18T19:20:22Z</time>
      </trkpt>
      <trkpt lat="32.880272017791867" lon="-4.035167964175344">
        <ele>1065</ele>
        <time>2003-04-18T19:20:23Z</time>
      </trkpt>
      <trkpt lat="32.880252990871668" lon="-4.03505296446383">
        <ele>1065.2</ele>
        <time>2003-04-18T19:20:26Z</time>
      </trkpt>
      <trkpt lat="32.880252990871668" lon="-4.034927990287542">
        <ele>1064.9000000000001</ele>
        <time>2003-04-18T19:20:27Z</time>
      </trkpt>
      <trkpt lat="32.880273023620248" lon="-4.034747024998069">
        <ele>1063.5</ele>
        <time>2003-04-18T19:20:30Z</time>
      </trkpt>
      <trkpt lat="32.880318034440279" lon="-4.034554995596409">
        <ele>1064.2</ele>
        <time>2003-04-18T19:20:31Z</time>
      </trkpt>
      <trkpt lat="32.880382994189858" lon="-4.03438501060009">
        <ele>1064.9000000000001</ele>
        <time>2003-04-18T19:20:34Z</time>
      </trkpt>
      <trkpt lat="32.880432028323412" lon="-4.034227011725307">
        <ele>1066.4000000000001</ele>
        <time>2003-04-18T19:20:35Z</time>
      </trkpt>
      <trkpt lat="32.880563037469983" lon="-4.033672967925668">
        <ele>1065.3</ele>
        <time>2003-04-18T19:20:42Z</time>
      </trkpt>
      <trkpt lat="32.880618022754788" lon="-4.033514969050884">
        <ele>1064.7</ele>
        <time>2003-04-18T19:20:43Z</time>
      </trkpt>
      <trkpt lat="32.880779961124063" lon="-4.03318002820015">
        <ele>1061.8</ele>
        <time>2003-04-18T19:20:47Z</time>
      </trkpt>
      <trkpt lat="32.880908036604524" lon="-4.032905017957091">
        <ele>1059.8</ele>
        <time>2003-04-18T19:20:50Z</time>
      </trkpt>
      <trkpt lat="32.881077015772462" lon="-4.032503021880984">
        <ele>1058.0999999999999</ele>
        <time>2003-04-18T19:20:56Z</time>
      </trkpt>
      <trkpt lat="32.881450010463595" lon="-4.031732976436615">
        <ele>1055.7</ele>
        <time>2003-04-18T19:21:05Z</time>
      </trkpt>
      <trkpt lat="32.881527040153742" lon="-4.031589981168509">
        <ele>1054.9000000000001</ele>
        <time>2003-04-18T19:21:08Z</time>
      </trkpt>
      <trkpt lat="32.881897017359734" lon="-4.030916998162866">
        <ele>1052.2</ele>
        <time>2003-04-18T19:21:17Z</time>
      </trkpt>
      <trkpt lat="32.882097009569407" lon="-4.030357003211975">
        <ele>1051.4000000000001</ele>
        <time>2003-04-18T19:21:24Z</time>
      </trkpt>
      <trkpt lat="32.882158029824495" lon="-4.030205039307475">
        <ele>1051.0999999999999</ele>
        <time>2003-04-18T19:21:25Z</time>
      </trkpt>
      <trkpt lat="32.882303036749363" lon="-4.029815029352903">
        <ele>1048.2</ele>
        <time>2003-04-18T19:21:31Z</time>
      </trkpt>
      <trkpt lat="32.882482996210456" lon="-4.029125031083822">
        <ele>1046.9000000000001</ele>
        <time>2003-04-18T19:21:40Z</time>
      </trkpt>
      <trkpt lat="32.882507974281907" lon="-4.029017994180322">
        <ele>1046.4000000000001</ele>
        <time>2003-04-18T19:21:43Z</time>
      </trkpt>
      <trkpt lat="32.882515015080571" lon="-4.028902994468808">
        <ele>1046.2</ele>
        <time>2003-04-18T19:21:48Z</time>
      </trkpt>
      <trkpt lat="32.882521972060204" lon="-4.028754970058799">
        <ele>1046.3</ele>
        <time>2003-04-18T19:21:52Z</time>
      </trkpt>
      <trkpt lat="32.882572012022138" lon="-4.028665032237768">
        <ele>1046.3</ele>
        <time>2003-04-18T19:21:54Z</time>
      </trkpt>
      <trkpt lat="32.882654992863536" lon="-4.028526982292533">
        <ele>1045.5</ele>
        <time>2003-04-18T19:21:56Z</time>
      </trkpt>
      <trkpt lat="32.882842998951674" lon="-4.028151975944638">
        <ele>1047.5999999999999</ele>
        <time>2003-04-18T19:22:03Z</time>
      </trkpt>
      <trkpt lat="32.882918016985059" lon="-4.027996994554997">
        <ele>1048.0999999999999</ele>
        <time>2003-04-18T19:22:06Z</time>
      </trkpt>
      <trkpt lat="32.882996974512935" lon="-4.027800019830465">
        <ele>1048.3</ele>
        <time>2003-04-18T19:22:08Z</time>
      </trkpt>
      <trkpt lat="32.883096970617771" lon="-4.02744697406888">
        <ele>1048.9000000000001</ele>
        <time>2003-04-18T19:22:11Z</time>
      </trkpt>
      <trkpt lat="32.883312972262502" lon="-4.02643502689898">
        <ele>1050</ele>
        <time>2003-04-18T19:22:19Z</time>
      </trkpt>
      <trkpt lat="32.88337298668921" lon="-4.02632798999548">
        <ele>1049.8</ele>
        <time>2003-04-18T19:22:19Z</time>
      </trkpt>
      <trkpt lat="32.883578008040786" lon="-4.026020038872957">
        <ele>1049.5999999999999</ele>
        <time>2003-04-18T19:22:22Z</time>
      </trkpt>
      <trkpt lat="32.883853018283844" lon="-4.025676967576146">
        <ele>1048.8</ele>
        <time>2003-04-18T19:22:26Z</time>
      </trkpt>
      <trkpt lat="32.883983021602035" lon="-4.025579988956451">
        <ele>1048</ele>
        <time>2003-04-18T19:22:29Z</time>
      </trkpt>
      <trkpt lat="32.884121993556619" lon="-4.025536989793181">
        <ele>1047.2</ele>
        <time>2003-04-18T19:22:30Z</time>
      </trkpt>
      <trkpt lat="32.884257026016712" lon="-4.025587029755116">
        <ele>1047</ele>
        <time>2003-04-18T19:22:33Z</time>
      </trkpt>
      <trkpt lat="32.88436003960669" lon="-4.025691971182823">
        <ele>1046.8</ele>
        <time>2003-04-18T19:22:34Z</time>
      </trkpt>
      <trkpt lat="32.884489959105849" lon="-4.025788027793169">
        <ele>1045</ele>
        <time>2003-04-18T19:22:37Z</time>
      </trkpt>
      <trkpt lat="32.884647035971284" lon="-4.025872014462948">
        <ele>1044.5</ele>
        <time>2003-04-18T19:22:38Z</time>
      </trkpt>
      <trkpt lat="32.885021958500147" lon="-4.025981985032558">
        <ele>1045.9000000000001</ele>
        <time>2003-04-18T19:22:42Z</time>
      </trkpt>
      <trkpt lat="32.885207030922174" lon="-4.026020038872957">
        <ele>1046.4000000000001</ele>
        <time>2003-04-18T19:22:45Z</time>
      </trkpt>
      <trkpt lat="32.885347008705139" lon="-4.026021966710687">
        <ele>1047.9000000000001</ele>
        <time>2003-04-18T19:22:46Z</time>
      </trkpt>
      <trkpt lat="32.885442981496453" lon="-4.026000006124377">
        <ele>1049.8</ele>
        <time>2003-04-18T19:22:49Z</time>
      </trkpt>
      <trkpt lat="32.885568039491773" lon="-4.025973016396165">
        <ele>1049.0999999999999</ele>
        <time>2003-04-18T19:22:53Z</time>
      </trkpt>
      <trkpt lat="32.885682033374906" lon="-4.025922976434231">
        <ele>1048.9000000000001</ele>
        <time>2003-04-18T19:22:54Z</time>
      </trkpt>
      <trkpt lat="32.885823016986251" lon="-4.025862962007523">
        <ele>1048.4000000000001</ele>
        <time>2003-04-18T19:22:57Z</time>
      </trkpt>
      <trkpt lat="32.885983027517796" lon="-4.025788027793169">
        <ele>1047.8</ele>
        <time>2003-04-18T19:23:00Z</time>
      </trkpt>
      <trkpt lat="32.886085035279393" lon="-4.025742011144757">
        <ele>1047.0999999999999</ele>
        <time>2003-04-18T19:23:04Z</time>
      </trkpt>
      <trkpt lat="32.886223001405597" lon="-4.025685014203191">
        <ele>1047.0999999999999</ele>
        <time>2003-04-18T19:23:06Z</time>
      </trkpt>
      <trkpt lat="32.88640296086669" lon="-4.025612007826567">
        <ele>1047.0999999999999</ele>
        <time>2003-04-18T19:23:09Z</time>
      </trkpt>
      <trkpt lat="32.886560037732124" lon="-4.025543024763465">
        <ele>1046.9000000000001</ele>
        <time>2003-04-18T19:23:12Z</time>
      </trkpt>
      <trkpt lat="32.887252969667315" lon="-4.025274971500039">
        <ele>1046.0999999999999</ele>
        <time>2003-04-18T19:23:20Z</time>
      </trkpt>
      <trkpt lat="32.888102978467941" lon="-4.024902982637286">
        <ele>1048.4000000000001</ele>
        <time>2003-04-18T19:23:29Z</time>
      </trkpt>
      <trkpt lat="32.888967990875244" lon="-4.024432003498077">
        <ele>1048.4000000000001</ele>
        <time>2003-04-18T19:23:40Z</time>
      </trkpt>
      <trkpt lat="32.88913001306355" lon="-4.024323038756847">
        <ele>1047.8</ele>
        <time>2003-04-18T19:23:43Z</time>
      </trkpt>
      <trkpt lat="32.889287006109953" lon="-4.024252966046333">
        <ele>1048.7</ele>
        <time>2003-04-18T19:23:44Z</time>
      </trkpt>
      <trkpt lat="32.889436958357692" lon="-4.024192029610276">
        <ele>1049</ele>
        <time>2003-04-18T19:23:47Z</time>
      </trkpt>
      <trkpt lat="32.889799978584051" lon="-4.023952977731824">
        <ele>1048.7</ele>
        <time>2003-04-18T19:23:51Z</time>
      </trkpt>
      <trkpt lat="32.889957977458835" lon="-4.023863039910793">
        <ele>1048.5999999999999</ele>
        <time>2003-04-18T19:23:54Z</time>
      </trkpt>
      <trkpt lat="32.890804968774319" lon="-4.023440005257726">
        <ele>1047.0999999999999</ele>
        <time>2003-04-18T19:24:03Z</time>
      </trkpt>
      <trkpt lat="32.89112800732255" lon="-4.023274965584278">
        <ele>1046.4000000000001</ele>
        <time>2003-04-18T19:24:07Z</time>
      </trkpt>
      <trkpt lat="32.891717003658414" lon="-4.022940024733543">
        <ele>1045.7</ele>
        <time>2003-04-18T19:24:13Z</time>
      </trkpt>
      <trkpt lat="32.892434997484088" lon="-4.0225899964571">
        <ele>1044.5999999999999</ele>
        <time>2003-04-18T19:24:21Z</time>
      </trkpt>
      <trkpt lat="32.892992980778217" lon="-4.022237034514546">
        <ele>1042.7</ele>
        <time>2003-04-18T19:24:29Z</time>
      </trkpt>
      <trkpt lat="32.893155002966523" lon="-4.022157993167639">
        <ele>1042.0999999999999</ele>
        <time>2003-04-18T19:24:32Z</time>
      </trkpt>
      <trkpt lat="32.893247958272696" lon="-4.022112982347608">
        <ele>1041.9000000000001</ele>
        <time>2003-04-18T19:24:36Z</time>
      </trkpt>
      <trkpt lat="32.893452979624271" lon="-4.022009968757629">
        <ele>1041.9000000000001</ele>
        <time>2003-04-18T19:24:46Z</time>
      </trkpt>
      <trkpt lat="32.893543001264334" lon="-4.021962024271488">
        <ele>1042</ele>
        <time>2003-04-18T19:24:49Z</time>
      </trkpt>
      <trkpt lat="32.893707035109401" lon="-4.021869990974665">
        <ele>1042.5999999999999</ele>
        <time>2003-04-18T19:24:52Z</time>
      </trkpt>
      <trkpt lat="32.89409302175045" lon="-4.021667987108231">
        <ele>1043</ele>
        <time>2003-04-18T19:24:57Z</time>
      </trkpt>
      <trkpt lat="32.894392004236579" lon="-4.021476963534951">
        <ele>1042</ele>
        <time>2003-04-18T19:25:01Z</time>
      </trkpt>
      <trkpt lat="32.895206976681948" lon="-4.021015036851168">
        <ele>1040.9000000000001</ele>
        <time>2003-04-18T19:25:11Z</time>
      </trkpt>
      <trkpt lat="32.895805025473237" lon="-4.020738014951348">
        <ele>1042.5999999999999</ele>
        <time>2003-04-18T19:25:16Z</time>
      </trkpt>
      <trkpt lat="32.895990014076233" lon="-4.020662996917963">
        <ele>1043.0999999999999</ele>
        <time>2003-04-18T19:25:19Z</time>
      </trkpt>
      <trkpt lat="32.896877992898226" lon="-4.020229987800121">
        <ele>1040</ele>
        <time>2003-04-18T19:25:28Z</time>
      </trkpt>
      <trkpt lat="32.897527003660798" lon="-4.019929999485612">
        <ele>1039.0999999999999</ele>
        <time>2003-04-18T19:25:36Z</time>
      </trkpt>
      <trkpt lat="32.898382041603327" lon="-4.019460026174784">
        <ele>1037.5999999999999</ele>
        <time>2003-04-18T19:25:47Z</time>
      </trkpt>
      <trkpt lat="32.898672977462411" lon="-4.019334968179464">
        <ele>1037.0999999999999</ele>
        <time>2003-04-18T19:25:51Z</time>
      </trkpt>
      <trkpt lat="32.89875796996057" lon="-4.019292974844575">
        <ele>1037</ele>
        <time>2003-04-18T19:25:54Z</time>
      </trkpt>
      <trkpt lat="32.898931978270411" lon="-4.019191972911358">
        <ele>1037</ele>
        <time>2003-04-18T19:25:57Z</time>
      </trkpt>
      <trkpt lat="32.899155020713806" lon="-4.019079990684986">
        <ele>1036.2</ele>
        <time>2003-04-18T19:26:01Z</time>
      </trkpt>
      <trkpt lat="32.899945015087724" lon="-4.01863700710237">
        <ele>1035.3</ele>
        <time>2003-04-18T19:26:10Z</time>
      </trkpt>
      <trkpt lat="32.900137966498733" lon="-4.018504992127419">
        <ele>1035.2</ele>
        <time>2003-04-18T19:26:14Z</time>
      </trkpt>
      <trkpt lat="32.900456981733441" lon="-4.01835503987968">
        <ele>1035.0999999999999</ele>
        <time>2003-04-18T19:26:18Z</time>
      </trkpt>
      <trkpt lat="32.900778008624911" lon="-4.018182959407568">
        <ele>1035.0999999999999</ele>
        <time>2003-04-18T19:26:22Z</time>
      </trkpt>
      <trkpt lat="32.901027034968138" lon="-4.018062008544803">
        <ele>1035.0999999999999</ele>
        <time>2003-04-18T19:26:25Z</time>
      </trkpt>
      <trkpt lat="32.901186961680651" lon="-4.018054967746139">
        <ele>1034.9000000000001</ele>
        <time>2003-04-18T19:26:28Z</time>
      </trkpt>
      <trkpt lat="32.901306990534067" lon="-4.017987996339798">
        <ele>1035</ele>
        <time>2003-04-18T19:26:29Z</time>
      </trkpt>
      <trkpt lat="32.901428025215864" lon="-4.017867967486382">
        <ele>1034.4000000000001</ele>
        <time>2003-04-18T19:26:30Z</time>
      </trkpt>
      <trkpt lat="32.901566997170448" lon="-4.017742993310094">
        <ele>1034.5</ele>
        <time>2003-04-18T19:26:33Z</time>
      </trkpt>
      <trkpt lat="32.901652995496988" lon="-4.017699994146824">
        <ele>1034.5999999999999</ele>
        <time>2003-04-18T19:26:34Z</time>
      </trkpt>
      <trkpt lat="32.902207961305976" lon="-4.017449961975217">
        <ele>1034.0999999999999</ele>
        <time>2003-04-18T19:26:40Z</time>
      </trkpt>
      <trkpt lat="32.902654968202114" lon="-4.017182998359203">
        <ele>1033.5</ele>
        <time>2003-04-18T19:26:45Z</time>
      </trkpt>
      <trkpt lat="32.902897959575057" lon="-4.017070010304451">
        <ele>1033.2</ele>
        <time>2003-04-18T19:26:49Z</time>
      </trkpt>
      <trkpt lat="32.90305201895535" lon="-4.017083002254367">
        <ele>1033.4000000000001</ele>
        <time>2003-04-18T19:26:51Z</time>
      </trkpt>
      <trkpt lat="32.903453009203076" lon="-4.017237983644009">
        <ele>1032.5999999999999</ele>
        <time>2003-04-18T19:26:56Z</time>
      </trkpt>
      <trkpt lat="32.903703041374683" lon="-4.017339991405606">
        <ele>1032.8</ele>
        <time>2003-04-18T19:26:59Z</time>
      </trkpt>
      <trkpt lat="32.903877971693873" lon="-4.01734996587038">
        <ele>1032.5999999999999</ele>
        <time>2003-04-18T19:27:00Z</time>
      </trkpt>
      <trkpt lat="32.903967993333936" lon="-4.017339991405606">
        <ele>1032.4000000000001</ele>
        <time>2003-04-18T19:27:01Z</time>
      </trkpt>
      <trkpt lat="32.904136972501874" lon="-4.017291963100433">
        <ele>1032.4000000000001</ele>
        <time>2003-04-18T19:27:04Z</time>
      </trkpt>
      <trkpt lat="32.904307041317225" lon="-4.017209988087416">
        <ele>1032.0999999999999</ele>
        <time>2003-04-18T19:27:05Z</time>
      </trkpt>
      <trkpt lat="32.904844991862774" lon="-4.016934977844358">
        <ele>1031.8</ele>
        <time>2003-04-18T19:27:12Z</time>
      </trkpt>
      <trkpt lat="32.90494498796761" lon="-4.016925003379583">
        <ele>1031.7</ele>
        <time>2003-04-18T19:27:12Z</time>
      </trkpt>
      <trkpt lat="32.905860040336847" lon="-4.016798017546535">
        <ele>1032.3</ele>
        <time>2003-04-18T19:27:22Z</time>
      </trkpt>
      <trkpt lat="32.906173020601273" lon="-4.016770021989942">
        <ele>1032.2</ele>
        <time>2003-04-18T19:27:24Z</time>
      </trkpt>
      <trkpt lat="32.906281985342503" lon="-4.01678997091949">
        <ele>1032.3</ele>
        <time>2003-04-18T19:27:26Z</time>
      </trkpt>
      <trkpt lat="32.906947005540133" lon="-4.016937995329499">
        <ele>1034</ele>
        <time>2003-04-18T19:27:31Z</time>
      </trkpt>
      <trkpt lat="32.907047001644969" lon="-4.016943024471402">
        <ele>1034</ele>
        <time>2003-04-18T19:27:32Z</time>
      </trkpt>
      <trkpt lat="32.907250011339784" lon="-4.016937995329499">
        <ele>1033.9000000000001</ele>
        <time>2003-04-18T19:27:35Z</time>
      </trkpt>
      <trkpt lat="32.907682014629245" lon="-4.016925003379583">
        <ele>1032.9000000000001</ele>
        <time>2003-04-18T19:27:39Z</time>
      </trkpt>
      <trkpt lat="32.908140001818538" lon="-4.017030028626323">
        <ele>1032.3</ele>
        <time>2003-04-18T19:27:43Z</time>
      </trkpt>
      <trkpt lat="32.909080032259226" lon="-4.017405034974217">
        <ele>1031.5999999999999</ele>
        <time>2003-04-18T19:27:51Z</time>
      </trkpt>
      <trkpt lat="32.909821998327971" lon="-4.01764702051878">
        <ele>1031.2</ele>
        <time>2003-04-18T19:27:58Z</time>
      </trkpt>
      <trkpt lat="32.9104870185256" lon="-4.017696976661682">
        <ele>1030.3</ele>
        <time>2003-04-18T19:28:05Z</time>
      </trkpt>
      <trkpt lat="32.910727998241782" lon="-4.017702005803585">
        <ele>1030</ele>
        <time>2003-04-18T19:28:06Z</time>
      </trkpt>
      <trkpt lat="32.910952968522906" lon="-4.017697982490063">
        <ele>1029.8</ele>
        <time>2003-04-18T19:28:09Z</time>
      </trkpt>
      <trkpt lat="32.911157989874482" lon="-4.017702005803585">
        <ele>1030.3</ele>
        <time>2003-04-18T19:28:10Z</time>
      </trkpt>
      <trkpt lat="32.911438029259443" lon="-4.017717009410262">
        <ele>1029.5999999999999</ele>
        <time>2003-04-18T19:28:13Z</time>
      </trkpt>
      <trkpt lat="32.911586975678802" lon="-4.017677027732134">
        <ele>1029</ele>
        <time>2003-04-18T19:28:16Z</time>
      </trkpt>
      <trkpt lat="32.911927029490471" lon="-4.017588011920452">
        <ele>1028</ele>
        <time>2003-04-18T19:28:20Z</time>
      </trkpt>
      <trkpt lat="32.912102965638041" lon="-4.017592035233975">
        <ele>1027.0999999999999</ele>
        <time>2003-04-18T19:28:21Z</time>
      </trkpt>
      <trkpt lat="32.912262976169586" lon="-4.017563033849001">
        <ele>1026.9000000000001</ele>
        <time>2003-04-18T19:28:24Z</time>
      </trkpt>
      <trkpt lat="32.912422986701131" lon="-4.017482986673713">
        <ele>1025.5</ele>
        <time>2003-04-18T19:28:25Z</time>
      </trkpt>
      <trkpt lat="32.912634965032339" lon="-4.017402017489076">
        <ele>1024.0999999999999</ele>
        <time>2003-04-18T19:28:29Z</time>
      </trkpt>
      <trkpt lat="32.912888014689088" lon="-4.01726296171546">
        <ele>1021.4</ele>
        <time>2003-04-18T19:28:33Z</time>
      </trkpt>
      <trkpt lat="32.913141986355186" lon="-4.017009995877743">
        <ele>1018.8</ele>
        <time>2003-04-18T19:28:37Z</time>
      </trkpt>
      <trkpt lat="32.913223039358854" lon="-4.01687303557992">
        <ele>1017.5</ele>
        <time>2003-04-18T19:28:40Z</time>
      </trkpt>
      <trkpt lat="32.913299985229969" lon="-4.016730040311813">
        <ele>1015.8</ele>
        <time>2003-04-18T19:28:44Z</time>
      </trkpt>
      <trkpt lat="32.913352036848664" lon="-4.016597019508481">
        <ele>1012.6</ele>
        <time>2003-04-18T19:29:10Z</time>
      </trkpt>
      <trkpt lat="32.913375003263354" lon="-4.016493000090122">
        <ele>1011.3</ele>
        <time>2003-04-18T19:29:14Z</time>
      </trkpt>
      <trkpt lat="32.913239970803261" lon="-4.016540022566915">
        <ele>1011.7</ele>
        <time>2003-04-18T19:30:32Z</time>
      </trkpt>
      <trkpt lat="32.913205018267035" lon="-4.016367020085454">
        <ele>1010.9</ele>
        <time>2003-04-18T19:31:04Z</time>
      </trkpt>
      <trkpt lat="32.913244999945164" lon="-4.016192005947232">
        <ele>1007.9</ele>
        <time>2003-04-18T19:31:35Z</time>
      </trkpt>
      <trkpt lat="32.91327802464366" lon="-4.016071977093816">
        <ele>1008.3</ele>
        <time>2003-04-18T19:31:38Z</time>
      </trkpt>
      <trkpt lat="32.913329992443323" lon="-4.01588698849082">
        <ele>1007.7</ele>
        <time>2003-04-18T19:31:45Z</time>
      </trkpt>
      <trkpt lat="32.913309959694743" lon="-4.015742987394333">
        <ele>1007.4</ele>
        <time>2003-04-18T19:31:48Z</time>
      </trkpt>
      <trkpt lat="32.913252040743828" lon="-4.015641985461116">
        <ele>1009.1</ele>
        <time>2003-04-18T19:31:50Z</time>
      </trkpt>
      <trkpt lat="32.913141986355186" lon="-4.015581971034408">
        <ele>1010</ele>
        <time>2003-04-18T19:31:53Z</time>
      </trkpt>
      <trkpt lat="32.913036961108446" lon="-4.015575014054775">
        <ele>1010.5</ele>
        <time>2003-04-18T19:31:56Z</time>
      </trkpt>
      <trkpt lat="32.912917016074061" lon="-4.015593035146594">
        <ele>1010.8</ele>
        <time>2003-04-18T19:31:57Z</time>
      </trkpt>
      <trkpt lat="32.912711994722486" lon="-4.015620024874806">
        <ele>1011.1</ele>
        <time>2003-04-18T19:32:01Z</time>
      </trkpt>
      <trkpt lat="32.912470009177923" lon="-4.015614995732904">
        <ele>1011.4</ele>
        <time>2003-04-18T19:32:04Z</time>
      </trkpt>
      <trkpt lat="32.912083016708493" lon="-4.015562022104859">
        <ele>1011.9</ele>
        <time>2003-04-18T19:32:08Z</time>
      </trkpt>
      <trkpt lat="32.911761989817023" lon="-4.015512987971306">
        <ele>1012.7</ele>
        <time>2003-04-18T19:32:11Z</time>
      </trkpt>
      <trkpt lat="32.911342978477478" lon="-4.015472000464797">
        <ele>1013.4</ele>
        <time>2003-04-18T19:32:15Z</time>
      </trkpt>
      <trkpt lat="32.911133011803031" lon="-4.015358006581664">
        <ele>1013.4</ele>
        <time>2003-04-18T19:32:16Z</time>
      </trkpt>
      <trkpt lat="32.911035027354956" lon="-4.015273014083505">
        <ele>1013.6</ele>
        <time>2003-04-18T19:32:17Z</time>
      </trkpt>
      <trkpt lat="32.910945005714893" lon="-4.015166983008385">
        <ele>1014.2</ele>
        <time>2003-04-18T19:32:19Z</time>
      </trkpt>
      <trkpt lat="32.910741996020079" lon="-4.014977971091867">
        <ele>1014.8</ele>
        <time>2003-04-18T19:32:20Z</time>
      </trkpt>
      <trkpt lat="32.91057201102376" lon="-4.014849979430437">
        <ele>1015.7</ele>
        <time>2003-04-18T19:32:23Z</time>
      </trkpt>
      <trkpt lat="32.910497998818755" lon="-4.014716958627105">
        <ele>1015.7</ele>
        <time>2003-04-18T19:32:24Z</time>
      </trkpt>
      <trkpt lat="32.910527000203729" lon="-4.014555020257831">
        <ele>1016.3</ele>
        <time>2003-04-18T19:32:27Z</time>
      </trkpt>
      <trkpt lat="32.910648034885526" lon="-4.014428034424782">
        <ele>1017.4</ele>
        <time>2003-04-18T19:32:28Z</time>
      </trkpt>
      <trkpt lat="32.91078700684011" lon="-4.014306999742985">
        <ele>1019.1</ele>
        <time>2003-04-18T19:32:31Z</time>
      </trkpt>
      <trkpt lat="32.911014994606376" lon="-4.01405998505652">
        <ele>1020</ele>
        <time>2003-04-18T19:32:33Z</time>
      </trkpt>
      <trkpt lat="32.911272989585996" lon="-4.013701993972063">
        <ele>1022</ele>
        <time>2003-04-18T19:32:38Z</time>
      </trkpt>
      <trkpt lat="32.911437023431063" lon="-4.013333022594452">
        <ele>1024.2</ele>
        <time>2003-04-18T19:32:42Z</time>
      </trkpt>
      <trkpt lat="32.911526961252093" lon="-4.01313696987927">
        <ele>1023.8</ele>
        <time>2003-04-18T19:32:43Z</time>
      </trkpt>
      <trkpt lat="32.911598039790988" lon="-4.012952987104654">
        <ele>1023.8</ele>
        <time>2003-04-18T19:32:46Z</time>
      </trkpt>
      <trkpt lat="32.911761989817023" lon="-4.012402966618538">
        <ele>1023</ele>
        <time>2003-04-18T19:32:51Z</time>
      </trkpt>
      <trkpt lat="32.911829967051744" lon="-4.012244967743754">
        <ele>1023</ele>
        <time>2003-04-18T19:32:52Z</time>
      </trkpt>
      <trkpt lat="32.911906996741891" lon="-4.01216802187264">
        <ele>1022.8</ele>
        <time>2003-04-18T19:32:55Z</time>
      </trkpt>
      <trkpt lat="32.912038005888462" lon="-4.012089986354113">
        <ele>1024.0999999999999</ele>
        <time>2003-04-18T19:32:56Z</time>
      </trkpt>
      <trkpt lat="32.912215031683445" lon="-4.012047993019223">
        <ele>1025.2</ele>
        <time>2003-04-18T19:32:59Z</time>
      </trkpt>
      <trkpt lat="32.912424998357892" lon="-4.012025026604533">
        <ele>1026</ele>
        <time>2003-04-18T19:33:00Z</time>
      </trkpt>
      <trkpt lat="32.913003014400601" lon="-4.011931987479329">
        <ele>1026.4000000000001</ele>
        <time>2003-04-18T19:33:06Z</time>
      </trkpt>
      <trkpt lat="32.913438035175204" lon="-4.011832997202873">
        <ele>1024.7</ele>
        <time>2003-04-18T19:33:09Z</time>
      </trkpt>
      <trkpt lat="32.914234986528754" lon="-4.01171799749136">
        <ele>1026.9000000000001</ele>
        <time>2003-04-18T19:33:14Z</time>
      </trkpt>
      <trkpt lat="32.914766985923052" lon="-4.011608026921749">
        <ele>1026.0999999999999</ele>
        <time>2003-04-18T19:33:18Z</time>
      </trkpt>
      <trkpt lat="32.915714979171753" lon="-4.011452961713076">
        <ele>1023.6</ele>
        <time>2003-04-18T19:33:26Z</time>
      </trkpt>
      <trkpt lat="32.916685016825795" lon="-4.011277025565505">
        <ele>1024.7</ele>
        <time>2003-04-18T19:33:33Z</time>
      </trkpt>
      <trkpt lat="32.917687995359302" lon="-4.011111985892057">
        <ele>1022.8</ele>
        <time>2003-04-18T19:33:40Z</time>
      </trkpt>
      <trkpt lat="32.918727016076446" lon="-4.01094501838088">
        <ele>1023.4</ele>
        <time>2003-04-18T19:33:46Z</time>
      </trkpt>
      <trkpt lat="32.919652964919806" lon="-4.010822977870703">
        <ele>1023.3</ele>
        <time>2003-04-18T19:33:53Z</time>
      </trkpt>
      <trkpt lat="32.919925041496754" lon="-4.010762963443995">
        <ele>1023.7</ele>
        <time>2003-04-18T19:33:54Z</time>
      </trkpt>
      <trkpt lat="32.92013299651444" lon="-4.010649975389242">
        <ele>1023.6</ele>
        <time>2003-04-18T19:33:57Z</time>
      </trkpt>
      <trkpt lat="32.920602969825268" lon="-4.010289972648025">
        <ele>1020.4</ele>
        <time>2003-04-18T19:34:01Z</time>
      </trkpt>
      <trkpt lat="32.921096999198198" lon="-4.009887976571918">
        <ele>1019.3</ele>
        <time>2003-04-18T19:34:07Z</time>
      </trkpt>
      <trkpt lat="32.92125198058784" lon="-4.009755039587617">
        <ele>1019.1</ele>
        <time>2003-04-18T19:34:08Z</time>
      </trkpt>
      <trkpt lat="32.921479968354106" lon="-4.009501989930868">
        <ele>1017.3</ele>
        <time>2003-04-18T19:34:12Z</time>
      </trkpt>
      <trkpt lat="32.921990007162094" lon="-4.008950041607022">
        <ele>1016</ele>
        <time>2003-04-18T19:34:17Z</time>
      </trkpt>
      <trkpt lat="32.922738008201122" lon="-4.00821503251791">
        <ele>1014.5</ele>
        <time>2003-04-18T19:34:26Z</time>
      </trkpt>
      <trkpt lat="32.922902964055538" lon="-4.008032977581024">
        <ele>1014.7</ele>
        <time>2003-04-18T19:34:28Z</time>
      </trkpt>
      <trkpt lat="32.923203036189079" lon="-4.007595023140311">
        <ele>1018.2</ele>
        <time>2003-04-18T19:34:31Z</time>
      </trkpt>
      <trkpt lat="32.923315018415451" lon="-4.007342979311943">
        <ele>1019.7</ele>
        <time>2003-04-18T19:34:34Z</time>
      </trkpt>
      <trkpt lat="32.923347037285566" lon="-4.007207024842501">
        <ele>1020.4</ele>
        <time>2003-04-18T19:34:35Z</time>
      </trkpt>
      <trkpt lat="32.923405040055513" lon="-4.00675498880446">
        <ele>1020.1</ele>
        <time>2003-04-18T19:34:38Z</time>
      </trkpt>
      <trkpt lat="32.923606960102916" lon="-4.005567021667957">
        <ele>1021.4</ele>
        <time>2003-04-18T19:34:44Z</time>
      </trkpt>
      <trkpt lat="32.92374299839139" lon="-4.004937959834933">
        <ele>1019.6</ele>
        <time>2003-04-18T19:34:48Z</time>
      </trkpt>
      <trkpt lat="32.923980038613081" lon="-4.003798021003604">
        <ele>1019.1</ele>
        <time>2003-04-18T19:34:57Z</time>
      </trkpt>
      <trkpt lat="32.924178019165993" lon="-4.002697980031371">
        <ele>1020.4</ele>
        <time>2003-04-18T19:35:03Z</time>
      </trkpt>
      <trkpt lat="32.92421699501574" lon="-4.002564959228039">
        <ele>1021.4</ele>
        <time>2003-04-18T19:35:05Z</time>
      </trkpt>
      <trkpt lat="32.924282038584352" lon="-4.002326996996999">
        <ele>1020.7</ele>
        <time>2003-04-18T19:35:06Z</time>
      </trkpt>
      <trkpt lat="32.924346998333931" lon="-4.002009993419051">
        <ele>1018.6</ele>
        <time>2003-04-18T19:35:10Z</time>
      </trkpt>
      <trkpt lat="32.924353033304214" lon="-4.001900022849441">
        <ele>1017.5</ele>
        <time>2003-04-18T19:35:10Z</time>
      </trkpt>
      <trkpt lat="32.924357978627086" lon="-4.001532979309559">
        <ele>1015.8</ele>
        <time>2003-04-18T19:35:14Z</time>
      </trkpt>
      <trkpt lat="32.924325037747622" lon="-4.001268027350307">
        <ele>1015.2</ele>
        <time>2003-04-18T19:35:15Z</time>
      </trkpt>
      <trkpt lat="32.924135020002723" lon="-4.000167986378074">
        <ele>1017.7</ele>
        <time>2003-04-18T19:35:25Z</time>
      </trkpt>
      <trkpt lat="32.923942990601063" lon="-3.999044978991151">
        <ele>1017.8</ele>
        <time>2003-04-18T19:35:33Z</time>
      </trkpt>
      <trkpt lat="32.923963023349643" lon="-3.998475009575486">
        <ele>1018.3</ele>
        <time>2003-04-18T19:35:37Z</time>
      </trkpt>
      <trkpt lat="32.924039969220757" lon="-3.998199999332428">
        <ele>1020</ele>
        <time>2003-04-18T19:35:38Z</time>
      </trkpt>
      <trkpt lat="32.924238033592701" lon="-3.997504971921444">
        <ele>1018.7</ele>
        <time>2003-04-18T19:35:44Z</time>
      </trkpt>
      <trkpt lat="32.924305004999042" lon="-3.997232979163528">
        <ele>1018.9</ele>
        <time>2003-04-18T19:35:45Z</time>
      </trkpt>
      <trkpt lat="32.924442971125245" lon="-3.996687987819314">
        <ele>1019.5</ele>
        <time>2003-04-18T19:35:49Z</time>
      </trkpt>
      <trkpt lat="32.924582026898861" lon="-3.996094968169928">
        <ele>1019.8</ele>
        <time>2003-04-18T19:35:55Z</time>
      </trkpt>
      <trkpt lat="32.924659978598356" lon="-3.995842002332211">
        <ele>1019.9</ele>
        <time>2003-04-18T19:35:57Z</time>
      </trkpt>
      <trkpt lat="32.924876986071467" lon="-3.99506701156497">
        <ele>1020.5</ele>
        <time>2003-04-18T19:36:05Z</time>
      </trkpt>
      <trkpt lat="32.925013024359941" lon="-3.994556972756982">
        <ele>1020</ele>
        <time>2003-04-18T19:36:09Z</time>
      </trkpt>
      <trkpt lat="32.925313012674451" lon="-3.993397001177073">
        <ele>1017.9</ele>
        <time>2003-04-18T19:36:18Z</time>
      </trkpt>
      <trkpt lat="32.925618030130863" lon="-3.99225496686995">
        <ele>1016.8</ele>
        <time>2003-04-18T19:36:26Z</time>
      </trkpt>
      <trkpt lat="32.925747027620673" lon="-3.991760015487671">
        <ele>1016.1</ele>
        <time>2003-04-18T19:36:30Z</time>
      </trkpt>
      <trkpt lat="32.92593302205205" lon="-3.991064988076687">
        <ele>1016.3</ele>
        <time>2003-04-18T19:36:35Z</time>
      </trkpt>
      <trkpt lat="32.926177019253373" lon="-3.990163011476398">
        <ele>1017.2</ele>
        <time>2003-04-18T19:36:43Z</time>
      </trkpt>
      <trkpt lat="32.926314985379577" lon="-3.989651966840029">
        <ele>1016.9</ele>
        <time>2003-04-18T19:36:46Z</time>
      </trkpt>
      <trkpt lat="32.926580021157861" lon="-3.988785026594997">
        <ele>1017.1</ele>
        <time>2003-04-18T19:36:54Z</time>
      </trkpt>
      <trkpt lat="32.926846984773874" lon="-3.988199969753623">
        <ele>1016.8</ele>
        <time>2003-04-18T19:36:58Z</time>
      </trkpt>
      <trkpt lat="32.927383007481694" lon="-3.987211994826794">
        <ele>1017</ele>
        <time>2003-04-18T19:37:08Z</time>
      </trkpt>
      <trkpt lat="32.927518039941788" lon="-3.986977972090244">
        <ele>1016.2</ele>
        <time>2003-04-18T19:37:10Z</time>
      </trkpt>
      <trkpt lat="32.927822973579168" lon="-3.98645200766623">
        <ele>1014.4</ele>
        <time>2003-04-18T19:37:14Z</time>
      </trkpt>
      <trkpt lat="32.928197979927063" lon="-3.985735019668937">
        <ele>1012.3</ele>
        <time>2003-04-18T19:37:21Z</time>
      </trkpt>
      <trkpt lat="32.928282972425222" lon="-3.985445005819202">
        <ele>1010.1</ele>
        <time>2003-04-18T19:37:25Z</time>
      </trkpt>
      <trkpt lat="32.928347010165453" lon="-3.984912000596523">
        <ele>1008.7</ele>
        <time>2003-04-18T19:37:29Z</time>
      </trkpt>
      <trkpt lat="32.928433008491993" lon="-3.983771977946162">
        <ele>1012.8</ele>
        <time>2003-04-18T19:37:40Z</time>
      </trkpt>
      <trkpt lat="32.928409958258271" lon="-3.983667036518455">
        <ele>1013</ele>
        <time>2003-04-18T19:37:41Z</time>
      </trkpt>
      <trkpt lat="32.928335024043918" lon="-3.983454974368215">
        <ele>1012.6</ele>
        <time>2003-04-18T19:37:44Z</time>
      </trkpt>
      <trkpt lat="32.928067976608872" lon="-3.982882993295789">
        <ele>1014.4</ele>
        <time>2003-04-18T19:37:48Z</time>
      </trkpt>
      <trkpt lat="32.927806964144111" lon="-3.982427017763257">
        <ele>1014.9</ele>
        <time>2003-04-18T19:37:52Z</time>
      </trkpt>
      <trkpt lat="32.927628010511398" lon="-3.982227025553584">
        <ele>1014.6</ele>
        <time>2003-04-18T19:37:55Z</time>
      </trkpt>
      <trkpt lat="32.9270080011338" lon="-3.981557982042432">
        <ele>1020.3</ele>
        <time>2003-04-18T19:38:02Z</time>
      </trkpt>
      <trkpt lat="32.926646992564201" lon="-3.981135031208396">
        <ele>1021.3</ele>
        <time>2003-04-18T19:38:07Z</time>
      </trkpt>
      <trkpt lat="32.92660198174417" lon="-3.98101500235498">
        <ele>1021.3</ele>
        <time>2003-04-18T19:38:07Z</time>
      </trkpt>
      <trkpt lat="32.926531992852688" lon="-3.980781985446811">
        <ele>1021.8</ele>
        <time>2003-04-18T19:38:10Z</time>
      </trkpt>
      <trkpt lat="32.926526963710785" lon="-3.98065198212862">
        <ele>1022.1</ele>
        <time>2003-04-18T19:38:11Z</time>
      </trkpt>
      <trkpt lat="32.926453035324812" lon="-3.979578008875251">
        <ele>1020.1</ele>
        <time>2003-04-18T19:38:19Z</time>
      </trkpt>
      <trkpt lat="32.926457980647683" lon="-3.979444988071919">
        <ele>1019.5</ele>
        <time>2003-04-18T19:38:19Z</time>
      </trkpt>
      <trkpt lat="32.926507014781237" lon="-3.979171989485622">
        <ele>1019.2</ele>
        <time>2003-04-18T19:38:22Z</time>
      </trkpt>
      <trkpt lat="32.926653027534485" lon="-3.978822967037559">
        <ele>1019</ele>
        <time>2003-04-18T19:38:24Z</time>
      </trkpt>
      <trkpt lat="32.926842039451003" lon="-3.978551980108023">
        <ele>1017.1</ele>
        <time>2003-04-18T19:38:27Z</time>
      </trkpt>
      <trkpt lat="32.927092993631959" lon="-3.978237994015217">
        <ele>1016.7</ele>
        <time>2003-04-18T19:38:31Z</time>
      </trkpt>
      <trkpt lat="32.927161976695061" lon="-3.978097010403872">
        <ele>1018.6</ele>
        <time>2003-04-18T19:38:34Z</time>
      </trkpt>
      <trkpt lat="32.927195001393557" lon="-3.977891989052296">
        <ele>1018.6</ele>
        <time>2003-04-18T19:38:35Z</time>
      </trkpt>
      <trkpt lat="32.92722299695015" lon="-3.97764204069972">
        <ele>1018.7</ele>
        <time>2003-04-18T19:38:38Z</time>
      </trkpt>
      <trkpt lat="32.927273036912084" lon="-3.977190004661679">
        <ele>1019.1</ele>
        <time>2003-04-18T19:38:41Z</time>
      </trkpt>
      <trkpt lat="32.927449978888035" lon="-3.976031960919499">
        <ele>1020.3</ele>
        <time>2003-04-18T19:38:47Z</time>
      </trkpt>
      <trkpt lat="32.927662963047624" lon="-3.974788002669811">
        <ele>1022.4</ele>
        <time>2003-04-18T19:38:56Z</time>
      </trkpt>
      <trkpt lat="32.927824985235929" lon="-3.973652003332973">
        <ele>1023.9</ele>
        <time>2003-04-18T19:39:02Z</time>
      </trkpt>
      <trkpt lat="32.927982984110713" lon="-3.972582975402474">
        <ele>1024.7</ele>
        <time>2003-04-18T19:39:09Z</time>
      </trkpt>
      <trkpt lat="32.928077029064298" lon="-3.972160024568439">
        <ele>1026.0999999999999</ele>
        <time>2003-04-18T19:39:13Z</time>
      </trkpt>
      <trkpt lat="32.92814701795578" lon="-3.971764985471964">
        <ele>1027</ele>
        <time>2003-04-18T19:39:16Z</time>
      </trkpt>
      <trkpt lat="32.928242990747094" lon="-3.97106803022325">
        <ele>1026.8</ele>
        <time>2003-04-18T19:39:21Z</time>
      </trkpt>
      <trkpt lat="32.928354972973466" lon="-3.970472998917103">
        <ele>1025.7</ele>
        <time>2003-04-18T19:39:25Z</time>
      </trkpt>
      <trkpt lat="32.92838498018682" lon="-3.970335032790899">
        <ele>1025.5</ele>
        <time>2003-04-18T19:39:25Z</time>
      </trkpt>
      <trkpt lat="32.928435020148754" lon="-3.970196982845664">
        <ele>1025.3</ele>
        <time>2003-04-18T19:39:27Z</time>
      </trkpt>
      <trkpt lat="32.928508026525378" lon="-3.970064967870712">
        <ele>1024.9000000000001</ele>
        <time>2003-04-18T19:39:28Z</time>
      </trkpt>
      <trkpt lat="32.929028039798141" lon="-3.969172965735197">
        <ele>1024.0999999999999</ele>
        <time>2003-04-18T19:39:35Z</time>
      </trkpt>
      <trkpt lat="32.929574958980083" lon="-3.968260008841753">
        <ele>1025.3</ele>
        <time>2003-04-18T19:39:41Z</time>
      </trkpt>
      <trkpt lat="32.930122967809439" lon="-3.967321990057826">
        <ele>1022.9</ele>
        <time>2003-04-18T19:39:48Z</time>
      </trkpt>
      <trkpt lat="32.930311979725957" lon="-3.966867020353675">
        <ele>1020.3</ele>
        <time>2003-04-18T19:39:52Z</time>
      </trkpt>
      <trkpt lat="32.930639963597059" lon="-3.965837974101305">
        <ele>1017.4</ele>
        <time>2003-04-18T19:39:59Z</time>
      </trkpt>
      <trkpt lat="32.930814977735281" lon="-3.965315027162433">
        <ele>1016.5</ele>
        <time>2003-04-18T19:40:03Z</time>
      </trkpt>
      <trkpt lat="32.930884966626763" lon="-3.964937003329396">
        <ele>1018.1</ele>
        <time>2003-04-18T19:40:06Z</time>
      </trkpt>
      <trkpt lat="32.93094296939671" lon="-3.964169975370169">
        <ele>1016.9</ele>
        <time>2003-04-18T19:40:11Z</time>
      </trkpt>
      <trkpt lat="32.930912962183356" lon="-3.963894965127111">
        <ele>1017</ele>
        <time>2003-04-18T19:40:14Z</time>
      </trkpt>
      <trkpt lat="32.930823024362326" lon="-3.963648034259677">
        <ele>1017.6</ele>
        <time>2003-04-18T19:40:15Z</time>
      </trkpt>
      <trkpt lat="32.930678017437458" lon="-3.963427003473043">
        <ele>1017.9</ele>
        <time>2003-04-18T19:40:18Z</time>
      </trkpt>
      <trkpt lat="32.930392026901245" lon="-3.963031964376569">
        <ele>1019.7</ele>
        <time>2003-04-18T19:40:22Z</time>
      </trkpt>
      <trkpt lat="32.930363025516272" lon="-3.962917970493436">
        <ele>1019.7</ele>
        <time>2003-04-18T19:40:22Z</time>
      </trkpt>
      <trkpt lat="32.930347016081214" lon="-3.962791990488768">
        <ele>1019.2</ele>
        <time>2003-04-18T19:40:23Z</time>
      </trkpt>
      <trkpt lat="32.930351961404085" lon="-3.962661987170577">
        <ele>1019.4</ele>
        <time>2003-04-18T19:40:25Z</time>
      </trkpt>
      <trkpt lat="32.930384986102581" lon="-3.962546987459064">
        <ele>1019.5</ele>
        <time>2003-04-18T19:40:26Z</time>
      </trkpt>
      <trkpt lat="32.930441983044147" lon="-3.962438022717834">
        <ele>1019.5</ele>
        <time>2003-04-18T19:40:26Z</time>
      </trkpt>
      <trkpt lat="32.930518006905913" lon="-3.962346995249391">
        <ele>1019.5</ele>
        <time>2003-04-18T19:40:27Z</time>
      </trkpt>
      <trkpt lat="32.930608028545976" lon="-3.962271977216005">
        <ele>1019.5</ele>
        <time>2003-04-18T19:40:29Z</time>
      </trkpt>
      <trkpt lat="32.930710036307573" lon="-3.962222021073103">
        <ele>1019.4</ele>
        <time>2003-04-18T19:40:30Z</time>
      </trkpt>
      <trkpt lat="32.930814977735281" lon="-3.962195031344891">
        <ele>1019.6</ele>
        <time>2003-04-18T19:40:30Z</time>
      </trkpt>
      <trkpt lat="32.930922014638782" lon="-3.962199976667762">
        <ele>1019.8</ele>
        <time>2003-04-18T19:40:31Z</time>
      </trkpt>
      <trkpt lat="32.931027039885521" lon="-3.962222021073103">
        <ele>1020.1</ele>
        <time>2003-04-18T19:40:33Z</time>
      </trkpt>
      <trkpt lat="32.93115796521306" lon="-3.962287986651063">
        <ele>1021.2</ele>
        <time>2003-04-18T19:40:34Z</time>
      </trkpt>
      <trkpt lat="32.931252010166645" lon="-3.962355041876435">
        <ele>1021.3</ele>
        <time>2003-04-18T19:40:37Z</time>
      </trkpt>
      <trkpt lat="32.93137296102941" lon="-3.962395023554564">
        <ele>1022.4</ele>
        <time>2003-04-18T19:40:38Z</time>
      </trkpt>
      <trkpt lat="32.931510005146265" lon="-3.962398041039705">
        <ele>1024.0999999999999</ele>
        <time>2003-04-18T19:40:41Z</time>
      </trkpt>
      <trkpt lat="32.931721983477473" lon="-3.962356969714165">
        <ele>1026.2</ele>
        <time>2003-04-18T19:40:44Z</time>
      </trkpt>
      <trkpt lat="32.931867996230721" lon="-3.96225999109447">
        <ele>1027.3</ele>
        <time>2003-04-18T19:40:46Z</time>
      </trkpt>
      <trkpt lat="32.931992970407009" lon="-3.962102998048067">
        <ele>1027.9000000000001</ele>
        <time>2003-04-18T19:40:48Z</time>
      </trkpt>
      <trkpt lat="32.93216303922236" lon="-3.961827987805009">
        <ele>1028.8</ele>
        <time>2003-04-18T19:40:50Z</time>
      </trkpt>
      <trkpt lat="32.932350039482117" lon="-3.96137704141438">
        <ele>1029.3</ele>
        <time>2003-04-18T19:40:54Z</time>
      </trkpt>
      <trkpt lat="32.932588001713157" lon="-3.960525020956993">
        <ele>1030.0999999999999</ele>
        <time>2003-04-18T19:41:01Z</time>
      </trkpt>
      <trkpt lat="32.932844990864396" lon="-3.959799986332655">
        <ele>1029.4000000000001</ele>
        <time>2003-04-18T19:41:05Z</time>
      </trkpt>
      <trkpt lat="32.933402974158525" lon="-3.958825003355742">
        <ele>1027.9000000000001</ele>
        <time>2003-04-18T19:41:13Z</time>
      </trkpt>
      <trkpt lat="32.933975039049983" lon="-3.957842979580164">
        <ele>1025.9000000000001</ele>
        <time>2003-04-18T19:41:21Z</time>
      </trkpt>
      <trkpt lat="32.934566969051957" lon="-3.956858022138476">
        <ele>1025.5</ele>
        <time>2003-04-18T19:41:29Z</time>
      </trkpt>
      <trkpt lat="32.935137022286654" lon="-3.955893013626337">
        <ele>1024</ele>
        <time>2003-04-18T19:41:38Z</time>
      </trkpt>
      <trkpt lat="32.935701962560415" lon="-3.954922975972295">
        <ele>1023.9</ele>
        <time>2003-04-18T19:41:46Z</time>
      </trkpt>
      <trkpt lat="32.936143018305302" lon="-3.954306989908218">
        <ele>1023.2</ele>
        <time>2003-04-18T19:41:51Z</time>
      </trkpt>
      <trkpt lat="32.936449963599443" lon="-3.954007001593709">
        <ele>1024.0999999999999</ele>
        <time>2003-04-18T19:41:54Z</time>
      </trkpt>
      <trkpt lat="32.93699998408556" lon="-3.953584972769022">
        <ele>1024.2</ele>
        <time>2003-04-18T19:41:59Z</time>
      </trkpt>
      <trkpt lat="32.937787966802716" lon="-3.953169984742999">
        <ele>1023.1</ele>
        <time>2003-04-18T19:42:06Z</time>
      </trkpt>
      <trkpt lat="32.93824503198266" lon="-3.952951971441507">
        <ele>1023</ele>
        <time>2003-04-18T19:42:10Z</time>
      </trkpt>
      <trkpt lat="32.938777031376958" lon="-3.952700011432171">
        <ele>1023.3</ele>
        <time>2003-04-18T19:42:14Z</time>
      </trkpt>
      <trkpt lat="32.939656963571906" lon="-3.952255016192794">
        <ele>1022.8</ele>
        <time>2003-04-18T19:42:22Z</time>
      </trkpt>
      <trkpt lat="32.940572015941143" lon="-3.951780013740063">
        <ele>1022</ele>
        <time>2003-04-18T19:42:32Z</time>
      </trkpt>
      <trkpt lat="32.941492013633251" lon="-3.951310040429235">
        <ele>1020.6</ele>
        <time>2003-04-18T19:42:41Z</time>
      </trkpt>
      <trkpt lat="32.942409999668598" lon="-3.950852975249291">
        <ele>1020.6</ele>
        <time>2003-04-18T19:42:49Z</time>
      </trkpt>
      <trkpt lat="32.943335026502609" lon="-3.950377972796559">
        <ele>1020.5</ele>
        <time>2003-04-18T19:42:56Z</time>
      </trkpt>
      <trkpt lat="32.943952018395066" lon="-3.950076978653669">
        <ele>1021</ele>
        <time>2003-04-18T19:43:01Z</time>
      </trkpt>
      <trkpt lat="32.944050002843142" lon="-3.950025010854006">
        <ele>1020.3</ele>
        <time>2003-04-18T19:43:01Z</time>
      </trkpt>
      <trkpt lat="32.944621983915567" lon="-3.94977699033916">
        <ele>1020.5</ele>
        <time>2003-04-18T19:43:07Z</time>
      </trkpt>
      <trkpt lat="32.944860029965639" lon="-3.949742959812284">
        <ele>1020.6</ele>
        <time>2003-04-18T19:43:08Z</time>
      </trkpt>
      <trkpt lat="32.944979975000024" lon="-3.949753018096089">
        <ele>1020.9</ele>
        <time>2003-04-18T19:43:09Z</time>
      </trkpt>
      <trkpt lat="32.945342995226383" lon="-3.949837004765868">
        <ele>1020.6</ele>
        <time>2003-04-18T19:43:12Z</time>
      </trkpt>
      <trkpt lat="32.946262992918491" lon="-3.950168006122112">
        <ele>1019.8</ele>
        <time>2003-04-18T19:43:20Z</time>
      </trkpt>
      <trkpt lat="32.947260020300746" lon="-3.95054804161191">
        <ele>1019</ele>
        <time>2003-04-18T19:43:27Z</time>
      </trkpt>
      <trkpt lat="32.948229974135756" lon="-3.950858004391193">
        <ele>1017.7</ele>
        <time>2003-04-18T19:43:34Z</time>
      </trkpt>
      <trkpt lat="32.948514958843589" lon="-3.950887005776167">
        <ele>1017.8</ele>
        <time>2003-04-18T19:43:35Z</time>
      </trkpt>
      <trkpt lat="32.948655020445585" lon="-3.950887005776167">
        <ele>1018</ele>
        <time>2003-04-18T19:43:36Z</time>
      </trkpt>
      <trkpt lat="32.948798015713692" lon="-3.95089203491807">
        <ele>1017.8</ele>
        <time>2003-04-18T19:43:38Z</time>
      </trkpt>
      <trkpt lat="32.949657998979092" lon="-3.950975015759468">
        <ele>1016.4</ele>
        <time>2003-04-18T19:43:43Z</time>
      </trkpt>
      <trkpt lat="32.950356965884566" lon="-3.951078029349446">
        <ele>1015.7</ele>
        <time>2003-04-18T19:43:48Z</time>
      </trkpt>
      <trkpt lat="32.950499961152673" lon="-3.951077023521066">
        <ele>1015.5</ele>
        <time>2003-04-18T19:43:50Z</time>
      </trkpt>
      <trkpt lat="32.951362961903214" lon="-3.950979961082339">
        <ele>1014.6</ele>
        <time>2003-04-18T19:43:55Z</time>
      </trkpt>
      <trkpt lat="32.951866965740919" lon="-3.950965041294694">
        <ele>1013.7</ele>
        <time>2003-04-18T19:43:59Z</time>
      </trkpt>
      <trkpt lat="32.95206000097096" lon="-3.950951965525746">
        <ele>1013.4</ele>
        <time>2003-04-18T19:44:02Z</time>
      </trkpt>
      <trkpt lat="32.952162008732557" lon="-3.950911983847618">
        <ele>1013.7</ele>
        <time>2003-04-18T19:44:02Z</time>
      </trkpt>
      <trkpt lat="32.952522011473775" lon="-3.950809976086021">
        <ele>1012.8</ele>
        <time>2003-04-18T19:44:06Z</time>
      </trkpt>
      <trkpt lat="32.953030038625002" lon="-3.950709979981184">
        <ele>1012.1</ele>
        <time>2003-04-18T19:44:10Z</time>
      </trkpt>
      <trkpt lat="32.953136991709471" lon="-3.950721966102719">
        <ele>1012.1</ele>
        <time>2003-04-18T19:44:10Z</time>
      </trkpt>
      <trkpt lat="32.953881975263357" lon="-3.950803019106388">
        <ele>1011.1</ele>
        <time>2003-04-18T19:44:17Z</time>
      </trkpt>
      <trkpt lat="32.954163020476699" lon="-3.950815005227923">
        <ele>1010.8</ele>
        <time>2003-04-18T19:44:18Z</time>
      </trkpt>
      <trkpt lat="32.954290006309748" lon="-3.950821962207556">
        <ele>1010.7</ele>
        <time>2003-04-18T19:44:20Z</time>
      </trkpt>
      <trkpt lat="32.955253003165126" lon="-3.950924975797534">
        <ele>1009.4</ele>
        <time>2003-04-18T19:44:26Z</time>
      </trkpt>
      <trkpt lat="32.956277020275593" lon="-3.951047016307712">
        <ele>1008.2</ele>
        <time>2003-04-18T19:44:33Z</time>
      </trkpt>
      <trkpt lat="32.957267006859183" lon="-3.951229993253946">
        <ele>1007.9</ele>
        <time>2003-04-18T19:44:41Z</time>
      </trkpt>
      <trkpt lat="32.957687024027109" lon="-3.951262012124062">
        <ele>1007.5</ele>
        <time>2003-04-18T19:44:44Z</time>
      </trkpt>
      <trkpt lat="32.957958010956645" lon="-3.951256982982159">
        <ele>1007.3</ele>
        <time>2003-04-18T19:44:45Z</time>
      </trkpt>
      <trkpt lat="32.9582279920578" lon="-3.951250026002526">
        <ele>1007</ele>
        <time>2003-04-18T19:44:48Z</time>
      </trkpt>
      <trkpt lat="32.958499984815717" lon="-3.951244996860623">
        <ele>1006.6</ele>
        <time>2003-04-18T19:44:49Z</time>
      </trkpt>
      <trkpt lat="32.958769965916872" lon="-3.951199986040592">
        <ele>1006.2</ele>
        <time>2003-04-18T19:44:52Z</time>
      </trkpt>
      <trkpt lat="32.95923700556159" lon="-3.951052967458963">
        <ele>1005.4</ele>
        <time>2003-04-18T19:44:56Z</time>
      </trkpt>
      <trkpt lat="32.959449989721179" lon="-3.951041987165809">
        <ele>1005.2</ele>
        <time>2003-04-18T19:44:57Z</time>
      </trkpt>
      <trkpt lat="32.959800017997622" lon="-3.95110996440053">
        <ele>1005.1</ele>
        <time>2003-04-18T19:45:00Z</time>
      </trkpt>
      <trkpt lat="32.960126996040344" lon="-3.951184982433915">
        <ele>1004.7</ele>
        <time>2003-04-18T19:45:04Z</time>
      </trkpt>
      <trkpt lat="32.960481969639659" lon="-3.951190011575818">
        <ele>1004.6</ele>
        <time>2003-04-18T19:45:07Z</time>
      </trkpt>
      <trkpt lat="32.96121496707201" lon="-3.951166961342096">
        <ele>1003.7</ele>
        <time>2003-04-18T19:45:12Z</time>
      </trkpt>
      <trkpt lat="32.961830031126738" lon="-3.951299982145429">
        <ele>1003.3</ele>
        <time>2003-04-18T19:45:18Z</time>
      </trkpt>
      <trkpt lat="32.962735025212169" lon="-3.951610028743744">
        <ele>1001.8</ele>
        <time>2003-04-18T19:45:24Z</time>
      </trkpt>
      <trkpt lat="32.963380012661219" lon="-3.951695021241903">
        <ele>1001.7</ele>
        <time>2003-04-18T19:45:30Z</time>
      </trkpt>
      <trkpt lat="32.963508004322648" lon="-3.951682029291987">
        <ele>1001.4</ele>
        <time>2003-04-18T19:45:31Z</time>
      </trkpt>
      <trkpt lat="32.963747978210449" lon="-3.95162696018815">
        <ele>1000.8</ele>
        <time>2003-04-18T19:45:32Z</time>
      </trkpt>
      <trkpt lat="32.964373016729951" lon="-3.951456975191832">
        <ele>999.20000000000005</ele>
        <time>2003-04-18T19:45:38Z</time>
      </trkpt>
      <trkpt lat="32.964641992002726" lon="-3.951448006555438">
        <ele>998.39999999999998</ele>
        <time>2003-04-18T19:45:41Z</time>
      </trkpt>
      <trkpt lat="32.965297037735581" lon="-3.951507015153766">
        <ele>997.70000000000005</ele>
        <time>2003-04-18T19:45:45Z</time>
      </trkpt>
      <trkpt lat="32.965432992205024" lon="-3.951510032638907">
        <ele>997.5</ele>
        <time>2003-04-18T19:45:46Z</time>
      </trkpt>
      <trkpt lat="32.965570036321878" lon="-3.951501986011863">
        <ele>997.39999999999998</ele>
        <time>2003-04-18T19:45:46Z</time>
      </trkpt>
      <trkpt lat="32.966074962168932" lon="-3.951420010998845">
        <ele>996.89999999999998</ele>
        <time>2003-04-18T19:45:50Z</time>
      </trkpt>
      <trkpt lat="32.966304961591959" lon="-3.951316997408867">
        <ele>996.70000000000005</ele>
        <time>2003-04-18T19:45:53Z</time>
      </trkpt>
      <trkpt lat="32.96673696488142" lon="-3.951167967170477">
        <ele>996.20000000000005</ele>
        <time>2003-04-18T19:45:57Z</time>
      </trkpt>
      <trkpt lat="32.966962018981576" lon="-3.951135026291013">
        <ele>995.70000000000005</ele>
        <time>2003-04-18T19:45:58Z</time>
      </trkpt>
      <trkpt lat="32.96707802452147" lon="-3.951141983270645">
        <ele>995.79999999999995</ele>
        <time>2003-04-18T19:45:59Z</time>
      </trkpt>
      <trkpt lat="32.967859972268343" lon="-3.951267041265965">
        <ele>995</ele>
        <time>2003-04-18T19:46:06Z</time>
      </trkpt>
      <trkpt lat="32.968272026628256" lon="-3.951284978538752">
        <ele>994.39999999999998</ele>
        <time>2003-04-18T19:46:09Z</time>
      </trkpt>
      <trkpt lat="32.968397000804543" lon="-3.951297970488668">
        <ele>994.5</ele>
        <time>2003-04-18T19:46:10Z</time>
      </trkpt>
      <trkpt lat="32.968911984935403" lon="-3.951417999342084">
        <ele>993.89999999999998</ele>
        <time>2003-04-18T19:46:13Z</time>
      </trkpt>
      <trkpt lat="32.969842962920666" lon="-3.951635006815195">
        <ele>992.39999999999998</ele>
        <time>2003-04-18T19:46:21Z</time>
      </trkpt>
      <trkpt lat="32.970811994746327" lon="-3.951810020953417">
        <ele>991.39999999999998</ele>
        <time>2003-04-18T19:46:28Z</time>
      </trkpt>
      <trkpt lat="32.97176300548017" lon="-3.952059969305992">
        <ele>990.5</ele>
        <time>2003-04-18T19:46:35Z</time>
      </trkpt>
      <trkpt lat="32.972297016531229" lon="-3.952298015356064">
        <ele>989.89999999999998</ele>
        <time>2003-04-18T19:46:39Z</time>
      </trkpt>
      <trkpt lat="32.973209973424673" lon="-3.952790033072233">
        <ele>988.5</ele>
        <time>2003-04-18T19:46:45Z</time>
      </trkpt>
      <trkpt lat="32.97412795946002" lon="-3.953350028023124">
        <ele>987.79999999999995</ele>
        <time>2003-04-18T19:46:52Z</time>
      </trkpt>
      <trkpt lat="32.975013004615903" lon="-3.953878004103899">
        <ele>986.5</ele>
        <time>2003-04-18T19:47:00Z</time>
      </trkpt>
      <trkpt lat="32.975411983206868" lon="-3.954087970778346">
        <ele>985.89999999999998</ele>
        <time>2003-04-18T19:47:03Z</time>
      </trkpt>
      <trkpt lat="32.97582202591002" lon="-3.954219985753298">
        <ele>985.79999999999995</ele>
        <time>2003-04-18T19:47:06Z</time>
      </trkpt>
      <trkpt lat="32.976616965606809" lon="-3.954436993226409">
        <ele>985.20000000000005</ele>
        <time>2003-04-18T19:47:11Z</time>
      </trkpt>
      <trkpt lat="32.977143013849854" lon="-3.954642014577985">
        <ele>984.5</ele>
        <time>2003-04-18T19:47:16Z</time>
      </trkpt>
      <trkpt lat="32.978090001270175" lon="-3.954879976809025">
        <ele>983.29999999999995</ele>
        <time>2003-04-18T19:47:23Z</time>
      </trkpt>
      <trkpt lat="32.978491997346282" lon="-3.954926999285817">
        <ele>982.79999999999995</ele>
        <time>2003-04-18T19:47:26Z</time>
      </trkpt>
      <trkpt lat="32.978634992614388" lon="-3.954924987629056">
        <ele>982.60000000000002</ele>
        <time>2003-04-18T19:47:27Z</time>
      </trkpt>
      <trkpt lat="32.979622967541218" lon="-3.954870002344251">
        <ele>981</ele>
        <time>2003-04-18T19:47:34Z</time>
      </trkpt>
      <trkpt lat="32.980582024902105" lon="-3.954903027042747">
        <ele>980.10000000000002</ele>
        <time>2003-04-18T19:47:41Z</time>
      </trkpt>
      <trkpt lat="32.981567988172174" lon="-3.954952983185649">
        <ele>979</ele>
        <time>2003-04-18T19:47:49Z</time>
      </trkpt>
      <trkpt lat="32.982595022767782" lon="-3.955054990947247">
        <ele>978</ele>
        <time>2003-04-18T19:47:56Z</time>
      </trkpt>
      <trkpt lat="32.982744975015521" lon="-3.955052979290485">
        <ele>977.89999999999998</ele>
        <time>2003-04-18T19:47:57Z</time>
      </trkpt>
      <trkpt lat="32.983645023778081" lon="-3.955028001219034">
        <ele>977</ele>
        <time>2003-04-18T19:48:02Z</time>
      </trkpt>
      <trkpt lat="32.984051965177059" lon="-3.955033030360937">
        <ele>976.5</ele>
        <time>2003-04-18T19:48:05Z</time>
      </trkpt>
      <trkpt lat="32.984970035031438" lon="-3.955164961516857">
        <ele>975.70000000000005</ele>
        <time>2003-04-18T19:48:13Z</time>
      </trkpt>
      <trkpt lat="32.985358033329248" lon="-3.955224975943565">
        <ele>975.10000000000002</ele>
        <time>2003-04-18T19:48:16Z</time>
      </trkpt>
      <trkpt lat="32.985502034425735" lon="-3.955224975943565">
        <ele>975.20000000000005</ele>
        <time>2003-04-18T19:48:17Z</time>
      </trkpt>
      <trkpt lat="32.985647963359952" lon="-3.95523302257061">
        <ele>975</ele>
        <time>2003-04-18T19:48:17Z</time>
      </trkpt>
      <trkpt lat="32.986548012122512" lon="-3.955309968441725">
        <ele>974.10000000000002</ele>
        <time>2003-04-18T19:48:24Z</time>
      </trkpt>
      <trkpt lat="32.987517965957522" lon="-3.955424968153238">
        <ele>973.20000000000005</ele>
        <time>2003-04-18T19:48:31Z</time>
      </trkpt>
      <trkpt lat="32.988032028079033" lon="-3.955484982579947">
        <ele>972.29999999999995</ele>
        <time>2003-04-18T19:48:35Z</time>
      </trkpt>
      <trkpt lat="32.988148033618927" lon="-3.955480037257075">
        <ele>972.20000000000005</ele>
        <time>2003-04-18T19:48:36Z</time>
      </trkpt>
      <trkpt lat="32.988505018875003" lon="-3.955499986186624">
        <ele>971.29999999999995</ele>
        <time>2003-04-18T19:48:39Z</time>
      </trkpt>
      <trkpt lat="32.989323008805513" lon="-3.955711964517832">
        <ele>970.89999999999998</ele>
        <time>2003-04-18T19:48:44Z</time>
      </trkpt>
      <trkpt lat="32.989536998793483" lon="-3.955786982551217">
        <ele>970.70000000000005</ele>
        <time>2003-04-18T19:48:47Z</time>
      </trkpt>
      <trkpt lat="32.989755012094975" lon="-3.955841967836022">
        <ele>970.39999999999998</ele>
        <time>2003-04-18T19:48:48Z</time>
      </trkpt>
      <trkpt lat="32.990294974297285" lon="-3.955922015011311">
        <ele>970</ele>
        <time>2003-04-18T19:48:52Z</time>
      </trkpt>
      <trkpt lat="32.991282027214766" lon="-3.956159977242351">
        <ele>969</ele>
        <time>2003-04-18T19:48:59Z</time>
      </trkpt>
      <trkpt lat="32.992218034341931" lon="-3.956367010250688">
        <ele>967.89999999999998</ele>
        <time>2003-04-18T19:49:07Z</time>
      </trkpt>
      <trkpt lat="32.993182959035039" lon="-3.956598015502095">
        <ele>966.89999999999998</ele>
        <time>2003-04-18T19:49:14Z</time>
      </trkpt>
      <trkpt lat="32.994132963940501" lon="-3.956752996891737">
        <ele>966.10000000000002</ele>
        <time>2003-04-18T19:49:21Z</time>
      </trkpt>
      <trkpt lat="32.995086992159486" lon="-3.956960029900074">
        <ele>964.79999999999995</ele>
        <time>2003-04-18T19:49:27Z</time>
      </trkpt>
      <trkpt lat="32.99576299265027" lon="-3.957160022109747">
        <ele>964</ele>
        <time>2003-04-18T19:49:33Z</time>
      </trkpt>
      <trkpt lat="32.996189966797829" lon="-3.957375017926097">
        <ele>963.39999999999998</ele>
        <time>2003-04-18T19:49:35Z</time>
      </trkpt>
      <trkpt lat="32.997120022773743" lon="-3.957835016772151">
        <ele>962.10000000000002</ele>
        <time>2003-04-18T19:49:42Z</time>
      </trkpt>
      <trkpt lat="32.997529981657863" lon="-3.957942975685">
        <ele>961.70000000000005</ele>
        <time>2003-04-18T19:49:46Z</time>
      </trkpt>
      <trkpt lat="32.998497001826763" lon="-3.958250004798174">
        <ele>960.70000000000005</ele>
        <time>2003-04-18T19:49:53Z</time>
      </trkpt>
      <trkpt lat="32.999422028660774" lon="-3.958577988669276">
        <ele>960</ele>
        <time>2003-04-18T19:50:00Z</time>
      </trkpt>
      <trkpt lat="33.000474963337183" lon="-3.958882000297308">
        <ele>959.20000000000005</ele>
        <time>2003-04-18T19:50:08Z</time>
      </trkpt>
      <trkpt lat="33.001133026555181" lon="-3.959032958373427">
        <ele>958.5</ele>
        <time>2003-04-18T19:50:13Z</time>
      </trkpt>
      <trkpt lat="33.002087976783514" lon="-3.959127003327012">
        <ele>957.5</ele>
        <time>2003-04-18T19:50:20Z</time>
      </trkpt>
      <trkpt lat="33.002364998683333" lon="-3.959130020812154">
        <ele>957.60000000000002</ele>
        <time>2003-04-18T19:50:21Z</time>
      </trkpt>
      <trkpt lat="33.002630034461617" lon="-3.959145024418831">
        <ele>956.89999999999998</ele>
        <time>2003-04-18T19:50:24Z</time>
      </trkpt>
      <trkpt lat="33.002885011956096" lon="-3.959222976118326">
        <ele>956.70000000000005</ele>
        <time>2003-04-18T19:50:25Z</time>
      </trkpt>
      <trkpt lat="33.00315298140049" lon="-3.959269998595119">
        <ele>956.29999999999995</ele>
        <time>2003-04-18T19:50:28Z</time>
      </trkpt>
      <trkpt lat="33.003399996086955" lon="-3.959349961951375">
        <ele>955.79999999999995</ele>
        <time>2003-04-18T19:50:29Z</time>
      </trkpt>
      <trkpt lat="33.003632007166743" lon="-3.959481976926327">
        <ele>955.70000000000005</ele>
        <time>2003-04-18T19:50:32Z</time>
      </trkpt>
      <trkpt lat="33.004023022949696" lon="-3.959681969136">
        <ele>955.5</ele>
        <time>2003-04-18T19:50:35Z</time>
      </trkpt>
      <trkpt lat="33.004170041531324" lon="-3.959709964692593">
        <ele>955.5</ele>
        <time>2003-04-18T19:50:36Z</time>
      </trkpt>
      <trkpt lat="33.004727018997073" lon="-3.959872992709279">
        <ele>955.10000000000002</ele>
        <time>2003-04-18T19:50:40Z</time>
      </trkpt>
      <trkpt lat="33.005092972889543" lon="-3.959990004077554">
        <ele>955.89999999999998</ele>
        <time>2003-04-18T19:50:43Z</time>
      </trkpt>
      <trkpt lat="33.005618015304208" lon="-3.960135011002421">
        <ele>955.60000000000002</ele>
        <time>2003-04-18T19:50:47Z</time>
      </trkpt>
      <trkpt lat="33.006287980824709" lon="-3.960341960191727">
        <ele>955.29999999999995</ele>
        <time>2003-04-18T19:50:51Z</time>
      </trkpt>
      <trkpt lat="33.007122986018658" lon="-3.96049995906651">
        <ele>953.89999999999998</ele>
        <time>2003-04-18T19:50:58Z</time>
      </trkpt>
      <trkpt lat="33.007485000416636" lon="-3.960616970434785">
        <ele>953.10000000000002</ele>
        <time>2003-04-18T19:51:00Z</time>
      </trkpt>
      <trkpt lat="33.007714999839664" lon="-3.96062501706183">
        <ele>953.20000000000005</ele>
        <time>2003-04-18T19:51:03Z</time>
      </trkpt>
      <trkpt lat="33.007824970409274" lon="-3.960642032325268">
        <ele>953</ele>
        <time>2003-04-18T19:51:03Z</time>
      </trkpt>
      <trkpt lat="33.007935024797916" lon="-3.960689976811409">
        <ele>952.70000000000005</ele>
        <time>2003-04-18T19:51:05Z</time>
      </trkpt>
      <trkpt lat="33.008427964523435" lon="-3.960892986506224">
        <ele>951.89999999999998</ele>
        <time>2003-04-18T19:51:09Z</time>
      </trkpt>
      <trkpt lat="33.008553022518754" lon="-3.960902038961649">
        <ele>952.10000000000002</ele>
        <time>2003-04-18T19:51:10Z</time>
      </trkpt>
      <trkpt lat="33.008680008351803" lon="-3.960902038961649">
        <ele>951.79999999999995</ele>
        <time>2003-04-18T19:51:10Z</time>
      </trkpt>
      <trkpt lat="33.008808000013232" lon="-3.960913019254804">
        <ele>951.89999999999998</ele>
        <time>2003-04-18T19:51:11Z</time>
      </trkpt>
      <trkpt lat="33.009304963052273" lon="-3.96103497594595">
        <ele>950.89999999999998</ele>
        <time>2003-04-18T19:51:15Z</time>
      </trkpt>
      <trkpt lat="33.009884990751743" lon="-3.961281990632415">
        <ele>950.10000000000002</ele>
        <time>2003-04-18T19:51:21Z</time>
      </trkpt>
      <trkpt lat="33.010075008496642" lon="-3.961362037807703">
        <ele>949.89999999999998</ele>
        <time>2003-04-18T19:51:22Z</time>
      </trkpt>
      <trkpt lat="33.01017701625824" lon="-3.961358014494181">
        <ele>950.29999999999995</ele>
        <time>2003-04-18T19:51:23Z</time>
      </trkpt>
      <trkpt lat="33.010512962937355" lon="-3.961360026150942">
        <ele>949.5</ele>
        <time>2003-04-18T19:51:26Z</time>
      </trkpt>
      <trkpt lat="33.010625028982759" lon="-3.961412999778986">
        <ele>949.29999999999995</ele>
        <time>2003-04-18T19:51:27Z</time>
      </trkpt>
      <trkpt lat="33.011076981201768" lon="-3.961617015302181">
        <ele>949.10000000000002</ele>
        <time>2003-04-18T19:51:32Z</time>
      </trkpt>
      <trkpt lat="33.011476965621114" lon="-3.96165699698031">
        <ele>948.79999999999995</ele>
        <time>2003-04-18T19:51:34Z</time>
      </trkpt>
      <trkpt lat="33.011747030541301" lon="-3.961703013628721">
        <ele>949.10000000000002</ele>
        <time>2003-04-18T19:51:37Z</time>
      </trkpt>
      <trkpt lat="33.011873010545969" lon="-3.961756993085146">
        <ele>949</ele>
        <time>2003-04-18T19:51:37Z</time>
      </trkpt>
      <trkpt lat="33.012229995802045" lon="-3.961860006675124">
        <ele>948</ele>
        <time>2003-04-18T19:51:41Z</time>
      </trkpt>
      <trkpt lat="33.012601984664798" lon="-3.96193795837462">
        <ele>947.89999999999998</ele>
        <time>2003-04-18T19:51:44Z</time>
      </trkpt>
      <trkpt lat="33.013083022087812" lon="-3.962057987228036">
        <ele>946.89999999999998</ele>
        <time>2003-04-18T19:51:48Z</time>
      </trkpt>
      <trkpt lat="33.013287959620357" lon="-3.962110038846731">
        <ele>946.89999999999998</ele>
        <time>2003-04-18T19:51:49Z</time>
      </trkpt>
      <trkpt lat="33.013758016750216" lon="-3.962208023294807">
        <ele>946.29999999999995</ele>
        <time>2003-04-18T19:51:53Z</time>
      </trkpt>
      <trkpt lat="33.014197982847691" lon="-3.962254961952567">
        <ele>946.39999999999998</ele>
        <time>2003-04-18T19:51:57Z</time>
      </trkpt>
      <trkpt lat="33.014297978952527" lon="-3.962322017177939">
        <ele>946.20000000000005</ele>
        <time>2003-04-18T19:51:59Z</time>
      </trkpt>
      <trkpt lat="33.014520015567541" lon="-3.962412960827351">
        <ele>945.5</ele>
        <time>2003-04-18T19:52:01Z</time>
      </trkpt>
      <trkpt lat="33.014767030254006" lon="-3.962453026324511">
        <ele>945.10000000000002</ele>
        <time>2003-04-18T19:52:03Z</time>
      </trkpt>
      <trkpt lat="33.015014966949821" lon="-3.96251798607409">
        <ele>944.5</ele>
        <time>2003-04-18T19:52:04Z</time>
      </trkpt>
      <trkpt lat="33.015781994909048" lon="-3.962698029354215">
        <ele>943.70000000000005</ele>
        <time>2003-04-18T19:52:11Z</time>
      </trkpt>
      <trkpt lat="33.016535025089979" lon="-3.962827026844025">
        <ele>942.60000000000002</ele>
        <time>2003-04-18T19:52:16Z</time>
      </trkpt>
      <trkpt lat="33.016869965940714" lon="-3.962915036827326">
        <ele>942.20000000000005</ele>
        <time>2003-04-18T19:52:20Z</time>
      </trkpt>
      <trkpt lat="33.017421998083591" lon="-3.963058032095432">
        <ele>941.29999999999995</ele>
        <time>2003-04-18T19:52:24Z</time>
      </trkpt>
      <trkpt lat="33.017625007778406" lon="-3.963155010715127">
        <ele>941.60000000000002</ele>
        <time>2003-04-18T19:52:27Z</time>
      </trkpt>
      <trkpt lat="33.017815025523305" lon="-3.963289959356189">
        <ele>941.20000000000005</ele>
        <time>2003-04-18T19:52:28Z</time>
      </trkpt>
      <trkpt lat="33.01857702434063" lon="-3.963902005925775">
        <ele>940.10000000000002</ele>
        <time>2003-04-18T19:52:36Z</time>
      </trkpt>
      <trkpt lat="33.01945997402072" lon="-3.964523021131754">
        <ele>938.89999999999998</ele>
        <time>2003-04-18T19:52:44Z</time>
      </trkpt>
      <trkpt lat="33.019837997853756" lon="-3.964662998914719">
        <ele>938.10000000000002</ele>
        <time>2003-04-18T19:52:47Z</time>
      </trkpt>
      <trkpt lat="33.020360022783279" lon="-3.964750003069639">
        <ele>937.5</ele>
        <time>2003-04-18T19:52:51Z</time>
      </trkpt>
      <trkpt lat="33.021352021023631" lon="-3.964829966425896">
        <ele>936.10000000000002</ele>
        <time>2003-04-18T19:52:59Z</time>
      </trkpt>
      <trkpt lat="33.021942023187876" lon="-3.964834995567799">
        <ele>935.29999999999995</ele>
        <time>2003-04-18T19:53:05Z</time>
      </trkpt>
      <trkpt lat="33.022927986457944" lon="-3.964742962270975">
        <ele>934.10000000000002</ele>
        <time>2003-04-18T19:53:13Z</time>
      </trkpt>
      <trkpt lat="33.023181958124042" lon="-3.964753020554781">
        <ele>933.70000000000005</ele>
        <time>2003-04-18T19:53:14Z</time>
      </trkpt>
      <trkpt lat="33.024188037961721" lon="-3.964938009157777">
        <ele>932.89999999999998</ele>
        <time>2003-04-18T19:53:22Z</time>
      </trkpt>
      <trkpt lat="33.024412002414465" lon="-3.96505300886929">
        <ele>933</ele>
        <time>2003-04-18T19:53:25Z</time>
      </trkpt>
      <trkpt lat="33.024796983227134" lon="-3.965276973322034">
        <ele>932.29999999999995</ele>
        <time>2003-04-18T19:53:29Z</time>
      </trkpt>
      <trkpt lat="33.024911982938647" lon="-3.96528703160584">
        <ele>933</ele>
        <time>2003-04-18T19:53:29Z</time>
      </trkpt>
      <trkpt lat="33.025032011792064" lon="-3.96528703160584">
        <ele>933</ele>
        <time>2003-04-18T19:53:30Z</time>
      </trkpt>
      <trkpt lat="33.02515497431159" lon="-3.96528996527195">
        <ele>932.5</ele>
        <time>2003-04-18T19:53:32Z</time>
      </trkpt>
      <trkpt lat="33.025275003165007" lon="-3.965321984142065">
        <ele>932.60000000000002</ele>
        <time>2003-04-18T19:53:33Z</time>
      </trkpt>
      <trkpt lat="33.025497039780021" lon="-3.965427009388804">
        <ele>933.10000000000002</ele>
        <time>2003-04-18T19:53:34Z</time>
      </trkpt>
      <trkpt lat="33.025610027834773" lon="-3.965451987460256">
        <ele>932.79999999999995</ele>
        <time>2003-04-18T19:53:36Z</time>
      </trkpt>
      <trkpt lat="33.025727039203048" lon="-3.965452993288636">
        <ele>932.39999999999998</ele>
        <time>2003-04-18T19:53:37Z</time>
      </trkpt>
      <trkpt lat="33.02584296092391" lon="-3.96544000133872">
        <ele>932.79999999999995</ele>
        <time>2003-04-18T19:53:37Z</time>
      </trkpt>
      <trkpt lat="33.026058040559292" lon="-3.965467996895313">
        <ele>932.29999999999995</ele>
        <time>2003-04-18T19:53:40Z</time>
      </trkpt>
      <trkpt lat="33.026273036375642" lon="-3.965560030192137">
        <ele>932.29999999999995</ele>
        <time>2003-04-18T19:53:41Z</time>
      </trkpt>
      <trkpt lat="33.026619963347912" lon="-3.965645022690296">
        <ele>931.89999999999998</ele>
        <time>2003-04-18T19:53:45Z</time>
      </trkpt>
      <trkpt lat="33.026848034933209" lon="-3.965711994096637">
        <ele>931.60000000000002</ele>
        <time>2003-04-18T19:53:47Z</time>
      </trkpt>
      <trkpt lat="33.027656972408295" lon="-3.965993039309979">
        <ele>930.39999999999998</ele>
        <time>2003-04-18T19:53:53Z</time>
      </trkpt>
      <trkpt lat="33.028297014534473" lon="-3.966178027912974">
        <ele>930.20000000000005</ele>
        <time>2003-04-18T19:53:59Z</time>
      </trkpt>
      <trkpt lat="33.029163032770157" lon="-3.966507017612457">
        <ele>928.89999999999998</ele>
        <time>2003-04-18T19:54:05Z</time>
      </trkpt>
      <trkpt lat="33.029544996097684" lon="-3.96657801233232">
        <ele>928.29999999999995</ele>
        <time>2003-04-18T19:54:08Z</time>
      </trkpt>
      <trkpt lat="33.030037013813853" lon="-3.966787979006767">
        <ele>927.89999999999998</ele>
        <time>2003-04-18T19:54:12Z</time>
      </trkpt>
      <trkpt lat="33.030766993761063" lon="-3.967068018391728">
        <ele>927.5</ele>
        <time>2003-04-18T19:54:19Z</time>
      </trkpt>
      <trkpt lat="33.030991964042187" lon="-3.967072041705251">
        <ele>927.39999999999998</ele>
        <time>2003-04-18T19:54:20Z</time>
      </trkpt>
      <trkpt lat="33.031218023970723" lon="-3.96707003004849">
        <ele>927.5</ele>
        <time>2003-04-18T19:54:23Z</time>
      </trkpt>
      <trkpt lat="33.031439976766706" lon="-3.967115040868521">
        <ele>927.5</ele>
        <time>2003-04-18T19:54:24Z</time>
      </trkpt>
      <trkpt lat="33.031780030578375" lon="-3.967228028923273">
        <ele>927.29999999999995</ele>
        <time>2003-04-18T19:54:27Z</time>
      </trkpt>
      <trkpt lat="33.031980022788048" lon="-3.967343028634787">
        <ele>927.20000000000005</ele>
        <time>2003-04-18T19:54:30Z</time>
      </trkpt>
      <trkpt lat="33.032184960320592" lon="-3.967446964234114">
        <ele>926.60000000000002</ele>
        <time>2003-04-18T19:54:31Z</time>
      </trkpt>
      <trkpt lat="33.032297026365995" lon="-3.967446964234114">
        <ele>926.39999999999998</ele>
        <time>2003-04-18T19:54:32Z</time>
      </trkpt>
      <trkpt lat="33.032402973622084" lon="-3.967428021132946">
        <ele>927.20000000000005</ele>
        <time>2003-04-18T19:54:34Z</time>
      </trkpt>
      <trkpt lat="33.032510010525584" lon="-3.96743799559772">
        <ele>927.20000000000005</ele>
        <time>2003-04-18T19:54:35Z</time>
      </trkpt>
      <trkpt lat="33.032617969438434" lon="-3.967473031952977">
        <ele>926.89999999999998</ele>
        <time>2003-04-18T19:54:35Z</time>
      </trkpt>
      <trkpt lat="33.032828019931912" lon="-3.967570010572672">
        <ele>926.5</ele>
        <time>2003-04-18T19:54:38Z</time>
      </trkpt>
      <trkpt lat="33.033047961071134" lon="-3.967658020555973">
        <ele>926.29999999999995</ele>
        <time>2003-04-18T19:54:39Z</time>
      </trkpt>
      <trkpt lat="33.033503014594316" lon="-3.967869998887181">
        <ele>926.20000000000005</ele>
        <time>2003-04-18T19:54:43Z</time>
      </trkpt>
      <trkpt lat="33.033707030117512" lon="-3.96795297972858">
        <ele>926.79999999999995</ele>
        <time>2003-04-18T19:54:46Z</time>
      </trkpt>
      <trkpt lat="33.033923031762242" lon="-3.967977035790682">
        <ele>926.60000000000002</ele>
        <time>2003-04-18T19:54:47Z</time>
      </trkpt>
      <trkpt lat="33.03402503952384" lon="-3.967964965850115">
        <ele>926.20000000000005</ele>
        <time>2003-04-18T19:54:49Z</time>
      </trkpt>
      <trkpt lat="33.034223020076752" lon="-3.96799698472023">
        <ele>926.29999999999995</ele>
        <time>2003-04-18T19:54:50Z</time>
      </trkpt>
      <trkpt lat="33.034299965947866" lon="-3.968067979440093">
        <ele>926.89999999999998</ele>
        <time>2003-04-18T19:54:51Z</time>
      </trkpt>
      <trkpt lat="33.034365009516478" lon="-3.968150038272142">
        <ele>927</ele>
        <time>2003-04-18T19:54:53Z</time>
      </trkpt>
      <trkpt lat="33.034538011997938" lon="-3.968217009678483">
        <ele>926.5</ele>
        <time>2003-04-18T19:54:54Z</time>
      </trkpt>
      <trkpt lat="33.03475703112781" lon="-3.968230001628399">
        <ele>926.20000000000005</ele>
        <time>2003-04-18T19:54:57Z</time>
      </trkpt>
      <trkpt lat="33.034872030839324" lon="-3.968245005235076">
        <ele>926</ele>
        <time>2003-04-18T19:54:58Z</time>
      </trkpt>
      <trkpt lat="33.034988036379218" lon="-3.968284986913204">
        <ele>925.89999999999998</ele>
        <time>2003-04-18T19:54:58Z</time>
      </trkpt>
      <trkpt lat="33.035842990502715" lon="-3.968620011582971">
        <ele>925.60000000000002</ele>
        <time>2003-04-18T19:55:06Z</time>
      </trkpt>
      <trkpt lat="33.036063015460968" lon="-3.968731993809342">
        <ele>925.70000000000005</ele>
        <time>2003-04-18T19:55:08Z</time>
      </trkpt>
      <trkpt lat="33.036182038486004" lon="-3.968752026557922">
        <ele>926.10000000000002</ele>
        <time>2003-04-18T19:55:09Z</time>
      </trkpt>
      <trkpt lat="33.036384964361787" lon="-3.96881296299398">
        <ele>926.20000000000005</ele>
        <time>2003-04-18T19:55:10Z</time>
      </trkpt>
      <trkpt lat="33.036595014855266" lon="-3.96891999989748">
        <ele>925.70000000000005</ele>
        <time>2003-04-18T19:55:13Z</time>
      </trkpt>
      <trkpt lat="33.036716971546412" lon="-3.96894003264606">
        <ele>925.20000000000005</ele>
        <time>2003-04-18T19:55:13Z</time>
      </trkpt>
      <trkpt lat="33.037061970680952" lon="-3.969001974910498">
        <ele>925.29999999999995</ele>
        <time>2003-04-18T19:55:17Z</time>
      </trkpt>
      <trkpt lat="33.037260035052896" lon="-3.969113035127521">
        <ele>924.39999999999998</ele>
        <time>2003-04-18T19:55:18Z</time>
      </trkpt>
      <trkpt lat="33.037466984242201" lon="-3.969174977391958">
        <ele>924.10000000000002</ele>
        <time>2003-04-18T19:55:21Z</time>
      </trkpt>
      <trkpt lat="33.037573015317321" lon="-3.969174977391958">
        <ele>924.39999999999998</ele>
        <time>2003-04-18T19:55:21Z</time>
      </trkpt>
      <trkpt lat="33.03767996840179" lon="-3.969144970178604">
        <ele>924.60000000000002</ele>
        <time>2003-04-18T19:55:22Z</time>
      </trkpt>
      <trkpt lat="33.037999989464879" lon="-3.96907196380198">
        <ele>924.29999999999995</ele>
        <time>2003-04-18T19:55:25Z</time>
      </trkpt>
      <trkpt lat="33.038103003054857" lon="-3.969074981287122">
        <ele>924.10000000000002</ele>
        <time>2003-04-18T19:55:26Z</time>
      </trkpt>
      <trkpt lat="33.038293020799756" lon="-3.969123009592295">
        <ele>924.29999999999995</ele>
        <time>2003-04-18T19:55:29Z</time>
      </trkpt>
      <trkpt lat="33.038380024954677" lon="-3.969183024019003">
        <ele>924</ele>
        <time>2003-04-18T19:55:29Z</time>
      </trkpt>
      <trkpt lat="33.038567025214434" lon="-3.969280002638698">
        <ele>924.5</ele>
        <time>2003-04-18T19:55:32Z</time>
      </trkpt>
      <trkpt lat="33.038756959140301" lon="-3.969367006793618">
        <ele>923.79999999999995</ele>
        <time>2003-04-18T19:55:33Z</time>
      </trkpt>
      <trkpt lat="33.038831977173686" lon="-3.969453005120158">
        <ele>923.60000000000002</ele>
        <time>2003-04-18T19:55:35Z</time>
      </trkpt>
      <trkpt lat="33.038889979943633" lon="-3.969546966254711">
        <ele>923.29999999999995</ele>
        <time>2003-04-18T19:55:36Z</time>
      </trkpt>
      <trkpt lat="33.039016965776682" lon="-3.969689961522818">
        <ele>922.5</ele>
        <time>2003-04-18T19:55:37Z</time>
      </trkpt>
      <trkpt lat="33.039110004901886" lon="-3.969724997878075">
        <ele>922.20000000000005</ele>
        <time>2003-04-18T19:55:39Z</time>
      </trkpt>
      <trkpt lat="33.039422985166311" lon="-3.969787023961544">
        <ele>920.60000000000002</ele>
        <time>2003-04-18T19:55:41Z</time>
      </trkpt>
      <trkpt lat="33.039524992927909" lon="-3.969776965677738">
        <ele>920.29999999999995</ele>
        <time>2003-04-18T19:55:43Z</time>
      </trkpt>
      <trkpt lat="33.039622977375984" lon="-3.969747964292765">
        <ele>919.79999999999995</ele>
        <time>2003-04-18T19:55:44Z</time>
      </trkpt>
      <trkpt lat="33.039717022329569" lon="-3.969697002321482">
        <ele>919.29999999999995</ele>
        <time>2003-04-18T19:55:44Z</time>
      </trkpt>
      <trkpt lat="33.039800003170967" lon="-3.969625001773238">
        <ele>918.60000000000002</ele>
        <time>2003-04-18T19:55:45Z</time>
      </trkpt>
      <trkpt lat="33.039878038689494" lon="-3.969532968476415">
        <ele>918</ele>
        <time>2003-04-18T19:55:47Z</time>
      </trkpt>
      <trkpt lat="33.040275005623698" lon="-3.969077998772264">
        <ele>914.79999999999995</ele>
        <time>2003-04-18T19:55:52Z</time>
      </trkpt>
      <trkpt lat="33.040469968691468" lon="-3.968955036252737">
        <ele>913.60000000000002</ele>
        <time>2003-04-18T19:55:53Z</time>
      </trkpt>
      <trkpt lat="33.040580023080111" lon="-3.968927962705493">
        <ele>913.20000000000005</ele>
        <time>2003-04-18T19:55:55Z</time>
      </trkpt>
      <trkpt lat="33.04068798199296" lon="-3.968929974362254">
        <ele>912.79999999999995</ele>
        <time>2003-04-18T19:55:56Z</time>
      </trkpt>
      <trkpt lat="33.040793007239699" lon="-3.968953024595976">
        <ele>912.5</ele>
        <time>2003-04-18T19:55:56Z</time>
      </trkpt>
      <trkpt lat="33.041213024407625" lon="-3.969042962417007">
        <ele>910.20000000000005</ele>
        <time>2003-04-18T19:56:00Z</time>
      </trkpt>
      <trkpt lat="33.041389966383576" lon="-3.969137007370591">
        <ele>909.70000000000005</ele>
        <time>2003-04-18T19:56:03Z</time>
      </trkpt>
      <trkpt lat="33.041464984416962" lon="-3.969200039282441">
        <ele>909.5</ele>
        <time>2003-04-18T19:56:04Z</time>
      </trkpt>
      <trkpt lat="33.041603034362197" lon="-3.969361977651715">
        <ele>908.39999999999998</ele>
        <time>2003-04-18T19:56:06Z</time>
      </trkpt>
      <trkpt lat="33.041785005480051" lon="-3.969658026471734">
        <ele>906.89999999999998</ele>
        <time>2003-04-18T19:56:08Z</time>
      </trkpt>
      <trkpt lat="33.041863040998578" lon="-3.969746958464384">
        <ele>905.89999999999998</ele>
        <time>2003-04-18T19:56:10Z</time>
      </trkpt>
      <trkpt lat="33.042077030986547" lon="-3.970030015334487">
        <ele>905.29999999999995</ele>
        <time>2003-04-18T19:56:12Z</time>
      </trkpt>
      <trkpt lat="33.042122963815928" lon="-3.970149960368872">
        <ele>905.29999999999995</ele>
        <time>2003-04-18T19:56:14Z</time>
      </trkpt>
      <trkpt lat="33.042181972414255" lon="-3.97025004029274">
        <ele>905.20000000000005</ele>
        <time>2003-04-18T19:56:15Z</time>
      </trkpt>
      <trkpt lat="33.04232002235949" lon="-3.970426982268691">
        <ele>905.10000000000002</ele>
        <time>2003-04-18T19:56:18Z</time>
      </trkpt>
      <trkpt lat="33.042586985975504" lon="-3.970662010833621">
        <ele>905</ele>
        <time>2003-04-18T19:56:19Z</time>
      </trkpt>
      <trkpt lat="33.042692011222243" lon="-3.970714984461665">
        <ele>905</ele>
        <time>2003-04-18T19:56:20Z</time>
      </trkpt>
      <trkpt lat="33.042797958478332" lon="-3.97074700333178">
        <ele>905</ele>
        <time>2003-04-18T19:56:22Z</time>
      </trkpt>
      <trkpt lat="33.043099958449602" lon="-3.970889998599887">
        <ele>904.10000000000002</ele>
        <time>2003-04-18T19:56:24Z</time>
      </trkpt>
      <trkpt lat="33.043851982802153" lon="-3.971392996609211">
        <ele>901.89999999999998</ele>
        <time>2003-04-18T19:56:31Z</time>
      </trkpt>
      <trkpt lat="33.044648012146354" lon="-3.971787029877305">
        <ele>899.29999999999995</ele>
        <time>2003-04-18T19:56:38Z</time>
      </trkpt>
      <trkpt lat="33.04526299238205" lon="-3.972042007371783">
        <ele>897.20000000000005</ele>
        <time>2003-04-18T19:56:45Z</time>
      </trkpt>
      <trkpt lat="33.045704970136285" lon="-3.97235699929297">
        <ele>895.79999999999995</ele>
        <time>2003-04-18T19:56:50Z</time>
      </trkpt>
      <trkpt lat="33.045803038403392" lon="-3.972381977364421">
        <ele>895.70000000000005</ele>
        <time>2003-04-18T19:56:50Z</time>
      </trkpt>
      <trkpt lat="33.045976962894201" lon="-3.972471999004483">
        <ele>894.70000000000005</ele>
        <time>2003-04-18T19:56:53Z</time>
      </trkpt>
      <trkpt lat="33.046051980927587" lon="-3.972536958754063">
        <ele>893.70000000000005</ele>
        <time>2003-04-18T19:56:54Z</time>
      </trkpt>
      <trkpt lat="33.046278040856123" lon="-3.97270199842751">
        <ele>893.29999999999995</ele>
        <time>2003-04-18T19:56:57Z</time>
      </trkpt>
      <trkpt lat="33.046968039125204" lon="-3.972978014498949">
        <ele>892.60000000000002</ele>
        <time>2003-04-18T19:57:05Z</time>
      </trkpt>
      <trkpt lat="33.047178005799651" lon="-3.973068036139011">
        <ele>892</ele>
        <time>2003-04-18T19:57:06Z</time>
      </trkpt>
      <trkpt lat="33.047952996566892" lon="-3.973516970872879">
        <ele>894.5</ele>
        <time>2003-04-18T19:57:14Z</time>
      </trkpt>
      <trkpt lat="33.048797976225615" lon="-3.974103033542633">
        <ele>892.70000000000005</ele>
        <time>2003-04-18T19:57:24Z</time>
      </trkpt>
      <trkpt lat="33.048877017572522" lon="-3.974209986627102">
        <ele>892.60000000000002</ele>
        <time>2003-04-18T19:57:25Z</time>
      </trkpt>
      <trkpt lat="33.049018001183867" lon="-3.974385000765324">
        <ele>892.70000000000005</ele>
        <time>2003-04-18T19:57:27Z</time>
      </trkpt>
      <trkpt lat="33.049105005338788" lon="-3.974424982443452">
        <ele>892.60000000000002</ele>
        <time>2003-04-18T19:57:28Z</time>
      </trkpt>
      <trkpt lat="33.049207013100386" lon="-3.974437974393368">
        <ele>892.70000000000005</ele>
        <time>2003-04-18T19:57:28Z</time>
      </trkpt>
      <trkpt lat="33.049427038058639" lon="-3.974500000476837">
        <ele>892.60000000000002</ele>
        <time>2003-04-18T19:57:31Z</time>
      </trkpt>
      <trkpt lat="33.049774970859289" lon="-3.97467995993793">
        <ele>892.89999999999998</ele>
        <time>2003-04-18T19:57:33Z</time>
      </trkpt>
      <trkpt lat="33.050422975793481" lon="-3.975008027628064">
        <ele>894.10000000000002</ele>
        <time>2003-04-18T19:57:40Z</time>
      </trkpt>
      <trkpt lat="33.050564965233207" lon="-3.975096959620714">
        <ele>894.29999999999995</ele>
        <time>2003-04-18T19:57:43Z</time>
      </trkpt>
      <trkpt lat="33.05065699853003" lon="-3.975135013461113">
        <ele>894.29999999999995</ele>
        <time>2003-04-18T19:57:45Z</time>
      </trkpt>
      <trkpt lat="33.050835030153394" lon="-3.97519301623106">
        <ele>894.39999999999998</ele>
        <time>2003-04-18T19:57:56Z</time>
      </trkpt>
      <trkpt lat="33.05095799267292" lon="-3.97521497681737">
        <ele>894.10000000000002</ele>
        <time>2003-04-18T19:57:59Z</time>
      </trkpt>
      <trkpt lat="33.051116997376084" lon="-3.975227968767285">
        <ele>893.70000000000005</ele>
        <time>2003-04-18T19:58:00Z</time>
      </trkpt>
      <trkpt lat="33.051382033154368" lon="-3.975292006507516">
        <ele>891.60000000000002</ele>
        <time>2003-04-18T19:58:03Z</time>
      </trkpt>
      <trkpt lat="33.05151698179543" lon="-3.975417986512184">
        <ele>889.89999999999998</ele>
        <time>2003-04-18T19:58:06Z</time>
      </trkpt>
      <trkpt lat="33.051572972908616" lon="-3.975625019520521">
        <ele>888.79999999999995</ele>
        <time>2003-04-18T19:58:07Z</time>
      </trkpt>
      <trkpt lat="33.051574984565377" lon="-3.9759870339185">
        <ele>887.10000000000002</ele>
        <time>2003-04-18T19:58:11Z</time>
      </trkpt>
      <trkpt lat="33.051525028422475" lon="-3.976452983915806">
        <ele>885.70000000000005</ele>
        <time>2003-04-18T19:58:15Z</time>
      </trkpt>
      <trkpt lat="33.051553023979068" lon="-3.976557003334165">
        <ele>885.60000000000002</ele>
        <time>2003-04-18T19:58:15Z</time>
      </trkpt>
      <trkpt lat="33.051612032577395" lon="-3.97665498778224">
        <ele>885.39999999999998</ele>
        <time>2003-04-18T19:58:17Z</time>
      </trkpt>
      <trkpt lat="33.051686966791749" lon="-3.976750038564205">
        <ele>885.20000000000005</ele>
        <time>2003-04-18T19:58:18Z</time>
      </trkpt>
      <trkpt lat="33.05194303393364" lon="-3.977052038535476">
        <ele>884.60000000000002</ele>
        <time>2003-04-18T19:58:21Z</time>
      </trkpt>
      <trkpt lat="33.052089968696237" lon="-3.977274997159839">
        <ele>884.60000000000002</ele>
        <time>2003-04-18T19:58:22Z</time>
      </trkpt>
      <trkpt lat="33.052132967859507" lon="-3.97738697938621">
        <ele>884.79999999999995</ele>
        <time>2003-04-18T19:58:23Z</time>
      </trkpt>
      <trkpt lat="33.052153000608087" lon="-3.97749301046133">
        <ele>884.79999999999995</ele>
        <time>2003-04-18T19:58:25Z</time>
      </trkpt>
      <trkpt lat="33.052187031134963" lon="-3.977668024599552">
        <ele>884.70000000000005</ele>
        <time>2003-04-18T19:58:26Z</time>
      </trkpt>
      <trkpt lat="33.052234975621104" lon="-3.977828035131097">
        <ele>884.10000000000002</ele>
        <time>2003-04-18T19:58:29Z</time>
      </trkpt>
      <trkpt lat="33.052275041118264" lon="-3.977947980165482">
        <ele>884.5</ele>
        <time>2003-04-18T19:58:30Z</time>
      </trkpt>
      <trkpt lat="33.052582992240787" lon="-3.978950036689639">
        <ele>885.39999999999998</ele>
        <time>2003-04-18T19:58:45Z</time>
      </trkpt>
      <trkpt lat="33.052558014169335" lon="-3.979120021685958">
        <ele>885.70000000000005</ele>
        <time>2003-04-18T19:58:46Z</time>
      </trkpt>
      <trkpt lat="33.052497999742627" lon="-3.979282965883613">
        <ele>885.79999999999995</ele>
        <time>2003-04-18T19:58:49Z</time>
      </trkpt>
      <trkpt lat="33.052387023344636" lon="-3.97942797280848">
        <ele>885.79999999999995</ele>
        <time>2003-04-18T19:58:50Z</time>
      </trkpt>
      <trkpt lat="33.052222989499569" lon="-3.979529980570078">
        <ele>886.20000000000005</ele>
        <time>2003-04-18T19:58:53Z</time>
      </trkpt>
      <trkpt lat="33.051762990653515" lon="-3.979772971943021">
        <ele>887.29999999999995</ele>
        <time>2003-04-18T19:58:57Z</time>
      </trkpt>
      <trkpt lat="33.050869982689619" lon="-3.980176979675889">
        <ele>888.39999999999998</ele>
        <time>2003-04-18T19:59:05Z</time>
      </trkpt>
      <trkpt lat="33.050324991345406" lon="-3.980497000738978">
        <ele>889.10000000000002</ele>
        <time>2003-04-18T19:59:11Z</time>
      </trkpt>
      <trkpt lat="33.050266988575459" lon="-3.980600014328957">
        <ele>889.39999999999998</ele>
        <time>2003-04-18T19:59:12Z</time>
      </trkpt>
      <trkpt lat="33.050107983872294" lon="-3.980988012626767">
        <ele>888.5</ele>
        <time>2003-04-18T19:59:15Z</time>
      </trkpt>
      <trkpt lat="33.05007797665894" lon="-3.981147017329931">
        <ele>888.5</ele>
        <time>2003-04-18T19:59:16Z</time>
      </trkpt>
      <trkpt lat="33.050040006637573" lon="-3.981667030602694">
        <ele>888.39999999999998</ele>
        <time>2003-04-18T19:59:19Z</time>
      </trkpt>
      <trkpt lat="33.049961971119046" lon="-3.982760030776262">
        <ele>888.20000000000005</ele>
        <time>2003-04-18T19:59:24Z</time>
      </trkpt>
      <trkpt lat="33.049894999712706" lon="-3.983060019090772">
        <ele>888.10000000000002</ele>
        <time>2003-04-18T19:59:27Z</time>
      </trkpt>
      <trkpt lat="33.049842026084661" lon="-3.983192034065723">
        <ele>888.10000000000002</ele>
        <time>2003-04-18T19:59:28Z</time>
      </trkpt>
      <trkpt lat="33.04960498586297" lon="-3.983652032911778">
        <ele>887.89999999999998</ele>
        <time>2003-04-18T19:59:32Z</time>
      </trkpt>
      <trkpt lat="33.049501972272992" lon="-3.983835009858012">
        <ele>887.79999999999995</ele>
        <time>2003-04-18T19:59:33Z</time>
      </trkpt>
      <trkpt lat="33.049416979774833" lon="-3.983967024832964">
        <ele>887.79999999999995</ele>
        <time>2003-04-18T19:59:36Z</time>
      </trkpt>
      <trkpt lat="33.0493029858917" lon="-3.984134998172522">
        <ele>887.70000000000005</ele>
        <time>2003-04-18T19:59:39Z</time>
      </trkpt>
      <trkpt lat="33.049231991171837" lon="-3.984240023419261">
        <ele>887.70000000000005</ele>
        <time>2003-04-18T19:59:42Z</time>
      </trkpt>
      <trkpt lat="33.04908799007535" lon="-3.984413025900722">
        <ele>887.89999999999998</ele>
        <time>2003-04-18T19:59:47Z</time>
      </trkpt>
      <trkpt lat="33.048986988142133" lon="-3.984357034787536">
        <ele>887.29999999999995</ele>
        <time>2003-04-18T19:59:50Z</time>
      </trkpt>
      <trkpt lat="33.048933008685708" lon="-3.984225019812584">
        <ele>887.10000000000002</ele>
        <time>2003-04-18T19:59:51Z</time>
      </trkpt>
      <trkpt lat="33.048839969560504" lon="-3.984097028151155">
        <ele>887.10000000000002</ele>
        <time>2003-04-18T19:59:54Z</time>
      </trkpt>
      <trkpt lat="33.048711977899075" lon="-3.983967024832964">
        <ele>886.79999999999995</ele>
        <time>2003-04-18T19:59:55Z</time>
      </trkpt>
      <trkpt lat="33.048562025651336" lon="-3.98387499153614">
        <ele>886.39999999999998</ele>
        <time>2003-04-18T19:59:58Z</time>
      </trkpt>
      <trkpt lat="33.048381982371211" lon="-3.983889995142818">
        <ele>886.10000000000002</ele>
        <time>2003-04-18T19:59:59Z</time>
      </trkpt>
      <trkpt lat="33.047638004645705" lon="-3.984013041481376">
        <ele>886.89999999999998</ele>
        <time>2003-04-18T20:00:07Z</time>
      </trkpt>
      <trkpt lat="33.047457039356232" lon="-3.984123012050986">
        <ele>887.10000000000002</ele>
        <time>2003-04-18T20:00:10Z</time>
      </trkpt>
      <trkpt lat="33.047374980524182" lon="-3.984202975407243">
        <ele>887.20000000000005</ele>
        <time>2003-04-18T20:00:10Z</time>
      </trkpt>
      <trkpt lat="33.047302979975939" lon="-3.984295008704066">
        <ele>887.20000000000005</ele>
        <time>2003-04-18T20:00:11Z</time>
      </trkpt>
      <trkpt lat="33.047187980264425" lon="-3.984483014792204">
        <ele>887.60000000000002</ele>
        <time>2003-04-18T20:00:14Z</time>
      </trkpt>
      <trkpt lat="33.047059988602996" lon="-3.984746960923076">
        <ele>887.89999999999998</ele>
        <time>2003-04-18T20:00:17Z</time>
      </trkpt>
      <trkpt lat="33.04663703776896" lon="-3.985748011618853">
        <ele>890.60000000000002</ele>
        <time>2003-04-18T20:00:29Z</time>
      </trkpt>
      <trkpt lat="33.046562019735575" lon="-3.985946998000145">
        <ele>891</ele>
        <time>2003-04-18T20:00:32Z</time>
      </trkpt>
      <trkpt lat="33.046514997258782" lon="-3.986041964963079">
        <ele>891.5</ele>
        <time>2003-04-18T20:00:36Z</time>
      </trkpt>
      <trkpt lat="33.046420030295849" lon="-3.986046994104981">
        <ele>891.20000000000005</ele>
        <time>2003-04-18T20:00:45Z</time>
      </trkpt>
      <trkpt lat="33.046377031132579" lon="-3.986078007146716">
        <ele>892.39999999999998</ele>
        <time>2003-04-18T20:01:04Z</time>
      </trkpt>
    </trkseg>
  </trk>

  <trk>
    <name>030419</name>
    <extensions>
      <gpxx:TrackExtension xmlns:gpxx="http://www.garmin.com/xmlschemas/GpxExtensions/v3">
        <gpxx:DisplayColor>Red</gpxx:DisplayColor>
      </gpxx:TrackExtension>
    </extensions>
    <trkseg>
      <trkpt lat="33.046064972877502" lon="-3.9860650151968">
        <ele>885</ele>
        <time>2003-04-19T07:09:36Z</time>
      </trkpt>
      <trkpt lat="33.046237975358963" lon="-3.986142966896296">
        <ele>891.10000000000002</ele>
        <time>2003-04-19T07:17:30Z</time>
      </trkpt>
      <trkpt lat="33.046394968405366" lon="-3.98602201603353">
        <ele>891.10000000000002</ele>
        <time>2003-04-19T07:17:59Z</time>
      </trkpt>
      <trkpt lat="33.046552967280149" lon="-3.985968036577106">
        <ele>890.10000000000002</ele>
        <time>2003-04-19T07:18:16Z</time>
      </trkpt>
      <trkpt lat="33.046575011685491" lon="-3.985856976360083">
        <ele>889.60000000000002</ele>
        <time>2003-04-19T07:18:18Z</time>
      </trkpt>
      <trkpt lat="33.046623039990664" lon="-3.985669976100326">
        <ele>889.39999999999998</ele>
        <time>2003-04-19T07:18:20Z</time>
      </trkpt>
      <trkpt lat="33.046818003058434" lon="-3.985152980312705">
        <ele>888.39999999999998</ele>
        <time>2003-04-19T07:18:28Z</time>
      </trkpt>
      <trkpt lat="33.047137018293142" lon="-3.984530037268996">
        <ele>887.39999999999998</ele>
        <time>2003-04-19T07:18:39Z</time>
      </trkpt>
      <trkpt lat="33.047274984419346" lon="-3.984287967905402">
        <ele>887.20000000000005</ele>
        <time>2003-04-19T07:18:42Z</time>
      </trkpt>
      <trkpt lat="33.047393001616001" lon="-3.984142038971186">
        <ele>887</ele>
        <time>2003-04-19T07:18:43Z</time>
      </trkpt>
      <trkpt lat="33.047546977177262" lon="-3.984012035652995">
        <ele>886.79999999999995</ele>
        <time>2003-04-19T07:18:46Z</time>
      </trkpt>
      <trkpt lat="33.047721991315484" lon="-3.98393701761961">
        <ele>886.79999999999995</ele>
        <time>2003-04-19T07:18:47Z</time>
      </trkpt>
      <trkpt lat="33.047813018783927" lon="-3.983925031498075">
        <ele>886.5</ele>
        <time>2003-04-19T07:18:49Z</time>
      </trkpt>
      <trkpt lat="33.04859203286469" lon="-3.983863005414605">
        <ele>886.70000000000005</ele>
        <time>2003-04-19T07:18:58Z</time>
      </trkpt>
      <trkpt lat="33.048714995384216" lon="-3.983963001519442">
        <ele>886.89999999999998</ele>
        <time>2003-04-19T07:18:59Z</time>
      </trkpt>
      <trkpt lat="33.048890009522438" lon="-3.984146984294057">
        <ele>887</ele>
        <time>2003-04-19T07:19:02Z</time>
      </trkpt>
      <trkpt lat="33.048942983150482" lon="-3.984268018975854">
        <ele>887.10000000000002</ele>
        <time>2003-04-19T07:19:05Z</time>
      </trkpt>
      <trkpt lat="33.04898296482861" lon="-3.984442027285695">
        <ele>886.89999999999998</ele>
        <time>2003-04-19T07:19:18Z</time>
      </trkpt>
      <trkpt lat="33.048944994807243" lon="-3.984592985361815">
        <ele>886.89999999999998</ele>
        <time>2003-04-19T07:19:21Z</time>
      </trkpt>
      <trkpt lat="33.048886992037296" lon="-3.984679989516735">
        <ele>886.70000000000005</ele>
        <time>2003-04-19T07:19:24Z</time>
      </trkpt>
      <trkpt lat="33.04876696318388" lon="-3.984791971743107">
        <ele>886.5</ele>
        <time>2003-04-19T07:19:26Z</time>
      </trkpt>
      <trkpt lat="33.048641989007592" lon="-3.984836982563138">
        <ele>887.39999999999998</ele>
        <time>2003-04-19T07:19:29Z</time>
      </trkpt>
      <trkpt lat="33.048488013446331" lon="-3.984857015311718">
        <ele>887.39999999999998</ele>
        <time>2003-04-19T07:19:30Z</time>
      </trkpt>
      <trkpt lat="33.048106972128153" lon="-3.984928010031581">
        <ele>888</ele>
        <time>2003-04-19T07:19:35Z</time>
      </trkpt>
      <trkpt lat="33.047289988026023" lon="-3.985094977542758">
        <ele>890.20000000000005</ele>
        <time>2003-04-19T07:19:43Z</time>
      </trkpt>
      <trkpt lat="33.047131989151239" lon="-3.985192961990833">
        <ele>890.29999999999995</ele>
        <time>2003-04-19T07:19:44Z</time>
      </trkpt>
      <trkpt lat="33.047007014974952" lon="-3.985348027199507">
        <ele>890.5</ele>
        <time>2003-04-19T07:19:47Z</time>
      </trkpt>
      <trkpt lat="33.046912970021367" lon="-3.985545001924038">
        <ele>890.60000000000002</ele>
        <time>2003-04-19T07:19:48Z</time>
      </trkpt>
      <trkpt lat="33.046884974464774" lon="-3.98565798997879">
        <ele>890.89999999999998</ele>
        <time>2003-04-19T07:19:49Z</time>
      </trkpt>
      <trkpt lat="33.046865025535226" lon="-3.985895030200481">
        <ele>891.10000000000002</ele>
        <time>2003-04-19T07:19:52Z</time>
      </trkpt>
      <trkpt lat="33.046878017485142" lon="-3.986002989113331">
        <ele>891.20000000000005</ele>
        <time>2003-04-19T07:19:52Z</time>
      </trkpt>
      <trkpt lat="33.046933002769947" lon="-3.986198036000133">
        <ele>891.60000000000002</ele>
        <time>2003-04-19T07:19:55Z</time>
      </trkpt>
      <trkpt lat="33.0470269639045" lon="-3.986392999067903">
        <ele>891.79999999999995</ele>
        <time>2003-04-19T07:19:56Z</time>
      </trkpt>
      <trkpt lat="33.047443041577935" lon="-3.987345015630126">
        <ele>892</ele>
        <time>2003-04-19T07:20:07Z</time>
      </trkpt>
      <trkpt lat="33.047598022967577" lon="-3.987803002819419">
        <ele>892.29999999999995</ele>
        <time>2003-04-19T07:20:11Z</time>
      </trkpt>
      <trkpt lat="33.047625012695789" lon="-3.987987991422415">
        <ele>892.5</ele>
        <time>2003-04-19T07:20:14Z</time>
      </trkpt>
      <trkpt lat="33.047625012695789" lon="-3.988189995288849">
        <ele>892.70000000000005</ele>
        <time>2003-04-19T07:20:15Z</time>
      </trkpt>
      <trkpt lat="33.047580001875758" lon="-3.988500041887164">
        <ele>892.79999999999995</ele>
        <time>2003-04-19T07:20:19Z</time>
      </trkpt>
      <trkpt lat="33.047512024641037" lon="-3.988700034096837">
        <ele>892.89999999999998</ele>
        <time>2003-04-19T07:20:20Z</time>
      </trkpt>
      <trkpt lat="33.047117991372943" lon="-3.989677028730512">
        <ele>893.60000000000002</ele>
        <time>2003-04-19T07:20:30Z</time>
      </trkpt>
      <trkpt lat="33.046899978071451" lon="-3.990229982882738">
        <ele>894.20000000000005</ele>
        <time>2003-04-19T07:20:34Z</time>
      </trkpt>
      <trkpt lat="33.046524971723557" lon="-3.991215024143457">
        <ele>894.5</ele>
        <time>2003-04-19T07:20:43Z</time>
      </trkpt>
      <trkpt lat="33.046105038374662" lon="-3.992286985740066">
        <ele>895.60000000000002</ele>
        <time>2003-04-19T07:20:53Z</time>
      </trkpt>
      <trkpt lat="33.045985009521246" lon="-3.992568030953407">
        <ele>896.10000000000002</ele>
        <time>2003-04-19T07:20:56Z</time>
      </trkpt>
      <trkpt lat="33.045921977609396" lon="-3.992695016786456">
        <ele>896.29999999999995</ele>
        <time>2003-04-19T07:20:58Z</time>
      </trkpt>
      <trkpt lat="33.045845031738281" lon="-3.992777997627854">
        <ele>896.5</ele>
        <time>2003-04-19T07:21:00Z</time>
      </trkpt>
      <trkpt lat="33.045764984562993" lon="-3.992842035368085">
        <ele>896.89999999999998</ele>
        <time>2003-04-19T07:21:02Z</time>
      </trkpt>
      <trkpt lat="33.04562701843679" lon="-3.99296198040247">
        <ele>896.5</ele>
        <time>2003-04-19T07:21:12Z</time>
      </trkpt>
      <trkpt lat="33.045559963211417" lon="-3.993062982335687">
        <ele>896.89999999999998</ele>
        <time>2003-04-19T07:21:14Z</time>
      </trkpt>
      <trkpt lat="33.045621989294887" lon="-3.99298201315105">
        <ele>901.5</ele>
        <time>2003-04-19T07:24:14Z</time>
      </trkpt>
      <trkpt lat="33.0455850251019" lon="-3.993246965110302">
        <ele>901.60000000000002</ele>
        <time>2003-04-19T07:30:13Z</time>
      </trkpt>
      <trkpt lat="33.045598017051816" lon="-3.993437988683581">
        <ele>892.39999999999998</ele>
        <time>2003-04-19T07:32:50Z</time>
      </trkpt>
      <trkpt lat="33.045646967366338" lon="-3.993591964244843">
        <ele>892.39999999999998</ele>
        <time>2003-04-19T07:33:34Z</time>
      </trkpt>
      <trkpt lat="33.045604974031448" lon="-3.993464978411794">
        <ele>892.39999999999998</ele>
        <time>2003-04-19T07:34:28Z</time>
      </trkpt>
      <trkpt lat="33.045576978474855" lon="-3.993360036984086">
        <ele>892.39999999999998</ele>
        <time>2003-04-19T07:35:33Z</time>
      </trkpt>
      <trkpt lat="33.045734977349639" lon="-3.993194997310638">
        <ele>896.60000000000002</ele>
        <time>2003-04-19T07:39:00Z</time>
      </trkpt>
      <trkpt lat="33.045788034796715" lon="-3.993038004264236">
        <ele>896.60000000000002</ele>
        <time>2003-04-19T07:39:05Z</time>
      </trkpt>
      <trkpt lat="33.045867998152971" lon="-3.992797024548054">
        <ele>896.20000000000005</ele>
        <time>2003-04-19T07:39:13Z</time>
      </trkpt>
      <trkpt lat="33.045957013964653" lon="-3.992550009861589">
        <ele>895.79999999999995</ele>
        <time>2003-04-19T07:39:21Z</time>
      </trkpt>
      <trkpt lat="33.046042006462812" lon="-3.992329984903336">
        <ele>895.10000000000002</ele>
        <time>2003-04-19T07:39:25Z</time>
      </trkpt>
      <trkpt lat="33.04640200920403" lon="-3.99141501635313">
        <ele>893.29999999999995</ele>
        <time>2003-04-19T07:39:39Z</time>
      </trkpt>
      <trkpt lat="33.046732004731894" lon="-3.990550003945828">
        <ele>892.5</ele>
        <time>2003-04-19T07:39:55Z</time>
      </trkpt>
      <trkpt lat="33.046810040250421" lon="-3.990357974544168">
        <ele>892.20000000000005</ele>
        <time>2003-04-19T07:39:59Z</time>
      </trkpt>
      <trkpt lat="33.046967033296824" lon="-3.989933012053371">
        <ele>892.10000000000002</ele>
        <time>2003-04-19T07:40:04Z</time>
      </trkpt>
      <trkpt lat="33.04736802354455" lon="-3.988940007984638">
        <ele>890.89999999999998</ele>
        <time>2003-04-19T07:40:19Z</time>
      </trkpt>
      <trkpt lat="33.047534991055727" lon="-3.988401973620057">
        <ele>891.39999999999998</ele>
        <time>2003-04-19T07:40:26Z</time>
      </trkpt>
      <trkpt lat="33.047574972733855" lon="-3.988161999732256">
        <ele>891.70000000000005</ele>
        <time>2003-04-19T07:40:29Z</time>
      </trkpt>
      <trkpt lat="33.047568015754223" lon="-3.987986985594034">
        <ele>892.20000000000005</ele>
        <time>2003-04-19T07:40:30Z</time>
      </trkpt>
      <trkpt lat="33.04751998744905" lon="-3.987703006714582">
        <ele>891.89999999999998</ele>
        <time>2003-04-19T07:40:34Z</time>
      </trkpt>
      <trkpt lat="33.047429965808988" lon="-3.987430008128285">
        <ele>891.79999999999995</ele>
        <time>2003-04-19T07:40:37Z</time>
      </trkpt>
      <trkpt lat="33.047117991372943" lon="-3.986757025122643">
        <ele>891.60000000000002</ele>
        <time>2003-04-19T07:40:44Z</time>
      </trkpt>
      <trkpt lat="33.046807022765279" lon="-3.985997037962079">
        <ele>892</ele>
        <time>2003-04-19T07:40:50Z</time>
      </trkpt>
      <trkpt lat="33.046792019158602" lon="-3.985878014937043">
        <ele>892</ele>
        <time>2003-04-19T07:40:52Z</time>
      </trkpt>
      <trkpt lat="33.046790007501841" lon="-3.98576301522553">
        <ele>892.39999999999998</ele>
        <time>2003-04-19T07:40:53Z</time>
      </trkpt>
      <trkpt lat="33.046802999451756" lon="-3.985648015514016">
        <ele>892</ele>
        <time>2003-04-19T07:40:53Z</time>
      </trkpt>
      <trkpt lat="33.046835018321872" lon="-3.985532009974122">
        <ele>892</ele>
        <time>2003-04-19T07:40:54Z</time>
      </trkpt>
      <trkpt lat="33.046937026083469" lon="-3.985307961702347">
        <ele>892.10000000000002</ele>
        <time>2003-04-19T07:40:57Z</time>
      </trkpt>
      <trkpt lat="33.047008020803332" lon="-3.985211988911033">
        <ele>892.20000000000005</ele>
        <time>2003-04-19T07:40:57Z</time>
      </trkpt>
      <trkpt lat="33.047183034941554" lon="-3.985052984207869">
        <ele>891.89999999999998</ele>
        <time>2003-04-19T07:41:00Z</time>
      </trkpt>
      <trkpt lat="33.047283031046391" lon="-3.985000010579824">
        <ele>891.89999999999998</ele>
        <time>2003-04-19T07:41:01Z</time>
      </trkpt>
      <trkpt lat="33.047385038807988" lon="-3.984964974224567">
        <ele>891.60000000000002</ele>
        <time>2003-04-19T07:41:01Z</time>
      </trkpt>
      <trkpt lat="33.047486962750554" lon="-3.98494703695178">
        <ele>891.39999999999998</ele>
        <time>2003-04-19T07:41:02Z</time>
      </trkpt>
      <trkpt lat="33.0484430026263" lon="-3.984804963693023">
        <ele>889.39999999999998</ele>
        <time>2003-04-19T07:41:13Z</time>
      </trkpt>
      <trkpt lat="33.048999980092049" lon="-3.984719971194863">
        <ele>888.79999999999995</ele>
        <time>2003-04-19T07:41:19Z</time>
      </trkpt>
      <trkpt lat="33.049092013388872" lon="-3.984740003943443">
        <ele>889.10000000000002</ele>
        <time>2003-04-19T07:41:20Z</time>
      </trkpt>
      <trkpt lat="33.049278007820249" lon="-3.984821978956461">
        <ele>889.5</ele>
        <time>2003-04-19T07:41:21Z</time>
      </trkpt>
      <trkpt lat="33.049447992816567" lon="-3.984964974224567">
        <ele>889.70000000000005</ele>
        <time>2003-04-19T07:41:24Z</time>
      </trkpt>
      <trkpt lat="33.050173027440906" lon="-3.985652960836887">
        <ele>888.10000000000002</ele>
        <time>2003-04-19T07:41:33Z</time>
      </trkpt>
      <trkpt lat="33.050267994403839" lon="-3.985681962221861">
        <ele>887.79999999999995</ele>
        <time>2003-04-19T07:41:35Z</time>
      </trkpt>
      <trkpt lat="33.050373019650578" lon="-3.98567802272737">
        <ele>887.70000000000005</ele>
        <time>2003-04-19T07:41:36Z</time>
      </trkpt>
      <trkpt lat="33.050481984391809" lon="-3.985654972493649">
        <ele>887.79999999999995</ele>
        <time>2003-04-19T07:41:36Z</time>
      </trkpt>
      <trkpt lat="33.051369963213801" lon="-3.985569979995489">
        <ele>893.79999999999995</ele>
        <time>2003-04-19T07:41:44Z</time>
      </trkpt>
      <trkpt lat="33.051474988460541" lon="-3.985581966117024">
        <ele>894.60000000000002</ele>
        <time>2003-04-19T07:41:46Z</time>
      </trkpt>
      <trkpt lat="33.05158001370728" lon="-3.985618008300662">
        <ele>895.39999999999998</ele>
        <time>2003-04-19T07:41:47Z</time>
      </trkpt>
      <trkpt lat="33.051780005916953" lon="-3.98572001606226">
        <ele>896.89999999999998</ele>
        <time>2003-04-19T07:41:48Z</time>
      </trkpt>
      <trkpt lat="33.051868015900254" lon="-3.985796961933374">
        <ele>898</ele>
        <time>2003-04-19T07:41:50Z</time>
      </trkpt>
      <trkpt lat="33.052647029981017" lon="-3.986449996009469">
        <ele>906.29999999999995</ele>
        <time>2003-04-19T07:41:58Z</time>
      </trkpt>
      <trkpt lat="33.053435012698174" lon="-3.987103030085564">
        <ele>914.39999999999998</ele>
        <time>2003-04-19T07:42:06Z</time>
      </trkpt>
      <trkpt lat="33.054198017343879" lon="-3.987720021978021">
        <ele>919</ele>
        <time>2003-04-19T07:42:13Z</time>
      </trkpt>
      <trkpt lat="33.05491198785603" lon="-3.988350005820394">
        <ele>920.5</ele>
        <time>2003-04-19T07:42:19Z</time>
      </trkpt>
      <trkpt lat="33.055393025279045" lon="-3.988921986892819">
        <ele>921.20000000000005</ele>
        <time>2003-04-19T07:42:25Z</time>
      </trkpt>
      <trkpt lat="33.055908009409904" lon="-3.989805020391941">
        <ele>921.79999999999995</ele>
        <time>2003-04-19T07:42:32Z</time>
      </trkpt>
      <trkpt lat="33.056453000754118" lon="-3.990655029192567">
        <ele>922.60000000000002</ele>
        <time>2003-04-19T07:42:38Z</time>
      </trkpt>
      <trkpt lat="33.056560037657619" lon="-3.990725018084049">
        <ele>922.5</ele>
        <time>2003-04-19T07:42:40Z</time>
      </trkpt>
      <trkpt lat="33.056676965206861" lon="-3.990772040560842">
        <ele>922.79999999999995</ele>
        <time>2003-04-19T07:42:41Z</time>
      </trkpt>
      <trkpt lat="33.056934960186481" lon="-3.990827025845647">
        <ele>922.79999999999995</ele>
        <time>2003-04-19T07:42:42Z</time>
      </trkpt>
      <trkpt lat="33.057075021788478" lon="-3.990827025845647">
        <ele>923.10000000000002</ele>
        <time>2003-04-19T07:42:44Z</time>
      </trkpt>
      <trkpt lat="33.057220028713346" lon="-3.990800036117435">
        <ele>923.29999999999995</ele>
        <time>2003-04-19T07:42:45Z</time>
      </trkpt>
      <trkpt lat="33.058101972565055" lon="-3.990552015602589">
        <ele>924.20000000000005</ele>
        <time>2003-04-19T07:42:50Z</time>
      </trkpt>
      <trkpt lat="33.059002021327615" lon="-3.990312041714788">
        <ele>924.70000000000005</ele>
        <time>2003-04-19T07:42:57Z</time>
      </trkpt>
      <trkpt lat="33.060022015124559" lon="-3.990052035078406">
        <ele>924.60000000000002</ele>
        <time>2003-04-19T07:43:03Z</time>
      </trkpt>
      <trkpt lat="33.061060030013323" lon="-3.989779958501458">
        <ele>924.10000000000002</ele>
        <time>2003-04-19T07:43:08Z</time>
      </trkpt>
      <trkpt lat="33.062023026868701" lon="-3.989526992663741">
        <ele>923.70000000000005</ele>
        <time>2003-04-19T07:43:15Z</time>
      </trkpt>
      <trkpt lat="33.062812015414238" lon="-3.989262040704489">
        <ele>922.70000000000005</ele>
        <time>2003-04-19T07:43:20Z</time>
      </trkpt>
      <trkpt lat="33.063258016481996" lon="-3.988966997712851">
        <ele>922.29999999999995</ele>
        <time>2003-04-19T07:43:23Z</time>
      </trkpt>
      <trkpt lat="33.064116993919015" lon="-3.98825797252357">
        <ele>922.70000000000005</ele>
        <time>2003-04-19T07:43:28Z</time>
      </trkpt>
      <trkpt lat="33.064870024099946" lon="-3.987657995894551">
        <ele>922.79999999999995</ele>
        <time>2003-04-19T07:43:34Z</time>
      </trkpt>
      <trkpt lat="33.0657600145787" lon="-3.986952994018793">
        <ele>922.60000000000002</ele>
        <time>2003-04-19T07:43:39Z</time>
      </trkpt>
      <trkpt lat="33.066625026986003" lon="-3.986268024891615">
        <ele>922.5</ele>
        <time>2003-04-19T07:43:46Z</time>
      </trkpt>
      <trkpt lat="33.067496996372938" lon="-3.985567968338728">
        <ele>922.29999999999995</ele>
        <time>2003-04-19T07:43:51Z</time>
      </trkpt>
      <trkpt lat="33.068367037922144" lon="-3.984881993383169">
        <ele>922.20000000000005</ele>
        <time>2003-04-19T07:43:58Z</time>
      </trkpt>
      <trkpt lat="33.069215035066009" lon="-3.984198030084372">
        <ele>921.20000000000005</ele>
        <time>2003-04-19T07:44:03Z</time>
      </trkpt>
      <trkpt lat="33.069941997528076" lon="-3.983707018196583">
        <ele>920.5</ele>
        <time>2003-04-19T07:44:09Z</time>
      </trkpt>
      <trkpt lat="33.070863001048565" lon="-3.983278032392263">
        <ele>919.89999999999998</ele>
        <time>2003-04-19T07:44:14Z</time>
      </trkpt>
      <trkpt lat="33.071873020380735" lon="-3.982862960547209">
        <ele>921.5</ele>
        <time>2003-04-19T07:44:21Z</time>
      </trkpt>
      <trkpt lat="33.072754964232445" lon="-3.982468005269766">
        <ele>922.5</ele>
        <time>2003-04-19T07:44:25Z</time>
      </trkpt>
      <trkpt lat="33.073621988296509" lon="-3.982102973386645">
        <ele>922.39999999999998</ele>
        <time>2003-04-19T07:44:30Z</time>
      </trkpt>
      <trkpt lat="33.074477026239038" lon="-3.981689997017384">
        <ele>919.39999999999998</ele>
        <time>2003-04-19T07:44:36Z</time>
      </trkpt>
      <trkpt lat="33.075327035039663" lon="-3.981105023995042">
        <ele>915.10000000000002</ele>
        <time>2003-04-19T07:44:41Z</time>
      </trkpt>
      <trkpt lat="33.076196992769837" lon="-3.980515021830797">
        <ele>913.29999999999995</ele>
        <time>2003-04-19T07:44:45Z</time>
      </trkpt>
      <trkpt lat="33.077086983248591" lon="-3.979913033545017">
        <ele>912.70000000000005</ele>
        <time>2003-04-19T07:44:51Z</time>
      </trkpt>
      <trkpt lat="33.077916959300637" lon="-3.979339962825179">
        <ele>917.10000000000002</ele>
        <time>2003-04-19T07:44:56Z</time>
      </trkpt>
      <trkpt lat="33.07820001617074" lon="-3.979086996987462">
        <ele>918.20000000000005</ele>
        <time>2003-04-19T07:44:57Z</time>
      </trkpt>
      <trkpt lat="33.078445019200444" lon="-3.978773010894656">
        <ele>918.70000000000005</ele>
        <time>2003-04-19T07:45:00Z</time>
      </trkpt>
      <trkpt lat="33.07901700027287" lon="-3.977913027629256">
        <ele>919.79999999999995</ele>
        <time>2003-04-19T07:45:04Z</time>
      </trkpt>
      <trkpt lat="33.079591998830438" lon="-3.977035023272038">
        <ele>918.39999999999998</ele>
        <time>2003-04-19T07:45:09Z</time>
      </trkpt>
      <trkpt lat="33.080173032358289" lon="-3.976164981722832">
        <ele>916.20000000000005</ele>
        <time>2003-04-19T07:45:15Z</time>
      </trkpt>
      <trkpt lat="33.080787006765604" lon="-3.975246995687485">
        <ele>915.20000000000005</ele>
        <time>2003-04-19T07:45:19Z</time>
      </trkpt>
      <trkpt lat="33.081390000879765" lon="-3.974349964410067">
        <ele>914.20000000000005</ele>
        <time>2003-04-19T07:45:24Z</time>
      </trkpt>
      <trkpt lat="33.081972962245345" lon="-3.973468020558357">
        <ele>913.79999999999995</ele>
        <time>2003-04-19T07:45:30Z</time>
      </trkpt>
      <trkpt lat="33.082590037956834" lon="-3.9725730009377">
        <ele>912.29999999999995</ele>
        <time>2003-04-19T07:45:35Z</time>
      </trkpt>
      <trkpt lat="33.083237959071994" lon="-3.971746964380145">
        <ele>911.10000000000002</ele>
        <time>2003-04-19T07:45:39Z</time>
      </trkpt>
      <trkpt lat="33.083883030340075" lon="-3.970932997763157">
        <ele>909.70000000000005</ele>
        <time>2003-04-19T07:45:45Z</time>
      </trkpt>
      <trkpt lat="33.084512008354068" lon="-3.970124982297421">
        <ele>909.60000000000002</ele>
        <time>2003-04-19T07:45:50Z</time>
      </trkpt>
      <trkpt lat="33.085156995803118" lon="-3.969313027337194">
        <ele>909.89999999999998</ele>
        <time>2003-04-19T07:45:54Z</time>
      </trkpt>
      <trkpt lat="33.085823021829128" lon="-3.968548011034727">
        <ele>910.5</ele>
        <time>2003-04-19T07:45:59Z</time>
      </trkpt>
      <trkpt lat="33.086449988186359" lon="-3.968064961954951">
        <ele>911.39999999999998</ele>
        <time>2003-04-19T07:46:03Z</time>
      </trkpt>
      <trkpt lat="33.087247023358941" lon="-3.967473031952977">
        <ele>913.39999999999998</ele>
        <time>2003-04-19T07:46:09Z</time>
      </trkpt>
      <trkpt lat="33.088037017732859" lon="-3.966912031173706">
        <ele>915</ele>
        <time>2003-04-19T07:46:13Z</time>
      </trkpt>
      <trkpt lat="33.088546972721815" lon="-3.966682031750679">
        <ele>916</ele>
        <time>2003-04-19T07:46:17Z</time>
      </trkpt>
      <trkpt lat="33.089088024571538" lon="-3.96655697375536">
        <ele>916.10000000000002</ele>
        <time>2003-04-19T07:46:20Z</time>
      </trkpt>
      <trkpt lat="33.090142970904708" lon="-3.966410038992763">
        <ele>914.39999999999998</ele>
        <time>2003-04-19T07:46:25Z</time>
      </trkpt>
      <trkpt lat="33.091185009106994" lon="-3.966241981834173">
        <ele>912.20000000000005</ele>
        <time>2003-04-19T07:46:32Z</time>
      </trkpt>
      <trkpt lat="33.092186981812119" lon="-3.966090017929673">
        <ele>911.79999999999995</ele>
        <time>2003-04-19T07:46:37Z</time>
      </trkpt>
      <trkpt lat="33.093200018629432" lon="-3.965909974649549">
        <ele>910.20000000000005</ele>
        <time>2003-04-19T07:46:44Z</time>
      </trkpt>
      <trkpt lat="33.094241973012686" lon="-3.965621972456574">
        <ele>907.39999999999998</ele>
        <time>2003-04-19T07:46:49Z</time>
      </trkpt>
      <trkpt lat="33.095247969031334" lon="-3.965336987748742">
        <ele>906.60000000000002</ele>
        <time>2003-04-19T07:46:56Z</time>
      </trkpt>
      <trkpt lat="33.096217000856996" lon="-3.96507203578949">
        <ele>909.5</ele>
        <time>2003-04-19T07:47:02Z</time>
      </trkpt>
      <trkpt lat="33.097157031297684" lon="-3.964807000011206">
        <ele>911.5</ele>
        <time>2003-04-19T07:47:07Z</time>
      </trkpt>
      <trkpt lat="33.09805003926158" lon="-3.96455998532474">
        <ele>913.79999999999995</ele>
        <time>2003-04-19T07:47:14Z</time>
      </trkpt>
      <trkpt lat="33.099037008360028" lon="-3.964287992566824">
        <ele>913.79999999999995</ele>
        <time>2003-04-19T07:47:19Z</time>
      </trkpt>
      <trkpt lat="33.10007200576365" lon="-3.963984986767173">
        <ele>913.70000000000005</ele>
        <time>2003-04-19T07:47:26Z</time>
      </trkpt>
      <trkpt lat="33.100538039579988" lon="-3.963763033971191">
        <ele>915.20000000000005</ele>
        <time>2003-04-19T07:47:29Z</time>
      </trkpt>
      <trkpt lat="33.100969959050417" lon="-3.963436977937818">
        <ele>916.29999999999995</ele>
        <time>2003-04-19T07:47:31Z</time>
      </trkpt>
      <trkpt lat="33.101789960637689" lon="-3.962777992710471">
        <ele>917.39999999999998</ele>
        <time>2003-04-19T07:47:38Z</time>
      </trkpt>
      <trkpt lat="33.10262999497354" lon="-3.962123030796647">
        <ele>915.89999999999998</ele>
        <time>2003-04-19T07:47:43Z</time>
      </trkpt>
      <trkpt lat="33.103495007380843" lon="-3.961436972022057">
        <ele>914</ele>
        <time>2003-04-19T07:47:50Z</time>
      </trkpt>
      <trkpt lat="33.10430302284658" lon="-3.96079701371491">
        <ele>914.70000000000005</ele>
        <time>2003-04-19T07:47:56Z</time>
      </trkpt>
      <trkpt lat="33.105107014998794" lon="-3.96015303209424">
        <ele>915.5</ele>
        <time>2003-04-19T07:48:01Z</time>
      </trkpt>
      <trkpt lat="33.10591503046453" lon="-3.959522964432836">
        <ele>916.60000000000002</ele>
        <time>2003-04-19T07:48:08Z</time>
      </trkpt>
      <trkpt lat="33.106765039265156" lon="-3.958846963942051">
        <ele>914.60000000000002</ele>
        <time>2003-04-19T07:48:13Z</time>
      </trkpt>
      <trkpt lat="33.107542041689157" lon="-3.958227960392833">
        <ele>915</ele>
        <time>2003-04-19T07:48:18Z</time>
      </trkpt>
      <trkpt lat="33.10834301635623" lon="-3.957588002085686">
        <ele>915.79999999999995</ele>
        <time>2003-04-19T07:48:24Z</time>
      </trkpt>
      <trkpt lat="33.109152037650347" lon="-3.956957012414932">
        <ele>916.60000000000002</ele>
        <time>2003-04-19T07:48:28Z</time>
      </trkpt>
      <trkpt lat="33.109900038689375" lon="-3.956352006644011">
        <ele>916.89999999999998</ele>
        <time>2003-04-19T07:48:33Z</time>
      </trkpt>
      <trkpt lat="33.110302034765482" lon="-3.955893013626337">
        <ele>916.60000000000002</ele>
        <time>2003-04-19T07:48:36Z</time>
      </trkpt>
      <trkpt lat="33.110935036092997" lon="-3.955045016482472">
        <ele>915.79999999999995</ele>
        <time>2003-04-19T07:48:41Z</time>
      </trkpt>
      <trkpt lat="33.111546998843551" lon="-3.954228032380343">
        <ele>914.70000000000005</ele>
        <time>2003-04-19T07:48:47Z</time>
      </trkpt>
      <trkpt lat="33.112162984907627" lon="-3.953397972509265">
        <ele>913.60000000000002</ele>
        <time>2003-04-19T07:48:52Z</time>
      </trkpt>
      <trkpt lat="33.112791962921619" lon="-3.952561961486936">
        <ele>912.60000000000002</ele>
        <time>2003-04-19T07:48:56Z</time>
      </trkpt>
      <trkpt lat="33.113511968404055" lon="-3.951612040400505">
        <ele>911.79999999999995</ele>
        <time>2003-04-19T07:49:03Z</time>
      </trkpt>
      <trkpt lat="33.114116974174976" lon="-3.950800001621246">
        <ele>911.10000000000002</ele>
        <time>2003-04-19T07:49:07Z</time>
      </trkpt>
      <trkpt lat="33.114707982167602" lon="-3.949982011690736">
        <ele>910.10000000000002</ele>
        <time>2003-04-19T07:49:12Z</time>
      </trkpt>
      <trkpt lat="33.115126993507147" lon="-3.949242979288101">
        <ele>909.39999999999998</ele>
        <time>2003-04-19T07:49:17Z</time>
      </trkpt>
      <trkpt lat="33.115529995411634" lon="-3.948191972449422">
        <ele>908.39999999999998</ele>
        <time>2003-04-19T07:49:22Z</time>
      </trkpt>
      <trkpt lat="33.115926962345839" lon="-3.9471569750458">
        <ele>906.89999999999998</ele>
        <time>2003-04-19T07:49:26Z</time>
      </trkpt>
      <trkpt lat="33.116304986178875" lon="-3.946147039532661">
        <ele>906</ele>
        <time>2003-04-19T07:49:31Z</time>
      </trkpt>
      <trkpt lat="33.116683010011911" lon="-3.945146994665265">
        <ele>904.79999999999995</ele>
        <time>2003-04-19T07:49:37Z</time>
      </trkpt>
      <trkpt lat="33.117085006088018" lon="-3.944124989211559">
        <ele>903.60000000000002</ele>
        <time>2003-04-19T07:49:42Z</time>
      </trkpt>
      <trkpt lat="33.117492031306028" lon="-3.943031989037991">
        <ele>902.20000000000005</ele>
        <time>2003-04-19T07:49:46Z</time>
      </trkpt>
      <trkpt lat="33.117911964654922" lon="-3.941945023834705">
        <ele>901.5</ele>
        <time>2003-04-19T07:49:52Z</time>
      </trkpt>
      <trkpt lat="33.118308009579778" lon="-3.940907008945942">
        <ele>901.20000000000005</ele>
        <time>2003-04-19T07:49:57Z</time>
      </trkpt>
      <trkpt lat="33.118725009262562" lon="-3.939972007647157">
        <ele>899.39999999999998</ele>
        <time>2003-04-19T07:50:01Z</time>
      </trkpt>
      <trkpt lat="33.119107978418469" lon="-3.939461968839169">
        <ele>898</ele>
        <time>2003-04-19T07:50:05Z</time>
      </trkpt>
      <trkpt lat="33.11943001113832" lon="-3.939172038808465">
        <ele>896.79999999999995</ele>
        <time>2003-04-19T07:50:06Z</time>
      </trkpt>
      <trkpt lat="33.120297035202384" lon="-3.93847499974072">
        <ele>896.5</ele>
        <time>2003-04-19T07:50:13Z</time>
      </trkpt>
      <trkpt lat="33.1211700104177" lon="-3.937775027006865">
        <ele>896.5</ele>
        <time>2003-04-19T07:50:17Z</time>
      </trkpt>
      <trkpt lat="33.122014990076423" lon="-3.937055021524429">
        <ele>896.39999999999998</ele>
        <time>2003-04-19T07:50:23Z</time>
      </trkpt>
      <trkpt lat="33.122467026114464" lon="-3.936556968837977">
        <ele>897.29999999999995</ele>
        <time>2003-04-19T07:50:25Z</time>
      </trkpt>
      <trkpt lat="33.123106984421611" lon="-3.935649963095784">
        <ele>897.20000000000005</ele>
        <time>2003-04-19T07:50:31Z</time>
      </trkpt>
      <trkpt lat="33.12374702654779" lon="-3.934755027294159">
        <ele>896.39999999999998</ele>
        <time>2003-04-19T07:50:36Z</time>
      </trkpt>
      <trkpt lat="33.124397965148091" lon="-3.933842992410064">
        <ele>896.10000000000002</ele>
        <time>2003-04-19T07:50:40Z</time>
      </trkpt>
      <trkpt lat="33.12501504085958" lon="-3.93297303467989">
        <ele>896</ele>
        <time>2003-04-19T07:50:46Z</time>
      </trkpt>
      <trkpt lat="33.125436985865235" lon="-3.932386972010136">
        <ele>895.70000000000005</ele>
        <time>2003-04-19T07:50:50Z</time>
      </trkpt>
      <trkpt lat="33.126048026606441" lon="-3.931532017886639">
        <ele>895.29999999999995</ele>
        <time>2003-04-19T07:50:55Z</time>
      </trkpt>
      <trkpt lat="33.126646997407079" lon="-3.930695001035929">
        <ele>895</ele>
        <time>2003-04-19T07:51:02Z</time>
      </trkpt>
      <trkpt lat="33.12723197042942" lon="-3.929869970306754">
        <ele>894.89999999999998</ele>
        <time>2003-04-19T07:51:07Z</time>
      </trkpt>
      <trkpt lat="33.127839993685484" lon="-3.929009987041354">
        <ele>894.60000000000002</ele>
        <time>2003-04-19T07:51:14Z</time>
      </trkpt>
      <trkpt lat="33.128314996138215" lon="-3.92818302847445">
        <ele>893.20000000000005</ele>
        <time>2003-04-19T07:51:18Z</time>
      </trkpt>
      <trkpt lat="33.12879703938961" lon="-3.927033031359315">
        <ele>891.60000000000002</ele>
        <time>2003-04-19T07:51:25Z</time>
      </trkpt>
      <trkpt lat="33.129276987165213" lon="-3.925922010093927">
        <ele>890.20000000000005</ele>
        <time>2003-04-19T07:51:30Z</time>
      </trkpt>
      <trkpt lat="33.129724999889731" lon="-3.924842001870275">
        <ele>889.29999999999995</ele>
        <time>2003-04-19T07:51:37Z</time>
      </trkpt>
      <trkpt lat="33.130187010392547" lon="-3.923765011131764">
        <ele>888.79999999999995</ele>
        <time>2003-04-19T07:51:42Z</time>
      </trkpt>
      <trkpt lat="33.130650026723742" lon="-3.922667987644672">
        <ele>887.70000000000005</ele>
        <time>2003-04-19T07:51:49Z</time>
      </trkpt>
      <trkpt lat="33.131178002804518" lon="-3.921595020219684">
        <ele>887</ele>
        <time>2003-04-19T07:51:54Z</time>
      </trkpt>
      <trkpt lat="33.131658034399152" lon="-3.920658007264137">
        <ele>886.60000000000002</ele>
        <time>2003-04-19T07:52:00Z</time>
      </trkpt>
      <trkpt lat="33.132228003814816" lon="-3.919570036232472">
        <ele>885.10000000000002</ele>
        <time>2003-04-19T07:52:05Z</time>
      </trkpt>
      <trkpt lat="33.132708035409451" lon="-3.918637968599796">
        <ele>883.79999999999995</ele>
        <time>2003-04-19T07:52:11Z</time>
      </trkpt>
      <trkpt lat="33.13320298679173" lon="-3.917695004492998">
        <ele>882.29999999999995</ele>
        <time>2003-04-19T07:52:16Z</time>
      </trkpt>
      <trkpt lat="33.133700033649802" lon="-3.916727984324098">
        <ele>881.20000000000005</ele>
        <time>2003-04-19T07:52:20Z</time>
      </trkpt>
      <trkpt lat="33.134206971153617" lon="-3.915877975523472">
        <ele>880.5</ele>
        <time>2003-04-19T07:52:26Z</time>
      </trkpt>
      <trkpt lat="33.134707035496831" lon="-3.915287973359227">
        <ele>880.10000000000002</ele>
        <time>2003-04-19T07:52:30Z</time>
      </trkpt>
      <trkpt lat="33.135446989908814" lon="-3.914623036980629">
        <ele>877.70000000000005</ele>
        <time>2003-04-19T07:52:35Z</time>
      </trkpt>
      <trkpt lat="33.136249976232648" lon="-3.913912000134587">
        <ele>875.79999999999995</ele>
        <time>2003-04-19T07:52:39Z</time>
      </trkpt>
      <trkpt lat="33.137041982263327" lon="-3.913213033229113">
        <ele>873.79999999999995</ele>
        <time>2003-04-19T07:52:44Z</time>
      </trkpt>
      <trkpt lat="33.137795012444258" lon="-3.91254298388958">
        <ele>874.70000000000005</ele>
        <time>2003-04-19T07:52:50Z</time>
      </trkpt>
      <trkpt lat="33.138562962412834" lon="-3.911862960085273">
        <ele>874.29999999999995</ele>
        <time>2003-04-19T07:52:55Z</time>
      </trkpt>
      <trkpt lat="33.139352034777403" lon="-3.911153012886643">
        <ele>872.70000000000005</ele>
        <time>2003-04-19T07:52:59Z</time>
      </trkpt>
      <trkpt lat="33.140157032757998" lon="-3.910448011010885">
        <ele>871</ele>
        <time>2003-04-19T07:53:05Z</time>
      </trkpt>
      <trkpt lat="33.140972005203366" lon="-3.909718031063676">
        <ele>869.60000000000002</ele>
        <time>2003-04-19T07:53:10Z</time>
      </trkpt>
      <trkpt lat="33.141798041760921" lon="-3.90897698700428">
        <ele>871.89999999999998</ele>
        <time>2003-04-19T07:53:14Z</time>
      </trkpt>
      <trkpt lat="33.14263204112649" lon="-3.908238038420677">
        <ele>872</ele>
        <time>2003-04-19T07:53:20Z</time>
      </trkpt>
      <trkpt lat="33.143454976379871" lon="-3.907509986311197">
        <ele>871.10000000000002</ele>
        <time>2003-04-19T07:53:25Z</time>
      </trkpt>
      <trkpt lat="33.144253017380834" lon="-3.906800039112568">
        <ele>869.29999999999995</ele>
        <time>2003-04-19T07:53:29Z</time>
      </trkpt>
      <trkpt lat="33.145045023411512" lon="-3.906096965074539">
        <ele>867.70000000000005</ele>
        <time>2003-04-19T07:53:34Z</time>
      </trkpt>
      <trkpt lat="33.145826971158385" lon="-3.905394980683923">
        <ele>866.39999999999998</ele>
        <time>2003-04-19T07:53:40Z</time>
      </trkpt>
      <trkpt lat="33.14665300771594" lon="-3.9046570379287">
        <ele>867.29999999999995</ele>
        <time>2003-04-19T07:53:45Z</time>
      </trkpt>
      <trkpt lat="33.147499999031425" lon="-3.903903001919389">
        <ele>864.60000000000002</ele>
        <time>2003-04-19T07:53:49Z</time>
      </trkpt>
      <trkpt lat="33.14832997508347" lon="-3.903167992830277">
        <ele>866.5</ele>
        <time>2003-04-19T07:53:55Z</time>
      </trkpt>
      <trkpt lat="33.149151988327503" lon="-3.902431977912784">
        <ele>868</ele>
        <time>2003-04-19T07:54:00Z</time>
      </trkpt>
      <trkpt lat="33.14998003654182" lon="-3.901686994358897">
        <ele>868.70000000000005</ele>
        <time>2003-04-19T07:54:04Z</time>
      </trkpt>
      <trkpt lat="33.150802971795201" lon="-3.900947039946914">
        <ele>868.89999999999998</ele>
        <time>2003-04-19T07:54:09Z</time>
      </trkpt>
      <trkpt lat="33.151628002524376" lon="-3.900214964523912">
        <ele>869.10000000000002</ele>
        <time>2003-04-19T07:54:15Z</time>
      </trkpt>
      <trkpt lat="33.152457978576422" lon="-3.899472998455167">
        <ele>869.79999999999995</ele>
        <time>2003-04-19T07:54:19Z</time>
      </trkpt>
      <trkpt lat="33.153274962678552" lon="-3.898743018507958">
        <ele>870.60000000000002</ele>
        <time>2003-04-19T07:54:24Z</time>
      </trkpt>
      <trkpt lat="33.154122959822416" lon="-3.897995017468929">
        <ele>871.39999999999998</ele>
        <time>2003-04-19T07:54:30Z</time>
      </trkpt>
      <trkpt lat="33.155001970008016" lon="-3.897208040580154">
        <ele>871.29999999999995</ele>
        <time>2003-04-19T07:54:35Z</time>
      </trkpt>
      <trkpt lat="33.155732033774257" lon="-3.896567998453975">
        <ele>871.39999999999998</ele>
        <time>2003-04-19T07:54:39Z</time>
      </trkpt>
      <trkpt lat="33.156452961266041" lon="-3.895919993519783">
        <ele>871.29999999999995</ele>
        <time>2003-04-19T07:54:43Z</time>
      </trkpt>
      <trkpt lat="33.157349992543459" lon="-3.895122036337853">
        <ele>871</ele>
        <time>2003-04-19T07:54:47Z</time>
      </trkpt>
      <trkpt lat="33.158250041306019" lon="-3.894328018650413">
        <ele>871.39999999999998</ele>
        <time>2003-04-19T07:54:53Z</time>
      </trkpt>
      <trkpt lat="33.159008016809821" lon="-3.893757965415716">
        <ele>872.20000000000005</ele>
        <time>2003-04-19T07:54:57Z</time>
      </trkpt>
      <trkpt lat="33.159622997045517" lon="-3.893456971272826">
        <ele>870.89999999999998</ele>
        <time>2003-04-19T07:54:59Z</time>
      </trkpt>
      <trkpt lat="33.160667968913913" lon="-3.892997978255153">
        <ele>868.29999999999995</ele>
        <time>2003-04-19T07:55:05Z</time>
      </trkpt>
      <trkpt lat="33.161697015166283" lon="-3.89251995831728">
        <ele>866.79999999999995</ele>
        <time>2003-04-19T07:55:10Z</time>
      </trkpt>
      <trkpt lat="33.162663029506803" lon="-3.892079992219806">
        <ele>865.39999999999998</ele>
        <time>2003-04-19T07:55:14Z</time>
      </trkpt>
      <trkpt lat="33.163544973358512" lon="-3.891668021678925">
        <ele>864.89999999999998</ele>
        <time>2003-04-19T07:55:20Z</time>
      </trkpt>
      <trkpt lat="33.164402022957802" lon="-3.891268037259579">
        <ele>864.70000000000005</ele>
        <time>2003-04-19T07:55:25Z</time>
      </trkpt>
      <trkpt lat="33.165307017043233" lon="-3.890850031748414">
        <ele>864.20000000000005</ele>
        <time>2003-04-19T07:55:29Z</time>
      </trkpt>
      <trkpt lat="33.166157025843859" lon="-3.890447029843926">
        <ele>863.10000000000002</ele>
        <time>2003-04-19T07:55:35Z</time>
      </trkpt>
      <trkpt lat="33.166835037991405" lon="-3.889994993805885">
        <ele>861.79999999999995</ele>
        <time>2003-04-19T07:55:39Z</time>
      </trkpt>
      <trkpt lat="33.167678005993366" lon="-3.889332991093397">
        <ele>860.10000000000002</ele>
        <time>2003-04-19T07:55:44Z</time>
      </trkpt>
      <trkpt lat="33.16850203089416" lon="-3.888703007251024">
        <ele>861</ele>
        <time>2003-04-19T07:55:48Z</time>
      </trkpt>
      <trkpt lat="33.169317003339529" lon="-3.888082997873426">
        <ele>862</ele>
        <time>2003-04-19T07:55:53Z</time>
      </trkpt>
      <trkpt lat="33.170138010755181" lon="-3.887461982667446">
        <ele>862.89999999999998</ele>
        <time>2003-04-19T07:55:59Z</time>
      </trkpt>
      <trkpt lat="33.170954994857311" lon="-3.886835016310215">
        <ele>863.5</ele>
        <time>2003-04-19T07:56:04Z</time>
      </trkpt>
      <trkpt lat="33.171772984787822" lon="-3.886217018589377">
        <ele>864.10000000000002</ele>
        <time>2003-04-19T07:56:08Z</time>
      </trkpt>
      <trkpt lat="33.172598015516996" lon="-3.88557999394834">
        <ele>864.70000000000005</ele>
        <time>2003-04-19T07:56:14Z</time>
      </trkpt>
      <trkpt lat="33.173422962427139" lon="-3.884941963478923">
        <ele>865.10000000000002</ele>
        <time>2003-04-19T07:56:19Z</time>
      </trkpt>
      <trkpt lat="33.174247993156314" lon="-3.884320026263595">
        <ele>865.29999999999995</ele>
        <time>2003-04-19T07:56:23Z</time>
      </trkpt>
      <trkpt lat="33.175082998350263" lon="-3.883685013279319">
        <ele>865.5</ele>
        <time>2003-04-19T07:56:29Z</time>
      </trkpt>
      <trkpt lat="33.17589302547276" lon="-3.883047988638282">
        <ele>866</ele>
        <time>2003-04-19T07:56:34Z</time>
      </trkpt>
      <trkpt lat="33.176698023453355" lon="-3.882447006180883">
        <ele>865.70000000000005</ele>
        <time>2003-04-19T07:56:38Z</time>
      </trkpt>
      <trkpt lat="33.177505033090711" lon="-3.88181802816689">
        <ele>865.39999999999998</ele>
        <time>2003-04-19T07:56:43Z</time>
      </trkpt>
      <trkpt lat="33.178310031071305" lon="-3.881207993254066">
        <ele>864.70000000000005</ele>
        <time>2003-04-19T07:56:49Z</time>
      </trkpt>
      <trkpt lat="33.179091978818178" lon="-3.880597958341241">
        <ele>864.5</ele>
        <time>2003-04-19T07:56:54Z</time>
      </trkpt>
      <trkpt lat="33.179887002333999" lon="-3.880009967833757">
        <ele>863.5</ele>
        <time>2003-04-19T07:56:58Z</time>
      </trkpt>
      <trkpt lat="33.180678002536297" lon="-3.879404962062836">
        <ele>861.29999999999995</ele>
        <time>2003-04-19T07:57:04Z</time>
      </trkpt>
      <trkpt lat="33.181347968056798" lon="-3.87896197848022">
        <ele>859.39999999999998</ele>
        <time>2003-04-19T07:57:08Z</time>
      </trkpt>
      <trkpt lat="33.182035032659769" lon="-3.878667019307613">
        <ele>858.10000000000002</ele>
        <time>2003-04-19T07:57:12Z</time>
      </trkpt>
      <trkpt lat="33.182908007875085" lon="-3.878365019336343">
        <ele>856.5</ele>
        <time>2003-04-19T07:57:17Z</time>
      </trkpt>
      <trkpt lat="33.183792969211936" lon="-3.878039969131351">
        <ele>855</ele>
        <time>2003-04-19T07:57:21Z</time>
      </trkpt>
      <trkpt lat="33.184699974954128" lon="-3.877726988866925">
        <ele>853.10000000000002</ele>
        <time>2003-04-19T07:57:27Z</time>
      </trkpt>
      <trkpt lat="33.185617038980126" lon="-3.877396993339062">
        <ele>851.39999999999998</ele>
        <time>2003-04-19T07:57:32Z</time>
      </trkpt>
      <trkpt lat="33.186605013906956" lon="-3.877042019739747">
        <ele>849.70000000000005</ele>
        <time>2003-04-19T07:57:37Z</time>
      </trkpt>
      <trkpt lat="33.187610004097223" lon="-3.876671958714724">
        <ele>848.79999999999995</ele>
        <time>2003-04-19T07:57:44Z</time>
      </trkpt>
      <trkpt lat="33.188518015667796" lon="-3.876357972621918">
        <ele>846.39999999999998</ele>
        <time>2003-04-19T07:57:51Z</time>
      </trkpt>
      <trkpt lat="33.189168032258749" lon="-3.876054966822267">
        <ele>843.70000000000005</ele>
        <time>2003-04-19T07:57:55Z</time>
      </trkpt>
      <trkpt lat="33.189647980034351" lon="-3.875669986009598">
        <ele>842.39999999999998</ele>
        <time>2003-04-19T07:57:58Z</time>
      </trkpt>
      <trkpt lat="33.190437974408269" lon="-3.874977976083756">
        <ele>842</ele>
        <time>2003-04-19T07:58:03Z</time>
      </trkpt>
      <trkpt lat="33.191272979602218" lon="-3.874262999743223">
        <ele>841.70000000000005</ele>
        <time>2003-04-19T07:58:07Z</time>
      </trkpt>
      <trkpt lat="33.192064985632896" lon="-3.873588005080819">
        <ele>841.60000000000002</ele>
        <time>2003-04-19T07:58:12Z</time>
      </trkpt>
      <trkpt lat="33.192818015813828" lon="-3.872964978218079">
        <ele>842.60000000000002</ele>
        <time>2003-04-19T07:58:18Z</time>
      </trkpt>
      <trkpt lat="33.193589989095926" lon="-3.87230297550559">
        <ele>843.70000000000005</ele>
        <time>2003-04-19T07:58:22Z</time>
      </trkpt>
      <trkpt lat="33.194340001791716" lon="-3.871675003319979">
        <ele>844.39999999999998</ele>
        <time>2003-04-19T07:58:27Z</time>
      </trkpt>
      <trkpt lat="33.195107029750943" lon="-3.871024986729026">
        <ele>844.20000000000005</ele>
        <time>2003-04-19T07:58:33Z</time>
      </trkpt>
      <trkpt lat="33.195891994982958" lon="-3.870370024815202">
        <ele>843.10000000000002</ele>
        <time>2003-04-19T07:58:38Z</time>
      </trkpt>
      <trkpt lat="33.196587022393942" lon="-3.869665022939444">
        <ele>843.39999999999998</ele>
        <time>2003-04-19T07:58:42Z</time>
      </trkpt>
      <trkpt lat="33.19692799821496" lon="-3.869133023545146">
        <ele>843.70000000000005</ele>
        <time>2003-04-19T07:58:46Z</time>
      </trkpt>
      <trkpt lat="33.197487993165851" lon="-3.868212020024657">
        <ele>843.20000000000005</ele>
        <time>2003-04-19T07:58:50Z</time>
      </trkpt>
      <trkpt lat="33.198037007823586" lon="-3.867295039817691">
        <ele>843</ele>
        <time>2003-04-19T07:58:56Z</time>
      </trkpt>
      <trkpt lat="33.198666991665959" lon="-3.866270016878843">
        <ele>842</ele>
        <time>2003-04-19T07:59:01Z</time>
      </trkpt>
      <trkpt lat="33.199263028800488" lon="-3.865281958132982">
        <ele>841.89999999999998</ele>
        <time>2003-04-19T07:59:08Z</time>
      </trkpt>
      <trkpt lat="33.199856970459223" lon="-3.864307980984449">
        <ele>841.39999999999998</ele>
        <time>2003-04-19T07:59:13Z</time>
      </trkpt>
      <trkpt lat="33.200476979836822" lon="-3.86329997330904">
        <ele>841.10000000000002</ele>
        <time>2003-04-19T07:59:20Z</time>
      </trkpt>
      <trkpt lat="33.2010099850595" lon="-3.862418029457331">
        <ele>840.79999999999995</ele>
        <time>2003-04-19T07:59:24Z</time>
      </trkpt>
      <trkpt lat="33.201552964746952" lon="-3.861519992351532">
        <ele>840.79999999999995</ele>
        <time>2003-04-19T07:59:29Z</time>
      </trkpt>
      <trkpt lat="33.202092004939914" lon="-3.860617009922862">
        <ele>840.29999999999995</ele>
        <time>2003-04-19T07:59:35Z</time>
      </trkpt>
      <trkpt lat="33.202631967142224" lon="-3.859734982252121">
        <ele>839.5</ele>
        <time>2003-04-19T07:59:40Z</time>
      </trkpt>
      <trkpt lat="33.203260023146868" lon="-3.858709959313273">
        <ele>839.39999999999998</ele>
        <time>2003-04-19T07:59:46Z</time>
      </trkpt>
      <trkpt lat="33.203869974240661" lon="-3.857698012143374">
        <ele>839.29999999999995</ele>
        <time>2003-04-19T07:59:51Z</time>
      </trkpt>
      <trkpt lat="33.204462993890047" lon="-3.856677012518048">
        <ele>838.60000000000002</ele>
        <time>2003-04-19T07:59:58Z</time>
      </trkpt>
      <trkpt lat="33.205075040459633" lon="-3.855691971257329">
        <ele>838.60000000000002</ele>
        <time>2003-04-19T08:00:03Z</time>
      </trkpt>
      <trkpt lat="33.205617014318705" lon="-3.854808015748859">
        <ele>838.70000000000005</ele>
        <time>2003-04-19T08:00:09Z</time>
      </trkpt>
      <trkpt lat="33.20614499039948" lon="-3.853932023048401">
        <ele>838.5</ele>
        <time>2003-04-19T08:00:14Z</time>
      </trkpt>
      <trkpt lat="33.20674798451364" lon="-3.852947987616062">
        <ele>837.70000000000005</ele>
        <time>2003-04-19T08:00:21Z</time>
      </trkpt>
      <trkpt lat="33.207334969192743" lon="-3.851973004639149">
        <ele>837.70000000000005</ele>
        <time>2003-04-19T08:00:26Z</time>
      </trkpt>
      <trkpt lat="33.207950033247471" lon="-3.850959967821837">
        <ele>837.10000000000002</ele>
        <time>2003-04-19T08:00:33Z</time>
      </trkpt>
      <trkpt lat="33.208512039855123" lon="-3.85004198178649">
        <ele>837</ele>
        <time>2003-04-19T08:00:37Z</time>
      </trkpt>
      <trkpt lat="33.209059964865446" lon="-3.849134976044297">
        <ele>837.10000000000002</ele>
        <time>2003-04-19T08:00:42Z</time>
      </trkpt>
      <trkpt lat="33.209600010886788" lon="-3.848262000828981">
        <ele>836.89999999999998</ele>
        <time>2003-04-19T08:00:48Z</time>
      </trkpt>
      <trkpt lat="33.210232006385922" lon="-3.847236977890134">
        <ele>837.20000000000005</ele>
        <time>2003-04-19T08:00:53Z</time>
      </trkpt>
      <trkpt lat="33.210847992449999" lon="-3.846227964386344">
        <ele>836.60000000000002</ele>
        <time>2003-04-19T08:01:00Z</time>
      </trkpt>
      <trkpt lat="33.211373034864664" lon="-3.845351971685886">
        <ele>835.79999999999995</ele>
        <time>2003-04-19T08:01:04Z</time>
      </trkpt>
      <trkpt lat="33.211896987631917" lon="-3.844474973157048">
        <ele>835.5</ele>
        <time>2003-04-19T08:01:09Z</time>
      </trkpt>
      <trkpt lat="33.212522026151419" lon="-3.843451961874962">
        <ele>835.20000000000005</ele>
        <time>2003-04-19T08:01:16Z</time>
      </trkpt>
      <trkpt lat="33.213147986680269" lon="-3.842431968078017">
        <ele>834.79999999999995</ele>
        <time>2003-04-19T08:01:21Z</time>
      </trkpt>
      <trkpt lat="33.213698007166386" lon="-3.841529991477728">
        <ele>835</ele>
        <time>2003-04-19T08:01:27Z</time>
      </trkpt>
      <trkpt lat="33.214251967146993" lon="-3.840598007664084">
        <ele>834.39999999999998</ele>
        <time>2003-04-19T08:01:31Z</time>
      </trkpt>
      <trkpt lat="33.21480299346149" lon="-3.839683039113879">
        <ele>833.79999999999995</ele>
        <time>2003-04-19T08:01:36Z</time>
      </trkpt>
      <trkpt lat="33.215365000069141" lon="-3.838757006451488">
        <ele>833.20000000000005</ele>
        <time>2003-04-19T08:01:42Z</time>
      </trkpt>
      <trkpt lat="33.215936981141567" lon="-3.837797027081251">
        <ele>832.60000000000002</ele>
        <time>2003-04-19T08:01:47Z</time>
      </trkpt>
      <trkpt lat="33.216511979699135" lon="-3.836882980540395">
        <ele>832.60000000000002</ele>
        <time>2003-04-19T08:01:51Z</time>
      </trkpt>
      <trkpt lat="33.216977007687092" lon="-3.836258025839925">
        <ele>832.89999999999998</ele>
        <time>2003-04-19T08:01:55Z</time>
      </trkpt>
      <trkpt lat="33.217715034261346" lon="-3.835595017299056">
        <ele>832.79999999999995</ele>
        <time>2003-04-19T08:02:01Z</time>
      </trkpt>
      <trkpt lat="33.218548027798533" lon="-3.83502496406436">
        <ele>832.39999999999998</ele>
        <time>2003-04-19T08:02:06Z</time>
      </trkpt>
      <trkpt lat="33.219455033540726" lon="-3.834407972171903">
        <ele>832.10000000000002</ele>
        <time>2003-04-19T08:02:11Z</time>
      </trkpt>
      <trkpt lat="33.220377964898944" lon="-3.833774970844388">
        <ele>831.89999999999998</ele>
        <time>2003-04-19T08:02:18Z</time>
      </trkpt>
      <trkpt lat="33.221311960369349" lon="-3.833138030022383">
        <ele>831.60000000000002</ele>
        <time>2003-04-19T08:02:24Z</time>
      </trkpt>
      <trkpt lat="33.22221502661705" lon="-3.832521960139275">
        <ele>831.20000000000005</ele>
        <time>2003-04-19T08:02:29Z</time>
      </trkpt>
      <trkpt lat="33.223041985183954" lon="-3.831917960196734">
        <ele>831.10000000000002</ele>
        <time>2003-04-19T08:02:36Z</time>
      </trkpt>
      <trkpt lat="33.223840026184916" lon="-3.831338016316295">
        <ele>830.10000000000002</ele>
        <time>2003-04-19T08:02:41Z</time>
      </trkpt>
      <trkpt lat="33.224637983366847" lon="-3.830784978345037">
        <ele>828.20000000000005</ele>
        <time>2003-04-19T08:02:48Z</time>
      </trkpt>
      <trkpt lat="33.225505007430911" lon="-3.83018801920116">
        <ele>826.20000000000005</ele>
        <time>2003-04-19T08:02:55Z</time>
      </trkpt>
      <trkpt lat="33.226357027888298" lon="-3.829576978459954">
        <ele>826.5</ele>
        <time>2003-04-19T08:03:00Z</time>
      </trkpt>
      <trkpt lat="33.227167977020144" lon="-3.829022012650967">
        <ele>827.10000000000002</ele>
        <time>2003-04-19T08:03:05Z</time>
      </trkpt>
      <trkpt lat="33.22795202024281" lon="-3.828469980508089">
        <ele>829.20000000000005</ele>
        <time>2003-04-19T08:03:11Z</time>
      </trkpt>
      <trkpt lat="33.228858020156622" lon="-3.827813006937504">
        <ele>829.79999999999995</ele>
        <time>2003-04-19T08:03:16Z</time>
      </trkpt>
      <trkpt lat="33.229737030342221" lon="-3.827067017555237">
        <ele>828.5</ele>
        <time>2003-04-19T08:03:23Z</time>
      </trkpt>
      <trkpt lat="33.230487965047359" lon="-3.8265370298177">
        <ele>827.20000000000005</ele>
        <time>2003-04-19T08:03:27Z</time>
      </trkpt>
      <trkpt lat="33.230819972231984" lon="-3.826423035934568">
        <ele>826.5</ele>
        <time>2003-04-19T08:03:30Z</time>
      </trkpt>
      <trkpt lat="33.231162037700415" lon="-3.826392022892833">
        <ele>825.89999999999998</ele>
        <time>2003-04-19T08:03:31Z</time>
      </trkpt>
      <trkpt lat="33.231326993554831" lon="-3.826397974044085">
        <ele>825.5</ele>
        <time>2003-04-19T08:03:32Z</time>
      </trkpt>
      <trkpt lat="33.232278004288673" lon="-3.826508028432727">
        <ele>824.5</ele>
        <time>2003-04-19T08:03:39Z</time>
      </trkpt>
      <trkpt lat="33.233267990872264" lon="-3.826620010659099">
        <ele>825</ele>
        <time>2003-04-19T08:03:45Z</time>
      </trkpt>
      <trkpt lat="33.234259989112616" lon="-3.826740039512515">
        <ele>825.39999999999998</ele>
        <time>2003-04-19T08:03:50Z</time>
      </trkpt>
      <trkpt lat="33.235307978466153" lon="-3.826852021738887">
        <ele>826.89999999999998</ele>
        <time>2003-04-19T08:03:57Z</time>
      </trkpt>
      <trkpt lat="33.236282961443067" lon="-3.8269670214504">
        <ele>827.60000000000002</ele>
        <time>2003-04-19T08:04:02Z</time>
      </trkpt>
      <trkpt lat="33.237252999097109" lon="-3.827082021161914">
        <ele>828.89999999999998</ele>
        <time>2003-04-19T08:04:09Z</time>
      </trkpt>
      <trkpt lat="33.238229993730783" lon="-3.827195009216666">
        <ele>829.5</ele>
        <time>2003-04-19T08:04:14Z</time>
      </trkpt>
      <trkpt lat="33.239222997799516" lon="-3.827325012534857">
        <ele>830.29999999999995</ele>
        <time>2003-04-19T08:04:21Z</time>
      </trkpt>
      <trkpt lat="33.240187000483274" lon="-3.827428026124835">
        <ele>830.39999999999998</ele>
        <time>2003-04-19T08:04:26Z</time>
      </trkpt>
      <trkpt lat="33.241183022037148" lon="-3.827558029443026">
        <ele>830.89999999999998</ele>
        <time>2003-04-19T08:04:33Z</time>
      </trkpt>
      <trkpt lat="33.242220031097531" lon="-3.827636986970902">
        <ele>831.60000000000002</ele>
        <time>2003-04-19T08:04:39Z</time>
      </trkpt>
      <trkpt lat="33.24256201274693" lon="-3.827576972544193">
        <ele>831.89999999999998</ele>
        <time>2003-04-19T08:04:40Z</time>
      </trkpt>
      <trkpt lat="33.243059981614351" lon="-3.827387038618326">
        <ele>832.29999999999995</ele>
        <time>2003-04-19T08:04:44Z</time>
      </trkpt>
      <trkpt lat="33.243376985192299" lon="-3.827198026701808">
        <ele>832.10000000000002</ele>
        <time>2003-04-19T08:04:45Z</time>
      </trkpt>
      <trkpt lat="33.243676973506808" lon="-3.826950006186962">
        <ele>832.10000000000002</ele>
        <time>2003-04-19T08:04:48Z</time>
      </trkpt>
      <trkpt lat="33.244456993415952" lon="-3.826107960194349">
        <ele>832.10000000000002</ele>
        <time>2003-04-19T08:04:53Z</time>
      </trkpt>
      <trkpt lat="33.245241958647966" lon="-3.8252919819206">
        <ele>831.89999999999998</ele>
        <time>2003-04-19T08:05:00Z</time>
      </trkpt>
      <trkpt lat="33.245973028242588" lon="-3.824512967839837">
        <ele>831.5</ele>
        <time>2003-04-19T08:05:06Z</time>
      </trkpt>
      <trkpt lat="33.246662020683289" lon="-3.82378701120615">
        <ele>833.39999999999998</ele>
        <time>2003-04-19T08:05:11Z</time>
      </trkpt>
      <trkpt lat="33.247337015345693" lon="-3.823074968531728">
        <ele>831.5</ele>
        <time>2003-04-19T08:05:18Z</time>
      </trkpt>
      <trkpt lat="33.24808300472796" lon="-3.82230500690639">
        <ele>830.89999999999998</ele>
        <time>2003-04-19T08:05:23Z</time>
      </trkpt>
      <trkpt lat="33.248802004382014" lon="-3.821542002260685">
        <ele>831.5</ele>
        <time>2003-04-19T08:05:30Z</time>
      </trkpt>
      <trkpt lat="33.249527039006352" lon="-3.820787966251373">
        <ele>831.70000000000005</ele>
        <time>2003-04-19T08:05:35Z</time>
      </trkpt>
      <trkpt lat="33.250264981761575" lon="-3.820016998797655">
        <ele>832</ele>
        <time>2003-04-19T08:05:42Z</time>
      </trkpt>
      <trkpt lat="33.250999990850687" lon="-3.819227004423738">
        <ele>833.5</ele>
        <time>2003-04-19T08:05:47Z</time>
      </trkpt>
      <trkpt lat="33.251752015203238" lon="-3.818428041413426">
        <ele>834.60000000000002</ele>
        <time>2003-04-19T08:05:54Z</time>
      </trkpt>
      <trkpt lat="33.252496998757124" lon="-3.817641986533999">
        <ele>833.89999999999998</ele>
        <time>2003-04-19T08:06:00Z</time>
      </trkpt>
      <trkpt lat="33.253260003402829" lon="-3.816842017695308">
        <ele>833.20000000000005</ele>
        <time>2003-04-19T08:06:05Z</time>
      </trkpt>
      <trkpt lat="33.253946984186769" lon="-3.81613701581955">
        <ele>833.29999999999995</ele>
        <time>2003-04-19T08:06:10Z</time>
      </trkpt>
      <trkpt lat="33.254696996882558" lon="-3.815345009788871">
        <ele>833.5</ele>
        <time>2003-04-19T08:06:17Z</time>
      </trkpt>
      <trkpt lat="33.255395041778684" lon="-3.8146130181849">
        <ele>833.89999999999998</ele>
        <time>2003-04-19T08:06:23Z</time>
      </trkpt>
      <trkpt lat="33.256186963990331" lon="-3.813792010769248">
        <ele>834.60000000000002</ele>
        <time>2003-04-19T08:06:28Z</time>
      </trkpt>
      <trkpt lat="33.256888026371598" lon="-3.813057001680136">
        <ele>834.79999999999995</ele>
        <time>2003-04-19T08:06:33Z</time>
      </trkpt>
      <trkpt lat="33.257569978013635" lon="-3.812349988147616">
        <ele>835.10000000000002</ele>
        <time>2003-04-19T08:06:39Z</time>
      </trkpt>
      <trkpt lat="33.258389979600906" lon="-3.811502996832132">
        <ele>835.20000000000005</ele>
        <time>2003-04-19T08:06:44Z</time>
      </trkpt>
      <trkpt lat="33.259097998961806" lon="-3.810758013278246">
        <ele>836</ele>
        <time>2003-04-19T08:06:50Z</time>
      </trkpt>
      <trkpt lat="33.259796965867281" lon="-3.810031972825527">
        <ele>836.29999999999995</ele>
        <time>2003-04-19T08:06:55Z</time>
      </trkpt>
      <trkpt lat="33.260498028248549" lon="-3.809314984828234">
        <ele>836.5</ele>
        <time>2003-04-19T08:06:59Z</time>
      </trkpt>
      <trkpt lat="33.261198000982404" lon="-3.808572012931109">
        <ele>836.29999999999995</ele>
        <time>2003-04-19T08:07:04Z</time>
      </trkpt>
      <trkpt lat="33.261975003406405" lon="-3.807755028828979">
        <ele>836.60000000000002</ele>
        <time>2003-04-19T08:07:11Z</time>
      </trkpt>
      <trkpt lat="33.262674976140261" lon="-3.807018008083105">
        <ele>837.10000000000002</ele>
        <time>2003-04-19T08:07:15Z</time>
      </trkpt>
      <trkpt lat="33.263418031856418" lon="-3.806247962638736">
        <ele>837.29999999999995</ele>
        <time>2003-04-19T08:07:21Z</time>
      </trkpt>
      <trkpt lat="33.26415304094553" lon="-3.805485041812062">
        <ele>838</ele>
        <time>2003-04-19T08:07:26Z</time>
      </trkpt>
      <trkpt lat="33.264887966215611" lon="-3.804717008024454">
        <ele>838.5</ele>
        <time>2003-04-19T08:07:30Z</time>
      </trkpt>
      <trkpt lat="33.265626998618245" lon="-3.803942017257214">
        <ele>838.60000000000002</ele>
        <time>2003-04-19T08:07:35Z</time>
      </trkpt>
      <trkpt lat="33.266387991607189" lon="-3.803165014833212">
        <ele>839.10000000000002</ele>
        <time>2003-04-19T08:07:41Z</time>
      </trkpt>
      <trkpt lat="33.267112020403147" lon="-3.802405027672648">
        <ele>839.29999999999995</ele>
        <time>2003-04-19T08:07:46Z</time>
      </trkpt>
      <trkpt lat="33.267461964860559" lon="-3.802032032981515">
        <ele>839.20000000000005</ele>
        <time>2003-04-19T08:07:49Z</time>
      </trkpt>
      <trkpt lat="33.267647959291935" lon="-3.80182801745832">
        <ele>839.5</ele>
        <time>2003-04-19T08:07:50Z</time>
      </trkpt>
      <trkpt lat="33.26836503110826" lon="-3.801082028076053">
        <ele>839.5</ele>
        <time>2003-04-19T08:07:57Z</time>
      </trkpt>
      <trkpt lat="33.269129963591695" lon="-3.800287004560232">
        <ele>839.39999999999998</ele>
        <time>2003-04-19T08:08:05Z</time>
      </trkpt>
      <trkpt lat="33.26987000182271" lon="-3.799513019621372">
        <ele>839.20000000000005</ele>
        <time>2003-04-19T08:08:12Z</time>
      </trkpt>
      <trkpt lat="33.270656978711486" lon="-3.798711961135268">
        <ele>839.29999999999995</ele>
        <time>2003-04-19T08:08:19Z</time>
      </trkpt>
      <trkpt lat="33.271357035264373" lon="-3.797992039471865">
        <ele>840.10000000000002</ele>
        <time>2003-04-19T08:08:24Z</time>
      </trkpt>
      <trkpt lat="33.272094978019595" lon="-3.797222999855876">
        <ele>840.10000000000002</ele>
        <time>2003-04-19T08:08:31Z</time>
      </trkpt>
      <trkpt lat="33.272826969623566" lon="-3.796469969674945">
        <ele>841</ele>
        <time>2003-04-19T08:08:36Z</time>
      </trkpt>
      <trkpt lat="33.273552004247904" lon="-3.795702019706368">
        <ele>841.60000000000002</ele>
        <time>2003-04-19T08:08:43Z</time>
      </trkpt>
      <trkpt lat="33.274248037487268" lon="-3.794977990910411">
        <ele>841.29999999999995</ele>
        <time>2003-04-19T08:08:48Z</time>
      </trkpt>
      <trkpt lat="33.274978017434478" lon="-3.79420199431479">
        <ele>841.5</ele>
        <time>2003-04-19T08:08:55Z</time>
      </trkpt>
      <trkpt lat="33.275743033736944" lon="-3.79340797662735">
        <ele>841.20000000000005</ele>
        <time>2003-04-19T08:09:00Z</time>
      </trkpt>
      <trkpt lat="33.276448035612702" lon="-3.792659975588322">
        <ele>841.79999999999995</ele>
        <time>2003-04-19T08:09:07Z</time>
      </trkpt>
      <trkpt lat="33.277229983359575" lon="-3.791857995092869">
        <ele>841.60000000000002</ele>
        <time>2003-04-19T08:09:13Z</time>
      </trkpt>
      <trkpt lat="33.277979996055365" lon="-3.791057020425797">
        <ele>841.20000000000005</ele>
        <time>2003-04-19T08:09:18Z</time>
      </trkpt>
      <trkpt lat="33.278767978772521" lon="-3.790237018838525">
        <ele>840.5</ele>
        <time>2003-04-19T08:09:25Z</time>
      </trkpt>
      <trkpt lat="33.279553027823567" lon="-3.789402013644576">
        <ele>840.70000000000005</ele>
        <time>2003-04-19T08:09:30Z</time>
      </trkpt>
      <trkpt lat="33.280264986678958" lon="-3.788642026484013">
        <ele>843.60000000000002</ele>
        <time>2003-04-19T08:09:36Z</time>
      </trkpt>
      <trkpt lat="33.280963031575084" lon="-3.787920009344816">
        <ele>844.10000000000002</ele>
        <time>2003-04-19T08:09:41Z</time>
      </trkpt>
      <trkpt lat="33.281699968501925" lon="-3.787143006920815">
        <ele>841.10000000000002</ele>
        <time>2003-04-19T08:09:45Z</time>
      </trkpt>
      <trkpt lat="33.282417040318251" lon="-3.786392994225025">
        <ele>841</ele>
        <time>2003-04-19T08:09:50Z</time>
      </trkpt>
      <trkpt lat="33.283141991123557" lon="-3.785623032599688">
        <ele>840.79999999999995</ele>
        <time>2003-04-19T08:09:56Z</time>
      </trkpt>
      <trkpt lat="33.283882029354572" lon="-3.784848041832447">
        <ele>840.60000000000002</ele>
        <time>2003-04-19T08:10:01Z</time>
      </trkpt>
      <trkpt lat="33.284607985988259" lon="-3.784086965024471">
        <ele>840.10000000000002</ele>
        <time>2003-04-19T08:10:05Z</time>
      </trkpt>
      <trkpt lat="33.285307958722115" lon="-3.783339969813824">
        <ele>840.10000000000002</ele>
        <time>2003-04-19T08:10:12Z</time>
      </trkpt>
      <trkpt lat="33.286042967811227" lon="-3.782581994310021">
        <ele>840.20000000000005</ele>
        <time>2003-04-19T08:10:16Z</time>
      </trkpt>
      <trkpt lat="33.286774959415197" lon="-3.781812032684684">
        <ele>840.29999999999995</ele>
        <time>2003-04-19T08:10:20Z</time>
      </trkpt>
      <trkpt lat="33.287497982382774" lon="-3.781037963926792">
        <ele>840</ele>
        <time>2003-04-19T08:10:26Z</time>
      </trkpt>
      <trkpt lat="33.288242965936661" lon="-3.780262973159552">
        <ele>840.29999999999995</ele>
        <time>2003-04-19T08:10:31Z</time>
      </trkpt>
      <trkpt lat="33.288979986682534" lon="-3.779498040676117">
        <ele>840</ele>
        <time>2003-04-19T08:10:36Z</time>
      </trkpt>
      <trkpt lat="33.289735028520226" lon="-3.778715003281832">
        <ele>839.79999999999995</ele>
        <time>2003-04-19T08:10:42Z</time>
      </trkpt>
      <trkpt lat="33.290502978488803" lon="-3.777897013351321">
        <ele>840</ele>
        <time>2003-04-19T08:10:47Z</time>
      </trkpt>
      <trkpt lat="33.29127000644803" lon="-3.777086986228824">
        <ele>839.79999999999995</ele>
        <time>2003-04-19T08:10:51Z</time>
      </trkpt>
      <trkpt lat="33.292029993608594" lon="-3.776281988248229">
        <ele>839.79999999999995</ele>
        <time>2003-04-19T08:10:57Z</time>
      </trkpt>
      <trkpt lat="33.292749999091029" lon="-3.775514960289002">
        <ele>839.60000000000002</ele>
        <time>2003-04-19T08:11:02Z</time>
      </trkpt>
      <trkpt lat="33.293449971824884" lon="-3.774807024747133">
        <ele>840.10000000000002</ele>
        <time>2003-04-19T08:11:06Z</time>
      </trkpt>
      <trkpt lat="33.294154973700643" lon="-3.774085007607937">
        <ele>839.79999999999995</ele>
        <time>2003-04-19T08:11:11Z</time>
      </trkpt>
      <trkpt lat="33.294872967526317" lon="-3.773344969376922">
        <ele>839.70000000000005</ele>
        <time>2003-04-19T08:11:17Z</time>
      </trkpt>
      <trkpt lat="33.295582998543978" lon="-3.77260803245008">
        <ele>839.39999999999998</ele>
        <time>2003-04-19T08:11:22Z</time>
      </trkpt>
      <trkpt lat="33.296329993754625" lon="-3.77183698117733">
        <ele>839.39999999999998</ele>
        <time>2003-04-19T08:11:26Z</time>
      </trkpt>
      <trkpt lat="33.297098027542233" lon="-3.771032989025116">
        <ele>839.5</ele>
        <time>2003-04-19T08:11:32Z</time>
      </trkpt>
      <trkpt lat="33.297875029966235" lon="-3.770233020186424">
        <ele>840.29999999999995</ele>
        <time>2003-04-19T08:11:37Z</time>
      </trkpt>
      <trkpt lat="33.298626970499754" lon="-3.769445037469268">
        <ele>841.5</ele>
        <time>2003-04-19T08:11:41Z</time>
      </trkpt>
      <trkpt lat="33.299376983195543" lon="-3.768682032823563">
        <ele>841.5</ele>
        <time>2003-04-19T08:11:47Z</time>
      </trkpt>
      <trkpt lat="33.300090031698346" lon="-3.767927996814251">
        <ele>840.60000000000002</ele>
        <time>2003-04-19T08:11:52Z</time>
      </trkpt>
      <trkpt lat="33.300799978896976" lon="-3.767182007431984">
        <ele>840.39999999999998</ele>
        <time>2003-04-19T08:11:56Z</time>
      </trkpt>
      <trkpt lat="33.301521996036172" lon="-3.766442975029349">
        <ele>840.29999999999995</ele>
        <time>2003-04-19T08:12:01Z</time>
      </trkpt>
      <trkpt lat="33.302218029275537" lon="-3.76571299508214">
        <ele>839.70000000000005</ele>
        <time>2003-04-19T08:12:07Z</time>
      </trkpt>
      <trkpt lat="33.302933005616069" lon="-3.764973040670157">
        <ele>839</ele>
        <time>2003-04-19T08:12:12Z</time>
      </trkpt>
      <trkpt lat="33.303682012483478" lon="-3.76418799161911">
        <ele>839.60000000000002</ele>
        <time>2003-04-19T08:12:16Z</time>
      </trkpt>
      <trkpt lat="33.304437976330519" lon="-3.763402020558715">
        <ele>840</ele>
        <time>2003-04-19T08:12:22Z</time>
      </trkpt>
      <trkpt lat="33.305197963491082" lon="-3.762606997042894">
        <ele>839.89999999999998</ele>
        <time>2003-04-19T08:12:27Z</time>
      </trkpt>
      <trkpt lat="33.305959962308407" lon="-3.761817002668977">
        <ele>838.20000000000005</ele>
        <time>2003-04-19T08:12:31Z</time>
      </trkpt>
      <trkpt lat="33.306724978610873" lon="-3.761032959446311">
        <ele>837.29999999999995</ele>
        <time>2003-04-19T08:12:36Z</time>
      </trkpt>
      <trkpt lat="33.307453030720353" lon="-3.760272972285748">
        <ele>837.20000000000005</ele>
        <time>2003-04-19T08:12:42Z</time>
      </trkpt>
      <trkpt lat="33.308204971253872" lon="-3.759502004832029">
        <ele>837</ele>
        <time>2003-04-19T08:12:46Z</time>
      </trkpt>
      <trkpt lat="33.308935035020113" lon="-3.758734976872802">
        <ele>836.79999999999995</ele>
        <time>2003-04-19T08:12:51Z</time>
      </trkpt>
      <trkpt lat="33.309653028845787" lon="-3.7579579744488">
        <ele>836.20000000000005</ele>
        <time>2003-04-19T08:12:57Z</time>
      </trkpt>
      <trkpt lat="33.310377979651093" lon="-3.757230006158352">
        <ele>836.39999999999998</ele>
        <time>2003-04-19T08:13:02Z</time>
      </trkpt>
      <trkpt lat="33.311107037588954" lon="-3.756485022604466">
        <ele>836.29999999999995</ele>
        <time>2003-04-19T08:13:06Z</time>
      </trkpt>
      <trkpt lat="33.311801981180906" lon="-3.755753031000495">
        <ele>835.60000000000002</ele>
        <time>2003-04-19T08:13:12Z</time>
      </trkpt>
      <trkpt lat="33.312522992491722" lon="-3.755007963627577">
        <ele>835.5</ele>
        <time>2003-04-19T08:13:17Z</time>
      </trkpt>
      <trkpt lat="33.313266970217228" lon="-3.754228027537465">
        <ele>835.10000000000002</ele>
        <time>2003-04-19T08:13:21Z</time>
      </trkpt>
      <trkpt lat="33.314035004004836" lon="-3.753435015678406">
        <ele>834.79999999999995</ele>
        <time>2003-04-19T08:13:26Z</time>
      </trkpt>
      <trkpt lat="33.314802031964064" lon="-3.752618031576276">
        <ele>834.60000000000002</ele>
        <time>2003-04-19T08:13:32Z</time>
      </trkpt>
      <trkpt lat="33.315562019124627" lon="-3.751829965040088">
        <ele>833.70000000000005</ele>
        <time>2003-04-19T08:13:37Z</time>
      </trkpt>
      <trkpt lat="33.316323012113571" lon="-3.75103703700006">
        <ele>832</ele>
        <time>2003-04-19T08:13:41Z</time>
      </trkpt>
      <trkpt lat="33.317088028416038" lon="-3.750236984342337">
        <ele>831.89999999999998</ele>
        <time>2003-04-19T08:13:47Z</time>
      </trkpt>
      <trkpt lat="33.317832006141543" lon="-3.749452019110322">
        <ele>831.79999999999995</ele>
        <time>2003-04-19T08:13:52Z</time>
      </trkpt>
      <trkpt lat="33.318562991917133" lon="-3.748693037778139">
        <ele>831.60000000000002</ele>
        <time>2003-04-19T08:13:56Z</time>
      </trkpt>
      <trkpt lat="33.31926497630775" lon="-3.747958028689027">
        <ele>831.10000000000002</ele>
        <time>2003-04-19T08:14:02Z</time>
      </trkpt>
      <trkpt lat="33.319986993446946" lon="-3.747220002114773">
        <ele>830</ele>
        <time>2003-04-19T08:14:07Z</time>
      </trkpt>
      <trkpt lat="33.320693001151085" lon="-3.746484993025661">
        <ele>830</ele>
        <time>2003-04-19T08:14:11Z</time>
      </trkpt>
      <trkpt lat="33.321415018290281" lon="-3.745722994208336">
        <ele>830</ele>
        <time>2003-04-19T08:14:16Z</time>
      </trkpt>
      <trkpt lat="33.322162013500929" lon="-3.744944985955954">
        <ele>829.39999999999998</ele>
        <time>2003-04-19T08:14:22Z</time>
      </trkpt>
      <trkpt lat="33.322882018983364" lon="-3.744209976866841">
        <ele>829</ele>
        <time>2003-04-19T08:14:27Z</time>
      </trkpt>
      <trkpt lat="33.32360303029418" lon="-3.743477985262871">
        <ele>828.29999999999995</ele>
        <time>2003-04-19T08:14:31Z</time>
      </trkpt>
      <trkpt lat="33.324299985542893" lon="-3.742750016972423">
        <ele>827.20000000000005</ele>
        <time>2003-04-19T08:14:37Z</time>
      </trkpt>
      <trkpt lat="33.324982021003962" lon="-3.742017019540072">
        <ele>826.60000000000002</ele>
        <time>2003-04-19T08:14:42Z</time>
      </trkpt>
      <trkpt lat="33.32566699013114" lon="-3.74130698852241">
        <ele>826.20000000000005</ele>
        <time>2003-04-19T08:14:46Z</time>
      </trkpt>
      <trkpt lat="33.326356988400221" lon="-3.740584971383214">
        <ele>825.5</ele>
        <time>2003-04-19T08:14:51Z</time>
      </trkpt>
      <trkpt lat="33.327159974724054" lon="-3.739747032523155">
        <ele>825</ele>
        <time>2003-04-19T08:14:58Z</time>
      </trkpt>
      <trkpt lat="33.327851984649897" lon="-3.739025015383959">
        <ele>824.29999999999995</ele>
        <time>2003-04-19T08:15:02Z</time>
      </trkpt>
      <trkpt lat="33.328590011224151" lon="-3.738256981596351">
        <ele>823.20000000000005</ele>
        <time>2003-04-19T08:15:08Z</time>
      </trkpt>
      <trkpt lat="33.329368019476533" lon="-3.73743798583746">
        <ele>822.20000000000005</ele>
        <time>2003-04-19T08:15:13Z</time>
      </trkpt>
      <trkpt lat="33.330134963616729" lon="-3.736631982028484">
        <ele>822.29999999999995</ele>
        <time>2003-04-19T08:15:17Z</time>
      </trkpt>
      <trkpt lat="33.330859998241067" lon="-3.735857997089624">
        <ele>822.10000000000002</ele>
        <time>2003-04-19T08:15:23Z</time>
      </trkpt>
      <trkpt lat="33.331540022045374" lon="-3.735130028799176">
        <ele>821.29999999999995</ele>
        <time>2003-04-19T08:15:28Z</time>
      </trkpt>
      <trkpt lat="33.331772033125162" lon="-3.734785029664636">
        <ele>821.39999999999998</ele>
        <time>2003-04-19T08:15:29Z</time>
      </trkpt>
      <trkpt lat="33.332037990912795" lon="-3.734183041378856">
        <ele>820.10000000000002</ele>
        <time>2003-04-19T08:15:32Z</time>
      </trkpt>
      <trkpt lat="33.332151984795928" lon="-3.733739973977208">
        <ele>819.70000000000005</ele>
        <time>2003-04-19T08:15:35Z</time>
      </trkpt>
      <trkpt lat="33.332207975909114" lon="-3.73329003341496">
        <ele>818.89999999999998</ele>
        <time>2003-04-19T08:15:36Z</time>
      </trkpt>
      <trkpt lat="33.332203030586243" lon="-3.732642028480768">
        <ele>817.5</ele>
        <time>2003-04-19T08:15:40Z</time>
      </trkpt>
      <trkpt lat="33.332104962319136" lon="-3.73139999806881">
        <ele>815.70000000000005</ele>
        <time>2003-04-19T08:15:45Z</time>
      </trkpt>
      <trkpt lat="33.332036985084414" lon="-3.730189986526966">
        <ele>813.5</ele>
        <time>2003-04-19T08:15:52Z</time>
      </trkpt>
      <trkpt lat="33.331932965666056" lon="-3.729097992181778">
        <ele>812</ele>
        <time>2003-04-19T08:15:56Z</time>
      </trkpt>
      <trkpt lat="33.331813020631671" lon="-3.727999962866306">
        <ele>810.10000000000002</ele>
        <time>2003-04-19T08:16:02Z</time>
      </trkpt>
      <trkpt lat="33.33161998540163" lon="-3.726743012666702">
        <ele>808.79999999999995</ele>
        <time>2003-04-19T08:16:07Z</time>
      </trkpt>
      <trkpt lat="33.331428039819002" lon="-3.725569965317845">
        <ele>807.79999999999995</ele>
        <time>2003-04-19T08:16:14Z</time>
      </trkpt>
      <trkpt lat="33.331247996538877" lon="-3.724360037595034">
        <ele>806.60000000000002</ele>
        <time>2003-04-19T08:16:19Z</time>
      </trkpt>
      <trkpt lat="33.33105999045074" lon="-3.723118007183075">
        <ele>805</ele>
        <time>2003-04-19T08:16:26Z</time>
      </trkpt>
      <trkpt lat="33.330880030989647" lon="-3.722047973424196">
        <ele>803.60000000000002</ele>
        <time>2003-04-19T08:16:30Z</time>
      </trkpt>
      <trkpt lat="33.330681966617703" lon="-3.72080803848803">
        <ele>801.89999999999998</ele>
        <time>2003-04-19T08:16:37Z</time>
      </trkpt>
      <trkpt lat="33.33060996606946" lon="-3.720089960843325">
        <ele>800.89999999999998</ele>
        <time>2003-04-19T08:16:41Z</time>
      </trkpt>
      <trkpt lat="33.330611977726221" lon="-3.719247998669744">
        <ele>799.60000000000002</ele>
        <time>2003-04-19T08:16:46Z</time>
      </trkpt>
      <trkpt lat="33.330723037943244" lon="-3.718019966036081">
        <ele>798.20000000000005</ele>
        <time>2003-04-19T08:16:53Z</time>
      </trkpt>
      <trkpt lat="33.330790009349585" lon="-3.716822024434805">
        <ele>797.89999999999998</ele>
        <time>2003-04-19T08:17:00Z</time>
      </trkpt>
      <trkpt lat="33.330741981044412" lon="-3.715918036177754">
        <ele>797.39999999999998</ele>
        <time>2003-04-19T08:17:05Z</time>
      </trkpt>
      <trkpt lat="33.330637039616704" lon="-3.714789999648929">
        <ele>796.70000000000005</ele>
        <time>2003-04-19T08:17:12Z</time>
      </trkpt>
      <trkpt lat="33.330541988834739" lon="-3.713664980605245">
        <ele>794.5</ele>
        <time>2003-04-19T08:17:19Z</time>
      </trkpt>
      <trkpt lat="33.33043796941638" lon="-3.712496962398291">
        <ele>792.39999999999998</ele>
        <time>2003-04-19T08:17:25Z</time>
      </trkpt>
      <trkpt lat="33.330327998846769" lon="-3.711310001090169">
        <ele>790.5</ele>
        <time>2003-04-19T08:17:32Z</time>
      </trkpt>
      <trkpt lat="33.33022297360003" lon="-3.71019696816802">
        <ele>786</ele>
        <time>2003-04-19T08:17:40Z</time>
      </trkpt>
      <trkpt lat="33.330127000808716" lon="-3.709068009629846">
        <ele>783.5</ele>
        <time>2003-04-19T08:17:47Z</time>
      </trkpt>
      <trkpt lat="33.330015018582344" lon="-3.707963023334742">
        <ele>783</ele>
        <time>2003-04-19T08:17:54Z</time>
      </trkpt>
      <trkpt lat="33.329919967800379" lon="-3.706873040646315">
        <ele>782.79999999999995</ele>
        <time>2003-04-19T08:18:00Z</time>
      </trkpt>
      <trkpt lat="33.32981301471591" lon="-3.705657999962568">
        <ele>782.20000000000005</ele>
        <time>2003-04-19T08:18:07Z</time>
      </trkpt>
      <trkpt lat="33.329797005280852" lon="-3.705162964761257">
        <ele>780.60000000000002</ele>
        <time>2003-04-19T08:18:10Z</time>
      </trkpt>
      <trkpt lat="33.329849978908896" lon="-3.704831963405013">
        <ele>778.60000000000002</ele>
        <time>2003-04-19T08:18:13Z</time>
      </trkpt>
      <trkpt lat="33.329988028854132" lon="-3.704361990094185">
        <ele>775.5</ele>
        <time>2003-04-19T08:18:15Z</time>
      </trkpt>
      <trkpt lat="33.330302014946938" lon="-3.703290028497577">
        <ele>775.39999999999998</ele>
        <time>2003-04-19T08:18:22Z</time>
      </trkpt>
      <trkpt lat="33.330496978014708" lon="-3.702817959710956">
        <ele>777.60000000000002</ele>
        <time>2003-04-19T08:18:26Z</time>
      </trkpt>
      <trkpt lat="33.330694958567619" lon="-3.702559964731336">
        <ele>779.60000000000002</ele>
        <time>2003-04-19T08:18:27Z</time>
      </trkpt>
      <trkpt lat="33.330907020717859" lon="-3.702370030805469">
        <ele>782.20000000000005</ele>
        <time>2003-04-19T08:18:30Z</time>
      </trkpt>
      <trkpt lat="33.331216983497143" lon="-3.702157968655229">
        <ele>785.5</ele>
        <time>2003-04-19T08:18:33Z</time>
      </trkpt>
      <trkpt lat="33.331438014283776" lon="-3.702063001692295">
        <ele>786.70000000000005</ele>
        <time>2003-04-19T08:18:34Z</time>
      </trkpt>
      <trkpt lat="33.331685028970242" lon="-3.702026959508658">
        <ele>788</ele>
        <time>2003-04-19T08:18:37Z</time>
      </trkpt>
      <trkpt lat="33.331947969272733" lon="-3.702020002529025">
        <ele>789</ele>
        <time>2003-04-19T08:18:38Z</time>
      </trkpt>
      <trkpt lat="33.332917001098394" lon="-3.702071970328689">
        <ele>786.20000000000005</ele>
        <time>2003-04-19T08:18:45Z</time>
      </trkpt>
      <trkpt lat="33.333687968552113" lon="-3.702099965885282">
        <ele>781.70000000000005</ele>
        <time>2003-04-19T08:18:50Z</time>
      </trkpt>
      <trkpt lat="33.334157019853592" lon="-3.702040035277605">
        <ele>782.39999999999998</ele>
        <time>2003-04-19T08:18:53Z</time>
      </trkpt>
      <trkpt lat="33.334472011774778" lon="-3.701925035566092">
        <ele>783.39999999999998</ele>
        <time>2003-04-19T08:18:56Z</time>
      </trkpt>
      <trkpt lat="33.334766970947385" lon="-3.701733006164432">
        <ele>785.10000000000002</ele>
        <time>2003-04-19T08:18:57Z</time>
      </trkpt>
      <trkpt lat="33.335023038089275" lon="-3.701480040326715">
        <ele>787.60000000000002</ele>
        <time>2003-04-19T08:19:00Z</time>
      </trkpt>
      <trkpt lat="33.335242979228497" lon="-3.701179968193173">
        <ele>789.29999999999995</ele>
        <time>2003-04-19T08:19:01Z</time>
      </trkpt>
      <trkpt lat="33.335401983931661" lon="-3.700832035392523">
        <ele>791</ele>
        <time>2003-04-19T08:19:04Z</time>
      </trkpt>
      <trkpt lat="33.335502985864878" lon="-3.700477983802557">
        <ele>792.20000000000005</ele>
        <time>2003-04-19T08:19:05Z</time>
      </trkpt>
      <trkpt lat="33.335597030818462" lon="-3.699953025206924">
        <ele>793.70000000000005</ele>
        <time>2003-04-19T08:19:08Z</time>
      </trkpt>
      <trkpt lat="33.335798028856516" lon="-3.698719963431358">
        <ele>795.20000000000005</ele>
        <time>2003-04-19T08:19:16Z</time>
      </trkpt>
      <trkpt lat="33.335992991924286" lon="-3.69756200350821">
        <ele>796.29999999999995</ele>
        <time>2003-04-19T08:19:21Z</time>
      </trkpt>
      <trkpt lat="33.336185021325946" lon="-3.696428015828133">
        <ele>796.29999999999995</ele>
        <time>2003-04-19T08:19:28Z</time>
      </trkpt>
      <trkpt lat="33.336376966908574" lon="-3.695267960429192">
        <ele>796.10000000000002</ele>
        <time>2003-04-19T08:19:34Z</time>
      </trkpt>
      <trkpt lat="33.336591962724924" lon="-3.694010004401207">
        <ele>796.60000000000002</ele>
        <time>2003-04-19T08:19:39Z</time>
      </trkpt>
      <trkpt lat="33.336797989904881" lon="-3.692760011181235">
        <ele>797</ele>
        <time>2003-04-19T08:19:46Z</time>
      </trkpt>
      <trkpt lat="33.336897986009717" lon="-3.692375030368567">
        <ele>797.29999999999995</ele>
        <time>2003-04-19T08:19:47Z</time>
      </trkpt>
      <trkpt lat="33.337111975997686" lon="-3.691828027367592">
        <ele>797.70000000000005</ele>
        <time>2003-04-19T08:19:51Z</time>
      </trkpt>
      <trkpt lat="33.337612962350249" lon="-3.690993022173643">
        <ele>798.70000000000005</ele>
        <time>2003-04-19T08:19:55Z</time>
      </trkpt>
      <trkpt lat="33.338255016133189" lon="-3.68997797369957">
        <ele>798.60000000000002</ele>
        <time>2003-04-19T08:20:02Z</time>
      </trkpt>
      <trkpt lat="33.3387949783355" lon="-3.689097035676241">
        <ele>798</ele>
        <time>2003-04-19T08:20:06Z</time>
      </trkpt>
      <trkpt lat="33.339342987164855" lon="-3.688227999955416">
        <ele>798.20000000000005</ele>
        <time>2003-04-19T08:20:11Z</time>
      </trkpt>
      <trkpt lat="33.339884961023927" lon="-3.687353013083339">
        <ele>798.20000000000005</ele>
        <time>2003-04-19T08:20:17Z</time>
      </trkpt>
      <trkpt lat="33.340434981510043" lon="-3.686472997069359">
        <ele>798.29999999999995</ele>
        <time>2003-04-19T08:20:22Z</time>
      </trkpt>
      <trkpt lat="33.340994976460934" lon="-3.685577977448702">
        <ele>798.89999999999998</ele>
        <time>2003-04-19T08:20:28Z</time>
      </trkpt>
      <trkpt lat="33.341554971411824" lon="-3.68467197753489">
        <ele>800.60000000000002</ele>
        <time>2003-04-19T08:20:32Z</time>
      </trkpt>
      <trkpt lat="33.342114966362715" lon="-3.683787016198039">
        <ele>802</ele>
        <time>2003-04-19T08:20:37Z</time>
      </trkpt>
      <trkpt lat="33.342657024040818" lon="-3.682872969657183">
        <ele>802.20000000000005</ele>
        <time>2003-04-19T08:20:42Z</time>
      </trkpt>
      <trkpt lat="33.343054996803403" lon="-3.682271987199783">
        <ele>802.5</ele>
        <time>2003-04-19T08:20:47Z</time>
      </trkpt>
      <trkpt lat="33.343603005632758" lon="-3.681387025862932">
        <ele>805.10000000000002</ele>
        <time>2003-04-19T08:20:52Z</time>
      </trkpt>
      <trkpt lat="33.344222009181976" lon="-3.680410031229258">
        <ele>807.5</ele>
        <time>2003-04-19T08:20:59Z</time>
      </trkpt>
      <trkpt lat="33.34476800635457" lon="-3.679528003558517">
        <ele>808.10000000000002</ele>
        <time>2003-04-19T08:21:04Z</time>
      </trkpt>
      <trkpt lat="33.345312997698784" lon="-3.678655028343201">
        <ele>809.20000000000005</ele>
        <time>2003-04-19T08:21:08Z</time>
      </trkpt>
      <trkpt lat="33.345944993197918" lon="-3.677636962383986">
        <ele>810.5</ele>
        <time>2003-04-19T08:21:15Z</time>
      </trkpt>
      <trkpt lat="33.346585035324097" lon="-3.676619986072183">
        <ele>810.79999999999995</ele>
        <time>2003-04-19T08:21:20Z</time>
      </trkpt>
      <trkpt lat="33.347145030274987" lon="-3.675717003643513">
        <ele>811.10000000000002</ele>
        <time>2003-04-19T08:21:26Z</time>
      </trkpt>
      <trkpt lat="33.347773002460599" lon="-3.67470296099782">
        <ele>811.70000000000005</ele>
        <time>2003-04-19T08:21:31Z</time>
      </trkpt>
      <trkpt lat="33.34831296466291" lon="-3.673838032409549">
        <ele>810.89999999999998</ele>
        <time>2003-04-19T08:21:36Z</time>
      </trkpt>
      <trkpt lat="33.348947977647185" lon="-3.672819966450334">
        <ele>810.20000000000005</ele>
        <time>2003-04-19T08:21:43Z</time>
      </trkpt>
      <trkpt lat="33.349490035325289" lon="-3.671956965699792">
        <ele>810.79999999999995</ele>
        <time>2003-04-19T08:21:47Z</time>
      </trkpt>
      <trkpt lat="33.3501370344311" lon="-3.670926997438073">
        <ele>809.70000000000005</ele>
        <time>2003-04-19T08:21:54Z</time>
      </trkpt>
      <trkpt lat="33.35069702938199" lon="-3.670027032494545">
        <ele>806.89999999999998</ele>
        <time>2003-04-19T08:21:58Z</time>
      </trkpt>
      <trkpt lat="33.351288037374616" lon="-3.669078033417463">
        <ele>806.20000000000005</ele>
        <time>2003-04-19T08:22:03Z</time>
      </trkpt>
      <trkpt lat="33.351884996518493" lon="-3.668121993541718">
        <ele>806.60000000000002</ele>
        <time>2003-04-19T08:22:09Z</time>
      </trkpt>
      <trkpt lat="33.352453038096428" lon="-3.667220016941428">
        <ele>806.70000000000005</ele>
        <time>2003-04-19T08:22:13Z</time>
      </trkpt>
      <trkpt lat="33.353031976148486" lon="-3.666287027299404">
        <ele>807.79999999999995</ele>
        <time>2003-04-19T08:22:18Z</time>
      </trkpt>
      <trkpt lat="33.353632958605886" lon="-3.665329981595278">
        <ele>808.5</ele>
        <time>2003-04-19T08:22:24Z</time>
      </trkpt>
      <trkpt lat="33.354226984083652" lon="-3.6643669847399">
        <ele>810.29999999999995</ele>
        <time>2003-04-19T08:22:29Z</time>
      </trkpt>
      <trkpt lat="33.354817992076278" lon="-3.663413040339947">
        <ele>811.79999999999995</ele>
        <time>2003-04-19T08:22:33Z</time>
      </trkpt>
      <trkpt lat="33.355389973148704" lon="-3.662492036819458">
        <ele>812.89999999999998</ele>
        <time>2003-04-19T08:22:39Z</time>
      </trkpt>
      <trkpt lat="33.355933036655188" lon="-3.661623001098633">
        <ele>813.79999999999995</ele>
        <time>2003-04-19T08:22:44Z</time>
      </trkpt>
      <trkpt lat="33.356509963050485" lon="-3.660701997578144">
        <ele>813.79999999999995</ele>
        <time>2003-04-19T08:22:48Z</time>
      </trkpt>
      <trkpt lat="33.357098037377" lon="-3.659766996279359">
        <ele>813.5</ele>
        <time>2003-04-19T08:22:53Z</time>
      </trkpt>
      <trkpt lat="33.357688039541245" lon="-3.658811962231994">
        <ele>812.70000000000005</ele>
        <time>2003-04-19T08:22:59Z</time>
      </trkpt>
      <trkpt lat="33.358294973149896" lon="-3.657839996740222">
        <ele>811</ele>
        <time>2003-04-19T08:23:04Z</time>
      </trkpt>
      <trkpt lat="33.358931997790933" lon="-3.656880017369986">
        <ele>810.70000000000005</ele>
        <time>2003-04-19T08:23:08Z</time>
      </trkpt>
      <trkpt lat="33.359240032732487" lon="-3.65656997077167">
        <ele>811</ele>
        <time>2003-04-19T08:23:11Z</time>
      </trkpt>
      <trkpt lat="33.359580002725124" lon="-3.656312981620431">
        <ele>810.89999999999998</ele>
        <time>2003-04-19T08:23:12Z</time>
      </trkpt>
      <trkpt lat="33.360505029559135" lon="-3.655809983611107">
        <ele>810.29999999999995</ele>
        <time>2003-04-19T08:23:18Z</time>
      </trkpt>
      <trkpt lat="33.361427960917354" lon="-3.65530002862215">
        <ele>810.70000000000005</ele>
        <time>2003-04-19T08:23:23Z</time>
      </trkpt>
      <trkpt lat="33.362377965822816" lon="-3.654784960672259">
        <ele>811</ele>
        <time>2003-04-19T08:23:27Z</time>
      </trkpt>
      <trkpt lat="33.363322019577026" lon="-3.654244998469949">
        <ele>811.20000000000005</ele>
        <time>2003-04-19T08:23:33Z</time>
      </trkpt>
      <trkpt lat="33.364274958148599" lon="-3.653692966327071">
        <ele>811.39999999999998</ele>
        <time>2003-04-19T08:23:38Z</time>
      </trkpt>
      <trkpt lat="33.365239966660738" lon="-3.653188040480018">
        <ele>811.5</ele>
        <time>2003-04-19T08:23:42Z</time>
      </trkpt>
      <trkpt lat="33.366170022636652" lon="-3.652668027207255">
        <ele>811.5</ele>
        <time>2003-04-19T08:23:47Z</time>
      </trkpt>
      <trkpt lat="33.367102006450295" lon="-3.652156982570887">
        <ele>810.79999999999995</ele>
        <time>2003-04-19T08:23:53Z</time>
      </trkpt>
      <trkpt lat="33.368028039112687" lon="-3.651637975126505">
        <ele>809.20000000000005</ele>
        <time>2003-04-19T08:23:58Z</time>
      </trkpt>
      <trkpt lat="33.368975026533008" lon="-3.651117039844394">
        <ele>807.79999999999995</ele>
        <time>2003-04-19T08:24:02Z</time>
      </trkpt>
      <trkpt lat="33.369922013953328" lon="-3.650597026571631">
        <ele>806.10000000000002</ele>
        <time>2003-04-19T08:24:08Z</time>
      </trkpt>
      <trkpt lat="33.37087201885879" lon="-3.650067960843444">
        <ele>802.39999999999998</ele>
        <time>2003-04-19T08:24:13Z</time>
      </trkpt>
      <trkpt lat="33.371786987408996" lon="-3.649557000026107">
        <ele>799.89999999999998</ele>
        <time>2003-04-19T08:24:17Z</time>
      </trkpt>
      <trkpt lat="33.372707990929484" lon="-3.649058025330305">
        <ele>798.39999999999998</ele>
        <time>2003-04-19T08:24:23Z</time>
      </trkpt>
      <trkpt lat="33.373562023043633" lon="-3.648585034534335">
        <ele>799.10000000000002</ele>
        <time>2003-04-19T08:24:28Z</time>
      </trkpt>
      <trkpt lat="33.373956978321075" lon="-3.648374984040856">
        <ele>799.29999999999995</ele>
        <time>2003-04-19T08:24:31Z</time>
      </trkpt>
      <trkpt lat="33.374278005212545" lon="-3.648199969902635">
        <ele>799.89999999999998</ele>
        <time>2003-04-19T08:24:33Z</time>
      </trkpt>
      <trkpt lat="33.374657034873962" lon="-3.648065021261573">
        <ele>800</ele>
        <time>2003-04-19T08:24:36Z</time>
      </trkpt>
      <trkpt lat="33.374907989054918" lon="-3.648041971027851">
        <ele>800.5</ele>
        <time>2003-04-19T08:24:39Z</time>
      </trkpt>
      <trkpt lat="33.375118039548397" lon="-3.648038031533361">
        <ele>800.60000000000002</ele>
        <time>2003-04-19T08:24:40Z</time>
      </trkpt>
      <trkpt lat="33.375262040644884" lon="-3.648025039583445">
        <ele>801.29999999999995</ele>
        <time>2003-04-19T08:24:43Z</time>
      </trkpt>
      <trkpt lat="33.375373017042875" lon="-3.647971982136369">
        <ele>801.39999999999998</ele>
        <time>2003-04-19T08:24:45Z</time>
      </trkpt>
      <trkpt lat="33.375437976792455" lon="-3.647893024608493">
        <ele>801.60000000000002</ele>
        <time>2003-04-19T08:24:50Z</time>
      </trkpt>
      <trkpt lat="33.375472007319331" lon="-3.647741982713342">
        <ele>803.70000000000005</ele>
        <time>2003-04-19T08:28:51Z</time>
      </trkpt>
      <trkpt lat="33.375462032854557" lon="-3.647588007152081">
        <ele>804.29999999999995</ele>
        <time>2003-04-19T08:28:55Z</time>
      </trkpt>
      <trkpt lat="33.375315014272928" lon="-3.647420033812523">
        <ele>804.70000000000005</ele>
        <time>2003-04-19T08:29:09Z</time>
      </trkpt>
      <trkpt lat="33.375245025381446" lon="-3.647307967767119">
        <ele>804.29999999999995</ele>
        <time>2003-04-19T08:29:11Z</time>
      </trkpt>
      <trkpt lat="33.375155003741384" lon="-3.647106969729066">
        <ele>803.79999999999995</ele>
        <time>2003-04-19T08:29:17Z</time>
      </trkpt>
      <trkpt lat="33.375107981264591" lon="-3.646932961419225">
        <ele>803.89999999999998</ele>
        <time>2003-04-19T08:29:20Z</time>
      </trkpt>
      <trkpt lat="33.375057019293308" lon="-3.646712014451623">
        <ele>804.20000000000005</ele>
        <time>2003-04-19T08:29:22Z</time>
      </trkpt>
      <trkpt lat="33.375004967674613" lon="-3.646568013355136">
        <ele>804.5</ele>
        <time>2003-04-19T08:29:25Z</time>
      </trkpt>
      <trkpt lat="33.374943025410175" lon="-3.6464680172503">
        <ele>804.79999999999995</ele>
        <time>2003-04-19T08:29:26Z</time>
      </trkpt>
      <trkpt lat="33.374859960749745" lon="-3.646359974518418">
        <ele>804.70000000000005</ele>
        <time>2003-04-19T08:29:29Z</time>
      </trkpt>
      <trkpt lat="33.374747978523374" lon="-3.646229971200228">
        <ele>804.29999999999995</ele>
        <time>2003-04-19T08:29:34Z</time>
      </trkpt>
      <trkpt lat="33.374631972983479" lon="-3.646042970940471">
        <ele>804</ele>
        <time>2003-04-19T08:30:08Z</time>
      </trkpt>
      <trkpt lat="33.374582016840577" lon="-3.645923025906086">
        <ele>804.29999999999995</ele>
        <time>2003-04-19T08:30:09Z</time>
      </trkpt>
      <trkpt lat="33.374452013522387" lon="-3.645626977086067">
        <ele>805</ele>
        <time>2003-04-19T08:30:15Z</time>
      </trkpt>
      <trkpt lat="33.374338019639254" lon="-3.645397983491421">
        <ele>805.89999999999998</ele>
        <time>2003-04-19T08:30:18Z</time>
      </trkpt>
      <trkpt lat="33.374210027977824" lon="-3.645254988223314">
        <ele>805.89999999999998</ele>
        <time>2003-04-19T08:30:20Z</time>
      </trkpt>
      <trkpt lat="33.374152025207877" lon="-3.645167984068394">
        <ele>805.89999999999998</ele>
        <time>2003-04-19T08:30:22Z</time>
      </trkpt>
      <trkpt lat="33.374108020216227" lon="-3.64507301710546">
        <ele>806.29999999999995</ele>
        <time>2003-04-19T08:30:22Z</time>
      </trkpt>
      <trkpt lat="33.37405001744628" lon="-3.644870007410646">
        <ele>806.89999999999998</ele>
        <time>2003-04-19T08:30:23Z</time>
      </trkpt>
      <trkpt lat="33.373984973877668" lon="-3.644687030464411">
        <ele>807.39999999999998</ele>
        <time>2003-04-19T08:30:26Z</time>
      </trkpt>
      <trkpt lat="33.373886989429593" lon="-3.644507993012667">
        <ele>807.89999999999998</ele>
        <time>2003-04-19T08:30:27Z</time>
      </trkpt>
      <trkpt lat="33.373817000538111" lon="-3.644312024116516">
        <ele>808.70000000000005</ele>
        <time>2003-04-19T08:30:30Z</time>
      </trkpt>
      <trkpt lat="33.373809959739447" lon="-3.644202975556254">
        <ele>809</ele>
        <time>2003-04-19T08:30:31Z</time>
      </trkpt>
      <trkpt lat="33.373780036345124" lon="-3.643795028328896">
        <ele>810.79999999999995</ele>
        <time>2003-04-19T08:30:35Z</time>
      </trkpt>
      <trkpt lat="33.373744999989867" lon="-3.643495040014386">
        <ele>811.60000000000002</ele>
        <time>2003-04-19T08:30:38Z</time>
      </trkpt>
      <trkpt lat="33.373703006654978" lon="-3.643278032541275">
        <ele>811.89999999999998</ele>
        <time>2003-04-19T08:30:39Z</time>
      </trkpt>
      <trkpt lat="33.373662019148469" lon="-3.643043003976345">
        <ele>811.79999999999995</ele>
        <time>2003-04-19T08:30:42Z</time>
      </trkpt>
      <trkpt lat="33.37366696447134" lon="-3.642911994829774">
        <ele>811.89999999999998</ele>
        <time>2003-04-19T08:30:43Z</time>
      </trkpt>
      <trkpt lat="33.373727984726429" lon="-3.64225803874433">
        <ele>814.10000000000002</ele>
        <time>2003-04-19T08:30:49Z</time>
      </trkpt>
      <trkpt lat="33.374022021889687" lon="-3.641217006370425">
        <ele>814.89999999999998</ele>
        <time>2003-04-19T08:30:55Z</time>
      </trkpt>
      <trkpt lat="33.374099973589182" lon="-3.640975020825863">
        <ele>815.60000000000002</ele>
        <time>2003-04-19T08:30:58Z</time>
      </trkpt>
      <trkpt lat="33.374327961355448" lon="-3.640391975641251">
        <ele>817.29999999999995</ele>
        <time>2003-04-19T08:31:02Z</time>
      </trkpt>
      <trkpt lat="33.374325027689338" lon="-3.640267001464963">
        <ele>817.60000000000002</ele>
        <time>2003-04-19T08:31:03Z</time>
      </trkpt>
      <trkpt lat="33.374342964962125" lon="-3.640025015920401">
        <ele>818.39999999999998</ele>
        <time>2003-04-19T08:31:06Z</time>
      </trkpt>
      <trkpt lat="33.374413037672639" lon="-3.639801973477006">
        <ele>818.60000000000002</ele>
        <time>2003-04-19T08:31:09Z</time>
      </trkpt>
      <trkpt lat="33.374529965221882" lon="-3.639655038714409">
        <ele>818.29999999999995</ele>
        <time>2003-04-19T08:31:10Z</time>
      </trkpt>
      <trkpt lat="33.374613029882312" lon="-3.639601981267333">
        <ele>818.5</ele>
        <time>2003-04-19T08:31:12Z</time>
      </trkpt>
      <trkpt lat="33.374752001836896" lon="-3.639482036232948">
        <ele>819</ele>
        <time>2003-04-19T08:31:13Z</time>
      </trkpt>
      <trkpt lat="33.374725012108684" lon="-3.639296963810921">
        <ele>819.79999999999995</ele>
        <time>2003-04-19T08:31:16Z</time>
      </trkpt>
      <trkpt lat="33.374757030978799" lon="-3.639123039320111">
        <ele>820.5</ele>
        <time>2003-04-19T08:31:17Z</time>
      </trkpt>
      <trkpt lat="33.374876976013184" lon="-3.638966968283057">
        <ele>821</ele>
        <time>2003-04-19T08:31:20Z</time>
      </trkpt>
      <trkpt lat="33.375002034008503" lon="-3.638772005215287">
        <ele>821</ele>
        <time>2003-04-19T08:31:21Z</time>
      </trkpt>
      <trkpt lat="33.375052995979786" lon="-3.63864803686738">
        <ele>821.39999999999998</ele>
        <time>2003-04-19T08:31:22Z</time>
      </trkpt>
      <trkpt lat="33.375132959336042" lon="-3.638394987210631">
        <ele>823.10000000000002</ele>
        <time>2003-04-19T08:31:25Z</time>
      </trkpt>
      <trkpt lat="33.375181993469596" lon="-3.638276970013976">
        <ele>822.20000000000005</ele>
        <time>2003-04-19T08:31:25Z</time>
      </trkpt>
      <trkpt lat="33.375272015109658" lon="-3.63817697390914">
        <ele>821.10000000000002</ele>
        <time>2003-04-19T08:31:26Z</time>
      </trkpt>
      <trkpt lat="33.375377040356398" lon="-3.638094998896122">
        <ele>821.39999999999998</ele>
        <time>2003-04-19T08:31:28Z</time>
      </trkpt>
      <trkpt lat="33.375462032854557" lon="-3.637989973649383">
        <ele>821.5</ele>
        <time>2003-04-19T08:31:29Z</time>
      </trkpt>
      <trkpt lat="33.375526992604136" lon="-3.637859970331192">
        <ele>821.5</ele>
        <time>2003-04-19T08:31:29Z</time>
      </trkpt>
      <trkpt lat="33.375577032566071" lon="-3.637716975063086">
        <ele>821.60000000000002</ele>
        <time>2003-04-19T08:31:30Z</time>
      </trkpt>
      <trkpt lat="33.375742994248867" lon="-3.637344986200333">
        <ele>821.70000000000005</ele>
        <time>2003-04-19T08:31:33Z</time>
      </trkpt>
      <trkpt lat="33.375907028093934" lon="-3.637029994279146">
        <ele>822.20000000000005</ele>
        <time>2003-04-19T08:31:37Z</time>
      </trkpt>
      <trkpt lat="33.375954972580075" lon="-3.636923041194677">
        <ele>822.39999999999998</ele>
        <time>2003-04-19T08:31:37Z</time>
      </trkpt>
      <trkpt lat="33.376182960346341" lon="-3.636327004060149">
        <ele>823.29999999999995</ele>
        <time>2003-04-19T08:31:43Z</time>
      </trkpt>
      <trkpt lat="33.376196958124638" lon="-3.636197000741959">
        <ele>823.39999999999998</ele>
        <time>2003-04-19T08:31:44Z</time>
      </trkpt>
      <trkpt lat="33.376240041106939" lon="-3.635802967473865">
        <ele>824.29999999999995</ele>
        <time>2003-04-19T08:31:47Z</time>
      </trkpt>
      <trkpt lat="33.376289997249842" lon="-3.635682016611099">
        <ele>825.10000000000002</ele>
        <time>2003-04-19T08:31:48Z</time>
      </trkpt>
      <trkpt lat="33.376359986141324" lon="-3.635568022727966">
        <ele>824.89999999999998</ele>
        <time>2003-04-19T08:31:48Z</time>
      </trkpt>
      <trkpt lat="33.376476997509599" lon="-3.635312961414456">
        <ele>825.39999999999998</ele>
        <time>2003-04-19T08:31:51Z</time>
      </trkpt>
      <trkpt lat="33.376792995259166" lon="-3.634392041712999">
        <ele>827.79999999999995</ele>
        <time>2003-04-19T08:31:57Z</time>
      </trkpt>
      <trkpt lat="33.37693196721375" lon="-3.634047964587808">
        <ele>829</ele>
        <time>2003-04-19T08:32:00Z</time>
      </trkpt>
      <trkpt lat="33.376936996355653" lon="-3.63392299041152">
        <ele>828.89999999999998</ele>
        <time>2003-04-19T08:32:02Z</time>
      </trkpt>
      <trkpt lat="33.376891985535622" lon="-3.633670024573803">
        <ele>829.10000000000002</ele>
        <time>2003-04-19T08:32:04Z</time>
      </trkpt>
      <trkpt lat="33.376827025786042" lon="-3.633317984640598">
        <ele>830.10000000000002</ele>
        <time>2003-04-19T08:32:07Z</time>
      </trkpt>
      <trkpt lat="33.376887962222099" lon="-3.633089996874332">
        <ele>830.70000000000005</ele>
        <time>2003-04-19T08:32:08Z</time>
      </trkpt>
      <trkpt lat="33.377002961933613" lon="-3.632882963865995">
        <ele>831.10000000000002</ele>
        <time>2003-04-19T08:32:11Z</time>
      </trkpt>
      <trkpt lat="33.377122990787029" lon="-3.632652964442968">
        <ele>831.29999999999995</ele>
        <time>2003-04-19T08:32:12Z</time>
      </trkpt>
      <trkpt lat="33.3771469630301" lon="-3.632511980831623">
        <ele>831.60000000000002</ele>
        <time>2003-04-19T08:32:14Z</time>
      </trkpt>
      <trkpt lat="33.377213012427092" lon="-3.632230013608933">
        <ele>832.20000000000005</ele>
        <time>2003-04-19T08:32:15Z</time>
      </trkpt>
      <trkpt lat="33.377334969118237" lon="-3.631981993094087">
        <ele>833.39999999999998</ele>
        <time>2003-04-19T08:32:18Z</time>
      </trkpt>
      <trkpt lat="33.377528004348278" lon="-3.631597012281418">
        <ele>834</ele>
        <time>2003-04-19T08:32:20Z</time>
      </trkpt>
      <trkpt lat="33.377588018774986" lon="-3.631334993988276">
        <ele>834.70000000000005</ele>
        <time>2003-04-19T08:32:23Z</time>
      </trkpt>
      <trkpt lat="33.377600004896522" lon="-3.631095020100474">
        <ele>836.39999999999998</ele>
        <time>2003-04-19T08:32:24Z</time>
      </trkpt>
      <trkpt lat="33.377581983804703" lon="-3.630956970155239">
        <ele>836.20000000000005</ele>
        <time>2003-04-19T08:32:26Z</time>
      </trkpt>
      <trkpt lat="33.377582989633083" lon="-3.630680032074451">
        <ele>835.89999999999998</ele>
        <time>2003-04-19T08:32:27Z</time>
      </trkpt>
      <trkpt lat="33.37761702015996" lon="-3.6305480170995">
        <ele>836.20000000000005</ele>
        <time>2003-04-19T08:32:29Z</time>
      </trkpt>
      <trkpt lat="33.377750040963292" lon="-3.630145015195012">
        <ele>837.5</ele>
        <time>2003-04-19T08:32:31Z</time>
      </trkpt>
      <trkpt lat="33.378126975148916" lon="-3.629147987812758">
        <ele>839.70000000000005</ele>
        <time>2003-04-19T08:32:38Z</time>
      </trkpt>
      <trkpt lat="33.378486977890134" lon="-3.628151966258884">
        <ele>841.39999999999998</ele>
        <time>2003-04-19T08:32:46Z</time>
      </trkpt>
      <trkpt lat="33.378738015890121" lon="-3.627449981868267">
        <ele>839.5</ele>
        <time>2003-04-19T08:32:50Z</time>
      </trkpt>
      <trkpt lat="33.379113022238016" lon="-3.626387994736433">
        <ele>841</ele>
        <time>2003-04-19T08:32:58Z</time>
      </trkpt>
      <trkpt lat="33.37948702275753" lon="-3.625288037583232">
        <ele>845.89999999999998</ele>
        <time>2003-04-19T08:33:05Z</time>
      </trkpt>
      <trkpt lat="33.379651978611946" lon="-3.624862991273403">
        <ele>846.60000000000002</ele>
        <time>2003-04-19T08:33:08Z</time>
      </trkpt>
      <trkpt lat="33.379734959453344" lon="-3.624629974365234">
        <ele>845.70000000000005</ele>
        <time>2003-04-19T08:33:09Z</time>
      </trkpt>
      <trkpt lat="33.379892036318779" lon="-3.624265026301146">
        <ele>842.89999999999998</ele>
        <time>2003-04-19T08:33:13Z</time>
      </trkpt>
      <trkpt lat="33.379977028816938" lon="-3.624160001054406">
        <ele>842.20000000000005</ele>
        <time>2003-04-19T08:33:13Z</time>
      </trkpt>
      <trkpt lat="33.380109965801239" lon="-3.623965037986636">
        <ele>841.20000000000005</ele>
        <time>2003-04-19T08:33:16Z</time>
      </trkpt>
      <trkpt lat="33.38010803796351" lon="-3.62378197722137">
        <ele>841.89999999999998</ele>
        <time>2003-04-19T08:33:17Z</time>
      </trkpt>
      <trkpt lat="33.380118012428284" lon="-3.623557006940246">
        <ele>842.79999999999995</ele>
        <time>2003-04-19T08:33:20Z</time>
      </trkpt>
      <trkpt lat="33.380172997713089" lon="-3.62345801666379">
        <ele>842.5</ele>
        <time>2003-04-19T08:33:21Z</time>
      </trkpt>
      <trkpt lat="33.38023703545332" lon="-3.623376963660121">
        <ele>842.70000000000005</ele>
        <time>2003-04-19T08:33:21Z</time>
      </trkpt>
      <trkpt lat="33.380322027951479" lon="-3.62324696034193">
        <ele>842.29999999999995</ele>
        <time>2003-04-19T08:33:24Z</time>
      </trkpt>
      <trkpt lat="33.380380030721426" lon="-3.62309499643743">
        <ele>843.10000000000002</ele>
        <time>2003-04-19T08:33:25Z</time>
      </trkpt>
      <trkpt lat="33.38047499768436" lon="-3.622723007574678">
        <ele>843</ele>
        <time>2003-04-19T08:33:29Z</time>
      </trkpt>
      <trkpt lat="33.380572982132435" lon="-3.622517986223102">
        <ele>843.29999999999995</ele>
        <time>2003-04-19T08:33:32Z</time>
      </trkpt>
      <trkpt lat="33.380695022642612" lon="-3.622384965419769">
        <ele>843.70000000000005</ele>
        <time>2003-04-19T08:33:33Z</time>
      </trkpt>
      <trkpt lat="33.380787977948785" lon="-3.622190002351999">
        <ele>843.39999999999998</ele>
        <time>2003-04-19T08:33:36Z</time>
      </trkpt>
      <trkpt lat="33.38105795904994" lon="-3.621392967179418">
        <ele>844.60000000000002</ele>
        <time>2003-04-19T08:33:43Z</time>
      </trkpt>
      <trkpt lat="33.381458027288318" lon="-3.620338020846248">
        <ele>846.29999999999995</ele>
        <time>2003-04-19T08:33:51Z</time>
      </trkpt>
      <trkpt lat="33.381877038627863" lon="-3.619300005957484">
        <ele>848.29999999999995</ele>
        <time>2003-04-19T08:33:58Z</time>
      </trkpt>
      <trkpt lat="33.382280040532351" lon="-3.618204994127154">
        <ele>851.39999999999998</ele>
        <time>2003-04-19T08:34:04Z</time>
      </trkpt>
      <trkpt lat="33.382538035511971" lon="-3.617669977247715">
        <ele>855.5</ele>
        <time>2003-04-19T08:34:08Z</time>
      </trkpt>
      <trkpt lat="33.382563013583422" lon="-3.617403013631702">
        <ele>856.70000000000005</ele>
        <time>2003-04-19T08:34:11Z</time>
      </trkpt>
      <trkpt lat="33.382529988884926" lon="-3.617277033627033">
        <ele>856.60000000000002</ele>
        <time>2003-04-19T08:34:11Z</time>
      </trkpt>
      <trkpt lat="33.382432004436851" lon="-3.617030018940568">
        <ele>857.70000000000005</ele>
        <time>2003-04-19T08:34:14Z</time>
      </trkpt>
      <trkpt lat="33.382305018603802" lon="-3.616698011755943">
        <ele>860.20000000000005</ele>
        <time>2003-04-19T08:34:17Z</time>
      </trkpt>
      <trkpt lat="33.382311975583434" lon="-3.616588041186333">
        <ele>861.10000000000002</ele>
        <time>2003-04-19T08:34:18Z</time>
      </trkpt>
      <trkpt lat="33.382352963089943" lon="-3.616473041474819">
        <ele>861.60000000000002</ele>
        <time>2003-04-19T08:34:19Z</time>
      </trkpt>
      <trkpt lat="33.382492018863559" lon="-3.616101974621415">
        <ele>861.79999999999995</ele>
        <time>2003-04-19T08:34:22Z</time>
      </trkpt>
      <trkpt lat="33.382614981383085" lon="-3.61583299934864">
        <ele>861.29999999999995</ele>
        <time>2003-04-19T08:34:23Z</time>
      </trkpt>
      <trkpt lat="33.382707014679909" lon="-3.615708025172353">
        <ele>861.39999999999998</ele>
        <time>2003-04-19T08:34:25Z</time>
      </trkpt>
      <trkpt lat="33.383391983807087" lon="-3.614881988614798">
        <ele>861.10000000000002</ele>
        <time>2003-04-19T08:34:31Z</time>
      </trkpt>
      <trkpt lat="33.383700018748641" lon="-3.614560039713979">
        <ele>861.5</ele>
        <time>2003-04-19T08:34:34Z</time>
      </trkpt>
      <trkpt lat="33.383897999301553" lon="-3.614357030019164">
        <ele>861.5</ele>
        <time>2003-04-19T08:34:37Z</time>
      </trkpt>
      <trkpt lat="33.384075025096536" lon="-3.614170029759407">
        <ele>861</ele>
        <time>2003-04-19T08:34:38Z</time>
      </trkpt>
      <trkpt lat="33.384135039523244" lon="-3.614059975370765">
        <ele>861</ele>
        <time>2003-04-19T08:34:39Z</time>
      </trkpt>
      <trkpt lat="33.38423696346581" lon="-3.613817989826202">
        <ele>859.39999999999998</ele>
        <time>2003-04-19T08:34:42Z</time>
      </trkpt>
      <trkpt lat="33.384463023394346" lon="-3.613084992393851">
        <ele>857</ele>
        <time>2003-04-19T08:34:48Z</time>
      </trkpt>
      <trkpt lat="33.384469980373979" lon="-3.612948032096028">
        <ele>856.5</ele>
        <time>2003-04-19T08:34:49Z</time>
      </trkpt>
      <trkpt lat="33.384462017565966" lon="-3.612590041011572">
        <ele>855.39999999999998</ele>
        <time>2003-04-19T08:34:52Z</time>
      </trkpt>
      <trkpt lat="33.384466962888837" lon="-3.612427012994885">
        <ele>854.89999999999998</ele>
        <time>2003-04-19T08:34:53Z</time>
      </trkpt>
      <trkpt lat="33.384508034214377" lon="-3.61232802271843">
        <ele>855.20000000000005</ele>
        <time>2003-04-19T08:34:56Z</time>
      </trkpt>
      <trkpt lat="33.38462496176362" lon="-3.612125013023615">
        <ele>856.39999999999998</ele>
        <time>2003-04-19T08:34:58Z</time>
      </trkpt>
      <trkpt lat="33.384737027809024" lon="-3.61200800165534">
        <ele>857.70000000000005</ele>
        <time>2003-04-19T08:35:01Z</time>
      </trkpt>
      <trkpt lat="33.384908018633723" lon="-3.611874980852008">
        <ele>859.10000000000002</ele>
        <time>2003-04-19T08:35:04Z</time>
      </trkpt>
      <trkpt lat="33.385027963668108" lon="-3.611737014725804">
        <ele>859.89999999999998</ele>
        <time>2003-04-19T08:35:05Z</time>
      </trkpt>
      <trkpt lat="33.385155033320189" lon="-3.611571975052357">
        <ele>861.60000000000002</ele>
        <time>2003-04-19T08:35:08Z</time>
      </trkpt>
      <trkpt lat="33.385404981672764" lon="-3.611163021996617">
        <ele>863.29999999999995</ele>
        <time>2003-04-19T08:35:12Z</time>
      </trkpt>
      <trkpt lat="33.385532973334193" lon="-3.610945008695126">
        <ele>864</ele>
        <time>2003-04-19T08:35:13Z</time>
      </trkpt>
      <trkpt lat="33.385864980518818" lon="-3.610207987949252">
        <ele>863.70000000000005</ele>
        <time>2003-04-19T08:35:20Z</time>
      </trkpt>
      <trkpt lat="33.385987021028996" lon="-3.609972959384322">
        <ele>862.20000000000005</ele>
        <time>2003-04-19T08:35:21Z</time>
      </trkpt>
      <trkpt lat="33.386058015748858" lon="-3.609886961057782">
        <ele>860.89999999999998</ele>
        <time>2003-04-19T08:35:23Z</time>
      </trkpt>
      <trkpt lat="33.386177038773894" lon="-3.609744971618056">
        <ele>860.60000000000002</ele>
        <time>2003-04-19T08:35:24Z</time>
      </trkpt>
      <trkpt lat="33.386324979364872" lon="-3.60962200909853">
        <ele>860.39999999999998</ele>
        <time>2003-04-19T08:35:27Z</time>
      </trkpt>
      <trkpt lat="33.386479960754514" lon="-3.609463004395366">
        <ele>859.79999999999995</ele>
        <time>2003-04-19T08:35:28Z</time>
      </trkpt>
      <trkpt lat="33.387208012863994" lon="-3.60863302834332">
        <ele>862.89999999999998</ele>
        <time>2003-04-19T08:35:39Z</time>
      </trkpt>
      <trkpt lat="33.38763196952641" lon="-3.607642035931349">
        <ele>866.5</ele>
        <time>2003-04-19T08:35:47Z</time>
      </trkpt>
      <trkpt lat="33.388045029714704" lon="-3.606578037142754">
        <ele>868.89999999999998</ele>
        <time>2003-04-19T08:35:55Z</time>
      </trkpt>
      <trkpt lat="33.388539981096983" lon="-3.605602970346808">
        <ele>870.20000000000005</ele>
        <time>2003-04-19T08:36:02Z</time>
      </trkpt>
      <trkpt lat="33.388899983838201" lon="-3.60485496930778">
        <ele>872.39999999999998</ele>
        <time>2003-04-19T08:36:07Z</time>
      </trkpt>
      <trkpt lat="33.389093019068241" lon="-3.60425197519362">
        <ele>873.79999999999995</ele>
        <time>2003-04-19T08:36:13Z</time>
      </trkpt>
      <trkpt lat="33.389159990474582" lon="-3.60405801795423">
        <ele>873.89999999999998</ele>
        <time>2003-04-19T08:36:14Z</time>
      </trkpt>
      <trkpt lat="33.389265015721321" lon="-3.60390798188746">
        <ele>874.10000000000002</ele>
        <time>2003-04-19T08:36:17Z</time>
      </trkpt>
      <trkpt lat="33.389376997947693" lon="-3.603728022426367">
        <ele>874.70000000000005</ele>
        <time>2003-04-19T08:36:18Z</time>
      </trkpt>
      <trkpt lat="33.389459978789091" lon="-3.603487964719534">
        <ele>874.60000000000002</ele>
        <time>2003-04-19T08:36:21Z</time>
      </trkpt>
      <trkpt lat="33.389653014019132" lon="-3.602968035265803">
        <ele>875</ele>
        <time>2003-04-19T08:36:25Z</time>
      </trkpt>
      <trkpt lat="33.390057021752" lon="-3.601881992071867">
        <ele>876.29999999999995</ele>
        <time>2003-04-19T08:36:33Z</time>
      </trkpt>
      <trkpt lat="33.390397997573018" lon="-3.600955037400127">
        <ele>876.79999999999995</ele>
        <time>2003-04-19T08:36:38Z</time>
      </trkpt>
      <trkpt lat="33.390799993649125" lon="-3.599885003641248">
        <ele>878.10000000000002</ele>
        <time>2003-04-19T08:36:45Z</time>
      </trkpt>
      <trkpt lat="33.391159996390343" lon="-3.598897028714418">
        <ele>878.60000000000002</ele>
        <time>2003-04-19T08:36:49Z</time>
      </trkpt>
      <trkpt lat="33.39158303104341" lon="-3.597760023549199">
        <ele>879.70000000000005</ele>
        <time>2003-04-19T08:36:56Z</time>
      </trkpt>
      <trkpt lat="33.391982009634376" lon="-3.596707005053759">
        <ele>880.39999999999998</ele>
        <time>2003-04-19T08:37:01Z</time>
      </trkpt>
      <trkpt lat="33.392382999882102" lon="-3.59565700404346">
        <ele>881.39999999999998</ele>
        <time>2003-04-19T08:37:08Z</time>
      </trkpt>
      <trkpt lat="33.392790025100112" lon="-3.594586970284581">
        <ele>882</ele>
        <time>2003-04-19T08:37:13Z</time>
      </trkpt>
      <trkpt lat="33.393209958449006" lon="-3.593482989817858">
        <ele>882.70000000000005</ele>
        <time>2003-04-19T08:37:20Z</time>
      </trkpt>
      <trkpt lat="33.393557975068688" lon="-3.592302985489368">
        <ele>883.70000000000005</ele>
        <time>2003-04-19T08:37:26Z</time>
      </trkpt>
      <trkpt lat="33.393572978675365" lon="-3.591907024383545">
        <ele>883.79999999999995</ele>
        <time>2003-04-19T08:37:28Z</time>
      </trkpt>
      <trkpt lat="33.393569961190224" lon="-3.590787034481764">
        <ele>884.60000000000002</ele>
        <time>2003-04-19T08:37:34Z</time>
      </trkpt>
      <trkpt lat="33.393552023917437" lon="-3.590310020372272">
        <ele>884.79999999999995</ele>
        <time>2003-04-19T08:37:36Z</time>
      </trkpt>
      <trkpt lat="33.393553029745817" lon="-3.590117990970612">
        <ele>885</ele>
        <time>2003-04-19T08:37:39Z</time>
      </trkpt>
      <trkpt lat="33.393531991168857" lon="-3.589303018525243">
        <ele>885.20000000000005</ele>
        <time>2003-04-19T08:37:46Z</time>
      </trkpt>
      <trkpt lat="33.393512964248657" lon="-3.588634980842471">
        <ele>885.29999999999995</ele>
        <time>2003-04-19T08:37:50Z</time>
      </trkpt>
      <trkpt lat="33.393489997833967" lon="-3.587667038664222">
        <ele>885.5</ele>
        <time>2003-04-19T08:37:55Z</time>
      </trkpt>
      <trkpt lat="33.393512964248657" lon="-3.586540007963777">
        <ele>885.70000000000005</ele>
        <time>2003-04-19T08:38:01Z</time>
      </trkpt>
      <trkpt lat="33.393601980060339" lon="-3.586280001327395">
        <ele>885.79999999999995</ele>
        <time>2003-04-19T08:38:02Z</time>
      </trkpt>
      <trkpt lat="33.393661994487047" lon="-3.586187968030572">
        <ele>885.79999999999995</ele>
        <time>2003-04-19T08:38:03Z</time>
      </trkpt>
      <trkpt lat="33.393727960065007" lon="-3.586113033816218">
        <ele>885.70000000000005</ele>
        <time>2003-04-19T08:38:05Z</time>
      </trkpt>
      <trkpt lat="33.393955025821924" lon="-3.585901977494359">
        <ele>885.5</ele>
        <time>2003-04-19T08:38:07Z</time>
      </trkpt>
      <trkpt lat="33.394775027409196" lon="-3.585337959229946">
        <ele>883</ele>
        <time>2003-04-19T08:38:18Z</time>
      </trkpt>
      <trkpt lat="33.394972002133727" lon="-3.585207033902407">
        <ele>882.29999999999995</ele>
        <time>2003-04-19T08:38:21Z</time>
      </trkpt>
      <trkpt lat="33.395641967654228" lon="-3.58472297899425">
        <ele>883.20000000000005</ele>
        <time>2003-04-19T08:38:32Z</time>
      </trkpt>
      <trkpt lat="33.396047987043858" lon="-3.584419973194599">
        <ele>883.10000000000002</ele>
        <time>2003-04-19T08:38:41Z</time>
      </trkpt>
      <trkpt lat="33.396119987592101" lon="-3.584347972646356">
        <ele>883.39999999999998</ele>
        <time>2003-04-19T08:38:45Z</time>
      </trkpt>
      <trkpt lat="33.396240016445518" lon="-3.584222998470068">
        <ele>884.39999999999998</ele>
        <time>2003-04-19T08:39:00Z</time>
      </trkpt>
      <trkpt lat="33.396315034478903" lon="-3.584152003750205">
        <ele>884.89999999999998</ele>
        <time>2003-04-19T08:39:08Z</time>
      </trkpt>
      <trkpt lat="33.396431962028146" lon="-3.58405795879662">
        <ele>885.39999999999998</ele>
        <time>2003-04-19T08:39:15Z</time>
      </trkpt>
      <trkpt lat="33.396513015031815" lon="-3.584002973511815">
        <ele>885</ele>
        <time>2003-04-19T08:39:19Z</time>
      </trkpt>
      <trkpt lat="33.396609993651509" lon="-3.583952011540532">
        <ele>884.79999999999995</ele>
        <time>2003-04-19T08:39:27Z</time>
      </trkpt>
      <trkpt lat="33.396709989756346" lon="-3.583940025418997">
        <ele>885</ele>
        <time>2003-04-19T08:39:31Z</time>
      </trkpt>
      <trkpt lat="33.39680696837604" lon="-3.583914963528514">
        <ele>884.39999999999998</ele>
        <time>2003-04-19T08:39:36Z</time>
      </trkpt>
      <trkpt lat="33.396875029429793" lon="-3.584023006260395">
        <ele>886.89999999999998</ele>
        <time>2003-04-19T09:21:27Z</time>
      </trkpt>
      <trkpt lat="33.396949963644147" lon="-3.583893002942205">
        <ele>890.29999999999995</ele>
        <time>2003-04-19T09:22:47Z</time>
      </trkpt>
      <trkpt lat="33.397133024409413" lon="-3.583856960758567">
        <ele>890.89999999999998</ele>
        <time>2003-04-19T09:22:55Z</time>
      </trkpt>
      <trkpt lat="33.39740501716733" lon="-3.583774985745549">
        <ele>889.79999999999995</ele>
        <time>2003-04-19T09:23:05Z</time>
      </trkpt>
      <trkpt lat="33.397512976080179" lon="-3.583729974925518">
        <ele>890.60000000000002</ele>
        <time>2003-04-19T09:23:09Z</time>
      </trkpt>
      <trkpt lat="33.3975999802351" lon="-3.583698039874435">
        <ele>891.39999999999998</ele>
        <time>2003-04-19T09:23:11Z</time>
      </trkpt>
      <trkpt lat="33.397822016850114" lon="-3.583578011021018">
        <ele>892</ele>
        <time>2003-04-19T09:23:18Z</time>
      </trkpt>
      <trkpt lat="33.397950008511543" lon="-3.583482038229704">
        <ele>892.89999999999998</ele>
        <time>2003-04-19T09:23:21Z</time>
      </trkpt>
      <trkpt lat="33.398198029026389" lon="-3.583250027149916">
        <ele>893.5</ele>
        <time>2003-04-19T09:23:28Z</time>
      </trkpt>
      <trkpt lat="33.398325014859438" lon="-3.583077024668455">
        <ele>894.10000000000002</ele>
        <time>2003-04-19T09:23:33Z</time>
      </trkpt>
      <trkpt lat="33.398432973772287" lon="-3.582869991660118">
        <ele>894</ele>
        <time>2003-04-19T09:23:37Z</time>
      </trkpt>
      <trkpt lat="33.398564988747239" lon="-3.58265801332891">
        <ele>892.60000000000002</ele>
        <time>2003-04-19T09:23:41Z</time>
      </trkpt>
      <trkpt lat="33.398661967366934" lon="-3.582566985860467">
        <ele>890.89999999999998</ele>
        <time>2003-04-19T09:23:42Z</time>
      </trkpt>
      <trkpt lat="33.398785013705492" lon="-3.582532033324242">
        <ele>889.70000000000005</ele>
        <time>2003-04-19T09:23:45Z</time>
      </trkpt>
      <trkpt lat="33.398927003145218" lon="-3.582537984475493">
        <ele>888.39999999999998</ele>
        <time>2003-04-19T09:23:47Z</time>
      </trkpt>
      <trkpt lat="33.399066980928183" lon="-3.582611996680498">
        <ele>887</ele>
        <time>2003-04-19T09:23:49Z</time>
      </trkpt>
      <trkpt lat="33.399192960932851" lon="-3.582724984735251">
        <ele>885.70000000000005</ele>
        <time>2003-04-19T09:23:51Z</time>
      </trkpt>
      <trkpt lat="33.39938297867775" lon="-3.582866974174976">
        <ele>884.70000000000005</ele>
        <time>2003-04-19T09:23:53Z</time>
      </trkpt>
      <trkpt lat="33.399623036384583" lon="-3.58298197388649">
        <ele>883</ele>
        <time>2003-04-19T09:23:57Z</time>
      </trkpt>
      <trkpt lat="33.40006803162396" lon="-3.583090016618371">
        <ele>881.79999999999995</ele>
        <time>2003-04-19T09:24:04Z</time>
      </trkpt>
      <trkpt lat="33.400990040972829" lon="-3.583332002162933">
        <ele>881.10000000000002</ele>
        <time>2003-04-19T09:24:15Z</time>
      </trkpt>
      <trkpt lat="33.401562022045255" lon="-3.583480026572943">
        <ele>881.39999999999998</ele>
        <time>2003-04-19T09:24:22Z</time>
      </trkpt>
      <trkpt lat="33.401717003434896" lon="-3.583482038229704">
        <ele>881.20000000000005</ele>
        <time>2003-04-19T09:24:23Z</time>
      </trkpt>
      <trkpt lat="33.402129979804158" lon="-3.583414983004332">
        <ele>881.39999999999998</ele>
        <time>2003-04-19T09:24:30Z</time>
      </trkpt>
      <trkpt lat="33.403045032173395" lon="-3.583254972472787">
        <ele>882.70000000000005</ele>
        <time>2003-04-19T09:24:42Z</time>
      </trkpt>
      <trkpt lat="33.403654983267188" lon="-3.58315497636795">
        <ele>885.39999999999998</ele>
        <time>2003-04-19T09:24:50Z</time>
      </trkpt>
      <trkpt lat="33.403794961050153" lon="-3.583042994141579">
        <ele>885.20000000000005</ele>
        <time>2003-04-19T09:24:51Z</time>
      </trkpt>
      <trkpt lat="33.404052034020424" lon="-3.582779970020056">
        <ele>884.39999999999998</ele>
        <time>2003-04-19T09:24:55Z</time>
      </trkpt>
      <trkpt lat="33.404676988720894" lon="-3.581882016733289">
        <ele>882.29999999999995</ele>
        <time>2003-04-19T09:25:06Z</time>
      </trkpt>
      <trkpt lat="33.40488301590085" lon="-3.581717982888222">
        <ele>881.89999999999998</ele>
        <time>2003-04-19T09:25:10Z</time>
      </trkpt>
      <trkpt lat="33.405047971755266" lon="-3.581687975674868">
        <ele>881.89999999999998</ele>
        <time>2003-04-19T09:25:12Z</time>
      </trkpt>
      <trkpt lat="33.405217034742236" lon="-3.581729969009757">
        <ele>881.89999999999998</ele>
        <time>2003-04-19T09:25:13Z</time>
      </trkpt>
      <trkpt lat="33.405451979488134" lon="-3.581843040883541">
        <ele>882.60000000000002</ele>
        <time>2003-04-19T09:25:17Z</time>
      </trkpt>
      <trkpt lat="33.405703017488122" lon="-3.581942031159997">
        <ele>884.5</ele>
        <time>2003-04-19T09:25:20Z</time>
      </trkpt>
      <trkpt lat="33.40597802773118" lon="-3.581974972039461">
        <ele>886.5</ele>
        <time>2003-04-19T09:25:22Z</time>
      </trkpt>
      <trkpt lat="33.406075006350875" lon="-3.5819729603827">
        <ele>887.10000000000002</ele>
        <time>2003-04-19T09:25:24Z</time>
      </trkpt>
      <trkpt lat="33.406719993799925" lon="-3.581937002018094">
        <ele>882.5</ele>
        <time>2003-04-19T09:25:29Z</time>
      </trkpt>
      <trkpt lat="33.406840022653341" lon="-3.581957034766674">
        <ele>881.20000000000005</ele>
        <time>2003-04-19T09:25:30Z</time>
      </trkpt>
      <trkpt lat="33.407327011227608" lon="-3.582007996737957">
        <ele>881.39999999999998</ele>
        <time>2003-04-19T09:25:35Z</time>
      </trkpt>
      <trkpt lat="33.408305011689663" lon="-3.581932978704572">
        <ele>877.5</ele>
        <time>2003-04-19T09:25:43Z</time>
      </trkpt>
      <trkpt lat="33.408550014719367" lon="-3.581937002018094">
        <ele>877.20000000000005</ele>
        <time>2003-04-19T09:25:44Z</time>
      </trkpt>
      <trkpt lat="33.409012025222182" lon="-3.582010008394718">
        <ele>879.79999999999995</ele>
        <time>2003-04-19T09:25:48Z</time>
      </trkpt>
      <trkpt lat="33.409102968871593" lon="-3.582068011164665">
        <ele>880.70000000000005</ele>
        <time>2003-04-19T09:25:49Z</time>
      </trkpt>
      <trkpt lat="33.409276977181435" lon="-3.582221986725926">
        <ele>880.20000000000005</ele>
        <time>2003-04-19T09:25:52Z</time>
      </trkpt>
      <trkpt lat="33.409430030733347" lon="-3.582436982542276">
        <ele>879.20000000000005</ele>
        <time>2003-04-19T09:25:53Z</time>
      </trkpt>
      <trkpt lat="33.410011986270547" lon="-3.583266958594322">
        <ele>875.60000000000002</ele>
        <time>2003-04-19T09:26:02Z</time>
      </trkpt>
      <trkpt lat="33.41055303812027" lon="-3.584022000432015">
        <ele>875.79999999999995</ele>
        <time>2003-04-19T09:26:08Z</time>
      </trkpt>
      <trkpt lat="33.410714976489544" lon="-3.584238002076745">
        <ele>875</ele>
        <time>2003-04-19T09:26:11Z</time>
      </trkpt>
      <trkpt lat="33.411358036100864" lon="-3.58515196479857">
        <ele>875.70000000000005</ele>
        <time>2003-04-19T09:26:19Z</time>
      </trkpt>
      <trkpt lat="33.411712003871799" lon="-3.585512973368168">
        <ele>874.79999999999995</ele>
        <time>2003-04-19T09:26:23Z</time>
      </trkpt>
      <trkpt lat="33.412312986329198" lon="-3.586077997460961">
        <ele>870.29999999999995</ele>
        <time>2003-04-19T09:26:29Z</time>
      </trkpt>
      <trkpt lat="33.413029974326491" lon="-3.586858017370105">
        <ele>867.29999999999995</ele>
        <time>2003-04-19T09:26:37Z</time>
      </trkpt>
      <trkpt lat="33.413216974586248" lon="-3.587005035951734">
        <ele>866</ele>
        <time>2003-04-19T09:26:38Z</time>
      </trkpt>
      <trkpt lat="33.413357958197594" lon="-3.587141996249557">
        <ele>865</ele>
        <time>2003-04-19T09:26:41Z</time>
      </trkpt>
      <trkpt lat="33.413440017029643" lon="-3.587254984304309">
        <ele>863.60000000000002</ele>
        <time>2003-04-19T09:26:42Z</time>
      </trkpt>
      <trkpt lat="33.413600027561188" lon="-3.587563019245863">
        <ele>861.79999999999995</ele>
        <time>2003-04-19T09:26:46Z</time>
      </trkpt>
      <trkpt lat="33.413945026695728" lon="-3.588242037221789">
        <ele>862</ele>
        <time>2003-04-19T09:26:54Z</time>
      </trkpt>
      <trkpt lat="33.414118029177189" lon="-3.588513024151325">
        <ele>863.60000000000002</ele>
        <time>2003-04-19T09:26:57Z</time>
      </trkpt>
      <trkpt lat="33.414212996140122" lon="-3.588558034971356">
        <ele>864</ele>
        <time>2003-04-19T09:26:58Z</time>
      </trkpt>
      <trkpt lat="33.414418017491698" lon="-3.588615031912923">
        <ele>864.60000000000002</ele>
        <time>2003-04-19T09:27:00Z</time>
      </trkpt>
      <trkpt lat="33.414735021069646" lon="-3.588731959462166">
        <ele>864.89999999999998</ele>
        <time>2003-04-19T09:27:02Z</time>
      </trkpt>
      <trkpt lat="33.414829988032579" lon="-3.588757021352649">
        <ele>864.89999999999998</ele>
        <time>2003-04-19T09:27:04Z</time>
      </trkpt>
      <trkpt lat="33.415785022079945" lon="-3.589064972475171">
        <ele>862.60000000000002</ele>
        <time>2003-04-19T09:27:13Z</time>
      </trkpt>
      <trkpt lat="33.416688004508615" lon="-3.589377030730248">
        <ele>860.29999999999995</ele>
        <time>2003-04-19T09:27:21Z</time>
      </trkpt>
      <trkpt lat="33.417456960305572" lon="-3.589597977697849">
        <ele>858.5</ele>
        <time>2003-04-19T09:27:28Z</time>
      </trkpt>
      <trkpt lat="33.418146958574653" lon="-3.58974801376462">
        <ele>856</ele>
        <time>2003-04-19T09:27:33Z</time>
      </trkpt>
      <trkpt lat="33.418370001018047" lon="-3.589787995442748">
        <ele>855.70000000000005</ele>
        <time>2003-04-19T09:27:36Z</time>
      </trkpt>
      <trkpt lat="33.418536968529224" lon="-3.589796964079142">
        <ele>855.60000000000002</ele>
        <time>2003-04-19T09:27:37Z</time>
      </trkpt>
      <trkpt lat="33.418658003211021" lon="-3.589802999049425">
        <ele>855.29999999999995</ele>
        <time>2003-04-19T09:27:40Z</time>
      </trkpt>
      <trkpt lat="33.418902000412345" lon="-3.589863013476133">
        <ele>854.89999999999998</ele>
        <time>2003-04-19T09:27:43Z</time>
      </trkpt>
      <trkpt lat="33.419108027592301" lon="-3.589917998760939">
        <ele>854.5</ele>
        <time>2003-04-19T09:27:44Z</time>
      </trkpt>
      <trkpt lat="33.419461995363235" lon="-3.589965021237731">
        <ele>854.10000000000002</ele>
        <time>2003-04-19T09:27:48Z</time>
      </trkpt>
      <trkpt lat="33.419831972569227" lon="-3.590046996250749">
        <ele>853.20000000000005</ele>
        <time>2003-04-19T09:27:51Z</time>
      </trkpt>
      <trkpt lat="33.420821959152818" lon="-3.59032804146409">
        <ele>850.5</ele>
        <time>2003-04-19T09:27:59Z</time>
      </trkpt>
      <trkpt lat="33.421257985755801" lon="-3.590504983440042">
        <ele>849.89999999999998</ele>
        <time>2003-04-19T09:28:03Z</time>
      </trkpt>
      <trkpt lat="33.421525033190846" lon="-3.59063196927309">
        <ele>849</ele>
        <time>2003-04-19T09:28:06Z</time>
      </trkpt>
      <trkpt lat="33.421708010137081" lon="-3.590725008398294">
        <ele>849</ele>
        <time>2003-04-19T09:28:07Z</time>
      </trkpt>
      <trkpt lat="33.421813035383821" lon="-3.59073699451983">
        <ele>848.70000000000005</ele>
        <time>2003-04-19T09:28:08Z</time>
      </trkpt>
      <trkpt lat="33.422031970694661" lon="-3.590728025883436">
        <ele>848.29999999999995</ele>
        <time>2003-04-19T09:28:11Z</time>
      </trkpt>
      <trkpt lat="33.422217965126038" lon="-3.590682009235025">
        <ele>848.10000000000002</ele>
        <time>2003-04-19T09:28:12Z</time>
      </trkpt>
      <trkpt lat="33.422366995364428" lon="-3.590589975938201">
        <ele>847.20000000000005</ele>
        <time>2003-04-19T09:28:15Z</time>
      </trkpt>
      <trkpt lat="33.42245701700449" lon="-3.590468019247055">
        <ele>847.10000000000002</ele>
        <time>2003-04-19T09:28:17Z</time>
      </trkpt>
      <trkpt lat="33.422575034201145" lon="-3.590402975678444">
        <ele>846.60000000000002</ele>
        <time>2003-04-19T09:28:19Z</time>
      </trkpt>
      <trkpt lat="33.422752982005477" lon="-3.590417979285121">
        <ele>845.20000000000005</ele>
        <time>2003-04-19T09:28:21Z</time>
      </trkpt>
      <trkpt lat="33.422911986708641" lon="-3.590487968176603">
        <ele>845</ele>
        <time>2003-04-19T09:28:22Z</time>
      </trkpt>
      <trkpt lat="33.423035033047199" lon="-3.590515041723847">
        <ele>844.70000000000005</ele>
        <time>2003-04-19T09:28:25Z</time>
      </trkpt>
      <trkpt lat="33.423229996114969" lon="-3.590510012581945">
        <ele>844.60000000000002</ele>
        <time>2003-04-19T09:28:27Z</time>
      </trkpt>
      <trkpt lat="33.423381960019469" lon="-3.590577989816666">
        <ele>844</ele>
        <time>2003-04-19T09:28:30Z</time>
      </trkpt>
      <trkpt lat="33.42353199608624" lon="-3.59054496511817">
        <ele>845</ele>
        <time>2003-04-19T09:28:31Z</time>
      </trkpt>
      <trkpt lat="33.423607014119625" lon="-3.590406998991966">
        <ele>845.89999999999998</ele>
        <time>2003-04-19T09:28:34Z</time>
      </trkpt>
      <trkpt lat="33.423674991354346" lon="-3.590212035924196">
        <ele>846.60000000000002</ele>
        <time>2003-04-19T09:28:37Z</time>
      </trkpt>
      <trkpt lat="33.423819998279214" lon="-3.590137017890811">
        <ele>846.70000000000005</ele>
        <time>2003-04-19T09:28:38Z</time>
      </trkpt>
      <trkpt lat="33.423997024074197" lon="-3.590078009292483">
        <ele>847</ele>
        <time>2003-04-19T09:28:41Z</time>
      </trkpt>
      <trkpt lat="33.424312015995383" lon="-3.589992010965943">
        <ele>847.10000000000002</ele>
        <time>2003-04-19T09:28:44Z</time>
      </trkpt>
      <trkpt lat="33.425162024796009" lon="-3.589802999049425">
        <ele>847.29999999999995</ele>
        <time>2003-04-19T09:28:52Z</time>
      </trkpt>
      <trkpt lat="33.425256991758943" lon="-3.589793024584651">
        <ele>847.89999999999998</ele>
        <time>2003-04-19T09:28:53Z</time>
      </trkpt>
      <trkpt lat="33.425348019227386" lon="-3.589735021814704">
        <ele>848</ele>
        <time>2003-04-19T09:28:53Z</time>
      </trkpt>
      <trkpt lat="33.425638033077121" lon="-3.589603006839752">
        <ele>848.39999999999998</ele>
        <time>2003-04-19T09:28:57Z</time>
      </trkpt>
      <trkpt lat="33.426457028836012" lon="-3.589481972157955">
        <ele>848.5</ele>
        <time>2003-04-19T09:29:04Z</time>
      </trkpt>
      <trkpt lat="33.426572028547525" lon="-3.58951298519969">
        <ele>848.29999999999995</ele>
        <time>2003-04-19T09:29:05Z</time>
      </trkpt>
      <trkpt lat="33.427414996549487" lon="-3.589711971580982">
        <ele>847</ele>
        <time>2003-04-19T09:29:12Z</time>
      </trkpt>
      <trkpt lat="33.428157968446612" lon="-3.589780032634735">
        <ele>844.20000000000005</ele>
        <time>2003-04-19T09:29:17Z</time>
      </trkpt>
      <trkpt lat="33.428417975082994" lon="-3.589793024584651">
        <ele>844.20000000000005</ele>
        <time>2003-04-19T09:29:20Z</time>
      </trkpt>
      <trkpt lat="33.429427994415164" lon="-3.589895032346249">
        <ele>842.79999999999995</ele>
        <time>2003-04-19T09:29:27Z</time>
      </trkpt>
      <trkpt lat="33.430026965215802" lon="-3.589895032346249">
        <ele>841.89999999999998</ele>
        <time>2003-04-19T09:29:31Z</time>
      </trkpt>
      <trkpt lat="33.430474977940321" lon="-3.589890003204346">
        <ele>841.29999999999995</ele>
        <time>2003-04-19T09:29:33Z</time>
      </trkpt>
      <trkpt lat="33.430758034810424" lon="-3.589895032346249">
        <ele>840.70000000000005</ele>
        <time>2003-04-19T09:29:36Z</time>
      </trkpt>
      <trkpt lat="33.431348036974669" lon="-3.589865025132895">
        <ele>840.29999999999995</ele>
        <time>2003-04-19T09:29:40Z</time>
      </trkpt>
      <trkpt lat="33.431792026385665" lon="-3.589886985719204">
        <ele>840.29999999999995</ele>
        <time>2003-04-19T09:29:43Z</time>
      </trkpt>
      <trkpt lat="33.43212797306478" lon="-3.589854966849089">
        <ele>840.20000000000005</ele>
        <time>2003-04-19T09:29:46Z</time>
      </trkpt>
      <trkpt lat="33.432259988039732" lon="-3.589862007647753">
        <ele>840.60000000000002</ele>
        <time>2003-04-19T09:29:48Z</time>
      </trkpt>
      <trkpt lat="33.432457968592644" lon="-3.589871982112527">
        <ele>840.39999999999998</ele>
        <time>2003-04-19T09:29:51Z</time>
      </trkpt>
      <trkpt lat="33.432642035186291" lon="-3.589869970455766">
        <ele>840.39999999999998</ele>
        <time>2003-04-19T09:29:54Z</time>
      </trkpt>
      <trkpt lat="33.43285501934588" lon="-3.589867958799005">
        <ele>840.60000000000002</ele>
        <time>2003-04-19T09:29:55Z</time>
      </trkpt>
      <trkpt lat="33.433088036254048" lon="-3.589867958799005">
        <ele>840.39999999999998</ele>
        <time>2003-04-19T09:29:58Z</time>
      </trkpt>
      <trkpt lat="33.433577958494425" lon="-3.589884974062443">
        <ele>840.20000000000005</ele>
        <time>2003-04-19T09:30:02Z</time>
      </trkpt>
      <trkpt lat="33.433709973469377" lon="-3.589886985719204">
        <ele>840.10000000000002</ele>
        <time>2003-04-19T09:30:03Z</time>
      </trkpt>
      <trkpt lat="33.43384500592947" lon="-3.589882962405682">
        <ele>839.70000000000005</ele>
        <time>2003-04-19T09:30:03Z</time>
      </trkpt>
      <trkpt lat="33.433981966227293" lon="-3.589884974062443">
        <ele>839.60000000000002</ele>
        <time>2003-04-19T09:30:05Z</time>
      </trkpt>
      <trkpt lat="33.434698032215238" lon="-3.589907018467784">
        <ele>840.10000000000002</ele>
        <time>2003-04-19T09:30:10Z</time>
      </trkpt>
      <trkpt lat="33.435718026012182" lon="-3.589850021526218">
        <ele>838.79999999999995</ele>
        <time>2003-04-19T09:30:17Z</time>
      </trkpt>
      <trkpt lat="33.436127984896302" lon="-3.589844992384315">
        <ele>838.20000000000005</ele>
        <time>2003-04-19T09:30:19Z</time>
      </trkpt>
      <trkpt lat="33.436568034812808" lon="-3.58985697850585">
        <ele>837.20000000000005</ele>
        <time>2003-04-19T09:30:22Z</time>
      </trkpt>
      <trkpt lat="33.436995008960366" lon="-3.589854966849089">
        <ele>836.89999999999998</ele>
        <time>2003-04-19T09:30:26Z</time>
      </trkpt>
      <trkpt lat="33.437104979529977" lon="-3.589853039011359">
        <ele>836.79999999999995</ele>
        <time>2003-04-19T09:30:26Z</time>
      </trkpt>
      <trkpt lat="33.43728200532496" lon="-3.589808028191328">
        <ele>836.29999999999995</ele>
        <time>2003-04-19T09:30:29Z</time>
      </trkpt>
      <trkpt lat="33.437500018626451" lon="-3.589709959924221">
        <ele>835.5</ele>
        <time>2003-04-19T09:30:32Z</time>
      </trkpt>
      <trkpt lat="33.437643013894558" lon="-3.589693028479815">
        <ele>834.70000000000005</ele>
        <time>2003-04-19T09:30:34Z</time>
      </trkpt>
      <trkpt lat="33.437806963920593" lon="-3.589720018208027">
        <ele>832.5</ele>
        <time>2003-04-19T09:30:36Z</time>
      </trkpt>
      <trkpt lat="33.437963034957647" lon="-3.589726975187659">
        <ele>835.39999999999998</ele>
        <time>2003-04-19T09:30:37Z</time>
      </trkpt>
      <trkpt lat="33.438126984983683" lon="-3.589657992124558">
        <ele>835.89999999999998</ele>
        <time>2003-04-19T09:30:40Z</time>
      </trkpt>
      <trkpt lat="33.438223041594028" lon="-3.589650029316545">
        <ele>836.29999999999995</ele>
        <time>2003-04-19T09:30:41Z</time>
      </trkpt>
      <trkpt lat="33.438322031870484" lon="-3.589657992124558">
        <ele>836.89999999999998</ele>
        <time>2003-04-19T09:30:41Z</time>
      </trkpt>
      <trkpt lat="33.43842001631856" lon="-3.589654974639416">
        <ele>838</ele>
        <time>2003-04-19T09:30:42Z</time>
      </trkpt>
      <trkpt lat="33.438542978838086" lon="-3.589596971869469">
        <ele>838.20000000000005</ele>
        <time>2003-04-19T09:30:45Z</time>
      </trkpt>
      <trkpt lat="33.438654961064458" lon="-3.58953301794827">
        <ele>837.5</ele>
        <time>2003-04-19T09:30:49Z</time>
      </trkpt>
      <trkpt lat="33.4387650154531" lon="-3.589508039876819">
        <ele>838.60000000000002</ele>
        <time>2003-04-19T09:30:52Z</time>
      </trkpt>
      <trkpt lat="33.439007000997663" lon="-3.589442996308208">
        <ele>840.5</ele>
        <time>2003-04-19T09:30:56Z</time>
      </trkpt>
      <trkpt lat="33.43917204067111" lon="-3.58940502628684">
        <ele>841</ele>
        <time>2003-04-19T09:30:57Z</time>
      </trkpt>
      <trkpt lat="33.439364992082119" lon="-3.589351968839765">
        <ele>841</ele>
        <time>2003-04-19T09:31:00Z</time>
      </trkpt>
      <trkpt lat="33.440018026158214" lon="-3.589179972186685">
        <ele>840.20000000000005</ele>
        <time>2003-04-19T09:31:05Z</time>
      </trkpt>
      <trkpt lat="33.441001977771521" lon="-3.588939998298883">
        <ele>839.60000000000002</ele>
        <time>2003-04-19T09:31:13Z</time>
      </trkpt>
      <trkpt lat="33.441594997420907" lon="-3.588851988315582">
        <ele>840.60000000000002</ele>
        <time>2003-04-19T09:31:19Z</time>
      </trkpt>
      <trkpt lat="33.441873025149107" lon="-3.588813012465835">
        <ele>839.29999999999995</ele>
        <time>2003-04-19T09:31:21Z</time>
      </trkpt>
      <trkpt lat="33.442022977396846" lon="-3.588788034394383">
        <ele>838.5</ele>
        <time>2003-04-19T09:31:24Z</time>
      </trkpt>
      <trkpt lat="33.442158009856939" lon="-3.588743023574352">
        <ele>838.10000000000002</ele>
        <time>2003-04-19T09:31:26Z</time>
      </trkpt>
      <trkpt lat="33.44224501401186" lon="-3.588787028566003">
        <ele>837.79999999999995</ele>
        <time>2003-04-19T09:31:28Z</time>
      </trkpt>
      <trkpt lat="33.442358002066612" lon="-3.588846959173679">
        <ele>838.60000000000002</ele>
        <time>2003-04-19T09:31:31Z</time>
      </trkpt>
      <trkpt lat="33.442467972636223" lon="-3.58880496583879">
        <ele>839.39999999999998</ele>
        <time>2003-04-19T09:31:34Z</time>
      </trkpt>
      <trkpt lat="33.442597975954413" lon="-3.588746963068843">
        <ele>839.89999999999998</ele>
        <time>2003-04-19T09:31:35Z</time>
      </trkpt>
      <trkpt lat="33.442763015627861" lon="-3.588702036067843">
        <ele>840.60000000000002</ele>
        <time>2003-04-19T09:31:39Z</time>
      </trkpt>
      <trkpt lat="33.443046994507313" lon="-3.588621988892555">
        <ele>841</ele>
        <time>2003-04-19T09:31:42Z</time>
      </trkpt>
      <trkpt lat="33.44325503334403" lon="-3.588606985285878">
        <ele>842</ele>
        <time>2003-04-19T09:31:43Z</time>
      </trkpt>
      <trkpt lat="33.443361986428499" lon="-3.588622994720936">
        <ele>842.60000000000002</ele>
        <time>2003-04-19T09:31:43Z</time>
      </trkpt>
      <trkpt lat="33.44347002916038" lon="-3.588658031076193">
        <ele>843.20000000000005</ele>
        <time>2003-04-19T09:31:44Z</time>
      </trkpt>
      <trkpt lat="33.443981995806098" lon="-3.588770013302565">
        <ele>844.29999999999995</ele>
        <time>2003-04-19T09:31:50Z</time>
      </trkpt>
      <trkpt lat="33.444203026592731" lon="-3.588764984160662">
        <ele>844.79999999999995</ele>
        <time>2003-04-19T09:31:51Z</time>
      </trkpt>
      <trkpt lat="33.44495203346014" lon="-3.588828016072512">
        <ele>846.70000000000005</ele>
        <time>2003-04-19T09:31:58Z</time>
      </trkpt>
      <trkpt lat="33.445885023102164" lon="-3.588927006348968">
        <ele>848.89999999999998</ele>
        <time>2003-04-19T09:32:05Z</time>
      </trkpt>
      <trkpt lat="33.446147041395307" lon="-3.588917031884193">
        <ele>849.39999999999998</ele>
        <time>2003-04-19T09:32:06Z</time>
      </trkpt>
      <trkpt lat="33.446281990036368" lon="-3.588917031884193">
        <ele>849.5</ele>
        <time>2003-04-19T09:32:07Z</time>
      </trkpt>
      <trkpt lat="33.446409981697798" lon="-3.588918037712574">
        <ele>849.39999999999998</ele>
        <time>2003-04-19T09:32:10Z</time>
      </trkpt>
      <trkpt lat="33.44677803106606" lon="-3.588919965550304">
        <ele>849.39999999999998</ele>
        <time>2003-04-19T09:32:13Z</time>
      </trkpt>
      <trkpt lat="33.447297038510442" lon="-3.588800020515919">
        <ele>848.70000000000005</ele>
        <time>2003-04-19T09:32:17Z</time>
      </trkpt>
      <trkpt lat="33.447532989084721" lon="-3.588773030787706">
        <ele>847.89999999999998</ele>
        <time>2003-04-19T09:32:18Z</time>
      </trkpt>
      <trkpt lat="33.447762988507748" lon="-3.588713016360998">
        <ele>848.60000000000002</ele>
        <time>2003-04-19T09:32:21Z</time>
      </trkpt>
      <trkpt lat="33.448615008965135" lon="-3.588355025276542">
        <ele>848.39999999999998</ele>
        <time>2003-04-19T09:32:28Z</time>
      </trkpt>
      <trkpt lat="33.448858000338078" lon="-3.58818001113832">
        <ele>849</ele>
        <time>2003-04-19T09:32:29Z</time>
      </trkpt>
      <trkpt lat="33.449197970330715" lon="-3.587938025593758">
        <ele>850.29999999999995</ele>
        <time>2003-04-19T09:32:32Z</time>
      </trkpt>
      <trkpt lat="33.449386982247233" lon="-3.587835012003779">
        <ele>849.79999999999995</ele>
        <time>2003-04-19T09:32:33Z</time>
      </trkpt>
      <trkpt lat="33.449556967243552" lon="-3.587681958451867">
        <ele>848.39999999999998</ele>
        <time>2003-04-19T09:32:37Z</time>
      </trkpt>
      <trkpt lat="33.44974203966558" lon="-3.587527982890606">
        <ele>848.5</ele>
        <time>2003-04-19T09:32:38Z</time>
      </trkpt>
      <trkpt lat="33.450609985738993" lon="-3.586960025131702">
        <ele>846.70000000000005</ele>
        <time>2003-04-19T09:32:47Z</time>
      </trkpt>
      <trkpt lat="33.450806960463524" lon="-3.5868030320853">
        <ele>846.20000000000005</ele>
        <time>2003-04-19T09:32:49Z</time>
      </trkpt>
      <trkpt lat="33.450984992086887" lon="-3.586683003231883">
        <ele>846.20000000000005</ele>
        <time>2003-04-19T09:32:51Z</time>
      </trkpt>
      <trkpt lat="33.451254973188043" lon="-3.586479993537068">
        <ele>846.70000000000005</ele>
        <time>2003-04-19T09:32:53Z</time>
      </trkpt>
      <trkpt lat="33.451650012284517" lon="-3.586180005222559">
        <ele>847.79999999999995</ele>
        <time>2003-04-19T09:32:57Z</time>
      </trkpt>
      <trkpt lat="33.452498009428382" lon="-3.585592014715076">
        <ele>847.79999999999995</ele>
        <time>2003-04-19T09:33:05Z</time>
      </trkpt>
      <trkpt lat="33.452727003023028" lon="-3.585395039990544">
        <ele>848.20000000000005</ele>
        <time>2003-04-19T09:33:08Z</time>
      </trkpt>
      <trkpt lat="33.452909979969263" lon="-3.585293032228947">
        <ele>848</ele>
        <time>2003-04-19T09:33:16Z</time>
      </trkpt>
      <trkpt lat="33.453088011592627" lon="-3.585167974233627">
        <ele>848.70000000000005</ele>
        <time>2003-04-19T09:33:19Z</time>
      </trkpt>
      <trkpt lat="33.453239975497127" lon="-3.585051968693733">
        <ele>849.10000000000002</ele>
        <time>2003-04-19T09:33:20Z</time>
      </trkpt>
      <trkpt lat="33.453667033463717" lon="-3.584773018956184">
        <ele>847.29999999999995</ele>
        <time>2003-04-19T09:33:27Z</time>
      </trkpt>
      <trkpt lat="33.453757977113128" lon="-3.584766983985901">
        <ele>846.10000000000002</ele>
        <time>2003-04-19T09:33:27Z</time>
      </trkpt>
      <trkpt lat="33.453855039551854" lon="-3.584773018956184">
        <ele>845.29999999999995</ele>
        <time>2003-04-19T09:33:28Z</time>
      </trkpt>
      <trkpt lat="33.45395696349442" lon="-3.584796991199255">
        <ele>845.20000000000005</ele>
        <time>2003-04-19T09:33:30Z</time>
      </trkpt>
      <trkpt lat="33.454143041744828" lon="-3.584877038374543">
        <ele>844.79999999999995</ele>
        <time>2003-04-19T09:33:31Z</time>
      </trkpt>
      <trkpt lat="33.454280002042651" lon="-3.585005030035973">
        <ele>844</ele>
        <time>2003-04-19T09:33:34Z</time>
      </trkpt>
      <trkpt lat="33.454358037561178" lon="-3.585175015032291">
        <ele>842.5</ele>
        <time>2003-04-19T09:33:35Z</time>
      </trkpt>
      <trkpt lat="33.454422997310758" lon="-3.58528196811676">
        <ele>840.70000000000005</ele>
        <time>2003-04-19T09:33:39Z</time>
      </trkpt>
      <trkpt lat="33.454583007842302" lon="-3.58553996309638">
        <ele>837.29999999999995</ele>
        <time>2003-04-19T09:33:46Z</time>
      </trkpt>
      <trkpt lat="33.454628018662333" lon="-3.585656974464655">
        <ele>836.89999999999998</ele>
        <time>2003-04-19T09:33:50Z</time>
      </trkpt>
      <trkpt lat="33.454706976190209" lon="-3.585767028853297">
        <ele>836.20000000000005</ele>
        <time>2003-04-19T09:33:54Z</time>
      </trkpt>
      <trkpt lat="33.454864975064993" lon="-3.585986969992518">
        <ele>833.89999999999998</ele>
        <time>2003-04-19T09:34:02Z</time>
      </trkpt>
      <trkpt lat="33.454951979219913" lon="-3.58607497997582">
        <ele>832.5</ele>
        <time>2003-04-19T09:34:10Z</time>
      </trkpt>
      <trkpt lat="33.455034960061312" lon="-3.586142035201192">
        <ele>831.39999999999998</ele>
        <time>2003-04-19T09:34:14Z</time>
      </trkpt>
      <trkpt lat="33.455181978642941" lon="-3.586249994114041">
        <ele>829.29999999999995</ele>
        <time>2003-04-19T09:34:21Z</time>
      </trkpt>
      <trkpt lat="33.455351963639259" lon="-3.586387038230896">
        <ele>827.60000000000002</ele>
        <time>2003-04-19T09:34:39Z</time>
      </trkpt>
      <trkpt lat="33.455454977229238" lon="-3.586476976051927">
        <ele>826.70000000000005</ele>
        <time>2003-04-19T09:34:41Z</time>
      </trkpt>
      <trkpt lat="33.455541981384158" lon="-3.586515029892325">
        <ele>825.5</ele>
        <time>2003-04-19T09:34:44Z</time>
      </trkpt>
      <trkpt lat="33.455831995233893" lon="-3.586617959663272">
        <ele>822.29999999999995</ele>
        <time>2003-04-19T09:34:51Z</time>
      </trkpt>
      <trkpt lat="33.455942971631885" lon="-3.586607985198498">
        <ele>821</ele>
        <time>2003-04-19T09:34:52Z</time>
      </trkpt>
      <trkpt lat="33.456059983000159" lon="-3.586574960500002">
        <ele>820.10000000000002</ele>
        <time>2003-04-19T09:34:55Z</time>
      </trkpt>
      <trkpt lat="33.456413028761744" lon="-3.58648200519383">
        <ele>818.89999999999998</ele>
        <time>2003-04-19T09:35:02Z</time>
      </trkpt>
      <trkpt lat="33.4565120190382" lon="-3.586432971060276">
        <ele>817.79999999999995</ele>
        <time>2003-04-19T09:35:06Z</time>
      </trkpt>
      <trkpt lat="33.45657697878778" lon="-3.586357031017542">
        <ele>816.89999999999998</ele>
        <time>2003-04-19T09:35:10Z</time>
      </trkpt>
      <trkpt lat="33.456617966294289" lon="-3.586244964972138">
        <ele>816.39999999999998</ele>
        <time>2003-04-19T09:35:16Z</time>
      </trkpt>
      <trkpt lat="33.456621989607811" lon="-3.586112027987838">
        <ele>816.29999999999995</ele>
        <time>2003-04-19T09:35:24Z</time>
      </trkpt>
      <trkpt lat="33.456804966554046" lon="-3.585999961942434">
        <ele>819.29999999999995</ele>
        <time>2003-04-19T09:51:38Z</time>
      </trkpt>
      <trkpt lat="33.456891970708966" lon="-3.585935002192855">
        <ele>820.89999999999998</ele>
        <time>2003-04-19T09:51:42Z</time>
      </trkpt>
      <trkpt lat="33.457015017047524" lon="-3.585913041606545">
        <ele>820.79999999999995</ele>
        <time>2003-04-19T09:51:43Z</time>
      </trkpt>
      <trkpt lat="33.45713697373867" lon="-3.585927039384842">
        <ele>820</ele>
        <time>2003-04-19T09:51:46Z</time>
      </trkpt>
      <trkpt lat="33.45735196955502" lon="-3.585993004962802">
        <ele>820.60000000000002</ele>
        <time>2003-04-19T09:51:51Z</time>
      </trkpt>
      <trkpt lat="33.45745699480176" lon="-3.586007002741098">
        <ele>820.70000000000005</ele>
        <time>2003-04-19T09:51:54Z</time>
      </trkpt>
      <trkpt lat="33.457571994513273" lon="-3.585965009406209">
        <ele>821.10000000000002</ele>
        <time>2003-04-19T09:51:55Z</time>
      </trkpt>
      <trkpt lat="33.457816997542977" lon="-3.585878005251288">
        <ele>822.5</ele>
        <time>2003-04-19T09:51:59Z</time>
      </trkpt>
      <trkpt lat="33.457968039438128" lon="-3.58583802357316">
        <ele>823.29999999999995</ele>
        <time>2003-04-19T09:52:02Z</time>
      </trkpt>
      <trkpt lat="33.458627024665475" lon="-3.58562202192843">
        <ele>826</ele>
        <time>2003-04-19T09:52:10Z</time>
      </trkpt>
      <trkpt lat="33.458879990503192" lon="-3.585542980581522">
        <ele>826.39999999999998</ele>
        <time>2003-04-19T09:52:13Z</time>
      </trkpt>
      <trkpt lat="33.459137985482812" lon="-3.585475003346801">
        <ele>827.20000000000005</ele>
        <time>2003-04-19T09:52:16Z</time>
      </trkpt>
      <trkpt lat="33.459854973480105" lon="-3.585088010877371">
        <ele>828.10000000000002</ele>
        <time>2003-04-19T09:52:24Z</time>
      </trkpt>
      <trkpt lat="33.460320001468062" lon="-3.584860023111105">
        <ele>827.79999999999995</ele>
        <time>2003-04-19T09:52:28Z</time>
      </trkpt>
      <trkpt lat="33.46117302775383" lon="-3.584437994286418">
        <ele>829.70000000000005</ele>
        <time>2003-04-19T09:52:35Z</time>
      </trkpt>
      <trkpt lat="33.461400009691715" lon="-3.584310002624989">
        <ele>829.89999999999998</ele>
        <time>2003-04-19T09:52:37Z</time>
      </trkpt>
      <trkpt lat="33.462172988802195" lon="-3.583742966875434">
        <ele>829.39999999999998</ele>
        <time>2003-04-19T09:52:44Z</time>
      </trkpt>
      <trkpt lat="33.462847983464599" lon="-3.58300200663507">
        <ele>830.20000000000005</ele>
        <time>2003-04-19T09:52:51Z</time>
      </trkpt>
      <trkpt lat="33.463585004210472" lon="-3.582234978675842">
        <ele>829</ele>
        <time>2003-04-19T09:52:57Z</time>
      </trkpt>
      <trkpt lat="33.463920028880239" lon="-3.581952005624771">
        <ele>828.5</ele>
        <time>2003-04-19T09:53:00Z</time>
      </trkpt>
      <trkpt lat="33.464707005769014" lon="-3.581320010125637">
        <ele>828</ele>
        <time>2003-04-19T09:53:07Z</time>
      </trkpt>
      <trkpt lat="33.465307988226414" lon="-3.58083201572299">
        <ele>827.39999999999998</ele>
        <time>2003-04-19T09:53:14Z</time>
      </trkpt>
      <trkpt lat="33.465624991804361" lon="-3.580566979944706">
        <ele>827.60000000000002</ele>
        <time>2003-04-19T09:53:18Z</time>
      </trkpt>
      <trkpt lat="33.46570503897965" lon="-3.580482993274927">
        <ele>827.79999999999995</ele>
        <time>2003-04-19T09:53:19Z</time>
      </trkpt>
      <trkpt lat="33.465745020657778" lon="-3.580366987735033">
        <ele>826.89999999999998</ele>
        <time>2003-04-19T09:53:23Z</time>
      </trkpt>
      <trkpt lat="33.465824984014034" lon="-3.58029498718679">
        <ele>827.20000000000005</ele>
        <time>2003-04-19T09:53:24Z</time>
      </trkpt>
      <trkpt lat="33.465936966240406" lon="-3.580246958881617">
        <ele>827.10000000000002</ele>
        <time>2003-04-19T09:53:27Z</time>
      </trkpt>
      <trkpt lat="33.466067975386977" lon="-3.580291969701648">
        <ele>827.29999999999995</ele>
        <time>2003-04-19T09:53:29Z</time>
      </trkpt>
      <trkpt lat="33.466212982311845" lon="-3.580261962488294">
        <ele>828.20000000000005</ele>
        <time>2003-04-19T09:53:31Z</time>
      </trkpt>
      <trkpt lat="33.466326976194978" lon="-3.580172024667263">
        <ele>828.29999999999995</ele>
        <time>2003-04-19T09:53:34Z</time>
      </trkpt>
      <trkpt lat="33.466562004759908" lon="-3.57997203245759">
        <ele>829</ele>
        <time>2003-04-19T09:53:38Z</time>
      </trkpt>
      <trkpt lat="33.466810025274754" lon="-3.579687969759107">
        <ele>829.79999999999995</ele>
        <time>2003-04-19T09:53:42Z</time>
      </trkpt>
      <trkpt lat="33.467238005250692" lon="-3.579382030293346">
        <ele>830.5</ele>
        <time>2003-04-19T09:53:46Z</time>
      </trkpt>
      <trkpt lat="33.468021964654326" lon="-3.57883301563561">
        <ele>831.20000000000005</ele>
        <time>2003-04-19T09:53:54Z</time>
      </trkpt>
      <trkpt lat="33.468861998990178" lon="-3.578262040391564">
        <ele>831.89999999999998</ele>
        <time>2003-04-19T09:54:02Z</time>
      </trkpt>
      <trkpt lat="33.469715025275946" lon="-3.577682012692094">
        <ele>831.10000000000002</ele>
        <time>2003-04-19T09:54:12Z</time>
      </trkpt>
      <trkpt lat="33.47002699971199" lon="-3.577453019097447">
        <ele>830.5</ele>
        <time>2003-04-19T09:54:16Z</time>
      </trkpt>
      <trkpt lat="33.470077039673924" lon="-3.577299965545535">
        <ele>830.60000000000002</ele>
        <time>2003-04-19T09:54:17Z</time>
      </trkpt>
      <trkpt lat="33.47013202495873" lon="-3.577020009979606">
        <ele>830.70000000000005</ele>
        <time>2003-04-19T09:54:21Z</time>
      </trkpt>
      <trkpt lat="33.470143005251884" lon="-3.576859999448061">
        <ele>830.89999999999998</ele>
        <time>2003-04-19T09:54:23Z</time>
      </trkpt>
      <trkpt lat="33.470252975821495" lon="-3.576769977807999">
        <ele>829.89999999999998</ele>
        <time>2003-04-19T09:54:25Z</time>
      </trkpt>
      <trkpt lat="33.47041298635304" lon="-3.576760003343225">
        <ele>829</ele>
        <time>2003-04-19T09:54:27Z</time>
      </trkpt>
      <trkpt lat="33.47056302241981" lon="-3.576852958649397">
        <ele>828.20000000000005</ele>
        <time>2003-04-19T09:54:28Z</time>
      </trkpt>
      <trkpt lat="33.470722027122974" lon="-3.577010035514832">
        <ele>827.39999999999998</ele>
        <time>2003-04-19T09:54:32Z</time>
      </trkpt>
      <trkpt lat="33.470814982429147" lon="-3.576982961967588">
        <ele>827.60000000000002</ele>
        <time>2003-04-19T09:54:33Z</time>
      </trkpt>
      <trkpt lat="33.470980022102594" lon="-3.576865028589964">
        <ele>827.89999999999998</ele>
        <time>2003-04-19T09:54:36Z</time>
      </trkpt>
      <trkpt lat="33.471116982400417" lon="-3.576775006949902">
        <ele>827.20000000000005</ele>
        <time>2003-04-19T09:54:39Z</time>
      </trkpt>
      <trkpt lat="33.471504980698228" lon="-3.576524974778295">
        <ele>827</ele>
        <time>2003-04-19T09:54:44Z</time>
      </trkpt>
      <trkpt lat="33.471585027873516" lon="-3.57647200115025">
        <ele>827.10000000000002</ele>
        <time>2003-04-19T09:54:48Z</time>
      </trkpt>
      <trkpt lat="33.471687035635114" lon="-3.576421961188316">
        <ele>827.10000000000002</ele>
        <time>2003-04-19T09:54:52Z</time>
      </trkpt>
      <trkpt lat="33.471861965954304" lon="-3.576328000053763">
        <ele>826.20000000000005</ele>
        <time>2003-04-19T09:54:58Z</time>
      </trkpt>
      <trkpt lat="33.4720020275563" lon="-3.57623303309083">
        <ele>825.79999999999995</ele>
        <time>2003-04-19T09:55:02Z</time>
      </trkpt>
      <trkpt lat="33.47228198312223" lon="-3.576047960668802">
        <ele>825</ele>
        <time>2003-04-19T09:55:08Z</time>
      </trkpt>
      <trkpt lat="33.472415003925562" lon="-3.575981995090842">
        <ele>824.89999999999998</ele>
        <time>2003-04-19T09:55:11Z</time>
      </trkpt>
      <trkpt lat="33.472624970600009" lon="-3.575845034793019">
        <ele>824.79999999999995</ele>
        <time>2003-04-19T09:55:14Z</time>
      </trkpt>
      <trkpt lat="33.472782969474792" lon="-3.575691981241107">
        <ele>824.70000000000005</ele>
        <time>2003-04-19T09:55:15Z</time>
      </trkpt>
      <trkpt lat="33.473050016909838" lon="-3.575419988483191">
        <ele>825</ele>
        <time>2003-04-19T09:55:19Z</time>
      </trkpt>
      <trkpt lat="33.473576987162232" lon="-3.574865022674203">
        <ele>825.60000000000002</ele>
        <time>2003-04-19T09:55:26Z</time>
      </trkpt>
      <trkpt lat="33.473732974380255" lon="-3.574802996590734">
        <ele>826.20000000000005</ele>
        <time>2003-04-19T09:55:27Z</time>
      </trkpt>
      <trkpt lat="33.473840011283755" lon="-3.574626976624131">
        <ele>826.39999999999998</ele>
        <time>2003-04-19T09:55:30Z</time>
      </trkpt>
      <trkpt lat="33.474012007936835" lon="-3.574326988309622">
        <ele>827.20000000000005</ele>
        <time>2003-04-19T09:55:33Z</time>
      </trkpt>
      <trkpt lat="33.474273020401597" lon="-3.574011996388435">
        <ele>827.5</ele>
        <time>2003-04-19T09:55:35Z</time>
      </trkpt>
      <trkpt lat="33.474948015064001" lon="-3.573102978989482">
        <ele>827.5</ele>
        <time>2003-04-19T09:55:44Z</time>
      </trkpt>
      <trkpt lat="33.475512033328414" lon="-3.572248024865985">
        <ele>827.79999999999995</ele>
        <time>2003-04-19T09:55:50Z</time>
      </trkpt>
      <trkpt lat="33.47612701356411" lon="-3.57135702855885">
        <ele>829.39999999999998</ele>
        <time>2003-04-19T09:55:58Z</time>
      </trkpt>
      <trkpt lat="33.476687008515" lon="-3.570429990068078">
        <ele>828.39999999999998</ele>
        <time>2003-04-19T09:56:06Z</time>
      </trkpt>
      <trkpt lat="33.476994959637523" lon="-3.569903019815683">
        <ele>828.29999999999995</ele>
        <time>2003-04-19T09:56:12Z</time>
      </trkpt>
      <trkpt lat="33.477095039561391" lon="-3.569733034819365">
        <ele>827.70000000000005</ele>
        <time>2003-04-19T09:56:13Z</time>
      </trkpt>
      <trkpt lat="33.477235017344356" lon="-3.569502029567957">
        <ele>826.39999999999998</ele>
        <time>2003-04-19T09:56:16Z</time>
      </trkpt>
      <trkpt lat="33.477280028164387" lon="-3.569406978785992">
        <ele>826</ele>
        <time>2003-04-19T09:56:19Z</time>
      </trkpt>
      <trkpt lat="33.477301988750696" lon="-3.569302037358284">
        <ele>825.60000000000002</ele>
        <time>2003-04-19T09:56:21Z</time>
      </trkpt>
      <trkpt lat="33.477353034541011" lon="-3.569187037646771">
        <ele>826.29999999999995</ele>
        <time>2003-04-19T09:56:24Z</time>
      </trkpt>
      <trkpt lat="33.477450013160706" lon="-3.569116964936256">
        <ele>826.79999999999995</ele>
        <time>2003-04-19T09:56:27Z</time>
      </trkpt>
      <trkpt lat="33.47752301953733" lon="-3.568977992981672">
        <ele>827.39999999999998</ele>
        <time>2003-04-19T09:56:28Z</time>
      </trkpt>
      <trkpt lat="33.477641958743334" lon="-3.568746987730265">
        <ele>828.20000000000005</ele>
        <time>2003-04-19T09:56:32Z</time>
      </trkpt>
      <trkpt lat="33.477806998416781" lon="-3.568520005792379">
        <ele>828.60000000000002</ele>
        <time>2003-04-19T09:56:35Z</time>
      </trkpt>
      <trkpt lat="33.477980000898242" lon="-3.56819998472929">
        <ele>829.10000000000002</ele>
        <time>2003-04-19T09:56:38Z</time>
      </trkpt>
      <trkpt lat="33.478377973660827" lon="-3.567536976188421">
        <ele>829.79999999999995</ele>
        <time>2003-04-19T09:56:44Z</time>
      </trkpt>
      <trkpt lat="33.478458020836115" lon="-3.567472016438842">
        <ele>830</ele>
        <time>2003-04-19T09:56:48Z</time>
      </trkpt>
      <trkpt lat="33.478547036647797" lon="-3.56738300062716">
        <ele>830.20000000000005</ele>
        <time>2003-04-19T09:56:51Z</time>
      </trkpt>
      <trkpt lat="33.478645021095872" lon="-3.567257020622492">
        <ele>830.29999999999995</ele>
        <time>2003-04-19T09:56:52Z</time>
      </trkpt>
      <trkpt lat="33.478764966130257" lon="-3.567027021199465">
        <ele>830.70000000000005</ele>
        <time>2003-04-19T09:56:55Z</time>
      </trkpt>
      <trkpt lat="33.478893041610718" lon="-3.566653020679951">
        <ele>830.70000000000005</ele>
        <time>2003-04-19T09:56:59Z</time>
      </trkpt>
      <trkpt lat="33.478960013017058" lon="-3.566561993211508">
        <ele>830.70000000000005</ele>
        <time>2003-04-19T09:57:00Z</time>
      </trkpt>
      <trkpt lat="33.479147013276815" lon="-3.566239960491657">
        <ele>831.10000000000002</ele>
        <time>2003-04-19T09:57:03Z</time>
      </trkpt>
      <trkpt lat="33.479238040745258" lon="-3.566067041829228">
        <ele>831.5</ele>
        <time>2003-04-19T09:57:06Z</time>
      </trkpt>
      <trkpt lat="33.479314986616373" lon="-3.565923040732741">
        <ele>832.10000000000002</ele>
        <time>2003-04-19T09:57:07Z</time>
      </trkpt>
      <trkpt lat="33.479438032954931" lon="-3.56564300134778">
        <ele>832.29999999999995</ele>
        <time>2003-04-19T09:57:10Z</time>
      </trkpt>
      <trkpt lat="33.479484971612692" lon="-3.565549962222576">
        <ele>833</ele>
        <time>2003-04-19T09:57:11Z</time>
      </trkpt>
      <trkpt lat="33.479546997696161" lon="-3.565464969724417">
        <ele>833.29999999999995</ele>
        <time>2003-04-19T09:57:13Z</time>
      </trkpt>
      <trkpt lat="33.479867018759251" lon="-3.565004970878363">
        <ele>834.10000000000002</ele>
        <time>2003-04-19T09:57:18Z</time>
      </trkpt>
      <trkpt lat="33.480049995705485" lon="-3.564683021977544">
        <ele>834.79999999999995</ele>
        <time>2003-04-19T09:57:21Z</time>
      </trkpt>
      <trkpt lat="33.480179999023676" lon="-3.564442964270711">
        <ele>834.10000000000002</ele>
        <time>2003-04-19T09:57:22Z</time>
      </trkpt>
      <trkpt lat="33.480628011748195" lon="-3.563612988218665">
        <ele>832.5</ele>
        <time>2003-04-19T09:57:30Z</time>
      </trkpt>
      <trkpt lat="33.48083202727139" lon="-3.563228007405996">
        <ele>833.70000000000005</ele>
        <time>2003-04-19T09:57:33Z</time>
      </trkpt>
      <trkpt lat="33.481152970343828" lon="-3.562553012743592">
        <ele>834.29999999999995</ele>
        <time>2003-04-19T09:57:37Z</time>
      </trkpt>
      <trkpt lat="33.481271993368864" lon="-3.562284959480166">
        <ele>834.60000000000002</ele>
        <time>2003-04-19T09:57:40Z</time>
      </trkpt>
      <trkpt lat="33.481701985001564" lon="-3.561249962076545">
        <ele>835.39999999999998</ele>
        <time>2003-04-19T09:57:46Z</time>
      </trkpt>
      <trkpt lat="33.48210196942091" lon="-3.560225022956729">
        <ele>836.79999999999995</ele>
        <time>2003-04-19T09:57:53Z</time>
      </trkpt>
      <trkpt lat="33.482398018240929" lon="-3.559472998604178">
        <ele>837.60000000000002</ele>
        <time>2003-04-19T09:57:59Z</time>
      </trkpt>
      <trkpt lat="33.482504971325397" lon="-3.559163035824895">
        <ele>837.79999999999995</ele>
        <time>2003-04-19T09:58:01Z</time>
      </trkpt>
      <trkpt lat="33.482732037082314" lon="-3.558564987033606">
        <ele>839.39999999999998</ele>
        <time>2003-04-19T09:58:04Z</time>
      </trkpt>
      <trkpt lat="33.483149958774447" lon="-3.557490007951856">
        <ele>840</ele>
        <time>2003-04-19T09:58:12Z</time>
      </trkpt>
      <trkpt lat="33.483593026176095" lon="-3.556364988908172">
        <ele>838.39999999999998</ele>
        <time>2003-04-19T09:58:19Z</time>
      </trkpt>
      <trkpt lat="33.483737027272582" lon="-3.555885041132569">
        <ele>838.70000000000005</ele>
        <time>2003-04-19T09:58:21Z</time>
      </trkpt>
      <trkpt lat="33.483974989503622" lon="-3.554858006536961">
        <ele>836.10000000000002</ele>
        <time>2003-04-19T09:58:28Z</time>
      </trkpt>
      <trkpt lat="33.484142040833831" lon="-3.554058037698269">
        <ele>834.20000000000005</ele>
        <time>2003-04-19T09:58:35Z</time>
      </trkpt>
      <trkpt lat="33.484204988926649" lon="-3.55386801995337">
        <ele>834.10000000000002</ele>
        <time>2003-04-19T09:58:36Z</time>
      </trkpt>
      <trkpt lat="33.48424999974668" lon="-3.553750002756715">
        <ele>832.29999999999995</ele>
        <time>2003-04-19T09:58:39Z</time>
      </trkpt>
      <trkpt lat="33.484323006123304" lon="-3.553529977798462">
        <ele>833.60000000000002</ele>
        <time>2003-04-19T09:58:42Z</time>
      </trkpt>
      <trkpt lat="33.484413027763367" lon="-3.553238036110997">
        <ele>834.79999999999995</ele>
        <time>2003-04-19T09:58:44Z</time>
      </trkpt>
      <trkpt lat="33.484487039968371" lon="-3.55300803668797">
        <ele>835.10000000000002</ele>
        <time>2003-04-19T09:58:47Z</time>
      </trkpt>
      <trkpt lat="33.484661970287561" lon="-3.552542002871633">
        <ele>835.39999999999998</ele>
        <time>2003-04-19T09:58:51Z</time>
      </trkpt>
      <trkpt lat="33.484802031889558" lon="-3.552177976816893">
        <ele>836.10000000000002</ele>
        <time>2003-04-19T09:58:54Z</time>
      </trkpt>
      <trkpt lat="33.484857017174363" lon="-3.552067000418901">
        <ele>836.39999999999998</ele>
        <time>2003-04-19T09:58:55Z</time>
      </trkpt>
      <trkpt lat="33.484928011894226" lon="-3.55189299210906">
        <ele>836.10000000000002</ele>
        <time>2003-04-19T09:58:57Z</time>
      </trkpt>
      <trkpt lat="33.484991965815425" lon="-3.551789978519082">
        <ele>836.29999999999995</ele>
        <time>2003-04-19T09:58:58Z</time>
      </trkpt>
      <trkpt lat="33.485048040747643" lon="-3.551701968535781">
        <ele>835.39999999999998</ele>
        <time>2003-04-19T09:59:01Z</time>
      </trkpt>
      <trkpt lat="33.485177038237453" lon="-3.551452020183206">
        <ele>836.70000000000005</ele>
        <time>2003-04-19T09:59:06Z</time>
      </trkpt>
      <trkpt lat="33.485307963564992" lon="-3.551214979961515">
        <ele>837.29999999999995</ele>
        <time>2003-04-19T09:59:10Z</time>
      </trkpt>
      <trkpt lat="33.485420029610395" lon="-3.550982968881726">
        <ele>837.29999999999995</ele>
        <time>2003-04-19T09:59:13Z</time>
      </trkpt>
      <trkpt lat="33.485656986013055" lon="-3.550618020817637">
        <ele>838.60000000000002</ele>
        <time>2003-04-19T09:59:18Z</time>
      </trkpt>
      <trkpt lat="33.485810039564967" lon="-3.550311997532845">
        <ele>839.20000000000005</ele>
        <time>2003-04-19T09:59:22Z</time>
      </trkpt>
      <trkpt lat="33.486323012039065" lon="-3.549413038417697">
        <ele>841.10000000000002</ele>
        <time>2003-04-19T09:59:29Z</time>
      </trkpt>
      <trkpt lat="33.486700030043721" lon="-3.548726979643107">
        <ele>842.20000000000005</ele>
        <time>2003-04-19T09:59:36Z</time>
      </trkpt>
      <trkpt lat="33.486730037257075" lon="-3.548593036830425">
        <ele>842.39999999999998</ele>
        <time>2003-04-19T09:59:37Z</time>
      </trkpt>
      <trkpt lat="33.486815029755235" lon="-3.548321966081858">
        <ele>841.70000000000005</ele>
        <time>2003-04-19T09:59:38Z</time>
      </trkpt>
      <trkpt lat="33.487058021128178" lon="-3.547758031636477">
        <ele>839.70000000000005</ele>
        <time>2003-04-19T09:59:44Z</time>
      </trkpt>
      <trkpt lat="33.487176960334182" lon="-3.547619981691241">
        <ele>839.39999999999998</ele>
        <time>2003-04-19T09:59:45Z</time>
      </trkpt>
      <trkpt lat="33.487224988639355" lon="-3.547497019171715">
        <ele>838.39999999999998</ele>
        <time>2003-04-19T09:59:48Z</time>
      </trkpt>
      <trkpt lat="33.487272011116147" lon="-3.547371961176395">
        <ele>837.20000000000005</ele>
        <time>2003-04-19T09:59:51Z</time>
      </trkpt>
      <trkpt lat="33.487384999170899" lon="-3.547059986740351">
        <ele>835.70000000000005</ele>
        <time>2003-04-19T09:59:56Z</time>
      </trkpt>
      <trkpt lat="33.487394973635674" lon="-3.546944987028837">
        <ele>834.79999999999995</ele>
        <time>2003-04-19T10:00:00Z</time>
      </trkpt>
      <trkpt lat="33.48732297308743" lon="-3.546868041157723">
        <ele>834.39999999999998</ele>
        <time>2003-04-19T10:00:05Z</time>
      </trkpt>
      <trkpt lat="33.487251978367567" lon="-3.546784976497293">
        <ele>832.5</ele>
        <time>2003-04-19T10:00:11Z</time>
      </trkpt>
      <trkpt lat="33.487147958949208" lon="-3.546652961522341">
        <ele>834.20000000000005</ele>
        <time>2003-04-19T10:00:15Z</time>
      </trkpt>
      <trkpt lat="33.487049974501133" lon="-3.546548020094633">
        <ele>835.60000000000002</ele>
        <time>2003-04-19T10:00:18Z</time>
      </trkpt>
      <trkpt lat="33.487027008086443" lon="-3.54643695987761">
        <ele>837.39999999999998</ele>
        <time>2003-04-19T10:00:19Z</time>
      </trkpt>
      <trkpt lat="33.487058021128178" lon="-3.54632799513638">
        <ele>838.60000000000002</ele>
        <time>2003-04-19T10:00:22Z</time>
      </trkpt>
      <trkpt lat="33.487073024734855" lon="-3.546207966282964">
        <ele>839.89999999999998</ele>
        <time>2003-04-19T10:00:23Z</time>
      </trkpt>
      <trkpt lat="33.487082999199629" lon="-3.546062037348747">
        <ele>840.60000000000002</ele>
        <time>2003-04-19T10:00:26Z</time>
      </trkpt>
      <trkpt lat="33.487133039161563" lon="-3.545734975486994">
        <ele>841.89999999999998</ele>
        <time>2003-04-19T10:00:30Z</time>
      </trkpt>
      <trkpt lat="33.487227000296116" lon="-3.545625004917383">
        <ele>842.89999999999998</ele>
        <time>2003-04-19T10:00:31Z</time>
      </trkpt>
      <trkpt lat="33.48727704025805" lon="-3.545534983277321">
        <ele>843.10000000000002</ele>
        <time>2003-04-19T10:00:34Z</time>
      </trkpt>
      <trkpt lat="33.487375024706125" lon="-3.545444961637259">
        <ele>841.89999999999998</ele>
        <time>2003-04-19T10:00:36Z</time>
      </trkpt>
      <trkpt lat="33.487484995275736" lon="-3.545487960800529">
        <ele>843.70000000000005</ele>
        <time>2003-04-19T10:00:39Z</time>
      </trkpt>
      <trkpt lat="33.487618016079068" lon="-3.545515034347773">
        <ele>842.79999999999995</ele>
        <time>2003-04-19T10:00:41Z</time>
      </trkpt>
      <trkpt lat="33.487724969163537" lon="-3.545515034347773">
        <ele>842.39999999999998</ele>
        <time>2003-04-19T10:00:43Z</time>
      </trkpt>
      <trkpt lat="33.487848015502095" lon="-3.545500030741096">
        <ele>841.89999999999998</ele>
        <time>2003-04-19T10:00:46Z</time>
      </trkpt>
      <trkpt lat="33.487942982465029" lon="-3.545461976900697">
        <ele>841.60000000000002</ele>
        <time>2003-04-19T10:00:49Z</time>
      </trkpt>
      <trkpt lat="33.488020012155175" lon="-3.545362986624241">
        <ele>840.10000000000002</ele>
        <time>2003-04-19T10:00:51Z</time>
      </trkpt>
      <trkpt lat="33.488068040460348" lon="-3.54525201022625">
        <ele>839</ele>
        <time>2003-04-19T10:00:54Z</time>
      </trkpt>
      <trkpt lat="33.488114979118109" lon="-3.545153019949794">
        <ele>838.70000000000005</ele>
        <time>2003-04-19T10:00:55Z</time>
      </trkpt>
      <trkpt lat="33.488183040171862" lon="-3.545078001916409">
        <ele>838.79999999999995</ele>
        <time>2003-04-19T10:00:58Z</time>
      </trkpt>
      <trkpt lat="33.488241964951158" lon="-3.544963002204895">
        <ele>837.89999999999998</ele>
        <time>2003-04-19T10:00:59Z</time>
      </trkpt>
      <trkpt lat="33.488257974386215" lon="-3.54482302442193">
        <ele>836.79999999999995</ele>
        <time>2003-04-19T10:01:02Z</time>
      </trkpt>
      <trkpt lat="33.488265015184879" lon="-3.544597970321775">
        <ele>835.20000000000005</ele>
        <time>2003-04-19T10:01:05Z</time>
      </trkpt>
      <trkpt lat="33.488237019628286" lon="-3.544442988932133">
        <ele>835.29999999999995</ele>
        <time>2003-04-19T10:01:06Z</time>
      </trkpt>
      <trkpt lat="33.488074997439981" lon="-3.544064965099096">
        <ele>835.70000000000005</ele>
        <time>2003-04-19T10:01:13Z</time>
      </trkpt>
      <trkpt lat="33.487918004393578" lon="-3.543612007051706">
        <ele>836.5</ele>
        <time>2003-04-19T10:01:21Z</time>
      </trkpt>
      <trkpt lat="33.487933008000255" lon="-3.543502036482096">
        <ele>836</ele>
        <time>2003-04-19T10:01:24Z</time>
      </trkpt>
      <trkpt lat="33.487882968038321" lon="-3.543391982093453">
        <ele>836.10000000000002</ele>
        <time>2003-04-19T10:01:25Z</time>
      </trkpt>
      <trkpt lat="33.487824965268373" lon="-3.543298020958901">
        <ele>836.5</ele>
        <time>2003-04-19T10:01:28Z</time>
      </trkpt>
      <trkpt lat="33.487808033823967" lon="-3.543186960741878">
        <ele>836.89999999999998</ele>
        <time>2003-04-19T10:01:29Z</time>
      </trkpt>
      <trkpt lat="33.487782971933484" lon="-3.543004989624023">
        <ele>839.10000000000002</ele>
        <time>2003-04-19T10:01:33Z</time>
      </trkpt>
      <trkpt lat="33.487792024388909" lon="-3.542892001569271">
        <ele>840</ele>
        <time>2003-04-19T10:01:35Z</time>
      </trkpt>
      <trkpt lat="33.487856984138489" lon="-3.542701983824372">
        <ele>841.79999999999995</ele>
        <time>2003-04-19T10:01:37Z</time>
      </trkpt>
      <trkpt lat="33.487959997728467" lon="-3.542593019083142">
        <ele>842.10000000000002</ele>
        <time>2003-04-19T10:01:40Z</time>
      </trkpt>
      <trkpt lat="33.488150015473366" lon="-3.542329994961619">
        <ele>843.89999999999998</ele>
        <time>2003-04-19T10:01:44Z</time>
      </trkpt>
      <trkpt lat="33.488225033506751" lon="-3.542207032442093">
        <ele>844.79999999999995</ele>
        <time>2003-04-19T10:01:45Z</time>
      </trkpt>
      <trkpt lat="33.488220004364848" lon="-3.542039981111884">
        <ele>845.29999999999995</ele>
        <time>2003-04-19T10:01:48Z</time>
      </trkpt>
      <trkpt lat="33.488165019080043" lon="-3.541672015562654">
        <ele>846</ele>
        <time>2003-04-19T10:01:52Z</time>
      </trkpt>
      <trkpt lat="33.488131994381547" lon="-3.541461965069175">
        <ele>846.29999999999995</ele>
        <time>2003-04-19T10:01:53Z</time>
      </trkpt>
      <trkpt lat="33.488048007711768" lon="-3.540965002030134">
        <ele>848.20000000000005</ele>
        <time>2003-04-19T10:01:59Z</time>
      </trkpt>
      <trkpt lat="33.488069968298078" lon="-3.540765009820461">
        <ele>848.79999999999995</ele>
        <time>2003-04-19T10:02:00Z</time>
      </trkpt>
      <trkpt lat="33.48820298910141" lon="-3.540022037923336">
        <ele>851.29999999999995</ele>
        <time>2003-04-19T10:02:08Z</time>
      </trkpt>
      <trkpt lat="33.488208018243313" lon="-3.539833026006818">
        <ele>851.5</ele>
        <time>2003-04-19T10:02:11Z</time>
      </trkpt>
      <trkpt lat="33.488214975222945" lon="-3.53938995860517">
        <ele>852.89999999999998</ele>
        <time>2003-04-19T10:02:15Z</time>
      </trkpt>
      <trkpt lat="33.488256968557835" lon="-3.539240006357431">
        <ele>852.70000000000005</ele>
        <time>2003-04-19T10:02:18Z</time>
      </trkpt>
      <trkpt lat="33.488295022398233" lon="-3.539019981399179">
        <ele>853.20000000000005</ele>
        <time>2003-04-19T10:02:20Z</time>
      </trkpt>
      <trkpt lat="33.488329974934459" lon="-3.53882803581655">
        <ele>853.79999999999995</ele>
        <time>2003-04-19T10:02:23Z</time>
      </trkpt>
      <trkpt lat="33.488346990197897" lon="-3.538617985323072">
        <ele>853.89999999999998</ele>
        <time>2003-04-19T10:02:27Z</time>
      </trkpt>
      <trkpt lat="33.488378003239632" lon="-3.538280026987195">
        <ele>854</ele>
        <time>2003-04-19T10:02:31Z</time>
      </trkpt>
      <trkpt lat="33.488416979089379" lon="-3.537877025082707">
        <ele>854.60000000000002</ele>
        <time>2003-04-19T10:02:34Z</time>
      </trkpt>
      <trkpt lat="33.488502977415919" lon="-3.53685300797224">
        <ele>855.20000000000005</ele>
        <time>2003-04-19T10:02:43Z</time>
      </trkpt>
      <trkpt lat="33.488549999892712" lon="-3.536604987457395">
        <ele>855.39999999999998</ele>
        <time>2003-04-19T10:02:46Z</time>
      </trkpt>
      <trkpt lat="33.488637004047632" lon="-3.536074999719858">
        <ele>855.79999999999995</ele>
        <time>2003-04-19T10:02:50Z</time>
      </trkpt>
      <trkpt lat="33.488795002922416" lon="-3.534902958199382">
        <ele>856.60000000000002</ele>
        <time>2003-04-19T10:02:58Z</time>
      </trkpt>
      <trkpt lat="33.488842025399208" lon="-3.534592995420098">
        <ele>856.5</ele>
        <time>2003-04-19T10:03:01Z</time>
      </trkpt>
      <trkpt lat="33.48886800929904" lon="-3.534476989880204">
        <ele>856.29999999999995</ele>
        <time>2003-04-19T10:03:04Z</time>
      </trkpt>
      <trkpt lat="33.488904973492026" lon="-3.534344974905253">
        <ele>856.20000000000005</ele>
        <time>2003-04-19T10:03:06Z</time>
      </trkpt>
      <trkpt lat="33.488970017060637" lon="-3.53405999019742">
        <ele>855.89999999999998</ele>
        <time>2003-04-19T10:03:12Z</time>
      </trkpt>
      <trkpt lat="33.489021984860301" lon="-3.533916994929314">
        <ele>856.29999999999995</ele>
        <time>2003-04-19T10:03:13Z</time>
      </trkpt>
      <trkpt lat="33.489066995680332" lon="-3.533769976347685">
        <ele>856.39999999999998</ele>
        <time>2003-04-19T10:03:16Z</time>
      </trkpt>
      <trkpt lat="33.489142013713717" lon="-3.533527990803123">
        <ele>857</ele>
        <time>2003-04-19T10:03:18Z</time>
      </trkpt>
      <trkpt lat="33.489328008145094" lon="-3.533173017203808">
        <ele>857.10000000000002</ele>
        <time>2003-04-19T10:03:24Z</time>
      </trkpt>
      <trkpt lat="33.489712988957763" lon="-3.532682005316019">
        <ele>857.60000000000002</ele>
        <time>2003-04-19T10:03:32Z</time>
      </trkpt>
      <trkpt lat="33.489923039451241" lon="-3.532442031428218">
        <ele>857.29999999999995</ele>
        <time>2003-04-19T10:03:36Z</time>
      </trkpt>
      <trkpt lat="33.490086989477277" lon="-3.532141959294677">
        <ele>856.60000000000002</ele>
        <time>2003-04-19T10:03:40Z</time>
      </trkpt>
      <trkpt lat="33.490154966711998" lon="-3.532026959583163">
        <ele>855.79999999999995</ele>
        <time>2003-04-19T10:03:43Z</time>
      </trkpt>
      <trkpt lat="33.49028698168695" lon="-3.531829984858632">
        <ele>855.39999999999998</ele>
        <time>2003-04-19T10:03:48Z</time>
      </trkpt>
      <trkpt lat="33.490371974185109" lon="-3.531782040372491">
        <ele>855.5</ele>
        <time>2003-04-19T10:03:48Z</time>
      </trkpt>
      <trkpt lat="33.490580013021827" lon="-3.531667962670326">
        <ele>857</ele>
        <time>2003-04-19T10:03:52Z</time>
      </trkpt>
      <trkpt lat="33.490682020783424" lon="-3.531593028455973">
        <ele>857.39999999999998</ele>
        <time>2003-04-19T10:03:55Z</time>
      </trkpt>
      <trkpt lat="33.490917971357703" lon="-3.531490014865995">
        <ele>858.10000000000002</ele>
        <time>2003-04-19T10:03:59Z</time>
      </trkpt>
      <trkpt lat="33.49110203795135" lon="-3.531397981569171">
        <ele>858.60000000000002</ele>
        <time>2003-04-19T10:04:03Z</time>
      </trkpt>
      <trkpt lat="33.491179989650846" lon="-3.531277030706406">
        <ele>858.89999999999998</ele>
        <time>2003-04-19T10:04:04Z</time>
      </trkpt>
      <trkpt lat="33.491313010454178" lon="-3.531120037660003">
        <ele>859.10000000000002</ele>
        <time>2003-04-19T10:04:07Z</time>
      </trkpt>
      <trkpt lat="33.491442007943988" lon="-3.531045019626617">
        <ele>859.39999999999998</ele>
        <time>2003-04-19T10:04:08Z</time>
      </trkpt>
      <trkpt lat="33.491518031805754" lon="-3.530888026580215">
        <ele>859.89999999999998</ele>
        <time>2003-04-19T10:04:11Z</time>
      </trkpt>
      <trkpt lat="33.491594977676868" lon="-3.530755005776882">
        <ele>860.10000000000002</ele>
        <time>2003-04-19T10:04:12Z</time>
      </trkpt>
      <trkpt lat="33.491782983765006" lon="-3.530487036332488">
        <ele>861.20000000000005</ele>
        <time>2003-04-19T10:04:18Z</time>
      </trkpt>
      <trkpt lat="33.492009965702891" lon="-3.530134996399283">
        <ele>862.39999999999998</ele>
        <time>2003-04-19T10:04:22Z</time>
      </trkpt>
      <trkpt lat="33.492101998999715" lon="-3.530099960044026">
        <ele>862.89999999999998</ele>
        <time>2003-04-19T10:04:23Z</time>
      </trkpt>
      <trkpt lat="33.492181962355971" lon="-3.530044974759221">
        <ele>863.10000000000002</ele>
        <time>2003-04-19T10:04:23Z</time>
      </trkpt>
      <trkpt lat="33.492299979552627" lon="-3.529882030561566">
        <ele>863.5</ele>
        <time>2003-04-19T10:04:26Z</time>
      </trkpt>
      <trkpt lat="33.492338033393025" lon="-3.529780022799969">
        <ele>863.70000000000005</ele>
        <time>2003-04-19T10:04:26Z</time>
      </trkpt>
      <trkpt lat="33.492426965385675" lon="-3.529512975364924">
        <ele>864</ele>
        <time>2003-04-19T10:04:30Z</time>
      </trkpt>
      <trkpt lat="33.492525033652782" lon="-3.529369980096817">
        <ele>864.60000000000002</ele>
        <time>2003-04-19T10:04:31Z</time>
      </trkpt>
      <trkpt lat="33.492880007252097" lon="-3.528794981539249">
        <ele>866.29999999999995</ele>
        <time>2003-04-19T10:04:38Z</time>
      </trkpt>
      <trkpt lat="33.492927029728889" lon="-3.528598006814718">
        <ele>866.39999999999998</ele>
        <time>2003-04-19T10:04:41Z</time>
      </trkpt>
      <trkpt lat="33.493040017783642" lon="-3.52845199406147">
        <ele>866.89999999999998</ele>
        <time>2003-04-19T10:04:42Z</time>
      </trkpt>
      <trkpt lat="33.493758011609316" lon="-3.527801977470517">
        <ele>864.29999999999995</ele>
        <time>2003-04-19T10:04:54Z</time>
      </trkpt>
      <trkpt lat="33.493992034345865" lon="-3.527586981654167">
        <ele>862.70000000000005</ele>
        <time>2003-04-19T10:04:58Z</time>
      </trkpt>
      <trkpt lat="33.494066968560219" lon="-3.527522021904588">
        <ele>862.20000000000005</ele>
        <time>2003-04-19T10:05:01Z</time>
      </trkpt>
      <trkpt lat="33.494182974100113" lon="-3.527408028021455">
        <ele>861.5</ele>
        <time>2003-04-19T10:05:04Z</time>
      </trkpt>
      <trkpt lat="33.494269978255033" lon="-3.527327980846167">
        <ele>861.5</ele>
        <time>2003-04-19T10:05:05Z</time>
      </trkpt>
      <trkpt lat="33.494392018765211" lon="-3.527229996398091">
        <ele>861.29999999999995</ele>
        <time>2003-04-19T10:05:08Z</time>
      </trkpt>
      <trkpt lat="33.494607014581561" lon="-3.526982981711626">
        <ele>860.39999999999998</ele>
        <time>2003-04-19T10:05:12Z</time>
      </trkpt>
      <trkpt lat="33.494727965444326" lon="-3.526748036965728">
        <ele>858.89999999999998</ele>
        <time>2003-04-19T10:05:15Z</time>
      </trkpt>
      <trkpt lat="33.494946984574199" lon="-3.526303041726351">
        <ele>857.89999999999998</ele>
        <time>2003-04-19T10:05:20Z</time>
      </trkpt>
      <trkpt lat="33.495061984285712" lon="-3.526128027588129">
        <ele>857.70000000000005</ele>
        <time>2003-04-19T10:05:24Z</time>
      </trkpt>
      <trkpt lat="33.495216965675354" lon="-3.525952007621527">
        <ele>856.10000000000002</ele>
        <time>2003-04-19T10:05:28Z</time>
      </trkpt>
      <trkpt lat="33.495289972051978" lon="-3.525859974324703">
        <ele>854.89999999999998</ele>
        <time>2003-04-19T10:05:31Z</time>
      </trkpt>
      <trkpt lat="33.495474960654974" lon="-3.525661993771792">
        <ele>855.20000000000005</ele>
        <time>2003-04-19T10:05:39Z</time>
      </trkpt>
      <trkpt lat="33.495587026700377" lon="-3.525638021528721">
        <ele>855.79999999999995</ele>
        <time>2003-04-19T10:05:40Z</time>
      </trkpt>
      <trkpt lat="33.495718035846949" lon="-3.525607008486986">
        <ele>856.79999999999995</ele>
        <time>2003-04-19T10:05:43Z</time>
      </trkpt>
      <trkpt lat="33.495828006416559" lon="-3.525526961311698">
        <ele>858.20000000000005</ele>
        <time>2003-04-19T10:05:44Z</time>
      </trkpt>
      <trkpt lat="33.495920039713383" lon="-3.525505000725389">
        <ele>858.70000000000005</ele>
        <time>2003-04-19T10:05:47Z</time>
      </trkpt>
      <trkpt lat="33.496033027768135" lon="-3.525435011833906">
        <ele>858.89999999999998</ele>
        <time>2003-04-19T10:05:48Z</time>
      </trkpt>
      <trkpt lat="33.496141992509365" lon="-3.525316994637251">
        <ele>859.10000000000002</ele>
        <time>2003-04-19T10:05:51Z</time>
      </trkpt>
      <trkpt lat="33.496294962242246" lon="-3.525075009092689">
        <ele>858.89999999999998</ele>
        <time>2003-04-19T10:05:54Z</time>
      </trkpt>
      <trkpt lat="33.496671980246902" lon="-3.524377970024943">
        <ele>858.29999999999995</ele>
        <time>2003-04-19T10:06:00Z</time>
      </trkpt>
      <trkpt lat="33.497177995741367" lon="-3.523450009524822">
        <ele>858.39999999999998</ele>
        <time>2003-04-19T10:06:10Z</time>
      </trkpt>
      <trkpt lat="33.497572029009461" lon="-3.522506961598992">
        <ele>858.20000000000005</ele>
        <time>2003-04-19T10:06:18Z</time>
      </trkpt>
      <trkpt lat="33.497992968186736" lon="-3.521477999165654">
        <ele>857.79999999999995</ele>
        <time>2003-04-19T10:06:26Z</time>
      </trkpt>
      <trkpt lat="33.498227996751666" lon="-3.520896965637803">
        <ele>859.5</ele>
        <time>2003-04-19T10:06:30Z</time>
      </trkpt>
      <trkpt lat="33.498545000329614" lon="-3.519832966849208">
        <ele>861.39999999999998</ele>
        <time>2003-04-19T10:06:38Z</time>
      </trkpt>
      <trkpt lat="33.498693024739623" lon="-3.519385037943721">
        <ele>862.20000000000005</ele>
        <time>2003-04-19T10:06:42Z</time>
      </trkpt>
      <trkpt lat="33.498712973669171" lon="-3.519253022968769">
        <ele>861.89999999999998</ele>
        <time>2003-04-19T10:06:45Z</time>
      </trkpt>
      <trkpt lat="33.498680032789707" lon="-3.519150009378791">
        <ele>862.20000000000005</ele>
        <time>2003-04-19T10:06:46Z</time>
      </trkpt>
      <trkpt lat="33.49868799559772" lon="-3.518927972763777">
        <ele>862.29999999999995</ele>
        <time>2003-04-19T10:06:53Z</time>
      </trkpt>
      <trkpt lat="33.498724959790707" lon="-3.518786989152432">
        <ele>862.60000000000002</ele>
        <time>2003-04-19T10:06:56Z</time>
      </trkpt>
      <trkpt lat="33.498705010861158" lon="-3.518647011369467">
        <ele>863.5</ele>
        <time>2003-04-19T10:06:57Z</time>
      </trkpt>
      <trkpt lat="33.498744992539287" lon="-3.518507033586502">
        <ele>863.60000000000002</ele>
        <time>2003-04-19T10:07:00Z</time>
      </trkpt>
      <trkpt lat="33.498868038877845" lon="-3.518228000029922">
        <ele>864.39999999999998</ele>
        <time>2003-04-19T10:07:04Z</time>
      </trkpt>
      <trkpt lat="33.498968034982681" lon="-3.518007975071669">
        <ele>864.20000000000005</ele>
        <time>2003-04-19T10:07:07Z</time>
      </trkpt>
      <trkpt lat="33.49903198890388" lon="-3.517788033932447">
        <ele>864.70000000000005</ele>
        <time>2003-04-19T10:07:09Z</time>
      </trkpt>
      <trkpt lat="33.499068031087518" lon="-3.517640009522438">
        <ele>865.20000000000005</ele>
        <time>2003-04-19T10:07:12Z</time>
      </trkpt>
      <trkpt lat="33.499053027480841" lon="-3.51747496984899">
        <ele>866.29999999999995</ele>
        <time>2003-04-19T10:07:13Z</time>
      </trkpt>
      <trkpt lat="33.498995024710894" lon="-3.517265003174543">
        <ele>867.39999999999998</ele>
        <time>2003-04-19T10:07:16Z</time>
      </trkpt>
      <trkpt lat="33.498897040262818" lon="-3.517027040943503">
        <ele>868.5</ele>
        <time>2003-04-19T10:07:20Z</time>
      </trkpt>
      <trkpt lat="33.498852029442787" lon="-3.516932995989919">
        <ele>869.20000000000005</ele>
        <time>2003-04-19T10:07:24Z</time>
      </trkpt>
      <trkpt lat="33.498856974765658" lon="-3.516808021813631">
        <ele>869.70000000000005</ele>
        <time>2003-04-19T10:07:31Z</time>
      </trkpt>
      <trkpt lat="33.498941967263818" lon="-3.516762005165219">
        <ele>869.20000000000005</ele>
        <time>2003-04-19T10:07:34Z</time>
      </trkpt>
      <trkpt lat="33.499063001945615" lon="-3.516786983236671">
        <ele>868.39999999999998</ele>
        <time>2003-04-19T10:07:36Z</time>
      </trkpt>
      <trkpt lat="33.499199962243438" lon="-3.516753036528826">
        <ele>867.39999999999998</ele>
        <time>2003-04-19T10:07:39Z</time>
      </trkpt>
      <trkpt lat="33.499347986653447" lon="-3.516682041808963">
        <ele>866.79999999999995</ele>
        <time>2003-04-19T10:07:43Z</time>
      </trkpt>
      <trkpt lat="33.499410012736917" lon="-3.516563018783927">
        <ele>866.60000000000002</ele>
        <time>2003-04-19T10:07:44Z</time>
      </trkpt>
      <trkpt lat="33.499527024105191" lon="-3.516184994950891">
        <ele>867.29999999999995</ele>
        <time>2003-04-19T10:07:50Z</time>
      </trkpt>
      <trkpt lat="33.499602964147925" lon="-3.515992965549231">
        <ele>868</ele>
        <time>2003-04-19T10:07:51Z</time>
      </trkpt>
      <trkpt lat="33.499713018536568" lon="-3.515672022476792">
        <ele>868.60000000000002</ele>
        <time>2003-04-19T10:07:55Z</time>
      </trkpt>
      <trkpt lat="33.499879986047745" lon="-3.515171958133578">
        <ele>868.89999999999998</ele>
        <time>2003-04-19T10:07:59Z</time>
      </trkpt>
      <trkpt lat="33.499973025172949" lon="-3.515047989785671">
        <ele>869.39999999999998</ele>
        <time>2003-04-19T10:08:02Z</time>
      </trkpt>
      <trkpt lat="33.500079978257418" lon="-3.514889990910888">
        <ele>869.5</ele>
        <time>2003-04-19T10:08:03Z</time>
      </trkpt>
      <trkpt lat="33.500458002090454" lon="-3.514237040653825">
        <ele>870.70000000000005</ele>
        <time>2003-04-19T10:08:10Z</time>
      </trkpt>
      <trkpt lat="33.500641984865069" lon="-3.513803025707603">
        <ele>871.29999999999995</ele>
        <time>2003-04-19T10:08:14Z</time>
      </trkpt>
      <trkpt lat="33.500705016776919" lon="-3.513557016849518">
        <ele>871.79999999999995</ele>
        <time>2003-04-19T10:08:17Z</time>
      </trkpt>
      <trkpt lat="33.500757990404963" lon="-3.513158038258553">
        <ele>872.70000000000005</ele>
        <time>2003-04-19T10:08:20Z</time>
      </trkpt>
      <trkpt lat="33.500752961263061" lon="-3.513040021061897">
        <ele>872.89999999999998</ele>
        <time>2003-04-19T10:08:21Z</time>
      </trkpt>
      <trkpt lat="33.500726977363229" lon="-3.512928038835526">
        <ele>873.5</ele>
        <time>2003-04-19T10:08:22Z</time>
      </trkpt>
      <trkpt lat="33.500699987635016" lon="-3.512707008048892">
        <ele>874.70000000000005</ele>
        <time>2003-04-19T10:08:24Z</time>
      </trkpt>
      <trkpt lat="33.500682972371578" lon="-3.512431997805834">
        <ele>876</ele>
        <time>2003-04-19T10:08:26Z</time>
      </trkpt>
      <trkpt lat="33.500593034550548" lon="-3.512022038921714">
        <ele>876.79999999999995</ele>
        <time>2003-04-19T10:08:30Z</time>
      </trkpt>
      <trkpt lat="33.5005799587816" lon="-3.511743005365133">
        <ele>877.10000000000002</ele>
        <time>2003-04-19T10:08:33Z</time>
      </trkpt>
      <trkpt lat="33.500537965446711" lon="-3.511439999565482">
        <ele>876.5</ele>
        <time>2003-04-19T10:08:37Z</time>
      </trkpt>
      <trkpt lat="33.500560009852052" lon="-3.511332040652633">
        <ele>875.89999999999998</ele>
        <time>2003-04-19T10:08:37Z</time>
      </trkpt>
      <trkpt lat="33.500612983480096" lon="-3.511158032342792">
        <ele>876.10000000000002</ele>
        <time>2003-04-19T10:08:40Z</time>
      </trkpt>
      <trkpt lat="33.500641984865069" lon="-3.511055018752813">
        <ele>876</ele>
        <time>2003-04-19T10:08:41Z</time>
      </trkpt>
      <trkpt lat="33.500748015940189" lon="-3.510756958276033">
        <ele>875.39999999999998</ele>
        <time>2003-04-19T10:08:48Z</time>
      </trkpt>
      <trkpt lat="33.50081498734653" lon="-3.510667020455003">
        <ele>875.20000000000005</ele>
        <time>2003-04-19T10:08:51Z</time>
      </trkpt>
      <trkpt lat="33.500905008986592" lon="-3.510644976049662">
        <ele>875.39999999999998</ele>
        <time>2003-04-19T10:08:52Z</time>
      </trkpt>
      <trkpt lat="33.500956976786256" lon="-3.510531987994909">
        <ele>875.89999999999998</ele>
        <time>2003-04-19T10:08:55Z</time>
      </trkpt>
      <trkpt lat="33.500947002321482" lon="-3.510368037968874">
        <ele>876.39999999999998</ele>
        <time>2003-04-19T10:08:56Z</time>
      </trkpt>
      <trkpt lat="33.500912971794605" lon="-3.510186988860369">
        <ele>877.10000000000002</ele>
        <time>2003-04-19T10:08:59Z</time>
      </trkpt>
      <trkpt lat="33.50087801925838" lon="-3.509999988600612">
        <ele>878</ele>
        <time>2003-04-19T10:09:00Z</time>
      </trkpt>
      <trkpt lat="33.500797972083092" lon="-3.509217035025358">
        <ele>880.29999999999995</ele>
        <time>2003-04-19T10:09:08Z</time>
      </trkpt>
      <trkpt lat="33.500782968476415" lon="-3.508502980694175">
        <ele>880.60000000000002</ele>
        <time>2003-04-19T10:09:15Z</time>
      </trkpt>
      <trkpt lat="33.500808030366898" lon="-3.508123029023409">
        <ele>879.5</ele>
        <time>2003-04-19T10:09:18Z</time>
      </trkpt>
      <trkpt lat="33.500863015651703" lon="-3.507937034592032">
        <ele>879</ele>
        <time>2003-04-19T10:09:19Z</time>
      </trkpt>
      <trkpt lat="33.500908026471734" lon="-3.50778297521174">
        <ele>878.39999999999998</ele>
        <time>2003-04-19T10:09:22Z</time>
      </trkpt>
      <trkpt lat="33.501014979556203" lon="-3.507467983290553">
        <ele>877.39999999999998</ele>
        <time>2003-04-19T10:09:26Z</time>
      </trkpt>
      <trkpt lat="33.501429967582226" lon="-3.506397027522326">
        <ele>874</ele>
        <time>2003-04-19T10:09:38Z</time>
      </trkpt>
      <trkpt lat="33.501568017527461" lon="-3.506062002852559">
        <ele>874.5</ele>
        <time>2003-04-19T10:09:41Z</time>
      </trkpt>
      <trkpt lat="33.501876974478364" lon="-3.505307966843247">
        <ele>874.10000000000002</ele>
        <time>2003-04-19T10:09:47Z</time>
      </trkpt>
      <trkpt lat="33.502170005813241" lon="-3.504649987444282">
        <ele>872.70000000000005</ele>
        <time>2003-04-19T10:09:55Z</time>
      </trkpt>
      <trkpt lat="33.502218034118414" lon="-3.504534987732768">
        <ele>872.70000000000005</ele>
        <time>2003-04-19T10:09:58Z</time>
      </trkpt>
      <trkpt lat="33.502262961119413" lon="-3.504437003284693">
        <ele>872.39999999999998</ele>
        <time>2003-04-19T10:10:03Z</time>
      </trkpt>
      <trkpt lat="33.502336973324418" lon="-3.504268024116755">
        <ele>872.39999999999998</ele>
        <time>2003-04-19T10:10:09Z</time>
      </trkpt>
      <trkpt lat="33.502379972487688" lon="-3.50415201857686">
        <ele>872.60000000000002</ele>
        <time>2003-04-19T10:10:13Z</time>
      </trkpt>
      <trkpt lat="33.50251299329102" lon="-3.503869967535138">
        <ele>872.79999999999995</ele>
        <time>2003-04-19T10:10:21Z</time>
      </trkpt>
      <trkpt lat="33.502541994675994" lon="-3.503762008622289">
        <ele>873.20000000000005</ele>
        <time>2003-04-19T10:10:25Z</time>
      </trkpt>
      <trkpt lat="33.50266202352941" lon="-3.503533015027642">
        <ele>873.39999999999998</ele>
        <time>2003-04-19T10:10:30Z</time>
      </trkpt>
      <trkpt lat="33.502722037956119" lon="-3.503408040851355">
        <ele>873.5</ele>
        <time>2003-04-19T10:10:33Z</time>
      </trkpt>
      <trkpt lat="33.502827985212207" lon="-3.50320796482265">
        <ele>873.89999999999998</ele>
        <time>2003-04-19T10:10:36Z</time>
      </trkpt>
      <trkpt lat="33.502912977710366" lon="-3.503039991483092">
        <ele>874.20000000000005</ele>
        <time>2003-04-19T10:10:37Z</time>
      </trkpt>
      <trkpt lat="33.503108024597168" lon="-3.502536993473768">
        <ele>875.20000000000005</ele>
        <time>2003-04-19T10:10:43Z</time>
      </trkpt>
      <trkpt lat="33.503192011266947" lon="-3.502323003485799">
        <ele>876</ele>
        <time>2003-04-19T10:10:44Z</time>
      </trkpt>
      <trkpt lat="33.503504991531372" lon="-3.50125003606081">
        <ele>876.5</ele>
        <time>2003-04-19T10:10:53Z</time>
      </trkpt>
      <trkpt lat="33.503540027886629" lon="-3.501096982508898">
        <ele>876.5</ele>
        <time>2003-04-19T10:10:56Z</time>
      </trkpt>
      <trkpt lat="33.50380003452301" lon="-3.500042958185077">
        <ele>880.70000000000005</ele>
        <time>2003-04-19T10:11:08Z</time>
      </trkpt>
      <trkpt lat="33.503828030079603" lon="-3.499880013987422">
        <ele>881</ele>
        <time>2003-04-19T10:11:11Z</time>
      </trkpt>
      <trkpt lat="33.503867005929351" lon="-3.49946997128427">
        <ele>882</ele>
        <time>2003-04-19T10:11:15Z</time>
      </trkpt>
      <trkpt lat="33.503859965130687" lon="-3.499282971024513">
        <ele>882.70000000000005</ele>
        <time>2003-04-19T10:11:19Z</time>
      </trkpt>
      <trkpt lat="33.503868011757731" lon="-3.499156991019845">
        <ele>883.29999999999995</ele>
        <time>2003-04-19T10:11:22Z</time>
      </trkpt>
      <trkpt lat="33.503934983164072" lon="-3.499066969379783">
        <ele>883.60000000000002</ele>
        <time>2003-04-19T10:11:24Z</time>
      </trkpt>
      <trkpt lat="33.503997009247541" lon="-3.498979965224862">
        <ele>883.89999999999998</ele>
        <time>2003-04-19T10:11:27Z</time>
      </trkpt>
      <trkpt lat="33.504121983423829" lon="-3.498832024633884">
        <ele>884.89999999999998</ele>
        <time>2003-04-19T10:11:30Z</time>
      </trkpt>
      <trkpt lat="33.504192978143692" lon="-3.498717024922371">
        <ele>885.89999999999998</ele>
        <time>2003-04-19T10:11:31Z</time>
      </trkpt>
      <trkpt lat="33.504260033369064" lon="-3.498606970533729">
        <ele>886.79999999999995</ele>
        <time>2003-04-19T10:11:34Z</time>
      </trkpt>
      <trkpt lat="33.50431501865387" lon="-3.498509991914034">
        <ele>887.70000000000005</ele>
        <time>2003-04-19T10:11:35Z</time>
      </trkpt>
      <trkpt lat="33.504492966458201" lon="-3.498107995837927">
        <ele>890.10000000000002</ele>
        <time>2003-04-19T10:11:42Z</time>
      </trkpt>
      <trkpt lat="33.504492966458201" lon="-3.497967012226582">
        <ele>890</ele>
        <time>2003-04-19T10:11:45Z</time>
      </trkpt>
      <trkpt lat="33.504428006708622" lon="-3.49746803753078">
        <ele>892.20000000000005</ele>
        <time>2003-04-19T10:11:51Z</time>
      </trkpt>
      <trkpt lat="33.504428006708622" lon="-3.497329987585545">
        <ele>892.79999999999995</ele>
        <time>2003-04-19T10:11:54Z</time>
      </trkpt>
      <trkpt lat="33.504428006708622" lon="-3.497109962627292">
        <ele>892.89999999999998</ele>
        <time>2003-04-19T10:11:57Z</time>
      </trkpt>
      <trkpt lat="33.504442004486918" lon="-3.496503029018641">
        <ele>891.29999999999995</ele>
        <time>2003-04-19T10:12:04Z</time>
      </trkpt>
      <trkpt lat="33.50446698255837" lon="-3.496231958270073">
        <ele>890.70000000000005</ele>
        <time>2003-04-19T10:12:06Z</time>
      </trkpt>
      <trkpt lat="33.504711985588074" lon="-3.495305003598332">
        <ele>889</ele>
        <time>2003-04-19T10:12:17Z</time>
      </trkpt>
      <trkpt lat="33.505033012479544" lon="-3.494672002270818">
        <ele>886.70000000000005</ele>
        <time>2003-04-19T10:12:25Z</time>
      </trkpt>
      <trkpt lat="33.5051129758358" lon="-3.494497993960977">
        <ele>886.29999999999995</ele>
        <time>2003-04-19T10:12:28Z</time>
      </trkpt>
      <trkpt lat="33.505211966112256" lon="-3.494333038106561">
        <ele>885.79999999999995</ele>
        <time>2003-04-19T10:12:29Z</time>
      </trkpt>
      <trkpt lat="33.505397038534284" lon="-3.494051992893219">
        <ele>885.39999999999998</ele>
        <time>2003-04-19T10:12:33Z</time>
      </trkpt>
      <trkpt lat="33.505495022982359" lon="-3.493940010666847">
        <ele>885.10000000000002</ele>
        <time>2003-04-19T10:12:36Z</time>
      </trkpt>
      <trkpt lat="33.505580015480518" lon="-3.493797015398741">
        <ele>884.79999999999995</ele>
        <time>2003-04-19T10:12:37Z</time>
      </trkpt>
      <trkpt lat="33.505601976066828" lon="-3.493632981553674">
        <ele>884.70000000000005</ele>
        <time>2003-04-19T10:12:40Z</time>
      </trkpt>
      <trkpt lat="33.505689986050129" lon="-3.49349501542747">
        <ele>884.5</ele>
        <time>2003-04-19T10:12:41Z</time>
      </trkpt>
      <trkpt lat="33.505868017673492" lon="-3.493269961327314">
        <ele>884.10000000000002</ele>
        <time>2003-04-19T10:12:45Z</time>
      </trkpt>
      <trkpt lat="33.505928032100201" lon="-3.493138030171394">
        <ele>883.60000000000002</ele>
        <time>2003-04-19T10:12:48Z</time>
      </trkpt>
      <trkpt lat="33.505989974364638" lon="-3.493014983832836">
        <ele>883.5</ele>
        <time>2003-04-19T10:12:50Z</time>
      </trkpt>
      <trkpt lat="33.506028028205037" lon="-3.492912976071239">
        <ele>883.60000000000002</ele>
        <time>2003-04-19T10:12:54Z</time>
      </trkpt>
      <trkpt lat="33.506055017933249" lon="-3.49278699606657">
        <ele>883.39999999999998</ele>
        <time>2003-04-19T10:12:58Z</time>
      </trkpt>
      <trkpt lat="33.506155014038086" lon="-3.492602007463574">
        <ele>883.29999999999995</ele>
        <time>2003-04-19T10:13:02Z</time>
      </trkpt>
      <trkpt lat="33.506291974335909" lon="-3.492366978898644">
        <ele>883.70000000000005</ele>
        <time>2003-04-19T10:13:06Z</time>
      </trkpt>
      <trkpt lat="33.506464976817369" lon="-3.492083000019193">
        <ele>883.39999999999998</ele>
        <time>2003-04-19T10:13:10Z</time>
      </trkpt>
      <trkpt lat="33.506649965420365" lon="-3.491874961182475">
        <ele>883.60000000000002</ele>
        <time>2003-04-19T10:13:12Z</time>
      </trkpt>
      <trkpt lat="33.506802013143897" lon="-3.49177798256278">
        <ele>883.60000000000002</ele>
        <time>2003-04-19T10:13:15Z</time>
      </trkpt>
      <trkpt lat="33.506921958178282" lon="-3.491677986457944">
        <ele>883.70000000000005</ele>
        <time>2003-04-19T10:13:17Z</time>
      </trkpt>
      <trkpt lat="33.507152963429689" lon="-3.491498026996851">
        <ele>884.60000000000002</ele>
        <time>2003-04-19T10:13:21Z</time>
      </trkpt>
      <trkpt lat="33.507252037525177" lon="-3.491393001750112">
        <ele>885.29999999999995</ele>
        <time>2003-04-19T10:13:22Z</time>
      </trkpt>
      <trkpt lat="33.507278021425009" lon="-3.491229973733425">
        <ele>886</ele>
        <time>2003-04-19T10:13:25Z</time>
      </trkpt>
      <trkpt lat="33.507293025031686" lon="-3.490884974598885">
        <ele>887.70000000000005</ele>
        <time>2003-04-19T10:13:29Z</time>
      </trkpt>
      <trkpt lat="33.507408024743199" lon="-3.490451965481043">
        <ele>887.20000000000005</ele>
        <time>2003-04-19T10:13:34Z</time>
      </trkpt>
      <trkpt lat="33.507589995861053" lon="-3.489719973877072">
        <ele>886.79999999999995</ele>
        <time>2003-04-19T10:13:42Z</time>
      </trkpt>
      <trkpt lat="33.507692003622651" lon="-3.489361982792616">
        <ele>887</ele>
        <time>2003-04-19T10:13:46Z</time>
      </trkpt>
      <trkpt lat="33.507738020271063" lon="-3.489231979474425">
        <ele>887.5</ele>
        <time>2003-04-19T10:13:48Z</time>
      </trkpt>
      <trkpt lat="33.507789988070726" lon="-3.489131983369589">
        <ele>885.79999999999995</ele>
        <time>2003-04-19T10:13:53Z</time>
      </trkpt>
      <trkpt lat="33.507862994447351" lon="-3.488986976444721">
        <ele>884.29999999999995</ele>
        <time>2003-04-19T10:14:00Z</time>
      </trkpt>
      <trkpt lat="33.507923008874059" lon="-3.488889997825027">
        <ele>883.89999999999998</ele>
        <time>2003-04-19T10:14:05Z</time>
      </trkpt>
      <trkpt lat="33.508013030514121" lon="-3.488744990900159">
        <ele>883</ele>
        <time>2003-04-19T10:14:24Z</time>
      </trkpt>
      <trkpt lat="33.508072961121798" lon="-3.488614987581968">
        <ele>885.20000000000005</ele>
        <time>2003-04-19T10:14:29Z</time>
      </trkpt>
      <trkpt lat="33.508101962506771" lon="-3.488478027284145">
        <ele>885.39999999999998</ele>
        <time>2003-04-19T10:14:32Z</time>
      </trkpt>
      <trkpt lat="33.508215034380555" lon="-3.488036971539259">
        <ele>885.70000000000005</ele>
        <time>2003-04-19T10:14:38Z</time>
      </trkpt>
      <trkpt lat="33.508347971364856" lon="-3.487489968538284">
        <ele>885.70000000000005</ele>
        <time>2003-04-19T10:14:43Z</time>
      </trkpt>
      <trkpt lat="33.508417960256338" lon="-3.487304979935288">
        <ele>885.20000000000005</ele>
        <time>2003-04-19T10:14:46Z</time>
      </trkpt>
      <trkpt lat="33.508524997159839" lon="-3.487138012424111">
        <ele>885.39999999999998</ele>
        <time>2003-04-19T10:14:47Z</time>
      </trkpt>
      <trkpt lat="33.508591968566179" lon="-3.487065006047487">
        <ele>885.39999999999998</ele>
        <time>2003-04-19T10:14:48Z</time>
      </trkpt>
      <trkpt lat="33.508820040151477" lon="-3.486767029389739">
        <ele>885.10000000000002</ele>
        <time>2003-04-19T10:14:52Z</time>
      </trkpt>
      <trkpt lat="33.509041992947459" lon="-3.486486990004778">
        <ele>884.29999999999995</ele>
        <time>2003-04-19T10:14:56Z</time>
      </trkpt>
      <trkpt lat="33.509197980165482" lon="-3.486408032476902">
        <ele>884</ele>
        <time>2003-04-19T10:14:59Z</time>
      </trkpt>
      <trkpt lat="33.50928196683526" lon="-3.486323039978743">
        <ele>883.79999999999995</ele>
        <time>2003-04-19T10:15:00Z</time>
      </trkpt>
      <trkpt lat="33.509323038160801" lon="-3.486194964498282">
        <ele>883.60000000000002</ele>
        <time>2003-04-19T10:15:05Z</time>
      </trkpt>
      <trkpt lat="33.509354973211884" lon="-3.486063033342362">
        <ele>883.5</ele>
        <time>2003-04-19T10:15:07Z</time>
      </trkpt>
      <trkpt lat="33.50936503149569" lon="-3.485858011990786">
        <ele>884</ele>
        <time>2003-04-19T10:15:11Z</time>
      </trkpt>
      <trkpt lat="33.509475002065301" lon="-3.485758015885949">
        <ele>883.29999999999995</ele>
        <time>2003-04-19T10:15:14Z</time>
      </trkpt>
      <trkpt lat="33.509571980684996" lon="-3.485661959275603">
        <ele>884.20000000000005</ele>
        <time>2003-04-19T10:15:17Z</time>
      </trkpt>
      <trkpt lat="33.50988001562655" lon="-3.485231967642903">
        <ele>886</ele>
        <time>2003-04-19T10:15:23Z</time>
      </trkpt>
      <trkpt lat="33.510008007287979" lon="-3.484980007633567">
        <ele>886.10000000000002</ele>
        <time>2003-04-19T10:15:26Z</time>
      </trkpt>
      <trkpt lat="33.510228032246232" lon="-3.484605001285672">
        <ele>886.39999999999998</ele>
        <time>2003-04-19T10:15:30Z</time>
      </trkpt>
      <trkpt lat="33.510862039402127" lon="-3.483739988878369">
        <ele>888.5</ele>
        <time>2003-04-19T10:15:41Z</time>
      </trkpt>
      <trkpt lat="33.511115005239844" lon="-3.483455004170537">
        <ele>889.29999999999995</ele>
        <time>2003-04-19T10:15:45Z</time>
      </trkpt>
      <trkpt lat="33.511424968019128" lon="-3.483021995052695">
        <ele>889.39999999999998</ele>
        <time>2003-04-19T10:15:52Z</time>
      </trkpt>
      <trkpt lat="33.511581961065531" lon="-3.482804987579584">
        <ele>889.5</ele>
        <time>2003-04-19T10:15:54Z</time>
      </trkpt>
      <trkpt lat="33.511653039604425" lon="-3.482614969834685">
        <ele>890.29999999999995</ele>
        <time>2003-04-19T10:15:57Z</time>
      </trkpt>
      <trkpt lat="33.511662008240819" lon="-3.482501981779933">
        <ele>890.39999999999998</ele>
        <time>2003-04-19T10:15:57Z</time>
      </trkpt>
      <trkpt lat="33.511652033776045" lon="-3.482382958754897">
        <ele>890.39999999999998</ele>
        <time>2003-04-19T10:15:59Z</time>
      </trkpt>
      <trkpt lat="33.511616997420788" lon="-3.481982974335551">
        <ele>891</ele>
        <time>2003-04-19T10:16:01Z</time>
      </trkpt>
      <trkpt lat="33.511667037382722" lon="-3.481083009392023">
        <ele>892.10000000000002</ele>
        <time>2003-04-19T10:16:08Z</time>
      </trkpt>
      <trkpt lat="33.511848002672195" lon="-3.48041002638638">
        <ele>893</ele>
        <time>2003-04-19T10:16:12Z</time>
      </trkpt>
      <trkpt lat="33.512204987928271" lon="-3.479569992050529">
        <ele>894</ele>
        <time>2003-04-19T10:16:16Z</time>
      </trkpt>
      <trkpt lat="33.512483015656471" lon="-3.47901301458478">
        <ele>893.5</ele>
        <time>2003-04-19T10:16:21Z</time>
      </trkpt>
      <trkpt lat="33.512591980397701" lon="-3.478817967697978">
        <ele>892.89999999999998</ele>
        <time>2003-04-19T10:16:23Z</time>
      </trkpt>
      <trkpt lat="33.512657023966312" lon="-3.478667009621859">
        <ele>892.70000000000005</ele>
        <time>2003-04-19T10:16:24Z</time>
      </trkpt>
      <trkpt lat="33.512677978724241" lon="-3.478516973555088">
        <ele>892.39999999999998</ele>
        <time>2003-04-19T10:16:27Z</time>
      </trkpt>
      <trkpt lat="33.512740004807711" lon="-3.478186978027225">
        <ele>891.39999999999998</ele>
        <time>2003-04-19T10:16:31Z</time>
      </trkpt>
      <trkpt lat="33.512864978983998" lon="-3.47791800275445">
        <ele>891.79999999999995</ele>
        <time>2003-04-19T10:16:36Z</time>
      </trkpt>
      <trkpt lat="33.512970004230738" lon="-3.477741982787848">
        <ele>892.10000000000002</ele>
        <time>2003-04-19T10:16:39Z</time>
      </trkpt>
      <trkpt lat="33.513011997565627" lon="-3.477627988904715">
        <ele>891.29999999999995</ele>
        <time>2003-04-19T10:16:47Z</time>
      </trkpt>
      <trkpt lat="33.513077041134238" lon="-3.477536961436272">
        <ele>891.20000000000005</ele>
        <time>2003-04-19T10:16:50Z</time>
      </trkpt>
      <trkpt lat="33.513143006712198" lon="-3.477420033887029">
        <ele>891.10000000000002</ele>
        <time>2003-04-19T10:16:53Z</time>
      </trkpt>
      <trkpt lat="33.513227999210358" lon="-3.477296987548471">
        <ele>890.60000000000002</ele>
        <time>2003-04-19T10:16:55Z</time>
      </trkpt>
      <trkpt lat="33.513321960344911" lon="-3.477234961465001">
        <ele>891.89999999999998</ele>
        <time>2003-04-19T10:16:58Z</time>
      </trkpt>
      <trkpt lat="33.513432014733553" lon="-3.477172013372183">
        <ele>891.79999999999995</ele>
        <time>2003-04-19T10:16:59Z</time>
      </trkpt>
      <trkpt lat="33.513492029160261" lon="-3.477028012275696">
        <ele>891.5</ele>
        <time>2003-04-19T10:17:02Z</time>
      </trkpt>
      <trkpt lat="33.513556988909841" lon="-3.476870013400912">
        <ele>892.10000000000002</ele>
        <time>2003-04-19T10:17:03Z</time>
      </trkpt>
      <trkpt lat="33.513752035796642" lon="-3.476446978747845">
        <ele>892.70000000000005</ele>
        <time>2003-04-19T10:17:09Z</time>
      </trkpt>
      <trkpt lat="33.5139200091362" lon="-3.476108014583588">
        <ele>892.5</ele>
        <time>2003-04-19T10:17:11Z</time>
      </trkpt>
      <trkpt lat="33.514444967731833" lon="-3.475090032443404">
        <ele>893.10000000000002</ele>
        <time>2003-04-19T10:17:20Z</time>
      </trkpt>
      <trkpt lat="33.514936985448003" lon="-3.474055035039783">
        <ele>894.60000000000002</ele>
        <time>2003-04-19T10:17:26Z</time>
      </trkpt>
      <trkpt lat="33.515207972377539" lon="-3.473637029528618">
        <ele>895.89999999999998</ele>
        <time>2003-04-19T10:17:29Z</time>
      </trkpt>
      <trkpt lat="33.515541991218925" lon="-3.473284989595413">
        <ele>898</ele>
        <time>2003-04-19T10:17:33Z</time>
      </trkpt>
      <trkpt lat="33.515920015051961" lon="-3.472988018766046">
        <ele>898.70000000000005</ele>
        <time>2003-04-19T10:17:36Z</time>
      </trkpt>
      <trkpt lat="33.516207011416554" lon="-3.472842006012797">
        <ele>899.20000000000005</ele>
        <time>2003-04-19T10:17:37Z</time>
      </trkpt>
      <trkpt lat="33.516827020794153" lon="-3.472646959125996">
        <ele>899.89999999999998</ele>
        <time>2003-04-19T10:17:41Z</time>
      </trkpt>
      <trkpt lat="33.517860006541014" lon="-3.472488038241863">
        <ele>900.79999999999995</ele>
        <time>2003-04-19T10:17:48Z</time>
      </trkpt>
      <trkpt lat="33.518864996731281" lon="-3.472319981083274">
        <ele>901.10000000000002</ele>
        <time>2003-04-19T10:17:53Z</time>
      </trkpt>
      <trkpt lat="33.519764961674809" lon="-3.472168017178774">
        <ele>901.39999999999998</ele>
        <time>2003-04-19T10:18:00Z</time>
      </trkpt>
      <trkpt lat="33.520682025700808" lon="-3.47201001830399">
        <ele>898</ele>
        <time>2003-04-19T10:18:05Z</time>
      </trkpt>
      <trkpt lat="33.521619960665703" lon="-3.471855036914349">
        <ele>902.10000000000002</ele>
        <time>2003-04-19T10:18:12Z</time>
      </trkpt>
      <trkpt lat="33.522048024460673" lon="-3.471742970868945">
        <ele>904.29999999999995</ele>
        <time>2003-04-19T10:18:15Z</time>
      </trkpt>
      <trkpt lat="33.522459995001554" lon="-3.471548007801175">
        <ele>905</ele>
        <time>2003-04-19T10:18:18Z</time>
      </trkpt>
      <trkpt lat="33.522867020219564" lon="-3.471275009214878">
        <ele>905</ele>
        <time>2003-04-19T10:18:20Z</time>
      </trkpt>
      <trkpt lat="33.523119986057281" lon="-3.471032017841935">
        <ele>905.60000000000002</ele>
        <time>2003-04-19T10:18:23Z</time>
      </trkpt>
      <trkpt lat="33.523445036262274" lon="-3.470594985410571">
        <ele>907.39999999999998</ele>
        <time>2003-04-19T10:18:26Z</time>
      </trkpt>
      <trkpt lat="33.524003019556403" lon="-3.469640035182238">
        <ele>910.60000000000002</ele>
        <time>2003-04-19T10:18:31Z</time>
      </trkpt>
      <trkpt lat="33.524567959830165" lon="-3.468603026121855">
        <ele>911.39999999999998</ele>
        <time>2003-04-19T10:18:38Z</time>
      </trkpt>
      <trkpt lat="33.525231974199414" lon="-3.467598035931587">
        <ele>913.5</ele>
        <time>2003-04-19T10:18:43Z</time>
      </trkpt>
      <trkpt lat="33.525787023827434" lon="-3.467057989910245">
        <ele>916</ele>
        <time>2003-04-19T10:18:47Z</time>
      </trkpt>
      <trkpt lat="33.526652036234736" lon="-3.46629498526454">
        <ele>919.39999999999998</ele>
        <time>2003-04-19T10:18:54Z</time>
      </trkpt>
      <trkpt lat="33.527310015633702" lon="-3.465668018907309">
        <ele>919.70000000000005</ele>
        <time>2003-04-19T10:18:58Z</time>
      </trkpt>
      <trkpt lat="33.528049970045686" lon="-3.464786997064948">
        <ele>917.29999999999995</ele>
        <time>2003-04-19T10:19:05Z</time>
      </trkpt>
      <trkpt lat="33.528780033811927" lon="-3.46388996578753">
        <ele>917.39999999999998</ele>
        <time>2003-04-19T10:19:10Z</time>
      </trkpt>
      <trkpt lat="33.529485035687685" lon="-3.463041968643665">
        <ele>920</ele>
        <time>2003-04-19T10:19:17Z</time>
      </trkpt>
      <trkpt lat="33.530170004814863" lon="-3.462209980934858">
        <ele>922.20000000000005</ele>
        <time>2003-04-19T10:19:22Z</time>
      </trkpt>
      <trkpt lat="33.530880035832524" lon="-3.461342034861445">
        <ele>922.29999999999995</ele>
        <time>2003-04-19T10:19:29Z</time>
      </trkpt>
      <trkpt lat="33.531595012173057" lon="-3.46045003272593">
        <ele>922.20000000000005</ele>
        <time>2003-04-19T10:19:35Z</time>
      </trkpt>
      <trkpt lat="33.532322980463505" lon="-3.459573034197092">
        <ele>924</ele>
        <time>2003-04-19T10:19:40Z</time>
      </trkpt>
      <trkpt lat="33.532937038689852" lon="-3.458899967372417">
        <ele>927.60000000000002</ele>
        <time>2003-04-19T10:19:45Z</time>
      </trkpt>
      <trkpt lat="33.533602980896831" lon="-3.458371991291642">
        <ele>929.10000000000002</ele>
        <time>2003-04-19T10:19:51Z</time>
      </trkpt>
      <trkpt lat="33.533913027495146" lon="-3.458241987973452">
        <ele>929</ele>
        <time>2003-04-19T10:19:52Z</time>
      </trkpt>
      <trkpt lat="33.534887004643679" lon="-3.457826999947429">
        <ele>931.39999999999998</ele>
        <time>2003-04-19T10:19:59Z</time>
      </trkpt>
      <trkpt lat="33.535871962085366" lon="-3.457422992214561">
        <ele>935.79999999999995</ele>
        <time>2003-04-19T10:20:04Z</time>
      </trkpt>
      <trkpt lat="33.536536982282996" lon="-3.457219982519746">
        <ele>938.20000000000005</ele>
        <time>2003-04-19T10:20:08Z</time>
      </trkpt>
      <trkpt lat="33.537396965548396" lon="-3.457100037485361">
        <ele>941.70000000000005</ele>
        <time>2003-04-19T10:20:14Z</time>
      </trkpt>
      <trkpt lat="33.537868028506637" lon="-3.457127027213574">
        <ele>943.89999999999998</ele>
        <time>2003-04-19T10:20:16Z</time>
      </trkpt>
      <trkpt lat="33.538332972675562" lon="-3.457032982259989">
        <ele>946</ele>
        <time>2003-04-19T10:20:19Z</time>
      </trkpt>
      <trkpt lat="33.5386280156672" lon="-3.456907002255321">
        <ele>947</ele>
        <time>2003-04-19T10:20:22Z</time>
      </trkpt>
      <trkpt lat="33.539151968434453" lon="-3.456567032262683">
        <ele>949.89999999999998</ele>
        <time>2003-04-19T10:20:26Z</time>
      </trkpt>
      <trkpt lat="33.539912961423397" lon="-3.45580997876823">
        <ele>952.29999999999995</ele>
        <time>2003-04-19T10:20:33Z</time>
      </trkpt>
      <trkpt lat="33.540674960240722" lon="-3.4551000315696">
        <ele>952.79999999999995</ele>
        <time>2003-04-19T10:20:38Z</time>
      </trkpt>
      <trkpt lat="33.541537038981915" lon="-3.454322023317218">
        <ele>949</ele>
        <time>2003-04-19T10:20:45Z</time>
      </trkpt>
      <trkpt lat="33.542283028364182" lon="-3.453628001734614">
        <ele>947.89999999999998</ele>
        <time>2003-04-19T10:20:50Z</time>
      </trkpt>
      <trkpt lat="33.543003033846617" lon="-3.452959964051843">
        <ele>947.60000000000002</ele>
        <time>2003-04-19T10:20:54Z</time>
      </trkpt>
      <trkpt lat="33.543727984651923" lon="-3.4522869810462">
        <ele>949.60000000000002</ele>
        <time>2003-04-19T10:21:00Z</time>
      </trkpt>
      <trkpt lat="33.544327039271593" lon="-3.451805021613836">
        <ele>949.70000000000005</ele>
        <time>2003-04-19T10:21:04Z</time>
      </trkpt>
      <trkpt lat="33.544842023402452" lon="-3.45153302885592">
        <ele>950.70000000000005</ele>
        <time>2003-04-19T10:21:06Z</time>
      </trkpt>
      <trkpt lat="33.545198002830148" lon="-3.451424986124039">
        <ele>952.39999999999998</ele>
        <time>2003-04-19T10:21:09Z</time>
      </trkpt>
      <trkpt lat="33.546229982748628" lon="-3.451140001416206">
        <ele>955.60000000000002</ele>
        <time>2003-04-19T10:21:14Z</time>
      </trkpt>
      <trkpt lat="33.547206977382302" lon="-3.450851999223232">
        <ele>956.89999999999998</ele>
        <time>2003-04-19T10:21:21Z</time>
      </trkpt>
      <trkpt lat="33.548192018643022" lon="-3.450587969273329">
        <ele>958.10000000000002</ele>
        <time>2003-04-19T10:21:27Z</time>
      </trkpt>
      <trkpt lat="33.548782020807266" lon="-3.450370039790869">
        <ele>959.89999999999998</ele>
        <time>2003-04-19T10:21:31Z</time>
      </trkpt>
      <trkpt lat="33.549325000494719" lon="-3.449999978765845">
        <ele>961.60000000000002</ele>
        <time>2003-04-19T10:21:35Z</time>
      </trkpt>
      <trkpt lat="33.549892958253622" lon="-3.449392961338162">
        <ele>961.79999999999995</ele>
        <time>2003-04-19T10:21:40Z</time>
      </trkpt>
      <trkpt lat="33.550469968467951" lon="-3.448472963646054">
        <ele>961.60000000000002</ele>
        <time>2003-04-19T10:21:45Z</time>
      </trkpt>
      <trkpt lat="33.550684964284301" lon="-3.447950016707182">
        <ele>962.29999999999995</ele>
        <time>2003-04-19T10:21:48Z</time>
      </trkpt>
      <trkpt lat="33.550838017836213" lon="-3.447372000664473">
        <ele>962.39999999999998</ele>
        <time>2003-04-19T10:21:52Z</time>
      </trkpt>
      <trkpt lat="33.551072040572762" lon="-3.446108009666205">
        <ele>962.89999999999998</ele>
        <time>2003-04-19T10:21:58Z</time>
      </trkpt>
      <trkpt lat="33.551276978105307" lon="-3.445007968693972">
        <ele>963.70000000000005</ele>
        <time>2003-04-19T10:22:03Z</time>
      </trkpt>
      <trkpt lat="33.551468001678586" lon="-3.443941958248615">
        <ele>965.20000000000005</ele>
        <time>2003-04-19T10:22:07Z</time>
      </trkpt>
      <trkpt lat="33.551664976403117" lon="-3.442696994170547">
        <ele>966.89999999999998</ele>
        <time>2003-04-19T10:22:14Z</time>
      </trkpt>
      <trkpt lat="33.55169196613133" lon="-3.441838016733527">
        <ele>968.10000000000002</ele>
        <time>2003-04-19T10:22:18Z</time>
      </trkpt>
      <trkpt lat="33.551642009988427" lon="-3.441405007615686">
        <ele>968.5</ele>
        <time>2003-04-19T10:22:19Z</time>
      </trkpt>
      <trkpt lat="33.55139197781682" lon="-3.44031703658402">
        <ele>970.10000000000002</ele>
        <time>2003-04-19T10:22:25Z</time>
      </trkpt>
      <trkpt lat="33.551121996715665" lon="-3.4391800314188">
        <ele>972.39999999999998</ele>
        <time>2003-04-19T10:22:30Z</time>
      </trkpt>
      <trkpt lat="33.550855033099651" lon="-3.438013019040227">
        <ele>975</ele>
        <time>2003-04-19T10:22:34Z</time>
      </trkpt>
      <trkpt lat="33.550577005371451" lon="-3.436824968084693">
        <ele>977</ele>
        <time>2003-04-19T10:22:39Z</time>
      </trkpt>
      <trkpt lat="33.55033703148365" lon="-3.435646975412965">
        <ele>978.5</ele>
        <time>2003-04-19T10:22:45Z</time>
      </trkpt>
      <trkpt lat="33.550307024270296" lon="-3.43518303707242">
        <ele>978.39999999999998</ele>
        <time>2003-04-19T10:22:46Z</time>
      </trkpt>
      <trkpt lat="33.550342982634902" lon="-3.434478035196662">
        <ele>978.5</ele>
        <time>2003-04-19T10:22:49Z</time>
      </trkpt>
      <trkpt lat="33.550478015094995" lon="-3.433259977027774">
        <ele>977.60000000000002</ele>
        <time>2003-04-19T10:22:54Z</time>
      </trkpt>
      <trkpt lat="33.550612041726708" lon="-3.432009983807802">
        <ele>978.29999999999995</ele>
        <time>2003-04-19T10:23:00Z</time>
      </trkpt>
      <trkpt lat="33.55074699036777" lon="-3.430762002244592">
        <ele>979.29999999999995</ele>
        <time>2003-04-19T10:23:05Z</time>
      </trkpt>
      <trkpt lat="33.550947988405824" lon="-3.429543022066355">
        <ele>981.29999999999995</ele>
        <time>2003-04-19T10:23:09Z</time>
      </trkpt>
      <trkpt lat="33.55121998116374" lon="-3.428397970274091">
        <ele>982.60000000000002</ele>
        <time>2003-04-19T10:23:15Z</time>
      </trkpt>
      <trkpt lat="33.551522986963391" lon="-3.427273035049439">
        <ele>983.29999999999995</ele>
        <time>2003-04-19T10:23:20Z</time>
      </trkpt>
      <trkpt lat="33.551860023289919" lon="-3.426201995462179">
        <ele>985.89999999999998</ele>
        <time>2003-04-19T10:23:24Z</time>
      </trkpt>
      <trkpt lat="33.552137967199087" lon="-3.425130033865571">
        <ele>989.5</ele>
        <time>2003-04-19T10:23:29Z</time>
      </trkpt>
      <trkpt lat="33.552433010190725" lon="-3.424056982621551">
        <ele>992</ele>
        <time>2003-04-19T10:23:35Z</time>
      </trkpt>
      <trkpt lat="33.552716989070177" lon="-3.423017961904407">
        <ele>996.29999999999995</ele>
        <time>2003-04-19T10:23:40Z</time>
      </trkpt>
      <trkpt lat="33.552884962409735" lon="-3.422386972233653">
        <ele>996.60000000000002</ele>
        <time>2003-04-19T10:23:43Z</time>
      </trkpt>
      <trkpt lat="33.553182017058134" lon="-3.421307969838381">
        <ele>996.5</ele>
        <time>2003-04-19T10:23:47Z</time>
      </trkpt>
      <trkpt lat="33.553522992879152" lon="-3.420201977714896">
        <ele>997.39999999999998</ele>
        <time>2003-04-19T10:23:52Z</time>
      </trkpt>
      <trkpt lat="33.553973017260432" lon="-3.419122975319624">
        <ele>998.89999999999998</ele>
        <time>2003-04-19T10:23:58Z</time>
      </trkpt>
      <trkpt lat="33.554427986964583" lon="-3.418092001229525">
        <ele>1000.1</ele>
        <time>2003-04-19T10:24:03Z</time>
      </trkpt>
      <trkpt lat="33.554857978597283" lon="-3.417090028524399">
        <ele>1000.5</ele>
        <time>2003-04-19T10:24:07Z</time>
      </trkpt>
      <trkpt lat="33.555292999371886" lon="-3.416113033890724">
        <ele>1002</ele>
        <time>2003-04-19T10:24:13Z</time>
      </trkpt>
      <trkpt lat="33.555602040141821" lon="-3.415352962911129">
        <ele>1002.2</ele>
        <time>2003-04-19T10:24:17Z</time>
      </trkpt>
      <trkpt lat="33.555743023753166" lon="-3.414719961583614">
        <ele>1002.6</ele>
        <time>2003-04-19T10:24:19Z</time>
      </trkpt>
      <trkpt lat="33.555804966017604" lon="-3.414123002439737">
        <ele>1002.4</ele>
        <time>2003-04-19T10:24:22Z</time>
      </trkpt>
      <trkpt lat="33.555867997929454" lon="-3.413812033832073">
        <ele>1002.1</ele>
        <time>2003-04-19T10:24:25Z</time>
      </trkpt>
      <trkpt lat="33.555964976549149" lon="-3.413396961987019">
        <ele>1001.8</ele>
        <time>2003-04-19T10:24:27Z</time>
      </trkpt>
      <trkpt lat="33.5559450276196" lon="-3.413282968103886">
        <ele>1001.6</ele>
        <time>2003-04-19T10:24:29Z</time>
      </trkpt>
      <trkpt lat="33.555949972942472" lon="-3.413167968392372">
        <ele>1002</ele>
        <time>2003-04-19T10:24:30Z</time>
      </trkpt>
      <trkpt lat="33.555981991812587" lon="-3.413050035014749">
        <ele>1002.3</ele>
        <time>2003-04-19T10:24:30Z</time>
      </trkpt>
      <trkpt lat="33.556120041757822" lon="-3.412692965939641">
        <ele>1002.7</ele>
        <time>2003-04-19T10:24:34Z</time>
      </trkpt>
      <trkpt lat="33.5562679823488" lon="-3.412447040900588">
        <ele>1002.7</ele>
        <time>2003-04-19T10:24:36Z</time>
      </trkpt>
      <trkpt lat="33.55646001175046" lon="-3.412202959880233">
        <ele>1002.9</ele>
        <time>2003-04-19T10:24:37Z</time>
      </trkpt>
      <trkpt lat="33.556703003123403" lon="-3.411987964063883">
        <ele>1003.2</ele>
        <time>2003-04-19T10:24:40Z</time>
      </trkpt>
      <trkpt lat="33.556986982002854" lon="-3.411817979067564">
        <ele>1003.5</ele>
        <time>2003-04-19T10:24:41Z</time>
      </trkpt>
      <trkpt lat="33.55792298913002" lon="-3.411290002986789">
        <ele>1004.8</ele>
        <time>2003-04-19T10:24:48Z</time>
      </trkpt>
      <trkpt lat="33.55873997323215" lon="-3.410807037726045">
        <ele>1008.3</ele>
        <time>2003-04-19T10:24:53Z</time>
      </trkpt>
      <trkpt lat="33.559495015069842" lon="-3.410227010026574">
        <ele>1010.2</ele>
        <time>2003-04-19T10:24:57Z</time>
      </trkpt>
      <trkpt lat="33.55987798422575" lon="-3.40976701118052">
        <ele>1010.7</ele>
        <time>2003-04-19T10:25:01Z</time>
      </trkpt>
      <trkpt lat="33.560089962556958" lon="-3.409393010661006">
        <ele>1011</ele>
        <time>2003-04-19T10:25:03Z</time>
      </trkpt>
      <trkpt lat="33.560247961431742" lon="-3.40897299349308">
        <ele>1011.6</ele>
        <time>2003-04-19T10:25:04Z</time>
      </trkpt>
      <trkpt lat="33.560397997498512" lon="-3.408302022144198">
        <ele>1013.6</ele>
        <time>2003-04-19T10:25:08Z</time>
      </trkpt>
      <trkpt lat="33.560433033853769" lon="-3.407836994156241">
        <ele>1014.8</ele>
        <time>2003-04-19T10:25:09Z</time>
      </trkpt>
      <trkpt lat="33.560394980013371" lon="-3.406654978170991">
        <ele>1018.1</ele>
        <time>2003-04-19T10:25:15Z</time>
      </trkpt>
      <trkpt lat="33.560364972800016" lon="-3.405447984114289">
        <ele>1021.2</ele>
        <time>2003-04-19T10:25:20Z</time>
      </trkpt>
      <trkpt lat="33.560334965586662" lon="-3.404248030856252">
        <ele>1024.2</ele>
        <time>2003-04-19T10:25:24Z</time>
      </trkpt>
      <trkpt lat="33.560276962816715" lon="-3.403123011812568">
        <ele>1024.5</ele>
        <time>2003-04-19T10:25:30Z</time>
      </trkpt>
      <trkpt lat="33.560232035815716" lon="-3.402026994153857">
        <ele>1024.8</ele>
        <time>2003-04-19T10:25:35Z</time>
      </trkpt>
      <trkpt lat="33.560177972540259" lon="-3.400927037000656">
        <ele>1024.3</ele>
        <time>2003-04-19T10:25:39Z</time>
      </trkpt>
      <trkpt lat="33.560137990862131" lon="-3.399758012965322">
        <ele>1022.2</ele>
        <time>2003-04-19T10:25:44Z</time>
      </trkpt>
      <trkpt lat="33.560103038325906" lon="-3.398546995595098">
        <ele>1020.8</ele>
        <time>2003-04-19T10:25:50Z</time>
      </trkpt>
      <trkpt lat="33.560052998363972" lon="-3.397362967953086">
        <ele>1019</ele>
        <time>2003-04-19T10:25:55Z</time>
      </trkpt>
      <trkpt lat="33.560119969770312" lon="-3.396201990544796">
        <ele>1017.7</ele>
        <time>2003-04-19T10:25:59Z</time>
      </trkpt>
      <trkpt lat="33.560233041644096" lon="-3.395750038325787">
        <ele>1019.2</ele>
        <time>2003-04-19T10:26:02Z</time>
      </trkpt>
      <trkpt lat="33.560492964461446" lon="-3.395107984542847">
        <ele>1021.2</ele>
        <time>2003-04-19T10:26:05Z</time>
      </trkpt>
      <trkpt lat="33.56099696829915" lon="-3.394059995189309">
        <ele>1023.1</ele>
        <time>2003-04-19T10:26:10Z</time>
      </trkpt>
      <trkpt lat="33.561504995450377" lon="-3.392991973087192">
        <ele>1024.8</ele>
        <time>2003-04-19T10:26:14Z</time>
      </trkpt>
      <trkpt lat="33.56198301538825" lon="-3.391954964026809">
        <ele>1027.3</ele>
        <time>2003-04-19T10:26:20Z</time>
      </trkpt>
      <trkpt lat="33.5621980112046" lon="-3.391284998506308">
        <ele>1028.2</ele>
        <time>2003-04-19T10:26:22Z</time>
      </trkpt>
      <trkpt lat="33.562404960393906" lon="-3.39010700583458">
        <ele>1029.9000000000001</ele>
        <time>2003-04-19T10:26:28Z</time>
      </trkpt>
      <trkpt lat="33.562581986188889" lon="-3.388909986242652">
        <ele>1033</ele>
        <time>2003-04-19T10:26:33Z</time>
      </trkpt>
      <trkpt lat="33.562724981456995" lon="-3.387699974700809">
        <ele>1033.9000000000001</ele>
        <time>2003-04-19T10:26:37Z</time>
      </trkpt>
      <trkpt lat="33.562706960365176" lon="-3.386949962005019">
        <ele>1033.5999999999999</ele>
        <time>2003-04-19T10:26:41Z</time>
      </trkpt>
      <trkpt lat="33.562558013945818" lon="-3.385712960734963">
        <ele>1036.8</ele>
        <time>2003-04-19T10:26:45Z</time>
      </trkpt>
      <trkpt lat="33.56243496760726" lon="-3.384537985548377">
        <ele>1039.7</ele>
        <time>2003-04-19T10:26:51Z</time>
      </trkpt>
      <trkpt lat="33.562322985380888" lon="-3.383325040340424">
        <ele>1042</ele>
        <time>2003-04-19T10:26:56Z</time>
      </trkpt>
      <trkpt lat="33.562312005087733" lon="-3.382590031251311">
        <ele>1043.0999999999999</ele>
        <time>2003-04-19T10:26:59Z</time>
      </trkpt>
      <trkpt lat="33.562373025342822" lon="-3.382107987999916">
        <ele>1044.2</ele>
        <time>2003-04-19T10:27:00Z</time>
      </trkpt>
      <trkpt lat="33.562654992565513" lon="-3.380935024470091">
        <ele>1047.2</ele>
        <time>2003-04-19T10:27:05Z</time>
      </trkpt>
      <trkpt lat="33.562941988930106" lon="-3.379743034020066">
        <ele>1047</ele>
        <time>2003-04-19T10:27:11Z</time>
      </trkpt>
      <trkpt lat="33.56322999112308" lon="-3.378551965579391">
        <ele>1046.8</ele>
        <time>2003-04-19T10:27:16Z</time>
      </trkpt>
      <trkpt lat="33.563501983880997" lon="-3.377371961250901">
        <ele>1047.7</ele>
        <time>2003-04-19T10:27:20Z</time>
      </trkpt>
      <trkpt lat="33.563786968588829" lon="-3.376307040452957">
        <ele>1048.5</ele>
        <time>2003-04-19T10:27:26Z</time>
      </trkpt>
      <trkpt lat="33.563925018534064" lon="-3.375727012753487">
        <ele>1049.0999999999999</ele>
        <time>2003-04-19T10:27:28Z</time>
      </trkpt>
      <trkpt lat="33.564177984371781" lon="-3.374518007040024">
        <ele>1052.7</ele>
        <time>2003-04-19T10:27:35Z</time>
      </trkpt>
      <trkpt lat="33.56447302736342" lon="-3.373502036556602">
        <ele>1054.4000000000001</ele>
        <time>2003-04-19T10:27:39Z</time>
      </trkpt>
      <trkpt lat="33.564897989854217" lon="-3.372463015839458">
        <ele>1055.3</ele>
        <time>2003-04-19T10:27:45Z</time>
      </trkpt>
      <trkpt lat="33.565363017842174" lon="-3.371432041749358">
        <ele>1058.5</ele>
        <time>2003-04-19T10:27:50Z</time>
      </trkpt>
      <trkpt lat="33.565816981717944" lon="-3.370396960526705">
        <ele>1060.4000000000001</ele>
        <time>2003-04-19T10:27:54Z</time>
      </trkpt>
      <trkpt lat="33.566277986392379" lon="-3.369324998930097">
        <ele>1061.5</ele>
        <time>2003-04-19T10:27:59Z</time>
      </trkpt>
      <trkpt lat="33.566747959703207" lon="-3.368244990706444">
        <ele>1064.3</ele>
        <time>2003-04-19T10:28:06Z</time>
      </trkpt>
      <trkpt lat="33.567158002406359" lon="-3.36729004047811">
        <ele>1066.5</ele>
        <time>2003-04-19T10:28:10Z</time>
      </trkpt>
      <trkpt lat="33.567278031259775" lon="-3.367015030235052">
        <ele>1066.5999999999999</ele>
        <time>2003-04-19T10:28:13Z</time>
      </trkpt>
      <trkpt lat="33.567508030682802" lon="-3.366649998351932">
        <ele>1067.8</ele>
        <time>2003-04-19T10:28:16Z</time>
      </trkpt>
      <trkpt lat="33.567712968215346" lon="-3.36641002446413">
        <ele>1068.5</ele>
        <time>2003-04-19T10:28:17Z</time>
      </trkpt>
      <trkpt lat="33.567961994558573" lon="-3.366207014769316">
        <ele>1069.3</ele>
        <time>2003-04-19T10:28:20Z</time>
      </trkpt>
      <trkpt lat="33.568240022286773" lon="-3.366038035601378">
        <ele>1070.3</ele>
        <time>2003-04-19T10:28:21Z</time>
      </trkpt>
      <trkpt lat="33.568395003676414" lon="-3.365992018952966">
        <ele>1070.4000000000001</ele>
        <time>2003-04-19T10:28:22Z</time>
      </trkpt>
      <trkpt lat="33.568721981719136" lon="-3.365941978991032">
        <ele>1070.5999999999999</ele>
        <time>2003-04-19T10:28:25Z</time>
      </trkpt>
      <trkpt lat="33.569182986393571" lon="-3.365848017856479">
        <ele>1072.3</ele>
        <time>2003-04-19T10:28:28Z</time>
      </trkpt>
      <trkpt lat="33.569430001080036" lon="-3.365711979568005">
        <ele>1072.8</ele>
        <time>2003-04-19T10:28:29Z</time>
      </trkpt>
      <trkpt lat="33.569542989134789" lon="-3.365602008998394">
        <ele>1072.7</ele>
        <time>2003-04-19T10:28:30Z</time>
      </trkpt>
      <trkpt lat="33.57004196383059" lon="-3.365196995437145">
        <ele>1074.0999999999999</ele>
        <time>2003-04-19T10:28:35Z</time>
      </trkpt>
      <trkpt lat="33.570337006822228" lon="-3.365061962977052">
        <ele>1074.8</ele>
        <time>2003-04-19T10:28:37Z</time>
      </trkpt>
      <trkpt lat="33.57066297903657" lon="-3.365004966035485">
        <ele>1075.5999999999999</ele>
        <time>2003-04-19T10:28:39Z</time>
      </trkpt>
      <trkpt lat="33.570832964032888" lon="-3.365012006834149">
        <ele>1076.3</ele>
        <time>2003-04-19T10:28:40Z</time>
      </trkpt>
      <trkpt lat="33.571162959560752" lon="-3.364983005449176">
        <ele>1077</ele>
        <time>2003-04-19T10:28:41Z</time>
      </trkpt>
      <trkpt lat="33.571463031694293" lon="-3.364981999620795">
        <ele>1077.5</ele>
        <time>2003-04-19T10:28:44Z</time>
      </trkpt>
      <trkpt lat="33.571707028895617" lon="-3.36494998075068">
        <ele>1077.5999999999999</ele>
        <time>2003-04-19T10:28:45Z</time>
      </trkpt>
      <trkpt lat="33.571956977248192" lon="-3.364928020164371">
        <ele>1078.9000000000001</ele>
        <time>2003-04-19T10:28:48Z</time>
      </trkpt>
      <trkpt lat="33.572232993319631" lon="-3.364909999072552">
        <ele>1079.4000000000001</ele>
        <time>2003-04-19T10:28:49Z</time>
      </trkpt>
      <trkpt lat="33.572514960542321" lon="-3.364902958273888">
        <ele>1080.5</ele>
        <time>2003-04-19T10:28:52Z</time>
      </trkpt>
      <trkpt lat="33.572816960513592" lon="-3.36490698158741">
        <ele>1081.4000000000001</ele>
        <time>2003-04-19T10:28:53Z</time>
      </trkpt>
      <trkpt lat="33.573128012940288" lon="-3.364904969930649">
        <ele>1082.5999999999999</ele>
        <time>2003-04-19T10:28:56Z</time>
      </trkpt>
      <trkpt lat="33.573285005986691" lon="-3.364898012951016">
        <ele>1083.2</ele>
        <time>2003-04-19T10:28:56Z</time>
      </trkpt>
      <trkpt lat="33.573445016518235" lon="-3.364902036264539">
        <ele>1083.5</ele>
        <time>2003-04-19T10:28:57Z</time>
      </trkpt>
      <trkpt lat="33.5742930136621" lon="-3.364930031821132">
        <ele>1085.7</ele>
        <time>2003-04-19T10:29:03Z</time>
      </trkpt>
      <trkpt lat="33.575206976383924" lon="-3.364870017394424">
        <ele>1088.3</ele>
        <time>2003-04-19T10:29:07Z</time>
      </trkpt>
      <trkpt lat="33.575777029618621" lon="-3.364904969930649">
        <ele>1088.8</ele>
        <time>2003-04-19T10:29:11Z</time>
      </trkpt>
      <trkpt lat="33.576740026473999" lon="-3.364861970767379">
        <ele>1090.9000000000001</ele>
        <time>2003-04-19T10:29:15Z</time>
      </trkpt>
      <trkpt lat="33.577255010604858" lon="-3.364870017394424">
        <ele>1093.3</ele>
        <time>2003-04-19T10:29:19Z</time>
      </trkpt>
      <trkpt lat="33.577936962246895" lon="-3.364740014076233">
        <ele>1094.9000000000001</ele>
        <time>2003-04-19T10:29:23Z</time>
      </trkpt>
      <trkpt lat="33.578940024599433" lon="-3.364419993013144">
        <ele>1097.4000000000001</ele>
        <time>2003-04-19T10:29:29Z</time>
      </trkpt>
      <trkpt lat="33.579072961583734" lon="-3.364359978586435">
        <ele>1097.5</ele>
        <time>2003-04-19T10:29:30Z</time>
      </trkpt>
      <trkpt lat="33.580026989802718" lon="-3.363953037187457">
        <ele>1100.0999999999999</ele>
        <time>2003-04-19T10:29:37Z</time>
      </trkpt>
      <trkpt lat="33.5802679695189" lon="-3.363733012229204">
        <ele>1101.8</ele>
        <time>2003-04-19T10:29:38Z</time>
      </trkpt>
      <trkpt lat="33.580469973385334" lon="-3.363454984501004">
        <ele>1103.5</ele>
        <time>2003-04-19T10:29:41Z</time>
      </trkpt>
      <trkpt lat="33.58063300140202" lon="-3.363145021721721">
        <ele>1105</ele>
        <time>2003-04-19T10:29:42Z</time>
      </trkpt>
      <trkpt lat="33.580735009163618" lon="-3.362785018980503">
        <ele>1106</ele>
        <time>2003-04-19T10:29:45Z</time>
      </trkpt>
      <trkpt lat="33.580829976126552" lon="-3.362247990444303">
        <ele>1107.8</ele>
        <time>2003-04-19T10:29:47Z</time>
      </trkpt>
      <trkpt lat="33.580807009711862" lon="-3.361882958561182">
        <ele>1108.7</ele>
        <time>2003-04-19T10:29:50Z</time>
      </trkpt>
      <trkpt lat="33.580767028033733" lon="-3.361696964129806">
        <ele>1109.2</ele>
        <time>2003-04-19T10:29:50Z</time>
      </trkpt>
      <trkpt lat="33.580538034439087" lon="-3.36097301915288">
        <ele>1113</ele>
        <time>2003-04-19T10:29:54Z</time>
      </trkpt>
      <trkpt lat="33.580335024744272" lon="-3.360664984211326">
        <ele>1114.9000000000001</ele>
        <time>2003-04-19T10:29:57Z</time>
      </trkpt>
      <trkpt lat="33.579706968739629" lon="-3.359938021749258">
        <ele>1116.9000000000001</ele>
        <time>2003-04-19T10:30:01Z</time>
      </trkpt>
      <trkpt lat="33.578974977135658" lon="-3.359171999618411">
        <ele>1116.2</ele>
        <time>2003-04-19T10:30:06Z</time>
      </trkpt>
      <trkpt lat="33.578217001631856" lon="-3.358422992751002">
        <ele>1117.8</ele>
        <time>2003-04-19T10:30:12Z</time>
      </trkpt>
      <trkpt lat="33.577877031639218" lon="-3.357937010005117">
        <ele>1118.2</ele>
        <time>2003-04-19T10:30:14Z</time>
      </trkpt>
      <trkpt lat="33.57738702557981" lon="-3.356927996501327">
        <ele>1114.3</ele>
        <time>2003-04-19T10:30:20Z</time>
      </trkpt>
      <trkpt lat="33.576992992311716" lon="-3.355865003541112">
        <ele>1111</ele>
        <time>2003-04-19T10:30:25Z</time>
      </trkpt>
      <trkpt lat="33.576542967930436" lon="-3.354715006425977">
        <ele>1106.4000000000001</ele>
        <time>2003-04-19T10:30:31Z</time>
      </trkpt>
      <trkpt lat="33.576159998774529" lon="-3.353685038164258">
        <ele>1106.0999999999999</ele>
        <time>2003-04-19T10:30:36Z</time>
      </trkpt>
      <trkpt lat="33.575908038765192" lon="-3.352833017706871">
        <ele>1105.7</ele>
        <time>2003-04-19T10:30:40Z</time>
      </trkpt>
      <trkpt lat="33.575778035447001" lon="-3.351957025006414">
        <ele>1105.2</ele>
        <time>2003-04-19T10:30:44Z</time>
      </trkpt>
      <trkpt lat="33.575687007978559" lon="-3.350848015397787">
        <ele>1104.9000000000001</ele>
        <time>2003-04-19T10:30:48Z</time>
      </trkpt>
      <trkpt lat="33.575573014095426" lon="-3.349719978868961">
        <ele>1104.8</ele>
        <time>2003-04-19T10:30:54Z</time>
      </trkpt>
      <trkpt lat="33.575528003275394" lon="-3.348816996440291">
        <ele>1104.2</ele>
        <time>2003-04-19T10:30:58Z</time>
      </trkpt>
      <trkpt lat="33.575585000216961" lon="-3.348363032564521">
        <ele>1105.2</ele>
        <time>2003-04-19T10:30:59Z</time>
      </trkpt>
      <trkpt lat="33.575760014355183" lon="-3.347706981003285">
        <ele>1106.5999999999999</ele>
        <time>2003-04-19T10:31:03Z</time>
      </trkpt>
      <trkpt lat="33.57594802044332" lon="-3.347308002412319">
        <ele>1108.5</ele>
        <time>2003-04-19T10:31:04Z</time>
      </trkpt>
      <trkpt lat="33.576508015394211" lon="-3.346367971971631">
        <ele>1109.2</ele>
        <time>2003-04-19T10:31:10Z</time>
      </trkpt>
      <trkpt lat="33.577061975374818" lon="-3.345379997044802">
        <ele>1109.4000000000001</ele>
        <time>2003-04-19T10:31:15Z</time>
      </trkpt>
      <trkpt lat="33.577313013374805" lon="-3.344717994332314">
        <ele>1110.8</ele>
        <time>2003-04-19T10:31:18Z</time>
      </trkpt>
      <trkpt lat="33.577576959505677" lon="-3.34354997612536">
        <ele>1112.7</ele>
        <time>2003-04-19T10:31:22Z</time>
      </trkpt>
      <trkpt lat="33.577821962535381" lon="-3.342380030080676">
        <ele>1113.3</ele>
        <time>2003-04-19T10:31:27Z</time>
      </trkpt>
      <trkpt lat="33.578066965565085" lon="-3.34125199355185">
        <ele>1116.8</ele>
        <time>2003-04-19T10:31:33Z</time>
      </trkpt>
      <trkpt lat="33.578322026878595" lon="-3.340132003650069">
        <ele>1116.5</ele>
        <time>2003-04-19T10:31:38Z</time>
      </trkpt>
      <trkpt lat="33.578578010201454" lon="-3.338962979614735">
        <ele>1116.5</ele>
        <time>2003-04-19T10:31:42Z</time>
      </trkpt>
      <trkpt lat="33.578827036544681" lon="-3.33787702023983">
        <ele>1116.7</ele>
        <time>2003-04-19T10:31:48Z</time>
      </trkpt>
      <trkpt lat="33.579061981290579" lon="-3.336772033944726">
        <ele>1116.2</ele>
        <time>2003-04-19T10:31:53Z</time>
      </trkpt>
      <trkpt lat="33.579313019290566" lon="-3.335654977709055">
        <ele>1117.4000000000001</ele>
        <time>2003-04-19T10:31:57Z</time>
      </trkpt>
      <trkpt lat="33.57955701649189" lon="-3.334559965878725">
        <ele>1118.9000000000001</ele>
        <time>2003-04-19T10:32:02Z</time>
      </trkpt>
      <trkpt lat="33.579787015914917" lon="-3.333494961261749">
        <ele>1121.4000000000001</ele>
        <time>2003-04-19T10:32:08Z</time>
      </trkpt>
      <trkpt lat="33.58003000728786" lon="-3.332446971908212">
        <ele>1123.0999999999999</ele>
        <time>2003-04-19T10:32:13Z</time>
      </trkpt>
      <trkpt lat="33.580260006710887" lon="-3.331394959241152">
        <ele>1128.7</ele>
        <time>2003-04-19T10:32:17Z</time>
      </trkpt>
      <trkpt lat="33.580539962276816" lon="-3.33014203235507">
        <ele>1130.9000000000001</ele>
        <time>2003-04-19T10:32:24Z</time>
      </trkpt>
      <trkpt lat="33.580687986686826" lon="-3.329233014956117">
        <ele>1131.3</ele>
        <time>2003-04-19T10:32:28Z</time>
      </trkpt>
      <trkpt lat="33.580793011933565" lon="-3.328055022284389">
        <ele>1133</ele>
        <time>2003-04-19T10:32:32Z</time>
      </trkpt>
      <trkpt lat="33.580771973356605" lon="-3.327625030651689">
        <ele>1134.0999999999999</ele>
        <time>2003-04-19T10:32:35Z</time>
      </trkpt>
      <trkpt lat="33.580727968364954" lon="-3.32636296749115">
        <ele>1136.7</ele>
        <time>2003-04-19T10:32:40Z</time>
      </trkpt>
      <trkpt lat="33.580669965595007" lon="-3.325187992304564">
        <ele>1135.5999999999999</ele>
        <time>2003-04-19T10:32:47Z</time>
      </trkpt>
      <trkpt lat="33.580765016376972" lon="-3.323921989649534">
        <ele>1134.5</ele>
        <time>2003-04-19T10:32:52Z</time>
      </trkpt>
      <trkpt lat="33.580931983888149" lon="-3.322837958112359">
        <ele>1135.9000000000001</ele>
        <time>2003-04-19T10:32:58Z</time>
      </trkpt>
      <trkpt lat="33.581110015511513" lon="-3.321734983474016">
        <ele>1136.2</ele>
        <time>2003-04-19T10:33:03Z</time>
      </trkpt>
      <trkpt lat="33.58129701577127" lon="-3.320597978308797">
        <ele>1137.8</ele>
        <time>2003-04-19T10:33:07Z</time>
      </trkpt>
      <trkpt lat="33.581487033516169" lon="-3.319438006728888">
        <ele>1139</ele>
        <time>2003-04-19T10:33:13Z</time>
      </trkpt>
      <trkpt lat="33.581677973270416" lon="-3.318262025713921">
        <ele>1141.5</ele>
        <time>2003-04-19T10:33:18Z</time>
      </trkpt>
      <trkpt lat="33.58179003931582" lon="-3.317068023607135">
        <ele>1143.3</ele>
        <time>2003-04-19T10:33:22Z</time>
      </trkpt>
      <trkpt lat="33.581739999353886" lon="-3.316587992012501">
        <ele>1144.0999999999999</ele>
        <time>2003-04-19T10:33:25Z</time>
      </trkpt>
      <trkpt lat="33.581622987985611" lon="-3.316118018701673">
        <ele>1144</ele>
        <time>2003-04-19T10:33:26Z</time>
      </trkpt>
      <trkpt lat="33.581358036026359" lon="-3.315449981018901">
        <ele>1145.4000000000001</ele>
        <time>2003-04-19T10:33:30Z</time>
      </trkpt>
      <trkpt lat="33.580844979733229" lon="-3.31439696252346">
        <ele>1149.3</ele>
        <time>2003-04-19T10:33:34Z</time>
      </trkpt>
      <trkpt lat="33.580337036401033" lon="-3.313357019796968">
        <ele>1151.5999999999999</ele>
        <time>2003-04-19T10:33:40Z</time>
      </trkpt>
      <trkpt lat="33.579824985936284" lon="-3.31235496327281">
        <ele>1155.0999999999999</ele>
        <time>2003-04-19T10:33:45Z</time>
      </trkpt>
      <trkpt lat="33.579572020098567" lon="-3.312018010765314">
        <ele>1157.0999999999999</ele>
        <time>2003-04-19T10:33:46Z</time>
      </trkpt>
      <trkpt lat="33.578987969085574" lon="-3.311449969187379">
        <ele>1160.2</ele>
        <time>2003-04-19T10:33:50Z</time>
      </trkpt>
      <trkpt lat="33.578214989975095" lon="-3.310742033645511">
        <ele>1161.4000000000001</ele>
        <time>2003-04-19T10:33:56Z</time>
      </trkpt>
      <trkpt lat="33.577447962015867" lon="-3.309929994866252">
        <ele>1163</ele>
        <time>2003-04-19T10:34:01Z</time>
      </trkpt>
      <trkpt lat="33.57676500454545" lon="-3.309003040194511">
        <ele>1165.7</ele>
        <time>2003-04-19T10:34:05Z</time>
      </trkpt>
      <trkpt lat="33.576041981577873" lon="-3.308069966733456">
        <ele>1167</ele>
        <time>2003-04-19T10:34:11Z</time>
      </trkpt>
      <trkpt lat="33.575372016057372" lon="-3.307081991806626">
        <ele>1169.3</ele>
        <time>2003-04-19T10:34:16Z</time>
      </trkpt>
      <trkpt lat="33.574953004717827" lon="-3.306225026026368">
        <ele>1172.0999999999999</ele>
        <time>2003-04-19T10:34:20Z</time>
      </trkpt>
      <trkpt lat="33.574731973931193" lon="-3.305654972791672">
        <ele>1173.4000000000001</ele>
        <time>2003-04-19T10:34:23Z</time>
      </trkpt>
      <trkpt lat="33.574268035590649" lon="-3.304479997605085">
        <ele>1170.2</ele>
        <time>2003-04-19T10:34:28Z</time>
      </trkpt>
      <trkpt lat="33.5738630220294" lon="-3.303505014628172">
        <ele>1168</ele>
        <time>2003-04-19T10:34:34Z</time>
      </trkpt>
      <trkpt lat="33.573464965447783" lon="-3.302517961710692">
        <ele>1164.8</ele>
        <time>2003-04-19T10:34:39Z</time>
      </trkpt>
      <trkpt lat="33.57309197075665" lon="-3.301511965692043">
        <ele>1162.9000000000001</ele>
        <time>2003-04-19T10:34:43Z</time>
      </trkpt>
      <trkpt lat="33.572647981345654" lon="-3.300452996045351">
        <ele>1162.4000000000001</ele>
        <time>2003-04-19T10:34:48Z</time>
      </trkpt>
      <trkpt lat="33.572214972227812" lon="-3.299348009750247">
        <ele>1163</ele>
        <time>2003-04-19T10:34:54Z</time>
      </trkpt>
      <trkpt lat="33.571757990866899" lon="-3.298281999304891">
        <ele>1162.9000000000001</ele>
        <time>2003-04-19T10:34:58Z</time>
      </trkpt>
      <trkpt lat="33.571324981749058" lon="-3.297229986637831">
        <ele>1164</ele>
        <time>2003-04-19T10:35:03Z</time>
      </trkpt>
      <trkpt lat="33.570902030915022" lon="-3.296189960092306">
        <ele>1165.8</ele>
        <time>2003-04-19T10:35:09Z</time>
      </trkpt>
      <trkpt lat="33.570528030395508" lon="-3.295168038457632">
        <ele>1165.4000000000001</ele>
        <time>2003-04-19T10:35:14Z</time>
      </trkpt>
      <trkpt lat="33.570365002378821" lon="-3.294547023251653">
        <ele>1165.2</ele>
        <time>2003-04-19T10:35:17Z</time>
      </trkpt>
      <trkpt lat="33.570298030972481" lon="-3.293945034965873">
        <ele>1165.0999999999999</ele>
        <time>2003-04-19T10:35:20Z</time>
      </trkpt>
      <trkpt lat="33.570308005437255" lon="-3.293546978384256">
        <ele>1165.5</ele>
        <time>2003-04-19T10:35:22Z</time>
      </trkpt>
      <trkpt lat="33.570385035127401" lon="-3.293144982308149">
        <ele>1166.0999999999999</ele>
        <time>2003-04-19T10:35:24Z</time>
      </trkpt>
      <trkpt lat="33.570615034550428" lon="-3.292347025126219">
        <ele>1167.7</ele>
        <time>2003-04-19T10:35:28Z</time>
      </trkpt>
      <trkpt lat="33.571009989827871" lon="-3.291346980258822">
        <ele>1169.3</ele>
        <time>2003-04-19T10:35:33Z</time>
      </trkpt>
      <trkpt lat="33.571422966197133" lon="-3.290303014218807">
        <ele>1171.2</ele>
        <time>2003-04-19T10:35:37Z</time>
      </trkpt>
      <trkpt lat="33.571832003071904" lon="-3.289222000166774">
        <ele>1173.5</ele>
        <time>2003-04-19T10:35:42Z</time>
      </trkpt>
      <trkpt lat="33.571905009448528" lon="-3.288771975785494">
        <ele>1174</ele>
        <time>2003-04-19T10:35:45Z</time>
      </trkpt>
      <trkpt lat="33.571896962821484" lon="-3.288318011909723">
        <ele>1174.5999999999999</ele>
        <time>2003-04-19T10:35:47Z</time>
      </trkpt>
      <trkpt lat="33.571805013343692" lon="-3.287866981700063">
        <ele>1174.5999999999999</ele>
        <time>2003-04-19T10:35:49Z</time>
      </trkpt>
      <trkpt lat="33.571551963686943" lon="-3.286732994019985">
        <ele>1175.7</ele>
        <time>2003-04-19T10:35:53Z</time>
      </trkpt>
      <trkpt lat="33.571517011150718" lon="-3.286271989345551">
        <ele>1176.5</ele>
        <time>2003-04-19T10:35:56Z</time>
      </trkpt>
      <trkpt lat="33.571556992828846" lon="-3.285134984180331">
        <ele>1179</ele>
        <time>2003-04-19T10:36:00Z</time>
      </trkpt>
      <trkpt lat="33.571617007255554" lon="-3.284368040040135">
        <ele>1180.0999999999999</ele>
        <time>2003-04-19T10:36:04Z</time>
      </trkpt>
      <trkpt lat="33.571627987548709" lon="-3.284062016755343">
        <ele>1180.7</ele>
        <time>2003-04-19T10:36:07Z</time>
      </trkpt>
      <trkpt lat="33.571656988933682" lon="-3.283837968483567">
        <ele>1180.4000000000001</ele>
        <time>2003-04-19T10:36:08Z</time>
      </trkpt>
      <trkpt lat="33.57165296562016" lon="-3.283721962943673">
        <ele>1181</ele>
        <time>2003-04-19T10:36:09Z</time>
      </trkpt>
      <trkpt lat="33.571667969226837" lon="-3.283351985737681">
        <ele>1181.3</ele>
        <time>2003-04-19T10:36:12Z</time>
      </trkpt>
      <trkpt lat="33.571763020008802" lon="-3.282912019640207">
        <ele>1182.4000000000001</ele>
        <time>2003-04-19T10:36:16Z</time>
      </trkpt>
      <trkpt lat="33.571869973093271" lon="-3.282602978870273">
        <ele>1183</ele>
        <time>2003-04-19T10:36:18Z</time>
      </trkpt>
      <trkpt lat="33.572122016921639" lon="-3.282150020822883">
        <ele>1184.0999999999999</ele>
        <time>2003-04-19T10:36:20Z</time>
      </trkpt>
      <trkpt lat="33.572346987202764" lon="-3.281875010579824">
        <ele>1185.2</ele>
        <time>2003-04-19T10:36:23Z</time>
      </trkpt>
      <trkpt lat="33.572616968303919" lon="-3.281663032248616">
        <ele>1185.7</ele>
        <time>2003-04-19T10:36:24Z</time>
      </trkpt>
      <trkpt lat="33.573249969631433" lon="-3.281219964846969">
        <ele>1188.2</ele>
        <time>2003-04-19T10:36:30Z</time>
      </trkpt>
      <trkpt lat="33.573478041216731" lon="-3.280958030372858">
        <ele>1189</ele>
        <time>2003-04-19T10:36:31Z</time>
      </trkpt>
      <trkpt lat="33.573665041476488" lon="-3.280664999037981">
        <ele>1189.7</ele>
        <time>2003-04-19T10:36:34Z</time>
      </trkpt>
      <trkpt lat="33.573818011209369" lon="-3.280319999903441">
        <ele>1189.4000000000001</ele>
        <time>2003-04-19T10:36:35Z</time>
      </trkpt>
      <trkpt lat="33.573918007314205" lon="-3.279922027140856">
        <ele>1189.2</ele>
        <time>2003-04-19T10:36:38Z</time>
      </trkpt>
      <trkpt lat="33.573937034234405" lon="-3.279490023851395">
        <ele>1189.7</ele>
        <time>2003-04-19T10:36:39Z</time>
      </trkpt>
      <trkpt lat="33.57384298928082" lon="-3.278393000364304">
        <ele>1192</ele>
        <time>2003-04-19T10:36:45Z</time>
      </trkpt>
      <trkpt lat="33.573730001226068" lon="-3.2779770065099">
        <ele>1192.9000000000001</ele>
        <time>2003-04-19T10:36:46Z</time>
      </trkpt>
      <trkpt lat="33.573490027338266" lon="-3.27737501822412">
        <ele>1194.8</ele>
        <time>2003-04-19T10:36:50Z</time>
      </trkpt>
      <trkpt lat="33.572952998802066" lon="-3.276438005268574">
        <ele>1196.5</ele>
        <time>2003-04-19T10:36:54Z</time>
      </trkpt>
      <trkpt lat="33.572701960802078" lon="-3.275823025032878">
        <ele>1197.2</ele>
        <time>2003-04-19T10:36:58Z</time>
      </trkpt>
      <trkpt lat="33.572371965274215" lon="-3.274811999872327">
        <ele>1199.0999999999999</ele>
        <time>2003-04-19T10:37:02Z</time>
      </trkpt>
      <trkpt lat="33.572177002206445" lon="-3.273893008008599">
        <ele>1201.5999999999999</ele>
        <time>2003-04-19T10:37:08Z</time>
      </trkpt>
      <trkpt lat="33.572089998051524" lon="-3.273616991937161">
        <ele>1202.7</ele>
        <time>2003-04-19T10:37:10Z</time>
      </trkpt>
      <trkpt lat="33.571978015825152" lon="-3.273390009999275">
        <ele>1202.9000000000001</ele>
        <time>2003-04-19T10:37:12Z</time>
      </trkpt>
      <trkpt lat="33.571863016113639" lon="-3.273203009739518">
        <ele>1203.0999999999999</ele>
        <time>2003-04-19T10:37:13Z</time>
      </trkpt>
      <trkpt lat="33.571793027222157" lon="-3.273073006421328">
        <ele>1203.5</ele>
        <time>2003-04-19T10:37:16Z</time>
      </trkpt>
      <trkpt lat="33.571551963686943" lon="-3.272662963718176">
        <ele>1204.2</ele>
        <time>2003-04-19T10:37:21Z</time>
      </trkpt>
      <trkpt lat="33.571421960368752" lon="-3.272436987608671">
        <ele>1204.5</ele>
        <time>2003-04-19T10:37:22Z</time>
      </trkpt>
      <trkpt lat="33.571181986480951" lon="-3.272032979875803">
        <ele>1205.3</ele>
        <time>2003-04-19T10:37:25Z</time>
      </trkpt>
      <trkpt lat="33.571047959849238" lon="-3.271712036803365">
        <ele>1206.0999999999999</ele>
        <time>2003-04-19T10:37:28Z</time>
      </trkpt>
      <trkpt lat="33.570967996492982" lon="-3.271347004920244">
        <ele>1206.7</ele>
        <time>2003-04-19T10:37:29Z</time>
      </trkpt>
      <trkpt lat="33.57094201259315" lon="-3.270965041592717">
        <ele>1206.9000000000001</ele>
        <time>2003-04-19T10:37:32Z</time>
      </trkpt>
      <trkpt lat="33.570928014814854" lon="-3.269672971218824">
        <ele>1208.3</ele>
        <time>2003-04-19T10:37:37Z</time>
      </trkpt>
      <trkpt lat="33.570902030915022" lon="-3.268697988241911">
        <ele>1210.7</ele>
        <time>2003-04-19T10:37:43Z</time>
      </trkpt>
      <trkpt lat="33.570904964581132" lon="-3.268457008525729">
        <ele>1211.4000000000001</ele>
        <time>2003-04-19T10:37:44Z</time>
      </trkpt>
      <trkpt lat="33.570904964581132" lon="-3.268294986337423">
        <ele>1211.7</ele>
        <time>2003-04-19T10:37:47Z</time>
      </trkpt>
      <trkpt lat="33.570902030915022" lon="-3.2681580260396">
        <ele>1211.9000000000001</ele>
        <time>2003-04-19T10:37:48Z</time>
      </trkpt>
      <trkpt lat="33.5708980076015" lon="-3.267970019951463">
        <ele>1213</ele>
        <time>2003-04-19T10:38:04Z</time>
      </trkpt>
      <trkpt lat="33.570883003994823" lon="-3.267862983047962">
        <ele>1215.5999999999999</ele>
        <time>2003-04-19T10:47:04Z</time>
      </trkpt>
      <trkpt lat="33.570837993174791" lon="-3.267574980854988">
        <ele>1215.8</ele>
        <time>2003-04-19T10:47:10Z</time>
      </trkpt>
      <trkpt lat="33.570802034810185" lon="-3.267407007515431">
        <ele>1215.9000000000001</ele>
        <time>2003-04-19T10:47:11Z</time>
      </trkpt>
      <trkpt lat="33.570717964321375" lon="-3.26712504029274">
        <ele>1215.9000000000001</ele>
        <time>2003-04-19T10:47:15Z</time>
      </trkpt>
      <trkpt lat="33.57051202096045" lon="-3.266633022576571">
        <ele>1216.9000000000001</ele>
        <time>2003-04-19T10:47:19Z</time>
      </trkpt>
      <trkpt lat="33.570123016834259" lon="-3.265874963253737">
        <ele>1219.5999999999999</ele>
        <time>2003-04-19T10:47:27Z</time>
      </trkpt>
      <trkpt lat="33.569929981604218" lon="-3.26534204185009">
        <ele>1220.8</ele>
        <time>2003-04-19T10:47:33Z</time>
      </trkpt>
      <trkpt lat="33.56958799995482" lon="-3.264563027769327">
        <ele>1222.2</ele>
        <time>2003-04-19T10:47:39Z</time>
      </trkpt>
      <trkpt lat="33.569226991385221" lon="-3.263483019545674">
        <ele>1224.8</ele>
        <time>2003-04-19T10:47:49Z</time>
      </trkpt>
      <trkpt lat="33.568866988644004" lon="-3.262422038242221">
        <ele>1226.5</ele>
        <time>2003-04-19T10:47:58Z</time>
      </trkpt>
      <trkpt lat="33.568534981459379" lon="-3.261359967291355">
        <ele>1228.5</ele>
        <time>2003-04-19T10:48:05Z</time>
      </trkpt>
      <trkpt lat="33.56849298812449" lon="-3.261070037260652">
        <ele>1228.9000000000001</ele>
        <time>2003-04-19T10:48:08Z</time>
      </trkpt>
      <trkpt lat="33.568377988412976" lon="-3.259942000731826">
        <ele>1231</ele>
        <time>2003-04-19T10:48:14Z</time>
      </trkpt>
      <trkpt lat="33.568283021450043" lon="-3.259268011897802">
        <ele>1232.4000000000001</ele>
        <time>2003-04-19T10:48:18Z</time>
      </trkpt>
      <trkpt lat="33.568295007571578" lon="-3.258931981399655">
        <ele>1233.0999999999999</ele>
        <time>2003-04-19T10:48:21Z</time>
      </trkpt>
      <trkpt lat="33.568380000069737" lon="-3.258272996172309">
        <ele>1235.3</ele>
        <time>2003-04-19T10:48:25Z</time>
      </trkpt>
      <trkpt lat="33.568545039743185" lon="-3.257662039250135">
        <ele>1238.4000000000001</ele>
        <time>2003-04-19T10:48:28Z</time>
      </trkpt>
      <trkpt lat="33.568674959242344" lon="-3.257381999865174">
        <ele>1238.9000000000001</ele>
        <time>2003-04-19T10:48:31Z</time>
      </trkpt>
      <trkpt lat="33.569109980016947" lon="-3.256329987198114">
        <ele>1241.4000000000001</ele>
        <time>2003-04-19T10:48:37Z</time>
      </trkpt>
      <trkpt lat="33.569537959992886" lon="-3.255232041701675">
        <ele>1243.2</ele>
        <time>2003-04-19T10:48:44Z</time>
      </trkpt>
      <trkpt lat="33.569929981604218" lon="-3.254254963248968">
        <ele>1244.9000000000001</ele>
        <time>2003-04-19T10:48:51Z</time>
      </trkpt>
      <trkpt lat="33.570325020700693" lon="-3.253252990543842">
        <ele>1246.3</ele>
        <time>2003-04-19T10:48:56Z</time>
      </trkpt>
      <trkpt lat="33.570574969053268" lon="-3.252680003643036">
        <ele>1246.5999999999999</ele>
        <time>2003-04-19T10:49:00Z</time>
      </trkpt>
      <trkpt lat="33.570655016228557" lon="-3.252444975078106">
        <ele>1246.8</ele>
        <time>2003-04-19T10:49:03Z</time>
      </trkpt>
      <trkpt lat="33.570742020383477" lon="-3.252131994813681">
        <ele>1246.8</ele>
        <time>2003-04-19T10:49:06Z</time>
      </trkpt>
      <trkpt lat="33.570809997618198" lon="-3.251875005662441">
        <ele>1247.0999999999999</ele>
        <time>2003-04-19T10:49:08Z</time>
      </trkpt>
      <trkpt lat="33.570873029530048" lon="-3.251588009297848">
        <ele>1247.2</ele>
        <time>2003-04-19T10:49:12Z</time>
      </trkpt>
      <trkpt lat="33.5708980076015" lon="-3.251477032899857">
        <ele>1247.2</ele>
        <time>2003-04-19T10:49:17Z</time>
      </trkpt>
      <trkpt lat="33.57091804035008" lon="-3.251345017924905">
        <ele>1246.9000000000001</ele>
        <time>2003-04-19T10:52:47Z</time>
      </trkpt>
      <trkpt lat="33.570951987057924" lon="-3.251145025715232">
        <ele>1247</ele>
        <time>2003-04-19T10:52:55Z</time>
      </trkpt>
      <trkpt lat="33.570981994271278" lon="-3.250947967171669">
        <ele>1247</ele>
        <time>2003-04-19T10:52:58Z</time>
      </trkpt>
      <trkpt lat="33.570996997877955" lon="-3.250800026580691">
        <ele>1247.0999999999999</ele>
        <time>2003-04-19T10:53:01Z</time>
      </trkpt>
      <trkpt lat="33.571017030626535" lon="-3.250546976923943">
        <ele>1247.3</ele>
        <time>2003-04-19T10:53:03Z</time>
      </trkpt>
      <trkpt lat="33.57102801091969" lon="-3.250232990831137">
        <ele>1247.8</ele>
        <time>2003-04-19T10:53:06Z</time>
      </trkpt>
      <trkpt lat="33.571081990376115" lon="-3.249211991205812">
        <ele>1249.0999999999999</ele>
        <time>2003-04-19T10:53:15Z</time>
      </trkpt>
      <trkpt lat="33.571100011467934" lon="-3.248976962640882">
        <ele>1249.4000000000001</ele>
        <time>2003-04-19T10:53:18Z</time>
      </trkpt>
      <trkpt lat="33.571121972054243" lon="-3.248431971296668">
        <ele>1250.0999999999999</ele>
        <time>2003-04-19T10:53:22Z</time>
      </trkpt>
      <trkpt lat="33.571191960945725" lon="-3.247203016653657">
        <ele>1251.7</ele>
        <time>2003-04-19T10:53:29Z</time>
      </trkpt>
      <trkpt lat="33.571248035877943" lon="-3.246062994003296">
        <ele>1253.4000000000001</ele>
        <time>2003-04-19T10:53:37Z</time>
      </trkpt>
      <trkpt lat="33.571294974535704" lon="-3.244842002168298">
        <ele>1255.3</ele>
        <time>2003-04-19T10:53:44Z</time>
      </trkpt>
      <trkpt lat="33.571347026154399" lon="-3.243625033646822">
        <ele>1257.5999999999999</ele>
        <time>2003-04-19T10:53:51Z</time>
      </trkpt>
      <trkpt lat="33.571392958983779" lon="-3.242542007938027">
        <ele>1259.5</ele>
        <time>2003-04-19T10:53:56Z</time>
      </trkpt>
      <trkpt lat="33.571411985903978" lon="-3.241282962262631">
        <ele>1260.7</ele>
        <time>2003-04-19T10:54:04Z</time>
      </trkpt>
      <trkpt lat="33.571337973698974" lon="-3.240562034770846">
        <ele>1260.5999999999999</ele>
        <time>2003-04-19T10:54:08Z</time>
      </trkpt>
      <trkpt lat="33.57109297066927" lon="-3.239444978535175">
        <ele>1260.5</ele>
        <time>2003-04-19T10:54:14Z</time>
      </trkpt>
      <trkpt lat="33.570825001224875" lon="-3.238348038867116">
        <ele>1261.8</ele>
        <time>2003-04-19T10:54:19Z</time>
      </trkpt>
      <trkpt lat="33.570570023730397" lon="-3.237246992066503">
        <ele>1261.3</ele>
        <time>2003-04-19T10:54:26Z</time>
      </trkpt>
      <trkpt lat="33.570312028750777" lon="-3.236134964972735">
        <ele>1263.8</ele>
        <time>2003-04-19T10:54:31Z</time>
      </trkpt>
      <trkpt lat="33.570080017670989" lon="-3.235022015869618">
        <ele>1265.5999999999999</ele>
        <time>2003-04-19T10:54:38Z</time>
      </trkpt>
      <trkpt lat="33.569871978834271" lon="-3.234394965693355">
        <ele>1268</ele>
        <time>2003-04-19T10:54:42Z</time>
      </trkpt>
      <trkpt lat="33.569712974131107" lon="-3.234132025390863">
        <ele>1268.9000000000001</ele>
        <time>2003-04-19T10:54:43Z</time>
      </trkpt>
      <trkpt lat="33.569505019113421" lon="-3.233919963240624">
        <ele>1269.5999999999999</ele>
        <time>2003-04-19T10:54:46Z</time>
      </trkpt>
      <trkpt lat="33.569062035530806" lon="-3.233558032661676">
        <ele>1270.9000000000001</ele>
        <time>2003-04-19T10:54:50Z</time>
      </trkpt>
      <trkpt lat="33.568933038040996" lon="-3.233512016013265">
        <ele>1271</ele>
        <time>2003-04-19T10:54:50Z</time>
      </trkpt>
      <trkpt lat="33.568201968446374" lon="-3.233252009376884">
        <ele>1272.8</ele>
        <time>2003-04-19T10:54:57Z</time>
      </trkpt>
      <trkpt lat="33.568078000098467" lon="-3.233253015205264">
        <ele>1272.7</ele>
        <time>2003-04-19T10:54:58Z</time>
      </trkpt>
      <trkpt lat="33.567837020382285" lon="-3.233185037970543">
        <ele>1273.4000000000001</ele>
        <time>2003-04-19T10:54:59Z</time>
      </trkpt>
      <trkpt lat="33.566979970782995" lon="-3.232795028015971">
        <ele>1278.3</ele>
        <time>2003-04-19T10:55:06Z</time>
      </trkpt>
      <trkpt lat="33.566775033250451" lon="-3.232614984735847">
        <ele>1279.9000000000001</ele>
        <time>2003-04-19T10:55:09Z</time>
      </trkpt>
      <trkpt lat="33.566607981920242" lon="-3.232390014454722">
        <ele>1280.0999999999999</ele>
        <time>2003-04-19T10:55:10Z</time>
      </trkpt>
      <trkpt lat="33.566468004137278" lon="-3.232133025303483">
        <ele>1280.4000000000001</ele>
        <time>2003-04-19T10:55:13Z</time>
      </trkpt>
      <trkpt lat="33.566364990547299" lon="-3.231857009232044">
        <ele>1280.5999999999999</ele>
        <time>2003-04-19T10:55:14Z</time>
      </trkpt>
      <trkpt lat="33.566077994182706" lon="-3.231149995699525">
        <ele>1281.7</ele>
        <time>2003-04-19T10:55:20Z</time>
      </trkpt>
      <trkpt lat="33.565799966454506" lon="-3.230414986610413">
        <ele>1283.5999999999999</ele>
        <time>2003-04-19T10:55:25Z</time>
      </trkpt>
      <trkpt lat="33.565752021968365" lon="-3.230102006345987">
        <ele>1283.5999999999999</ele>
        <time>2003-04-19T10:55:26Z</time>
      </trkpt>
      <trkpt lat="33.565725032240152" lon="-3.229445032775402">
        <ele>1283.7</ele>
        <time>2003-04-19T10:55:30Z</time>
      </trkpt>
      <trkpt lat="33.565787980332971" lon="-3.228932982310653">
        <ele>1283.4000000000001</ele>
        <time>2003-04-19T10:55:33Z</time>
      </trkpt>
      <trkpt lat="33.565929969772696" lon="-3.22843300178647">
        <ele>1283.5999999999999</ele>
        <time>2003-04-19T10:55:37Z</time>
      </trkpt>
      <trkpt lat="33.566071959212422" lon="-3.228126978501678">
        <ele>1283.7</ele>
        <time>2003-04-19T10:55:39Z</time>
      </trkpt>
      <trkpt lat="33.566570011898875" lon="-3.227312006056309">
        <ele>1282.5</ele>
        <time>2003-04-19T10:55:44Z</time>
      </trkpt>
      <trkpt lat="33.567227991297841" lon="-3.226378010585904">
        <ele>1280.0999999999999</ele>
        <time>2003-04-19T10:55:52Z</time>
      </trkpt>
      <trkpt lat="33.56789200566709" lon="-3.225432028993964">
        <ele>1282.0999999999999</ele>
        <time>2003-04-19T10:55:59Z</time>
      </trkpt>
      <trkpt lat="33.568555014207959" lon="-3.224468026310206">
        <ele>1282.9000000000001</ele>
        <time>2003-04-19T10:56:06Z</time>
      </trkpt>
      <trkpt lat="33.568970002233982" lon="-3.223896967247129">
        <ele>1282.5</ele>
        <time>2003-04-19T10:56:10Z</time>
      </trkpt>
      <trkpt lat="33.569488003849983" lon="-3.222945034503937">
        <ele>1279.3</ele>
        <time>2003-04-19T10:56:15Z</time>
      </trkpt>
      <trkpt lat="33.569656983017921" lon="-3.22237498126924">
        <ele>1277.9000000000001</ele>
        <time>2003-04-19T10:56:19Z</time>
      </trkpt>
      <trkpt lat="33.569787992164493" lon="-3.221571994945407">
        <ele>1277.5</ele>
        <time>2003-04-19T10:56:23Z</time>
      </trkpt>
      <trkpt lat="33.569899974390864" lon="-3.220340022817254">
        <ele>1278.2</ele>
        <time>2003-04-19T10:56:29Z</time>
      </trkpt>
      <trkpt lat="33.570056967437267" lon="-3.219090029597282">
        <ele>1277.4000000000001</ele>
        <time>2003-04-19T10:56:34Z</time>
      </trkpt>
      <trkpt lat="33.570180013775826" lon="-3.217827966436744">
        <ele>1279.0999999999999</ele>
        <time>2003-04-19T10:56:41Z</time>
      </trkpt>
      <trkpt lat="33.570386962965131" lon="-3.216606974601746">
        <ele>1281.7</ele>
        <time>2003-04-19T10:56:46Z</time>
      </trkpt>
      <trkpt lat="33.570516966283321" lon="-3.216236997395754">
        <ele>1281.0999999999999</ele>
        <time>2003-04-19T10:56:49Z</time>
      </trkpt>
      <trkpt lat="33.570992974564433" lon="-3.215182973071933">
        <ele>1280.5999999999999</ele>
        <time>2003-04-19T10:56:54Z</time>
      </trkpt>
      <trkpt lat="33.571522040292621" lon="-3.214140012860298">
        <ele>1282.4000000000001</ele>
        <time>2003-04-19T10:57:01Z</time>
      </trkpt>
      <trkpt lat="33.571968041360378" lon="-3.213132005184889">
        <ele>1289.2</ele>
        <time>2003-04-19T10:57:06Z</time>
      </trkpt>
      <trkpt lat="33.572401972487569" lon="-3.212127014994621">
        <ele>1292.9000000000001</ele>
        <time>2003-04-19T10:57:13Z</time>
      </trkpt>
      <trkpt lat="33.572913017123938" lon="-3.211127975955606">
        <ele>1293.8</ele>
        <time>2003-04-19T10:57:18Z</time>
      </trkpt>
      <trkpt lat="33.573017036542296" lon="-3.210757998749614">
        <ele>1292.9000000000001</ele>
        <time>2003-04-19T10:57:21Z</time>
      </trkpt>
      <trkpt lat="33.573092976585031" lon="-3.209928022697568">
        <ele>1289.8</ele>
        <time>2003-04-19T10:57:25Z</time>
      </trkpt>
      <trkpt lat="33.573128012940288" lon="-3.208829993382096">
        <ele>1286.4000000000001</ele>
        <time>2003-04-19T10:57:29Z</time>
      </trkpt>
      <trkpt lat="33.573166988790035" lon="-3.207547981292009">
        <ele>1286.5</ele>
        <time>2003-04-19T10:57:36Z</time>
      </trkpt>
      <trkpt lat="33.573190039023757" lon="-3.206272004172206">
        <ele>1284.5999999999999</ele>
        <time>2003-04-19T10:57:41Z</time>
      </trkpt>
      <trkpt lat="33.57321803458035" lon="-3.205112032592297">
        <ele>1283.5</ele>
        <time>2003-04-19T10:57:47Z</time>
      </trkpt>
      <trkpt lat="33.573260027915239" lon="-3.203885005787015">
        <ele>1282.2</ele>
        <time>2003-04-19T10:57:52Z</time>
      </trkpt>
      <trkpt lat="33.573276959359646" lon="-3.202667031437159">
        <ele>1282.8</ele>
        <time>2003-04-19T10:57:56Z</time>
      </trkpt>
      <trkpt lat="33.573317024856806" lon="-3.201462971046567">
        <ele>1283.5999999999999</ele>
        <time>2003-04-19T10:58:02Z</time>
      </trkpt>
      <trkpt lat="33.573462031781673" lon="-3.200256982818246">
        <ele>1285.5999999999999</ele>
        <time>2003-04-19T10:58:07Z</time>
      </trkpt>
      <trkpt lat="33.573732012882829" lon="-3.199098017066717">
        <ele>1287.0999999999999</ele>
        <time>2003-04-19T10:58:11Z</time>
      </trkpt>
      <trkpt lat="33.574018003419042" lon="-3.197972998023033">
        <ele>1288.8</ele>
        <time>2003-04-19T10:58:17Z</time>
      </trkpt>
      <trkpt lat="33.574287984520197" lon="-3.196832975372672">
        <ele>1289.4000000000001</ele>
        <time>2003-04-19T10:58:22Z</time>
      </trkpt>
      <trkpt lat="33.5745520144701" lon="-3.195720026269555">
        <ele>1290.3</ele>
        <time>2003-04-19T10:58:26Z</time>
      </trkpt>
      <trkpt lat="33.574757035821676" lon="-3.194646975025535">
        <ele>1292.3</ele>
        <time>2003-04-19T10:58:31Z</time>
      </trkpt>
      <trkpt lat="33.575082002207637" lon="-3.193420032039285">
        <ele>1295.3</ele>
        <time>2003-04-19T10:58:38Z</time>
      </trkpt>
      <trkpt lat="33.575360029935837" lon="-3.192210020497441">
        <ele>1298.4000000000001</ele>
        <time>2003-04-19T10:58:44Z</time>
      </trkpt>
      <trkpt lat="33.575624981895089" lon="-3.191045019775629">
        <ele>1298.4000000000001</ele>
        <time>2003-04-19T10:58:49Z</time>
      </trkpt>
      <trkpt lat="33.575902003794909" lon="-3.189831990748644">
        <ele>1299.5999999999999</ele>
        <time>2003-04-19T10:58:56Z</time>
      </trkpt>
      <trkpt lat="33.575945002958179" lon="-3.189417002722621">
        <ele>1299.9000000000001</ele>
        <time>2003-04-19T10:58:57Z</time>
      </trkpt>
      <trkpt lat="33.575922036543489" lon="-3.188992040231824">
        <ele>1299.8</ele>
        <time>2003-04-19T10:59:00Z</time>
      </trkpt>
      <trkpt lat="33.575750039890409" lon="-3.187927035614848">
        <ele>1301.0999999999999</ele>
        <time>2003-04-19T10:59:05Z</time>
      </trkpt>
      <trkpt lat="33.575534960255027" lon="-3.186828000470996">
        <ele>1300.4000000000001</ele>
        <time>2003-04-19T10:59:09Z</time>
      </trkpt>
      <trkpt lat="33.575321976095438" lon="-3.185670040547848">
        <ele>1298.9000000000001</ele>
        <time>2003-04-19T10:59:15Z</time>
      </trkpt>
      <trkpt lat="33.575117960572243" lon="-3.184479977935553">
        <ele>1296.3</ele>
        <time>2003-04-19T10:59:20Z</time>
      </trkpt>
      <trkpt lat="33.574906988069415" lon="-3.183278013020754">
        <ele>1295.5999999999999</ele>
        <time>2003-04-19T10:59:24Z</time>
      </trkpt>
      <trkpt lat="33.574695009738207" lon="-3.182097002863884">
        <ele>1296</ele>
        <time>2003-04-19T10:59:29Z</time>
      </trkpt>
      <trkpt lat="33.574468027800322" lon="-3.180957986041904">
        <ele>1294.5</ele>
        <time>2003-04-19T10:59:35Z</time>
      </trkpt>
      <trkpt lat="33.574338024482131" lon="-3.179997000843287">
        <ele>1293.3</ele>
        <time>2003-04-19T10:59:39Z</time>
      </trkpt>
      <trkpt lat="33.574212966486812" lon="-3.179287975654006">
        <ele>1292.9000000000001</ele>
        <time>2003-04-19T10:59:42Z</time>
      </trkpt>
      <trkpt lat="33.573986990377307" lon="-3.178094979375601">
        <ele>1293.3</ele>
        <time>2003-04-19T10:59:47Z</time>
      </trkpt>
      <trkpt lat="33.573737964034081" lon="-3.176972977817059">
        <ele>1295</ele>
        <time>2003-04-19T10:59:51Z</time>
      </trkpt>
      <trkpt lat="33.573687002062798" lon="-3.176529994234443">
        <ele>1295.7</ele>
        <time>2003-04-19T10:59:54Z</time>
      </trkpt>
      <trkpt lat="33.573617013171315" lon="-3.176092961803079">
        <ele>1296.5999999999999</ele>
        <time>2003-04-19T10:59:55Z</time>
      </trkpt>
      <trkpt lat="33.57341299764812" lon="-3.175038015469909">
        <ele>1298.8</ele>
        <time>2003-04-19T11:00:00Z</time>
      </trkpt>
      <trkpt lat="33.573282994329929" lon="-3.174426974728704">
        <ele>1299.7</ele>
        <time>2003-04-19T11:00:03Z</time>
      </trkpt>
      <trkpt lat="33.572987029328942" lon="-3.173388037830591">
        <ele>1299.5</ele>
        <time>2003-04-19T11:00:09Z</time>
      </trkpt>
      <trkpt lat="33.572683017700911" lon="-3.172295037657023">
        <ele>1299.9000000000001</ele>
        <time>2003-04-19T11:00:14Z</time>
      </trkpt>
      <trkpt lat="33.572404989972711" lon="-3.171164989471436">
        <ele>1301.2</ele>
        <time>2003-04-19T11:00:18Z</time>
      </trkpt>
      <trkpt lat="33.572222013026476" lon="-3.17048697732389">
        <ele>1302.8</ele>
        <time>2003-04-19T11:00:22Z</time>
      </trkpt>
      <trkpt lat="33.571872990578413" lon="-3.169377967715263">
        <ele>1304.4000000000001</ele>
        <time>2003-04-19T11:00:26Z</time>
      </trkpt>
      <trkpt lat="33.571550035849214" lon="-3.168252026662231">
        <ele>1306.2</ele>
        <time>2003-04-19T11:00:32Z</time>
      </trkpt>
      <trkpt lat="33.57124200090766" lon="-3.16711300984025">
        <ele>1307.5999999999999</ele>
        <time>2003-04-19T11:00:37Z</time>
      </trkpt>
      <trkpt lat="33.570903036743402" lon="-3.165962006896734">
        <ele>1307.7</ele>
        <time>2003-04-19T11:00:41Z</time>
      </trkpt>
      <trkpt lat="33.570570023730397" lon="-3.16483698785305">
        <ele>1307.5999999999999</ele>
        <time>2003-04-19T11:00:46Z</time>
      </trkpt>
      <trkpt lat="33.570282021537423" lon="-3.163739964365959">
        <ele>1307.9000000000001</ele>
        <time>2003-04-19T11:00:52Z</time>
      </trkpt>
      <trkpt lat="33.570207003504038" lon="-3.163141999393702">
        <ele>1309.2</ele>
        <time>2003-04-19T11:00:54Z</time>
      </trkpt>
      <trkpt lat="33.570207003504038" lon="-3.162775039672852">
        <ele>1310.5</ele>
        <time>2003-04-19T11:00:57Z</time>
      </trkpt>
      <trkpt lat="33.570295013487339" lon="-3.162055034190416">
        <ele>1313.2</ele>
        <time>2003-04-19T11:01:01Z</time>
      </trkpt>
      <trkpt lat="33.570440020412207" lon="-3.161547007039189">
        <ele>1313.7</ele>
        <time>2003-04-19T11:01:04Z</time>
      </trkpt>
      <trkpt lat="33.570587961003184" lon="-3.161212988197804">
        <ele>1314.0999999999999</ele>
        <time>2003-04-19T11:01:05Z</time>
      </trkpt>
      <trkpt lat="33.570872023701668" lon="-3.160752989351749">
        <ele>1314.8</ele>
        <time>2003-04-19T11:01:08Z</time>
      </trkpt>
      <trkpt lat="33.571190033107996" lon="-3.160391980782151">
        <ele>1315.2</ele>
        <time>2003-04-19T11:01:12Z</time>
      </trkpt>
      <trkpt lat="33.571633016690612" lon="-3.159976992756128">
        <ele>1315.5</ele>
        <time>2003-04-19T11:01:16Z</time>
      </trkpt>
      <trkpt lat="33.572310023009777" lon="-3.159133018925786">
        <ele>1316</ele>
        <time>2003-04-19T11:01:23Z</time>
      </trkpt>
      <trkpt lat="33.573073027655482" lon="-3.158300025388598">
        <ele>1316.5</ele>
        <time>2003-04-19T11:01:30Z</time>
      </trkpt>
      <trkpt lat="33.573788003996015" lon="-3.157557975500822">
        <ele>1316.9000000000001</ele>
        <time>2003-04-19T11:01:35Z</time>
      </trkpt>
      <trkpt lat="33.574480013921857" lon="-3.156832018867135">
        <ele>1317.3</ele>
        <time>2003-04-19T11:01:42Z</time>
      </trkpt>
      <trkpt lat="33.574951998889446" lon="-3.156318040564656">
        <ele>1317.7</ele>
        <time>2003-04-19T11:01:47Z</time>
      </trkpt>
      <trkpt lat="33.575377967208624" lon="-3.155880002304912">
        <ele>1318.3</ele>
        <time>2003-04-19T11:01:51Z</time>
      </trkpt>
      <trkpt lat="33.57573302462697" lon="-3.155474988743663">
        <ele>1319.0999999999999</ele>
        <time>2003-04-19T11:01:58Z</time>
      </trkpt>
      <trkpt lat="33.576278015971184" lon="-3.154826983809471">
        <ele>1320</ele>
        <time>2003-04-19T11:02:06Z</time>
      </trkpt>
      <trkpt lat="33.576940018683672" lon="-3.154092980548739">
        <ele>1320.9000000000001</ele>
        <time>2003-04-19T11:02:13Z</time>
      </trkpt>
      <trkpt lat="33.577634962275624" lon="-3.153314972296357">
        <ele>1321.4000000000001</ele>
        <time>2003-04-19T11:02:20Z</time>
      </trkpt>
      <trkpt lat="33.577877031639218" lon="-3.153016995638609">
        <ele>1321.5</ele>
        <time>2003-04-19T11:02:22Z</time>
      </trkpt>
      <trkpt lat="33.578277016058564" lon="-3.152558002620935">
        <ele>1321.9000000000001</ele>
        <time>2003-04-19T11:02:28Z</time>
      </trkpt>
      <trkpt lat="33.578396961092949" lon="-3.15241701900959">
        <ele>1322.2</ele>
        <time>2003-04-19T11:02:29Z</time>
      </trkpt>
      <trkpt lat="33.578520007431507" lon="-3.152303025126457">
        <ele>1322.2</ele>
        <time>2003-04-19T11:03:03Z</time>
      </trkpt>
      <trkpt lat="33.578665014356375" lon="-3.152143014594913">
        <ele>1322.3</ele>
        <time>2003-04-19T11:03:07Z</time>
      </trkpt>
      <trkpt lat="33.578817984089255" lon="-3.151960037648678">
        <ele>1322.3</ele>
        <time>2003-04-19T11:03:09Z</time>
      </trkpt>
      <trkpt lat="33.578946981579065" lon="-3.151810001581907">
        <ele>1322.5</ele>
        <time>2003-04-19T11:03:12Z</time>
      </trkpt>
      <trkpt lat="33.579253004863858" lon="-3.151476988568902">
        <ele>1323.0999999999999</ele>
        <time>2003-04-19T11:03:16Z</time>
      </trkpt>
      <trkpt lat="33.579920036718249" lon="-3.150727981701493">
        <ele>1323.8</ele>
        <time>2003-04-19T11:03:23Z</time>
      </trkpt>
      <trkpt lat="33.580677006393671" lon="-3.149917032569647">
        <ele>1324.5</ele>
        <time>2003-04-19T11:03:32Z</time>
      </trkpt>
      <trkpt lat="33.581387037411332" lon="-3.149122009053826">
        <ele>1325</ele>
        <time>2003-04-19T11:03:41Z</time>
      </trkpt>
      <trkpt lat="33.581796996295452" lon="-3.148548016324639">
        <ele>1325.0999999999999</ele>
        <time>2003-04-19T11:03:46Z</time>
      </trkpt>
      <trkpt lat="33.582320027053356" lon="-3.147627012804151">
        <ele>1325.5</ele>
        <time>2003-04-19T11:03:53Z</time>
      </trkpt>
      <trkpt lat="33.582846997305751" lon="-3.146607019007206">
        <ele>1326.2</ele>
        <time>2003-04-19T11:03:59Z</time>
      </trkpt>
      <trkpt lat="33.583328034728765" lon="-3.145666988566518">
        <ele>1327.5</ele>
        <time>2003-04-19T11:04:06Z</time>
      </trkpt>
      <trkpt lat="33.583881994709373" lon="-3.14468203112483">
        <ele>1329</ele>
        <time>2003-04-19T11:04:13Z</time>
      </trkpt>
      <trkpt lat="33.583952989429235" lon="-3.144538030028343">
        <ele>1329.3</ele>
        <time>2003-04-19T11:04:13Z</time>
      </trkpt>
      <trkpt lat="33.58452002517879" lon="-3.143498003482819">
        <ele>1329.9000000000001</ele>
        <time>2003-04-19T11:04:21Z</time>
      </trkpt>
      <trkpt lat="33.585084965452552" lon="-3.142452025786042">
        <ele>1331.2</ele>
        <time>2003-04-19T11:04:29Z</time>
      </trkpt>
      <trkpt lat="33.585572959855199" lon="-3.14150202088058">
        <ele>1332</ele>
        <time>2003-04-19T11:04:35Z</time>
      </trkpt>
      <trkpt lat="33.586077969521284" lon="-3.140570037066937">
        <ele>1332.4000000000001</ele>
        <time>2003-04-19T11:04:40Z</time>
      </trkpt>
      <trkpt lat="33.586547020822763" lon="-3.139587007462978">
        <ele>1333.5</ele>
        <time>2003-04-19T11:04:47Z</time>
      </trkpt>
      <trkpt lat="33.587059993296862" lon="-3.138614958152175">
        <ele>1335.8</ele>
        <time>2003-04-19T11:04:52Z</time>
      </trkpt>
      <trkpt lat="33.587602972984314" lon="-3.13767702318728">
        <ele>1337</ele>
        <time>2003-04-19T11:04:59Z</time>
      </trkpt>
      <trkpt lat="33.588198004290462" lon="-3.136632973328233">
        <ele>1334.7</ele>
        <time>2003-04-19T11:05:06Z</time>
      </trkpt>
      <trkpt lat="33.588594971224666" lon="-3.135956972837448">
        <ele>1333.7</ele>
        <time>2003-04-19T11:05:11Z</time>
      </trkpt>
      <trkpt lat="33.58886000700295" lon="-3.135527987033129">
        <ele>1333.4000000000001</ele>
        <time>2003-04-19T11:05:15Z</time>
      </trkpt>
      <trkpt lat="33.588922033086419" lon="-3.135432014241815">
        <ele>1333.4000000000001</ele>
        <time>2003-04-19T11:05:16Z</time>
      </trkpt>
      <trkpt lat="33.589029991999269" lon="-3.135273009538651">
        <ele>1333.4000000000001</ele>
        <time>2003-04-19T11:05:20Z</time>
      </trkpt>
      <trkpt lat="33.589092018082738" lon="-3.135162033140659">
        <ele>1333.5999999999999</ele>
        <time>2003-04-19T11:05:26Z</time>
      </trkpt>
      <trkpt lat="33.589148009195924" lon="-3.135047033429146">
        <ele>1333.4000000000001</ele>
        <time>2003-04-19T11:05:31Z</time>
      </trkpt>
      <trkpt lat="33.58920500613749" lon="-3.134917030110955">
        <ele>1333.3</ele>
        <time>2003-04-19T11:05:34Z</time>
      </trkpt>
      <trkpt lat="33.589277006685734" lon="-3.134787026792765">
        <ele>1333.5</ele>
        <time>2003-04-19T11:05:35Z</time>
      </trkpt>
      <trkpt lat="33.58939996920526" lon="-3.134572030976415">
        <ele>1333.7</ele>
        <time>2003-04-19T11:05:38Z</time>
      </trkpt>
      <trkpt lat="33.589555034413934" lon="-3.134300038218498">
        <ele>1334</ele>
        <time>2003-04-19T11:05:42Z</time>
      </trkpt>
      <trkpt lat="33.589795008301735" lon="-3.133884966373444">
        <ele>1334.2</ele>
        <time>2003-04-19T11:05:46Z</time>
      </trkpt>
      <trkpt lat="33.590092984959483" lon="-3.133372999727726">
        <ele>1334.4000000000001</ele>
        <time>2003-04-19T11:05:50Z</time>
      </trkpt>
      <trkpt lat="33.590682987123728" lon="-3.132374966517091">
        <ele>1335</ele>
        <time>2003-04-19T11:05:57Z</time>
      </trkpt>
      <trkpt lat="33.591297967359424" lon="-3.131403001025319">
        <ele>1335.8</ele>
        <time>2003-04-19T11:06:02Z</time>
      </trkpt>
      <trkpt lat="33.591892998665571" lon="-3.130391975864768">
        <ele>1337.3</ele>
        <time>2003-04-19T11:06:09Z</time>
      </trkpt>
      <trkpt lat="33.592455005273223" lon="-3.129495028406382">
        <ele>1338.9000000000001</ele>
        <time>2003-04-19T11:06:14Z</time>
      </trkpt>
      <trkpt lat="33.592964960262179" lon="-3.128564972430468">
        <ele>1340.7</ele>
        <time>2003-04-19T11:06:21Z</time>
      </trkpt>
      <trkpt lat="33.593526966869831" lon="-3.127613039687276">
        <ele>1342.7</ele>
        <time>2003-04-19T11:06:28Z</time>
      </trkpt>
      <trkpt lat="33.594140019267797" lon="-3.126581981778145">
        <ele>1344.4000000000001</ele>
        <time>2003-04-19T11:06:35Z</time>
      </trkpt>
      <trkpt lat="33.594722980633378" lon="-3.125614961609244">
        <ele>1345.4000000000001</ele>
        <time>2003-04-19T11:06:40Z</time>
      </trkpt>
      <trkpt lat="33.595352964475751" lon="-3.124636961147189">
        <ele>1346.2</ele>
        <time>2003-04-19T11:06:47Z</time>
      </trkpt>
      <trkpt lat="33.596001975238323" lon="-3.123951992020011">
        <ele>1345.9000000000001</ele>
        <time>2003-04-19T11:06:52Z</time>
      </trkpt>
      <trkpt lat="33.596813008189201" lon="-3.123217988759279">
        <ele>1344.8</ele>
        <time>2003-04-19T11:06:58Z</time>
      </trkpt>
      <trkpt lat="33.597593028098345" lon="-3.122512986883521">
        <ele>1341.5</ele>
        <time>2003-04-19T11:07:03Z</time>
      </trkpt>
      <trkpt lat="33.598312027752399" lon="-3.121967995539308">
        <ele>1340.5</ele>
        <time>2003-04-19T11:07:08Z</time>
      </trkpt>
      <trkpt lat="33.599000014364719" lon="-3.12134999781847">
        <ele>1341.8</ele>
        <time>2003-04-19T11:07:14Z</time>
      </trkpt>
      <trkpt lat="33.599579958245158" lon="-3.12089997343719">
        <ele>1342.8</ele>
        <time>2003-04-19T11:07:18Z</time>
      </trkpt>
      <trkpt lat="33.600307004526258" lon="-3.120245011523366">
        <ele>1340.8</ele>
        <time>2003-04-19T11:07:22Z</time>
      </trkpt>
      <trkpt lat="33.601045031100512" lon="-3.119591977447271">
        <ele>1339</ele>
        <time>2003-04-19T11:07:27Z</time>
      </trkpt>
      <trkpt lat="33.601660011336207" lon="-3.119022008031607">
        <ele>1338.5</ele>
        <time>2003-04-19T11:07:33Z</time>
      </trkpt>
      <trkpt lat="33.602092014625669" lon="-3.118638033047319">
        <ele>1338.5</ele>
        <time>2003-04-19T11:07:37Z</time>
      </trkpt>
      <trkpt lat="33.602827023714781" lon="-3.118002014234662">
        <ele>1338.0999999999999</ele>
        <time>2003-04-19T11:07:42Z</time>
      </trkpt>
      <trkpt lat="33.603682983666658" lon="-3.11726801097393">
        <ele>1336.7</ele>
        <time>2003-04-19T11:07:49Z</time>
      </trkpt>
      <trkpt lat="33.604516983032227" lon="-3.11653702519834">
        <ele>1336.0999999999999</ele>
        <time>2003-04-19T11:07:54Z</time>
      </trkpt>
      <trkpt lat="33.604847984388471" lon="-3.116229996085167">
        <ele>1335.9000000000001</ele>
        <time>2003-04-19T11:07:57Z</time>
      </trkpt>
      <trkpt lat="33.604937000200152" lon="-3.116178028285503">
        <ele>1335.8</ele>
        <time>2003-04-19T11:07:58Z</time>
      </trkpt>
      <trkpt lat="33.605106985196471" lon="-3.116050036624074">
        <ele>1335.5999999999999</ele>
        <time>2003-04-19T11:08:01Z</time>
      </trkpt>
      <trkpt lat="33.605185020714998" lon="-3.115963032469153">
        <ele>1335.8</ele>
        <time>2003-04-19T11:08:01Z</time>
      </trkpt>
      <trkpt lat="33.605651976540685" lon="-3.115512002259493">
        <ele>1336</ele>
        <time>2003-04-19T11:08:06Z</time>
      </trkpt>
      <trkpt lat="33.605748033151031" lon="-3.115404965355992">
        <ele>1335.9000000000001</ele>
        <time>2003-04-19T11:08:08Z</time>
      </trkpt>
      <trkpt lat="33.605864960700274" lon="-3.115322990342975">
        <ele>1335.9000000000001</ele>
        <time>2003-04-19T11:08:09Z</time>
      </trkpt>
      <trkpt lat="33.606347003951669" lon="-3.114944966509938">
        <ele>1335.8</ele>
        <time>2003-04-19T11:08:13Z</time>
      </trkpt>
      <trkpt lat="33.607125012204051" lon="-3.114256979897618">
        <ele>1336.3</ele>
        <time>2003-04-19T11:08:19Z</time>
      </trkpt>
      <trkpt lat="33.607757007703185" lon="-3.113781977444887">
        <ele>1336.8</ele>
        <time>2003-04-19T11:08:24Z</time>
      </trkpt>
      <trkpt lat="33.608569968491793" lon="-3.113304963335395">
        <ele>1337</ele>
        <time>2003-04-19T11:08:31Z</time>
      </trkpt>
      <trkpt lat="33.609413020312786" lon="-3.112772963941097">
        <ele>1337.2</ele>
        <time>2003-04-19T11:08:39Z</time>
      </trkpt>
      <trkpt lat="33.610172001644969" lon="-3.112365016713738">
        <ele>1336.9000000000001</ele>
        <time>2003-04-19T11:08:46Z</time>
      </trkpt>
      <trkpt lat="33.610341986641288" lon="-3.11228496953845">
        <ele>1337.0999999999999</ele>
        <time>2003-04-19T11:08:47Z</time>
      </trkpt>
      <trkpt lat="33.61062303185463" lon="-3.112087994813919">
        <ele>1337</ele>
        <time>2003-04-19T11:08:51Z</time>
      </trkpt>
      <trkpt lat="33.611155031248927" lon="-3.11170200817287">
        <ele>1337.5999999999999</ele>
        <time>2003-04-19T11:08:55Z</time>
      </trkpt>
      <trkpt lat="33.611562978476286" lon="-3.111521964892745">
        <ele>1337</ele>
        <time>2003-04-19T11:08:59Z</time>
      </trkpt>
      <trkpt lat="33.611877970397472" lon="-3.111451976001263">
        <ele>1336.5999999999999</ele>
        <time>2003-04-19T11:09:00Z</time>
      </trkpt>
      <trkpt lat="33.612523041665554" lon="-3.111426997929812">
        <ele>1333.9000000000001</ele>
        <time>2003-04-19T11:09:05Z</time>
      </trkpt>
      <trkpt lat="33.613597014918923" lon="-3.111533029004931">
        <ele>1330.5</ele>
        <time>2003-04-19T11:09:10Z</time>
      </trkpt>
      <trkpt lat="33.614507038146257" lon="-3.111590025946498">
        <ele>1329.5</ele>
        <time>2003-04-19T11:09:15Z</time>
      </trkpt>
      <trkpt lat="33.615428041666746" lon="-3.1116399820894">
        <ele>1328</ele>
        <time>2003-04-19T11:09:21Z</time>
      </trkpt>
      <trkpt lat="33.616412999108434" lon="-3.11168298125267">
        <ele>1327.8</ele>
        <time>2003-04-19T11:09:26Z</time>
      </trkpt>
      <trkpt lat="33.61741497181356" lon="-3.111752970144153">
        <ele>1329.8</ele>
        <time>2003-04-19T11:09:30Z</time>
      </trkpt>
      <trkpt lat="33.618490034714341" lon="-3.111824970692396">
        <ele>1330.9000000000001</ele>
        <time>2003-04-19T11:09:37Z</time>
      </trkpt>
      <trkpt lat="33.61945697106421" lon="-3.111911974847317">
        <ele>1329</ele>
        <time>2003-04-19T11:09:41Z</time>
      </trkpt>
      <trkpt lat="33.620464978739619" lon="-3.111981963738799">
        <ele>1326.3</ele>
        <time>2003-04-19T11:09:46Z</time>
      </trkpt>
      <trkpt lat="33.62143199890852" lon="-3.112052958458662">
        <ele>1325</ele>
        <time>2003-04-19T11:09:52Z</time>
      </trkpt>
      <trkpt lat="33.621802981942892" lon="-3.112050024792552">
        <ele>1324.7</ele>
        <time>2003-04-19T11:09:53Z</time>
      </trkpt>
      <trkpt lat="33.622542014345527" lon="-3.111929995939136">
        <ele>1324.4000000000001</ele>
        <time>2003-04-19T11:09:57Z</time>
      </trkpt>
      <trkpt lat="33.623050041496754" lon="-3.111707959324122">
        <ele>1324.8</ele>
        <time>2003-04-19T11:10:01Z</time>
      </trkpt>
      <trkpt lat="33.623982025310397" lon="-3.111113011837006">
        <ele>1326.0999999999999</ele>
        <time>2003-04-19T11:10:07Z</time>
      </trkpt>
      <trkpt lat="33.62489297054708" lon="-3.110589981079102">
        <ele>1326.0999999999999</ele>
        <time>2003-04-19T11:10:12Z</time>
      </trkpt>
      <trkpt lat="33.625197988003492" lon="-3.11045796610415">
        <ele>1326.2</ele>
        <time>2003-04-19T11:10:15Z</time>
      </trkpt>
      <trkpt lat="33.625971972942352" lon="-3.110212041065097">
        <ele>1327</ele>
        <time>2003-04-19T11:10:20Z</time>
      </trkpt>
      <trkpt lat="33.626432977616787" lon="-3.110020011663437">
        <ele>1326.8</ele>
        <time>2003-04-19T11:10:23Z</time>
      </trkpt>
      <trkpt lat="33.627436961978674" lon="-3.109824964776635">
        <ele>1326</ele>
        <time>2003-04-19T11:10:28Z</time>
      </trkpt>
      <trkpt lat="33.627707026898861" lon="-3.109809961169958">
        <ele>1326.3</ele>
        <time>2003-04-19T11:10:31Z</time>
      </trkpt>
      <trkpt lat="33.627822026610374" lon="-3.109811972826719">
        <ele>1326.9000000000001</ele>
        <time>2003-04-19T11:10:31Z</time>
      </trkpt>
      <trkpt lat="33.627926968038082" lon="-3.109811972826719">
        <ele>1327.3</ele>
        <time>2003-04-19T11:10:32Z</time>
      </trkpt>
      <trkpt lat="33.628256963565946" lon="-3.109801998361945">
        <ele>1326.5</ele>
        <time>2003-04-19T11:10:35Z</time>
      </trkpt>
      <trkpt lat="33.62916698679328" lon="-3.10989998281002">
        <ele>1325.7</ele>
        <time>2003-04-19T11:10:43Z</time>
      </trkpt>
      <trkpt lat="33.629751959815621" lon="-3.109901994466782">
        <ele>1324.5999999999999</ele>
        <time>2003-04-19T11:10:47Z</time>
      </trkpt>
      <trkpt lat="33.629903001710773" lon="-3.10989998281002">
        <ele>1324.5999999999999</ele>
        <time>2003-04-19T11:10:48Z</time>
      </trkpt>
      <trkpt lat="33.630340034142137" lon="-3.109880033880472">
        <ele>1323.7</ele>
        <time>2003-04-19T11:10:51Z</time>
      </trkpt>
      <trkpt lat="33.630719985812902" lon="-3.109944993630052">
        <ele>1323.2</ele>
        <time>2003-04-19T11:10:55Z</time>
      </trkpt>
      <trkpt lat="33.630972029641271" lon="-3.110031997784972">
        <ele>1322.9000000000001</ele>
        <time>2003-04-19T11:10:57Z</time>
      </trkpt>
      <trkpt lat="33.631857996806502" lon="-3.11026300303638">
        <ele>1322.0999999999999</ele>
        <time>2003-04-19T11:11:02Z</time>
      </trkpt>
      <trkpt lat="33.632757961750031" lon="-3.110513035207987">
        <ele>1322.3</ele>
        <time>2003-04-19T11:11:09Z</time>
      </trkpt>
      <trkpt lat="33.633735040202737" lon="-3.110634991899133">
        <ele>1322.2</ele>
        <time>2003-04-19T11:11:15Z</time>
      </trkpt>
      <trkpt lat="33.634750004857779" lon="-3.110779998824">
        <ele>1323.0999999999999</ele>
        <time>2003-04-19T11:11:22Z</time>
      </trkpt>
      <trkpt lat="33.635763041675091" lon="-3.110922994092107">
        <ele>1324.9000000000001</ele>
        <time>2003-04-19T11:11:29Z</time>
      </trkpt>
      <trkpt lat="33.636677004396915" lon="-3.111113011837006">
        <ele>1326.8</ele>
        <time>2003-04-19T11:11:33Z</time>
      </trkpt>
      <trkpt lat="33.637627009302378" lon="-3.111372012645006">
        <ele>1328.8</ele>
        <time>2003-04-19T11:11:38Z</time>
      </trkpt>
      <trkpt lat="33.638569973409176" lon="-3.111696979030967">
        <ele>1330.9000000000001</ele>
        <time>2003-04-19T11:11:44Z</time>
      </trkpt>
      <trkpt lat="33.639502041041851" lon="-3.111952962353826">
        <ele>1333</ele>
        <time>2003-04-19T11:11:49Z</time>
      </trkpt>
      <trkpt lat="33.64044701680541" lon="-3.112093023955822">
        <ele>1335.4000000000001</ele>
        <time>2003-04-19T11:11:53Z</time>
      </trkpt>
      <trkpt lat="33.641183031722903" lon="-3.112114984542131">
        <ele>1336.9000000000001</ele>
        <time>2003-04-19T11:11:57Z</time>
      </trkpt>
      <trkpt lat="33.64154496230185" lon="-3.112056981772184">
        <ele>1337.7</ele>
        <time>2003-04-19T11:12:00Z</time>
      </trkpt>
      <trkpt lat="33.642533021047711" lon="-3.111814996227622">
        <ele>1337.9000000000001</ele>
        <time>2003-04-19T11:12:05Z</time>
      </trkpt>
      <trkpt lat="33.64285496994853" lon="-3.111792029812932">
        <ele>1337.3</ele>
        <time>2003-04-19T11:12:08Z</time>
      </trkpt>
      <trkpt lat="33.643157975748181" lon="-3.111817007884383">
        <ele>1337.3</ele>
        <time>2003-04-19T11:12:09Z</time>
      </trkpt>
      <trkpt lat="33.643442960456014" lon="-3.11189697124064">
        <ele>1337.3</ele>
        <time>2003-04-19T11:12:12Z</time>
      </trkpt>
      <trkpt lat="33.643695004284382" lon="-3.112037032842636">
        <ele>1337.3</ele>
        <time>2003-04-19T11:12:14Z</time>
      </trkpt>
      <trkpt lat="33.644190039485693" lon="-3.112277006730437">
        <ele>1336.9000000000001</ele>
        <time>2003-04-19T11:12:18Z</time>
      </trkpt>
      <trkpt lat="33.64480996504426" lon="-3.11256199143827">
        <ele>1335.7</ele>
        <time>2003-04-19T11:12:23Z</time>
      </trkpt>
      <trkpt lat="33.644922031089664" lon="-3.112662993371487">
        <ele>1335.3</ele>
        <time>2003-04-19T11:12:23Z</time>
      </trkpt>
      <trkpt lat="33.645144989714026" lon="-3.112837001681328">
        <ele>1334.5999999999999</ele>
        <time>2003-04-19T11:12:26Z</time>
      </trkpt>
      <trkpt lat="33.645263006910682" lon="-3.112880000844598">
        <ele>1334.5999999999999</ele>
        <time>2003-04-19T11:12:27Z</time>
      </trkpt>
      <trkpt lat="33.645559977740049" lon="-3.112958036363125">
        <ele>1333.5</ele>
        <time>2003-04-19T11:12:30Z</time>
      </trkpt>
      <trkpt lat="33.645706996321678" lon="-3.112973039969802">
        <ele>1333.0999999999999</ele>
        <time>2003-04-19T11:12:31Z</time>
      </trkpt>
      <trkpt lat="33.645958034321666" lon="-3.113073036074638">
        <ele>1332.7</ele>
        <time>2003-04-19T11:12:35Z</time>
      </trkpt>
      <trkpt lat="33.646173030138016" lon="-3.11318501830101">
        <ele>1332.4000000000001</ele>
        <time>2003-04-19T11:12:36Z</time>
      </trkpt>
      <trkpt lat="33.646652977913618" lon="-3.113403031602502">
        <ele>1330.8</ele>
        <time>2003-04-19T11:12:42Z</time>
      </trkpt>
      <trkpt lat="33.646799996495247" lon="-3.11344301328063">
        <ele>1337.5999999999999</ele>
        <time>2003-04-19T12:04:44Z</time>
      </trkpt>
      <trkpt lat="33.647248009219766" lon="-3.113626996055245">
        <ele>1336.5</ele>
        <time>2003-04-19T12:04:58Z</time>
      </trkpt>
      <trkpt lat="33.647401984781027" lon="-3.113687010481954">
        <ele>1336.2</ele>
        <time>2003-04-19T12:05:01Z</time>
      </trkpt>
      <trkpt lat="33.647552020847797" lon="-3.113745013251901">
        <ele>1336</ele>
        <time>2003-04-19T12:05:02Z</time>
      </trkpt>
      <trkpt lat="33.647808004170656" lon="-3.113821959123015">
        <ele>1335.5</ele>
        <time>2003-04-19T12:05:06Z</time>
      </trkpt>
      <trkpt lat="33.648703023791313" lon="-3.114023040980101">
        <ele>1334.5999999999999</ele>
        <time>2003-04-19T12:05:14Z</time>
      </trkpt>
      <trkpt lat="33.649124968796968" lon="-3.114071991294622">
        <ele>1334.3</ele>
        <time>2003-04-19T12:05:18Z</time>
      </trkpt>
      <trkpt lat="33.649755036458373" lon="-3.114097975194454">
        <ele>1333.9000000000001</ele>
        <time>2003-04-19T12:05:25Z</time>
      </trkpt>
      <trkpt lat="33.650762038305402" lon="-3.114023040980101">
        <ele>1333.8</ele>
        <time>2003-04-19T12:05:33Z</time>
      </trkpt>
      <trkpt lat="33.651756970211864" lon="-3.113842997699976">
        <ele>1334.5</ele>
        <time>2003-04-19T12:05:41Z</time>
      </trkpt>
      <trkpt lat="33.652657018974423" lon="-3.113536974415183">
        <ele>1335.5999999999999</ele>
        <time>2003-04-19T12:05:49Z</time>
      </trkpt>
      <trkpt lat="33.653578022494912" lon="-3.113100025802851">
        <ele>1336</ele>
        <time>2003-04-19T12:05:56Z</time>
      </trkpt>
      <trkpt lat="33.654374973848462" lon="-3.112589986994863">
        <ele>1336.5</ele>
        <time>2003-04-19T12:06:01Z</time>
      </trkpt>
      <trkpt lat="33.65516203455627" lon="-3.111937958747149">
        <ele>1336.0999999999999</ele>
        <time>2003-04-19T12:06:08Z</time>
      </trkpt>
      <trkpt lat="33.655882040038705" lon="-3.111200015991926">
        <ele>1335.2</ele>
        <time>2003-04-19T12:06:14Z</time>
      </trkpt>
      <trkpt lat="33.656570026651025" lon="-3.110447991639376">
        <ele>1334.3</ele>
        <time>2003-04-19T12:06:19Z</time>
      </trkpt>
      <trkpt lat="33.657248038798571" lon="-3.109681969508529">
        <ele>1332.7</ele>
        <time>2003-04-19T12:06:26Z</time>
      </trkpt>
      <trkpt lat="33.657924961298704" lon="-3.108915025368333">
        <ele>1331.5</ele>
        <time>2003-04-19T12:06:31Z</time>
      </trkpt>
      <trkpt lat="33.658592998981476" lon="-3.108183033764362">
        <ele>1330.8</ele>
        <time>2003-04-19T12:06:38Z</time>
      </trkpt>
      <trkpt lat="33.659303029999137" lon="-3.10740795917809">
        <ele>1330.7</ele>
        <time>2003-04-19T12:06:43Z</time>
      </trkpt>
      <trkpt lat="33.660005014389753" lon="-3.106645038351417">
        <ele>1330.2</ele>
        <time>2003-04-19T12:06:50Z</time>
      </trkpt>
      <trkpt lat="33.660156978294253" lon="-3.106472035869956">
        <ele>1329.5999999999999</ele>
        <time>2003-04-19T12:06:51Z</time>
      </trkpt>
      <trkpt lat="33.66081302985549" lon="-3.105747001245618">
        <ele>1329.9000000000001</ele>
        <time>2003-04-19T12:06:58Z</time>
      </trkpt>
      <trkpt lat="33.66148198954761" lon="-3.105006963014603">
        <ele>1329.8</ele>
        <time>2003-04-19T12:07:05Z</time>
      </trkpt>
      <trkpt lat="33.662235019728541" lon="-3.104167012497783">
        <ele>1329.9000000000001</ele>
        <time>2003-04-19T12:07:10Z</time>
      </trkpt>
      <trkpt lat="33.662923006340861" lon="-3.103409959003329">
        <ele>1330.3</ele>
        <time>2003-04-19T12:07:16Z</time>
      </trkpt>
      <trkpt lat="33.663613004609942" lon="-3.102639997377992">
        <ele>1331</ele>
        <time>2003-04-19T12:07:21Z</time>
      </trkpt>
      <trkpt lat="33.664263021200895" lon="-3.101853020489216">
        <ele>1331.8</ele>
        <time>2003-04-19T12:07:25Z</time>
      </trkpt>
      <trkpt lat="33.665017979219556" lon="-3.101007035002112">
        <ele>1333.8</ele>
        <time>2003-04-19T12:07:32Z</time>
      </trkpt>
      <trkpt lat="33.665760029107332" lon="-3.100245036184788">
        <ele>1334.3</ele>
        <time>2003-04-19T12:07:37Z</time>
      </trkpt>
      <trkpt lat="33.666527979075909" lon="-3.099429979920387">
        <ele>1334.9000000000001</ele>
        <time>2003-04-19T12:07:44Z</time>
      </trkpt>
      <trkpt lat="33.667364995926619" lon="-3.098612995818257">
        <ele>1336.2</ele>
        <time>2003-04-19T12:07:49Z</time>
      </trkpt>
      <trkpt lat="33.668106961995363" lon="-3.097913023084402">
        <ele>1336.7</ele>
        <time>2003-04-19T12:07:55Z</time>
      </trkpt>
      <trkpt lat="33.668859992176294" lon="-3.097216989845038">
        <ele>1337.5</ele>
        <time>2003-04-19T12:08:00Z</time>
      </trkpt>
      <trkpt lat="33.669619979336858" lon="-3.09651299379766">
        <ele>1336.7</ele>
        <time>2003-04-19T12:08:04Z</time>
      </trkpt>
      <trkpt lat="33.670377032831311" lon="-3.095812015235424">
        <ele>1335.5</ele>
        <time>2003-04-19T12:08:10Z</time>
      </trkpt>
      <trkpt lat="33.671112963929772" lon="-3.095123022794724">
        <ele>1333.9000000000001</ele>
        <time>2003-04-19T12:08:15Z</time>
      </trkpt>
      <trkpt lat="33.671831963583827" lon="-3.094466971233487">
        <ele>1333.2</ele>
        <time>2003-04-19T12:08:19Z</time>
      </trkpt>
      <trkpt lat="33.672641990706325" lon="-3.093710001558065">
        <ele>1332.5999999999999</ele>
        <time>2003-04-19T12:08:26Z</time>
      </trkpt>
      <trkpt lat="33.67338496260345" lon="-3.092999970540404">
        <ele>1331.7</ele>
        <time>2003-04-19T12:08:31Z</time>
      </trkpt>
      <trkpt lat="33.674160037189722" lon="-3.092264961451292">
        <ele>1330.5999999999999</ele>
        <time>2003-04-19T12:08:38Z</time>
      </trkpt>
      <trkpt lat="33.674871996045113" lon="-3.091606982052326">
        <ele>1330.0999999999999</ele>
        <time>2003-04-19T12:08:43Z</time>
      </trkpt>
      <trkpt lat="33.675009962171316" lon="-3.091459963470697">
        <ele>1330.2</ele>
        <time>2003-04-19T12:08:46Z</time>
      </trkpt>
      <trkpt lat="33.675220012664795" lon="-3.091257037594914">
        <ele>1329.5</ele>
        <time>2003-04-19T12:08:49Z</time>
      </trkpt>
      <trkpt lat="33.675806997343898" lon="-3.090723026543856">
        <ele>1329.8</ele>
        <time>2003-04-19T12:08:58Z</time>
      </trkpt>
      <trkpt lat="33.676451984792948" lon="-3.090118020772934">
        <ele>1329.9000000000001</ele>
        <time>2003-04-19T12:09:05Z</time>
      </trkpt>
      <trkpt lat="33.676530020311475" lon="-3.090049959719181">
        <ele>1329.9000000000001</ele>
        <time>2003-04-19T12:09:05Z</time>
      </trkpt>
      <trkpt lat="33.677060008049011" lon="-3.089537993073463">
        <ele>1330.2</ele>
        <time>2003-04-19T12:09:12Z</time>
      </trkpt>
      <trkpt lat="33.677612040191889" lon="-3.089004987850785">
        <ele>1331.0999999999999</ele>
        <time>2003-04-19T12:09:17Z</time>
      </trkpt>
      <trkpt lat="33.678336990997195" lon="-3.088347008451819">
        <ele>1332.4000000000001</ele>
        <time>2003-04-19T12:09:23Z</time>
      </trkpt>
      <trkpt lat="33.679105024784803" lon="-3.087636977434158">
        <ele>1333.8</ele>
        <time>2003-04-19T12:09:28Z</time>
      </trkpt>
      <trkpt lat="33.67991697974503" lon="-3.086892999708653">
        <ele>1335.2</ele>
        <time>2003-04-19T12:09:35Z</time>
      </trkpt>
      <trkpt lat="33.680742010474205" lon="-3.086129995062947">
        <ele>1335.7</ele>
        <time>2003-04-19T12:09:40Z</time>
      </trkpt>
      <trkpt lat="33.681557988747954" lon="-3.085372019559145">
        <ele>1335.7</ele>
        <time>2003-04-19T12:09:47Z</time>
      </trkpt>
      <trkpt lat="33.682338008657098" lon="-3.084659976884723">
        <ele>1335.5</ele>
        <time>2003-04-19T12:09:52Z</time>
      </trkpt>
      <trkpt lat="33.683163039386272" lon="-3.083886997774243">
        <ele>1336.0999999999999</ele>
        <time>2003-04-19T12:09:59Z</time>
      </trkpt>
      <trkpt lat="33.68389000184834" lon="-3.083207979798317">
        <ele>1336</ele>
        <time>2003-04-19T12:10:06Z</time>
      </trkpt>
      <trkpt lat="33.684707991778851" lon="-3.082440029829741">
        <ele>1335.4000000000001</ele>
        <time>2003-04-19T12:10:12Z</time>
      </trkpt>
      <trkpt lat="33.685452975332737" lon="-3.081739973276854">
        <ele>1334</ele>
        <time>2003-04-19T12:10:19Z</time>
      </trkpt>
      <trkpt lat="33.686178009957075" lon="-3.081037988886237">
        <ele>1332.4000000000001</ele>
        <time>2003-04-19T12:10:25Z</time>
      </trkpt>
      <trkpt lat="33.686916958540678" lon="-3.080393001437187">
        <ele>1333.2</ele>
        <time>2003-04-19T12:10:30Z</time>
      </trkpt>
      <trkpt lat="33.687532022595406" lon="-3.079801993444562">
        <ele>1333.0999999999999</ele>
        <time>2003-04-19T12:10:35Z</time>
      </trkpt>
      <trkpt lat="33.688009958714247" lon="-3.079362027347088">
        <ele>1333.0999999999999</ele>
        <time>2003-04-19T12:10:39Z</time>
      </trkpt>
      <trkpt lat="33.688214980065823" lon="-3.07915298268199">
        <ele>1333</ele>
        <time>2003-04-19T12:10:42Z</time>
      </trkpt>
      <trkpt lat="33.688286980614066" lon="-3.079070001840591">
        <ele>1333</ele>
        <time>2003-04-19T12:10:42Z</time>
      </trkpt>
      <trkpt lat="33.688363004475832" lon="-3.078991966322064">
        <ele>1333.2</ele>
        <time>2003-04-19T12:10:45Z</time>
      </trkpt>
      <trkpt lat="33.688550004735589" lon="-3.07880999520421">
        <ele>1333.2</ele>
        <time>2003-04-19T12:10:48Z</time>
      </trkpt>
      <trkpt lat="33.688725018873811" lon="-3.078664988279343">
        <ele>1333.2</ele>
        <time>2003-04-19T12:10:49Z</time>
      </trkpt>
      <trkpt lat="33.688927022740245" lon="-3.078483017161489">
        <ele>1333.2</ele>
        <time>2003-04-19T12:10:52Z</time>
      </trkpt>
      <trkpt lat="33.689479976892471" lon="-3.077967027202249">
        <ele>1333.5</ele>
        <time>2003-04-19T12:10:57Z</time>
      </trkpt>
      <trkpt lat="33.690211968496442" lon="-3.077230006456375">
        <ele>1334.2</ele>
        <time>2003-04-19T12:11:02Z</time>
      </trkpt>
      <trkpt lat="33.691047979518771" lon="-3.076461972668767">
        <ele>1335.5</ele>
        <time>2003-04-19T12:11:09Z</time>
      </trkpt>
      <trkpt lat="33.691896982491016" lon="-3.075732998549938">
        <ele>1336.2</ele>
        <time>2003-04-19T12:11:15Z</time>
      </trkpt>
      <trkpt lat="33.692683037370443" lon="-3.0750079639256">
        <ele>1336.5</ele>
        <time>2003-04-19T12:11:20Z</time>
      </trkpt>
      <trkpt lat="33.693437995389104" lon="-3.074294999241829">
        <ele>1337.0999999999999</ele>
        <time>2003-04-19T12:11:27Z</time>
      </trkpt>
      <trkpt lat="33.694236958399415" lon="-3.073569964617491">
        <ele>1337.3</ele>
        <time>2003-04-19T12:11:32Z</time>
      </trkpt>
      <trkpt lat="33.695042040199041" lon="-3.072822969406843">
        <ele>1337.0999999999999</ele>
        <time>2003-04-19T12:11:39Z</time>
      </trkpt>
      <trkpt lat="33.695374969393015" lon="-3.07249004021287">
        <ele>1336.9000000000001</ele>
        <time>2003-04-19T12:11:42Z</time>
      </trkpt>
      <trkpt lat="33.695760034024715" lon="-3.072116961702704">
        <ele>1336.7</ele>
        <time>2003-04-19T12:11:46Z</time>
      </trkpt>
      <trkpt lat="33.695982992649078" lon="-3.071904983371496">
        <ele>1337</ele>
        <time>2003-04-19T12:11:48Z</time>
      </trkpt>
      <trkpt lat="33.696097992360592" lon="-3.071810016408563">
        <ele>1336.3</ele>
        <time>2003-04-19T12:11:51Z</time>
      </trkpt>
      <trkpt lat="33.69639496318996" lon="-3.071552021428943">
        <ele>1336.5999999999999</ele>
        <time>2003-04-19T12:11:55Z</time>
      </trkpt>
      <trkpt lat="33.697012960910797" lon="-3.070963025093079">
        <ele>1336.7</ele>
        <time>2003-04-19T12:12:03Z</time>
      </trkpt>
      <trkpt lat="33.697234997525811" lon="-3.070766972377896">
        <ele>1337</ele>
        <time>2003-04-19T12:12:06Z</time>
      </trkpt>
      <trkpt lat="33.697483018040657" lon="-3.070532027631998">
        <ele>1337</ele>
        <time>2003-04-19T12:12:09Z</time>
      </trkpt>
      <trkpt lat="33.698205035179853" lon="-3.069837000221014">
        <ele>1338.4000000000001</ele>
        <time>2003-04-19T12:12:18Z</time>
      </trkpt>
      <trkpt lat="33.698321962729096" lon="-3.069649999961257">
        <ele>1338.5</ele>
        <time>2003-04-19T12:12:19Z</time>
      </trkpt>
      <trkpt lat="33.698394969105721" lon="-3.06944296695292">
        <ele>1338.8</ele>
        <time>2003-04-19T12:12:22Z</time>
      </trkpt>
      <trkpt lat="33.698447020724416" lon="-3.069350011646748">
        <ele>1338.5</ele>
        <time>2003-04-19T12:12:22Z</time>
      </trkpt>
      <trkpt lat="33.698696969076991" lon="-3.068980034440756">
        <ele>1338.8</ele>
        <time>2003-04-19T12:12:26Z</time>
      </trkpt>
      <trkpt lat="33.699050014838576" lon="-3.068592036142945">
        <ele>1339.5999999999999</ele>
        <time>2003-04-19T12:12:30Z</time>
      </trkpt>
      <trkpt lat="33.699740013107657" lon="-3.067873036488891">
        <ele>1340.5</ele>
        <time>2003-04-19T12:12:37Z</time>
      </trkpt>
      <trkpt lat="33.699970012530684" lon="-3.067632978782058">
        <ele>1341</ele>
        <time>2003-04-19T12:12:41Z</time>
      </trkpt>
      <trkpt lat="33.700062967836857" lon="-3.067482020705938">
        <ele>1341</ele>
        <time>2003-04-19T12:12:42Z</time>
      </trkpt>
      <trkpt lat="33.700147038325667" lon="-3.067278005182743">
        <ele>1341.2</ele>
        <time>2003-04-19T12:12:45Z</time>
      </trkpt>
      <trkpt lat="33.700264971703291" lon="-3.067069966346026">
        <ele>1341.5</ele>
        <time>2003-04-19T12:12:46Z</time>
      </trkpt>
      <trkpt lat="33.700348036363721" lon="-3.066980028524995">
        <ele>1341.5</ele>
        <time>2003-04-19T12:12:48Z</time>
      </trkpt>
      <trkpt lat="33.700622040778399" lon="-3.066723039373756">
        <ele>1341.8</ele>
        <time>2003-04-19T12:12:50Z</time>
      </trkpt>
      <trkpt lat="33.701205002143979" lon="-3.066321965306997">
        <ele>1342.7</ele>
        <time>2003-04-19T12:12:56Z</time>
      </trkpt>
      <trkpt lat="33.701961971819401" lon="-3.065762976184487">
        <ele>1343.5</ele>
        <time>2003-04-19T12:13:01Z</time>
      </trkpt>
      <trkpt lat="33.702626992017031" lon="-3.06499301455915">
        <ele>1344.4000000000001</ele>
        <time>2003-04-19T12:13:08Z</time>
      </trkpt>
      <trkpt lat="33.703129990026355" lon="-3.06454299017787">
        <ele>1345.2</ele>
        <time>2003-04-19T12:13:12Z</time>
      </trkpt>
      <trkpt lat="33.703973041847348" lon="-3.063960028812289">
        <ele>1346</ele>
        <time>2003-04-19T12:13:17Z</time>
      </trkpt>
      <trkpt lat="33.704381994903088" lon="-3.063594996929169">
        <ele>1346.7</ele>
        <time>2003-04-19T12:13:20Z</time>
      </trkpt>
      <trkpt lat="33.705201996490359" lon="-3.062850013375282">
        <ele>1348.0999999999999</ele>
        <time>2003-04-19T12:13:27Z</time>
      </trkpt>
      <trkpt lat="33.706049993634224" lon="-3.062081979587674">
        <ele>1349</ele>
        <time>2003-04-19T12:13:32Z</time>
      </trkpt>
      <trkpt lat="33.70685800909996" lon="-3.061364991590381">
        <ele>1349.7</ele>
        <time>2003-04-19T12:13:39Z</time>
      </trkpt>
      <trkpt lat="33.707448011264205" lon="-3.060913039371371">
        <ele>1350.3</ele>
        <time>2003-04-19T12:13:43Z</time>
      </trkpt>
      <trkpt lat="33.707527974620461" lon="-3.060792004689574">
        <ele>1350.5</ele>
        <time>2003-04-19T12:13:44Z</time>
      </trkpt>
      <trkpt lat="33.708127029240131" lon="-3.059769999235869">
        <ele>1350.8</ele>
        <time>2003-04-19T12:13:51Z</time>
      </trkpt>
      <trkpt lat="33.708594990894198" lon="-3.058712035417557">
        <ele>1351</ele>
        <time>2003-04-19T12:13:58Z</time>
      </trkpt>
      <trkpt lat="33.709024982526898" lon="-3.057572012767196">
        <ele>1351</ele>
        <time>2003-04-19T12:14:03Z</time>
      </trkpt>
      <trkpt lat="33.709411974996328" lon="-3.056469960138202">
        <ele>1350.7</ele>
        <time>2003-04-19T12:14:10Z</time>
      </trkpt>
      <trkpt lat="33.709812965244055" lon="-3.055403027683497">
        <ele>1350.3</ele>
        <time>2003-04-19T12:14:15Z</time>
      </trkpt>
      <trkpt lat="33.710183026269078" lon="-3.054392002522945">
        <ele>1349.7</ele>
        <time>2003-04-19T12:14:22Z</time>
      </trkpt>
      <trkpt lat="33.710572030395269" lon="-3.053406961262226">
        <ele>1348.7</ele>
        <time>2003-04-19T12:14:28Z</time>
      </trkpt>
      <trkpt lat="33.710958017036319" lon="-3.052427032962441">
        <ele>1347</ele>
        <time>2003-04-19T12:14:33Z</time>
      </trkpt>
      <trkpt lat="33.711354983970523" lon="-3.051341995596886">
        <ele>1345.7</ele>
        <time>2003-04-19T12:14:40Z</time>
      </trkpt>
      <trkpt lat="33.711439976468682" lon="-3.051106967031956">
        <ele>1345.5</ele>
        <time>2003-04-19T12:14:41Z</time>
      </trkpt>
      <trkpt lat="33.711484987288713" lon="-3.050960032269359">
        <ele>1345.3</ele>
        <time>2003-04-19T12:14:44Z</time>
      </trkpt>
      <trkpt lat="33.711473001167178" lon="-3.0508369859308">
        <ele>1345.3</ele>
        <time>2003-04-19T12:14:48Z</time>
      </trkpt>
      <trkpt lat="33.711565034464002" lon="-3.050894988700748">
        <ele>1345.4000000000001</ele>
        <time>2003-04-19T12:14:57Z</time>
      </trkpt>
      <trkpt lat="33.711462020874023" lon="-3.051060028374195">
        <ele>1346</ele>
        <time>2003-04-19T12:15:12Z</time>
      </trkpt>
      <trkpt lat="33.711397983133793" lon="-3.051196988672018">
        <ele>1346.5</ele>
        <time>2003-04-19T12:15:14Z</time>
      </trkpt>
      <trkpt lat="33.711350038647652" lon="-3.051366973668337">
        <ele>1346.7</ele>
        <time>2003-04-19T12:15:16Z</time>
      </trkpt>
      <trkpt lat="33.711272003129125" lon="-3.051577024161816">
        <ele>1346.9000000000001</ele>
        <time>2003-04-19T12:15:18Z</time>
      </trkpt>
      <trkpt lat="33.711182987317443" lon="-3.051818003877997">
        <ele>1347.2</ele>
        <time>2003-04-19T12:15:19Z</time>
      </trkpt>
      <trkpt lat="33.711024988442659" lon="-3.052246989682317">
        <ele>1347.8</ele>
        <time>2003-04-19T12:15:23Z</time>
      </trkpt>
      <trkpt lat="33.710651993751526" lon="-3.053219961002469">
        <ele>1349.5</ele>
        <time>2003-04-19T12:15:28Z</time>
      </trkpt>
      <trkpt lat="33.710243040695786" lon="-3.054254958406091">
        <ele>1350.8</ele>
        <time>2003-04-19T12:15:35Z</time>
      </trkpt>
      <trkpt lat="33.709837021306157" lon="-3.055328009650111">
        <ele>1351.5</ele>
        <time>2003-04-19T12:15:41Z</time>
      </trkpt>
      <trkpt lat="33.709423039108515" lon="-3.056461997330189">
        <ele>1352</ele>
        <time>2003-04-19T12:15:46Z</time>
      </trkpt>
      <trkpt lat="33.709015008062124" lon="-3.057615011930466">
        <ele>1352</ele>
        <time>2003-04-19T12:15:53Z</time>
      </trkpt>
      <trkpt lat="33.708645030856133" lon="-3.058608015999198">
        <ele>1352.0999999999999</ele>
        <time>2003-04-19T12:15:58Z</time>
      </trkpt>
      <trkpt lat="33.70836197398603" lon="-3.05930002592504">
        <ele>1352.2</ele>
        <time>2003-04-19T12:16:02Z</time>
      </trkpt>
      <trkpt lat="33.707880014553666" lon="-3.060271991416812">
        <ele>1352.0999999999999</ele>
        <time>2003-04-19T12:16:08Z</time>
      </trkpt>
      <trkpt lat="33.707632999867201" lon="-3.060622019693255">
        <ele>1351.9000000000001</ele>
        <time>2003-04-19T12:16:10Z</time>
      </trkpt>
      <trkpt lat="33.707582959905267" lon="-3.060712041333318">
        <ele>1351.9000000000001</ele>
        <time>2003-04-19T12:16:12Z</time>
      </trkpt>
      <trkpt lat="33.707562005147338" lon="-3.06084799580276">
        <ele>1352.3</ele>
        <time>2003-04-19T12:16:13Z</time>
      </trkpt>
      <trkpt lat="33.707623025402427" lon="-3.06093298830092">
        <ele>1352.3</ele>
        <time>2003-04-19T12:16:16Z</time>
      </trkpt>
      <trkpt lat="33.707750011235476" lon="-3.060883032158017">
        <ele>1352.2</ele>
        <time>2003-04-19T12:16:18Z</time>
      </trkpt>
      <trkpt lat="33.707884959876537" lon="-3.060892000794411">
        <ele>1352.5</ele>
        <time>2003-04-19T12:16:21Z</time>
      </trkpt>
      <trkpt lat="33.708046982064843" lon="-3.060938017442823">
        <ele>1352.7</ele>
        <time>2003-04-19T12:16:22Z</time>
      </trkpt>
      <trkpt lat="33.708240017294884" lon="-3.060970036312938">
        <ele>1352.8</ele>
        <time>2003-04-19T12:16:25Z</time>
      </trkpt>
      <trkpt lat="33.708459958434105" lon="-3.060957966372371">
        <ele>1353.0999999999999</ele>
        <time>2003-04-19T12:16:26Z</time>
      </trkpt>
      <trkpt lat="33.70904803276062" lon="-3.060801979154348">
        <ele>1353.7</ele>
        <time>2003-04-19T12:16:32Z</time>
      </trkpt>
      <trkpt lat="33.709999965503812" lon="-3.060578014701605">
        <ele>1354.8</ele>
        <time>2003-04-19T12:16:39Z</time>
      </trkpt>
      <trkpt lat="33.710116976872087" lon="-3.060511965304613">
        <ele>1354.8</ele>
        <time>2003-04-19T12:16:40Z</time>
      </trkpt>
      <trkpt lat="33.710972014814615" lon="-3.059937972575426">
        <ele>1355.9000000000001</ele>
        <time>2003-04-19T12:16:47Z</time>
      </trkpt>
      <trkpt lat="33.711354983970523" lon="-3.059715013951063">
        <ele>1356.4000000000001</ele>
        <time>2003-04-19T12:16:49Z</time>
      </trkpt>
      <trkpt lat="33.71171498671174" lon="-3.059503035619855">
        <ele>1356.7</ele>
        <time>2003-04-19T12:16:52Z</time>
      </trkpt>
      <trkpt lat="33.712486959993839" lon="-3.058755034580827">
        <ele>1357.3</ele>
        <time>2003-04-19T12:17:00Z</time>
      </trkpt>
      <trkpt lat="33.712612017989159" lon="-3.058674987405539">
        <ele>1357.4000000000001</ele>
        <time>2003-04-19T12:17:00Z</time>
      </trkpt>
      <trkpt lat="33.712998004630208" lon="-3.058397965505719">
        <ele>1356.4000000000001</ele>
        <time>2003-04-19T12:17:04Z</time>
      </trkpt>
      <trkpt lat="33.713826974853873" lon="-3.057690029963851">
        <ele>1356</ele>
        <time>2003-04-19T12:17:10Z</time>
      </trkpt>
      <trkpt lat="33.714667009189725" lon="-3.056962983682752">
        <ele>1355.5999999999999</ele>
        <time>2003-04-19T12:17:15Z</time>
      </trkpt>
      <trkpt lat="33.715157015249133" lon="-3.056487981230021">
        <ele>1355.3</ele>
        <time>2003-04-19T12:17:19Z</time>
      </trkpt>
      <trkpt lat="33.715394977480173" lon="-3.056277008727193">
        <ele>1355.2</ele>
        <time>2003-04-19T12:17:22Z</time>
      </trkpt>
      <trkpt lat="33.715642997995019" lon="-3.056111969053745">
        <ele>1355</ele>
        <time>2003-04-19T12:17:23Z</time>
      </trkpt>
      <trkpt lat="33.715757997706532" lon="-3.056069975718856">
        <ele>1355</ele>
        <time>2003-04-19T12:17:24Z</time>
      </trkpt>
      <trkpt lat="33.715950027108192" lon="-3.055941984057427">
        <ele>1354.8</ele>
        <time>2003-04-19T12:17:27Z</time>
      </trkpt>
      <trkpt lat="33.716039964929223" lon="-3.055836958810687">
        <ele>1354.5</ele>
        <time>2003-04-19T12:17:27Z</time>
      </trkpt>
      <trkpt lat="33.716344982385635" lon="-3.055503023788333">
        <ele>1353.9000000000001</ele>
        <time>2003-04-19T12:17:31Z</time>
      </trkpt>
      <trkpt lat="33.716589985415339" lon="-3.055351981893182">
        <ele>1353.5999999999999</ele>
        <time>2003-04-19T12:17:33Z</time>
      </trkpt>
      <trkpt lat="33.716801963746548" lon="-3.055179985240102">
        <ele>1353.5999999999999</ele>
        <time>2003-04-19T12:17:34Z</time>
      </trkpt>
      <trkpt lat="33.716889973729849" lon="-3.055062973871827">
        <ele>1353.5999999999999</ele>
        <time>2003-04-19T12:17:35Z</time>
      </trkpt>
      <trkpt lat="33.717122990638018" lon="-3.054787963628769">
        <ele>1353.2</ele>
        <time>2003-04-19T12:17:38Z</time>
      </trkpt>
      <trkpt lat="33.717222986742854" lon="-3.054742030799389">
        <ele>1353.3</ele>
        <time>2003-04-19T12:17:41Z</time>
      </trkpt>
      <trkpt lat="33.717434965074062" lon="-3.054643040522933">
        <ele>1353.2</ele>
        <time>2003-04-19T12:17:43Z</time>
      </trkpt>
      <trkpt lat="33.717672005295753" lon="-3.054486969485879">
        <ele>1353.7</ele>
        <time>2003-04-19T12:17:46Z</time>
      </trkpt>
      <trkpt lat="33.717856993898749" lon="-3.054410023614764">
        <ele>1353.7</ele>
        <time>2003-04-19T12:17:49Z</time>
      </trkpt>
      <trkpt lat="33.718127980828285" lon="-3.05425001308322">
        <ele>1353.7</ele>
        <time>2003-04-19T12:17:51Z</time>
      </trkpt>
      <trkpt lat="33.718307018280029" lon="-3.054080028086901">
        <ele>1353.9000000000001</ele>
        <time>2003-04-19T12:17:54Z</time>
      </trkpt>
      <trkpt lat="33.718617986887693" lon="-3.05382002145052">
        <ele>1354.0999999999999</ele>
        <time>2003-04-19T12:17:57Z</time>
      </trkpt>
      <trkpt lat="33.719260040670633" lon="-3.053403021767736">
        <ele>1354.5999999999999</ele>
        <time>2003-04-19T12:18:01Z</time>
      </trkpt>
      <trkpt lat="33.720084987580776" lon="-3.052921984344721">
        <ele>1354.7</ele>
        <time>2003-04-19T12:18:08Z</time>
      </trkpt>
      <trkpt lat="33.720335019752383" lon="-3.052738001570106">
        <ele>1354.7</ele>
        <time>2003-04-19T12:18:09Z</time>
      </trkpt>
      <trkpt lat="33.720714971423149" lon="-3.052453016862273">
        <ele>1354.5999999999999</ele>
        <time>2003-04-19T12:18:13Z</time>
      </trkpt>
      <trkpt lat="33.721534973010421" lon="-3.051968039944768">
        <ele>1354.5999999999999</ele>
        <time>2003-04-19T12:18:18Z</time>
      </trkpt>
      <trkpt lat="33.721766984090209" lon="-3.051775004714727">
        <ele>1354.5</ele>
        <time>2003-04-19T12:18:21Z</time>
      </trkpt>
      <trkpt lat="33.722214996814728" lon="-3.0513930413872">
        <ele>1354.2</ele>
        <time>2003-04-19T12:18:25Z</time>
      </trkpt>
      <trkpt lat="33.722350029274821" lon="-3.051343001425266">
        <ele>1354.2</ele>
        <time>2003-04-19T12:18:25Z</time>
      </trkpt>
      <trkpt lat="33.723031980916858" lon="-3.051017029210925">
        <ele>1354.0999999999999</ele>
        <time>2003-04-19T12:18:31Z</time>
      </trkpt>
      <trkpt lat="33.723812000826001" lon="-3.050467008724809">
        <ele>1354.3</ele>
        <time>2003-04-19T12:18:36Z</time>
      </trkpt>
      <trkpt lat="33.724548015743494" lon="-3.050032993778586">
        <ele>1353.4000000000001</ele>
        <time>2003-04-19T12:18:41Z</time>
      </trkpt>
      <trkpt lat="33.724952023476362" lon="-3.049880024045706">
        <ele>1353.2</ele>
        <time>2003-04-19T12:18:44Z</time>
      </trkpt>
      <trkpt lat="33.72505797073245" lon="-3.04986703209579">
        <ele>1353.0999999999999</ele>
        <time>2003-04-19T12:18:45Z</time>
      </trkpt>
      <trkpt lat="33.725238014012575" lon="-3.049917994067073">
        <ele>1353.0999999999999</ele>
        <time>2003-04-19T12:18:48Z</time>
      </trkpt>
      <trkpt lat="33.725446974858642" lon="-3.049992006272078">
        <ele>1353</ele>
        <time>2003-04-19T12:18:50Z</time>
      </trkpt>
      <trkpt lat="33.72554998844862" lon="-3.049987982958555">
        <ele>1353</ele>
        <time>2003-04-19T12:18:51Z</time>
      </trkpt>
      <trkpt lat="33.725709998980165" lon="-3.049963004887104">
        <ele>1353.0999999999999</ele>
        <time>2003-04-19T12:18:52Z</time>
      </trkpt>
      <trkpt lat="33.725961958989501" lon="-3.049984965473414">
        <ele>1353.2</ele>
        <time>2003-04-19T12:18:55Z</time>
      </trkpt>
      <trkpt lat="33.726048041135073" lon="-3.050050009042025">
        <ele>1353.4000000000001</ele>
        <time>2003-04-19T12:18:58Z</time>
      </trkpt>
      <trkpt lat="33.72619497589767" lon="-3.0501479934901">
        <ele>1353.4000000000001</ele>
        <time>2003-04-19T12:18:59Z</time>
      </trkpt>
      <trkpt lat="33.726284997537732" lon="-3.050146987661719">
        <ele>1353.5</ele>
        <time>2003-04-19T12:19:00Z</time>
      </trkpt>
      <trkpt lat="33.726411983370781" lon="-3.05008496157825">
        <ele>1353.4000000000001</ele>
        <time>2003-04-19T12:19:03Z</time>
      </trkpt>
      <trkpt lat="33.726471997797489" lon="-3.049897039309144">
        <ele>1353.5</ele>
        <time>2003-04-19T12:19:04Z</time>
      </trkpt>
      <trkpt lat="33.72651700861752" lon="-3.049684977158904">
        <ele>1353.4000000000001</ele>
        <time>2003-04-19T12:19:07Z</time>
      </trkpt>
      <trkpt lat="33.726654974743724" lon="-3.049342995509505">
        <ele>1353</ele>
        <time>2003-04-19T12:19:10Z</time>
      </trkpt>
      <trkpt lat="33.726744996383786" lon="-3.049256997182965">
        <ele>1353</ele>
        <time>2003-04-19T12:19:11Z</time>
      </trkpt>
      <trkpt lat="33.726852033287287" lon="-3.049182984977961">
        <ele>1352.8</ele>
        <time>2003-04-19T12:19:11Z</time>
      </trkpt>
      <trkpt lat="33.727338016033173" lon="-3.048783000558615">
        <ele>1352.8</ele>
        <time>2003-04-19T12:19:18Z</time>
      </trkpt>
      <trkpt lat="33.727544965222478" lon="-3.048660038039088">
        <ele>1352.8</ele>
        <time>2003-04-19T12:19:19Z</time>
      </trkpt>
      <trkpt lat="33.727787034586072" lon="-3.048592982813716">
        <ele>1352.8</ele>
        <time>2003-04-19T12:19:22Z</time>
      </trkpt>
      <trkpt lat="33.72814703732729" lon="-3.048474965617061">
        <ele>1353.5</ele>
        <time>2003-04-19T12:19:25Z</time>
      </trkpt>
      <trkpt lat="33.728547021746635" lon="-3.048292994499207">
        <ele>1353.3</ele>
        <time>2003-04-19T12:19:29Z</time>
      </trkpt>
      <trkpt lat="33.728645006194711" lon="-3.048144970089197">
        <ele>1353.3</ele>
        <time>2003-04-19T12:19:30Z</time>
      </trkpt>
      <trkpt lat="33.728627990931273" lon="-3.047952018678188">
        <ele>1353.0999999999999</ele>
        <time>2003-04-19T12:19:33Z</time>
      </trkpt>
      <trkpt lat="33.72859999537468" lon="-3.047837018966675">
        <ele>1352.9000000000001</ele>
        <time>2003-04-19T12:19:34Z</time>
      </trkpt>
      <trkpt lat="33.728617010638118" lon="-3.04769997484982">
        <ele>1352.9000000000001</ele>
        <time>2003-04-19T12:19:38Z</time>
      </trkpt>
      <trkpt lat="33.728624973446131" lon="-3.047544993460178">
        <ele>1352.8</ele>
        <time>2003-04-19T12:19:39Z</time>
      </trkpt>
      <trkpt lat="33.728611981496215" lon="-3.047352964058518">
        <ele>1352.8</ele>
        <time>2003-04-19T12:19:42Z</time>
      </trkpt>
      <trkpt lat="33.728652969002724" lon="-3.047158000990748">
        <ele>1352.8</ele>
        <time>2003-04-19T12:19:44Z</time>
      </trkpt>
      <trkpt lat="33.728766962885857" lon="-3.047000002115965">
        <ele>1352.9000000000001</ele>
        <time>2003-04-19T12:19:46Z</time>
      </trkpt>
      <trkpt lat="33.728850027546287" lon="-3.046943005174398">
        <ele>1352.7</ele>
        <time>2003-04-19T12:19:46Z</time>
      </trkpt>
      <trkpt lat="33.729267027229071" lon="-3.046711999922991">
        <ele>1352.7</ele>
        <time>2003-04-19T12:19:52Z</time>
      </trkpt>
      <trkpt lat="33.729680003598332" lon="-3.046637987717986">
        <ele>1353.4000000000001</ele>
        <time>2003-04-19T12:19:56Z</time>
      </trkpt>
      <trkpt lat="33.730021985247731" lon="-3.04655802436173">
        <ele>1353.5</ele>
        <time>2003-04-19T12:19:58Z</time>
      </trkpt>
      <trkpt lat="33.730227006599307" lon="-3.046555006876588">
        <ele>1353.5999999999999</ele>
        <time>2003-04-19T12:20:00Z</time>
      </trkpt>
      <trkpt lat="33.730332031846046" lon="-3.046532962471247">
        <ele>1353.5</ele>
        <time>2003-04-19T12:20:01Z</time>
      </trkpt>
      <trkpt lat="33.73049296438694" lon="-3.046487029641867">
        <ele>1353.7</ele>
        <time>2003-04-19T12:20:02Z</time>
      </trkpt>
      <trkpt lat="33.730587009340525" lon="-3.04643296636641">
        <ele>1353.8</ele>
        <time>2003-04-19T12:20:05Z</time>
      </trkpt>
      <trkpt lat="33.730650041252375" lon="-3.046342022716999">
        <ele>1353.5</ele>
        <time>2003-04-19T12:20:09Z</time>
      </trkpt>
      <trkpt lat="33.730694968253374" lon="-3.046083021908999">
        <ele>1353.5</ele>
        <time>2003-04-19T12:20:21Z</time>
      </trkpt>
      <trkpt lat="33.730739979073405" lon="-3.045932985842228">
        <ele>1353.5</ele>
        <time>2003-04-19T12:20:24Z</time>
      </trkpt>
      <trkpt lat="33.730814997106791" lon="-3.045778004452586">
        <ele>1353.8</ele>
        <time>2003-04-19T12:20:28Z</time>
      </trkpt>
      <trkpt lat="33.730922034010291" lon="-3.04578697308898">
        <ele>1353.5</ele>
        <time>2003-04-19T12:20:32Z</time>
      </trkpt>
      <trkpt lat="33.731026975437999" lon="-3.045883029699326">
        <ele>1353.7</ele>
        <time>2003-04-19T12:20:35Z</time>
      </trkpt>
      <trkpt lat="33.731141975149512" lon="-3.045967016369104">
        <ele>1353.8</ele>
        <time>2003-04-19T12:20:36Z</time>
      </trkpt>
      <trkpt lat="33.731498038396239" lon="-3.046274967491627">
        <ele>1354.0999999999999</ele>
        <time>2003-04-19T12:20:43Z</time>
      </trkpt>
      <trkpt lat="33.731647990643978" lon="-3.046359959989786">
        <ele>1354.0999999999999</ele>
        <time>2003-04-19T12:20:46Z</time>
      </trkpt>
      <trkpt lat="33.731768019497395" lon="-3.046397008001804">
        <ele>1354.3</ele>
        <time>2003-04-19T12:20:47Z</time>
      </trkpt>
      <trkpt lat="33.732046969234943" lon="-3.046446964144707">
        <ele>1354.5999999999999</ele>
        <time>2003-04-19T12:20:52Z</time>
      </trkpt>
      <trkpt lat="33.732232041656971" lon="-3.046512007713318">
        <ele>1354.8</ele>
        <time>2003-04-19T12:20:55Z</time>
      </trkpt>
      <trkpt lat="33.732515014708042" lon="-3.046603035181761">
        <ele>1355.2</ele>
        <time>2003-04-19T12:20:59Z</time>
      </trkpt>
      <trkpt lat="33.732847021892667" lon="-3.046762961894274">
        <ele>1355.4000000000001</ele>
        <time>2003-04-19T12:21:05Z</time>
      </trkpt>
      <trkpt lat="33.733253041282296" lon="-3.046887014061213">
        <ele>1356.0999999999999</ele>
        <time>2003-04-19T12:21:10Z</time>
      </trkpt>
      <trkpt lat="33.733322024345398" lon="-3.047052975744009">
        <ele>1356.3</ele>
        <time>2003-04-19T12:21:11Z</time>
      </trkpt>
      <trkpt lat="33.733397964388132" lon="-3.047250034287572">
        <ele>1356.4000000000001</ele>
        <time>2003-04-19T12:21:14Z</time>
      </trkpt>
      <trkpt lat="33.733467031270266" lon="-3.047345001250505">
        <ele>1356.5</ele>
        <time>2003-04-19T12:21:14Z</time>
      </trkpt>
      <trkpt lat="33.733710022643209" lon="-3.047644989565015">
        <ele>1356.5999999999999</ele>
        <time>2003-04-19T12:21:18Z</time>
      </trkpt>
      <trkpt lat="33.734157029539347" lon="-3.048223005607724">
        <ele>1356.8</ele>
        <time>2003-04-19T12:21:23Z</time>
      </trkpt>
      <trkpt lat="33.734177984297276" lon="-3.048332976177335">
        <ele>1356.9000000000001</ele>
        <time>2003-04-19T12:21:26Z</time>
      </trkpt>
      <trkpt lat="33.734240010380745" lon="-3.048513019457459">
        <ele>1356.7</ele>
        <time>2003-04-19T12:21:27Z</time>
      </trkpt>
      <trkpt lat="33.734312010928988" lon="-3.048734972253442">
        <ele>1357</ele>
        <time>2003-04-19T12:21:30Z</time>
      </trkpt>
      <trkpt lat="33.734437990933657" lon="-3.049111990258098">
        <ele>1356.7</ele>
        <time>2003-04-19T12:21:33Z</time>
      </trkpt>
      <trkpt lat="33.734498005360365" lon="-3.049230007454753">
        <ele>1356.8</ele>
        <time>2003-04-19T12:21:34Z</time>
      </trkpt>
      <trkpt lat="33.734952975064516" lon="-3.049999969080091">
        <ele>1357.5999999999999</ele>
        <time>2003-04-19T12:21:41Z</time>
      </trkpt>
      <trkpt lat="33.735124971717596" lon="-3.050207002088428">
        <ele>1357.7</ele>
        <time>2003-04-19T12:21:42Z</time>
      </trkpt>
      <trkpt lat="33.735352037474513" lon="-3.050528028979898">
        <ele>1358.0999999999999</ele>
        <time>2003-04-19T12:21:45Z</time>
      </trkpt>
      <trkpt lat="33.73562796972692" lon="-3.050951985642314">
        <ele>1358.2</ele>
        <time>2003-04-19T12:21:49Z</time>
      </trkpt>
      <trkpt lat="33.735955031588674" lon="-3.051427993923426">
        <ele>1358.8</ele>
        <time>2003-04-19T12:21:53Z</time>
      </trkpt>
      <trkpt lat="33.736289972439408" lon="-3.051942978054285">
        <ele>1359.0999999999999</ele>
        <time>2003-04-19T12:21:57Z</time>
      </trkpt>
      <trkpt lat="33.736815014854074" lon="-3.052792986854911">
        <ele>1360</ele>
        <time>2003-04-19T12:22:04Z</time>
      </trkpt>
      <trkpt lat="33.736877040937543" lon="-3.052909998223186">
        <ele>1360</ele>
        <time>2003-04-19T12:22:07Z</time>
      </trkpt>
      <trkpt lat="33.736948035657406" lon="-3.05300303734839">
        <ele>1360.3</ele>
        <time>2003-04-19T12:22:09Z</time>
      </trkpt>
      <trkpt lat="33.737037973478436" lon="-3.053094986826181">
        <ele>1360.4000000000001</ele>
        <time>2003-04-19T12:22:12Z</time>
      </trkpt>
      <trkpt lat="33.737151967361569" lon="-3.053236976265907">
        <ele>1360.5</ele>
        <time>2003-04-19T12:22:13Z</time>
      </trkpt>
      <trkpt lat="33.737275013700128" lon="-3.053421964868903">
        <ele>1360.5999999999999</ele>
        <time>2003-04-19T12:22:16Z</time>
      </trkpt>
      <trkpt lat="33.73783802613616" lon="-3.054265016689897">
        <ele>1361.8</ele>
        <time>2003-04-19T12:22:24Z</time>
      </trkpt>
      <trkpt lat="33.738436996936798" lon="-3.055147966369987">
        <ele>1363</ele>
        <time>2003-04-19T12:22:32Z</time>
      </trkpt>
      <trkpt lat="33.738919962197542" lon="-3.055869983509183">
        <ele>1363.7</ele>
        <time>2003-04-19T12:22:39Z</time>
      </trkpt>
      <trkpt lat="33.739072009921074" lon="-3.056105012074113">
        <ele>1363.8</ele>
        <time>2003-04-19T12:22:40Z</time>
      </trkpt>
      <trkpt lat="33.73966502957046" lon="-3.057013023644686">
        <ele>1365.4000000000001</ele>
        <time>2003-04-19T12:22:47Z</time>
      </trkpt>
      <trkpt lat="33.740046992897987" lon="-3.057664968073368">
        <ele>1365.7</ele>
        <time>2003-04-19T12:22:53Z</time>
      </trkpt>
      <trkpt lat="33.740153023973107" lon="-3.057803018018603">
        <ele>1366.4000000000001</ele>
        <time>2003-04-19T12:22:55Z</time>
      </trkpt>
      <trkpt lat="33.740359973162413" lon="-3.058103006333113">
        <ele>1366.3</ele>
        <time>2003-04-19T12:22:58Z</time>
      </trkpt>
      <trkpt lat="33.740455023944378" lon="-3.058193027973175">
        <ele>1366.2</ele>
        <time>2003-04-19T12:22:58Z</time>
      </trkpt>
      <trkpt lat="33.740553008392453" lon="-3.058252036571503">
        <ele>1366.3</ele>
        <time>2003-04-19T12:22:59Z</time>
      </trkpt>
      <trkpt lat="33.740627020597458" lon="-3.058316996321082">
        <ele>1366.0999999999999</ele>
        <time>2003-04-19T12:23:01Z</time>
      </trkpt>
      <trkpt lat="33.740685023367405" lon="-3.058457979932427">
        <ele>1366.4000000000001</ele>
        <time>2003-04-19T12:23:02Z</time>
      </trkpt>
      <trkpt lat="33.740694997832179" lon="-3.0586579721421">
        <ele>1366.3</ele>
        <time>2003-04-19T12:23:05Z</time>
      </trkpt>
      <trkpt lat="33.740745037794113" lon="-3.05876299738884">
        <ele>1366.3</ele>
        <time>2003-04-19T12:23:06Z</time>
      </trkpt>
      <trkpt lat="33.740813015028834" lon="-3.058855030685663">
        <ele>1366.3</ele>
        <time>2003-04-19T12:23:06Z</time>
      </trkpt>
      <trkpt lat="33.741124989464879" lon="-3.059237999841571">
        <ele>1366.0999999999999</ele>
        <time>2003-04-19T12:23:10Z</time>
      </trkpt>
      <trkpt lat="33.741377033293247" lon="-3.059427011758089">
        <ele>1366.2</ele>
        <time>2003-04-19T12:23:14Z</time>
      </trkpt>
      <trkpt lat="33.74146998859942" lon="-3.059443021193147">
        <ele>1366.2</ele>
        <time>2003-04-19T12:23:15Z</time>
      </trkpt>
      <trkpt lat="33.74155699275434" lon="-3.059658017009497">
        <ele>1366.2</ele>
        <time>2003-04-19T12:23:22Z</time>
      </trkpt>
      <trkpt lat="33.741473006084561" lon="-3.059790031984448">
        <ele>1365.8</ele>
        <time>2003-04-19T12:23:24Z</time>
      </trkpt>
      <trkpt lat="33.741430006921291" lon="-3.059903020039201">
        <ele>1365.2</ele>
        <time>2003-04-19T12:23:25Z</time>
      </trkpt>
      <trkpt lat="33.741373009979725" lon="-3.060127990320325">
        <ele>1364.9000000000001</ele>
        <time>2003-04-19T12:23:29Z</time>
      </trkpt>
      <trkpt lat="33.741441993042827" lon="-3.060233015567064">
        <ele>1365.4000000000001</ele>
        <time>2003-04-19T12:23:32Z</time>
      </trkpt>
      <trkpt lat="33.741526985540986" lon="-3.060339968651533">
        <ele>1365.2</ele>
        <time>2003-04-19T12:23:33Z</time>
      </trkpt>
      <trkpt lat="33.741635028272867" lon="-3.060490004718304">
        <ele>1365.2</ele>
        <time>2003-04-19T12:23:36Z</time>
      </trkpt>
      <trkpt lat="33.741750027984381" lon="-3.060687985271215">
        <ele>1365.5</ele>
        <time>2003-04-19T12:23:37Z</time>
      </trkpt>
      <trkpt lat="33.74185798689723" lon="-3.060898035764694">
        <ele>1365.7</ele>
        <time>2003-04-19T12:23:40Z</time>
      </trkpt>
      <trkpt lat="33.741887994110584" lon="-3.061012029647827">
        <ele>1365.5</ele>
        <time>2003-04-19T12:23:41Z</time>
      </trkpt>
      <trkpt lat="33.741977009922266" lon="-3.061162987723947">
        <ele>1365.4000000000001</ele>
        <time>2003-04-19T12:23:42Z</time>
      </trkpt>
      <trkpt lat="33.742102989926934" lon="-3.061243034899235">
        <ele>1365.5</ele>
        <time>2003-04-19T12:23:45Z</time>
      </trkpt>
      <trkpt lat="33.742347992956638" lon="-3.061391981318593">
        <ele>1366.0999999999999</ele>
        <time>2003-04-19T12:23:48Z</time>
      </trkpt>
      <trkpt lat="33.742510015144944" lon="-3.06151301600039">
        <ele>1366.3</ele>
        <time>2003-04-19T12:23:49Z</time>
      </trkpt>
      <trkpt lat="33.742580004036427" lon="-3.061606977134943">
        <ele>1366.3</ele>
        <time>2003-04-19T12:23:51Z</time>
      </trkpt>
      <trkpt lat="33.743109991773963" lon="-3.062465032562614">
        <ele>1366.7</ele>
        <time>2003-04-19T12:23:59Z</time>
      </trkpt>
      <trkpt lat="33.743248041719198" lon="-3.062650021165609">
        <ele>1367.3</ele>
        <time>2003-04-19T12:24:00Z</time>
      </trkpt>
      <trkpt lat="33.743375027552247" lon="-3.062856970354915">
        <ele>1367.7</ele>
        <time>2003-04-19T12:24:03Z</time>
      </trkpt>
      <trkpt lat="33.743730001151562" lon="-3.063457030802965">
        <ele>1368.4000000000001</ele>
        <time>2003-04-19T12:24:08Z</time>
      </trkpt>
      <trkpt lat="33.743954971432686" lon="-3.063802029937506">
        <ele>1368.7</ele>
        <time>2003-04-19T12:24:11Z</time>
      </trkpt>
      <trkpt lat="33.744052033871412" lon="-3.063881993293762">
        <ele>1368.9000000000001</ele>
        <time>2003-04-19T12:24:12Z</time>
      </trkpt>
      <trkpt lat="33.744217995554209" lon="-3.064058013260365">
        <ele>1369.0999999999999</ele>
        <time>2003-04-19T12:24:14Z</time>
      </trkpt>
      <trkpt lat="33.744277004152536" lon="-3.06415700353682">
        <ele>1369.2</ele>
        <time>2003-04-19T12:24:15Z</time>
      </trkpt>
      <trkpt lat="33.744441960006952" lon="-3.064503008499742">
        <ele>1369.4000000000001</ele>
        <time>2003-04-19T12:24:18Z</time>
      </trkpt>
      <trkpt lat="33.744593001902103" lon="-3.064831998199225">
        <ele>1369.5999999999999</ele>
        <time>2003-04-19T12:24:20Z</time>
      </trkpt>
      <trkpt lat="33.744676988571882" lon="-3.064944986253977">
        <ele>1369.5999999999999</ele>
        <time>2003-04-19T12:24:23Z</time>
      </trkpt>
      <trkpt lat="33.744734991341829" lon="-3.065035007894039">
        <ele>1369.8</ele>
        <time>2003-04-19T12:24:24Z</time>
      </trkpt>
      <trkpt lat="33.744834987446666" lon="-3.06514497846365">
        <ele>1370.0999999999999</ele>
        <time>2003-04-19T12:24:27Z</time>
      </trkpt>
      <trkpt lat="33.745025005191565" lon="-3.065319992601872">
        <ele>1370.3</ele>
        <time>2003-04-19T12:24:30Z</time>
      </trkpt>
      <trkpt lat="33.745158025994897" lon="-3.0654670111835">
        <ele>1370.0999999999999</ele>
        <time>2003-04-19T12:24:32Z</time>
      </trkpt>
      <trkpt lat="33.745200019329786" lon="-3.06559500284493">
        <ele>1370.4000000000001</ele>
        <time>2003-04-19T12:24:36Z</time>
      </trkpt>
      <trkpt lat="33.745200019329786" lon="-3.065742021426559">
        <ele>1370.5999999999999</ele>
        <time>2003-04-19T12:24:39Z</time>
      </trkpt>
      <trkpt lat="33.745260033756495" lon="-3.065932961180806">
        <ele>1370.4000000000001</ele>
        <time>2003-04-19T12:24:41Z</time>
      </trkpt>
      <trkpt lat="33.745324993506074" lon="-3.066021976992488">
        <ele>1370.5</ele>
        <time>2003-04-19T12:24:42Z</time>
      </trkpt>
      <trkpt lat="33.745542000979185" lon="-3.06630302220583">
        <ele>1371.0999999999999</ele>
        <time>2003-04-19T12:24:45Z</time>
      </trkpt>
      <trkpt lat="33.746118005365133" lon="-3.06720701046288">
        <ele>1372.3</ele>
        <time>2003-04-19T12:24:53Z</time>
      </trkpt>
      <trkpt lat="33.7461750023067" lon="-3.067341959103942">
        <ele>1372.3</ele>
        <time>2003-04-19T12:24:54Z</time>
      </trkpt>
      <trkpt lat="33.746438026428223" lon="-3.06815198622644">
        <ele>1372.3</ele>
        <time>2003-04-19T12:24:59Z</time>
      </trkpt>
      <trkpt lat="33.746442971751094" lon="-3.06828198954463">
        <ele>1372.2</ele>
        <time>2003-04-19T12:25:01Z</time>
      </trkpt>
      <trkpt lat="33.746502986177802" lon="-3.068605028092861">
        <ele>1371.7</ele>
        <time>2003-04-19T12:25:03Z</time>
      </trkpt>
      <trkpt lat="33.746801968663931" lon="-3.069137027487159">
        <ele>1371.8</ele>
        <time>2003-04-19T12:25:10Z</time>
      </trkpt>
      <trkpt lat="33.746847985312343" lon="-3.069287985563278">
        <ele>1372.2</ele>
        <time>2003-04-19T12:25:13Z</time>
      </trkpt>
      <trkpt lat="33.746931971982121" lon="-3.069561989977956">
        <ele>1372.2</ele>
        <time>2003-04-19T12:25:17Z</time>
      </trkpt>
      <trkpt lat="33.747000033035874" lon="-3.069738009944558">
        <ele>1372.2</ele>
        <time>2003-04-19T12:25:18Z</time>
      </trkpt>
      <trkpt lat="33.747091982513666" lon="-3.069953005760908">
        <ele>1372.2</ele>
        <time>2003-04-19T12:25:21Z</time>
      </trkpt>
      <trkpt lat="33.747151996940374" lon="-3.070125002413988">
        <ele>1372.3</ele>
        <time>2003-04-19T12:25:24Z</time>
      </trkpt>
      <trkpt lat="33.747242018580437" lon="-3.070321977138519">
        <ele>1372</ele>
        <time>2003-04-19T12:25:25Z</time>
      </trkpt>
      <trkpt lat="33.74735701829195" lon="-3.070684997364879">
        <ele>1371.7</ele>
        <time>2003-04-19T12:25:29Z</time>
      </trkpt>
      <trkpt lat="33.747677961364388" lon="-3.071737010031939">
        <ele>1371.5999999999999</ele>
        <time>2003-04-19T12:25:37Z</time>
      </trkpt>
      <trkpt lat="33.747800001874566" lon="-3.072044961154461">
        <ele>1371.8</ele>
        <time>2003-04-19T12:25:40Z</time>
      </trkpt>
      <trkpt lat="33.747854987159371" lon="-3.072136994451284">
        <ele>1371.8</ele>
        <time>2003-04-19T12:25:40Z</time>
      </trkpt>
      <trkpt lat="33.747924976050854" lon="-3.072222992777824">
        <ele>1371.8</ele>
        <time>2003-04-19T12:25:41Z</time>
      </trkpt>
      <trkpt lat="33.748012986034155" lon="-3.072287030518055">
        <ele>1372</ele>
        <time>2003-04-19T12:25:43Z</time>
      </trkpt>
      <trkpt lat="33.748182971030474" lon="-3.072418039664626">
        <ele>1371.9000000000001</ele>
        <time>2003-04-19T12:25:44Z</time>
      </trkpt>
      <trkpt lat="33.74823996797204" lon="-3.072528010234237">
        <ele>1372.0999999999999</ele>
        <time>2003-04-19T12:25:45Z</time>
      </trkpt>
      <trkpt lat="33.748272992670536" lon="-3.072660025209189">
        <ele>1372.0999999999999</ele>
        <time>2003-04-19T12:25:47Z</time>
      </trkpt>
      <trkpt lat="33.748332001268864" lon="-3.072779970243573">
        <ele>1372.0999999999999</ele>
        <time>2003-04-19T12:25:48Z</time>
      </trkpt>
      <trkpt lat="33.748407019302249" lon="-3.072892958298326">
        <ele>1372.3</ele>
        <time>2003-04-19T12:25:48Z</time>
      </trkpt>
      <trkpt lat="33.748467033728957" lon="-3.073026984930039">
        <ele>1372.5</ele>
        <time>2003-04-19T12:25:49Z</time>
      </trkpt>
      <trkpt lat="33.748789988458157" lon="-3.073928039520979">
        <ele>1372.4000000000001</ele>
        <time>2003-04-19T12:25:56Z</time>
      </trkpt>
      <trkpt lat="33.748852014541626" lon="-3.074064999818802">
        <ele>1372.5999999999999</ele>
        <time>2003-04-19T12:25:56Z</time>
      </trkpt>
      <trkpt lat="33.749006995931268" lon="-3.074476970359683">
        <ele>1372.8</ele>
        <time>2003-04-19T12:26:00Z</time>
      </trkpt>
      <trkpt lat="33.749149991199374" lon="-3.075214996933937">
        <ele>1373</ele>
        <time>2003-04-19T12:26:04Z</time>
      </trkpt>
      <trkpt lat="33.749131970107555" lon="-3.075363021343947">
        <ele>1373.0999999999999</ele>
        <time>2003-04-19T12:26:06Z</time>
      </trkpt>
      <trkpt lat="33.749115038663149" lon="-3.075799969956279">
        <ele>1373.3</ele>
        <time>2003-04-19T12:26:08Z</time>
      </trkpt>
      <trkpt lat="33.74916197732091" lon="-3.075940031558275">
        <ele>1373.4000000000001</ele>
        <time>2003-04-19T12:26:10Z</time>
      </trkpt>
      <trkpt lat="33.749187961220741" lon="-3.076087972149253">
        <ele>1373.7</ele>
        <time>2003-04-19T12:26:11Z</time>
      </trkpt>
      <trkpt lat="33.749198019504547" lon="-3.076240019872785">
        <ele>1373.7</ele>
        <time>2003-04-19T12:26:11Z</time>
      </trkpt>
      <trkpt lat="33.749285023659468" lon="-3.076948039233685">
        <ele>1374.5999999999999</ele>
        <time>2003-04-19T12:26:16Z</time>
      </trkpt>
      <trkpt lat="33.749637985602021" lon="-3.077980019152165">
        <ele>1375.5</ele>
        <time>2003-04-19T12:26:23Z</time>
      </trkpt>
      <trkpt lat="33.749947026371956" lon="-3.078904962167144">
        <ele>1377.2</ele>
        <time>2003-04-19T12:26:31Z</time>
      </trkpt>
      <trkpt lat="33.749992037191987" lon="-3.079072013497353">
        <ele>1377.5</ele>
        <time>2003-04-19T12:26:33Z</time>
      </trkpt>
      <trkpt lat="33.750051967799664" lon="-3.079211991280317">
        <ele>1377.7</ele>
        <time>2003-04-19T12:26:34Z</time>
      </trkpt>
      <trkpt lat="33.750179959461093" lon="-3.079482978209853">
        <ele>1378</ele>
        <time>2003-04-19T12:26:38Z</time>
      </trkpt>
      <trkpt lat="33.75025799497962" lon="-3.079657992348075">
        <ele>1378.2</ele>
        <time>2003-04-19T12:26:42Z</time>
      </trkpt>
      <trkpt lat="33.750397972762585" lon="-3.079810040071607">
        <ele>1378.5</ele>
        <time>2003-04-19T12:26:45Z</time>
      </trkpt>
      <trkpt lat="33.750527976080775" lon="-3.07979503646493">
        <ele>1378.8</ele>
        <time>2003-04-19T12:26:46Z</time>
      </trkpt>
      <trkpt lat="33.75064498744905" lon="-3.0797119718045">
        <ele>1379</ele>
        <time>2003-04-19T12:26:49Z</time>
      </trkpt>
      <trkpt lat="33.750886972993612" lon="-3.079557996243238">
        <ele>1379.5</ele>
        <time>2003-04-19T12:26:53Z</time>
      </trkpt>
      <trkpt lat="33.751219986006618" lon="-3.079394968226552">
        <ele>1380.5</ele>
        <time>2003-04-19T12:26:58Z</time>
      </trkpt>
      <trkpt lat="33.751355018466711" lon="-3.079405026510358">
        <ele>1380.9000000000001</ele>
        <time>2003-04-19T12:27:00Z</time>
      </trkpt>
      <trkpt lat="33.751498013734818" lon="-3.079511979594827">
        <ele>1381.3</ele>
        <time>2003-04-19T12:27:01Z</time>
      </trkpt>
      <trkpt lat="33.751661963760853" lon="-3.079641982913017">
        <ele>1382</ele>
        <time>2003-04-19T12:27:04Z</time>
      </trkpt>
      <trkpt lat="33.752002017572522" lon="-3.07994700036943">
        <ele>1383.5999999999999</ele>
        <time>2003-04-19T12:27:08Z</time>
      </trkpt>
      <trkpt lat="33.752141995355487" lon="-3.080152021721005">
        <ele>1384.4000000000001</ele>
        <time>2003-04-19T12:27:09Z</time>
      </trkpt>
      <trkpt lat="33.752710036933422" lon="-3.080964982509613">
        <ele>1385.8</ele>
        <time>2003-04-19T12:27:17Z</time>
      </trkpt>
      <trkpt lat="33.752802992239594" lon="-3.081024996936321">
        <ele>1386.2</ele>
        <time>2003-04-19T12:27:18Z</time>
      </trkpt>
      <trkpt lat="33.752877004444599" lon="-3.081094985827804">
        <ele>1386.4000000000001</ele>
        <time>2003-04-19T12:27:20Z</time>
      </trkpt>
      <trkpt lat="33.752983035519719" lon="-3.081252984702587">
        <ele>1386.5999999999999</ele>
        <time>2003-04-19T12:27:21Z</time>
      </trkpt>
      <trkpt lat="33.753101974725723" lon="-3.081396985799074">
        <ele>1386.5999999999999</ele>
        <time>2003-04-19T12:27:24Z</time>
      </trkpt>
      <trkpt lat="33.753185039386153" lon="-3.081449959427118">
        <ele>1386.9000000000001</ele>
        <time>2003-04-19T12:27:25Z</time>
      </trkpt>
      <trkpt lat="33.753661969676614" lon="-3.081714995205402">
        <ele>1387.8</ele>
        <time>2003-04-19T12:27:29Z</time>
      </trkpt>
      <trkpt lat="33.753768000751734" lon="-3.081748019903898">
        <ele>1387.9000000000001</ele>
        <time>2003-04-19T12:27:31Z</time>
      </trkpt>
      <trkpt lat="33.754466967657208" lon="-3.081912975758314">
        <ele>1388.8</ele>
        <time>2003-04-19T12:27:37Z</time>
      </trkpt>
      <trkpt lat="33.754669977352023" lon="-3.081909958273172">
        <ele>1388.8</ele>
        <time>2003-04-19T12:27:40Z</time>
      </trkpt>
      <trkpt lat="33.755180016160011" lon="-3.081999979913235">
        <ele>1389.8</ele>
        <time>2003-04-19T12:27:44Z</time>
      </trkpt>
      <trkpt lat="33.755259979516268" lon="-3.082053037360311">
        <ele>1389.4000000000001</ele>
        <time>2003-04-19T12:27:45Z</time>
      </trkpt>
      <trkpt lat="33.755361987277865" lon="-3.082146998494864">
        <ele>1389.2</ele>
        <time>2003-04-19T12:27:48Z</time>
      </trkpt>
      <trkpt lat="33.755500037223101" lon="-3.082225034013391">
        <ele>1388.8</ele>
        <time>2003-04-19T12:27:50Z</time>
      </trkpt>
      <trkpt lat="33.755689971148968" lon="-3.082295022904873">
        <ele>1388.5</ele>
        <time>2003-04-19T12:27:52Z</time>
      </trkpt>
      <trkpt lat="33.756004963070154" lon="-3.082456961274147">
        <ele>1388.0999999999999</ele>
        <time>2003-04-19T12:27:55Z</time>
      </trkpt>
      <trkpt lat="33.756405031308532" lon="-3.082642033696175">
        <ele>1387.5999999999999</ele>
        <time>2003-04-19T12:27:59Z</time>
      </trkpt>
      <trkpt lat="33.756509972736239" lon="-3.082652008160949">
        <ele>1387.5999999999999</ele>
        <time>2003-04-19T12:27:59Z</time>
      </trkpt>
      <trkpt lat="33.756707031279802" lon="-3.082704981788993">
        <ele>1387.5999999999999</ele>
        <time>2003-04-19T12:28:02Z</time>
      </trkpt>
      <trkpt lat="33.756790012121201" lon="-3.082777988165617">
        <ele>1387.5999999999999</ele>
        <time>2003-04-19T12:28:03Z</time>
      </trkpt>
      <trkpt lat="33.756956979632378" lon="-3.082946967333555">
        <ele>1387.5999999999999</ele>
        <time>2003-04-19T12:28:06Z</time>
      </trkpt>
      <trkpt lat="33.757065022364259" lon="-3.083032965660095">
        <ele>1387.7</ele>
        <time>2003-04-19T12:28:08Z</time>
      </trkpt>
      <trkpt lat="33.757202988490462" lon="-3.083137990906835">
        <ele>1387.7</ele>
        <time>2003-04-19T12:28:11Z</time>
      </trkpt>
      <trkpt lat="33.757323017343879" lon="-3.083273023366928">
        <ele>1387.5</ele>
        <time>2003-04-19T12:28:12Z</time>
      </trkpt>
      <trkpt lat="33.757629962638021" lon="-3.083681976422668">
        <ele>1387.9000000000001</ele>
        <time>2003-04-19T12:28:19Z</time>
      </trkpt>
      <trkpt lat="33.757804976776242" lon="-3.083736961707473">
        <ele>1388</ele>
        <time>2003-04-19T12:28:22Z</time>
      </trkpt>
      <trkpt lat="33.757937997579575" lon="-3.083766968920827">
        <ele>1388.3</ele>
        <time>2003-04-19T12:28:25Z</time>
      </trkpt>
      <trkpt lat="33.758083004504442" lon="-3.083737967535853">
        <ele>1388.3</ele>
        <time>2003-04-19T12:28:26Z</time>
      </trkpt>
      <trkpt lat="33.758233040571213" lon="-3.08370997197926">
        <ele>1388.7</ele>
        <time>2003-04-19T12:28:30Z</time>
      </trkpt>
      <trkpt lat="33.758291965350509" lon="-3.08383502997458">
        <ele>1389</ele>
        <time>2003-04-19T12:28:33Z</time>
      </trkpt>
      <trkpt lat="33.758381986990571" lon="-3.083954975008965">
        <ele>1389.2</ele>
        <time>2003-04-19T12:28:35Z</time>
      </trkpt>
      <trkpt lat="33.758545015007257" lon="-3.084141975268722">
        <ele>1390</ele>
        <time>2003-04-19T12:28:38Z</time>
      </trkpt>
      <trkpt lat="33.75876503996551" lon="-3.084365017712116">
        <ele>1390.5999999999999</ele>
        <time>2003-04-19T12:28:41Z</time>
      </trkpt>
      <trkpt lat="33.759102998301387" lon="-3.084737006574869">
        <ele>1391.7</ele>
        <time>2003-04-19T12:28:45Z</time>
      </trkpt>
      <trkpt lat="33.759665004909039" lon="-3.085315022617579">
        <ele>1392.9000000000001</ele>
        <time>2003-04-19T12:28:52Z</time>
      </trkpt>
      <trkpt lat="33.759940015152097" lon="-3.085636971518397">
        <ele>1393.5999999999999</ele>
        <time>2003-04-19T12:28:53Z</time>
      </trkpt>
      <trkpt lat="33.760207984596491" lon="-3.085948023945093">
        <ele>1394.0999999999999</ele>
        <time>2003-04-19T12:28:57Z</time>
      </trkpt>
      <trkpt lat="33.760697990655899" lon="-3.086459990590811">
        <ele>1394.8</ele>
        <time>2003-04-19T12:29:02Z</time>
      </trkpt>
      <trkpt lat="33.760988004505634" lon="-3.086727038025856">
        <ele>1395.5</ele>
        <time>2003-04-19T12:29:05Z</time>
      </trkpt>
      <trkpt lat="33.761286986991763" lon="-3.087087040767074">
        <ele>1395.8</ele>
        <time>2003-04-19T12:29:09Z</time>
      </trkpt>
      <trkpt lat="33.761462001129985" lon="-3.08729499578476">
        <ele>1396.0999999999999</ele>
        <time>2003-04-19T12:29:12Z</time>
      </trkpt>
      <trkpt lat="33.761487985029817" lon="-3.087473027408123">
        <ele>1396</ele>
        <time>2003-04-19T12:29:13Z</time>
      </trkpt>
      <trkpt lat="33.76147298142314" lon="-3.087582997977734">
        <ele>1395.9000000000001</ele>
        <time>2003-04-19T12:29:15Z</time>
      </trkpt>
      <trkpt lat="33.761416990309954" lon="-3.087821966037154">
        <ele>1395</ele>
        <time>2003-04-19T12:29:16Z</time>
      </trkpt>
      <trkpt lat="33.761333003640175" lon="-3.088107034564018">
        <ele>1394.3</ele>
        <time>2003-04-19T12:29:19Z</time>
      </trkpt>
      <trkpt lat="33.761307019740343" lon="-3.088272996246815">
        <ele>1394</ele>
        <time>2003-04-19T12:29:20Z</time>
      </trkpt>
      <trkpt lat="33.761267038062215" lon="-3.088947990909219">
        <ele>1394</ele>
        <time>2003-04-19T12:29:24Z</time>
      </trkpt>
      <trkpt lat="33.761316994205117" lon="-3.089249990880489">
        <ele>1394.3</ele>
        <time>2003-04-19T12:29:25Z</time>
      </trkpt>
      <trkpt lat="33.761384971439838" lon="-3.089406983926892">
        <ele>1394</ele>
        <time>2003-04-19T12:29:28Z</time>
      </trkpt>
      <trkpt lat="33.761512041091919" lon="-3.089718036353588">
        <ele>1394</ele>
        <time>2003-04-19T12:29:32Z</time>
      </trkpt>
      <trkpt lat="33.761538024991751" lon="-3.089851979166269">
        <ele>1393.5999999999999</ele>
        <time>2003-04-19T12:29:33Z</time>
      </trkpt>
      <trkpt lat="33.761529978364706" lon="-3.089979970827699">
        <ele>1394.0999999999999</ele>
        <time>2003-04-19T12:29:36Z</time>
      </trkpt>
      <trkpt lat="33.761457977816463" lon="-3.090122966095805">
        <ele>1394</ele>
        <time>2003-04-19T12:29:38Z</time>
      </trkpt>
      <trkpt lat="33.761339960619807" lon="-3.090250035747886">
        <ele>1394</ele>
        <time>2003-04-19T12:29:40Z</time>
      </trkpt>
      <trkpt lat="33.761216998100281" lon="-3.090392025187612">
        <ele>1394</ele>
        <time>2003-04-19T12:29:42Z</time>
      </trkpt>
      <trkpt lat="33.761123036965728" lon="-3.090586988255382">
        <ele>1393.9000000000001</ele>
        <time>2003-04-19T12:29:44Z</time>
      </trkpt>
      <trkpt lat="33.761105015873909" lon="-3.090707017108798">
        <ele>1394</ele>
        <time>2003-04-19T12:29:46Z</time>
      </trkpt>
      <trkpt lat="33.761108033359051" lon="-3.090832997113466">
        <ele>1394.0999999999999</ele>
        <time>2003-04-19T12:29:46Z</time>
      </trkpt>
      <trkpt lat="33.761082971468568" lon="-3.091200040653348">
        <ele>1394.4000000000001</ele>
        <time>2003-04-19T12:29:48Z</time>
      </trkpt>
      <trkpt lat="33.76104298979044" lon="-3.091316968202591">
        <ele>1395</ele>
        <time>2003-04-19T12:29:50Z</time>
      </trkpt>
      <trkpt lat="33.760754987597466" lon="-3.092073015868664">
        <ele>1395.2</ele>
        <time>2003-04-19T12:29:56Z</time>
      </trkpt>
      <trkpt lat="33.760660020634532" lon="-3.092232020571828">
        <ele>1395.4000000000001</ele>
        <time>2003-04-19T12:29:59Z</time>
      </trkpt>
      <trkpt lat="33.760611992329359" lon="-3.092326987534761">
        <ele>1395.3</ele>
        <time>2003-04-19T12:30:05Z</time>
      </trkpt>
      <trkpt lat="33.760536974295974" lon="-3.092442993074656">
        <ele>1395.2</ele>
        <time>2003-04-19T12:30:33Z</time>
      </trkpt>
      <trkpt lat="33.760432032868266" lon="-3.092607026919723">
        <ele>1395.3</ele>
        <time>2003-04-19T12:30:36Z</time>
      </trkpt>
      <trkpt lat="33.760364977642894" lon="-3.092753039672971">
        <ele>1395.4000000000001</ele>
        <time>2003-04-19T12:30:37Z</time>
      </trkpt>
      <trkpt lat="33.760272022336721" lon="-3.093014974147081">
        <ele>1395.7</ele>
        <time>2003-04-19T12:30:41Z</time>
      </trkpt>
      <trkpt lat="33.760057026520371" lon="-3.093395009636879">
        <ele>1395.4000000000001</ele>
        <time>2003-04-19T12:30:45Z</time>
      </trkpt>
      <trkpt lat="33.759823003783822" lon="-3.093819972127676">
        <ele>1395</ele>
        <time>2003-04-19T12:30:49Z</time>
      </trkpt>
      <trkpt lat="33.759695012122393" lon="-3.094066986814141">
        <ele>1395</ele>
        <time>2003-04-19T12:30:50Z</time>
      </trkpt>
      <trkpt lat="33.759484961628914" lon="-3.094581970945001">
        <ele>1394.7</ele>
        <time>2003-04-19T12:30:54Z</time>
      </trkpt>
      <trkpt lat="33.759190002456307" lon="-3.095689974725246">
        <ele>1394.8</ele>
        <time>2003-04-19T12:31:03Z</time>
      </trkpt>
      <trkpt lat="33.759120013564825" lon="-3.095945036038756">
        <ele>1394.5999999999999</ele>
        <time>2003-04-19T12:31:04Z</time>
      </trkpt>
      <trkpt lat="33.759052036330104" lon="-3.096349965780973">
        <ele>1394.8</ele>
        <time>2003-04-19T12:31:08Z</time>
      </trkpt>
      <trkpt lat="33.758997973054647" lon="-3.096696976572275">
        <ele>1394.9000000000001</ele>
        <time>2003-04-19T12:31:11Z</time>
      </trkpt>
      <trkpt lat="33.758950028568506" lon="-3.096866961568594">
        <ele>1394.9000000000001</ele>
        <time>2003-04-19T12:31:12Z</time>
      </trkpt>
      <trkpt lat="33.758862018585205" lon="-3.097210032865405">
        <ele>1395.2</ele>
        <time>2003-04-19T12:31:16Z</time>
      </trkpt>
      <trkpt lat="33.758736960589886" lon="-3.09769500978291">
        <ele>1395.3</ele>
        <time>2003-04-19T12:31:20Z</time>
      </trkpt>
      <trkpt lat="33.758741989731789" lon="-3.097812021151185">
        <ele>1395</ele>
        <time>2003-04-19T12:31:20Z</time>
      </trkpt>
      <trkpt lat="33.758722962811589" lon="-3.098073033615947">
        <ele>1395.0999999999999</ele>
        <time>2003-04-19T12:31:23Z</time>
      </trkpt>
      <trkpt lat="33.75872497446835" lon="-3.09833999723196">
        <ele>1395.0999999999999</ele>
        <time>2003-04-19T12:31:24Z</time>
      </trkpt>
      <trkpt lat="33.758750036358833" lon="-3.098536971956492">
        <ele>1395.0999999999999</ele>
        <time>2003-04-19T12:31:27Z</time>
      </trkpt>
      <trkpt lat="33.758769985288382" lon="-3.098675021901727">
        <ele>1394.7</ele>
        <time>2003-04-19T12:31:28Z</time>
      </trkpt>
      <trkpt lat="33.758792029693723" lon="-3.098957994952798">
        <ele>1395.3</ele>
        <time>2003-04-19T12:31:32Z</time>
      </trkpt>
      <trkpt lat="33.75876797363162" lon="-3.099141977727413">
        <ele>1395.3</ele>
        <time>2003-04-19T12:31:35Z</time>
      </trkpt>
      <trkpt lat="33.758727991953492" lon="-3.099356973543763">
        <ele>1395.2</ele>
        <time>2003-04-19T12:31:36Z</time>
      </trkpt>
      <trkpt lat="33.75865800306201" lon="-3.099710019305348">
        <ele>1395.3</ele>
        <time>2003-04-19T12:31:39Z</time>
      </trkpt>
      <trkpt lat="33.758564963936806" lon="-3.099934989586473">
        <ele>1395.3</ele>
        <time>2003-04-19T12:31:42Z</time>
      </trkpt>
      <trkpt lat="33.758497992530465" lon="-3.100049989297986">
        <ele>1395.4000000000001</ele>
        <time>2003-04-19T12:31:43Z</time>
      </trkpt>
      <trkpt lat="33.758387016132474" lon="-3.100304966792464">
        <ele>1395.5999999999999</ele>
        <time>2003-04-19T12:31:44Z</time>
      </trkpt>
      <trkpt lat="33.757931962609291" lon="-3.101365026086569">
        <ele>1396.4000000000001</ele>
        <time>2003-04-19T12:31:53Z</time>
      </trkpt>
      <trkpt lat="33.757900027558208" lon="-3.101508021354675">
        <ele>1396.5</ele>
        <time>2003-04-19T12:31:54Z</time>
      </trkpt>
      <trkpt lat="33.757894998416305" lon="-3.101657973602414">
        <ele>1396.8</ele>
        <time>2003-04-19T12:31:55Z</time>
      </trkpt>
      <trkpt lat="33.757921988144517" lon="-3.101957039907575">
        <ele>1397.4000000000001</ele>
        <time>2003-04-19T12:31:57Z</time>
      </trkpt>
      <trkpt lat="33.757945038378239" lon="-3.102385019883514">
        <ele>1397.4000000000001</ele>
        <time>2003-04-19T12:31:59Z</time>
      </trkpt>
      <trkpt lat="33.757997006177902" lon="-3.102642009034753">
        <ele>1397.7</ele>
        <time>2003-04-19T12:32:02Z</time>
      </trkpt>
      <trkpt lat="33.75805702060461" lon="-3.102767989039421">
        <ele>1397.7</ele>
        <time>2003-04-19T12:32:02Z</time>
      </trkpt>
      <trkpt lat="33.75820797868073" lon="-3.103181971237063">
        <ele>1397.8</ele>
        <time>2003-04-19T12:32:06Z</time>
      </trkpt>
      <trkpt lat="33.758334964513779" lon="-3.103562006726861">
        <ele>1397.5999999999999</ele>
        <time>2003-04-19T12:32:09Z</time>
      </trkpt>
      <trkpt lat="33.758535040542483" lon="-3.103902982547879">
        <ele>1397.3</ele>
        <time>2003-04-19T12:32:11Z</time>
      </trkpt>
      <trkpt lat="33.758622966706753" lon="-3.103999961167574">
        <ele>1397.3</ele>
        <time>2003-04-19T12:32:13Z</time>
      </trkpt>
      <trkpt lat="33.758822958916426" lon="-3.104167012497783">
        <ele>1397.0999999999999</ele>
        <time>2003-04-19T12:32:14Z</time>
      </trkpt>
      <trkpt lat="33.759052958339453" lon="-3.104389971122146">
        <ele>1396.8</ele>
        <time>2003-04-19T12:32:18Z</time>
      </trkpt>
      <trkpt lat="33.759133005514741" lon="-3.104525003582239">
        <ele>1396.5999999999999</ele>
        <time>2003-04-19T12:32:20Z</time>
      </trkpt>
      <trkpt lat="33.75921699218452" lon="-3.104745028540492">
        <ele>1396.5999999999999</ele>
        <time>2003-04-19T12:32:22Z</time>
      </trkpt>
      <trkpt lat="33.759223027154803" lon="-3.104887017980218">
        <ele>1397.0999999999999</ele>
        <time>2003-04-19T12:32:25Z</time>
      </trkpt>
      <trkpt lat="33.7592370249331" lon="-3.10506203211844">
        <ele>1397.2</ele>
        <time>2003-04-19T12:32:26Z</time>
      </trkpt>
      <trkpt lat="33.759292010217905" lon="-3.10525800101459">
        <ele>1397.3</ele>
        <time>2003-04-19T12:32:29Z</time>
      </trkpt>
      <trkpt lat="33.759387983009219" lon="-3.105605011805892">
        <ele>1397.5</ele>
        <time>2003-04-19T12:32:32Z</time>
      </trkpt>
      <trkpt lat="33.759498037397861" lon="-3.105927966535091">
        <ele>1397.4000000000001</ele>
        <time>2003-04-19T12:32:34Z</time>
      </trkpt>
      <trkpt lat="33.759570037946105" lon="-3.106147991493344">
        <ele>1397.5999999999999</ele>
        <time>2003-04-19T12:32:37Z</time>
      </trkpt>
      <trkpt lat="33.759761983528733" lon="-3.106502965092659">
        <ele>1397.8</ele>
        <time>2003-04-19T12:32:40Z</time>
      </trkpt>
      <trkpt lat="33.760102959349751" lon="-3.107021972537041">
        <ele>1398.4000000000001</ele>
        <time>2003-04-19T12:32:44Z</time>
      </trkpt>
      <trkpt lat="33.760694973170757" lon="-3.107897965237498">
        <ele>1399.5999999999999</ele>
        <time>2003-04-19T12:32:49Z</time>
      </trkpt>
      <trkpt lat="33.761148015037179" lon="-3.108483022078872">
        <ele>1400.4000000000001</ele>
        <time>2003-04-19T12:32:53Z</time>
      </trkpt>
      <trkpt lat="33.761668028309941" lon="-3.109192969277501">
        <ele>1401.0999999999999</ele>
        <time>2003-04-19T12:32:59Z</time>
      </trkpt>
      <trkpt lat="33.761865003034472" lon="-3.109441995620728">
        <ele>1401.2</ele>
        <time>2003-04-19T12:33:00Z</time>
      </trkpt>
      <trkpt lat="33.761974973604083" lon="-3.109537968412042">
        <ele>1401.4000000000001</ele>
        <time>2003-04-19T12:33:01Z</time>
      </trkpt>
      <trkpt lat="33.762373030185699" lon="-3.109954968094826">
        <ele>1401.5999999999999</ele>
        <time>2003-04-19T12:33:05Z</time>
      </trkpt>
      <trkpt lat="33.762496998533607" lon="-3.110167030245066">
        <ele>1401.9000000000001</ele>
        <time>2003-04-19T12:33:08Z</time>
      </trkpt>
      <trkpt lat="33.762567993253469" lon="-3.110268032178283">
        <ele>1402.0999999999999</ele>
        <time>2003-04-19T12:33:08Z</time>
      </trkpt>
      <trkpt lat="33.762649968266487" lon="-3.110355036333203">
        <ele>1402.2</ele>
        <time>2003-04-19T12:33:09Z</time>
      </trkpt>
      <trkpt lat="33.76282699406147" lon="-3.110562991350889">
        <ele>1402.3</ele>
        <time>2003-04-19T12:33:12Z</time>
      </trkpt>
      <trkpt lat="33.762843003496528" lon="-3.11071302741766">
        <ele>1402.0999999999999</ele>
        <time>2003-04-19T12:33:15Z</time>
      </trkpt>
      <trkpt lat="33.76284702681005" lon="-3.110964987426996">
        <ele>1402.2</ele>
        <time>2003-04-19T12:33:18Z</time>
      </trkpt>
      <trkpt lat="33.762924978509545" lon="-3.111145030707121">
        <ele>1402.3</ele>
        <time>2003-04-19T12:33:19Z</time>
      </trkpt>
      <trkpt lat="33.763097980991006" lon="-3.111541997641325">
        <ele>1401.4000000000001</ele>
        <time>2003-04-19T12:33:23Z</time>
      </trkpt>
      <trkpt lat="33.763117007911205" lon="-3.111732015386224">
        <ele>1400.9000000000001</ele>
        <time>2003-04-19T12:33:26Z</time>
      </trkpt>
      <trkpt lat="33.763135029003024" lon="-3.111837962642312">
        <ele>1401</ele>
        <time>2003-04-19T12:33:27Z</time>
      </trkpt>
      <trkpt lat="33.763178028166294" lon="-3.11193997040391">
        <ele>1400.8</ele>
        <time>2003-04-19T12:33:27Z</time>
      </trkpt>
      <trkpt lat="33.763286992907524" lon="-3.112084977328777">
        <ele>1401.2</ele>
        <time>2003-04-19T12:33:30Z</time>
      </trkpt>
      <trkpt lat="33.763407021760941" lon="-3.11219503171742">
        <ele>1401</ele>
        <time>2003-04-19T12:33:31Z</time>
      </trkpt>
      <trkpt lat="33.763537025079131" lon="-3.112332997843623">
        <ele>1401.7</ele>
        <time>2003-04-19T12:33:34Z</time>
      </trkpt>
      <trkpt lat="33.763610031455755" lon="-3.112407010048628">
        <ele>1402</ele>
        <time>2003-04-19T12:33:35Z</time>
      </trkpt>
      <trkpt lat="33.763931980356574" lon="-3.112682020291686">
        <ele>1402.5</ele>
        <time>2003-04-19T12:33:39Z</time>
      </trkpt>
      <trkpt lat="33.764297012239695" lon="-3.112983014434576">
        <ele>1402.8</ele>
        <time>2003-04-19T12:33:43Z</time>
      </trkpt>
      <trkpt lat="33.76437496393919" lon="-3.113067001104355">
        <ele>1402.5</ele>
        <time>2003-04-19T12:33:46Z</time>
      </trkpt>
      <trkpt lat="33.764462973922491" lon="-3.113102959468961">
        <ele>1402.9000000000001</ele>
        <time>2003-04-19T12:33:49Z</time>
      </trkpt>
      <trkpt lat="33.764560036361217" lon="-3.113158028572798">
        <ele>1403</ele>
        <time>2003-04-19T12:33:54Z</time>
      </trkpt>
      <trkpt lat="33.764670006930828" lon="-3.113232040777803">
        <ele>1403</ele>
        <time>2003-04-19T12:33:57Z</time>
      </trkpt>
      <trkpt lat="33.76480202190578" lon="-3.113343017175794">
        <ele>1403.2</ele>
        <time>2003-04-19T12:33:59Z</time>
      </trkpt>
      <trkpt lat="33.764922972768545" lon="-3.113473020493984">
        <ele>1403.5999999999999</ele>
        <time>2003-04-19T12:34:02Z</time>
      </trkpt>
      <trkpt lat="33.76501802355051" lon="-3.113560024648905">
        <ele>1403.7</ele>
        <time>2003-04-19T12:34:05Z</time>
      </trkpt>
      <trkpt lat="33.765205023810267" lon="-3.113739984109998">
        <ele>1404</ele>
        <time>2003-04-19T12:34:09Z</time>
      </trkpt>
      <trkpt lat="33.765311976894736" lon="-3.113845009356737">
        <ele>1404.2</ele>
        <time>2003-04-19T12:34:10Z</time>
      </trkpt>
      <trkpt lat="33.765550022944808" lon="-3.114080037921667">
        <ele>1404.4000000000001</ele>
        <time>2003-04-19T12:34:14Z</time>
      </trkpt>
      <trkpt lat="33.76589803956449" lon="-3.114438029006124">
        <ele>1405.3</ele>
        <time>2003-04-19T12:34:20Z</time>
      </trkpt>
      <trkpt lat="33.766347980126739" lon="-3.114816974848509">
        <ele>1405.7</ele>
        <time>2003-04-19T12:34:25Z</time>
      </trkpt>
      <trkpt lat="33.767094975337386" lon="-3.115513008087874">
        <ele>1406.5</ele>
        <time>2003-04-19T12:34:32Z</time>
      </trkpt>
      <trkpt lat="33.767899973317981" lon="-3.116188002750278">
        <ele>1407.5</ele>
        <time>2003-04-19T12:34:39Z</time>
      </trkpt>
      <trkpt lat="33.768397020176053" lon="-3.116652024909854">
        <ele>1407.9000000000001</ele>
        <time>2003-04-19T12:34:44Z</time>
      </trkpt>
      <trkpt lat="33.768772026523948" lon="-3.11701001599431">
        <ele>1408.4000000000001</ele>
        <time>2003-04-19T12:34:48Z</time>
      </trkpt>
      <trkpt lat="33.768875040113926" lon="-3.117068018764257">
        <ele>1408.5999999999999</ele>
        <time>2003-04-19T12:34:48Z</time>
      </trkpt>
      <trkpt lat="33.769051982089877" lon="-3.117240015417337">
        <ele>1408.8</ele>
        <time>2003-04-19T12:34:51Z</time>
      </trkpt>
      <trkpt lat="33.769233031198382" lon="-3.117425004020333">
        <ele>1409</ele>
        <time>2003-04-19T12:34:52Z</time>
      </trkpt>
      <trkpt lat="33.770037023350596" lon="-3.11814702115953">
        <ele>1410.0999999999999</ele>
        <time>2003-04-19T12:35:00Z</time>
      </trkpt>
      <trkpt lat="33.770347991958261" lon="-3.118442986160517">
        <ele>1410.4000000000001</ele>
        <time>2003-04-19T12:35:04Z</time>
      </trkpt>
      <trkpt lat="33.770658038556576" lon="-3.118752026930451">
        <ele>1410.9000000000001</ele>
        <time>2003-04-19T12:35:07Z</time>
      </trkpt>
      <trkpt lat="33.771297996863723" lon="-3.119323002174497">
        <ele>1411.7</ele>
        <time>2003-04-19T12:35:12Z</time>
      </trkpt>
      <trkpt lat="33.77169999293983" lon="-3.119934964925051">
        <ele>1412.2</ele>
        <time>2003-04-19T12:35:18Z</time>
      </trkpt>
      <trkpt lat="33.771781967952847" lon="-3.120097992941737">
        <ele>1412.4000000000001</ele>
        <time>2003-04-19T12:35:19Z</time>
      </trkpt>
      <trkpt lat="33.771882969886065" lon="-3.120209975168109">
        <ele>1412.3</ele>
        <time>2003-04-19T12:35:22Z</time>
      </trkpt>
      <trkpt lat="33.772008027881384" lon="-3.120264960452914">
        <ele>1412.3</ele>
        <time>2003-04-19T12:35:23Z</time>
      </trkpt>
      <trkpt lat="33.77215001732111" lon="-3.1203399784863">
        <ele>1412.5</ele>
        <time>2003-04-19T12:35:26Z</time>
      </trkpt>
      <trkpt lat="33.7722800206393" lon="-3.120365040376782">
        <ele>1413</ele>
        <time>2003-04-19T12:35:27Z</time>
      </trkpt>
      <trkpt lat="33.772399965673685" lon="-3.120350036770105">
        <ele>1413.0999999999999</ele>
        <time>2003-04-19T12:35:30Z</time>
      </trkpt>
      <trkpt lat="33.772540027275681" lon="-3.120408039540052">
        <ele>1413.4000000000001</ele>
        <time>2003-04-19T12:35:31Z</time>
      </trkpt>
      <trkpt lat="33.772687967866659" lon="-3.12051298096776">
        <ele>1413.5</ele>
        <time>2003-04-19T12:35:34Z</time>
      </trkpt>
      <trkpt lat="33.772940011695027" lon="-3.12072697095573">
        <ele>1413.7</ele>
        <time>2003-04-19T12:35:37Z</time>
      </trkpt>
      <trkpt lat="33.773349970579147" lon="-3.121032994240522">
        <ele>1414.0999999999999</ele>
        <time>2003-04-19T12:35:41Z</time>
      </trkpt>
      <trkpt lat="33.77410501241684" lon="-3.121774960309267">
        <ele>1415.0999999999999</ele>
        <time>2003-04-19T12:35:47Z</time>
      </trkpt>
      <trkpt lat="33.774868017062545" lon="-3.122557997703552">
        <ele>1416.3</ele>
        <time>2003-04-19T12:35:54Z</time>
      </trkpt>
      <trkpt lat="33.775046970695257" lon="-3.122771987691522">
        <ele>1416.2</ele>
        <time>2003-04-19T12:35:57Z</time>
      </trkpt>
      <trkpt lat="33.775113020092249" lon="-3.122892016544938">
        <ele>1416.5999999999999</ele>
        <time>2003-04-19T12:35:58Z</time>
      </trkpt>
      <trkpt lat="33.775153001770377" lon="-3.123023025691509">
        <ele>1416.5999999999999</ele>
        <time>2003-04-19T12:35:58Z</time>
      </trkpt>
      <trkpt lat="33.775219973176718" lon="-3.123127967119217">
        <ele>1416.5999999999999</ele>
        <time>2003-04-19T12:36:00Z</time>
      </trkpt>
      <trkpt lat="33.775367997586727" lon="-3.123307004570961">
        <ele>1416.5999999999999</ele>
        <time>2003-04-19T12:36:01Z</time>
      </trkpt>
      <trkpt lat="33.775632027536631" lon="-3.123537003993988">
        <ele>1417.0999999999999</ele>
        <time>2003-04-19T12:36:05Z</time>
      </trkpt>
      <trkpt lat="33.775854986160994" lon="-3.123632976785302">
        <ele>1417.5999999999999</ele>
        <time>2003-04-19T12:36:06Z</time>
      </trkpt>
      <trkpt lat="33.776193028315902" lon="-3.123822994530201">
        <ele>1417.9000000000001</ele>
        <time>2003-04-19T12:36:09Z</time>
      </trkpt>
      <trkpt lat="33.776281960308552" lon="-3.123917039483786">
        <ele>1418.0999999999999</ele>
        <time>2003-04-19T12:36:10Z</time>
      </trkpt>
      <trkpt lat="33.776546996086836" lon="-3.124132035300136">
        <ele>1418.3</ele>
        <time>2003-04-19T12:36:13Z</time>
      </trkpt>
      <trkpt lat="33.776646992191672" lon="-3.1241649761796">
        <ele>1418.7</ele>
        <time>2003-04-19T12:36:14Z</time>
      </trkpt>
      <trkpt lat="33.776856958866119" lon="-3.124202024191618">
        <ele>1418.9000000000001</ele>
        <time>2003-04-19T12:36:17Z</time>
      </trkpt>
      <trkpt lat="33.777062986046076" lon="-3.124262038618326">
        <ele>1419.0999999999999</ele>
        <time>2003-04-19T12:36:18Z</time>
      </trkpt>
      <trkpt lat="33.777212016284466" lon="-3.124300008639693">
        <ele>1419.4000000000001</ele>
        <time>2003-04-19T12:36:21Z</time>
      </trkpt>
      <trkpt lat="33.777325004339218" lon="-3.124324986711144">
        <ele>1419</ele>
        <time>2003-04-19T12:36:23Z</time>
      </trkpt>
      <trkpt lat="33.777407985180616" lon="-3.124405033886433">
        <ele>1418.8</ele>
        <time>2003-04-19T12:36:25Z</time>
      </trkpt>
      <trkpt lat="33.777455007657409" lon="-3.124507963657379">
        <ele>1419.5999999999999</ele>
        <time>2003-04-19T12:36:27Z</time>
      </trkpt>
      <trkpt lat="33.777530025690794" lon="-3.124665040522814">
        <ele>1419.8</ele>
        <time>2003-04-19T12:36:28Z</time>
      </trkpt>
      <trkpt lat="33.777677966281772" lon="-3.124778028577566">
        <ele>1419.5999999999999</ele>
        <time>2003-04-19T12:36:31Z</time>
      </trkpt>
      <trkpt lat="33.777757007628679" lon="-3.124848017469049">
        <ele>1419.8</ele>
        <time>2003-04-19T12:36:32Z</time>
      </trkpt>
      <trkpt lat="33.77808197401464" lon="-3.125146999955177">
        <ele>1420</ele>
        <time>2003-04-19T12:36:36Z</time>
      </trkpt>
      <trkpt lat="33.778363019227982" lon="-3.125413041561842">
        <ele>1420.4000000000001</ele>
        <time>2003-04-19T12:36:39Z</time>
      </trkpt>
      <trkpt lat="33.779057040810585" lon="-3.126017963513732">
        <ele>1421.4000000000001</ele>
        <time>2003-04-19T12:36:45Z</time>
      </trkpt>
      <trkpt lat="33.779131975024939" lon="-3.126130029559135">
        <ele>1421.4000000000001</ele>
        <time>2003-04-19T12:36:47Z</time>
      </trkpt>
      <trkpt lat="33.779368009418249" lon="-3.126428006216884">
        <ele>1421.2</ele>
        <time>2003-04-19T12:36:50Z</time>
      </trkpt>
      <trkpt lat="33.77945501357317" lon="-3.12648500315845">
        <ele>1421.4000000000001</ele>
        <time>2003-04-19T12:36:51Z</time>
      </trkpt>
      <trkpt lat="33.779547968879342" lon="-3.126575024798513">
        <ele>1421.4000000000001</ele>
        <time>2003-04-19T12:36:54Z</time>
      </trkpt>
      <trkpt lat="33.77962701022625" lon="-3.126702010631561">
        <ele>1421.5999999999999</ele>
        <time>2003-04-19T12:36:55Z</time>
      </trkpt>
      <trkpt lat="33.779752990230918" lon="-3.12680502422154">
        <ele>1421.5999999999999</ele>
        <time>2003-04-19T12:36:58Z</time>
      </trkpt>
      <trkpt lat="33.779906965792179" lon="-3.126922035589814">
        <ele>1421.7</ele>
        <time>2003-04-19T12:36:59Z</time>
      </trkpt>
      <trkpt lat="33.780177030712366" lon="-3.127139965072274">
        <ele>1421.9000000000001</ele>
        <time>2003-04-19T12:37:03Z</time>
      </trkpt>
      <trkpt lat="33.780580032616854" lon="-3.127514971420169">
        <ele>1422.2</ele>
        <time>2003-04-19T12:37:07Z</time>
      </trkpt>
      <trkpt lat="33.78117498010397" lon="-3.127970024943352">
        <ele>1422.8</ele>
        <time>2003-04-19T12:37:11Z</time>
      </trkpt>
      <trkpt lat="33.781670015305281" lon="-3.128352994099259">
        <ele>1423.0999999999999</ele>
        <time>2003-04-19T12:37:15Z</time>
      </trkpt>
      <trkpt lat="33.781860033050179" lon="-3.128562960773706">
        <ele>1423.2</ele>
        <time>2003-04-19T12:37:18Z</time>
      </trkpt>
      <trkpt lat="33.781957011669874" lon="-3.128649964928627">
        <ele>1423.5</ele>
        <time>2003-04-19T12:37:19Z</time>
      </trkpt>
      <trkpt lat="33.782077040523291" lon="-3.128777034580708">
        <ele>1423.7</ele>
        <time>2003-04-19T12:37:21Z</time>
      </trkpt>
      <trkpt lat="33.782157003879547" lon="-3.128897985443473">
        <ele>1423.8</ele>
        <time>2003-04-19T12:37:22Z</time>
      </trkpt>
      <trkpt lat="33.782267980277538" lon="-3.129005022346973">
        <ele>1423.9000000000001</ele>
        <time>2003-04-19T12:37:25Z</time>
      </trkpt>
      <trkpt lat="33.782537039369345" lon="-3.129235021770001">
        <ele>1424.7</ele>
        <time>2003-04-19T12:37:29Z</time>
      </trkpt>
      <trkpt lat="33.782648015767336" lon="-3.129380028694868">
        <ele>1425.2</ele>
        <time>2003-04-19T12:37:30Z</time>
      </trkpt>
      <trkpt lat="33.782826969400048" lon="-3.129599969834089">
        <ele>1425.3</ele>
        <time>2003-04-19T12:37:34Z</time>
      </trkpt>
      <trkpt lat="33.783383024856448" lon="-3.130255015566945">
        <ele>1425.7</ele>
        <time>2003-04-19T12:37:42Z</time>
      </trkpt>
      <trkpt lat="33.783504981547594" lon="-3.130462970584631">
        <ele>1425.9000000000001</ele>
        <time>2003-04-19T12:37:44Z</time>
      </trkpt>
      <trkpt lat="33.783638002350926" lon="-3.130672015249729">
        <ele>1426</ele>
        <time>2003-04-19T12:37:46Z</time>
      </trkpt>
      <trkpt lat="33.784006973728538" lon="-3.131052972748876">
        <ele>1426.4000000000001</ele>
        <time>2003-04-19T12:37:49Z</time>
      </trkpt>
      <trkpt lat="33.784451968967915" lon="-3.1313849799335">
        <ele>1427</ele>
        <time>2003-04-19T12:37:53Z</time>
      </trkpt>
      <trkpt lat="33.785327961668372" lon="-3.13187800347805">
        <ele>1428.4000000000001</ele>
        <time>2003-04-19T12:38:01Z</time>
      </trkpt>
      <trkpt lat="33.786160033196211" lon="-3.132372032850981">
        <ele>1429.5</ele>
        <time>2003-04-19T12:38:08Z</time>
      </trkpt>
      <trkpt lat="33.786682980135083" lon="-3.132688030600548">
        <ele>1429.7</ele>
        <time>2003-04-19T12:38:13Z</time>
      </trkpt>
      <trkpt lat="33.78693200647831" lon="-3.132922975346446">
        <ele>1429.5</ele>
        <time>2003-04-19T12:38:16Z</time>
      </trkpt>
      <trkpt lat="33.787156976759434" lon="-3.133182981982827">
        <ele>1429.7</ele>
        <time>2003-04-19T12:38:19Z</time>
      </trkpt>
      <trkpt lat="33.787201987579465" lon="-3.133290018886328">
        <ele>1429.5</ele>
        <time>2003-04-19T12:38:20Z</time>
      </trkpt>
      <trkpt lat="33.787220008671284" lon="-3.13340300694108">
        <ele>1429.4000000000001</ele>
        <time>2003-04-19T12:38:20Z</time>
      </trkpt>
      <trkpt lat="33.787254961207509" lon="-3.133572991937399">
        <ele>1429.2</ele>
        <time>2003-04-19T12:38:23Z</time>
      </trkpt>
      <trkpt lat="33.787327967584133" lon="-3.133697966113687">
        <ele>1429.7</ele>
        <time>2003-04-19T12:38:24Z</time>
      </trkpt>
      <trkpt lat="33.78744799643755" lon="-3.133805003017187">
        <ele>1429.7</ele>
        <time>2003-04-19T12:38:27Z</time>
      </trkpt>
      <trkpt lat="33.78753500059247" lon="-3.133886978030205">
        <ele>1429.8</ele>
        <time>2003-04-19T12:38:29Z</time>
      </trkpt>
      <trkpt lat="33.788778036832809" lon="-3.135021971538663">
        <ele>-236.80000000000001</ele>
        <time>2003-04-19T12:40:35Z</time>
      </trkpt>
      <trkpt lat="33.788875015452504" lon="-3.135118028149009">
        <ele>1431.5</ele>
        <time>2003-04-19T12:40:39Z</time>
      </trkpt>
      <trkpt lat="33.78899697214365" lon="-3.135233027860522">
        <ele>1431.8</ele>
        <time>2003-04-19T12:40:39Z</time>
      </trkpt>
      <trkpt lat="33.789142984896898" lon="-3.135375017300248">
        <ele>1431.9000000000001</ele>
        <time>2003-04-19T12:40:42Z</time>
      </trkpt>
      <trkpt lat="33.789393017068505" lon="-3.135629994794726">
        <ele>1432.3</ele>
        <time>2003-04-19T12:40:44Z</time>
      </trkpt>
      <trkpt lat="33.789967009797692" lon="-3.136207005009055">
        <ele>1433.0999999999999</ele>
        <time>2003-04-19T12:40:51Z</time>
      </trkpt>
      <trkpt lat="33.790258029475808" lon="-3.136555021628737">
        <ele>1433.2</ele>
        <time>2003-04-19T12:40:54Z</time>
      </trkpt>
      <trkpt lat="33.790827998891473" lon="-3.13742296770215">
        <ele>1434.4000000000001</ele>
        <time>2003-04-19T12:41:01Z</time>
      </trkpt>
      <trkpt lat="33.790981974452734" lon="-3.137609967961907">
        <ele>1435.2</ele>
        <time>2003-04-19T12:41:02Z</time>
      </trkpt>
      <trkpt lat="33.791171992197633" lon="-3.137739971280098">
        <ele>1435.0999999999999</ele>
        <time>2003-04-19T12:41:05Z</time>
      </trkpt>
      <trkpt lat="33.791335020214319" lon="-3.137805014848709">
        <ele>1435.2</ele>
        <time>2003-04-19T12:41:06Z</time>
      </trkpt>
      <trkpt lat="33.791408026590943" lon="-3.137869974598289">
        <ele>1435.2</ele>
        <time>2003-04-19T12:41:07Z</time>
      </trkpt>
      <trkpt lat="33.791587986052036" lon="-3.137962007895112">
        <ele>1435.3</ele>
        <time>2003-04-19T12:41:10Z</time>
      </trkpt>
      <trkpt lat="33.791704997420311" lon="-3.138017999008298">
        <ele>1435.5</ele>
        <time>2003-04-19T12:41:11Z</time>
      </trkpt>
      <trkpt lat="33.791808011010289" lon="-3.138125035911799">
        <ele>1435.5999999999999</ele>
        <time>2003-04-19T12:41:14Z</time>
      </trkpt>
      <trkpt lat="33.791919993236661" lon="-3.138244980946183">
        <ele>1436.0999999999999</ele>
        <time>2003-04-19T12:41:18Z</time>
      </trkpt>
      <trkpt lat="33.792062988504767" lon="-3.138327961787581">
        <ele>1436.4000000000001</ele>
        <time>2003-04-19T12:41:20Z</time>
      </trkpt>
      <trkpt lat="33.792236996814609" lon="-3.138346988707781">
        <ele>1436.7</ele>
        <time>2003-04-19T12:41:22Z</time>
      </trkpt>
      <trkpt lat="33.792419973760843" lon="-3.138353023678064">
        <ele>1436.5999999999999</ele>
        <time>2003-04-19T12:41:24Z</time>
      </trkpt>
      <trkpt lat="33.79264703951776" lon="-3.138341959565878">
        <ele>1437</ele>
        <time>2003-04-19T12:41:26Z</time>
      </trkpt>
      <trkpt lat="33.792762039229274" lon="-3.138501970097423">
        <ele>1438.2</ele>
        <time>2003-04-19T12:41:48Z</time>
      </trkpt>
      <trkpt lat="33.792837979272008" lon="-3.138704979792237">
        <ele>1437.8</ele>
        <time>2003-04-19T12:41:51Z</time>
      </trkpt>
      <trkpt lat="33.792922971770167" lon="-3.13896699808538">
        <ele>1437.5999999999999</ele>
        <time>2003-04-19T12:41:53Z</time>
      </trkpt>
      <trkpt lat="33.792984997853637" lon="-3.139188028872013">
        <ele>1437.4000000000001</ele>
        <time>2003-04-19T12:41:56Z</time>
      </trkpt>
      <trkpt lat="33.793081976473331" lon="-3.139411993324757">
        <ele>1437.8</ele>
        <time>2003-04-19T12:41:57Z</time>
      </trkpt>
      <trkpt lat="33.793171998113394" lon="-3.139651967212558">
        <ele>1438.0999999999999</ele>
        <time>2003-04-19T12:42:00Z</time>
      </trkpt>
      <trkpt lat="33.793265037238598" lon="-3.139867968857288">
        <ele>1437.7</ele>
        <time>2003-04-19T12:42:01Z</time>
      </trkpt>
      <trkpt lat="33.793347012251616" lon="-3.139960002154112">
        <ele>1437.5999999999999</ele>
        <time>2003-04-19T12:42:03Z</time>
      </trkpt>
      <trkpt lat="33.793983031064272" lon="-3.140567019581795">
        <ele>1437.9000000000001</ele>
        <time>2003-04-19T12:42:09Z</time>
      </trkpt>
      <trkpt lat="33.794327024370432" lon="-3.140861978754401">
        <ele>1438.8</ele>
        <time>2003-04-19T12:42:14Z</time>
      </trkpt>
      <trkpt lat="33.794425008818507" lon="-3.141064988449216">
        <ele>1438.4000000000001</ele>
        <time>2003-04-19T12:42:16Z</time>
      </trkpt>
      <trkpt lat="33.794482005760074" lon="-3.141149980947375">
        <ele>1438.2</ele>
        <time>2003-04-19T12:42:16Z</time>
      </trkpt>
      <trkpt lat="33.794600022956729" lon="-3.14135299064219">
        <ele>1438.8</ele>
        <time>2003-04-19T12:42:19Z</time>
      </trkpt>
      <trkpt lat="33.794740000739694" lon="-3.141573015600443">
        <ele>1439</ele>
        <time>2003-04-19T12:42:20Z</time>
      </trkpt>
      <trkpt lat="33.795151971280575" lon="-3.14212697558105">
        <ele>1439.5999999999999</ele>
        <time>2003-04-19T12:42:26Z</time>
      </trkpt>
      <trkpt lat="33.795874994248152" lon="-3.142806999385357">
        <ele>1440.9000000000001</ele>
        <time>2003-04-19T12:42:32Z</time>
      </trkpt>
      <trkpt lat="33.796216975897551" lon="-3.143246965482831">
        <ele>1441.3</ele>
        <time>2003-04-19T12:42:36Z</time>
      </trkpt>
      <trkpt lat="33.796323006972671" lon="-3.143289964646101">
        <ele>1441.3</ele>
        <time>2003-04-19T12:42:38Z</time>
      </trkpt>
      <trkpt lat="33.796502966433764" lon="-3.143375040963292">
        <ele>1441.5</ele>
        <time>2003-04-19T12:42:39Z</time>
      </trkpt>
      <trkpt lat="33.796570021659136" lon="-3.143455004319549">
        <ele>1441.5999999999999</ele>
        <time>2003-04-19T12:42:41Z</time>
      </trkpt>
      <trkpt lat="33.796628024429083" lon="-3.143558017909527">
        <ele>1441.5999999999999</ele>
        <time>2003-04-19T12:42:42Z</time>
      </trkpt>
      <trkpt lat="33.796702036634088" lon="-3.143657008185983">
        <ele>1441.5</ele>
        <time>2003-04-19T12:42:43Z</time>
      </trkpt>
      <trkpt lat="33.797309976071119" lon="-3.144517997279763">
        <ele>1442.5999999999999</ele>
        <time>2003-04-19T12:42:50Z</time>
      </trkpt>
      <trkpt lat="33.797378037124872" lon="-3.144723018631339">
        <ele>1442.7</ele>
        <time>2003-04-19T12:42:53Z</time>
      </trkpt>
      <trkpt lat="33.797421958297491" lon="-3.144913036376238">
        <ele>1442.7</ele>
        <time>2003-04-19T12:42:54Z</time>
      </trkpt>
      <trkpt lat="33.797524971887469" lon="-3.145072963088751">
        <ele>1442.8</ele>
        <time>2003-04-19T12:42:57Z</time>
      </trkpt>
      <trkpt lat="33.797823032364249" lon="-3.145398013293743">
        <ele>1443.5</ele>
        <time>2003-04-19T12:43:01Z</time>
      </trkpt>
      <trkpt lat="33.798293005675077" lon="-3.145732032135129">
        <ele>1444.9000000000001</ele>
        <time>2003-04-19T12:43:06Z</time>
      </trkpt>
      <trkpt lat="33.79915801808238" lon="-3.146147020161152">
        <ele>1446.5</ele>
        <time>2003-04-19T12:43:13Z</time>
      </trkpt>
      <trkpt lat="33.799722958356142" lon="-3.146492019295692">
        <ele>1447.5</ele>
        <time>2003-04-19T12:43:20Z</time>
      </trkpt>
      <trkpt lat="33.800114979967475" lon="-3.146627973765135">
        <ele>1448.2</ele>
        <time>2003-04-19T12:43:24Z</time>
      </trkpt>
      <trkpt lat="33.800482023507357" lon="-3.146827965974808">
        <ele>1449.5</ele>
        <time>2003-04-19T12:43:28Z</time>
      </trkpt>
      <trkpt lat="33.800595011562109" lon="-3.146978002041578">
        <ele>1449.8</ele>
        <time>2003-04-19T12:43:29Z</time>
      </trkpt>
      <trkpt lat="33.800749992951751" lon="-3.147082021459937">
        <ele>1450.4000000000001</ele>
        <time>2003-04-19T12:43:32Z</time>
      </trkpt>
      <trkpt lat="33.800885025411844" lon="-3.14721797592938">
        <ele>1450.5999999999999</ele>
        <time>2003-04-19T12:43:33Z</time>
      </trkpt>
      <trkpt lat="33.801036989316344" lon="-3.14734697341919">
        <ele>1450.9000000000001</ele>
        <time>2003-04-19T12:43:36Z</time>
      </trkpt>
      <trkpt lat="33.801397997885942" lon="-3.147627012804151">
        <ele>1451.5</ele>
        <time>2003-04-19T12:43:40Z</time>
      </trkpt>
      <trkpt lat="33.802290000021458" lon="-3.1481649633497">
        <ele>1451.3</ele>
        <time>2003-04-19T12:43:48Z</time>
      </trkpt>
      <trkpt lat="33.802667018026114" lon="-3.148312987759709">
        <ele>1451.0999999999999</ele>
        <time>2003-04-19T12:43:51Z</time>
      </trkpt>
      <trkpt lat="33.803217960521579" lon="-3.148527983576059">
        <ele>1450.9000000000001</ele>
        <time>2003-04-19T12:43:56Z</time>
      </trkpt>
      <trkpt lat="33.804127983748913" lon="-3.148942971602082">
        <ele>1450.8</ele>
        <time>2003-04-19T12:44:04Z</time>
      </trkpt>
      <trkpt lat="33.805007999762893" lon="-3.149304986000061">
        <ele>1450.8</ele>
        <time>2003-04-19T12:44:11Z</time>
      </trkpt>
      <trkpt lat="33.805927997455001" lon="-3.149679992347956">
        <ele>1450.0999999999999</ele>
        <time>2003-04-19T12:44:18Z</time>
      </trkpt>
      <trkpt lat="33.806662000715733" lon="-3.149909991770983">
        <ele>1449.8</ele>
        <time>2003-04-19T12:44:23Z</time>
      </trkpt>
      <trkpt lat="33.806901974603534" lon="-3.149951985105872">
        <ele>1450.0999999999999</ele>
        <time>2003-04-19T12:44:26Z</time>
      </trkpt>
      <trkpt lat="33.807138008996844" lon="-3.150043012574315">
        <ele>1449.8</ele>
        <time>2003-04-19T12:44:27Z</time>
      </trkpt>
      <trkpt lat="33.807349987328053" lon="-3.150181984528899">
        <ele>1449.5</ele>
        <time>2003-04-19T12:44:30Z</time>
      </trkpt>
      <trkpt lat="33.807760030031204" lon="-3.150450037792325">
        <ele>1449.8</ele>
        <time>2003-04-19T12:44:34Z</time>
      </trkpt>
      <trkpt lat="33.807992963120341" lon="-3.150524972006679">
        <ele>1450.0999999999999</ele>
        <time>2003-04-19T12:44:35Z</time>
      </trkpt>
      <trkpt lat="33.808968029916286" lon="-3.150801993906498">
        <ele>1450.3</ele>
        <time>2003-04-19T12:44:43Z</time>
      </trkpt>
      <trkpt lat="33.809074983000755" lon="-3.150775004178286">
        <ele>1450.3</ele>
        <time>2003-04-19T12:44:45Z</time>
      </trkpt>
      <trkpt lat="33.809186965227127" lon="-3.150772992521524">
        <ele>1450.5999999999999</ele>
        <time>2003-04-19T12:44:46Z</time>
      </trkpt>
      <trkpt lat="33.809297019615769" lon="-3.150792019441724">
        <ele>1450.5999999999999</ele>
        <time>2003-04-19T12:44:46Z</time>
      </trkpt>
      <trkpt lat="33.810124984011054" lon="-3.150944989174604">
        <ele>1450.8</ele>
        <time>2003-04-19T12:44:54Z</time>
      </trkpt>
      <trkpt lat="33.811008017510176" lon="-3.151208013296127">
        <ele>1451.5999999999999</ele>
        <time>2003-04-19T12:45:01Z</time>
      </trkpt>
      <trkpt lat="33.811242040246725" lon="-3.151241960003972">
        <ele>1452</ele>
        <time>2003-04-19T12:45:04Z</time>
      </trkpt>
      <trkpt lat="33.811353016644716" lon="-3.151286970824003">
        <ele>1452.5999999999999</ele>
        <time>2003-04-19T12:45:05Z</time>
      </trkpt>
      <trkpt lat="33.812292041257024" lon="-3.151585031300783">
        <ele>1453.4000000000001</ele>
        <time>2003-04-19T12:45:13Z</time>
      </trkpt>
      <trkpt lat="33.812967035919428" lon="-3.151785023510456">
        <ele>1453.9000000000001</ele>
        <time>2003-04-19T12:45:18Z</time>
      </trkpt>
      <trkpt lat="33.813350005075336" lon="-3.151917960494757">
        <ele>1454.7</ele>
        <time>2003-04-19T12:45:23Z</time>
      </trkpt>
      <trkpt lat="33.813640018925071" lon="-3.151997001841664">
        <ele>1455.0999999999999</ele>
        <time>2003-04-19T12:45:25Z</time>
      </trkpt>
      <trkpt lat="33.813815033063293" lon="-3.152047041803598">
        <ele>1455</ele>
        <time>2003-04-19T12:45:28Z</time>
      </trkpt>
      <trkpt lat="33.813913017511368" lon="-3.152047041803598">
        <ele>1455.3</ele>
        <time>2003-04-19T12:45:28Z</time>
      </trkpt>
      <trkpt lat="33.814006978645921" lon="-3.152058022096753">
        <ele>1455.5</ele>
        <time>2003-04-19T12:45:29Z</time>
      </trkpt>
      <trkpt lat="33.81409197114408" lon="-3.152100015431643">
        <ele>1456</ele>
        <time>2003-04-19T12:45:31Z</time>
      </trkpt>
      <trkpt lat="33.814273020252585" lon="-3.152170004323125">
        <ele>1456.3</ele>
        <time>2003-04-19T12:45:32Z</time>
      </trkpt>
      <trkpt lat="33.81436999887228" lon="-3.152164975181222">
        <ele>1456.5</ele>
        <time>2003-04-19T12:45:33Z</time>
      </trkpt>
      <trkpt lat="33.814641991630197" lon="-3.152113007381558">
        <ele>1457.2</ele>
        <time>2003-04-19T12:45:36Z</time>
      </trkpt>
      <trkpt lat="33.814877020195127" lon="-3.152088029310107">
        <ele>1457.2</ele>
        <time>2003-04-19T12:45:40Z</time>
      </trkpt>
      <trkpt lat="33.814984979107976" lon="-3.152136979624629">
        <ele>1458</ele>
        <time>2003-04-19T12:45:41Z</time>
      </trkpt>
      <trkpt lat="33.815316986292601" lon="-3.152281986549497">
        <ele>1458.0999999999999</ele>
        <time>2003-04-19T12:45:48Z</time>
      </trkpt>
      <trkpt lat="33.815423017367721" lon="-3.152092974632978">
        <ele>1459.3</ele>
        <time>2003-04-19T12:45:54Z</time>
      </trkpt>
      <trkpt lat="33.815550003200769" lon="-3.151788040995598">
        <ele>1460.7</ele>
        <time>2003-04-19T12:46:00Z</time>
      </trkpt>
      <trkpt lat="33.815527036786079" lon="-3.151657031849027">
        <ele>1461</ele>
        <time>2003-04-19T12:46:03Z</time>
      </trkpt>
      <trkpt lat="33.815527036786079" lon="-3.151453016325831">
        <ele>1461.7</ele>
        <time>2003-04-19T12:46:10Z</time>
      </trkpt>
      <trkpt lat="33.815642036497593" lon="-3.151495009660721">
        <ele>1468.4000000000001</ele>
        <time>2003-04-19T14:24:28Z</time>
      </trkpt>
      <trkpt lat="33.815619992092252" lon="-3.15132200717926">
        <ele>1492.7</ele>
        <time>2003-04-19T14:31:52Z</time>
      </trkpt>
      <trkpt lat="33.815672965720296" lon="-3.151443041861057">
        <ele>1472</ele>
        <time>2003-04-19T14:32:11Z</time>
      </trkpt>
      <trkpt lat="33.815642958506942" lon="-3.151572961360216">
        <ele>1471</ele>
        <time>2003-04-19T14:32:14Z</time>
      </trkpt>
      <trkpt lat="33.815634995698929" lon="-3.151702964678407">
        <ele>1470.3</ele>
        <time>2003-04-19T14:32:18Z</time>
      </trkpt>
      <trkpt lat="33.815574981272221" lon="-3.151812013238668">
        <ele>1469.5999999999999</ele>
        <time>2003-04-19T14:32:20Z</time>
      </trkpt>
      <trkpt lat="33.815501974895597" lon="-3.15194696187973">
        <ele>1468.5999999999999</ele>
        <time>2003-04-19T14:32:23Z</time>
      </trkpt>
      <trkpt lat="33.815489988774061" lon="-3.152061961591244">
        <ele>1468.0999999999999</ele>
        <time>2003-04-19T14:32:26Z</time>
      </trkpt>
      <trkpt lat="33.815502980723977" lon="-3.152176961302757">
        <ele>1467.7</ele>
        <time>2003-04-19T14:32:29Z</time>
      </trkpt>
      <trkpt lat="33.815557966008782" lon="-3.15228802151978">
        <ele>1467</ele>
        <time>2003-04-19T14:32:31Z</time>
      </trkpt>
      <trkpt lat="33.815644970163703" lon="-3.152354992926121">
        <ele>1466.3</ele>
        <time>2003-04-19T14:32:33Z</time>
      </trkpt>
      <trkpt lat="33.815772039815784" lon="-3.152342000976205">
        <ele>1466.3</ele>
        <time>2003-04-19T14:32:34Z</time>
      </trkpt>
      <trkpt lat="33.815932972356677" lon="-3.152315011247993">
        <ele>1466.5</ele>
        <time>2003-04-19T14:32:35Z</time>
      </trkpt>
      <trkpt lat="33.816094994544983" lon="-3.152328003197908">
        <ele>1466.9000000000001</ele>
        <time>2003-04-19T14:32:38Z</time>
      </trkpt>
      <trkpt lat="33.816645015031099" lon="-3.152388017624617">
        <ele>1465.9000000000001</ele>
        <time>2003-04-19T14:32:45Z</time>
      </trkpt>
      <trkpt lat="33.816737970337272" lon="-3.15239698626101">
        <ele>1465.7</ele>
        <time>2003-04-19T14:32:46Z</time>
      </trkpt>
      <trkpt lat="33.816911978647113" lon="-3.152452977374196">
        <ele>1465.3</ele>
        <time>2003-04-19T14:32:47Z</time>
      </trkpt>
      <trkpt lat="33.817226970568299" lon="-3.15250301733613">
        <ele>1464.3</ele>
        <time>2003-04-19T14:32:50Z</time>
      </trkpt>
      <trkpt lat="33.817337024956942" lon="-3.15250301733613">
        <ele>1463.9000000000001</ele>
        <time>2003-04-19T14:32:51Z</time>
      </trkpt>
      <trkpt lat="33.817652016878128" lon="-3.152472004294395">
        <ele>1463.2</ele>
        <time>2003-04-19T14:32:54Z</time>
      </trkpt>
      <trkpt lat="33.817840022966266" lon="-3.152400003746152">
        <ele>1462.9000000000001</ele>
        <time>2003-04-19T14:32:57Z</time>
      </trkpt>
      <trkpt lat="33.818155014887452" lon="-3.152303025126457">
        <ele>1462.9000000000001</ele>
        <time>2003-04-19T14:33:00Z</time>
      </trkpt>
      <trkpt lat="33.818364981561899" lon="-3.152297995984554">
        <ele>1462.9000000000001</ele>
        <time>2003-04-19T14:33:01Z</time>
      </trkpt>
      <trkpt lat="33.818567991256714" lon="-3.152296990156174">
        <ele>1462.8</ele>
        <time>2003-04-19T14:33:04Z</time>
      </trkpt>
      <trkpt lat="33.818963030353189" lon="-3.152270000427961">
        <ele>1463.0999999999999</ele>
        <time>2003-04-19T14:33:08Z</time>
      </trkpt>
      <trkpt lat="33.819631990045309" lon="-3.152348035946488">
        <ele>1463.0999999999999</ele>
        <time>2003-04-19T14:33:13Z</time>
      </trkpt>
      <trkpt lat="33.82029801607132" lon="-3.152302019298077">
        <ele>1460.5999999999999</ele>
        <time>2003-04-19T14:33:20Z</time>
      </trkpt>
      <trkpt lat="33.820403041318059" lon="-3.152300007641316">
        <ele>1460.3</ele>
        <time>2003-04-19T14:33:21Z</time>
      </trkpt>
      <trkpt lat="33.82049297913909" lon="-3.152302019298077">
        <ele>1460</ele>
        <time>2003-04-19T14:33:21Z</time>
      </trkpt>
      <trkpt lat="33.82064301520586" lon="-3.152290033176541">
        <ele>1459.2</ele>
        <time>2003-04-19T14:33:24Z</time>
      </trkpt>
      <trkpt lat="33.820757009088993" lon="-3.152209986001253">
        <ele>1458.8</ele>
        <time>2003-04-19T14:33:25Z</time>
      </trkpt>
      <trkpt lat="33.82085801102221" lon="-3.152091968804598">
        <ele>1458.8</ele>
        <time>2003-04-19T14:33:28Z</time>
      </trkpt>
      <trkpt lat="33.820926994085312" lon="-3.151945034042001">
        <ele>1459.3</ele>
        <time>2003-04-19T14:33:29Z</time>
      </trkpt>
      <trkpt lat="33.820964964106679" lon="-3.151764990761876">
        <ele>1459.5</ele>
        <time>2003-04-19T14:33:32Z</time>
      </trkpt>
      <trkpt lat="33.821082981303334" lon="-3.151071975007653">
        <ele>1460.0999999999999</ele>
        <time>2003-04-19T14:33:40Z</time>
      </trkpt>
      <trkpt lat="33.82122497074306" lon="-3.150499993935227">
        <ele>1460.5999999999999</ele>
        <time>2003-04-19T14:33:45Z</time>
      </trkpt>
      <trkpt lat="33.821162022650242" lon="-3.150324979797006">
        <ele>1460.5999999999999</ele>
        <time>2003-04-19T14:33:48Z</time>
      </trkpt>
      <trkpt lat="33.821005029603839" lon="-3.150087017565966">
        <ele>1460.7</ele>
        <time>2003-04-19T14:33:51Z</time>
      </trkpt>
      <trkpt lat="33.820805037394166" lon="-3.149892976507545">
        <ele>1460.8</ele>
        <time>2003-04-19T14:33:54Z</time>
      </trkpt>
      <trkpt lat="33.820733036845922" lon="-3.149772025644779">
        <ele>1460.8</ele>
        <time>2003-04-19T14:33:55Z</time>
      </trkpt>
      <trkpt lat="33.820711998268962" lon="-3.149649985134602">
        <ele>1460.8</ele>
        <time>2003-04-19T14:33:58Z</time>
      </trkpt>
      <trkpt lat="33.820636980235577" lon="-3.149568010121584">
        <ele>1460.4000000000001</ele>
        <time>2003-04-19T14:33:59Z</time>
      </trkpt>
      <trkpt lat="33.820522986352444" lon="-3.149416968226433">
        <ele>1460.8</ele>
        <time>2003-04-19T14:34:03Z</time>
      </trkpt>
      <trkpt lat="33.820500019937754" lon="-3.14923801459372">
        <ele>1460.9000000000001</ele>
        <time>2003-04-19T14:34:04Z</time>
      </trkpt>
      <trkpt lat="33.820479987189174" lon="-3.148931991308928">
        <ele>1461</ele>
        <time>2003-04-19T14:34:07Z</time>
      </trkpt>
      <trkpt lat="33.820443022996187" lon="-3.148518009111285">
        <ele>1461.4000000000001</ele>
        <time>2003-04-19T14:34:11Z</time>
      </trkpt>
      <trkpt lat="33.82038502022624" lon="-3.148305024951696">
        <ele>1461.7</ele>
        <time>2003-04-19T14:34:14Z</time>
      </trkpt>
      <trkpt lat="33.820273037999868" lon="-3.148036971688271">
        <ele>1462</ele>
        <time>2003-04-19T14:34:17Z</time>
      </trkpt>
      <trkpt lat="33.820143034681678" lon="-3.147747041657567">
        <ele>1462.9000000000001</ele>
        <time>2003-04-19T14:34:21Z</time>
      </trkpt>
      <trkpt lat="33.820121996104717" lon="-3.147582001984119">
        <ele>1463.4000000000001</ele>
        <time>2003-04-19T14:34:22Z</time>
      </trkpt>
      <trkpt lat="33.820176981389523" lon="-3.147349990904331">
        <ele>1463.7</ele>
        <time>2003-04-19T14:34:26Z</time>
      </trkpt>
      <trkpt lat="33.820302961394191" lon="-3.147285031154752">
        <ele>1463.3</ele>
        <time>2003-04-19T14:34:27Z</time>
      </trkpt>
      <trkpt lat="33.820436988025904" lon="-3.147200038656592">
        <ele>1463.2</ele>
        <time>2003-04-19T14:34:30Z</time>
      </trkpt>
      <trkpt lat="33.820632034912705" lon="-3.147087972611189">
        <ele>1463.2</ele>
        <time>2003-04-19T14:34:33Z</time>
      </trkpt>
      <trkpt lat="33.820790033787489" lon="-3.147101970389485">
        <ele>1463.0999999999999</ele>
        <time>2003-04-19T14:34:34Z</time>
      </trkpt>
      <trkpt lat="33.820936968550086" lon="-3.147095013409853">
        <ele>1463.2</ele>
        <time>2003-04-19T14:34:37Z</time>
      </trkpt>
      <trkpt lat="33.821062026545405" lon="-3.147042039781809">
        <ele>1463.0999999999999</ele>
        <time>2003-04-19T14:34:38Z</time>
      </trkpt>
      <trkpt lat="33.821447007358074" lon="-3.146861996501684">
        <ele>1464.0999999999999</ele>
        <time>2003-04-19T14:34:46Z</time>
      </trkpt>
      <trkpt lat="33.821529988199472" lon="-3.146784966811538">
        <ele>1464.4000000000001</ele>
        <time>2003-04-19T14:34:49Z</time>
      </trkpt>
      <trkpt lat="33.821577010676265" lon="-3.146672984585166">
        <ele>1464.8</ele>
        <time>2003-04-19T14:34:50Z</time>
      </trkpt>
      <trkpt lat="33.821582039818168" lon="-3.14650802873075">
        <ele>1465.3</ele>
        <time>2003-04-19T14:34:53Z</time>
      </trkpt>
      <trkpt lat="33.821593020111322" lon="-3.146308036521077">
        <ele>1466.3</ele>
        <time>2003-04-19T14:34:54Z</time>
      </trkpt>
      <trkpt lat="33.821633001789451" lon="-3.146102009341121">
        <ele>1467.0999999999999</ele>
        <time>2003-04-19T14:34:57Z</time>
      </trkpt>
      <trkpt lat="33.821669965982437" lon="-3.146000001579523">
        <ele>1467.5</ele>
        <time>2003-04-19T14:34:57Z</time>
      </trkpt>
      <trkpt lat="33.821722017601132" lon="-3.145776959136128">
        <ele>1468</ele>
        <time>2003-04-19T14:35:00Z</time>
      </trkpt>
      <trkpt lat="33.821871969848871" lon="-3.14489996060729">
        <ele>1470.0999999999999</ele>
        <time>2003-04-19T14:35:08Z</time>
      </trkpt>
      <trkpt lat="33.821884961798787" lon="-3.144774986431003">
        <ele>1470</ele>
        <time>2003-04-19T14:35:09Z</time>
      </trkpt>
      <trkpt lat="33.821917986497283" lon="-3.14425497315824">
        <ele>1470.5999999999999</ele>
        <time>2003-04-19T14:35:13Z</time>
      </trkpt>
      <trkpt lat="33.821887979283929" lon="-3.144142990931869">
        <ele>1470.7</ele>
        <time>2003-04-19T14:35:13Z</time>
      </trkpt>
      <trkpt lat="33.821831988170743" lon="-3.144041988998652">
        <ele>1470.5</ele>
        <time>2003-04-19T14:35:15Z</time>
      </trkpt>
      <trkpt lat="33.82173802703619" lon="-3.14382498152554">
        <ele>1471.0999999999999</ele>
        <time>2003-04-19T14:35:16Z</time>
      </trkpt>
      <trkpt lat="33.821725035086274" lon="-3.143692966550589">
        <ele>1471.4000000000001</ele>
        <time>2003-04-19T14:35:17Z</time>
      </trkpt>
      <trkpt lat="33.821735009551048" lon="-3.143427008762956">
        <ele>1472.2</ele>
        <time>2003-04-19T14:35:20Z</time>
      </trkpt>
      <trkpt lat="33.821795023977757" lon="-3.143107993528247">
        <ele>1473.2</ele>
        <time>2003-04-19T14:35:23Z</time>
      </trkpt>
      <trkpt lat="33.821783037856221" lon="-3.142998022958636">
        <ele>1473.3</ele>
        <time>2003-04-19T14:35:24Z</time>
      </trkpt>
      <trkpt lat="33.821754958480597" lon="-3.142885034903884">
        <ele>1473.5999999999999</ele>
        <time>2003-04-19T14:35:24Z</time>
      </trkpt>
      <trkpt lat="33.821740038692951" lon="-3.142762994393706">
        <ele>1474</ele>
        <time>2003-04-19T14:35:25Z</time>
      </trkpt>
      <trkpt lat="33.821699973195791" lon="-3.142254967242479">
        <ele>1475</ele>
        <time>2003-04-19T14:35:29Z</time>
      </trkpt>
      <trkpt lat="33.821633001789451" lon="-3.141370005905628">
        <ele>1476.8</ele>
        <time>2003-04-19T14:35:36Z</time>
      </trkpt>
      <trkpt lat="33.82152495905757" lon="-3.140876982361078">
        <ele>1477.9000000000001</ele>
        <time>2003-04-19T14:35:40Z</time>
      </trkpt>
      <trkpt lat="33.821497969329357" lon="-3.14066500402987">
        <ele>1478.9000000000001</ele>
        <time>2003-04-19T14:35:43Z</time>
      </trkpt>
      <trkpt lat="33.821452958509326" lon="-3.140487978234887">
        <ele>1479.5</ele>
        <time>2003-04-19T14:35:44Z</time>
      </trkpt>
      <trkpt lat="33.821397973224521" lon="-3.140331991016865">
        <ele>1479.5999999999999</ele>
        <time>2003-04-19T14:35:47Z</time>
      </trkpt>
      <trkpt lat="33.821442984044552" lon="-3.140167035162449">
        <ele>1480.2</ele>
        <time>2003-04-19T14:35:48Z</time>
      </trkpt>
      <trkpt lat="33.821539962664247" lon="-3.139893030747771">
        <ele>1481.4000000000001</ele>
        <time>2003-04-19T14:35:51Z</time>
      </trkpt>
      <trkpt lat="33.82163199596107" lon="-3.13943998888135">
        <ele>1483.4000000000001</ele>
        <time>2003-04-19T14:35:56Z</time>
      </trkpt>
      <trkpt lat="33.821607017889619" lon="-3.139306968078017">
        <ele>1484.4000000000001</ele>
        <time>2003-04-19T14:35:59Z</time>
      </trkpt>
      <trkpt lat="33.821638030931354" lon="-3.139147963374853">
        <ele>1485.4000000000001</ele>
        <time>2003-04-19T14:36:00Z</time>
      </trkpt>
      <trkpt lat="33.821677006781101" lon="-3.138894997537136">
        <ele>1487.3</ele>
        <time>2003-04-19T14:36:03Z</time>
      </trkpt>
      <trkpt lat="33.821731992065907" lon="-3.138746973127127">
        <ele>1488.0999999999999</ele>
        <time>2003-04-19T14:36:06Z</time>
      </trkpt>
      <trkpt lat="33.821814972907305" lon="-3.138577993959189">
        <ele>1489</ele>
        <time>2003-04-19T14:36:07Z</time>
      </trkpt>
      <trkpt lat="33.821867024526" lon="-3.138384958729148">
        <ele>1490.5999999999999</ele>
        <time>2003-04-19T14:36:10Z</time>
      </trkpt>
      <trkpt lat="33.821962997317314" lon="-3.138241963461042">
        <ele>1490.8</ele>
        <time>2003-04-19T14:36:11Z</time>
      </trkpt>
      <trkpt lat="33.822057964280248" lon="-3.138082958757877">
        <ele>1491.5</ele>
        <time>2003-04-19T14:36:14Z</time>
      </trkpt>
      <trkpt lat="33.822191990911961" lon="-3.137805014848709">
        <ele>1492.7</ele>
        <time>2003-04-19T14:36:18Z</time>
      </trkpt>
      <trkpt lat="33.822142034769058" lon="-3.137690015137196">
        <ele>1492.7</ele>
        <time>2003-04-19T14:36:19Z</time>
      </trkpt>
      <trkpt lat="33.822007002308965" lon="-3.137433025985956">
        <ele>1492.2</ele>
        <time>2003-04-19T14:36:23Z</time>
      </trkpt>
      <trkpt lat="33.821925027295947" lon="-3.137215012684465">
        <ele>1491.5</ele>
        <time>2003-04-19T14:36:26Z</time>
      </trkpt>
      <trkpt lat="33.821844980120659" lon="-3.137091966345906">
        <ele>1491.3</ele>
        <time>2003-04-19T14:36:29Z</time>
      </trkpt>
      <trkpt lat="33.821769962087274" lon="-3.13701300881803">
        <ele>1491.2</ele>
        <time>2003-04-19T14:36:30Z</time>
      </trkpt>
      <trkpt lat="33.821708019822836" lon="-3.136897003278136">
        <ele>1490.9000000000001</ele>
        <time>2003-04-19T14:36:34Z</time>
      </trkpt>
      <trkpt lat="33.82161196321249" lon="-3.136674966663122">
        <ele>1490.8</ele>
        <time>2003-04-19T14:36:37Z</time>
      </trkpt>
      <trkpt lat="33.821467962116003" lon="-3.136167023330927">
        <ele>1490.2</ele>
        <time>2003-04-19T14:36:46Z</time>
      </trkpt>
      <trkpt lat="33.821452958509326" lon="-3.135950015857816">
        <ele>1490.7</ele>
        <time>2003-04-19T14:36:49Z</time>
      </trkpt>
      <trkpt lat="33.821420017629862" lon="-3.135733008384705">
        <ele>1491.0999999999999</ele>
        <time>2003-04-19T14:36:53Z</time>
      </trkpt>
      <trkpt lat="33.821352040395141" lon="-3.135609962046146">
        <ele>1491</ele>
        <time>2003-04-19T14:36:54Z</time>
      </trkpt>
      <trkpt lat="33.821141989901662" lon="-3.135221963748336">
        <ele>1490.5999999999999</ele>
        <time>2003-04-19T14:37:01Z</time>
      </trkpt>
      <trkpt lat="33.821015004068613" lon="-3.134881993755698">
        <ele>1490.5999999999999</ele>
        <time>2003-04-19T14:37:08Z</time>
      </trkpt>
      <trkpt lat="33.820888018235564" lon="-3.134545041248202">
        <ele>1490.8</ele>
        <time>2003-04-19T14:37:15Z</time>
      </trkpt>
      <trkpt lat="33.820788022130728" lon="-3.13428302295506">
        <ele>1490.8</ele>
        <time>2003-04-19T14:37:20Z</time>
      </trkpt>
      <trkpt lat="33.820546958595514" lon="-3.133805003017187">
        <ele>1491.3</ele>
        <time>2003-04-19T14:37:32Z</time>
      </trkpt>
      <trkpt lat="33.820551987737417" lon="-3.133692014962435">
        <ele>1491.3</ele>
        <time>2003-04-19T14:37:35Z</time>
      </trkpt>
      <trkpt lat="33.820517035201192" lon="-3.133517000824213">
        <ele>1491.5</ele>
        <time>2003-04-19T14:37:51Z</time>
      </trkpt>
      <trkpt lat="33.820374961942434" lon="-3.133412981405854">
        <ele>1491.8</ele>
        <time>2003-04-19T14:38:02Z</time>
      </trkpt>
      <trkpt lat="33.820322994142771" lon="-3.133314996957779">
        <ele>1492.2</ele>
        <time>2003-04-19T14:38:06Z</time>
      </trkpt>
      <trkpt lat="33.820262979716063" lon="-3.133222041651607">
        <ele>1492.9000000000001</ele>
        <time>2003-04-19T14:38:14Z</time>
      </trkpt>
      <trkpt lat="33.82021201774478" lon="-3.133117016404867">
        <ele>1494</ele>
        <time>2003-04-19T14:40:48Z</time>
      </trkpt>
      <trkpt lat="33.820157032459974" lon="-3.132985001429915">
        <ele>1494.2</ele>
        <time>2003-04-19T14:40:53Z</time>
      </trkpt>
      <trkpt lat="33.820016970857978" lon="-3.132677972316742">
        <ele>1494.5999999999999</ele>
        <time>2003-04-19T14:41:00Z</time>
      </trkpt>
      <trkpt lat="33.819942036643624" lon="-3.132492983713746">
        <ele>1494.3</ele>
        <time>2003-04-19T14:41:04Z</time>
      </trkpt>
      <trkpt lat="33.819842962548137" lon="-3.132210010662675">
        <ele>1494.3</ele>
        <time>2003-04-19T14:41:07Z</time>
      </trkpt>
      <trkpt lat="33.819799963384867" lon="-3.132076989859343">
        <ele>1494.7</ele>
        <time>2003-04-19T14:41:10Z</time>
      </trkpt>
      <trkpt lat="33.819753024727106" lon="-3.131942041218281">
        <ele>1494.5999999999999</ele>
        <time>2003-04-19T14:41:11Z</time>
      </trkpt>
      <trkpt lat="33.819665014743805" lon="-3.131804997101426">
        <ele>1494.4000000000001</ele>
        <time>2003-04-19T14:41:14Z</time>
      </trkpt>
      <trkpt lat="33.819587985053658" lon="-3.131657978519797">
        <ele>1494.5</ele>
        <time>2003-04-19T14:41:15Z</time>
      </trkpt>
      <trkpt lat="33.819559989497066" lon="-3.131477013230324">
        <ele>1495</ele>
        <time>2003-04-19T14:41:18Z</time>
      </trkpt>
      <trkpt lat="33.819492012262344" lon="-3.131102006882429">
        <ele>1495.5</ele>
        <time>2003-04-19T14:41:22Z</time>
      </trkpt>
      <trkpt lat="33.819335019215941" lon="-3.13046196475625">
        <ele>1496.4000000000001</ele>
        <time>2003-04-19T14:41:29Z</time>
      </trkpt>
      <trkpt lat="33.81926997564733" lon="-3.129914961755276">
        <ele>1497.2</ele>
        <time>2003-04-19T14:41:34Z</time>
      </trkpt>
      <trkpt lat="33.819257989525795" lon="-3.129740031436086">
        <ele>1497.5999999999999</ele>
        <time>2003-04-19T14:41:37Z</time>
      </trkpt>
      <trkpt lat="33.81924700923264" lon="-3.129554959014058">
        <ele>1498.3</ele>
        <time>2003-04-19T14:41:38Z</time>
      </trkpt>
      <trkpt lat="33.819201998412609" lon="-3.129387991502881">
        <ele>1498.8</ele>
        <time>2003-04-19T14:41:41Z</time>
      </trkpt>
      <trkpt lat="33.819208033382893" lon="-3.129233010113239">
        <ele>1499.2</ele>
        <time>2003-04-19T14:41:42Z</time>
      </trkpt>
      <trkpt lat="33.819171991199255" lon="-3.129071993753314">
        <ele>1499.9000000000001</ele>
        <time>2003-04-19T14:41:45Z</time>
      </trkpt>
      <trkpt lat="33.819063026458025" lon="-3.128907037898898">
        <ele>1500</ele>
        <time>2003-04-19T14:41:46Z</time>
      </trkpt>
      <trkpt lat="33.81901198066771" lon="-3.128815004602075">
        <ele>1500.2</ele>
        <time>2003-04-19T14:41:47Z</time>
      </trkpt>
      <trkpt lat="33.818856999278069" lon="-3.128515016287565">
        <ele>1500.8</ele>
        <time>2003-04-19T14:41:51Z</time>
      </trkpt>
      <trkpt lat="33.818777035921812" lon="-3.128464976325631">
        <ele>1501</ele>
        <time>2003-04-19T14:41:54Z</time>
      </trkpt>
      <trkpt lat="33.818615013733506" lon="-3.128360034897924">
        <ele>1502.3</ele>
        <time>2003-04-19T14:41:57Z</time>
      </trkpt>
      <trkpt lat="33.81853798404336" lon="-3.128209998831153">
        <ele>1502.8</ele>
        <time>2003-04-19T14:41:58Z</time>
      </trkpt>
      <trkpt lat="33.81847302429378" lon="-3.12807303853333">
        <ele>1503.5</ele>
        <time>2003-04-19T14:42:01Z</time>
      </trkpt>
      <trkpt lat="33.818462966009974" lon="-3.127906993031502">
        <ele>1503.5999999999999</ele>
        <time>2003-04-19T14:42:04Z</time>
      </trkpt>
      <trkpt lat="33.818460032343864" lon="-3.127697026357055">
        <ele>1503.9000000000001</ele>
        <time>2003-04-19T14:42:05Z</time>
      </trkpt>
      <trkpt lat="33.818439999595284" lon="-3.127335011959076">
        <ele>1504.9000000000001</ele>
        <time>2003-04-19T14:42:09Z</time>
      </trkpt>
      <trkpt lat="33.81843295879662" lon="-3.127169972285628">
        <ele>1505.2</ele>
        <time>2003-04-19T14:42:12Z</time>
      </trkpt>
      <trkpt lat="33.818406974896789" lon="-3.127044998109341">
        <ele>1505.7</ele>
        <time>2003-04-19T14:42:14Z</time>
      </trkpt>
      <trkpt lat="33.818324999883771" lon="-3.126933015882969">
        <ele>1506</ele>
        <time>2003-04-19T14:42:17Z</time>
      </trkpt>
      <trkpt lat="33.818189967423677" lon="-3.126773005351424">
        <ele>1507.5999999999999</ele>
        <time>2003-04-19T14:42:20Z</time>
      </trkpt>
      <trkpt lat="33.818213017657399" lon="-3.126621963456273">
        <ele>1507.9000000000001</ele>
        <time>2003-04-19T14:42:21Z</time>
      </trkpt>
      <trkpt lat="33.818251993507147" lon="-3.126475028693676">
        <ele>1508.5</ele>
        <time>2003-04-19T14:42:24Z</time>
      </trkpt>
      <trkpt lat="33.818225003778934" lon="-3.126309989020228">
        <ele>1509.7</ele>
        <time>2003-04-19T14:42:25Z</time>
      </trkpt>
      <trkpt lat="33.818170018494129" lon="-3.126145033165813">
        <ele>1510.5999999999999</ele>
        <time>2003-04-19T14:42:28Z</time>
      </trkpt>
      <trkpt lat="33.818059964105487" lon="-3.125902963802218">
        <ele>1512.4000000000001</ele>
        <time>2003-04-19T14:42:31Z</time>
      </trkpt>
      <trkpt lat="33.817929960787296" lon="-3.125813025981188">
        <ele>1514</ele>
        <time>2003-04-19T14:42:32Z</time>
      </trkpt>
      <trkpt lat="33.817857960239053" lon="-3.125680005177856">
        <ele>1515.3</ele>
        <time>2003-04-19T14:42:35Z</time>
      </trkpt>
      <trkpt lat="33.817791994661093" lon="-3.125440031290054">
        <ele>1517.2</ele>
        <time>2003-04-19T14:42:37Z</time>
      </trkpt>
      <trkpt lat="33.817686969414353" lon="-3.125199973583221">
        <ele>1519</ele>
        <time>2003-04-19T14:42:40Z</time>
      </trkpt>
      <trkpt lat="33.8175930082798" lon="-3.125063013285399">
        <ele>1520.4000000000001</ele>
        <time>2003-04-19T14:42:43Z</time>
      </trkpt>
      <trkpt lat="33.817498041316867" lon="-3.124929992482066">
        <ele>1521.4000000000001</ele>
        <time>2003-04-19T14:42:44Z</time>
      </trkpt>
      <trkpt lat="33.817329984158278" lon="-3.12457300722599">
        <ele>1521.5</ele>
        <time>2003-04-19T14:42:50Z</time>
      </trkpt>
      <trkpt lat="33.817286984995008" lon="-3.124412996694446">
        <ele>1521.2</ele>
        <time>2003-04-19T14:42:52Z</time>
      </trkpt>
      <trkpt lat="33.817180031910539" lon="-3.124360023066402">
        <ele>1521.0999999999999</ele>
        <time>2003-04-19T14:42:55Z</time>
      </trkpt>
      <trkpt lat="33.817084981128573" lon="-3.124277964234352">
        <ele>1520.4000000000001</ele>
        <time>2003-04-19T14:42:56Z</time>
      </trkpt>
      <trkpt lat="33.816967969760299" lon="-3.124219961464405">
        <ele>1520</ele>
        <time>2003-04-19T14:42:59Z</time>
      </trkpt>
      <trkpt lat="33.816877026110888" lon="-3.124145027250052">
        <ele>1519.5999999999999</ele>
        <time>2003-04-19T14:43:00Z</time>
      </trkpt>
      <trkpt lat="33.816824974492192" lon="-3.124045031145215">
        <ele>1518.8</ele>
        <time>2003-04-19T14:43:03Z</time>
      </trkpt>
      <trkpt lat="33.816751968115568" lon="-3.123979987576604">
        <ele>1518.3</ele>
        <time>2003-04-19T14:43:04Z</time>
      </trkpt>
      <trkpt lat="33.816633028909564" lon="-3.123897006735206">
        <ele>1517.2</ele>
        <time>2003-04-19T14:43:07Z</time>
      </trkpt>
      <trkpt lat="33.81649699062109" lon="-3.123815031722188">
        <ele>1515.8</ele>
        <time>2003-04-19T14:43:11Z</time>
      </trkpt>
      <trkpt lat="33.816313007846475" lon="-3.123753005638719">
        <ele>1515</ele>
        <time>2003-04-19T14:43:14Z</time>
      </trkpt>
      <trkpt lat="33.815977983176708" lon="-3.123764991760254">
        <ele>1514.9000000000001</ele>
        <time>2003-04-19T14:43:19Z</time>
      </trkpt>
      <trkpt lat="33.815772961825132" lon="-3.123759962618351">
        <ele>1513.9000000000001</ele>
        <time>2003-04-19T14:43:22Z</time>
      </trkpt>
      <trkpt lat="33.815676989033818" lon="-3.123706988990307">
        <ele>1512.9000000000001</ele>
        <time>2003-04-19T14:43:23Z</time>
      </trkpt>
      <trkpt lat="33.815608005970716" lon="-3.123604981228709">
        <ele>1511.5</ele>
        <time>2003-04-19T14:43:26Z</time>
      </trkpt>
      <trkpt lat="33.815446989610791" lon="-3.123287977650762">
        <ele>1507.5999999999999</ele>
        <time>2003-04-19T14:43:30Z</time>
      </trkpt>
      <trkpt lat="33.815352022647858" lon="-3.123161997646093">
        <ele>1506.5999999999999</ele>
        <time>2003-04-19T14:43:33Z</time>
      </trkpt>
      <trkpt lat="33.815305000171065" lon="-3.123027971014381">
        <ele>1505.5</ele>
        <time>2003-04-19T14:43:34Z</time>
      </trkpt>
      <trkpt lat="33.815325032919645" lon="-3.122887993231416">
        <ele>1504.7</ele>
        <time>2003-04-19T14:43:37Z</time>
      </trkpt>
      <trkpt lat="33.815338024869561" lon="-3.122609965503216">
        <ele>1502.5999999999999</ele>
        <time>2003-04-19T14:43:41Z</time>
      </trkpt>
      <trkpt lat="33.815244985744357" lon="-3.122517010197043">
        <ele>1501.8</ele>
        <time>2003-04-19T14:43:42Z</time>
      </trkpt>
      <trkpt lat="33.815147001296282" lon="-3.122441992163658">
        <ele>1500.8</ele>
        <time>2003-04-19T14:43:45Z</time>
      </trkpt>
      <trkpt lat="33.81497198715806" lon="-3.12220998108387">
        <ele>1499</ele>
        <time>2003-04-19T14:43:49Z</time>
      </trkpt>
      <trkpt lat="33.814877020195127" lon="-3.122106967493892">
        <ele>1498.5</ele>
        <time>2003-04-19T14:43:50Z</time>
      </trkpt>
      <trkpt lat="33.814835026860237" lon="-3.121998002752662">
        <ele>1498.3</ele>
        <time>2003-04-19T14:43:53Z</time>
      </trkpt>
      <trkpt lat="33.814822034910321" lon="-3.121877973899245">
        <ele>1498.2</ele>
        <time>2003-04-19T14:43:56Z</time>
      </trkpt>
      <trkpt lat="33.814781969413161" lon="-3.121768003329635">
        <ele>1497.9000000000001</ele>
        <time>2003-04-19T14:43:57Z</time>
      </trkpt>
      <trkpt lat="33.814687002450228" lon="-3.121683010831475">
        <ele>1497.2</ele>
        <time>2003-04-19T14:44:00Z</time>
      </trkpt>
      <trkpt lat="33.814422972500324" lon="-3.121438007801771">
        <ele>1495.5999999999999</ele>
        <time>2003-04-19T14:44:05Z</time>
      </trkpt>
      <trkpt lat="33.814181992784142" lon="-3.121110023930669">
        <ele>1494.5</ele>
        <time>2003-04-19T14:44:12Z</time>
      </trkpt>
      <trkpt lat="33.814117033034563" lon="-3.121012961491942">
        <ele>1494</ele>
        <time>2003-04-19T14:44:15Z</time>
      </trkpt>
      <trkpt lat="33.813972026109695" lon="-3.12092000618577">
        <ele>1494</ele>
        <time>2003-04-19T14:44:19Z</time>
      </trkpt>
      <trkpt lat="33.813802963122725" lon="-3.120808023959398">
        <ele>1493.5999999999999</ele>
        <time>2003-04-19T14:44:21Z</time>
      </trkpt>
      <trkpt lat="33.813717970624566" lon="-3.120702998712659">
        <ele>1493.2</ele>
        <time>2003-04-19T14:44:24Z</time>
      </trkpt>
      <trkpt lat="33.813625015318394" lon="-3.120596967637539">
        <ele>1492.8</ele>
        <time>2003-04-19T14:44:25Z</time>
      </trkpt>
      <trkpt lat="33.813547985628247" lon="-3.12049001455307">
        <ele>1492.7</ele>
        <time>2003-04-19T14:44:28Z</time>
      </trkpt>
      <trkpt lat="33.813465004786849" lon="-3.120407033711672">
        <ele>1492.4000000000001</ele>
        <time>2003-04-19T14:44:29Z</time>
      </trkpt>
      <trkpt lat="33.813023027032614" lon="-3.12006002292037">
        <ele>1490.9000000000001</ele>
        <time>2003-04-19T14:44:39Z</time>
      </trkpt>
      <trkpt lat="33.812937028706074" lon="-3.119992967694998">
        <ele>1491</ele>
        <time>2003-04-19T14:44:40Z</time>
      </trkpt>
      <trkpt lat="33.812681967392564" lon="-3.119724998250604">
        <ele>1490.0999999999999</ele>
        <time>2003-04-19T14:44:47Z</time>
      </trkpt>
      <trkpt lat="33.812545007094741" lon="-3.119570016860962">
        <ele>1489.5</ele>
        <time>2003-04-19T14:44:50Z</time>
      </trkpt>
      <trkpt lat="33.812203025445342" lon="-3.119274973869324">
        <ele>1488.4000000000001</ele>
        <time>2003-04-19T14:44:56Z</time>
      </trkpt>
      <trkpt lat="33.811934972181916" lon="-3.119097026064992">
        <ele>1487.8</ele>
        <time>2003-04-19T14:45:02Z</time>
      </trkpt>
      <trkpt lat="33.811817960813642" lon="-3.118989989161491">
        <ele>1487.5</ele>
        <time>2003-04-19T14:45:03Z</time>
      </trkpt>
      <trkpt lat="33.811692986637354" lon="-3.118893010541797">
        <ele>1487.2</ele>
        <time>2003-04-19T14:45:06Z</time>
      </trkpt>
      <trkpt lat="33.811583016067743" lon="-3.118765018880367">
        <ele>1486.9000000000001</ele>
        <time>2003-04-19T14:45:07Z</time>
      </trkpt>
      <trkpt lat="33.811444966122508" lon="-3.118552034720779">
        <ele>1486.8</ele>
        <time>2003-04-19T14:45:10Z</time>
      </trkpt>
      <trkpt lat="33.811286967247725" lon="-3.118302002549171">
        <ele>1486.5</ele>
        <time>2003-04-19T14:45:14Z</time>
      </trkpt>
      <trkpt lat="33.811212033033371" lon="-3.118241988122463">
        <ele>1486.3</ele>
        <time>2003-04-19T14:45:14Z</time>
      </trkpt>
      <trkpt lat="33.811055039986968" lon="-3.118141992017627">
        <ele>1485.8</ele>
        <time>2003-04-19T14:45:17Z</time>
      </trkpt>
      <trkpt lat="33.810917995870113" lon="-3.11804199591279">
        <ele>1485.3</ele>
        <time>2003-04-19T14:45:18Z</time>
      </trkpt>
      <trkpt lat="33.810556987300515" lon="-3.117690039798617">
        <ele>1484.2</ele>
        <time>2003-04-19T14:45:25Z</time>
      </trkpt>
      <trkpt lat="33.810408040881157" lon="-3.11750496737659">
        <ele>1483.3</ele>
        <time>2003-04-19T14:45:27Z</time>
      </trkpt>
      <trkpt lat="33.810263033956289" lon="-3.117285026237369">
        <ele>1483.5999999999999</ele>
        <time>2003-04-19T14:45:30Z</time>
      </trkpt>
      <trkpt lat="33.810139987617731" lon="-3.117202967405319">
        <ele>1483.3</ele>
        <time>2003-04-19T14:45:33Z</time>
      </trkpt>
      <trkpt lat="33.810021970421076" lon="-3.117106994614005">
        <ele>1483.0999999999999</ele>
        <time>2003-04-19T14:45:34Z</time>
      </trkpt>
      <trkpt lat="33.809842010959983" lon="-3.116968022659421">
        <ele>1482.5999999999999</ele>
        <time>2003-04-19T14:45:37Z</time>
      </trkpt>
      <trkpt lat="33.809482008218765" lon="-3.116769958287478">
        <ele>1481</ele>
        <time>2003-04-19T14:45:42Z</time>
      </trkpt>
      <trkpt lat="33.809334989637136" lon="-3.116661999374628">
        <ele>1480.7</ele>
        <time>2003-04-19T14:45:45Z</time>
      </trkpt>
      <trkpt lat="33.809262989088893" lon="-3.116589998826385">
        <ele>1480.3</ele>
        <time>2003-04-19T14:45:46Z</time>
      </trkpt>
      <trkpt lat="33.809168022125959" lon="-3.116510035470128">
        <ele>1480.3</ele>
        <time>2003-04-19T14:45:50Z</time>
      </trkpt>
      <trkpt lat="33.809070037677884" lon="-3.116454966366291">
        <ele>1480</ele>
        <time>2003-04-19T14:45:53Z</time>
      </trkpt>
      <trkpt lat="33.808974986895919" lon="-3.116377014666796">
        <ele>1479.8</ele>
        <time>2003-04-19T14:45:54Z</time>
      </trkpt>
      <trkpt lat="33.80884800106287" lon="-3.116290010511875">
        <ele>1479.8</ele>
        <time>2003-04-19T14:45:57Z</time>
      </trkpt>
      <trkpt lat="33.808641973882914" lon="-3.116196971386671">
        <ele>1479.2</ele>
        <time>2003-04-19T14:46:00Z</time>
      </trkpt>
      <trkpt lat="33.808484980836511" lon="-3.116122037172318">
        <ele>1478.7</ele>
        <time>2003-04-19T14:46:01Z</time>
      </trkpt>
      <trkpt lat="33.808256993070245" lon="-3.116005025804043">
        <ele>1477.9000000000001</ele>
        <time>2003-04-19T14:46:04Z</time>
      </trkpt>
      <trkpt lat="33.808118021115661" lon="-3.115873010829091">
        <ele>1477.5999999999999</ele>
        <time>2003-04-19T14:46:07Z</time>
      </trkpt>
      <trkpt lat="33.80798801779747" lon="-3.115787012502551">
        <ele>1477.0999999999999</ele>
        <time>2003-04-19T14:46:08Z</time>
      </trkpt>
      <trkpt lat="33.807615023106337" lon="-3.115518037229776">
        <ele>1476.3</ele>
        <time>2003-04-19T14:46:15Z</time>
      </trkpt>
      <trkpt lat="33.807449983432889" lon="-3.115351991727948">
        <ele>1476</ele>
        <time>2003-04-19T14:46:17Z</time>
      </trkpt>
      <trkpt lat="33.807319980114698" lon="-3.115253001451492">
        <ele>1475.4000000000001</ele>
        <time>2003-04-19T14:46:20Z</time>
      </trkpt>
      <trkpt lat="33.807152006775141" lon="-3.115131966769695">
        <ele>1474.8</ele>
        <time>2003-04-19T14:46:23Z</time>
      </trkpt>
      <trkpt lat="33.807046981528401" lon="-3.115021996200085">
        <ele>1474.7</ele>
        <time>2003-04-19T14:46:24Z</time>
      </trkpt>
      <trkpt lat="33.80693499930203" lon="-3.114901967346668">
        <ele>1474.3</ele>
        <time>2003-04-19T14:46:27Z</time>
      </trkpt>
      <trkpt lat="33.806822011247277" lon="-3.114767018705607">
        <ele>1473.5999999999999</ele>
        <time>2003-04-19T14:46:28Z</time>
      </trkpt>
      <trkpt lat="33.806726960465312" lon="-3.114612959325314">
        <ele>1473.5999999999999</ele>
        <time>2003-04-19T14:46:31Z</time>
      </trkpt>
      <trkpt lat="33.806671975180507" lon="-3.114469964057207">
        <ele>1473.3</ele>
        <time>2003-04-19T14:46:32Z</time>
      </trkpt>
      <trkpt lat="33.806627970188856" lon="-3.114262009039521">
        <ele>1473.2</ele>
        <time>2003-04-19T14:46:35Z</time>
      </trkpt>
      <trkpt lat="33.806601986289024" lon="-3.114152038469911">
        <ele>1473.4000000000001</ele>
        <time>2003-04-19T14:46:38Z</time>
      </trkpt>
      <trkpt lat="33.806516993790865" lon="-3.11406696215272">
        <ele>1472.8</ele>
        <time>2003-04-19T14:46:42Z</time>
      </trkpt>
      <trkpt lat="33.806405011564493" lon="-3.114051958546042">
        <ele>1472.3</ele>
        <time>2003-04-19T14:46:43Z</time>
      </trkpt>
      <trkpt lat="33.80620501935482" lon="-3.114023040980101">
        <ele>1471.9000000000001</ele>
        <time>2003-04-19T14:46:47Z</time>
      </trkpt>
      <trkpt lat="33.80566799081862" lon="-3.113912986591458">
        <ele>1471.0999999999999</ele>
        <time>2003-04-19T14:46:55Z</time>
      </trkpt>
      <trkpt lat="33.805489959195256" lon="-3.113888008520007">
        <ele>1470.9000000000001</ele>
        <time>2003-04-19T14:46:58Z</time>
      </trkpt>
      <trkpt lat="33.80534696392715" lon="-3.11389303766191">
        <ele>1470.4000000000001</ele>
        <time>2003-04-19T14:47:01Z</time>
      </trkpt>
      <trkpt lat="33.80523799918592" lon="-3.113821959123015">
        <ele>1470.0999999999999</ele>
        <time>2003-04-19T14:47:02Z</time>
      </trkpt>
      <trkpt lat="33.80515300668776" lon="-3.113764962181449">
        <ele>1469.5</ele>
        <time>2003-04-19T14:47:06Z</time>
      </trkpt>
      <trkpt lat="33.804982015863061" lon="-3.11367703601718">
        <ele>1469.2</ele>
        <time>2003-04-19T14:47:13Z</time>
      </trkpt>
      <trkpt lat="33.80487497895956" lon="-3.113641999661923">
        <ele>1469.3</ele>
        <time>2003-04-19T14:47:14Z</time>
      </trkpt>
      <trkpt lat="33.804740030318499" lon="-3.113588020205498">
        <ele>1469.0999999999999</ele>
        <time>2003-04-19T14:47:17Z</time>
      </trkpt>
      <trkpt lat="33.804541965946555" lon="-3.113539991900325">
        <ele>1468.8</ele>
        <time>2003-04-19T14:47:20Z</time>
      </trkpt>
      <trkpt lat="33.804397964850068" lon="-3.113577039912343">
        <ele>1468.5999999999999</ele>
        <time>2003-04-19T14:47:22Z</time>
      </trkpt>
      <trkpt lat="33.804182969033718" lon="-3.113617021590471">
        <ele>1468.4000000000001</ele>
        <time>2003-04-19T14:47:25Z</time>
      </trkpt>
      <trkpt lat="33.804018013179302" lon="-3.113557007163763">
        <ele>1468.2</ele>
        <time>2003-04-19T14:47:33Z</time>
      </trkpt>
      <trkpt lat="33.803836964070797" lon="-3.113554995507002">
        <ele>1468</ele>
        <time>2003-04-19T14:47:37Z</time>
      </trkpt>
      <trkpt lat="33.80356203764677" lon="-3.113477965816855">
        <ele>1467.2</ele>
        <time>2003-04-19T14:47:41Z</time>
      </trkpt>
      <trkpt lat="33.803264982998371" lon="-3.11344301328063">
        <ele>1467.2</ele>
        <time>2003-04-19T14:47:45Z</time>
      </trkpt>
      <trkpt lat="33.803130034357309" lon="-3.113424992188811">
        <ele>1466.7</ele>
        <time>2003-04-19T14:47:47Z</time>
      </trkpt>
      <trkpt lat="33.803016962483525" lon="-3.113424992188811">
        <ele>1466.5</ele>
        <time>2003-04-19T14:47:49Z</time>
      </trkpt>
      <trkpt lat="33.802880002185702" lon="-3.11346204020083">
        <ele>1465.9000000000001</ele>
        <time>2003-04-19T14:47:52Z</time>
      </trkpt>
      <trkpt lat="33.802755028009415" lon="-3.113447958603501">
        <ele>1467.5</ele>
        <time>2003-04-19T14:49:29Z</time>
      </trkpt>
      <trkpt lat="33.802644973620772" lon="-3.11344200745225">
        <ele>1467.4000000000001</ele>
        <time>2003-04-19T14:49:32Z</time>
      </trkpt>
      <trkpt lat="33.802497033029795" lon="-3.113432032987475">
        <ele>1467</ele>
        <time>2003-04-19T14:49:33Z</time>
      </trkpt>
      <trkpt lat="33.802210036665201" lon="-3.113388027995825">
        <ele>1466.7</ele>
        <time>2003-04-19T14:49:37Z</time>
      </trkpt>
      <trkpt lat="33.802033010870218" lon="-3.113288031890988">
        <ele>1466.2</ele>
        <time>2003-04-19T14:49:40Z</time>
      </trkpt>
      <trkpt lat="33.801942989230156" lon="-3.11322801746428">
        <ele>1465.8</ele>
        <time>2003-04-19T14:49:43Z</time>
      </trkpt>
      <trkpt lat="33.801854979246855" lon="-3.113162973895669">
        <ele>1465.7</ele>
        <time>2003-04-19T14:49:45Z</time>
      </trkpt>
      <trkpt lat="33.801733022555709" lon="-3.113137995824218">
        <ele>1465.4000000000001</ele>
        <time>2003-04-19T14:49:48Z</time>
      </trkpt>
      <trkpt lat="33.801575023680925" lon="-3.113087033852935">
        <ele>1465</ele>
        <time>2003-04-19T14:49:49Z</time>
      </trkpt>
      <trkpt lat="33.801247961819172" lon="-3.112921994179487">
        <ele>1464.7</ele>
        <time>2003-04-19T14:49:53Z</time>
      </trkpt>
      <trkpt lat="33.800916960462928" lon="-3.11267196200788">
        <ele>1463.7</ele>
        <time>2003-04-19T14:49:59Z</time>
      </trkpt>
      <trkpt lat="33.800836997106671" lon="-3.11258303001523">
        <ele>1462.9000000000001</ele>
        <time>2003-04-19T14:50:00Z</time>
      </trkpt>
      <trkpt lat="33.800762984901667" lon="-3.112478004768491">
        <ele>1463.5999999999999</ele>
        <time>2003-04-19T14:50:03Z</time>
      </trkpt>
      <trkpt lat="33.80059702321887" lon="-3.112239958718419">
        <ele>1463.0999999999999</ele>
        <time>2003-04-19T14:50:07Z</time>
      </trkpt>
      <trkpt lat="33.800462996587157" lon="-3.112177010625601">
        <ele>1462.9000000000001</ele>
        <time>2003-04-19T14:50:08Z</time>
      </trkpt>
      <trkpt lat="33.800287982448936" lon="-3.112190002575517">
        <ele>1462.4000000000001</ele>
        <time>2003-04-19T14:50:11Z</time>
      </trkpt>
      <trkpt lat="33.799993023276329" lon="-3.112239958718419">
        <ele>1461.9000000000001</ele>
        <time>2003-04-19T14:50:14Z</time>
      </trkpt>
      <trkpt lat="33.799593038856983" lon="-3.112278012558818">
        <ele>1461.4000000000001</ele>
        <time>2003-04-19T14:50:18Z</time>
      </trkpt>
      <trkpt lat="33.799227001145482" lon="-3.112263008952141">
        <ele>1461.2</ele>
        <time>2003-04-19T14:50:22Z</time>
      </trkpt>
      <trkpt lat="33.799122981727123" lon="-3.112226966768503">
        <ele>1461.0999999999999</ele>
        <time>2003-04-19T14:50:23Z</time>
      </trkpt>
      <trkpt lat="33.799037989228964" lon="-3.112141974270344">
        <ele>1461.7</ele>
        <time>2003-04-19T14:50:26Z</time>
      </trkpt>
      <trkpt lat="33.798960037529469" lon="-3.112033009529114">
        <ele>1462.4000000000001</ele>
        <time>2003-04-19T14:50:27Z</time>
      </trkpt>
      <trkpt lat="33.798870015889406" lon="-3.111839974299073">
        <ele>1462.9000000000001</ele>
        <time>2003-04-19T14:50:31Z</time>
      </trkpt>
      <trkpt lat="33.798716962337494" lon="-3.111391961574554">
        <ele>1463.8</ele>
        <time>2003-04-19T14:50:37Z</time>
      </trkpt>
      <trkpt lat="33.798628030344844" lon="-3.111296994611621">
        <ele>1464.5999999999999</ele>
        <time>2003-04-19T14:50:38Z</time>
      </trkpt>
      <trkpt lat="33.798531973734498" lon="-3.111257012933493">
        <ele>1465.4000000000001</ele>
        <time>2003-04-19T14:50:41Z</time>
      </trkpt>
      <trkpt lat="33.798465002328157" lon="-3.111173026263714">
        <ele>1465.9000000000001</ele>
        <time>2003-04-19T14:50:42Z</time>
      </trkpt>
      <trkpt lat="33.79842703230679" lon="-3.111051991581917">
        <ele>1466.2</ele>
        <time>2003-04-19T14:50:45Z</time>
      </trkpt>
      <trkpt lat="33.79840699955821" lon="-3.110930034890771">
        <ele>1466.5</ele>
        <time>2003-04-19T14:50:46Z</time>
      </trkpt>
      <trkpt lat="33.798413034528494" lon="-3.110798019915819">
        <ele>1466.3</ele>
        <time>2003-04-19T14:50:49Z</time>
      </trkpt>
      <trkpt lat="33.798404987901449" lon="-3.110668016597629">
        <ele>1466.4000000000001</ele>
        <time>2003-04-19T14:50:50Z</time>
      </trkpt>
      <trkpt lat="33.798359977081418" lon="-3.110546981915832">
        <ele>1466.8</ele>
        <time>2003-04-19T14:50:53Z</time>
      </trkpt>
      <trkpt lat="33.798222010955215" lon="-3.11024003662169">
        <ele>1468.3</ele>
        <time>2003-04-19T14:50:58Z</time>
      </trkpt>
      <trkpt lat="33.798099970445037" lon="-3.110062004998326">
        <ele>1469.2</ele>
        <time>2003-04-19T14:51:01Z</time>
      </trkpt>
      <trkpt lat="33.798131989315152" lon="-3.109953040257096">
        <ele>1469.2</ele>
        <time>2003-04-19T14:51:06Z</time>
      </trkpt>
      <trkpt lat="33.798138024285436" lon="-3.109835023060441">
        <ele>1469.2</ele>
        <time>2003-04-19T14:51:09Z</time>
      </trkpt>
      <trkpt lat="33.798197032883763" lon="-3.109536962583661">
        <ele>1469.8</ele>
        <time>2003-04-19T14:51:16Z</time>
      </trkpt>
      <trkpt lat="33.798250006511807" lon="-3.109420035034418">
        <ele>1469.8</ele>
        <time>2003-04-19T14:51:17Z</time>
      </trkpt>
      <trkpt lat="33.798331981524825" lon="-3.109315009787679">
        <ele>1469.8</ele>
        <time>2003-04-19T14:51:20Z</time>
      </trkpt>
      <trkpt lat="33.79844999872148" lon="-3.109158016741276">
        <ele>1470.2</ele>
        <time>2003-04-19T14:51:23Z</time>
      </trkpt>
      <trkpt lat="33.798687038943172" lon="-3.108761971816421">
        <ele>1471.5999999999999</ele>
        <time>2003-04-19T14:51:28Z</time>
      </trkpt>
      <trkpt lat="33.798800026997924" lon="-3.108613025397062">
        <ele>1472</ele>
        <time>2003-04-19T14:51:32Z</time>
      </trkpt>
      <trkpt lat="33.798951990902424" lon="-3.10850003734231">
        <ele>1472.7</ele>
        <time>2003-04-19T14:51:36Z</time>
      </trkpt>
      <trkpt lat="33.799066990613937" lon="-3.108408004045487">
        <ele>1473</ele>
        <time>2003-04-19T14:51:37Z</time>
      </trkpt>
      <trkpt lat="33.79920001141727" lon="-3.108371961861849">
        <ele>1473.0999999999999</ele>
        <time>2003-04-19T14:51:40Z</time>
      </trkpt>
      <trkpt lat="33.799300007522106" lon="-3.108352012932301">
        <ele>1473.2</ele>
        <time>2003-04-19T14:51:41Z</time>
      </trkpt>
      <trkpt lat="33.799402015283704" lon="-3.108301972970367">
        <ele>1473.5999999999999</ele>
        <time>2003-04-19T14:51:44Z</time>
      </trkpt>
      <trkpt lat="33.799496982246637" lon="-3.108232989907265">
        <ele>1474.0999999999999</ele>
        <time>2003-04-19T14:51:45Z</time>
      </trkpt>
      <trkpt lat="33.799551967531443" lon="-3.108140034601092">
        <ele>1474.4000000000001</ele>
        <time>2003-04-19T14:51:48Z</time>
      </trkpt>
      <trkpt lat="33.799632014706731" lon="-3.107944987714291">
        <ele>1475.5</ele>
        <time>2003-04-19T14:51:52Z</time>
      </trkpt>
      <trkpt lat="33.799784984439611" lon="-3.107796963304281">
        <ele>1476.3</ele>
        <time>2003-04-19T14:51:55Z</time>
      </trkpt>
      <trkpt lat="33.7998650316149" lon="-3.107686992734671">
        <ele>1476.3</ele>
        <time>2003-04-19T14:51:59Z</time>
      </trkpt>
      <trkpt lat="33.79978297278285" lon="-3.107593031600118">
        <ele>1477.0999999999999</ele>
        <time>2003-04-19T14:52:02Z</time>
      </trkpt>
      <trkpt lat="33.799593038856983" lon="-3.107522036880255">
        <ele>1478.0999999999999</ele>
        <time>2003-04-19T14:52:06Z</time>
      </trkpt>
      <trkpt lat="33.799409978091717" lon="-3.107493035495281">
        <ele>1478.3</ele>
        <time>2003-04-19T14:52:08Z</time>
      </trkpt>
      <trkpt lat="33.799209985882044" lon="-3.107457999140024">
        <ele>1478.5</ele>
        <time>2003-04-19T14:52:11Z</time>
      </trkpt>
      <trkpt lat="33.799017034471035" lon="-3.107381975278258">
        <ele>1479.0999999999999</ele>
        <time>2003-04-19T14:52:15Z</time>
      </trkpt>
      <trkpt lat="33.79881301894784" lon="-3.107348028570414">
        <ele>1479.3</ele>
        <time>2003-04-19T14:52:18Z</time>
      </trkpt>
      <trkpt lat="33.798631969839334" lon="-3.107251971960068">
        <ele>1479.8</ele>
        <time>2003-04-19T14:52:21Z</time>
      </trkpt>
      <trkpt lat="33.798504984006286" lon="-3.107207966968417">
        <ele>1480</ele>
        <time>2003-04-19T14:52:22Z</time>
      </trkpt>
      <trkpt lat="33.798169959336519" lon="-3.107075029984117">
        <ele>1480.8</ele>
        <time>2003-04-19T14:52:29Z</time>
      </trkpt>
      <trkpt lat="33.798014977946877" lon="-3.106943015009165">
        <ele>1480.8</ele>
        <time>2003-04-19T14:52:31Z</time>
      </trkpt>
      <trkpt lat="33.797920010983944" lon="-3.106852993369103">
        <ele>1480.4000000000001</ele>
        <time>2003-04-19T14:52:34Z</time>
      </trkpt>
      <trkpt lat="33.7978480104357" lon="-3.106766995042563">
        <ele>1479.9000000000001</ele>
        <time>2003-04-19T14:52:37Z</time>
      </trkpt>
      <trkpt lat="33.797844992950559" lon="-3.106657024472952">
        <ele>1479.5</ele>
        <time>2003-04-19T14:52:38Z</time>
      </trkpt>
      <trkpt lat="33.797842981293797" lon="-3.106540013104677">
        <ele>1479.2</ele>
        <time>2003-04-19T14:52:41Z</time>
      </trkpt>
      <trkpt lat="33.797835018485785" lon="-3.10641503892839">
        <ele>1478.8</ele>
        <time>2003-04-19T14:52:42Z</time>
      </trkpt>
      <trkpt lat="33.797796964645386" lon="-3.106292998418212">
        <ele>1478.3</ele>
        <time>2003-04-19T14:52:45Z</time>
      </trkpt>
      <trkpt lat="33.797735022380948" lon="-3.106113038957119">
        <ele>1478</ele>
        <time>2003-04-19T14:52:48Z</time>
      </trkpt>
      <trkpt lat="33.797677019611001" lon="-3.105765022337437">
        <ele>1477.4000000000001</ele>
        <time>2003-04-19T14:52:52Z</time>
      </trkpt>
      <trkpt lat="33.79765497520566" lon="-3.105577016249299">
        <ele>1477.0999999999999</ele>
        <time>2003-04-19T14:52:56Z</time>
      </trkpt>
      <trkpt lat="33.797578029334545" lon="-3.105350034311414">
        <ele>1476.5999999999999</ele>
        <time>2003-04-19T14:53:00Z</time>
      </trkpt>
      <trkpt lat="33.797578029334545" lon="-3.105090027675033">
        <ele>1476.2</ele>
        <time>2003-04-19T14:53:05Z</time>
      </trkpt>
      <trkpt lat="33.797686994075775" lon="-3.104922976344824">
        <ele>1475.2</ele>
        <time>2003-04-19T14:53:09Z</time>
      </trkpt>
      <trkpt lat="33.797750025987625" lon="-3.104734970256686">
        <ele>1474</ele>
        <time>2003-04-19T14:53:13Z</time>
      </trkpt>
      <trkpt lat="33.797712977975607" lon="-3.104617958888412">
        <ele>1473.2</ele>
        <time>2003-04-19T14:53:16Z</time>
      </trkpt>
      <trkpt lat="33.797681964933872" lon="-3.104485021904111">
        <ele>1472.0999999999999</ele>
        <time>2003-04-19T14:53:20Z</time>
      </trkpt>
      <trkpt lat="33.797687999904156" lon="-3.104346971958876">
        <ele>1471.0999999999999</ele>
        <time>2003-04-19T14:53:23Z</time>
      </trkpt>
      <trkpt lat="33.797722030431032" lon="-3.104221997782588">
        <ele>1470.2</ele>
        <time>2003-04-19T14:53:25Z</time>
      </trkpt>
      <trkpt lat="33.797727981582284" lon="-3.104042960330844">
        <ele>1469.5999999999999</ele>
        <time>2003-04-19T14:53:29Z</time>
      </trkpt>
      <trkpt lat="33.79774197936058" lon="-3.103919997811317">
        <ele>1469.3</ele>
        <time>2003-04-19T14:53:32Z</time>
      </trkpt>
      <trkpt lat="33.797750025987625" lon="-3.103741966187954">
        <ele>1468.8</ele>
        <time>2003-04-19T14:53:36Z</time>
      </trkpt>
      <trkpt lat="33.79773803986609" lon="-3.103620009496808">
        <ele>1468.9000000000001</ele>
        <time>2003-04-19T14:53:40Z</time>
      </trkpt>
      <trkpt lat="33.79765497520566" lon="-3.103314992040396">
        <ele>1467.8</ele>
        <time>2003-04-19T14:53:46Z</time>
      </trkpt>
      <trkpt lat="33.79763301461935" lon="-3.103196974843741">
        <ele>1467.2</ele>
        <time>2003-04-19T14:53:47Z</time>
      </trkpt>
      <trkpt lat="33.797624967992306" lon="-3.103073006495833">
        <ele>1467.0999999999999</ele>
        <time>2003-04-19T14:53:50Z</time>
      </trkpt>
      <trkpt lat="33.79765204153955" lon="-3.102947026491165">
        <ele>1466.7</ele>
        <time>2003-04-19T14:53:51Z</time>
      </trkpt>
      <trkpt lat="33.797703003510833" lon="-3.102751979604363">
        <ele>1467</ele>
        <time>2003-04-19T14:53:55Z</time>
      </trkpt>
      <trkpt lat="33.797771986573935" lon="-3.102406980469823">
        <ele>1467.2</ele>
        <time>2003-04-19T14:53:59Z</time>
      </trkpt>
      <trkpt lat="33.797839963808656" lon="-3.102273037657142">
        <ele>1467.7</ele>
        <time>2003-04-19T14:54:02Z</time>
      </trkpt>
      <trkpt lat="33.797939959913492" lon="-3.102064998820424">
        <ele>1467.9000000000001</ele>
        <time>2003-04-19T14:54:05Z</time>
      </trkpt>
      <trkpt lat="33.797954963520169" lon="-3.101910017430782">
        <ele>1467.7</ele>
        <time>2003-04-19T14:54:07Z</time>
      </trkpt>
      <trkpt lat="33.798001985996962" lon="-3.101792000234127">
        <ele>1467.4000000000001</ele>
        <time>2003-04-19T14:54:09Z</time>
      </trkpt>
      <trkpt lat="33.798014977946877" lon="-3.101669959723949">
        <ele>1466.9000000000001</ele>
        <time>2003-04-19T14:54:10Z</time>
      </trkpt>
      <trkpt lat="33.798078009858727" lon="-3.101482037454844">
        <ele>1466.2</ele>
        <time>2003-04-19T14:54:14Z</time>
      </trkpt>
      <trkpt lat="33.798153027892113" lon="-3.101382963359356">
        <ele>1466</ele>
        <time>2003-04-19T14:54:15Z</time>
      </trkpt>
      <trkpt lat="33.798186974599957" lon="-3.101256983354688">
        <ele>1465.5999999999999</ele>
        <time>2003-04-19T14:54:18Z</time>
      </trkpt>
      <trkpt lat="33.798270039260387" lon="-3.101022960618138">
        <ele>1464.8</ele>
        <time>2003-04-19T14:54:22Z</time>
      </trkpt>
      <trkpt lat="33.79834296181798" lon="-3.100921958684921">
        <ele>1464.4000000000001</ele>
        <time>2003-04-19T14:54:23Z</time>
      </trkpt>
      <trkpt lat="33.798425020650029" lon="-3.100839983671904">
        <ele>1464</ele>
        <time>2003-04-19T14:54:26Z</time>
      </trkpt>
      <trkpt lat="33.798434995114803" lon="-3.100621970370412">
        <ele>1463.3</ele>
        <time>2003-04-19T14:54:32Z</time>
      </trkpt>
      <trkpt lat="33.798434995114803" lon="-3.100458020344377">
        <ele>1463.4000000000001</ele>
        <time>2003-04-19T14:54:34Z</time>
      </trkpt>
      <trkpt lat="33.798461984843016" lon="-3.100313013419509">
        <ele>1463.8</ele>
        <time>2003-04-19T14:54:37Z</time>
      </trkpt>
      <trkpt lat="33.798531973734498" lon="-3.10018502175808">
        <ele>1464.8</ele>
        <time>2003-04-19T14:54:38Z</time>
      </trkpt>
      <trkpt lat="33.798589976504445" lon="-3.100062981247902">
        <ele>1465.5999999999999</ele>
        <time>2003-04-19T14:54:41Z</time>
      </trkpt>
      <trkpt lat="33.798602968454361" lon="-3.099942030385137">
        <ele>1466.3</ele>
        <time>2003-04-19T14:54:42Z</time>
      </trkpt>
      <trkpt lat="33.798532979562879" lon="-3.099840022623539">
        <ele>1466.5</ele>
        <time>2003-04-19T14:54:45Z</time>
      </trkpt>
      <trkpt lat="33.798527028411627" lon="-3.099710019305348">
        <ele>1467.4000000000001</ele>
        <time>2003-04-19T14:54:46Z</time>
      </trkpt>
      <trkpt lat="33.798559969291091" lon="-3.099395027384162">
        <ele>1468.3</ele>
        <time>2003-04-19T14:54:50Z</time>
      </trkpt>
      <trkpt lat="33.79860196262598" lon="-3.09924197383225">
        <ele>1469</ele>
        <time>2003-04-19T14:54:53Z</time>
      </trkpt>
      <trkpt lat="33.798634987324476" lon="-3.099082969129086">
        <ele>1469.4000000000001</ele>
        <time>2003-04-19T14:54:54Z</time>
      </trkpt>
      <trkpt lat="33.798682009801269" lon="-3.098902003839612">
        <ele>1469.5</ele>
        <time>2003-04-19T14:54:57Z</time>
      </trkpt>
      <trkpt lat="33.798745041713119" lon="-3.09881298802793">
        <ele>1469.3</ele>
        <time>2003-04-19T14:55:00Z</time>
      </trkpt>
      <trkpt lat="33.798874961212277" lon="-3.098592041060329">
        <ele>1467.7</ele>
        <time>2003-04-19T14:55:04Z</time>
      </trkpt>
      <trkpt lat="33.798962971195579" lon="-3.098515011370182">
        <ele>1466.9000000000001</ele>
        <time>2003-04-19T14:55:07Z</time>
      </trkpt>
      <trkpt lat="33.799042012542486" lon="-3.098439993336797">
        <ele>1466.5</ele>
        <time>2003-04-19T14:55:08Z</time>
      </trkpt>
      <trkpt lat="33.79907201975584" lon="-3.098327005282044">
        <ele>1465.4000000000001</ele>
        <time>2003-04-19T14:55:12Z</time>
      </trkpt>
      <trkpt lat="33.79898501560092" lon="-3.098267996683717">
        <ele>1464.8</ele>
        <time>2003-04-19T14:55:15Z</time>
      </trkpt>
      <trkpt lat="33.798975041136146" lon="-3.09814696200192">
        <ele>1464.3</ele>
        <time>2003-04-19T14:55:19Z</time>
      </trkpt>
      <trkpt lat="33.798997001722455" lon="-3.098028022795916">
        <ele>1463.4000000000001</ele>
        <time>2003-04-19T14:55:23Z</time>
      </trkpt>
      <trkpt lat="33.79911501891911" lon="-3.098010001704097">
        <ele>1462.5999999999999</ele>
        <time>2003-04-19T14:55:26Z</time>
      </trkpt>
      <trkpt lat="33.799233036115766" lon="-3.097949987277389">
        <ele>1462.3</ele>
        <time>2003-04-19T14:55:28Z</time>
      </trkpt>
      <trkpt lat="33.799411989748478" lon="-3.097887961193919">
        <ele>1461.7</ele>
        <time>2003-04-19T14:55:34Z</time>
      </trkpt>
      <trkpt lat="33.799503017216921" lon="-3.097791988402605">
        <ele>1460.2</ele>
        <time>2003-04-19T14:55:36Z</time>
      </trkpt>
      <trkpt lat="33.799584992229939" lon="-3.097728034481406">
        <ele>1459.2</ele>
        <time>2003-04-19T14:55:39Z</time>
      </trkpt>
      <trkpt lat="33.799671996384859" lon="-3.097629966214299">
        <ele>1457.7</ele>
        <time>2003-04-19T14:55:42Z</time>
      </trkpt>
      <trkpt lat="33.799620028585196" lon="-3.097514966502786">
        <ele>1456.4000000000001</ele>
        <time>2003-04-19T14:55:44Z</time>
      </trkpt>
      <trkpt lat="33.799537969753146" lon="-3.097467022016645">
        <ele>1456.4000000000001</ele>
        <time>2003-04-19T14:55:47Z</time>
      </trkpt>
      <trkpt lat="33.799439985305071" lon="-3.09741698205471">
        <ele>1456.3</ele>
        <time>2003-04-19T14:55:51Z</time>
      </trkpt>
      <trkpt lat="33.799451971426606" lon="-3.097283039242029">
        <ele>1455.3</ele>
        <time>2003-04-19T14:55:55Z</time>
      </trkpt>
      <trkpt lat="33.799530006945133" lon="-3.097116993740201">
        <ele>1454.2</ele>
        <time>2003-04-19T14:55:59Z</time>
      </trkpt>
      <trkpt lat="33.799603013321757" lon="-3.096967963501811">
        <ele>1453.0999999999999</ele>
        <time>2003-04-19T14:56:02Z</time>
      </trkpt>
      <trkpt lat="33.799711978062987" lon="-3.096880037337542">
        <ele>1452.2</ele>
        <time>2003-04-19T14:56:06Z</time>
      </trkpt>
      <trkpt lat="33.799856984987855" lon="-3.096827985718846">
        <ele>1451.0999999999999</ele>
        <time>2003-04-19T14:56:09Z</time>
      </trkpt>
      <trkpt lat="33.800172982737422" lon="-3.09672798961401">
        <ele>1449.5</ele>
        <time>2003-04-19T14:56:14Z</time>
      </trkpt>
      <trkpt lat="33.800368029624224" lon="-3.096599997952581">
        <ele>1447.5999999999999</ele>
        <time>2003-04-19T14:56:18Z</time>
      </trkpt>
      <trkpt lat="33.800431983545423" lon="-3.096496984362602">
        <ele>1446.5999999999999</ele>
        <time>2003-04-19T14:56:21Z</time>
      </trkpt>
      <trkpt lat="33.800512030720711" lon="-3.096411991864443">
        <ele>1446.0999999999999</ele>
        <time>2003-04-19T14:56:22Z</time>
      </trkpt>
      <trkpt lat="33.800642034038901" lon="-3.09627796523273">
        <ele>1445.0999999999999</ele>
        <time>2003-04-19T14:56:25Z</time>
      </trkpt>
      <trkpt lat="33.800692996010184" lon="-3.096162965521216">
        <ele>1444.5999999999999</ele>
        <time>2003-04-19T14:56:28Z</time>
      </trkpt>
      <trkpt lat="33.800758039578795" lon="-3.09608300216496">
        <ele>1444.0999999999999</ele>
        <time>2003-04-19T14:56:29Z</time>
      </trkpt>
      <trkpt lat="33.800917966291308" lon="-3.095887033268809">
        <ele>1443.5</ele>
        <time>2003-04-19T14:56:34Z</time>
      </trkpt>
      <trkpt lat="33.801043024286628" lon="-3.095676982775331">
        <ele>1442.8</ele>
        <time>2003-04-19T14:56:38Z</time>
      </trkpt>
      <trkpt lat="33.801058027893305" lon="-3.095562988892198">
        <ele>1442.4000000000001</ele>
        <time>2003-04-19T14:56:41Z</time>
      </trkpt>
      <trkpt lat="33.801122987642884" lon="-3.095450000837445">
        <ele>1441.9000000000001</ele>
        <time>2003-04-19T14:56:44Z</time>
      </trkpt>
      <trkpt lat="33.801309987902641" lon="-3.095404990017414">
        <ele>1443.4000000000001</ele>
        <time>2003-04-19T14:56:48Z</time>
      </trkpt>
      <trkpt lat="33.801367990672588" lon="-3.095301976427436">
        <ele>1443.5999999999999</ele>
        <time>2003-04-19T14:56:49Z</time>
      </trkpt>
      <trkpt lat="33.80143697373569" lon="-3.095140038058162">
        <ele>1443.5</ele>
        <time>2003-04-19T14:56:52Z</time>
      </trkpt>
      <trkpt lat="33.801466980949044" lon="-3.094950020313263">
        <ele>1443.3</ele>
        <time>2003-04-19T14:56:56Z</time>
      </trkpt>
      <trkpt lat="33.801467986777425" lon="-3.094797972589731">
        <ele>1443.2</ele>
        <time>2003-04-19T14:56:59Z</time>
      </trkpt>
      <trkpt lat="33.801424987614155" lon="-3.094608038663864">
        <ele>1443.3</ele>
        <time>2003-04-19T14:57:03Z</time>
      </trkpt>
      <trkpt lat="33.801406966522336" lon="-3.094435036182404">
        <ele>1443.4000000000001</ele>
        <time>2003-04-19T14:57:05Z</time>
      </trkpt>
      <trkpt lat="33.80141300149262" lon="-3.094305032864213">
        <ele>1443.2</ele>
        <time>2003-04-19T14:57:08Z</time>
      </trkpt>
      <trkpt lat="33.801411995664239" lon="-3.094162959605455">
        <ele>1442.9000000000001</ele>
        <time>2003-04-19T14:57:09Z</time>
      </trkpt>
      <trkpt lat="33.801381988450885" lon="-3.093903036788106">
        <ele>1442.8</ele>
        <time>2003-04-19T14:57:14Z</time>
      </trkpt>
      <trkpt lat="33.801313005387783" lon="-3.093772027641535">
        <ele>1442.3</ele>
        <time>2003-04-19T14:57:16Z</time>
      </trkpt>
      <trkpt lat="33.801017962396145" lon="-3.093174984678626">
        <ele>1440.0999999999999</ele>
        <time>2003-04-19T14:57:24Z</time>
      </trkpt>
      <trkpt lat="33.801019974052906" lon="-3.093016985803843">
        <ele>1439.9000000000001</ele>
        <time>2003-04-19T14:57:27Z</time>
      </trkpt>
      <trkpt lat="33.801031960174441" lon="-3.092792015522718">
        <ele>1439.7</ele>
        <time>2003-04-19T14:57:30Z</time>
      </trkpt>
      <trkpt lat="33.801017040386796" lon="-3.092647008597851">
        <ele>1439.3</ele>
        <time>2003-04-19T14:57:31Z</time>
      </trkpt>
      <trkpt lat="33.800973035395145" lon="-3.092499990016222">
        <ele>1438.8</ele>
        <time>2003-04-19T14:57:34Z</time>
      </trkpt>
      <trkpt lat="33.800849989056587" lon="-3.092103023082018">
        <ele>1437.4000000000001</ele>
        <time>2003-04-19T14:57:39Z</time>
      </trkpt>
      <trkpt lat="33.800840014591813" lon="-3.09193798340857">
        <ele>1436.8</ele>
        <time>2003-04-19T14:57:41Z</time>
      </trkpt>
      <trkpt lat="33.800842026248574" lon="-3.091510003432632">
        <ele>1436.0999999999999</ele>
        <time>2003-04-19T14:57:46Z</time>
      </trkpt>
      <trkpt lat="33.800879996269941" lon="-3.091404978185892">
        <ele>1436.2</ele>
        <time>2003-04-19T14:57:58Z</time>
      </trkpt>
      <trkpt lat="33.800973035395145" lon="-3.091416964307427">
        <ele>1436.4000000000001</ele>
        <time>2003-04-19T14:58:02Z</time>
      </trkpt>
      <trkpt lat="33.801089962944388" lon="-3.09144495986402">
        <ele>1436.4000000000001</ele>
        <time>2003-04-19T14:58:03Z</time>
      </trkpt>
      <trkpt lat="33.801243016496301" lon="-3.091473039239645">
        <ele>1436.5999999999999</ele>
        <time>2003-04-19T14:58:06Z</time>
      </trkpt>
      <trkpt lat="33.801502017304301" lon="-3.091537998989224">
        <ele>1437</ele>
        <time>2003-04-19T14:58:09Z</time>
      </trkpt>
      <trkpt lat="33.801820026710629" lon="-3.091619974002242">
        <ele>1437.3</ele>
        <time>2003-04-19T14:58:12Z</time>
      </trkpt>
      <trkpt lat="33.802048014476895" lon="-3.091655010357499">
        <ele>1437.7</ele>
        <time>2003-04-19T14:58:13Z</time>
      </trkpt>
      <trkpt lat="33.80296197719872" lon="-3.091772021725774">
        <ele>1439.5</ele>
        <time>2003-04-19T14:58:21Z</time>
      </trkpt>
      <trkpt lat="33.803673014044762" lon="-3.091951981186867">
        <ele>1441</ele>
        <time>2003-04-19T14:58:28Z</time>
      </trkpt>
      <trkpt lat="33.804281959310174" lon="-3.091982994228602">
        <ele>1442</ele>
        <time>2003-04-19T14:58:33Z</time>
      </trkpt>
      <trkpt lat="33.805259959772229" lon="-3.09191501699388">
        <ele>1443</ele>
        <time>2003-04-19T14:58:40Z</time>
      </trkpt>
      <trkpt lat="33.805503034964204" lon="-3.091922979801893">
        <ele>1442.8</ele>
        <time>2003-04-19T14:58:43Z</time>
      </trkpt>
      <trkpt lat="33.805743008852005" lon="-3.091933038085699">
        <ele>1443</ele>
        <time>2003-04-19T14:58:44Z</time>
      </trkpt>
      <trkpt lat="33.805863037705421" lon="-3.091939995065332">
        <ele>1443.3</ele>
        <time>2003-04-19T14:58:45Z</time>
      </trkpt>
      <trkpt lat="33.805979965254664" lon="-3.091973019763827">
        <ele>1443.8</ele>
        <time>2003-04-19T14:58:47Z</time>
      </trkpt>
      <trkpt lat="33.806380033493042" lon="-3.092136969789863">
        <ele>1444.4000000000001</ele>
        <time>2003-04-19T14:58:51Z</time>
      </trkpt>
      <trkpt lat="33.806456979364157" lon="-3.092218022793531">
        <ele>1444.5999999999999</ele>
        <time>2003-04-19T14:58:52Z</time>
      </trkpt>
      <trkpt lat="33.806768031790853" lon="-3.09258003719151">
        <ele>1444.9000000000001</ele>
        <time>2003-04-19T14:58:56Z</time>
      </trkpt>
      <trkpt lat="33.806897029280663" lon="-3.092812970280647">
        <ele>1445.5999999999999</ele>
        <time>2003-04-19T14:58:57Z</time>
      </trkpt>
      <trkpt lat="33.807212021201849" lon="-3.093480002135038">
        <ele>1446.2</ele>
        <time>2003-04-19T14:59:04Z</time>
      </trkpt>
      <trkpt lat="33.80738502368331" lon="-3.093881998211145">
        <ele>1446.5</ele>
        <time>2003-04-19T14:59:07Z</time>
      </trkpt>
      <trkpt lat="33.807464987039566" lon="-3.093947963789105">
        <ele>1446.5999999999999</ele>
        <time>2003-04-19T14:59:08Z</time>
      </trkpt>
      <trkpt lat="33.807540005072951" lon="-3.094033040106297">
        <ele>1446.5999999999999</ele>
        <time>2003-04-19T14:59:10Z</time>
      </trkpt>
      <trkpt lat="33.807660033926368" lon="-3.094217022880912">
        <ele>1446.5</ele>
        <time>2003-04-19T14:59:11Z</time>
      </trkpt>
      <trkpt lat="33.807732034474611" lon="-3.094285000115633">
        <ele>1446.4000000000001</ele>
        <time>2003-04-19T14:59:12Z</time>
      </trkpt>
      <trkpt lat="33.807892967015505" lon="-3.094379967078567">
        <ele>1445.8</ele>
        <time>2003-04-19T14:59:15Z</time>
      </trkpt>
      <trkpt lat="33.808039985597134" lon="-3.094509970396757">
        <ele>1446.0999999999999</ele>
        <time>2003-04-19T14:59:16Z</time>
      </trkpt>
      <trkpt lat="33.808092037215829" lon="-3.094608038663864">
        <ele>1447.2</ele>
        <time>2003-04-19T14:59:18Z</time>
      </trkpt>
      <trkpt lat="33.808122966438532" lon="-3.094726977869868">
        <ele>1446.9000000000001</ele>
        <time>2003-04-19T14:59:19Z</time>
      </trkpt>
      <trkpt lat="33.808222962543368" lon="-3.094954965636134">
        <ele>1447</ele>
        <time>2003-04-19T14:59:20Z</time>
      </trkpt>
      <trkpt lat="33.808793015778065" lon="-3.095861971378326">
        <ele>1449.5</ele>
        <time>2003-04-19T14:59:30Z</time>
      </trkpt>
      <trkpt lat="33.809068026021123" lon="-3.096273019909859">
        <ele>1450.7</ele>
        <time>2003-04-19T14:59:34Z</time>
      </trkpt>
      <trkpt lat="33.809150001034141" lon="-3.096330016851425">
        <ele>1451.2</ele>
        <time>2003-04-19T14:59:34Z</time>
      </trkpt>
      <trkpt lat="33.809283021837473" lon="-3.096422972157598">
        <ele>1451.8</ele>
        <time>2003-04-19T14:59:37Z</time>
      </trkpt>
      <trkpt lat="33.809370025992393" lon="-3.09653302654624">
        <ele>1452.2</ele>
        <time>2003-04-19T14:59:38Z</time>
      </trkpt>
      <trkpt lat="33.809525007382035" lon="-3.096699994057417">
        <ele>1453</ele>
        <time>2003-04-19T14:59:42Z</time>
      </trkpt>
      <trkpt lat="33.809781996533275" lon="-3.096896968781948">
        <ele>1453.9000000000001</ele>
        <time>2003-04-19T14:59:46Z</time>
      </trkpt>
      <trkpt lat="33.810018030926585" lon="-3.097067959606648">
        <ele>1454.2</ele>
        <time>2003-04-19T14:59:49Z</time>
      </trkpt>
      <trkpt lat="33.810177035629749" lon="-3.097174996510148">
        <ele>1454.5</ele>
        <time>2003-04-19T14:59:50Z</time>
      </trkpt>
      <trkpt lat="33.810784975066781" lon="-3.097623009234667">
        <ele>1456.4000000000001</ele>
        <time>2003-04-19T14:59:58Z</time>
      </trkpt>
      <trkpt lat="33.811142966151237" lon="-3.098013019189239">
        <ele>1457</ele>
        <time>2003-04-19T15:00:04Z</time>
      </trkpt>
      <trkpt lat="33.811506992205977" lon="-3.098315019160509">
        <ele>1457.2</ele>
        <time>2003-04-19T15:00:09Z</time>
      </trkpt>
      <trkpt lat="33.811617968603969" lon="-3.098377967253327">
        <ele>1456.9000000000001</ele>
        <time>2003-04-19T15:00:10Z</time>
      </trkpt>
      <trkpt lat="33.811702961102128" lon="-3.098481986671686">
        <ele>1457.3</ele>
        <time>2003-04-19T15:00:13Z</time>
      </trkpt>
      <trkpt lat="33.811864983290434" lon="-3.098648032173514">
        <ele>1457.2</ele>
        <time>2003-04-19T15:00:16Z</time>
      </trkpt>
      <trkpt lat="33.812143011018634" lon="-3.098877025768161">
        <ele>1457</ele>
        <time>2003-04-19T15:00:20Z</time>
      </trkpt>
      <trkpt lat="33.812405029311776" lon="-3.099099984392524">
        <ele>1457.0999999999999</ele>
        <time>2003-04-19T15:00:24Z</time>
      </trkpt>
      <trkpt lat="33.812722032889724" lon="-3.099380023777485">
        <ele>1455.8</ele>
        <time>2003-04-19T15:00:28Z</time>
      </trkpt>
      <trkpt lat="33.81310198456049" lon="-3.099719993770123">
        <ele>1455.5</ele>
        <time>2003-04-19T15:00:32Z</time>
      </trkpt>
      <trkpt lat="33.813670026138425" lon="-3.100319970399141">
        <ele>1455.5999999999999</ele>
        <time>2003-04-19T15:00:37Z</time>
      </trkpt>
      <trkpt lat="33.814402017742395" lon="-3.10117500834167">
        <ele>1456.9000000000001</ele>
        <time>2003-04-19T15:00:44Z</time>
      </trkpt>
      <trkpt lat="33.814978022128344" lon="-3.102042032405734">
        <ele>1457.5999999999999</ele>
        <time>2003-04-19T15:00:51Z</time>
      </trkpt>
      <trkpt lat="33.815497029572725" lon="-3.102706968784332">
        <ele>1459.5</ele>
        <time>2003-04-19T15:00:55Z</time>
      </trkpt>
      <trkpt lat="33.815782014280558" lon="-3.103079963475466">
        <ele>1459.7</ele>
        <time>2003-04-19T15:00:59Z</time>
      </trkpt>
      <trkpt lat="33.815868012607098" lon="-3.103187000378966">
        <ele>1459.9000000000001</ele>
        <time>2003-04-19T15:00:59Z</time>
      </trkpt>
      <trkpt lat="33.816328011453152" lon="-3.103835005313158">
        <ele>1460.2</ele>
        <time>2003-04-19T15:01:06Z</time>
      </trkpt>
      <trkpt lat="33.816506965085864" lon="-3.10420498251915">
        <ele>1459.8</ele>
        <time>2003-04-19T15:01:08Z</time>
      </trkpt>
      <trkpt lat="33.816679967567325" lon="-3.104406986385584">
        <ele>1460.5999999999999</ele>
        <time>2003-04-19T15:01:11Z</time>
      </trkpt>
      <trkpt lat="33.816820029169321" lon="-3.104536989703775">
        <ele>1460.5999999999999</ele>
        <time>2003-04-19T15:01:12Z</time>
      </trkpt>
      <trkpt lat="33.816908039152622" lon="-3.10463497415185">
        <ele>1461</ele>
        <time>2003-04-19T15:01:15Z</time>
      </trkpt>
      <trkpt lat="33.817095039412379" lon="-3.104830021038652">
        <ele>1460.7</ele>
        <time>2003-04-19T15:01:18Z</time>
      </trkpt>
      <trkpt lat="33.817325038835406" lon="-3.10508499853313">
        <ele>1460.7</ele>
        <time>2003-04-19T15:01:21Z</time>
      </trkpt>
      <trkpt lat="33.817638019099832" lon="-3.105524964630604">
        <ele>1460.5999999999999</ele>
        <time>2003-04-19T15:01:25Z</time>
      </trkpt>
      <trkpt lat="33.818270014598966" lon="-3.106483016163111">
        <ele>1462.7</ele>
        <time>2003-04-19T15:01:33Z</time>
      </trkpt>
      <trkpt lat="33.81894500926137" lon="-3.107287008315325">
        <ele>1465.0999999999999</ele>
        <time>2003-04-19T15:01:41Z</time>
      </trkpt>
      <trkpt lat="33.819102002307773" lon="-3.107409970834851">
        <ele>1465.5999999999999</ele>
        <time>2003-04-19T15:01:42Z</time>
      </trkpt>
      <trkpt lat="33.819257989525795" lon="-3.107509966939688">
        <ele>1465.7</ele>
        <time>2003-04-19T15:01:45Z</time>
      </trkpt>
      <trkpt lat="33.819407019764185" lon="-3.107584984973073">
        <ele>1465.5</ele>
        <time>2003-04-19T15:01:46Z</time>
      </trkpt>
      <trkpt lat="33.820080002769828" lon="-3.107868041843176">
        <ele>1465.2</ele>
        <time>2003-04-19T15:01:54Z</time>
      </trkpt>
      <trkpt lat="33.820259962230921" lon="-3.107948005199432">
        <ele>1465</ele>
        <time>2003-04-19T15:01:57Z</time>
      </trkpt>
      <trkpt lat="33.820775030180812" lon="-3.108141962438822">
        <ele>1465.2</ele>
        <time>2003-04-19T15:02:01Z</time>
      </trkpt>
      <trkpt lat="33.821103014051914" lon="-3.108282024040818">
        <ele>1465.4000000000001</ele>
        <time>2003-04-19T15:02:05Z</time>
      </trkpt>
      <trkpt lat="33.821535017341375" lon="-3.108483022078872">
        <ele>1465.5</ele>
        <time>2003-04-19T15:02:09Z</time>
      </trkpt>
      <trkpt lat="33.822093000635505" lon="-3.10863196849823">
        <ele>1466.5999999999999</ele>
        <time>2003-04-19T15:02:13Z</time>
      </trkpt>
      <trkpt lat="33.822310008108616" lon="-3.108642026782036">
        <ele>1467.0999999999999</ele>
        <time>2003-04-19T15:02:16Z</time>
      </trkpt>
      <trkpt lat="33.822406986728311" lon="-3.108647977933288">
        <ele>1467.4000000000001</ele>
        <time>2003-04-19T15:02:16Z</time>
      </trkpt>
      <trkpt lat="33.822587030008435" lon="-3.108630040660501">
        <ele>1467.5999999999999</ele>
        <time>2003-04-19T15:02:19Z</time>
      </trkpt>
      <trkpt lat="33.822670010849833" lon="-3.108582012355328">
        <ele>1467.9000000000001</ele>
        <time>2003-04-19T15:02:20Z</time>
      </trkpt>
      <trkpt lat="33.82274997420609" lon="-3.108512023463845">
        <ele>1468.0999999999999</ele>
        <time>2003-04-19T15:02:20Z</time>
      </trkpt>
      <trkpt lat="33.823115006089211" lon="-3.108227960765362">
        <ele>1468</ele>
        <time>2003-04-19T15:02:25Z</time>
      </trkpt>
      <trkpt lat="33.82352203130722" lon="-3.108116984367371">
        <ele>1468.2</ele>
        <time>2003-04-19T15:02:29Z</time>
      </trkpt>
      <trkpt lat="33.823725041002035" lon="-3.108026962727308">
        <ele>1468.2</ele>
        <time>2003-04-19T15:02:32Z</time>
      </trkpt>
      <trkpt lat="33.824591981247067" lon="-3.107567969709635">
        <ele>1470.8</ele>
        <time>2003-04-19T15:02:40Z</time>
      </trkpt>
      <trkpt lat="33.825503010302782" lon="-3.107227999716997">
        <ele>1473.2</ele>
        <time>2003-04-19T15:02:50Z</time>
      </trkpt>
      <trkpt lat="33.825707025825977" lon="-3.107172008603811">
        <ele>1473.7</ele>
        <time>2003-04-19T15:02:51Z</time>
      </trkpt>
      <trkpt lat="33.825995028018951" lon="-3.107137978076935">
        <ele>1474.4000000000001</ele>
        <time>2003-04-19T15:02:55Z</time>
      </trkpt>
      <trkpt lat="33.826252017170191" lon="-3.107145018875599">
        <ele>1475.2</ele>
        <time>2003-04-19T15:02:58Z</time>
      </trkpt>
      <trkpt lat="33.82640297524631" lon="-3.107130015268922">
        <ele>1475.7</ele>
        <time>2003-04-19T15:02:59Z</time>
      </trkpt>
      <trkpt lat="33.826909996569157" lon="-3.107027001678944">
        <ele>1475.3</ele>
        <time>2003-04-19T15:03:06Z</time>
      </trkpt>
      <trkpt lat="33.827605023980141" lon="-3.107096990570426">
        <ele>1474.4000000000001</ele>
        <time>2003-04-19T15:03:14Z</time>
      </trkpt>
      <trkpt lat="33.827771991491318" lon="-3.10701702721417">
        <ele>1473.5</ele>
        <time>2003-04-19T15:03:15Z</time>
      </trkpt>
      <trkpt lat="33.827938036993146" lon="-3.106964975595474">
        <ele>1473.9000000000001</ele>
        <time>2003-04-19T15:03:18Z</time>
      </trkpt>
      <trkpt lat="33.828031998127699" lon="-3.10697503387928">
        <ele>1474.0999999999999</ele>
        <time>2003-04-19T15:03:18Z</time>
      </trkpt>
      <trkpt lat="33.828442962840199" lon="-3.107048040255904">
        <ele>1475.2</ele>
        <time>2003-04-19T15:03:22Z</time>
      </trkpt>
      <trkpt lat="33.829319961369038" lon="-3.107292037457228">
        <ele>1477.9000000000001</ele>
        <time>2003-04-19T15:03:32Z</time>
      </trkpt>
      <trkpt lat="33.829407971352339" lon="-3.107243003323674">
        <ele>1478.3</ele>
        <time>2003-04-19T15:03:33Z</time>
      </trkpt>
      <trkpt lat="33.82958197966218" lon="-3.107166979461908">
        <ele>1478.5</ele>
        <time>2003-04-19T15:03:34Z</time>
      </trkpt>
      <trkpt lat="33.830193020403385" lon="-3.106970004737377">
        <ele>1478.8</ele>
        <time>2003-04-19T15:03:41Z</time>
      </trkpt>
      <trkpt lat="33.83067799732089" lon="-3.106773030012846">
        <ele>1478.2</ele>
        <time>2003-04-19T15:03:46Z</time>
      </trkpt>
      <trkpt lat="33.830832978710532" lon="-3.106704968959093">
        <ele>1478.3</ele>
        <time>2003-04-19T15:03:49Z</time>
      </trkpt>
      <trkpt lat="33.830983014777303" lon="-3.106694994494319">
        <ele>1478</ele>
        <time>2003-04-19T15:03:50Z</time>
      </trkpt>
      <trkpt lat="33.831151993945241" lon="-3.106662975624204">
        <ele>1478.7</ele>
        <time>2003-04-19T15:03:53Z</time>
      </trkpt>
      <trkpt lat="33.831234974786639" lon="-3.106612013652921">
        <ele>1478.7</ele>
        <time>2003-04-19T15:03:53Z</time>
      </trkpt>
      <trkpt lat="33.831509985029697" lon="-3.106434987857938">
        <ele>1478.7</ele>
        <time>2003-04-19T15:03:57Z</time>
      </trkpt>
      <trkpt lat="33.832333004102111" lon="-3.105937018990517">
        <ele>1480.7</ele>
        <time>2003-04-19T15:04:04Z</time>
      </trkpt>
      <trkpt lat="33.832985032349825" lon="-3.105610040947795">
        <ele>1482</ele>
        <time>2003-04-19T15:04:11Z</time>
      </trkpt>
      <trkpt lat="33.833594983443618" lon="-3.105356991291046">
        <ele>1483.0999999999999</ele>
        <time>2003-04-19T15:04:16Z</time>
      </trkpt>
      <trkpt lat="33.833764968439937" lon="-3.105311980471015">
        <ele>1483.5</ele>
        <time>2003-04-19T15:04:19Z</time>
      </trkpt>
      <trkpt lat="33.833988010883331" lon="-3.105273004621267">
        <ele>1483.5999999999999</ele>
        <time>2003-04-19T15:04:21Z</time>
      </trkpt>
      <trkpt lat="33.834145003929734" lon="-3.1052799616009">
        <ele>1483.9000000000001</ele>
        <time>2003-04-19T15:04:24Z</time>
      </trkpt>
      <trkpt lat="33.83428699336946" lon="-3.105312986299396">
        <ele>1484.7</ele>
        <time>2003-04-19T15:04:26Z</time>
      </trkpt>
      <trkpt lat="33.834993001073599" lon="-3.105466961860657">
        <ele>1484.0999999999999</ele>
        <time>2003-04-19T15:04:35Z</time>
      </trkpt>
      <trkpt lat="33.835137002170086" lon="-3.105469979345799">
        <ele>1484.2</ele>
        <time>2003-04-19T15:04:38Z</time>
      </trkpt>
      <trkpt lat="33.835276979953051" lon="-3.10549202375114">
        <ele>1484.4000000000001</ele>
        <time>2003-04-19T15:04:39Z</time>
      </trkpt>
      <trkpt lat="33.835532041266561" lon="-3.105575004592538">
        <ele>1484.9000000000001</ele>
        <time>2003-04-19T15:04:43Z</time>
      </trkpt>
      <trkpt lat="33.835634971037507" lon="-3.105641975998879">
        <ele>1485.4000000000001</ele>
        <time>2003-04-19T15:04:46Z</time>
      </trkpt>
      <trkpt lat="33.835717029869556" lon="-3.105727974325419">
        <ele>1485.2</ele>
        <time>2003-04-19T15:04:47Z</time>
      </trkpt>
      <trkpt lat="33.835796993225813" lon="-3.105802992358804">
        <ele>1485</ele>
        <time>2003-04-19T15:04:50Z</time>
      </trkpt>
      <trkpt lat="33.835885003209114" lon="-3.105878010392189">
        <ele>1484.3</ele>
        <time>2003-04-19T15:04:54Z</time>
      </trkpt>
      <trkpt lat="33.835949962958694" lon="-3.105959985405207">
        <ele>1483.7</ele>
        <time>2003-04-19T15:04:58Z</time>
      </trkpt>
      <trkpt lat="33.836009977385402" lon="-3.106065010651946">
        <ele>1483.8</ele>
        <time>2003-04-19T15:05:01Z</time>
      </trkpt>
      <trkpt lat="33.836126988753676" lon="-3.106295010074973">
        <ele>1483.8</ele>
        <time>2003-04-19T15:05:06Z</time>
      </trkpt>
      <trkpt lat="33.836314994841814" lon="-3.106519980356097">
        <ele>1483.5999999999999</ele>
        <time>2003-04-19T15:05:10Z</time>
      </trkpt>
      <trkpt lat="33.836372997611761" lon="-3.106613019481301">
        <ele>1483.5999999999999</ele>
        <time>2003-04-19T15:05:13Z</time>
      </trkpt>
      <trkpt lat="33.836427982896566" lon="-3.106736987829208">
        <ele>1483.7</ele>
        <time>2003-04-19T15:05:14Z</time>
      </trkpt>
      <trkpt lat="33.836614983156323" lon="-3.107120040804148">
        <ele>1483.8</ele>
        <time>2003-04-19T15:05:22Z</time>
      </trkpt>
      <trkpt lat="33.836748003959656" lon="-3.107317015528679">
        <ele>1484.3</ele>
        <time>2003-04-19T15:05:36Z</time>
      </trkpt>
      <trkpt lat="33.836817992851138" lon="-3.107394967228174">
        <ele>1484.3</ele>
        <time>2003-04-19T15:05:38Z</time>
      </trkpt>
      <trkpt lat="33.83697297424078" lon="-3.107526982203126">
        <ele>1482.7</ele>
        <time>2003-04-19T15:08:07Z</time>
      </trkpt>
      <trkpt lat="33.837114963680506" lon="-3.107639970257878">
        <ele>1483.2</ele>
        <time>2003-04-19T15:08:10Z</time>
      </trkpt>
      <trkpt lat="33.837232980877161" lon="-3.107735021039844">
        <ele>1483.3</ele>
        <time>2003-04-19T15:08:11Z</time>
      </trkpt>
      <trkpt lat="33.83744697086513" lon="-3.107907017692924">
        <ele>1483.5</ele>
        <time>2003-04-19T15:08:15Z</time>
      </trkpt>
      <trkpt lat="33.837598012760282" lon="-3.108057975769043">
        <ele>1484.2</ele>
        <time>2003-04-19T15:08:18Z</time>
      </trkpt>
      <trkpt lat="33.837734973058105" lon="-3.108104998245835">
        <ele>1484.2</ele>
        <time>2003-04-19T15:08:47Z</time>
      </trkpt>
      <trkpt lat="33.837858019396663" lon="-3.108183033764362">
        <ele>1484.5999999999999</ele>
        <time>2003-04-19T15:08:50Z</time>
      </trkpt>
      <trkpt lat="33.838039990514517" lon="-3.10826500877738">
        <ele>1484.7</ele>
        <time>2003-04-19T15:08:54Z</time>
      </trkpt>
      <trkpt lat="33.838652959093451" lon="-3.108585029840469">
        <ele>1484.5999999999999</ele>
        <time>2003-04-19T15:09:05Z</time>
      </trkpt>
      <trkpt lat="33.838829984888434" lon="-3.108689971268177">
        <ele>1484.9000000000001</ele>
        <time>2003-04-19T15:09:08Z</time>
      </trkpt>
      <trkpt lat="33.83899200707674" lon="-3.108777981251478">
        <ele>1485.5</ele>
        <time>2003-04-19T15:09:10Z</time>
      </trkpt>
      <trkpt lat="33.839597012847662" lon="-3.109257007017732">
        <ele>1485.5</ele>
        <time>2003-04-19T15:09:23Z</time>
      </trkpt>
      <trkpt lat="33.839717041701078" lon="-3.109343005344272">
        <ele>1485.4000000000001</ele>
        <time>2003-04-19T15:09:25Z</time>
      </trkpt>
      <trkpt lat="33.839843021705747" lon="-3.109400002285838">
        <ele>1485.7</ele>
        <time>2003-04-19T15:09:27Z</time>
      </trkpt>
      <trkpt lat="33.839964978396893" lon="-3.109472002834082">
        <ele>1485.8</ele>
        <time>2003-04-19T15:09:28Z</time>
      </trkpt>
      <trkpt lat="33.840103028342128" lon="-3.109560012817383">
        <ele>1486.0999999999999</ele>
        <time>2003-04-19T15:09:32Z</time>
      </trkpt>
      <trkpt lat="33.840277036651969" lon="-3.109714994207025">
        <ele>1486.8</ele>
        <time>2003-04-19T15:09:36Z</time>
      </trkpt>
      <trkpt lat="33.840397987514734" lon="-3.109814990311861">
        <ele>1487</ele>
        <time>2003-04-19T15:09:40Z</time>
      </trkpt>
      <trkpt lat="33.840575013309717" lon="-3.109937030822039">
        <ele>1487.5</ele>
        <time>2003-04-19T15:09:44Z</time>
      </trkpt>
      <trkpt lat="33.840672997757792" lon="-3.109978018328548">
        <ele>1487.5999999999999</ele>
        <time>2003-04-19T15:09:45Z</time>
      </trkpt>
      <trkpt lat="33.840833008289337" lon="-3.110039960592985">
        <ele>1487.5999999999999</ele>
        <time>2003-04-19T15:09:48Z</time>
      </trkpt>
      <trkpt lat="33.841069964691997" lon="-3.110159989446402">
        <ele>1487.9000000000001</ele>
        <time>2003-04-19T15:09:52Z</time>
      </trkpt>
      <trkpt lat="33.841238021850586" lon="-3.11017801053822">
        <ele>1487.9000000000001</ele>
        <time>2003-04-19T15:09:55Z</time>
      </trkpt>
      <trkpt lat="33.841340029612184" lon="-3.110152026638389">
        <ele>1487.7</ele>
        <time>2003-04-19T15:09:58Z</time>
      </trkpt>
      <trkpt lat="33.841452011838555" lon="-3.110201982781291">
        <ele>1487.9000000000001</ele>
        <time>2003-04-19T15:10:00Z</time>
      </trkpt>
      <trkpt lat="33.841537004336715" lon="-3.110247999429703">
        <ele>1487.7</ele>
        <time>2003-04-19T15:10:03Z</time>
      </trkpt>
      <trkpt lat="33.841843027621508" lon="-3.110368028283119">
        <ele>1487.8</ele>
        <time>2003-04-19T15:10:08Z</time>
      </trkpt>
      <trkpt lat="33.842046959325671" lon="-3.110453020781279">
        <ele>1487.9000000000001</ele>
        <time>2003-04-19T15:10:12Z</time>
      </trkpt>
      <trkpt lat="33.84212801232934" lon="-3.110527032986283">
        <ele>1487.8</ele>
        <time>2003-04-19T15:10:15Z</time>
      </trkpt>
      <trkpt lat="33.842311995103955" lon="-3.110668016597629">
        <ele>1488</ele>
        <time>2003-04-19T15:10:19Z</time>
      </trkpt>
      <trkpt lat="33.842403022572398" lon="-3.110752003267407">
        <ele>1488.2</ele>
        <time>2003-04-19T15:10:21Z</time>
      </trkpt>
      <trkpt lat="33.842469993978739" lon="-3.110862979665399">
        <ele>1488.3</ele>
        <time>2003-04-19T15:10:22Z</time>
      </trkpt>
      <trkpt lat="33.842545012012124" lon="-3.110955012962222">
        <ele>1488.9000000000001</ele>
        <time>2003-04-19T15:10:25Z</time>
      </trkpt>
      <trkpt lat="33.842651965096593" lon="-3.111060038208962">
        <ele>1489.0999999999999</ele>
        <time>2003-04-19T15:10:27Z</time>
      </trkpt>
      <trkpt lat="33.842737041413784" lon="-3.111194986850023">
        <ele>1489.0999999999999</ele>
        <time>2003-04-19T15:10:30Z</time>
      </trkpt>
      <trkpt lat="33.842827985063195" lon="-3.111270004883409">
        <ele>1488.9000000000001</ele>
        <time>2003-04-19T15:10:33Z</time>
      </trkpt>
      <trkpt lat="33.842942984774709" lon="-3.11131501570344">
        <ele>1488.8</ele>
        <time>2003-04-19T15:10:34Z</time>
      </trkpt>
      <trkpt lat="33.84326702915132" lon="-3.111430015414953">
        <ele>1488.9000000000001</ele>
        <time>2003-04-19T15:10:39Z</time>
      </trkpt>
      <trkpt lat="33.843452017754316" lon="-3.111554989591241">
        <ele>1489.3</ele>
        <time>2003-04-19T15:10:42Z</time>
      </trkpt>
      <trkpt lat="33.843759968876839" lon="-3.111877022311091">
        <ele>1489.9000000000001</ele>
        <time>2003-04-19T15:10:49Z</time>
      </trkpt>
      <trkpt lat="33.843897012993693" lon="-3.112095035612583">
        <ele>1490.0999999999999</ele>
        <time>2003-04-19T15:10:53Z</time>
      </trkpt>
      <trkpt lat="33.843964990228415" lon="-3.112205006182194">
        <ele>1490</ele>
        <time>2003-04-19T15:10:54Z</time>
      </trkpt>
      <trkpt lat="33.844100022688508" lon="-3.11236803419888">
        <ele>1489.8</ele>
        <time>2003-04-19T15:10:57Z</time>
      </trkpt>
      <trkpt lat="33.844336979091167" lon="-3.112616976723075">
        <ele>1489.5</ele>
        <time>2003-04-19T15:11:02Z</time>
      </trkpt>
      <trkpt lat="33.844390036538243" lon="-3.112729964777827">
        <ele>1489.8</ele>
        <time>2003-04-19T15:11:05Z</time>
      </trkpt>
      <trkpt lat="33.844437981024384" lon="-3.112838007509708">
        <ele>1489.8</ele>
        <time>2003-04-19T15:11:09Z</time>
      </trkpt>
      <trkpt lat="33.844505036249757" lon="-3.112944960594177">
        <ele>1487.9000000000001</ele>
        <time>2003-04-19T15:11:47Z</time>
      </trkpt>
      <trkpt lat="33.844602014869452" lon="-3.113082004711032">
        <ele>1487.5</ele>
        <time>2003-04-19T15:11:51Z</time>
      </trkpt>
      <trkpt lat="33.844793038442731" lon="-3.113309992477298">
        <ele>1488.3</ele>
        <time>2003-04-19T15:11:58Z</time>
      </trkpt>
      <trkpt lat="33.845054972916842" lon="-3.113622972741723">
        <ele>1488.7</ele>
        <time>2003-04-19T15:12:05Z</time>
      </trkpt>
      <trkpt lat="33.845126973465085" lon="-3.113702014088631">
        <ele>1488.9000000000001</ele>
        <time>2003-04-19T15:12:07Z</time>
      </trkpt>
      <trkpt lat="33.845192017033696" lon="-3.113793041557074">
        <ele>1489.3</ele>
        <time>2003-04-19T15:12:09Z</time>
      </trkpt>
      <trkpt lat="33.845295030623674" lon="-3.113927990198135">
        <ele>1489.9000000000001</ele>
        <time>2003-04-19T15:12:11Z</time>
      </trkpt>
      <trkpt lat="33.845422016456723" lon="-3.11406696215272">
        <ele>1490.4000000000001</ele>
        <time>2003-04-19T15:12:15Z</time>
      </trkpt>
      <trkpt lat="33.845552019774914" lon="-3.114160001277924">
        <ele>1489.8</ele>
        <time>2003-04-19T15:12:18Z</time>
      </trkpt>
      <trkpt lat="33.845629971474409" lon="-3.114214986562729">
        <ele>1490</ele>
        <time>2003-04-19T15:12:22Z</time>
      </trkpt>
      <trkpt lat="33.845698032528162" lon="-3.114290004596114">
        <ele>1491</ele>
        <time>2003-04-19T15:12:30Z</time>
      </trkpt>
      <trkpt lat="33.845804985612631" lon="-3.114414978772402">
        <ele>1491.3</ele>
        <time>2003-04-19T15:12:33Z</time>
      </trkpt>
      <trkpt lat="33.845968013629317" lon="-3.114620000123978">
        <ele>1491.3</ele>
        <time>2003-04-19T15:12:37Z</time>
      </trkpt>
      <trkpt lat="33.846200024709105" lon="-3.114961981773377">
        <ele>1491.2</ele>
        <time>2003-04-19T15:12:42Z</time>
      </trkpt>
      <trkpt lat="33.846336985006928" lon="-3.115170020610094">
        <ele>1491</ele>
        <time>2003-04-19T15:12:46Z</time>
      </trkpt>
      <trkpt lat="33.84681299328804" lon="-3.115862030535936">
        <ele>1491.7</ele>
        <time>2003-04-19T15:12:57Z</time>
      </trkpt>
      <trkpt lat="33.846935033798218" lon="-3.116051964461803">
        <ele>1492.2</ele>
        <time>2003-04-19T15:13:01Z</time>
      </trkpt>
      <trkpt lat="33.847099989652634" lon="-3.116226978600025">
        <ele>1491.9000000000001</ele>
        <time>2003-04-19T15:13:04Z</time>
      </trkpt>
      <trkpt lat="33.84767297655344" lon="-3.116744980216026">
        <ele>1492.4000000000001</ele>
        <time>2003-04-19T15:13:12Z</time>
      </trkpt>
      <trkpt lat="33.847919991239905" lon="-3.117042034864426">
        <ele>1493.4000000000001</ele>
        <time>2003-04-19T15:13:16Z</time>
      </trkpt>
      <trkpt lat="33.847997020930052" lon="-3.117216965183616">
        <ele>1493.5</ele>
        <time>2003-04-19T15:13:19Z</time>
      </trkpt>
      <trkpt lat="33.848046977072954" lon="-3.117406982928515">
        <ele>1493.8</ele>
        <time>2003-04-19T15:13:20Z</time>
      </trkpt>
      <trkpt lat="33.848085030913353" lon="-3.117661960422993">
        <ele>1493.9000000000001</ele>
        <time>2003-04-19T15:13:24Z</time>
      </trkpt>
      <trkpt lat="33.848121995106339" lon="-3.117821970954537">
        <ele>1493.4000000000001</ele>
        <time>2003-04-19T15:13:26Z</time>
      </trkpt>
      <trkpt lat="33.84823196567595" lon="-3.118393030017614">
        <ele>1493.2</ele>
        <time>2003-04-19T15:13:32Z</time>
      </trkpt>
      <trkpt lat="33.848283011466265" lon="-3.118746997788549">
        <ele>1493.4000000000001</ele>
        <time>2003-04-19T15:13:36Z</time>
      </trkpt>
      <trkpt lat="33.848302960395813" lon="-3.118931986391544">
        <ele>1493.4000000000001</ele>
        <time>2003-04-19T15:13:39Z</time>
      </trkpt>
      <trkpt lat="33.848398011177778" lon="-3.1200170237571">
        <ele>1493.9000000000001</ele>
        <time>2003-04-19T15:13:51Z</time>
      </trkpt>
      <trkpt lat="33.848398011177778" lon="-3.120149960741401">
        <ele>1494.3</ele>
        <time>2003-04-19T15:13:53Z</time>
      </trkpt>
      <trkpt lat="33.848345037549734" lon="-3.120277030393481">
        <ele>1494.8</ele>
        <time>2003-04-19T15:13:55Z</time>
      </trkpt>
      <trkpt lat="33.848277982324362" lon="-3.120460007339716">
        <ele>1495.5999999999999</ele>
        <time>2003-04-19T15:13:58Z</time>
      </trkpt>
      <trkpt lat="33.84827203117311" lon="-3.120599985122681">
        <ele>1495.5999999999999</ele>
        <time>2003-04-19T15:13:59Z</time>
      </trkpt>
      <trkpt lat="33.848279993981123" lon="-3.12074700370431">
        <ele>1495.5999999999999</ele>
        <time>2003-04-19T15:14:02Z</time>
      </trkpt>
      <trkpt lat="33.848262978717685" lon="-3.120887987315655">
        <ele>1495.7</ele>
        <time>2003-04-19T15:14:03Z</time>
      </trkpt>
      <trkpt lat="33.848246969282627" lon="-3.121032994240522">
        <ele>1495.5999999999999</ele>
        <time>2003-04-19T15:14:06Z</time>
      </trkpt>
      <trkpt lat="33.848285023123026" lon="-3.121184958145022">
        <ele>1495</ele>
        <time>2003-04-19T15:14:09Z</time>
      </trkpt>
      <trkpt lat="33.848306983709335" lon="-3.121346980333328">
        <ele>1494.5</ele>
        <time>2003-04-19T15:14:10Z</time>
      </trkpt>
      <trkpt lat="33.848355012014508" lon="-3.121964978054166">
        <ele>1495.2</ele>
        <time>2003-04-19T15:14:18Z</time>
      </trkpt>
      <trkpt lat="33.848434975370765" lon="-3.122348031029105">
        <ele>1495</ele>
        <time>2003-04-19T15:14:25Z</time>
      </trkpt>
      <trkpt lat="33.848391976207495" lon="-3.122450038790703">
        <ele>1495.5</ele>
        <time>2003-04-19T15:14:26Z</time>
      </trkpt>
      <trkpt lat="33.848360041156411" lon="-3.122566966339946">
        <ele>1496</ele>
        <time>2003-04-19T15:14:29Z</time>
      </trkpt>
      <trkpt lat="33.848342020064592" lon="-3.122692024335265">
        <ele>1496.9000000000001</ele>
        <time>2003-04-19T15:14:30Z</time>
      </trkpt>
      <trkpt lat="33.848340008407831" lon="-3.12285496853292">
        <ele>1497.3</ele>
        <time>2003-04-19T15:14:33Z</time>
      </trkpt>
      <trkpt lat="33.848334979265928" lon="-3.123012967407703">
        <ele>1497.0999999999999</ele>
        <time>2003-04-19T15:14:37Z</time>
      </trkpt>
      <trkpt lat="33.848298015072942" lon="-3.12315696850419">
        <ele>1496.8</ele>
        <time>2003-04-19T15:14:41Z</time>
      </trkpt>
      <trkpt lat="33.848282005637884" lon="-3.123268028721213">
        <ele>1496.5999999999999</ele>
        <time>2003-04-19T15:14:42Z</time>
      </trkpt>
      <trkpt lat="33.848283011466265" lon="-3.123389985412359">
        <ele>1496.5</ele>
        <time>2003-04-19T15:14:45Z</time>
      </trkpt>
      <trkpt lat="33.848292985931039" lon="-3.123759962618351">
        <ele>1496.0999999999999</ele>
        <time>2003-04-19T15:14:49Z</time>
      </trkpt>
      <trkpt lat="33.848306983709335" lon="-3.124037990346551">
        <ele>1495.8</ele>
        <time>2003-04-19T15:14:53Z</time>
      </trkpt>
      <trkpt lat="33.848364986479282" lon="-3.124162964522839">
        <ele>1495.2</ele>
        <time>2003-04-19T15:14:56Z</time>
      </trkpt>
      <trkpt lat="33.848422989249229" lon="-3.124291962012649">
        <ele>1495.0999999999999</ele>
        <time>2003-04-19T15:14:57Z</time>
      </trkpt>
      <trkpt lat="33.848437992855906" lon="-3.124426994472742">
        <ele>1495.3</ele>
        <time>2003-04-19T15:15:00Z</time>
      </trkpt>
      <trkpt lat="33.8484469614923" lon="-3.1248729955405">
        <ele>1494.5</ele>
        <time>2003-04-19T15:15:05Z</time>
      </trkpt>
      <trkpt lat="33.848404968157411" lon="-3.125011967495084">
        <ele>1495.4000000000001</ele>
        <time>2003-04-19T15:15:08Z</time>
      </trkpt>
      <trkpt lat="33.84827496483922" lon="-3.125347997993231">
        <ele>1496.7</ele>
        <time>2003-04-19T15:15:14Z</time>
      </trkpt>
      <trkpt lat="33.848164994269609" lon="-3.125482024624944">
        <ele>1497.2</ele>
        <time>2003-04-19T15:15:16Z</time>
      </trkpt>
      <trkpt lat="33.847971959039569" lon="-3.125734990462661">
        <ele>1498.0999999999999</ele>
        <time>2003-04-19T15:15:22Z</time>
      </trkpt>
      <trkpt lat="33.847827035933733" lon="-3.125992985442281">
        <ele>1498.8</ele>
        <time>2003-04-19T15:15:27Z</time>
      </trkpt>
      <trkpt lat="33.847842961549759" lon="-3.126117959618568">
        <ele>1498.7</ele>
        <time>2003-04-19T15:15:30Z</time>
      </trkpt>
      <trkpt lat="33.847927032038569" lon="-3.126192977651954">
        <ele>1498</ele>
        <time>2003-04-19T15:15:32Z</time>
      </trkpt>
      <trkpt lat="33.848032979294658" lon="-3.126288028433919">
        <ele>1497.2</ele>
        <time>2003-04-19T15:15:35Z</time>
      </trkpt>
      <trkpt lat="33.848112020641565" lon="-3.126358017325401">
        <ele>1496.5999999999999</ele>
        <time>2003-04-19T15:15:38Z</time>
      </trkpt>
      <trkpt lat="33.848255015909672" lon="-3.12652800232172">
        <ele>1496.2</ele>
        <time>2003-04-19T15:15:42Z</time>
      </trkpt>
      <trkpt lat="33.848297009244561" lon="-3.126632021740079">
        <ele>1496.0999999999999</ele>
        <time>2003-04-19T15:15:43Z</time>
      </trkpt>
      <trkpt lat="33.848353000357747" lon="-3.126882975921035">
        <ele>1496</ele>
        <time>2003-04-19T15:15:49Z</time>
      </trkpt>
      <trkpt lat="33.848404968157411" lon="-3.127165026962757">
        <ele>1495.8</ele>
        <time>2003-04-19T15:15:54Z</time>
      </trkpt>
      <trkpt lat="33.848442016169429" lon="-3.127269968390465">
        <ele>1495.9000000000001</ele>
        <time>2003-04-19T15:15:55Z</time>
      </trkpt>
      <trkpt lat="33.848492978140712" lon="-3.127416986972094">
        <ele>1495.9000000000001</ele>
        <time>2003-04-19T15:15:58Z</time>
      </trkpt>
      <trkpt lat="33.848506975919008" lon="-3.127527041360736">
        <ele>1495.8</ele>
        <time>2003-04-19T15:16:01Z</time>
      </trkpt>
      <trkpt lat="33.848504964262247" lon="-3.127713035792112">
        <ele>1496</ele>
        <time>2003-04-19T15:16:03Z</time>
      </trkpt>
      <trkpt lat="33.848472023382783" lon="-3.127901963889599">
        <ele>1496.5</ele>
        <time>2003-04-19T15:16:06Z</time>
      </trkpt>
      <trkpt lat="33.848428018391132" lon="-3.128017969429493">
        <ele>1496.9000000000001</ele>
        <time>2003-04-19T15:16:09Z</time>
      </trkpt>
      <trkpt lat="33.848364986479282" lon="-3.128112014383078">
        <ele>1497.4000000000001</ele>
        <time>2003-04-19T15:16:10Z</time>
      </trkpt>
      <trkpt lat="33.848322993144393" lon="-3.128209998831153">
        <ele>1497.5999999999999</ele>
        <time>2003-04-19T15:16:13Z</time>
      </trkpt>
      <trkpt lat="33.848353000357747" lon="-3.128336984664202">
        <ele>1498.3</ele>
        <time>2003-04-19T15:16:16Z</time>
      </trkpt>
      <trkpt lat="33.8484469614923" lon="-3.128481991589069">
        <ele>1498.3</ele>
        <time>2003-04-19T15:16:18Z</time>
      </trkpt>
      <trkpt lat="33.848760025575757" lon="-3.129024971276522">
        <ele>1498.3</ele>
        <time>2003-04-19T15:16:29Z</time>
      </trkpt>
      <trkpt lat="33.848837977275252" lon="-3.129109963774681">
        <ele>1498.4000000000001</ele>
        <time>2003-04-19T15:16:30Z</time>
      </trkpt>
      <trkpt lat="33.848922969773412" lon="-3.129163021221757">
        <ele>1498.5</ele>
        <time>2003-04-19T15:16:33Z</time>
      </trkpt>
      <trkpt lat="33.849020032212138" lon="-3.129182970151305">
        <ele>1498.7</ele>
        <time>2003-04-19T15:16:35Z</time>
      </trkpt>
      <trkpt lat="33.849122039973736" lon="-3.129142988473177">
        <ele>1498.7</ele>
        <time>2003-04-19T15:16:37Z</time>
      </trkpt>
      <trkpt lat="33.849237039685249" lon="-3.129124967381358">
        <ele>1498.5</ele>
        <time>2003-04-19T15:16:39Z</time>
      </trkpt>
      <trkpt lat="33.849357990548015" lon="-3.129133014008403">
        <ele>1498.2</ele>
        <time>2003-04-19T15:16:40Z</time>
      </trkpt>
      <trkpt lat="33.849652027711272" lon="-3.129186993464828">
        <ele>1497.4000000000001</ele>
        <time>2003-04-19T15:16:45Z</time>
      </trkpt>
      <trkpt lat="33.849868029356003" lon="-3.129252959042788">
        <ele>1497.4000000000001</ele>
        <time>2003-04-19T15:16:49Z</time>
      </trkpt>
      <trkpt lat="33.849974982440472" lon="-3.129252959042788">
        <ele>1497.2</ele>
        <time>2003-04-19T15:16:52Z</time>
      </trkpt>
      <trkpt lat="33.850080007687211" lon="-3.129242984578013">
        <ele>1497.3</ele>
        <time>2003-04-19T15:16:53Z</time>
      </trkpt>
      <trkpt lat="33.85027002543211" lon="-3.129192022606731">
        <ele>1497.5</ele>
        <time>2003-04-19T15:16:57Z</time>
      </trkpt>
      <trkpt lat="33.850338002666831" lon="-3.129093032330275">
        <ele>1497.0999999999999</ele>
        <time>2003-04-19T15:17:00Z</time>
      </trkpt>
      <trkpt lat="33.850407991558313" lon="-3.129011979326606">
        <ele>1496.9000000000001</ele>
        <time>2003-04-19T15:17:02Z</time>
      </trkpt>
      <trkpt lat="33.850498013198376" lon="-3.128969985991716">
        <ele>1496.7</ele>
        <time>2003-04-19T15:17:04Z</time>
      </trkpt>
      <trkpt lat="33.850632039830089" lon="-3.12893302179873">
        <ele>1496.8</ele>
        <time>2003-04-19T15:17:07Z</time>
      </trkpt>
      <trkpt lat="33.85074301622808" lon="-3.128979960456491">
        <ele>1496.9000000000001</ele>
        <time>2003-04-19T15:17:10Z</time>
      </trkpt>
      <trkpt lat="33.850836977362633" lon="-3.129022959619761">
        <ele>1497.0999999999999</ele>
        <time>2003-04-19T15:17:12Z</time>
      </trkpt>
      <trkpt lat="33.850951977074146" lon="-3.129090014845133">
        <ele>1497.2</ele>
        <time>2003-04-19T15:17:16Z</time>
      </trkpt>
      <trkpt lat="33.851151969283819" lon="-3.129167966544628">
        <ele>1497.2</ele>
        <time>2003-04-19T15:17:23Z</time>
      </trkpt>
      <trkpt lat="33.85128197260201" lon="-3.129197973757982">
        <ele>1497.0999999999999</ele>
        <time>2003-04-19T15:17:26Z</time>
      </trkpt>
      <trkpt lat="33.851378029212356" lon="-3.129178024828434">
        <ele>1497</ele>
        <time>2003-04-19T15:17:27Z</time>
      </trkpt>
      <trkpt lat="33.851477019488811" lon="-3.129172995686531">
        <ele>1496.8</ele>
        <time>2003-04-19T15:17:30Z</time>
      </trkpt>
      <trkpt lat="33.85162697173655" lon="-3.129169978201389">
        <ele>1496.2</ele>
        <time>2003-04-19T15:17:33Z</time>
      </trkpt>
      <trkpt lat="33.851797040551901" lon="-3.129129996523261">
        <ele>1496</ele>
        <time>2003-04-19T15:17:35Z</time>
      </trkpt>
      <trkpt lat="33.851952021941543" lon="-3.129092026501894">
        <ele>1495.7</ele>
        <time>2003-04-19T15:17:38Z</time>
      </trkpt>
      <trkpt lat="33.85205696336925" lon="-3.129112981259823">
        <ele>1495.7</ele>
        <time>2003-04-19T15:17:41Z</time>
      </trkpt>
      <trkpt lat="33.852295009419322" lon="-3.129192022606731">
        <ele>1496.3</ele>
        <time>2003-04-19T15:17:46Z</time>
      </trkpt>
      <trkpt lat="33.852395005524158" lon="-3.129214989021421">
        <ele>1496.2</ele>
        <time>2003-04-19T15:17:47Z</time>
      </trkpt>
      <trkpt lat="33.852504976093769" lon="-3.129227980971336">
        <ele>1496.0999999999999</ele>
        <time>2003-04-19T15:17:50Z</time>
      </trkpt>
      <trkpt lat="33.852621987462044" lon="-3.129237033426762">
        <ele>1496</ele>
        <time>2003-04-19T15:17:51Z</time>
      </trkpt>
      <trkpt lat="33.85274201631546" lon="-3.129292018711567">
        <ele>1496</ele>
        <time>2003-04-19T15:17:54Z</time>
      </trkpt>
      <trkpt lat="33.853177037090063" lon="-3.129517994821072">
        <ele>1496.3</ele>
        <time>2003-04-19T15:18:01Z</time>
      </trkpt>
      <trkpt lat="33.853496974334121" lon="-3.129712035879493">
        <ele>1496.5999999999999</ele>
        <time>2003-04-19T15:18:05Z</time>
      </trkpt>
      <trkpt lat="33.853623038157821" lon="-3.129761992022395">
        <ele>1496.8</ele>
        <time>2003-04-19T15:18:08Z</time>
      </trkpt>
      <trkpt lat="33.85415998287499" lon="-3.129970030859113">
        <ele>1496.7</ele>
        <time>2003-04-19T15:18:16Z</time>
      </trkpt>
      <trkpt lat="33.854442033916712" lon="-3.13007497228682">
        <ele>1496.5</ele>
        <time>2003-04-19T15:18:20Z</time>
      </trkpt>
      <trkpt lat="33.854685025289655" lon="-3.130238000303507">
        <ele>1496.7</ele>
        <time>2003-04-19T15:18:24Z</time>
      </trkpt>
      <trkpt lat="33.854767000302672" lon="-3.130349982529879">
        <ele>1496.8</ele>
        <time>2003-04-19T15:18:25Z</time>
      </trkpt>
      <trkpt lat="33.854830032214522" lon="-3.130476968362927">
        <ele>1496.9000000000001</ele>
        <time>2003-04-19T15:18:28Z</time>
      </trkpt>
      <trkpt lat="33.854907983914018" lon="-3.130576964467764">
        <ele>1497.2</ele>
        <time>2003-04-19T15:18:29Z</time>
      </trkpt>
      <trkpt lat="33.855019966140389" lon="-3.130639996379614">
        <ele>1497.4000000000001</ele>
        <time>2003-04-19T15:18:32Z</time>
      </trkpt>
      <trkpt lat="33.855124991387129" lon="-3.130715014412999">
        <ele>1497.4000000000001</ele>
        <time>2003-04-19T15:18:33Z</time>
      </trkpt>
      <trkpt lat="33.855211995542049" lon="-3.130797995254397">
        <ele>1497.4000000000001</ele>
        <time>2003-04-19T15:18:36Z</time>
      </trkpt>
      <trkpt lat="33.855267986655235" lon="-3.130918024107814">
        <ele>1497.3</ele>
        <time>2003-04-19T15:18:37Z</time>
      </trkpt>
      <trkpt lat="33.855326995253563" lon="-3.131027994677424">
        <ele>1497.2</ele>
        <time>2003-04-19T15:18:40Z</time>
      </trkpt>
      <trkpt lat="33.855452975258231" lon="-3.131214994937182">
        <ele>1497.3</ele>
        <time>2003-04-19T15:18:44Z</time>
      </trkpt>
      <trkpt lat="33.855550037696958" lon="-3.13134198077023">
        <ele>1497.3</ele>
        <time>2003-04-19T15:18:47Z</time>
      </trkpt>
      <trkpt lat="33.855627989396453" lon="-3.131542978808284">
        <ele>1497.5</ele>
        <time>2003-04-19T15:18:51Z</time>
      </trkpt>
      <trkpt lat="33.855647016316652" lon="-3.131667030975223">
        <ele>1497.9000000000001</ele>
        <time>2003-04-19T15:18:52Z</time>
      </trkpt>
      <trkpt lat="33.855703007429838" lon="-3.131756968796253">
        <ele>1498</ele>
        <time>2003-04-19T15:18:55Z</time>
      </trkpt>
      <trkpt lat="33.855786994099617" lon="-3.131804997101426">
        <ele>1497.8</ele>
        <time>2003-04-19T15:18:56Z</time>
      </trkpt>
      <trkpt lat="33.855863017961383" lon="-3.131880015134811">
        <ele>1497.7</ele>
        <time>2003-04-19T15:18:59Z</time>
      </trkpt>
      <trkpt lat="33.856089999899268" lon="-3.132061986252666">
        <ele>1497.9000000000001</ele>
        <time>2003-04-19T15:19:03Z</time>
      </trkpt>
      <trkpt lat="33.856195025146008" lon="-3.132116971537471">
        <ele>1498.0999999999999</ele>
        <time>2003-04-19T15:19:07Z</time>
      </trkpt>
      <trkpt lat="33.856307007372379" lon="-3.132204981520772">
        <ele>1498.3</ele>
        <time>2003-04-19T15:19:10Z</time>
      </trkpt>
      <trkpt lat="33.856431981548667" lon="-3.132304977625608">
        <ele>1498.5</ele>
        <time>2003-04-19T15:19:12Z</time>
      </trkpt>
      <trkpt lat="33.856746973469853" lon="-3.132525002583861">
        <ele>1498.5</ele>
        <time>2003-04-19T15:19:19Z</time>
      </trkpt>
      <trkpt lat="33.856855016201735" lon="-3.13262801617384">
        <ele>1498.5999999999999</ele>
        <time>2003-04-19T15:19:21Z</time>
      </trkpt>
      <trkpt lat="33.856968004256487" lon="-3.132718037813902">
        <ele>1498.5999999999999</ele>
        <time>2003-04-19T15:19:22Z</time>
      </trkpt>
      <trkpt lat="33.857143018394709" lon="-3.132852986454964">
        <ele>1499.2</ele>
        <time>2003-04-19T15:19:26Z</time>
      </trkpt>
      <trkpt lat="33.857237985357642" lon="-3.132981983944774">
        <ele>1499.0999999999999</ele>
        <time>2003-04-19T15:19:27Z</time>
      </trkpt>
      <trkpt lat="33.857343010604382" lon="-3.133094971999526">
        <ele>1499.3</ele>
        <time>2003-04-19T15:19:30Z</time>
      </trkpt>
      <trkpt lat="33.857475025579333" lon="-3.133178036659956">
        <ele>1499.5999999999999</ele>
        <time>2003-04-19T15:19:31Z</time>
      </trkpt>
      <trkpt lat="33.857651967555285" lon="-3.133330000564456">
        <ele>1499.9000000000001</ele>
        <time>2003-04-19T15:19:34Z</time>
      </trkpt>
      <trkpt lat="33.857741989195347" lon="-3.133471990004182">
        <ele>1500</ele>
        <time>2003-04-19T15:19:37Z</time>
      </trkpt>
      <trkpt lat="33.857865035533905" lon="-3.133572991937399">
        <ele>1500.2</ele>
        <time>2003-04-19T15:19:38Z</time>
      </trkpt>
      <trkpt lat="33.857980035245419" lon="-3.133674999698997">
        <ele>1500.5</ele>
        <time>2003-04-19T15:19:41Z</time>
      </trkpt>
      <trkpt lat="33.858041977509856" lon="-3.13381003215909">
        <ele>1500.3</ele>
        <time>2003-04-19T15:19:42Z</time>
      </trkpt>
      <trkpt lat="33.858141973614693" lon="-3.133912961930037">
        <ele>1500.8</ele>
        <time>2003-04-19T15:19:45Z</time>
      </trkpt>
      <trkpt lat="33.858262002468109" lon="-3.133976999670267">
        <ele>1500.9000000000001</ele>
        <time>2003-04-19T15:19:46Z</time>
      </trkpt>
      <trkpt lat="33.858431987464428" lon="-3.134037014096975">
        <ele>1501.2</ele>
        <time>2003-04-19T15:19:49Z</time>
      </trkpt>
      <trkpt lat="33.858576994389296" lon="-3.134072972461581">
        <ele>1501.5999999999999</ele>
        <time>2003-04-19T15:19:53Z</time>
      </trkpt>
      <trkpt lat="33.858619993552566" lon="-3.134187972173095">
        <ele>1501.5999999999999</ele>
        <time>2003-04-19T15:19:54Z</time>
      </trkpt>
      <trkpt lat="33.858661986887455" lon="-3.134301966056228">
        <ele>1501.5999999999999</ele>
        <time>2003-04-19T15:19:57Z</time>
      </trkpt>
      <trkpt lat="33.858847981318831" lon="-3.134640008211136">
        <ele>1501.8</ele>
        <time>2003-04-19T15:20:02Z</time>
      </trkpt>
      <trkpt lat="33.859242014586926" lon="-3.135072011500597">
        <ele>1502.5999999999999</ele>
        <time>2003-04-19T15:20:12Z</time>
      </trkpt>
      <trkpt lat="33.859324995428324" lon="-3.135172007605434">
        <ele>1502.7</ele>
        <time>2003-04-19T15:20:13Z</time>
      </trkpt>
      <trkpt lat="33.859606962651014" lon="-3.135562017560005">
        <ele>1503.3</ele>
        <time>2003-04-19T15:20:20Z</time>
      </trkpt>
      <trkpt lat="33.859988003969193" lon="-3.135890001431108">
        <ele>1502.2</ele>
        <time>2003-04-19T15:20:29Z</time>
      </trkpt>
      <trkpt lat="33.860109960660338" lon="-3.135965019464493">
        <ele>1502.4000000000001</ele>
        <time>2003-04-19T15:20:32Z</time>
      </trkpt>
      <trkpt lat="33.860205011442304" lon="-3.136057974770665">
        <ele>1502.4000000000001</ele>
        <time>2003-04-19T15:20:36Z</time>
      </trkpt>
      <trkpt lat="33.860278017818928" lon="-3.136150008067489">
        <ele>1502.4000000000001</ele>
        <time>2003-04-19T15:20:39Z</time>
      </trkpt>
      <trkpt lat="33.860422018915415" lon="-3.136295014992356">
        <ele>1502.5</ele>
        <time>2003-04-19T15:20:43Z</time>
      </trkpt>
      <trkpt lat="33.860514974221587" lon="-3.136370033025742">
        <ele>1502.5</ele>
        <time>2003-04-19T15:20:44Z</time>
      </trkpt>
      <trkpt lat="33.860602984204888" lon="-3.136459970846772">
        <ele>1502.4000000000001</ele>
        <time>2003-04-19T15:20:47Z</time>
      </trkpt>
      <trkpt lat="33.861055020242929" lon="-3.136904966086149">
        <ele>1503</ele>
        <time>2003-04-19T15:20:58Z</time>
      </trkpt>
      <trkpt lat="33.861122997477651" lon="-3.137096995487809">
        <ele>1503</ele>
        <time>2003-04-19T15:21:00Z</time>
      </trkpt>
      <trkpt lat="33.861151998862624" lon="-3.137220041826367">
        <ele>1502.8</ele>
        <time>2003-04-19T15:21:03Z</time>
      </trkpt>
      <trkpt lat="33.861079998314381" lon="-3.137345016002655">
        <ele>1502.9000000000001</ele>
        <time>2003-04-19T15:21:06Z</time>
      </trkpt>
      <trkpt lat="33.861083015799522" lon="-3.137466972693801">
        <ele>1503.2</ele>
        <time>2003-04-19T15:21:07Z</time>
      </trkpt>
      <trkpt lat="33.861074969172478" lon="-3.137581972405314">
        <ele>1503.4000000000001</ele>
        <time>2003-04-19T15:21:10Z</time>
      </trkpt>
      <trkpt lat="33.861079998314381" lon="-3.137745000422001">
        <ele>1503.5</ele>
        <time>2003-04-19T15:21:13Z</time>
      </trkpt>
      <trkpt lat="33.861082009971142" lon="-3.137857988476753">
        <ele>1503.8</ele>
        <time>2003-04-19T15:21:14Z</time>
      </trkpt>
      <trkpt lat="33.861058037728071" lon="-3.137967959046364">
        <ele>1503.9000000000001</ele>
        <time>2003-04-19T15:21:17Z</time>
      </trkpt>
      <trkpt lat="33.861073041334748" lon="-3.138097040355206">
        <ele>1503.8</ele>
        <time>2003-04-19T15:21:19Z</time>
      </trkpt>
      <trkpt lat="33.86114202439785" lon="-3.138169962912798">
        <ele>1503.4000000000001</ele>
        <time>2003-04-19T15:21:22Z</time>
      </trkpt>
      <trkpt lat="33.861230034381151" lon="-3.138207010924816">
        <ele>1502.7</ele>
        <time>2003-04-19T15:21:23Z</time>
      </trkpt>
      <trkpt lat="33.861373029649258" lon="-3.138292003422976">
        <ele>1502.2</ele>
        <time>2003-04-19T15:21:26Z</time>
      </trkpt>
      <trkpt lat="33.861545026302338" lon="-3.138374984264374">
        <ele>1502.0999999999999</ele>
        <time>2003-04-19T15:21:30Z</time>
      </trkpt>
      <trkpt lat="33.861772008240223" lon="-3.138480009511113">
        <ele>1503.2</ele>
        <time>2003-04-19T15:21:34Z</time>
      </trkpt>
      <trkpt lat="33.861879967153072" lon="-3.13845201395452">
        <ele>1503.4000000000001</ele>
        <time>2003-04-19T15:21:37Z</time>
      </trkpt>
      <trkpt lat="33.8620650395751" lon="-3.13840800896287">
        <ele>1503.3</ele>
        <time>2003-04-19T15:21:41Z</time>
      </trkpt>
      <trkpt lat="33.862252961844206" lon="-3.138382025063038">
        <ele>1503.5</ele>
        <time>2003-04-19T15:21:45Z</time>
      </trkpt>
      <trkpt lat="33.862463012337685" lon="-3.13834497705102">
        <ele>1503.5</ele>
        <time>2003-04-19T15:21:49Z</time>
      </trkpt>
      <trkpt lat="33.862568037584424" lon="-3.138374984264374">
        <ele>1503.5</ele>
        <time>2003-04-19T15:21:52Z</time>
      </trkpt>
      <trkpt lat="33.862659987062216" lon="-3.138447990640998">
        <ele>1503.5</ele>
        <time>2003-04-19T15:21:53Z</time>
      </trkpt>
      <trkpt lat="33.862847993150353" lon="-3.138591991737485">
        <ele>1503.7</ele>
        <time>2003-04-19T15:21:57Z</time>
      </trkpt>
      <trkpt lat="33.862932985648513" lon="-3.138661980628967">
        <ele>1504</ele>
        <time>2003-04-19T15:22:00Z</time>
      </trkpt>
      <trkpt lat="33.863347973674536" lon="-3.139051990583539">
        <ele>1505</ele>
        <time>2003-04-19T15:22:09Z</time>
      </trkpt>
      <trkpt lat="33.863503038883209" lon="-3.139187023043633">
        <ele>1504.8</ele>
        <time>2003-04-19T15:22:12Z</time>
      </trkpt>
      <trkpt lat="33.863849965855479" lon="-3.139577032998204">
        <ele>1504.0999999999999</ele>
        <time>2003-04-19T15:22:20Z</time>
      </trkpt>
      <trkpt lat="33.863909980282187" lon="-3.139692032709718">
        <ele>1503.8</ele>
        <time>2003-04-19T15:22:23Z</time>
      </trkpt>
      <trkpt lat="33.863962031900883" lon="-3.139820024371147">
        <ele>1503.2</ele>
        <time>2003-04-19T15:22:24Z</time>
      </trkpt>
      <trkpt lat="33.863988015800714" lon="-3.139969976618886">
        <ele>1502.4000000000001</ele>
        <time>2003-04-19T15:22:27Z</time>
      </trkpt>
      <trkpt lat="33.864017017185688" lon="-3.140107020735741">
        <ele>1502</ele>
        <time>2003-04-19T15:22:28Z</time>
      </trkpt>
      <trkpt lat="33.864088011905551" lon="-3.140229983255267">
        <ele>1501.5</ele>
        <time>2003-04-19T15:22:31Z</time>
      </trkpt>
      <trkpt lat="33.864222960546613" lon="-3.140393011271954">
        <ele>1500.7</ele>
        <time>2003-04-19T15:22:34Z</time>
      </trkpt>
      <trkpt lat="33.864341983571649" lon="-3.140546986833215">
        <ele>1499.8</ele>
        <time>2003-04-19T15:22:36Z</time>
      </trkpt>
      <trkpt lat="33.864371990785003" lon="-3.14068797044456">
        <ele>1499</ele>
        <time>2003-04-19T15:22:39Z</time>
      </trkpt>
      <trkpt lat="33.864380037412047" lon="-3.140829959884286">
        <ele>1498.2</ele>
        <time>2003-04-19T15:22:40Z</time>
      </trkpt>
      <trkpt lat="33.864420019090176" lon="-3.141098013147712">
        <ele>1496.3</ele>
        <time>2003-04-19T15:22:44Z</time>
      </trkpt>
      <trkpt lat="33.864499982446432" lon="-3.141194991767407">
        <ele>1495.8</ele>
        <time>2003-04-19T15:22:47Z</time>
      </trkpt>
      <trkpt lat="33.864587992429733" lon="-3.141345027834177">
        <ele>1495.3</ele>
        <time>2003-04-19T15:22:50Z</time>
      </trkpt>
      <trkpt lat="33.864596961066127" lon="-3.141470002010465">
        <ele>1495.2</ele>
        <time>2003-04-19T15:22:51Z</time>
      </trkpt>
      <trkpt lat="33.864599978551269" lon="-3.141654990613461">
        <ele>1494.3</ele>
        <time>2003-04-19T15:22:55Z</time>
      </trkpt>
      <trkpt lat="33.864569971337914" lon="-3.141773007810116">
        <ele>1493.8</ele>
        <time>2003-04-19T15:22:57Z</time>
      </trkpt>
      <trkpt lat="33.864533007144928" lon="-3.142014993354678">
        <ele>1492.8</ele>
        <time>2003-04-19T15:23:01Z</time>
      </trkpt>
      <trkpt lat="33.864527978003025" lon="-3.142148014158011">
        <ele>1492.5</ele>
        <time>2003-04-19T15:23:02Z</time>
      </trkpt>
      <trkpt lat="33.86449696496129" lon="-3.142265025526285">
        <ele>1492.2</ele>
        <time>2003-04-19T15:23:05Z</time>
      </trkpt>
      <trkpt lat="33.864480033516884" lon="-3.142387988045812">
        <ele>1492.0999999999999</ele>
        <time>2003-04-19T15:23:10Z</time>
      </trkpt>
      <trkpt lat="33.864471986889839" lon="-3.142507011070848">
        <ele>1492.0999999999999</ele>
        <time>2003-04-19T15:23:14Z</time>
      </trkpt>
      <trkpt lat="33.864437034353614" lon="-3.143053008243442">
        <ele>1489.5999999999999</ele>
        <time>2003-04-19T15:23:25Z</time>
      </trkpt>
      <trkpt lat="33.864435022696853" lon="-3.143189968541265">
        <ele>1489.0999999999999</ele>
        <time>2003-04-19T15:23:29Z</time>
      </trkpt>
      <trkpt lat="33.864377019926906" lon="-3.143303040415049">
        <ele>1489.0999999999999</ele>
        <time>2003-04-19T15:23:32Z</time>
      </trkpt>
      <trkpt lat="33.864323040470481" lon="-3.143452992662787">
        <ele>1489</ele>
        <time>2003-04-19T15:23:34Z</time>
      </trkpt>
      <trkpt lat="33.864314993843436" lon="-3.143562963232398">
        <ele>1488.5</ele>
        <time>2003-04-19T15:23:37Z</time>
      </trkpt>
      <trkpt lat="33.864337960258126" lon="-3.143690032884479">
        <ele>1487.5999999999999</ele>
        <time>2003-04-19T15:23:40Z</time>
      </trkpt>
      <trkpt lat="33.864335026592016" lon="-3.143832022324204">
        <ele>1487</ele>
        <time>2003-04-19T15:23:44Z</time>
      </trkpt>
      <trkpt lat="33.864333014935255" lon="-3.144057998433709">
        <ele>1486.0999999999999</ele>
        <time>2003-04-19T15:23:49Z</time>
      </trkpt>
      <trkpt lat="33.864377019926906" lon="-3.144184984266758">
        <ele>1485.5</ele>
        <time>2003-04-19T15:23:52Z</time>
      </trkpt>
      <trkpt lat="33.864467041566968" lon="-3.144405009225011">
        <ele>1483.7</ele>
        <time>2003-04-19T15:23:56Z</time>
      </trkpt>
      <trkpt lat="33.864605007693172" lon="-3.144693011417985">
        <ele>1482.2</ele>
        <time>2003-04-19T15:24:03Z</time>
      </trkpt>
      <trkpt lat="33.864686982706189" lon="-3.145028036087751">
        <ele>1480.9000000000001</ele>
        <time>2003-04-19T15:24:08Z</time>
      </trkpt>
      <trkpt lat="33.864756971597672" lon="-3.145355014130473">
        <ele>1480</ele>
        <time>2003-04-19T15:24:15Z</time>
      </trkpt>
      <trkpt lat="33.864786978811026" lon="-3.145494991913438">
        <ele>1479.8</ele>
        <time>2003-04-19T15:24:18Z</time>
      </trkpt>
      <trkpt lat="33.864899966865778" lon="-3.145645027980208">
        <ele>1478.5999999999999</ele>
        <time>2003-04-19T15:24:22Z</time>
      </trkpt>
      <trkpt lat="33.86494698934257" lon="-3.145794980227947">
        <ele>1478.3</ele>
        <time>2003-04-19T15:24:24Z</time>
      </trkpt>
      <trkpt lat="33.86505201458931" lon="-3.146447008475661">
        <ele>1476.5999999999999</ele>
        <time>2003-04-19T15:24:35Z</time>
      </trkpt>
      <trkpt lat="33.865102976560593" lon="-3.146547004580498">
        <ele>1476.5</ele>
        <time>2003-04-19T15:24:38Z</time>
      </trkpt>
      <trkpt lat="33.865283019840717" lon="-3.146812040358782">
        <ele>1475.7</ele>
        <time>2003-04-19T15:24:43Z</time>
      </trkpt>
      <trkpt lat="33.865407994017005" lon="-3.146946988999844">
        <ele>1475.4000000000001</ele>
        <time>2003-04-19T15:24:47Z</time>
      </trkpt>
      <trkpt lat="33.865410005673766" lon="-3.147093001753092">
        <ele>1475.0999999999999</ele>
        <time>2003-04-19T15:24:50Z</time>
      </trkpt>
      <trkpt lat="33.865355020388961" lon="-3.147183023393154">
        <ele>1474.8</ele>
        <time>2003-04-19T15:24:53Z</time>
      </trkpt>
      <trkpt lat="33.865304980427027" lon="-3.14728201366961">
        <ele>1474.4000000000001</ele>
        <time>2003-04-19T15:24:55Z</time>
      </trkpt>
      <trkpt lat="33.865219987928867" lon="-3.147536991164088">
        <ele>1472.7</ele>
        <time>2003-04-19T15:24:59Z</time>
      </trkpt>
      <trkpt lat="33.865159973502159" lon="-3.147847037762404">
        <ele>1471.5</ele>
        <time>2003-04-19T15:25:02Z</time>
      </trkpt>
      <trkpt lat="33.865134995430708" lon="-3.148052981123328">
        <ele>1471.0999999999999</ele>
        <time>2003-04-19T15:25:06Z</time>
      </trkpt>
      <trkpt lat="33.865131977945566" lon="-3.148199999704957">
        <ele>1470.5999999999999</ele>
        <time>2003-04-19T15:25:09Z</time>
      </trkpt>
      <trkpt lat="33.865131977945566" lon="-3.148345006629825">
        <ele>1470.7</ele>
        <time>2003-04-19T15:25:13Z</time>
      </trkpt>
      <trkpt lat="33.865159973502159" lon="-3.148577017709613">
        <ele>1470.7</ele>
        <time>2003-04-19T15:25:18Z</time>
      </trkpt>
      <trkpt lat="33.865379998460412" lon="-3.149095019325614">
        <ele>1467.3</ele>
        <time>2003-04-19T15:25:40Z</time>
      </trkpt>
      <trkpt lat="33.865425009280443" lon="-3.149210019037128">
        <ele>1466.9000000000001</ele>
        <time>2003-04-19T15:25:44Z</time>
      </trkpt>
      <trkpt lat="33.865494998171926" lon="-3.149338010698557">
        <ele>1466.2</ele>
        <time>2003-04-19T15:25:49Z</time>
      </trkpt>
      <trkpt lat="33.86554797179997" lon="-3.149437000975013">
        <ele>1465.9000000000001</ele>
        <time>2003-04-19T15:25:55Z</time>
      </trkpt>
      <trkpt lat="33.86558803729713" lon="-3.149534985423088">
        <ele>1465.5</ele>
        <time>2003-04-19T15:25:57Z</time>
      </trkpt>
      <trkpt lat="33.865657020360231" lon="-3.149619977921248">
        <ele>1466.2</ele>
        <time>2003-04-19T15:26:00Z</time>
      </trkpt>
      <trkpt lat="33.865689961239696" lon="-3.149732965976">
        <ele>1466</ele>
        <time>2003-04-19T15:26:04Z</time>
      </trkpt>
      <trkpt lat="33.865632964298129" lon="-3.149845032021403">
        <ele>1465.5999999999999</ele>
        <time>2003-04-19T15:26:07Z</time>
      </trkpt>
      <trkpt lat="33.865594994276762" lon="-3.149975035339594">
        <ele>1465.2</ele>
        <time>2003-04-19T15:26:11Z</time>
      </trkpt>
      <trkpt lat="33.865516958758235" lon="-3.15029296092689">
        <ele>1463.7</ele>
        <time>2003-04-19T15:26:19Z</time>
      </trkpt>
      <trkpt lat="33.86548301205039" lon="-3.150417013093829">
        <ele>1463.5999999999999</ele>
        <time>2003-04-19T15:26:22Z</time>
      </trkpt>
      <trkpt lat="33.865446969866753" lon="-3.150581968948245">
        <ele>1463.3</ele>
        <time>2003-04-19T15:26:26Z</time>
      </trkpt>
      <trkpt lat="33.865317972376943" lon="-3.150986982509494">
        <ele>1462.0999999999999</ele>
        <time>2003-04-19T15:26:35Z</time>
      </trkpt>
      <trkpt lat="33.865253012627363" lon="-3.151123020797968">
        <ele>1461.9000000000001</ele>
        <time>2003-04-19T15:26:39Z</time>
      </trkpt>
      <trkpt lat="33.86516198515892" lon="-3.151161996647716">
        <ele>1461.4000000000001</ele>
        <time>2003-04-19T15:26:42Z</time>
      </trkpt>
      <trkpt lat="33.865062994882464" lon="-3.151212958618999">
        <ele>1461.5</ele>
        <time>2003-04-19T15:26:46Z</time>
      </trkpt>
      <trkpt lat="33.864986971020699" lon="-3.151327958330512">
        <ele>1461.5</ele>
        <time>2003-04-19T15:26:49Z</time>
      </trkpt>
      <trkpt lat="33.864938020706177" lon="-3.151444969698787">
        <ele>1461.3</ele>
        <time>2003-04-19T15:26:51Z</time>
      </trkpt>
      <trkpt lat="33.864867025986314" lon="-3.151540020480752">
        <ele>1461</ele>
        <time>2003-04-19T15:26:54Z</time>
      </trkpt>
      <trkpt lat="33.864744985476136" lon="-3.151713022962213">
        <ele>1460.5</ele>
        <time>2003-04-19T15:27:00Z</time>
      </trkpt>
      <trkpt lat="33.864705003798008" lon="-3.15183699131012">
        <ele>1460.4000000000001</ele>
        <time>2003-04-19T15:27:02Z</time>
      </trkpt>
      <trkpt lat="33.864662004634738" lon="-3.151951991021633">
        <ele>1459.8</ele>
        <time>2003-04-19T15:27:05Z</time>
      </trkpt>
      <trkpt lat="33.864571982994676" lon="-3.152104960754514">
        <ele>1459.5999999999999</ele>
        <time>2003-04-19T15:27:09Z</time>
      </trkpt>
      <trkpt lat="33.864341983571649" lon="-3.152334960177541">
        <ele>1459</ele>
        <time>2003-04-19T15:27:17Z</time>
      </trkpt>
      <trkpt lat="33.864021962508559" lon="-3.152605025097728">
        <ele>1457.5999999999999</ele>
        <time>2003-04-19T15:27:25Z</time>
      </trkpt>
      <trkpt lat="33.86389497667551" lon="-3.152667973190546">
        <ele>1457.5</ele>
        <time>2003-04-19T15:27:28Z</time>
      </trkpt>
      <trkpt lat="33.863776959478855" lon="-3.152788002043963">
        <ele>1457.0999999999999</ele>
        <time>2003-04-19T15:27:32Z</time>
      </trkpt>
      <trkpt lat="33.863603034988046" lon="-3.15299796871841">
        <ele>1456.5999999999999</ele>
        <time>2003-04-19T15:27:36Z</time>
      </trkpt>
      <trkpt lat="33.863552995026112" lon="-3.153107017278671">
        <ele>1456.5999999999999</ele>
        <time>2003-04-19T15:27:39Z</time>
      </trkpt>
      <trkpt lat="33.863524999469519" lon="-3.153223022818565">
        <ele>1456.4000000000001</ele>
        <time>2003-04-19T15:27:40Z</time>
      </trkpt>
      <trkpt lat="33.86348501779139" lon="-3.153327964246273">
        <ele>1456.5</ele>
        <time>2003-04-19T15:27:43Z</time>
      </trkpt>
      <trkpt lat="33.863446963950992" lon="-3.153432989493012">
        <ele>1456.5</ele>
        <time>2003-04-19T15:27:44Z</time>
      </trkpt>
      <trkpt lat="33.86339801363647" lon="-3.153542038053274">
        <ele>1456.4000000000001</ele>
        <time>2003-04-19T15:27:47Z</time>
      </trkpt>
      <trkpt lat="33.863359959796071" lon="-3.153668018057942">
        <ele>1456.4000000000001</ele>
        <time>2003-04-19T15:27:50Z</time>
      </trkpt>
      <trkpt lat="33.863331964239478" lon="-3.153849989175797">
        <ele>1456.5</ele>
        <time>2003-04-19T15:27:55Z</time>
      </trkpt>
      <trkpt lat="33.863321989774704" lon="-3.153967000544071">
        <ele>1456.5</ele>
        <time>2003-04-19T15:27:58Z</time>
      </trkpt>
      <trkpt lat="33.863240014761686" lon="-3.154145032167435">
        <ele>1456</ele>
        <time>2003-04-19T15:28:02Z</time>
      </trkpt>
      <trkpt lat="33.863137001171708" lon="-3.154277969151735">
        <ele>1455.4000000000001</ele>
        <time>2003-04-19T15:28:06Z</time>
      </trkpt>
      <trkpt lat="33.863086961209774" lon="-3.154406966641545">
        <ele>1454.7</ele>
        <time>2003-04-19T15:28:08Z</time>
      </trkpt>
      <trkpt lat="33.863001968711615" lon="-3.154641995206475">
        <ele>1454.5</ele>
        <time>2003-04-19T15:28:12Z</time>
      </trkpt>
      <trkpt lat="33.862919993698597" lon="-3.154863025993109">
        <ele>1454.4000000000001</ele>
        <time>2003-04-19T15:28:17Z</time>
      </trkpt>
      <trkpt lat="33.862847993150353" lon="-3.15499696880579">
        <ele>1454.5</ele>
        <time>2003-04-19T15:28:19Z</time>
      </trkpt>
      <trkpt lat="33.862813040614128" lon="-3.155096964910626">
        <ele>1454.5999999999999</ele>
        <time>2003-04-19T15:28:22Z</time>
      </trkpt>
      <trkpt lat="33.862744979560375" lon="-3.155265022069216">
        <ele>1453.9000000000001</ele>
        <time>2003-04-19T15:28:25Z</time>
      </trkpt>
      <trkpt lat="33.862577006220818" lon="-3.15570498816669">
        <ele>1453.4000000000001</ele>
        <time>2003-04-19T15:28:34Z</time>
      </trkpt>
      <trkpt lat="33.862511962652206" lon="-3.155864998698235">
        <ele>1453.3</ele>
        <time>2003-04-19T15:28:37Z</time>
      </trkpt>
      <trkpt lat="33.862416995689273" lon="-3.156104972586036">
        <ele>1452.9000000000001</ele>
        <time>2003-04-19T15:28:41Z</time>
      </trkpt>
      <trkpt lat="33.862372990697622" lon="-3.15624201670289">
        <ele>1452.5999999999999</ele>
        <time>2003-04-19T15:28:42Z</time>
      </trkpt>
      <trkpt lat="33.862220020964742" lon="-3.156612999737263">
        <ele>1452</ele>
        <time>2003-04-19T15:28:49Z</time>
      </trkpt>
      <trkpt lat="33.862154977396131" lon="-3.156781978905201">
        <ele>1452</ele>
        <time>2003-04-19T15:28:53Z</time>
      </trkpt>
      <trkpt lat="33.862120024859905" lon="-3.156954981386662">
        <ele>1452.3</ele>
        <time>2003-04-19T15:28:57Z</time>
      </trkpt>
      <trkpt lat="33.862112984061241" lon="-3.157069981098175">
        <ele>1452.4000000000001</ele>
        <time>2003-04-19T15:28:58Z</time>
      </trkpt>
      <trkpt lat="33.862112984061241" lon="-3.15718699246645">
        <ele>1452.5</ele>
        <time>2003-04-19T15:29:01Z</time>
      </trkpt>
      <trkpt lat="33.862107032909989" lon="-3.157311966642737">
        <ele>1452.0999999999999</ele>
        <time>2003-04-19T15:29:02Z</time>
      </trkpt>
      <trkpt lat="33.862071996554732" lon="-3.158232970163226">
        <ele>1450.8</ele>
        <time>2003-04-19T15:29:17Z</time>
      </trkpt>
      <trkpt lat="33.862062022089958" lon="-3.158777039498091">
        <ele>1450.8</ele>
        <time>2003-04-19T15:29:28Z</time>
      </trkpt>
      <trkpt lat="33.86204500682652" lon="-3.159009972587228">
        <ele>1450.7</ele>
        <time>2003-04-19T15:29:32Z</time>
      </trkpt>
      <trkpt lat="33.862018017098308" lon="-3.160110013559461">
        <ele>1445.7</ele>
        <time>2003-04-19T15:29:50Z</time>
      </trkpt>
      <trkpt lat="33.862027991563082" lon="-3.160242028534412">
        <ele>1445</ele>
        <time>2003-04-19T15:29:51Z</time>
      </trkpt>
      <trkpt lat="33.862062022089958" lon="-3.160627009347081">
        <ele>1444.8</ele>
        <time>2003-04-19T15:29:56Z</time>
      </trkpt>
      <trkpt lat="33.862075014039874" lon="-3.161150040104985">
        <ele>1445.9000000000001</ele>
        <time>2003-04-19T15:30:03Z</time>
      </trkpt>
      <trkpt lat="33.862147014588118" lon="-3.161722021177411">
        <ele>1447.2</ele>
        <time>2003-04-19T15:30:11Z</time>
      </trkpt>
      <trkpt lat="33.862212980166078" lon="-3.162089986726642">
        <ele>1448.2</ele>
        <time>2003-04-19T15:30:18Z</time>
      </trkpt>
      <trkpt lat="33.862284980714321" lon="-3.162246979773045">
        <ele>1448.7</ele>
        <time>2003-04-19T15:30:22Z</time>
      </trkpt>
      <trkpt lat="33.862352035939693" lon="-3.162328032776713">
        <ele>1449</ele>
        <time>2003-04-19T15:30:23Z</time>
      </trkpt>
      <trkpt lat="33.862407021224499" lon="-3.162416964769363">
        <ele>1449</ele>
        <time>2003-04-19T15:30:26Z</time>
      </trkpt>
      <trkpt lat="33.862477010115981" lon="-3.162567000836134">
        <ele>1449.4000000000001</ele>
        <time>2003-04-19T15:30:29Z</time>
      </trkpt>
      <trkpt lat="33.862556973472238" lon="-3.162636989727616">
        <ele>1449.9000000000001</ele>
        <time>2003-04-19T15:30:30Z</time>
      </trkpt>
      <trkpt lat="33.862659987062216" lon="-3.162668002769351">
        <ele>1450.3</ele>
        <time>2003-04-19T15:30:33Z</time>
      </trkpt>
      <trkpt lat="33.862772975116968" lon="-3.162652999162674">
        <ele>1450.7</ele>
        <time>2003-04-19T15:30:34Z</time>
      </trkpt>
      <trkpt lat="33.862876994535327" lon="-3.162664985284209">
        <ele>1450.9000000000001</ele>
        <time>2003-04-19T15:30:37Z</time>
      </trkpt>
      <trkpt lat="33.863228028640151" lon="-3.162807980552316">
        <ele>1451.9000000000001</ele>
        <time>2003-04-19T15:30:44Z</time>
      </trkpt>
      <trkpt lat="33.863321989774704" lon="-3.162873024120927">
        <ele>1451.9000000000001</ele>
        <time>2003-04-19T15:30:45Z</time>
      </trkpt>
      <trkpt lat="33.863432966172695" lon="-3.162873024120927">
        <ele>1452.4000000000001</ele>
        <time>2003-04-19T15:30:48Z</time>
      </trkpt>
      <trkpt lat="33.863534973934293" lon="-3.162842011079192">
        <ele>1452.5999999999999</ele>
        <time>2003-04-19T15:30:49Z</time>
      </trkpt>
      <trkpt lat="33.863676963374019" lon="-3.162809992209077">
        <ele>1453.2</ele>
        <time>2003-04-19T15:30:53Z</time>
      </trkpt>
      <trkpt lat="33.863762961700559" lon="-3.162845028564334">
        <ele>1453.7</ele>
        <time>2003-04-19T15:30:54Z</time>
      </trkpt>
      <trkpt lat="33.86415196582675" lon="-3.163003027439117">
        <ele>1455.3</ele>
        <time>2003-04-19T15:31:03Z</time>
      </trkpt>
      <trkpt lat="33.864267971366644" lon="-3.163054995238781">
        <ele>1456</ele>
        <time>2003-04-19T15:31:04Z</time>
      </trkpt>
      <trkpt lat="33.864523032680154" lon="-3.163121966645122">
        <ele>1456.9000000000001</ele>
        <time>2003-04-19T15:31:09Z</time>
      </trkpt>
      <trkpt lat="33.864827966317534" lon="-3.163236966356635">
        <ele>1457.0999999999999</ele>
        <time>2003-04-19T15:31:17Z</time>
      </trkpt>
      <trkpt lat="33.864940032362938" lon="-3.163277031853795">
        <ele>1457.5999999999999</ele>
        <time>2003-04-19T15:31:20Z</time>
      </trkpt>
      <trkpt lat="33.865057965740561" lon="-3.163324976339936">
        <ele>1458</ele>
        <time>2003-04-19T15:31:23Z</time>
      </trkpt>
      <trkpt lat="33.86520498432219" lon="-3.163393037393689">
        <ele>1457.9000000000001</ele>
        <time>2003-04-19T15:31:27Z</time>
      </trkpt>
      <trkpt lat="33.865415034815669" lon="-3.163471994921565">
        <ele>1457.8</ele>
        <time>2003-04-19T15:31:31Z</time>
      </trkpt>
      <trkpt lat="33.865517964586616" lon="-3.163507031276822">
        <ele>1457.5999999999999</ele>
        <time>2003-04-19T15:31:32Z</time>
      </trkpt>
      <trkpt lat="33.865876961499453" lon="-3.16363200545311">
        <ele>1457.2</ele>
        <time>2003-04-19T15:31:40Z</time>
      </trkpt>
      <trkpt lat="33.86601802892983" lon="-3.163681961596012">
        <ele>1456.9000000000001</ele>
        <time>2003-04-19T15:31:44Z</time>
      </trkpt>
      <trkpt lat="33.866177033632994" lon="-3.163744993507862">
        <ele>1456.5999999999999</ele>
        <time>2003-04-19T15:31:47Z</time>
      </trkpt>
      <trkpt lat="33.866808023303747" lon="-3.16397700458765">
        <ele>1457.5999999999999</ele>
        <time>2003-04-19T15:31:59Z</time>
      </trkpt>
      <trkpt lat="33.867016984149814" lon="-3.164052022621036">
        <ele>1457.2</ele>
        <time>2003-04-19T15:32:03Z</time>
      </trkpt>
      <trkpt lat="33.867667000740767" lon="-3.164285039529204">
        <ele>1456.5999999999999</ele>
        <time>2003-04-19T15:32:14Z</time>
      </trkpt>
      <trkpt lat="33.867787029594183" lon="-3.164338013157249">
        <ele>1456.2</ele>
        <time>2003-04-19T15:32:17Z</time>
      </trkpt>
      <trkpt lat="33.868247028440237" lon="-3.164592990651727">
        <ele>1456.0999999999999</ele>
        <time>2003-04-19T15:32:24Z</time>
      </trkpt>
      <trkpt lat="33.868580041453242" lon="-3.164772028103471">
        <ele>1457.3</ele>
        <time>2003-04-19T15:32:28Z</time>
      </trkpt>
      <trkpt lat="33.868739968165755" lon="-3.164785020053387">
        <ele>1457.5</ele>
        <time>2003-04-19T15:32:29Z</time>
      </trkpt>
      <trkpt lat="33.868937026709318" lon="-3.164827013388276">
        <ele>1457.7</ele>
        <time>2003-04-19T15:32:33Z</time>
      </trkpt>
      <trkpt lat="33.869102988392115" lon="-3.164898008108139">
        <ele>1458.2</ele>
        <time>2003-04-19T15:32:36Z</time>
      </trkpt>
      <trkpt lat="33.869267022237182" lon="-3.164983000606298">
        <ele>1458.0999999999999</ele>
        <time>2003-04-19T15:32:38Z</time>
      </trkpt>
      <trkpt lat="33.86982299387455" lon="-3.165118033066392">
        <ele>1458.8</ele>
        <time>2003-04-19T15:32:48Z</time>
      </trkpt>
      <trkpt lat="33.870079983025789" lon="-3.165118033066392">
        <ele>1459.2</ele>
        <time>2003-04-19T15:32:52Z</time>
      </trkpt>
      <trkpt lat="33.870219960808754" lon="-3.165127001702786">
        <ele>1459</ele>
        <time>2003-04-19T15:32:56Z</time>
      </trkpt>
      <trkpt lat="33.870415007695556" lon="-3.165117027238011">
        <ele>1458.5999999999999</ele>
        <time>2003-04-19T15:33:00Z</time>
      </trkpt>
      <trkpt lat="33.870518021285534" lon="-3.16511501558125">
        <ele>1458.3</ele>
        <time>2003-04-19T15:33:03Z</time>
      </trkpt>
      <trkpt lat="33.870630003511906" lon="-3.16511501558125">
        <ele>1457.9000000000001</ele>
        <time>2003-04-19T15:33:05Z</time>
      </trkpt>
      <trkpt lat="33.870760006830096" lon="-3.165121972560883">
        <ele>1457.5999999999999</ele>
        <time>2003-04-19T15:33:08Z</time>
      </trkpt>
      <trkpt lat="33.870914988219738" lon="-3.165119960904121">
        <ele>1457</ele>
        <time>2003-04-19T15:33:12Z</time>
      </trkpt>
      <trkpt lat="33.871093019843102" lon="-3.165113003924489">
        <ele>1456</ele>
        <time>2003-04-19T15:33:16Z</time>
      </trkpt>
      <trkpt lat="33.871222017332911" lon="-3.165088025853038">
        <ele>1455.3</ele>
        <time>2003-04-19T15:33:19Z</time>
      </trkpt>
      <trkpt lat="33.871346991509199" lon="-3.165100011974573">
        <ele>1454.5999999999999</ele>
        <time>2003-04-19T15:33:22Z</time>
      </trkpt>
      <trkpt lat="33.871683022007346" lon="-3.16513798199594">
        <ele>1452.2</ele>
        <time>2003-04-19T15:33:30Z</time>
      </trkpt>
      <trkpt lat="33.872243016958237" lon="-3.165090037509799">
        <ele>1449.2</ele>
        <time>2003-04-19T15:33:41Z</time>
      </trkpt>
      <trkpt lat="33.872375031933188" lon="-3.165091965347529">
        <ele>1448.5</ele>
        <time>2003-04-19T15:33:43Z</time>
      </trkpt>
      <trkpt lat="33.872543005272746" lon="-3.16509498283267">
        <ele>1448.3</ele>
        <time>2003-04-19T15:33:49Z</time>
      </trkpt>
      <trkpt lat="33.872750038281083" lon="-3.165103029459715">
        <ele>1447.0999999999999</ele>
        <time>2003-04-19T15:33:54Z</time>
      </trkpt>
      <trkpt lat="33.873017001897097" lon="-3.165081990882754">
        <ele>1445.0999999999999</ele>
        <time>2003-04-19T15:34:02Z</time>
      </trkpt>
      <trkpt lat="33.873069975525141" lon="-3.165173018351197">
        <ele>1443.7</ele>
        <time>2003-04-19T15:34:05Z</time>
      </trkpt>
      <trkpt lat="33.873008033260703" lon="-3.16526303999126">
        <ele>1442.8</ele>
        <time>2003-04-19T15:34:06Z</time>
      </trkpt>
      <trkpt lat="33.87291700579226" lon="-3.165390025824308">
        <ele>1441.4000000000001</ele>
        <time>2003-04-19T15:34:10Z</time>
      </trkpt>
      <trkpt lat="33.87285003438592" lon="-3.165469989180565">
        <ele>1440.0999999999999</ele>
        <time>2003-04-19T15:34:12Z</time>
      </trkpt>
      <trkpt lat="33.872773004695773" lon="-3.165552970021963">
        <ele>1438.7</ele>
        <time>2003-04-19T15:34:14Z</time>
      </trkpt>
      <trkpt lat="33.872771998867393" lon="-3.165680039674044">
        <ele>1437.0999999999999</ele>
        <time>2003-04-19T15:34:18Z</time>
      </trkpt>
      <trkpt lat="33.872880041599274" lon="-3.165707029402256">
        <ele>1436.2</ele>
        <time>2003-04-19T15:34:21Z</time>
      </trkpt>
      <trkpt lat="33.872996969148517" lon="-3.165662018582225">
        <ele>1435.8</ele>
        <time>2003-04-19T15:34:25Z</time>
      </trkpt>
      <trkpt lat="33.873184975236654" lon="-3.165551964193583">
        <ele>1435.2</ele>
        <time>2003-04-19T15:34:30Z</time>
      </trkpt>
      <trkpt lat="33.873287988826632" lon="-3.165494967252016">
        <ele>1433.8</ele>
        <time>2003-04-19T15:34:35Z</time>
      </trkpt>
      <trkpt lat="33.873412040993571" lon="-3.165494967252016">
        <ele>1431.4000000000001</ele>
        <time>2003-04-19T15:34:39Z</time>
      </trkpt>
      <trkpt lat="33.873487981036305" lon="-3.165584988892078">
        <ele>1430.7</ele>
        <time>2003-04-19T15:34:41Z</time>
      </trkpt>
      <trkpt lat="33.873502984642982" lon="-3.165712980553508">
        <ele>1429.9000000000001</ele>
        <time>2003-04-19T15:34:44Z</time>
      </trkpt>
      <trkpt lat="33.873527040705085" lon="-3.165848013013601">
        <ele>1429.5999999999999</ele>
        <time>2003-04-19T15:34:48Z</time>
      </trkpt>
      <trkpt lat="33.873598035424948" lon="-3.166202986612916">
        <ele>1427.5</ele>
        <time>2003-04-19T15:34:56Z</time>
      </trkpt>
      <trkpt lat="33.873622007668018" lon="-3.166331984102726">
        <ele>1426.5999999999999</ele>
        <time>2003-04-19T15:35:00Z</time>
      </trkpt>
      <trkpt lat="33.873661989346147" lon="-3.166457964107394">
        <ele>1425.8</ele>
        <time>2003-04-19T15:35:03Z</time>
      </trkpt>
      <trkpt lat="33.873832980170846" lon="-3.16683498211205">
        <ele>1424.2</ele>
        <time>2003-04-19T15:35:14Z</time>
      </trkpt>
      <trkpt lat="33.873891988769174" lon="-3.166937995702028">
        <ele>1423.7</ele>
        <time>2003-04-19T15:35:16Z</time>
      </trkpt>
      <trkpt lat="33.873957032337785" lon="-3.1670499779284">
        <ele>1422.9000000000001</ele>
        <time>2003-04-19T15:35:19Z</time>
      </trkpt>
      <trkpt lat="33.874038001522422" lon="-3.167157014831901">
        <ele>1422.4000000000001</ele>
        <time>2003-04-19T15:35:23Z</time>
      </trkpt>
      <trkpt lat="33.874117964878678" lon="-3.167270002886653">
        <ele>1421.8</ele>
        <time>2003-04-19T15:35:26Z</time>
      </trkpt>
      <trkpt lat="33.874200023710728" lon="-3.167369998991489">
        <ele>1421.0999999999999</ele>
        <time>2003-04-19T15:35:29Z</time>
      </trkpt>
      <trkpt lat="33.874240005388856" lon="-3.167502013966441">
        <ele>1419.2</ele>
        <time>2003-04-19T15:35:31Z</time>
      </trkpt>
      <trkpt lat="33.874188037589192" lon="-3.167635034769774">
        <ele>1417.0999999999999</ele>
        <time>2003-04-19T15:35:34Z</time>
      </trkpt>
      <trkpt lat="33.874083012342453" lon="-3.1677579972893">
        <ele>1414.5999999999999</ele>
        <time>2003-04-19T15:35:38Z</time>
      </trkpt>
      <trkpt lat="33.874000031501055" lon="-3.167872997000814">
        <ele>1412.8</ele>
        <time>2003-04-19T15:35:42Z</time>
      </trkpt>
      <trkpt lat="33.873955020681024" lon="-3.167997971177101">
        <ele>1411.5999999999999</ele>
        <time>2003-04-19T15:35:47Z</time>
      </trkpt>
      <trkpt lat="33.873931970447302" lon="-3.168110037222505">
        <ele>1410.5999999999999</ele>
        <time>2003-04-19T15:35:50Z</time>
      </trkpt>
      <trkpt lat="33.873944962397218" lon="-3.168235011398792">
        <ele>1409</ele>
        <time>2003-04-19T15:35:54Z</time>
      </trkpt>
      <trkpt lat="33.873955020681024" lon="-3.168361997231841">
        <ele>1407.3</ele>
        <time>2003-04-19T15:35:58Z</time>
      </trkpt>
      <trkpt lat="33.873946974053979" lon="-3.168510021641851">
        <ele>1405.7</ele>
        <time>2003-04-19T15:36:02Z</time>
      </trkpt>
      <trkpt lat="33.873982010409236" lon="-3.168637007474899">
        <ele>1404.3</ele>
        <time>2003-04-19T15:36:06Z</time>
      </trkpt>
      <trkpt lat="33.874051999300718" lon="-3.168732980266213">
        <ele>1402.7</ele>
        <time>2003-04-19T15:36:10Z</time>
      </trkpt>
      <trkpt lat="33.874159958213568" lon="-3.168752007186413">
        <ele>1401.2</ele>
        <time>2003-04-19T15:36:14Z</time>
      </trkpt>
      <trkpt lat="33.874242017045617" lon="-3.16894001327455">
        <ele>1399.2</ele>
        <time>2003-04-19T15:36:24Z</time>
      </trkpt>
      <trkpt lat="33.874146966263652" lon="-3.168997010216117">
        <ele>1397.7</ele>
        <time>2003-04-19T15:36:28Z</time>
      </trkpt>
      <trkpt lat="33.874061973765492" lon="-3.169066999107599">
        <ele>1396.7</ele>
        <time>2003-04-19T15:36:31Z</time>
      </trkpt>
      <trkpt lat="33.873912021517754" lon="-3.169209994375706">
        <ele>1395.7</ele>
        <time>2003-04-19T15:36:36Z</time>
      </trkpt>
      <trkpt lat="33.873653020709753" lon="-3.169488022103906">
        <ele>1393.8</ele>
        <time>2003-04-19T15:36:44Z</time>
      </trkpt>
      <trkpt lat="33.873227974399924" lon="-3.16986202262342">
        <ele>1390.5</ele>
        <time>2003-04-19T15:36:58Z</time>
      </trkpt>
      <trkpt lat="33.872799994423985" lon="-3.170274998992682">
        <ele>1388.3</ele>
        <time>2003-04-19T15:37:07Z</time>
      </trkpt>
      <trkpt lat="33.872694969177246" lon="-3.170423023402691">
        <ele>1388.3</ele>
        <time>2003-04-19T15:37:11Z</time>
      </trkpt>
      <trkpt lat="33.872543005272746" lon="-3.170672971755266">
        <ele>1388.8</ele>
        <time>2003-04-19T15:37:15Z</time>
      </trkpt>
      <trkpt lat="33.872439991682768" lon="-3.170734997838736">
        <ele>1388.7</ele>
        <time>2003-04-19T15:37:18Z</time>
      </trkpt>
      <trkpt lat="33.87231501750648" lon="-3.170753018930554">
        <ele>1388.5</ele>
        <time>2003-04-19T15:37:19Z</time>
      </trkpt>
      <trkpt lat="33.872175039723516" lon="-3.170740026980639">
        <ele>1387.7</ele>
        <time>2003-04-19T15:37:22Z</time>
      </trkpt>
      <trkpt lat="33.8718649931252" lon="-3.170672971755266">
        <ele>1386.2</ele>
        <time>2003-04-19T15:37:26Z</time>
      </trkpt>
      <trkpt lat="33.871577996760607" lon="-3.170552020892501">
        <ele>1384.2</ele>
        <time>2003-04-19T15:37:30Z</time>
      </trkpt>
      <trkpt lat="33.870671996846795" lon="-3.170123035088182">
        <ele>1380.3</ele>
        <time>2003-04-19T15:37:44Z</time>
      </trkpt>
      <trkpt lat="33.870394974946976" lon="-3.170075006783009">
        <ele>1378.7</ele>
        <time>2003-04-19T15:37:46Z</time>
      </trkpt>
      <trkpt lat="33.870192971080542" lon="-3.170084981247783">
        <ele>1378.3</ele>
        <time>2003-04-19T15:37:49Z</time>
      </trkpt>
      <trkpt lat="33.870024997740984" lon="-3.170135021209717">
        <ele>1377.8</ele>
        <time>2003-04-19T15:37:50Z</time>
      </trkpt>
      <trkpt lat="33.86988703161478" lon="-3.170178020372987">
        <ele>1376.7</ele>
        <time>2003-04-19T15:37:53Z</time>
      </trkpt>
      <trkpt lat="33.8697599619627" lon="-3.17018698900938">
        <ele>1375.8</ele>
        <time>2003-04-19T15:37:54Z</time>
      </trkpt>
      <trkpt lat="33.86963197030127" lon="-3.17016301676631">
        <ele>1374.5999999999999</ele>
        <time>2003-04-19T15:37:57Z</time>
      </trkpt>
      <trkpt lat="33.869183035567403" lon="-3.170052962377667">
        <ele>1371.8</ele>
        <time>2003-04-19T15:38:02Z</time>
      </trkpt>
      <trkpt lat="33.868810040876269" lon="-3.170037036761642">
        <ele>1370.2</ele>
        <time>2003-04-19T15:38:08Z</time>
      </trkpt>
      <trkpt lat="33.868667967617512" lon="-3.170071989297867">
        <ele>1370.4000000000001</ele>
        <time>2003-04-19T15:38:09Z</time>
      </trkpt>
      <trkpt lat="33.868527989834547" lon="-3.170096967369318">
        <ele>1369.9000000000001</ele>
        <time>2003-04-19T15:38:12Z</time>
      </trkpt>
      <trkpt lat="33.868381977081299" lon="-3.170097973197699">
        <ele>1369.8</ele>
        <time>2003-04-19T15:38:13Z</time>
      </trkpt>
      <trkpt lat="33.868147032335401" lon="-3.170111970975995">
        <ele>1369.5</ele>
        <time>2003-04-19T15:38:16Z</time>
      </trkpt>
      <trkpt lat="33.867990039288998" lon="-3.17016301676631">
        <ele>1368.5999999999999</ele>
        <time>2003-04-19T15:38:19Z</time>
      </trkpt>
      <trkpt lat="33.867742018774152" lon="-3.170296959578991">
        <ele>1367.4000000000001</ele>
        <time>2003-04-19T15:38:21Z</time>
      </trkpt>
      <trkpt lat="33.867449993267655" lon="-3.170478008687496">
        <ele>1365.9000000000001</ele>
        <time>2003-04-19T15:38:25Z</time>
      </trkpt>
      <trkpt lat="33.867312027141452" lon="-3.170520002022386">
        <ele>1363.5999999999999</ele>
        <time>2003-04-19T15:38:28Z</time>
      </trkpt>
      <trkpt lat="33.867195015773177" lon="-3.170640030875802">
        <ele>1363.5999999999999</ele>
        <time>2003-04-19T15:38:29Z</time>
      </trkpt>
      <trkpt lat="33.867070041596889" lon="-3.170737009495497">
        <ele>1363.3</ele>
        <time>2003-04-19T15:38:32Z</time>
      </trkpt>
      <trkpt lat="33.866910031065345" lon="-3.170857038348913">
        <ele>1364.7</ele>
        <time>2003-04-19T15:38:35Z</time>
      </trkpt>
      <trkpt lat="33.866627980023623" lon="-3.171052001416683">
        <ele>1363.3</ele>
        <time>2003-04-19T15:38:40Z</time>
      </trkpt>
      <trkpt lat="33.866435028612614" lon="-3.1711530033499">
        <ele>1361.2</ele>
        <time>2003-04-19T15:38:43Z</time>
      </trkpt>
      <trkpt lat="33.866007970646024" lon="-3.171417033299804">
        <ele>1357.2</ele>
        <time>2003-04-19T15:38:50Z</time>
      </trkpt>
      <trkpt lat="33.865906968712807" lon="-3.171506971120834">
        <ele>1357</ele>
        <time>2003-04-19T15:38:51Z</time>
      </trkpt>
      <trkpt lat="33.865824993699789" lon="-3.171570003032684">
        <ele>1356.0999999999999</ele>
        <time>2003-04-19T15:38:54Z</time>
      </trkpt>
      <trkpt lat="33.865758022293448" lon="-3.171643009409308">
        <ele>1355.3</ele>
        <time>2003-04-19T15:38:55Z</time>
      </trkpt>
      <trkpt lat="33.865721980109811" lon="-3.171752979978919">
        <ele>1354.2</ele>
        <time>2003-04-19T15:38:58Z</time>
      </trkpt>
      <trkpt lat="33.865779982879758" lon="-3.171848030760884">
        <ele>1353.8</ele>
        <time>2003-04-19T15:38:59Z</time>
      </trkpt>
      <trkpt lat="33.865879978984594" lon="-3.171858005225658">
        <ele>1353.7</ele>
        <time>2003-04-19T15:39:02Z</time>
      </trkpt>
      <trkpt lat="33.866012999787927" lon="-3.171907961368561">
        <ele>1353.5</ele>
        <time>2003-04-19T15:39:05Z</time>
      </trkpt>
      <trkpt lat="33.866160018369555" lon="-3.171966969966888">
        <ele>1353.4000000000001</ele>
        <time>2003-04-19T15:39:07Z</time>
      </trkpt>
      <trkpt lat="33.866275018081069" lon="-3.172022961080074">
        <ele>1353.7</ele>
        <time>2003-04-19T15:39:10Z</time>
      </trkpt>
      <trkpt lat="33.866517003625631" lon="-3.172166962176561">
        <ele>1355.3</ele>
        <time>2003-04-19T15:39:17Z</time>
      </trkpt>
      <trkpt lat="33.866614988073707" lon="-3.172296965494752">
        <ele>1354.9000000000001</ele>
        <time>2003-04-19T15:39:19Z</time>
      </trkpt>
      <trkpt lat="33.866790002211928" lon="-3.172584967687726">
        <ele>1355.4000000000001</ele>
        <time>2003-04-19T15:39:25Z</time>
      </trkpt>
      <trkpt lat="33.867046991363168" lon="-3.173162983730435">
        <ele>1353.7</ele>
        <time>2003-04-19T15:39:34Z</time>
      </trkpt>
      <trkpt lat="33.867089990526438" lon="-3.17334202118218">
        <ele>1353.4000000000001</ele>
        <time>2003-04-19T15:39:37Z</time>
      </trkpt>
      <trkpt lat="33.867147993296385" lon="-3.17347202450037">
        <ele>1352.3</ele>
        <time>2003-04-19T15:39:40Z</time>
      </trkpt>
      <trkpt lat="33.867204990237951" lon="-3.173577971756458">
        <ele>1352.2</ele>
        <time>2003-04-19T15:39:41Z</time>
      </trkpt>
      <trkpt lat="33.867253018543124" lon="-3.173719961196184">
        <ele>1351.7</ele>
        <time>2003-04-19T15:39:44Z</time>
      </trkpt>
      <trkpt lat="33.867332981899381" lon="-3.173922970890999">
        <ele>1352.4000000000001</ele>
        <time>2003-04-19T15:39:46Z</time>
      </trkpt>
      <trkpt lat="33.867472037672997" lon="-3.174166968092322">
        <ele>1353.2</ele>
        <time>2003-04-19T15:39:50Z</time>
      </trkpt>
      <trkpt lat="33.867536997422576" lon="-3.174284985288978">
        <ele>1353.7</ele>
        <time>2003-04-19T15:39:53Z</time>
      </trkpt>
      <trkpt lat="33.867828017100692" lon="-3.174940031021833">
        <ele>1352.3</ele>
        <time>2003-04-19T15:40:01Z</time>
      </trkpt>
      <trkpt lat="33.868157006800175" lon="-3.175790039822459">
        <ele>1349.3</ele>
        <time>2003-04-19T15:40:12Z</time>
      </trkpt>
      <trkpt lat="33.868206962943077" lon="-3.175902022048831">
        <ele>1348.5999999999999</ele>
        <time>2003-04-19T15:40:17Z</time>
      </trkpt>
      <trkpt lat="33.868206962943077" lon="-3.176015010103583">
        <ele>1346.8</ele>
        <time>2003-04-19T15:40:20Z</time>
      </trkpt>
      <trkpt lat="33.868200005963445" lon="-3.176179965957999">
        <ele>1345.0999999999999</ele>
        <time>2003-04-19T15:40:24Z</time>
      </trkpt>
      <trkpt lat="33.868160024285316" lon="-3.176987981423736">
        <ele>1337.3</ele>
        <time>2003-04-19T15:40:36Z</time>
      </trkpt>
      <trkpt lat="33.868122976273298" lon="-3.177116978913546">
        <ele>1335.8</ele>
        <time>2003-04-19T15:40:39Z</time>
      </trkpt>
      <trkpt lat="33.868064973503351" lon="-3.177252011373639">
        <ele>1334.4000000000001</ele>
        <time>2003-04-19T15:40:40Z</time>
      </trkpt>
      <trkpt lat="33.867919966578484" lon="-3.177588041871786">
        <ele>1330.9000000000001</ele>
        <time>2003-04-19T15:40:46Z</time>
      </trkpt>
      <trkpt lat="33.867837991565466" lon="-3.178003029897809">
        <ele>1327.0999999999999</ele>
        <time>2003-04-19T15:40:51Z</time>
      </trkpt>
      <trkpt lat="33.867836985737085" lon="-3.178187012672424">
        <ele>1325.4000000000001</ele>
        <time>2003-04-19T15:40:53Z</time>
      </trkpt>
      <trkpt lat="33.867866992950439" lon="-3.178637959063053">
        <ele>1321.5999999999999</ele>
        <time>2003-04-19T15:40:58Z</time>
      </trkpt>
      <trkpt lat="33.867947040125728" lon="-3.178805010393262">
        <ele>1320.3</ele>
        <time>2003-04-19T15:40:59Z</time>
      </trkpt>
      <trkpt lat="33.868002025410533" lon="-3.179001985117793">
        <ele>1318.0999999999999</ele>
        <time>2003-04-19T15:41:02Z</time>
      </trkpt>
      <trkpt lat="33.868066985160112" lon="-3.17918797954917">
        <ele>1316.7</ele>
        <time>2003-04-19T15:41:03Z</time>
      </trkpt>
      <trkpt lat="33.868194976821542" lon="-3.179425019770861">
        <ele>1315</ele>
        <time>2003-04-19T15:41:06Z</time>
      </trkpt>
      <trkpt lat="33.868409972637892" lon="-3.179687038064003">
        <ele>1313</ele>
        <time>2003-04-19T15:41:10Z</time>
      </trkpt>
      <trkpt lat="33.868496976792812" lon="-3.179834978654981">
        <ele>1312.5999999999999</ele>
        <time>2003-04-19T15:41:13Z</time>
      </trkpt>
      <trkpt lat="33.869040040299296" lon="-3.180569987744093">
        <ele>1304.2</ele>
        <time>2003-04-19T15:41:24Z</time>
      </trkpt>
      <trkpt lat="33.869146993383765" lon="-3.180667972192168">
        <ele>1302.8</ele>
        <time>2003-04-19T15:41:25Z</time>
      </trkpt>
      <trkpt lat="33.869562987238169" lon="-3.181044990196824">
        <ele>1298.3</ele>
        <time>2003-04-19T15:41:33Z</time>
      </trkpt>
      <trkpt lat="33.869649991393089" lon="-3.181178011000156">
        <ele>1297.0999999999999</ele>
        <time>2003-04-19T15:41:36Z</time>
      </trkpt>
      <trkpt lat="33.870172016322613" lon="-3.181970017030835">
        <ele>1289.5</ele>
        <time>2003-04-19T15:41:48Z</time>
      </trkpt>
      <trkpt lat="33.870302019640803" lon="-3.182160034775734">
        <ele>1287.8</ele>
        <time>2003-04-19T15:41:51Z</time>
      </trkpt>
      <trkpt lat="33.870363039895892" lon="-3.182313004508615">
        <ele>1286</ele>
        <time>2003-04-19T15:41:52Z</time>
      </trkpt>
      <trkpt lat="33.870469992980361" lon="-3.182724975049496">
        <ele>1282.4000000000001</ele>
        <time>2003-04-19T15:41:57Z</time>
      </trkpt>
      <trkpt lat="33.870490025728941" lon="-3.182899989187717">
        <ele>1280.8</ele>
        <time>2003-04-19T15:42:00Z</time>
      </trkpt>
      <trkpt lat="33.870496982708573" lon="-3.183178016915917">
        <ele>1278</ele>
        <time>2003-04-19T15:42:03Z</time>
      </trkpt>
      <trkpt lat="33.870490025728941" lon="-3.183535002171993">
        <ele>1274.5</ele>
        <time>2003-04-19T15:42:07Z</time>
      </trkpt>
      <trkpt lat="33.870484996587038" lon="-3.183697024360299">
        <ele>1273.2</ele>
        <time>2003-04-19T15:42:08Z</time>
      </trkpt>
      <trkpt lat="33.870433028787374" lon="-3.183819986879826">
        <ele>1272.4000000000001</ele>
        <time>2003-04-19T15:42:11Z</time>
      </trkpt>
      <trkpt lat="33.870334960520267" lon="-3.183901961892843">
        <ele>1271.2</ele>
        <time>2003-04-19T15:42:12Z</time>
      </trkpt>
      <trkpt lat="33.870147038251162" lon="-3.184091979637742">
        <ele>1268.4000000000001</ele>
        <time>2003-04-19T15:42:16Z</time>
      </trkpt>
      <trkpt lat="33.8700379896909" lon="-3.184267999604344">
        <ele>1266.5</ele>
        <time>2003-04-19T15:42:19Z</time>
      </trkpt>
      <trkpt lat="33.86997202411294" lon="-3.184400014579296">
        <ele>1265.0999999999999</ele>
        <time>2003-04-19T15:42:22Z</time>
      </trkpt>
      <trkpt lat="33.869902035221457" lon="-3.184679970145226">
        <ele>1263.5</ele>
        <time>2003-04-19T15:42:26Z</time>
      </trkpt>
      <trkpt lat="33.869936987757683" lon="-3.184835035353899">
        <ele>1262.5</ele>
        <time>2003-04-19T15:42:27Z</time>
      </trkpt>
      <trkpt lat="33.86997302994132" lon="-3.185078026726842">
        <ele>1262.3</ele>
        <time>2003-04-19T15:42:31Z</time>
      </trkpt>
      <trkpt lat="33.86995199136436" lon="-3.185201995074749">
        <ele>1262</ele>
        <time>2003-04-19T15:42:32Z</time>
      </trkpt>
      <trkpt lat="33.869943022727966" lon="-3.185335015878081">
        <ele>1261.5999999999999</ele>
        <time>2003-04-19T15:42:35Z</time>
      </trkpt>
      <trkpt lat="33.870203029364347" lon="-3.185190008953214">
        <ele>1258.9000000000001</ele>
        <time>2003-04-19T15:48:18Z</time>
      </trkpt>
      <trkpt lat="33.87027301825583" lon="-3.185099987313151">
        <ele>1258.3</ele>
        <time>2003-04-19T15:48:22Z</time>
      </trkpt>
      <trkpt lat="33.870322974398732" lon="-3.184990016743541">
        <ele>1258.4000000000001</ele>
        <time>2003-04-19T15:48:26Z</time>
      </trkpt>
      <trkpt lat="33.870364967733622" lon="-3.184815002605319">
        <ele>1257.4000000000001</ele>
        <time>2003-04-19T15:48:30Z</time>
      </trkpt>
      <trkpt lat="33.870421964675188" lon="-3.184636970981956">
        <ele>1255.5999999999999</ele>
        <time>2003-04-19T15:48:34Z</time>
      </trkpt>
      <trkpt lat="33.870496982708573" lon="-3.184511996805668">
        <ele>1255</ele>
        <time>2003-04-19T15:48:37Z</time>
      </trkpt>
      <trkpt lat="33.870567977428436" lon="-3.184422980993986">
        <ele>1253.4000000000001</ele>
        <time>2003-04-19T15:48:38Z</time>
      </trkpt>
      <trkpt lat="33.870690017938614" lon="-3.184327008202672">
        <ele>1251.4000000000001</ele>
        <time>2003-04-19T15:48:41Z</time>
      </trkpt>
      <trkpt lat="33.871018001809716" lon="-3.184125004336238">
        <ele>1249.2</ele>
        <time>2003-04-19T15:48:45Z</time>
      </trkpt>
      <trkpt lat="33.871229980140924" lon="-3.184013022109866">
        <ele>1246.9000000000001</ele>
        <time>2003-04-19T15:48:49Z</time>
      </trkpt>
      <trkpt lat="33.871465008705854" lon="-3.183861980214715">
        <ele>1245.5</ele>
        <time>2003-04-19T15:48:53Z</time>
      </trkpt>
      <trkpt lat="33.871613033115864" lon="-3.183771958574653">
        <ele>1243.7</ele>
        <time>2003-04-19T15:48:56Z</time>
      </trkpt>
      <trkpt lat="33.871706994250417" lon="-3.183832978829742">
        <ele>1243</ele>
        <time>2003-04-19T15:48:57Z</time>
      </trkpt>
      <trkpt lat="33.871723003685474" lon="-3.183961976319552">
        <ele>1242.5</ele>
        <time>2003-04-19T15:49:00Z</time>
      </trkpt>
      <trkpt lat="33.87154296040535" lon="-3.18402299657464">
        <ele>1241.2</ele>
        <time>2003-04-19T15:49:04Z</time>
      </trkpt>
      <trkpt lat="33.871431984007359" lon="-3.184068007394671">
        <ele>1239.5999999999999</ele>
        <time>2003-04-19T15:49:05Z</time>
      </trkpt>
      <trkpt lat="33.871335005387664" lon="-3.184158029034734">
        <ele>1238.9000000000001</ele>
        <time>2003-04-19T15:49:08Z</time>
      </trkpt>
      <trkpt lat="33.871257975697517" lon="-3.184292977675796">
        <ele>1237.9000000000001</ele>
        <time>2003-04-19T15:49:09Z</time>
      </trkpt>
      <trkpt lat="33.87111296877265" lon="-3.184582991525531">
        <ele>1235.8</ele>
        <time>2003-04-19T15:49:13Z</time>
      </trkpt>
      <trkpt lat="33.871105005964637" lon="-3.184743002057076">
        <ele>1235.0999999999999</ele>
        <time>2003-04-19T15:49:16Z</time>
      </trkpt>
      <trkpt lat="33.871107017621398" lon="-3.18486001342535">
        <ele>1234.3</ele>
        <time>2003-04-19T15:49:19Z</time>
      </trkpt>
      <trkpt lat="33.87113300152123" lon="-3.185237031430006">
        <ele>1234</ele>
        <time>2003-04-19T15:49:27Z</time>
      </trkpt>
      <trkpt lat="33.871227968484163" lon="-3.185429982841015">
        <ele>1233.4000000000001</ele>
        <time>2003-04-19T15:49:30Z</time>
      </trkpt>
      <trkpt lat="33.871312038972974" lon="-3.185662999749184">
        <ele>1231.4000000000001</ele>
        <time>2003-04-19T15:49:32Z</time>
      </trkpt>
      <trkpt lat="33.871312038972974" lon="-3.185842959210277">
        <ele>1230.3</ele>
        <time>2003-04-19T15:49:35Z</time>
      </trkpt>
      <trkpt lat="33.871253030374646" lon="-3.185992995277047">
        <ele>1229.0999999999999</ele>
        <time>2003-04-19T15:49:36Z</time>
      </trkpt>
      <trkpt lat="33.871146999299526" lon="-3.186092991381884">
        <ele>1227.3</ele>
        <time>2003-04-19T15:49:39Z</time>
      </trkpt>
      <trkpt lat="33.870972990989685" lon="-3.186288038268685">
        <ele>1225.5999999999999</ele>
        <time>2003-04-19T15:49:42Z</time>
      </trkpt>
      <trkpt lat="33.870823038741946" lon="-3.186464980244637">
        <ele>1223.8</ele>
        <time>2003-04-19T15:49:44Z</time>
      </trkpt>
      <trkpt lat="33.870681971311569" lon="-3.186509991064668">
        <ele>1222.4000000000001</ele>
        <time>2003-04-19T15:49:47Z</time>
      </trkpt>
      <trkpt lat="33.870512992143631" lon="-3.186517031863332">
        <ele>1221.2</ele>
        <time>2003-04-19T15:49:48Z</time>
      </trkpt>
      <trkpt lat="33.870136979967356" lon="-3.186533041298389">
        <ele>1219.3</ele>
        <time>2003-04-19T15:49:54Z</time>
      </trkpt>
      <trkpt lat="33.870067996904254" lon="-3.186658015474677">
        <ele>1218</ele>
        <time>2003-04-19T15:49:55Z</time>
      </trkpt>
      <trkpt lat="33.870103033259511" lon="-3.18683696910739">
        <ele>1217.5</ele>
        <time>2003-04-19T15:49:58Z</time>
      </trkpt>
      <trkpt lat="33.870152989402413" lon="-3.187041990458965">
        <ele>1216.2</ele>
        <time>2003-04-19T15:49:59Z</time>
      </trkpt>
      <trkpt lat="33.870215015485883" lon="-3.187463013455272">
        <ele>1214.2</ele>
        <time>2003-04-19T15:50:03Z</time>
      </trkpt>
      <trkpt lat="33.87016799300909" lon="-3.1876549590379">
        <ele>1212.7</ele>
        <time>2003-04-19T15:50:06Z</time>
      </trkpt>
      <trkpt lat="33.870079983025789" lon="-3.187884958460927">
        <ele>1211.0999999999999</ele>
        <time>2003-04-19T15:50:07Z</time>
      </trkpt>
      <trkpt lat="33.870032038539648" lon="-3.188119987025857">
        <ele>1209.7</ele>
        <time>2003-04-19T15:50:10Z</time>
      </trkpt>
      <trkpt lat="33.870019968599081" lon="-3.188457023352385">
        <ele>1207.3</ele>
        <time>2003-04-19T15:50:13Z</time>
      </trkpt>
      <trkpt lat="33.870064979419112" lon="-3.188660033047199">
        <ele>1206.5</ele>
        <time>2003-04-19T15:50:14Z</time>
      </trkpt>
      <trkpt lat="33.870143014937639" lon="-3.188821971416473">
        <ele>1205.4000000000001</ele>
        <time>2003-04-19T15:50:17Z</time>
      </trkpt>
      <trkpt lat="33.870249968022108" lon="-3.18894300609827">
        <ele>1204.5999999999999</ele>
        <time>2003-04-19T15:50:18Z</time>
      </trkpt>
      <trkpt lat="33.87033998966217" lon="-3.189064962789416">
        <ele>1203.5999999999999</ele>
        <time>2003-04-19T15:50:21Z</time>
      </trkpt>
      <trkpt lat="33.870377959683537" lon="-3.189224973320961">
        <ele>1202.8</ele>
        <time>2003-04-19T15:50:22Z</time>
      </trkpt>
      <trkpt lat="33.870337978005409" lon="-3.189388001337647">
        <ele>1201.5</ele>
        <time>2003-04-19T15:50:25Z</time>
      </trkpt>
      <trkpt lat="33.870251979678869" lon="-3.189537031576037">
        <ele>1200.3</ele>
        <time>2003-04-19T15:50:26Z</time>
      </trkpt>
      <trkpt lat="33.870142009109259" lon="-3.189639961346984">
        <ele>1199.5999999999999</ele>
        <time>2003-04-19T15:50:29Z</time>
      </trkpt>
      <trkpt lat="33.870077971369028" lon="-3.189767030999064">
        <ele>1198.4000000000001</ele>
        <time>2003-04-19T15:50:30Z</time>
      </trkpt>
      <trkpt lat="33.870142009109259" lon="-3.189904997125268">
        <ele>1198.3</ele>
        <time>2003-04-19T15:50:33Z</time>
      </trkpt>
      <trkpt lat="33.870239993557334" lon="-3.190044974908233">
        <ele>1196.2</ele>
        <time>2003-04-19T15:50:34Z</time>
      </trkpt>
      <trkpt lat="33.870387012138963" lon="-3.190108006820083">
        <ele>1195.7</ele>
        <time>2003-04-19T15:50:37Z</time>
      </trkpt>
      <trkpt lat="33.870537970215082" lon="-3.190089985728264">
        <ele>1195</ele>
        <time>2003-04-19T15:50:38Z</time>
      </trkpt>
      <trkpt lat="33.870933009311557" lon="-3.189989989623427">
        <ele>1193.8</ele>
        <time>2003-04-19T15:50:45Z</time>
      </trkpt>
      <trkpt lat="33.871123027056456" lon="-3.189970040693879">
        <ele>1192.9000000000001</ele>
        <time>2003-04-19T15:50:49Z</time>
      </trkpt>
      <trkpt lat="33.871244983747602" lon="-3.18999501876533">
        <ele>1192.2</ele>
        <time>2003-04-19T15:50:51Z</time>
      </trkpt>
      <trkpt lat="33.87134799733758" lon="-3.190072970464826">
        <ele>1191.4000000000001</ele>
        <time>2003-04-19T15:50:52Z</time>
      </trkpt>
      <trkpt lat="33.871422009542584" lon="-3.190192999318242">
        <ele>1190.7</ele>
        <time>2003-04-19T15:50:55Z</time>
      </trkpt>
      <trkpt lat="33.871471965685487" lon="-3.190337000414729">
        <ele>1189.7</ele>
        <time>2003-04-19T15:50:56Z</time>
      </trkpt>
      <trkpt lat="33.871528040617704" lon="-3.190546967089176">
        <ele>1188.5</ele>
        <time>2003-04-19T15:51:00Z</time>
      </trkpt>
      <trkpt lat="33.871727026998997" lon="-3.191614989191294">
        <ele>1180.5</ele>
        <time>2003-04-19T15:51:14Z</time>
      </trkpt>
      <trkpt lat="33.871640022844076" lon="-3.191712973639369">
        <ele>1179.3</ele>
        <time>2003-04-19T15:51:16Z</time>
      </trkpt>
      <trkpt lat="33.871522005647421" lon="-3.191707022488117">
        <ele>1178.2</ele>
        <time>2003-04-19T15:51:18Z</time>
      </trkpt>
      <trkpt lat="33.871265016496181" lon="-3.191635021939874">
        <ele>1176.5999999999999</ele>
        <time>2003-04-19T15:51:22Z</time>
      </trkpt>
      <trkpt lat="33.871052032336593" lon="-3.191662011668086">
        <ele>1174</ele>
        <time>2003-04-19T15:51:26Z</time>
      </trkpt>
      <trkpt lat="33.870967039838433" lon="-3.191793020814657">
        <ele>1173.8</ele>
        <time>2003-04-19T15:51:27Z</time>
      </trkpt>
      <trkpt lat="33.870952958241105" lon="-3.191983038559556">
        <ele>1173.0999999999999</ele>
        <time>2003-04-19T15:51:30Z</time>
      </trkpt>
      <trkpt lat="33.870986988767982" lon="-3.192184958606958">
        <ele>1171.3</ele>
        <time>2003-04-19T15:51:31Z</time>
      </trkpt>
      <trkpt lat="33.871062006801367" lon="-3.19235703907907">
        <ele>1170</ele>
        <time>2003-04-19T15:51:34Z</time>
      </trkpt>
      <trkpt lat="33.871120009571314" lon="-3.192546973004937">
        <ele>1169</ele>
        <time>2003-04-19T15:51:35Z</time>
      </trkpt>
      <trkpt lat="33.871162002906203" lon="-3.19283296354115">
        <ele>1167.4000000000001</ele>
        <time>2003-04-19T15:51:39Z</time>
      </trkpt>
      <trkpt lat="33.871163008734584" lon="-3.19300202652812">
        <ele>1166.4000000000001</ele>
        <time>2003-04-19T15:51:41Z</time>
      </trkpt>
      <trkpt lat="33.871154962107539" lon="-3.193390024825931">
        <ele>1164.2</ele>
        <time>2003-04-19T15:51:46Z</time>
      </trkpt>
      <trkpt lat="33.871108023449779" lon="-3.193536959588528">
        <ele>1163</ele>
        <time>2003-04-19T15:51:47Z</time>
      </trkpt>
      <trkpt lat="33.870802000164986" lon="-3.194395015016198">
        <ele>1157.4000000000001</ele>
        <time>2003-04-19T15:51:59Z</time>
      </trkpt>
      <trkpt lat="33.870805017650127" lon="-3.194555025547743">
        <ele>1156.5999999999999</ele>
        <time>2003-04-19T15:52:02Z</time>
      </trkpt>
      <trkpt lat="33.870826978236437" lon="-3.194698020815849">
        <ele>1156.0999999999999</ele>
        <time>2003-04-19T15:52:03Z</time>
      </trkpt>
      <trkpt lat="33.870877018198371" lon="-3.194876974448562">
        <ele>1155.3</ele>
        <time>2003-04-19T15:52:06Z</time>
      </trkpt>
      <trkpt lat="33.870969973504543" lon="-3.194964984431863">
        <ele>1155.5999999999999</ele>
        <time>2003-04-19T15:52:09Z</time>
      </trkpt>
      <trkpt lat="33.871114980429411" lon="-3.194951992481947">
        <ele>1155.5999999999999</ele>
        <time>2003-04-19T15:52:10Z</time>
      </trkpt>
      <trkpt lat="33.871482023969293" lon="-3.194794999435544">
        <ele>1153.5999999999999</ele>
        <time>2003-04-19T15:52:16Z</time>
      </trkpt>
      <trkpt lat="33.87167003005743" lon="-3.1947420258075">
        <ele>1151.5</ele>
        <time>2003-04-19T15:52:17Z</time>
      </trkpt>
      <trkpt lat="33.872055010870099" lon="-3.194677988067269">
        <ele>1148.0999999999999</ele>
        <time>2003-04-19T15:52:21Z</time>
      </trkpt>
      <trkpt lat="33.872221978381276" lon="-3.194762980565429">
        <ele>1146</ele>
        <time>2003-04-19T15:52:24Z</time>
      </trkpt>
      <trkpt lat="33.872292973101139" lon="-3.194837998598814">
        <ele>1145.4000000000001</ele>
        <time>2003-04-19T15:52:25Z</time>
      </trkpt>
      <trkpt lat="33.872362039983273" lon="-3.194937994703651">
        <ele>1144.3</ele>
        <time>2003-04-19T15:52:25Z</time>
      </trkpt>
      <trkpt lat="33.872417025268078" lon="-3.195064980536699">
        <ele>1142.9000000000001</ele>
        <time>2003-04-19T15:52:26Z</time>
      </trkpt>
      <trkpt lat="33.872621962800622" lon="-3.195635033771396">
        <ele>1137.2</ele>
        <time>2003-04-19T15:52:30Z</time>
      </trkpt>
      <trkpt lat="33.872778033837676" lon="-3.195892022922635">
        <ele>1134.9000000000001</ele>
        <time>2003-04-19T15:52:33Z</time>
      </trkpt>
      <trkpt lat="33.873397959396243" lon="-3.196825012564659">
        <ele>1124.8</ele>
        <time>2003-04-19T15:52:40Z</time>
      </trkpt>
      <trkpt lat="33.873427966609597" lon="-3.196959961205721">
        <ele>1123.7</ele>
        <time>2003-04-19T15:52:41Z</time>
      </trkpt>
      <trkpt lat="33.873441964387894" lon="-3.197103040292859">
        <ele>1122.2</ele>
        <time>2003-04-19T15:52:43Z</time>
      </trkpt>
      <trkpt lat="33.873565010726452" lon="-3.198295030742884">
        <ele>1113.2</ele>
        <time>2003-04-19T15:52:51Z</time>
      </trkpt>
      <trkpt lat="33.873576996847987" lon="-3.198563000187278">
        <ele>1111</ele>
        <time>2003-04-19T15:52:52Z</time>
      </trkpt>
      <trkpt lat="33.873608009889722" lon="-3.199059963226318">
        <ele>1106.5999999999999</ele>
        <time>2003-04-19T15:52:56Z</time>
      </trkpt>
      <trkpt lat="33.873642040416598" lon="-3.199177980422974">
        <ele>1105.8</ele>
        <time>2003-04-19T15:52:57Z</time>
      </trkpt>
      <trkpt lat="33.873698031529784" lon="-3.199270013719797">
        <ele>1105.0999999999999</ele>
        <time>2003-04-19T15:52:59Z</time>
      </trkpt>
      <trkpt lat="33.873867010697722" lon="-3.199330028146505">
        <ele>1103.5</ele>
        <time>2003-04-19T15:53:00Z</time>
      </trkpt>
      <trkpt lat="33.873957032337785" lon="-3.199312007054687">
        <ele>1103.0999999999999</ele>
        <time>2003-04-19T15:53:02Z</time>
      </trkpt>
      <trkpt lat="33.874087035655975" lon="-3.199194995686412">
        <ele>1102.2</ele>
        <time>2003-04-19T15:53:04Z</time>
      </trkpt>
      <trkpt lat="33.874130034819245" lon="-3.199007995426655">
        <ele>1101.2</ele>
        <time>2003-04-19T15:53:06Z</time>
      </trkpt>
      <trkpt lat="33.874131962656975" lon="-3.19876198656857">
        <ele>1099.9000000000001</ele>
        <time>2003-04-19T15:53:07Z</time>
      </trkpt>
      <trkpt lat="33.874122994020581" lon="-3.198341969400644">
        <ele>1098.8</ele>
        <time>2003-04-19T15:53:11Z</time>
      </trkpt>
      <trkpt lat="33.874155012890697" lon="-3.197954976931214">
        <ele>1095.5</ele>
        <time>2003-04-19T15:53:14Z</time>
      </trkpt>
      <trkpt lat="33.87420698069036" lon="-3.197865039110184">
        <ele>1094.8</ele>
        <time>2003-04-19T15:53:15Z</time>
      </trkpt>
      <trkpt lat="33.874377971515059" lon="-3.197787003591657">
        <ele>1093.3</ele>
        <time>2003-04-19T15:53:16Z</time>
      </trkpt>
      <trkpt lat="33.874479979276657" lon="-3.197809970006347">
        <ele>1092.3</ele>
        <time>2003-04-19T15:53:18Z</time>
      </trkpt>
      <trkpt lat="33.874573018401861" lon="-3.197877025231719">
        <ele>1091.3</ele>
        <time>2003-04-19T15:53:19Z</time>
      </trkpt>
      <trkpt lat="33.874634960666299" lon="-3.197980038821697">
        <ele>1090.8</ele>
        <time>2003-04-19T15:53:19Z</time>
      </trkpt>
      <trkpt lat="33.874667985364795" lon="-3.198103001341224">
        <ele>1090.0999999999999</ele>
        <time>2003-04-19T15:53:20Z</time>
      </trkpt>
      <trkpt lat="33.874718025326729" lon="-3.198387986049056">
        <ele>1088.3</ele>
        <time>2003-04-19T15:53:23Z</time>
      </trkpt>
      <trkpt lat="33.874815003946424" lon="-3.199303038418293">
        <ele>1079.3</ele>
        <time>2003-04-19T15:53:29Z</time>
      </trkpt>
      <trkpt lat="33.874778039753437" lon="-3.199607972055674">
        <ele>1075.9000000000001</ele>
        <time>2003-04-19T15:53:31Z</time>
      </trkpt>
      <trkpt lat="33.874687012284994" lon="-3.200354967266321">
        <ele>1068.9000000000001</ele>
        <time>2003-04-19T15:53:35Z</time>
      </trkpt>
      <trkpt lat="33.874735040590167" lon="-3.200822006911039">
        <ele>1064.5999999999999</ele>
        <time>2003-04-19T15:53:38Z</time>
      </trkpt>
      <trkpt lat="33.874809974804521" lon="-3.201077990233898">
        <ele>1062.7</ele>
        <time>2003-04-19T15:53:41Z</time>
      </trkpt>
      <trkpt lat="33.874867977574468" lon="-3.2012730371207">
        <ele>1060.8</ele>
        <time>2003-04-19T15:53:42Z</time>
      </trkpt>
      <trkpt lat="33.874877030029893" lon="-3.201434975489974">
        <ele>1059.3</ele>
        <time>2003-04-19T15:53:45Z</time>
      </trkpt>
      <trkpt lat="33.874797988682985" lon="-3.201606972143054">
        <ele>1057.5999999999999</ele>
        <time>2003-04-19T15:53:46Z</time>
      </trkpt>
      <trkpt lat="33.874718025326729" lon="-3.201688025146723">
        <ele>1056.5999999999999</ele>
        <time>2003-04-19T15:53:47Z</time>
      </trkpt>
      <trkpt lat="33.874522978439927" lon="-3.201862033456564">
        <ele>1054.5999999999999</ele>
        <time>2003-04-19T15:53:50Z</time>
      </trkpt>
      <trkpt lat="33.873789981007576" lon="-3.202633000910282">
        <ele>1045</ele>
        <time>2003-04-19T15:53:58Z</time>
      </trkpt>
      <trkpt lat="33.873683027923107" lon="-3.202825030311942">
        <ele>1042.5999999999999</ele>
        <time>2003-04-19T15:54:00Z</time>
      </trkpt>
      <trkpt lat="33.873644974082708" lon="-3.202989986166358">
        <ele>1041.5999999999999</ele>
        <time>2003-04-19T15:54:01Z</time>
      </trkpt>
      <trkpt lat="33.873714962974191" lon="-3.203146979212761">
        <ele>1040.0999999999999</ele>
        <time>2003-04-19T15:54:04Z</time>
      </trkpt>
      <trkpt lat="33.873801967129111" lon="-3.203198025003076">
        <ele>1039.0999999999999</ele>
        <time>2003-04-19T15:54:05Z</time>
      </trkpt>
      <trkpt lat="33.874002965167165" lon="-3.203313024714589">
        <ele>1037.2</ele>
        <time>2003-04-19T15:54:06Z</time>
      </trkpt>
      <trkpt lat="33.874777033925056" lon="-3.203819962218404">
        <ele>1029.4000000000001</ele>
        <time>2003-04-19T15:54:14Z</time>
      </trkpt>
      <trkpt lat="33.874847022816539" lon="-3.203911995515227">
        <ele>1028.3</ele>
        <time>2003-04-19T15:54:16Z</time>
      </trkpt>
      <trkpt lat="33.874973002821207" lon="-3.204127997159958">
        <ele>1025.7</ele>
        <time>2003-04-19T15:54:17Z</time>
      </trkpt>
      <trkpt lat="33.875487986952066" lon="-3.205146985128522">
        <ele>1015.6</ele>
        <time>2003-04-19T15:54:27Z</time>
      </trkpt>
      <trkpt lat="33.875953014940023" lon="-3.206094978377223">
        <ele>1007.2</ele>
        <time>2003-04-19T15:54:35Z</time>
      </trkpt>
      <trkpt lat="33.876068014651537" lon="-3.206337969750166">
        <ele>1005.1</ele>
        <time>2003-04-19T15:54:37Z</time>
      </trkpt>
      <trkpt lat="33.876115037128329" lon="-3.206432014703751">
        <ele>1004.2</ele>
        <time>2003-04-19T15:54:40Z</time>
      </trkpt>
      <trkpt lat="33.876195000484586" lon="-3.206541985273361">
        <ele>1002.8</ele>
        <time>2003-04-19T15:54:44Z</time>
      </trkpt>
      <trkpt lat="33.876276975497603" lon="-3.206617003306747">
        <ele>1001.6</ele>
        <time>2003-04-19T15:54:44Z</time>
      </trkpt>
      <trkpt lat="33.876387029886246" lon="-3.206654973328114">
        <ele>1000.4</ele>
        <time>2003-04-19T15:54:47Z</time>
      </trkpt>
      <trkpt lat="33.876534970477223" lon="-3.206693027168512">
        <ele>998.70000000000005</ele>
        <time>2003-04-19T15:54:48Z</time>
      </trkpt>
      <trkpt lat="33.87672197073698" lon="-3.206750024110079">
        <ele>996.60000000000002</ele>
        <time>2003-04-19T15:54:51Z</time>
      </trkpt>
      <trkpt lat="33.877045009285212" lon="-3.206837028264999">
        <ele>992.79999999999995</ele>
        <time>2003-04-19T15:54:54Z</time>
      </trkpt>
      <trkpt lat="33.877439964562654" lon="-3.206959990784526">
        <ele>987.39999999999998</ele>
        <time>2003-04-19T15:54:56Z</time>
      </trkpt>
      <trkpt lat="33.878436991944909" lon="-3.207367016002536">
        <ele>974.79999999999995</ele>
        <time>2003-04-19T15:55:03Z</time>
      </trkpt>
      <trkpt lat="33.879333017393947" lon="-3.207764988765121">
        <ele>964.70000000000005</ele>
        <time>2003-04-19T15:55:10Z</time>
      </trkpt>
      <trkpt lat="33.880214961245656" lon="-3.208151981234551">
        <ele>955.60000000000002</ele>
        <time>2003-04-19T15:55:15Z</time>
      </trkpt>
      <trkpt lat="33.880579993128777" lon="-3.208333030343056">
        <ele>953.20000000000005</ele>
        <time>2003-04-19T15:55:19Z</time>
      </trkpt>
      <trkpt lat="33.880668003112078" lon="-3.208406958729029">
        <ele>952.5</ele>
        <time>2003-04-19T15:55:21Z</time>
      </trkpt>
      <trkpt lat="33.880740003660321" lon="-3.208503015339375">
        <ele>951.89999999999998</ele>
        <time>2003-04-19T15:55:21Z</time>
      </trkpt>
      <trkpt lat="33.880797000601888" lon="-3.208617009222508">
        <ele>951.60000000000002</ele>
        <time>2003-04-19T15:55:22Z</time>
      </trkpt>
      <trkpt lat="33.880892973393202" lon="-3.208896964788437">
        <ele>951.29999999999995</ele>
        <time>2003-04-19T15:55:23Z</time>
      </trkpt>
      <trkpt lat="33.881278038024902" lon="-3.21004000492394">
        <ele>946.79999999999995</ele>
        <time>2003-04-19T15:55:31Z</time>
      </trkpt>
      <trkpt lat="33.881623037159443" lon="-3.210952961817384">
        <ele>942.10000000000002</ele>
        <time>2003-04-19T15:55:38Z</time>
      </trkpt>
      <trkpt lat="33.881708029657602" lon="-3.211082965135574">
        <ele>941.20000000000005</ele>
        <time>2003-04-19T15:55:38Z</time>
      </trkpt>
      <trkpt lat="33.881911961361766" lon="-3.211314976215363">
        <ele>939.20000000000005</ele>
        <time>2003-04-19T15:55:41Z</time>
      </trkpt>
      <trkpt lat="33.88273699209094" lon="-3.212055014446378">
        <ele>931.79999999999995</ele>
        <time>2003-04-19T15:55:48Z</time>
      </trkpt>
      <trkpt lat="33.883479963988066" lon="-3.212712993845344">
        <ele>926</ele>
        <time>2003-04-19T15:55:54Z</time>
      </trkpt>
      <trkpt lat="33.884274987503886" lon="-3.213437022641301">
        <ele>920.10000000000002</ele>
        <time>2003-04-19T15:56:01Z</time>
      </trkpt>
      <trkpt lat="33.885089959949255" lon="-3.214158033952117">
        <ele>914</ele>
        <time>2003-04-19T15:56:05Z</time>
      </trkpt>
      <trkpt lat="33.885890012606978" lon="-3.214882984757423">
        <ele>907.79999999999995</ele>
        <time>2003-04-19T15:56:12Z</time>
      </trkpt>
      <trkpt lat="33.88671001419425" lon="-3.215608019381762">
        <ele>903</ele>
        <time>2003-04-19T15:56:17Z</time>
      </trkpt>
      <trkpt lat="33.887505037710071" lon="-3.216325007379055">
        <ele>898.29999999999995</ele>
        <time>2003-04-19T15:56:24Z</time>
      </trkpt>
      <trkpt lat="33.888250021263957" lon="-3.217027997598052">
        <ele>893.39999999999998</ele>
        <time>2003-04-19T15:56:31Z</time>
      </trkpt>
      <trkpt lat="33.889049990102649" lon="-3.217744985595346">
        <ele>889.39999999999998</ele>
        <time>2003-04-19T15:56:36Z</time>
      </trkpt>
      <trkpt lat="33.889790028333664" lon="-3.218427021056414">
        <ele>885.5</ele>
        <time>2003-04-19T15:56:42Z</time>
      </trkpt>
      <trkpt lat="33.890542974695563" lon="-3.21910796687007">
        <ele>881.5</ele>
        <time>2003-04-19T15:56:47Z</time>
      </trkpt>
      <trkpt lat="33.891282007098198" lon="-3.219786984845996">
        <ele>878.79999999999995</ele>
        <time>2003-04-19T15:56:51Z</time>
      </trkpt>
      <trkpt lat="33.892107037827373" lon="-3.220564993098378">
        <ele>874.5</ele>
        <time>2003-04-19T15:56:58Z</time>
      </trkpt>
      <trkpt lat="33.892938019707799" lon="-3.22132003493607">
        <ele>871</ele>
        <time>2003-04-19T15:57:03Z</time>
      </trkpt>
      <trkpt lat="33.89369297772646" lon="-3.222022019326687">
        <ele>868.5</ele>
        <time>2003-04-19T15:57:09Z</time>
      </trkpt>
      <trkpt lat="33.894460005685687" lon="-3.222719980403781">
        <ele>865.5</ele>
        <time>2003-04-19T15:57:14Z</time>
      </trkpt>
      <trkpt lat="33.895204989239573" lon="-3.223392041400075">
        <ele>863.5</ele>
        <time>2003-04-19T15:57:18Z</time>
      </trkpt>
      <trkpt lat="33.895964976400137" lon="-3.224082961678505">
        <ele>860.10000000000002</ele>
        <time>2003-04-19T15:57:23Z</time>
      </trkpt>
      <trkpt lat="33.896757988259196" lon="-3.224807996302843">
        <ele>857.29999999999995</ele>
        <time>2003-04-19T15:57:29Z</time>
      </trkpt>
      <trkpt lat="33.897589975968003" lon="-3.225566977635026">
        <ele>854.20000000000005</ele>
        <time>2003-04-19T15:57:34Z</time>
      </trkpt>
      <trkpt lat="33.89844199642539" lon="-3.226344985887408">
        <ele>850.5</ele>
        <time>2003-04-19T15:57:38Z</time>
      </trkpt>
      <trkpt lat="33.89927800744772" lon="-3.227116959169507">
        <ele>847.39999999999998</ele>
        <time>2003-04-19T15:57:44Z</time>
      </trkpt>
      <trkpt lat="33.900072025135159" lon="-3.22783000767231">
        <ele>844.20000000000005</ele>
        <time>2003-04-19T15:57:49Z</time>
      </trkpt>
      <trkpt lat="33.900809967890382" lon="-3.228499973192811">
        <ele>841.10000000000002</ele>
        <time>2003-04-19T15:57:53Z</time>
      </trkpt>
      <trkpt lat="33.901286981999874" lon="-3.228970030322671">
        <ele>840</ele>
        <time>2003-04-19T15:57:57Z</time>
      </trkpt>
      <trkpt lat="33.901570038869977" lon="-3.229387030005455">
        <ele>839.70000000000005</ele>
        <time>2003-04-19T15:58:01Z</time>
      </trkpt>
      <trkpt lat="33.901808001101017" lon="-3.229903019964695">
        <ele>839.5</ele>
        <time>2003-04-19T15:58:04Z</time>
      </trkpt>
      <trkpt lat="33.902230029925704" lon="-3.231037007644773">
        <ele>839.39999999999998</ele>
        <time>2003-04-19T15:58:09Z</time>
      </trkpt>
      <trkpt lat="33.902645017951727" lon="-3.232124978676438">
        <ele>838</ele>
        <time>2003-04-19T15:58:16Z</time>
      </trkpt>
      <trkpt lat="33.903065035119653" lon="-3.233210016041994">
        <ele>834.29999999999995</ele>
        <time>2003-04-19T15:58:21Z</time>
      </trkpt>
      <trkpt lat="33.903511958196759" lon="-3.234375016763806">
        <ele>831.20000000000005</ele>
        <time>2003-04-19T15:58:28Z</time>
      </trkpt>
      <trkpt lat="33.903952008113265" lon="-3.235529959201813">
        <ele>827.5</ele>
        <time>2003-04-19T15:58:34Z</time>
      </trkpt>
      <trkpt lat="33.904381999745965" lon="-3.236624971032143">
        <ele>824.79999999999995</ele>
        <time>2003-04-19T15:58:39Z</time>
      </trkpt>
      <trkpt lat="33.904811991378665" lon="-3.23767296038568">
        <ele>822.10000000000002</ele>
        <time>2003-04-19T15:58:46Z</time>
      </trkpt>
      <trkpt lat="33.904927996918559" lon="-3.237931961193681">
        <ele>821.39999999999998</ele>
        <time>2003-04-19T15:58:47Z</time>
      </trkpt>
      <trkpt lat="33.9054249599576" lon="-3.239035019651055">
        <ele>818.89999999999998</ele>
        <time>2003-04-19T15:58:55Z</time>
      </trkpt>
      <trkpt lat="33.905856963247061" lon="-3.240015031769872">
        <ele>816.5</ele>
        <time>2003-04-19T15:59:02Z</time>
      </trkpt>
      <trkpt lat="33.906285027042031" lon="-3.240960007533431">
        <ele>814.20000000000005</ele>
        <time>2003-04-19T15:59:07Z</time>
      </trkpt>
      <trkpt lat="33.906751982867718" lon="-3.242028029635549">
        <ele>811.79999999999995</ele>
        <time>2003-04-19T15:59:15Z</time>
      </trkpt>
      <trkpt lat="33.907236959785223" lon="-3.243093034252524">
        <ele>809.10000000000002</ele>
        <time>2003-04-19T15:59:22Z</time>
      </trkpt>
      <trkpt lat="33.907665023580194" lon="-3.244053013622761">
        <ele>806.70000000000005</ele>
        <time>2003-04-19T15:59:29Z</time>
      </trkpt>
      <trkpt lat="33.908153017982841" lon="-3.245154982432723">
        <ele>803.70000000000005</ele>
        <time>2003-04-19T15:59:34Z</time>
      </trkpt>
      <trkpt lat="33.908657021820545" lon="-3.24626499786973">
        <ele>800.60000000000002</ele>
        <time>2003-04-19T15:59:41Z</time>
      </trkpt>
      <trkpt lat="33.909133030101657" lon="-3.247322039678693">
        <ele>798</ele>
        <time>2003-04-19T15:59:47Z</time>
      </trkpt>
      <trkpt lat="33.909432012587786" lon="-3.247907012701035">
        <ele>796.79999999999995</ele>
        <time>2003-04-19T15:59:51Z</time>
      </trkpt>
      <trkpt lat="33.91002201475203" lon="-3.248904962092638">
        <ele>794.5</ele>
        <time>2003-04-19T15:59:57Z</time>
      </trkpt>
      <trkpt lat="33.910552002489567" lon="-3.249853039160371">
        <ele>791.79999999999995</ele>
        <time>2003-04-19T16:00:04Z</time>
      </trkpt>
      <trkpt lat="33.911118032410741" lon="-3.250827016308904">
        <ele>789.39999999999998</ele>
        <time>2003-04-19T16:00:09Z</time>
      </trkpt>
      <trkpt lat="33.911701999604702" lon="-3.251865031197667">
        <ele>787.39999999999998</ele>
        <time>2003-04-19T16:00:16Z</time>
      </trkpt>
      <trkpt lat="33.912295019254088" lon="-3.252870021387935">
        <ele>785.39999999999998</ele>
        <time>2003-04-19T16:00:22Z</time>
      </trkpt>
      <trkpt lat="33.912832969799638" lon="-3.253830000758171">
        <ele>783.39999999999998</ele>
        <time>2003-04-19T16:00:27Z</time>
      </trkpt>
      <trkpt lat="33.913412997499108" lon="-3.254844965413213">
        <ele>781.20000000000005</ele>
        <time>2003-04-19T16:00:35Z</time>
      </trkpt>
      <trkpt lat="33.913872996345162" lon="-3.255539992824197">
        <ele>779.29999999999995</ele>
        <time>2003-04-19T16:00:39Z</time>
      </trkpt>
      <trkpt lat="33.91421003267169" lon="-3.255897983908653">
        <ele>778.5</ele>
        <time>2003-04-19T16:00:43Z</time>
      </trkpt>
      <trkpt lat="33.914628038182855" lon="-3.256196966394782">
        <ele>777.79999999999995</ele>
        <time>2003-04-19T16:00:46Z</time>
      </trkpt>
      <trkpt lat="33.915082002058625" lon="-3.256414979696274">
        <ele>777.5</ele>
        <time>2003-04-19T16:00:49Z</time>
      </trkpt>
      <trkpt lat="33.915762025862932" lon="-3.256684960797429">
        <ele>777.10000000000002</ele>
        <time>2003-04-19T16:00:54Z</time>
      </trkpt>
      <trkpt lat="33.915956988930702" lon="-3.256776994094253">
        <ele>776.89999999999998</ele>
        <time>2003-04-19T16:00:55Z</time>
      </trkpt>
      <trkpt lat="33.916880004107952" lon="-3.257185025140643">
        <ele>776.29999999999995</ele>
        <time>2003-04-19T16:01:05Z</time>
      </trkpt>
      <trkpt lat="33.917613001540303" lon="-3.257506974041462">
        <ele>776</ele>
        <time>2003-04-19T16:01:10Z</time>
      </trkpt>
      <trkpt lat="33.918568035587668" lon="-3.257926991209388">
        <ele>775.29999999999995</ele>
        <time>2003-04-19T16:01:17Z</time>
      </trkpt>
      <trkpt lat="33.919543018564582" lon="-3.25836000032723">
        <ele>774.39999999999998</ele>
        <time>2003-04-19T16:01:25Z</time>
      </trkpt>
      <trkpt lat="33.920265035703778" lon="-3.258732995018363">
        <ele>773.39999999999998</ele>
        <time>2003-04-19T16:01:30Z</time>
      </trkpt>
      <trkpt lat="33.920648004859686" lon="-3.258989984169602">
        <ele>773</ele>
        <time>2003-04-19T16:01:35Z</time>
      </trkpt>
      <trkpt lat="33.920916980132461" lon="-3.259236998856068">
        <ele>772.60000000000002</ele>
        <time>2003-04-19T16:01:37Z</time>
      </trkpt>
      <trkpt lat="33.921229960396886" lon="-3.259549979120493">
        <ele>771.79999999999995</ele>
        <time>2003-04-19T16:01:40Z</time>
      </trkpt>
      <trkpt lat="33.921973016113043" lon="-3.260275013744831">
        <ele>770.39999999999998</ele>
        <time>2003-04-19T16:01:48Z</time>
      </trkpt>
      <trkpt lat="33.922680029645562" lon="-3.260967023670673">
        <ele>769.10000000000002</ele>
        <time>2003-04-19T16:01:56Z</time>
      </trkpt>
      <trkpt lat="33.923497013747692" lon="-3.261752994731069">
        <ele>767.79999999999995</ele>
        <time>2003-04-19T16:02:04Z</time>
      </trkpt>
      <trkpt lat="33.924187012016773" lon="-3.262518011033535">
        <ele>766.60000000000002</ele>
        <time>2003-04-19T16:02:11Z</time>
      </trkpt>
      <trkpt lat="33.92452203668654" lon="-3.263012040406466">
        <ele>765.89999999999998</ele>
        <time>2003-04-19T16:02:15Z</time>
      </trkpt>
      <trkpt lat="33.925044983625412" lon="-3.264006972312927">
        <ele>764.10000000000002</ele>
        <time>2003-04-19T16:02:22Z</time>
      </trkpt>
      <trkpt lat="33.925559967756271" lon="-3.26497700996697">
        <ele>761.39999999999998</ele>
        <time>2003-04-19T16:02:29Z</time>
      </trkpt>
      <trkpt lat="33.925951989367604" lon="-3.265501968562603">
        <ele>760</ele>
        <time>2003-04-19T16:02:33Z</time>
      </trkpt>
      <trkpt lat="33.926705019548535" lon="-3.266332028433681">
        <ele>758.10000000000002</ele>
        <time>2003-04-19T16:02:39Z</time>
      </trkpt>
      <trkpt lat="33.927491996437311" lon="-3.267126968130469">
        <ele>756.29999999999995</ele>
        <time>2003-04-19T16:02:46Z</time>
      </trkpt>
      <trkpt lat="33.928262963891029" lon="-3.267928026616573">
        <ele>754.60000000000002</ele>
        <time>2003-04-19T16:02:54Z</time>
      </trkpt>
      <trkpt lat="33.928954973816872" lon="-3.268662029877305">
        <ele>753</ele>
        <time>2003-04-19T16:03:00Z</time>
      </trkpt>
      <trkpt lat="33.929727030918002" lon="-3.269386980682612">
        <ele>750.79999999999995</ele>
        <time>2003-04-19T16:03:06Z</time>
      </trkpt>
      <trkpt lat="33.930051997303963" lon="-3.269589990377426">
        <ele>750.5</ele>
        <time>2003-04-19T16:03:09Z</time>
      </trkpt>
      <trkpt lat="33.930524988099933" lon="-3.269776990637183">
        <ele>749.5</ele>
        <time>2003-04-19T16:03:13Z</time>
      </trkpt>
      <trkpt lat="33.931426964700222" lon="-3.269968014210463">
        <ele>748</ele>
        <time>2003-04-19T16:03:21Z</time>
      </trkpt>
      <trkpt lat="33.93159200437367" lon="-3.269989974796772">
        <ele>747.5</ele>
        <time>2003-04-19T16:03:23Z</time>
      </trkpt>
      <trkpt lat="33.931716978549957" lon="-3.270007995888591">
        <ele>747.29999999999995</ele>
        <time>2003-04-19T16:03:25Z</time>
      </trkpt>
      <trkpt lat="33.931891992688179" lon="-3.270046971738339">
        <ele>747</ele>
        <time>2003-04-19T16:03:31Z</time>
      </trkpt>
      <trkpt lat="33.932007998228073" lon="-3.270064992830157">
        <ele>746.5</ele>
        <time>2003-04-19T16:03:35Z</time>
      </trkpt>
      <trkpt lat="33.932104976847768" lon="-3.27000699006021">
        <ele>746.29999999999995</ele>
        <time>2003-04-19T16:03:37Z</time>
      </trkpt>
      <trkpt lat="33.932136995717883" lon="-3.269886961206794">
        <ele>746.79999999999995</ele>
        <time>2003-04-19T16:03:40Z</time>
      </trkpt>
      <trkpt lat="33.932127021253109" lon="-3.269719993695617">
        <ele>747.10000000000002</ele>
        <time>2003-04-19T16:03:41Z</time>
      </trkpt>
      <trkpt lat="33.932134984061122" lon="-3.269537016749382">
        <ele>747.5</ele>
        <time>2003-04-19T16:03:44Z</time>
      </trkpt>
      <trkpt lat="33.932159962132573" lon="-3.269431991502643">
        <ele>747.70000000000005</ele>
        <time>2003-04-19T16:03:44Z</time>
      </trkpt>
      <trkpt lat="33.932204972952604" lon="-3.269337024539709">
        <ele>747.79999999999995</ele>
        <time>2003-04-19T16:03:45Z</time>
      </trkpt>
      <trkpt lat="33.932330030947924" lon="-3.26921003870666">
        <ele>748</ele>
        <time>2003-04-19T16:03:48Z</time>
      </trkpt>
      <trkpt lat="33.932418040931225" lon="-3.269159998744726">
        <ele>748.10000000000002</ele>
        <time>2003-04-19T16:03:48Z</time>
      </trkpt>
      <trkpt lat="33.932724986225367" lon="-3.268999988213182">
        <ele>748.60000000000002</ele>
        <time>2003-04-19T16:03:52Z</time>
      </trkpt>
      <trkpt lat="33.933399980887771" lon="-3.268632022663951">
        <ele>747.70000000000005</ele>
        <time>2003-04-19T16:03:59Z</time>
      </trkpt>
      <trkpt lat="33.933535013347864" lon="-3.268562033772469">
        <ele>747.79999999999995</ele>
        <time>2003-04-19T16:04:00Z</time>
      </trkpt>
      <trkpt lat="33.933646995574236" lon="-3.268482992425561">
        <ele>747.89999999999998</ele>
        <time>2003-04-19T16:04:03Z</time>
      </trkpt>
      <trkpt lat="33.933787979185581" lon="-3.268419960513711">
        <ele>748.10000000000002</ele>
        <time>2003-04-19T16:04:04Z</time>
      </trkpt>
      <trkpt lat="33.933932986110449" lon="-3.268360029906035">
        <ele>748.10000000000002</ele>
        <time>2003-04-19T16:04:07Z</time>
      </trkpt>
      <trkpt lat="33.934076987206936" lon="-3.268240001052618">
        <ele>748.10000000000002</ele>
        <time>2003-04-19T16:04:08Z</time>
      </trkpt>
      <trkpt lat="33.934164997190237" lon="-3.268218040466309">
        <ele>748.20000000000005</ele>
        <time>2003-04-19T16:04:10Z</time>
      </trkpt>
      <trkpt lat="33.934358032420278" lon="-3.268146961927414">
        <ele>748</ele>
        <time>2003-04-19T16:04:11Z</time>
      </trkpt>
      <trkpt lat="33.934787018224597" lon="-3.26792299747467">
        <ele>748.29999999999995</ele>
        <time>2003-04-19T16:04:15Z</time>
      </trkpt>
      <trkpt lat="33.935638032853603" lon="-3.26747196726501">
        <ele>747.29999999999995</ele>
        <time>2003-04-19T16:04:22Z</time>
      </trkpt>
      <trkpt lat="33.936476977542043" lon="-3.267012974247336">
        <ele>747.10000000000002</ele>
        <time>2003-04-19T16:04:30Z</time>
      </trkpt>
      <trkpt lat="33.936606980860233" lon="-3.266965029761195">
        <ele>747.29999999999995</ele>
        <time>2003-04-19T16:04:30Z</time>
      </trkpt>
      <trkpt lat="33.937015011906624" lon="-3.266769982874394">
        <ele>746.5</ele>
        <time>2003-04-19T16:04:34Z</time>
      </trkpt>
      <trkpt lat="33.937859991565347" lon="-3.266347032040358">
        <ele>745.70000000000005</ele>
        <time>2003-04-19T16:04:39Z</time>
      </trkpt>
      <trkpt lat="33.938331976532936" lon="-3.266088031232357">
        <ele>745.5</ele>
        <time>2003-04-19T16:04:44Z</time>
      </trkpt>
      <trkpt lat="33.938504979014397" lon="-3.265951992943883">
        <ele>745</ele>
        <time>2003-04-19T16:04:46Z</time>
      </trkpt>
      <trkpt lat="33.938598018139601" lon="-3.265909999608994">
        <ele>744.60000000000002</ele>
        <time>2003-04-19T16:04:46Z</time>
      </trkpt>
      <trkpt lat="33.938858024775982" lon="-3.265792988240719">
        <ele>744.79999999999995</ele>
        <time>2003-04-19T16:04:49Z</time>
      </trkpt>
      <trkpt lat="33.938951985910535" lon="-3.265759963542223">
        <ele>744.79999999999995</ele>
        <time>2003-04-19T16:04:50Z</time>
      </trkpt>
      <trkpt lat="33.939103027805686" lon="-3.26564303599298">
        <ele>744.79999999999995</ele>
        <time>2003-04-19T16:04:53Z</time>
      </trkpt>
      <trkpt lat="33.939399998635054" lon="-3.265453018248081">
        <ele>744.70000000000005</ele>
        <time>2003-04-19T16:04:57Z</time>
      </trkpt>
      <trkpt lat="33.939669979736209" lon="-3.265340030193329">
        <ele>744.5</ele>
        <time>2003-04-19T16:05:00Z</time>
      </trkpt>
      <trkpt lat="33.939781961962581" lon="-3.265261994674802">
        <ele>744.39999999999998</ele>
        <time>2003-04-19T16:05:01Z</time>
      </trkpt>
      <trkpt lat="33.939878018572927" lon="-3.265207009389997">
        <ele>744.29999999999995</ele>
        <time>2003-04-19T16:05:04Z</time>
      </trkpt>
      <trkpt lat="33.940177001059055" lon="-3.265044987201691">
        <ele>744.10000000000002</ele>
        <time>2003-04-19T16:05:09Z</time>
      </trkpt>
      <trkpt lat="33.940408006310463" lon="-3.264910038560629">
        <ele>744.39999999999998</ele>
        <time>2003-04-19T16:05:12Z</time>
      </trkpt>
      <trkpt lat="33.94059500657022" lon="-3.264842983335257">
        <ele>744.10000000000002</ele>
        <time>2003-04-19T16:05:13Z</time>
      </trkpt>
      <trkpt lat="33.940747976303101" lon="-3.264752039685845">
        <ele>743.60000000000002</ele>
        <time>2003-04-19T16:05:16Z</time>
      </trkpt>
      <trkpt lat="33.940812014043331" lon="-3.264671992510557">
        <ele>743.60000000000002</ele>
        <time>2003-04-19T16:05:16Z</time>
      </trkpt>
      <trkpt lat="33.941034972667694" lon="-3.264469988644123">
        <ele>743.10000000000002</ele>
        <time>2003-04-19T16:05:20Z</time>
      </trkpt>
      <trkpt lat="33.941560015082359" lon="-3.264252981171012">
        <ele>742.10000000000002</ele>
        <time>2003-04-19T16:05:24Z</time>
      </trkpt>
      <trkpt lat="33.942125039175153" lon="-3.263998003676534">
        <ele>741</ele>
        <time>2003-04-19T16:05:29Z</time>
      </trkpt>
      <trkpt lat="33.942397031933069" lon="-3.263777978718281">
        <ele>741.39999999999998</ele>
        <time>2003-04-19T16:05:32Z</time>
      </trkpt>
      <trkpt lat="33.942493004724383" lon="-3.263782002031803">
        <ele>740.89999999999998</ele>
        <time>2003-04-19T16:05:33Z</time>
      </trkpt>
      <trkpt lat="33.942595012485981" lon="-3.263792982324958">
        <ele>739.79999999999995</ele>
        <time>2003-04-19T16:05:39Z</time>
      </trkpt>
      <trkpt lat="33.94265997223556" lon="-3.263694997876883">
        <ele>740.39999999999998</ele>
        <time>2003-04-19T16:05:42Z</time>
      </trkpt>
      <trkpt lat="33.942738007754087" lon="-3.263600030913949">
        <ele>740.39999999999998</ele>
        <time>2003-04-19T16:05:44Z</time>
      </trkpt>
      <trkpt lat="33.942859964445233" lon="-3.263574969023466">
        <ele>739.89999999999998</ele>
        <time>2003-04-19T16:05:47Z</time>
      </trkpt>
      <trkpt lat="33.94300002604723" lon="-3.263549990952015">
        <ele>739.70000000000005</ele>
        <time>2003-04-19T16:05:48Z</time>
      </trkpt>
      <trkpt lat="33.943175040185452" lon="-3.263485031202436">
        <ele>739.29999999999995</ele>
        <time>2003-04-19T16:05:51Z</time>
      </trkpt>
      <trkpt lat="33.943357011303306" lon="-3.263368019834161">
        <ele>738.89999999999998</ele>
        <time>2003-04-19T16:05:52Z</time>
      </trkpt>
      <trkpt lat="33.943937961012125" lon="-3.262989996001124">
        <ele>737.60000000000002</ele>
        <time>2003-04-19T16:05:59Z</time>
      </trkpt>
      <trkpt lat="33.944208025932312" lon="-3.26287298463285">
        <ele>736.70000000000005</ele>
        <time>2003-04-19T16:06:02Z</time>
      </trkpt>
      <trkpt lat="33.944299975410104" lon="-3.262886982411146">
        <ele>736.29999999999995</ele>
        <time>2003-04-19T16:06:03Z</time>
      </trkpt>
      <trkpt lat="33.944465015083551" lon="-3.262852029874921">
        <ele>736</ele>
        <time>2003-04-19T16:06:05Z</time>
      </trkpt>
      <trkpt lat="33.94493498839438" lon="-3.262641979381442">
        <ele>735.60000000000002</ele>
        <time>2003-04-19T16:06:10Z</time>
      </trkpt>
      <trkpt lat="33.945412002503872" lon="-3.262437963858247">
        <ele>735.20000000000005</ele>
        <time>2003-04-19T16:06:14Z</time>
      </trkpt>
      <trkpt lat="33.945551980286837" lon="-3.26231500133872">
        <ele>735.39999999999998</ele>
        <time>2003-04-19T16:06:22Z</time>
      </trkpt>
      <trkpt lat="33.94566304050386" lon="-3.26229203492403">
        <ele>735.20000000000005</ele>
        <time>2003-04-19T16:06:26Z</time>
      </trkpt>
      <trkpt lat="33.945978032425046" lon="-3.26214300468564">
        <ele>735</ele>
        <time>2003-04-19T16:06:34Z</time>
      </trkpt>
      <trkpt lat="33.946112981066108" lon="-3.262073015794158">
        <ele>734.79999999999995</ele>
        <time>2003-04-19T16:06:37Z</time>
      </trkpt>
      <trkpt lat="33.946211971342564" lon="-3.262019958347082">
        <ele>734.89999999999998</ele>
        <time>2003-04-19T16:06:41Z</time>
      </trkpt>
      <trkpt lat="33.946489999070764" lon="-3.261857014149427">
        <ele>734.5</ele>
        <time>2003-04-19T16:06:49Z</time>
      </trkpt>
      <trkpt lat="33.946561999619007" lon="-3.261783001944423">
        <ele>734.5</ele>
        <time>2003-04-19T16:06:52Z</time>
      </trkpt>
      <trkpt lat="33.946689991280437" lon="-3.261717036366463">
        <ele>734.39999999999998</ele>
        <time>2003-04-19T16:06:57Z</time>
      </trkpt>
      <trkpt lat="33.94680499099195" lon="-3.261617040261626">
        <ele>734</ele>
        <time>2003-04-19T16:07:00Z</time>
      </trkpt>
      <trkpt lat="33.946897024288774" lon="-3.261582003906369">
        <ele>734</ele>
        <time>2003-04-19T16:07:01Z</time>
      </trkpt>
      <trkpt lat="33.946971958503127" lon="-3.261392991989851">
        <ele>734.29999999999995</ele>
        <time>2003-04-19T16:07:12Z</time>
      </trkpt>
      <trkpt lat="33.946893000975251" lon="-3.261062996461988">
        <ele>735.39999999999998</ele>
        <time>2003-04-19T16:07:20Z</time>
      </trkpt>
      <trkpt lat="33.946827035397291" lon="-3.260965012013912">
        <ele>735.79999999999995</ele>
        <time>2003-04-19T16:07:24Z</time>
      </trkpt>
      <trkpt lat="33.946729972958565" lon="-3.260807013139129">
        <ele>736.5</ele>
        <time>2003-04-19T16:07:28Z</time>
      </trkpt>
      <trkpt lat="33.946647997945547" lon="-3.260722020640969">
        <ele>736.89999999999998</ele>
        <time>2003-04-19T16:07:34Z</time>
      </trkpt>
      <trkpt lat="33.946623019874096" lon="-3.26061699539423">
        <ele>737.70000000000005</ele>
        <time>2003-04-19T16:07:38Z</time>
      </trkpt>
      <trkpt lat="33.946620002388954" lon="-3.260496966540813">
        <ele>737.60000000000002</ele>
        <time>2003-04-19T16:07:44Z</time>
      </trkpt>
      <trkpt lat="33.946644980460405" lon="-3.260388001799583">
        <ele>737.89999999999998</ele>
        <time>2003-04-19T16:07:51Z</time>
      </trkpt>
      <trkpt lat="33.946844972670078" lon="-3.260281970724464">
        <ele>738.10000000000002</ele>
        <time>2003-04-19T16:08:02Z</time>
      </trkpt>
      <trkpt lat="33.946886966004968" lon="-3.260158002376556">
        <ele>738.60000000000002</ele>
        <time>2003-04-19T16:08:06Z</time>
      </trkpt>
      <trkpt lat="33.946856958791614" lon="-3.260024981573224">
        <ele>739</ele>
        <time>2003-04-19T16:08:09Z</time>
      </trkpt>
      <trkpt lat="33.946799961850047" lon="-3.259864971041679">
        <ele>739.60000000000002</ele>
        <time>2003-04-19T16:08:13Z</time>
      </trkpt>
      <trkpt lat="33.946716981008649" lon="-3.259788025170565">
        <ele>740</ele>
        <time>2003-04-19T16:08:15Z</time>
      </trkpt>
      <trkpt lat="33.946598041802645" lon="-3.259770004078746">
        <ele>740.10000000000002</ele>
        <time>2003-04-19T16:08:18Z</time>
      </trkpt>
      <trkpt lat="33.946486981585622" lon="-3.259747959673405">
        <ele>740</ele>
        <time>2003-04-19T16:08:22Z</time>
      </trkpt>
      <trkpt lat="33.946448005735874" lon="-3.259647963568568">
        <ele>740.29999999999995</ele>
        <time>2003-04-19T16:08:25Z</time>
      </trkpt>
      <trkpt lat="33.946540039032698" lon="-3.259612005203962">
        <ele>740.29999999999995</ele>
        <time>2003-04-19T16:08:29Z</time>
      </trkpt>
      <trkpt lat="33.94663299433887" lon="-3.259642012417316">
        <ele>740.10000000000002</ele>
        <time>2003-04-19T16:08:30Z</time>
      </trkpt>
      <trkpt lat="33.946731984615326" lon="-3.259700015187264">
        <ele>739.70000000000005</ele>
        <time>2003-04-19T16:08:33Z</time>
      </trkpt>
      <trkpt lat="33.946822006255388" lon="-3.259766986593604">
        <ele>739.20000000000005</ele>
        <time>2003-04-19T16:08:37Z</time>
      </trkpt>
      <trkpt lat="33.946916973218322" lon="-3.259821971878409">
        <ele>738.70000000000005</ele>
        <time>2003-04-19T16:08:41Z</time>
      </trkpt>
      <trkpt lat="33.947034990414977" lon="-3.259870000183582">
        <ele>738.39999999999998</ele>
        <time>2003-04-19T16:08:42Z</time>
      </trkpt>
      <trkpt lat="33.947177985683084" lon="-3.259933032095432">
        <ele>738.10000000000002</ele>
        <time>2003-04-19T16:08:45Z</time>
      </trkpt>
      <trkpt lat="33.947368003427982" lon="-3.260009977966547">
        <ele>737.79999999999995</ele>
        <time>2003-04-19T16:08:47Z</time>
      </trkpt>
      <trkpt lat="33.947990024462342" lon="-3.260248024016619">
        <ele>735.29999999999995</ele>
        <time>2003-04-19T16:08:53Z</time>
      </trkpt>
      <trkpt lat="33.948192028328776" lon="-3.260305020958185">
        <ele>734.79999999999995</ele>
        <time>2003-04-19T16:08:56Z</time>
      </trkpt>
      <trkpt lat="33.948337035253644" lon="-3.260357994586229">
        <ele>734.60000000000002</ele>
        <time>2003-04-19T16:09:00Z</time>
      </trkpt>
      <trkpt lat="33.948427978903055" lon="-3.260426977649331">
        <ele>734.29999999999995</ele>
        <time>2003-04-19T16:09:01Z</time>
      </trkpt>
      <trkpt lat="33.948538033291698" lon="-3.260496966540813">
        <ele>733.79999999999995</ele>
        <time>2003-04-19T16:09:04Z</time>
      </trkpt>
      <trkpt lat="33.948646998032928" lon="-3.260512975975871">
        <ele>733.60000000000002</ele>
        <time>2003-04-19T16:09:05Z</time>
      </trkpt>
      <trkpt lat="33.948768032714725" lon="-3.260550023987889">
        <ele>733.20000000000005</ele>
        <time>2003-04-19T16:09:08Z</time>
      </trkpt>
      <trkpt lat="33.949279999360442" lon="-3.260763008147478">
        <ele>731.70000000000005</ele>
        <time>2003-04-19T16:09:16Z</time>
      </trkpt>
      <trkpt lat="33.949519973248243" lon="-3.260883037000895">
        <ele>731</ele>
        <time>2003-04-19T16:09:22Z</time>
      </trkpt>
      <trkpt lat="33.949966980144382" lon="-3.261138014495373">
        <ele>728.89999999999998</ele>
        <time>2003-04-19T16:09:28Z</time>
      </trkpt>
      <trkpt lat="33.950772983953357" lon="-3.261555014178157">
        <ele>726.39999999999998</ele>
        <time>2003-04-19T16:09:41Z</time>
      </trkpt>
      <trkpt lat="33.950917990878224" lon="-3.261591978371143">
        <ele>725.79999999999995</ele>
        <time>2003-04-19T16:09:43Z</time>
      </trkpt>
      <trkpt lat="33.95108001306653" lon="-3.261567000299692">
        <ele>725.39999999999998</ele>
        <time>2003-04-19T16:09:45Z</time>
      </trkpt>
      <trkpt lat="33.951214961707592" lon="-3.261561971157789">
        <ele>725.10000000000002</ele>
        <time>2003-04-19T16:09:46Z</time>
      </trkpt>
      <trkpt lat="33.951344965025783" lon="-3.261564988642931">
        <ele>724.89999999999998</ele>
        <time>2003-04-19T16:09:49Z</time>
      </trkpt>
      <trkpt lat="33.951679989695549" lon="-3.261579992249608">
        <ele>724.5</ele>
        <time>2003-04-19T16:09:54Z</time>
      </trkpt>
      <trkpt lat="33.952033035457134" lon="-3.261567000299692">
        <ele>723.60000000000002</ele>
        <time>2003-04-19T16:09:59Z</time>
      </trkpt>
      <trkpt lat="33.952142000198364" lon="-3.261513020843267">
        <ele>723.70000000000005</ele>
        <time>2003-04-19T16:10:02Z</time>
      </trkpt>
      <trkpt lat="33.952233027666807" lon="-3.261457029730082">
        <ele>723.60000000000002</ele>
        <time>2003-04-19T16:10:06Z</time>
      </trkpt>
      <trkpt lat="33.95234702154994" lon="-3.261502962559462">
        <ele>723.39999999999998</ele>
        <time>2003-04-19T16:10:10Z</time>
      </trkpt>
      <trkpt lat="33.952548019587994" lon="-3.261613016948104">
        <ele>722.70000000000005</ele>
        <time>2003-04-19T16:10:13Z</time>
      </trkpt>
      <trkpt lat="33.952695038169622" lon="-3.261619973927736">
        <ele>722.79999999999995</ele>
        <time>2003-04-19T16:10:16Z</time>
      </trkpt>
      <trkpt lat="33.952874997630715" lon="-3.261613016948104">
        <ele>722.39999999999998</ele>
        <time>2003-04-19T16:10:17Z</time>
      </trkpt>
      <trkpt lat="33.953359974548221" lon="-3.261576974764466">
        <ele>721.79999999999995</ele>
        <time>2003-04-19T16:10:22Z</time>
      </trkpt>
      <trkpt lat="33.953764988109469" lon="-3.261500028893352">
        <ele>721.29999999999995</ele>
        <time>2003-04-19T16:10:26Z</time>
      </trkpt>
      <trkpt lat="33.953987024724483" lon="-3.261547973379493">
        <ele>721</ele>
        <time>2003-04-19T16:10:29Z</time>
      </trkpt>
      <trkpt lat="33.954993020743132" lon="-3.26169298030436">
        <ele>719.29999999999995</ele>
        <time>2003-04-19T16:10:37Z</time>
      </trkpt>
      <trkpt lat="33.955988036468625" lon="-3.261802028864622">
        <ele>717.10000000000002</ele>
        <time>2003-04-19T16:10:45Z</time>
      </trkpt>
      <trkpt lat="33.956587007269263" lon="-3.261824995279312">
        <ele>715.89999999999998</ele>
        <time>2003-04-19T16:10:51Z</time>
      </trkpt>
      <trkpt lat="33.957041976973414" lon="-3.261789958924055">
        <ele>715.20000000000005</ele>
        <time>2003-04-19T16:10:55Z</time>
      </trkpt>
      <trkpt lat="33.957562996074557" lon="-3.26186497695744">
        <ele>714.29999999999995</ele>
        <time>2003-04-19T16:11:00Z</time>
      </trkpt>
      <trkpt lat="33.957882011309266" lon="-3.261919962242246">
        <ele>713.60000000000002</ele>
        <time>2003-04-19T16:11:03Z</time>
      </trkpt>
      <trkpt lat="33.957991981878877" lon="-3.261919962242246">
        <ele>713.20000000000005</ele>
        <time>2003-04-19T16:11:04Z</time>
      </trkpt>
      <trkpt lat="33.958181999623775" lon="-3.261888027191162">
        <ele>713</ele>
        <time>2003-04-19T16:11:06Z</time>
      </trkpt>
      <trkpt lat="33.958334969356656" lon="-3.261803034693003">
        <ele>713</ele>
        <time>2003-04-19T16:11:07Z</time>
      </trkpt>
      <trkpt lat="33.95840797573328" lon="-3.261722987517715">
        <ele>712.89999999999998</ele>
        <time>2003-04-19T16:11:08Z</time>
      </trkpt>
      <trkpt lat="33.958715004846454" lon="-3.261385029181838">
        <ele>712</ele>
        <time>2003-04-19T16:11:12Z</time>
      </trkpt>
      <trkpt lat="33.958932012319565" lon="-3.261206997558475">
        <ele>711.29999999999995</ele>
        <time>2003-04-19T16:11:15Z</time>
      </trkpt>
      <trkpt lat="33.959111971780658" lon="-3.261022008955479">
        <ele>710.70000000000005</ele>
        <time>2003-04-19T16:11:19Z</time>
      </trkpt>
      <trkpt lat="33.959254967048764" lon="-3.260826962068677">
        <ele>709.89999999999998</ele>
        <time>2003-04-19T16:11:22Z</time>
      </trkpt>
      <trkpt lat="33.959380025044084" lon="-3.260742975398898">
        <ele>709.70000000000005</ele>
        <time>2003-04-19T16:11:23Z</time>
      </trkpt>
      <trkpt lat="33.959753019735217" lon="-3.260541977360845">
        <ele>709</ele>
        <time>2003-04-19T16:11:30Z</time>
      </trkpt>
      <trkpt lat="33.959904983639717" lon="-3.260601991787553">
        <ele>708.89999999999998</ele>
        <time>2003-04-19T16:11:31Z</time>
      </trkpt>
      <trkpt lat="33.960068011656404" lon="-3.260642979294062">
        <ele>709</ele>
        <time>2003-04-19T16:11:34Z</time>
      </trkpt>
      <trkpt lat="33.960245037451386" lon="-3.260627975687385">
        <ele>708.70000000000005</ele>
        <time>2003-04-19T16:11:35Z</time>
      </trkpt>
      <trkpt lat="33.960558017715812" lon="-3.260597968474031">
        <ele>708.39999999999998</ele>
        <time>2003-04-19T16:11:39Z</time>
      </trkpt>
      <trkpt lat="33.960867980495095" lon="-3.260705005377531">
        <ele>708.39999999999998</ele>
        <time>2003-04-19T16:11:43Z</time>
      </trkpt>
      <trkpt lat="33.960956996306777" lon="-3.260748004540801">
        <ele>708.29999999999995</ele>
        <time>2003-04-19T16:11:46Z</time>
      </trkpt>
      <trkpt lat="33.961033020168543" lon="-3.260677009820938">
        <ele>708.70000000000005</ele>
        <time>2003-04-19T16:11:51Z</time>
      </trkpt>
      <trkpt lat="33.960942998528481" lon="-3.260554969310761">
        <ele>708.89999999999998</ele>
        <time>2003-04-19T16:11:54Z</time>
      </trkpt>
      <trkpt lat="33.960820036008954" lon="-3.260472994297743">
        <ele>709</ele>
        <time>2003-04-19T16:11:57Z</time>
      </trkpt>
      <trkpt lat="33.960611997172236" lon="-3.260324969887734">
        <ele>709.29999999999995</ele>
        <time>2003-04-19T16:12:00Z</time>
      </trkpt>
      <trkpt lat="33.960347967222333" lon="-3.260136963799596">
        <ele>709.70000000000005</ele>
        <time>2003-04-19T16:12:02Z</time>
      </trkpt>
      <trkpt lat="33.959955023601651" lon="-3.259836975485086">
        <ele>710.20000000000005</ele>
        <time>2003-04-19T16:12:06Z</time>
      </trkpt>
      <trkpt lat="33.959882017225027" lon="-3.259732034057379">
        <ele>710.5</ele>
        <time>2003-04-19T16:12:08Z</time>
      </trkpt>
      <trkpt lat="33.959510028362274" lon="-3.259142031893134">
        <ele>711.70000000000005</ele>
        <time>2003-04-19T16:12:13Z</time>
      </trkpt>
      <trkpt lat="33.959331996738911" lon="-3.258840031921864">
        <ele>712.29999999999995</ele>
        <time>2003-04-19T16:12:16Z</time>
      </trkpt>
      <trkpt lat="33.9592220261693" lon="-3.258642973378301">
        <ele>712.89999999999998</ele>
        <time>2003-04-19T16:12:17Z</time>
      </trkpt>
      <trkpt lat="33.959199981763959" lon="-3.258520010858774">
        <ele>713.29999999999995</ele>
        <time>2003-04-19T16:12:18Z</time>
      </trkpt>
      <trkpt lat="33.959108032286167" lon="-3.258156990632415">
        <ele>714</ele>
        <time>2003-04-19T16:12:21Z</time>
      </trkpt>
      <trkpt lat="33.958617020398378" lon="-3.257176978513598">
        <ele>716.60000000000002</ele>
        <time>2003-04-19T16:12:29Z</time>
      </trkpt>
      <trkpt lat="33.958367994055152" lon="-3.256819993257523">
        <ele>717.5</ele>
        <time>2003-04-19T16:12:32Z</time>
      </trkpt>
      <trkpt lat="33.957683024927974" lon="-3.256005020812154">
        <ele>720.5</ele>
        <time>2003-04-19T16:12:40Z</time>
      </trkpt>
      <trkpt lat="33.957147002220154" lon="-3.255360033363104">
        <ele>722.70000000000005</ele>
        <time>2003-04-19T16:12:45Z</time>
      </trkpt>
      <trkpt lat="33.957050023600459" lon="-3.255221983417869">
        <ele>723.20000000000005</ele>
        <time>2003-04-19T16:12:48Z</time>
      </trkpt>
      <trkpt lat="33.956963019445539" lon="-3.255127016454935">
        <ele>723.5</ele>
        <time>2003-04-19T16:12:51Z</time>
      </trkpt>
      <trkpt lat="33.956854976713657" lon="-3.255104972049594">
        <ele>722.70000000000005</ele>
        <time>2003-04-19T16:12:56Z</time>
      </trkpt>
      <trkpt lat="33.956742994487286" lon="-3.255087034776807">
        <ele>723.89999999999998</ele>
        <time>2003-04-19T16:13:00Z</time>
      </trkpt>
      <trkpt lat="33.956633023917675" lon="-3.25505199842155">
        <ele>724.10000000000002</ele>
        <time>2003-04-19T16:13:03Z</time>
      </trkpt>
      <trkpt lat="33.956536967307329" lon="-3.255002964287996">
        <ele>724.39999999999998</ele>
        <time>2003-04-19T16:13:04Z</time>
      </trkpt>
      <trkpt lat="33.956420039758086" lon="-3.25490003451705">
        <ele>725</ele>
        <time>2003-04-19T16:13:07Z</time>
      </trkpt>
      <trkpt lat="33.956292970106006" lon="-3.254761984571815">
        <ele>726</ele>
        <time>2003-04-19T16:13:08Z</time>
      </trkpt>
      <trkpt lat="33.955752002075315" lon="-3.254256974905729">
        <ele>728.60000000000002</ele>
        <time>2003-04-19T16:13:17Z</time>
      </trkpt>
      <trkpt lat="33.955442039296031" lon="-3.253926979377866">
        <ele>730.5</ele>
        <time>2003-04-19T16:13:22Z</time>
      </trkpt>
      <trkpt lat="33.955323016270995" lon="-3.253799993544817">
        <ele>731.10000000000002</ele>
        <time>2003-04-19T16:13:23Z</time>
      </trkpt>
      <trkpt lat="33.9550999738276" lon="-3.253558008000255">
        <ele>732.39999999999998</ele>
        <time>2003-04-19T16:13:27Z</time>
      </trkpt>
      <trkpt lat="33.954923031851649" lon="-3.253451976925135">
        <ele>732.89999999999998</ele>
        <time>2003-04-19T16:13:30Z</time>
      </trkpt>
      <trkpt lat="33.95479504019022" lon="-3.253390034660697">
        <ele>733.5</ele>
        <time>2003-04-19T16:13:33Z</time>
      </trkpt>
      <trkpt lat="33.954669982194901" lon="-3.253321973606944">
        <ele>733.89999999999998</ele>
        <time>2003-04-19T16:13:34Z</time>
      </trkpt>
      <trkpt lat="33.954217024147511" lon="-3.253189958631992">
        <ele>735.79999999999995</ele>
        <time>2003-04-19T16:13:41Z</time>
      </trkpt>
      <trkpt lat="33.954070005565882" lon="-3.253175038844347">
        <ele>736.39999999999998</ele>
        <time>2003-04-19T16:13:42Z</time>
      </trkpt>
      <trkpt lat="33.953927010297775" lon="-3.253137990832329">
        <ele>737.5</ele>
        <time>2003-04-19T16:13:45Z</time>
      </trkpt>
      <trkpt lat="33.953779991716146" lon="-3.253055009990931">
        <ele>738</ele>
        <time>2003-04-19T16:13:46Z</time>
      </trkpt>
      <trkpt lat="33.953561978414655" lon="-3.252959959208965">
        <ele>739.20000000000005</ele>
        <time>2003-04-19T16:13:49Z</time>
      </trkpt>
      <trkpt lat="33.953423006460071" lon="-3.252922995015979">
        <ele>739.39999999999998</ele>
        <time>2003-04-19T16:13:52Z</time>
      </trkpt>
      <trkpt lat="33.953282022848725" lon="-3.252870021387935">
        <ele>740.29999999999995</ele>
        <time>2003-04-19T16:13:53Z</time>
      </trkpt>
      <trkpt lat="33.952701995149255" lon="-3.252576990053058">
        <ele>744.29999999999995</ele>
        <time>2003-04-19T16:14:01Z</time>
      </trkpt>
      <trkpt lat="33.952593030408025" lon="-3.252525022253394">
        <ele>744.89999999999998</ele>
        <time>2003-04-19T16:14:05Z</time>
      </trkpt>
      <trkpt lat="33.952493034303188" lon="-3.252540025860071">
        <ele>743.79999999999995</ele>
        <time>2003-04-19T16:14:06Z</time>
      </trkpt>
      <trkpt lat="33.952363030984998" lon="-3.252534996718168">
        <ele>745.70000000000005</ele>
        <time>2003-04-19T16:14:09Z</time>
      </trkpt>
      <trkpt lat="33.952139988541603" lon="-3.252462996169925">
        <ele>747.89999999999998</ele>
        <time>2003-04-19T16:14:13Z</time>
      </trkpt>
      <trkpt lat="33.952072011306882" lon="-3.252365011721849">
        <ele>748.79999999999995</ele>
        <time>2003-04-19T16:14:15Z</time>
      </trkpt>
      <trkpt lat="33.951930021867156" lon="-3.252097964286804">
        <ele>750.70000000000005</ele>
        <time>2003-04-19T16:14:19Z</time>
      </trkpt>
      <trkpt lat="33.951843017712235" lon="-3.251975001767278">
        <ele>751.60000000000002</ele>
        <time>2003-04-19T16:14:20Z</time>
      </trkpt>
      <trkpt lat="33.951777974143624" lon="-3.25189302675426">
        <ele>752.39999999999998</ele>
        <time>2003-04-19T16:14:23Z</time>
      </trkpt>
      <trkpt lat="33.951703039929271" lon="-3.251818008720875">
        <ele>753.5</ele>
        <time>2003-04-19T16:14:28Z</time>
      </trkpt>
      <trkpt lat="33.951587034389377" lon="-3.251826977357268">
        <ele>752.39999999999998</ele>
        <time>2003-04-19T16:14:31Z</time>
      </trkpt>
      <trkpt lat="33.951474968343973" lon="-3.25189202092588">
        <ele>754.39999999999998</ele>
        <time>2003-04-19T16:14:33Z</time>
      </trkpt>
      <trkpt lat="33.951343037188053" lon="-3.251856984570622">
        <ele>755.70000000000005</ele>
        <time>2003-04-19T16:14:36Z</time>
      </trkpt>
      <trkpt lat="33.951257038861513" lon="-3.251784984022379">
        <ele>756.70000000000005</ele>
        <time>2003-04-19T16:14:39Z</time>
      </trkpt>
      <trkpt lat="33.951183026656508" lon="-3.251697979867458">
        <ele>757.60000000000002</ele>
        <time>2003-04-19T16:14:40Z</time>
      </trkpt>
      <trkpt lat="33.951040031388402" lon="-3.251542998477817">
        <ele>759.5</ele>
        <time>2003-04-19T16:14:44Z</time>
      </trkpt>
      <trkpt lat="33.950963001698256" lon="-3.251481978222728">
        <ele>760.29999999999995</ele>
        <time>2003-04-19T16:14:47Z</time>
      </trkpt>
      <trkpt lat="33.9508449845016" lon="-3.251449959352613">
        <ele>761</ele>
        <time>2003-04-19T16:14:50Z</time>
      </trkpt>
      <trkpt lat="33.950737025588751" lon="-3.251409977674484">
        <ele>761.89999999999998</ele>
        <time>2003-04-19T16:14:52Z</time>
      </trkpt>
      <trkpt lat="33.950759992003441" lon="-3.251266982406378">
        <ele>762.70000000000005</ele>
        <time>2003-04-19T16:14:55Z</time>
      </trkpt>
      <trkpt lat="33.950852025300264" lon="-3.251242004334927">
        <ele>762.39999999999998</ele>
        <time>2003-04-19T16:14:58Z</time>
      </trkpt>
      <trkpt lat="33.950961995869875" lon="-3.25129296630621">
        <ele>761.10000000000002</ele>
        <time>2003-04-19T16:14:59Z</time>
      </trkpt>
      <trkpt lat="33.951061991974711" lon="-3.251377958804369">
        <ele>760</ele>
        <time>2003-04-19T16:15:02Z</time>
      </trkpt>
      <trkpt lat="33.951301965862513" lon="-3.251622961834073">
        <ele>756.79999999999995</ele>
        <time>2003-04-19T16:15:07Z</time>
      </trkpt>
      <trkpt lat="33.951474968343973" lon="-3.251817002892494">
        <ele>754.60000000000002</ele>
        <time>2003-04-19T16:15:10Z</time>
      </trkpt>
      <trkpt lat="33.951591979712248" lon="-3.251833012327552">
        <ele>753.29999999999995</ele>
        <time>2003-04-19T16:15:14Z</time>
      </trkpt>
      <trkpt lat="33.951700022444129" lon="-3.251814991235733">
        <ele>753.29999999999995</ele>
        <time>2003-04-19T16:15:17Z</time>
      </trkpt>
      <trkpt lat="33.951779985800385" lon="-3.251882968470454">
        <ele>753.10000000000002</ele>
        <time>2003-04-19T16:15:18Z</time>
      </trkpt>
      <trkpt lat="33.951903032138944" lon="-3.252063011750579">
        <ele>751.60000000000002</ele>
        <time>2003-04-19T16:15:22Z</time>
      </trkpt>
      <trkpt lat="33.95200302824378" lon="-3.252225033938885">
        <ele>750.5</ele>
        <time>2003-04-19T16:15:25Z</time>
      </trkpt>
      <trkpt lat="33.952121967449784" lon="-3.252399964258075">
        <ele>748.79999999999995</ele>
        <time>2003-04-19T16:15:36Z</time>
      </trkpt>
      <trkpt lat="33.95219799131155" lon="-3.252489985898137">
        <ele>747.89999999999998</ele>
        <time>2003-04-19T16:15:37Z</time>
      </trkpt>
      <trkpt lat="33.952290024608374" lon="-3.252546982839704">
        <ele>747</ele>
        <time>2003-04-19T16:15:40Z</time>
      </trkpt>
      <trkpt lat="33.952417010441422" lon="-3.252546982839704">
        <ele>745.79999999999995</ele>
        <time>2003-04-19T16:15:42Z</time>
      </trkpt>
      <trkpt lat="33.952522035688162" lon="-3.252547988668084">
        <ele>744.39999999999998</ele>
        <time>2003-04-19T16:15:45Z</time>
      </trkpt>
      <trkpt lat="33.952657990157604" lon="-3.252537008374929">
        <ele>745.20000000000005</ele>
        <time>2003-04-19T16:15:48Z</time>
      </trkpt>
      <trkpt lat="33.952793022617698" lon="-3.252629963681102">
        <ele>744.29999999999995</ele>
        <time>2003-04-19T16:15:49Z</time>
      </trkpt>
      <trkpt lat="33.952914979308844" lon="-3.252692995592952">
        <ele>743.70000000000005</ele>
        <time>2003-04-19T16:15:50Z</time>
      </trkpt>
      <trkpt lat="33.953210022300482" lon="-3.252819981426001">
        <ele>741.70000000000005</ele>
        <time>2003-04-19T16:15:54Z</time>
      </trkpt>
      <trkpt lat="33.953521996736526" lon="-3.252959959208965">
        <ele>739.29999999999995</ele>
        <time>2003-04-19T16:15:59Z</time>
      </trkpt>
      <trkpt lat="33.953728023916483" lon="-3.253032965585589">
        <ele>738.79999999999995</ele>
        <time>2003-04-19T16:16:01Z</time>
      </trkpt>
      <trkpt lat="33.954042010009289" lon="-3.25318300165236">
        <ele>737.60000000000002</ele>
        <time>2003-04-19T16:16:05Z</time>
      </trkpt>
      <trkpt lat="33.954221969470382" lon="-3.253204962238669">
        <ele>736.5</ele>
        <time>2003-04-19T16:16:08Z</time>
      </trkpt>
      <trkpt lat="33.954407041892409" lon="-3.253233041614294">
        <ele>736</ele>
        <time>2003-04-19T16:16:09Z</time>
      </trkpt>
      <trkpt lat="33.954793028533459" lon="-3.25337503105402">
        <ele>734.29999999999995</ele>
        <time>2003-04-19T16:16:13Z</time>
      </trkpt>
      <trkpt lat="33.95494700409472" lon="-3.253467986360192">
        <ele>733.79999999999995</ele>
        <time>2003-04-19T16:16:16Z</time>
      </trkpt>
      <trkpt lat="33.955229977145791" lon="-3.253664961084724">
        <ele>732.89999999999998</ele>
        <time>2003-04-19T16:16:20Z</time>
      </trkpt>
      <trkpt lat="33.955897009000182" lon="-3.254410028457642">
        <ele>729.29999999999995</ele>
        <time>2003-04-19T16:16:30Z</time>
      </trkpt>
      <trkpt lat="33.956032963469625" lon="-3.254557969048619">
        <ele>728.5</ele>
        <time>2003-04-19T16:16:31Z</time>
      </trkpt>
      <trkpt lat="33.956656996160746" lon="-3.255076976493001">
        <ele>725.39999999999998</ele>
        <time>2003-04-19T16:16:39Z</time>
      </trkpt>
      <trkpt lat="33.95675296895206" lon="-3.25509499758482">
        <ele>725</ele>
        <time>2003-04-19T16:16:42Z</time>
      </trkpt>
      <trkpt lat="33.956854976713657" lon="-3.255116958171129">
        <ele>724.29999999999995</ele>
        <time>2003-04-19T16:16:47Z</time>
      </trkpt>
      <trkpt lat="33.95694499835372" lon="-3.25511796399951">
        <ele>725.60000000000002</ele>
        <time>2003-04-19T16:16:50Z</time>
      </trkpt>
      <trkpt lat="33.957044994458556" lon="-3.255176972597837">
        <ele>725.29999999999995</ele>
        <time>2003-04-19T16:16:51Z</time>
      </trkpt>
      <trkpt lat="33.957122024148703" lon="-3.255300018936396">
        <ele>724.79999999999995</ele>
        <time>2003-04-19T16:16:54Z</time>
      </trkpt>
      <trkpt lat="33.957235012203455" lon="-3.255455000326037">
        <ele>724.29999999999995</ele>
        <time>2003-04-19T16:16:55Z</time>
      </trkpt>
      <trkpt lat="33.957378007471561" lon="-3.255648035556078">
        <ele>723.60000000000002</ele>
        <time>2003-04-19T16:16:58Z</time>
      </trkpt>
      <trkpt lat="33.957555033266544" lon="-3.255860013887286">
        <ele>722.79999999999995</ele>
        <time>2003-04-19T16:17:01Z</time>
      </trkpt>
      <trkpt lat="33.95827797241509" lon="-3.256699964404106">
        <ele>719</ele>
        <time>2003-04-19T16:17:07Z</time>
      </trkpt>
      <trkpt lat="33.958605034276843" lon="-3.257155017927289">
        <ele>717.5</ele>
        <time>2003-04-19T16:17:11Z</time>
      </trkpt>
      <trkpt lat="33.958950033411384" lon="-3.257830012589693">
        <ele>715.70000000000005</ele>
        <time>2003-04-19T16:17:17Z</time>
      </trkpt>
      <trkpt lat="33.959214985370636" lon="-3.258477011695504">
        <ele>714.29999999999995</ele>
        <time>2003-04-19T16:17:22Z</time>
      </trkpt>
      <trkpt lat="33.959331996738911" lon="-3.258853023871779">
        <ele>713.29999999999995</ele>
        <time>2003-04-19T16:17:25Z</time>
      </trkpt>
      <trkpt lat="33.959463005885482" lon="-3.259053016081452">
        <ele>712.5</ele>
        <time>2003-04-19T16:17:28Z</time>
      </trkpt>
      <trkpt lat="33.959586974233389" lon="-3.259279998019338">
        <ele>712</ele>
        <time>2003-04-19T16:17:29Z</time>
      </trkpt>
      <trkpt lat="33.959804987534881" lon="-3.259640000760555">
        <ele>711.10000000000002</ele>
        <time>2003-04-19T16:17:33Z</time>
      </trkpt>
      <trkpt lat="33.96014797501266" lon="-3.260052977129817">
        <ele>709.79999999999995</ele>
        <time>2003-04-19T16:17:37Z</time>
      </trkpt>
      <trkpt lat="33.960253000259399" lon="-3.260124977678061">
        <ele>709.60000000000002</ele>
        <time>2003-04-19T16:17:37Z</time>
      </trkpt>
      <trkpt lat="33.960370011627674" lon="-3.260178035125136">
        <ele>709.5</ele>
        <time>2003-04-19T16:17:38Z</time>
      </trkpt>
      <trkpt lat="33.960591964423656" lon="-3.260326981544495">
        <ele>709.10000000000002</ele>
        <time>2003-04-19T16:17:41Z</time>
      </trkpt>
      <trkpt lat="33.960800003260374" lon="-3.260533008724451">
        <ele>708.5</ele>
        <time>2003-04-19T16:17:42Z</time>
      </trkpt>
      <trkpt lat="33.961472986266017" lon="-3.261172967031598">
        <ele>707.39999999999998</ele>
        <time>2003-04-19T16:17:49Z</time>
      </trkpt>
      <trkpt lat="33.962155021727085" lon="-3.261567000299692">
        <ele>706.20000000000005</ele>
        <time>2003-04-19T16:17:53Z</time>
      </trkpt>
      <trkpt lat="33.962502032518387" lon="-3.261776966974139">
        <ele>705.79999999999995</ele>
        <time>2003-04-19T16:17:56Z</time>
      </trkpt>
      <trkpt lat="33.962485017254949" lon="-3.261628020554781">
        <ele>706.70000000000005</ele>
        <time>2003-04-19T16:18:09Z</time>
      </trkpt>
      <trkpt lat="33.962579984217882" lon="-3.261516960337758">
        <ele>706.29999999999995</ele>
        <time>2003-04-19T16:18:12Z</time>
      </trkpt>
      <trkpt lat="33.962692972272635" lon="-3.261468010023236">
        <ele>705.89999999999998</ele>
        <time>2003-04-19T16:18:15Z</time>
      </trkpt>
      <trkpt lat="33.962828004732728" lon="-3.261410007253289">
        <ele>705.60000000000002</ele>
        <time>2003-04-19T16:18:16Z</time>
      </trkpt>
      <trkpt lat="33.962996983900666" lon="-3.261353010311723">
        <ele>705.20000000000005</ele>
        <time>2003-04-19T16:18:19Z</time>
      </trkpt>
      <trkpt lat="33.963292026892304" lon="-3.261249996721745">
        <ele>704.70000000000005</ele>
        <time>2003-04-19T16:18:22Z</time>
      </trkpt>
      <trkpt lat="33.964113034307957" lon="-3.260984960943461">
        <ele>703</ele>
        <time>2003-04-19T16:18:30Z</time>
      </trkpt>
      <trkpt lat="33.964773025363684" lon="-3.26085202395916">
        <ele>701.89999999999998</ele>
        <time>2003-04-19T16:18:35Z</time>
      </trkpt>
      <trkpt lat="33.965309970080853" lon="-3.260672986507416">
        <ele>700.60000000000002</ele>
        <time>2003-04-19T16:18:41Z</time>
      </trkpt>
      <trkpt lat="33.965442990884185" lon="-3.260611966252327">
        <ele>700.10000000000002</ele>
        <time>2003-04-19T16:18:43Z</time>
      </trkpt>
      <trkpt lat="33.965499987825751" lon="-3.260524962097406">
        <ele>699.20000000000005</ele>
        <time>2003-04-19T16:18:45Z</time>
      </trkpt>
      <trkpt lat="33.965569976717234" lon="-3.26044499874115">
        <ele>699.29999999999995</ele>
        <time>2003-04-19T16:18:46Z</time>
      </trkpt>
      <trkpt lat="33.965653041377664" lon="-3.260327987372875">
        <ele>700</ele>
        <time>2003-04-19T16:18:50Z</time>
      </trkpt>
      <trkpt lat="33.965799976140261" lon="-3.260197984054685">
        <ele>698.20000000000005</ele>
        <time>2003-04-19T16:19:06Z</time>
      </trkpt>
      <trkpt lat="33.965867031365633" lon="-3.260122966021299">
        <ele>699.70000000000005</ele>
        <time>2003-04-19T16:19:08Z</time>
      </trkpt>
      <trkpt lat="33.965956969186664" lon="-3.260006960481405">
        <ele>699.79999999999995</ele>
        <time>2003-04-19T16:19:10Z</time>
      </trkpt>
      <trkpt lat="33.966040033847094" lon="-3.259866982698441">
        <ele>700</ele>
        <time>2003-04-19T16:19:12Z</time>
      </trkpt>
      <trkpt lat="33.96611999720335" lon="-3.259647963568568">
        <ele>699.89999999999998</ele>
        <time>2003-04-19T16:19:14Z</time>
      </trkpt>
      <trkpt lat="33.966193003579974" lon="-3.259546961635351">
        <ele>699.20000000000005</ele>
        <time>2003-04-19T16:19:17Z</time>
      </trkpt>
      <trkpt lat="33.966283025220037" lon="-3.259497005492449">
        <ele>698.20000000000005</ele>
        <time>2003-04-19T16:19:18Z</time>
      </trkpt>
      <trkpt lat="33.966419985517859" lon="-3.259437996894121">
        <ele>699.60000000000002</ele>
        <time>2003-04-19T16:19:22Z</time>
      </trkpt>
      <trkpt lat="33.966547977179289" lon="-3.259383011609316">
        <ele>699.29999999999995</ele>
        <time>2003-04-19T16:19:25Z</time>
      </trkpt>
      <trkpt lat="33.966670017689466" lon="-3.259287038818002">
        <ele>699.79999999999995</ele>
        <time>2003-04-19T16:19:26Z</time>
      </trkpt>
      <trkpt lat="33.966802032664418" lon="-3.259138008579612">
        <ele>700</ele>
        <time>2003-04-19T16:19:29Z</time>
      </trkpt>
      <trkpt lat="33.966912003234029" lon="-3.258957965299487">
        <ele>700.5</ele>
        <time>2003-04-19T16:19:30Z</time>
      </trkpt>
      <trkpt lat="33.967200005427003" lon="-3.258422026410699">
        <ele>700.79999999999995</ele>
        <time>2003-04-19T16:19:36Z</time>
      </trkpt>
      <trkpt lat="33.967241998761892" lon="-3.258292023092508">
        <ele>701.10000000000002</ele>
        <time>2003-04-19T16:19:37Z</time>
      </trkpt>
      <trkpt lat="33.967341994866729" lon="-3.258051965385675">
        <ele>701.29999999999995</ele>
        <time>2003-04-19T16:19:39Z</time>
      </trkpt>
      <trkpt lat="33.967479960992932" lon="-3.257836969569325">
        <ele>701.20000000000005</ele>
        <time>2003-04-19T16:19:40Z</time>
      </trkpt>
      <trkpt lat="33.967603007331491" lon="-3.257677964866161">
        <ele>701.39999999999998</ele>
        <time>2003-04-19T16:19:43Z</time>
      </trkpt>
      <trkpt lat="33.967635026201606" lon="-3.257509991526604">
        <ele>701.29999999999995</ele>
        <time>2003-04-19T16:19:44Z</time>
      </trkpt>
      <trkpt lat="33.967608036473393" lon="-3.257312010973692">
        <ele>701.79999999999995</ele>
        <time>2003-04-19T16:19:47Z</time>
      </trkpt>
      <trkpt lat="33.967614993453026" lon="-3.25720296241343">
        <ele>702</ele>
        <time>2003-04-19T16:19:48Z</time>
      </trkpt>
      <trkpt lat="33.96764500066638" lon="-3.257089974358678">
        <ele>702.10000000000002</ele>
        <time>2003-04-19T16:19:48Z</time>
      </trkpt>
      <trkpt lat="33.967697974294424" lon="-3.256977992132306">
        <ele>702.29999999999995</ele>
        <time>2003-04-19T16:19:49Z</time>
      </trkpt>
      <trkpt lat="33.967847004532814" lon="-3.256742963567376">
        <ele>702.29999999999995</ele>
        <time>2003-04-19T16:19:52Z</time>
      </trkpt>
      <trkpt lat="33.968178005889058" lon="-3.256318001076579">
        <ele>703</ele>
        <time>2003-04-19T16:19:56Z</time>
      </trkpt>
      <trkpt lat="33.968319995328784" lon="-3.256090013310313">
        <ele>703.10000000000002</ele>
        <time>2003-04-19T16:19:57Z</time>
      </trkpt>
      <trkpt lat="33.968444969505072" lon="-3.255872000008822">
        <ele>703</ele>
        <time>2003-04-19T16:20:00Z</time>
      </trkpt>
      <trkpt lat="33.968692990019917" lon="-3.255434967577457">
        <ele>703.79999999999995</ele>
        <time>2003-04-19T16:20:04Z</time>
      </trkpt>
      <trkpt lat="33.968868004158139" lon="-3.255091980099678">
        <ele>704.20000000000005</ele>
        <time>2003-04-19T16:20:07Z</time>
      </trkpt>
      <trkpt lat="33.968957019969821" lon="-3.254927024245262">
        <ele>704.29999999999995</ele>
        <time>2003-04-19T16:20:08Z</time>
      </trkpt>
      <trkpt lat="33.968997001647949" lon="-3.254782017320395">
        <ele>704.79999999999995</ele>
        <time>2003-04-19T16:20:11Z</time>
      </trkpt>
      <trkpt lat="33.969109989702702" lon="-3.254497032612562">
        <ele>705.39999999999998</ele>
        <time>2003-04-19T16:20:14Z</time>
      </trkpt>
      <trkpt lat="33.96927997469902" lon="-3.254156978800893">
        <ele>706.10000000000002</ele>
        <time>2003-04-19T16:20:16Z</time>
      </trkpt>
      <trkpt lat="33.969421964138746" lon="-3.253763029351831">
        <ele>706.89999999999998</ele>
        <time>2003-04-19T16:20:19Z</time>
      </trkpt>
      <trkpt lat="33.969530006870627" lon="-3.253415012732148">
        <ele>706.70000000000005</ele>
        <time>2003-04-19T16:20:23Z</time>
      </trkpt>
      <trkpt lat="33.969548027962446" lon="-3.253262965008616">
        <ele>706.39999999999998</ele>
        <time>2003-04-19T16:20:24Z</time>
      </trkpt>
      <trkpt lat="33.969524977728724" lon="-3.253122987225652">
        <ele>706.39999999999998</ele>
        <time>2003-04-19T16:20:27Z</time>
      </trkpt>
      <trkpt lat="33.969539981335402" lon="-3.252982003614306">
        <ele>707.89999999999998</ele>
        <time>2003-04-19T16:20:29Z</time>
      </trkpt>
      <trkpt lat="33.969627991318703" lon="-3.252568021416664">
        <ele>708.10000000000002</ele>
        <time>2003-04-19T16:20:34Z</time>
      </trkpt>
      <trkpt lat="33.969717007130384" lon="-3.252380015328527">
        <ele>707.79999999999995</ele>
        <time>2003-04-19T16:20:35Z</time>
      </trkpt>
      <trkpt lat="33.969827983528376" lon="-3.252038033679128">
        <ele>708.29999999999995</ele>
        <time>2003-04-19T16:20:39Z</time>
      </trkpt>
      <trkpt lat="33.969811974093318" lon="-3.251899983733892">
        <ele>708.29999999999995</ele>
        <time>2003-04-19T16:20:42Z</time>
      </trkpt>
      <trkpt lat="33.969812979921699" lon="-3.251781966537237">
        <ele>708.60000000000002</ele>
        <time>2003-04-19T16:20:45Z</time>
      </trkpt>
      <trkpt lat="33.969860002398491" lon="-3.251650035381317">
        <ele>709</ele>
        <time>2003-04-19T16:20:46Z</time>
      </trkpt>
      <trkpt lat="33.96996502764523" lon="-3.251537969335914">
        <ele>708.79999999999995</ele>
        <time>2003-04-19T16:20:49Z</time>
      </trkpt>
      <trkpt lat="33.970053037628531" lon="-3.251390028744936">
        <ele>709.10000000000002</ele>
        <time>2003-04-19T16:20:50Z</time>
      </trkpt>
      <trkpt lat="33.970122020691633" lon="-3.251197999343276">
        <ele>709.29999999999995</ele>
        <time>2003-04-19T16:20:53Z</time>
      </trkpt>
      <trkpt lat="33.970184968784451" lon="-3.250936986878514">
        <ele>709.29999999999995</ele>
        <time>2003-04-19T16:20:56Z</time>
      </trkpt>
      <trkpt lat="33.970271972939372" lon="-3.250621994957328">
        <ele>709.79999999999995</ele>
        <time>2003-04-19T16:20:58Z</time>
      </trkpt>
      <trkpt lat="33.970401976257563" lon="-3.250199966132641">
        <ele>710.10000000000002</ele>
        <time>2003-04-19T16:21:02Z</time>
      </trkpt>
      <trkpt lat="33.970649996772408" lon="-3.249590015038848">
        <ele>710.70000000000005</ele>
        <time>2003-04-19T16:21:09Z</time>
      </trkpt>
      <trkpt lat="33.970792992040515" lon="-3.249052986502647">
        <ele>711.29999999999995</ele>
        <time>2003-04-19T16:21:13Z</time>
      </trkpt>
      <trkpt lat="33.970892988145351" lon="-3.248745035380125">
        <ele>711.70000000000005</ele>
        <time>2003-04-19T16:21:17Z</time>
      </trkpt>
      <trkpt lat="33.970994995906949" lon="-3.248444963246584">
        <ele>712</ele>
        <time>2003-04-19T16:21:20Z</time>
      </trkpt>
      <trkpt lat="33.971091974526644" lon="-3.24815796688199">
        <ele>712.29999999999995</ele>
        <time>2003-04-19T16:21:23Z</time>
      </trkpt>
      <trkpt lat="33.971249973401427" lon="-3.24755203910172">
        <ele>713.10000000000002</ele>
        <time>2003-04-19T16:21:28Z</time>
      </trkpt>
      <trkpt lat="33.971290038898587" lon="-3.246977962553501">
        <ele>714.20000000000005</ele>
        <time>2003-04-19T16:21:35Z</time>
      </trkpt>
      <trkpt lat="33.971292972564697" lon="-3.246860029175878">
        <ele>714.39999999999998</ele>
        <time>2003-04-19T16:21:36Z</time>
      </trkpt>
      <trkpt lat="33.971321973949671" lon="-3.246702030301094">
        <ele>714.79999999999995</ele>
        <time>2003-04-19T16:21:40Z</time>
      </trkpt>
      <trkpt lat="33.971348041668534" lon="-3.246449986472726">
        <ele>716.20000000000005</ele>
        <time>2003-04-19T16:26:22Z</time>
      </trkpt>
      <trkpt lat="33.971373019739985" lon="-3.246182017028332">
        <ele>716.20000000000005</ele>
        <time>2003-04-19T16:26:25Z</time>
      </trkpt>
      <trkpt lat="33.971451977267861" lon="-3.24607003480196">
        <ele>716.29999999999995</ele>
        <time>2003-04-19T16:26:28Z</time>
      </trkpt>
      <trkpt lat="33.97151199169457" lon="-3.245970038697124">
        <ele>716.39999999999998</ele>
        <time>2003-04-19T16:26:29Z</time>
      </trkpt>
      <trkpt lat="33.97155499085784" lon="-3.24583500623703">
        <ele>716.60000000000002</ele>
        <time>2003-04-19T16:26:32Z</time>
      </trkpt>
      <trkpt lat="33.971645012497902" lon="-3.245562007650733">
        <ele>717</ele>
        <time>2003-04-19T16:26:36Z</time>
      </trkpt>
      <trkpt lat="33.971654986962676" lon="-3.245396967977285">
        <ele>717.10000000000002</ele>
        <time>2003-04-19T16:26:37Z</time>
      </trkpt>
      <trkpt lat="33.971688011661172" lon="-3.245047023519874">
        <ele>717.10000000000002</ele>
        <time>2003-04-19T16:26:42Z</time>
      </trkpt>
      <trkpt lat="33.971733022481203" lon="-3.244905034080148">
        <ele>717.89999999999998</ele>
        <time>2003-04-19T16:26:45Z</time>
      </trkpt>
      <trkpt lat="33.971839975565672" lon="-3.244409998878837">
        <ele>718.39999999999998</ele>
        <time>2003-04-19T16:26:51Z</time>
      </trkpt>
      <trkpt lat="33.971911976113915" lon="-3.244283013045788">
        <ele>718.79999999999995</ele>
        <time>2003-04-19T16:26:52Z</time>
      </trkpt>
      <trkpt lat="33.972017001360655" lon="-3.24417999945581">
        <ele>719.10000000000002</ele>
        <time>2003-04-19T16:26:55Z</time>
      </trkpt>
      <trkpt lat="33.972077015787363" lon="-3.244029963389039">
        <ele>719.10000000000002</ele>
        <time>2003-04-19T16:26:56Z</time>
      </trkpt>
      <trkpt lat="33.972148010507226" lon="-3.24379300698638">
        <ele>719.5</ele>
        <time>2003-04-19T16:27:00Z</time>
      </trkpt>
      <trkpt lat="33.972241971641779" lon="-3.24366501532495">
        <ele>719.20000000000005</ele>
        <time>2003-04-19T16:27:01Z</time>
      </trkpt>
      <trkpt lat="33.972384966909885" lon="-3.243444990366697">
        <ele>719.89999999999998</ele>
        <time>2003-04-19T16:27:04Z</time>
      </trkpt>
      <trkpt lat="33.972527040168643" lon="-3.243160005658865">
        <ele>720.20000000000005</ele>
        <time>2003-04-19T16:27:08Z</time>
      </trkpt>
      <trkpt lat="33.972642039880157" lon="-3.242967976257205">
        <ele>720.39999999999998</ele>
        <time>2003-04-19T16:27:11Z</time>
      </trkpt>
      <trkpt lat="33.972968012094498" lon="-3.242415022104979">
        <ele>721.10000000000002</ele>
        <time>2003-04-19T16:27:15Z</time>
      </trkpt>
      <trkpt lat="33.97344502620399" lon="-3.241478009149432">
        <ele>722.10000000000002</ele>
        <time>2003-04-19T16:27:23Z</time>
      </trkpt>
      <trkpt lat="33.973675025627017" lon="-3.241035025566816">
        <ele>722.39999999999998</ele>
        <time>2003-04-19T16:27:27Z</time>
      </trkpt>
      <trkpt lat="33.973754988983274" lon="-3.240956990048289">
        <ele>722.39999999999998</ele>
        <time>2003-04-19T16:27:28Z</time>
      </trkpt>
      <trkpt lat="33.973937965929508" lon="-3.240847019478679">
        <ele>722.39999999999998</ele>
        <time>2003-04-19T16:27:31Z</time>
      </trkpt>
      <trkpt lat="33.974037962034345" lon="-3.240822963416576">
        <ele>722.5</ele>
        <time>2003-04-19T16:27:31Z</time>
      </trkpt>
      <trkpt lat="33.974433001130819" lon="-3.240777030587196">
        <ele>722.39999999999998</ele>
        <time>2003-04-19T16:27:35Z</time>
      </trkpt>
      <trkpt lat="33.974682027474046" lon="-3.240794967859983">
        <ele>722.60000000000002</ele>
        <time>2003-04-19T16:27:38Z</time>
      </trkpt>
      <trkpt lat="33.974882019683719" lon="-3.240832015872002">
        <ele>722.60000000000002</ele>
        <time>2003-04-19T16:27:41Z</time>
      </trkpt>
      <trkpt lat="33.975095003843307" lon="-3.240818018093705">
        <ele>722.5</ele>
        <time>2003-04-19T16:27:46Z</time>
      </trkpt>
      <trkpt lat="33.975213021039963" lon="-3.240830004215241">
        <ele>722.60000000000002</ele>
        <time>2003-04-19T16:27:46Z</time>
      </trkpt>
      <trkpt lat="33.975407984107733" lon="-3.240830004215241">
        <ele>722.70000000000005</ele>
        <time>2003-04-19T16:27:50Z</time>
      </trkpt>
      <trkpt lat="33.975549973547459" lon="-3.240830004215241">
        <ele>723</ele>
        <time>2003-04-19T16:27:53Z</time>
      </trkpt>
      <trkpt lat="33.975682994350791" lon="-3.240754986181855">
        <ele>723.60000000000002</ele>
        <time>2003-04-19T16:27:54Z</time>
      </trkpt>
      <trkpt lat="33.975785002112389" lon="-3.240624982863665">
        <ele>723.5</ele>
        <time>2003-04-19T16:27:57Z</time>
      </trkpt>
      <trkpt lat="33.975954987108707" lon="-3.240376962348819">
        <ele>723</ele>
        <time>2003-04-19T16:28:01Z</time>
      </trkpt>
      <trkpt lat="33.976041991263628" lon="-3.240315020084381">
        <ele>722.89999999999998</ele>
        <time>2003-04-19T16:28:02Z</time>
      </trkpt>
      <trkpt lat="33.976156990975142" lon="-3.240252994000912">
        <ele>722.60000000000002</ele>
        <time>2003-04-19T16:28:06Z</time>
      </trkpt>
      <trkpt lat="33.976224968209863" lon="-3.240117039531469">
        <ele>722.39999999999998</ele>
        <time>2003-04-19T16:28:10Z</time>
      </trkpt>
      <trkpt lat="33.976212982088327" lon="-3.239970020949841">
        <ele>722.60000000000002</ele>
        <time>2003-04-19T16:28:12Z</time>
      </trkpt>
      <trkpt lat="33.976214993745089" lon="-3.23981998488307">
        <ele>723</ele>
        <time>2003-04-19T16:28:13Z</time>
      </trkpt>
      <trkpt lat="33.976229997351766" lon="-3.239623010158539">
        <ele>723.39999999999998</ele>
        <time>2003-04-19T16:28:16Z</time>
      </trkpt>
      <trkpt lat="33.976248018443584" lon="-3.239097967743874">
        <ele>724.20000000000005</ele>
        <time>2003-04-19T16:28:21Z</time>
      </trkpt>
      <trkpt lat="33.976173000410199" lon="-3.238477958366275">
        <ele>725.10000000000002</ele>
        <time>2003-04-19T16:28:26Z</time>
      </trkpt>
      <trkpt lat="33.976109968498349" lon="-3.238257011398673">
        <ele>725.5</ele>
        <time>2003-04-19T16:28:29Z</time>
      </trkpt>
      <trkpt lat="33.976063029840589" lon="-3.238017037510872">
        <ele>726</ele>
        <time>2003-04-19T16:28:30Z</time>
      </trkpt>
      <trkpt lat="33.976052971556783" lon="-3.237776979804039">
        <ele>726.10000000000002</ele>
        <time>2003-04-19T16:28:33Z</time>
      </trkpt>
      <trkpt lat="33.976037967950106" lon="-3.237552009522915">
        <ele>726.29999999999995</ele>
        <time>2003-04-19T16:28:35Z</time>
      </trkpt>
      <trkpt lat="33.975969990715384" lon="-3.237382024526596">
        <ele>726.5</ele>
        <time>2003-04-19T16:28:37Z</time>
      </trkpt>
      <trkpt lat="33.975803023204207" lon="-3.237001989036799">
        <ele>727</ele>
        <time>2003-04-19T16:28:40Z</time>
      </trkpt>
      <trkpt lat="33.975576963275671" lon="-3.236292963847518">
        <ele>728.20000000000005</ele>
        <time>2003-04-19T16:28:47Z</time>
      </trkpt>
      <trkpt lat="33.975225007161498" lon="-3.23524497449398">
        <ele>730</ele>
        <time>2003-04-19T16:28:55Z</time>
      </trkpt>
      <trkpt lat="33.974852012470365" lon="-3.234132025390863">
        <ele>731.5</ele>
        <time>2003-04-19T16:29:03Z</time>
      </trkpt>
      <trkpt lat="33.974727038294077" lon="-3.233892973512411">
        <ele>732</ele>
        <time>2003-04-19T16:29:04Z</time>
      </trkpt>
      <trkpt lat="33.974553029984236" lon="-3.233530037105084">
        <ele>732.89999999999998</ele>
        <time>2003-04-19T16:29:07Z</time>
      </trkpt>
      <trkpt lat="33.974238038063049" lon="-3.232720009982586">
        <ele>734.20000000000005</ele>
        <time>2003-04-19T16:29:15Z</time>
      </trkpt>
      <trkpt lat="33.974175006151199" lon="-3.232567962259054">
        <ele>734.39999999999998</ele>
        <time>2003-04-19T16:29:16Z</time>
      </trkpt>
      <trkpt lat="33.974129995331168" lon="-3.232452040538192">
        <ele>734.70000000000005</ele>
        <time>2003-04-19T16:29:19Z</time>
      </trkpt>
      <trkpt lat="33.974092025309801" lon="-3.232339974492788">
        <ele>734.89999999999998</ele>
        <time>2003-04-19T16:29:24Z</time>
      </trkpt>
      <trkpt lat="33.97402698174119" lon="-3.232115004211664">
        <ele>735.20000000000005</ele>
        <time>2003-04-19T16:29:31Z</time>
      </trkpt>
      <trkpt lat="33.973996974527836" lon="-3.231982989236713">
        <ele>735.39999999999998</ele>
        <time>2003-04-19T16:29:33Z</time>
      </trkpt>
      <trkpt lat="33.973952969536185" lon="-3.231752989813685">
        <ele>735.70000000000005</ele>
        <time>2003-04-19T16:29:35Z</time>
      </trkpt>
      <trkpt lat="33.973903013393283" lon="-3.231546962633729">
        <ele>735.89999999999998</ele>
        <time>2003-04-19T16:29:38Z</time>
      </trkpt>
      <trkpt lat="33.973807040601969" lon="-3.231185032054782">
        <ele>736.39999999999998</ele>
        <time>2003-04-19T16:29:41Z</time>
      </trkpt>
      <trkpt lat="33.973696986213326" lon="-3.23064498603344">
        <ele>737.20000000000005</ele>
        <time>2003-04-19T16:29:45Z</time>
      </trkpt>
      <trkpt lat="33.973507974296808" lon="-3.229443021118641">
        <ele>739</ele>
        <time>2003-04-19T16:29:53Z</time>
      </trkpt>
      <trkpt lat="33.973437985405326" lon="-3.229067008942366">
        <ele>739.5</ele>
        <time>2003-04-19T16:29:56Z</time>
      </trkpt>
      <trkpt lat="33.973304964601994" lon="-3.22845202870667">
        <ele>740.39999999999998</ele>
        <time>2003-04-19T16:30:01Z</time>
      </trkpt>
      <trkpt lat="33.973251990973949" lon="-3.22823996655643">
        <ele>740.5</ele>
        <time>2003-04-19T16:30:02Z</time>
      </trkpt>
      <trkpt lat="33.973192982375622" lon="-3.228147011250258">
        <ele>740.5</ele>
        <time>2003-04-19T16:30:04Z</time>
      </trkpt>
      <trkpt lat="33.973119975998998" lon="-3.228066964074969">
        <ele>740.60000000000002</ele>
        <time>2003-04-19T16:30:05Z</time>
      </trkpt>
      <trkpt lat="33.973055016249418" lon="-3.227969985455275">
        <ele>740.79999999999995</ele>
        <time>2003-04-19T16:30:05Z</time>
      </trkpt>
      <trkpt lat="33.972947979345918" lon="-3.227757001295686">
        <ele>741.10000000000002</ele>
        <time>2003-04-19T16:30:08Z</time>
      </trkpt>
      <trkpt lat="33.972607003524899" lon="-3.226947980001569">
        <ele>742.60000000000002</ele>
        <time>2003-04-19T16:30:14Z</time>
      </trkpt>
      <trkpt lat="33.972487980499864" lon="-3.226631982252002">
        <ele>743.10000000000002</ele>
        <time>2003-04-19T16:30:17Z</time>
      </trkpt>
      <trkpt lat="33.97237197495997" lon="-3.226482030004263">
        <ele>743.60000000000002</ele>
        <time>2003-04-19T16:30:20Z</time>
      </trkpt>
      <trkpt lat="33.972312966361642" lon="-3.226387985050678">
        <ele>743.70000000000005</ele>
        <time>2003-04-19T16:30:21Z</time>
      </trkpt>
      <trkpt lat="33.972269967198372" lon="-3.226274996995926">
        <ele>743.79999999999995</ele>
        <time>2003-04-19T16:30:21Z</time>
      </trkpt>
      <trkpt lat="33.971939971670508" lon="-3.225212004035711">
        <ele>745.70000000000005</ele>
        <time>2003-04-19T16:30:31Z</time>
      </trkpt>
      <trkpt lat="33.971860008314252" lon="-3.225022992119193">
        <ele>745.79999999999995</ele>
        <time>2003-04-19T16:30:32Z</time>
      </trkpt>
      <trkpt lat="33.971788007766008" lon="-3.224937999621034">
        <ele>746</ele>
        <time>2003-04-19T16:30:33Z</time>
      </trkpt>
      <trkpt lat="33.971592038869858" lon="-3.224659971892834">
        <ele>747</ele>
        <time>2003-04-19T16:30:36Z</time>
      </trkpt>
      <trkpt lat="33.971428005024791" lon="-3.224226962774992">
        <ele>747.70000000000005</ele>
        <time>2003-04-19T16:30:40Z</time>
      </trkpt>
      <trkpt lat="33.971324991434813" lon="-3.223478039726615">
        <ele>748.79999999999995</ele>
        <time>2003-04-19T16:30:47Z</time>
      </trkpt>
      <trkpt lat="33.971330020576715" lon="-3.222370035946369">
        <ele>750.5</ele>
        <time>2003-04-19T16:30:55Z</time>
      </trkpt>
      <trkpt lat="33.971315016970038" lon="-3.22179302573204">
        <ele>751.10000000000002</ele>
        <time>2003-04-19T16:30:59Z</time>
      </trkpt>
      <trkpt lat="33.971242010593414" lon="-3.221172010526061">
        <ele>750.5</ele>
        <time>2003-04-19T16:31:03Z</time>
      </trkpt>
      <trkpt lat="33.971218038350344" lon="-3.221013005822897">
        <ele>749.89999999999998</ele>
        <time>2003-04-19T16:31:06Z</time>
      </trkpt>
      <trkpt lat="33.971242010593414" lon="-3.220832040533423">
        <ele>751</ele>
        <time>2003-04-19T16:31:07Z</time>
      </trkpt>
      <trkpt lat="33.971236981451511" lon="-3.220643028616905">
        <ele>751.89999999999998</ele>
        <time>2003-04-19T16:31:10Z</time>
      </trkpt>
      <trkpt lat="33.971172021701932" lon="-3.220440018922091">
        <ele>752.29999999999995</ele>
        <time>2003-04-19T16:31:11Z</time>
      </trkpt>
      <trkpt lat="33.97110203281045" lon="-3.220204990357161">
        <ele>752.79999999999995</ele>
        <time>2003-04-19T16:31:14Z</time>
      </trkpt>
      <trkpt lat="33.97106196731329" lon="-3.219929980114102">
        <ele>753.10000000000002</ele>
        <time>2003-04-19T16:31:15Z</time>
      </trkpt>
      <trkpt lat="33.970961971208453" lon="-3.219322040677071">
        <ele>753.60000000000002</ele>
        <time>2003-04-19T16:31:19Z</time>
      </trkpt>
      <trkpt lat="33.970862980931997" lon="-3.219058010727167">
        <ele>754</ele>
        <time>2003-04-19T16:31:22Z</time>
      </trkpt>
      <trkpt lat="33.970742030069232" lon="-3.218722986057401">
        <ele>754.10000000000002</ele>
        <time>2003-04-19T16:31:25Z</time>
      </trkpt>
      <trkpt lat="33.970600040629506" lon="-3.218176988884807">
        <ele>755.20000000000005</ele>
        <time>2003-04-19T16:31:29Z</time>
      </trkpt>
      <trkpt lat="33.970205001533031" lon="-3.217122964560986">
        <ele>756.70000000000005</ele>
        <time>2003-04-19T16:31:37Z</time>
      </trkpt>
      <trkpt lat="33.97018002346158" lon="-3.217000002041459">
        <ele>756.70000000000005</ele>
        <time>2003-04-19T16:31:38Z</time>
      </trkpt>
      <trkpt lat="33.97011699154973" lon="-3.216664977371693">
        <ele>756.29999999999995</ele>
        <time>2003-04-19T16:31:41Z</time>
      </trkpt>
      <trkpt lat="33.9700080268085" lon="-3.216494992375374">
        <ele>756.5</ele>
        <time>2003-04-19T16:31:42Z</time>
      </trkpt>
      <trkpt lat="33.969803005456924" lon="-3.216172959655523">
        <ele>755.29999999999995</ele>
        <time>2003-04-19T16:31:46Z</time>
      </trkpt>
      <trkpt lat="33.969762017950416" lon="-3.215987971052527">
        <ele>756.29999999999995</ele>
        <time>2003-04-19T16:31:49Z</time>
      </trkpt>
      <trkpt lat="33.969748020172119" lon="-3.2157579716295">
        <ele>756.10000000000002</ele>
        <time>2003-04-19T16:31:50Z</time>
      </trkpt>
      <trkpt lat="33.969724969938397" lon="-3.215632997453213">
        <ele>756.10000000000002</ele>
        <time>2003-04-19T16:31:52Z</time>
      </trkpt>
      <trkpt lat="33.969590021297336" lon="-3.215093035250902">
        <ele>756.79999999999995</ele>
        <time>2003-04-19T16:31:56Z</time>
      </trkpt>
      <trkpt lat="33.969349963590503" lon="-3.214582996442914">
        <ele>758.29999999999995</ele>
        <time>2003-04-19T16:32:00Z</time>
      </trkpt>
      <trkpt lat="33.969203028827906" lon="-3.214342016726732">
        <ele>758.89999999999998</ele>
        <time>2003-04-19T16:32:01Z</time>
      </trkpt>
      <trkpt lat="33.968906980007887" lon="-3.213882017880678">
        <ele>759.79999999999995</ele>
        <time>2003-04-19T16:32:05Z</time>
      </trkpt>
      <trkpt lat="33.968701958656311" lon="-3.213395029306412">
        <ele>760.60000000000002</ele>
        <time>2003-04-19T16:32:09Z</time>
      </trkpt>
      <trkpt lat="33.968687960878015" lon="-3.213269971311092">
        <ele>761</ele>
        <time>2003-04-19T16:32:11Z</time>
      </trkpt>
      <trkpt lat="33.968638004735112" lon="-3.213075008243322">
        <ele>760.89999999999998</ele>
        <time>2003-04-19T16:32:13Z</time>
      </trkpt>
      <trkpt lat="33.96856801584363" lon="-3.212896976619959">
        <ele>760.79999999999995</ele>
        <time>2003-04-19T16:32:15Z</time>
      </trkpt>
      <trkpt lat="33.968404987826943" lon="-3.212628001347184">
        <ele>761.39999999999998</ele>
        <time>2003-04-19T16:32:17Z</time>
      </trkpt>
      <trkpt lat="33.968319995328784" lon="-3.212560024112463">
        <ele>761.79999999999995</ele>
        <time>2003-04-19T16:32:19Z</time>
      </trkpt>
      <trkpt lat="33.967963010072708" lon="-3.212206978350878">
        <ele>762.5</ele>
        <time>2003-04-19T16:32:24Z</time>
      </trkpt>
      <trkpt lat="33.967892015352845" lon="-3.21201796643436">
        <ele>762.39999999999998</ele>
        <time>2003-04-19T16:32:25Z</time>
      </trkpt>
      <trkpt lat="33.96783703006804" lon="-3.211807999759913">
        <ele>761.89999999999998</ele>
        <time>2003-04-19T16:32:28Z</time>
      </trkpt>
      <trkpt lat="33.967799982056022" lon="-3.21150197647512">
        <ele>762.29999999999995</ele>
        <time>2003-04-19T16:32:31Z</time>
      </trkpt>
      <trkpt lat="33.967738039791584" lon="-3.211235012859106">
        <ele>761.89999999999998</ele>
        <time>2003-04-19T16:32:33Z</time>
      </trkpt>
      <trkpt lat="33.967718007043004" lon="-3.210863023996353">
        <ele>763.20000000000005</ele>
        <time>2003-04-19T16:32:38Z</time>
      </trkpt>
      <trkpt lat="33.967696968466043" lon="-3.210707036778331">
        <ele>761.79999999999995</ele>
        <time>2003-04-19T16:32:40Z</time>
      </trkpt>
      <trkpt lat="33.967675007879734" lon="-3.21034200489521">
        <ele>763.89999999999998</ele>
        <time>2003-04-19T16:32:43Z</time>
      </trkpt>
      <trkpt lat="33.967512985691428" lon="-3.209897009655833">
        <ele>764.5</ele>
        <time>2003-04-19T16:32:50Z</time>
      </trkpt>
      <trkpt lat="33.967087017372251" lon="-3.209025040268898">
        <ele>765.70000000000005</ele>
        <time>2003-04-19T16:33:00Z</time>
      </trkpt>
      <trkpt lat="33.966952990740538" lon="-3.208677023649216">
        <ele>766.20000000000005</ele>
        <time>2003-04-19T16:33:05Z</time>
      </trkpt>
      <trkpt lat="33.966858023777604" lon="-3.208526987582445">
        <ele>766.39999999999998</ele>
        <time>2003-04-19T16:33:07Z</time>
      </trkpt>
      <trkpt lat="33.966421997174621" lon="-3.207755014300346">
        <ele>768.70000000000005</ele>
        <time>2003-04-19T16:33:15Z</time>
      </trkpt>
      <trkpt lat="33.96635502576828" lon="-3.207540018483996">
        <ele>769.20000000000005</ele>
        <time>2003-04-19T16:33:18Z</time>
      </trkpt>
      <trkpt lat="33.966250000521541" lon="-3.207125030457974">
        <ele>770.20000000000005</ele>
        <time>2003-04-19T16:33:22Z</time>
      </trkpt>
      <trkpt lat="33.966229967772961" lon="-3.206848008558154">
        <ele>770.10000000000002</ele>
        <time>2003-04-19T16:33:25Z</time>
      </trkpt>
      <trkpt lat="33.966123014688492" lon="-3.206701995804906">
        <ele>770.39999999999998</ele>
        <time>2003-04-19T16:33:26Z</time>
      </trkpt>
      <trkpt lat="33.966020001098514" lon="-3.206518013030291">
        <ele>770.79999999999995</ele>
        <time>2003-04-19T16:33:29Z</time>
      </trkpt>
      <trkpt lat="33.965950012207031" lon="-3.206294970586896">
        <ele>771.20000000000005</ele>
        <time>2003-04-19T16:33:30Z</time>
      </trkpt>
      <trkpt lat="33.965693023055792" lon="-3.205323005095124">
        <ele>772.70000000000005</ele>
        <time>2003-04-19T16:33:40Z</time>
      </trkpt>
      <trkpt lat="33.96564700640738" lon="-3.205110020935535">
        <ele>772.89999999999998</ele>
        <time>2003-04-19T16:33:41Z</time>
      </trkpt>
      <trkpt lat="33.965601995587349" lon="-3.20501497015357">
        <ele>773.20000000000005</ele>
        <time>2003-04-19T16:33:42Z</time>
      </trkpt>
      <trkpt lat="33.965126993134618" lon="-3.203997993841767">
        <ele>775.10000000000002</ele>
        <time>2003-04-19T16:33:53Z</time>
      </trkpt>
      <trkpt lat="33.965073013678193" lon="-3.203822979703546">
        <ele>775.10000000000002</ele>
        <time>2003-04-19T16:33:54Z</time>
      </trkpt>
      <trkpt lat="33.965000007301569" lon="-3.203558027744293">
        <ele>775</ele>
        <time>2003-04-19T16:33:57Z</time>
      </trkpt>
      <trkpt lat="33.964947033673525" lon="-3.203370021656156">
        <ele>776.39999999999998</ele>
        <time>2003-04-19T16:34:00Z</time>
      </trkpt>
      <trkpt lat="33.964843014255166" lon="-3.203206993639469">
        <ele>777</ele>
        <time>2003-04-19T16:34:01Z</time>
      </trkpt>
      <trkpt lat="33.964742012321949" lon="-3.203014964237809">
        <ele>777.20000000000005</ele>
        <time>2003-04-19T16:34:04Z</time>
      </trkpt>
      <trkpt lat="33.964613014832139" lon="-3.202810026705265">
        <ele>777.60000000000002</ele>
        <time>2003-04-19T16:34:05Z</time>
      </trkpt>
      <trkpt lat="33.964344961568713" lon="-3.202381962910295">
        <ele>778.89999999999998</ele>
        <time>2003-04-19T16:34:09Z</time>
      </trkpt>
      <trkpt lat="33.963898038491607" lon="-3.201436987146735">
        <ele>780.60000000000002</ele>
        <time>2003-04-19T16:34:17Z</time>
      </trkpt>
      <trkpt lat="33.963642977178097" lon="-3.200856959447265">
        <ele>782</ele>
        <time>2003-04-19T16:34:23Z</time>
      </trkpt>
      <trkpt lat="33.963452037423849" lon="-3.200277015566826">
        <ele>782.79999999999995</ele>
        <time>2003-04-19T16:34:28Z</time>
      </trkpt>
      <trkpt lat="33.963371990248561" lon="-3.200193028897047">
        <ele>783</ele>
        <time>2003-04-19T16:34:28Z</time>
      </trkpt>
      <trkpt lat="33.962958008050919" lon="-3.199779968708754">
        <ele>784.5</ele>
        <time>2003-04-19T16:34:34Z</time>
      </trkpt>
      <trkpt lat="33.962843008339405" lon="-3.199567990377545">
        <ele>785</ele>
        <time>2003-04-19T16:34:35Z</time>
      </trkpt>
      <trkpt lat="33.962598005309701" lon="-3.199151996523142">
        <ele>786</ele>
        <time>2003-04-19T16:34:39Z</time>
      </trkpt>
      <trkpt lat="33.962185028940439" lon="-3.198561994358897">
        <ele>787.89999999999998</ele>
        <time>2003-04-19T16:34:46Z</time>
      </trkpt>
      <trkpt lat="33.962032981216908" lon="-3.19835202768445">
        <ele>788.39999999999998</ele>
        <time>2003-04-19T16:34:47Z</time>
      </trkpt>
      <trkpt lat="33.961427975445986" lon="-3.197479974478483">
        <ele>790.89999999999998</ele>
        <time>2003-04-19T16:34:55Z</time>
      </trkpt>
      <trkpt lat="33.961214991286397" lon="-3.197161965072155">
        <ele>791.29999999999995</ele>
        <time>2003-04-19T16:34:58Z</time>
      </trkpt>
      <trkpt lat="33.960935035720468" lon="-3.196776984259486">
        <ele>792.29999999999995</ele>
        <time>2003-04-19T16:35:02Z</time>
      </trkpt>
      <trkpt lat="33.960860017687082" lon="-3.196542961522937">
        <ele>792.79999999999995</ele>
        <time>2003-04-19T16:35:05Z</time>
      </trkpt>
      <trkpt lat="33.960567992180586" lon="-3.195466976612806">
        <ele>794.60000000000002</ele>
        <time>2003-04-19T16:35:13Z</time>
      </trkpt>
      <trkpt lat="33.960213018581271" lon="-3.194327959790826">
        <ele>796.89999999999998</ele>
        <time>2003-04-19T16:35:21Z</time>
      </trkpt>
      <trkpt lat="33.960102964192629" lon="-3.194083040580154">
        <ele>797.60000000000002</ele>
        <time>2003-04-19T16:35:22Z</time>
      </trkpt>
      <trkpt lat="33.959962986409664" lon="-3.193732006475329">
        <ele>798.39999999999998</ele>
        <time>2003-04-19T16:35:25Z</time>
      </trkpt>
      <trkpt lat="33.959927028045058" lon="-3.193452972918749">
        <ele>798.70000000000005</ele>
        <time>2003-04-19T16:35:28Z</time>
      </trkpt>
      <trkpt lat="33.959768023341894" lon="-3.19233700633049">
        <ele>800.79999999999995</ele>
        <time>2003-04-19T16:35:36Z</time>
      </trkpt>
      <trkpt lat="33.959722006693482" lon="-3.192217983305454">
        <ele>800.89999999999998</ele>
        <time>2003-04-19T16:35:37Z</time>
      </trkpt>
      <trkpt lat="33.959595020860434" lon="-3.191825039684773">
        <ele>801</ele>
        <time>2003-04-19T16:35:40Z</time>
      </trkpt>
      <trkpt lat="33.959342977032065" lon="-3.190688034519553">
        <ele>802.89999999999998</ele>
        <time>2003-04-19T16:35:48Z</time>
      </trkpt>
      <trkpt lat="33.959208028391004" lon="-3.190091997385025">
        <ele>803.70000000000005</ele>
        <time>2003-04-19T16:35:52Z</time>
      </trkpt>
      <trkpt lat="33.959067966789007" lon="-3.189433012157679">
        <ele>804.29999999999995</ele>
        <time>2003-04-19T16:35:59Z</time>
      </trkpt>
      <trkpt lat="33.95909202285111" lon="-3.189224973320961">
        <ele>805.29999999999995</ele>
        <time>2003-04-19T16:36:00Z</time>
      </trkpt>
      <trkpt lat="33.959118006750941" lon="-3.188560036942363">
        <ele>806.70000000000005</ele>
        <time>2003-04-19T16:36:07Z</time>
      </trkpt>
      <trkpt lat="33.95909302867949" lon="-3.188316961750388">
        <ele>807.20000000000005</ele>
        <time>2003-04-19T16:36:08Z</time>
      </trkpt>
      <trkpt lat="33.95898699760437" lon="-3.187145004048944">
        <ele>808.29999999999995</ele>
        <time>2003-04-19T16:36:18Z</time>
      </trkpt>
      <trkpt lat="33.95896696485579" lon="-3.186049992218614">
        <ele>810.20000000000005</ele>
        <time>2003-04-19T16:36:26Z</time>
      </trkpt>
      <trkpt lat="33.958908040076494" lon="-3.185838013887405">
        <ele>810.29999999999995</ele>
        <time>2003-04-19T16:36:28Z</time>
      </trkpt>
      <trkpt lat="33.95885699428618" lon="-3.185640033334494">
        <ele>811.20000000000005</ele>
        <time>2003-04-19T16:36:31Z</time>
      </trkpt>
      <trkpt lat="33.958741994574666" lon="-3.185305008664727">
        <ele>811.89999999999998</ele>
        <time>2003-04-19T16:36:32Z</time>
      </trkpt>
      <trkpt lat="33.958602016791701" lon="-3.185105016455054">
        <ele>812.60000000000002</ele>
        <time>2003-04-19T16:36:35Z</time>
      </trkpt>
      <trkpt lat="33.95842700265348" lon="-3.184822965413332">
        <ele>812.60000000000002</ele>
        <time>2003-04-19T16:36:38Z</time>
      </trkpt>
      <trkpt lat="33.958302028477192" lon="-3.184628002345562">
        <ele>813.5</ele>
        <time>2003-04-19T16:36:39Z</time>
      </trkpt>
      <trkpt lat="33.957900032401085" lon="-3.184007992967963">
        <ele>815.70000000000005</ele>
        <time>2003-04-19T16:36:46Z</time>
      </trkpt>
      <trkpt lat="33.957823002710938" lon="-3.183759972453117">
        <ele>816.5</ele>
        <time>2003-04-19T16:36:47Z</time>
      </trkpt>
      <trkpt lat="33.957727029919624" lon="-3.183522010222077">
        <ele>816.60000000000002</ele>
        <time>2003-04-19T16:36:50Z</time>
      </trkpt>
      <trkpt lat="33.957502981647849" lon="-3.183084977790713">
        <ele>817.60000000000002</ele>
        <time>2003-04-19T16:36:54Z</time>
      </trkpt>
      <trkpt lat="33.957320004701614" lon="-3.182762023061514">
        <ele>818.20000000000005</ele>
        <time>2003-04-19T16:36:57Z</time>
      </trkpt>
      <trkpt lat="33.957297038286924" lon="-3.182632019743323">
        <ele>818.89999999999998</ele>
        <time>2003-04-19T16:36:58Z</time>
      </trkpt>
      <trkpt lat="33.957257978618145" lon="-3.182507967576385">
        <ele>818.89999999999998</ele>
        <time>2003-04-19T16:36:59Z</time>
      </trkpt>
      <trkpt lat="33.957190001383424" lon="-3.182402020320296">
        <ele>819.29999999999995</ele>
        <time>2003-04-19T16:36:59Z</time>
      </trkpt>
      <trkpt lat="33.957108026370406" lon="-3.182309987023473">
        <ele>819.79999999999995</ele>
        <time>2003-04-19T16:37:02Z</time>
      </trkpt>
      <trkpt lat="33.956792028620839" lon="-3.181931963190436">
        <ele>820.79999999999995</ele>
        <time>2003-04-19T16:37:05Z</time>
      </trkpt>
      <trkpt lat="33.956579966470599" lon="-3.181617977097631">
        <ele>822.39999999999998</ele>
        <time>2003-04-19T16:37:08Z</time>
      </trkpt>
      <trkpt lat="33.95649204030633" lon="-3.181547988206148">
        <ele>822.89999999999998</ele>
        <time>2003-04-19T16:37:09Z</time>
      </trkpt>
      <trkpt lat="33.956354996189475" lon="-3.181402981281281">
        <ele>823.60000000000002</ele>
        <time>2003-04-19T16:37:12Z</time>
      </trkpt>
      <trkpt lat="33.956291964277625" lon="-3.181242970749736">
        <ele>823</ele>
        <time>2003-04-19T16:37:13Z</time>
      </trkpt>
      <trkpt lat="33.95621501840651" lon="-3.180953040719032">
        <ele>824.39999999999998</ele>
        <time>2003-04-19T16:37:17Z</time>
      </trkpt>
      <trkpt lat="33.956202026456594" lon="-3.180837035179138">
        <ele>824.39999999999998</ele>
        <time>2003-04-19T16:37:17Z</time>
      </trkpt>
      <trkpt lat="33.956204960122705" lon="-3.180669983848929">
        <ele>825.20000000000005</ele>
        <time>2003-04-19T16:37:56Z</time>
      </trkpt>
      <trkpt lat="33.956219963729382" lon="-3.180537968873978">
        <ele>823.60000000000002</ele>
        <time>2003-04-19T16:38:00Z</time>
      </trkpt>
      <trkpt lat="33.956264974549413" lon="-3.180390028283">
        <ele>821.79999999999995</ele>
        <time>2003-04-19T16:38:03Z</time>
      </trkpt>
      <trkpt lat="33.956327000632882" lon="-3.180273016914725">
        <ele>820.89999999999998</ele>
        <time>2003-04-19T16:38:06Z</time>
      </trkpt>
      <trkpt lat="33.956379974260926" lon="-3.180136978626251">
        <ele>820.10000000000002</ele>
        <time>2003-04-19T16:38:08Z</time>
      </trkpt>
      <trkpt lat="33.956420039758086" lon="-3.1800049636513">
        <ele>820.39999999999998</ele>
        <time>2003-04-19T16:38:11Z</time>
      </trkpt>
      <trkpt lat="33.956518024206161" lon="-3.179738000035286">
        <ele>818.20000000000005</ele>
        <time>2003-04-19T16:38:15Z</time>
      </trkpt>
      <trkpt lat="33.956599999219179" lon="-3.179623000323772">
        <ele>818.39999999999998</ele>
        <time>2003-04-19T16:38:16Z</time>
      </trkpt>
      <trkpt lat="33.956807032227516" lon="-3.179356958717108">
        <ele>818.79999999999995</ele>
        <time>2003-04-19T16:38:22Z</time>
      </trkpt>
      <trkpt lat="33.95688003860414" lon="-3.179071974009275">
        <ele>819.20000000000005</ele>
        <time>2003-04-19T16:38:26Z</time>
      </trkpt>
      <trkpt lat="33.956888001412153" lon="-3.178792018443346">
        <ele>820.60000000000002</ele>
        <time>2003-04-19T16:38:29Z</time>
      </trkpt>
      <trkpt lat="33.956937035545707" lon="-3.178381975740194">
        <ele>821.20000000000005</ele>
        <time>2003-04-19T16:38:33Z</time>
      </trkpt>
      <trkpt lat="33.956867968663573" lon="-3.178205033764243">
        <ele>822.39999999999998</ele>
        <time>2003-04-19T16:38:34Z</time>
      </trkpt>
      <trkpt lat="33.956727990880609" lon="-3.177966987714171">
        <ele>823.5</ele>
        <time>2003-04-19T16:38:38Z</time>
      </trkpt>
      <trkpt lat="33.956590024754405" lon="-3.177849976345897">
        <ele>824</ele>
        <time>2003-04-19T16:38:39Z</time>
      </trkpt>
      <trkpt lat="33.956442000344396" lon="-3.177789961919189">
        <ele>824.10000000000002</ele>
        <time>2003-04-19T16:38:42Z</time>
      </trkpt>
      <trkpt lat="33.956315014511347" lon="-3.177715027704835">
        <ele>824.20000000000005</ele>
        <time>2003-04-19T16:38:43Z</time>
      </trkpt>
      <trkpt lat="33.956191968172789" lon="-3.177592987194657">
        <ele>824.39999999999998</ele>
        <time>2003-04-19T16:38:46Z</time>
      </trkpt>
      <trkpt lat="33.955743033438921" lon="-3.177072973921895">
        <ele>826.70000000000005</ele>
        <time>2003-04-19T16:38:53Z</time>
      </trkpt>
      <trkpt lat="33.955513034015894" lon="-3.176887985318899">
        <ele>827.10000000000002</ele>
        <time>2003-04-19T16:38:56Z</time>
      </trkpt>
      <trkpt lat="33.955387976020575" lon="-3.176705008372665">
        <ele>827.79999999999995</ele>
        <time>2003-04-19T16:38:58Z</time>
      </trkpt>
      <trkpt lat="33.955086981877685" lon="-3.176264958456159">
        <ele>828.89999999999998</ele>
        <time>2003-04-19T16:39:02Z</time>
      </trkpt>
      <trkpt lat="33.954963013529778" lon="-3.17609497345984">
        <ele>829.39999999999998</ele>
        <time>2003-04-19T16:39:05Z</time>
      </trkpt>
      <trkpt lat="33.954922026023269" lon="-3.175988020375371">
        <ele>829.70000000000005</ele>
        <time>2003-04-19T16:39:05Z</time>
      </trkpt>
      <trkpt lat="33.954869974404573" lon="-3.175755003467202">
        <ele>830</ele>
        <time>2003-04-19T16:39:08Z</time>
      </trkpt>
      <trkpt lat="33.954763021320105" lon="-3.175410004332662">
        <ele>830.79999999999995</ele>
        <time>2003-04-19T16:39:10Z</time>
      </trkpt>
      <trkpt lat="33.95432498306036" lon="-3.174501992762089">
        <ele>832.79999999999995</ele>
        <time>2003-04-19T16:39:20Z</time>
      </trkpt>
      <trkpt lat="33.954098001122475" lon="-3.173877038061619">
        <ele>835.60000000000002</ele>
        <time>2003-04-19T16:39:25Z</time>
      </trkpt>
      <trkpt lat="33.953991970047355" lon="-3.173702023923397">
        <ele>836.10000000000002</ele>
        <time>2003-04-19T16:39:28Z</time>
      </trkpt>
      <trkpt lat="33.953962968662381" lon="-3.173598004505038">
        <ele>836.29999999999995</ele>
        <time>2003-04-19T16:39:28Z</time>
      </trkpt>
      <trkpt lat="33.953949976712465" lon="-3.173487028107047">
        <ele>836.5</ele>
        <time>2003-04-19T16:39:29Z</time>
      </trkpt>
      <trkpt lat="33.953900020569563" lon="-3.17325996235013">
        <ele>836.60000000000002</ele>
        <time>2003-04-19T16:39:32Z</time>
      </trkpt>
      <trkpt lat="33.953881999477744" lon="-3.173138005658984">
        <ele>836.79999999999995</ele>
        <time>2003-04-19T16:39:32Z</time>
      </trkpt>
      <trkpt lat="33.953887028619647" lon="-3.173012025654316">
        <ele>836.79999999999995</ele>
        <time>2003-04-19T16:39:33Z</time>
      </trkpt>
      <trkpt lat="33.953885016962886" lon="-3.17263500764966">
        <ele>836.60000000000002</ele>
        <time>2003-04-19T16:39:36Z</time>
      </trkpt>
      <trkpt lat="33.95385199226439" lon="-3.172511961311102">
        <ele>837.5</ele>
        <time>2003-04-19T16:39:37Z</time>
      </trkpt>
      <trkpt lat="33.953777980059385" lon="-3.172177020460367">
        <ele>838.60000000000002</ele>
        <time>2003-04-19T16:39:40Z</time>
      </trkpt>
      <trkpt lat="33.953782003372908" lon="-3.171997983008623">
        <ele>838.79999999999995</ele>
        <time>2003-04-19T16:39:43Z</time>
      </trkpt>
      <trkpt lat="33.953734980896115" lon="-3.17183998413384">
        <ele>839</ele>
        <time>2003-04-19T16:39:44Z</time>
      </trkpt>
      <trkpt lat="33.953647976741195" lon="-3.171697994694114">
        <ele>839.60000000000002</ele>
        <time>2003-04-19T16:39:47Z</time>
      </trkpt>
      <trkpt lat="33.953559966757894" lon="-3.171554999426007">
        <ele>840.20000000000005</ele>
        <time>2003-04-19T16:39:48Z</time>
      </trkpt>
      <trkpt lat="33.953417977318168" lon="-3.171332040801644">
        <ele>841</ele>
        <time>2003-04-19T16:39:52Z</time>
      </trkpt>
      <trkpt lat="33.953044982627034" lon="-3.17078797146678">
        <ele>842.39999999999998</ele>
        <time>2003-04-19T16:39:59Z</time>
      </trkpt>
      <trkpt lat="33.95297197625041" lon="-3.170674983412027">
        <ele>842.70000000000005</ele>
        <time>2003-04-19T16:40:00Z</time>
      </trkpt>
      <trkpt lat="33.952893018722534" lon="-3.170531988143921">
        <ele>842.79999999999995</ele>
        <time>2003-04-19T16:40:03Z</time>
      </trkpt>
      <trkpt lat="33.952724961563945" lon="-3.170265024527907">
        <ele>843.70000000000005</ele>
        <time>2003-04-19T16:40:08Z</time>
      </trkpt>
      <trkpt lat="33.952612979337573" lon="-3.169977022334933">
        <ele>843.60000000000002</ele>
        <time>2003-04-19T16:40:14Z</time>
      </trkpt>
      <trkpt lat="33.952517006546259" lon="-3.169775018468499">
        <ele>844.70000000000005</ele>
        <time>2003-04-19T16:40:17Z</time>
      </trkpt>
      <trkpt lat="33.952309973537922" lon="-3.169424990192056">
        <ele>845.20000000000005</ele>
        <time>2003-04-19T16:40:22Z</time>
      </trkpt>
      <trkpt lat="33.952212994918227" lon="-3.169131958857179">
        <ele>846.29999999999995</ele>
        <time>2003-04-19T16:40:26Z</time>
      </trkpt>
      <trkpt lat="33.952200002968311" lon="-3.168979994952679">
        <ele>846.5</ele>
        <time>2003-04-19T16:40:27Z</time>
      </trkpt>
      <trkpt lat="33.952202014625072" lon="-3.168821996077895">
        <ele>846.79999999999995</ele>
        <time>2003-04-19T16:40:30Z</time>
      </trkpt>
      <trkpt lat="33.952237972989678" lon="-3.168585039675236">
        <ele>847.70000000000005</ele>
        <time>2003-04-19T16:40:33Z</time>
      </trkpt>
      <trkpt lat="33.952292036265135" lon="-3.168435003608465">
        <ele>848.5</ele>
        <time>2003-04-19T16:40:34Z</time>
      </trkpt>
      <trkpt lat="33.952399995177984" lon="-3.168216990306974">
        <ele>849.10000000000002</ele>
        <time>2003-04-19T16:40:38Z</time>
      </trkpt>
      <trkpt lat="33.952452968806028" lon="-3.168063014745712">
        <ele>849.70000000000005</ele>
        <time>2003-04-19T16:40:39Z</time>
      </trkpt>
      <trkpt lat="33.952535027638078" lon="-3.167677028104663">
        <ele>851.20000000000005</ele>
        <time>2003-04-19T16:40:45Z</time>
      </trkpt>
      <trkpt lat="33.952533015981317" lon="-3.167469995096326">
        <ele>852.10000000000002</ele>
        <time>2003-04-19T16:40:48Z</time>
      </trkpt>
      <trkpt lat="33.952509965747595" lon="-3.167260028421879">
        <ele>852.79999999999995</ele>
        <time>2003-04-19T16:40:52Z</time>
      </trkpt>
      <trkpt lat="33.952590012922883" lon="-3.167107980698347">
        <ele>854</ele>
        <time>2003-04-19T16:41:04Z</time>
      </trkpt>
      <trkpt lat="33.952681962400675" lon="-3.167164977639914">
        <ele>853.60000000000002</ele>
        <time>2003-04-19T16:41:05Z</time>
      </trkpt>
      <trkpt lat="33.952802997082472" lon="-3.167236978188157">
        <ele>853.39999999999998</ele>
        <time>2003-04-19T16:41:08Z</time>
      </trkpt>
      <trkpt lat="33.953120000660419" lon="-3.167377039790154">
        <ele>853</ele>
        <time>2003-04-19T16:41:13Z</time>
      </trkpt>
      <trkpt lat="33.953574970364571" lon="-3.167587006464601">
        <ele>853.39999999999998</ele>
        <time>2003-04-19T16:41:20Z</time>
      </trkpt>
      <trkpt lat="33.954451968893409" lon="-3.16799302585423">
        <ele>854</ele>
        <time>2003-04-19T16:41:32Z</time>
      </trkpt>
      <trkpt lat="33.954745000228286" lon="-3.168129986152053">
        <ele>853.5</ele>
        <time>2003-04-19T16:41:35Z</time>
      </trkpt>
      <trkpt lat="33.955629961565137" lon="-3.168550003319979">
        <ele>853.10000000000002</ele>
        <time>2003-04-19T16:41:43Z</time>
      </trkpt>
      <trkpt lat="33.955868007615209" lon="-3.168642958626151">
        <ele>852.70000000000005</ele>
        <time>2003-04-19T16:41:44Z</time>
      </trkpt>
      <trkpt lat="33.956379974260926" lon="-3.16889701411128">
        <ele>851.89999999999998</ele>
        <time>2003-04-19T16:41:48Z</time>
      </trkpt>
      <trkpt lat="33.956647021695971" lon="-3.16902500577271">
        <ele>852.89999999999998</ele>
        <time>2003-04-19T16:41:51Z</time>
      </trkpt>
      <trkpt lat="33.956999983638525" lon="-3.169162971898913">
        <ele>852.5</ele>
        <time>2003-04-19T16:41:54Z</time>
      </trkpt>
      <trkpt lat="33.957207016646862" lon="-3.169275037944317">
        <ele>852.60000000000002</ele>
        <time>2003-04-19T16:41:55Z</time>
      </trkpt>
      <trkpt lat="33.957767011597753" lon="-3.169579971581698">
        <ele>851.10000000000002</ele>
        <time>2003-04-19T16:42:02Z</time>
      </trkpt>
      <trkpt lat="33.957900032401085" lon="-3.169677034020424">
        <ele>849.70000000000005</ele>
        <time>2003-04-19T16:42:03Z</time>
      </trkpt>
      <trkpt lat="33.958158027380705" lon="-3.169937962666154">
        <ele>850.29999999999995</ele>
        <time>2003-04-19T16:42:07Z</time>
      </trkpt>
      <trkpt lat="33.958419961854815" lon="-3.17029201425612">
        <ele>851.79999999999995</ele>
        <time>2003-04-19T16:42:11Z</time>
      </trkpt>
      <trkpt lat="33.958793040364981" lon="-3.170638019219041">
        <ele>852</ele>
        <time>2003-04-19T16:42:15Z</time>
      </trkpt>
      <trkpt lat="33.958905022591352" lon="-3.170693004503846">
        <ele>851.70000000000005</ele>
        <time>2003-04-19T16:42:17Z</time>
      </trkpt>
      <trkpt lat="33.959187995642424" lon="-3.170842034742236">
        <ele>849.39999999999998</ele>
        <time>2003-04-19T16:42:19Z</time>
      </trkpt>
      <trkpt lat="33.959337025880814" lon="-3.170871958136559">
        <ele>848.20000000000005</ele>
        <time>2003-04-19T16:42:22Z</time>
      </trkpt>
      <trkpt lat="33.959420006722212" lon="-3.17091696895659">
        <ele>846.20000000000005</ele>
        <time>2003-04-19T16:42:22Z</time>
      </trkpt>
      <trkpt lat="33.959510028362274" lon="-3.170991986989975">
        <ele>847.10000000000002</ele>
        <time>2003-04-19T16:42:23Z</time>
      </trkpt>
      <trkpt lat="33.959783026948571" lon="-3.171179993078113">
        <ele>849</ele>
        <time>2003-04-19T16:42:26Z</time>
      </trkpt>
      <trkpt lat="33.959985030815005" lon="-3.171245036646724">
        <ele>847.39999999999998</ele>
        <time>2003-04-19T16:42:29Z</time>
      </trkpt>
      <trkpt lat="33.960183011367917" lon="-3.171370010823011">
        <ele>847.39999999999998</ele>
        <time>2003-04-19T16:42:30Z</time>
      </trkpt>
      <trkpt lat="33.960264986380935" lon="-3.171470006927848">
        <ele>849</ele>
        <time>2003-04-19T16:42:32Z</time>
      </trkpt>
      <trkpt lat="33.960406975820661" lon="-3.171690031886101">
        <ele>849.60000000000002</ele>
        <time>2003-04-19T16:42:34Z</time>
      </trkpt>
      <trkpt lat="33.960494985803962" lon="-3.171792961657047">
        <ele>849.70000000000005</ele>
        <time>2003-04-19T16:42:34Z</time>
      </trkpt>
      <trkpt lat="33.960939981043339" lon="-3.17224801518023">
        <ele>849.89999999999998</ele>
        <time>2003-04-19T16:42:40Z</time>
      </trkpt>
      <trkpt lat="33.961196970194578" lon="-3.172453036531806">
        <ele>850.10000000000002</ele>
        <time>2003-04-19T16:42:42Z</time>
      </trkpt>
      <trkpt lat="33.961422024294734" lon="-3.17267700098455">
        <ele>848.60000000000002</ele>
        <time>2003-04-19T16:42:45Z</time>
      </trkpt>
      <trkpt lat="33.961542975157499" lon="-3.172755036503077">
        <ele>848.60000000000002</ele>
        <time>2003-04-19T16:42:48Z</time>
      </trkpt>
      <trkpt lat="33.961620004847646" lon="-3.172940025106072">
        <ele>848.39999999999998</ele>
        <time>2003-04-19T16:42:49Z</time>
      </trkpt>
      <trkpt lat="33.961661998182535" lon="-3.17304496653378">
        <ele>848.79999999999995</ele>
        <time>2003-04-19T16:42:50Z</time>
      </trkpt>
      <trkpt lat="33.96171698346734" lon="-3.173142028972507">
        <ele>849.20000000000005</ele>
        <time>2003-04-19T16:42:52Z</time>
      </trkpt>
      <trkpt lat="33.961919993162155" lon="-3.173434976488352">
        <ele>849.89999999999998</ele>
        <time>2003-04-19T16:42:54Z</time>
      </trkpt>
      <trkpt lat="33.962430031970143" lon="-3.174009975045919">
        <ele>849.20000000000005</ele>
        <time>2003-04-19T16:43:01Z</time>
      </trkpt>
      <trkpt lat="33.962622983381152" lon="-3.174124974757433">
        <ele>848.60000000000002</ele>
        <time>2003-04-19T16:43:03Z</time>
      </trkpt>
      <trkpt lat="33.963067978620529" lon="-3.174392022192478">
        <ele>844.5</ele>
        <time>2003-04-19T16:43:08Z</time>
      </trkpt>
      <trkpt lat="33.963192030787468" lon="-3.174533005803824">
        <ele>846.89999999999998</ele>
        <time>2003-04-19T16:43:09Z</time>
      </trkpt>
      <trkpt lat="33.963280040770769" lon="-3.174572987481952">
        <ele>846.79999999999995</ele>
        <time>2003-04-19T16:43:11Z</time>
      </trkpt>
      <trkpt lat="33.963635014370084" lon="-3.174723023548722">
        <ele>846</ele>
        <time>2003-04-19T16:43:15Z</time>
      </trkpt>
      <trkpt lat="33.963901977986097" lon="-3.174814973026514">
        <ele>844.79999999999995</ele>
        <time>2003-04-19T16:43:17Z</time>
      </trkpt>
      <trkpt lat="33.964413022622466" lon="-3.175108004361391">
        <ele>841.39999999999998</ele>
        <time>2003-04-19T16:43:24Z</time>
      </trkpt>
      <trkpt lat="33.964598011225462" lon="-3.175227027386427">
        <ele>840.29999999999995</ele>
        <time>2003-04-19T16:43:26Z</time>
      </trkpt>
      <trkpt lat="33.96532204002142" lon="-3.175555011257529">
        <ele>836.29999999999995</ele>
        <time>2003-04-19T16:43:34Z</time>
      </trkpt>
      <trkpt lat="33.965478027239442" lon="-3.175558028742671">
        <ele>835.79999999999995</ele>
        <time>2003-04-19T16:43:35Z</time>
      </trkpt>
      <trkpt lat="33.965599983930588" lon="-3.175636986270547">
        <ele>835.79999999999995</ele>
        <time>2003-04-19T16:43:38Z</time>
      </trkpt>
      <trkpt lat="33.965695034712553" lon="-3.175689959898591">
        <ele>835.79999999999995</ele>
        <time>2003-04-19T16:43:39Z</time>
      </trkpt>
      <trkpt lat="33.965782038867474" lon="-3.175732959061861">
        <ele>835.60000000000002</ele>
        <time>2003-04-19T16:43:43Z</time>
      </trkpt>
      <trkpt lat="33.965653041377664" lon="-3.17568501457572">
        <ele>835.39999999999998</ele>
        <time>2003-04-19T16:44:33Z</time>
      </trkpt>
      <trkpt lat="33.96553996950388" lon="-3.175603039562702">
        <ele>835.79999999999995</ele>
        <time>2003-04-19T16:44:37Z</time>
      </trkpt>
      <trkpt lat="33.96532497368753" lon="-3.175522992387414">
        <ele>835.70000000000005</ele>
        <time>2003-04-19T16:44:41Z</time>
      </trkpt>
      <trkpt lat="33.965127998962998" lon="-3.175488039851189">
        <ele>837.89999999999998</ele>
        <time>2003-04-19T16:44:44Z</time>
      </trkpt>
      <trkpt lat="33.964702030643821" lon="-3.175261979922652">
        <ele>839.60000000000002</ele>
        <time>2003-04-19T16:44:49Z</time>
      </trkpt>
      <trkpt lat="33.963932991027832" lon="-3.174829976633191">
        <ele>844.20000000000005</ele>
        <time>2003-04-19T16:45:00Z</time>
      </trkpt>
      <trkpt lat="33.963548010215163" lon="-3.174678012728691">
        <ele>845.60000000000002</ele>
        <time>2003-04-19T16:45:04Z</time>
      </trkpt>
      <trkpt lat="33.963423036038876" lon="-3.174638031050563">
        <ele>845.5</ele>
        <time>2003-04-19T16:45:07Z</time>
      </trkpt>
      <trkpt lat="33.963312981650233" lon="-3.174596959725022">
        <ele>845.39999999999998</ele>
        <time>2003-04-19T16:45:09Z</time>
      </trkpt>
      <trkpt lat="33.963502999395132" lon="-3.174668038263917">
        <ele>846.79999999999995</ele>
        <time>2003-04-19T17:03:22Z</time>
      </trkpt>
      <trkpt lat="33.963616993278265" lon="-3.174697961658239">
        <ele>846.70000000000005</ele>
        <time>2003-04-19T17:03:27Z</time>
      </trkpt>
      <trkpt lat="33.963742973282933" lon="-3.174738027155399">
        <ele>846.10000000000002</ele>
        <time>2003-04-19T17:03:41Z</time>
      </trkpt>
      <trkpt lat="33.963846992701292" lon="-3.17478203214705">
        <ele>845.79999999999995</ele>
        <time>2003-04-19T17:03:45Z</time>
      </trkpt>
      <trkpt lat="33.963953023776412" lon="-3.174835005775094">
        <ele>845.5</ele>
        <time>2003-04-19T17:03:46Z</time>
      </trkpt>
      <trkpt lat="33.964132983237505" lon="-3.174917986616492">
        <ele>844.5</ele>
        <time>2003-04-19T17:03:50Z</time>
      </trkpt>
      <trkpt lat="33.964397013187408" lon="-3.175089983269572">
        <ele>842.20000000000005</ele>
        <time>2003-04-19T17:03:54Z</time>
      </trkpt>
      <trkpt lat="33.964600022882223" lon="-3.175213029608131">
        <ele>840.79999999999995</ele>
        <time>2003-04-19T17:03:57Z</time>
      </trkpt>
      <trkpt lat="33.96510997787118" lon="-3.175453003495932">
        <ele>838.70000000000005</ele>
        <time>2003-04-19T17:04:03Z</time>
      </trkpt>
      <trkpt lat="33.965297983959317" lon="-3.175525004044175">
        <ele>836.60000000000002</ele>
        <time>2003-04-19T17:04:06Z</time>
      </trkpt>
      <trkpt lat="33.965447014197707" lon="-3.175546964630485">
        <ele>835.60000000000002</ele>
        <time>2003-04-19T17:04:09Z</time>
      </trkpt>
      <trkpt lat="33.965607024729252" lon="-3.175632962957025">
        <ele>835.60000000000002</ele>
        <time>2003-04-19T17:04:10Z</time>
      </trkpt>
      <trkpt lat="33.965778015553951" lon="-3.175730025395751">
        <ele>835.39999999999998</ele>
        <time>2003-04-19T17:04:13Z</time>
      </trkpt>
      <trkpt lat="33.966627018526196" lon="-3.176112994551659">
        <ele>831.79999999999995</ele>
        <time>2003-04-19T17:04:22Z</time>
      </trkpt>
      <trkpt lat="33.966776970773935" lon="-3.176173008978367">
        <ele>831.10000000000002</ele>
        <time>2003-04-19T17:04:25Z</time>
      </trkpt>
      <trkpt lat="33.966922983527184" lon="-3.176203016191721">
        <ele>830.5</ele>
        <time>2003-04-19T17:04:26Z</time>
      </trkpt>
      <trkpt lat="33.967070002108812" lon="-3.176275016739965">
        <ele>829.5</ele>
        <time>2003-04-19T17:04:29Z</time>
      </trkpt>
      <trkpt lat="33.967732004821301" lon="-3.17673702724278">
        <ele>831.29999999999995</ele>
        <time>2003-04-19T17:04:37Z</time>
      </trkpt>
      <trkpt lat="33.967908024787903" lon="-3.17680299282074">
        <ele>831.10000000000002</ele>
        <time>2003-04-19T17:04:40Z</time>
      </trkpt>
      <trkpt lat="33.968144981190562" lon="-3.176912041381002">
        <ele>830.10000000000002</ele>
        <time>2003-04-19T17:04:43Z</time>
      </trkpt>
      <trkpt lat="33.968257969245315" lon="-3.176957974210382">
        <ele>829.20000000000005</ele>
        <time>2003-04-19T17:04:44Z</time>
      </trkpt>
      <trkpt lat="33.968453016132116" lon="-3.177062999457121">
        <ele>828.79999999999995</ele>
        <time>2003-04-19T17:04:48Z</time>
      </trkpt>
      <trkpt lat="33.968897005543113" lon="-3.177349995821714">
        <ele>830.70000000000005</ele>
        <time>2003-04-19T17:04:53Z</time>
      </trkpt>
      <trkpt lat="33.968994989991188" lon="-3.177372962236404">
        <ele>831</ele>
        <time>2003-04-19T17:04:55Z</time>
      </trkpt>
      <trkpt lat="33.969518020749092" lon="-3.177444962784648">
        <ele>832.20000000000005</ele>
        <time>2003-04-19T17:05:00Z</time>
      </trkpt>
      <trkpt lat="33.96979495882988" lon="-3.177487039938569">
        <ele>832.79999999999995</ele>
        <time>2003-04-19T17:05:03Z</time>
      </trkpt>
      <trkpt lat="33.970069969072938" lon="-3.177498020231724">
        <ele>833.70000000000005</ele>
        <time>2003-04-19T17:05:06Z</time>
      </trkpt>
      <trkpt lat="33.970248000696301" lon="-3.177502965554595">
        <ele>835</ele>
        <time>2003-04-19T17:05:07Z</time>
      </trkpt>
      <trkpt lat="33.970906985923648" lon="-3.177602039650083">
        <ele>836.89999999999998</ele>
        <time>2003-04-19T17:05:15Z</time>
      </trkpt>
      <trkpt lat="33.971736961975694" lon="-3.177888030186296">
        <ele>839.79999999999995</ele>
        <time>2003-04-19T17:05:23Z</time>
      </trkpt>
      <trkpt lat="33.971867971122265" lon="-3.177951984107494">
        <ele>840.79999999999995</ele>
        <time>2003-04-19T17:05:26Z</time>
      </trkpt>
      <trkpt lat="33.97209201939404" lon="-3.178019961342216">
        <ele>842.29999999999995</ele>
        <time>2003-04-19T17:05:29Z</time>
      </trkpt>
      <trkpt lat="33.972502984106541" lon="-3.178172009065747">
        <ele>844.39999999999998</ele>
        <time>2003-04-19T17:05:34Z</time>
      </trkpt>
      <trkpt lat="33.972917972132564" lon="-3.17832799628377">
        <ele>845.5</ele>
        <time>2003-04-19T17:05:38Z</time>
      </trkpt>
      <trkpt lat="33.973647030070424" lon="-3.178597977384925">
        <ele>847.5</ele>
        <time>2003-04-19T17:05:45Z</time>
      </trkpt>
      <trkpt lat="33.973822966217995" lon="-3.178560007363558">
        <ele>847.70000000000005</ele>
        <time>2003-04-19T17:05:46Z</time>
      </trkpt>
      <trkpt lat="33.974137958139181" lon="-3.178439978510141">
        <ele>846.70000000000005</ele>
        <time>2003-04-19T17:05:50Z</time>
      </trkpt>
      <trkpt lat="33.974247006699443" lon="-3.17839496769011">
        <ele>846</ele>
        <time>2003-04-19T17:05:53Z</time>
      </trkpt>
      <trkpt lat="33.974369969218969" lon="-3.178382981568575">
        <ele>844.5</ele>
        <time>2003-04-19T17:05:54Z</time>
      </trkpt>
      <trkpt lat="33.974493015557528" lon="-3.178411982953548">
        <ele>844.10000000000002</ele>
        <time>2003-04-19T17:05:57Z</time>
      </trkpt>
      <trkpt lat="33.974687978625298" lon="-3.178445007652044">
        <ele>847.39999999999998</ele>
        <time>2003-04-19T17:06:00Z</time>
      </trkpt>
      <trkpt lat="33.974937004968524" lon="-3.178412988781929">
        <ele>847.5</ele>
        <time>2003-04-19T17:06:02Z</time>
      </trkpt>
      <trkpt lat="33.97542298771441" lon="-3.178317015990615">
        <ele>845.20000000000005</ele>
        <time>2003-04-19T17:06:09Z</time>
      </trkpt>
      <trkpt lat="33.975685006007552" lon="-3.178360015153885">
        <ele>844.5</ele>
        <time>2003-04-19T17:06:13Z</time>
      </trkpt>
      <trkpt lat="33.97606797516346" lon="-3.178469985723496">
        <ele>841.89999999999998</ele>
        <time>2003-04-19T17:06:17Z</time>
      </trkpt>
      <trkpt lat="33.97656200453639" lon="-3.178633013740182">
        <ele>840.60000000000002</ele>
        <time>2003-04-19T17:06:23Z</time>
      </trkpt>
      <trkpt lat="33.97688495926559" lon="-3.178771985694766">
        <ele>840</ele>
        <time>2003-04-19T17:06:25Z</time>
      </trkpt>
      <trkpt lat="33.977283015847206" lon="-3.178922021761537">
        <ele>839.5</ele>
        <time>2003-04-19T17:06:29Z</time>
      </trkpt>
      <trkpt lat="33.977379994466901" lon="-3.178931996226311">
        <ele>839.20000000000005</ele>
        <time>2003-04-19T17:06:31Z</time>
      </trkpt>
      <trkpt lat="33.977470016106963" lon="-3.178917998448014">
        <ele>839.20000000000005</ele>
        <time>2003-04-19T17:06:32Z</time>
      </trkpt>
      <trkpt lat="33.97797703742981" lon="-3.178867036476731">
        <ele>836.70000000000005</ele>
        <time>2003-04-19T17:06:37Z</time>
      </trkpt>
      <trkpt lat="33.978088013827801" lon="-3.178792018443346">
        <ele>835.60000000000002</ele>
        <time>2003-04-19T17:06:40Z</time>
      </trkpt>
      <trkpt lat="33.978175017982721" lon="-3.178665032610297">
        <ele>835</ele>
        <time>2003-04-19T17:06:41Z</time>
      </trkpt>
      <trkpt lat="33.97840996272862" lon="-3.178320033475757">
        <ele>831.29999999999995</ele>
        <time>2003-04-19T17:06:47Z</time>
      </trkpt>
      <trkpt lat="33.978507025167346" lon="-3.178254989907146">
        <ele>830.29999999999995</ele>
        <time>2003-04-19T17:06:48Z</time>
      </trkpt>
      <trkpt lat="33.978629987686872" lon="-3.178300000727177">
        <ele>831.39999999999998</ele>
        <time>2003-04-19T17:06:51Z</time>
      </trkpt>
      <trkpt lat="33.978768037632108" lon="-3.178311986848712">
        <ele>833.29999999999995</ele>
        <time>2003-04-19T17:06:52Z</time>
      </trkpt>
      <trkpt lat="33.978844983503222" lon="-3.178232023492456">
        <ele>833.29999999999995</ele>
        <time>2003-04-19T17:06:55Z</time>
      </trkpt>
      <trkpt lat="33.978877002373338" lon="-3.178117023780942">
        <ele>832.39999999999998</ele>
        <time>2003-04-19T17:06:56Z</time>
      </trkpt>
      <trkpt lat="33.978953026235104" lon="-3.178042005747557">
        <ele>831.39999999999998</ele>
        <time>2003-04-19T17:06:59Z</time>
      </trkpt>
      <trkpt lat="33.979091998189688" lon="-3.17804996855557">
        <ele>833.60000000000002</ele>
        <time>2003-04-19T17:07:00Z</time>
      </trkpt>
      <trkpt lat="33.979370025917888" lon="-3.178107971325517">
        <ele>836.60000000000002</ele>
        <time>2003-04-19T17:07:04Z</time>
      </trkpt>
      <trkpt lat="33.97959197871387" lon="-3.178194975480437">
        <ele>835.89999999999998</ele>
        <time>2003-04-19T17:07:07Z</time>
      </trkpt>
      <trkpt lat="33.979760035872459" lon="-3.178309975191951">
        <ele>838</ele>
        <time>2003-04-19T17:07:10Z</time>
      </trkpt>
      <trkpt lat="33.979900013655424" lon="-3.178377030417323">
        <ele>838.39999999999998</ele>
        <time>2003-04-19T17:07:11Z</time>
      </trkpt>
      <trkpt lat="33.980082990601659" lon="-3.178375018760562">
        <ele>838.60000000000002</ele>
        <time>2003-04-19T17:07:14Z</time>
      </trkpt>
      <trkpt lat="33.980569979175925" lon="-3.178281979635358">
        <ele>839</ele>
        <time>2003-04-19T17:07:19Z</time>
      </trkpt>
      <trkpt lat="33.980978010222316" lon="-3.178187012672424">
        <ele>839.70000000000005</ele>
        <time>2003-04-19T17:07:22Z</time>
      </trkpt>
      <trkpt lat="33.981302976608276" lon="-3.178167985752225">
        <ele>839.79999999999995</ele>
        <time>2003-04-19T17:07:26Z</time>
      </trkpt>
      <trkpt lat="33.981414958834648" lon="-3.178166979923844">
        <ele>840.10000000000002</ele>
        <time>2003-04-19T17:07:26Z</time>
      </trkpt>
      <trkpt lat="33.981717964634299" lon="-3.178121969103813">
        <ele>840.5</ele>
        <time>2003-04-19T17:07:30Z</time>
      </trkpt>
      <trkpt lat="33.981864983215928" lon="-3.178075030446053">
        <ele>840</ele>
        <time>2003-04-19T17:07:31Z</time>
      </trkpt>
      <trkpt lat="33.981966990977526" lon="-3.178000012412667">
        <ele>839.20000000000005</ele>
        <time>2003-04-19T17:07:34Z</time>
      </trkpt>
      <trkpt lat="33.982079979032278" lon="-3.177922982722521">
        <ele>837.10000000000002</ele>
        <time>2003-04-19T17:07:35Z</time>
      </trkpt>
      <trkpt lat="33.982251975685358" lon="-3.177939997985959">
        <ele>838</ele>
        <time>2003-04-19T17:07:38Z</time>
      </trkpt>
      <trkpt lat="33.982412992045283" lon="-3.177960030734539">
        <ele>839.20000000000005</ele>
        <time>2003-04-19T17:07:39Z</time>
      </trkpt>
      <trkpt lat="33.982554981485009" lon="-3.177913008257747">
        <ele>838.20000000000005</ele>
        <time>2003-04-19T17:07:42Z</time>
      </trkpt>
      <trkpt lat="33.98272798396647" lon="-3.177912002429366">
        <ele>835.79999999999995</ele>
        <time>2003-04-19T17:07:44Z</time>
      </trkpt>
      <trkpt lat="33.983016991987824" lon="-3.177927006036043">
        <ele>834.39999999999998</ele>
        <time>2003-04-19T17:07:46Z</time>
      </trkpt>
      <trkpt lat="33.983153030276299" lon="-3.177977968007326">
        <ele>832.79999999999995</ele>
        <time>2003-04-19T17:07:49Z</time>
      </trkpt>
      <trkpt lat="33.983261995017529" lon="-3.178094979375601">
        <ele>833.39999999999998</ele>
        <time>2003-04-19T17:07:50Z</time>
      </trkpt>
      <trkpt lat="33.983361991122365" lon="-3.178192963823676">
        <ele>831.89999999999998</ele>
        <time>2003-04-19T17:07:53Z</time>
      </trkpt>
      <trkpt lat="33.983513033017516" lon="-3.17824300378561">
        <ele>831.10000000000002</ele>
        <time>2003-04-19T17:07:54Z</time>
      </trkpt>
      <trkpt lat="33.983658039942384" lon="-3.178245015442371">
        <ele>831.5</ele>
        <time>2003-04-19T17:07:57Z</time>
      </trkpt>
      <trkpt lat="33.983795000240207" lon="-3.178230011835694">
        <ele>830</ele>
        <time>2003-04-19T17:07:58Z</time>
      </trkpt>
      <trkpt lat="33.983902037143707" lon="-3.178228000178933">
        <ele>828.29999999999995</ele>
        <time>2003-04-19T17:08:01Z</time>
      </trkpt>
      <trkpt lat="33.984009996056557" lon="-3.17830796353519">
        <ele>828.5</ele>
        <time>2003-04-19T17:08:02Z</time>
      </trkpt>
      <trkpt lat="33.984128013253212" lon="-3.178287008777261">
        <ele>828.39999999999998</ele>
        <time>2003-04-19T17:08:05Z</time>
      </trkpt>
      <trkpt lat="33.984243012964725" lon="-3.178190030157566">
        <ele>828.39999999999998</ele>
        <time>2003-04-19T17:08:06Z</time>
      </trkpt>
      <trkpt lat="33.984552975744009" lon="-3.177943015471101">
        <ele>827.79999999999995</ele>
        <time>2003-04-19T17:08:12Z</time>
      </trkpt>
      <trkpt lat="33.984788004308939" lon="-3.177866991609335">
        <ele>827.20000000000005</ele>
        <time>2003-04-19T17:08:15Z</time>
      </trkpt>
      <trkpt lat="33.984957989305258" lon="-3.17779297940433">
        <ele>826.70000000000005</ele>
        <time>2003-04-19T17:08:16Z</time>
      </trkpt>
      <trkpt lat="33.98567296564579" lon="-3.177415039390326">
        <ele>825.70000000000005</ele>
        <time>2003-04-19T17:08:24Z</time>
      </trkpt>
      <trkpt lat="33.985919980332255" lon="-3.177286963909864">
        <ele>826.60000000000002</ele>
        <time>2003-04-19T17:08:28Z</time>
      </trkpt>
      <trkpt lat="33.986022993922234" lon="-3.177240025252104">
        <ele>826.5</ele>
        <time>2003-04-19T17:08:29Z</time>
      </trkpt>
      <trkpt lat="33.986218040809035" lon="-3.177186967805028">
        <ele>824.79999999999995</ele>
        <time>2003-04-19T17:08:32Z</time>
      </trkpt>
      <trkpt lat="33.986411998048425" lon="-3.177177999168634">
        <ele>824.29999999999995</ele>
        <time>2003-04-19T17:08:35Z</time>
      </trkpt>
      <trkpt lat="33.986511994153261" lon="-3.177183028310537">
        <ele>824.39999999999998</ele>
        <time>2003-04-19T17:08:36Z</time>
      </trkpt>
      <trkpt lat="33.986715003848076" lon="-3.177216975018382">
        <ele>824</ele>
        <time>2003-04-19T17:08:38Z</time>
      </trkpt>
      <trkpt lat="33.986922958865762" lon="-3.177227033302188">
        <ele>823.39999999999998</ele>
        <time>2003-04-19T17:08:40Z</time>
      </trkpt>
      <trkpt lat="33.98736803792417" lon="-3.177159978076816">
        <ele>824.10000000000002</ele>
        <time>2003-04-19T17:08:43Z</time>
      </trkpt>
      <trkpt lat="33.987652016803622" lon="-3.177067022770643">
        <ele>826</ele>
        <time>2003-04-19T17:08:47Z</time>
      </trkpt>
      <trkpt lat="33.988001961261034" lon="-3.176956968382001">
        <ele>825.60000000000002</ele>
        <time>2003-04-19T17:08:51Z</time>
      </trkpt>
      <trkpt lat="33.988073039799929" lon="-3.17688999697566">
        <ele>825.79999999999995</ele>
        <time>2003-04-19T17:08:51Z</time>
      </trkpt>
      <trkpt lat="33.988219974562526" lon="-3.176787989214063">
        <ele>826.60000000000002</ele>
        <time>2003-04-19T17:08:54Z</time>
      </trkpt>
      <trkpt lat="33.988370010629296" lon="-3.17675999365747">
        <ele>827.89999999999998</ele>
        <time>2003-04-19T17:08:55Z</time>
      </trkpt>
      <trkpt lat="33.988534966483712" lon="-3.176753036677837">
        <ele>829.10000000000002</ele>
        <time>2003-04-19T17:08:58Z</time>
      </trkpt>
      <trkpt lat="33.988712998107076" lon="-3.17673803307116">
        <ele>828.5</ele>
        <time>2003-04-19T17:08:59Z</time>
      </trkpt>
      <trkpt lat="33.98900200612843" lon="-3.176687993109226">
        <ele>828.89999999999998</ele>
        <time>2003-04-19T17:09:03Z</time>
      </trkpt>
      <trkpt lat="33.989096973091364" lon="-3.176647005602717">
        <ele>828.79999999999995</ele>
        <time>2003-04-19T17:09:03Z</time>
      </trkpt>
      <trkpt lat="33.989178026095033" lon="-3.176592020317912">
        <ele>828.70000000000005</ele>
        <time>2003-04-19T17:09:05Z</time>
      </trkpt>
      <trkpt lat="33.989335019141436" lon="-3.176447013393045">
        <ele>828.89999999999998</ele>
        <time>2003-04-19T17:09:07Z</time>
      </trkpt>
      <trkpt lat="33.989761993288994" lon="-3.175952984020114">
        <ele>829.89999999999998</ele>
        <time>2003-04-19T17:09:14Z</time>
      </trkpt>
      <trkpt lat="33.989813039079309" lon="-3.175752991810441">
        <ele>830.29999999999995</ele>
        <time>2003-04-19T17:09:14Z</time>
      </trkpt>
      <trkpt lat="33.989899959415197" lon="-3.175177993252873">
        <ele>830</ele>
        <time>2003-04-19T17:09:21Z</time>
      </trkpt>
      <trkpt lat="33.990025017410517" lon="-3.175108004361391">
        <ele>831</ele>
        <time>2003-04-19T17:09:23Z</time>
      </trkpt>
      <trkpt lat="33.99020497687161" lon="-3.175123007968068">
        <ele>830.39999999999998</ele>
        <time>2003-04-19T17:09:25Z</time>
      </trkpt>
      <trkpt lat="33.990302961319685" lon="-3.175116972997785">
        <ele>829.89999999999998</ele>
        <time>2003-04-19T17:09:26Z</time>
      </trkpt>
      <trkpt lat="33.990475041791797" lon="-3.175082020461559">
        <ele>829.20000000000005</ele>
        <time>2003-04-19T17:09:27Z</time>
      </trkpt>
      <trkpt lat="33.99063304066658" lon="-3.174986969679594">
        <ele>828.20000000000005</ele>
        <time>2003-04-19T17:09:30Z</time>
      </trkpt>
      <trkpt lat="33.990984996780753" lon="-3.174686981365085">
        <ele>825.5</ele>
        <time>2003-04-19T17:09:36Z</time>
      </trkpt>
      <trkpt lat="33.991107037290931" lon="-3.174607018008828">
        <ele>824.89999999999998</ele>
        <time>2003-04-19T17:09:37Z</time>
      </trkpt>
      <trkpt lat="33.991237040609121" lon="-3.174729980528355">
        <ele>825.79999999999995</ele>
        <time>2003-04-19T17:09:38Z</time>
      </trkpt>
      <trkpt lat="33.991309963166714" lon="-3.174802986904979">
        <ele>825.10000000000002</ele>
        <time>2003-04-19T17:09:40Z</time>
      </trkpt>
      <trkpt lat="33.991548009216785" lon="-3.174974983558059">
        <ele>822.5</ele>
        <time>2003-04-19T17:09:44Z</time>
      </trkpt>
      <trkpt lat="33.99166502058506" lon="-3.174904994666576">
        <ele>821.60000000000002</ele>
        <time>2003-04-19T17:09:46Z</time>
      </trkpt>
      <trkpt lat="33.991784965619445" lon="-3.174752024933696">
        <ele>821.39999999999998</ele>
        <time>2003-04-19T17:09:49Z</time>
      </trkpt>
      <trkpt lat="33.991937013342977" lon="-3.174597965553403">
        <ele>820.10000000000002</ele>
        <time>2003-04-19T17:09:50Z</time>
      </trkpt>
      <trkpt lat="33.992146980017424" lon="-3.174420017749071">
        <ele>819.10000000000002</ele>
        <time>2003-04-19T17:09:53Z</time>
      </trkpt>
      <trkpt lat="33.992313025519252" lon="-3.174344999715686">
        <ele>817.89999999999998</ele>
        <time>2003-04-19T17:09:56Z</time>
      </trkpt>
      <trkpt lat="33.992392988875508" lon="-3.174292026087642">
        <ele>817.20000000000005</ele>
        <time>2003-04-19T17:09:57Z</time>
      </trkpt>
      <trkpt lat="33.992540007457137" lon="-3.174166968092322">
        <ele>816.79999999999995</ele>
        <time>2003-04-19T17:09:59Z</time>
      </trkpt>
      <trkpt lat="33.992640003561974" lon="-3.174012992531061">
        <ele>815.70000000000005</ele>
        <time>2003-04-19T17:10:01Z</time>
      </trkpt>
      <trkpt lat="33.992879977449775" lon="-3.173639997839928">
        <ele>813.79999999999995</ele>
        <time>2003-04-19T17:10:05Z</time>
      </trkpt>
      <trkpt lat="33.993009980767965" lon="-3.173598004505038">
        <ele>813.70000000000005</ele>
        <time>2003-04-19T17:10:08Z</time>
      </trkpt>
      <trkpt lat="33.99314995855093" lon="-3.173609990626574">
        <ele>815.70000000000005</ele>
        <time>2003-04-19T17:10:09Z</time>
      </trkpt>
      <trkpt lat="33.993281973525882" lon="-3.173534972593188">
        <ele>815.70000000000005</ele>
        <time>2003-04-19T17:10:12Z</time>
      </trkpt>
      <trkpt lat="33.993429997935891" lon="-3.173397006466985">
        <ele>815.70000000000005</ele>
        <time>2003-04-19T17:10:13Z</time>
      </trkpt>
      <trkpt lat="33.993882033973932" lon="-3.17291303537786">
        <ele>814.20000000000005</ele>
        <time>2003-04-19T17:10:20Z</time>
      </trkpt>
      <trkpt lat="33.994349995627999" lon="-3.172497963532805">
        <ele>813.89999999999998</ele>
        <time>2003-04-19T17:10:24Z</time>
      </trkpt>
      <trkpt lat="33.994689965620637" lon="-3.17222798243165">
        <ele>813.79999999999995</ele>
        <time>2003-04-19T17:10:28Z</time>
      </trkpt>
      <trkpt lat="33.994937986135483" lon="-3.172094961628318">
        <ele>813.5</ele>
        <time>2003-04-19T17:10:31Z</time>
      </trkpt>
      <trkpt lat="33.995206961408257" lon="-3.171942997723818">
        <ele>814.79999999999995</ele>
        <time>2003-04-19T17:10:35Z</time>
      </trkpt>
      <trkpt lat="33.99527502246201" lon="-3.171854987740517">
        <ele>815</ele>
        <time>2003-04-19T17:10:35Z</time>
      </trkpt>
      <trkpt lat="33.995420029386878" lon="-3.171721966937184">
        <ele>814.29999999999995</ele>
        <time>2003-04-19T17:10:38Z</time>
      </trkpt>
      <trkpt lat="33.995714988559484" lon="-3.171521974727511">
        <ele>814.29999999999995</ele>
        <time>2003-04-19T17:10:40Z</time>
      </trkpt>
      <trkpt lat="33.996080020442605" lon="-3.171221986413002">
        <ele>814.10000000000002</ele>
        <time>2003-04-19T17:10:44Z</time>
      </trkpt>
      <trkpt lat="33.996617970988154" lon="-3.170685041695833">
        <ele>813.5</ele>
        <time>2003-04-19T17:10:51Z</time>
      </trkpt>
      <trkpt lat="33.99682299233973" lon="-3.170484965667129">
        <ele>813.79999999999995</ele>
        <time>2003-04-19T17:10:54Z</time>
      </trkpt>
      <trkpt lat="33.996889963746071" lon="-3.170365020632744">
        <ele>813.70000000000005</ele>
        <time>2003-04-19T17:10:57Z</time>
      </trkpt>
      <trkpt lat="33.99705701507628" lon="-3.170167040079832">
        <ele>815.39999999999998</ele>
        <time>2003-04-19T17:11:01Z</time>
      </trkpt>
      <trkpt lat="33.997222976759076" lon="-3.169871997088194">
        <ele>814.5</ele>
        <time>2003-04-19T17:11:05Z</time>
      </trkpt>
      <trkpt lat="33.997367983683944" lon="-3.169742999598384">
        <ele>815.20000000000005</ele>
        <time>2003-04-19T17:11:06Z</time>
      </trkpt>
      <trkpt lat="33.997652968391776" lon="-3.169592963531613">
        <ele>816.60000000000002</ele>
        <time>2003-04-19T17:11:10Z</time>
      </trkpt>
      <trkpt lat="33.998016994446516" lon="-3.169377967715263">
        <ele>817.29999999999995</ele>
        <time>2003-04-19T17:11:14Z</time>
      </trkpt>
      <trkpt lat="33.998138029128313" lon="-3.169209994375706">
        <ele>816.89999999999998</ele>
        <time>2003-04-19T17:11:15Z</time>
      </trkpt>
      <trkpt lat="33.998292004689574" lon="-3.169034980237484">
        <ele>817.10000000000002</ele>
        <time>2003-04-19T17:11:18Z</time>
      </trkpt>
      <trkpt lat="33.998571960255504" lon="-3.168717976659536">
        <ele>817.39999999999998</ele>
        <time>2003-04-19T17:11:22Z</time>
      </trkpt>
      <trkpt lat="33.998674973845482" lon="-3.168565006926656">
        <ele>817.20000000000005</ele>
        <time>2003-04-19T17:11:24Z</time>
      </trkpt>
      <trkpt lat="33.998785028234124" lon="-3.168483031913638">
        <ele>817</ele>
        <time>2003-04-19T17:11:25Z</time>
      </trkpt>
      <trkpt lat="33.998945038765669" lon="-3.168398039415479">
        <ele>817.79999999999995</ele>
        <time>2003-04-19T17:11:28Z</time>
      </trkpt>
      <trkpt lat="33.999025002121925" lon="-3.168332995846868">
        <ele>818.5</ele>
        <time>2003-04-19T17:11:29Z</time>
      </trkpt>
      <trkpt lat="33.999203033745289" lon="-3.168187988922">
        <ele>817.60000000000002</ele>
        <time>2003-04-19T17:11:32Z</time>
      </trkpt>
      <trkpt lat="33.999756993725896" lon="-3.167742993682623">
        <ele>816.89999999999998</ele>
        <time>2003-04-19T17:11:41Z</time>
      </trkpt>
      <trkpt lat="33.999962015077472" lon="-3.167599998414516">
        <ele>817.29999999999995</ele>
        <time>2003-04-19T17:11:44Z</time>
      </trkpt>
      <trkpt lat="34.000095035880804" lon="-3.167411992326379">
        <ele>815.20000000000005</ele>
        <time>2003-04-19T17:11:47Z</time>
      </trkpt>
      <trkpt lat="34.000205006450415" lon="-3.167288023978472">
        <ele>815.29999999999995</ele>
        <time>2003-04-19T17:11:49Z</time>
      </trkpt>
      <trkpt lat="34.000371973961592" lon="-3.167187022045255">
        <ele>815.5</ele>
        <time>2003-04-19T17:11:51Z</time>
      </trkpt>
      <trkpt lat="34.001161968335509" lon="-3.166779996827245">
        <ele>815.39999999999998</ele>
        <time>2003-04-19T17:12:00Z</time>
      </trkpt>
      <trkpt lat="34.00197702459991" lon="-3.166238022968173">
        <ele>815.29999999999995</ele>
        <time>2003-04-19T17:12:08Z</time>
      </trkpt>
      <trkpt lat="34.002311965450644" lon="-3.166012968868017">
        <ele>815.39999999999998</ele>
        <time>2003-04-19T17:12:12Z</time>
      </trkpt>
      <trkpt lat="34.002647995948792" lon="-3.165711974725127">
        <ele>815.29999999999995</ele>
        <time>2003-04-19T17:12:18Z</time>
      </trkpt>
      <trkpt lat="34.002840025350451" lon="-3.165494967252016">
        <ele>814.79999999999995</ele>
        <time>2003-04-19T17:12:20Z</time>
      </trkpt>
      <trkpt lat="34.002949995920062" lon="-3.16528701223433">
        <ele>814.20000000000005</ele>
        <time>2003-04-19T17:12:23Z</time>
      </trkpt>
      <trkpt lat="34.003070024773479" lon="-3.165166983380914">
        <ele>814.70000000000005</ele>
        <time>2003-04-19T17:12:53Z</time>
      </trkpt>
      <trkpt lat="34.003153005614877" lon="-3.165061958134174">
        <ele>813.5</ele>
        <time>2003-04-19T17:12:54Z</time>
      </trkpt>
      <trkpt lat="34.003379987552762" lon="-3.164753001183271">
        <ele>813</ele>
        <time>2003-04-19T17:12:59Z</time>
      </trkpt>
      <trkpt lat="34.003457017242908" lon="-3.164636995643377">
        <ele>812</ele>
        <time>2003-04-19T17:13:02Z</time>
      </trkpt>
      <trkpt lat="34.003691961988807" lon="-3.164195017889142">
        <ele>812.60000000000002</ele>
        <time>2003-04-19T17:13:09Z</time>
      </trkpt>
      <trkpt lat="34.003758011385798" lon="-3.164037019014359">
        <ele>813.10000000000002</ele>
        <time>2003-04-19T17:13:10Z</time>
      </trkpt>
      <trkpt lat="34.003866976127028" lon="-3.163914978504181">
        <ele>812.29999999999995</ele>
        <time>2003-04-19T17:13:13Z</time>
      </trkpt>
      <trkpt lat="34.003966972231865" lon="-3.163820011541247">
        <ele>811.70000000000005</ele>
        <time>2003-04-19T17:13:14Z</time>
      </trkpt>
      <trkpt lat="34.004108039662242" lon="-3.163756979629397">
        <ele>812.20000000000005</ele>
        <time>2003-04-19T17:13:17Z</time>
      </trkpt>
      <trkpt lat="34.004281964153051" lon="-3.16369797103107">
        <ele>813.29999999999995</ele>
        <time>2003-04-19T17:13:18Z</time>
      </trkpt>
      <trkpt lat="34.004502994939685" lon="-3.163586994633079">
        <ele>813.60000000000002</ele>
        <time>2003-04-19T17:13:21Z</time>
      </trkpt>
      <trkpt lat="34.004716984927654" lon="-3.163403011858463">
        <ele>812.60000000000002</ele>
        <time>2003-04-19T17:13:25Z</time>
      </trkpt>
      <trkpt lat="34.004913037642837" lon="-3.163097994402051">
        <ele>811.79999999999995</ele>
        <time>2003-04-19T17:13:29Z</time>
      </trkpt>
      <trkpt lat="34.004929969087243" lon="-3.162962961941958">
        <ele>812.39999999999998</ele>
        <time>2003-04-19T17:13:30Z</time>
      </trkpt>
      <trkpt lat="34.004891999065876" lon="-3.162832036614418">
        <ele>813</ele>
        <time>2003-04-19T17:13:33Z</time>
      </trkpt>
      <trkpt lat="34.004829972982407" lon="-3.162727011367679">
        <ele>813.5</ele>
        <time>2003-04-19T17:13:35Z</time>
      </trkpt>
      <trkpt lat="34.004717990756035" lon="-3.162576975300908">
        <ele>814.10000000000002</ele>
        <time>2003-04-19T17:13:37Z</time>
      </trkpt>
      <trkpt lat="34.004608020186424" lon="-3.162519978359342">
        <ele>814.5</ele>
        <time>2003-04-19T17:13:40Z</time>
      </trkpt>
      <trkpt lat="34.004725031554699" lon="-3.162555014714599">
        <ele>812.29999999999995</ele>
        <time>2003-04-19T17:14:29Z</time>
      </trkpt>
      <trkpt lat="34.004865009337664" lon="-3.162645036354661">
        <ele>811.60000000000002</ele>
        <time>2003-04-19T17:14:33Z</time>
      </trkpt>
      <trkpt lat="34.00502703152597" lon="-3.162713013589382">
        <ele>811.10000000000002</ele>
        <time>2003-04-19T17:14:37Z</time>
      </trkpt>
      <trkpt lat="34.005285026505589" lon="-3.162882998585701">
        <ele>810.39999999999998</ele>
        <time>2003-04-19T17:14:42Z</time>
      </trkpt>
      <trkpt lat="34.005402037873864" lon="-3.162949969992042">
        <ele>809.89999999999998</ele>
        <time>2003-04-19T17:14:46Z</time>
      </trkpt>
      <trkpt lat="34.005536986514926" lon="-3.162915017455816">
        <ele>810.5</ele>
        <time>2003-04-19T17:14:47Z</time>
      </trkpt>
      <trkpt lat="34.005681993439794" lon="-3.16281502135098">
        <ele>811</ele>
        <time>2003-04-19T17:14:50Z</time>
      </trkpt>
      <trkpt lat="34.005984999239445" lon="-3.162612011656165">
        <ele>812</ele>
        <time>2003-04-19T17:14:54Z</time>
      </trkpt>
      <trkpt lat="34.006324969232082" lon="-3.162482008337975">
        <ele>810.89999999999998</ele>
        <time>2003-04-19T17:14:58Z</time>
      </trkpt>
      <trkpt lat="34.006638033315539" lon="-3.162242034450173">
        <ele>810.70000000000005</ele>
        <time>2003-04-19T17:15:01Z</time>
      </trkpt>
      <trkpt lat="34.006816986948252" lon="-3.162029972299933">
        <ele>810.89999999999998</ele>
        <time>2003-04-19T17:15:05Z</time>
      </trkpt>
      <trkpt lat="34.007346974685788" lon="-3.161388002336025">
        <ele>807.60000000000002</ele>
        <time>2003-04-19T17:15:13Z</time>
      </trkpt>
      <trkpt lat="34.007438002154231" lon="-3.161362018436194">
        <ele>808.29999999999995</ele>
        <time>2003-04-19T17:15:14Z</time>
      </trkpt>
      <trkpt lat="34.007537998259068" lon="-3.161356989294291">
        <ele>808.29999999999995</ele>
        <time>2003-04-19T17:15:16Z</time>
      </trkpt>
      <trkpt lat="34.007637994363904" lon="-3.161326982080936">
        <ele>807.89999999999998</ele>
        <time>2003-04-19T17:15:17Z</time>
      </trkpt>
      <trkpt lat="34.00773799046874" lon="-3.161267973482609">
        <ele>807.60000000000002</ele>
        <time>2003-04-19T17:15:17Z</time>
      </trkpt>
      <trkpt lat="34.008577018976212" lon="-3.160794982686639">
        <ele>806.5</ele>
        <time>2003-04-19T17:15:25Z</time>
      </trkpt>
      <trkpt lat="34.008741974830627" lon="-3.160675037652254">
        <ele>806.5</ele>
        <time>2003-04-19T17:15:28Z</time>
      </trkpt>
      <trkpt lat="34.009101977571845" lon="-3.160383012145758">
        <ele>806.70000000000005</ele>
        <time>2003-04-19T17:15:32Z</time>
      </trkpt>
      <trkpt lat="34.009180013090372" lon="-3.160295002162457">
        <ele>806.29999999999995</ele>
        <time>2003-04-19T17:15:35Z</time>
      </trkpt>
      <trkpt lat="34.009306998923421" lon="-3.160261977463961">
        <ele>806.60000000000002</ele>
        <time>2003-04-19T17:15:36Z</time>
      </trkpt>
      <trkpt lat="34.009474972262979" lon="-3.16021696664393">
        <ele>807.60000000000002</ele>
        <time>2003-04-19T17:15:39Z</time>
      </trkpt>
      <trkpt lat="34.009555019438267" lon="-3.160158041864634">
        <ele>808.20000000000005</ele>
        <time>2003-04-19T17:15:40Z</time>
      </trkpt>
      <trkpt lat="34.009832963347435" lon="-3.160008005797863">
        <ele>807.10000000000002</ele>
        <time>2003-04-19T17:15:43Z</time>
      </trkpt>
      <trkpt lat="34.010109985247254" lon="-3.159819999709725">
        <ele>805.89999999999998</ele>
        <time>2003-04-19T17:15:45Z</time>
      </trkpt>
      <trkpt lat="34.010187014937401" lon="-3.159761996939778">
        <ele>805.79999999999995</ele>
        <time>2003-04-19T17:15:47Z</time>
      </trkpt>
      <trkpt lat="34.010367980226874" lon="-3.159720003604889">
        <ele>806.20000000000005</ele>
        <time>2003-04-19T17:15:48Z</time>
      </trkpt>
      <trkpt lat="34.01067802682519" lon="-3.159668035805225">
        <ele>808</ele>
        <time>2003-04-19T17:15:52Z</time>
      </trkpt>
      <trkpt lat="34.010769976302981" lon="-3.159620007500053">
        <ele>808.39999999999998</ele>
        <time>2003-04-19T17:15:52Z</time>
      </trkpt>
      <trkpt lat="34.010918000712991" lon="-3.1595070194453">
        <ele>807.5</ele>
        <time>2003-04-19T17:15:55Z</time>
      </trkpt>
      <trkpt lat="34.011467015370727" lon="-3.15914198756218">
        <ele>808.5</ele>
        <time>2003-04-19T17:16:00Z</time>
      </trkpt>
      <trkpt lat="34.011601964011788" lon="-3.159024976193905">
        <ele>809.5</ele>
        <time>2003-04-19T17:16:03Z</time>
      </trkpt>
      <trkpt lat="34.011764992028475" lon="-3.158792965114117">
        <ele>809.60000000000002</ele>
        <time>2003-04-19T17:16:06Z</time>
      </trkpt>
      <trkpt lat="34.011851996183395" lon="-3.15873303450644">
        <ele>809.5</ele>
        <time>2003-04-19T17:16:07Z</time>
      </trkpt>
      <trkpt lat="34.012264972552657" lon="-3.158428017050028">
        <ele>809.70000000000005</ele>
        <time>2003-04-19T17:16:11Z</time>
      </trkpt>
      <trkpt lat="34.012582981958985" lon="-3.158029960468411">
        <ele>810.20000000000005</ele>
        <time>2003-04-19T17:16:17Z</time>
      </trkpt>
      <trkpt lat="34.012693036347628" lon="-3.157898029312491">
        <ele>810</ele>
        <time>2003-04-19T17:16:19Z</time>
      </trkpt>
      <trkpt lat="34.012747015804052" lon="-3.157785041257739">
        <ele>810.29999999999995</ele>
        <time>2003-04-19T17:16:21Z</time>
      </trkpt>
      <trkpt lat="34.012850029394031" lon="-3.157674986869097">
        <ele>809.70000000000005</ele>
        <time>2003-04-19T17:16:23Z</time>
      </trkpt>
      <trkpt lat="34.012980032712221" lon="-3.157647997140884">
        <ele>810.60000000000002</ele>
        <time>2003-04-19T17:16:26Z</time>
      </trkpt>
      <trkpt lat="34.013144988566637" lon="-3.15761698409915">
        <ele>809.10000000000002</ele>
        <time>2003-04-19T17:16:27Z</time>
      </trkpt>
      <trkpt lat="34.013413041830063" lon="-3.157557975500822">
        <ele>808.20000000000005</ele>
        <time>2003-04-19T17:16:30Z</time>
      </trkpt>
      <trkpt lat="34.013498034328222" lon="-3.15750801935792">
        <ele>808</ele>
        <time>2003-04-19T17:16:31Z</time>
      </trkpt>
      <trkpt lat="34.013647986575961" lon="-3.157393019646406">
        <ele>807.29999999999995</ele>
        <time>2003-04-19T17:16:34Z</time>
      </trkpt>
      <trkpt lat="34.013762986287475" lon="-3.157253041863442">
        <ele>806</ele>
        <time>2003-04-19T17:16:35Z</time>
      </trkpt>
      <trkpt lat="34.013876980170608" lon="-3.157141981646419">
        <ele>805.70000000000005</ele>
        <time>2003-04-19T17:16:38Z</time>
      </trkpt>
      <trkpt lat="34.014028022065759" lon="-3.157097976654768">
        <ele>805.89999999999998</ele>
        <time>2003-04-19T17:16:39Z</time>
      </trkpt>
      <trkpt lat="34.01411997154355" lon="-3.157108034938574">
        <ele>806</ele>
        <time>2003-04-19T17:16:41Z</time>
      </trkpt>
      <trkpt lat="34.014264978468418" lon="-3.157012984156609">
        <ele>807.39999999999998</ele>
        <time>2003-04-19T17:16:42Z</time>
      </trkpt>
      <trkpt lat="34.014507969841361" lon="-3.156833024695516">
        <ele>807.39999999999998</ele>
        <time>2003-04-19T17:16:46Z</time>
      </trkpt>
      <trkpt lat="34.015054972842336" lon="-3.156460030004382">
        <ele>807.5</ele>
        <time>2003-04-19T17:16:52Z</time>
      </trkpt>
      <trkpt lat="34.015159998089075" lon="-3.156385011970997">
        <ele>807.79999999999995</ele>
        <time>2003-04-19T17:16:53Z</time>
      </trkpt>
      <trkpt lat="34.015446994453669" lon="-3.156262971460819">
        <ele>807.20000000000005</ele>
        <time>2003-04-19T17:16:57Z</time>
      </trkpt>
      <trkpt lat="34.015627037733793" lon="-3.156161969527602">
        <ele>807.89999999999998</ele>
        <time>2003-04-19T17:17:00Z</time>
      </trkpt>
      <trkpt lat="34.01579299941659" lon="-3.156067002564669">
        <ele>807.29999999999995</ele>
        <time>2003-04-19T17:17:01Z</time>
      </trkpt>
      <trkpt lat="34.016010006889701" lon="-3.155913027003408">
        <ele>807.10000000000002</ele>
        <time>2003-04-19T17:17:05Z</time>
      </trkpt>
      <trkpt lat="34.016332039609551" lon="-3.155627958476543">
        <ele>807.29999999999995</ele>
        <time>2003-04-19T17:17:09Z</time>
      </trkpt>
      <trkpt lat="34.016500012949109" lon="-3.155497033149004">
        <ele>807.39999999999998</ele>
        <time>2003-04-19T17:17:11Z</time>
      </trkpt>
      <trkpt lat="34.016658011823893" lon="-3.155350014567375">
        <ele>807</ele>
        <time>2003-04-19T17:17:13Z</time>
      </trkpt>
      <trkpt lat="34.016778040677309" lon="-3.155150022357702">
        <ele>806.79999999999995</ele>
        <time>2003-04-19T17:17:15Z</time>
      </trkpt>
      <trkpt lat="34.016903014853597" lon="-3.154999986290932">
        <ele>806.60000000000002</ele>
        <time>2003-04-19T17:17:16Z</time>
      </trkpt>
      <trkpt lat="34.017333006486297" lon="-3.154675019904971">
        <ele>806</ele>
        <time>2003-04-19T17:17:21Z</time>
      </trkpt>
      <trkpt lat="34.0174899995327" lon="-3.154596984386444">
        <ele>805.60000000000002</ele>
        <time>2003-04-19T17:17:24Z</time>
      </trkpt>
      <trkpt lat="34.017608016729355" lon="-3.154517021030188">
        <ele>804.89999999999998</ele>
        <time>2003-04-19T17:17:25Z</time>
      </trkpt>
      <trkpt lat="34.017674988135695" lon="-3.154402021318674">
        <ele>804.39999999999998</ele>
        <time>2003-04-19T17:17:28Z</time>
      </trkpt>
      <trkpt lat="34.017737014219165" lon="-3.154275035485625">
        <ele>803.10000000000002</ele>
        <time>2003-04-19T17:17:31Z</time>
      </trkpt>
      <trkpt lat="34.017717987298965" lon="-3.154132040217519">
        <ele>802</ele>
        <time>2003-04-19T17:17:33Z</time>
      </trkpt>
      <trkpt lat="34.017808008939028" lon="-3.154022991657257">
        <ele>803.10000000000002</ele>
        <time>2003-04-19T17:17:36Z</time>
      </trkpt>
      <trkpt lat="34.017955027520657" lon="-3.153962977230549">
        <ele>804</ele>
        <time>2003-04-19T17:17:38Z</time>
      </trkpt>
      <trkpt lat="34.018110008910298" lon="-3.153872033581138">
        <ele>804</ele>
        <time>2003-04-19T17:17:40Z</time>
      </trkpt>
      <trkpt lat="34.018187960609794" lon="-3.153789974749088">
        <ele>803.79999999999995</ele>
        <time>2003-04-19T17:17:40Z</time>
      </trkpt>
      <trkpt lat="34.018872007727623" lon="-3.153002997860313">
        <ele>802.5</ele>
        <time>2003-04-19T17:17:51Z</time>
      </trkpt>
      <trkpt lat="34.018958006054163" lon="-3.15293200314045">
        <ele>802.10000000000002</ele>
        <time>2003-04-19T17:17:52Z</time>
      </trkpt>
      <trkpt lat="34.019087003543973" lon="-3.152796970680356">
        <ele>799.60000000000002</ele>
        <time>2003-04-19T17:17:55Z</time>
      </trkpt>
      <trkpt lat="34.019280038774014" lon="-3.152475021779537">
        <ele>796.5</ele>
        <time>2003-04-19T17:18:00Z</time>
      </trkpt>
      <trkpt lat="34.019399983808398" lon="-3.152388017624617">
        <ele>798.20000000000005</ele>
        <time>2003-04-19T17:18:03Z</time>
      </trkpt>
      <trkpt lat="34.019502997398376" lon="-3.152270000427961">
        <ele>797.60000000000002</ele>
        <time>2003-04-19T17:18:05Z</time>
      </trkpt>
      <trkpt lat="34.01959796436131" lon="-3.152096997946501">
        <ele>796</ele>
        <time>2003-04-19T17:18:07Z</time>
      </trkpt>
      <trkpt lat="34.019650015980005" lon="-3.151917038485408">
        <ele>794.70000000000005</ele>
        <time>2003-04-19T17:18:09Z</time>
      </trkpt>
      <trkpt lat="34.019702989608049" lon="-3.15175199881196">
        <ele>793.10000000000002</ele>
        <time>2003-04-19T17:18:10Z</time>
      </trkpt>
      <trkpt lat="34.019793011248112" lon="-3.151607997715473">
        <ele>791.70000000000005</ele>
        <time>2003-04-19T17:18:13Z</time>
      </trkpt>
      <trkpt lat="34.019914967939258" lon="-3.151461984962225">
        <ele>790</ele>
        <time>2003-04-19T17:18:14Z</time>
      </trkpt>
      <trkpt lat="34.020149996504188" lon="-3.15115001052618">
        <ele>787</ele>
        <time>2003-04-19T17:18:18Z</time>
      </trkpt>
      <trkpt lat="34.020630028098822" lon="-3.150517009198666">
        <ele>782.89999999999998</ele>
        <time>2003-04-19T17:18:26Z</time>
      </trkpt>
      <trkpt lat="34.020798001438379" lon="-3.150415001437068">
        <ele>781.89999999999998</ele>
        <time>2003-04-19T17:18:29Z</time>
      </trkpt>
      <trkpt lat="34.020949965342879" lon="-3.150294972583652">
        <ele>780.89999999999998</ele>
        <time>2003-04-19T17:18:30Z</time>
      </trkpt>
      <trkpt lat="34.021137971431017" lon="-3.150130016729236">
        <ele>779.70000000000005</ele>
        <time>2003-04-19T17:18:34Z</time>
      </trkpt>
      <trkpt lat="34.021297981962562" lon="-3.150109983980656">
        <ele>780</ele>
        <time>2003-04-19T17:18:36Z</time>
      </trkpt>
      <trkpt lat="34.021554971113801" lon="-3.15005499869585">
        <ele>782.20000000000005</ele>
        <time>2003-04-19T17:18:38Z</time>
      </trkpt>
      <trkpt lat="34.021642981097102" lon="-3.149992972612381">
        <ele>781.89999999999998</ele>
        <time>2003-04-19T17:18:40Z</time>
      </trkpt>
      <trkpt lat="34.02180802077055" lon="-3.149846959859133">
        <ele>781.89999999999998</ele>
        <time>2003-04-19T17:18:41Z</time>
      </trkpt>
      <trkpt lat="34.02198001742363" lon="-3.149707987904549">
        <ele>781.79999999999995</ele>
        <time>2003-04-19T17:18:44Z</time>
      </trkpt>
      <trkpt lat="34.022229965776205" lon="-3.149483017623425">
        <ele>780.70000000000005</ele>
        <time>2003-04-19T17:18:46Z</time>
      </trkpt>
      <trkpt lat="34.022532971575856" lon="-3.149122009053826">
        <ele>781.39999999999998</ele>
        <time>2003-04-19T17:18:50Z</time>
      </trkpt>
      <trkpt lat="34.022631961852312" lon="-3.148956969380379">
        <ele>780</ele>
        <time>2003-04-19T17:18:53Z</time>
      </trkpt>
      <trkpt lat="34.022758025676012" lon="-3.148865019902587">
        <ele>779.29999999999995</ele>
        <time>2003-04-19T17:18:54Z</time>
      </trkpt>
      <trkpt lat="34.022852992638946" lon="-3.148769969120622">
        <ele>777.70000000000005</ele>
        <time>2003-04-19T17:18:57Z</time>
      </trkpt>
      <trkpt lat="34.022872019559145" lon="-3.14865798689425">
        <ele>776.29999999999995</ele>
        <time>2003-04-19T17:18:59Z</time>
      </trkpt>
      <trkpt lat="34.022879982367158" lon="-3.148490013554692">
        <ele>778.5</ele>
        <time>2003-04-19T17:19:01Z</time>
      </trkpt>
      <trkpt lat="34.023005040362477" lon="-3.148402003571391">
        <ele>779.29999999999995</ele>
        <time>2003-04-19T17:19:03Z</time>
      </trkpt>
      <trkpt lat="34.023096989840269" lon="-3.148396974429488">
        <ele>778.70000000000005</ele>
        <time>2003-04-19T17:19:04Z</time>
      </trkpt>
      <trkpt lat="34.023296982049942" lon="-3.148350035771728">
        <ele>777.79999999999995</ele>
        <time>2003-04-19T17:19:05Z</time>
      </trkpt>
      <trkpt lat="34.023381974548101" lon="-3.148281974717975">
        <ele>777.79999999999995</ele>
        <time>2003-04-19T17:19:08Z</time>
      </trkpt>
      <trkpt lat="34.023507032543421" lon="-3.148145014420152">
        <ele>777.39999999999998</ele>
        <time>2003-04-19T17:19:09Z</time>
      </trkpt>
      <trkpt lat="34.02359495870769" lon="-3.148006964474917">
        <ele>775.20000000000005</ele>
        <time>2003-04-19T17:19:11Z</time>
      </trkpt>
      <trkpt lat="34.023729991167784" lon="-3.147870004177094">
        <ele>773.20000000000005</ele>
        <time>2003-04-19T17:19:13Z</time>
      </trkpt>
      <trkpt lat="34.023827975615859" lon="-3.147822981700301">
        <ele>773</ele>
        <time>2003-04-19T17:19:15Z</time>
      </trkpt>
      <trkpt lat="34.023931995034218" lon="-3.147817030549049">
        <ele>775</ele>
        <time>2003-04-19T17:19:16Z</time>
      </trkpt>
      <trkpt lat="34.02406501583755" lon="-3.147676968947053">
        <ele>776.70000000000005</ele>
        <time>2003-04-19T17:19:17Z</time>
      </trkpt>
      <trkpt lat="34.024074990302324" lon="-3.147502960637212">
        <ele>777.10000000000002</ele>
        <time>2003-04-19T17:19:20Z</time>
      </trkpt>
      <trkpt lat="34.024176998063922" lon="-3.147387960925698">
        <ele>777.10000000000002</ele>
        <time>2003-04-19T17:19:21Z</time>
      </trkpt>
      <trkpt lat="34.024329967796803" lon="-3.147287964820862">
        <ele>777.10000000000002</ele>
        <time>2003-04-19T17:19:24Z</time>
      </trkpt>
      <trkpt lat="34.024419989436865" lon="-3.147246977314353">
        <ele>775.79999999999995</ele>
        <time>2003-04-19T17:19:24Z</time>
      </trkpt>
      <trkpt lat="34.024521997198462" lon="-3.14721797592938">
        <ele>776.10000000000002</ele>
        <time>2003-04-19T17:19:26Z</time>
      </trkpt>
      <trkpt lat="34.024825002998114" lon="-3.147108005359769">
        <ele>776.39999999999998</ele>
        <time>2003-04-19T17:19:28Z</time>
      </trkpt>
      <trkpt lat="34.024913012981415" lon="-3.147040028125048">
        <ele>776.70000000000005</ele>
        <time>2003-04-19T17:19:30Z</time>
      </trkpt>
      <trkpt lat="34.025045027956367" lon="-3.146899966523051">
        <ele>776.5</ele>
        <time>2003-04-19T17:19:31Z</time>
      </trkpt>
      <trkpt lat="34.025499997660518" lon="-3.146463017910719">
        <ele>774.60000000000002</ele>
        <time>2003-04-19T17:19:39Z</time>
      </trkpt>
      <trkpt lat="34.025673000141978" lon="-3.146427981555462">
        <ele>776.10000000000002</ele>
        <time>2003-04-19T17:19:42Z</time>
      </trkpt>
      <trkpt lat="34.02580501511693" lon="-3.146320022642613">
        <ele>776</ele>
        <time>2003-04-19T17:19:43Z</time>
      </trkpt>
      <trkpt lat="34.026016993448138" lon="-3.146088011562824">
        <ele>774.89999999999998</ele>
        <time>2003-04-19T17:19:47Z</time>
      </trkpt>
      <trkpt lat="34.026327040046453" lon="-3.145777964964509">
        <ele>774.60000000000002</ele>
        <time>2003-04-19T17:19:50Z</time>
      </trkpt>
      <trkpt lat="34.026477998122573" lon="-3.145667994394898">
        <ele>774.60000000000002</ele>
        <time>2003-04-19T17:19:51Z</time>
      </trkpt>
      <trkpt lat="34.026583023369312" lon="-3.145552994683385">
        <ele>774.39999999999998</ele>
        <time>2003-04-19T17:19:55Z</time>
      </trkpt>
      <trkpt lat="34.026704980060458" lon="-3.145359959453344">
        <ele>774</ele>
        <time>2003-04-19T17:19:58Z</time>
      </trkpt>
      <trkpt lat="34.026842024177313" lon="-3.145247977226973">
        <ele>774.60000000000002</ele>
        <time>2003-04-19T17:19:59Z</time>
      </trkpt>
      <trkpt lat="34.027013015002012" lon="-3.145123003050685">
        <ele>775.60000000000002</ele>
        <time>2003-04-19T17:20:02Z</time>
      </trkpt>
      <trkpt lat="34.027119968086481" lon="-3.145077992230654">
        <ele>774.5</ele>
        <time>2003-04-19T17:20:05Z</time>
      </trkpt>
      <trkpt lat="34.027272015810013" lon="-3.145042033866048">
        <ele>776.89999999999998</ele>
        <time>2003-04-19T17:20:06Z</time>
      </trkpt>
      <trkpt lat="34.027422973886132" lon="-3.144946983084083">
        <ele>777</ele>
        <time>2003-04-19T17:20:07Z</time>
      </trkpt>
      <trkpt lat="34.027564963325858" lon="-3.144797030836344">
        <ele>776.89999999999998</ele>
        <time>2003-04-19T17:20:10Z</time>
      </trkpt>
      <trkpt lat="34.027745006605983" lon="-3.144568037241697">
        <ele>776</ele>
        <time>2003-04-19T17:20:14Z</time>
      </trkpt>
      <trkpt lat="34.027826981619" lon="-3.144514979794622">
        <ele>776.5</ele>
        <time>2003-04-19T17:20:14Z</time>
      </trkpt>
      <trkpt lat="34.02804197743535" lon="-3.144332002848387">
        <ele>776.60000000000002</ele>
        <time>2003-04-19T17:20:18Z</time>
      </trkpt>
      <trkpt lat="34.028096962720156" lon="-3.144226977601647">
        <ele>776.70000000000005</ele>
        <time>2003-04-19T17:20:18Z</time>
      </trkpt>
      <trkpt lat="34.028314976021647" lon="-3.14382498152554">
        <ele>775.79999999999995</ele>
        <time>2003-04-19T17:20:22Z</time>
      </trkpt>
      <trkpt lat="34.02859702706337" lon="-3.143509989604354">
        <ele>776.79999999999995</ele>
        <time>2003-04-19T17:20:26Z</time>
      </trkpt>
      <trkpt lat="34.028900032863021" lon="-3.143272027373314">
        <ele>775.29999999999995</ele>
        <time>2003-04-19T17:20:30Z</time>
      </trkpt>
      <trkpt lat="34.029121985659003" lon="-3.142914958298206">
        <ele>774.79999999999995</ele>
        <time>2003-04-19T17:20:34Z</time>
      </trkpt>
      <trkpt lat="34.029212007299066" lon="-3.14281496219337">
        <ele>774.39999999999998</ele>
        <time>2003-04-19T17:20:37Z</time>
      </trkpt>
      <trkpt lat="34.02935198508203" lon="-3.142672972753644">
        <ele>773.29999999999995</ele>
        <time>2003-04-19T17:20:38Z</time>
      </trkpt>
      <trkpt lat="34.029664965346456" lon="-3.142339959740639">
        <ele>769.70000000000005</ele>
        <time>2003-04-19T17:20:42Z</time>
      </trkpt>
      <trkpt lat="34.029920026659966" lon="-3.142150025814772">
        <ele>767.60000000000002</ele>
        <time>2003-04-19T17:20:45Z</time>
      </trkpt>
      <trkpt lat="34.030152037739754" lon="-3.141986997798085">
        <ele>765.70000000000005</ele>
        <time>2003-04-19T17:20:49Z</time>
      </trkpt>
      <trkpt lat="34.030233006924391" lon="-3.141833022236824">
        <ele>765.5</ele>
        <time>2003-04-19T17:20:51Z</time>
      </trkpt>
      <trkpt lat="34.03033702634275" lon="-3.141735037788749">
        <ele>764.39999999999998</ele>
        <time>2003-04-19T17:20:53Z</time>
      </trkpt>
      <trkpt lat="34.030487984418869" lon="-3.141647027805448">
        <ele>763</ele>
        <time>2003-04-19T17:20:56Z</time>
      </trkpt>
      <trkpt lat="34.030734999105334" lon="-3.141488023102284">
        <ele>760.89999999999998</ele>
        <time>2003-04-19T17:20:59Z</time>
      </trkpt>
      <trkpt lat="34.030904984101653" lon="-3.141413005068898">
        <ele>759.39999999999998</ele>
        <time>2003-04-19T17:21:00Z</time>
      </trkpt>
      <trkpt lat="34.031217964366078" lon="-3.141294987872243">
        <ele>756.79999999999995</ele>
        <time>2003-04-19T17:21:04Z</time>
      </trkpt>
      <trkpt lat="34.031336987391114" lon="-3.141197003424168">
        <ele>755.60000000000002</ele>
        <time>2003-04-19T17:21:07Z</time>
      </trkpt>
      <trkpt lat="34.031451987102628" lon="-3.14111502841115">
        <ele>754.5</ele>
        <time>2003-04-19T17:21:09Z</time>
      </trkpt>
      <trkpt lat="34.031576961278915" lon="-3.141068005934358">
        <ele>753.60000000000002</ele>
        <time>2003-04-19T17:21:12Z</time>
      </trkpt>
      <trkpt lat="34.031700007617474" lon="-3.140994999557734">
        <ele>752.20000000000005</ele>
        <time>2003-04-19T17:21:14Z</time>
      </trkpt>
      <trkpt lat="34.031811989843845" lon="-3.140891985967755">
        <ele>750.39999999999998</ele>
        <time>2003-04-19T17:21:16Z</time>
      </trkpt>
      <trkpt lat="34.031902011483908" lon="-3.140747984871268">
        <ele>749.20000000000005</ele>
        <time>2003-04-19T17:21:18Z</time>
      </trkpt>
      <trkpt lat="34.032030003145337" lon="-3.140661986544728">
        <ele>748.89999999999998</ele>
        <time>2003-04-19T17:21:19Z</time>
      </trkpt>
      <trkpt lat="34.0322529617697" lon="-3.140555033460259">
        <ele>748.89999999999998</ele>
        <time>2003-04-19T17:21:23Z</time>
      </trkpt>
      <trkpt lat="34.032822009176016" lon="-3.140038037672639">
        <ele>748.79999999999995</ele>
        <time>2003-04-19T17:21:31Z</time>
      </trkpt>
      <trkpt lat="34.033100036904216" lon="-3.139747017994523">
        <ele>747.79999999999995</ele>
        <time>2003-04-19T17:21:35Z</time>
      </trkpt>
      <trkpt lat="34.033837979659438" lon="-3.139115022495389">
        <ele>746.89999999999998</ele>
        <time>2003-04-19T17:21:43Z</time>
      </trkpt>
      <trkpt lat="34.034007964655757" lon="-3.139019971713424">
        <ele>747.60000000000002</ele>
        <time>2003-04-19T17:21:46Z</time>
      </trkpt>
      <trkpt lat="34.034575000405312" lon="-3.138717971742153">
        <ele>745.89999999999998</ele>
        <time>2003-04-19T17:21:51Z</time>
      </trkpt>
      <trkpt lat="34.034735010936856" lon="-3.13855997286737">
        <ele>745.10000000000002</ele>
        <time>2003-04-19T17:21:54Z</time>
      </trkpt>
      <trkpt lat="34.035149998962879" lon="-3.138174992054701">
        <ele>743.60000000000002</ele>
        <time>2003-04-19T17:21:58Z</time>
      </trkpt>
      <trkpt lat="34.035422997549176" lon="-3.137971982359886">
        <ele>743.10000000000002</ele>
        <time>2003-04-19T17:22:02Z</time>
      </trkpt>
      <trkpt lat="34.035615026950836" lon="-3.137703007087112">
        <ele>742.5</ele>
        <time>2003-04-19T17:22:05Z</time>
      </trkpt>
      <trkpt lat="34.035700019448996" lon="-3.137547019869089">
        <ele>741.89999999999998</ele>
        <time>2003-04-19T17:22:06Z</time>
      </trkpt>
      <trkpt lat="34.035847960039973" lon="-3.137472001835704">
        <ele>742.20000000000005</ele>
        <time>2003-04-19T17:22:09Z</time>
      </trkpt>
      <trkpt lat="34.036006964743137" lon="-3.137362031266093">
        <ele>742.20000000000005</ele>
        <time>2003-04-19T17:22:10Z</time>
      </trkpt>
      <trkpt lat="34.036135040223598" lon="-3.1372079718858">
        <ele>742.10000000000002</ele>
        <time>2003-04-19T17:22:13Z</time>
      </trkpt>
      <trkpt lat="34.036330003291368" lon="-3.13701200298965">
        <ele>740.60000000000002</ele>
        <time>2003-04-19T17:22:16Z</time>
      </trkpt>
      <trkpt lat="34.036422958597541" lon="-3.136962968856096">
        <ele>741.29999999999995</ele>
        <time>2003-04-19T17:22:17Z</time>
      </trkpt>
      <trkpt lat="34.036701992154121" lon="-3.136757025495172">
        <ele>741.60000000000002</ele>
        <time>2003-04-19T17:22:20Z</time>
      </trkpt>
      <trkpt lat="34.037012960761786" lon="-3.136455025523901">
        <ele>740.39999999999998</ele>
        <time>2003-04-19T17:22:24Z</time>
      </trkpt>
      <trkpt lat="34.03730196878314" lon="-3.136084964498878">
        <ele>739.89999999999998</ele>
        <time>2003-04-19T17:22:29Z</time>
      </trkpt>
      <trkpt lat="34.037452004849911" lon="-3.135948004201055">
        <ele>741.60000000000002</ele>
        <time>2003-04-19T17:22:30Z</time>
      </trkpt>
      <trkpt lat="34.03779499232769" lon="-3.135652961209416">
        <ele>742.70000000000005</ele>
        <time>2003-04-19T17:22:35Z</time>
      </trkpt>
      <trkpt lat="34.038465041667223" lon="-3.134949970990419">
        <ele>743.60000000000002</ele>
        <time>2003-04-19T17:22:43Z</time>
      </trkpt>
      <trkpt lat="34.038614993914962" lon="-3.134794989600778">
        <ele>744.10000000000002</ele>
        <time>2003-04-19T17:22:44Z</time>
      </trkpt>
      <trkpt lat="34.03910499997437" lon="-3.134329961612821">
        <ele>744.29999999999995</ele>
        <time>2003-04-19T17:22:51Z</time>
      </trkpt>
      <trkpt lat="34.039583019912243" lon="-3.133808020502329">
        <ele>744.20000000000005</ele>
        <time>2003-04-19T17:22:56Z</time>
      </trkpt>
      <trkpt lat="34.039658037945628" lon="-3.133708024397492">
        <ele>744.20000000000005</ele>
        <time>2003-04-19T17:22:57Z</time>
      </trkpt>
      <trkpt lat="34.040067996829748" lon="-3.133241990581155">
        <ele>745.10000000000002</ele>
        <time>2003-04-19T17:23:03Z</time>
      </trkpt>
      <trkpt lat="34.040772998705506" lon="-3.132443027570844">
        <ele>745.29999999999995</ele>
        <time>2003-04-19T17:23:11Z</time>
      </trkpt>
      <trkpt lat="34.041095031425357" lon="-3.132044970989227">
        <ele>745.29999999999995</ele>
        <time>2003-04-19T17:23:15Z</time>
      </trkpt>
      <trkpt lat="34.041216988116503" lon="-3.131874985992909">
        <ele>745.70000000000005</ele>
        <time>2003-04-19T17:23:16Z</time>
      </trkpt>
      <trkpt lat="34.041444975882769" lon="-3.131497967988253">
        <ele>745.89999999999998</ele>
        <time>2003-04-19T17:23:20Z</time>
      </trkpt>
      <trkpt lat="34.041689978912473" lon="-3.131241984665394">
        <ele>746.20000000000005</ele>
        <time>2003-04-19T17:23:23Z</time>
      </trkpt>
      <trkpt lat="34.04179198667407" lon="-3.131093038246036">
        <ele>746</ele>
        <time>2003-04-19T17:23:26Z</time>
      </trkpt>
      <trkpt lat="34.041892988607287" lon="-3.130906959995627">
        <ele>746.29999999999995</ele>
        <time>2003-04-19T17:23:27Z</time>
      </trkpt>
      <trkpt lat="34.042068002745509" lon="-3.130575036630034">
        <ele>746.60000000000002</ele>
        <time>2003-04-19T17:23:31Z</time>
      </trkpt>
      <trkpt lat="34.042324991896749" lon="-3.130061980336905">
        <ele>746.5</ele>
        <time>2003-04-19T17:23:35Z</time>
      </trkpt>
      <trkpt lat="34.042812986299396" lon="-3.129278020933271">
        <ele>747.79999999999995</ele>
        <time>2003-04-19T17:23:43Z</time>
      </trkpt>
      <trkpt lat="34.043365018442273" lon="-3.1282680016011">
        <ele>747.10000000000002</ele>
        <time>2003-04-19T17:23:51Z</time>
      </trkpt>
      <trkpt lat="34.043602980673313" lon="-3.127819988876581">
        <ele>747.10000000000002</ele>
        <time>2003-04-19T17:23:56Z</time>
      </trkpt>
      <trkpt lat="34.043731978163123" lon="-3.127527963370085">
        <ele>746.70000000000005</ele>
        <time>2003-04-19T17:23:58Z</time>
      </trkpt>
      <trkpt lat="34.043887965381145" lon="-3.127247001975775">
        <ele>746.5</ele>
        <time>2003-04-19T17:24:01Z</time>
      </trkpt>
      <trkpt lat="34.044091980904341" lon="-3.126942990347743">
        <ele>746.89999999999998</ele>
        <time>2003-04-19T17:24:05Z</time>
      </trkpt>
      <trkpt lat="34.044436980038881" lon="-3.126496989279985">
        <ele>746.5</ele>
        <time>2003-04-19T17:24:09Z</time>
      </trkpt>
      <trkpt lat="34.044935032725334" lon="-3.125844961032271">
        <ele>746.79999999999995</ele>
        <time>2003-04-19T17:24:14Z</time>
      </trkpt>
      <trkpt lat="34.044965039938688" lon="-3.125729961320758">
        <ele>747.20000000000005</ele>
        <time>2003-04-19T17:24:16Z</time>
      </trkpt>
      <trkpt lat="34.045039974153042" lon="-3.125513037666678">
        <ele>745.10000000000002</ele>
        <time>2003-04-19T17:24:17Z</time>
      </trkpt>
      <trkpt lat="34.045103006064892" lon="-3.125399965792894">
        <ele>744.20000000000005</ele>
        <time>2003-04-19T17:24:18Z</time>
      </trkpt>
      <trkpt lat="34.045637017115951" lon="-3.12446697615087">
        <ele>746.20000000000005</ele>
        <time>2003-04-19T17:24:28Z</time>
      </trkpt>
      <trkpt lat="34.045665012672544" lon="-3.124262038618326">
        <ele>746</ele>
        <time>2003-04-19T17:24:29Z</time>
      </trkpt>
      <trkpt lat="34.045741958543658" lon="-3.124088030308485">
        <ele>746.20000000000005</ele>
        <time>2003-04-19T17:24:32Z</time>
      </trkpt>
      <trkpt lat="34.045867016538978" lon="-3.123891977593303">
        <ele>745.70000000000005</ele>
        <time>2003-04-19T17:24:33Z</time>
      </trkpt>
      <trkpt lat="34.046072037890553" lon="-3.123542033135891">
        <ele>745.60000000000002</ele>
        <time>2003-04-19T17:24:36Z</time>
      </trkpt>
      <trkpt lat="34.046609988436103" lon="-3.122586999088526">
        <ele>744.60000000000002</ele>
        <time>2003-04-19T17:24:44Z</time>
      </trkpt>
      <trkpt lat="34.046664973720908" lon="-3.122407961636782">
        <ele>744.20000000000005</ele>
        <time>2003-04-19T17:24:47Z</time>
      </trkpt>
      <trkpt lat="34.046777039766312" lon="-3.122318023815751">
        <ele>742.20000000000005</ele>
        <time>2003-04-19T17:24:50Z</time>
      </trkpt>
      <trkpt lat="34.04692699201405" lon="-3.122232025489211">
        <ele>738.89999999999998</ele>
        <time>2003-04-19T17:24:52Z</time>
      </trkpt>
      <trkpt lat="34.047020031139255" lon="-3.122162958607078">
        <ele>738.60000000000002</ele>
        <time>2003-04-19T17:24:52Z</time>
      </trkpt>
      <trkpt lat="34.047275008633733" lon="-3.121957015246153">
        <ele>743.39999999999998</ele>
        <time>2003-04-19T17:24:55Z</time>
      </trkpt>
      <trkpt lat="34.04737701639533" lon="-3.121785018593073">
        <ele>742.29999999999995</ele>
        <time>2003-04-19T17:24:58Z</time>
      </trkpt>
      <trkpt lat="34.047627970576286" lon="-3.121344968676567">
        <ele>741.29999999999995</ele>
        <time>2003-04-19T17:25:03Z</time>
      </trkpt>
      <trkpt lat="34.047697959467769" lon="-3.121182024478912">
        <ele>741.60000000000002</ele>
        <time>2003-04-19T17:25:04Z</time>
      </trkpt>
      <trkpt lat="34.04776300303638" lon="-3.121012961491942">
        <ele>740.39999999999998</ele>
        <time>2003-04-19T17:25:07Z</time>
      </trkpt>
      <trkpt lat="34.047878002747893" lon="-3.120865020900965">
        <ele>742.20000000000005</ele>
        <time>2003-04-19T17:25:08Z</time>
      </trkpt>
      <trkpt lat="34.047927036881447" lon="-3.120754966512322">
        <ele>742</ele>
        <time>2003-04-19T17:25:11Z</time>
      </trkpt>
      <trkpt lat="34.04804497025907" lon="-3.120657987892628">
        <ele>742</ele>
        <time>2003-04-19T17:25:12Z</time>
      </trkpt>
      <trkpt lat="34.048137003555894" lon="-3.120518010109663">
        <ele>742.60000000000002</ele>
        <time>2003-04-19T17:25:15Z</time>
      </trkpt>
      <trkpt lat="34.048252003267407" lon="-3.120348025113344">
        <ele>742.39999999999998</ele>
        <time>2003-04-19T17:25:17Z</time>
      </trkpt>
      <trkpt lat="34.048442021012306" lon="-3.120037978515029">
        <ele>742.70000000000005</ele>
        <time>2003-04-19T17:25:19Z</time>
      </trkpt>
      <trkpt lat="34.049024982377887" lon="-3.119071964174509">
        <ele>742.89999999999998</ele>
        <time>2003-04-19T17:25:29Z</time>
      </trkpt>
      <trkpt lat="34.049217011779547" lon="-3.118777005001903">
        <ele>743</ele>
        <time>2003-04-19T17:25:31Z</time>
      </trkpt>
      <trkpt lat="34.049281971529126" lon="-3.118690000846982">
        <ele>743.10000000000002</ele>
        <time>2003-04-19T17:25:33Z</time>
      </trkpt>
      <trkpt lat="34.049714980646968" lon="-3.118005031719804">
        <ele>743.39999999999998</ele>
        <time>2003-04-19T17:25:39Z</time>
      </trkpt>
      <trkpt lat="34.049842972308397" lon="-3.117807973176241">
        <ele>743.20000000000005</ele>
        <time>2003-04-19T17:25:42Z</time>
      </trkpt>
      <trkpt lat="34.049941962584853" lon="-3.117651985958219">
        <ele>743</ele>
        <time>2003-04-19T17:25:44Z</time>
      </trkpt>
      <trkpt lat="34.050002982839942" lon="-3.117479989305139">
        <ele>742.70000000000005</ele>
        <time>2003-04-19T17:25:46Z</time>
      </trkpt>
      <trkpt lat="34.050107002258301" lon="-3.117322996258736">
        <ele>743.10000000000002</ele>
        <time>2003-04-19T17:25:48Z</time>
      </trkpt>
      <trkpt lat="34.050227031111717" lon="-3.117143036797643">
        <ele>743</ele>
        <time>2003-04-19T17:25:49Z</time>
      </trkpt>
      <trkpt lat="34.050323003903031" lon="-3.116922006011009">
        <ele>742.89999999999998</ele>
        <time>2003-04-19T17:25:52Z</time>
      </trkpt>
      <trkpt lat="34.050382012501359" lon="-3.116746991872788">
        <ele>742.39999999999998</ele>
        <time>2003-04-19T17:25:53Z</time>
      </trkpt>
      <trkpt lat="34.050483014434576" lon="-3.116563009098172">
        <ele>743.20000000000005</ele>
        <time>2003-04-19T17:25:56Z</time>
      </trkpt>
      <trkpt lat="34.050631960853934" lon="-3.116307025775313">
        <ele>743</ele>
        <time>2003-04-19T17:25:58Z</time>
      </trkpt>
      <trkpt lat="34.050904959440231" lon="-3.115681987255812">
        <ele>741.89999999999998</ele>
        <time>2003-04-19T17:26:05Z</time>
      </trkpt>
      <trkpt lat="34.051209976896644" lon="-3.115122998133302">
        <ele>742.10000000000002</ele>
        <time>2003-04-19T17:26:11Z</time>
      </trkpt>
      <trkpt lat="34.051267979666591" lon="-3.114995006471872">
        <ele>742.20000000000005</ele>
        <time>2003-04-19T17:26:13Z</time>
      </trkpt>
      <trkpt lat="34.051379961892962" lon="-3.114886963739991">
        <ele>742.70000000000005</ele>
        <time>2003-04-19T17:26:15Z</time>
      </trkpt>
      <trkpt lat="34.051465038210154" lon="-3.114737011492252">
        <ele>742.20000000000005</ele>
        <time>2003-04-19T17:26:16Z</time>
      </trkpt>
      <trkpt lat="34.051533015444875" lon="-3.114622011780739">
        <ele>741.60000000000002</ele>
        <time>2003-04-19T17:26:19Z</time>
      </trkpt>
      <trkpt lat="34.051695037633181" lon="-3.114402992650867">
        <ele>741.79999999999995</ele>
        <time>2003-04-19T17:26:21Z</time>
      </trkpt>
      <trkpt lat="34.051827974617481" lon="-3.114222027361393">
        <ele>741.29999999999995</ele>
        <time>2003-04-19T17:26:24Z</time>
      </trkpt>
      <trkpt lat="34.051880026236176" lon="-3.114111972972751">
        <ele>741.70000000000005</ele>
        <time>2003-04-19T17:26:24Z</time>
      </trkpt>
      <trkpt lat="34.051914978772402" lon="-3.11400200240314">
        <ele>741.70000000000005</ele>
        <time>2003-04-19T17:26:25Z</time>
      </trkpt>
      <trkpt lat="34.052101979032159" lon="-3.113447036594153">
        <ele>741.89999999999998</ele>
        <time>2003-04-19T17:26:31Z</time>
      </trkpt>
      <trkpt lat="34.052225025370717" lon="-3.113247966393828">
        <ele>741.79999999999995</ele>
        <time>2003-04-19T17:26:32Z</time>
      </trkpt>
      <trkpt lat="34.05240498483181" lon="-3.112940015271306">
        <ele>741.79999999999995</ele>
        <time>2003-04-19T17:26:36Z</time>
      </trkpt>
      <trkpt lat="34.052557032555342" lon="-3.112610019743443">
        <ele>742.39999999999998</ele>
        <time>2003-04-19T17:26:39Z</time>
      </trkpt>
      <trkpt lat="34.052740009501576" lon="-3.111963020637631">
        <ele>742.89999999999998</ele>
        <time>2003-04-19T17:26:44Z</time>
      </trkpt>
      <trkpt lat="34.052806980907917" lon="-3.111886996775866">
        <ele>743</ele>
        <time>2003-04-19T17:26:46Z</time>
      </trkpt>
      <trkpt lat="34.052870012819767" lon="-3.111705025658011">
        <ele>743</ele>
        <time>2003-04-19T17:26:47Z</time>
      </trkpt>
      <trkpt lat="34.052958022803068" lon="-3.111548032611609">
        <ele>743.29999999999995</ele>
        <time>2003-04-19T17:26:50Z</time>
      </trkpt>
      <trkpt lat="34.053064975887537" lon="-3.111351979896426">
        <ele>743.29999999999995</ele>
        <time>2003-04-19T17:26:51Z</time>
      </trkpt>
      <trkpt lat="34.053343003615737" lon="-3.11080296523869">
        <ele>743.70000000000005</ele>
        <time>2003-04-19T17:26:56Z</time>
      </trkpt>
      <trkpt lat="34.053392959758639" lon="-3.110701963305473">
        <ele>743.60000000000002</ele>
        <time>2003-04-19T17:26:58Z</time>
      </trkpt>
      <trkpt lat="34.053422966971993" lon="-3.110592998564243">
        <ele>743.79999999999995</ele>
        <time>2003-04-19T17:26:59Z</time>
      </trkpt>
      <trkpt lat="34.053539978340268" lon="-3.110253028571606">
        <ele>743.20000000000005</ele>
        <time>2003-04-19T17:27:02Z</time>
      </trkpt>
      <trkpt lat="34.053682973608375" lon="-3.109956979751587">
        <ele>743.79999999999995</ele>
        <time>2003-04-19T17:27:05Z</time>
      </trkpt>
      <trkpt lat="34.053762014955282" lon="-3.109756987541914">
        <ele>743.89999999999998</ele>
        <time>2003-04-19T17:27:07Z</time>
      </trkpt>
      <trkpt lat="34.053767966106534" lon="-3.109645005315542">
        <ele>743.60000000000002</ele>
        <time>2003-04-19T17:27:07Z</time>
      </trkpt>
      <trkpt lat="34.053827980533242" lon="-3.109307968989015">
        <ele>742.89999999999998</ele>
        <time>2003-04-19T17:27:10Z</time>
      </trkpt>
      <trkpt lat="34.053881959989667" lon="-3.109067995101214">
        <ele>743.60000000000002</ele>
        <time>2003-04-19T17:27:13Z</time>
      </trkpt>
      <trkpt lat="34.05392998829484" lon="-3.108836989849806">
        <ele>746.10000000000002</ele>
        <time>2003-04-19T17:27:14Z</time>
      </trkpt>
      <trkpt lat="34.054044988006353" lon="-3.108625011518598">
        <ele>746</ele>
        <time>2003-04-19T17:27:17Z</time>
      </trkpt>
      <trkpt lat="34.054216984659433" lon="-3.108323011547327">
        <ele>745.89999999999998</ele>
        <time>2003-04-19T17:27:19Z</time>
      </trkpt>
      <trkpt lat="34.054322009906173" lon="-3.108026962727308">
        <ele>746.60000000000002</ele>
        <time>2003-04-19T17:27:22Z</time>
      </trkpt>
      <trkpt lat="34.054408008232713" lon="-3.10783501714468">
        <ele>746.89999999999998</ele>
        <time>2003-04-19T17:27:25Z</time>
      </trkpt>
      <trkpt lat="34.05446701683104" lon="-3.107657991349697">
        <ele>746.20000000000005</ele>
        <time>2003-04-19T17:27:26Z</time>
      </trkpt>
      <trkpt lat="34.054512027651072" lon="-3.107527988031507">
        <ele>744.70000000000005</ele>
        <time>2003-04-19T17:27:30Z</time>
      </trkpt>
      <trkpt lat="34.054576987400651" lon="-3.107339981943369">
        <ele>746.70000000000005</ele>
        <time>2003-04-19T17:27:34Z</time>
      </trkpt>
      <trkpt lat="34.054634990170598" lon="-3.107152981683612">
        <ele>747.39999999999998</ele>
        <time>2003-04-19T17:27:37Z</time>
      </trkpt>
      <trkpt lat="34.054707996547222" lon="-3.106904961168766">
        <ele>748</ele>
        <time>2003-04-19T17:27:40Z</time>
      </trkpt>
      <trkpt lat="34.054783014580607" lon="-3.106707986444235">
        <ele>748.5</ele>
        <time>2003-04-19T17:27:41Z</time>
      </trkpt>
      <trkpt lat="34.05483297072351" lon="-3.106498019769788">
        <ele>748.20000000000005</ele>
        <time>2003-04-19T17:27:44Z</time>
      </trkpt>
      <trkpt lat="34.054974960163236" lon="-3.105942970141769">
        <ele>749.60000000000002</ele>
        <time>2003-04-19T17:27:49Z</time>
      </trkpt>
      <trkpt lat="34.055397994816303" lon="-3.104954995214939">
        <ele>752.10000000000002</ele>
        <time>2003-04-19T17:27:57Z</time>
      </trkpt>
      <trkpt lat="34.055611984804273" lon="-3.104491978883743">
        <ele>752.79999999999995</ele>
        <time>2003-04-19T17:28:01Z</time>
      </trkpt>
      <trkpt lat="34.055766966193914" lon="-3.104144968092442">
        <ele>752.89999999999998</ele>
        <time>2003-04-19T17:28:04Z</time>
      </trkpt>
      <trkpt lat="34.055944997817278" lon="-3.103684969246388">
        <ele>753</ele>
        <time>2003-04-19T17:28:08Z</time>
      </trkpt>
      <trkpt lat="34.056052034720778" lon="-3.103467039763928">
        <ele>753.60000000000002</ele>
        <time>2003-04-19T17:28:11Z</time>
      </trkpt>
      <trkpt lat="34.056075001135468" lon="-3.103350028395653">
        <ele>753.60000000000002</ele>
        <time>2003-04-19T17:28:12Z</time>
      </trkpt>
      <trkpt lat="34.056178014725447" lon="-3.103018021211028">
        <ele>753.5</ele>
        <time>2003-04-19T17:28:15Z</time>
      </trkpt>
      <trkpt lat="34.056402985006571" lon="-3.102591969072819">
        <ele>753.79999999999995</ele>
        <time>2003-04-19T17:28:19Z</time>
      </trkpt>
      <trkpt lat="34.056504992768168" lon="-3.102377979084849">
        <ele>754</ele>
        <time>2003-04-19T17:28:20Z</time>
      </trkpt>
      <trkpt lat="34.056534999981523" lon="-3.102268008515239">
        <ele>754.10000000000002</ele>
        <time>2003-04-19T17:28:21Z</time>
      </trkpt>
      <trkpt lat="34.056692998856306" lon="-3.101808009669185">
        <ele>754.10000000000002</ele>
        <time>2003-04-19T17:28:26Z</time>
      </trkpt>
      <trkpt lat="34.057061970233917" lon="-3.100747028365731">
        <ele>753.60000000000002</ele>
        <time>2003-04-19T17:28:35Z</time>
      </trkpt>
      <trkpt lat="34.057092983275652" lon="-3.100619958713651">
        <ele>754.10000000000002</ele>
        <time>2003-04-19T17:28:35Z</time>
      </trkpt>
      <trkpt lat="34.057140005752444" lon="-3.100498002022505">
        <ele>754.39999999999998</ele>
        <time>2003-04-19T17:28:36Z</time>
      </trkpt>
      <trkpt lat="34.057502020150423" lon="-3.099614968523383">
        <ele>754.29999999999995</ele>
        <time>2003-04-19T17:28:44Z</time>
      </trkpt>
      <trkpt lat="34.057548036798835" lon="-3.099495023488998">
        <ele>755.10000000000002</ele>
        <time>2003-04-19T17:28:47Z</time>
      </trkpt>
      <trkpt lat="34.057592963799834" lon="-3.099341969937086">
        <ele>755.39999999999998</ele>
        <time>2003-04-19T17:28:51Z</time>
      </trkpt>
      <trkpt lat="34.057673010975122" lon="-3.099195035174489">
        <ele>755.70000000000005</ele>
        <time>2003-04-19T17:28:53Z</time>
      </trkpt>
      <trkpt lat="34.057756997644901" lon="-3.099007029086351">
        <ele>756.39999999999998</ele>
        <time>2003-04-19T17:28:55Z</time>
      </trkpt>
      <trkpt lat="34.057993032038212" lon="-3.098518028855324">
        <ele>757.89999999999998</ele>
        <time>2003-04-19T17:28:59Z</time>
      </trkpt>
      <trkpt lat="34.058163017034531" lon="-3.098094994202256">
        <ele>759</ele>
        <time>2003-04-19T17:29:03Z</time>
      </trkpt>
      <trkpt lat="34.05861203558743" lon="-3.097141971811652">
        <ele>761.60000000000002</ele>
        <time>2003-04-19T17:29:13Z</time>
      </trkpt>
      <trkpt lat="34.058674983680248" lon="-3.096941979601979">
        <ele>761.20000000000005</ele>
        <time>2003-04-19T17:29:14Z</time>
      </trkpt>
      <trkpt lat="34.058729968965054" lon="-3.096679961308837">
        <ele>761.89999999999998</ele>
        <time>2003-04-19T17:29:18Z</time>
      </trkpt>
      <trkpt lat="34.058822002261877" lon="-3.09651299379766">
        <ele>762.29999999999995</ele>
        <time>2003-04-19T17:29:20Z</time>
      </trkpt>
      <trkpt lat="34.05889299698174" lon="-3.096439987421036">
        <ele>762.10000000000002</ele>
        <time>2003-04-19T17:29:21Z</time>
      </trkpt>
      <trkpt lat="34.059034986421466" lon="-3.096273019909859">
        <ele>762.70000000000005</ele>
        <time>2003-04-19T17:29:22Z</time>
      </trkpt>
      <trkpt lat="34.059083014726639" lon="-3.096173023805022">
        <ele>762.79999999999995</ele>
        <time>2003-04-19T17:29:24Z</time>
      </trkpt>
      <trkpt lat="34.059164989739656" lon="-3.095936989411712">
        <ele>762.70000000000005</ele>
        <time>2003-04-19T17:29:25Z</time>
      </trkpt>
      <trkpt lat="34.059246964752674" lon="-3.095559971407056">
        <ele>763.29999999999995</ele>
        <time>2003-04-19T17:29:29Z</time>
      </trkpt>
      <trkpt lat="34.059319971129298" lon="-3.095350004732609">
        <ele>763</ele>
        <time>2003-04-19T17:29:30Z</time>
      </trkpt>
      <trkpt lat="34.059392977505922" lon="-3.095265012234449">
        <ele>763.20000000000005</ele>
        <time>2003-04-19T17:29:32Z</time>
      </trkpt>
      <trkpt lat="34.059570003300905" lon="-3.095010034739971">
        <ele>763</ele>
        <time>2003-04-19T17:29:34Z</time>
      </trkpt>
      <trkpt lat="34.059605039656162" lon="-3.094805013388395">
        <ele>763</ele>
        <time>2003-04-19T17:29:37Z</time>
      </trkpt>
      <trkpt lat="34.059682991355658" lon="-3.094587000086904">
        <ele>762.20000000000005</ele>
        <time>2003-04-19T17:29:38Z</time>
      </trkpt>
      <trkpt lat="34.059821963310242" lon="-3.094237977638841">
        <ele>763.10000000000002</ele>
        <time>2003-04-19T17:29:41Z</time>
      </trkpt>
      <trkpt lat="34.05990301631391" lon="-3.093888033181429">
        <ele>763.5</ele>
        <time>2003-04-19T17:29:45Z</time>
      </trkpt>
      <trkpt lat="34.059918019920588" lon="-3.093598019331694">
        <ele>762.5</ele>
        <time>2003-04-19T17:29:48Z</time>
      </trkpt>
      <trkpt lat="34.059997983276844" lon="-3.093417976051569">
        <ele>764.39999999999998</ele>
        <time>2003-04-19T17:29:49Z</time>
      </trkpt>
      <trkpt lat="34.060166962444782" lon="-3.093037018552423">
        <ele>764.79999999999995</ele>
        <time>2003-04-19T17:29:53Z</time>
      </trkpt>
      <trkpt lat="34.060184983536601" lon="-3.092927969992161">
        <ele>764.79999999999995</ele>
        <time>2003-04-19T17:29:55Z</time>
      </trkpt>
      <trkpt lat="34.060256984084845" lon="-3.092723032459617">
        <ele>764.79999999999995</ele>
        <time>2003-04-19T17:29:56Z</time>
      </trkpt>
      <trkpt lat="34.060372989624739" lon="-3.092422038316727">
        <ele>765.29999999999995</ele>
        <time>2003-04-19T17:30:00Z</time>
      </trkpt>
      <trkpt lat="34.060531994327903" lon="-3.091855002567172">
        <ele>763.10000000000002</ele>
        <time>2003-04-19T17:30:05Z</time>
      </trkpt>
      <trkpt lat="34.060682030394673" lon="-3.091440014541149">
        <ele>766</ele>
        <time>2003-04-19T17:30:09Z</time>
      </trkpt>
      <trkpt lat="34.06082502566278" lon="-3.090872978791595">
        <ele>765.89999999999998</ele>
        <time>2003-04-19T17:30:15Z</time>
      </trkpt>
      <trkpt lat="34.06093499623239" lon="-3.090507024899125">
        <ele>766</ele>
        <time>2003-04-19T17:30:18Z</time>
      </trkpt>
      <trkpt lat="34.060995010659099" lon="-3.090275013819337">
        <ele>766.20000000000005</ele>
        <time>2003-04-19T17:30:19Z</time>
      </trkpt>
      <trkpt lat="34.061319977045059" lon="-3.089312016963959">
        <ele>767.60000000000002</ele>
        <time>2003-04-19T17:30:28Z</time>
      </trkpt>
      <trkpt lat="34.061346966773272" lon="-3.089127028360963">
        <ele>767.70000000000005</ele>
        <time>2003-04-19T17:30:31Z</time>
      </trkpt>
      <trkpt lat="34.061382003128529" lon="-3.088897028937936">
        <ele>767.39999999999998</ele>
        <time>2003-04-19T17:30:32Z</time>
      </trkpt>
      <trkpt lat="34.061466995626688" lon="-3.088656971231103">
        <ele>767.60000000000002</ele>
        <time>2003-04-19T17:30:35Z</time>
      </trkpt>
      <trkpt lat="34.061537990346551" lon="-3.088414985686541">
        <ele>768.10000000000002</ele>
        <time>2003-04-19T17:30:36Z</time>
      </trkpt>
      <trkpt lat="34.061692971736193" lon="-3.087924979627132">
        <ele>768.20000000000005</ele>
        <time>2003-04-19T17:30:42Z</time>
      </trkpt>
      <trkpt lat="34.061727002263069" lon="-3.087807968258858">
        <ele>768.10000000000002</ele>
        <time>2003-04-19T17:30:42Z</time>
      </trkpt>
      <trkpt lat="34.061754997819662" lon="-3.08757302351296">
        <ele>768.10000000000002</ele>
        <time>2003-04-19T17:30:43Z</time>
      </trkpt>
      <trkpt lat="34.061854993924499" lon="-3.087385017424822">
        <ele>768.20000000000005</ele>
        <time>2003-04-19T17:30:46Z</time>
      </trkpt>
      <trkpt lat="34.061897993087769" lon="-3.087267000228167">
        <ele>768</ele>
        <time>2003-04-19T17:30:46Z</time>
      </trkpt>
      <trkpt lat="34.061964964494109" lon="-3.086989978328347">
        <ele>767.70000000000005</ele>
        <time>2003-04-19T17:30:49Z</time>
      </trkpt>
      <trkpt lat="34.062067978084087" lon="-3.086444986984134">
        <ele>767.39999999999998</ele>
        <time>2003-04-19T17:30:54Z</time>
      </trkpt>
      <trkpt lat="34.062067978084087" lon="-3.086326969787478">
        <ele>767.29999999999995</ele>
        <time>2003-04-19T17:30:54Z</time>
      </trkpt>
      <trkpt lat="34.062077030539513" lon="-3.086111973971129">
        <ele>766.39999999999998</ele>
        <time>2003-04-19T17:30:55Z</time>
      </trkpt>
      <trkpt lat="34.062160011380911" lon="-3.085954980924726">
        <ele>765.39999999999998</ele>
        <time>2003-04-19T17:30:58Z</time>
      </trkpt>
      <trkpt lat="34.06232999637723" lon="-3.085581986233592">
        <ele>763.60000000000002</ele>
        <time>2003-04-19T17:31:02Z</time>
      </trkpt>
      <trkpt lat="34.06241700053215" lon="-3.085347041487694">
        <ele>764.39999999999998</ele>
        <time>2003-04-19T17:31:05Z</time>
      </trkpt>
      <trkpt lat="34.062801981344819" lon="-3.084365017712116">
        <ele>766.39999999999998</ele>
        <time>2003-04-19T17:31:13Z</time>
      </trkpt>
      <trkpt lat="34.062997028231621" lon="-3.083896972239018">
        <ele>766.5</ele>
        <time>2003-04-19T17:31:17Z</time>
      </trkpt>
      <trkpt lat="34.063085038214922" lon="-3.083675019443035">
        <ele>766.5</ele>
        <time>2003-04-19T17:31:18Z</time>
      </trkpt>
      <trkpt lat="34.063223004341125" lon="-3.083290038630366">
        <ele>765.89999999999998</ele>
        <time>2003-04-19T17:31:21Z</time>
      </trkpt>
      <trkpt lat="34.063642015680671" lon="-3.082261998206377">
        <ele>766.5</ele>
        <time>2003-04-19T17:31:29Z</time>
      </trkpt>
      <trkpt lat="34.06383203342557" lon="-3.081767968833447">
        <ele>766.79999999999995</ele>
        <time>2003-04-19T17:31:33Z</time>
      </trkpt>
      <trkpt lat="34.063902022317052" lon="-3.081671996042132">
        <ele>766.89999999999998</ele>
        <time>2003-04-19T17:31:35Z</time>
      </trkpt>
      <trkpt lat="34.064020039513707" lon="-3.081462029367685">
        <ele>767.5</ele>
        <time>2003-04-19T17:31:37Z</time>
      </trkpt>
      <trkpt lat="34.064203016459942" lon="-3.080988032743335">
        <ele>767.29999999999995</ele>
        <time>2003-04-19T17:31:40Z</time>
      </trkpt>
      <trkpt lat="34.064422035589814" lon="-3.080293005332351">
        <ele>766.10000000000002</ele>
        <time>2003-04-19T17:31:47Z</time>
      </trkpt>
      <trkpt lat="34.064494958147407" lon="-3.080152021721005">
        <ele>765.89999999999998</ele>
        <time>2003-04-19T17:31:49Z</time>
      </trkpt>
      <trkpt lat="34.064572993665934" lon="-3.080014977604151">
        <ele>765.79999999999995</ele>
        <time>2003-04-19T17:31:52Z</time>
      </trkpt>
      <trkpt lat="34.064667038619518" lon="-3.079827977344394">
        <ele>765</ele>
        <time>2003-04-19T17:31:53Z</time>
      </trkpt>
      <trkpt lat="34.064757982268929" lon="-3.079588003456593">
        <ele>763.89999999999998</ele>
        <time>2003-04-19T17:31:56Z</time>
      </trkpt>
      <trkpt lat="34.065132988616824" lon="-3.078538002446294">
        <ele>762.39999999999998</ele>
        <time>2003-04-19T17:32:04Z</time>
      </trkpt>
      <trkpt lat="34.065229967236519" lon="-3.078223010525107">
        <ele>762.5</ele>
        <time>2003-04-19T17:32:07Z</time>
      </trkpt>
      <trkpt lat="34.065402969717979" lon="-3.077752031385899">
        <ele>761</ele>
        <time>2003-04-19T17:32:11Z</time>
      </trkpt>
      <trkpt lat="34.065689966082573" lon="-3.076697001233697">
        <ele>758.79999999999995</ele>
        <time>2003-04-19T17:32:19Z</time>
      </trkpt>
      <trkpt lat="34.065852994099259" lon="-3.076144969090819">
        <ele>758.10000000000002</ele>
        <time>2003-04-19T17:32:23Z</time>
      </trkpt>
      <trkpt lat="34.065913008525968" lon="-3.075871970504522">
        <ele>758.10000000000002</ele>
        <time>2003-04-19T17:32:26Z</time>
      </trkpt>
      <trkpt lat="34.065947961062193" lon="-3.075752025470138">
        <ele>758.20000000000005</ele>
        <time>2003-04-19T17:32:27Z</time>
      </trkpt>
      <trkpt lat="34.066002024337649" lon="-3.075637025758624">
        <ele>758.10000000000002</ele>
        <time>2003-04-19T17:32:27Z</time>
      </trkpt>
      <trkpt lat="34.066075030714273" lon="-3.075387999415398">
        <ele>757.29999999999995</ele>
        <time>2003-04-19T17:32:30Z</time>
      </trkpt>
      <trkpt lat="34.066105037927628" lon="-3.075126986950636">
        <ele>757</ele>
        <time>2003-04-19T17:32:31Z</time>
      </trkpt>
      <trkpt lat="34.066107971593738" lon="-3.074905034154654">
        <ele>756.29999999999995</ele>
        <time>2003-04-19T17:32:34Z</time>
      </trkpt>
      <trkpt lat="34.066115012392402" lon="-3.074788022786379">
        <ele>756.10000000000002</ele>
        <time>2003-04-19T17:32:37Z</time>
      </trkpt>
      <trkpt lat="34.06613496132195" lon="-3.074677968397737">
        <ele>755.60000000000002</ele>
        <time>2003-04-19T17:32:50Z</time>
      </trkpt>
      <trkpt lat="34.066164968535304" lon="-3.074522987008095">
        <ele>754.39999999999998</ele>
        <time>2003-04-19T17:32:54Z</time>
      </trkpt>
      <trkpt lat="34.06621802598238" lon="-3.07438200339675">
        <ele>752.60000000000002</ele>
        <time>2003-04-19T17:32:58Z</time>
      </trkpt>
      <trkpt lat="34.066266976296902" lon="-3.074231967329979">
        <ele>751.60000000000002</ele>
        <time>2003-04-19T17:33:01Z</time>
      </trkpt>
      <trkpt lat="34.066345011815429" lon="-3.074128031730652">
        <ele>752.60000000000002</ele>
        <time>2003-04-19T17:33:04Z</time>
      </trkpt>
      <trkpt lat="34.066441990435123" lon="-3.074000040069223">
        <ele>753.5</ele>
        <time>2003-04-19T17:33:05Z</time>
      </trkpt>
      <trkpt lat="34.066512985154986" lon="-3.073847992345691">
        <ele>754.29999999999995</ele>
        <time>2003-04-19T17:33:08Z</time>
      </trkpt>
      <trkpt lat="34.066620022058487" lon="-3.073577005416155">
        <ele>753.29999999999995</ele>
        <time>2003-04-19T17:33:10Z</time>
      </trkpt>
      <trkpt lat="34.066695040091872" lon="-3.0732879973948">
        <ele>754.39999999999998</ele>
        <time>2003-04-19T17:33:13Z</time>
      </trkpt>
      <trkpt lat="34.066837029531598" lon="-3.072422984987497">
        <ele>754.29999999999995</ele>
        <time>2003-04-19T17:33:21Z</time>
      </trkpt>
      <trkpt lat="34.06692998483777" lon="-3.071987964212894">
        <ele>754</ele>
        <time>2003-04-19T17:33:25Z</time>
      </trkpt>
      <trkpt lat="34.067067028954625" lon="-3.071849998086691">
        <ele>753.60000000000002</ele>
        <time>2003-04-19T17:33:28Z</time>
      </trkpt>
      <trkpt lat="34.067156966775656" lon="-3.07180498726666">
        <ele>753</ele>
        <time>2003-04-19T17:33:28Z</time>
      </trkpt>
      <trkpt lat="34.067255035042763" lon="-3.071780009195209">
        <ele>752.5</ele>
        <time>2003-04-19T17:33:29Z</time>
      </trkpt>
      <trkpt lat="34.067357964813709" lon="-3.071786966174841">
        <ele>752.39999999999998</ele>
        <time>2003-04-19T17:33:31Z</time>
      </trkpt>
      <trkpt lat="34.067447986453772" lon="-3.071822002530098">
        <ele>752</ele>
        <time>2003-04-19T17:33:32Z</time>
      </trkpt>
      <trkpt lat="34.06753197312355" lon="-3.071871958673">
        <ele>751.79999999999995</ele>
        <time>2003-04-19T17:33:32Z</time>
      </trkpt>
      <trkpt lat="34.067710004746914" lon="-3.071943037211895">
        <ele>750.70000000000005</ele>
        <time>2003-04-19T17:33:35Z</time>
      </trkpt>
      <trkpt lat="34.068112000823021" lon="-3.072012020274997">
        <ele>748.70000000000005</ele>
        <time>2003-04-19T17:33:39Z</time>
      </trkpt>
      <trkpt lat="34.068203028291464" lon="-3.071980001404882">
        <ele>748.39999999999998</ele>
        <time>2003-04-19T17:33:40Z</time>
      </trkpt>
      <trkpt lat="34.068357003852725" lon="-3.071880005300045">
        <ele>747.39999999999998</ele>
        <time>2003-04-19T17:33:41Z</time>
      </trkpt>
      <trkpt lat="34.068597983568907" lon="-3.071727035567164">
        <ele>746.70000000000005</ele>
        <time>2003-04-19T17:33:44Z</time>
      </trkpt>
      <trkpt lat="34.068692028522491" lon="-3.071728041395545">
        <ele>746.20000000000005</ele>
        <time>2003-04-19T17:33:45Z</time>
      </trkpt>
      <trkpt lat="34.068999979645014" lon="-3.071746984496713">
        <ele>744.89999999999998</ele>
        <time>2003-04-19T17:33:48Z</time>
      </trkpt>
      <trkpt lat="34.069212041795254" lon="-3.071707002818584">
        <ele>744.20000000000005</ele>
        <time>2003-04-19T17:33:51Z</time>
      </trkpt>
      <trkpt lat="34.069553017616272" lon="-3.071695016697049">
        <ele>742.70000000000005</ele>
        <time>2003-04-19T17:33:54Z</time>
      </trkpt>
      <trkpt lat="34.069740017876029" lon="-3.071686970070005">
        <ele>741.79999999999995</ele>
        <time>2003-04-19T17:33:55Z</time>
      </trkpt>
      <trkpt lat="34.069910002872348" lon="-3.071717983111739">
        <ele>740.5</ele>
        <time>2003-04-19T17:33:58Z</time>
      </trkpt>
      <trkpt lat="34.07025801949203" lon="-3.071797024458647">
        <ele>740.10000000000002</ele>
        <time>2003-04-19T17:34:02Z</time>
      </trkpt>
      <trkpt lat="34.070397997274995" lon="-3.071729969233275">
        <ele>739.60000000000002</ele>
        <time>2003-04-19T17:34:03Z</time>
      </trkpt>
      <trkpt lat="34.070560019463301" lon="-3.071682024747133">
        <ele>739.10000000000002</ele>
        <time>2003-04-19T17:34:06Z</time>
      </trkpt>
      <trkpt lat="34.070762023329735" lon="-3.071650005877018">
        <ele>738.20000000000005</ele>
        <time>2003-04-19T17:34:07Z</time>
      </trkpt>
      <trkpt lat="34.070982970297337" lon="-3.071580016985536">
        <ele>737.29999999999995</ele>
        <time>2003-04-19T17:34:10Z</time>
      </trkpt>
      <trkpt lat="34.071167958900332" lon="-3.07148203253746">
        <ele>736.60000000000002</ele>
        <time>2003-04-19T17:34:11Z</time>
      </trkpt>
      <trkpt lat="34.071337021887302" lon="-3.071405002847314">
        <ele>736.10000000000002</ele>
        <time>2003-04-19T17:34:14Z</time>
      </trkpt>
      <trkpt lat="34.071437017992139" lon="-3.071399973705411">
        <ele>735.79999999999995</ele>
        <time>2003-04-19T17:34:15Z</time>
      </trkpt>
      <trkpt lat="34.071540031582117" lon="-3.071416988968849">
        <ele>735.39999999999998</ele>
        <time>2003-04-19T17:34:15Z</time>
      </trkpt>
      <trkpt lat="34.071642039343715" lon="-3.071452025324106">
        <ele>735.10000000000002</ele>
        <time>2003-04-19T17:34:17Z</time>
      </trkpt>
      <trkpt lat="34.071728037670255" lon="-3.071508016437292">
        <ele>734.79999999999995</ele>
        <time>2003-04-19T17:34:18Z</time>
      </trkpt>
      <trkpt lat="34.071987960487604" lon="-3.071644976735115">
        <ele>733.70000000000005</ele>
        <time>2003-04-19T17:34:21Z</time>
      </trkpt>
      <trkpt lat="34.072091979905963" lon="-3.071665009483695">
        <ele>733.5</ele>
        <time>2003-04-19T17:34:22Z</time>
      </trkpt>
      <trkpt lat="34.072312004864216" lon="-3.071659980341792">
        <ele>732.79999999999995</ele>
        <time>2003-04-19T17:34:23Z</time>
      </trkpt>
      <trkpt lat="34.072527000680566" lon="-3.07167699560523">
        <ele>732.20000000000005</ele>
        <time>2003-04-19T17:34:26Z</time>
      </trkpt>
      <trkpt lat="34.072848027572036" lon="-3.071704991161823">
        <ele>731.39999999999998</ele>
        <time>2003-04-19T17:34:29Z</time>
      </trkpt>
      <trkpt lat="34.073196966201067" lon="-3.071657968685031">
        <ele>729.89999999999998</ele>
        <time>2003-04-19T17:34:31Z</time>
      </trkpt>
      <trkpt lat="34.073637016117573" lon="-3.071574987843633">
        <ele>728.5</ele>
        <time>2003-04-19T17:34:35Z</time>
      </trkpt>
      <trkpt lat="34.073970029130578" lon="-3.07158999145031">
        <ele>727.70000000000005</ele>
        <time>2003-04-19T17:34:38Z</time>
      </trkpt>
      <trkpt lat="34.074079999700189" lon="-3.071559984236956">
        <ele>727.70000000000005</ele>
        <time>2003-04-19T17:34:39Z</time>
      </trkpt>
      <trkpt lat="34.074742002412677" lon="-3.071320010349155">
        <ele>725.70000000000005</ele>
        <time>2003-04-19T17:34:46Z</time>
      </trkpt>
      <trkpt lat="34.074936965480447" lon="-3.071177015081048">
        <ele>724.89999999999998</ele>
        <time>2003-04-19T17:34:48Z</time>
      </trkpt>
      <trkpt lat="34.07517802901566" lon="-3.071057992056012">
        <ele>724.29999999999995</ele>
        <time>2003-04-19T17:34:49Z</time>
      </trkpt>
      <trkpt lat="34.075317000970244" lon="-3.07103200815618">
        <ele>723.89999999999998</ele>
        <time>2003-04-19T17:34:50Z</time>
      </trkpt>
      <trkpt lat="34.07571698538959" lon="-3.07090301066637">
        <ele>722.79999999999995</ele>
        <time>2003-04-19T17:34:53Z</time>
      </trkpt>
      <trkpt lat="34.075940027832985" lon="-3.070758003741503">
        <ele>722.20000000000005</ele>
        <time>2003-04-19T17:34:56Z</time>
      </trkpt>
      <trkpt lat="34.076359961181879" lon="-3.070376962423325">
        <ele>721.10000000000002</ele>
        <time>2003-04-19T17:35:00Z</time>
      </trkpt>
      <trkpt lat="34.076560037210584" lon="-3.070219969376922">
        <ele>720</ele>
        <time>2003-04-19T17:35:01Z</time>
      </trkpt>
      <trkpt lat="34.076813003048301" lon="-3.070115027949214">
        <ele>719.20000000000005</ele>
        <time>2003-04-19T17:35:04Z</time>
      </trkpt>
      <trkpt lat="34.077202007174492" lon="-3.070027017965913">
        <ele>717.79999999999995</ele>
        <time>2003-04-19T17:35:06Z</time>
      </trkpt>
      <trkpt lat="34.07732798717916" lon="-3.070031963288784">
        <ele>717.10000000000002</ele>
        <time>2003-04-19T17:35:08Z</time>
      </trkpt>
      <trkpt lat="34.077577013522387" lon="-3.070022994652391">
        <ele>716.10000000000002</ele>
        <time>2003-04-19T17:35:09Z</time>
      </trkpt>
      <trkpt lat="34.077837020158768" lon="-3.069943031296134">
        <ele>715.70000000000005</ele>
        <time>2003-04-19T17:35:12Z</time>
      </trkpt>
      <trkpt lat="34.078815020620823" lon="-3.069577999413014">
        <ele>712.39999999999998</ele>
        <time>2003-04-19T17:35:19Z</time>
      </trkpt>
      <trkpt lat="34.07977701164782" lon="-3.069196958094835">
        <ele>709.29999999999995</ele>
        <time>2003-04-19T17:35:25Z</time>
      </trkpt>
      <trkpt lat="34.080298030748963" lon="-3.069048011675477">
        <ele>707.39999999999998</ele>
        <time>2003-04-19T17:35:29Z</time>
      </trkpt>
      <trkpt lat="34.080803040415049" lon="-3.068939968943596">
        <ele>705.20000000000005</ele>
        <time>2003-04-19T17:35:33Z</time>
      </trkpt>
      <trkpt lat="34.081147033721209" lon="-3.068792028352618">
        <ele>704.20000000000005</ele>
        <time>2003-04-19T17:35:36Z</time>
      </trkpt>
      <trkpt lat="34.081337973475456" lon="-3.06871198117733">
        <ele>703.79999999999995</ele>
        <time>2003-04-19T17:35:39Z</time>
      </trkpt>
      <trkpt lat="34.081441992893815" lon="-3.068720027804375">
        <ele>703.79999999999995</ele>
        <time>2003-04-19T17:35:40Z</time>
      </trkpt>
      <trkpt lat="34.081799983978271" lon="-3.068737965077162">
        <ele>702.89999999999998</ele>
        <time>2003-04-19T17:35:43Z</time>
      </trkpt>
      <trkpt lat="34.081911966204643" lon="-3.068702006712556">
        <ele>702.5</ele>
        <time>2003-04-19T17:35:43Z</time>
      </trkpt>
      <trkpt lat="34.082670025527477" lon="-3.068475024774671">
        <ele>701.39999999999998</ele>
        <time>2003-04-19T17:35:50Z</time>
      </trkpt>
      <trkpt lat="34.083147961646318" lon="-3.068375028669834">
        <ele>699.89999999999998</ele>
        <time>2003-04-19T17:35:54Z</time>
      </trkpt>
      <trkpt lat="34.083242006599903" lon="-3.0683249887079">
        <ele>699.89999999999998</ele>
        <time>2003-04-19T17:35:55Z</time>
      </trkpt>
      <trkpt lat="34.083326999098063" lon="-3.068260028958321">
        <ele>699.5</ele>
        <time>2003-04-19T17:35:55Z</time>
      </trkpt>
      <trkpt lat="34.083406962454319" lon="-3.068176964297891">
        <ele>699.10000000000002</ele>
        <time>2003-04-19T17:35:56Z</time>
      </trkpt>
      <trkpt lat="34.083478040993214" lon="-3.068076968193054">
        <ele>698.89999999999998</ele>
        <time>2003-04-19T17:35:58Z</time>
      </trkpt>
      <trkpt lat="34.083609972149134" lon="-3.067846968770027">
        <ele>698.39999999999998</ele>
        <time>2003-04-19T17:35:59Z</time>
      </trkpt>
      <trkpt lat="34.083739975467324" lon="-3.067634990438819">
        <ele>697.60000000000002</ele>
        <time>2003-04-19T17:36:02Z</time>
      </trkpt>
      <trkpt lat="34.084057984873652" lon="-3.06727197021246">
        <ele>696.10000000000002</ele>
        <time>2003-04-19T17:36:06Z</time>
      </trkpt>
      <trkpt lat="34.084156975150108" lon="-3.067204998806119">
        <ele>695.39999999999998</ele>
        <time>2003-04-19T17:36:07Z</time>
      </trkpt>
      <trkpt lat="34.084267029538751" lon="-3.067154958844185">
        <ele>694.79999999999995</ele>
        <time>2003-04-19T17:36:07Z</time>
      </trkpt>
      <trkpt lat="34.084489988163114" lon="-3.067097961902618">
        <ele>694.70000000000005</ele>
        <time>2003-04-19T17:36:10Z</time>
      </trkpt>
      <trkpt lat="34.084604987874627" lon="-3.067097961902618">
        <ele>694.29999999999995</ele>
        <time>2003-04-19T17:36:10Z</time>
      </trkpt>
      <trkpt lat="34.085064986720681" lon="-3.067062003538013">
        <ele>693.10000000000002</ele>
        <time>2003-04-19T17:36:14Z</time>
      </trkpt>
      <trkpt lat="34.085276965051889" lon="-3.066982040181756">
        <ele>692.39999999999998</ele>
        <time>2003-04-19T17:36:17Z</time>
      </trkpt>
      <trkpt lat="34.085832014679909" lon="-3.066778024658561">
        <ele>690.10000000000002</ele>
        <time>2003-04-19T17:36:22Z</time>
      </trkpt>
      <trkpt lat="34.086052961647511" lon="-3.06669001467526">
        <ele>689.20000000000005</ele>
        <time>2003-04-19T17:36:23Z</time>
      </trkpt>
      <trkpt lat="34.086254965513945" lon="-3.066533021628857">
        <ele>688.10000000000002</ele>
        <time>2003-04-19T17:36:26Z</time>
      </trkpt>
      <trkpt lat="34.086420005187392" lon="-3.066330011934042">
        <ele>687.5</ele>
        <time>2003-04-19T17:36:27Z</time>
      </trkpt>
      <trkpt lat="34.086478007957339" lon="-3.066206965595484">
        <ele>687.10000000000002</ele>
        <time>2003-04-19T17:36:29Z</time>
      </trkpt>
      <trkpt lat="34.08671798184514" lon="-3.065721988677979">
        <ele>686.5</ele>
        <time>2003-04-19T17:36:33Z</time>
      </trkpt>
      <trkpt lat="34.086814960464835" lon="-3.065632972866297">
        <ele>686.39999999999998</ele>
        <time>2003-04-19T17:36:34Z</time>
      </trkpt>
      <trkpt lat="34.086925014853477" lon="-3.065570024773479">
        <ele>686.10000000000002</ele>
        <time>2003-04-19T17:36:34Z</time>
      </trkpt>
      <trkpt lat="34.087044959887862" lon="-3.06553197093308">
        <ele>685.60000000000002</ele>
        <time>2003-04-19T17:36:36Z</time>
      </trkpt>
      <trkpt lat="34.087162977084517" lon="-3.065525013953447">
        <ele>685.20000000000005</ele>
        <time>2003-04-19T17:36:37Z</time>
      </trkpt>
      <trkpt lat="34.087387025356293" lon="-3.065455025061965">
        <ele>684.5</ele>
        <time>2003-04-19T17:36:38Z</time>
      </trkpt>
      <trkpt lat="34.087494984269142" lon="-3.065386964008212">
        <ele>683.60000000000002</ele>
        <time>2003-04-19T17:36:40Z</time>
      </trkpt>
      <trkpt lat="34.087860016152263" lon="-3.065131986513734">
        <ele>682.39999999999998</ele>
        <time>2003-04-19T17:36:44Z</time>
      </trkpt>
      <trkpt lat="34.088314985856414" lon="-3.064777012914419">
        <ele>682.89999999999998</ele>
        <time>2003-04-19T17:36:49Z</time>
      </trkpt>
      <trkpt lat="34.08843501470983" lon="-3.064733007922769">
        <ele>682.20000000000005</ele>
        <time>2003-04-19T17:36:49Z</time>
      </trkpt>
      <trkpt lat="34.088642969727516" lon="-3.064608033746481">
        <ele>681.60000000000002</ele>
        <time>2003-04-19T17:36:52Z</time>
      </trkpt>
      <trkpt lat="34.088797029107809" lon="-3.064497979357839">
        <ele>680.70000000000005</ele>
        <time>2003-04-19T17:36:53Z</time>
      </trkpt>
      <trkpt lat="34.088917979970574" lon="-3.064441988244653">
        <ele>681</ele>
        <time>2003-04-19T17:36:56Z</time>
      </trkpt>
      <trkpt lat="34.089000038802624" lon="-3.06437199935317">
        <ele>680.79999999999995</ele>
        <time>2003-04-19T17:36:57Z</time>
      </trkpt>
      <trkpt lat="34.089170023798943" lon="-3.064212994650006">
        <ele>680.29999999999995</ele>
        <time>2003-04-19T17:37:01Z</time>
      </trkpt>
      <trkpt lat="34.089234983548522" lon="-3.064107969403267">
        <ele>680.10000000000002</ele>
        <time>2003-04-19T17:37:03Z</time>
      </trkpt>
      <trkpt lat="34.089328022673726" lon="-3.064043009653688">
        <ele>680.10000000000002</ele>
        <time>2003-04-19T17:37:04Z</time>
      </trkpt>
      <trkpt lat="34.089402034878731" lon="-3.063967991620302">
        <ele>679.89999999999998</ele>
        <time>2003-04-19T17:37:07Z</time>
      </trkpt>
      <trkpt lat="34.08955198712647" lon="-3.06381301023066">
        <ele>679.60000000000002</ele>
        <time>2003-04-19T17:37:09Z</time>
      </trkpt>
      <trkpt lat="34.089751979336143" lon="-3.063598014414311">
        <ele>679.20000000000005</ele>
        <time>2003-04-19T17:37:13Z</time>
      </trkpt>
      <trkpt lat="34.090139977633953" lon="-3.063176991418004">
        <ele>-236.80000000000001</ele>
        <time>2003-04-19T17:37:26Z</time>
      </trkpt>
      <trkpt lat="34.090381963178515" lon="-3.062622025609016">
        <ele>-236.80000000000001</ele>
        <time>2003-04-19T17:37:35Z</time>
      </trkpt>
      <trkpt lat="34.090663008391857" lon="-3.062452962622047">
        <ele>678.20000000000005</ele>
        <time>2003-04-19T17:37:47Z</time>
      </trkpt>
      <trkpt lat="34.090780019760132" lon="-3.062529992312193">
        <ele>677.60000000000002</ele>
        <time>2003-04-19T17:37:50Z</time>
      </trkpt>
      <trkpt lat="34.090922009199858" lon="-3.062641974538565">
        <ele>677.20000000000005</ele>
        <time>2003-04-19T17:37:54Z</time>
      </trkpt>
      <trkpt lat="34.090986968949437" lon="-3.062765020877123">
        <ele>676.89999999999998</ele>
        <time>2003-04-19T17:37:57Z</time>
      </trkpt>
      <trkpt lat="34.091086965054274" lon="-3.062877003103495">
        <ele>676.70000000000005</ele>
        <time>2003-04-19T17:37:59Z</time>
      </trkpt>
      <trkpt lat="34.091152008622885" lon="-3.062986973673105">
        <ele>676.60000000000002</ele>
        <time>2003-04-19T17:38:02Z</time>
      </trkpt>
      <trkpt lat="34.091180004179478" lon="-3.063137009739876">
        <ele>676.29999999999995</ele>
        <time>2003-04-19T17:38:03Z</time>
      </trkpt>
      <trkpt lat="34.091217974200845" lon="-3.063332978636026">
        <ele>676.10000000000002</ele>
        <time>2003-04-19T17:38:06Z</time>
      </trkpt>
      <trkpt lat="34.091264996677637" lon="-3.063502963632345">
        <ele>676.10000000000002</ele>
        <time>2003-04-19T17:38:10Z</time>
      </trkpt>
      <trkpt lat="34.091310007497668" lon="-3.063598014414311">
        <ele>676</ele>
        <time>2003-04-19T17:38:13Z</time>
      </trkpt>
      <trkpt lat="34.09142198972404" lon="-3.063585022464395">
        <ele>675.89999999999998</ele>
        <time>2003-04-19T17:38:15Z</time>
      </trkpt>
      <trkpt lat="34.091298021376133" lon="-3.063568007200956">
        <ele>675.10000000000002</ele>
        <time>2003-04-19T17:39:18Z</time>
      </trkpt>
      <trkpt lat="34.091204982250929" lon="-3.063637996092439">
        <ele>675</ele>
        <time>2003-04-19T17:39:23Z</time>
      </trkpt>
      <trkpt lat="34.091172963380814" lon="-3.063800018280745">
        <ele>675.39999999999998</ele>
        <time>2003-04-19T17:39:34Z</time>
      </trkpt>
      <trkpt lat="34.091149996966124" lon="-3.063917029649019">
        <ele>675.39999999999998</ele>
        <time>2003-04-19T17:39:36Z</time>
      </trkpt>
      <trkpt lat="34.091168018057942" lon="-3.064130013808608">
        <ele>675.79999999999995</ele>
        <time>2003-04-19T17:40:06Z</time>
      </trkpt>
      <trkpt lat="34.091172963380814" lon="-3.064296981319785">
        <ele>675.79999999999995</ele>
        <time>2003-04-19T17:40:10Z</time>
      </trkpt>
      <trkpt lat="34.091162988916039" lon="-3.064450034871697">
        <ele>676</ele>
        <time>2003-04-19T17:40:12Z</time>
      </trkpt>
      <trkpt lat="34.091134993359447" lon="-3.0646070279181">
        <ele>676</ele>
        <time>2003-04-19T17:40:14Z</time>
      </trkpt>
      <trkpt lat="34.091059975326061" lon="-3.06484499014914">
        <ele>675.79999999999995</ele>
        <time>2003-04-19T17:40:17Z</time>
      </trkpt>
      <trkpt lat="34.091065004467964" lon="-3.064980022609234">
        <ele>675.5</ele>
        <time>2003-04-19T17:40:20Z</time>
      </trkpt>
      <trkpt lat="34.091172963380814" lon="-3.065008018165827">
        <ele>675.70000000000005</ele>
        <time>2003-04-19T17:40:22Z</time>
      </trkpt>
      <trkpt lat="34.091274971142411" lon="-3.065031990408897">
        <ele>675.79999999999995</ele>
        <time>2003-04-19T17:40:25Z</time>
      </trkpt>
      <trkpt lat="34.091368010267615" lon="-3.065056968480349">
        <ele>674.89999999999998</ele>
        <time>2003-04-19T17:40:44Z</time>
      </trkpt>
      <trkpt lat="34.091457026079297" lon="-3.06508001871407">
        <ele>674.5</ele>
        <time>2003-04-19T17:40:51Z</time>
      </trkpt>
      <trkpt lat="34.091547969728708" lon="-3.065099967643619">
        <ele>675</ele>
        <time>2003-04-19T17:41:04Z</time>
      </trkpt>
      <trkpt lat="34.091661963611841" lon="-3.065132992342114">
        <ele>675.10000000000002</ele>
        <time>2003-04-19T17:41:11Z</time>
      </trkpt>
      <trkpt lat="34.091770006343722" lon="-3.065156964585185">
        <ele>675</ele>
        <time>2003-04-19T17:41:11Z</time>
      </trkpt>
      <trkpt lat="34.091902021318674" lon="-3.065155036747456">
        <ele>674.70000000000005</ele>
        <time>2003-04-19T17:41:15Z</time>
      </trkpt>
      <trkpt lat="34.092063037678599" lon="-3.065138021484017">
        <ele>674.60000000000002</ele>
        <time>2003-04-19T17:41:16Z</time>
      </trkpt>
      <trkpt lat="34.092350034043193" lon="-3.065108014270663">
        <ele>674</ele>
        <time>2003-04-19T17:41:19Z</time>
      </trkpt>
      <trkpt lat="34.092869963496923" lon="-3.065067026764154">
        <ele>672.39999999999998</ele>
        <time>2003-04-19T17:41:24Z</time>
      </trkpt>
      <trkpt lat="34.09296803176403" lon="-3.065067026764154">
        <ele>672.5</ele>
        <time>2003-04-19T17:41:26Z</time>
      </trkpt>
      <trkpt lat="34.093070039525628" lon="-3.065078007057309">
        <ele>672.29999999999995</ele>
        <time>2003-04-19T17:41:27Z</time>
      </trkpt>
      <trkpt lat="34.093500031158328" lon="-3.065112959593535">
        <ele>671.39999999999998</ele>
        <time>2003-04-19T17:41:31Z</time>
      </trkpt>
      <trkpt lat="34.093719972297549" lon="-3.065114971250296">
        <ele>671.20000000000005</ele>
        <time>2003-04-19T17:41:33Z</time>
      </trkpt>
      <trkpt lat="34.093832038342953" lon="-3.065114971250296">
        <ele>670.70000000000005</ele>
        <time>2003-04-19T17:41:34Z</time>
      </trkpt>
      <trkpt lat="34.09436697140336" lon="-3.065120000392199">
        <ele>669.29999999999995</ele>
        <time>2003-04-19T17:41:38Z</time>
      </trkpt>
      <trkpt lat="34.094567969441414" lon="-3.065159982070327">
        <ele>669.20000000000005</ele>
        <time>2003-04-19T17:41:41Z</time>
      </trkpt>
      <trkpt lat="34.094937024638057" lon="-3.065202981233597">
        <ele>668</ele>
        <time>2003-04-19T17:41:45Z</time>
      </trkpt>
      <trkpt lat="34.095029979944229" lon="-3.065195018425584">
        <ele>667.89999999999998</ele>
        <time>2003-04-19T17:41:46Z</time>
      </trkpt>
      <trkpt lat="34.09593204036355" lon="-3.065107008442283">
        <ele>665.79999999999995</ele>
        <time>2003-04-19T17:41:54Z</time>
      </trkpt>
      <trkpt lat="34.096809960901737" lon="-3.064953032881022">
        <ele>664.70000000000005</ele>
        <time>2003-04-19T17:42:04Z</time>
      </trkpt>
      <trkpt lat="34.097150014713407" lon="-3.064825041219592">
        <ele>663.89999999999998</ele>
        <time>2003-04-19T17:42:08Z</time>
      </trkpt>
      <trkpt lat="34.097237018868327" lon="-3.064744994044304">
        <ele>663.70000000000005</ele>
        <time>2003-04-19T17:42:09Z</time>
      </trkpt>
      <trkpt lat="34.097257973626256" lon="-3.064633011817932">
        <ele>664.10000000000002</ele>
        <time>2003-04-19T17:42:13Z</time>
      </trkpt>
      <trkpt lat="34.097237018868327" lon="-3.064482975751162">
        <ele>664.20000000000005</ele>
        <time>2003-04-19T17:42:17Z</time>
      </trkpt>
      <trkpt lat="34.097182033583522" lon="-3.064321959391236">
        <ele>664.5</ele>
        <time>2003-04-19T17:42:18Z</time>
      </trkpt>
      <trkpt lat="34.097120007500052" lon="-3.064111992716789">
        <ele>664.79999999999995</ele>
        <time>2003-04-19T17:42:21Z</time>
      </trkpt>
      <trkpt lat="34.096996961161494" lon="-3.063632966950536">
        <ele>665.39999999999998</ele>
        <time>2003-04-19T17:42:25Z</time>
      </trkpt>
      <trkpt lat="34.09677199088037" lon="-3.062795028090477">
        <ele>666.60000000000002</ele>
        <time>2003-04-19T17:42:31Z</time>
      </trkpt>
      <trkpt lat="34.096492035314441" lon="-3.061739997938275">
        <ele>667.29999999999995</ele>
        <time>2003-04-19T17:42:37Z</time>
      </trkpt>
      <trkpt lat="34.096182994544506" lon="-3.060601986944675">
        <ele>668.39999999999998</ele>
        <time>2003-04-19T17:42:44Z</time>
      </trkpt>
      <trkpt lat="34.095876971259713" lon="-3.059462970122695">
        <ele>669.89999999999998</ele>
        <time>2003-04-19T17:42:52Z</time>
      </trkpt>
      <trkpt lat="34.095587963238358" lon="-3.058338034898043">
        <ele>671.70000000000005</ele>
        <time>2003-04-19T17:42:59Z</time>
      </trkpt>
      <trkpt lat="34.095299961045384" lon="-3.057183008641005">
        <ele>672.39999999999998</ele>
        <time>2003-04-19T17:43:06Z</time>
      </trkpt>
      <trkpt lat="34.09505202434957" lon="-3.055999986827374">
        <ele>672.60000000000002</ele>
        <time>2003-04-19T17:43:12Z</time>
      </trkpt>
      <trkpt lat="34.094854965806007" lon="-3.054936993867159">
        <ele>672.70000000000005</ele>
        <time>2003-04-19T17:43:19Z</time>
      </trkpt>
      <trkpt lat="34.094637036323547" lon="-3.053835025057197">
        <ele>672.70000000000005</ele>
        <time>2003-04-19T17:43:25Z</time>
      </trkpt>
      <trkpt lat="34.094435032457113" lon="-3.05274797603488">
        <ele>673.5</ele>
        <time>2003-04-19T17:43:30Z</time>
      </trkpt>
      <trkpt lat="34.094222970306873" lon="-3.051660005003214">
        <ele>673.60000000000002</ele>
        <time>2003-04-19T17:43:37Z</time>
      </trkpt>
      <trkpt lat="34.094009986147285" lon="-3.050576979294419">
        <ele>673.10000000000002</ele>
        <time>2003-04-19T17:43:42Z</time>
      </trkpt>
      <trkpt lat="34.09380798228085" lon="-3.04950300604105">
        <ele>672.60000000000002</ele>
        <time>2003-04-19T17:43:49Z</time>
      </trkpt>
      <trkpt lat="34.093602038919926" lon="-3.048442024737597">
        <ele>672</ele>
        <time>2003-04-19T17:43:54Z</time>
      </trkpt>
      <trkpt lat="34.093387965112925" lon="-3.047367967665196">
        <ele>671.70000000000005</ele>
        <time>2003-04-19T17:44:01Z</time>
      </trkpt>
      <trkpt lat="34.093186967074871" lon="-3.046291982755065">
        <ele>671.70000000000005</ele>
        <time>2003-04-19T17:44:06Z</time>
      </trkpt>
      <trkpt lat="34.092980017885566" lon="-3.045214992016554">
        <ele>672</ele>
        <time>2003-04-19T17:44:13Z</time>
      </trkpt>
      <trkpt lat="34.092767033725977" lon="-3.044117968529463">
        <ele>672.60000000000002</ele>
        <time>2003-04-19T17:44:19Z</time>
      </trkpt>
      <trkpt lat="34.092548014596105" lon="-3.04297199472785">
        <ele>673.70000000000005</ele>
        <time>2003-04-19T17:44:24Z</time>
      </trkpt>
      <trkpt lat="34.092322960495949" lon="-3.041812023147941">
        <ele>674.89999999999998</ele>
        <time>2003-04-19T17:44:31Z</time>
      </trkpt>
      <trkpt lat="34.092115005478263" lon="-3.040726985782385">
        <ele>675.79999999999995</ele>
        <time>2003-04-19T17:44:36Z</time>
      </trkpt>
      <trkpt lat="34.091903027147055" lon="-3.039638008922339">
        <ele>677.10000000000002</ele>
        <time>2003-04-19T17:44:43Z</time>
      </trkpt>
      <trkpt lat="34.091704962775111" lon="-3.03854500874877">
        <ele>679.20000000000005</ele>
        <time>2003-04-19T17:44:48Z</time>
      </trkpt>
      <trkpt lat="34.091512011364102" lon="-3.037350000813603">
        <ele>681.29999999999995</ele>
        <time>2003-04-19T17:44:55Z</time>
      </trkpt>
      <trkpt lat="34.091332973912358" lon="-3.036224981769919">
        <ele>683.20000000000005</ele>
        <time>2003-04-19T17:45:00Z</time>
      </trkpt>
      <trkpt lat="34.091142034158111" lon="-3.035038020461798">
        <ele>685.10000000000002</ele>
        <time>2003-04-19T17:45:07Z</time>
      </trkpt>
      <trkpt lat="34.090962996706367" lon="-3.033832032233477">
        <ele>686.70000000000005</ele>
        <time>2003-04-19T17:45:13Z</time>
      </trkpt>
      <trkpt lat="34.090765016153455" lon="-3.032582039013505">
        <ele>689.29999999999995</ele>
        <time>2003-04-19T17:45:18Z</time>
      </trkpt>
      <trkpt lat="34.090580027550459" lon="-3.031400023028255">
        <ele>690.70000000000005</ele>
        <time>2003-04-19T17:45:25Z</time>
      </trkpt>
      <trkpt lat="34.090395038947463" lon="-3.030195040628314">
        <ele>692.5</ele>
        <time>2003-04-19T17:45:30Z</time>
      </trkpt>
      <trkpt lat="34.090229999274015" lon="-3.029112014919519">
        <ele>694.20000000000005</ele>
        <time>2003-04-19T17:45:36Z</time>
      </trkpt>
      <trkpt lat="34.090050039812922" lon="-3.028001999482513">
        <ele>695.79999999999995</ele>
        <time>2003-04-19T17:45:41Z</time>
      </trkpt>
      <trkpt lat="34.089860022068024" lon="-3.026777990162373">
        <ele>697.79999999999995</ele>
        <time>2003-04-19T17:45:46Z</time>
      </trkpt>
      <trkpt lat="34.089770000427961" lon="-3.025726983323693">
        <ele>699.29999999999995</ele>
        <time>2003-04-19T17:45:52Z</time>
      </trkpt>
      <trkpt lat="34.089718032628298" lon="-3.024613028392196">
        <ele>701.5</ele>
        <time>2003-04-19T17:45:57Z</time>
      </trkpt>
      <trkpt lat="34.089679978787899" lon="-3.023514999076724">
        <ele>703.39999999999998</ele>
        <time>2003-04-19T17:46:01Z</time>
      </trkpt>
      <trkpt lat="34.089636979624629" lon="-3.022271962836385">
        <ele>705.89999999999998</ele>
        <time>2003-04-19T17:46:08Z</time>
      </trkpt>
      <trkpt lat="34.089587023481727" lon="-3.021042002364993">
        <ele>708.39999999999998</ele>
        <time>2003-04-19T17:46:13Z</time>
      </trkpt>
      <trkpt lat="34.089543018490076" lon="-3.019950008019805">
        <ele>710.39999999999998</ele>
        <time>2003-04-19T17:46:19Z</time>
      </trkpt>
      <trkpt lat="34.089491972699761" lon="-3.01884301006794">
        <ele>712.29999999999995</ele>
        <time>2003-04-19T17:46:24Z</time>
      </trkpt>
      <trkpt lat="34.089351994916797" lon="-3.017632998526096">
        <ele>715.10000000000002</ele>
        <time>2003-04-19T17:46:30Z</time>
      </trkpt>
      <trkpt lat="34.089074973016977" lon="-3.016466991975904">
        <ele>718.39999999999998</ele>
        <time>2003-04-19T17:46:35Z</time>
      </trkpt>
      <trkpt lat="34.088874980807304" lon="-3.015795014798641">
        <ele>720.20000000000005</ele>
        <time>2003-04-19T17:46:39Z</time>
      </trkpt>
      <trkpt lat="34.088578009977937" lon="-3.014700002968311">
        <ele>723.20000000000005</ele>
        <time>2003-04-19T17:46:46Z</time>
      </trkpt>
      <trkpt lat="34.088235022500157" lon="-3.013550005853176">
        <ele>726.70000000000005</ele>
        <time>2003-04-19T17:46:51Z</time>
      </trkpt>
      <trkpt lat="34.08781299367547" lon="-3.012420041486621">
        <ele>729.89999999999998</ele>
        <time>2003-04-19T17:46:58Z</time>
      </trkpt>
      <trkpt lat="34.087373027577996" lon="-3.011312959715724">
        <ele>732.60000000000002</ele>
        <time>2003-04-19T17:47:03Z</time>
      </trkpt>
      <trkpt lat="34.086916968226433" lon="-3.010277040302753">
        <ele>735.10000000000002</ele>
        <time>2003-04-19T17:47:10Z</time>
      </trkpt>
      <trkpt lat="34.0863729827106" lon="-3.009210024029017">
        <ele>737.10000000000002</ele>
        <time>2003-04-19T17:47:15Z</time>
      </trkpt>
      <trkpt lat="34.085902003571391" lon="-3.008226994425058">
        <ele>738.79999999999995</ele>
        <time>2003-04-19T17:47:22Z</time>
      </trkpt>
      <trkpt lat="34.085390036925673" lon="-3.007171964272857">
        <ele>739.10000000000002</ele>
        <time>2003-04-19T17:47:28Z</time>
      </trkpt>
      <trkpt lat="34.084934983402491" lon="-3.006222965195775">
        <ele>741.5</ele>
        <time>2003-04-19T17:47:33Z</time>
      </trkpt>
      <trkpt lat="34.08443802036345" lon="-3.005162989720702">
        <ele>743.89999999999998</ele>
        <time>2003-04-19T17:47:38Z</time>
      </trkpt>
      <trkpt lat="34.083935022354126" lon="-3.004107037559152">
        <ele>744.5</ele>
        <time>2003-04-19T17:47:45Z</time>
      </trkpt>
      <trkpt lat="34.0834079682827" lon="-3.003016971051693">
        <ele>744.5</ele>
        <time>2003-04-19T17:47:51Z</time>
      </trkpt>
      <trkpt lat="34.08289197832346" lon="-3.001893041655421">
        <ele>745.29999999999995</ele>
        <time>2003-04-19T17:47:56Z</time>
      </trkpt>
      <trkpt lat="34.082374982535839" lon="-3.000827031210065">
        <ele>744.20000000000005</ele>
        <time>2003-04-19T17:48:03Z</time>
      </trkpt>
      <trkpt lat="34.082157975062728" lon="-3.000357979908586">
        <ele>744.70000000000005</ele>
        <time>2003-04-19T17:48:05Z</time>
      </trkpt>
      <trkpt lat="34.081233032047749" lon="-2.998544974252582">
        <ele>743.29999999999995</ele>
        <time>2003-04-19T17:48:16Z</time>
      </trkpt>
      <trkpt lat="34.08078501932323" lon="-2.997443005442619">
        <ele>742.29999999999995</ele>
        <time>2003-04-19T17:48:23Z</time>
      </trkpt>
      <trkpt lat="34.0805499907583" lon="-2.99664999358356">
        <ele>742.79999999999995</ele>
        <time>2003-04-19T17:48:27Z</time>
      </trkpt>
      <trkpt lat="34.08029199577868" lon="-2.995475018396974">
        <ele>746.20000000000005</ele>
        <time>2003-04-19T17:48:32Z</time>
      </trkpt>
      <trkpt lat="34.079982032999396" lon="-2.994131986051798">
        <ele>749.79999999999995</ele>
        <time>2003-04-19T17:48:39Z</time>
      </trkpt>
      <trkpt lat="34.079765025526285" lon="-2.993045020848513">
        <ele>755.20000000000005</ele>
        <time>2003-04-19T17:48:46Z</time>
      </trkpt>
      <trkpt lat="34.079503007233143" lon="-2.991937017068267">
        <ele>758.5</ele>
        <time>2003-04-19T17:48:51Z</time>
      </trkpt>
      <trkpt lat="34.079209975898266" lon="-2.990722982212901">
        <ele>759.5</ele>
        <time>2003-04-19T17:48:58Z</time>
      </trkpt>
      <trkpt lat="34.078888026997447" lon="-2.989433007314801">
        <ele>759.20000000000005</ele>
        <time>2003-04-19T17:49:03Z</time>
      </trkpt>
      <trkpt lat="34.078592984005809" lon="-2.988113025203347">
        <ele>757.39999999999998</ele>
        <time>2003-04-19T17:49:10Z</time>
      </trkpt>
      <trkpt lat="34.078298024833202" lon="-2.986848028376699">
        <ele>754.10000000000002</ele>
        <time>2003-04-19T17:49:16Z</time>
      </trkpt>
      <trkpt lat="34.078012034296989" lon="-2.985602980479598">
        <ele>752.10000000000002</ele>
        <time>2003-04-19T17:49:21Z</time>
      </trkpt>
      <trkpt lat="34.077754961326718" lon="-2.984473016113043">
        <ele>751.20000000000005</ele>
        <time>2003-04-19T17:49:28Z</time>
      </trkpt>
      <trkpt lat="34.077471988275647" lon="-2.983341962099075">
        <ele>750.10000000000002</ele>
        <time>2003-04-19T17:49:33Z</time>
      </trkpt>
      <trkpt lat="34.077109973877668" lon="-2.982091968879104">
        <ele>748.60000000000002</ele>
        <time>2003-04-19T17:49:40Z</time>
      </trkpt>
      <trkpt lat="34.076770003885031" lon="-2.980895033106208">
        <ele>748.10000000000002</ele>
        <time>2003-04-19T17:49:45Z</time>
      </trkpt>
      <trkpt lat="34.076572023332119" lon="-2.980220038443804">
        <ele>748.10000000000002</ele>
        <time>2003-04-19T17:49:49Z</time>
      </trkpt>
      <trkpt lat="34.076257031410933" lon="-2.979437001049519">
        <ele>747.60000000000002</ele>
        <time>2003-04-19T17:49:55Z</time>
      </trkpt>
      <trkpt lat="34.075829973444343" lon="-2.978381970897317">
        <ele>745.60000000000002</ele>
        <time>2003-04-19T17:50:02Z</time>
      </trkpt>
      <trkpt lat="34.075778005644679" lon="-2.977945022284985">
        <ele>744.60000000000002</ele>
        <time>2003-04-19T17:50:04Z</time>
      </trkpt>
      <trkpt lat="34.075789991766214" lon="-2.977689960971475">
        <ele>742.89999999999998</ele>
        <time>2003-04-19T17:50:07Z</time>
      </trkpt>
      <trkpt lat="34.075852017849684" lon="-2.977082021534443">
        <ele>743.70000000000005</ele>
        <time>2003-04-19T17:50:11Z</time>
      </trkpt>
      <trkpt lat="34.075907003134489" lon="-2.976366961374879">
        <ele>746.70000000000005</ele>
        <time>2003-04-19T17:50:15Z</time>
      </trkpt>
      <trkpt lat="34.076013034209609" lon="-2.975157033652067">
        <ele>747</ele>
        <time>2003-04-19T17:50:26Z</time>
      </trkpt>
      <trkpt lat="34.076092997565866" lon="-2.974580023437738">
        <ele>746.5</ele>
        <time>2003-04-19T17:50:31Z</time>
      </trkpt>
      <trkpt lat="34.076153011992574" lon="-2.974431999027729">
        <ele>745.89999999999998</ele>
        <time>2003-04-19T17:50:34Z</time>
      </trkpt>
      <trkpt lat="34.076228030025959" lon="-2.97434700652957">
        <ele>745.20000000000005</ele>
        <time>2003-04-19T17:50:41Z</time>
      </trkpt>
      <trkpt lat="34.076331965625286" lon="-2.974286992102861">
        <ele>744.5</ele>
        <time>2003-04-19T17:50:43Z</time>
      </trkpt>
      <trkpt lat="34.076451994478703" lon="-2.97426201403141">
        <ele>743.89999999999998</ele>
        <time>2003-04-19T17:50:49Z</time>
      </trkpt>
      <trkpt lat="34.076673025265336" lon="-2.974201999604702">
        <ele>743.10000000000002</ele>
        <time>2003-04-19T17:50:54Z</time>
      </trkpt>
      <trkpt lat="34.07696002162993" lon="-2.974127987399697">
        <ele>742.60000000000002</ele>
        <time>2003-04-19T17:50:58Z</time>
      </trkpt>
      <trkpt lat="34.077311977744102" lon="-2.974036959931254">
        <ele>742.39999999999998</ele>
        <time>2003-04-19T17:51:01Z</time>
      </trkpt>
      <trkpt lat="34.077733000740409" lon="-2.973930006846786">
        <ele>741.79999999999995</ele>
        <time>2003-04-19T17:51:04Z</time>
      </trkpt>
      <trkpt lat="34.078383017331362" lon="-2.973760021850467">
        <ele>741.20000000000005</ele>
        <time>2003-04-19T17:51:08Z</time>
      </trkpt>
      <trkpt lat="34.079320030286908" lon="-2.973522981628776">
        <ele>739.89999999999998</ele>
        <time>2003-04-19T17:51:13Z</time>
      </trkpt>
      <trkpt lat="34.08057002350688" lon="-2.973202960565686">
        <ele>737.89999999999998</ele>
        <time>2003-04-19T17:51:18Z</time>
      </trkpt>
      <trkpt lat="34.081841977313161" lon="-2.972782021388412">
        <ele>734.89999999999998</ele>
        <time>2003-04-19T17:51:25Z</time>
      </trkpt>
      <trkpt lat="34.082408007234335" lon="-2.972450014203787">
        <ele>733.60000000000002</ele>
        <time>2003-04-19T17:51:28Z</time>
      </trkpt>
      <trkpt lat="34.083302021026611" lon="-2.971865041181445">
        <ele>733.89999999999998</ele>
        <time>2003-04-19T17:51:33Z</time>
      </trkpt>
      <trkpt lat="34.084010040387511" lon="-2.971513001248241">
        <ele>734.20000000000005</ele>
        <time>2003-04-19T17:51:37Z</time>
      </trkpt>
      <trkpt lat="34.085337985306978" lon="-2.970958035439253">
        <ele>735.70000000000005</ele>
        <time>2003-04-19T17:51:44Z</time>
      </trkpt>
      <trkpt lat="34.08652201294899" lon="-2.970463000237942">
        <ele>736.20000000000005</ele>
        <time>2003-04-19T17:51:51Z</time>
      </trkpt>
      <trkpt lat="34.087375039234757" lon="-2.970114983618259">
        <ele>735.10000000000002</ele>
        <time>2003-04-19T17:51:55Z</time>
      </trkpt>
      <trkpt lat="34.08847700804472" lon="-2.969666970893741">
        <ele>737.60000000000002</ele>
        <time>2003-04-19T17:51:59Z</time>
      </trkpt>
      <trkpt lat="34.089403040707111" lon="-2.969243014231324">
        <ele>737.70000000000005</ele>
        <time>2003-04-19T17:52:04Z</time>
      </trkpt>
      <trkpt lat="34.090529987588525" lon="-2.96888804063201">
        <ele>737</ele>
        <time>2003-04-19T17:52:11Z</time>
      </trkpt>
      <trkpt lat="34.091660035774112" lon="-2.968731969594955">
        <ele>732.39999999999998</ele>
        <time>2003-04-19T17:52:17Z</time>
      </trkpt>
      <trkpt lat="34.093206999823451" lon="-2.968646977096796">
        <ele>735.5</ele>
        <time>2003-04-19T17:52:25Z</time>
      </trkpt>
      <trkpt lat="34.094124985858798" lon="-2.968489984050393">
        <ele>735.89999999999998</ele>
        <time>2003-04-19T17:52:30Z</time>
      </trkpt>
      <trkpt lat="34.095046995207667" lon="-2.968207010999322">
        <ele>735.79999999999995</ele>
        <time>2003-04-19T17:52:34Z</time>
      </trkpt>
      <trkpt lat="34.096143012866378" lon="-2.967741983011365">
        <ele>735.79999999999995</ele>
        <time>2003-04-19T17:52:41Z</time>
      </trkpt>
      <trkpt lat="34.09726501442492" lon="-2.967264968901873">
        <ele>735.10000000000002</ele>
        <time>2003-04-19T17:52:46Z</time>
      </trkpt>
      <trkpt lat="34.098451975733042" lon="-2.96676498837769">
        <ele>732.10000000000002</ele>
        <time>2003-04-19T17:52:53Z</time>
      </trkpt>
      <trkpt lat="34.09969300031662" lon="-2.966244975104928">
        <ele>730.79999999999995</ele>
        <time>2003-04-19T17:52:58Z</time>
      </trkpt>
      <trkpt lat="34.100932013243437" lon="-2.965722028166056">
        <ele>730.20000000000005</ele>
        <time>2003-04-19T17:53:05Z</time>
      </trkpt>
      <trkpt lat="34.102043034508824" lon="-2.965258006006479">
        <ele>727.5</ele>
        <time>2003-04-19T17:53:11Z</time>
      </trkpt>
      <trkpt lat="34.103112984448671" lon="-2.964802030473948">
        <ele>725.10000000000002</ele>
        <time>2003-04-19T17:53:16Z</time>
      </trkpt>
      <trkpt lat="34.104164997115731" lon="-2.964358041062951">
        <ele>723.79999999999995</ele>
        <time>2003-04-19T17:53:23Z</time>
      </trkpt>
      <trkpt lat="34.105203012004495" lon="-2.963916985318065">
        <ele>726.10000000000002</ele>
        <time>2003-04-19T17:53:28Z</time>
      </trkpt>
      <trkpt lat="34.10631000995636" lon="-2.963450029492378">
        <ele>725.20000000000005</ele>
        <time>2003-04-19T17:53:35Z</time>
      </trkpt>
      <trkpt lat="34.107493031769991" lon="-2.96296002343297">
        <ele>723.60000000000002</ele>
        <time>2003-04-19T17:53:40Z</time>
      </trkpt>
      <trkpt lat="34.108688039705157" lon="-2.962442021816969">
        <ele>722.60000000000002</ele>
        <time>2003-04-19T17:53:47Z</time>
      </trkpt>
      <trkpt lat="34.109852034598589" lon="-2.961956961080432">
        <ele>721.20000000000005</ele>
        <time>2003-04-19T17:53:52Z</time>
      </trkpt>
      <trkpt lat="34.111018041148782" lon="-2.961463015526533">
        <ele>719.5</ele>
        <time>2003-04-19T17:53:59Z</time>
      </trkpt>
      <trkpt lat="34.112148005515337" lon="-2.960988013073802">
        <ele>718.70000000000005</ele>
        <time>2003-04-19T17:54:05Z</time>
      </trkpt>
      <trkpt lat="34.113247040659189" lon="-2.960515022277832">
        <ele>719</ele>
        <time>2003-04-19T17:54:10Z</time>
      </trkpt>
      <trkpt lat="34.114397037774324" lon="-2.960019987076521">
        <ele>718</ele>
        <time>2003-04-19T17:54:17Z</time>
      </trkpt>
      <trkpt lat="34.115617023780942" lon="-2.959514977410436">
        <ele>717.60000000000002</ele>
        <time>2003-04-19T17:54:25Z</time>
      </trkpt>
      <trkpt lat="34.11660198122263" lon="-2.95909303240478">
        <ele>717</ele>
        <time>2003-04-19T17:54:30Z</time>
      </trkpt>
      <trkpt lat="34.117515021935105" lon="-2.958709979429841">
        <ele>715.60000000000002</ele>
        <time>2003-04-19T17:54:36Z</time>
      </trkpt>
      <trkpt lat="34.118656972423196" lon="-2.958228019997478">
        <ele>714.60000000000002</ele>
        <time>2003-04-19T17:54:41Z</time>
      </trkpt>
      <trkpt lat="34.119847035035491" lon="-2.957731978967786">
        <ele>712.5</ele>
        <time>2003-04-19T17:54:46Z</time>
      </trkpt>
      <trkpt lat="34.121057968586683" lon="-2.957212971523404">
        <ele>710.60000000000002</ele>
        <time>2003-04-19T17:54:53Z</time>
      </trkpt>
      <trkpt lat="34.122236967086792" lon="-2.956717014312744">
        <ele>708.70000000000005</ele>
        <time>2003-04-19T17:54:59Z</time>
      </trkpt>
      <trkpt lat="34.123416971415281" lon="-2.956217033788562">
        <ele>706.89999999999998</ele>
        <time>2003-04-19T17:55:04Z</time>
      </trkpt>
      <trkpt lat="34.124622959643602" lon="-2.955712024122477">
        <ele>704.89999999999998</ele>
        <time>2003-04-19T17:55:11Z</time>
      </trkpt>
      <trkpt lat="34.125864990055561" lon="-2.955186981707811">
        <ele>703.10000000000002</ele>
        <time>2003-04-19T17:55:16Z</time>
      </trkpt>
      <trkpt lat="34.127141973003745" lon="-2.954650036990643">
        <ele>701.39999999999998</ele>
        <time>2003-04-19T17:55:23Z</time>
      </trkpt>
      <trkpt lat="34.128004973754287" lon="-2.954285005107522">
        <ele>700.39999999999998</ele>
        <time>2003-04-19T17:55:27Z</time>
      </trkpt>
      <trkpt lat="34.129096968099475" lon="-2.953816959634423">
        <ele>698.20000000000005</ele>
        <time>2003-04-19T17:55:31Z</time>
      </trkpt>
      <trkpt lat="34.129977989941835" lon="-2.95344497077167">
        <ele>696.60000000000002</ele>
        <time>2003-04-19T17:55:35Z</time>
      </trkpt>
      <trkpt lat="34.131073001772165" lon="-2.952990001067519">
        <ele>693.60000000000002</ele>
        <time>2003-04-19T17:55:40Z</time>
      </trkpt>
      <trkpt lat="34.132206989452243" lon="-2.952445009723306">
        <ele>693.39999999999998</ele>
        <time>2003-04-19T17:55:47Z</time>
      </trkpt>
      <trkpt lat="34.133196976035833" lon="-2.95183296315372">
        <ele>688.70000000000005</ele>
        <time>2003-04-19T17:55:53Z</time>
      </trkpt>
      <trkpt lat="34.134123008698225" lon="-2.951255030930042">
        <ele>688.79999999999995</ele>
        <time>2003-04-19T17:55:58Z</time>
      </trkpt>
      <trkpt lat="34.134985003620386" lon="-2.950741974636912">
        <ele>689.39999999999998</ele>
        <time>2003-04-19T17:56:05Z</time>
      </trkpt>
      <trkpt lat="34.135907012969255" lon="-2.950266972184181">
        <ele>688.79999999999995</ele>
        <time>2003-04-19T17:56:10Z</time>
      </trkpt>
      <trkpt lat="34.136973023414612" lon="-2.949794987216592">
        <ele>687.29999999999995</ele>
        <time>2003-04-19T17:56:17Z</time>
      </trkpt>
      <trkpt lat="34.138097036629915" lon="-2.949313027784228">
        <ele>685.89999999999998</ele>
        <time>2003-04-19T17:56:22Z</time>
      </trkpt>
      <trkpt lat="34.139242004603148" lon="-2.948817992582917">
        <ele>685.10000000000002</ele>
        <time>2003-04-19T17:56:29Z</time>
      </trkpt>
      <trkpt lat="34.140376998111606" lon="-2.948324969038367">
        <ele>683.79999999999995</ele>
        <time>2003-04-19T17:56:34Z</time>
      </trkpt>
      <trkpt lat="34.141537975519896" lon="-2.947827000170946">
        <ele>682.10000000000002</ele>
        <time>2003-04-19T17:56:41Z</time>
      </trkpt>
      <trkpt lat="34.142746981233358" lon="-2.947306986898184">
        <ele>679.89999999999998</ele>
        <time>2003-04-19T17:56:47Z</time>
      </trkpt>
      <trkpt lat="34.144002003595233" lon="-2.946765013039112">
        <ele>678.20000000000005</ele>
        <time>2003-04-19T17:56:52Z</time>
      </trkpt>
      <trkpt lat="34.145212015137076" lon="-2.946237036958337">
        <ele>676.29999999999995</ele>
        <time>2003-04-19T17:56:59Z</time>
      </trkpt>
      <trkpt lat="34.14633703418076" lon="-2.945748036727309">
        <ele>674.89999999999998</ele>
        <time>2003-04-19T17:57:04Z</time>
      </trkpt>
      <trkpt lat="34.14749700576067" lon="-2.945247972384095">
        <ele>673.20000000000005</ele>
        <time>2003-04-19T17:57:11Z</time>
      </trkpt>
      <trkpt lat="34.148708023130894" lon="-2.944727037101984">
        <ele>671.29999999999995</ele>
        <time>2003-04-19T17:57:16Z</time>
      </trkpt>
      <trkpt lat="34.149927003309131" lon="-2.944197971373797">
        <ele>669.5</ele>
        <time>2003-04-19T17:57:23Z</time>
      </trkpt>
      <trkpt lat="34.151183031499386" lon="-2.94368801638484">
        <ele>667.39999999999998</ele>
        <time>2003-04-19T17:57:28Z</time>
      </trkpt>
      <trkpt lat="34.15241802111268" lon="-2.943370006978512">
        <ele>665.39999999999998</ele>
        <time>2003-04-19T17:57:35Z</time>
      </trkpt>
      <trkpt lat="34.153393004089594" lon="-2.94315199367702">
        <ele>664</ele>
        <time>2003-04-19T17:57:41Z</time>
      </trkpt>
      <trkpt lat="34.154407968744636" lon="-2.942919982597232">
        <ele>661.89999999999998</ele>
        <time>2003-04-19T17:57:47Z</time>
      </trkpt>
      <trkpt lat="34.155368031933904" lon="-2.942683026194572">
        <ele>660.60000000000002</ele>
        <time>2003-04-19T17:57:54Z</time>
      </trkpt>
      <trkpt lat="34.156415015459061" lon="-2.942438023164868">
        <ele>658.29999999999995</ele>
        <time>2003-04-19T17:57:59Z</time>
      </trkpt>
      <trkpt lat="34.157346999272704" lon="-2.942222021520138">
        <ele>657.20000000000005</ele>
        <time>2003-04-19T17:58:05Z</time>
      </trkpt>
      <trkpt lat="34.158479981124401" lon="-2.941956985741854">
        <ele>655.10000000000002</ele>
        <time>2003-04-19T17:58:10Z</time>
      </trkpt>
      <trkpt lat="34.159595025703311" lon="-2.941687004640698">
        <ele>653.39999999999998</ele>
        <time>2003-04-19T17:58:17Z</time>
      </trkpt>
      <trkpt lat="34.160682996734977" lon="-2.941339993849397">
        <ele>652.20000000000005</ele>
        <time>2003-04-19T17:58:22Z</time>
      </trkpt>
      <trkpt lat="34.161363020539284" lon="-2.940927017480135">
        <ele>650</ele>
        <time>2003-04-19T17:58:26Z</time>
      </trkpt>
      <trkpt lat="34.162215040996671" lon="-2.94035998173058">
        <ele>651.89999999999998</ele>
        <time>2003-04-19T17:58:32Z</time>
      </trkpt>
      <trkpt lat="34.163196980953217" lon="-2.939723040908575">
        <ele>656.5</ele>
        <time>2003-04-19T17:58:37Z</time>
      </trkpt>
      <trkpt lat="34.164219992235303" lon="-2.939061960205436">
        <ele>657.5</ele>
        <time>2003-04-19T17:58:44Z</time>
      </trkpt>
      <trkpt lat="34.165149964392185" lon="-2.938457038253546">
        <ele>657.39999999999998</ele>
        <time>2003-04-19T17:58:49Z</time>
      </trkpt>
      <trkpt lat="34.166123019531369" lon="-2.937826970592141">
        <ele>656.79999999999995</ele>
        <time>2003-04-19T17:58:56Z</time>
      </trkpt>
      <trkpt lat="34.167139995843172" lon="-2.937167985364795">
        <ele>657.60000000000002</ele>
        <time>2003-04-19T17:59:02Z</time>
      </trkpt>
      <trkpt lat="34.168193014338613" lon="-2.93649198487401">
        <ele>657.10000000000002</ele>
        <time>2003-04-19T17:59:07Z</time>
      </trkpt>
      <trkpt lat="34.169215019792318" lon="-2.935829982161522">
        <ele>656.79999999999995</ele>
        <time>2003-04-19T17:59:14Z</time>
      </trkpt>
      <trkpt lat="34.170199977234006" lon="-2.935188012197614">
        <ele>657</ele>
        <time>2003-04-19T17:59:19Z</time>
      </trkpt>
      <trkpt lat="34.171212008222938" lon="-2.934537995606661">
        <ele>657.29999999999995</ele>
        <time>2003-04-19T17:59:26Z</time>
      </trkpt>
      <trkpt lat="34.17222797870636" lon="-2.933904994279146">
        <ele>657.5</ele>
        <time>2003-04-19T17:59:31Z</time>
      </trkpt>
      <trkpt lat="34.173207990825176" lon="-2.933222036808729">
        <ele>657.79999999999995</ele>
        <time>2003-04-19T17:59:38Z</time>
      </trkpt>
      <trkpt lat="34.174209963530302" lon="-2.93240999802947">
        <ele>657.60000000000002</ele>
        <time>2003-04-19T17:59:43Z</time>
      </trkpt>
      <trkpt lat="34.17508302256465" lon="-2.931683035567403">
        <ele>656.89999999999998</ele>
        <time>2003-04-19T17:59:49Z</time>
      </trkpt>
      <trkpt lat="34.176132017746568" lon="-2.930800002068281">
        <ele>656.70000000000005</ele>
        <time>2003-04-19T17:59:54Z</time>
      </trkpt>
      <trkpt lat="34.177152011543512" lon="-2.929964996874332">
        <ele>656.60000000000002</ele>
        <time>2003-04-19T18:00:01Z</time>
      </trkpt>
      <trkpt lat="34.178188014775515" lon="-2.929223030805588">
        <ele>656</ele>
        <time>2003-04-19T18:00:06Z</time>
      </trkpt>
      <trkpt lat="34.179244972765446" lon="-2.928466983139515">
        <ele>654.60000000000002</ele>
        <time>2003-04-19T18:00:13Z</time>
      </trkpt>
      <trkpt lat="34.180339984595776" lon="-2.927734991535544">
        <ele>653.70000000000005</ele>
        <time>2003-04-19T18:00:18Z</time>
      </trkpt>
      <trkpt lat="34.181457962840796" lon="-2.927222019061446">
        <ele>653</ele>
        <time>2003-04-19T18:00:25Z</time>
      </trkpt>
      <trkpt lat="34.182633021846414" lon="-2.926875008270145">
        <ele>652.39999999999998</ele>
        <time>2003-04-19T18:00:31Z</time>
      </trkpt>
      <trkpt lat="34.183772960677743" lon="-2.926722960546613">
        <ele>652.5</ele>
        <time>2003-04-19T18:00:36Z</time>
      </trkpt>
      <trkpt lat="34.1849269811064" lon="-2.926720026880503">
        <ele>651.29999999999995</ele>
        <time>2003-04-19T18:00:43Z</time>
      </trkpt>
      <trkpt lat="34.185124961659312" lon="-2.926717009395361">
        <ele>650.29999999999995</ele>
        <time>2003-04-19T18:00:44Z</time>
      </trkpt>
      <trkpt lat="34.185522012412548" lon="-2.926726983860135">
        <ele>648.70000000000005</ele>
        <time>2003-04-19T18:00:45Z</time>
      </trkpt>
      <trkpt lat="34.186134980991483" lon="-2.926717009395361">
        <ele>648.29999999999995</ele>
        <time>2003-04-19T18:00:48Z</time>
      </trkpt>
      <trkpt lat="34.187297970056534" lon="-2.926590023562312">
        <ele>655.70000000000005</ele>
        <time>2003-04-19T18:00:55Z</time>
      </trkpt>
      <trkpt lat="34.188331961631775" lon="-2.92632800526917">
        <ele>658.60000000000002</ele>
        <time>2003-04-19T18:01:00Z</time>
      </trkpt>
      <trkpt lat="34.189229998737574" lon="-2.926021981984377">
        <ele>658.60000000000002</ele>
        <time>2003-04-19T18:01:06Z</time>
      </trkpt>
      <trkpt lat="34.190357029438019" lon="-2.925634989514947">
        <ele>658.79999999999995</ele>
        <time>2003-04-19T18:01:11Z</time>
      </trkpt>
      <trkpt lat="34.191509960219264" lon="-2.925250008702278">
        <ele>658.79999999999995</ele>
        <time>2003-04-19T18:01:18Z</time>
      </trkpt>
      <trkpt lat="34.192666998133063" lon="-2.924853041768074">
        <ele>658.5</ele>
        <time>2003-04-19T18:01:23Z</time>
      </trkpt>
      <trkpt lat="34.193757986649871" lon="-2.924484992399812">
        <ele>658.39999999999998</ele>
        <time>2003-04-19T18:01:30Z</time>
      </trkpt>
      <trkpt lat="34.194772029295564" lon="-2.924139993265271">
        <ele>658.39999999999998</ele>
        <time>2003-04-19T18:01:35Z</time>
      </trkpt>
      <trkpt lat="34.195902999490499" lon="-2.923764986917377">
        <ele>658.20000000000005</ele>
        <time>2003-04-19T18:01:42Z</time>
      </trkpt>
      <trkpt lat="34.197117034345865" lon="-2.92334295809269">
        <ele>657.89999999999998</ele>
        <time>2003-04-19T18:01:49Z</time>
      </trkpt>
      <trkpt lat="34.198267031461" lon="-2.922950014472008">
        <ele>657.29999999999995</ele>
        <time>2003-04-19T18:01:53Z</time>
      </trkpt>
      <trkpt lat="34.199324995279312" lon="-2.922595040872693">
        <ele>657.20000000000005</ele>
        <time>2003-04-19T18:02:01Z</time>
      </trkpt>
      <trkpt lat="34.200425036251545" lon="-2.922212993726134">
        <ele>656.60000000000002</ele>
        <time>2003-04-19T18:02:06Z</time>
      </trkpt>
      <trkpt lat="34.20140203088522" lon="-2.921877969056368">
        <ele>655.70000000000005</ele>
        <time>2003-04-19T18:02:12Z</time>
      </trkpt>
      <trkpt lat="34.202412972226739" lon="-2.921534981578589">
        <ele>655.29999999999995</ele>
        <time>2003-04-19T18:02:16Z</time>
      </trkpt>
      <trkpt lat="34.203622983768582" lon="-2.921123011037707">
        <ele>653.60000000000002</ele>
        <time>2003-04-19T18:02:23Z</time>
      </trkpt>
      <trkpt lat="34.204725036397576" lon="-2.92074297554791">
        <ele>651.79999999999995</ele>
        <time>2003-04-19T18:02:28Z</time>
      </trkpt>
      <trkpt lat="34.205847037956119" lon="-2.920363023877144">
        <ele>649.29999999999995</ele>
        <time>2003-04-19T18:02:35Z</time>
      </trkpt>
      <trkpt lat="34.206963004544377" lon="-2.919979970902205">
        <ele>645.29999999999995</ele>
        <time>2003-04-19T18:02:40Z</time>
      </trkpt>
      <trkpt lat="34.208111995831132" lon="-2.919587027281523">
        <ele>646.10000000000002</ele>
        <time>2003-04-19T18:02:47Z</time>
      </trkpt>
      <trkpt lat="34.209242966026068" lon="-2.919200034812093">
        <ele>649</ele>
        <time>2003-04-19T18:02:52Z</time>
      </trkpt>
      <trkpt lat="34.210352981463075" lon="-2.918822010979056">
        <ele>649.79999999999995</ele>
        <time>2003-04-19T18:02:59Z</time>
      </trkpt>
      <trkpt lat="34.211497027426958" lon="-2.918429989367724">
        <ele>648.20000000000005</ele>
        <time>2003-04-19T18:03:05Z</time>
      </trkpt>
      <trkpt lat="34.212526995688677" lon="-2.91807702742517">
        <ele>645.10000000000002</ele>
        <time>2003-04-19T18:03:10Z</time>
      </trkpt>
      <trkpt lat="34.213410029187799" lon="-2.917785001918674">
        <ele>641</ele>
        <time>2003-04-19T18:03:14Z</time>
      </trkpt>
      <trkpt lat="34.214518032968044" lon="-2.917394991964102">
        <ele>639.70000000000005</ele>
        <time>2003-04-19T18:03:18Z</time>
      </trkpt>
      <trkpt lat="34.215410035103559" lon="-2.917087962850928">
        <ele>639.39999999999998</ele>
        <time>2003-04-19T18:03:22Z</time>
      </trkpt>
      <trkpt lat="34.216522984206676" lon="-2.916713040322065">
        <ele>639.5</ele>
        <time>2003-04-19T18:03:27Z</time>
      </trkpt>
      <trkpt lat="34.21730300411582" lon="-2.916446998715401">
        <ele>640.10000000000002</ele>
        <time>2003-04-19T18:03:32Z</time>
      </trkpt>
      <trkpt lat="34.218301959335804" lon="-2.91610199958086">
        <ele>644.5</ele>
        <time>2003-04-19T18:03:37Z</time>
      </trkpt>
      <trkpt lat="34.219273002818227" lon="-2.915767980739474">
        <ele>645.10000000000002</ele>
        <time>2003-04-19T18:03:44Z</time>
      </trkpt>
      <trkpt lat="34.220301965251565" lon="-2.915415018796921">
        <ele>644.70000000000005</ele>
        <time>2003-04-19T18:03:49Z</time>
      </trkpt>
      <trkpt lat="34.221196984872222" lon="-2.915107989683747">
        <ele>643.89999999999998</ele>
        <time>2003-04-19T18:03:54Z</time>
      </trkpt>
      <trkpt lat="34.222308006137609" lon="-2.914732983335853">
        <ele>642.70000000000005</ele>
        <time>2003-04-19T18:04:01Z</time>
      </trkpt>
      <trkpt lat="34.223456997424364" lon="-2.9143419675529">
        <ele>640.89999999999998</ele>
        <time>2003-04-19T18:04:07Z</time>
      </trkpt>
      <trkpt lat="34.22463197261095" lon="-2.91393200866878">
        <ele>640.39999999999998</ele>
        <time>2003-04-19T18:04:12Z</time>
      </trkpt>
      <trkpt lat="34.22585497610271" lon="-2.91352498345077">
        <ele>638.20000000000005</ele>
        <time>2003-04-19T18:04:19Z</time>
      </trkpt>
      <trkpt lat="34.22714302316308" lon="-2.91307495906949">
        <ele>635.20000000000005</ele>
        <time>2003-04-19T18:04:24Z</time>
      </trkpt>
      <trkpt lat="34.228402990847826" lon="-2.912628035992384">
        <ele>639.89999999999998</ele>
        <time>2003-04-19T18:04:31Z</time>
      </trkpt>
      <trkpt lat="34.229562040418386" lon="-2.912047002464533">
        <ele>640.20000000000005</ele>
        <time>2003-04-19T18:04:36Z</time>
      </trkpt>
      <trkpt lat="34.2305370233953" lon="-2.911420036107302">
        <ele>636.5</ele>
        <time>2003-04-19T18:04:42Z</time>
      </trkpt>
      <trkpt lat="34.231353001669049" lon="-2.910887030884624">
        <ele>633.70000000000005</ele>
        <time>2003-04-19T18:04:46Z</time>
      </trkpt>
      <trkpt lat="34.232432004064322" lon="-2.91019200347364">
        <ele>628</ele>
        <time>2003-04-19T18:04:51Z</time>
      </trkpt>
      <trkpt lat="34.233172964304686" lon="-2.909701997414231">
        <ele>623.79999999999995</ele>
        <time>2003-04-19T18:04:55Z</time>
      </trkpt>
      <trkpt lat="34.234045017510653" lon="-2.909137979149818">
        <ele>621</ele>
        <time>2003-04-19T18:04:59Z</time>
      </trkpt>
      <trkpt lat="34.235082026571035" lon="-2.90847203694284">
        <ele>618.29999999999995</ele>
        <time>2003-04-19T18:05:06Z</time>
      </trkpt>
      <trkpt lat="34.236160023137927" lon="-2.907780027016997">
        <ele>616</ele>
        <time>2003-04-19T18:05:11Z</time>
      </trkpt>
      <trkpt lat="34.237267021089792" lon="-2.907064966857433">
        <ele>614.39999999999998</ele>
        <time>2003-04-19T18:05:18Z</time>
      </trkpt>
      <trkpt lat="34.238412994891405" lon="-2.906323000788689">
        <ele>613.70000000000005</ele>
        <time>2003-04-19T18:05:24Z</time>
      </trkpt>
      <trkpt lat="34.239513035863638" lon="-2.905610036104918">
        <ele>613.5</ele>
        <time>2003-04-19T18:05:29Z</time>
      </trkpt>
      <trkpt lat="34.240405037999153" lon="-2.905043000355363">
        <ele>614.10000000000002</ele>
        <time>2003-04-19T18:05:34Z</time>
      </trkpt>
      <trkpt lat="34.241299973800778" lon="-2.904473030939698">
        <ele>614.70000000000005</ele>
        <time>2003-04-19T18:05:40Z</time>
      </trkpt>
      <trkpt lat="34.24237797036767" lon="-2.90376802906394">
        <ele>615.70000000000005</ele>
        <time>2003-04-19T18:05:45Z</time>
      </trkpt>
      <trkpt lat="34.243502989411354" lon="-2.903026985004544">
        <ele>616.5</ele>
        <time>2003-04-19T18:05:52Z</time>
      </trkpt>
      <trkpt lat="34.244464980438352" lon="-2.902407981455326">
        <ele>617.20000000000005</ele>
        <time>2003-04-19T18:05:56Z</time>
      </trkpt>
      <trkpt lat="34.245616989210248" lon="-2.90166299790144">
        <ele>617.79999999999995</ele>
        <time>2003-04-19T18:06:03Z</time>
      </trkpt>
      <trkpt lat="34.246745025739074" lon="-2.900935029610992">
        <ele>615.89999999999998</ele>
        <time>2003-04-19T18:06:08Z</time>
      </trkpt>
      <trkpt lat="34.247883036732674" lon="-2.90020203217864">
        <ele>613.60000000000002</ele>
        <time>2003-04-19T18:06:15Z</time>
      </trkpt>
      <trkpt lat="34.249013001099229" lon="-2.899467023089528">
        <ele>613.39999999999998</ele>
        <time>2003-04-19T18:06:20Z</time>
      </trkpt>
      <trkpt lat="34.250114969909191" lon="-2.898752968758345">
        <ele>613.39999999999998</ele>
        <time>2003-04-19T18:06:27Z</time>
      </trkpt>
      <trkpt lat="34.251209981739521" lon="-2.898051990196109">
        <ele>613.5</ele>
        <time>2003-04-19T18:06:32Z</time>
      </trkpt>
      <trkpt lat="34.252307005226612" lon="-2.897337013855577">
        <ele>615.89999999999998</ele>
        <time>2003-04-19T18:06:39Z</time>
      </trkpt>
      <trkpt lat="34.253377038985491" lon="-2.896647015586495">
        <ele>620.5</ele>
        <time>2003-04-19T18:06:45Z</time>
      </trkpt>
      <trkpt lat="34.254425028339028" lon="-2.895972020924091">
        <ele>623.5</ele>
        <time>2003-04-19T18:06:50Z</time>
      </trkpt>
      <trkpt lat="34.255485003814101" lon="-2.895286967977881">
        <ele>626.10000000000002</ele>
        <time>2003-04-19T18:06:57Z</time>
      </trkpt>
      <trkpt lat="34.25655503757298" lon="-2.89459303021431">
        <ele>631.5</ele>
        <time>2003-04-19T18:07:02Z</time>
      </trkpt>
      <trkpt lat="34.257618030533195" lon="-2.893903031945229">
        <ele>635.29999999999995</ele>
        <time>2003-04-19T18:07:09Z</time>
      </trkpt>
      <trkpt lat="34.258722010999918" lon="-2.893191995099187">
        <ele>637</ele>
        <time>2003-04-19T18:07:14Z</time>
      </trkpt>
      <trkpt lat="34.25977997481823" lon="-2.89251197129488">
        <ele>637.10000000000002</ele>
        <time>2003-04-19T18:07:21Z</time>
      </trkpt>
      <trkpt lat="34.260857971385121" lon="-2.891817027702928">
        <ele>637.20000000000005</ele>
        <time>2003-04-19T18:07:26Z</time>
      </trkpt>
      <trkpt lat="34.261966980993748" lon="-2.891087969765067">
        <ele>637.60000000000002</ele>
        <time>2003-04-19T18:07:33Z</time>
      </trkpt>
      <trkpt lat="34.263089988380671" lon="-2.890366958454251">
        <ele>637.79999999999995</ele>
        <time>2003-04-19T18:07:39Z</time>
      </trkpt>
      <trkpt lat="34.264192041009665" lon="-2.889658017084003">
        <ele>637.79999999999995</ele>
        <time>2003-04-19T18:07:44Z</time>
      </trkpt>
      <trkpt lat="34.265299960970879" lon="-2.888938011601567">
        <ele>637.10000000000002</ele>
        <time>2003-04-19T18:07:51Z</time>
      </trkpt>
      <trkpt lat="34.266402013599873" lon="-2.888227980583906">
        <ele>635.20000000000005</ele>
        <time>2003-04-19T18:07:56Z</time>
      </trkpt>
      <trkpt lat="34.267531977966428" lon="-2.887494983151555">
        <ele>630.5</ele>
        <time>2003-04-19T18:08:03Z</time>
      </trkpt>
      <trkpt lat="34.268690021708608" lon="-2.886749999597669">
        <ele>629</ele>
        <time>2003-04-19T18:08:08Z</time>
      </trkpt>
      <trkpt lat="34.269797019660473" lon="-2.886033011600375">
        <ele>633.39999999999998</ele>
        <time>2003-04-19T18:08:15Z</time>
      </trkpt>
      <trkpt lat="34.2708679754287" lon="-2.88533303886652">
        <ele>636.5</ele>
        <time>2003-04-19T18:08:20Z</time>
      </trkpt>
      <trkpt lat="34.271943038329482" lon="-2.884657038375735">
        <ele>637.39999999999998</ele>
        <time>2003-04-19T18:08:27Z</time>
      </trkpt>
      <trkpt lat="34.27305699326098" lon="-2.884080028161407">
        <ele>637.79999999999995</ele>
        <time>2003-04-19T18:08:33Z</time>
      </trkpt>
      <trkpt lat="34.274129960685968" lon="-2.883733017370105">
        <ele>636.89999999999998</ele>
        <time>2003-04-19T18:08:38Z</time>
      </trkpt>
      <trkpt lat="34.275239976122975" lon="-2.883532019332051">
        <ele>631.70000000000005</ele>
        <time>2003-04-19T18:08:45Z</time>
      </trkpt>
      <trkpt lat="34.276040028780699" lon="-2.883505029603839">
        <ele>625.79999999999995</ele>
        <time>2003-04-19T18:08:49Z</time>
      </trkpt>
      <trkpt lat="34.277082988992333" lon="-2.883596979081631">
        <ele>617.89999999999998</ele>
        <time>2003-04-19T18:08:54Z</time>
      </trkpt>
      <trkpt lat="34.278374975547194" lon="-2.883848017081618">
        <ele>612.29999999999995</ele>
        <time>2003-04-19T18:09:00Z</time>
      </trkpt>
      <trkpt lat="34.279652964323759" lon="-2.884116992354393">
        <ele>611.29999999999995</ele>
        <time>2003-04-19T18:09:05Z</time>
      </trkpt>
      <trkpt lat="34.280892983078957" lon="-2.884371969848871">
        <ele>610.10000000000002</ele>
        <time>2003-04-19T18:09:12Z</time>
      </trkpt>
      <trkpt lat="34.282092014327645" lon="-2.884617978706956">
        <ele>608.70000000000005</ele>
        <time>2003-04-19T18:09:17Z</time>
      </trkpt>
      <trkpt lat="34.283255003392696" lon="-2.884859964251518">
        <ele>607.20000000000005</ele>
        <time>2003-04-19T18:09:24Z</time>
      </trkpt>
      <trkpt lat="34.284372981637716" lon="-2.885100021958351">
        <ele>601.89999999999998</ele>
        <time>2003-04-19T18:09:29Z</time>
      </trkpt>
      <trkpt lat="34.285551980137825" lon="-2.885324992239475">
        <ele>595.79999999999995</ele>
        <time>2003-04-19T18:09:36Z</time>
      </trkpt>
      <trkpt lat="34.286735001951456" lon="-2.885578041896224">
        <ele>592.29999999999995</ele>
        <time>2003-04-19T18:09:41Z</time>
      </trkpt>
      <trkpt lat="34.287936966866255" lon="-2.885822039097548">
        <ele>589.5</ele>
        <time>2003-04-19T18:09:48Z</time>
      </trkpt>
      <trkpt lat="34.289155025035143" lon="-2.886071987450123">
        <ele>588.39999999999998</ele>
        <time>2003-04-19T18:09:54Z</time>
      </trkpt>
      <trkpt lat="34.290362019091845" lon="-2.88632201962173">
        <ele>589.20000000000005</ele>
        <time>2003-04-19T18:09:59Z</time>
      </trkpt>
      <trkpt lat="34.291538000106812" lon="-2.886561993509531">
        <ele>592.10000000000002</ele>
        <time>2003-04-19T18:10:06Z</time>
      </trkpt>
      <trkpt lat="34.29269696585834" lon="-2.886800039559603">
        <ele>591</ele>
        <time>2003-04-19T18:10:11Z</time>
      </trkpt>
      <trkpt lat="34.293887028470635" lon="-2.887044958770275">
        <ele>588.79999999999995</ele>
        <time>2003-04-19T18:10:18Z</time>
      </trkpt>
      <trkpt lat="34.295077007263899" lon="-2.88729197345674">
        <ele>586.79999999999995</ele>
        <time>2003-04-19T18:10:23Z</time>
      </trkpt>
      <trkpt lat="34.296275032684207" lon="-2.887532031163573">
        <ele>583.79999999999995</ele>
        <time>2003-04-19T18:10:30Z</time>
      </trkpt>
      <trkpt lat="34.297482026740909" lon="-2.887787008658052">
        <ele>581</ele>
        <time>2003-04-19T18:10:35Z</time>
      </trkpt>
      <trkpt lat="34.298664964735508" lon="-2.888027988374233">
        <ele>577.79999999999995</ele>
        <time>2003-04-19T18:10:42Z</time>
      </trkpt>
      <trkpt lat="34.299843041226268" lon="-2.888271985575557">
        <ele>573.79999999999995</ele>
        <time>2003-04-19T18:10:48Z</time>
      </trkpt>
      <trkpt lat="34.301018016412854" lon="-2.888522017747164">
        <ele>570.20000000000005</ele>
        <time>2003-04-19T18:10:53Z</time>
      </trkpt>
      <trkpt lat="34.302179999649525" lon="-2.888756962493062">
        <ele>569.79999999999995</ele>
        <time>2003-04-19T18:11:00Z</time>
      </trkpt>
      <trkpt lat="34.30337299592793" lon="-2.889000037685037">
        <ele>569.60000000000002</ele>
        <time>2003-04-19T18:11:05Z</time>
      </trkpt>
      <trkpt lat="34.304637992754579" lon="-2.889259960502386">
        <ele>566.79999999999995</ele>
        <time>2003-04-19T18:11:12Z</time>
      </trkpt>
      <trkpt lat="34.305968033149838" lon="-2.889536982402206">
        <ele>563.79999999999995</ele>
        <time>2003-04-19T18:11:17Z</time>
      </trkpt>
      <trkpt lat="34.307297989726067" lon="-2.889811992645264">
        <ele>560.89999999999998</ele>
        <time>2003-04-19T18:11:24Z</time>
      </trkpt>
      <trkpt lat="34.308607997372746" lon="-2.890069987624884">
        <ele>559.60000000000002</ele>
        <time>2003-04-19T18:11:29Z</time>
      </trkpt>
      <trkpt lat="34.309837035834789" lon="-2.890314990654588">
        <ele>561</ele>
        <time>2003-04-19T18:11:36Z</time>
      </trkpt>
      <trkpt lat="34.310997007414699" lon="-2.890403000637889">
        <ele>559.70000000000005</ele>
        <time>2003-04-19T18:11:42Z</time>
      </trkpt>
      <trkpt lat="34.31215999647975" lon="-2.890444993972778">
        <ele>555.60000000000002</ele>
        <time>2003-04-19T18:11:47Z</time>
      </trkpt>
      <trkpt lat="34.313291972503066" lon="-2.890486987307668">
        <ele>551.29999999999995</ele>
        <time>2003-04-19T18:11:54Z</time>
      </trkpt>
      <trkpt lat="34.314563004299998" lon="-2.890544990077615">
        <ele>546.29999999999995</ele>
        <time>2003-04-19T18:12:02Z</time>
      </trkpt>
      <trkpt lat="34.315462969243526" lon="-2.890568040311337">
        <ele>542.79999999999995</ele>
        <time>2003-04-19T18:12:06Z</time>
      </trkpt>
      <trkpt lat="34.316424960270524" lon="-2.890607016161084">
        <ele>540</ele>
        <time>2003-04-19T18:12:10Z</time>
      </trkpt>
      <trkpt lat="34.317461969330907" lon="-2.890637023374438">
        <ele>537.29999999999995</ele>
        <time>2003-04-19T18:12:15Z</time>
      </trkpt>
      <trkpt lat="34.318526973947883" lon="-2.890677005052567">
        <ele>534.79999999999995</ele>
        <time>2003-04-19T18:12:21Z</time>
      </trkpt>
      <trkpt lat="34.319732040166855" lon="-2.890722015872598">
        <ele>537.89999999999998</ele>
        <time>2003-04-19T18:12:26Z</time>
      </trkpt>
      <trkpt lat="34.3207330070436" lon="-2.890753028914332">
        <ele>539.39999999999998</ele>
        <time>2003-04-19T18:12:32Z</time>
      </trkpt>
      <trkpt lat="34.321751995012164" lon="-2.890786975622177">
        <ele>541.5</ele>
        <time>2003-04-19T18:12:37Z</time>
      </trkpt>
      <trkpt lat="34.322765031829476" lon="-2.890825029462576">
        <ele>542.5</ele>
        <time>2003-04-19T18:12:42Z</time>
      </trkpt>
      <trkpt lat="34.323755018413067" lon="-2.890859981998801">
        <ele>541.39999999999998</ele>
        <time>2003-04-19T18:12:46Z</time>
      </trkpt>
      <trkpt lat="34.324799990281463" lon="-2.890893006697297">
        <ele>536.60000000000002</ele>
        <time>2003-04-19T18:12:52Z</time>
      </trkpt>
      <trkpt lat="34.325827024877071" lon="-2.890950003638864">
        <ele>535.39999999999998</ele>
        <time>2003-04-19T18:12:57Z</time>
      </trkpt>
      <trkpt lat="34.327220013365149" lon="-2.891246974468231">
        <ele>531.5</ele>
        <time>2003-04-19T18:13:04Z</time>
      </trkpt>
      <trkpt lat="34.328434970229864" lon="-2.891585016623139">
        <ele>527.10000000000002</ele>
        <time>2003-04-19T18:13:09Z</time>
      </trkpt>
      <trkpt lat="34.329680018126965" lon="-2.891937978565693">
        <ele>522.29999999999995</ele>
        <time>2003-04-19T18:13:16Z</time>
      </trkpt>
      <trkpt lat="34.330912996083498" lon="-2.892294963821769">
        <ele>518</ele>
        <time>2003-04-19T18:13:23Z</time>
      </trkpt>
      <trkpt lat="34.332046983763576" lon="-2.892611967399716">
        <ele>516.29999999999995</ele>
        <time>2003-04-19T18:13:28Z</time>
      </trkpt>
      <trkpt lat="34.333100002259016" lon="-2.892901981249452">
        <ele>515.5</ele>
        <time>2003-04-19T18:13:35Z</time>
      </trkpt>
      <trkpt lat="34.333997033536434" lon="-2.893162993714213">
        <ele>514</ele>
        <time>2003-04-19T18:13:39Z</time>
      </trkpt>
      <trkpt lat="34.334952989593148" lon="-2.893432974815369">
        <ele>511.89999999999998</ele>
        <time>2003-04-19T18:13:44Z</time>
      </trkpt>
      <trkpt lat="34.335948005318642" lon="-2.893717959523201">
        <ele>509.5</ele>
        <time>2003-04-19T18:13:50Z</time>
      </trkpt>
      <trkpt lat="34.336951989680529" lon="-2.894006967544556">
        <ele>507.19999999999999</ele>
        <time>2003-04-19T18:13:55Z</time>
      </trkpt>
      <trkpt lat="34.338011965155602" lon="-2.894307961687446">
        <ele>504.60000000000002</ele>
        <time>2003-04-19T18:13:59Z</time>
      </trkpt>
      <trkpt lat="34.339100020006299" lon="-2.89461700245738">
        <ele>503.30000000000001</ele>
        <time>2003-04-19T18:14:05Z</time>
      </trkpt>
      <trkpt lat="34.340167958289385" lon="-2.89491699077189">
        <ele>501.89999999999998</ele>
        <time>2003-04-19T18:14:10Z</time>
      </trkpt>
      <trkpt lat="34.341245032846928" lon="-2.895225025713444">
        <ele>500.89999999999998</ele>
        <time>2003-04-19T18:14:14Z</time>
      </trkpt>
      <trkpt lat="34.342311965301633" lon="-2.895527025684714">
        <ele>500.10000000000002</ele>
        <time>2003-04-19T18:14:20Z</time>
      </trkpt>
      <trkpt lat="34.343376969918609" lon="-2.895828019827604">
        <ele>498.80000000000001</ele>
        <time>2003-04-19T18:14:25Z</time>
      </trkpt>
      <trkpt lat="34.344463013112545" lon="-2.896143011748791">
        <ele>497.10000000000002</ele>
        <time>2003-04-19T18:14:29Z</time>
      </trkpt>
      <trkpt lat="34.345347974449396" lon="-2.896392038092017">
        <ele>495.19999999999999</ele>
        <time>2003-04-19T18:14:33Z</time>
      </trkpt>
      <trkpt lat="34.346382971853018" lon="-2.896686997264624">
        <ele>493.89999999999998</ele>
        <time>2003-04-19T18:14:38Z</time>
      </trkpt>
      <trkpt lat="34.347402965649962" lon="-2.896977011114359">
        <ele>492.10000000000002</ele>
        <time>2003-04-19T18:14:44Z</time>
      </trkpt>
      <trkpt lat="34.348435029387474" lon="-2.897247998043895">
        <ele>490.30000000000001</ele>
        <time>2003-04-19T18:14:49Z</time>
      </trkpt>
      <trkpt lat="34.349501961842179" lon="-2.897376995533705">
        <ele>488.19999999999999</ele>
        <time>2003-04-19T18:14:53Z</time>
      </trkpt>
      <trkpt lat="34.350588005036116" lon="-2.897447990253568">
        <ele>486.89999999999998</ele>
        <time>2003-04-19T18:14:59Z</time>
      </trkpt>
      <trkpt lat="34.351661978289485" lon="-2.897513033822179">
        <ele>485.5</ele>
        <time>2003-04-19T18:15:04Z</time>
      </trkpt>
      <trkpt lat="34.352732012048364" lon="-2.897589979693294">
        <ele>482.69999999999999</ele>
        <time>2003-04-19T18:15:08Z</time>
      </trkpt>
      <trkpt lat="34.353757034987211" lon="-2.897655023261905">
        <ele>483.10000000000002</ele>
        <time>2003-04-19T18:15:14Z</time>
      </trkpt>
      <trkpt lat="34.354773005470634" lon="-2.897717971354723">
        <ele>481.39999999999998</ele>
        <time>2003-04-19T18:15:19Z</time>
      </trkpt>
      <trkpt lat="34.355816971510649" lon="-2.897783014923334">
        <ele>478.69999999999999</ele>
        <time>2003-04-19T18:15:23Z</time>
      </trkpt>
      <trkpt lat="34.35684802941978" lon="-2.897857027128339">
        <ele>477</ele>
        <time>2003-04-19T18:15:28Z</time>
      </trkpt>
      <trkpt lat="34.357828041538596" lon="-2.897922992706299">
        <ele>476.10000000000002</ele>
        <time>2003-04-19T18:15:34Z</time>
      </trkpt>
      <trkpt lat="34.358828002586961" lon="-2.898055007681251">
        <ele>474.39999999999998</ele>
        <time>2003-04-19T18:15:39Z</time>
      </trkpt>
      <trkpt lat="34.359832992777228" lon="-2.898342004045844">
        <ele>472.89999999999998</ele>
        <time>2003-04-19T18:15:43Z</time>
      </trkpt>
      <trkpt lat="34.360804958269" lon="-2.898711981251836">
        <ele>471.39999999999998</ele>
        <time>2003-04-19T18:15:49Z</time>
      </trkpt>
      <trkpt lat="34.361786982044578" lon="-2.899092016741633">
        <ele>469.39999999999998</ele>
        <time>2003-04-19T18:15:54Z</time>
      </trkpt>
      <trkpt lat="34.362788032740355" lon="-2.899484960362315">
        <ele>467</ele>
        <time>2003-04-19T18:15:58Z</time>
      </trkpt>
      <trkpt lat="34.36379000544548" lon="-2.899885028600693">
        <ele>465.30000000000001</ele>
        <time>2003-04-19T18:16:03Z</time>
      </trkpt>
      <trkpt lat="34.364802036434412" lon="-2.90026699192822">
        <ele>462.89999999999998</ele>
        <time>2003-04-19T18:16:09Z</time>
      </trkpt>
      <trkpt lat="34.365818006917834" lon="-2.900658007711172">
        <ele>460.60000000000002</ele>
        <time>2003-04-19T18:16:13Z</time>
      </trkpt>
      <trkpt lat="34.366785027086735" lon="-2.901029996573925">
        <ele>458.39999999999998</ele>
        <time>2003-04-19T18:16:18Z</time>
      </trkpt>
      <trkpt lat="34.367739977315068" lon="-2.901395028457046">
        <ele>456.5</ele>
        <time>2003-04-19T18:16:24Z</time>
      </trkpt>
      <trkpt lat="34.368712026625872" lon="-2.901780009269714">
        <ele>454.39999999999998</ele>
        <time>2003-04-19T18:16:29Z</time>
      </trkpt>
      <trkpt lat="34.369692038744688" lon="-2.902158033102751">
        <ele>452.60000000000002</ele>
        <time>2003-04-19T18:16:33Z</time>
      </trkpt>
      <trkpt lat="34.370676996186376" lon="-2.902527004480362">
        <ele>449.69999999999999</ele>
        <time>2003-04-19T18:16:39Z</time>
      </trkpt>
      <trkpt lat="34.371697995811701" lon="-2.902926988899708">
        <ele>447.5</ele>
        <time>2003-04-19T18:16:44Z</time>
      </trkpt>
      <trkpt lat="34.372732993215322" lon="-2.903329990804195">
        <ele>445.19999999999999</ele>
        <time>2003-04-19T18:16:48Z</time>
      </trkpt>
      <trkpt lat="34.373785005882382" lon="-2.903741961345077">
        <ele>442.39999999999998</ele>
        <time>2003-04-19T18:16:53Z</time>
      </trkpt>
      <trkpt lat="34.374654963612556" lon="-2.904038010165095">
        <ele>440.5</ele>
        <time>2003-04-19T18:16:57Z</time>
      </trkpt>
      <trkpt lat="34.375549983233213" lon="-2.904207995161414">
        <ele>438.39999999999998</ele>
        <time>2003-04-19T18:17:02Z</time>
      </trkpt>
      <trkpt lat="34.376612976193428" lon="-2.904302962124348">
        <ele>437.39999999999998</ele>
        <time>2003-04-19T18:17:07Z</time>
      </trkpt>
      <trkpt lat="34.37764797359705" lon="-2.904362976551056">
        <ele>436.39999999999998</ele>
        <time>2003-04-19T18:17:11Z</time>
      </trkpt>
      <trkpt lat="34.37865799292922" lon="-2.904422990977764">
        <ele>433.89999999999998</ele>
        <time>2003-04-19T18:17:16Z</time>
      </trkpt>
      <trkpt lat="34.379673041403294" lon="-2.904500020667911">
        <ele>432.5</ele>
        <time>2003-04-19T18:17:22Z</time>
      </trkpt>
      <trkpt lat="34.380671996623278" lon="-2.904555005952716">
        <ele>430.19999999999999</ele>
        <time>2003-04-19T18:17:27Z</time>
      </trkpt>
      <trkpt lat="34.380872994661331" lon="-2.904551988467574">
        <ele>429.80000000000001</ele>
        <time>2003-04-19T18:17:27Z</time>
      </trkpt>
      <trkpt lat="34.381907992064953" lon="-2.904445035383105">
        <ele>427.19999999999999</ele>
        <time>2003-04-19T18:17:33Z</time>
      </trkpt>
      <trkpt lat="34.3829330150038" lon="-2.904182011261582">
        <ele>426.30000000000001</ele>
        <time>2003-04-19T18:17:38Z</time>
      </trkpt>
      <trkpt lat="34.383906992152333" lon="-2.903813039883971">
        <ele>424.69999999999999</ele>
        <time>2003-04-19T18:17:42Z</time>
      </trkpt>
      <trkpt lat="34.384852973744273" lon="-2.903441973030567">
        <ele>421.39999999999998</ele>
        <time>2003-04-19T18:17:47Z</time>
      </trkpt>
      <trkpt lat="34.385808007791638" lon="-2.903065038844943">
        <ele>416.89999999999998</ele>
        <time>2003-04-19T18:17:53Z</time>
      </trkpt>
      <trkpt lat="34.386728005483747" lon="-2.902712998911738">
        <ele>416</ele>
        <time>2003-04-19T18:17:58Z</time>
      </trkpt>
      <trkpt lat="34.387614978477359" lon="-2.902367999777198">
        <ele>416</ele>
        <time>2003-04-19T18:18:02Z</time>
      </trkpt>
      <trkpt lat="34.388504968956113" lon="-2.902025012299418">
        <ele>418</ele>
        <time>2003-04-19T18:18:08Z</time>
      </trkpt>
      <trkpt lat="34.389384984970093" lon="-2.90168697014451">
        <ele>420.89999999999998</ele>
        <time>2003-04-19T18:18:13Z</time>
      </trkpt>
      <trkpt lat="34.390257960185409" lon="-2.901371978223324">
        <ele>421.80000000000001</ele>
        <time>2003-04-19T18:18:17Z</time>
      </trkpt>
      <trkpt lat="34.391315001994371" lon="-2.90112697519362">
        <ele>422.80000000000001</ele>
        <time>2003-04-19T18:18:24Z</time>
      </trkpt>
      <trkpt lat="34.392355028539896" lon="-2.90101801045239">
        <ele>421.89999999999998</ele>
        <time>2003-04-19T18:18:29Z</time>
      </trkpt>
      <trkpt lat="34.393392959609628" lon="-2.900966964662075">
        <ele>419.80000000000001</ele>
        <time>2003-04-19T18:18:36Z</time>
      </trkpt>
      <trkpt lat="34.394432986155152" lon="-2.900905022397637">
        <ele>418.39999999999998</ele>
        <time>2003-04-19T18:18:41Z</time>
      </trkpt>
      <trkpt lat="34.395445017144084" lon="-2.900818018242717">
        <ele>418.30000000000001</ele>
        <time>2003-04-19T18:18:48Z</time>
      </trkpt>
      <trkpt lat="34.396437015384436" lon="-2.900643004104495">
        <ele>423</ele>
        <time>2003-04-19T18:18:55Z</time>
      </trkpt>
      <trkpt lat="34.396782014518976" lon="-2.900543007999659">
        <ele>424.80000000000001</ele>
        <time>2003-04-19T18:18:58Z</time>
      </trkpt>
      <trkpt lat="34.397726990282536" lon="-2.900215024128556">
        <ele>424.30000000000001</ele>
        <time>2003-04-19T18:19:07Z</time>
      </trkpt>
      <trkpt lat="34.39831699244678" lon="-2.899932973086834">
        <ele>420.89999999999998</ele>
        <time>2003-04-19T18:19:11Z</time>
      </trkpt>
      <trkpt lat="34.39883197657764" lon="-2.899602977558971">
        <ele>418.19999999999999</ele>
        <time>2003-04-19T18:19:17Z</time>
      </trkpt>
      <trkpt lat="34.399602022022009" lon="-2.899018004536629">
        <ele>415.5</ele>
        <time>2003-04-19T18:19:26Z</time>
      </trkpt>
      <trkpt lat="34.400342982262373" lon="-2.898400006815791">
        <ele>414.5</ele>
        <time>2003-04-19T18:19:34Z</time>
      </trkpt>
      <trkpt lat="34.401136999949813" lon="-2.897738004103303">
        <ele>412.19999999999999</ele>
        <time>2003-04-19T18:19:45Z</time>
      </trkpt>
      <trkpt lat="34.401932023465633" lon="-2.897072983905673">
        <ele>410.69999999999999</ele>
        <time>2003-04-19T18:19:53Z</time>
      </trkpt>
      <trkpt lat="34.402732998132706" lon="-2.896392960101366">
        <ele>410.39999999999998</ele>
        <time>2003-04-19T18:20:04Z</time>
      </trkpt>
      <trkpt lat="34.403507988899946" lon="-2.895770017057657">
        <ele>409</ele>
        <time>2003-04-19T18:20:13Z</time>
      </trkpt>
      <trkpt lat="34.404197987169027" lon="-2.89515201933682">
        <ele>406.5</ele>
        <time>2003-04-19T18:20:24Z</time>
      </trkpt>
      <trkpt lat="34.404309969395399" lon="-2.895063003525138">
        <ele>406.19999999999999</ele>
        <time>2003-04-19T18:20:27Z</time>
      </trkpt>
      <trkpt lat="34.40446000546217" lon="-2.89493702352047">
        <ele>405.80000000000001</ele>
        <time>2003-04-19T18:20:29Z</time>
      </trkpt>
      <trkpt lat="34.404657986015081" lon="-2.894767038524151">
        <ele>404.89999999999998</ele>
        <time>2003-04-19T18:20:32Z</time>
      </trkpt>
      <trkpt lat="34.405110022053123" lon="-2.894407035782933">
        <ele>403.60000000000002</ele>
        <time>2003-04-19T18:20:39Z</time>
      </trkpt>
      <trkpt lat="34.405462983995676" lon="-2.894106963649392">
        <ele>401.89999999999998</ele>
        <time>2003-04-19T18:20:43Z</time>
      </trkpt>
      <trkpt lat="34.405543031170964" lon="-2.894030017778277">
        <ele>401.80000000000001</ele>
        <time>2003-04-19T18:20:46Z</time>
      </trkpt>
      <trkpt lat="34.405612014234066" lon="-2.893932033330202">
        <ele>401.80000000000001</ele>
        <time>2003-04-19T18:20:51Z</time>
      </trkpt>
      <trkpt lat="34.405674962326884" lon="-2.893836982548237">
        <ele>401.60000000000002</ele>
        <time>2003-04-19T18:20:54Z</time>
      </trkpt>
      <trkpt lat="34.405789962038398" lon="-2.893798006698489">
        <ele>401.39999999999998</ele>
        <time>2003-04-19T18:20:56Z</time>
      </trkpt>
      <trkpt lat="34.405891969799995" lon="-2.89380001835525">
        <ele>401</ele>
        <time>2003-04-19T18:20:59Z</time>
      </trkpt>
      <trkpt lat="34.406024990603328" lon="-2.89375701919198">
        <ele>400.89999999999998</ele>
        <time>2003-04-19T18:21:00Z</time>
      </trkpt>
      <trkpt lat="34.406166980043054" lon="-2.893662974238396">
        <ele>402</ele>
        <time>2003-04-19T18:21:03Z</time>
      </trkpt>
      <trkpt lat="34.406415000557899" lon="-2.89352199062705">
        <ele>404</ele>
        <time>2003-04-19T18:21:06Z</time>
      </trkpt>
      <trkpt lat="34.40716702491045" lon="-2.893170034512878">
        <ele>406.30000000000001</ele>
        <time>2003-04-19T18:21:14Z</time>
      </trkpt>
      <trkpt lat="34.407700030133128" lon="-2.892978005111218">
        <ele>405.69999999999999</ele>
        <time>2003-04-19T18:21:22Z</time>
      </trkpt>
      <trkpt lat="34.407964982092381" lon="-2.892931988462806">
        <ele>404.60000000000002</ele>
        <time>2003-04-19T18:21:26Z</time>
      </trkpt>
      <trkpt lat="34.408112000674009" lon="-2.892931988462806">
        <ele>403.80000000000001</ele>
        <time>2003-04-19T18:21:29Z</time>
      </trkpt>
      <trkpt lat="34.408330013975501" lon="-2.892938023433089">
        <ele>402.5</ele>
        <time>2003-04-19T18:21:32Z</time>
      </trkpt>
      <trkpt lat="34.40869496203959" lon="-2.892916984856129">
        <ele>402.80000000000001</ele>
        <time>2003-04-19T18:21:37Z</time>
      </trkpt>
      <trkpt lat="34.408807028084993" lon="-2.892976999282837">
        <ele>403.10000000000002</ele>
        <time>2003-04-19T18:21:38Z</time>
      </trkpt>
      <trkpt lat="34.40890702418983" lon="-2.893098033964634">
        <ele>403.39999999999998</ele>
        <time>2003-04-19T18:21:41Z</time>
      </trkpt>
      <trkpt lat="34.409026969224215" lon="-2.893214961513877">
        <ele>403.69999999999999</ele>
        <time>2003-04-19T18:21:42Z</time>
      </trkpt>
      <trkpt lat="34.409153033047915" lon="-2.8933069948107">
        <ele>403.69999999999999</ele>
        <time>2003-04-19T18:21:45Z</time>
      </trkpt>
      <trkpt lat="34.409512029960752" lon="-2.8934779856354">
        <ele>404.5</ele>
        <time>2003-04-19T18:21:49Z</time>
      </trkpt>
      <trkpt lat="34.410130027681589" lon="-2.893664985895157">
        <ele>406.10000000000002</ele>
        <time>2003-04-19T18:21:57Z</time>
      </trkpt>
      <trkpt lat="34.410275034606457" lon="-2.893712008371949">
        <ele>406.30000000000001</ele>
        <time>2003-04-19T18:22:00Z</time>
      </trkpt>
      <trkpt lat="34.410578040406108" lon="-2.893804963678122">
        <ele>406.39999999999998</ele>
        <time>2003-04-19T18:22:04Z</time>
      </trkpt>
      <trkpt lat="34.410727992653847" lon="-2.89386497810483">
        <ele>405.89999999999998</ele>
        <time>2003-04-19T18:22:05Z</time>
      </trkpt>
      <trkpt lat="34.410996967926621" lon="-2.893909988924861">
        <ele>405.5</ele>
        <time>2003-04-19T18:22:08Z</time>
      </trkpt>
      <trkpt lat="34.411087995395064" lon="-2.893906971439719">
        <ele>405.60000000000002</ele>
        <time>2003-04-19T18:22:09Z</time>
      </trkpt>
      <trkpt lat="34.411435006186366" lon="-2.893894985318184">
        <ele>405.60000000000002</ele>
        <time>2003-04-19T18:22:13Z</time>
      </trkpt>
      <trkpt lat="34.411755027249455" lon="-2.893898002803326">
        <ele>404.60000000000002</ele>
        <time>2003-04-19T18:22:17Z</time>
      </trkpt>
      <trkpt lat="34.412125004455447" lon="-2.893875036388636">
        <ele>403.69999999999999</ele>
        <time>2003-04-19T18:22:24Z</time>
      </trkpt>
      <trkpt lat="34.412479978054762" lon="-2.893847962841392">
        <ele>403.5</ele>
        <time>2003-04-19T18:22:30Z</time>
      </trkpt>
      <trkpt lat="34.412672007456422" lon="-2.893849974498153">
        <ele>402.89999999999998</ele>
        <time>2003-04-19T18:22:31Z</time>
      </trkpt>
      <trkpt lat="34.413156984373927" lon="-2.893807981163263">
        <ele>403.30000000000001</ele>
        <time>2003-04-19T18:22:39Z</time>
      </trkpt>
      <trkpt lat="34.413252035155892" lon="-2.893767999485135">
        <ele>403.19999999999999</ele>
        <time>2003-04-19T18:22:42Z</time>
      </trkpt>
      <trkpt lat="34.413431994616985" lon="-2.893677977845073">
        <ele>402.19999999999999</ele>
        <time>2003-04-19T18:22:46Z</time>
      </trkpt>
      <trkpt lat="34.413516987115145" lon="-2.893732963129878">
        <ele>402.10000000000002</ele>
        <time>2003-04-19T18:22:50Z</time>
      </trkpt>
      <trkpt lat="34.413561997935176" lon="-2.893836982548237">
        <ele>402</ele>
        <time>2003-04-19T18:22:53Z</time>
      </trkpt>
      <trkpt lat="34.41357197239995" lon="-2.893997998908162">
        <ele>402.19999999999999</ele>
        <time>2003-04-19T18:22:55Z</time>
      </trkpt>
      <trkpt lat="34.413589993491769" lon="-2.894239984452725">
        <ele>402.19999999999999</ele>
        <time>2003-04-19T18:22:59Z</time>
      </trkpt>
      <trkpt lat="34.413623018190265" lon="-2.894366970285773">
        <ele>402.5</ele>
        <time>2003-04-19T18:23:02Z</time>
      </trkpt>
      <trkpt lat="34.413672974333167" lon="-2.894497979432344">
        <ele>402.5</ele>
        <time>2003-04-19T18:23:06Z</time>
      </trkpt>
      <trkpt lat="34.413713039830327" lon="-2.894603004679084">
        <ele>403</ele>
        <time>2003-04-19T18:23:10Z</time>
      </trkpt>
      <trkpt lat="34.413757966831326" lon="-2.894732002168894">
        <ele>403.60000000000002</ele>
        <time>2003-04-19T18:23:14Z</time>
      </trkpt>
      <trkpt lat="34.413804989308119" lon="-2.894837027415633">
        <ele>409.30000000000001</ele>
        <time>2003-04-19T18:27:54Z</time>
      </trkpt>
      <trkpt lat="34.413817981258035" lon="-2.894948003813624">
        <ele>410.19999999999999</ele>
        <time>2003-04-19T18:28:22Z</time>
      </trkpt>
      <trkpt lat="34.41385000012815" lon="-2.895068032667041">
        <ele>409.80000000000001</ele>
        <time>2003-04-19T18:28:27Z</time>
      </trkpt>
      <trkpt lat="34.414027025923133" lon="-2.895643031224608">
        <ele>407.80000000000001</ele>
        <time>2003-04-19T18:28:46Z</time>
      </trkpt>
      <trkpt lat="34.414106989279389" lon="-2.895898008719087">
        <ele>407.5</ele>
        <time>2003-04-19T18:28:50Z</time>
      </trkpt>
      <trkpt lat="34.414481995627284" lon="-2.896938035264611">
        <ele>406.30000000000001</ele>
        <time>2003-04-19T18:29:09Z</time>
      </trkpt>
      <trkpt lat="34.414581991732121" lon="-2.897276999428868">
        <ele>405.60000000000002</ele>
        <time>2003-04-19T18:29:13Z</time>
      </trkpt>
      <trkpt lat="34.414648041129112" lon="-2.89749501273036">
        <ele>405.39999999999998</ele>
        <time>2003-04-19T18:29:16Z</time>
      </trkpt>
      <trkpt lat="34.414733033627272" lon="-2.897749990224838">
        <ele>405</ele>
        <time>2003-04-19T18:29:17Z</time>
      </trkpt>
      <trkpt lat="34.414948029443622" lon="-2.898309985175729">
        <ele>404.80000000000001</ele>
        <time>2003-04-19T18:29:21Z</time>
      </trkpt>
      <trkpt lat="34.415193032473326" lon="-2.898722039535642">
        <ele>405</ele>
        <time>2003-04-19T18:29:24Z</time>
      </trkpt>
      <trkpt lat="34.415399981662631" lon="-2.898947009816766">
        <ele>405.5</ele>
        <time>2003-04-19T18:29:27Z</time>
      </trkpt>
      <trkpt lat="34.415623024106026" lon="-2.899112971499562">
        <ele>406</ele>
        <time>2003-04-19T18:29:28Z</time>
      </trkpt>
      <trkpt lat="34.416270023211837" lon="-2.899552015587688">
        <ele>406.10000000000002</ele>
        <time>2003-04-19T18:29:35Z</time>
      </trkpt>
      <trkpt lat="34.417107962071896" lon="-2.900091977789998">
        <ele>406.39999999999998</ele>
        <time>2003-04-19T18:29:43Z</time>
      </trkpt>
      <trkpt lat="34.417971968650818" lon="-2.900664964690805">
        <ele>407</ele>
        <time>2003-04-19T18:29:54Z</time>
      </trkpt>
      <trkpt lat="34.418712006881833" lon="-2.901172991842032">
        <ele>403.60000000000002</ele>
        <time>2003-04-19T18:30:03Z</time>
      </trkpt>
      <trkpt lat="34.418852990493178" lon="-2.901327973231673">
        <ele>402.89999999999998</ele>
        <time>2003-04-19T18:30:05Z</time>
      </trkpt>
      <trkpt lat="34.418960027396679" lon="-2.90151203982532">
        <ele>402.5</ele>
        <time>2003-04-19T18:30:07Z</time>
      </trkpt>
      <trkpt lat="34.419039990752935" lon="-2.901725023984909">
        <ele>401.80000000000001</ele>
        <time>2003-04-19T18:30:09Z</time>
      </trkpt>
      <trkpt lat="34.419063040986657" lon="-2.901842035353184">
        <ele>401.39999999999998</ele>
        <time>2003-04-19T18:30:10Z</time>
      </trkpt>
      <trkpt lat="34.41906999796629" lon="-2.902115033939481">
        <ele>400.69999999999999</ele>
        <time>2003-04-19T18:30:11Z</time>
      </trkpt>
      <trkpt lat="34.419054994359612" lon="-2.902613002806902">
        <ele>399.69999999999999</ele>
        <time>2003-04-19T18:30:14Z</time>
      </trkpt>
      <trkpt lat="34.4190470315516" lon="-2.90340299718082">
        <ele>397.5</ele>
        <time>2003-04-19T18:30:18Z</time>
      </trkpt>
      <trkpt lat="34.419033033773303" lon="-2.904545031487942">
        <ele>395</ele>
        <time>2003-04-19T18:30:23Z</time>
      </trkpt>
      <trkpt lat="34.419002020731568" lon="-2.905711960047483">
        <ele>393.30000000000001</ele>
        <time>2003-04-19T18:30:29Z</time>
      </trkpt>
      <trkpt lat="34.418972013518214" lon="-2.906817030161619">
        <ele>389.89999999999998</ele>
        <time>2003-04-19T18:30:34Z</time>
      </trkpt>
      <trkpt lat="34.418936977162957" lon="-2.907942971214652">
        <ele>387</ele>
        <time>2003-04-19T18:30:38Z</time>
      </trkpt>
      <trkpt lat="34.418887021020055" lon="-2.909057009965181">
        <ele>384.89999999999998</ele>
        <time>2003-04-19T18:30:44Z</time>
      </trkpt>
      <trkpt lat="34.418789958581328" lon="-2.909681964665651">
        <ele>382.69999999999999</ele>
        <time>2003-04-19T18:30:46Z</time>
      </trkpt>
      <trkpt lat="34.418661966919899" lon="-2.910068035125732">
        <ele>380.69999999999999</ele>
        <time>2003-04-19T18:30:49Z</time>
      </trkpt>
      <trkpt lat="34.41840497776866" lon="-2.910617971792817">
        <ele>376.80000000000001</ele>
        <time>2003-04-19T18:30:52Z</time>
      </trkpt>
      <trkpt lat="34.417853029444814" lon="-2.911526989191771">
        <ele>374</ele>
        <time>2003-04-19T18:30:57Z</time>
      </trkpt>
      <trkpt lat="34.417323041707277" lon="-2.912425026297569">
        <ele>373.10000000000002</ele>
        <time>2003-04-19T18:31:01Z</time>
      </trkpt>
      <trkpt lat="34.417063035070896" lon="-2.913021985441446">
        <ele>370.89999999999998</ele>
        <time>2003-04-19T18:31:04Z</time>
      </trkpt>
      <trkpt lat="34.41666497848928" lon="-2.914052037522197">
        <ele>369.69999999999999</ele>
        <time>2003-04-19T18:31:09Z</time>
      </trkpt>
      <trkpt lat="34.416257031261921" lon="-2.915127016603947">
        <ele>369.60000000000002</ele>
        <time>2003-04-19T18:31:15Z</time>
      </trkpt>
      <trkpt lat="34.415855035185814" lon="-2.916182968765497">
        <ele>369.30000000000001</ele>
        <time>2003-04-19T18:31:20Z</time>
      </trkpt>
      <trkpt lat="34.415450021624565" lon="-2.917264988645911">
        <ele>369.80000000000001</ele>
        <time>2003-04-19T18:31:24Z</time>
      </trkpt>
      <trkpt lat="34.415042996406555" lon="-2.918341979384422">
        <ele>372.10000000000002</ele>
        <time>2003-04-19T18:31:30Z</time>
      </trkpt>
      <trkpt lat="34.414639994502068" lon="-2.919385023415089">
        <ele>374</ele>
        <time>2003-04-19T18:31:35Z</time>
      </trkpt>
      <trkpt lat="34.414230035617948" lon="-2.920452039688826">
        <ele>375.39999999999998</ele>
        <time>2003-04-19T18:31:39Z</time>
      </trkpt>
      <trkpt lat="34.413816975429654" lon="-2.921540010720491">
        <ele>377.30000000000001</ele>
        <time>2003-04-19T18:31:44Z</time>
      </trkpt>
      <trkpt lat="34.413339961320162" lon="-2.92265497148037">
        <ele>376.60000000000002</ele>
        <time>2003-04-19T18:31:50Z</time>
      </trkpt>
      <trkpt lat="34.412784995511174" lon="-2.923764986917377">
        <ele>376</ele>
        <time>2003-04-19T18:31:55Z</time>
      </trkpt>
      <trkpt lat="34.412257019430399" lon="-2.924809958785772">
        <ele>375.5</ele>
        <time>2003-04-19T18:31:59Z</time>
      </trkpt>
      <trkpt lat="34.411738011986017" lon="-2.925828024744988">
        <ele>373.19999999999999</ele>
        <time>2003-04-19T18:32:05Z</time>
      </trkpt>
      <trkpt lat="34.411210035905242" lon="-2.926872996613383">
        <ele>372.5</ele>
        <time>2003-04-19T18:32:10Z</time>
      </trkpt>
      <trkpt lat="34.410694967955351" lon="-2.927895002067089">
        <ele>370.60000000000002</ele>
        <time>2003-04-19T18:32:14Z</time>
      </trkpt>
      <trkpt lat="34.410185012966394" lon="-2.928896974772215">
        <ele>370.39999999999998</ele>
        <time>2003-04-19T18:32:20Z</time>
      </trkpt>
      <trkpt lat="34.409858034923673" lon="-2.92970197275281">
        <ele>370.60000000000002</ele>
        <time>2003-04-19T18:32:24Z</time>
      </trkpt>
      <trkpt lat="34.409777987748384" lon="-2.930149985477328">
        <ele>370.39999999999998</ele>
        <time>2003-04-19T18:32:25Z</time>
      </trkpt>
      <trkpt lat="34.409601967781782" lon="-2.93135697953403">
        <ele>369.39999999999998</ele>
        <time>2003-04-19T18:32:30Z</time>
      </trkpt>
      <trkpt lat="34.409407004714012" lon="-2.932634968310595">
        <ele>368.89999999999998</ele>
        <time>2003-04-19T18:32:36Z</time>
      </trkpt>
      <trkpt lat="34.409210029989481" lon="-2.933907005935907">
        <ele>367.10000000000002</ele>
        <time>2003-04-19T18:32:41Z</time>
      </trkpt>
      <trkpt lat="34.409027975052595" lon="-2.935105031356216">
        <ele>366.10000000000002</ele>
        <time>2003-04-19T18:32:45Z</time>
      </trkpt>
      <trkpt lat="34.408975001424551" lon="-2.936027962714434">
        <ele>368</ele>
        <time>2003-04-19T18:32:49Z</time>
      </trkpt>
      <trkpt lat="34.409023029729724" lon="-2.936747968196869">
        <ele>369.30000000000001</ele>
        <time>2003-04-19T18:32:52Z</time>
      </trkpt>
      <trkpt lat="34.409216986969113" lon="-2.937695039436221">
        <ele>371.60000000000002</ele>
        <time>2003-04-19T18:32:56Z</time>
      </trkpt>
      <trkpt lat="34.409571960568428" lon="-2.938753003254533">
        <ele>371.89999999999998</ele>
        <time>2003-04-19T18:33:03Z</time>
      </trkpt>
      <trkpt lat="34.409916959702969" lon="-2.939809961244464">
        <ele>370.10000000000002</ele>
        <time>2003-04-19T18:33:07Z</time>
      </trkpt>
      <trkpt lat="34.41026296466589" lon="-2.940843030810356">
        <ele>366.60000000000002</ele>
        <time>2003-04-19T18:33:12Z</time>
      </trkpt>
      <trkpt lat="34.410588014870882" lon="-2.941897977143526">
        <ele>368.5</ele>
        <time>2003-04-19T18:33:16Z</time>
      </trkpt>
      <trkpt lat="34.410715000703931" lon="-2.942762989550829">
        <ele>369.60000000000002</ele>
        <time>2003-04-19T18:33:20Z</time>
      </trkpt>
      <trkpt lat="34.410735033452511" lon="-2.943419963121414">
        <ele>371.19999999999999</ele>
        <time>2003-04-19T18:33:23Z</time>
      </trkpt>
      <trkpt lat="34.410650040954351" lon="-2.944072997197509">
        <ele>371.19999999999999</ele>
        <time>2003-04-19T18:33:27Z</time>
      </trkpt>
      <trkpt lat="34.410342006012797" lon="-2.945200027897954">
        <ele>368.80000000000001</ele>
        <time>2003-04-19T18:33:31Z</time>
      </trkpt>
      <trkpt lat="34.410031959414482" lon="-2.946292022243142">
        <ele>366.10000000000002</ele>
        <time>2003-04-19T18:33:38Z</time>
      </trkpt>
      <trkpt lat="34.409729959443212" lon="-2.947347974404693">
        <ele>365.30000000000001</ele>
        <time>2003-04-19T18:33:43Z</time>
      </trkpt>
      <trkpt lat="34.409407004714012" lon="-2.948486991226673">
        <ele>367.10000000000002</ele>
        <time>2003-04-19T18:33:49Z</time>
      </trkpt>
      <trkpt lat="34.409099975600839" lon="-2.949572028592229">
        <ele>368</ele>
        <time>2003-04-19T18:33:54Z</time>
      </trkpt>
      <trkpt lat="34.408872993662953" lon="-2.950350036844611">
        <ele>367.19999999999999</ele>
        <time>2003-04-19T18:33:59Z</time>
      </trkpt>
      <trkpt lat="34.408556995913386" lon="-2.951477989554405">
        <ele>366.80000000000001</ele>
        <time>2003-04-19T18:34:06Z</time>
      </trkpt>
      <trkpt lat="34.408441996201873" lon="-2.951902030035853">
        <ele>367.10000000000002</ele>
        <time>2003-04-19T18:34:10Z</time>
      </trkpt>
      <trkpt lat="34.408381981775165" lon="-2.9521119967103">
        <ele>367.19999999999999</ele>
        <time>2003-04-19T18:34:12Z</time>
      </trkpt>
      <trkpt lat="34.408306963741779" lon="-2.95239295810461">
        <ele>367.39999999999998</ele>
        <time>2003-04-19T18:34:14Z</time>
      </trkpt>
      <trkpt lat="34.408272011205554" lon="-2.952551962807775">
        <ele>367.5</ele>
        <time>2003-04-19T18:34:17Z</time>
      </trkpt>
      <trkpt lat="34.40826203674078" lon="-2.952681966125965">
        <ele>367.39999999999998</ele>
        <time>2003-04-19T18:34:21Z</time>
      </trkpt>
      <trkpt lat="34.408288020640612" lon="-2.952832002192736">
        <ele>367.60000000000002</ele>
        <time>2003-04-19T18:34:24Z</time>
      </trkpt>
      <trkpt lat="34.408347029238939" lon="-2.952974997460842">
        <ele>367.60000000000002</ele>
        <time>2003-04-19T18:34:25Z</time>
      </trkpt>
      <trkpt lat="34.408463034778833" lon="-2.953141964972019">
        <ele>367.5</ele>
        <time>2003-04-19T18:34:28Z</time>
      </trkpt>
      <trkpt lat="34.408545009791851" lon="-2.953220000490546">
        <ele>367.5</ele>
        <time>2003-04-19T18:34:29Z</time>
      </trkpt>
      <trkpt lat="34.408742990344763" lon="-2.95337799936533">
        <ele>367.30000000000001</ele>
        <time>2003-04-19T18:34:30Z</time>
      </trkpt>
      <trkpt lat="34.409090001136065" lon="-2.95365996658802">
        <ele>367.5</ele>
        <time>2003-04-19T18:34:33Z</time>
      </trkpt>
      <trkpt lat="34.409932969138026" lon="-2.954351976513863">
        <ele>367.89999999999998</ele>
        <time>2003-04-19T18:34:40Z</time>
      </trkpt>
      <trkpt lat="34.410826982930303" lon="-2.955087991431356">
        <ele>368.19999999999999</ele>
        <time>2003-04-19T18:34:47Z</time>
      </trkpt>
      <trkpt lat="34.411623012274504" lon="-2.955744965001941">
        <ele>368.19999999999999</ele>
        <time>2003-04-19T18:34:52Z</time>
      </trkpt>
      <trkpt lat="34.412505039945245" lon="-2.95647201128304">
        <ele>368.10000000000002</ele>
        <time>2003-04-19T18:34:56Z</time>
      </trkpt>
      <trkpt lat="34.413331998512149" lon="-2.957156980410218">
        <ele>368.10000000000002</ele>
        <time>2003-04-19T18:35:02Z</time>
      </trkpt>
      <trkpt lat="34.414182007312775" lon="-2.957849996164441">
        <ele>368.30000000000001</ele>
        <time>2003-04-19T18:35:07Z</time>
      </trkpt>
      <trkpt lat="34.415042996406555" lon="-2.95855700969696">
        <ele>368.80000000000001</ele>
        <time>2003-04-19T18:35:11Z</time>
      </trkpt>
      <trkpt lat="34.4158919993788" lon="-2.959259999915958">
        <ele>368.60000000000002</ele>
        <time>2003-04-19T18:35:16Z</time>
      </trkpt>
      <trkpt lat="34.416734967380762" lon="-2.9599520098418">
        <ele>368.5</ele>
        <time>2003-04-19T18:35:22Z</time>
      </trkpt>
      <trkpt lat="34.417614983394742" lon="-2.960676960647106">
        <ele>367.19999999999999</ele>
        <time>2003-04-19T18:35:27Z</time>
      </trkpt>
      <trkpt lat="34.418543027713895" lon="-2.961408030241728">
        <ele>366.10000000000002</ele>
        <time>2003-04-19T18:35:31Z</time>
      </trkpt>
      <trkpt lat="34.419526979327202" lon="-2.96203700825572">
        <ele>364.89999999999998</ele>
        <time>2003-04-19T18:35:37Z</time>
      </trkpt>
      <trkpt lat="34.420527024194598" lon="-2.962576970458031">
        <ele>363.80000000000001</ele>
        <time>2003-04-19T18:35:42Z</time>
      </trkpt>
      <trkpt lat="34.421475017443299" lon="-2.963081980124116">
        <ele>364.10000000000002</ele>
        <time>2003-04-19T18:35:46Z</time>
      </trkpt>
      <trkpt lat="34.422419993206859" lon="-2.963480036705732">
        <ele>366.39999999999998</ele>
        <time>2003-04-19T18:35:51Z</time>
      </trkpt>
      <trkpt lat="34.423003038391471" lon="-2.963587995618582">
        <ele>368.30000000000001</ele>
        <time>2003-04-19T18:35:54Z</time>
      </trkpt>
      <trkpt lat="34.423394976183772" lon="-2.963602999225259">
        <ele>369.5</ele>
        <time>2003-04-19T18:35:57Z</time>
      </trkpt>
      <trkpt lat="34.42437699995935" lon="-2.963496968150139">
        <ele>372.5</ele>
        <time>2003-04-19T18:36:01Z</time>
      </trkpt>
      <trkpt lat="34.425337985157967" lon="-2.963360007852316">
        <ele>374.89999999999998</ele>
        <time>2003-04-19T18:36:06Z</time>
      </trkpt>
      <trkpt lat="34.426242979243398" lon="-2.963222963735461">
        <ele>376.60000000000002</ele>
        <time>2003-04-19T18:36:12Z</time>
      </trkpt>
      <trkpt lat="34.427202036604285" lon="-2.963107964023948">
        <ele>377.30000000000001</ele>
        <time>2003-04-19T18:36:17Z</time>
      </trkpt>
      <trkpt lat="34.42800804041326" lon="-2.963092038407922">
        <ele>377.10000000000002</ele>
        <time>2003-04-19T18:36:21Z</time>
      </trkpt>
      <trkpt lat="34.429027028381824" lon="-2.96319798566401">
        <ele>376.30000000000001</ele>
        <time>2003-04-19T18:36:25Z</time>
      </trkpt>
      <trkpt lat="34.429992958903313" lon="-2.963362019509077">
        <ele>375.5</ele>
        <time>2003-04-19T18:36:31Z</time>
      </trkpt>
      <trkpt lat="34.430993003770709" lon="-2.963537033647299">
        <ele>375.19999999999999</ele>
        <time>2003-04-19T18:36:36Z</time>
      </trkpt>
      <trkpt lat="34.431977961212397" lon="-2.963708024471998">
        <ele>374.10000000000002</ele>
        <time>2003-04-19T18:36:40Z</time>
      </trkpt>
      <trkpt lat="34.432741971686482" lon="-2.963950010016561">
        <ele>371.5</ele>
        <time>2003-04-19T18:36:44Z</time>
      </trkpt>
      <trkpt lat="34.433291992172599" lon="-2.964243041351438">
        <ele>368.60000000000002</ele>
        <time>2003-04-19T18:36:48Z</time>
      </trkpt>
      <trkpt lat="34.434182988479733" lon="-2.964873025193811">
        <ele>362.39999999999998</ele>
        <time>2003-04-19T18:36:52Z</time>
      </trkpt>
      <trkpt lat="34.43509804084897" lon="-2.9654969740659">
        <ele>357.60000000000002</ele>
        <time>2003-04-19T18:36:58Z</time>
      </trkpt>
      <trkpt lat="34.436021978035569" lon="-2.966131987050176">
        <ele>355.19999999999999</ele>
        <time>2003-04-19T18:37:03Z</time>
      </trkpt>
      <trkpt lat="34.436705019325018" lon="-2.966717965900898">
        <ele>352</ele>
        <time>2003-04-19T18:37:07Z</time>
      </trkpt>
      <trkpt lat="34.437159989029169" lon="-2.967245019972324">
        <ele>348.60000000000002</ele>
        <time>2003-04-19T18:37:10Z</time>
      </trkpt>
      <trkpt lat="34.437546981498599" lon="-2.967829992994666">
        <ele>345.69999999999999</ele>
        <time>2003-04-19T18:37:12Z</time>
      </trkpt>
      <trkpt lat="34.437857028096914" lon="-2.968480009585619">
        <ele>343.69999999999999</ele>
        <time>2003-04-19T18:37:15Z</time>
      </trkpt>
      <trkpt lat="34.438088033348322" lon="-2.969177970662713">
        <ele>342.89999999999998</ele>
        <time>2003-04-19T18:37:19Z</time>
      </trkpt>
      <trkpt lat="34.438282996416092" lon="-2.970144990831614">
        <ele>342.60000000000002</ele>
        <time>2003-04-19T18:37:22Z</time>
      </trkpt>
      <trkpt lat="34.43845197558403" lon="-2.971396995708346">
        <ele>342.30000000000001</ele>
        <time>2003-04-19T18:37:27Z</time>
      </trkpt>
      <trkpt lat="34.438607962802052" lon="-2.97265000641346">
        <ele>342</ele>
        <time>2003-04-19T18:37:33Z</time>
      </trkpt>
      <trkpt lat="34.438765039667487" lon="-2.973863035440445">
        <ele>341.60000000000002</ele>
        <time>2003-04-19T18:37:38Z</time>
      </trkpt>
      <trkpt lat="34.438932007178664" lon="-2.975102970376611">
        <ele>341.10000000000002</ele>
        <time>2003-04-19T18:37:42Z</time>
      </trkpt>
      <trkpt lat="34.439122024923563" lon="-2.976378025487065">
        <ele>340.60000000000002</ele>
        <time>2003-04-19T18:37:48Z</time>
      </trkpt>
      <trkpt lat="34.439367027953267" lon="-2.977376980707049">
        <ele>340.89999999999998</ele>
        <time>2003-04-19T18:37:52Z</time>
      </trkpt>
      <trkpt lat="34.439770029857755" lon="-2.978241993114352">
        <ele>341.89999999999998</ele>
        <time>2003-04-19T18:37:56Z</time>
      </trkpt>
      <trkpt lat="34.440140007063746" lon="-2.978842975571752">
        <ele>342.5</ele>
        <time>2003-04-19T18:37:58Z</time>
      </trkpt>
      <trkpt lat="34.440587013959885" lon="-2.979361983016133">
        <ele>343.60000000000002</ele>
        <time>2003-04-19T18:38:01Z</time>
      </trkpt>
      <trkpt lat="34.441247005015612" lon="-2.97993496991694">
        <ele>345.60000000000002</ele>
        <time>2003-04-19T18:38:05Z</time>
      </trkpt>
      <trkpt lat="34.441976984962821" lon="-2.980350041761994">
        <ele>346.60000000000002</ele>
        <time>2003-04-19T18:38:09Z</time>
      </trkpt>
      <trkpt lat="34.442767985165119" lon="-2.980622034519911">
        <ele>346.30000000000001</ele>
        <time>2003-04-19T18:38:13Z</time>
      </trkpt>
      <trkpt lat="34.443797031417489" lon="-2.980917999520898">
        <ele>345.39999999999998</ele>
        <time>2003-04-19T18:38:19Z</time>
      </trkpt>
      <trkpt lat="34.444847032427788" lon="-2.981225028634071">
        <ele>345.10000000000002</ele>
        <time>2003-04-19T18:38:24Z</time>
      </trkpt>
      <trkpt lat="34.445861997082829" lon="-2.981534991413355">
        <ele>345.5</ele>
        <time>2003-04-19T18:38:28Z</time>
      </trkpt>
      <trkpt lat="34.446827005594969" lon="-2.981873033568263">
        <ele>346.69999999999999</ele>
        <time>2003-04-19T18:38:33Z</time>
      </trkpt>
      <trkpt lat="34.447742979973555" lon="-2.982333032414317">
        <ele>348.30000000000001</ele>
        <time>2003-04-19T18:38:39Z</time>
      </trkpt>
      <trkpt lat="34.448647974058986" lon="-2.982911970466375">
        <ele>349.5</ele>
        <time>2003-04-19T18:38:43Z</time>
      </trkpt>
      <trkpt lat="34.449569983407855" lon="-2.983525022864342">
        <ele>350.39999999999998</ele>
        <time>2003-04-19T18:38:48Z</time>
      </trkpt>
      <trkpt lat="34.450510013848543" lon="-2.984143020585179">
        <ele>352.19999999999999</ele>
        <time>2003-04-19T18:38:54Z</time>
      </trkpt>
      <trkpt lat="34.451417019590735" lon="-2.984737968072295">
        <ele>356.69999999999999</ele>
        <time>2003-04-19T18:38:59Z</time>
      </trkpt>
      <trkpt lat="34.452325031161308" lon="-2.985233003273606">
        <ele>359.39999999999998</ele>
        <time>2003-04-19T18:39:03Z</time>
      </trkpt>
      <trkpt lat="34.453298002481461" lon="-2.985623013228178">
        <ele>359</ele>
        <time>2003-04-19T18:39:09Z</time>
      </trkpt>
      <trkpt lat="34.454338029026985" lon="-2.985913027077913">
        <ele>356</ele>
        <time>2003-04-19T18:39:14Z</time>
      </trkpt>
      <trkpt lat="34.455460030585527" lon="-2.986083012074232">
        <ele>351.89999999999998</ele>
        <time>2003-04-19T18:39:18Z</time>
      </trkpt>
      <trkpt lat="34.456402994692326" lon="-2.986194994300604">
        <ele>348.80000000000001</ele>
        <time>2003-04-19T18:39:22Z</time>
      </trkpt>
      <trkpt lat="34.457347970455885" lon="-2.986303037032485">
        <ele>345.5</ele>
        <time>2003-04-19T18:39:26Z</time>
      </trkpt>
      <trkpt lat="34.45828003808856" lon="-2.986417030915618">
        <ele>342.30000000000001</ele>
        <time>2003-04-19T18:39:30Z</time>
      </trkpt>
      <trkpt lat="34.459198024123907" lon="-2.986521972343326">
        <ele>338.19999999999999</ele>
        <time>2003-04-19T18:39:34Z</time>
      </trkpt>
      <trkpt lat="34.460273003205657" lon="-2.986645018681884">
        <ele>333.30000000000001</ele>
        <time>2003-04-19T18:39:40Z</time>
      </trkpt>
      <trkpt lat="34.461315041407943" lon="-2.986760018393397">
        <ele>330.89999999999998</ele>
        <time>2003-04-19T18:39:45Z</time>
      </trkpt>
      <trkpt lat="34.462348027154803" lon="-2.986881975084543">
        <ele>330.30000000000001</ele>
        <time>2003-04-19T18:39:49Z</time>
      </trkpt>
      <trkpt lat="34.463361985981464" lon="-2.986996974796057">
        <ele>329.10000000000002</ele>
        <time>2003-04-19T18:39:54Z</time>
      </trkpt>
      <trkpt lat="34.464364964514971" lon="-2.987114991992712">
        <ele>328.39999999999998</ele>
        <time>2003-04-19T18:40:00Z</time>
      </trkpt>
      <trkpt lat="34.465367021039128" lon="-2.987233009189367">
        <ele>327.89999999999998</ele>
        <time>2003-04-19T18:40:04Z</time>
      </trkpt>
      <trkpt lat="34.466313002631068" lon="-2.987329987809062">
        <ele>328.39999999999998</ele>
        <time>2003-04-19T18:40:09Z</time>
      </trkpt>
      <trkpt lat="34.467252027243376" lon="-2.987446999177337">
        <ele>327.69999999999999</ele>
        <time>2003-04-19T18:40:15Z</time>
      </trkpt>
      <trkpt lat="34.467840017750859" lon="-2.987472983077169">
        <ele>326.80000000000001</ele>
        <time>2003-04-19T18:40:17Z</time>
      </trkpt>
      <trkpt lat="34.468860011547804" lon="-2.98741196282208">
        <ele>324</ele>
        <time>2003-04-19T18:40:23Z</time>
      </trkpt>
      <trkpt lat="34.469871958717704" lon="-2.987337028607726">
        <ele>323.60000000000002</ele>
        <time>2003-04-19T18:40:28Z</time>
      </trkpt>
      <trkpt lat="34.470682991668582" lon="-2.987311966717243">
        <ele>323.30000000000001</ele>
        <time>2003-04-19T18:40:31Z</time>
      </trkpt>
      <trkpt lat="34.471710026264191" lon="-2.987395031377673">
        <ele>322.60000000000002</ele>
        <time>2003-04-19T18:40:36Z</time>
      </trkpt>
      <trkpt lat="34.472737982869148" lon="-2.987580019980669">
        <ele>322.39999999999998</ele>
        <time>2003-04-19T18:40:42Z</time>
      </trkpt>
      <trkpt lat="34.473756970837712" lon="-2.987837009131908">
        <ele>322.10000000000002</ele>
        <time>2003-04-19T18:40:47Z</time>
      </trkpt>
      <trkpt lat="34.474743017926812" lon="-2.988219978287816">
        <ele>321.60000000000002</ele>
        <time>2003-04-19T18:40:51Z</time>
      </trkpt>
      <trkpt lat="34.475712971761823" lon="-2.988694980740547">
        <ele>320.5</ele>
        <time>2003-04-19T18:40:57Z</time>
      </trkpt>
      <trkpt lat="34.476700024679303" lon="-2.989169983193278">
        <ele>318.69999999999999</ele>
        <time>2003-04-19T18:41:02Z</time>
      </trkpt>
      <trkpt lat="34.477697974070907" lon="-2.989662000909448">
        <ele>318.69999999999999</ele>
        <time>2003-04-19T18:41:06Z</time>
      </trkpt>
      <trkpt lat="34.478695001453161" lon="-2.990143038332462">
        <ele>320.10000000000002</ele>
        <time>2003-04-19T18:41:11Z</time>
      </trkpt>
      <trkpt lat="34.479688005521894" lon="-2.990615023300052">
        <ele>319.80000000000001</ele>
        <time>2003-04-19T18:41:17Z</time>
      </trkpt>
      <trkpt lat="34.480701964348555" lon="-2.991039985790849">
        <ele>320.19999999999999</ele>
        <time>2003-04-19T18:41:22Z</time>
      </trkpt>
      <trkpt lat="34.481712989509106" lon="-2.991475006565452">
        <ele>320.39999999999998</ele>
        <time>2003-04-19T18:41:26Z</time>
      </trkpt>
      <trkpt lat="34.48273197747767" lon="-2.991904998198152">
        <ele>320.39999999999998</ele>
        <time>2003-04-19T18:41:32Z</time>
      </trkpt>
      <trkpt lat="34.483687011525035" lon="-2.992292996495962">
        <ele>320.39999999999998</ele>
        <time>2003-04-19T18:41:37Z</time>
      </trkpt>
      <trkpt lat="34.484614972025156" lon="-2.992679988965392">
        <ele>321</ele>
        <time>2003-04-19T18:41:41Z</time>
      </trkpt>
      <trkpt lat="34.485549973323941" lon="-2.993062036111951">
        <ele>322.89999999999998</ele>
        <time>2003-04-19T18:41:47Z</time>
      </trkpt>
      <trkpt lat="34.486472988501191" lon="-2.993436958640814">
        <ele>325.5</ele>
        <time>2003-04-19T18:41:52Z</time>
      </trkpt>
      <trkpt lat="34.48739499785006" lon="-2.993778018280864">
        <ele>328.5</ele>
        <time>2003-04-19T18:41:56Z</time>
      </trkpt>
      <trkpt lat="34.488342991098762" lon="-2.994040036574006">
        <ele>329.30000000000001</ele>
        <time>2003-04-19T18:42:01Z</time>
      </trkpt>
      <trkpt lat="34.489137008786201" lon="-2.99415503628552">
        <ele>327.19999999999999</ele>
        <time>2003-04-19T18:42:05Z</time>
      </trkpt>
      <trkpt lat="34.490184998139739" lon="-2.99422200769186">
        <ele>323.80000000000001</ele>
        <time>2003-04-19T18:42:11Z</time>
      </trkpt>
      <trkpt lat="34.491199962794781" lon="-2.994268024340272">
        <ele>321.89999999999998</ele>
        <time>2003-04-19T18:42:16Z</time>
      </trkpt>
      <trkpt lat="34.492236971855164" lon="-2.994299959391356">
        <ele>323.19999999999999</ele>
        <time>2003-04-19T18:42:20Z</time>
      </trkpt>
      <trkpt lat="34.493274986743927" lon="-2.994334995746613">
        <ele>323.39999999999998</ele>
        <time>2003-04-19T18:42:26Z</time>
      </trkpt>
      <trkpt lat="34.494321970269084" lon="-2.994412025436759">
        <ele>320.60000000000002</ele>
        <time>2003-04-19T18:42:31Z</time>
      </trkpt>
      <trkpt lat="34.495147000998259" lon="-2.994615035131574">
        <ele>313.10000000000002</ele>
        <time>2003-04-19T18:42:35Z</time>
      </trkpt>
      <trkpt lat="34.49603296816349" lon="-2.99490999430418">
        <ele>308.69999999999999</ele>
        <time>2003-04-19T18:42:39Z</time>
      </trkpt>
      <trkpt lat="34.496875014156103" lon="-2.995326993986964">
        <ele>307.69999999999999</ele>
        <time>2003-04-19T18:42:43Z</time>
      </trkpt>
      <trkpt lat="34.497429979965091" lon="-2.995760003104806">
        <ele>306.30000000000001</ele>
        <time>2003-04-19T18:42:46Z</time>
      </trkpt>
      <trkpt lat="34.498087959364057" lon="-2.996476991102099">
        <ele>304.80000000000001</ele>
        <time>2003-04-19T18:42:50Z</time>
      </trkpt>
      <trkpt lat="34.498812993988395" lon="-2.997394977137446">
        <ele>302.60000000000002</ele>
        <time>2003-04-19T18:42:54Z</time>
      </trkpt>
      <trkpt lat="34.499542973935604" lon="-2.998297037556768">
        <ele>299.39999999999998</ele>
        <time>2003-04-19T18:42:59Z</time>
      </trkpt>
      <trkpt lat="34.500272031873465" lon="-2.999215023592114">
        <ele>297</ele>
        <time>2003-04-19T18:43:05Z</time>
      </trkpt>
      <trkpt lat="34.501011986285448" lon="-3.000138038769364">
        <ele>295.80000000000001</ele>
        <time>2003-04-19T18:43:10Z</time>
      </trkpt>
      <trkpt lat="34.501757975667715" lon="-3.001070022583008">
        <ele>295</ele>
        <time>2003-04-19T18:43:14Z</time>
      </trkpt>
      <trkpt lat="34.502513017505407" lon="-3.001993037760258">
        <ele>294.39999999999998</ele>
        <time>2003-04-19T18:43:20Z</time>
      </trkpt>
      <trkpt lat="34.50322799384594" lon="-3.002876993268728">
        <ele>294</ele>
        <time>2003-04-19T18:43:25Z</time>
      </trkpt>
      <trkpt lat="34.503932995721698" lon="-3.00376002676785">
        <ele>294.19999999999999</ele>
        <time>2003-04-19T18:43:29Z</time>
      </trkpt>
      <trkpt lat="34.504642020910978" lon="-3.004652028903365">
        <ele>293.10000000000002</ele>
        <time>2003-04-19T18:43:35Z</time>
      </trkpt>
      <trkpt lat="34.505366971716285" lon="-3.005561968311667">
        <ele>291.5</ele>
        <time>2003-04-19T18:43:40Z</time>
      </trkpt>
      <trkpt lat="34.506087983027101" lon="-3.006462017074227">
        <ele>290.69999999999999</ele>
        <time>2003-04-19T18:43:44Z</time>
      </trkpt>
      <trkpt lat="34.506817040964961" lon="-3.007364999502897">
        <ele>290.19999999999999</ele>
        <time>2003-04-19T18:43:49Z</time>
      </trkpt>
      <trkpt lat="34.507550038397312" lon="-3.008267981931567">
        <ele>289.60000000000002</ele>
        <time>2003-04-19T18:43:55Z</time>
      </trkpt>
      <trkpt lat="34.508282030001283" lon="-3.009192002937198">
        <ele>288.39999999999998</ele>
        <time>2003-04-19T18:44:00Z</time>
      </trkpt>
      <trkpt lat="34.50900798663497" lon="-3.010107977315784">
        <ele>286.10000000000002</ele>
        <time>2003-04-19T18:44:06Z</time>
      </trkpt>
      <trkpt lat="34.509730003774166" lon="-3.011072985827923">
        <ele>284.5</ele>
        <time>2003-04-19T18:44:11Z</time>
      </trkpt>
      <trkpt lat="34.510097969323397" lon="-3.011737000197172">
        <ele>284</ele>
        <time>2003-04-19T18:44:14Z</time>
      </trkpt>
      <trkpt lat="34.510283041745424" lon="-3.012222982943058">
        <ele>283.19999999999999</ele>
        <time>2003-04-19T18:44:15Z</time>
      </trkpt>
      <trkpt lat="34.510474987328053" lon="-3.012992022559047">
        <ele>281.80000000000001</ele>
        <time>2003-04-19T18:44:19Z</time>
      </trkpt>
      <trkpt lat="34.51074798591435" lon="-3.014209996908903">
        <ele>280.30000000000001</ele>
        <time>2003-04-19T18:44:23Z</time>
      </trkpt>
      <trkpt lat="34.511059960350394" lon="-3.0153429787606">
        <ele>280.60000000000002</ele>
        <time>2003-04-19T18:44:29Z</time>
      </trkpt>
      <trkpt lat="34.51154300943017" lon="-3.016389962285757">
        <ele>280.60000000000002</ele>
        <time>2003-04-19T18:44:34Z</time>
      </trkpt>
      <trkpt lat="34.512097975239158" lon="-3.017405010759831">
        <ele>280.19999999999999</ele>
        <time>2003-04-19T18:44:38Z</time>
      </trkpt>
      <trkpt lat="34.512747991830111" lon="-3.018338000401855">
        <ele>279.69999999999999</ele>
        <time>2003-04-19T18:44:43Z</time>
      </trkpt>
      <trkpt lat="34.513483000919223" lon="-3.019139980897307">
        <ele>279.39999999999998</ele>
        <time>2003-04-19T18:44:49Z</time>
      </trkpt>
      <trkpt lat="34.514297973364592" lon="-3.01983199082315">
        <ele>278.89999999999998</ele>
        <time>2003-04-19T18:44:54Z</time>
      </trkpt>
      <trkpt lat="34.515162985771894" lon="-3.020404977723956">
        <ele>278.60000000000002</ele>
        <time>2003-04-19T18:44:58Z</time>
      </trkpt>
      <trkpt lat="34.515890032052994" lon="-3.020727010443807">
        <ele>278.19999999999999</ele>
        <time>2003-04-19T18:45:02Z</time>
      </trkpt>
      <trkpt lat="34.516817992553115" lon="-3.021052982658148">
        <ele>277.60000000000002</ele>
        <time>2003-04-19T18:45:08Z</time>
      </trkpt>
      <trkpt lat="34.517772020772099" lon="-3.021299997344613">
        <ele>277.30000000000001</ele>
        <time>2003-04-19T18:45:13Z</time>
      </trkpt>
      <trkpt lat="34.518714984878898" lon="-3.021552041172981">
        <ele>277.30000000000001</ele>
        <time>2003-04-19T18:45:17Z</time>
      </trkpt>
      <trkpt lat="34.519636994227767" lon="-3.021905003115535">
        <ele>276.30000000000001</ele>
        <time>2003-04-19T18:45:23Z</time>
      </trkpt>
      <trkpt lat="34.520603008568287" lon="-3.022362990304828">
        <ele>275.5</ele>
        <time>2003-04-19T18:45:28Z</time>
      </trkpt>
      <trkpt lat="34.521591989323497" lon="-3.022855008020997">
        <ele>274.60000000000002</ele>
        <time>2003-04-19T18:45:32Z</time>
      </trkpt>
      <trkpt lat="34.52258700504899" lon="-3.023347025737166">
        <ele>273.69999999999999</ele>
        <time>2003-04-19T18:45:37Z</time>
      </trkpt>
      <trkpt lat="34.523583026602864" lon="-3.023856980726123">
        <ele>272.60000000000002</ele>
        <time>2003-04-19T18:45:43Z</time>
      </trkpt>
      <trkpt lat="34.524588016793132" lon="-3.024355033412576">
        <ele>272</ele>
        <time>2003-04-19T18:45:48Z</time>
      </trkpt>
      <trkpt lat="34.525583032518625" lon="-3.024851996451616">
        <ele>272.30000000000001</ele>
        <time>2003-04-19T18:45:52Z</time>
      </trkpt>
      <trkpt lat="34.526554998010397" lon="-3.025342002511025">
        <ele>271.69999999999999</ele>
        <time>2003-04-19T18:45:58Z</time>
      </trkpt>
      <trkpt lat="34.527522018179297" lon="-3.025829996913672">
        <ele>271.5</ele>
        <time>2003-04-19T18:46:03Z</time>
      </trkpt>
      <trkpt lat="34.528491972014308" lon="-3.026329977437854">
        <ele>270.69999999999999</ele>
        <time>2003-04-19T18:46:07Z</time>
      </trkpt>
      <trkpt lat="34.529480030760169" lon="-3.026817971840501">
        <ele>270.19999999999999</ele>
        <time>2003-04-19T18:46:12Z</time>
      </trkpt>
      <trkpt lat="34.530498012900352" lon="-3.027321975678206">
        <ele>269.5</ele>
        <time>2003-04-19T18:46:18Z</time>
      </trkpt>
      <trkpt lat="34.531526975333691" lon="-3.027848023921251">
        <ele>269.30000000000001</ele>
        <time>2003-04-19T18:46:22Z</time>
      </trkpt>
      <trkpt lat="34.532531965523958" lon="-3.028356973081827">
        <ele>268.19999999999999</ele>
        <time>2003-04-19T18:46:27Z</time>
      </trkpt>
      <trkpt lat="34.53354500234127" lon="-3.028872041031718">
        <ele>266.60000000000002</ele>
        <time>2003-04-19T18:46:33Z</time>
      </trkpt>
      <trkpt lat="34.534577988088131" lon="-3.029387025162578">
        <ele>266.10000000000002</ele>
        <time>2003-04-19T18:46:38Z</time>
      </trkpt>
      <trkpt lat="34.535614997148514" lon="-3.02990997210145">
        <ele>265.80000000000001</ele>
        <time>2003-04-19T18:46:42Z</time>
      </trkpt>
      <trkpt lat="34.536655023694038" lon="-3.030427973717451">
        <ele>265.89999999999998</ele>
        <time>2003-04-19T18:46:48Z</time>
      </trkpt>
      <trkpt lat="34.537663031369448" lon="-3.030842039734125">
        <ele>265</ele>
        <time>2003-04-19T18:46:53Z</time>
      </trkpt>
      <trkpt lat="34.538267031311989" lon="-3.0309400241822">
        <ele>264.69999999999999</ele>
        <time>2003-04-19T18:46:56Z</time>
      </trkpt>
      <trkpt lat="34.538672966882586" lon="-3.030949998646975">
        <ele>264.5</ele>
        <time>2003-04-19T18:46:57Z</time>
      </trkpt>
      <trkpt lat="34.539692960679531" lon="-3.030852014198899">
        <ele>263.39999999999998</ele>
        <time>2003-04-19T18:47:02Z</time>
      </trkpt>
      <trkpt lat="34.540467029437423" lon="-3.030708013102412">
        <ele>263</ele>
        <time>2003-04-19T18:47:06Z</time>
      </trkpt>
      <trkpt lat="34.540813034400344" lon="-3.030538028106093">
        <ele>262.69999999999999</ele>
        <time>2003-04-19T18:47:09Z</time>
      </trkpt>
      <trkpt lat="34.541624989360571" lon="-3.030024971812964">
        <ele>259.89999999999998</ele>
        <time>2003-04-19T18:47:13Z</time>
      </trkpt>
      <trkpt lat="34.542235024273396" lon="-3.029455002397299">
        <ele>256.60000000000002</ele>
        <time>2003-04-19T18:47:17Z</time>
      </trkpt>
      <trkpt lat="34.542797030881047" lon="-3.028752012178302">
        <ele>254.80000000000001</ele>
        <time>2003-04-19T18:47:21Z</time>
      </trkpt>
      <trkpt lat="34.543394995853305" lon="-3.027735035866499">
        <ele>252.09999999999999</ele>
        <time>2003-04-19T18:47:27Z</time>
      </trkpt>
      <trkpt lat="34.543643016368151" lon="-3.027088036760688">
        <ele>250.59999999999999</ele>
        <time>2003-04-19T18:47:29Z</time>
      </trkpt>
      <trkpt lat="34.543866980820894" lon="-3.026184970512986">
        <ele>249.19999999999999</ele>
        <time>2003-04-19T18:47:33Z</time>
      </trkpt>
      <trkpt lat="34.544032020494342" lon="-3.025027010589838">
        <ele>248.69999999999999</ele>
        <time>2003-04-19T18:47:39Z</time>
      </trkpt>
      <trkpt lat="34.544188007712364" lon="-3.023859998211265">
        <ele>249.19999999999999</ele>
        <time>2003-04-19T18:47:43Z</time>
      </trkpt>
      <trkpt lat="34.544341983273625" lon="-3.022758029401302">
        <ele>250.69999999999999</ele>
        <time>2003-04-19T18:47:48Z</time>
      </trkpt>
      <trkpt lat="34.544541975483298" lon="-3.021935010328889">
        <ele>252.59999999999999</ele>
        <time>2003-04-19T18:47:52Z</time>
      </trkpt>
      <trkpt lat="34.544767029583454" lon="-3.021363029256463">
        <ele>254.5</ele>
        <time>2003-04-19T18:47:55Z</time>
      </trkpt>
      <trkpt lat="34.545242032036185" lon="-3.020482007414103">
        <ele>257.80000000000001</ele>
        <time>2003-04-19T18:48:00Z</time>
      </trkpt>
      <trkpt lat="34.545742012560368" lon="-3.019856968894601">
        <ele>260.19999999999999</ele>
        <time>2003-04-19T18:48:05Z</time>
      </trkpt>
      <trkpt lat="34.546196982264519" lon="-3.019463019445539">
        <ele>260.89999999999998</ele>
        <time>2003-04-19T18:48:07Z</time>
      </trkpt>
      <trkpt lat="34.546705009415746" lon="-3.019130006432533">
        <ele>261.10000000000002</ele>
        <time>2003-04-19T18:48:10Z</time>
      </trkpt>
      <trkpt lat="34.547627018764615" lon="-3.018755000084639">
        <ele>261.39999999999998</ele>
        <time>2003-04-19T18:48:15Z</time>
      </trkpt>
      <trkpt lat="34.548407038673759" lon="-3.018591972067952">
        <ele>260.69999999999999</ele>
        <time>2003-04-19T18:48:19Z</time>
      </trkpt>
      <trkpt lat="34.548812974244356" lon="-3.018591972067952">
        <ele>260.39999999999998</ele>
        <time>2003-04-19T18:48:22Z</time>
      </trkpt>
      <trkpt lat="34.549204995855689" lon="-3.018673025071621">
        <ele>260.19999999999999</ele>
        <time>2003-04-19T18:48:23Z</time>
      </trkpt>
      <trkpt lat="34.550100015476346" lon="-3.019030010327697">
        <ele>259.80000000000001</ele>
        <time>2003-04-19T18:48:29Z</time>
      </trkpt>
      <trkpt lat="34.550794959068298" lon="-3.01942303776741">
        <ele>259</ele>
        <time>2003-04-19T18:48:33Z</time>
      </trkpt>
      <trkpt lat="34.551643040031195" lon="-3.020037012174726">
        <ele>256.19999999999999</ele>
        <time>2003-04-19T18:48:37Z</time>
      </trkpt>
      <trkpt lat="34.552430016919971" lon="-3.020698009058833">
        <ele>253.09999999999999</ele>
        <time>2003-04-19T18:48:42Z</time>
      </trkpt>
      <trkpt lat="34.552692035213113" lon="-3.0210330337286">
        <ele>252.30000000000001</ele>
        <time>2003-04-19T18:48:45Z</time>
      </trkpt>
      <trkpt lat="34.553132001310587" lon="-3.021763013675809">
        <ele>251.30000000000001</ele>
        <time>2003-04-19T18:48:49Z</time>
      </trkpt>
      <trkpt lat="34.553274996578693" lon="-3.022171966731548">
        <ele>250.80000000000001</ele>
        <time>2003-04-19T18:48:50Z</time>
      </trkpt>
      <trkpt lat="34.553627958521247" lon="-3.023272007703781">
        <ele>249.69999999999999</ele>
        <time>2003-04-19T18:48:56Z</time>
      </trkpt>
      <trkpt lat="34.553989972919226" lon="-3.024446982890368">
        <ele>249</ele>
        <time>2003-04-19T18:49:01Z</time>
      </trkpt>
      <trkpt lat="34.55434201285243" lon="-3.025400005280972">
        <ele>248.90000000000001</ele>
        <time>2003-04-19T18:49:04Z</time>
      </trkpt>
      <trkpt lat="34.554712995886803" lon="-3.02604298107326">
        <ele>250.40000000000001</ele>
        <time>2003-04-19T18:49:08Z</time>
      </trkpt>
      <trkpt lat="34.555280031636357" lon="-3.026746977120638">
        <ele>252.59999999999999</ele>
        <time>2003-04-19T18:49:12Z</time>
      </trkpt>
      <trkpt lat="34.555906997993588" lon="-3.027300015091896">
        <ele>254.5</ele>
        <time>2003-04-19T18:49:16Z</time>
      </trkpt>
      <trkpt lat="34.556428017094731" lon="-3.027602015063167">
        <ele>255.90000000000001</ele>
        <time>2003-04-19T18:49:19Z</time>
      </trkpt>
      <trkpt lat="34.557266961783171" lon="-3.02806000225246">
        <ele>256.5</ele>
        <time>2003-04-19T18:49:24Z</time>
      </trkpt>
      <trkpt lat="34.558167010545731" lon="-3.028508014976978">
        <ele>252.5</ele>
        <time>2003-04-19T18:49:28Z</time>
      </trkpt>
      <trkpt lat="34.559120032936335" lon="-3.028977988287807">
        <ele>246.30000000000001</ele>
        <time>2003-04-19T18:49:34Z</time>
      </trkpt>
      <trkpt lat="34.560065008699894" lon="-3.029445027932525">
        <ele>239.30000000000001</ele>
        <time>2003-04-19T18:49:39Z</time>
      </trkpt>
      <trkpt lat="34.561042003333569" lon="-3.029936961829662">
        <ele>233.30000000000001</ele>
        <time>2003-04-19T18:49:43Z</time>
      </trkpt>
      <trkpt lat="34.562047999352217" lon="-3.030441971495748">
        <ele>234.30000000000001</ele>
        <time>2003-04-19T18:49:48Z</time>
      </trkpt>
      <trkpt lat="34.563045026734471" lon="-3.030943041667342">
        <ele>237.59999999999999</ele>
        <time>2003-04-19T18:49:54Z</time>
      </trkpt>
      <trkpt lat="34.564014980569482" lon="-3.031425001099706">
        <ele>242</ele>
        <time>2003-04-19T18:49:58Z</time>
      </trkpt>
      <trkpt lat="34.564962973818183" lon="-3.031911989673972">
        <ele>247.19999999999999</ele>
        <time>2003-04-19T18:50:03Z</time>
      </trkpt>
      <trkpt lat="34.565880037844181" lon="-3.03237802349031">
        <ele>253.90000000000001</ele>
        <time>2003-04-19T18:50:09Z</time>
      </trkpt>
      <trkpt lat="34.566727029159665" lon="-3.032812038436532">
        <ele>260</ele>
        <time>2003-04-19T18:50:14Z</time>
      </trkpt>
      <trkpt lat="34.567572008818388" lon="-3.033237000927329">
        <ele>263.39999999999998</ele>
        <time>2003-04-19T18:50:18Z</time>
      </trkpt>
      <trkpt lat="34.568453030660748" lon="-3.033685013651848">
        <ele>265.39999999999998</ele>
        <time>2003-04-19T18:50:24Z</time>
      </trkpt>
      <trkpt lat="34.569392977282405" lon="-3.034090027213097">
        <ele>266.89999999999998</ele>
        <time>2003-04-19T18:50:29Z</time>
      </trkpt>
      <trkpt lat="34.570166962221265" lon="-3.034297982230783">
        <ele>266.80000000000001</ele>
        <time>2003-04-19T18:50:33Z</time>
      </trkpt>
      <trkpt lat="34.570525037124753" lon="-3.034320026636124">
        <ele>266.60000000000002</ele>
        <time>2003-04-19T18:50:34Z</time>
      </trkpt>
      <trkpt lat="34.570861989632249" lon="-3.034237967804074">
        <ele>266.19999999999999</ele>
        <time>2003-04-19T18:50:37Z</time>
      </trkpt>
      <trkpt lat="34.571713004261255" lon="-3.033872013911605">
        <ele>264.80000000000001</ele>
        <time>2003-04-19T18:50:41Z</time>
      </trkpt>
      <trkpt lat="34.572599977254868" lon="-3.033330040052533">
        <ele>263.19999999999999</ele>
        <time>2003-04-19T18:50:47Z</time>
      </trkpt>
      <trkpt lat="34.573531961068511" lon="-3.032759986817837">
        <ele>261.30000000000001</ele>
        <time>2003-04-19T18:50:52Z</time>
      </trkpt>
      <trkpt lat="34.574495041742921" lon="-3.032173002138734">
        <ele>259.89999999999998</ele>
        <time>2003-04-19T18:50:56Z</time>
      </trkpt>
      <trkpt lat="34.575479999184608" lon="-3.03160697221756">
        <ele>259.10000000000002</ele>
        <time>2003-04-19T18:51:01Z</time>
      </trkpt>
      <trkpt lat="34.576305029913783" lon="-3.031267002224922">
        <ele>259.19999999999999</ele>
        <time>2003-04-19T18:51:05Z</time>
      </trkpt>
      <trkpt lat="34.577387971803546" lon="-3.031057035550475">
        <ele>259.60000000000002</ele>
        <time>2003-04-19T18:51:11Z</time>
      </trkpt>
      <trkpt lat="34.578466974198818" lon="-3.030856959521771">
        <ele>259.69999999999999</ele>
        <time>2003-04-19T18:51:16Z</time>
      </trkpt>
      <trkpt lat="34.579537007957697" lon="-3.030661996454001">
        <ele>259.69999999999999</ele>
        <time>2003-04-19T18:51:20Z</time>
      </trkpt>
      <trkpt lat="34.580592038109899" lon="-3.030467033386231">
        <ele>259.60000000000002</ele>
        <time>2003-04-19T18:51:26Z</time>
      </trkpt>
      <trkpt lat="34.58165000192821" lon="-3.030272992327809">
        <ele>258.60000000000002</ele>
        <time>2003-04-19T18:51:31Z</time>
      </trkpt>
      <trkpt lat="34.582692962139845" lon="-3.030093032866716">
        <ele>258.10000000000002</ele>
        <time>2003-04-19T18:51:35Z</time>
      </trkpt>
      <trkpt lat="34.583704993128777" lon="-3.029996976256371">
        <ele>258.10000000000002</ele>
        <time>2003-04-19T18:51:41Z</time>
      </trkpt>
      <trkpt lat="34.58472297526896" lon="-3.029988007619977">
        <ele>257.69999999999999</ele>
        <time>2003-04-19T18:51:46Z</time>
      </trkpt>
      <trkpt lat="34.585765013471246" lon="-3.02995297126472">
        <ele>258.10000000000002</ele>
        <time>2003-04-19T18:51:50Z</time>
      </trkpt>
      <trkpt lat="34.58682800643146" lon="-3.029945008456707">
        <ele>258.69999999999999</ele>
        <time>2003-04-19T18:51:55Z</time>
      </trkpt>
      <trkpt lat="34.587914971634746" lon="-3.029921958222985">
        <ele>259.5</ele>
        <time>2003-04-19T18:52:01Z</time>
      </trkpt>
      <trkpt lat="34.589028004556894" lon="-3.02988700568676">
        <ele>260.5</ele>
        <time>2003-04-19T18:52:06Z</time>
      </trkpt>
      <trkpt lat="34.589931992813945" lon="-3.029877031221986">
        <ele>261.39999999999998</ele>
        <time>2003-04-19T18:52:10Z</time>
      </trkpt>
      <trkpt lat="34.590832963585854" lon="-3.029863033443689">
        <ele>262.60000000000002</ele>
        <time>2003-04-19T18:52:13Z</time>
      </trkpt>
      <trkpt lat="34.591744998469949" lon="-3.029839983209968">
        <ele>263.30000000000001</ele>
        <time>2003-04-19T18:52:17Z</time>
      </trkpt>
      <trkpt lat="34.592661978676915" lon="-3.029822967946529">
        <ele>263.80000000000001</ele>
        <time>2003-04-19T18:52:21Z</time>
      </trkpt>
      <trkpt lat="34.593579964712262" lon="-3.029802013188601">
        <ele>264.10000000000002</ele>
        <time>2003-04-19T18:52:25Z</time>
      </trkpt>
      <trkpt lat="34.594493005424738" lon="-3.029781980440021">
        <ele>265.30000000000001</ele>
        <time>2003-04-19T18:52:29Z</time>
      </trkpt>
      <trkpt lat="34.595405040308833" lon="-3.029763037338853">
        <ele>266.89999999999998</ele>
        <time>2003-04-19T18:52:33Z</time>
      </trkpt>
      <trkpt lat="34.596450012177229" lon="-3.029732024297118">
        <ele>269</ele>
        <time>2003-04-19T18:52:39Z</time>
      </trkpt>
      <trkpt lat="34.597437987104058" lon="-3.02971500903368">
        <ele>270.89999999999998</ele>
        <time>2003-04-19T18:52:44Z</time>
      </trkpt>
      <trkpt lat="34.598390003666282" lon="-3.029690030962229">
        <ele>272.5</ele>
        <time>2003-04-19T18:52:48Z</time>
      </trkpt>
      <trkpt lat="34.59935300052166" lon="-3.029666980728507">
        <ele>274.10000000000002</ele>
        <time>2003-04-19T18:52:53Z</time>
      </trkpt>
      <trkpt lat="34.600332006812096" lon="-3.029652982950211">
        <ele>275.10000000000002</ele>
        <time>2003-04-19T18:52:59Z</time>
      </trkpt>
      <trkpt lat="34.601140022277832" lon="-3.029642002657056">
        <ele>274.5</ele>
        <time>2003-04-19T18:53:03Z</time>
      </trkpt>
      <trkpt lat="34.601346971467137" lon="-3.029637979343534">
        <ele>274.19999999999999</ele>
        <time>2003-04-19T18:53:04Z</time>
      </trkpt>
      <trkpt lat="34.602396972477436" lon="-3.029621969908476">
        <ele>272.19999999999999</ele>
        <time>2003-04-19T18:53:08Z</time>
      </trkpt>
      <trkpt lat="34.603446973487735" lon="-3.029594980180264">
        <ele>269.80000000000001</ele>
        <time>2003-04-19T18:53:14Z</time>
      </trkpt>
      <trkpt lat="34.604535028338432" lon="-3.029537983238697">
        <ele>268</ele>
        <time>2003-04-19T18:53:19Z</time>
      </trkpt>
      <trkpt lat="34.605655018240213" lon="-3.029417032375932">
        <ele>265.89999999999998</ele>
        <time>2003-04-19T18:53:23Z</time>
      </trkpt>
      <trkpt lat="34.606772996485233" lon="-3.029306977987289">
        <ele>265.5</ele>
        <time>2003-04-19T18:53:29Z</time>
      </trkpt>
      <trkpt lat="34.607831966131926" lon="-3.029194995760918">
        <ele>266.89999999999998</ele>
        <time>2003-04-19T18:53:34Z</time>
      </trkpt>
      <trkpt lat="34.609593003988266" lon="-3.029021993279457">
        <ele>274.89999999999998</ele>
        <time>2003-04-19T18:53:42Z</time>
      </trkpt>
      <trkpt lat="34.611056987196207" lon="-3.028872963041067">
        <ele>282.39999999999998</ele>
        <time>2003-04-19T18:53:50Z</time>
      </trkpt>
      <trkpt lat="34.611959969624877" lon="-3.02877196110785">
        <ele>286.39999999999998</ele>
        <time>2003-04-19T18:53:56Z</time>
      </trkpt>
      <trkpt lat="34.612909974530339" lon="-3.028610022738576">
        <ele>288</ele>
        <time>2003-04-19T18:54:01Z</time>
      </trkpt>
      <trkpt lat="34.61391999386251" lon="-3.028367031365633">
        <ele>288.69999999999999</ele>
        <time>2003-04-19T18:54:05Z</time>
      </trkpt>
      <trkpt lat="34.61499497294426" lon="-3.028047010302544">
        <ele>286.60000000000002</ele>
        <time>2003-04-19T18:54:10Z</time>
      </trkpt>
      <trkpt lat="34.61589502170682" lon="-3.027775017544627">
        <ele>284.39999999999998</ele>
        <time>2003-04-19T18:54:14Z</time>
      </trkpt>
      <trkpt lat="34.616972012445331" lon="-3.027454996481538">
        <ele>283.5</ele>
        <time>2003-04-19T18:54:20Z</time>
      </trkpt>
      <trkpt lat="34.618008015677333" lon="-3.027147967368364">
        <ele>283.60000000000002</ele>
        <time>2003-04-19T18:54:25Z</time>
      </trkpt>
      <trkpt lat="34.619047036394477" lon="-3.026834987103939">
        <ele>283.39999999999998</ele>
        <time>2003-04-19T18:54:29Z</time>
      </trkpt>
      <trkpt lat="34.620099971070886" lon="-3.02651303820312">
        <ele>283.80000000000001</ele>
        <time>2003-04-19T18:54:36Z</time>
      </trkpt>
      <trkpt lat="34.621170004829764" lon="-3.026201985776424">
        <ele>284.5</ele>
        <time>2003-04-19T18:54:40Z</time>
      </trkpt>
      <trkpt lat="34.622237021103501" lon="-3.025871990248561">
        <ele>286.19999999999999</ele>
        <time>2003-04-19T18:54:45Z</time>
      </trkpt>
      <trkpt lat="34.623290039598942" lon="-3.025566972792149">
        <ele>287.69999999999999</ele>
        <time>2003-04-19T18:54:51Z</time>
      </trkpt>
      <trkpt lat="34.624271979555488" lon="-3.025388019159436">
        <ele>288.80000000000001</ele>
        <time>2003-04-19T18:54:55Z</time>
      </trkpt>
      <trkpt lat="34.625227013602853" lon="-3.02533496171236">
        <ele>289.89999999999998</ele>
        <time>2003-04-19T18:55:00Z</time>
      </trkpt>
      <trkpt lat="34.625617023557425" lon="-3.025333033874631">
        <ele>290.10000000000002</ele>
        <time>2003-04-19T18:55:03Z</time>
      </trkpt>
      <trkpt lat="34.626416992396116" lon="-3.02533496171236">
        <ele>290.5</ele>
        <time>2003-04-19T18:55:07Z</time>
      </trkpt>
      <trkpt lat="34.626622013747692" lon="-3.02533496171236">
        <ele>290.69999999999999</ele>
        <time>2003-04-19T18:55:07Z</time>
      </trkpt>
      <trkpt lat="34.627666985616088" lon="-3.025330016389489">
        <ele>291.5</ele>
        <time>2003-04-19T18:55:12Z</time>
      </trkpt>
      <trkpt lat="34.627879969775677" lon="-3.02533202804625">
        <ele>291.80000000000001</ele>
        <time>2003-04-19T18:55:14Z</time>
      </trkpt>
      <trkpt lat="34.628523029386997" lon="-3.025336973369122">
        <ele>292.80000000000001</ele>
        <time>2003-04-19T18:55:17Z</time>
      </trkpt>
      <trkpt lat="34.629618041217327" lon="-3.025328004732728">
        <ele>293.69999999999999</ele>
        <time>2003-04-19T18:55:22Z</time>
      </trkpt>
      <trkpt lat="34.630063036456704" lon="-3.025330016389489">
        <ele>294.5</ele>
        <time>2003-04-19T18:55:23Z</time>
      </trkpt>
      <trkpt lat="34.630284989252687" lon="-3.025328004732728">
        <ele>295</ele>
        <time>2003-04-19T18:55:25Z</time>
      </trkpt>
      <trkpt lat="34.631171962246299" lon="-3.025321969762445">
        <ele>297.19999999999999</ele>
        <time>2003-04-19T18:55:29Z</time>
      </trkpt>
      <trkpt lat="34.631392993032932" lon="-3.025318030267954">
        <ele>297.19999999999999</ele>
        <time>2003-04-19T18:55:30Z</time>
      </trkpt>
      <trkpt lat="34.632493034005165" lon="-3.025317024439573">
        <ele>298.5</ele>
        <time>2003-04-19T18:55:34Z</time>
      </trkpt>
      <trkpt lat="34.633528031408787" lon="-3.025302020832896">
        <ele>299.39999999999998</ele>
        <time>2003-04-19T18:55:39Z</time>
      </trkpt>
      <trkpt lat="34.63433001190424" lon="-3.025190038606525">
        <ele>299.60000000000002</ele>
        <time>2003-04-19T18:55:44Z</time>
      </trkpt>
      <trkpt lat="34.63534296490252" lon="-3.024840010330081">
        <ele>299.60000000000002</ele>
        <time>2003-04-19T18:55:49Z</time>
      </trkpt>
      <trkpt lat="34.636388020589948" lon="-3.024444971233606">
        <ele>299.89999999999998</ele>
        <time>2003-04-19T18:55:53Z</time>
      </trkpt>
      <trkpt lat="34.63725202716887" lon="-3.024117993190885">
        <ele>299.89999999999998</ele>
        <time>2003-04-19T18:55:57Z</time>
      </trkpt>
      <trkpt lat="34.63813497684896" lon="-3.023797972127795">
        <ele>300.19999999999999</ele>
        <time>2003-04-19T18:56:01Z</time>
      </trkpt>
      <trkpt lat="34.639023039489985" lon="-3.023466970771551">
        <ele>299.89999999999998</ele>
        <time>2003-04-19T18:56:05Z</time>
      </trkpt>
      <trkpt lat="34.639889979735017" lon="-3.023142004385591">
        <ele>299.69999999999999</ele>
        <time>2003-04-19T18:56:09Z</time>
      </trkpt>
      <trkpt lat="34.640932017937303" lon="-3.022632971405983">
        <ele>298.89999999999998</ele>
        <time>2003-04-19T18:56:15Z</time>
      </trkpt>
      <trkpt lat="34.641642970964313" lon="-3.021992007270455">
        <ele>297.80000000000001</ele>
        <time>2003-04-19T18:56:19Z</time>
      </trkpt>
      <trkpt lat="34.64176501147449" lon="-3.021805007010698">
        <ele>297.5</ele>
        <time>2003-04-19T18:56:20Z</time>
      </trkpt>
      <trkpt lat="34.641957962885499" lon="-3.02142002619803">
        <ele>296.80000000000001</ele>
        <time>2003-04-19T18:56:21Z</time>
      </trkpt>
      <trkpt lat="34.642321988940239" lon="-3.020564988255501">
        <ele>295.5</ele>
        <time>2003-04-19T18:56:25Z</time>
      </trkpt>
      <trkpt lat="34.642421985045075" lon="-3.020070036873221">
        <ele>294.5</ele>
        <time>2003-04-19T18:56:28Z</time>
      </trkpt>
      <trkpt lat="34.642622983083129" lon="-3.018766986206174">
        <ele>291.80000000000001</ele>
        <time>2003-04-19T18:56:32Z</time>
      </trkpt>
      <trkpt lat="34.642866980284452" lon="-3.017563009634614">
        <ele>287.89999999999998</ele>
        <time>2003-04-19T18:56:38Z</time>
      </trkpt>
      <trkpt lat="34.643182978034019" lon="-3.016692968085408">
        <ele>283.19999999999999</ele>
        <time>2003-04-19T18:56:42Z</time>
      </trkpt>
      <trkpt lat="34.643308036029339" lon="-3.016506973654032">
        <ele>281.80000000000001</ele>
        <time>2003-04-19T18:56:43Z</time>
      </trkpt>
      <trkpt lat="34.644008008763194" lon="-3.015561997890472">
        <ele>274.10000000000002</ele>
        <time>2003-04-19T18:56:47Z</time>
      </trkpt>
      <trkpt lat="34.644658025354147" lon="-3.01480301655829">
        <ele>267.89999999999998</ele>
        <time>2003-04-19T18:56:51Z</time>
      </trkpt>
      <trkpt lat="34.645341988652945" lon="-3.014016961678863">
        <ele>263</ele>
        <time>2003-04-19T18:56:55Z</time>
      </trkpt>
      <trkpt lat="34.64604003354907" lon="-3.013210035860539">
        <ele>259.10000000000002</ele>
        <time>2003-04-19T18:56:59Z</time>
      </trkpt>
      <trkpt lat="34.646734977141023" lon="-3.012402020394802">
        <ele>256.39999999999998</ele>
        <time>2003-04-19T18:57:03Z</time>
      </trkpt>
      <trkpt lat="34.647436961531639" lon="-3.011592999100685">
        <ele>254.40000000000001</ele>
        <time>2003-04-19T18:57:07Z</time>
      </trkpt>
      <trkpt lat="34.648141963407397" lon="-3.010801998898387">
        <ele>252.19999999999999</ele>
        <time>2003-04-19T18:57:11Z</time>
      </trkpt>
      <trkpt lat="34.648853000253439" lon="-3.010127004235983">
        <ele>250.30000000000001</ele>
        <time>2003-04-19T18:57:15Z</time>
      </trkpt>
      <trkpt lat="34.649729998782277" lon="-3.009385038167238">
        <ele>246.90000000000001</ele>
        <time>2003-04-19T18:57:21Z</time>
      </trkpt>
      <trkpt lat="34.650093019008636" lon="-3.009178005158901">
        <ele>246.40000000000001</ele>
        <time>2003-04-19T18:57:22Z</time>
      </trkpt>
      <trkpt lat="34.651030031964183" lon="-3.008707026019692">
        <ele>244.40000000000001</ele>
        <time>2003-04-19T18:57:27Z</time>
      </trkpt>
      <trkpt lat="34.651965033262968" lon="-3.008345011621714">
        <ele>244.19999999999999</ele>
        <time>2003-04-19T18:57:33Z</time>
      </trkpt>
      <trkpt lat="34.652877990156412" lon="-3.007957013323903">
        <ele>244.40000000000001</ele>
        <time>2003-04-19T18:57:37Z</time>
      </trkpt>
      <trkpt lat="34.653749959543347" lon="-3.007525010034442">
        <ele>244.90000000000001</ele>
        <time>2003-04-19T18:57:42Z</time>
      </trkpt>
      <trkpt lat="34.654597034677863" lon="-3.006946993991733">
        <ele>244.90000000000001</ele>
        <time>2003-04-19T18:57:48Z</time>
      </trkpt>
      <trkpt lat="34.655067007988691" lon="-3.006496969610453">
        <ele>245.40000000000001</ele>
        <time>2003-04-19T18:57:50Z</time>
      </trkpt>
      <trkpt lat="34.655803022906184" lon="-3.005637992173433">
        <ele>246.30000000000001</ele>
        <time>2003-04-19T18:57:56Z</time>
      </trkpt>
      <trkpt lat="34.656527973711491" lon="-3.004699973389506">
        <ele>246.09999999999999</ele>
        <time>2003-04-19T18:58:01Z</time>
      </trkpt>
      <trkpt lat="34.65723498724401" lon="-3.003682997077704">
        <ele>246.19999999999999</ele>
        <time>2003-04-19T18:58:05Z</time>
      </trkpt>
      <trkpt lat="34.657957004383206" lon="-3.002650011330843">
        <ele>247</ele>
        <time>2003-04-19T18:58:11Z</time>
      </trkpt>
      <trkpt lat="34.658678015694022" lon="-3.001600010320544">
        <ele>246.69999999999999</ele>
        <time>2003-04-19T18:58:16Z</time>
      </trkpt>
      <trkpt lat="34.659268017858267" lon="-3.00075301900506">
        <ele>246.5</ele>
        <time>2003-04-19T18:58:20Z</time>
      </trkpt>
      <trkpt lat="34.659866988658905" lon="-2.999902004376054">
        <ele>246.19999999999999</ele>
        <time>2003-04-19T18:58:24Z</time>
      </trkpt>
      <trkpt lat="34.660475011914968" lon="-2.999045038595796">
        <ele>246.30000000000001</ele>
        <time>2003-04-19T18:58:28Z</time>
      </trkpt>
      <trkpt lat="34.661114970222116" lon="-2.998256972059608">
        <ele>247</ele>
        <time>2003-04-19T18:58:31Z</time>
      </trkpt>
      <trkpt lat="34.661909993737936" lon="-2.997367987409234">
        <ele>247.69999999999999</ele>
        <time>2003-04-19T18:58:36Z</time>
      </trkpt>
      <trkpt lat="34.662641985341907" lon="-2.996583022177219">
        <ele>247.80000000000001</ele>
        <time>2003-04-19T18:58:42Z</time>
      </trkpt>
      <trkpt lat="34.663385041058064" lon="-2.99579001031816">
        <ele>248.19999999999999</ele>
        <time>2003-04-19T18:58:47Z</time>
      </trkpt>
      <trkpt lat="34.664142010733485" lon="-2.994958022609353">
        <ele>249.69999999999999</ele>
        <time>2003-04-19T18:58:51Z</time>
      </trkpt>
      <trkpt lat="34.664899986237288" lon="-2.994131986051798">
        <ele>253.09999999999999</ele>
        <time>2003-04-19T18:58:57Z</time>
      </trkpt>
      <trkpt lat="34.665644969791174" lon="-2.993311984464526">
        <ele>257.30000000000001</ele>
        <time>2003-04-19T18:59:02Z</time>
      </trkpt>
      <trkpt lat="34.666370004415512" lon="-2.992512015625835">
        <ele>262</ele>
        <time>2003-04-19T18:59:06Z</time>
      </trkpt>
      <trkpt lat="34.667084980756044" lon="-2.991705005988479">
        <ele>264.30000000000001</ele>
        <time>2003-04-19T18:59:11Z</time>
      </trkpt>
      <trkpt lat="34.667829964309931" lon="-2.990924986079335">
        <ele>264.69999999999999</ele>
        <time>2003-04-19T18:59:17Z</time>
      </trkpt>
      <trkpt lat="34.668596992269158" lon="-2.990219984203577">
        <ele>263.69999999999999</ele>
        <time>2003-04-19T18:59:22Z</time>
      </trkpt>
      <trkpt lat="34.668926987797022" lon="-2.990025021135807">
        <ele>262.60000000000002</ele>
        <time>2003-04-19T18:59:24Z</time>
      </trkpt>
      <trkpt lat="34.669797029346228" lon="-2.989656971767545">
        <ele>258.10000000000002</ele>
        <time>2003-04-19T18:59:29Z</time>
      </trkpt>
      <trkpt lat="34.670797996222973" lon="-2.989290012046695">
        <ele>254.40000000000001</ele>
        <time>2003-04-19T18:59:33Z</time>
      </trkpt>
      <trkpt lat="34.671846991404891" lon="-2.988902013748884">
        <ele>252.40000000000001</ele>
        <time>2003-04-19T18:59:38Z</time>
      </trkpt>
      <trkpt lat="34.672894980758429" lon="-2.988515021279454">
        <ele>252.90000000000001</ele>
        <time>2003-04-19T18:59:44Z</time>
      </trkpt>
      <trkpt lat="34.673931989818811" lon="-2.988131968304515">
        <ele>255.59999999999999</ele>
        <time>2003-04-19T18:59:49Z</time>
      </trkpt>
      <trkpt lat="34.674957012757659" lon="-2.987692002207041">
        <ele>255.69999999999999</ele>
        <time>2003-04-19T18:59:53Z</time>
      </trkpt>
      <trkpt lat="34.676001984626055" lon="-2.98717500641942">
        <ele>253.90000000000001</ele>
        <time>2003-04-19T18:59:59Z</time>
      </trkpt>
      <trkpt lat="34.676876971498132" lon="-2.986758006736636">
        <ele>250.19999999999999</ele>
        <time>2003-04-19T19:00:03Z</time>
      </trkpt>
      <trkpt lat="34.677737038582563" lon="-2.986342012882233">
        <ele>248.09999999999999</ele>
        <time>2003-04-19T19:00:07Z</time>
      </trkpt>
      <trkpt lat="34.678731970489025" lon="-2.98586499877274">
        <ele>247</ele>
        <time>2003-04-19T19:00:12Z</time>
      </trkpt>
      <trkpt lat="34.679673006758094" lon="-2.985407011583448">
        <ele>245.69999999999999</ele>
        <time>2003-04-19T19:00:16Z</time>
      </trkpt>
      <trkpt lat="34.680614965036511" lon="-2.984945001080632">
        <ele>244.40000000000001</ele>
        <time>2003-04-19T19:00:22Z</time>
      </trkpt>
      <trkpt lat="34.68157502822578" lon="-2.984481984749436">
        <ele>243.80000000000001</ele>
        <time>2003-04-19T19:00:27Z</time>
      </trkpt>
      <trkpt lat="34.682502988725901" lon="-2.983907992020249">
        <ele>242.09999999999999</ele>
        <time>2003-04-19T19:00:31Z</time>
      </trkpt>
      <trkpt lat="34.683309998363256" lon="-2.983171977102757">
        <ele>240.40000000000001</ele>
        <time>2003-04-19T19:00:36Z</time>
      </trkpt>
      <trkpt lat="34.684109967201948" lon="-2.98242699354887">
        <ele>239.80000000000001</ele>
        <time>2003-04-19T19:00:42Z</time>
      </trkpt>
      <trkpt lat="34.68490800820291" lon="-2.981713023036718">
        <ele>241.19999999999999</ele>
        <time>2003-04-19T19:00:46Z</time>
      </trkpt>
      <trkpt lat="34.685591971501708" lon="-2.98128797672689">
        <ele>243.40000000000001</ele>
        <time>2003-04-19T19:00:50Z</time>
      </trkpt>
      <trkpt lat="34.686122965067625" lon="-2.981092007830739">
        <ele>244</ele>
        <time>2003-04-19T19:00:54Z</time>
      </trkpt>
      <trkpt lat="34.686832996085286" lon="-2.980937026441097">
        <ele>245.69999999999999</ele>
        <time>2003-04-19T19:00:58Z</time>
      </trkpt>
      <trkpt lat="34.687902024015784" lon="-2.980844993144274">
        <ele>247.69999999999999</ele>
        <time>2003-04-19T19:01:03Z</time>
      </trkpt>
      <trkpt lat="34.688831996172667" lon="-2.980775004252791">
        <ele>248.30000000000001</ele>
        <time>2003-04-19T19:01:09Z</time>
      </trkpt>
      <trkpt lat="34.689760040491819" lon="-2.980692023411393">
        <ele>250.40000000000001</ele>
        <time>2003-04-19T19:01:13Z</time>
      </trkpt>
      <trkpt lat="34.690695041790605" lon="-2.980618011206389">
        <ele>251.80000000000001</ele>
        <time>2003-04-19T19:01:18Z</time>
      </trkpt>
      <trkpt lat="34.691640017554164" lon="-2.980530001223087">
        <ele>254.90000000000001</ele>
        <time>2003-04-19T19:01:24Z</time>
      </trkpt>
      <trkpt lat="34.692573007196188" lon="-2.98044802621007">
        <ele>259.30000000000001</ele>
        <time>2003-04-19T19:01:29Z</time>
      </trkpt>
      <trkpt lat="34.69350197352469" lon="-2.980312993749976">
        <ele>264</ele>
        <time>2003-04-19T19:01:33Z</time>
      </trkpt>
      <trkpt lat="34.694047970697284" lon="-2.980121970176697">
        <ele>265.19999999999999</ele>
        <time>2003-04-19T19:01:37Z</time>
      </trkpt>
      <trkpt lat="34.694967968389392" lon="-2.979651996865869">
        <ele>264.80000000000001</ele>
        <time>2003-04-19T19:01:41Z</time>
      </trkpt>
      <trkpt lat="34.69592803157866" lon="-2.979150004684925">
        <ele>264.5</ele>
        <time>2003-04-19T19:01:47Z</time>
      </trkpt>
      <trkpt lat="34.696820033714175" lon="-2.978680031374097">
        <ele>266.30000000000001</ele>
        <time>2003-04-19T19:01:52Z</time>
      </trkpt>
      <trkpt lat="34.697356978431344" lon="-2.978465035557747">
        <ele>268.80000000000001</ele>
        <time>2003-04-19T19:01:55Z</time>
      </trkpt>
      <trkpt lat="34.697912028059363" lon="-2.978378031402826">
        <ele>270.89999999999998</ele>
        <time>2003-04-19T19:01:57Z</time>
      </trkpt>
      <trkpt lat="34.698277981951833" lon="-2.978369984775782">
        <ele>272.69999999999999</ele>
        <time>2003-04-19T19:02:00Z</time>
      </trkpt>
      <trkpt lat="34.698633039370179" lon="-2.978418013080955">
        <ele>273.69999999999999</ele>
        <time>2003-04-19T19:02:02Z</time>
      </trkpt>
      <trkpt lat="34.699126984924078" lon="-2.978562014177442">
        <ele>276.60000000000002</ele>
        <time>2003-04-19T19:02:04Z</time>
      </trkpt>
      <trkpt lat="34.699590001255274" lon="-2.97879503108561">
        <ele>278.60000000000002</ele>
        <time>2003-04-19T19:02:07Z</time>
      </trkpt>
      <trkpt lat="34.700525002554059" lon="-2.979349996894598">
        <ele>282.10000000000002</ele>
        <time>2003-04-19T19:02:14Z</time>
      </trkpt>
      <trkpt lat="34.701354978606105" lon="-2.979813013225794">
        <ele>284.80000000000001</ele>
        <time>2003-04-19T19:02:19Z</time>
      </trkpt>
      <trkpt lat="34.702091999351978" lon="-2.9801269993186">
        <ele>286.19999999999999</ele>
        <time>2003-04-19T19:02:23Z</time>
      </trkpt>
      <trkpt lat="34.703077040612698" lon="-2.980318022891879">
        <ele>285.69999999999999</ele>
        <time>2003-04-19T19:02:27Z</time>
      </trkpt>
      <trkpt lat="34.703862005844712" lon="-2.980306958779693">
        <ele>283.69999999999999</ele>
        <time>2003-04-19T19:02:31Z</time>
      </trkpt>
      <trkpt lat="34.704892979934812" lon="-2.980200005695224">
        <ele>280.89999999999998</ele>
        <time>2003-04-19T19:02:37Z</time>
      </trkpt>
      <trkpt lat="34.705907022580504" lon="-2.98010503873229">
        <ele>279.19999999999999</ele>
        <time>2003-04-19T19:02:42Z</time>
      </trkpt>
      <trkpt lat="34.706922993063927" lon="-2.980051981285214">
        <ele>279.19999999999999</ele>
        <time>2003-04-19T19:02:46Z</time>
      </trkpt>
      <trkpt lat="34.707124996930361" lon="-2.980052987113595">
        <ele>279.60000000000002</ele>
        <time>2003-04-19T19:02:47Z</time>
      </trkpt>
      <trkpt lat="34.708118000999093" lon="-2.980121970176697">
        <ele>283.19999999999999</ele>
        <time>2003-04-19T19:02:53Z</time>
      </trkpt>
      <trkpt lat="34.708502981811762" lon="-2.980222972109914">
        <ele>284.39999999999998</ele>
        <time>2003-04-19T19:02:54Z</time>
      </trkpt>
      <trkpt lat="34.708855021744967" lon="-2.980417013168335">
        <ele>285.39999999999998</ele>
        <time>2003-04-19T19:02:57Z</time>
      </trkpt>
      <trkpt lat="34.709721961989999" lon="-2.980907019227743">
        <ele>287.19999999999999</ele>
        <time>2003-04-19T19:03:01Z</time>
      </trkpt>
      <trkpt lat="34.710546992719173" lon="-2.981442036107183">
        <ele>288.10000000000002</ele>
        <time>2003-04-19T19:03:06Z</time>
      </trkpt>
      <trkpt lat="34.711368000134826" lon="-2.981994990259409">
        <ele>290.19999999999999</ele>
        <time>2003-04-19T19:03:12Z</time>
      </trkpt>
      <trkpt lat="34.712205016985536" lon="-2.9825549852103">
        <ele>292.69999999999999</ele>
        <time>2003-04-19T19:03:17Z</time>
      </trkpt>
      <trkpt lat="34.712717989459634" lon="-2.982817003503442">
        <ele>294.30000000000001</ele>
        <time>2003-04-19T19:03:20Z</time>
      </trkpt>
      <trkpt lat="34.713057037442923" lon="-2.982890009880066">
        <ele>294.80000000000001</ele>
        <time>2003-04-19T19:03:21Z</time>
      </trkpt>
      <trkpt lat="34.713945016264915" lon="-2.983090002089739">
        <ele>295.60000000000002</ele>
        <time>2003-04-19T19:03:27Z</time>
      </trkpt>
      <trkpt lat="34.714872976765037" lon="-2.983280019834638">
        <ele>299.19999999999999</ele>
        <time>2003-04-19T19:03:32Z</time>
      </trkpt>
      <trkpt lat="34.715817030519247" lon="-2.983493003994227">
        <ele>302.69999999999999</ele>
        <time>2003-04-19T19:03:36Z</time>
      </trkpt>
      <trkpt lat="34.716772986575961" lon="-2.983717974275351">
        <ele>305.5</ele>
        <time>2003-04-19T19:03:41Z</time>
      </trkpt>
      <trkpt lat="34.717760039493442" lon="-2.984042018651962">
        <ele>306.30000000000001</ele>
        <time>2003-04-19T19:03:47Z</time>
      </trkpt>
      <trkpt lat="34.718802999705076" lon="-2.984394980594516">
        <ele>305.10000000000002</ele>
        <time>2003-04-19T19:03:52Z</time>
      </trkpt>
      <trkpt lat="34.719679998233914" lon="-2.984693041071296">
        <ele>304.5</ele>
        <time>2003-04-19T19:03:55Z</time>
      </trkpt>
      <trkpt lat="34.72057200036943" lon="-2.984997974708676">
        <ele>305.80000000000001</ele>
        <time>2003-04-19T19:03:59Z</time>
      </trkpt>
      <trkpt lat="34.721459979191422" lon="-2.985297963023186">
        <ele>308.30000000000001</ele>
        <time>2003-04-19T19:04:03Z</time>
      </trkpt>
      <trkpt lat="34.722343012690544" lon="-2.985599962994456">
        <ele>310.80000000000001</ele>
        <time>2003-04-19T19:04:07Z</time>
      </trkpt>
      <trkpt lat="34.723212970420718" lon="-2.985897017642856">
        <ele>313.39999999999998</ele>
        <time>2003-04-19T19:04:11Z</time>
      </trkpt>
      <trkpt lat="34.72426800057292" lon="-2.98627202399075">
        <ele>315.80000000000001</ele>
        <time>2003-04-19T19:04:17Z</time>
      </trkpt>
      <trkpt lat="34.725069981068373" lon="-2.986662033945322">
        <ele>318</ele>
        <time>2003-04-19T19:04:21Z</time>
      </trkpt>
      <trkpt lat="34.726004982367158" lon="-2.987322025001049">
        <ele>321.30000000000001</ele>
        <time>2003-04-19T19:04:26Z</time>
      </trkpt>
      <trkpt lat="34.726894972845912" lon="-2.988043036311865">
        <ele>324.5</ele>
        <time>2003-04-19T19:04:31Z</time>
      </trkpt>
      <trkpt lat="34.727672981098294" lon="-2.988651981577277">
        <ele>326.80000000000001</ele>
        <time>2003-04-19T19:04:37Z</time>
      </trkpt>
      <trkpt lat="34.728570012375712" lon="-2.9893449973315">
        <ele>329</ele>
        <time>2003-04-19T19:04:42Z</time>
      </trkpt>
      <trkpt lat="34.729480035603046" lon="-2.989956960082054">
        <ele>332.69999999999999</ele>
        <time>2003-04-19T19:04:48Z</time>
      </trkpt>
      <trkpt lat="34.729980016127229" lon="-2.990157958120108">
        <ele>334.5</ele>
        <time>2003-04-19T19:04:50Z</time>
      </trkpt>
      <trkpt lat="34.730858020484447" lon="-2.990402961149812">
        <ele>335.89999999999998</ele>
        <time>2003-04-19T19:04:56Z</time>
      </trkpt>
      <trkpt lat="34.731757985427976" lon="-2.990658022463322">
        <ele>339.19999999999999</ele>
        <time>2003-04-19T19:05:01Z</time>
      </trkpt>
      <trkpt lat="34.732632972300053" lon="-2.990977959707379">
        <ele>342.69999999999999</ele>
        <time>2003-04-19T19:05:06Z</time>
      </trkpt>
      <trkpt lat="34.733251975849271" lon="-2.991411974653602">
        <ele>346.10000000000002</ele>
        <time>2003-04-19T19:05:11Z</time>
      </trkpt>
      <trkpt lat="34.733511982485652" lon="-2.991693019866943">
        <ele>347.80000000000001</ele>
        <time>2003-04-19T19:05:13Z</time>
      </trkpt>
      <trkpt lat="34.734253026545048" lon="-2.992612011730671">
        <ele>353.10000000000002</ele>
        <time>2003-04-19T19:05:19Z</time>
      </trkpt>
      <trkpt lat="34.734853003174067" lon="-2.993475012481213">
        <ele>357.69999999999999</ele>
        <time>2003-04-19T19:05:24Z</time>
      </trkpt>
      <trkpt lat="34.735478041693568" lon="-2.994382018223405">
        <ele>362.10000000000002</ele>
        <time>2003-04-19T19:05:28Z</time>
      </trkpt>
      <trkpt lat="34.736099978908896" lon="-2.995288018137217">
        <ele>366.69999999999999</ele>
        <time>2003-04-19T19:05:33Z</time>
      </trkpt>
      <trkpt lat="34.73668503575027" lon="-2.996132997795939">
        <ele>370.89999999999998</ele>
        <time>2003-04-19T19:05:39Z</time>
      </trkpt>
      <trkpt lat="34.737264979630709" lon="-2.996992981061339">
        <ele>375.10000000000002</ele>
        <time>2003-04-19T19:05:43Z</time>
      </trkpt>
      <trkpt lat="34.737882977351546" lon="-2.997837960720062">
        <ele>379.5</ele>
        <time>2003-04-19T19:05:48Z</time>
      </trkpt>
      <trkpt lat="34.738441966474056" lon="-2.998427040874958">
        <ele>382.80000000000001</ele>
        <time>2003-04-19T19:05:52Z</time>
      </trkpt>
      <trkpt lat="34.738604994490743" lon="-2.998510021716356">
        <ele>383.69999999999999</ele>
        <time>2003-04-19T19:05:54Z</time>
      </trkpt>
      <trkpt lat="34.739534966647625" lon="-2.998947976157069">
        <ele>388.10000000000002</ele>
        <time>2003-04-19T19:05:59Z</time>
      </trkpt>
      <trkpt lat="34.740139972418547" lon="-2.999137993901968">
        <ele>390.30000000000001</ele>
        <time>2003-04-19T19:06:03Z</time>
      </trkpt>
      <trkpt lat="34.740472985431552" lon="-2.999140005558729">
        <ele>390.89999999999998</ele>
        <time>2003-04-19T19:06:06Z</time>
      </trkpt>
      <trkpt lat="34.740974977612495" lon="-2.999058030545712">
        <ele>390.19999999999999</ele>
        <time>2003-04-19T19:06:09Z</time>
      </trkpt>
      <trkpt lat="34.741138005629182" lon="-2.998977983370423">
        <ele>390.10000000000002</ele>
        <time>2003-04-19T19:06:10Z</time>
      </trkpt>
      <trkpt lat="34.741949960589409" lon="-2.998461993411183">
        <ele>388.89999999999998</ele>
        <time>2003-04-19T19:06:14Z</time>
      </trkpt>
      <trkpt lat="34.742418006062508" lon="-2.998075000941753">
        <ele>388.89999999999998</ele>
        <time>2003-04-19T19:06:18Z</time>
      </trkpt>
      <trkpt lat="34.742537029087543" lon="-2.997908033430576">
        <ele>388.69999999999999</ele>
        <time>2003-04-19T19:06:18Z</time>
      </trkpt>
      <trkpt lat="34.743083026260138" lon="-2.996987029910088">
        <ele>385.5</ele>
        <time>2003-04-19T19:06:23Z</time>
      </trkpt>
      <trkpt lat="34.743243036791682" lon="-2.996576987206936">
        <ele>383.69999999999999</ele>
        <time>2003-04-19T19:06:26Z</time>
      </trkpt>
      <trkpt lat="34.743340015411377" lon="-2.996127968654037">
        <ele>381.80000000000001</ele>
        <time>2003-04-19T19:06:27Z</time>
      </trkpt>
      <trkpt lat="34.743621982634068" lon="-2.994967997074127">
        <ele>376.60000000000002</ele>
        <time>2003-04-19T19:06:33Z</time>
      </trkpt>
      <trkpt lat="34.743951978161931" lon="-2.993886983022094">
        <ele>372.19999999999999</ele>
        <time>2003-04-19T19:06:37Z</time>
      </trkpt>
      <trkpt lat="34.744148030877113" lon="-2.993541983887553">
        <ele>370.60000000000002</ele>
        <time>2003-04-19T19:06:40Z</time>
      </trkpt>
      <trkpt lat="34.744496969506145" lon="-2.993049966171384">
        <ele>368.19999999999999</ele>
        <time>2003-04-19T19:06:42Z</time>
      </trkpt>
      <trkpt lat="34.744925033301115" lon="-2.992621986195445">
        <ele>366</ele>
        <time>2003-04-19T19:06:45Z</time>
      </trkpt>
      <trkpt lat="34.745404981076717" lon="-2.992272963747382">
        <ele>364.80000000000001</ele>
        <time>2003-04-19T19:06:49Z</time>
      </trkpt>
      <trkpt lat="34.746260019019246" lon="-2.991848001256585">
        <ele>364.69999999999999</ele>
        <time>2003-04-19T19:06:53Z</time>
      </trkpt>
      <trkpt lat="34.747144980356097" lon="-2.991429995745421">
        <ele>364.80000000000001</ele>
        <time>2003-04-19T19:06:59Z</time>
      </trkpt>
      <trkpt lat="34.748061960563064" lon="-2.991017019376159">
        <ele>364.69999999999999</ele>
        <time>2003-04-19T19:07:04Z</time>
      </trkpt>
      <trkpt lat="34.748986987397075" lon="-2.990589961409569">
        <ele>365.60000000000002</ele>
        <time>2003-04-19T19:07:08Z</time>
      </trkpt>
      <trkpt lat="34.749937998130918" lon="-2.990157958120108">
        <ele>365.69999999999999</ele>
        <time>2003-04-19T19:07:13Z</time>
      </trkpt>
      <trkpt lat="34.750884985551238" lon="-2.989720003679395">
        <ele>364.30000000000001</ele>
        <time>2003-04-19T19:07:19Z</time>
      </trkpt>
      <trkpt lat="34.751868015155196" lon="-2.989318007603288">
        <ele>363.39999999999998</ele>
        <time>2003-04-19T19:07:24Z</time>
      </trkpt>
      <trkpt lat="34.752466985955834" lon="-2.989211976528168">
        <ele>362.69999999999999</ele>
        <time>2003-04-19T19:07:27Z</time>
      </trkpt>
      <trkpt lat="34.753425037488341" lon="-2.98915196210146">
        <ele>361.19999999999999</ele>
        <time>2003-04-19T19:07:31Z</time>
      </trkpt>
      <trkpt lat="34.754409994930029" lon="-2.989114997908473">
        <ele>358.30000000000001</ele>
        <time>2003-04-19T19:07:36Z</time>
      </trkpt>
      <trkpt lat="34.755453038960695" lon="-2.989069987088442">
        <ele>354.80000000000001</ele>
        <time>2003-04-19T19:07:42Z</time>
      </trkpt>
      <trkpt lat="34.756500022485852" lon="-2.989032017067075">
        <ele>351.5</ele>
        <time>2003-04-19T19:07:47Z</time>
      </trkpt>
      <trkpt lat="34.757557986304164" lon="-2.988887010142207">
        <ele>351</ele>
        <time>2003-04-19T19:07:51Z</time>
      </trkpt>
      <trkpt lat="34.75864302366972" lon="-2.98870000988245">
        <ele>350.10000000000002</ele>
        <time>2003-04-19T19:07:57Z</time>
      </trkpt>
      <trkpt lat="34.759744992479682" lon="-2.988509992137551">
        <ele>349</ele>
        <time>2003-04-19T19:08:02Z</time>
      </trkpt>
      <trkpt lat="34.760837992653251" lon="-2.988347969949246">
        <ele>348.10000000000002</ele>
        <time>2003-04-19T19:08:06Z</time>
      </trkpt>
      <trkpt lat="34.761926969513297" lon="-2.98816298134625">
        <ele>347.30000000000001</ele>
        <time>2003-04-19T19:08:11Z</time>
      </trkpt>
      <trkpt lat="34.76300697773695" lon="-2.987967012450099">
        <ele>346.30000000000001</ele>
        <time>2003-04-19T19:08:17Z</time>
      </trkpt>
      <trkpt lat="34.764095032587647" lon="-2.987802978605032">
        <ele>345.80000000000001</ele>
        <time>2003-04-19T19:08:22Z</time>
      </trkpt>
      <trkpt lat="34.765187026932836" lon="-2.9876250308007">
        <ele>345.39999999999998</ele>
        <time>2003-04-19T19:08:26Z</time>
      </trkpt>
      <trkpt lat="34.766093026846647" lon="-2.987487986683846">
        <ele>344.69999999999999</ele>
        <time>2003-04-19T19:08:30Z</time>
      </trkpt>
      <trkpt lat="34.767007995396852" lon="-2.9873470030725">
        <ele>344.39999999999998</ele>
        <time>2003-04-19T19:08:34Z</time>
      </trkpt>
      <trkpt lat="34.767917012795806" lon="-2.987203001976013">
        <ele>344.10000000000002</ele>
        <time>2003-04-19T19:08:38Z</time>
      </trkpt>
      <trkpt lat="34.768977994099259" lon="-2.987052965909243">
        <ele>344</ele>
        <time>2003-04-19T19:08:44Z</time>
      </trkpt>
      <trkpt lat="34.769969992339611" lon="-2.986884992569685">
        <ele>344</ele>
        <time>2003-04-19T19:08:49Z</time>
      </trkpt>
      <trkpt lat="34.770967019721866" lon="-2.986736968159676">
        <ele>343.69999999999999</ele>
        <time>2003-04-19T19:08:53Z</time>
      </trkpt>
      <trkpt lat="34.772000005468726" lon="-2.986622974276543">
        <ele>343.69999999999999</ele>
        <time>2003-04-19T19:08:59Z</time>
      </trkpt>
      <trkpt lat="34.773065010085702" lon="-2.98653001897037">
        <ele>344</ele>
        <time>2003-04-19T19:09:04Z</time>
      </trkpt>
      <trkpt lat="34.774154992774129" lon="-2.986433040350676">
        <ele>344.30000000000001</ele>
        <time>2003-04-19T19:09:08Z</time>
      </trkpt>
      <trkpt lat="34.775276994332671" lon="-2.986321980133653">
        <ele>344.39999999999998</ele>
        <time>2003-04-19T19:09:14Z</time>
      </trkpt>
      <trkpt lat="34.776192968711257" lon="-2.986246962100267">
        <ele>344.19999999999999</ele>
        <time>2003-04-19T19:09:18Z</time>
      </trkpt>
      <trkpt lat="34.777127970010042" lon="-2.986147971823812">
        <ele>344.80000000000001</ele>
        <time>2003-04-19T19:09:22Z</time>
      </trkpt>
      <trkpt lat="34.778243014588952" lon="-2.986047975718975">
        <ele>345.30000000000001</ele>
        <time>2003-04-19T19:09:27Z</time>
      </trkpt>
      <trkpt lat="34.779344983398914" lon="-2.985955020412803">
        <ele>345.5</ele>
        <time>2003-04-19T19:09:31Z</time>
      </trkpt>
      <trkpt lat="34.780251989141107" lon="-2.985867010429502">
        <ele>346.19999999999999</ele>
        <time>2003-04-19T19:09:35Z</time>
      </trkpt>
      <trkpt lat="34.781177015975118" lon="-2.98577799461782">
        <ele>346.89999999999998</ele>
        <time>2003-04-19T19:09:39Z</time>
      </trkpt>
      <trkpt lat="34.782107993960381" lon="-2.985687972977758">
        <ele>347.30000000000001</ele>
        <time>2003-04-19T19:09:43Z</time>
      </trkpt>
      <trkpt lat="34.783047018572688" lon="-2.985608009621501">
        <ele>348</ele>
        <time>2003-04-19T19:09:47Z</time>
      </trkpt>
      <trkpt lat="34.783986965194345" lon="-2.985522011294961">
        <ele>349.60000000000002</ele>
        <time>2003-04-19T19:09:51Z</time>
      </trkpt>
      <trkpt lat="34.785078037530184" lon="-2.98541497439146">
        <ele>350</ele>
        <time>2003-04-19T19:09:57Z</time>
      </trkpt>
      <trkpt lat="34.786127032712102" lon="-2.985197966918349">
        <ele>351</ele>
        <time>2003-04-19T19:10:02Z</time>
      </trkpt>
      <trkpt lat="34.787175022065639" lon="-2.984992023557425">
        <ele>352.69999999999999</ele>
        <time>2003-04-19T19:10:06Z</time>
      </trkpt>
      <trkpt lat="34.788217982277274" lon="-2.984754983335733">
        <ele>354.80000000000001</ele>
        <time>2003-04-19T19:10:12Z</time>
      </trkpt>
      <trkpt lat="34.789237976074219" lon="-2.984549961984158">
        <ele>355.89999999999998</ele>
        <time>2003-04-19T19:10:17Z</time>
      </trkpt>
      <trkpt lat="34.790244977921247" lon="-2.984318034723401">
        <ele>357.80000000000001</ele>
        <time>2003-04-19T19:10:21Z</time>
      </trkpt>
      <trkpt lat="34.791264971718192" lon="-2.984094992280006">
        <ele>359.19999999999999</ele>
        <time>2003-04-19T19:10:26Z</time>
      </trkpt>
      <trkpt lat="34.792282031849027" lon="-2.983879996463656">
        <ele>360.5</ele>
        <time>2003-04-19T19:10:32Z</time>
      </trkpt>
      <trkpt lat="34.793275035917759" lon="-2.983672041445971">
        <ele>361.69999999999999</ele>
        <time>2003-04-19T19:10:37Z</time>
      </trkpt>
      <trkpt lat="34.794256975874305" lon="-2.983429972082377">
        <ele>363.19999999999999</ele>
        <time>2003-04-19T19:10:41Z</time>
      </trkpt>
      <trkpt lat="34.795036995783448" lon="-2.983133001253009">
        <ele>364.39999999999998</ele>
        <time>2003-04-19T19:10:45Z</time>
      </trkpt>
      <trkpt lat="34.795548040419817" lon="-2.982751959934831">
        <ele>364.80000000000001</ele>
        <time>2003-04-19T19:10:48Z</time>
      </trkpt>
      <trkpt lat="34.796352032572031" lon="-2.981957020238042">
        <ele>364.89999999999998</ele>
        <time>2003-04-19T19:10:53Z</time>
      </trkpt>
      <trkpt lat="34.797161975875497" lon="-2.981102988123894">
        <ele>364.5</ele>
        <time>2003-04-19T19:10:59Z</time>
      </trkpt>
      <trkpt lat="34.797947024926543" lon="-2.98014996573329">
        <ele>364.80000000000001</ele>
        <time>2003-04-19T19:11:04Z</time>
      </trkpt>
      <trkpt lat="34.798180041834712" lon="-2.979706982150674">
        <ele>364.19999999999999</ele>
        <time>2003-04-19T19:11:06Z</time>
      </trkpt>
      <trkpt lat="34.798525040969253" lon="-2.978735016658902">
        <ele>363.19999999999999</ele>
        <time>2003-04-19T19:11:10Z</time>
      </trkpt>
      <trkpt lat="34.798874985426664" lon="-2.977472031489015">
        <ele>362.19999999999999</ele>
        <time>2003-04-19T19:11:15Z</time>
      </trkpt>
      <trkpt lat="34.799149995669723" lon="-2.976423036307097">
        <ele>362.10000000000002</ele>
        <time>2003-04-19T19:11:19Z</time>
      </trkpt>
      <trkpt lat="34.799425005912781" lon="-2.975364988669753">
        <ele>361.80000000000001</ele>
        <time>2003-04-19T19:11:23Z</time>
      </trkpt>
      <trkpt lat="34.799713008105755" lon="-2.974301995709539">
        <ele>361.69999999999999</ele>
        <time>2003-04-19T19:11:27Z</time>
      </trkpt>
      <trkpt lat="34.80000201612711" lon="-2.97323196195066">
        <ele>362</ele>
        <time>2003-04-19T19:11:31Z</time>
      </trkpt>
      <trkpt lat="34.800281971693039" lon="-2.97215798869729">
        <ele>362.69999999999999</ele>
        <time>2003-04-19T19:11:34Z</time>
      </trkpt>
      <trkpt lat="34.800618002191186" lon="-2.97088704071939">
        <ele>363.89999999999998</ele>
        <time>2003-04-19T19:11:39Z</time>
      </trkpt>
      <trkpt lat="34.800963001325727" lon="-2.969597987830639">
        <ele>364.30000000000001</ele>
        <time>2003-04-19T19:11:45Z</time>
      </trkpt>
      <trkpt lat="34.801306994631886" lon="-2.96831295825541">
        <ele>363.39999999999998</ele>
        <time>2003-04-19T19:11:50Z</time>
      </trkpt>
      <trkpt lat="34.801587034016848" lon="-2.967263041064143">
        <ele>361.39999999999998</ele>
        <time>2003-04-19T19:11:54Z</time>
      </trkpt>
      <trkpt lat="34.801917029544711" lon="-2.966007012873888">
        <ele>358.30000000000001</ele>
        <time>2003-04-19T19:11:58Z</time>
      </trkpt>
      <trkpt lat="34.802233027294278" lon="-2.964847963303328">
        <ele>356.80000000000001</ele>
        <time>2003-04-19T19:12:04Z</time>
      </trkpt>
      <trkpt lat="34.802526980638504" lon="-2.963712969794869">
        <ele>356.19999999999999</ele>
        <time>2003-04-19T19:12:09Z</time>
      </trkpt>
      <trkpt lat="34.802825041115284" lon="-2.962577976286411">
        <ele>355.80000000000001</ele>
        <time>2003-04-19T19:12:13Z</time>
      </trkpt>
      <trkpt lat="34.803135003894567" lon="-2.961426973342896">
        <ele>355.30000000000001</ele>
        <time>2003-04-19T19:12:18Z</time>
      </trkpt>
      <trkpt lat="34.803437003865838" lon="-2.960255015641451">
        <ele>355</ele>
        <time>2003-04-19T19:12:24Z</time>
      </trkpt>
      <trkpt lat="34.803758030757308" lon="-2.959066964685917">
        <ele>354.39999999999998</ele>
        <time>2003-04-19T19:12:28Z</time>
      </trkpt>
      <trkpt lat="34.804081991314888" lon="-2.957849996164441">
        <ele>354.10000000000002</ele>
        <time>2003-04-19T19:12:33Z</time>
      </trkpt>
      <trkpt lat="34.804411986842752" lon="-2.956609977409244">
        <ele>353.60000000000002</ele>
        <time>2003-04-19T19:12:39Z</time>
      </trkpt>
      <trkpt lat="34.804739970713854" lon="-2.955346992239356">
        <ele>353.39999999999998</ele>
        <time>2003-04-19T19:12:44Z</time>
      </trkpt>
      <trkpt lat="34.805082958191633" lon="-2.954064980149269">
        <ele>352.89999999999998</ele>
        <time>2003-04-19T19:12:48Z</time>
      </trkpt>
      <trkpt lat="34.805431980639696" lon="-2.952767964452505">
        <ele>352.69999999999999</ele>
        <time>2003-04-19T19:12:54Z</time>
      </trkpt>
      <trkpt lat="34.805704979225993" lon="-2.951717963442206">
        <ele>352.39999999999998</ele>
        <time>2003-04-19T19:12:58Z</time>
      </trkpt>
      <trkpt lat="34.805983006954193" lon="-2.950657987967134">
        <ele>352.10000000000002</ele>
        <time>2003-04-19T19:13:02Z</time>
      </trkpt>
      <trkpt lat="34.806273020803928" lon="-2.94959700666368">
        <ele>351.80000000000001</ele>
        <time>2003-04-19T19:13:06Z</time>
      </trkpt>
      <trkpt lat="34.806562028825283" lon="-2.948526972904801">
        <ele>351.5</ele>
        <time>2003-04-19T19:13:10Z</time>
      </trkpt>
      <trkpt lat="34.806839972734451" lon="-2.947447970509529">
        <ele>351.5</ele>
        <time>2003-04-19T19:13:14Z</time>
      </trkpt>
      <trkpt lat="34.807133004069328" lon="-2.94637500308454">
        <ele>351.80000000000001</ele>
        <time>2003-04-19T19:13:18Z</time>
      </trkpt>
      <trkpt lat="34.807467022910714" lon="-2.945098020136356">
        <ele>352</ele>
        <time>2003-04-19T19:13:22Z</time>
      </trkpt>
      <trkpt lat="34.807795006781816" lon="-2.943907035514712">
        <ele>352.10000000000002</ele>
        <time>2003-04-19T19:13:27Z</time>
      </trkpt>
      <trkpt lat="34.808103041723371" lon="-2.942728037014604">
        <ele>352.39999999999998</ele>
        <time>2003-04-19T19:13:33Z</time>
      </trkpt>
      <trkpt lat="34.808418033644557" lon="-2.941547026857734">
        <ele>352.30000000000001</ele>
        <time>2003-04-19T19:13:38Z</time>
      </trkpt>
      <trkpt lat="34.808739982545376" lon="-2.940353024750948">
        <ele>352.60000000000002</ele>
        <time>2003-04-19T19:13:42Z</time>
      </trkpt>
      <trkpt lat="34.809066960588098" lon="-2.93913203291595">
        <ele>352.60000000000002</ele>
        <time>2003-04-19T19:13:48Z</time>
      </trkpt>
      <trkpt lat="34.809408020228148" lon="-2.937893019989133">
        <ele>352.30000000000001</ele>
        <time>2003-04-19T19:13:53Z</time>
      </trkpt>
      <trkpt lat="34.809750001877546" lon="-2.936947038397193">
        <ele>352</ele>
        <time>2003-04-19T19:13:57Z</time>
      </trkpt>
      <trkpt lat="34.810313014313579" lon="-2.935886979103088">
        <ele>350.80000000000001</ele>
        <time>2003-04-19T19:14:01Z</time>
      </trkpt>
      <trkpt lat="34.810878038406372" lon="-2.935132021084428">
        <ele>349.19999999999999</ele>
        <time>2003-04-19T19:14:05Z</time>
      </trkpt>
      <trkpt lat="34.81171497143805" lon="-2.934338003396988">
        <ele>347.60000000000002</ele>
        <time>2003-04-19T19:14:11Z</time>
      </trkpt>
      <trkpt lat="34.812587024644017" lon="-2.933563012629747">
        <ele>346</ele>
        <time>2003-04-19T19:14:16Z</time>
      </trkpt>
      <trkpt lat="34.813457988202572" lon="-2.932745022699237">
        <ele>344</ele>
        <time>2003-04-19T19:14:20Z</time>
      </trkpt>
      <trkpt lat="34.814067017287016" lon="-2.932012025266886">
        <ele>341.80000000000001</ele>
        <time>2003-04-19T19:14:24Z</time>
      </trkpt>
      <trkpt lat="34.814295005053282" lon="-2.931599970906973">
        <ele>341</ele>
        <time>2003-04-19T19:14:27Z</time>
      </trkpt>
      <trkpt lat="34.814637992531061" lon="-2.930717021226883">
        <ele>339.60000000000002</ele>
        <time>2003-04-19T19:14:31Z</time>
      </trkpt>
      <trkpt lat="34.815036971122026" lon="-2.929565012454987">
        <ele>338.5</ele>
        <time>2003-04-19T19:14:36Z</time>
      </trkpt>
      <trkpt lat="34.815439973026514" lon="-2.928407974541187">
        <ele>337.39999999999998</ele>
        <time>2003-04-19T19:14:40Z</time>
      </trkpt>
      <trkpt lat="34.815857978537679" lon="-2.927253032103181">
        <ele>336.30000000000001</ele>
        <time>2003-04-19T19:14:47Z</time>
      </trkpt>
      <trkpt lat="34.81626701541245" lon="-2.926062969490886">
        <ele>335.60000000000002</ele>
        <time>2003-04-19T19:14:51Z</time>
      </trkpt>
      <trkpt lat="34.816687032580376" lon="-2.924847006797791">
        <ele>334.19999999999999</ele>
        <time>2003-04-19T19:14:56Z</time>
      </trkpt>
      <trkpt lat="34.817060027271509" lon="-2.923573041334748">
        <ele>332.89999999999998</ele>
        <time>2003-04-19T19:15:02Z</time>
      </trkpt>
      <trkpt lat="34.817350041121244" lon="-2.922250041738153">
        <ele>331.80000000000001</ele>
        <time>2003-04-19T19:15:06Z</time>
      </trkpt>
      <trkpt lat="34.817533018067479" lon="-2.921167016029358">
        <ele>330.69999999999999</ele>
        <time>2003-04-19T19:15:10Z</time>
      </trkpt>
      <trkpt lat="34.817726975306869" lon="-2.920069992542267">
        <ele>329.69999999999999</ele>
        <time>2003-04-19T19:15:14Z</time>
      </trkpt>
      <trkpt lat="34.817914981395006" lon="-2.918962994590402">
        <ele>329</ele>
        <time>2003-04-19T19:15:18Z</time>
      </trkpt>
      <trkpt lat="34.818127965554595" lon="-2.918209964409471">
        <ele>328.19999999999999</ele>
        <time>2003-04-19T19:15:22Z</time>
      </trkpt>
      <trkpt lat="34.818534990772605" lon="-2.917042030021548">
        <ele>326.69999999999999</ele>
        <time>2003-04-19T19:15:26Z</time>
      </trkpt>
      <trkpt lat="34.818937992677093" lon="-2.915893038734794">
        <ele>326.80000000000001</ele>
        <time>2003-04-19T19:15:32Z</time>
      </trkpt>
      <trkpt lat="34.819322973489761" lon="-2.914776988327503">
        <ele>329.89999999999998</ele>
        <time>2003-04-19T19:15:37Z</time>
      </trkpt>
      <trkpt lat="34.819697979837656" lon="-2.913705026730895">
        <ele>334.10000000000002</ele>
        <time>2003-04-19T19:15:41Z</time>
      </trkpt>
      <trkpt lat="34.820082038640976" lon="-2.912667011842132">
        <ele>337.89999999999998</ele>
        <time>2003-04-19T19:15:46Z</time>
      </trkpt>
      <trkpt lat="34.820555029436946" lon="-2.911679958924651">
        <ele>340</ele>
        <time>2003-04-19T19:15:52Z</time>
      </trkpt>
      <trkpt lat="34.820910003036261" lon="-2.911134967580438">
        <ele>341.80000000000001</ele>
        <time>2003-04-19T19:15:54Z</time>
      </trkpt>
      <trkpt lat="34.821551973000169" lon="-2.910282025113702">
        <ele>345.69999999999999</ele>
        <time>2003-04-19T19:16:00Z</time>
      </trkpt>
      <trkpt lat="34.822174999862909" lon="-2.909424975514412">
        <ele>349.89999999999998</ele>
        <time>2003-04-19T19:16:04Z</time>
      </trkpt>
      <trkpt lat="34.822599962353706" lon="-2.908662976697087">
        <ele>352.30000000000001</ele>
        <time>2003-04-19T19:16:08Z</time>
      </trkpt>
      <trkpt lat="34.823070019483566" lon="-2.907627979293466">
        <ele>354</ele>
        <time>2003-04-19T19:16:13Z</time>
      </trkpt>
      <trkpt lat="34.823473021388054" lon="-2.906488040462136">
        <ele>353.89999999999998</ele>
        <time>2003-04-19T19:16:19Z</time>
      </trkpt>
      <trkpt lat="34.823892032727599" lon="-2.905260007828474">
        <ele>353.30000000000001</ele>
        <time>2003-04-19T19:16:24Z</time>
      </trkpt>
      <trkpt lat="34.82423803769052" lon="-2.904240014031529">
        <ele>352.39999999999998</ele>
        <time>2003-04-19T19:16:28Z</time>
      </trkpt>
      <trkpt lat="34.824670040979981" lon="-2.902992032468319">
        <ele>352</ele>
        <time>2003-04-19T19:16:32Z</time>
      </trkpt>
      <trkpt lat="34.825092991814017" lon="-2.901746984571219">
        <ele>352.10000000000002</ele>
        <time>2003-04-19T19:16:38Z</time>
      </trkpt>
      <trkpt lat="34.825496999546885" lon="-2.900534961372614">
        <ele>352.30000000000001</ele>
        <time>2003-04-19T19:16:43Z</time>
      </trkpt>
      <trkpt lat="34.825912993401289" lon="-2.899314975365996">
        <ele>353.19999999999999</ele>
        <time>2003-04-19T19:16:47Z</time>
      </trkpt>
      <trkpt lat="34.826337033882737" lon="-2.898067999631167">
        <ele>354</ele>
        <time>2003-04-19T19:16:53Z</time>
      </trkpt>
      <trkpt lat="34.826684966683388" lon="-2.897047000005841">
        <ele>354.10000000000002</ele>
        <time>2003-04-19T19:16:57Z</time>
      </trkpt>
      <trkpt lat="34.827112024649978" lon="-2.895803041756153">
        <ele>352.80000000000001</ele>
        <time>2003-04-19T19:17:02Z</time>
      </trkpt>
      <trkpt lat="34.827527012676001" lon="-2.894595041871071">
        <ele>349.69999999999999</ele>
        <time>2003-04-19T19:17:06Z</time>
      </trkpt>
      <trkpt lat="34.827949963510036" lon="-2.893368015065789">
        <ele>345.89999999999998</ele>
        <time>2003-04-19T19:17:11Z</time>
      </trkpt>
      <trkpt lat="34.828160014003515" lon="-2.892627976834774">
        <ele>344.19999999999999</ele>
        <time>2003-04-19T19:17:14Z</time>
      </trkpt>
      <trkpt lat="34.828426977619529" lon="-2.891370020806789">
        <ele>340.80000000000001</ele>
        <time>2003-04-19T19:17:20Z</time>
      </trkpt>
      <trkpt lat="34.82870802283287" lon="-2.890064958482981">
        <ele>338</ele>
        <time>2003-04-19T19:17:25Z</time>
      </trkpt>
      <trkpt lat="34.828932993113995" lon="-2.888962989673019">
        <ele>336.60000000000002</ele>
        <time>2003-04-19T19:17:29Z</time>
      </trkpt>
      <trkpt lat="34.829168021678925" lon="-2.887879963964224">
        <ele>338</ele>
        <time>2003-04-19T19:17:33Z</time>
      </trkpt>
      <trkpt lat="34.829459963366389" lon="-2.886642962694168">
        <ele>342.5</ele>
        <time>2003-04-19T19:17:37Z</time>
      </trkpt>
      <trkpt lat="34.829876963049173" lon="-2.885612994432449">
        <ele>347.19999999999999</ele>
        <time>2003-04-19T19:17:42Z</time>
      </trkpt>
      <trkpt lat="34.830390019342303" lon="-2.884683022275567">
        <ele>351.39999999999998</ele>
        <time>2003-04-19T19:17:48Z</time>
      </trkpt>
      <trkpt lat="34.830989995971322" lon="-2.883609971031547">
        <ele>356.10000000000002</ele>
        <time>2003-04-19T19:17:53Z</time>
      </trkpt>
      <trkpt lat="34.831577986478806" lon="-2.882514959201217">
        <ele>360.19999999999999</ele>
        <time>2003-04-19T19:18:00Z</time>
      </trkpt>
      <trkpt lat="34.832091964781284" lon="-2.881594961509109">
        <ele>364.10000000000002</ele>
        <time>2003-04-19T19:18:04Z</time>
      </trkpt>
      <trkpt lat="34.832694958895445" lon="-2.880577985197306">
        <ele>366.19999999999999</ele>
        <time>2003-04-19T19:18:11Z</time>
      </trkpt>
      <trkpt lat="34.833065019920468" lon="-2.88015796802938">
        <ele>366.19999999999999</ele>
        <time>2003-04-19T19:18:14Z</time>
      </trkpt>
      <trkpt lat="34.833849985152483" lon="-2.879445003345609">
        <ele>364.80000000000001</ele>
        <time>2003-04-19T19:18:19Z</time>
      </trkpt>
      <trkpt lat="34.834678033366799" lon="-2.878766991198063">
        <ele>360.39999999999998</ele>
        <time>2003-04-19T19:18:26Z</time>
      </trkpt>
      <trkpt lat="34.835532987490296" lon="-2.878114962950349">
        <ele>361.19999999999999</ele>
        <time>2003-04-19T19:18:31Z</time>
      </trkpt>
      <trkpt lat="34.836411997675896" lon="-2.877726964652538">
        <ele>361.5</ele>
        <time>2003-04-19T19:18:38Z</time>
      </trkpt>
      <trkpt lat="34.837295031175017" lon="-2.877393029630184">
        <ele>360.89999999999998</ele>
        <time>2003-04-19T19:18:43Z</time>
      </trkpt>
      <trkpt lat="34.838042026385665" lon="-2.877267971634865">
        <ele>361.80000000000001</ele>
        <time>2003-04-19T19:18:49Z</time>
      </trkpt>
      <trkpt lat="34.838749961927533" lon="-2.877239976078272">
        <ele>362</ele>
        <time>2003-04-19T19:18:54Z</time>
      </trkpt>
      <trkpt lat="34.839689992368221" lon="-2.877322034910321">
        <ele>360.60000000000002</ele>
        <time>2003-04-19T19:18:59Z</time>
      </trkpt>
      <trkpt lat="34.8407600261271" lon="-2.877412978559732">
        <ele>357.89999999999998</ele>
        <time>2003-04-19T19:19:06Z</time>
      </trkpt>
      <trkpt lat="34.841518001630902" lon="-2.877587992697954">
        <ele>355</ele>
        <time>2003-04-19T19:19:10Z</time>
      </trkpt>
      <trkpt lat="34.842327022925019" lon="-2.877797959372401">
        <ele>352.10000000000002</ele>
        <time>2003-04-19T19:19:13Z</time>
      </trkpt>
      <trkpt lat="34.843399990350008" lon="-2.878067018464208">
        <ele>348.39999999999998</ele>
        <time>2003-04-19T19:19:18Z</time>
      </trkpt>
      <trkpt lat="34.844470024108887" lon="-2.878338005393744">
        <ele>344.69999999999999</ele>
        <time>2003-04-19T19:19:24Z</time>
      </trkpt>
      <trkpt lat="34.845469985157251" lon="-2.878600023686886">
        <ele>339.5</ele>
        <time>2003-04-19T19:19:29Z</time>
      </trkpt>
      <trkpt lat="34.846012964844704" lon="-2.87882499396801">
        <ele>335.89999999999998</ele>
        <time>2003-04-19T19:19:32Z</time>
      </trkpt>
      <trkpt lat="34.846502970904112" lon="-2.879132023081183">
        <ele>332.60000000000002</ele>
        <time>2003-04-19T19:19:35Z</time>
      </trkpt>
      <trkpt lat="34.847315009683371" lon="-2.879675002768636">
        <ele>326.39999999999998</ele>
        <time>2003-04-19T19:19:40Z</time>
      </trkpt>
      <trkpt lat="34.848056975752115" lon="-2.88005000911653">
        <ele>321.19999999999999</ele>
        <time>2003-04-19T19:19:44Z</time>
      </trkpt>
      <trkpt lat="34.848456960171461" lon="-2.880150005221367">
        <ele>318.39999999999998</ele>
        <time>2003-04-19T19:19:45Z</time>
      </trkpt>
      <trkpt lat="34.849511990323663" lon="-2.88026500493288">
        <ele>312.69999999999999</ele>
        <time>2003-04-19T19:19:51Z</time>
      </trkpt>
      <trkpt lat="34.849730003625154" lon="-2.880259975790978">
        <ele>311.89999999999998</ele>
        <time>2003-04-19T19:19:52Z</time>
      </trkpt>
      <trkpt lat="34.85017298720777" lon="-2.880262993276119">
        <ele>310.10000000000002</ele>
        <time>2003-04-19T19:19:53Z</time>
      </trkpt>
      <trkpt lat="34.850849993526936" lon="-2.880257964134216">
        <ele>307.69999999999999</ele>
        <time>2003-04-19T19:19:56Z</time>
      </trkpt>
      <trkpt lat="34.851294988766313" lon="-2.88017800077796">
        <ele>306.69999999999999</ele>
        <time>2003-04-19T19:19:59Z</time>
      </trkpt>
      <trkpt lat="34.852178022265434" lon="-2.879886981099844">
        <ele>304</ele>
        <time>2003-04-19T19:20:03Z</time>
      </trkpt>
      <trkpt lat="34.853085028007627" lon="-2.879599984735251">
        <ele>301.30000000000001</ele>
        <time>2003-04-19T19:20:07Z</time>
      </trkpt>
      <trkpt lat="34.853960014879704" lon="-2.879305025562644">
        <ele>299.69999999999999</ele>
        <time>2003-04-19T19:20:11Z</time>
      </trkpt>
      <trkpt lat="34.854991994798183" lon="-2.879003025591373">
        <ele>298.10000000000002</ele>
        <time>2003-04-19T19:20:15Z</time>
      </trkpt>
      <trkpt lat="34.855382004752755" lon="-2.879002019762993">
        <ele>297.10000000000002</ele>
        <time>2003-04-19T19:20:18Z</time>
      </trkpt>
      <trkpt lat="34.856371991336346" lon="-2.879063040018082">
        <ele>294.80000000000001</ele>
        <time>2003-04-19T19:20:23Z</time>
      </trkpt>
      <trkpt lat="34.856571983546019" lon="-2.879063040018082">
        <ele>294.80000000000001</ele>
        <time>2003-04-19T19:20:23Z</time>
      </trkpt>
      <trkpt lat="34.85676703043282" lon="-2.879069996997714">
        <ele>293.80000000000001</ele>
        <time>2003-04-19T19:20:24Z</time>
      </trkpt>
      <trkpt lat="34.857522994279861" lon="-2.879172004759312">
        <ele>291.89999999999998</ele>
        <time>2003-04-19T19:20:29Z</time>
      </trkpt>
      <trkpt lat="34.858435029163957" lon="-2.879584981128573">
        <ele>287.30000000000001</ele>
        <time>2003-04-19T19:20:34Z</time>
      </trkpt>
      <trkpt lat="34.859437001869082" lon="-2.880059983581305">
        <ele>281.10000000000002</ele>
        <time>2003-04-19T19:20:38Z</time>
      </trkpt>
      <trkpt lat="34.860463030636311" lon="-2.880489975214005">
        <ele>276.10000000000002</ele>
        <time>2003-04-19T19:20:43Z</time>
      </trkpt>
      <trkpt lat="34.861071975901723" lon="-2.880600029602647">
        <ele>274.39999999999998</ele>
        <time>2003-04-19T19:20:46Z</time>
      </trkpt>
      <trkpt lat="34.861846966668963" lon="-2.880602041259408">
        <ele>275.19999999999999</ele>
        <time>2003-04-19T19:20:50Z</time>
      </trkpt>
      <trkpt lat="34.862517016008496" lon="-2.880368018522859">
        <ele>278.80000000000001</ele>
        <time>2003-04-19T19:20:54Z</time>
      </trkpt>
      <trkpt lat="34.862993024289608" lon="-2.880099965259433">
        <ele>281</ele>
        <time>2003-04-19T19:20:58Z</time>
      </trkpt>
      <trkpt lat="34.863873040303588" lon="-2.879362022504211">
        <ele>285.5</ele>
        <time>2003-04-19T19:21:04Z</time>
      </trkpt>
      <trkpt lat="34.864257015287876" lon="-2.878896994516254">
        <ele>287</ele>
        <time>2003-04-19T19:21:06Z</time>
      </trkpt>
      <trkpt lat="34.86458701081574" lon="-2.878368012607098">
        <ele>287.5</ele>
        <time>2003-04-19T19:21:09Z</time>
      </trkpt>
      <trkpt lat="34.864730006083846" lon="-2.877976996824145">
        <ele>287.69999999999999</ele>
        <time>2003-04-19T19:21:12Z</time>
      </trkpt>
      <trkpt lat="34.865067964419723" lon="-2.876920038834214">
        <ele>287.39999999999998</ele>
        <time>2003-04-19T19:21:17Z</time>
      </trkpt>
      <trkpt lat="34.865420004352927" lon="-2.875827960669994">
        <ele>285.60000000000002</ele>
        <time>2003-04-19T19:21:21Z</time>
      </trkpt>
      <trkpt lat="34.8657719604671" lon="-2.874773014336824">
        <ele>283.80000000000001</ele>
        <time>2003-04-19T19:21:27Z</time>
      </trkpt>
      <trkpt lat="34.866036996245384" lon="-2.874217964708805">
        <ele>283.5</ele>
        <time>2003-04-19T19:21:29Z</time>
      </trkpt>
      <trkpt lat="34.866449972614646" lon="-2.873619999736548">
        <ele>283.80000000000001</ele>
        <time>2003-04-19T19:21:33Z</time>
      </trkpt>
      <trkpt lat="34.866700004786253" lon="-2.873397041112185">
        <ele>284</ele>
        <time>2003-04-19T19:21:36Z</time>
      </trkpt>
      <trkpt lat="34.867569962516427" lon="-2.872790023684502">
        <ele>282.5</ele>
        <time>2003-04-19T19:21:41Z</time>
      </trkpt>
      <trkpt lat="34.868385018780828" lon="-2.872217958793044">
        <ele>280.5</ele>
        <time>2003-04-19T19:21:47Z</time>
      </trkpt>
      <trkpt lat="34.869248019531369" lon="-2.871638014912605">
        <ele>279.30000000000001</ele>
        <time>2003-04-19T19:21:52Z</time>
      </trkpt>
      <trkpt lat="34.870138010010123" lon="-2.871180027723312">
        <ele>276.19999999999999</ele>
        <time>2003-04-19T19:21:56Z</time>
      </trkpt>
      <trkpt lat="34.871084997430444" lon="-2.870792029425502">
        <ele>273.19999999999999</ele>
        <time>2003-04-19T19:22:02Z</time>
      </trkpt>
      <trkpt lat="34.87210700288415" lon="-2.87035801447928">
        <ele>271</ele>
        <time>2003-04-19T19:22:07Z</time>
      </trkpt>
      <trkpt lat="34.873154992237687" lon="-2.869936991482973">
        <ele>268.89999999999998</ele>
        <time>2003-04-19T19:22:11Z</time>
      </trkpt>
      <trkpt lat="34.874210022389889" lon="-2.869493002071977">
        <ele>268.5</ele>
        <time>2003-04-19T19:22:17Z</time>
      </trkpt>
      <trkpt lat="34.875249965116382" lon="-2.869050018489361">
        <ele>269.19999999999999</ele>
        <time>2003-04-19T19:22:22Z</time>
      </trkpt>
      <trkpt lat="34.876217991113663" lon="-2.868703007698059">
        <ele>270.30000000000001</ele>
        <time>2003-04-19T19:22:26Z</time>
      </trkpt>
      <trkpt lat="34.877176964655519" lon="-2.868520030751824">
        <ele>272.80000000000001</ele>
        <time>2003-04-19T19:22:31Z</time>
      </trkpt>
      <trkpt lat="34.878065027296543" lon="-2.868477031588554">
        <ele>272.60000000000002</ele>
        <time>2003-04-19T19:22:37Z</time>
      </trkpt>
      <trkpt lat="34.878989970311522" lon="-2.868560012429953">
        <ele>270.60000000000002</ele>
        <time>2003-04-19T19:22:42Z</time>
      </trkpt>
      <trkpt lat="34.879963025450706" lon="-2.86868498660624">
        <ele>266.69999999999999</ele>
        <time>2003-04-19T19:22:46Z</time>
      </trkpt>
      <trkpt lat="34.880316993221641" lon="-2.868788000196219">
        <ele>265.19999999999999</ele>
        <time>2003-04-19T19:22:49Z</time>
      </trkpt>
      <trkpt lat="34.881168007850647" lon="-2.869207011535764">
        <ele>261.39999999999998</ele>
        <time>2003-04-19T19:22:53Z</time>
      </trkpt>
      <trkpt lat="34.882093034684658" lon="-2.869638008996844">
        <ele>257.10000000000002</ele>
        <time>2003-04-19T19:22:58Z</time>
      </trkpt>
      <trkpt lat="34.882684964686632" lon="-2.86980296485126">
        <ele>254.19999999999999</ele>
        <time>2003-04-19T19:23:01Z</time>
      </trkpt>
      <trkpt lat="34.883272033184767" lon="-2.869832972064614">
        <ele>252.30000000000001</ele>
        <time>2003-04-19T19:23:05Z</time>
      </trkpt>
      <trkpt lat="34.883655002340674" lon="-2.869755020365119">
        <ele>251.5</ele>
        <time>2003-04-19T19:23:06Z</time>
      </trkpt>
      <trkpt lat="34.884222960099578" lon="-2.869552010670304">
        <ele>250.19999999999999</ele>
        <time>2003-04-19T19:23:09Z</time>
      </trkpt>
      <trkpt lat="34.885138012468815" lon="-2.869010036811233">
        <ele>247.19999999999999</ele>
        <time>2003-04-19T19:23:15Z</time>
      </trkpt>
      <trkpt lat="34.886033032089472" lon="-2.868463033810258">
        <ele>244.30000000000001</ele>
        <time>2003-04-19T19:23:20Z</time>
      </trkpt>
      <trkpt lat="34.886901983991265" lon="-2.867928016930819">
        <ele>242.19999999999999</ele>
        <time>2003-04-19T19:23:24Z</time>
      </trkpt>
      <trkpt lat="34.887766996398568" lon="-2.86741697229445">
        <ele>239.40000000000001</ele>
        <time>2003-04-19T19:23:29Z</time>
      </trkpt>
      <trkpt lat="34.888752037659287" lon="-2.866980023682118">
        <ele>236.90000000000001</ele>
        <time>2003-04-19T19:23:36Z</time>
      </trkpt>
      <trkpt lat="34.889202984049916" lon="-2.866884972900152">
        <ele>235.59999999999999</ele>
        <time>2003-04-19T19:23:39Z</time>
      </trkpt>
      <trkpt lat="34.889357965439558" lon="-2.866890002042055">
        <ele>235</ele>
        <time>2003-04-19T19:23:40Z</time>
      </trkpt>
      <trkpt lat="34.890243010595441" lon="-2.86698798649013">
        <ele>230.19999999999999</ele>
        <time>2003-04-19T19:23:44Z</time>
      </trkpt>
      <trkpt lat="34.89082002080977" lon="-2.866993015632033">
        <ele>227.40000000000001</ele>
        <time>2003-04-19T19:23:47Z</time>
      </trkpt>
      <trkpt lat="34.89138001576066" lon="-2.866868041455746">
        <ele>224.80000000000001</ele>
        <time>2003-04-19T19:23:51Z</time>
      </trkpt>
      <trkpt lat="34.89174303598702" lon="-2.866722028702498">
        <ele>223</ele>
        <time>2003-04-19T19:23:52Z</time>
      </trkpt>
      <trkpt lat="34.892615005373955" lon="-2.866418017074466">
        <ele>218.80000000000001</ele>
        <time>2003-04-19T19:23:58Z</time>
      </trkpt>
      <trkpt lat="34.892971990630031" lon="-2.866366971284151">
        <ele>217.69999999999999</ele>
        <time>2003-04-19T19:23:59Z</time>
      </trkpt>
      <trkpt lat="34.893147004768252" lon="-2.866372000426054">
        <ele>217.19999999999999</ele>
        <time>2003-04-19T19:24:00Z</time>
      </trkpt>
      <trkpt lat="34.893671963363886" lon="-2.866454981267452">
        <ele>215.30000000000001</ele>
        <time>2003-04-19T19:24:03Z</time>
      </trkpt>
      <trkpt lat="34.894385011866689" lon="-2.866692021489143">
        <ele>212.80000000000001</ele>
        <time>2003-04-19T19:24:07Z</time>
      </trkpt>
      <trkpt lat="34.89529000595212" lon="-2.867167023941875">
        <ele>210.59999999999999</ele>
        <time>2003-04-19T19:24:13Z</time>
      </trkpt>
      <trkpt lat="34.89621696062386" lon="-2.867646971717477">
        <ele>209.90000000000001</ele>
        <time>2003-04-19T19:24:18Z</time>
      </trkpt>
      <trkpt lat="34.897087002173066" lon="-2.86810495890677">
        <ele>209.90000000000001</ele>
        <time>2003-04-19T19:24:22Z</time>
      </trkpt>
      <trkpt lat="34.897985039278865" lon="-2.868518019095063">
        <ele>211.09999999999999</ele>
        <time>2003-04-19T19:24:27Z</time>
      </trkpt>
      <trkpt lat="34.898933032527566" lon="-2.868814989924431">
        <ele>213.40000000000001</ele>
        <time>2003-04-19T19:24:33Z</time>
      </trkpt>
      <trkpt lat="34.899857975542545" lon="-2.869063010439277">
        <ele>215.69999999999999</ele>
        <time>2003-04-19T19:24:37Z</time>
      </trkpt>
      <trkpt lat="34.900773027911782" lon="-2.86932997405529">
        <ele>217.30000000000001</ele>
        <time>2003-04-19T19:24:42Z</time>
      </trkpt>
      <trkpt lat="34.901667041704059" lon="-2.869568020105362">
        <ele>218.40000000000001</ele>
        <time>2003-04-19T19:24:48Z</time>
      </trkpt>
      <trkpt lat="34.902559965848923" lon="-2.869815034791827">
        <ele>219.80000000000001</ele>
        <time>2003-04-19T19:24:53Z</time>
      </trkpt>
      <trkpt lat="34.903505025431514" lon="-2.870087027549744">
        <ele>221.19999999999999</ele>
        <time>2003-04-19T19:24:59Z</time>
      </trkpt>
      <trkpt lat="34.904472967609763" lon="-2.870379975065589">
        <ele>222.09999999999999</ele>
        <time>2003-04-19T19:25:04Z</time>
      </trkpt>
      <trkpt lat="34.905433030799031" lon="-2.870726985856891">
        <ele>222.80000000000001</ele>
        <time>2003-04-19T19:25:08Z</time>
      </trkpt>
      <trkpt lat="34.906398039311171" lon="-2.871147003024817">
        <ele>223.69999999999999</ele>
        <time>2003-04-19T19:25:13Z</time>
      </trkpt>
      <trkpt lat="34.907390037551522" lon="-2.871580012142658">
        <ele>224.69999999999999</ele>
        <time>2003-04-19T19:25:19Z</time>
      </trkpt>
      <trkpt lat="34.908411959186196" lon="-2.871998017653823">
        <ele>226.09999999999999</ele>
        <time>2003-04-19T19:25:24Z</time>
      </trkpt>
      <trkpt lat="34.90944704040885" lon="-2.872464973479509">
        <ele>227.80000000000001</ele>
        <time>2003-04-19T19:25:28Z</time>
      </trkpt>
      <trkpt lat="34.9105029925704" lon="-2.872907035052776">
        <ele>230.69999999999999</ele>
        <time>2003-04-19T19:25:34Z</time>
      </trkpt>
      <trkpt lat="34.911551987752318" lon="-2.873326968401671">
        <ele>233.40000000000001</ele>
        <time>2003-04-19T19:25:39Z</time>
      </trkpt>
      <trkpt lat="34.912309963256121" lon="-2.873492008075118">
        <ele>235.19999999999999</ele>
        <time>2003-04-19T19:25:43Z</time>
      </trkpt>
      <trkpt lat="34.913228033110499" lon="-2.873617988079786">
        <ele>236.69999999999999</ele>
        <time>2003-04-19T19:25:47Z</time>
      </trkpt>
      <trkpt lat="34.914177032187581" lon="-2.873742040246725">
        <ele>239.40000000000001</ele>
        <time>2003-04-19T19:25:53Z</time>
      </trkpt>
      <trkpt lat="34.915147991850972" lon="-2.873844970017672">
        <ele>241.40000000000001</ele>
        <time>2003-04-19T19:25:58Z</time>
      </trkpt>
      <trkpt lat="34.916117023676634" lon="-2.873958041891456">
        <ele>243</ele>
        <time>2003-04-19T19:26:02Z</time>
      </trkpt>
      <trkpt lat="34.917152021080256" lon="-2.874092990532517">
        <ele>244.5</ele>
        <time>2003-04-19T19:26:09Z</time>
      </trkpt>
      <trkpt lat="34.917860040441155" lon="-2.874245038256049">
        <ele>245.59999999999999</ele>
        <time>2003-04-19T19:26:13Z</time>
      </trkpt>
      <trkpt lat="34.918741984292865" lon="-2.874652985483408">
        <ele>247</ele>
        <time>2003-04-19T19:26:18Z</time>
      </trkpt>
      <trkpt lat="34.919653013348579" lon="-2.875094963237643">
        <ele>249.09999999999999</ele>
        <time>2003-04-19T19:26:22Z</time>
      </trkpt>
      <trkpt lat="34.92057804018259" lon="-2.875526966527104">
        <ele>252.5</ele>
        <time>2003-04-19T19:26:28Z</time>
      </trkpt>
      <trkpt lat="34.921522010117769" lon="-2.875922005623579">
        <ele>256.10000000000002</ele>
        <time>2003-04-19T19:26:33Z</time>
      </trkpt>
      <trkpt lat="34.922502022236586" lon="-2.876162985339761">
        <ele>260.10000000000002</ele>
        <time>2003-04-19T19:26:37Z</time>
      </trkpt>
      <trkpt lat="34.923523021861911" lon="-2.876321990042925">
        <ele>262.80000000000001</ele>
        <time>2003-04-19T19:26:42Z</time>
      </trkpt>
      <trkpt lat="34.924590038135648" lon="-2.876400025561452">
        <ele>266</ele>
        <time>2003-04-19T19:26:48Z</time>
      </trkpt>
      <trkpt lat="34.925656970590353" lon="-2.876491975039244">
        <ele>268.39999999999998</ele>
        <time>2003-04-19T19:26:52Z</time>
      </trkpt>
      <trkpt lat="34.926739996299148" lon="-2.87658803164959">
        <ele>270.5</ele>
        <time>2003-04-19T19:26:57Z</time>
      </trkpt>
      <trkpt lat="34.927823022007942" lon="-2.87671996280551">
        <ele>273.30000000000001</ele>
        <time>2003-04-19T19:27:03Z</time>
      </trkpt>
      <trkpt lat="34.928625002503395" lon="-2.876937976107001">
        <ele>276.69999999999999</ele>
        <time>2003-04-19T19:27:07Z</time>
      </trkpt>
      <trkpt lat="34.929578024893999" lon="-2.877339972183108">
        <ele>280.60000000000002</ele>
        <time>2003-04-19T19:27:12Z</time>
      </trkpt>
      <trkpt lat="34.930527023971081" lon="-2.877789996564388">
        <ele>284.89999999999998</ele>
        <time>2003-04-19T19:27:16Z</time>
      </trkpt>
      <trkpt lat="34.931452972814441" lon="-2.878246977925301">
        <ele>288.80000000000001</ele>
        <time>2003-04-19T19:27:22Z</time>
      </trkpt>
      <trkpt lat="34.932408006861806" lon="-2.878619972616434">
        <ele>291.80000000000001</ele>
        <time>2003-04-19T19:27:27Z</time>
      </trkpt>
      <trkpt lat="34.933375027030706" lon="-2.879000008106232">
        <ele>296.5</ele>
        <time>2003-04-19T19:27:31Z</time>
      </trkpt>
      <trkpt lat="34.934332994744182" lon="-2.879373002797365">
        <ele>301.80000000000001</ele>
        <time>2003-04-19T19:27:36Z</time>
      </trkpt>
      <trkpt lat="34.935172023251653" lon="-2.879811963066459">
        <ele>302.80000000000001</ele>
        <time>2003-04-19T19:27:42Z</time>
      </trkpt>
      <trkpt lat="34.936042986810207" lon="-2.880283026024699">
        <ele>301.10000000000002</ele>
        <time>2003-04-19T19:27:46Z</time>
      </trkpt>
      <trkpt lat="34.936898024752736" lon="-2.880727015435696">
        <ele>298.10000000000002</ele>
        <time>2003-04-19T19:27:51Z</time>
      </trkpt>
      <trkpt lat="34.93774501606822" lon="-2.881152983754873">
        <ele>292.89999999999998</ele>
        <time>2003-04-19T19:27:57Z</time>
      </trkpt>
      <trkpt lat="34.938683034852147" lon="-2.881623040884733">
        <ele>286.5</ele>
        <time>2003-04-19T19:28:02Z</time>
      </trkpt>
      <trkpt lat="34.939655000343919" lon="-2.882125033065677">
        <ele>281.10000000000002</ele>
        <time>2003-04-19T19:28:06Z</time>
      </trkpt>
      <trkpt lat="34.94064699858427" lon="-2.882642028853297">
        <ele>276.89999999999998</ele>
        <time>2003-04-19T19:28:12Z</time>
      </trkpt>
      <trkpt lat="34.941651988774538" lon="-2.883145026862621">
        <ele>271.19999999999999</ele>
        <time>2003-04-19T19:28:17Z</time>
      </trkpt>
      <trkpt lat="34.942677011713386" lon="-2.883671997115016">
        <ele>267.80000000000001</ele>
        <time>2003-04-19T19:28:21Z</time>
      </trkpt>
      <trkpt lat="34.943694993853569" lon="-2.884186981245875">
        <ele>264.80000000000001</ele>
        <time>2003-04-19T19:28:26Z</time>
      </trkpt>
      <trkpt lat="34.944712975993752" lon="-2.884704982861877">
        <ele>261.39999999999998</ele>
        <time>2003-04-19T19:28:32Z</time>
      </trkpt>
      <trkpt lat="34.945731963962317" lon="-2.885221978649497">
        <ele>257.80000000000001</ele>
        <time>2003-04-19T19:28:37Z</time>
      </trkpt>
      <trkpt lat="34.946702001616359" lon="-2.885847017168999">
        <ele>253.59999999999999</ele>
        <time>2003-04-19T19:28:41Z</time>
      </trkpt>
      <trkpt lat="34.947642032057047" lon="-2.886532992124558">
        <ele>249.59999999999999</ele>
        <time>2003-04-19T19:28:47Z</time>
      </trkpt>
      <trkpt lat="34.948592036962509" lon="-2.887219972908497">
        <ele>246.30000000000001</ele>
        <time>2003-04-19T19:28:52Z</time>
      </trkpt>
      <trkpt lat="34.949552016332746" lon="-2.887897985056043">
        <ele>243.09999999999999</ele>
        <time>2003-04-19T19:28:56Z</time>
      </trkpt>
      <trkpt lat="34.950509984046221" lon="-2.888602986931801">
        <ele>240.09999999999999</ele>
        <time>2003-04-19T19:29:02Z</time>
      </trkpt>
      <trkpt lat="34.951287992298603" lon="-2.88915803655982">
        <ele>238</ele>
        <time>2003-04-19T19:29:06Z</time>
      </trkpt>
      <trkpt lat="34.952210001647472" lon="-2.889848034828901">
        <ele>235.5</ele>
        <time>2003-04-19T19:29:11Z</time>
      </trkpt>
      <trkpt lat="34.953036960214376" lon="-2.890539960935712">
        <ele>233.69999999999999</ele>
        <time>2003-04-19T19:29:15Z</time>
      </trkpt>
      <trkpt lat="34.953772975131869" lon="-2.891334984451532">
        <ele>231.59999999999999</ele>
        <time>2003-04-19T19:29:20Z</time>
      </trkpt>
      <trkpt lat="34.95450303889811" lon="-2.892179964110255">
        <ele>229.80000000000001</ele>
        <time>2003-04-19T19:29:26Z</time>
      </trkpt>
      <trkpt lat="34.955269983038306" lon="-2.89302502758801">
        <ele>228.19999999999999</ele>
        <time>2003-04-19T19:29:31Z</time>
      </trkpt>
      <trkpt lat="34.956055032089353" lon="-2.893894985318184">
        <ele>226.5</ele>
        <time>2003-04-19T19:29:35Z</time>
      </trkpt>
      <trkpt lat="34.956855000928044" lon="-2.89478799328208">
        <ele>225.09999999999999</ele>
        <time>2003-04-19T19:29:41Z</time>
      </trkpt>
      <trkpt lat="34.957671985030174" lon="-2.895713020116091">
        <ele>223.59999999999999</ele>
        <time>2003-04-19T19:29:46Z</time>
      </trkpt>
      <trkpt lat="34.958352008834481" lon="-2.896466972306371">
        <ele>222.40000000000001</ele>
        <time>2003-04-19T19:29:50Z</time>
      </trkpt>
      <trkpt lat="34.959011999890208" lon="-2.897240035235882">
        <ele>222.5</ele>
        <time>2003-04-19T19:29:54Z</time>
      </trkpt>
      <trkpt lat="34.95961700566113" lon="-2.898070011287928">
        <ele>222.5</ele>
        <time>2003-04-19T19:29:58Z</time>
      </trkpt>
      <trkpt lat="34.960231985896826" lon="-2.898903004825115">
        <ele>222.40000000000001</ele>
        <time>2003-04-19T19:30:01Z</time>
      </trkpt>
      <trkpt lat="34.960843026638031" lon="-2.899738010019064">
        <ele>222.5</ele>
        <time>2003-04-19T19:30:05Z</time>
      </trkpt>
      <trkpt lat="34.961481979116797" lon="-2.900528004392982">
        <ele>221.30000000000001</ele>
        <time>2003-04-19T19:30:09Z</time>
      </trkpt>
      <trkpt lat="34.962138030678034" lon="-2.901308024302125">
        <ele>220.09999999999999</ele>
        <time>2003-04-19T19:30:13Z</time>
      </trkpt>
      <trkpt lat="34.962810007855296" lon="-2.902083015069366">
        <ele>218.5</ele>
        <time>2003-04-19T19:30:17Z</time>
      </trkpt>
      <trkpt lat="34.963469998911023" lon="-2.90286798030138">
        <ele>216.5</ele>
        <time>2003-04-19T19:30:21Z</time>
      </trkpt>
      <trkpt lat="34.964256975799799" lon="-2.903808010742068">
        <ele>214.59999999999999</ele>
        <time>2003-04-19T19:30:27Z</time>
      </trkpt>
      <trkpt lat="34.965057028457522" lon="-2.904751980677247">
        <ele>212.69999999999999</ele>
        <time>2003-04-19T19:30:32Z</time>
      </trkpt>
      <trkpt lat="34.965830007568002" lon="-2.905663009732962">
        <ele>211.19999999999999</ele>
        <time>2003-04-19T19:30:36Z</time>
      </trkpt>
      <trkpt lat="34.966586977243423" lon="-2.906561968848109">
        <ele>209.69999999999999</ele>
        <time>2003-04-19T19:30:41Z</time>
      </trkpt>
      <trkpt lat="34.967370014637709" lon="-2.907492024824023">
        <ele>208.30000000000001</ele>
        <time>2003-04-19T19:30:47Z</time>
      </trkpt>
      <trkpt lat="34.968139976263046" lon="-2.908423002809286">
        <ele>207.09999999999999</ele>
        <time>2003-04-19T19:30:52Z</time>
      </trkpt>
      <trkpt lat="34.968917984515429" lon="-2.909317016601563">
        <ele>206.5</ele>
        <time>2003-04-19T19:30:56Z</time>
      </trkpt>
      <trkpt lat="34.969767993316054" lon="-2.910069962963462">
        <ele>205.09999999999999</ele>
        <time>2003-04-19T19:31:02Z</time>
      </trkpt>
      <trkpt lat="34.970631999894977" lon="-2.910798015072942">
        <ele>203.90000000000001</ele>
        <time>2003-04-19T19:31:07Z</time>
      </trkpt>
      <trkpt lat="34.971510004252195" lon="-2.911533024162054">
        <ele>202.90000000000001</ele>
        <time>2003-04-19T19:31:11Z</time>
      </trkpt>
      <trkpt lat="34.972427990287542" lon="-2.912177005782723">
        <ele>201.80000000000001</ele>
        <time>2003-04-19T19:31:17Z</time>
      </trkpt>
      <trkpt lat="34.973427029326558" lon="-2.912712022662163">
        <ele>200.40000000000001</ele>
        <time>2003-04-19T19:31:22Z</time>
      </trkpt>
      <trkpt lat="34.974287012591958" lon="-2.91307495906949">
        <ele>199.30000000000001</ele>
        <time>2003-04-19T19:31:26Z</time>
      </trkpt>
      <trkpt lat="34.975144984200597" lon="-2.913428004831076">
        <ele>198.90000000000001</ele>
        <time>2003-04-19T19:31:30Z</time>
      </trkpt>
      <trkpt lat="34.976013014093041" lon="-2.913793036714196">
        <ele>198.30000000000001</ele>
        <time>2003-04-19T19:31:34Z</time>
      </trkpt>
      <trkpt lat="34.976892024278641" lon="-2.914171982556582">
        <ele>198</ele>
        <time>2003-04-19T19:31:38Z</time>
      </trkpt>
      <trkpt lat="34.977774973958731" lon="-2.914540031924844">
        <ele>196.90000000000001</ele>
        <time>2003-04-19T19:31:42Z</time>
      </trkpt>
      <trkpt lat="34.978641998022795" lon="-2.914902968332171">
        <ele>196</ele>
        <time>2003-04-19T19:31:46Z</time>
      </trkpt>
      <trkpt lat="34.979699961841106" lon="-2.915355004370213">
        <ele>194.90000000000001</ele>
        <time>2003-04-19T19:31:50Z</time>
      </trkpt>
      <trkpt lat="34.980742000043392" lon="-2.915790025144815">
        <ele>193.69999999999999</ele>
        <time>2003-04-19T19:31:56Z</time>
      </trkpt>
      <trkpt lat="34.981771968305111" lon="-2.916295034810901">
        <ele>192.69999999999999</ele>
        <time>2003-04-19T19:32:01Z</time>
      </trkpt>
      <trkpt lat="34.9826929718256" lon="-2.916932981461287">
        <ele>190.59999999999999</ele>
        <time>2003-04-19T19:32:05Z</time>
      </trkpt>
      <trkpt lat="34.983544992282987" lon="-2.917662961408496">
        <ele>188.90000000000001</ele>
        <time>2003-04-19T19:32:11Z</time>
      </trkpt>
      <trkpt lat="34.984387038275599" lon="-2.918477011844516">
        <ele>186.80000000000001</ele>
        <time>2003-04-19T19:32:16Z</time>
      </trkpt>
      <trkpt lat="34.985252972692251" lon="-2.919302964583039">
        <ele>184.40000000000001</ele>
        <time>2003-04-19T19:32:20Z</time>
      </trkpt>
      <trkpt lat="34.985965015366673" lon="-2.919985000044107">
        <ele>183.90000000000001</ele>
        <time>2003-04-19T19:32:24Z</time>
      </trkpt>
      <trkpt lat="34.986845031380653" lon="-2.920810030773282">
        <ele>185.80000000000001</ele>
        <time>2003-04-19T19:32:29Z</time>
      </trkpt>
      <trkpt lat="34.987672995775938" lon="-2.921589966863394">
        <ele>187.90000000000001</ele>
        <time>2003-04-19T19:32:35Z</time>
      </trkpt>
      <trkpt lat="34.988497020676732" lon="-2.922378033399582">
        <ele>189.09999999999999</ele>
        <time>2003-04-19T19:32:40Z</time>
      </trkpt>
      <trkpt lat="34.989349963143468" lon="-2.923180013895035">
        <ele>189.80000000000001</ele>
        <time>2003-04-19T19:32:44Z</time>
      </trkpt>
      <trkpt lat="34.990217993035913" lon="-2.924007978290319">
        <ele>189.90000000000001</ele>
        <time>2003-04-19T19:32:50Z</time>
      </trkpt>
      <trkpt lat="34.991142014041543" lon="-2.924786992371082">
        <ele>189.30000000000001</ele>
        <time>2003-04-19T19:32:55Z</time>
      </trkpt>
      <trkpt lat="34.991932008415461" lon="-2.925316980108619">
        <ele>188.80000000000001</ele>
        <time>2003-04-19T19:32:59Z</time>
      </trkpt>
      <trkpt lat="34.99233802780509" lon="-2.925531975924969">
        <ele>189</ele>
        <time>2003-04-19T19:33:00Z</time>
      </trkpt>
      <trkpt lat="34.993367996066809" lon="-2.925968002527952">
        <ele>186.40000000000001</ele>
        <time>2003-04-19T19:33:06Z</time>
      </trkpt>
      <trkpt lat="34.993990017101169" lon="-2.926134970039129">
        <ele>184.5</ele>
        <time>2003-04-19T19:33:09Z</time>
      </trkpt>
      <trkpt lat="34.995031971484423" lon="-2.926336973905563">
        <ele>182.59999999999999</ele>
        <time>2003-04-19T19:33:14Z</time>
      </trkpt>
      <trkpt lat="34.996047019958496" lon="-2.926536966115236">
        <ele>181.09999999999999</ele>
        <time>2003-04-19T19:33:18Z</time>
      </trkpt>
      <trkpt lat="34.99704203568399" lon="-2.926782974973321">
        <ele>179</ele>
        <time>2003-04-19T19:33:23Z</time>
      </trkpt>
      <trkpt lat="34.997598007321358" lon="-2.927026972174645">
        <ele>177.40000000000001</ele>
        <time>2003-04-19T19:33:26Z</time>
      </trkpt>
      <trkpt lat="34.998124977573752" lon="-2.927374988794327">
        <ele>176.30000000000001</ele>
        <time>2003-04-19T19:33:30Z</time>
      </trkpt>
      <trkpt lat="34.998601991683245" lon="-2.927806992083788">
        <ele>175.30000000000001</ele>
        <time>2003-04-19T19:33:34Z</time>
      </trkpt>
      <trkpt lat="34.999042041599751" lon="-2.928290041163564">
        <ele>174</ele>
        <time>2003-04-19T19:33:36Z</time>
      </trkpt>
      <trkpt lat="34.99951696023345" lon="-2.929037036374211">
        <ele>172.40000000000001</ele>
        <time>2003-04-19T19:33:40Z</time>
      </trkpt>
      <trkpt lat="35.000077039003372" lon="-2.930025011301041">
        <ele>171</ele>
        <time>2003-04-19T19:33:45Z</time>
      </trkpt>
      <trkpt lat="35.000665029510856" lon="-2.931056991219521">
        <ele>170.59999999999999</ele>
        <time>2003-04-19T19:33:49Z</time>
      </trkpt>
      <trkpt lat="35.001274980604649" lon="-2.932113027200103">
        <ele>170.30000000000001</ele>
        <time>2003-04-19T19:33:56Z</time>
      </trkpt>
      <trkpt lat="35.001883003860712" lon="-2.93320300988853">
        <ele>169.69999999999999</ele>
        <time>2003-04-19T19:34:00Z</time>
      </trkpt>
      <trkpt lat="35.00250200740993" lon="-2.93427798897028">
        <ele>169</ele>
        <time>2003-04-19T19:34:05Z</time>
      </trkpt>
      <trkpt lat="35.003122016787529" lon="-2.935356991365552">
        <ele>168.69999999999999</ele>
        <time>2003-04-19T19:34:09Z</time>
      </trkpt>
      <trkpt lat="35.003746971487999" lon="-2.936455020681024">
        <ele>168.59999999999999</ele>
        <time>2003-04-19T19:34:16Z</time>
      </trkpt>
      <trkpt lat="35.004367986693978" lon="-2.937551960349083">
        <ele>168.5</ele>
        <time>2003-04-19T19:34:20Z</time>
      </trkpt>
      <trkpt lat="35.005002999678254" lon="-2.938619982451201">
        <ele>168.5</ele>
        <time>2003-04-19T19:34:26Z</time>
      </trkpt>
      <trkpt lat="35.005747983232141" lon="-2.939526988193393">
        <ele>167.69999999999999</ele>
        <time>2003-04-19T19:34:31Z</time>
      </trkpt>
      <trkpt lat="35.006267996504903" lon="-2.93997198343277">
        <ele>167.09999999999999</ele>
        <time>2003-04-19T19:34:34Z</time>
      </trkpt>
      <trkpt lat="35.007148012518883" lon="-2.940585035830736">
        <ele>166.19999999999999</ele>
        <time>2003-04-19T19:34:38Z</time>
      </trkpt>
      <trkpt lat="35.008036997169256" lon="-2.941102031618357">
        <ele>165.59999999999999</ele>
        <time>2003-04-19T19:34:43Z</time>
      </trkpt>
      <trkpt lat="35.008892035111785" lon="-2.941611986607313">
        <ele>164.90000000000001</ele>
        <time>2003-04-19T19:34:48Z</time>
      </trkpt>
      <trkpt lat="35.009752018377185" lon="-2.942123031243682">
        <ele>164</ele>
        <time>2003-04-19T19:34:54Z</time>
      </trkpt>
      <trkpt lat="35.010591968894005" lon="-2.94270196929574">
        <ele>163.09999999999999</ele>
        <time>2003-04-19T19:34:58Z</time>
      </trkpt>
      <trkpt lat="35.01141800545156" lon="-2.943404959514737">
        <ele>161.30000000000001</ele>
        <time>2003-04-19T19:35:03Z</time>
      </trkpt>
      <trkpt lat="35.012172963470221" lon="-2.944103004410863">
        <ele>159.19999999999999</ele>
        <time>2003-04-19T19:35:09Z</time>
      </trkpt>
      <trkpt lat="35.012676967307925" lon="-2.944450015202165">
        <ele>158.30000000000001</ele>
        <time>2003-04-19T19:35:11Z</time>
      </trkpt>
      <trkpt lat="35.013232016935945" lon="-2.94469996355474">
        <ele>157.5</ele>
        <time>2003-04-19T19:35:14Z</time>
      </trkpt>
      <trkpt lat="35.014219991862774" lon="-2.945122998207808">
        <ele>155.40000000000001</ele>
        <time>2003-04-19T19:35:20Z</time>
      </trkpt>
      <trkpt lat="35.01522297039628" lon="-2.945581991225481">
        <ele>154.80000000000001</ele>
        <time>2003-04-19T19:35:25Z</time>
      </trkpt>
      <trkpt lat="35.016225026920438" lon="-2.946032015606761">
        <ele>153.5</ele>
        <time>2003-04-19T19:35:29Z</time>
      </trkpt>
      <trkpt lat="35.017185006290674" lon="-2.946467036381364">
        <ele>152.19999999999999</ele>
        <time>2003-04-19T19:35:34Z</time>
      </trkpt>
      <trkpt lat="35.018154960125685" lon="-2.946887975558639">
        <ele>151.19999999999999</ele>
        <time>2003-04-19T19:35:40Z</time>
      </trkpt>
      <trkpt lat="35.019094990566373" lon="-2.947315033525229">
        <ele>150.40000000000001</ele>
        <time>2003-04-19T19:35:45Z</time>
      </trkpt>
      <trkpt lat="35.020037032663822" lon="-2.947730021551251">
        <ele>149.59999999999999</ele>
        <time>2003-04-19T19:35:49Z</time>
      </trkpt>
      <trkpt lat="35.021002041175961" lon="-2.948169987648726">
        <ele>148.59999999999999</ele>
        <time>2003-04-19T19:35:55Z</time>
      </trkpt>
      <trkpt lat="35.021971995010972" lon="-2.948599979281426">
        <ele>147.69999999999999</ele>
        <time>2003-04-19T19:36:00Z</time>
      </trkpt>
      <trkpt lat="35.022980002686381" lon="-2.949053021147847">
        <ele>147.09999999999999</ele>
        <time>2003-04-19T19:36:04Z</time>
      </trkpt>
      <trkpt lat="35.024035032838583" lon="-2.949443031102419">
        <ele>146.59999999999999</ele>
        <time>2003-04-19T19:36:09Z</time>
      </trkpt>
      <trkpt lat="35.025127027183771" lon="-2.949772020801902">
        <ele>145.90000000000001</ele>
        <time>2003-04-19T19:36:15Z</time>
      </trkpt>
      <trkpt lat="35.026166969910264" lon="-2.950175022706389">
        <ele>145.69999999999999</ele>
        <time>2003-04-19T19:36:19Z</time>
      </trkpt>
      <trkpt lat="35.02714698202908" lon="-2.950697969645262">
        <ele>144.30000000000001</ele>
        <time>2003-04-19T19:36:24Z</time>
      </trkpt>
      <trkpt lat="35.028141997754574" lon="-2.951234998181462">
        <ele>142.40000000000001</ele>
        <time>2003-04-19T19:36:30Z</time>
      </trkpt>
      <trkpt lat="35.029087979346514" lon="-2.951743025332689">
        <ele>140.5</ele>
        <time>2003-04-19T19:36:35Z</time>
      </trkpt>
      <trkpt lat="35.030032033100724" lon="-2.952263038605452">
        <ele>139.30000000000001</ele>
        <time>2003-04-19T19:36:39Z</time>
      </trkpt>
      <trkpt lat="35.031011961400509" lon="-2.952792020514607">
        <ele>138.59999999999999</ele>
        <time>2003-04-19T19:36:45Z</time>
      </trkpt>
      <trkpt lat="35.032027009874582" lon="-2.953332988545299">
        <ele>137.5</ele>
        <time>2003-04-19T19:36:50Z</time>
      </trkpt>
      <trkpt lat="35.032856985926628" lon="-2.953783012926579">
        <ele>136.5</ele>
        <time>2003-04-19T19:36:54Z</time>
      </trkpt>
      <trkpt lat="35.033701965585351" lon="-2.954239994287491">
        <ele>136</ele>
        <time>2003-04-19T19:36:58Z</time>
      </trkpt>
      <trkpt lat="35.034552980214357" lon="-2.95471197925508">
        <ele>135</ele>
        <time>2003-04-19T19:37:02Z</time>
      </trkpt>
      <trkpt lat="35.035425033420324" lon="-2.955165021121502">
        <ele>134</ele>
        <time>2003-04-19T19:37:06Z</time>
      </trkpt>
      <trkpt lat="35.036262972280383" lon="-2.955628037452698">
        <ele>132.80000000000001</ele>
        <time>2003-04-19T19:37:10Z</time>
      </trkpt>
      <trkpt lat="35.037292018532753" lon="-2.956173028796911">
        <ele>132</ele>
        <time>2003-04-19T19:37:14Z</time>
      </trkpt>
      <trkpt lat="35.038115037605166" lon="-2.956618024036288">
        <ele>131.69999999999999</ele>
        <time>2003-04-19T19:37:18Z</time>
      </trkpt>
      <trkpt lat="35.039145005866885" lon="-2.957153040915728">
        <ele>130.19999999999999</ele>
        <time>2003-04-19T19:37:24Z</time>
      </trkpt>
      <trkpt lat="35.040172040462494" lon="-2.957699960097671">
        <ele>129</ele>
        <time>2003-04-19T19:37:29Z</time>
      </trkpt>
      <trkpt lat="35.041007967665792" lon="-2.958149984478951">
        <ele>128.5</ele>
        <time>2003-04-19T19:37:33Z</time>
      </trkpt>
      <trkpt lat="35.041982028633356" lon="-2.958667986094952">
        <ele>127.7</ele>
        <time>2003-04-19T19:37:37Z</time>
      </trkpt>
      <trkpt lat="35.04293697886169" lon="-2.95918196439743">
        <ele>126.90000000000001</ele>
        <time>2003-04-19T19:37:43Z</time>
      </trkpt>
      <trkpt lat="35.043857982382178" lon="-2.959663001820445">
        <ele>126.8</ele>
        <time>2003-04-19T19:37:48Z</time>
      </trkpt>
      <trkpt lat="35.044661974534392" lon="-2.960086958482862">
        <ele>126.8</ele>
        <time>2003-04-19T19:37:52Z</time>
      </trkpt>
      <trkpt lat="35.045057013630867" lon="-2.96027697622776">
        <ele>127.09999999999999</ele>
        <time>2003-04-19T19:37:56Z</time>
      </trkpt>
      <trkpt lat="35.045411987230182" lon="-2.96038300730288">
        <ele>127</ele>
        <time>2003-04-19T19:37:59Z</time>
      </trkpt>
      <trkpt lat="35.045597981661558" lon="-2.960409997031093">
        <ele>126.8</ele>
        <time>2003-04-19T19:38:00Z</time>
      </trkpt>
      <trkpt lat="35.045748017728329" lon="-2.960387030616403">
        <ele>126.8</ele>
        <time>2003-04-19T19:38:03Z</time>
      </trkpt>
      <trkpt lat="35.04590299911797" lon="-2.960307989269495">
        <ele>126.59999999999999</ele>
        <time>2003-04-19T19:38:04Z</time>
      </trkpt>
      <trkpt lat="35.045982040464878" lon="-2.960243029519916">
        <ele>126.5</ele>
        <time>2003-04-19T19:38:06Z</time>
      </trkpt>
      <trkpt lat="35.046140039339662" lon="-2.960076984018087">
        <ele>126.3</ele>
        <time>2003-04-19T19:38:07Z</time>
      </trkpt>
      <trkpt lat="35.046476991847157" lon="-2.959668030962348">
        <ele>125.59999999999999</ele>
        <time>2003-04-19T19:38:11Z</time>
      </trkpt>
      <trkpt lat="35.046937996521592" lon="-2.95905196107924">
        <ele>124.8</ele>
        <time>2003-04-19T19:38:16Z</time>
      </trkpt>
      <trkpt lat="35.047590024769306" lon="-2.958202958106995">
        <ele>122.8</ele>
        <time>2003-04-19T19:38:23Z</time>
      </trkpt>
      <trkpt lat="35.048229983076453" lon="-2.95735202729702">
        <ele>121.40000000000001</ele>
        <time>2003-04-19T19:38:27Z</time>
      </trkpt>
      <trkpt lat="35.04891000688076" lon="-2.956481985747814">
        <ele>120.3</ele>
        <time>2003-04-19T19:38:33Z</time>
      </trkpt>
      <trkpt lat="35.049587013199925" lon="-2.955595012754202">
        <ele>119.2</ele>
        <time>2003-04-19T19:38:38Z</time>
      </trkpt>
      <trkpt lat="35.050307018682361" lon="-2.954679960384965">
        <ele>117</ele>
        <time>2003-04-19T19:38:42Z</time>
      </trkpt>
      <trkpt lat="35.051021995022893" lon="-2.953717969357967">
        <ele>115.40000000000001</ele>
        <time>2003-04-19T19:38:47Z</time>
      </trkpt>
      <trkpt lat="35.051760021597147" lon="-2.952763019129634">
        <ele>114.40000000000001</ele>
        <time>2003-04-19T19:38:53Z</time>
      </trkpt>
      <trkpt lat="35.052482038736343" lon="-2.951842015609145">
        <ele>113.40000000000001</ele>
        <time>2003-04-19T19:38:58Z</time>
      </trkpt>
      <trkpt lat="35.053216964006424" lon="-2.950953030958772">
        <ele>112.2</ele>
        <time>2003-04-19T19:39:02Z</time>
      </trkpt>
      <trkpt lat="35.053996983915567" lon="-2.950067985802889">
        <ele>111.5</ele>
        <time>2003-04-19T19:39:08Z</time>
      </trkpt>
      <trkpt lat="35.054789995774627" lon="-2.949208002537489">
        <ele>110.8</ele>
        <time>2003-04-19T19:39:13Z</time>
      </trkpt>
      <trkpt lat="35.0555270165205" lon="-2.948366962373257">
        <ele>109.90000000000001</ele>
        <time>2003-04-19T19:39:17Z</time>
      </trkpt>
      <trkpt lat="35.056199999526143" lon="-2.947474960237742">
        <ele>108.8</ele>
        <time>2003-04-19T19:39:23Z</time>
      </trkpt>
      <trkpt lat="35.056793019175529" lon="-2.94643803499639">
        <ele>106.90000000000001</ele>
        <time>2003-04-19T19:39:28Z</time>
      </trkpt>
      <trkpt lat="35.057295011356473" lon="-2.945288037881255">
        <ele>104.5</ele>
        <time>2003-04-19T19:39:32Z</time>
      </trkpt>
      <trkpt lat="35.057751992717385" lon="-2.944045001640916">
        <ele>102</ele>
        <time>2003-04-19T19:39:37Z</time>
      </trkpt>
      <trkpt lat="35.058124987408519" lon="-2.943034982308745">
        <ele>100.59999999999999</ele>
        <time>2003-04-19T19:39:41Z</time>
      </trkpt>
      <trkpt lat="35.058602001518011" lon="-2.941845003515482">
        <ele>99.099999999999994</ele>
        <time>2003-04-19T19:39:47Z</time>
      </trkpt>
      <trkpt lat="35.059035010635853" lon="-2.940608002245426">
        <ele>99.700000000000003</ele>
        <time>2003-04-19T19:39:52Z</time>
      </trkpt>
      <trkpt lat="35.059491991996765" lon="-2.939403019845486">
        <ele>102.09999999999999</ele>
        <time>2003-04-19T19:39:56Z</time>
      </trkpt>
      <trkpt lat="35.059917960315943" lon="-2.938235001638532">
        <ele>102.59999999999999</ele>
        <time>2003-04-19T19:40:02Z</time>
      </trkpt>
      <trkpt lat="35.060343006625772" lon="-2.937072012573481">
        <ele>101.8</ele>
        <time>2003-04-19T19:40:07Z</time>
      </trkpt>
      <trkpt lat="35.060780039057136" lon="-2.935884967446327">
        <ele>100.8</ele>
        <time>2003-04-19T19:40:11Z</time>
      </trkpt>
      <trkpt lat="35.061216987669468" lon="-2.934762965887785">
        <ele>99.799999999999997</ele>
        <time>2003-04-19T19:40:17Z</time>
      </trkpt>
      <trkpt lat="35.061706993728876" lon="-2.933662002906203">
        <ele>98.799999999999997</ele>
        <time>2003-04-19T19:40:22Z</time>
      </trkpt>
      <trkpt lat="35.062367990612984" lon="-2.932590041309595">
        <ele>98</ele>
        <time>2003-04-19T19:40:26Z</time>
      </trkpt>
      <trkpt lat="35.062842993065715" lon="-2.932006996124983">
        <ele>97.099999999999994</ele>
        <time>2003-04-19T19:40:30Z</time>
      </trkpt>
      <trkpt lat="35.063531985506415" lon="-2.931367037817836">
        <ele>96</ele>
        <time>2003-04-19T19:40:34Z</time>
      </trkpt>
      <trkpt lat="35.064481990411878" lon="-2.930717021226883">
        <ele>93.5</ele>
        <time>2003-04-19T19:40:38Z</time>
      </trkpt>
      <trkpt lat="35.065484968945384" lon="-2.930274959653616">
        <ele>90</ele>
        <time>2003-04-19T19:40:44Z</time>
      </trkpt>
      <trkpt lat="35.06642198190093" lon="-2.93008703738451">
        <ele>87.700000000000003</ele>
        <time>2003-04-19T19:40:49Z</time>
      </trkpt>
      <trkpt lat="35.066687017679214" lon="-2.930025011301041">
        <ele>87.200000000000003</ele>
        <time>2003-04-19T19:40:50Z</time>
      </trkpt>
      <trkpt lat="35.067030005156994" lon="-2.929901964962483">
        <ele>86.200000000000003</ele>
        <time>2003-04-19T19:40:53Z</time>
      </trkpt>
      <trkpt lat="35.067102005705237" lon="-2.929834993556142">
        <ele>86.099999999999994</ele>
        <time>2003-04-19T19:40:54Z</time>
      </trkpt>
      <trkpt lat="35.067233014851809" lon="-2.929771961644292">
        <ele>85.900000000000006</ele>
        <time>2003-04-19T19:40:57Z</time>
      </trkpt>
      <trkpt lat="35.067390007898211" lon="-2.929812027141452">
        <ele>85.299999999999997</ele>
        <time>2003-04-19T19:40:58Z</time>
      </trkpt>
      <trkpt lat="35.067582037299871" lon="-2.929814960807562">
        <ele>85</ele>
        <time>2003-04-19T19:41:01Z</time>
      </trkpt>
      <trkpt lat="35.067812036722898" lon="-2.929767016321421">
        <ele>84.700000000000003</ele>
        <time>2003-04-19T19:41:02Z</time>
      </trkpt>
      <trkpt lat="35.068325009196997" lon="-2.929662996903062">
        <ele>83.200000000000003</ele>
        <time>2003-04-19T19:41:06Z</time>
      </trkpt>
      <trkpt lat="35.068957004696131" lon="-2.929546991363168">
        <ele>81.700000000000003</ele>
        <time>2003-04-19T19:41:11Z</time>
      </trkpt>
      <trkpt lat="35.069995019584894" lon="-2.929341970011592">
        <ele>79.200000000000003</ele>
        <time>2003-04-19T19:41:16Z</time>
      </trkpt>
      <trkpt lat="35.070947958156466" lon="-2.929148012772203">
        <ele>76.700000000000003</ele>
        <time>2003-04-19T19:41:21Z</time>
      </trkpt>
      <trkpt lat="35.071969963610172" lon="-2.928963024169207">
        <ele>74.200000000000003</ele>
        <time>2003-04-19T19:41:27Z</time>
      </trkpt>
      <trkpt lat="35.072904964908957" lon="-2.928832015022636">
        <ele>71.700000000000003</ele>
        <time>2003-04-19T19:41:32Z</time>
      </trkpt>
      <trkpt lat="35.073264967650175" lon="-2.928827991709113">
        <ele>70.599999999999994</ele>
        <time>2003-04-19T19:41:33Z</time>
      </trkpt>
      <trkpt lat="35.074017997831106" lon="-2.928902003914118">
        <ele>69.099999999999994</ele>
        <time>2003-04-19T19:41:38Z</time>
      </trkpt>
      <trkpt lat="35.075009996071458" lon="-2.929152036085725">
        <ele>67.599999999999994</ele>
        <time>2003-04-19T19:41:43Z</time>
      </trkpt>
      <trkpt lat="35.075987996533513" lon="-2.929446995258331">
        <ele>67.400000000000006</ele>
        <time>2003-04-19T19:41:47Z</time>
      </trkpt>
      <trkpt lat="35.076931966468692" lon="-2.929798029363155">
        <ele>67.099999999999994</ele>
        <time>2003-04-19T19:41:52Z</time>
      </trkpt>
      <trkpt lat="35.077467989176512" lon="-2.930104974657297">
        <ele>67.099999999999994</ele>
        <time>2003-04-19T19:41:55Z</time>
      </trkpt>
      <trkpt lat="35.07832302711904" lon="-2.9306919593364">
        <ele>66.599999999999994</ele>
        <time>2003-04-19T19:42:00Z</time>
      </trkpt>
      <trkpt lat="35.07920203730464" lon="-2.931342981755734">
        <ele>66.200000000000003</ele>
        <time>2003-04-19T19:42:06Z</time>
      </trkpt>
      <trkpt lat="35.080081969499588" lon="-2.932013031095266">
        <ele>66</ele>
        <time>2003-04-19T19:42:10Z</time>
      </trkpt>
      <trkpt lat="35.080931978300214" lon="-2.93266799300909">
        <ele>66.099999999999994</ele>
        <time>2003-04-19T19:42:15Z</time>
      </trkpt>
      <trkpt lat="35.081806965172291" lon="-2.933327984064817">
        <ele>66.299999999999997</ele>
        <time>2003-04-19T19:42:21Z</time>
      </trkpt>
      <trkpt lat="35.082672983407974" lon="-2.93397699482739">
        <ele>66</ele>
        <time>2003-04-19T19:42:26Z</time>
      </trkpt>
      <trkpt lat="35.083398018032312" lon="-2.934415033087134">
        <ele>65.799999999999997</ele>
        <time>2003-04-19T19:42:30Z</time>
      </trkpt>
      <trkpt lat="35.084347017109394" lon="-2.934813005849719">
        <ele>65.900000000000006</ele>
        <time>2003-04-19T19:42:34Z</time>
      </trkpt>
      <trkpt lat="35.084942970424891" lon="-2.934932028874755">
        <ele>65.799999999999997</ele>
        <time>2003-04-19T19:42:37Z</time>
      </trkpt>
      <trkpt lat="35.085927005857229" lon="-2.935012998059392">
        <ele>64.900000000000006</ele>
        <time>2003-04-19T19:42:42Z</time>
      </trkpt>
      <trkpt lat="35.08612297475338" lon="-2.935005035251379">
        <ele>64.799999999999997</ele>
        <time>2003-04-19T19:42:44Z</time>
      </trkpt>
      <trkpt lat="35.086905006319284" lon="-2.93487997725606">
        <ele>63.600000000000001</ele>
        <time>2003-04-19T19:42:48Z</time>
      </trkpt>
      <trkpt lat="35.087919970974326" lon="-2.934613013640046">
        <ele>61.5</ele>
        <time>2003-04-19T19:42:53Z</time>
      </trkpt>
      <trkpt lat="35.088950023055077" lon="-2.934310007840395">
        <ele>60.700000000000003</ele>
        <time>2003-04-19T19:42:57Z</time>
      </trkpt>
      <trkpt lat="35.089994994923472" lon="-2.933995015919209">
        <ele>60.299999999999997</ele>
        <time>2003-04-19T19:43:03Z</time>
      </trkpt>
      <trkpt lat="35.091067962348461" lon="-2.933684969320893">
        <ele>59.600000000000001</ele>
        <time>2003-04-19T19:43:08Z</time>
      </trkpt>
      <trkpt lat="35.09216196835041" lon="-2.933366959914565">
        <ele>59.299999999999997</ele>
        <time>2003-04-19T19:43:12Z</time>
      </trkpt>
      <trkpt lat="35.093244994059205" lon="-2.933060014620423">
        <ele>59</ele>
        <time>2003-04-19T19:43:17Z</time>
      </trkpt>
      <trkpt lat="35.09433195926249" lon="-2.932747034355998">
        <ele>59.100000000000001</ele>
        <time>2003-04-19T19:43:23Z</time>
      </trkpt>
      <trkpt lat="35.095399981364608" lon="-2.932403041049838">
        <ele>58.700000000000003</ele>
        <time>2003-04-19T19:43:28Z</time>
      </trkpt>
      <trkpt lat="35.096477977931499" lon="-2.932101963087916">
        <ele>58.200000000000003</ele>
        <time>2003-04-19T19:43:32Z</time>
      </trkpt>
      <trkpt lat="35.097567038610578" lon="-2.931774985045195">
        <ele>57.600000000000001</ele>
        <time>2003-04-19T19:43:38Z</time>
      </trkpt>
      <trkpt lat="35.098651992157102" lon="-2.931454963982105">
        <ele>56.399999999999999</ele>
        <time>2003-04-19T19:43:43Z</time>
      </trkpt>
      <trkpt lat="35.099669974297285" lon="-2.931166961789131">
        <ele>55.200000000000003</ele>
        <time>2003-04-19T19:43:47Z</time>
      </trkpt>
      <trkpt lat="35.100672030821443" lon="-2.930869990959764">
        <ele>54.399999999999999</ele>
        <time>2003-04-19T19:43:53Z</time>
      </trkpt>
      <trkpt lat="35.101692024618387" lon="-2.930557010695338">
        <ele>53.399999999999999</ele>
        <time>2003-04-19T19:43:58Z</time>
      </trkpt>
      <trkpt lat="35.102753005921841" lon="-2.930242018774152">
        <ele>51.299999999999997</ele>
        <time>2003-04-19T19:44:02Z</time>
      </trkpt>
      <trkpt lat="35.103630004450679" lon="-2.929974971339107">
        <ele>50.399999999999999</ele>
        <time>2003-04-19T19:44:06Z</time>
      </trkpt>
      <trkpt lat="35.104517983272672" lon="-2.929716976359487">
        <ele>49.399999999999999</ele>
        <time>2003-04-19T19:44:10Z</time>
      </trkpt>
      <trkpt lat="35.105612995103002" lon="-2.929397039115429">
        <ele>48.100000000000001</ele>
        <time>2003-04-19T19:44:15Z</time>
      </trkpt>
      <trkpt lat="35.106512038037181" lon="-2.929124962538481">
        <ele>46.700000000000003</ele>
        <time>2003-04-19T19:44:20Z</time>
      </trkpt>
      <trkpt lat="35.107430024072528" lon="-2.928856993094087">
        <ele>45.600000000000001</ele>
        <time>2003-04-19T19:44:24Z</time>
      </trkpt>
      <trkpt lat="35.108333006501198" lon="-2.928588017821312">
        <ele>44.5</ele>
        <time>2003-04-19T19:44:28Z</time>
      </trkpt>
      <trkpt lat="35.109225008636713" lon="-2.928312001749873">
        <ele>43</ele>
        <time>2003-04-19T19:44:32Z</time>
      </trkpt>
      <trkpt lat="35.110122039914131" lon="-2.928064987063408">
        <ele>41.899999999999999</ele>
        <time>2003-04-19T19:44:36Z</time>
      </trkpt>
      <trkpt lat="35.111019993200898" lon="-2.927797017619014">
        <ele>40.399999999999999</ele>
        <time>2003-04-19T19:44:40Z</time>
      </trkpt>
      <trkpt lat="35.112067982554436" lon="-2.927482025697827">
        <ele>39.799999999999997</ele>
        <time>2003-04-19T19:44:45Z</time>
      </trkpt>
      <trkpt lat="35.113037014380097" lon="-2.927197962999344">
        <ele>38.399999999999999</ele>
        <time>2003-04-19T19:44:49Z</time>
      </trkpt>
      <trkpt lat="35.114032030105591" lon="-2.92690803296864">
        <ele>37</ele>
        <time>2003-04-19T19:44:56Z</time>
      </trkpt>
      <trkpt lat="35.115046994760633" lon="-2.926602009683847">
        <ele>35.399999999999999</ele>
        <time>2003-04-19T19:45:00Z</time>
      </trkpt>
      <trkpt lat="35.116096995770931" lon="-2.926290035247803">
        <ele>34.399999999999999</ele>
        <time>2003-04-19T19:45:05Z</time>
      </trkpt>
      <trkpt lat="35.117165017873049" lon="-2.925974959507585">
        <ele>33.600000000000001</ele>
        <time>2003-04-19T19:45:11Z</time>
      </trkpt>
      <trkpt lat="35.118219964206219" lon="-2.925658039748669">
        <ele>32.299999999999997</ele>
        <time>2003-04-19T19:45:16Z</time>
      </trkpt>
      <trkpt lat="35.119259990751743" lon="-2.925367020070553">
        <ele>31.199999999999999</ele>
        <time>2003-04-19T19:45:20Z</time>
      </trkpt>
      <trkpt lat="35.120328012853861" lon="-2.92503803037107">
        <ele>30.199999999999999</ele>
        <time>2003-04-19T19:45:26Z</time>
      </trkpt>
      <trkpt lat="35.121222026646137" lon="-2.924775006249547">
        <ele>29</ele>
        <time>2003-04-19T19:45:30Z</time>
      </trkpt>
      <trkpt lat="35.122121991589665" lon="-2.92450200766325">
        <ele>28.300000000000001</ele>
        <time>2003-04-19T19:45:34Z</time>
      </trkpt>
      <trkpt lat="35.123036960139871" lon="-2.924236971884966">
        <ele>26.899999999999999</ele>
        <time>2003-04-19T19:45:38Z</time>
      </trkpt>
      <trkpt lat="35.123940026387572" lon="-2.923967996612191">
        <ele>25.699999999999999</ele>
        <time>2003-04-19T19:45:42Z</time>
      </trkpt>
      <trkpt lat="35.124982986599207" lon="-2.923661973327398">
        <ele>24.600000000000001</ele>
        <time>2003-04-19T19:45:46Z</time>
      </trkpt>
      <trkpt lat="35.125959981232882" lon="-2.923371959477663">
        <ele>23.300000000000001</ele>
        <time>2003-04-19T19:45:51Z</time>
      </trkpt>
      <trkpt lat="35.126930018886924" lon="-2.92308496311307">
        <ele>22.300000000000001</ele>
        <time>2003-04-19T19:45:57Z</time>
      </trkpt>
      <trkpt lat="35.127892009913921" lon="-2.922802995890379">
        <ele>22.300000000000001</ele>
        <time>2003-04-19T19:46:02Z</time>
      </trkpt>
      <trkpt lat="35.128847965970635" lon="-2.922514993697405">
        <ele>22.100000000000001</ele>
        <time>2003-04-19T19:46:06Z</time>
      </trkpt>
      <trkpt lat="35.129518015310168" lon="-2.922321958467364">
        <ele>21.800000000000001</ele>
        <time>2003-04-19T19:46:10Z</time>
      </trkpt>
      <trkpt lat="35.130540020763874" lon="-2.922097994014621">
        <ele>20.899999999999999</ele>
        <time>2003-04-19T19:46:17Z</time>
      </trkpt>
      <trkpt lat="35.131239993497729" lon="-2.922075027599931">
        <ele>20.100000000000001</ele>
        <time>2003-04-19T19:46:21Z</time>
      </trkpt>
      <trkpt lat="35.13207801617682" lon="-2.9221819806844">
        <ele>20.100000000000001</ele>
        <time>2003-04-19T19:46:25Z</time>
      </trkpt>
      <trkpt lat="35.133082000538707" lon="-2.922494960948825">
        <ele>19.899999999999999</ele>
        <time>2003-04-19T19:46:32Z</time>
      </trkpt>
      <trkpt lat="35.13386202044785" lon="-2.922886982560158">
        <ele>19.600000000000001</ele>
        <time>2003-04-19T19:46:37Z</time>
      </trkpt>
      <trkpt lat="35.134757040068507" lon="-2.92342996224761">
        <ele>19.300000000000001</ele>
        <time>2003-04-19T19:46:43Z</time>
      </trkpt>
      <trkpt lat="35.135649964213371" lon="-2.923942012712359">
        <ele>18.800000000000001</ele>
        <time>2003-04-19T19:46:48Z</time>
      </trkpt>
      <trkpt lat="35.136627964675426" lon="-2.924407962709665">
        <ele>18.300000000000001</ele>
        <time>2003-04-19T19:46:55Z</time>
      </trkpt>
      <trkpt lat="35.137517033144832" lon="-2.924709962680936">
        <ele>18.100000000000001</ele>
        <time>2003-04-19T19:47:00Z</time>
      </trkpt>
      <trkpt lat="35.138571979478002" lon="-2.924982961267233">
        <ele>18.100000000000001</ele>
        <time>2003-04-19T19:47:06Z</time>
      </trkpt>
      <trkpt lat="35.139587027952075" lon="-2.925256965681911">
        <ele>17.600000000000001</ele>
        <time>2003-04-19T19:47:11Z</time>
      </trkpt>
      <trkpt lat="35.14062998816371" lon="-2.925510015338659">
        <ele>18.399999999999999</ele>
        <time>2003-04-19T19:47:18Z</time>
      </trkpt>
      <trkpt lat="35.141673032194376" lon="-2.925783013924956">
        <ele>18.600000000000001</ele>
        <time>2003-04-19T19:47:23Z</time>
      </trkpt>
      <trkpt lat="35.142582971602678" lon="-2.926015025004745">
        <ele>18.800000000000001</ele>
        <time>2003-04-19T19:47:29Z</time>
      </trkpt>
      <trkpt lat="35.143523002043366" lon="-2.926239995285869">
        <ele>19</ele>
        <time>2003-04-19T19:47:34Z</time>
      </trkpt>
      <trkpt lat="35.144487004727125" lon="-2.926492961123586">
        <ele>19</ele>
        <time>2003-04-19T19:47:38Z</time>
      </trkpt>
      <trkpt lat="35.145440027117729" lon="-2.926730001345277">
        <ele>19.100000000000001</ele>
        <time>2003-04-19T19:47:43Z</time>
      </trkpt>
      <trkpt lat="35.14638802036643" lon="-2.926975004374981">
        <ele>19.5</ele>
        <time>2003-04-19T19:47:49Z</time>
      </trkpt>
      <trkpt lat="35.147357974201441" lon="-2.927227970212698">
        <ele>19.899999999999999</ele>
        <time>2003-04-19T19:47:54Z</time>
      </trkpt>
      <trkpt lat="35.148324994370341" lon="-2.927468027919531">
        <ele>20.399999999999999</ele>
        <time>2003-04-19T19:47:58Z</time>
      </trkpt>
      <trkpt lat="35.149277010932565" lon="-2.927712025120854">
        <ele>20.399999999999999</ele>
        <time>2003-04-19T19:48:04Z</time>
      </trkpt>
      <trkpt lat="35.150217963382602" lon="-2.927953004837036">
        <ele>20.699999999999999</ele>
        <time>2003-04-19T19:48:09Z</time>
      </trkpt>
      <trkpt lat="35.15122203156352" lon="-2.928206976503134">
        <ele>20.899999999999999</ele>
        <time>2003-04-19T19:48:14Z</time>
      </trkpt>
      <trkpt lat="35.152217969298363" lon="-2.928466983139515">
        <ele>21.199999999999999</ele>
        <time>2003-04-19T19:48:21Z</time>
      </trkpt>
      <trkpt lat="35.153188006952405" lon="-2.928748028352857">
        <ele>21.100000000000001</ele>
        <time>2003-04-19T19:48:27Z</time>
      </trkpt>
      <trkpt lat="35.153898037970066" lon="-2.928912984207273">
        <ele>21.300000000000001</ele>
        <time>2003-04-19T19:48:32Z</time>
      </trkpt>
      <trkpt lat="35.154872015118599" lon="-2.929192017763853">
        <ele>22.199999999999999</ele>
        <time>2003-04-19T19:48:39Z</time>
      </trkpt>
      <trkpt lat="35.155823025852442" lon="-2.929455041885376">
        <ele>23</ele>
        <time>2003-04-19T19:48:45Z</time>
      </trkpt>
      <trkpt lat="35.156802032142878" lon="-2.929716976359487">
        <ele>23.800000000000001</ele>
        <time>2003-04-19T19:48:52Z</time>
      </trkpt>
      <trkpt lat="35.157594960182905" lon="-2.929921997711062">
        <ele>24.300000000000001</ele>
        <time>2003-04-19T19:48:59Z</time>
      </trkpt>
      <trkpt lat="35.158513030037284" lon="-2.930157026275992">
        <ele>23.5</ele>
        <time>2003-04-19T19:49:06Z</time>
      </trkpt>
      <trkpt lat="35.159487007185817" lon="-2.930407980456948">
        <ele>23.300000000000001</ele>
        <time>2003-04-19T19:49:12Z</time>
      </trkpt>
      <trkpt lat="35.160455033183098" lon="-2.930651977658272">
        <ele>23.199999999999999</ele>
        <time>2003-04-19T19:49:19Z</time>
      </trkpt>
      <trkpt lat="35.161382993683219" lon="-2.930896980687976">
        <ele>23.699999999999999</ele>
        <time>2003-04-19T19:49:26Z</time>
      </trkpt>
      <trkpt lat="35.162387983873487" lon="-2.931150030344725">
        <ele>24.199999999999999</ele>
        <time>2003-04-19T19:49:34Z</time>
      </trkpt>
      <trkpt lat="35.163285015150905" lon="-2.931378018110991">
        <ele>24.5</ele>
        <time>2003-04-19T19:49:39Z</time>
      </trkpt>
      <trkpt lat="35.164295034483075" lon="-2.931640036404133">
        <ele>24</ele>
        <time>2003-04-19T19:49:46Z</time>
      </trkpt>
      <trkpt lat="35.165312010794878" lon="-2.931899959221482">
        <ele>24.699999999999999</ele>
        <time>2003-04-19T19:49:53Z</time>
      </trkpt>
      <trkpt lat="35.166207030415535" lon="-2.932125013321638">
        <ele>25.600000000000001</ele>
        <time>2003-04-19T19:50:00Z</time>
      </trkpt>
      <trkpt lat="35.167129961773753" lon="-2.932353001087904">
        <ele>26.100000000000001</ele>
        <time>2003-04-19T19:50:05Z</time>
      </trkpt>
      <trkpt lat="35.168126989156008" lon="-2.93260496109724">
        <ele>27.199999999999999</ele>
        <time>2003-04-19T19:50:13Z</time>
      </trkpt>
      <trkpt lat="35.168457990512252" lon="-2.932692971080542">
        <ele>28.100000000000001</ele>
        <time>2003-04-19T19:50:16Z</time>
      </trkpt>
      <trkpt lat="35.168952019885182" lon="-2.93281702324748">
        <ele>28.399999999999999</ele>
        <time>2003-04-19T19:50:20Z</time>
      </trkpt>
      <trkpt lat="35.169867994263768" lon="-2.933039981871843">
        <ele>28.800000000000001</ele>
        <time>2003-04-19T19:50:31Z</time>
      </trkpt>
      <trkpt lat="35.169964972883463" lon="-2.933082981035113">
        <ele>28.899999999999999</ele>
        <time>2003-04-19T19:50:35Z</time>
      </trkpt>
      <trkpt lat="35.170094976201653" lon="-2.93309697881341">
        <ele>51.799999999999997</ele>
        <time>2003-04-19T19:51:46Z</time>
      </trkpt>
      <trkpt lat="35.170197989791632" lon="-2.93311801739037">
        <ele>50.5</ele>
        <time>2003-04-19T19:51:49Z</time>
      </trkpt>
      <trkpt lat="35.170381972566247" lon="-2.933165039867163">
        <ele>49.100000000000001</ele>
        <time>2003-04-19T19:51:52Z</time>
      </trkpt>
      <trkpt lat="35.170537959784269" lon="-2.933208039030433">
        <ele>48</ele>
        <time>2003-04-19T19:51:53Z</time>
      </trkpt>
      <trkpt lat="35.17081699334085" lon="-2.933272998780012">
        <ele>47.5</ele>
        <time>2003-04-19T19:51:57Z</time>
      </trkpt>
      <trkpt lat="35.171344969421625" lon="-2.933392021805048">
        <ele>46</ele>
        <time>2003-04-19T19:52:01Z</time>
      </trkpt>
      <trkpt lat="35.172290029004216" lon="-2.93363300152123">
        <ele>42.5</ele>
        <time>2003-04-19T19:52:12Z</time>
      </trkpt>
      <trkpt lat="35.173197034746408" lon="-2.933859983459115">
        <ele>40.700000000000003</ele>
        <time>2003-04-19T19:52:17Z</time>
      </trkpt>
      <trkpt lat="35.1734599750489" lon="-2.933927038684487">
        <ele>40.200000000000003</ele>
        <time>2003-04-19T19:52:20Z</time>
      </trkpt>
      <trkpt lat="35.173677988350391" lon="-2.933986969292164">
        <ele>39.600000000000001</ele>
        <time>2003-04-19T19:52:24Z</time>
      </trkpt>
      <trkpt lat="35.1738450396806" lon="-2.934032985940576">
        <ele>39.200000000000003</ele>
        <time>2003-04-19T19:52:47Z</time>
      </trkpt>
      <trkpt lat="35.173994991928339" lon="-2.934061987325549">
        <ele>38.399999999999999</ele>
        <time>2003-04-19T19:52:50Z</time>
      </trkpt>
      <trkpt lat="35.174122983589768" lon="-2.93404296040535">
        <ele>37.5</ele>
        <time>2003-04-19T19:52:51Z</time>
      </trkpt>
      <trkpt lat="35.17427796497941" lon="-2.933980012312532">
        <ele>36.299999999999997</ele>
        <time>2003-04-19T19:52:54Z</time>
      </trkpt>
      <trkpt lat="35.174430012702942" lon="-2.933861995115876">
        <ele>35.5</ele>
        <time>2003-04-19T19:52:55Z</time>
      </trkpt>
      <trkpt lat="35.174572002142668" lon="-2.933689998462796">
        <ele>35</ele>
        <time>2003-04-19T19:52:58Z</time>
      </trkpt>
      <trkpt lat="35.174796972423792" lon="-2.933350028470159">
        <ele>34.100000000000001</ele>
        <time>2003-04-19T19:53:01Z</time>
      </trkpt>
      <trkpt lat="35.17537297680974" lon="-2.932502031326294">
        <ele>32.100000000000001</ele>
        <time>2003-04-19T19:53:07Z</time>
      </trkpt>
      <trkpt lat="35.175789976492524" lon="-2.932013031095266">
        <ele>31</ele>
        <time>2003-04-19T19:53:13Z</time>
      </trkpt>
      <trkpt lat="35.176270008087158" lon="-2.931527970358729">
        <ele>28.800000000000001</ele>
        <time>2003-04-19T19:53:18Z</time>
      </trkpt>
      <trkpt lat="35.176391964778304" lon="-2.931412970647216">
        <ele>27.800000000000001</ele>
        <time>2003-04-19T19:53:21Z</time>
      </trkpt>
      <trkpt lat="35.176475029438734" lon="-2.931338036432862">
        <ele>27.100000000000001</ele>
        <time>2003-04-19T19:53:22Z</time>
      </trkpt>
      <trkpt lat="35.176597991958261" lon="-2.931229993700981">
        <ele>18.800000000000001</ele>
        <time>2003-04-19T19:53:48Z</time>
      </trkpt>
      <trkpt lat="35.176747022196651" lon="-2.931112982332707">
        <ele>18.399999999999999</ele>
        <time>2003-04-19T19:53:51Z</time>
      </trkpt>
      <trkpt lat="35.176877025514841" lon="-2.931069983169437">
        <ele>18.300000000000001</ele>
        <time>2003-04-19T19:53:52Z</time>
      </trkpt>
      <trkpt lat="35.177175002172589" lon="-2.93101298622787">
        <ele>17.699999999999999</ele>
        <time>2003-04-19T19:53:56Z</time>
      </trkpt>
      <trkpt lat="35.177329983562231" lon="-2.93094702064991">
        <ele>17.899999999999999</ele>
        <time>2003-04-19T19:53:59Z</time>
      </trkpt>
      <trkpt lat="35.177559982985258" lon="-2.930792039260268">
        <ele>18.300000000000001</ele>
        <time>2003-04-19T19:54:01Z</time>
      </trkpt>
      <trkpt lat="35.177961979061365" lon="-2.930442010983825">
        <ele>22.399999999999999</ele>
        <time>2003-04-19T19:54:08Z</time>
      </trkpt>
      <trkpt lat="35.178062980994582" lon="-2.93034796603024">
        <ele>26.899999999999999</ele>
        <time>2003-04-19T19:54:09Z</time>
      </trkpt>
      <trkpt lat="35.17814202234149" lon="-2.930277977138758">
        <ele>31.899999999999999</ele>
        <time>2003-04-19T19:54:12Z</time>
      </trkpt>
      <trkpt lat="35.178252998739481" lon="-2.930168006569147">
        <ele>34.799999999999997</ele>
        <time>2003-04-19T19:54:16Z</time>
      </trkpt>
      <trkpt lat="35.178375039249659" lon="-2.930040014907718">
        <ele>36.299999999999997</ele>
        <time>2003-04-19T19:54:51Z</time>
      </trkpt>
      <trkpt lat="35.178458020091057" lon="-2.929931972175837">
        <ele>35.100000000000001</ele>
        <time>2003-04-19T19:54:54Z</time>
      </trkpt>
      <trkpt lat="35.178560027852654" lon="-2.929800041019917">
        <ele>34.100000000000001</ele>
        <time>2003-04-19T19:54:57Z</time>
      </trkpt>
      <trkpt lat="35.178677961230278" lon="-2.929631983861327">
        <ele>33.399999999999999</ele>
        <time>2003-04-19T19:54:58Z</time>
      </trkpt>
      <trkpt lat="35.179096972569823" lon="-2.929097972810268">
        <ele>30.699999999999999</ele>
        <time>2003-04-19T19:55:05Z</time>
      </trkpt>
      <trkpt lat="35.179416993632913" lon="-2.928684996441007">
        <ele>29</ele>
        <time>2003-04-19T19:55:10Z</time>
      </trkpt>
      <trkpt lat="35.179616985842586" lon="-2.928503025323153">
        <ele>28.199999999999999</ele>
        <time>2003-04-19T19:55:13Z</time>
      </trkpt>
      <trkpt lat="35.17975302413106" lon="-2.928467988967896">
        <ele>27.399999999999999</ele>
        <time>2003-04-19T19:55:14Z</time>
      </trkpt>
      <trkpt lat="35.179874980822206" lon="-2.928466983139515">
        <ele>26.699999999999999</ele>
        <time>2003-04-19T19:55:17Z</time>
      </trkpt>
      <trkpt lat="35.179970031604171" lon="-2.928467988967896">
        <ele>26.5</ele>
        <time>2003-04-19T19:55:18Z</time>
      </trkpt>
      <trkpt lat="35.180070027709007" lon="-2.928460026159883">
        <ele>24.100000000000001</ele>
        <time>2003-04-19T19:55:30Z</time>
      </trkpt>
      <trkpt lat="35.180182009935379" lon="-2.928447034209967">
        <ele>24</ele>
        <time>2003-04-19T19:55:33Z</time>
      </trkpt>
      <trkpt lat="35.180376973003149" lon="-2.928418032824993">
        <ele>23.399999999999999</ele>
        <time>2003-04-19T19:55:36Z</time>
      </trkpt>
      <trkpt lat="35.180547963827848" lon="-2.92839297093451">
        <ele>23.399999999999999</ele>
        <time>2003-04-19T19:55:37Z</time>
      </trkpt>
      <trkpt lat="35.180734964087605" lon="-2.928376961499453">
        <ele>22.399999999999999</ele>
        <time>2003-04-19T19:55:40Z</time>
      </trkpt>
      <trkpt lat="35.180862033739686" lon="-2.928362963721156">
        <ele>22.300000000000001</ele>
        <time>2003-04-19T19:55:44Z</time>
      </trkpt>
      <trkpt lat="35.181017015129328" lon="-2.92834703810513">
        <ele>21.899999999999999</ele>
        <time>2003-04-19T19:55:45Z</time>
      </trkpt>
      <trkpt lat="35.181197980418801" lon="-2.92834703810513">
        <ele>21.899999999999999</ele>
        <time>2003-04-19T19:55:48Z</time>
      </trkpt>
      <trkpt lat="35.181502997875214" lon="-2.928360030055046">
        <ele>21.5</ele>
        <time>2003-04-19T19:55:51Z</time>
      </trkpt>
      <trkpt lat="35.181884961202741" lon="-2.928382996469736">
        <ele>20.600000000000001</ele>
        <time>2003-04-19T19:55:53Z</time>
      </trkpt>
      <trkpt lat="35.182613013312221" lon="-2.928407974541187">
        <ele>19.699999999999999</ele>
        <time>2003-04-19T19:55:59Z</time>
      </trkpt>
      <trkpt lat="35.183616997674108" lon="-2.928277971222997">
        <ele>18.699999999999999</ele>
        <time>2003-04-19T19:56:04Z</time>
      </trkpt>
      <trkpt lat="35.184622993692756" lon="-2.928146962076426">
        <ele>22</ele>
        <time>2003-04-19T19:56:11Z</time>
      </trkpt>
      <trkpt lat="35.185477025806904" lon="-2.928083008155227">
        <ele>25.199999999999999</ele>
        <time>2003-04-19T19:56:15Z</time>
      </trkpt>
      <trkpt lat="35.185967031866312" lon="-2.928140005096793">
        <ele>27.5</ele>
        <time>2003-04-19T19:56:19Z</time>
      </trkpt>
      <trkpt lat="35.186597015708685" lon="-2.928336979821324">
        <ele>30.600000000000001</ele>
        <time>2003-04-19T19:56:23Z</time>
      </trkpt>
      <trkpt lat="35.187151981517673" lon="-2.928624982014298">
        <ele>33.399999999999999</ele>
        <time>2003-04-19T19:56:27Z</time>
      </trkpt>
      <trkpt lat="35.187986986711621" lon="-2.929137032479048">
        <ele>38.299999999999997</ele>
        <time>2003-04-19T19:56:34Z</time>
      </trkpt>
      <trkpt lat="35.188395017758012" lon="-2.929520001634955">
        <ele>38</ele>
        <time>2003-04-19T19:56:38Z</time>
      </trkpt>
      <trkpt lat="35.188972027972341" lon="-2.930107992142439">
        <ele>34.799999999999997</ele>
        <time>2003-04-19T19:56:42Z</time>
      </trkpt>
      <trkpt lat="35.1894870121032" lon="-2.93051702901721">
        <ele>32.600000000000001</ele>
        <time>2003-04-19T19:56:46Z</time>
      </trkpt>
      <trkpt lat="35.189927984029055" lon="-2.93075499124825">
        <ele>30.399999999999999</ele>
        <time>2003-04-19T19:56:50Z</time>
      </trkpt>
      <trkpt lat="35.190585041418672" lon="-2.9309699870646">
        <ele>28.100000000000001</ele>
        <time>2003-04-19T19:56:54Z</time>
      </trkpt>
      <trkpt lat="35.191115029156208" lon="-2.931032013148069">
        <ele>26.5</ele>
        <time>2003-04-19T19:56:57Z</time>
      </trkpt>
      <trkpt lat="35.191454999148846" lon="-2.931035030633211">
        <ele>25.600000000000001</ele>
        <time>2003-04-19T19:56:58Z</time>
      </trkpt>
      <trkpt lat="35.191620038822293" lon="-2.931041987612844">
        <ele>25.199999999999999</ele>
        <time>2003-04-19T19:57:00Z</time>
      </trkpt>
      <trkpt lat="35.192601978778839" lon="-2.931086998432875">
        <ele>23.5</ele>
        <time>2003-04-19T19:57:05Z</time>
      </trkpt>
      <trkpt lat="35.193603029474616" lon="-2.931124968454242">
        <ele>22.5</ele>
        <time>2003-04-19T19:57:12Z</time>
      </trkpt>
      <trkpt lat="35.194537024945021" lon="-2.931154975667596">
        <ele>22.300000000000001</ele>
        <time>2003-04-19T19:57:17Z</time>
      </trkpt>
      <trkpt lat="35.194680020213127" lon="-2.931152964010835">
        <ele>22.100000000000001</ele>
        <time>2003-04-19T19:57:18Z</time>
      </trkpt>
      <trkpt lat="35.195347974076867" lon="-2.931071994826198">
        <ele>20.899999999999999</ele>
        <time>2003-04-19T19:57:24Z</time>
      </trkpt>
      <trkpt lat="35.195621978491545" lon="-2.930956995114684">
        <ele>20.399999999999999</ele>
        <time>2003-04-19T19:57:25Z</time>
      </trkpt>
      <trkpt lat="35.196024980396032" lon="-2.930715009570122">
        <ele>20.199999999999999</ele>
        <time>2003-04-19T19:57:28Z</time>
      </trkpt>
      <trkpt lat="35.196407027542591" lon="-2.93036799877882">
        <ele>19.199999999999999</ele>
        <time>2003-04-19T19:57:32Z</time>
      </trkpt>
      <trkpt lat="35.196622023358941" lon="-2.930057030171156">
        <ele>18.800000000000001</ele>
        <time>2003-04-19T19:57:33Z</time>
      </trkpt>
      <trkpt lat="35.197225017473102" lon="-2.929009962826967">
        <ele>18.399999999999999</ele>
        <time>2003-04-19T19:57:40Z</time>
      </trkpt>
      <trkpt lat="35.197839997708797" lon="-2.927968008443713">
        <ele>19.699999999999999</ele>
        <time>2003-04-19T19:57:45Z</time>
      </trkpt>
      <trkpt lat="35.198432011529803" lon="-2.926962012425065">
        <ele>21.699999999999999</ele>
        <time>2003-04-19T19:57:52Z</time>
      </trkpt>
      <trkpt lat="35.199029976502061" lon="-2.925937995314598">
        <ele>23.399999999999999</ele>
        <time>2003-04-19T19:57:59Z</time>
      </trkpt>
      <trkpt lat="35.199549989774823" lon="-2.925035012885928">
        <ele>24.800000000000001</ele>
        <time>2003-04-19T19:58:04Z</time>
      </trkpt>
      <trkpt lat="35.200162036344409" lon="-2.924049971625209">
        <ele>26.899999999999999</ele>
        <time>2003-04-19T19:58:11Z</time>
      </trkpt>
      <trkpt lat="35.200696969404817" lon="-2.923146989196539">
        <ele>29</ele>
        <time>2003-04-19T19:58:15Z</time>
      </trkpt>
      <trkpt lat="35.201225029304624" lon="-2.922205030918121">
        <ele>30.300000000000001</ele>
        <time>2003-04-19T19:58:21Z</time>
      </trkpt>
      <trkpt lat="35.201849984005094" lon="-2.921319985762239">
        <ele>29</ele>
        <time>2003-04-19T19:58:26Z</time>
      </trkpt>
      <trkpt lat="35.202590022236109" lon="-2.920477017760277">
        <ele>27.800000000000001</ele>
        <time>2003-04-19T19:58:30Z</time>
      </trkpt>
      <trkpt lat="35.203408012166619" lon="-2.919677970930934">
        <ele>27.5</ele>
        <time>2003-04-19T19:58:35Z</time>
      </trkpt>
      <trkpt lat="35.20420303568244" lon="-2.918919995427132">
        <ele>26</ele>
        <time>2003-04-19T19:58:41Z</time>
      </trkpt>
      <trkpt lat="35.20497802644968" lon="-2.918166965246201">
        <ele>27.899999999999999</ele>
        <time>2003-04-19T19:58:46Z</time>
      </trkpt>
      <trkpt lat="35.205729966983199" lon="-2.91743497364223">
        <ele>31</ele>
        <time>2003-04-19T19:58:50Z</time>
      </trkpt>
      <trkpt lat="35.206464976072311" lon="-2.916727960109711">
        <ele>32.899999999999999</ele>
        <time>2003-04-19T19:58:56Z</time>
      </trkpt>
      <trkpt lat="35.207316996529698" lon="-2.915907958522439">
        <ele>33</ele>
        <time>2003-04-19T19:59:01Z</time>
      </trkpt>
      <trkpt lat="35.208087963983417" lon="-2.915260037407279">
        <ele>33.100000000000001</ele>
        <time>2003-04-19T19:59:06Z</time>
      </trkpt>
      <trkpt lat="35.208598002791405" lon="-2.914961976930499">
        <ele>32.799999999999997</ele>
        <time>2003-04-19T19:59:09Z</time>
      </trkpt>
      <trkpt lat="35.20953300409019" lon="-2.914637010544539">
        <ele>32.700000000000003</ele>
        <time>2003-04-19T19:59:15Z</time>
      </trkpt>
      <trkpt lat="35.210346970707178" lon="-2.914538020268083">
        <ele>32.799999999999997</ele>
        <time>2003-04-19T19:59:19Z</time>
      </trkpt>
      <trkpt lat="35.210549980401993" lon="-2.914546988904476">
        <ele>32.700000000000003</ele>
        <time>2003-04-19T19:59:20Z</time>
      </trkpt>
      <trkpt lat="35.211550025269389" lon="-2.914583031088114">
        <ele>32.700000000000003</ele>
        <time>2003-04-19T19:59:24Z</time>
      </trkpt>
      <trkpt lat="35.212530037388206" lon="-2.91468202136457">
        <ele>32.799999999999997</ele>
        <time>2003-04-19T19:59:29Z</time>
      </trkpt>
      <trkpt lat="35.213092966005206" lon="-2.914859969168901">
        <ele>32.600000000000001</ele>
        <time>2003-04-19T19:59:32Z</time>
      </trkpt>
      <trkpt lat="35.213810037821531" lon="-2.915243022143841">
        <ele>31.800000000000001</ele>
        <time>2003-04-19T19:59:36Z</time>
      </trkpt>
      <trkpt lat="35.214461982250214" lon="-2.915769992396236">
        <ele>30.300000000000001</ele>
        <time>2003-04-19T19:59:40Z</time>
      </trkpt>
      <trkpt lat="35.215211994946003" lon="-2.916550012305379">
        <ele>28.800000000000001</ele>
        <time>2003-04-19T19:59:46Z</time>
      </trkpt>
      <trkpt lat="35.215941974893212" lon="-2.917325003072619">
        <ele>27.199999999999999</ele>
        <time>2003-04-19T19:59:51Z</time>
      </trkpt>
      <trkpt lat="35.216662986204028" lon="-2.918097982183099">
        <ele>25.5</ele>
        <time>2003-04-19T19:59:55Z</time>
      </trkpt>
      <trkpt lat="35.217394977807999" lon="-2.918870039284229">
        <ele>23.699999999999999</ele>
        <time>2003-04-19T20:00:00Z</time>
      </trkpt>
      <trkpt lat="35.218226965516806" lon="-2.919597001746297">
        <ele>21.600000000000001</ele>
        <time>2003-04-19T20:00:06Z</time>
      </trkpt>
      <trkpt lat="35.219017965719104" lon="-2.920041996985674">
        <ele>22</ele>
        <time>2003-04-19T20:00:10Z</time>
      </trkpt>
      <trkpt lat="35.220026979222894" lon="-2.920496966689825">
        <ele>25.600000000000001</ele>
        <time>2003-04-19T20:00:14Z</time>
      </trkpt>
      <trkpt lat="35.220923004671931" lon="-2.920942967757583">
        <ele>28.100000000000001</ele>
        <time>2003-04-19T20:00:19Z</time>
      </trkpt>
      <trkpt lat="35.221572015434504" lon="-2.92138796299696">
        <ele>27.899999999999999</ele>
        <time>2003-04-19T20:00:23Z</time>
      </trkpt>
      <trkpt lat="35.222152965143323" lon="-2.921922979876399">
        <ele>26.899999999999999</ele>
        <time>2003-04-19T20:00:27Z</time>
      </trkpt>
      <trkpt lat="35.222682030871511" lon="-2.922556987032294">
        <ele>24.699999999999999</ele>
        <time>2003-04-19T20:00:32Z</time>
      </trkpt>
      <trkpt lat="35.223277984187007" lon="-2.9234270285815">
        <ele>21.899999999999999</ele>
        <time>2003-04-19T20:00:37Z</time>
      </trkpt>
      <trkpt lat="35.223960019648075" lon="-2.9242870118469">
        <ele>19.300000000000001</ele>
        <time>2003-04-19T20:00:41Z</time>
      </trkpt>
      <trkpt lat="35.224296972155571" lon="-2.924578031525016">
        <ele>18.699999999999999</ele>
        <time>2003-04-19T20:00:44Z</time>
      </trkpt>
      <trkpt lat="35.224855039268732" lon="-2.924947002902627">
        <ele>17.899999999999999</ele>
        <time>2003-04-19T20:00:46Z</time>
      </trkpt>
      <trkpt lat="35.225824993103743" lon="-2.925427034497261">
        <ele>18.100000000000001</ele>
        <time>2003-04-19T20:00:52Z</time>
      </trkpt>
      <trkpt lat="35.226827971637249" lon="-2.925847973674536">
        <ele>18.600000000000001</ele>
        <time>2003-04-19T20:00:57Z</time>
      </trkpt>
      <trkpt lat="35.227832039818168" lon="-2.926277965307236">
        <ele>19.100000000000001</ele>
        <time>2003-04-19T20:01:01Z</time>
      </trkpt>
      <trkpt lat="35.22882797755301" lon="-2.926745004951954">
        <ele>19.800000000000001</ele>
        <time>2003-04-19T20:01:07Z</time>
      </trkpt>
      <trkpt lat="35.229743029922247" lon="-2.927329977974296">
        <ele>20.600000000000001</ele>
        <time>2003-04-19T20:01:12Z</time>
      </trkpt>
      <trkpt lat="35.230550039559603" lon="-2.928010001778603">
        <ele>20.899999999999999</ele>
        <time>2003-04-19T20:01:16Z</time>
      </trkpt>
      <trkpt lat="35.23134296759963" lon="-2.928707962855697">
        <ele>21</ele>
        <time>2003-04-19T20:01:21Z</time>
      </trkpt>
      <trkpt lat="35.232124999165535" lon="-2.929412964731455">
        <ele>21.399999999999999</ele>
        <time>2003-04-19T20:01:27Z</time>
      </trkpt>
      <trkpt lat="35.23290703073144" lon="-2.93013196438551">
        <ele>21.600000000000001</ele>
        <time>2003-04-19T20:01:31Z</time>
      </trkpt>
      <trkpt lat="35.233685038983822" lon="-2.930841995403171">
        <ele>22</ele>
        <time>2003-04-19T20:01:36Z</time>
      </trkpt>
      <trkpt lat="35.234466986730695" lon="-2.931487988680601">
        <ele>21.899999999999999</ele>
        <time>2003-04-19T20:01:42Z</time>
      </trkpt>
      <trkpt lat="35.234979959204793" lon="-2.931784959509969">
        <ele>21.399999999999999</ele>
        <time>2003-04-19T20:01:44Z</time>
      </trkpt>
      <trkpt lat="35.235740030184388" lon="-2.932072961702943">
        <ele>20.199999999999999</ele>
        <time>2003-04-19T20:01:48Z</time>
      </trkpt>
      <trkpt lat="35.236749965697527" lon="-2.932374961674213">
        <ele>18.600000000000001</ele>
        <time>2003-04-19T20:01:54Z</time>
      </trkpt>
      <trkpt lat="35.23774498142302" lon="-2.932698000222445">
        <ele>17.5</ele>
        <time>2003-04-19T20:01:58Z</time>
      </trkpt>
      <trkpt lat="35.238736979663372" lon="-2.933007040992379">
        <ele>16.800000000000001</ele>
        <time>2003-04-19T20:02:03Z</time>
      </trkpt>
      <trkpt lat="35.239717997610569" lon="-2.933309962972999">
        <ele>17.300000000000001</ele>
        <time>2003-04-19T20:02:09Z</time>
      </trkpt>
      <trkpt lat="35.240682000294328" lon="-2.933602994307876">
        <ele>18</ele>
        <time>2003-04-19T20:02:14Z</time>
      </trkpt>
      <trkpt lat="35.241608032956719" lon="-2.933897031471133">
        <ele>19.199999999999999</ele>
        <time>2003-04-19T20:02:18Z</time>
      </trkpt>
      <trkpt lat="35.242546973749995" lon="-2.934176987037063">
        <ele>20.300000000000001</ele>
        <time>2003-04-19T20:02:24Z</time>
      </trkpt>
      <trkpt lat="35.243463031947613" lon="-2.934476975351572">
        <ele>22.199999999999999</ele>
        <time>2003-04-19T20:02:29Z</time>
      </trkpt>
      <trkpt lat="35.244319997727871" lon="-2.934843013063073">
        <ele>23.300000000000001</ele>
        <time>2003-04-19T20:02:33Z</time>
      </trkpt>
      <trkpt lat="35.244947969913483" lon="-2.935281973332167">
        <ele>24.5</ele>
        <time>2003-04-19T20:02:37Z</time>
      </trkpt>
      <trkpt lat="35.245797978714108" lon="-2.936065010726452">
        <ele>24.699999999999999</ele>
        <time>2003-04-19T20:02:44Z</time>
      </trkpt>
      <trkpt lat="35.24661798030138" lon="-2.936828015372157">
        <ele>24.699999999999999</ele>
        <time>2003-04-19T20:02:49Z</time>
      </trkpt>
      <trkpt lat="35.247367992997169" lon="-2.937522958964109">
        <ele>24.399999999999999</ele>
        <time>2003-04-19T20:02:55Z</time>
      </trkpt>
      <trkpt lat="35.248175002634525" lon="-2.938270037993789">
        <ele>24.300000000000001</ele>
        <time>2003-04-19T20:03:00Z</time>
      </trkpt>
      <trkpt lat="35.248977988958359" lon="-2.939012004062533">
        <ele>25.699999999999999</ele>
        <time>2003-04-19T20:03:04Z</time>
      </trkpt>
      <trkpt lat="35.24973495863378" lon="-2.939688004553318">
        <ele>28.199999999999999</ele>
        <time>2003-04-19T20:03:09Z</time>
      </trkpt>
      <trkpt lat="35.250378018245101" lon="-2.940132999792695">
        <ele>31.800000000000001</ele>
        <time>2003-04-19T20:03:14Z</time>
      </trkpt>
      <trkpt lat="35.251177987083793" lon="-2.940472969785333">
        <ele>36.100000000000001</ele>
        <time>2003-04-19T20:03:19Z</time>
      </trkpt>
      <trkpt lat="35.251845018938184" lon="-2.940628034994006">
        <ele>39.100000000000001</ele>
        <time>2003-04-19T20:03:23Z</time>
      </trkpt>
      <trkpt lat="35.252357991412282" lon="-2.94065703637898">
        <ele>40.899999999999999</ele>
        <time>2003-04-19T20:03:26Z</time>
      </trkpt>
      <trkpt lat="35.253059975802898" lon="-2.940559973940253">
        <ele>42.600000000000001</ele>
        <time>2003-04-19T20:03:31Z</time>
      </trkpt>
      <trkpt lat="35.253766989335418" lon="-2.940322011709213">
        <ele>43.200000000000003</ele>
        <time>2003-04-19T20:03:34Z</time>
      </trkpt>
      <trkpt lat="35.254475008696318" lon="-2.939954968169332">
        <ele>43.5</ele>
        <time>2003-04-19T20:03:38Z</time>
      </trkpt>
      <trkpt lat="35.255368016660213" lon="-2.939460016787052">
        <ele>43.299999999999997</ele>
        <time>2003-04-19T20:03:43Z</time>
      </trkpt>
      <trkpt lat="35.25600696913898" lon="-2.939162962138653">
        <ele>42.600000000000001</ele>
        <time>2003-04-19T20:03:46Z</time>
      </trkpt>
      <trkpt lat="35.25665296241641" lon="-2.938970010727644">
        <ele>41.899999999999999</ele>
        <time>2003-04-19T20:03:50Z</time>
      </trkpt>
      <trkpt lat="35.257374979555607" lon="-2.938903039321303">
        <ele>41.700000000000003</ele>
        <time>2003-04-19T20:03:55Z</time>
      </trkpt>
      <trkpt lat="35.258443001657724" lon="-2.939004963263869">
        <ele>41.600000000000001</ele>
        <time>2003-04-19T20:04:01Z</time>
      </trkpt>
      <trkpt lat="35.259356964379549" lon="-2.93911300599575">
        <ele>40.600000000000001</ele>
        <time>2003-04-19T20:04:06Z</time>
      </trkpt>
      <trkpt lat="35.259727025404572" lon="-2.939106971025467">
        <ele>40.399999999999999</ele>
        <time>2003-04-19T20:04:08Z</time>
      </trkpt>
      <trkpt lat="35.260264975950122" lon="-2.939012004062533">
        <ele>39.700000000000003</ele>
        <time>2003-04-19T20:04:12Z</time>
      </trkpt>
      <trkpt lat="35.261082965880632" lon="-2.93872500769794">
        <ele>37.5</ele>
        <time>2003-04-19T20:04:17Z</time>
      </trkpt>
      <trkpt lat="35.261861979961395" lon="-2.938227038830519">
        <ele>34.200000000000003</ele>
        <time>2003-04-19T20:04:21Z</time>
      </trkpt>
      <trkpt lat="35.262303035706282" lon="-2.937814984470606">
        <ele>31.800000000000001</ele>
        <time>2003-04-19T20:04:24Z</time>
      </trkpt>
      <trkpt lat="35.262856995686889" lon="-2.937121968716383">
        <ele>29</ele>
        <time>2003-04-19T20:04:28Z</time>
      </trkpt>
      <trkpt lat="35.263196965679526" lon="-2.936536995694041">
        <ele>26.600000000000001</ele>
        <time>2003-04-19T20:04:30Z</time>
      </trkpt>
      <trkpt lat="35.263683032244444" lon="-2.935541979968548">
        <ele>23.300000000000001</ele>
        <time>2003-04-19T20:04:36Z</time>
      </trkpt>
      <trkpt lat="35.263913031667471" lon="-2.935026995837688">
        <ele>21.399999999999999</ele>
        <time>2003-04-19T20:04:39Z</time>
      </trkpt>
      <trkpt lat="35.264245038852096" lon="-2.934291986748576">
        <ele>20.399999999999999</ele>
        <time>2003-04-19T20:04:44Z</time>
      </trkpt>
      <trkpt lat="35.264730015769601" lon="-2.93324701488018">
        <ele>18.199999999999999</ele>
        <time>2003-04-19T20:04:51Z</time>
      </trkpt>
      <trkpt lat="35.26503000408411" lon="-2.932590041309595">
        <ele>18.300000000000001</ele>
        <time>2003-04-19T20:04:56Z</time>
      </trkpt>
      <trkpt lat="35.265118014067411" lon="-2.932391976937652">
        <ele>18.100000000000001</ele>
        <time>2003-04-19T20:04:57Z</time>
      </trkpt>
      <trkpt lat="35.265589999035001" lon="-2.931327978149056">
        <ele>16</ele>
        <time>2003-04-19T20:05:07Z</time>
      </trkpt>
      <trkpt lat="35.265914965420961" lon="-2.930597998201847">
        <ele>16.899999999999999</ele>
        <time>2003-04-19T20:05:12Z</time>
      </trkpt>
      <trkpt lat="35.266387034207582" lon="-2.929589990526438">
        <ele>17.100000000000001</ele>
        <time>2003-04-19T20:05:19Z</time>
      </trkpt>
      <trkpt lat="35.26666296645999" lon="-2.9289719928056">
        <ele>16.5</ele>
        <time>2003-04-19T20:05:24Z</time>
      </trkpt>
      <trkpt lat="35.266734967008233" lon="-2.928818017244339">
        <ele>15.9</ele>
        <time>2003-04-19T20:05:27Z</time>
      </trkpt>
      <trkpt lat="35.266777966171503" lon="-2.928720032796264">
        <ele>15.6</ele>
        <time>2003-04-19T20:05:29Z</time>
      </trkpt>
      <trkpt lat="35.266845021396875" lon="-2.928635040298104">
        <ele>15.1</ele>
        <time>2003-04-19T20:05:31Z</time>
      </trkpt>
      <trkpt lat="35.266954991966486" lon="-2.928660018369556">
        <ele>14.5</ele>
        <time>2003-04-19T20:05:34Z</time>
      </trkpt>
      <trkpt lat="35.267026992514729" lon="-2.928732018917799">
        <ele>14.6</ele>
        <time>2003-04-19T20:05:39Z</time>
      </trkpt>
      <trkpt lat="35.267112990841269" lon="-2.928818017244339">
        <ele>15</ele>
        <time>2003-04-19T20:05:49Z</time>
      </trkpt>
      <trkpt lat="35.267188008874655" lon="-2.928888006135821">
        <ele>15.6</ele>
        <time>2003-04-19T20:06:02Z</time>
      </trkpt>
      <trkpt lat="35.267399987205863" lon="-2.929090010002255">
        <ele>15.6</ele>
        <time>2003-04-19T20:06:18Z</time>
      </trkpt>
      <trkpt lat="35.267557986080647" lon="-2.929202998057008">
        <ele>15.6</ele>
        <time>2003-04-19T20:06:48Z</time>
      </trkpt>
      <trkpt lat="35.267668040469289" lon="-2.929239962249994">
        <ele>15.4</ele>
        <time>2003-04-19T20:06:52Z</time>
      </trkpt>
      <trkpt lat="35.267774993553758" lon="-2.929199980571866">
        <ele>15</ele>
        <time>2003-04-19T20:06:55Z</time>
      </trkpt>
      <trkpt lat="35.267902985215187" lon="-2.929033013060689">
        <ele>12.800000000000001</ele>
        <time>2003-04-19T20:07:22Z</time>
      </trkpt>
      <trkpt lat="35.268008010461926" lon="-2.928888006135821">
        <ele>12.6</ele>
        <time>2003-04-19T20:07:26Z</time>
      </trkpt>
      <trkpt lat="35.268085040152073" lon="-2.92877702973783">
        <ele>12.300000000000001</ele>
        <time>2003-04-19T20:07:29Z</time>
      </trkpt>
      <trkpt lat="35.268025025725365" lon="-2.928865039721131">
        <ele>12.699999999999999</ele>
        <time>2003-04-19T20:07:49Z</time>
      </trkpt>
      <trkpt lat="35.268007004633546" lon="-2.929027983918786">
        <ele>12.5</ele>
        <time>2003-04-19T20:08:01Z</time>
      </trkpt>
      <trkpt lat="35.267916982993484" lon="-2.929150024428964">
        <ele>12.5</ele>
        <time>2003-04-19T20:08:05Z</time>
      </trkpt>
      <trkpt lat="35.267856968566775" lon="-2.929241973906755">
        <ele>12.6</ele>
        <time>2003-04-19T20:08:08Z</time>
      </trkpt>
      <trkpt lat="35.267744986340404" lon="-2.929395027458668">
        <ele>13.6</ele>
        <time>2003-04-19T20:08:47Z</time>
      </trkpt>
      <trkpt lat="35.267825033515692" lon="-2.929469961673021">
        <ele>13.4</ele>
        <time>2003-04-19T20:08:51Z</time>
      </trkpt>
      <trkpt lat="35.267877001315355" lon="-2.929380023851991">
        <ele>13.4</ele>
        <time>2003-04-19T20:08:55Z</time>
      </trkpt>
      <trkpt lat="35.267955036833882" lon="-2.929242979735136">
        <ele>13</ele>
        <time>2003-04-19T20:08:58Z</time>
      </trkpt>
      <trkpt lat="35.268070036545396" lon="-2.929067965596914">
        <ele>13.300000000000001</ele>
        <time>2003-04-19T20:09:00Z</time>
      </trkpt>
      <trkpt lat="35.268167015165091" lon="-2.928914995864034">
        <ele>13.4</ele>
        <time>2003-04-19T20:09:03Z</time>
      </trkpt>
      <trkpt lat="35.268362984061241" lon="-2.928603021427989">
        <ele>13.300000000000001</ele>
        <time>2003-04-19T20:09:07Z</time>
      </trkpt>
      <trkpt lat="35.268438002094626" lon="-2.928482992574573">
        <ele>13.1</ele>
        <time>2003-04-19T20:09:10Z</time>
      </trkpt>
      <trkpt lat="35.268492987379432" lon="-2.928388025611639">
        <ele>12.5</ele>
        <time>2003-04-19T20:09:14Z</time>
      </trkpt>
      <trkpt lat="35.268562976270914" lon="-2.928267996758223">
        <ele>12</ele>
        <time>2003-04-19T20:09:23Z</time>
      </trkpt>
      <trkpt lat="35.269045019522309" lon="-2.927708001807332">
        <ele>-236.80000000000001</ele>
        <time>2003-04-19T21:35:49Z</time>
      </trkpt>
      <trkpt lat="35.268997997045517" lon="-2.927815038710833">
        <ele>13.6</ele>
        <time>2003-04-19T21:35:57Z</time>
      </trkpt>
      <trkpt lat="35.268928008154035" lon="-2.92789701372385">
        <ele>-2.1</ele>
        <time>2003-04-19T21:36:02Z</time>
      </trkpt>
      <trkpt lat="35.269043007865548" lon="-2.927708001807332">
        <ele>4.9</ele>
        <time>2003-04-19T21:36:44Z</time>
      </trkpt>
      <trkpt lat="35.269288010895252" lon="-2.927277004346252">
        <ele>17.899999999999999</ele>
        <time>2003-04-19T21:39:29Z</time>
      </trkpt>
      <trkpt lat="35.26924199424684" lon="-2.927374988794327">
        <ele>19</ele>
        <time>2003-04-19T21:39:33Z</time>
      </trkpt>
      <trkpt lat="35.269160019233823" lon="-2.92753298766911">
        <ele>21.100000000000001</ele>
        <time>2003-04-19T21:39:40Z</time>
      </trkpt>
      <trkpt lat="35.268954997882247" lon="-2.928060041740537">
        <ele>18.199999999999999</ele>
        <time>2003-04-19T21:39:42Z</time>
      </trkpt>
      <trkpt lat="35.269020041450858" lon="-2.92791998013854">
        <ele>17.899999999999999</ele>
        <time>2003-04-19T21:39:45Z</time>
      </trkpt>
      <trkpt lat="35.268976958468556" lon="-2.928028022870421">
        <ele>14.800000000000001</ele>
        <time>2003-04-19T21:39:49Z</time>
      </trkpt>
      <trkpt lat="35.26906999759376" lon="-2.927762987092137">
        <ele>14.300000000000001</ele>
        <time>2003-04-19T21:39:50Z</time>
      </trkpt>
      <trkpt lat="35.269018029794097" lon="-2.927891984581947">
        <ele>13.699999999999999</ele>
        <time>2003-04-19T21:39:53Z</time>
      </trkpt>
      <trkpt lat="35.269217016175389" lon="-2.927401978522539">
        <ele>80.599999999999994</ele>
        <time>2003-04-19T21:40:35Z</time>
      </trkpt>
      <trkpt lat="35.269085001200438" lon="-2.927585039287806">
        <ele>71.299999999999997</ele>
        <time>2003-04-19T21:40:46Z</time>
      </trkpt>
      <trkpt lat="35.269002020359039" lon="-2.92778997682035">
        <ele>58.200000000000003</ele>
        <time>2003-04-19T21:40:53Z</time>
      </trkpt>
      <trkpt lat="35.268936976790428" lon="-2.927898019552231">
        <ele>5.7</ele>
        <time>2003-04-19T21:42:00Z</time>
      </trkpt>
      <trkpt lat="35.26887696236372" lon="-2.928042020648718">
        <ele>10.5</ele>
        <time>2003-04-19T21:43:25Z</time>
      </trkpt>
      <trkpt lat="35.268634976819158" lon="-2.928366987034679">
        <ele>10.699999999999999</ele>
        <time>2003-04-19T21:43:36Z</time>
      </trkpt>
      <trkpt lat="35.268056960776448" lon="-2.929277010262013">
        <ele>10.6</ele>
        <time>2003-04-19T21:43:48Z</time>
      </trkpt>
      <trkpt lat="35.267938021570444" lon="-2.929431991651654">
        <ele>10.6</ele>
        <time>2003-04-19T21:43:52Z</time>
      </trkpt>
      <trkpt lat="35.267825033515692" lon="-2.929459987208247">
        <ele>10.6</ele>
        <time>2003-04-19T21:43:56Z</time>
      </trkpt>
      <trkpt lat="35.267725037410855" lon="-2.929408019408584">
        <ele>10.699999999999999</ele>
        <time>2003-04-19T21:43:59Z</time>
      </trkpt>
      <trkpt lat="35.267623029649258" lon="-2.929399972781539">
        <ele>9.6</ele>
        <time>2003-04-19T21:52:06Z</time>
      </trkpt>
      <trkpt lat="35.267526973038912" lon="-2.929282039403915">
        <ele>10.4</ele>
        <time>2003-04-19T21:57:50Z</time>
      </trkpt>
      <trkpt lat="35.267397975549102" lon="-2.929109958931804">
        <ele>14.199999999999999</ele>
        <time>2003-04-19T22:12:05Z</time>
      </trkpt>
      <trkpt lat="35.267058005556464" lon="-2.928869985044003">
        <ele>12.699999999999999</ele>
        <time>2003-04-19T22:12:18Z</time>
      </trkpt>
      <trkpt lat="35.266945017501712" lon="-2.928784992545843">
        <ele>8.800000000000001</ele>
        <time>2003-04-19T22:15:10Z</time>
      </trkpt>
      <trkpt lat="35.266839992254972" lon="-2.928787004202604">
        <ele>8.6</ele>
        <time>2003-04-19T22:15:14Z</time>
      </trkpt>
      <trkpt lat="35.266715018078685" lon="-2.929042987525463">
        <ele>8.9</ele>
        <time>2003-04-19T22:15:18Z</time>
      </trkpt>
      <trkpt lat="35.266428021714091" lon="-2.929668026044965">
        <ele>9.5</ele>
        <time>2003-04-19T22:15:27Z</time>
      </trkpt>
      <trkpt lat="35.266159968450665" lon="-2.930298009887338">
        <ele>10.1</ele>
        <time>2003-04-19T22:15:34Z</time>
      </trkpt>
      <trkpt lat="35.265698041766882" lon="-2.931339964270592">
        <ele>10.5</ele>
        <time>2003-04-19T22:15:42Z</time>
      </trkpt>
      <trkpt lat="35.265250029042363" lon="-2.932362975552678">
        <ele>11.699999999999999</ele>
        <time>2003-04-19T22:15:53Z</time>
      </trkpt>
      <trkpt lat="35.264909975230694" lon="-2.933084992691875">
        <ele>13.199999999999999</ele>
        <time>2003-04-19T22:15:59Z</time>
      </trkpt>
      <trkpt lat="35.264434972777963" lon="-2.934091994538903">
        <ele>15.800000000000001</ele>
        <time>2003-04-19T22:16:07Z</time>
      </trkpt>
      <trkpt lat="35.263970028609037" lon="-2.935107965022326">
        <ele>19.100000000000001</ele>
        <time>2003-04-19T22:16:15Z</time>
      </trkpt>
      <trkpt lat="35.263514975085855" lon="-2.936101974919438">
        <ele>23.100000000000001</ele>
        <time>2003-04-19T22:16:23Z</time>
      </trkpt>
      <trkpt lat="35.263018012046814" lon="-2.937052985653281">
        <ele>27.300000000000001</ele>
        <time>2003-04-19T22:16:31Z</time>
      </trkpt>
      <trkpt lat="35.262337988242507" lon="-2.937959991395474">
        <ele>31.199999999999999</ele>
        <time>2003-04-19T22:16:39Z</time>
      </trkpt>
      <trkpt lat="35.262068007141352" lon="-2.938225027173758">
        <ele>32.700000000000003</ele>
        <time>2003-04-19T22:16:42Z</time>
      </trkpt>
      <trkpt lat="35.26144296862185" lon="-2.938677985221148">
        <ele>35.200000000000003</ele>
        <time>2003-04-19T22:16:47Z</time>
      </trkpt>
      <trkpt lat="35.260867970064282" lon="-2.938977973535657">
        <ele>36.899999999999999</ele>
        <time>2003-04-19T22:16:53Z</time>
      </trkpt>
      <trkpt lat="35.260088033974171" lon="-2.939222976565361">
        <ele>38.399999999999999</ele>
        <time>2003-04-19T22:16:58Z</time>
      </trkpt>
      <trkpt lat="35.259499959647655" lon="-2.939282990992069">
        <ele>39.200000000000003</ele>
        <time>2003-04-19T22:17:02Z</time>
      </trkpt>
      <trkpt lat="35.258512990549207" lon="-2.939188024029136">
        <ele>39.200000000000003</ele>
        <time>2003-04-19T22:17:09Z</time>
      </trkpt>
      <trkpt lat="35.2575100120157" lon="-2.939032036811113">
        <ele>39.399999999999999</ele>
        <time>2003-04-19T22:17:14Z</time>
      </trkpt>
      <trkpt lat="35.256652040407062" lon="-2.939088027924299">
        <ele>39.700000000000003</ele>
        <time>2003-04-19T22:17:20Z</time>
      </trkpt>
      <trkpt lat="35.256148036569357" lon="-2.93921803124249">
        <ele>39.799999999999997</ele>
        <time>2003-04-19T22:17:22Z</time>
      </trkpt>
      <trkpt lat="35.255331974476576" lon="-2.939622038975358">
        <ele>40</ele>
        <time>2003-04-19T22:17:28Z</time>
      </trkpt>
      <trkpt lat="35.254396973177791" lon="-2.940141968429089">
        <ele>40.299999999999997</ele>
        <time>2003-04-19T22:17:33Z</time>
      </trkpt>
      <trkpt lat="35.253540007397532" lon="-2.940559973940253">
        <ele>39.600000000000001</ele>
        <time>2003-04-19T22:17:40Z</time>
      </trkpt>
      <trkpt lat="35.253095012158155" lon="-2.940697018057108">
        <ele>39</ele>
        <time>2003-04-19T22:17:42Z</time>
      </trkpt>
      <trkpt lat="35.252150036394596" lon="-2.940804976969957">
        <ele>36.5</ele>
        <time>2003-04-19T22:17:49Z</time>
      </trkpt>
      <trkpt lat="35.251355012878776" lon="-2.940701963379979">
        <ele>33.299999999999997</ele>
        <time>2003-04-19T22:17:53Z</time>
      </trkpt>
      <trkpt lat="35.250627966597676" lon="-2.940456960350275">
        <ele>29.800000000000001</ele>
        <time>2003-04-19T22:17:59Z</time>
      </trkpt>
      <trkpt lat="35.250071994960308" lon="-2.940153032541275">
        <ele>27</ele>
        <time>2003-04-19T22:18:03Z</time>
      </trkpt>
      <trkpt lat="35.249666981399059" lon="-2.939852960407734">
        <ele>24.800000000000001</ele>
        <time>2003-04-19T22:18:05Z</time>
      </trkpt>
      <trkpt lat="35.248729968443513" lon="-2.938992977142334">
        <ele>21.399999999999999</ele>
        <time>2003-04-19T22:18:12Z</time>
      </trkpt>
      <trkpt lat="35.247932011261582" lon="-2.938244976103306">
        <ele>20.100000000000001</ele>
        <time>2003-04-19T22:18:19Z</time>
      </trkpt>
      <trkpt lat="35.247177975252271" lon="-2.937548020854592">
        <ele>19.899999999999999</ele>
        <time>2003-04-19T22:18:24Z</time>
      </trkpt>
      <trkpt lat="35.24642201140523" lon="-2.936845030635595">
        <ele>20.100000000000001</ele>
        <time>2003-04-19T22:18:31Z</time>
      </trkpt>
      <trkpt lat="35.24550000205636" lon="-2.935984963551164">
        <ele>20.100000000000001</ele>
        <time>2003-04-19T22:18:38Z</time>
      </trkpt>
      <trkpt lat="35.244691986590624" lon="-2.935275016352534">
        <ele>19.199999999999999</ele>
        <time>2003-04-19T22:18:43Z</time>
      </trkpt>
      <trkpt lat="35.244235005229712" lon="-2.934973016381264">
        <ele>18.5</ele>
        <time>2003-04-19T22:18:46Z</time>
      </trkpt>
      <trkpt lat="35.243596974760294" lon="-2.934675039723516">
        <ele>17.300000000000001</ele>
        <time>2003-04-19T22:18:50Z</time>
      </trkpt>
      <trkpt lat="35.242423005402088" lon="-2.934310007840395">
        <ele>15.800000000000001</ele>
        <time>2003-04-19T22:18:58Z</time>
      </trkpt>
      <trkpt lat="35.241426983848214" lon="-2.934008007869124">
        <ele>14.300000000000001</ele>
        <time>2003-04-19T22:19:03Z</time>
      </trkpt>
      <trkpt lat="35.240419982001185" lon="-2.933687986806035">
        <ele>13.300000000000001</ele>
        <time>2003-04-19T22:19:10Z</time>
      </trkpt>
      <trkpt lat="35.23952697403729" lon="-2.933414988219738">
        <ele>12.699999999999999</ele>
        <time>2003-04-19T22:19:14Z</time>
      </trkpt>
      <trkpt lat="35.238428022712469" lon="-2.933079963549972">
        <ele>12.300000000000001</ele>
        <time>2003-04-19T22:19:21Z</time>
      </trkpt>
      <trkpt lat="35.237338040024042" lon="-2.932733036577702">
        <ele>12.9</ele>
        <time>2003-04-19T22:19:26Z</time>
      </trkpt>
      <trkpt lat="35.23628200404346" lon="-2.932413015514612">
        <ele>14</ele>
        <time>2003-04-19T22:19:33Z</time>
      </trkpt>
      <trkpt lat="35.235267039388418" lon="-2.932082014158368">
        <ele>15.9</ele>
        <time>2003-04-19T22:19:39Z</time>
      </trkpt>
      <trkpt lat="35.234621968120337" lon="-2.931774985045195">
        <ele>16.800000000000001</ele>
        <time>2003-04-19T22:19:43Z</time>
      </trkpt>
      <trkpt lat="35.233862986788154" lon="-2.93122798204422">
        <ele>17.5</ele>
        <time>2003-04-19T22:19:48Z</time>
      </trkpt>
      <trkpt lat="35.232982970774174" lon="-2.930421978235245">
        <ele>17.300000000000001</ele>
        <time>2003-04-19T22:19:53Z</time>
      </trkpt>
      <trkpt lat="35.232112007215619" lon="-2.929617986083031">
        <ele>17</ele>
        <time>2003-04-19T22:20:00Z</time>
      </trkpt>
      <trkpt lat="35.231227967888117" lon="-2.928809970617294">
        <ele>16.600000000000001</ele>
        <time>2003-04-19T22:20:06Z</time>
      </trkpt>
      <trkpt lat="35.230318028479815" lon="-2.927987035363913">
        <ele>16.300000000000001</ele>
        <time>2003-04-19T22:20:11Z</time>
      </trkpt>
      <trkpt lat="35.229365006089211" lon="-2.927241967990995">
        <ele>16</ele>
        <time>2003-04-19T22:20:18Z</time>
      </trkpt>
      <trkpt lat="35.228318022564054" lon="-2.926637968048453">
        <ele>15.699999999999999</ele>
        <time>2003-04-19T22:20:23Z</time>
      </trkpt>
      <trkpt lat="35.227201972156763" lon="-2.926166988909245">
        <ele>14.9</ele>
        <time>2003-04-19T22:20:30Z</time>
      </trkpt>
      <trkpt lat="35.22611802443862" lon="-2.925695003941655">
        <ele>14</ele>
        <time>2003-04-19T22:20:35Z</time>
      </trkpt>
      <trkpt lat="35.225057965144515" lon="-2.925231987610459">
        <ele>13.300000000000001</ele>
        <time>2003-04-19T22:20:42Z</time>
      </trkpt>
      <trkpt lat="35.224408032372594" lon="-2.924856981262565">
        <ele>13</ele>
        <time>2003-04-19T22:20:46Z</time>
      </trkpt>
      <trkpt lat="35.223685009405017" lon="-2.924220040440559">
        <ele>14.1</ele>
        <time>2003-04-19T22:20:50Z</time>
      </trkpt>
      <trkpt lat="35.223189974203706" lon="-2.923589972779155">
        <ele>16.100000000000001</ele>
        <time>2003-04-19T22:20:54Z</time>
      </trkpt>
      <trkpt lat="35.222495030611753" lon="-2.922582970932126">
        <ele>18.899999999999999</ele>
        <time>2003-04-19T22:21:01Z</time>
      </trkpt>
      <trkpt lat="35.221852976828814" lon="-2.921839999035001">
        <ele>21.600000000000001</ele>
        <time>2003-04-19T22:21:05Z</time>
      </trkpt>
      <trkpt lat="35.221262974664569" lon="-2.921338006854057">
        <ele>22.899999999999999</ele>
        <time>2003-04-19T22:21:09Z</time>
      </trkpt>
      <trkpt lat="35.220407014712691" lon="-2.920848000794649">
        <ele>22.100000000000001</ele>
        <time>2003-04-19T22:21:14Z</time>
      </trkpt>
      <trkpt lat="35.219321977347136" lon="-2.920345002785325">
        <ele>19</ele>
        <time>2003-04-19T22:21:21Z</time>
      </trkpt>
      <trkpt lat="35.218241969123483" lon="-2.919788025319576">
        <ele>17</ele>
        <time>2003-04-19T22:21:27Z</time>
      </trkpt>
      <trkpt lat="35.217588013038039" lon="-2.919291984289885">
        <ele>18.399999999999999</ele>
        <time>2003-04-19T22:21:31Z</time>
      </trkpt>
      <trkpt lat="35.216847974807024" lon="-2.918539959937334">
        <ele>20.100000000000001</ele>
        <time>2003-04-19T22:21:36Z</time>
      </trkpt>
      <trkpt lat="35.215963013470173" lon="-2.917582998052239">
        <ele>22</ele>
        <time>2003-04-19T22:21:41Z</time>
      </trkpt>
      <trkpt lat="35.21507796831429" lon="-2.916640033945441">
        <ele>24.399999999999999</ele>
        <time>2003-04-19T22:21:48Z</time>
      </trkpt>
      <trkpt lat="35.21421697922051" lon="-2.91575700044632">
        <ele>26.600000000000001</ele>
        <time>2003-04-19T22:21:54Z</time>
      </trkpt>
      <trkpt lat="35.213578026741743" lon="-2.915276968851686">
        <ele>28</ele>
        <time>2003-04-19T22:21:58Z</time>
      </trkpt>
      <trkpt lat="35.212688036262989" lon="-2.914872039109469">
        <ele>29.300000000000001</ele>
        <time>2003-04-19T22:22:03Z</time>
      </trkpt>
      <trkpt lat="35.212117983028293" lon="-2.914746981114149">
        <ele>29.399999999999999</ele>
        <time>2003-04-19T22:22:06Z</time>
      </trkpt>
      <trkpt lat="35.21133997477591" lon="-2.91470498777926">
        <ele>29.199999999999999</ele>
        <time>2003-04-19T22:22:10Z</time>
      </trkpt>
      <trkpt lat="35.210437998175621" lon="-2.91468202136457">
        <ele>28.699999999999999</ele>
        <time>2003-04-19T22:22:15Z</time>
      </trkpt>
      <trkpt lat="35.209750011563301" lon="-2.914728038012981">
        <ele>27.899999999999999</ele>
        <time>2003-04-19T22:22:19Z</time>
      </trkpt>
      <trkpt lat="35.208875024691224" lon="-2.914967006072402">
        <ele>27.300000000000001</ele>
        <time>2003-04-19T22:22:23Z</time>
      </trkpt>
      <trkpt lat="35.208364985883236" lon="-2.915225001052022">
        <ele>27.100000000000001</ele>
        <time>2003-04-19T22:22:26Z</time>
      </trkpt>
      <trkpt lat="35.207891995087266" lon="-2.915560025721788">
        <ele>26.899999999999999</ele>
        <time>2003-04-19T22:22:30Z</time>
      </trkpt>
      <trkpt lat="35.206994963809848" lon="-2.916397964581847">
        <ele>26.699999999999999</ele>
        <time>2003-04-19T22:22:35Z</time>
      </trkpt>
      <trkpt lat="35.206119976937771" lon="-2.917258031666279">
        <ele>24.800000000000001</ele>
        <time>2003-04-19T22:22:42Z</time>
      </trkpt>
      <trkpt lat="35.205216994509101" lon="-2.918130001053214">
        <ele>20.899999999999999</ele>
        <time>2003-04-19T22:22:48Z</time>
      </trkpt>
      <trkpt lat="35.204275036230683" lon="-2.919044969603419">
        <ele>15.699999999999999</ele>
        <time>2003-04-19T22:22:53Z</time>
      </trkpt>
      <trkpt lat="35.20332301966846" lon="-2.91996999643743">
        <ele>15.699999999999999</ele>
        <time>2003-04-19T22:23:00Z</time>
      </trkpt>
      <trkpt lat="35.202407967299223" lon="-2.920865016058087">
        <ele>20.600000000000001</ele>
        <time>2003-04-19T22:23:05Z</time>
      </trkpt>
      <trkpt lat="35.201870016753674" lon="-2.921498017385602">
        <ele>23.899999999999999</ele>
        <time>2003-04-19T22:23:09Z</time>
      </trkpt>
      <trkpt lat="35.20121798850596" lon="-2.922456990927458">
        <ele>26.600000000000001</ele>
        <time>2003-04-19T22:23:16Z</time>
      </trkpt>
      <trkpt lat="35.200556991621852" lon="-2.923573041334748">
        <ele>26</ele>
        <time>2003-04-19T22:23:24Z</time>
      </trkpt>
      <trkpt lat="35.200022980570793" lon="-2.924482980743051">
        <ele>24.399999999999999</ele>
        <time>2003-04-19T22:23:29Z</time>
      </trkpt>
      <trkpt lat="35.199474971741438" lon="-2.925423011183739">
        <ele>22.699999999999999</ele>
        <time>2003-04-19T22:23:36Z</time>
      </trkpt>
      <trkpt lat="35.198893016204238" lon="-2.926377961412072">
        <ele>20.699999999999999</ele>
        <time>2003-04-19T22:23:42Z</time>
      </trkpt>
      <trkpt lat="35.198333021253347" lon="-2.927350010722876">
        <ele>18.5</ele>
        <time>2003-04-19T22:23:47Z</time>
      </trkpt>
      <trkpt lat="35.197766991332173" lon="-2.92830697260797">
        <ele>16.699999999999999</ele>
        <time>2003-04-19T22:23:55Z</time>
      </trkpt>
      <trkpt lat="35.197189981117845" lon="-2.929267035797238">
        <ele>15.5</ele>
        <time>2003-04-19T22:24:00Z</time>
      </trkpt>
      <trkpt lat="35.196644989773631" lon="-2.930182004347444">
        <ele>15.1</ele>
        <time>2003-04-19T22:24:07Z</time>
      </trkpt>
      <trkpt lat="35.196254979819059" lon="-2.9306919593364">
        <ele>15.5</ele>
        <time>2003-04-19T22:24:10Z</time>
      </trkpt>
      <trkpt lat="35.196026992052794" lon="-2.930872002616525">
        <ele>15.6</ele>
        <time>2003-04-19T22:24:13Z</time>
      </trkpt>
      <trkpt lat="35.19567696377635" lon="-2.931088004261255">
        <ele>16</ele>
        <time>2003-04-19T22:24:15Z</time>
      </trkpt>
      <trkpt lat="35.195295000448823" lon="-2.931235022842884">
        <ele>16.100000000000001</ele>
        <time>2003-04-19T22:24:18Z</time>
      </trkpt>
      <trkpt lat="35.194883029907942" lon="-2.931322026997805">
        <ele>16.399999999999999</ele>
        <time>2003-04-19T22:24:22Z</time>
      </trkpt>
      <trkpt lat="35.194456977769732" lon="-2.931312974542379">
        <ele>16.600000000000001</ele>
        <time>2003-04-19T22:24:25Z</time>
      </trkpt>
      <trkpt lat="35.193512002006173" lon="-2.931280033662915">
        <ele>17.100000000000001</ele>
        <time>2003-04-19T22:24:30Z</time>
      </trkpt>
      <trkpt lat="35.192532995715737" lon="-2.931232005357742">
        <ele>17.5</ele>
        <time>2003-04-19T22:24:37Z</time>
      </trkpt>
      <trkpt lat="35.191545020788908" lon="-2.931197974830866">
        <ele>18.199999999999999</ele>
        <time>2003-04-19T22:24:42Z</time>
      </trkpt>
      <trkpt lat="35.190531983971596" lon="-2.931118011474609">
        <ele>20.600000000000001</ele>
        <time>2003-04-19T22:24:49Z</time>
      </trkpt>
      <trkpt lat="35.190048012882471" lon="-2.93099001981318">
        <ele>22.199999999999999</ele>
        <time>2003-04-19T22:24:52Z</time>
      </trkpt>
      <trkpt lat="35.189592959359288" lon="-2.93077502399683">
        <ele>23.699999999999999</ele>
        <time>2003-04-19T22:24:54Z</time>
      </trkpt>
      <trkpt lat="35.189032964408398" lon="-2.930404962971807">
        <ele>26</ele>
        <time>2003-04-19T22:24:59Z</time>
      </trkpt>
      <trkpt lat="35.188662987202406" lon="-2.930044960230589">
        <ele>27.399999999999999</ele>
        <time>2003-04-19T22:25:01Z</time>
      </trkpt>
      <trkpt lat="35.187978018075228" lon="-2.929322021082044">
        <ele>30</ele>
        <time>2003-04-19T22:25:08Z</time>
      </trkpt>
      <trkpt lat="35.187609968706965" lon="-2.929065031930804">
        <ele>29.100000000000001</ele>
        <time>2003-04-19T22:25:11Z</time>
      </trkpt>
      <trkpt lat="35.187379969283938" lon="-2.928281994536519">
        <ele>27</ele>
        <time>2003-04-19T22:25:16Z</time>
      </trkpt>
      <trkpt lat="35.186987025663257" lon="-2.928400011733174">
        <ele>111.3</ele>
        <time>2003-04-19T22:25:16Z</time>
      </trkpt>
      <trkpt lat="35.186444967985153" lon="-2.928437981754541">
        <ele>64.299999999999997</ele>
        <time>2003-04-19T22:25:19Z</time>
      </trkpt>
      <trkpt lat="35.186301972717047" lon="-2.928381990641356">
        <ele>23.199999999999999</ele>
        <time>2003-04-19T22:25:20Z</time>
      </trkpt>
      <trkpt lat="35.185993015766144" lon="-2.928302027285099">
        <ele>21.5</ele>
        <time>2003-04-19T22:25:21Z</time>
      </trkpt>
      <trkpt lat="35.185247026383877" lon="-2.928237989544869">
        <ele>19.5</ele>
        <time>2003-04-19T22:25:27Z</time>
      </trkpt>
      <trkpt lat="35.184602038934827" lon="-2.92830303311348">
        <ele>16</ele>
        <time>2003-04-19T22:25:31Z</time>
      </trkpt>
      <trkpt lat="35.183610040694475" lon="-2.928421972319484">
        <ele>13.199999999999999</ele>
        <time>2003-04-19T22:25:36Z</time>
      </trkpt>
      <trkpt lat="35.182617958635092" lon="-2.928537977859378">
        <ele>12.300000000000001</ele>
        <time>2003-04-19T22:25:43Z</time>
      </trkpt>
      <trkpt lat="35.181652028113604" lon="-2.928481986746192">
        <ele>13.1</ele>
        <time>2003-04-19T22:25:48Z</time>
      </trkpt>
      <trkpt lat="35.180949959903955" lon="-2.928460026159883">
        <ele>14.300000000000001</ele>
        <time>2003-04-19T22:25:54Z</time>
      </trkpt>
      <trkpt lat="35.180632034316659" lon="-2.928473018109798">
        <ele>14</ele>
        <time>2003-04-19T22:25:57Z</time>
      </trkpt>
      <trkpt lat="35.179572980850935" lon="-2.928620036691427">
        <ele>16.199999999999999</ele>
        <time>2003-04-19T22:26:09Z</time>
      </trkpt>
      <trkpt lat="35.179284978657961" lon="-2.928830003365874">
        <ele>16.100000000000001</ele>
        <time>2003-04-19T22:26:13Z</time>
      </trkpt>
      <trkpt lat="35.179120022803545" lon="-2.929066959768534">
        <ele>16.800000000000001</ele>
        <time>2003-04-19T22:26:15Z</time>
      </trkpt>
      <trkpt lat="35.178498001769185" lon="-2.92995996773243">
        <ele>19.300000000000001</ele>
        <time>2003-04-19T22:26:28Z</time>
      </trkpt>
      <trkpt lat="35.178351989015937" lon="-2.930179992690682">
        <ele>20.199999999999999</ele>
        <time>2003-04-19T22:26:32Z</time>
      </trkpt>
      <trkpt lat="35.178279988467693" lon="-2.930276971310377">
        <ele>20.399999999999999</ele>
        <time>2003-04-19T22:26:37Z</time>
      </trkpt>
      <trkpt lat="35.178312007337809" lon="-2.930288035422564">
        <ele>17</ele>
        <time>2003-04-19T22:34:58Z</time>
      </trkpt>
    </trkseg>
  </trk>

  <trk>
    <name>030420</name>
    <desc>OziCE Track Log File</desc>
    <extensions>
      <gpxx:TrackExtension xmlns:gpxx="http://www.garmin.com/xmlschemas/GpxExtensions/v3">
        <gpxx:DisplayColor>Blue</gpxx:DisplayColor>
      </gpxx:TrackExtension>
    </extensions>
    <trkseg>
      <trkpt lat="35.178134981542826" lon="-2.930167000740767">
        <ele>-236.80000000000001</ele>
        <time>2003-04-20T07:39:13Z</time>
      </trkpt>
      <trkpt lat="35.178212011232972" lon="-2.930106986314058">
        <ele>25.5</ele>
        <time>2003-04-20T07:39:17Z</time>
      </trkpt>
      <trkpt lat="35.178230032324791" lon="-2.930082008242607">
        <ele>24.800000000000001</ele>
        <time>2003-04-20T07:39:50Z</time>
      </trkpt>
      <trkpt lat="35.178258027881384" lon="-2.930055018514395">
        <ele>15.699999999999999</ele>
        <time>2003-04-20T07:40:46Z</time>
      </trkpt>
      <trkpt lat="35.17831795848906" lon="-2.929983017966151">
        <ele>78</ele>
        <time>2003-04-20T07:41:01Z</time>
      </trkpt>
      <trkpt lat="35.17831502482295" lon="-2.930027022957802">
        <ele>20.399999999999999</ele>
        <time>2003-04-20T07:42:06Z</time>
      </trkpt>
      <trkpt lat="35.178319970145822" lon="-2.930016964673996">
        <ele>24.600000000000001</ele>
        <time>2003-04-20T07:43:24Z</time>
      </trkpt>
      <trkpt lat="35.178327010944486" lon="-2.930055018514395">
        <ele>16.899999999999999</ele>
        <time>2003-04-20T07:44:42Z</time>
      </trkpt>
      <trkpt lat="35.178398005664349" lon="-2.929989974945784">
        <ele>18.199999999999999</ele>
        <time>2003-04-20T07:44:56Z</time>
      </trkpt>
      <trkpt lat="35.178533038124442" lon="-2.92982803657651">
        <ele>18.5</ele>
        <time>2003-04-20T07:45:00Z</time>
      </trkpt>
      <trkpt lat="35.178662035614252" lon="-2.929672971367836">
        <ele>18.800000000000001</ele>
        <time>2003-04-20T07:45:03Z</time>
      </trkpt>
      <trkpt lat="35.178909972310066" lon="-2.929356973618269">
        <ele>18.199999999999999</ele>
        <time>2003-04-20T07:45:08Z</time>
      </trkpt>
      <trkpt lat="35.179207026958466" lon="-2.928924970328808">
        <ele>18.199999999999999</ele>
        <time>2003-04-20T07:45:12Z</time>
      </trkpt>
      <trkpt lat="35.179522018879652" lon="-2.928577959537506">
        <ele>17.5</ele>
        <time>2003-04-20T07:45:16Z</time>
      </trkpt>
      <trkpt lat="35.179612962529063" lon="-2.928530015051365">
        <ele>17.300000000000001</ele>
        <time>2003-04-20T07:45:18Z</time>
      </trkpt>
      <trkpt lat="35.179774984717369" lon="-2.928481986746192">
        <ele>16.899999999999999</ele>
        <time>2003-04-20T07:45:19Z</time>
      </trkpt>
      <trkpt lat="35.179898031055927" lon="-2.928467988967896">
        <ele>16.800000000000001</ele>
        <time>2003-04-20T07:45:22Z</time>
      </trkpt>
      <trkpt lat="35.180010013282299" lon="-2.928458014503121">
        <ele>16.899999999999999</ele>
        <time>2003-04-20T07:45:24Z</time>
      </trkpt>
      <trkpt lat="35.18009701743722" lon="-2.928448040038347">
        <ele>17.199999999999999</ele>
        <time>2003-04-20T07:45:35Z</time>
      </trkpt>
      <trkpt lat="35.180204976350069" lon="-2.9284349642694">
        <ele>17.399999999999999</ele>
        <time>2003-04-20T07:45:38Z</time>
      </trkpt>
      <trkpt lat="35.180404968559742" lon="-2.928407974541187">
        <ele>17.5</ele>
        <time>2003-04-20T07:45:41Z</time>
      </trkpt>
      <trkpt lat="35.18059004098177" lon="-2.928381990641356">
        <ele>18</ele>
        <time>2003-04-20T07:45:43Z</time>
      </trkpt>
      <trkpt lat="35.181275010108948" lon="-2.928342008963227">
        <ele>17.600000000000001</ele>
        <time>2003-04-20T07:45:50Z</time>
      </trkpt>
      <trkpt lat="35.182176986709237" lon="-2.928417026996613">
        <ele>16</ele>
        <time>2003-04-20T07:45:58Z</time>
      </trkpt>
      <trkpt lat="35.182628016918898" lon="-2.92843303643167">
        <ele>15.699999999999999</ele>
        <time>2003-04-20T07:46:02Z</time>
      </trkpt>
      <trkpt lat="35.183162027969956" lon="-2.928357012569904">
        <ele>15.699999999999999</ele>
        <time>2003-04-20T07:46:06Z</time>
      </trkpt>
      <trkpt lat="35.183805003762245" lon="-2.928276965394616">
        <ele>16.300000000000001</ele>
        <time>2003-04-20T07:46:10Z</time>
      </trkpt>
      <trkpt lat="35.184883000329137" lon="-2.928146962076426">
        <ele>19.300000000000001</ele>
        <time>2003-04-20T07:46:17Z</time>
      </trkpt>
      <trkpt lat="35.185582973062992" lon="-2.928115027025342">
        <ele>22.199999999999999</ele>
        <time>2003-04-20T07:46:21Z</time>
      </trkpt>
      <trkpt lat="35.186067027971148" lon="-2.928191972896457">
        <ele>24.600000000000001</ele>
        <time>2003-04-20T07:46:24Z</time>
      </trkpt>
      <trkpt lat="35.186529960483313" lon="-2.928345026448369">
        <ele>26.699999999999999</ele>
        <time>2003-04-20T07:46:26Z</time>
      </trkpt>
      <trkpt lat="35.186979984864593" lon="-2.928577959537506">
        <ele>28.600000000000001</ele>
        <time>2003-04-20T07:46:29Z</time>
      </trkpt>
      <trkpt lat="35.187842985615134" lon="-2.929092021659017">
        <ele>33.100000000000001</ele>
        <time>2003-04-20T07:46:36Z</time>
      </trkpt>
      <trkpt lat="35.188232995569706" lon="-2.929411958903074">
        <ele>34.299999999999997</ele>
        <time>2003-04-20T07:46:39Z</time>
      </trkpt>
      <trkpt lat="35.189006980508566" lon="-2.930191978812218">
        <ele>31.300000000000001</ele>
        <time>2003-04-20T07:46:44Z</time>
      </trkpt>
      <trkpt lat="35.189647022634745" lon="-2.930649966001511">
        <ele>28.800000000000001</ele>
        <time>2003-04-20T07:46:48Z</time>
      </trkpt>
      <trkpt lat="35.190182961523533" lon="-2.930888012051582">
        <ele>26.699999999999999</ele>
        <time>2003-04-20T07:46:52Z</time>
      </trkpt>
      <trkpt lat="35.190782016143203" lon="-2.931022960692644">
        <ele>24.699999999999999</ele>
        <time>2003-04-20T07:46:55Z</time>
      </trkpt>
      <trkpt lat="35.191418034955859" lon="-2.931052967905998">
        <ele>23</ele>
        <time>2003-04-20T07:46:57Z</time>
      </trkpt>
      <trkpt lat="35.191634958609939" lon="-2.931056991219521">
        <ele>22.5</ele>
        <time>2003-04-20T07:46:59Z</time>
      </trkpt>
      <trkpt lat="35.192723013460636" lon="-2.931097978726029">
        <ele>20.800000000000001</ele>
        <time>2003-04-20T07:47:04Z</time>
      </trkpt>
      <trkpt lat="35.19376496784389" lon="-2.931142989546061">
        <ele>19.899999999999999</ele>
        <time>2003-04-20T07:47:08Z</time>
      </trkpt>
      <trkpt lat="35.194286992773414" lon="-2.931165033951402">
        <ele>19.300000000000001</ele>
        <time>2003-04-20T07:47:11Z</time>
      </trkpt>
      <trkpt lat="35.194732993841171" lon="-2.93118498288095">
        <ele>18.899999999999999</ele>
        <time>2003-04-20T07:47:15Z</time>
      </trkpt>
      <trkpt lat="35.194876994937658" lon="-2.931181965395808">
        <ele>18.699999999999999</ele>
        <time>2003-04-20T07:47:15Z</time>
      </trkpt>
      <trkpt lat="35.195322996005416" lon="-2.931103007867932">
        <ele>18.199999999999999</ele>
        <time>2003-04-20T07:47:19Z</time>
      </trkpt>
      <trkpt lat="35.195632036775351" lon="-2.930973004549742">
        <ele>18.100000000000001</ele>
        <time>2003-04-20T07:47:20Z</time>
      </trkpt>
      <trkpt lat="35.196094969287515" lon="-2.930681984871626">
        <ele>17.199999999999999</ele>
        <time>2003-04-20T07:47:23Z</time>
      </trkpt>
      <trkpt lat="35.196380037814379" lon="-2.930407980456948">
        <ele>16.699999999999999</ele>
        <time>2003-04-20T07:47:26Z</time>
      </trkpt>
      <trkpt lat="35.196622023358941" lon="-2.930073039606214">
        <ele>16.699999999999999</ele>
        <time>2003-04-20T07:47:27Z</time>
      </trkpt>
      <trkpt lat="35.19715997390449" lon="-2.929154969751835">
        <ele>16.600000000000001</ele>
        <time>2003-04-20T07:47:33Z</time>
      </trkpt>
      <trkpt lat="35.197730027139187" lon="-2.92815500870347">
        <ele>17.5</ele>
        <time>2003-04-20T07:47:38Z</time>
      </trkpt>
      <trkpt lat="35.198362022638321" lon="-2.927072988823056">
        <ele>19.300000000000001</ele>
        <time>2003-04-20T07:47:42Z</time>
      </trkpt>
      <trkpt lat="35.198905002325773" lon="-2.926137987524271">
        <ele>20.600000000000001</ele>
        <time>2003-04-20T07:47:46Z</time>
      </trkpt>
      <trkpt lat="35.199482012540102" lon="-2.925165016204119">
        <ele>22.100000000000001</ele>
        <time>2003-04-20T07:47:50Z</time>
      </trkpt>
      <trkpt lat="35.20003697834909" lon="-2.924215011298657">
        <ele>23.800000000000001</ele>
        <time>2003-04-20T07:47:54Z</time>
      </trkpt>
      <trkpt lat="35.200693029910326" lon="-2.923108013346791">
        <ele>26.100000000000001</ele>
        <time>2003-04-20T07:48:00Z</time>
      </trkpt>
      <trkpt lat="35.201227962970734" lon="-2.922209976240993">
        <ele>27.100000000000001</ele>
        <time>2003-04-20T07:48:04Z</time>
      </trkpt>
      <trkpt lat="35.201934976503253" lon="-2.92121303267777">
        <ele>25</ele>
        <time>2003-04-20T07:48:09Z</time>
      </trkpt>
      <trkpt lat="35.202730000019073" lon="-2.920347014442086">
        <ele>20.5</ele>
        <time>2003-04-20T07:48:13Z</time>
      </trkpt>
      <trkpt lat="35.203608004376292" lon="-2.919503040611744">
        <ele>15.800000000000001</ele>
        <time>2003-04-20T07:48:18Z</time>
      </trkpt>
      <trkpt lat="35.204443009570241" lon="-2.918684966862202">
        <ele>16</ele>
        <time>2003-04-20T07:48:24Z</time>
      </trkpt>
      <trkpt lat="35.205227974802256" lon="-2.917924979701638">
        <ele>20.199999999999999</ele>
        <time>2003-04-20T07:48:28Z</time>
      </trkpt>
      <trkpt lat="35.205995002761483" lon="-2.917177984490991">
        <ele>24.300000000000001</ele>
        <time>2003-04-20T07:48:33Z</time>
      </trkpt>
      <trkpt lat="35.20671802572906" lon="-2.916501984000206">
        <ele>27.100000000000001</ele>
        <time>2003-04-20T07:48:39Z</time>
      </trkpt>
      <trkpt lat="35.207563005387783" lon="-2.915682988241315">
        <ele>28.600000000000001</ele>
        <time>2003-04-20T07:48:44Z</time>
      </trkpt>
      <trkpt lat="35.20837496034801" lon="-2.915068008005619">
        <ele>29.800000000000001</ele>
        <time>2003-04-20T07:48:50Z</time>
      </trkpt>
      <trkpt lat="35.208951970562339" lon="-2.914819987490773">
        <ele>29.699999999999999</ele>
        <time>2003-04-20T07:48:52Z</time>
      </trkpt>
      <trkpt lat="35.209972970187664" lon="-2.91457699611783">
        <ele>29.899999999999999</ele>
        <time>2003-04-20T07:48:58Z</time>
      </trkpt>
      <trkpt lat="35.210749972611666" lon="-2.914540031924844">
        <ele>30.5</ele>
        <time>2003-04-20T07:49:02Z</time>
      </trkpt>
      <trkpt lat="35.211712969467044" lon="-2.914580013602972">
        <ele>30.899999999999999</ele>
        <time>2003-04-20T07:49:07Z</time>
      </trkpt>
      <trkpt lat="35.212672026827931" lon="-2.914713034406304">
        <ele>31.5</ele>
        <time>2003-04-20T07:49:11Z</time>
      </trkpt>
      <trkpt lat="35.213215006515384" lon="-2.91491998359561">
        <ele>31.5</ele>
        <time>2003-04-20T07:49:15Z</time>
      </trkpt>
      <trkpt lat="35.213905004784465" lon="-2.915319968014956">
        <ele>30.800000000000001</ele>
        <time>2003-04-20T07:49:19Z</time>
      </trkpt>
      <trkpt lat="35.214525014162064" lon="-2.915845010429621">
        <ele>29.600000000000001</ele>
        <time>2003-04-20T07:49:22Z</time>
      </trkpt>
      <trkpt lat="35.215233033522964" lon="-2.916607009246945">
        <ele>27.699999999999999</ele>
        <time>2003-04-20T07:49:27Z</time>
      </trkpt>
      <trkpt lat="35.215984974056482" lon="-2.917419970035553">
        <ele>26.199999999999999</ele>
        <time>2003-04-20T07:49:33Z</time>
      </trkpt>
      <trkpt lat="35.216797012835741" lon="-2.918311972171068">
        <ele>24.5</ele>
        <time>2003-04-20T07:49:38Z</time>
      </trkpt>
      <trkpt lat="35.217484999448061" lon="-2.919032983481884">
        <ele>22.800000000000001</ele>
        <time>2003-04-20T07:49:42Z</time>
      </trkpt>
      <trkpt lat="35.218248004093766" lon="-2.919662967324257">
        <ele>20.600000000000001</ele>
        <time>2003-04-20T07:49:46Z</time>
      </trkpt>
      <trkpt lat="35.219100024551153" lon="-2.920126989483833">
        <ele>20.300000000000001</ele>
        <time>2003-04-20T07:49:49Z</time>
      </trkpt>
      <trkpt lat="35.219952967017889" lon="-2.920516999438405">
        <ele>23</ele>
        <time>2003-04-20T07:49:53Z</time>
      </trkpt>
      <trkpt lat="35.220937002450228" lon="-2.921010022982955">
        <ele>26</ele>
        <time>2003-04-20T07:49:58Z</time>
      </trkpt>
      <trkpt lat="35.221806960180402" lon="-2.921632966026664">
        <ele>25.800000000000001</ele>
        <time>2003-04-20T07:50:04Z</time>
      </trkpt>
      <trkpt lat="35.222426969558001" lon="-2.922296980395913">
        <ele>24.300000000000001</ele>
        <time>2003-04-20T07:50:08Z</time>
      </trkpt>
      <trkpt lat="35.223143035545945" lon="-2.923323009163141">
        <ele>20.600000000000001</ele>
        <time>2003-04-20T07:50:13Z</time>
      </trkpt>
      <trkpt lat="35.22386496886611" lon="-2.924258010461927">
        <ele>17.300000000000001</ele>
        <time>2003-04-20T07:50:17Z</time>
      </trkpt>
      <trkpt lat="35.224375007674098" lon="-2.924705017358065">
        <ele>16</ele>
        <time>2003-04-20T07:50:20Z</time>
      </trkpt>
      <trkpt lat="35.225112028419971" lon="-2.925152024254203">
        <ele>15.9</ele>
        <time>2003-04-20T07:50:24Z</time>
      </trkpt>
      <trkpt lat="35.226084999740124" lon="-2.925557959824801">
        <ele>16.899999999999999</ele>
        <time>2003-04-20T07:50:29Z</time>
      </trkpt>
      <trkpt lat="35.227012038230896" lon="-2.925946963950992">
        <ele>17.699999999999999</ele>
        <time>2003-04-20T07:50:35Z</time>
      </trkpt>
      <trkpt lat="35.227964976802468" lon="-2.926322976127267">
        <ele>18.5</ele>
        <time>2003-04-20T07:50:40Z</time>
      </trkpt>
      <trkpt lat="35.228872988373041" lon="-2.926766965538263">
        <ele>19.100000000000001</ele>
        <time>2003-04-20T07:50:44Z</time>
      </trkpt>
      <trkpt lat="35.229719979688525" lon="-2.927308017387986">
        <ele>19.899999999999999</ele>
        <time>2003-04-20T07:50:50Z</time>
      </trkpt>
      <trkpt lat="35.230527995154262" lon="-2.927973037585616">
        <ele>20.300000000000001</ele>
        <time>2003-04-20T07:50:55Z</time>
      </trkpt>
      <trkpt lat="35.231314972043037" lon="-2.928705029189587">
        <ele>20.300000000000001</ele>
        <time>2003-04-20T07:50:59Z</time>
      </trkpt>
      <trkpt lat="35.232113013044" lon="-2.929431991651654">
        <ele>21.300000000000001</ele>
        <time>2003-04-20T07:51:05Z</time>
      </trkpt>
      <trkpt lat="35.232926979660988" lon="-2.930179992690682">
        <ele>21.800000000000001</ele>
        <time>2003-04-20T07:51:10Z</time>
      </trkpt>
      <trkpt lat="35.233732983469963" lon="-2.930948026478291">
        <ele>22.199999999999999</ele>
        <time>2003-04-20T07:51:14Z</time>
      </trkpt>
      <trkpt lat="35.234577963128686" lon="-2.931632995605469">
        <ele>22.300000000000001</ele>
        <time>2003-04-20T07:51:19Z</time>
      </trkpt>
      <trkpt lat="35.234957998618484" lon="-2.93182997033">
        <ele>22.100000000000001</ele>
        <time>2003-04-20T07:51:22Z</time>
      </trkpt>
      <trkpt lat="35.235968017950654" lon="-2.932159965857863">
        <ele>20.199999999999999</ele>
        <time>2003-04-20T07:51:26Z</time>
      </trkpt>
      <trkpt lat="35.236937971785665" lon="-2.932457020506263">
        <ele>18.600000000000001</ele>
        <time>2003-04-20T07:51:32Z</time>
      </trkpt>
      <trkpt lat="35.237931981682777" lon="-2.932767989113927">
        <ele>17.199999999999999</ele>
        <time>2003-04-20T07:51:37Z</time>
      </trkpt>
      <trkpt lat="35.238922974094748" lon="-2.933081975206733">
        <ele>16.5</ele>
        <time>2003-04-20T07:51:41Z</time>
      </trkpt>
      <trkpt lat="35.23987197317183" lon="-2.933377018198371">
        <ele>17</ele>
        <time>2003-04-20T07:51:46Z</time>
      </trkpt>
      <trkpt lat="35.240180008113384" lon="-2.933469973504543">
        <ele>17.199999999999999</ele>
        <time>2003-04-20T07:51:49Z</time>
      </trkpt>
      <trkpt lat="35.240417970344424" lon="-2.933544991537929">
        <ele>17.5</ele>
        <time>2003-04-20T07:51:50Z</time>
      </trkpt>
      <trkpt lat="35.241418015211821" lon="-2.933852020651102">
        <ele>18.5</ele>
        <time>2003-04-20T07:51:59Z</time>
      </trkpt>
      <trkpt lat="35.242365002632141" lon="-2.934140022844076">
        <ele>19.600000000000001</ele>
        <time>2003-04-20T07:52:04Z</time>
      </trkpt>
      <trkpt lat="35.243412991985679" lon="-2.934483010321856">
        <ele>21.199999999999999</ele>
        <time>2003-04-20T07:52:11Z</time>
      </trkpt>
      <trkpt lat="35.244335001334548" lon="-2.934866985306144">
        <ele>22.600000000000001</ele>
        <time>2003-04-20T07:52:16Z</time>
      </trkpt>
      <trkpt lat="35.245021982118487" lon="-2.935367971658707">
        <ele>23.399999999999999</ele>
        <time>2003-04-20T07:52:20Z</time>
      </trkpt>
      <trkpt lat="35.245784986764193" lon="-2.936108009889722">
        <ele>23.699999999999999</ele>
        <time>2003-04-20T07:52:26Z</time>
      </trkpt>
      <trkpt lat="35.246571963652968" lon="-2.936830027028918">
        <ele>23.600000000000001</ele>
        <time>2003-04-20T07:52:30Z</time>
      </trkpt>
      <trkpt lat="35.247366987168789" lon="-2.937580039724708">
        <ele>23.800000000000001</ele>
        <time>2003-04-20T07:52:35Z</time>
      </trkpt>
      <trkpt lat="35.248178020119667" lon="-2.938327034935355">
        <ele>23.800000000000001</ele>
        <time>2003-04-20T07:52:39Z</time>
      </trkpt>
      <trkpt lat="35.249010007828474" lon="-2.939051985740662">
        <ele>25.199999999999999</ele>
        <time>2003-04-20T07:52:44Z</time>
      </trkpt>
      <trkpt lat="35.249772006645799" lon="-2.939737038686872">
        <ele>27.699999999999999</ele>
        <time>2003-04-20T07:52:50Z</time>
      </trkpt>
      <trkpt lat="35.25035304017365" lon="-2.940150015056133">
        <ele>30.399999999999999</ele>
        <time>2003-04-20T07:52:54Z</time>
      </trkpt>
      <trkpt lat="35.250793006271124" lon="-2.940342966467142">
        <ele>32.799999999999997</ele>
        <time>2003-04-20T07:52:58Z</time>
      </trkpt>
      <trkpt lat="35.25170998647809" lon="-2.940614959225059">
        <ele>37</ele>
        <time>2003-04-20T07:53:03Z</time>
      </trkpt>
      <trkpt lat="35.252169985324144" lon="-2.940661981701851">
        <ele>39</ele>
        <time>2003-04-20T07:53:06Z</time>
      </trkpt>
      <trkpt lat="35.25248296558857" lon="-2.94065997004509">
        <ele>40</ele>
        <time>2003-04-20T07:53:07Z</time>
      </trkpt>
      <trkpt lat="35.253087971359491" lon="-2.940561985597014">
        <ele>41.299999999999997</ele>
        <time>2003-04-20T07:53:13Z</time>
      </trkpt>
      <trkpt lat="35.253667999058962" lon="-2.940382026135922">
        <ele>42.600000000000001</ele>
        <time>2003-04-20T07:53:17Z</time>
      </trkpt>
      <trkpt lat="35.254550026729703" lon="-2.939918003976345">
        <ele>43.399999999999999</ele>
        <time>2003-04-20T07:53:22Z</time>
      </trkpt>
      <trkpt lat="35.255487961694598" lon="-2.939396984875202">
        <ele>42.700000000000003</ele>
        <time>2003-04-20T07:53:29Z</time>
      </trkpt>
      <trkpt lat="35.256336964666843" lon="-2.939037987962365">
        <ele>46.200000000000003</ele>
        <time>2003-04-20T07:53:33Z</time>
      </trkpt>
      <trkpt lat="35.256986981257796" lon="-2.938903039321303">
        <ele>45.399999999999999</ele>
        <time>2003-04-20T07:53:37Z</time>
      </trkpt>
      <trkpt lat="35.257587963715196" lon="-2.938889963552356">
        <ele>44.5</ele>
        <time>2003-04-20T07:53:41Z</time>
      </trkpt>
      <trkpt lat="35.258162962272763" lon="-2.938994988799095">
        <ele>43.799999999999997</ele>
        <time>2003-04-20T07:53:45Z</time>
      </trkpt>
      <trkpt lat="35.258993022143841" lon="-2.939124992117286">
        <ele>42.299999999999997</ele>
        <time>2003-04-20T07:53:51Z</time>
      </trkpt>
      <trkpt lat="35.259672962129116" lon="-2.93913303874433">
        <ele>41.700000000000003</ele>
        <time>2003-04-20T07:53:55Z</time>
      </trkpt>
      <trkpt lat="35.260526994243264" lon="-2.93902700766921">
        <ele>40.299999999999997</ele>
        <time>2003-04-20T07:54:00Z</time>
      </trkpt>
      <trkpt lat="35.260688010603189" lon="-2.938951989635825">
        <ele>40.200000000000003</ele>
        <time>2003-04-20T07:54:00Z</time>
      </trkpt>
      <trkpt lat="35.261556962504983" lon="-2.938472963869572">
        <ele>36.299999999999997</ele>
        <time>2003-04-20T07:54:07Z</time>
      </trkpt>
      <trkpt lat="35.262217037379742" lon="-2.937963008880615">
        <ele>32.899999999999999</ele>
        <time>2003-04-20T07:54:12Z</time>
      </trkpt>
      <trkpt lat="35.262591959908605" lon="-2.937527988106012">
        <ele>31.100000000000001</ele>
        <time>2003-04-20T07:54:15Z</time>
      </trkpt>
      <trkpt lat="35.263120019808412" lon="-2.936687031760812">
        <ele>27.399999999999999</ele>
        <time>2003-04-20T07:54:19Z</time>
      </trkpt>
      <trkpt lat="35.263433000072837" lon="-2.936027040705085">
        <ele>25</ele>
        <time>2003-04-20T07:54:23Z</time>
      </trkpt>
      <trkpt lat="35.263544982299209" lon="-2.935777008533478">
        <ele>24</ele>
        <time>2003-04-20T07:54:26Z</time>
      </trkpt>
      <trkpt lat="35.264043034985662" lon="-2.934755003079772">
        <ele>20.399999999999999</ele>
        <time>2003-04-20T07:54:32Z</time>
      </trkpt>
      <trkpt lat="35.264476966112852" lon="-2.933786977082491">
        <ele>16.899999999999999</ele>
        <time>2003-04-20T07:54:39Z</time>
      </trkpt>
      <trkpt lat="35.26492296718061" lon="-2.932848036289215">
        <ele>13.800000000000001</ele>
        <time>2003-04-20T07:54:45Z</time>
      </trkpt>
      <trkpt lat="35.265087001025677" lon="-2.932502031326294">
        <ele>13.1</ele>
        <time>2003-04-20T07:54:47Z</time>
      </trkpt>
      <trkpt lat="35.265166964381933" lon="-2.932306984439492">
        <ele>12.800000000000001</ele>
        <time>2003-04-20T07:54:50Z</time>
      </trkpt>
      <trkpt lat="35.26530702598393" lon="-2.931922003626823">
        <ele>12.199999999999999</ele>
        <time>2003-04-20T07:54:54Z</time>
      </trkpt>
      <trkpt lat="35.265492014586926" lon="-2.931512966752052">
        <ele>11.4</ele>
        <time>2003-04-20T07:54:58Z</time>
      </trkpt>
      <trkpt lat="35.265827039256692" lon="-2.930796984583139">
        <ele>10.1</ele>
        <time>2003-04-20T07:55:03Z</time>
      </trkpt>
      <trkpt lat="35.266315033659339" lon="-2.929740026593208">
        <ele>9.9</ele>
        <time>2003-04-20T07:55:12Z</time>
      </trkpt>
      <trkpt lat="35.266694985330105" lon="-2.928894963115454">
        <ele>9.4</ele>
        <time>2003-04-20T07:55:18Z</time>
      </trkpt>
      <trkpt lat="35.266773020848632" lon="-2.928722966462374">
        <ele>9.300000000000001</ele>
        <time>2003-04-20T07:55:21Z</time>
      </trkpt>
      <trkpt lat="35.266843009740114" lon="-2.928632022812963">
        <ele>9.199999999999999</ele>
        <time>2003-04-20T07:55:22Z</time>
      </trkpt>
      <trkpt lat="35.266939988359809" lon="-2.92869002558291">
        <ele>8.9</ele>
        <time>2003-04-20T07:55:26Z</time>
      </trkpt>
      <trkpt lat="35.267036966979504" lon="-2.928781975060701">
        <ele>9.199999999999999</ele>
        <time>2003-04-20T07:55:29Z</time>
      </trkpt>
      <trkpt lat="35.267141992226243" lon="-2.928814999759197">
        <ele>9.6</ele>
        <time>2003-04-20T07:55:33Z</time>
      </trkpt>
      <trkpt lat="35.267218016088009" lon="-2.928877025842667">
        <ele>9.9</ele>
        <time>2003-04-20T07:55:37Z</time>
      </trkpt>
      <trkpt lat="35.267239976674318" lon="-2.928856993094087">
        <ele>21.600000000000001</ele>
        <time>2003-04-20T07:57:52Z</time>
      </trkpt>
      <trkpt lat="35.267267972230911" lon="-2.92895196005702">
        <ele>15.1</ele>
        <time>2003-04-20T07:58:26Z</time>
      </trkpt>
      <trkpt lat="35.267339972779155" lon="-2.929052039980888">
        <ele>15</ele>
        <time>2003-04-20T07:58:30Z</time>
      </trkpt>
      <trkpt lat="35.267448015511036" lon="-2.929132003337145">
        <ele>15</ele>
        <time>2003-04-20T07:58:34Z</time>
      </trkpt>
      <trkpt lat="35.267529990524054" lon="-2.929175002500415">
        <ele>12.9</ele>
        <time>2003-04-20T07:59:01Z</time>
      </trkpt>
      <trkpt lat="35.26762998662889" lon="-2.92922998778522">
        <ele>13.1</ele>
        <time>2003-04-20T07:59:09Z</time>
      </trkpt>
      <trkpt lat="35.267722019925714" lon="-2.929341970011592">
        <ele>13.1</ele>
        <time>2003-04-20T07:59:12Z</time>
      </trkpt>
      <trkpt lat="35.267807012423873" lon="-2.929429979994893">
        <ele>13.1</ele>
        <time>2003-04-20T07:59:15Z</time>
      </trkpt>
      <trkpt lat="35.267868032678962" lon="-2.929431991651654">
        <ele>14.1</ele>
        <time>2003-04-20T07:59:56Z</time>
      </trkpt>
      <trkpt lat="35.267937015742064" lon="-2.929307017475367">
        <ele>14.1</ele>
        <time>2003-04-20T08:00:00Z</time>
      </trkpt>
      <trkpt lat="35.267998035997152" lon="-2.929210038855672">
        <ele>13.9</ele>
        <time>2003-04-20T08:00:03Z</time>
      </trkpt>
      <trkpt lat="35.268114963546395" lon="-2.929026978090406">
        <ele>13.5</ele>
        <time>2003-04-20T08:00:06Z</time>
      </trkpt>
      <trkpt lat="35.268685016781092" lon="-2.928128018975258">
        <ele>12.199999999999999</ele>
        <time>2003-04-20T08:00:22Z</time>
      </trkpt>
      <trkpt lat="35.269049964845181" lon="-2.92761798016727">
        <ele>11.9</ele>
        <time>2003-04-20T08:00:30Z</time>
      </trkpt>
      <trkpt lat="35.269194971770048" lon="-2.927504992112517">
        <ele>12.4</ele>
        <time>2003-04-20T08:00:33Z</time>
      </trkpt>
      <trkpt lat="35.269292034208775" lon="-2.927427962422371">
        <ele>12.300000000000001</ele>
        <time>2003-04-20T08:00:34Z</time>
      </trkpt>
      <trkpt lat="35.269454978406429" lon="-2.927272981032729">
        <ele>12.6</ele>
        <time>2003-04-20T08:00:37Z</time>
      </trkpt>
      <trkpt lat="35.269537959247828" lon="-2.927127974107862">
        <ele>13.1</ele>
        <time>2003-04-20T08:00:42Z</time>
      </trkpt>
      <trkpt lat="35.26969201862812" lon="-2.926805019378662">
        <ele>13.300000000000001</ele>
        <time>2003-04-20T08:00:50Z</time>
      </trkpt>
      <trkpt lat="35.268698008731008" lon="-2.926492961123586">
        <ele>2.8</ele>
        <time>2003-04-20T08:00:53Z</time>
      </trkpt>
      <trkpt lat="35.269452966749668" lon="-2.927052034065127">
        <ele>-123.2</ele>
        <time>2003-04-20T08:00:54Z</time>
      </trkpt>
      <trkpt lat="35.269379960373044" lon="-2.926957989111543">
        <ele>-26.5</ele>
        <time>2003-04-20T08:01:00Z</time>
      </trkpt>
      <trkpt lat="35.269309971481562" lon="-2.926903003826737">
        <ele>-34.5</ele>
        <time>2003-04-20T08:01:03Z</time>
      </trkpt>
      <trkpt lat="35.269437041133642" lon="-2.927008029073477">
        <ele>-34.600000000000001</ele>
        <time>2003-04-20T08:01:04Z</time>
      </trkpt>
      <trkpt lat="35.269073015078902" lon="-2.926760008558631">
        <ele>-17.800000000000001</ele>
        <time>2003-04-20T08:01:07Z</time>
      </trkpt>
      <trkpt lat="35.268900012597442" lon="-2.926632016897202">
        <ele>-85.099999999999994</ele>
        <time>2003-04-20T08:01:09Z</time>
      </trkpt>
      <trkpt lat="35.268791969865561" lon="-2.926578037440777">
        <ele>-84.799999999999997</ele>
        <time>2003-04-20T08:01:17Z</time>
      </trkpt>
      <trkpt lat="35.267523033544421" lon="-2.925604982301593">
        <ele>-118.7</ele>
        <time>2003-04-20T08:01:28Z</time>
      </trkpt>
      <trkpt lat="35.269009983167052" lon="-2.926773000508547">
        <ele>-238.80000000000001</ele>
        <time>2003-04-20T08:01:31Z</time>
      </trkpt>
      <trkpt lat="35.269226990640163" lon="-2.926926976069808">
        <ele>-25.100000000000001</ele>
        <time>2003-04-20T08:01:32Z</time>
      </trkpt>
      <trkpt lat="35.269237970933318" lon="-2.926920019090176">
        <ele>-28</ele>
        <time>2003-04-20T08:01:40Z</time>
      </trkpt>
      <trkpt lat="35.267837019637227" lon="-2.925940006971359">
        <ele>-28.800000000000001</ele>
        <time>2003-04-20T08:01:55Z</time>
      </trkpt>
      <trkpt lat="35.268062995746732" lon="-2.926117032766342">
        <ele>-196.90000000000001</ele>
        <time>2003-04-20T08:01:58Z</time>
      </trkpt>
      <trkpt lat="35.26823197491467" lon="-2.926252987235785">
        <ele>-136.69999999999999</ele>
        <time>2003-04-20T08:02:02Z</time>
      </trkpt>
      <trkpt lat="35.268368013203144" lon="-2.926354994997382">
        <ele>-136.59999999999999</ele>
        <time>2003-04-20T08:02:03Z</time>
      </trkpt>
      <trkpt lat="35.268502039834857" lon="-2.926445016637445">
        <ele>-112.90000000000001</ele>
        <time>2003-04-20T08:02:07Z</time>
      </trkpt>
      <trkpt lat="35.268543027341366" lon="-2.926454991102219">
        <ele>-103.90000000000001</ele>
        <time>2003-04-20T08:02:26Z</time>
      </trkpt>
      <trkpt lat="35.268464991822839" lon="-2.926391959190369">
        <ele>-102.40000000000001</ele>
        <time>2003-04-20T08:02:36Z</time>
      </trkpt>
      <trkpt lat="35.26831797324121" lon="-2.926294980570674">
        <ele>-102.5</ele>
        <time>2003-04-20T08:02:56Z</time>
      </trkpt>
      <trkpt lat="35.268400032073259" lon="-2.926349965855479">
        <ele>-100.8</ele>
        <time>2003-04-20T08:03:07Z</time>
      </trkpt>
      <trkpt lat="35.268417969346046" lon="-2.926347032189369">
        <ele>-107.90000000000001</ele>
        <time>2003-04-20T08:03:16Z</time>
      </trkpt>
      <trkpt lat="35.26853003539145" lon="-2.926421966403723">
        <ele>-101.3</ele>
        <time>2003-04-20T08:03:31Z</time>
      </trkpt>
      <trkpt lat="35.268612010404468" lon="-2.92647996917367">
        <ele>-98.400000000000006</ele>
        <time>2003-04-20T08:03:36Z</time>
      </trkpt>
      <trkpt lat="35.268700020387769" lon="-2.926537971943617">
        <ele>-88.900000000000006</ele>
        <time>2003-04-20T08:03:43Z</time>
      </trkpt>
      <trkpt lat="35.268777972087264" lon="-2.926593041047454">
        <ele>-81.799999999999997</ele>
        <time>2003-04-20T08:03:54Z</time>
      </trkpt>
      <trkpt lat="35.269143003970385" lon="-2.926837960258126">
        <ele>-36.600000000000001</ele>
        <time>2003-04-20T08:03:55Z</time>
      </trkpt>
      <trkpt lat="35.269147027283907" lon="-2.926862016320229">
        <ele>-28.899999999999999</ele>
        <time>2003-04-20T08:03:58Z</time>
      </trkpt>
      <trkpt lat="35.269196983426809" lon="-2.926860004663467">
        <ele>-25.899999999999999</ele>
        <time>2003-04-20T08:04:12Z</time>
      </trkpt>
      <trkpt lat="35.269278036430478" lon="-2.926892023533583">
        <ele>-26.800000000000001</ele>
        <time>2003-04-20T08:04:39Z</time>
      </trkpt>
      <trkpt lat="35.269217016175389" lon="-2.926842989400029">
        <ele>-35.600000000000001</ele>
        <time>2003-04-20T08:04:51Z</time>
      </trkpt>
      <trkpt lat="35.269237970933318" lon="-2.926917001605034">
        <ele>-37</ele>
        <time>2003-04-20T08:05:12Z</time>
      </trkpt>
      <trkpt lat="35.268752994015813" lon="-2.925955010578036">
        <ele>-37</ele>
        <time>2003-04-20T08:05:38Z</time>
      </trkpt>
      <trkpt lat="35.268619973212481" lon="-2.926452979445458">
        <ele>-38</ele>
        <time>2003-04-20T08:05:41Z</time>
      </trkpt>
      <trkpt lat="35.268921973183751" lon="-2.927112970501185">
        <ele>-124.40000000000001</ele>
        <time>2003-04-20T08:05:42Z</time>
      </trkpt>
      <trkpt lat="35.268543027341366" lon="-2.926290035247803">
        <ele>-110.90000000000001</ele>
        <time>2003-04-20T08:05:45Z</time>
      </trkpt>
      <trkpt lat="35.268506985157728" lon="-2.926439987495542">
        <ele>-111.3</ele>
        <time>2003-04-20T08:05:46Z</time>
      </trkpt>
      <trkpt lat="35.268770009279251" lon="-2.92667199857533">
        <ele>-130.69999999999999</ele>
        <time>2003-04-20T08:05:46Z</time>
      </trkpt>
      <trkpt lat="35.268915016204119" lon="-2.926784986630082">
        <ele>-89.900000000000006</ele>
        <time>2003-04-20T08:05:49Z</time>
      </trkpt>
      <trkpt lat="35.268977964296937" lon="-2.92690803296864">
        <ele>-89.900000000000006</ele>
        <time>2003-04-20T08:05:50Z</time>
      </trkpt>
      <trkpt lat="35.268996991217136" lon="-2.926863022148609">
        <ele>-90.299999999999997</ele>
        <time>2003-04-20T08:06:00Z</time>
      </trkpt>
      <trkpt lat="35.268915016204119" lon="-2.926750034093857">
        <ele>-95</ele>
        <time>2003-04-20T08:06:04Z</time>
      </trkpt>
      <trkpt lat="35.268930019810796" lon="-2.926736958324909">
        <ele>-93.900000000000006</ele>
        <time>2003-04-20T08:06:12Z</time>
      </trkpt>
      <trkpt lat="35.268937982618809" lon="-2.9267149977386">
        <ele>-86.900000000000006</ele>
        <time>2003-04-20T08:06:35Z</time>
      </trkpt>
      <trkpt lat="35.268891965970397" lon="-2.926626987755299">
        <ele>-89.299999999999997</ele>
        <time>2003-04-20T08:07:07Z</time>
      </trkpt>
      <trkpt lat="35.268847960978746" lon="-2.926603015512228">
        <ele>-96.5</ele>
        <time>2003-04-20T08:07:44Z</time>
      </trkpt>
      <trkpt lat="35.268857013434172" lon="-2.926624976098537">
        <ele>-29.699999999999999</ele>
        <time>2003-04-20T08:08:09Z</time>
      </trkpt>
      <trkpt lat="35.268933037295938" lon="-2.926690019667149">
        <ele>-23.5</ele>
        <time>2003-04-20T08:08:19Z</time>
      </trkpt>
      <trkpt lat="35.269020041450858" lon="-2.926765037700534">
        <ele>-24.899999999999999</ele>
        <time>2003-04-20T08:08:25Z</time>
      </trkpt>
      <trkpt lat="35.269192960113287" lon="-2.926841983571649">
        <ele>-25.100000000000001</ele>
        <time>2003-04-20T08:09:37Z</time>
      </trkpt>
      <trkpt lat="35.269178040325642" lon="-2.926747016608715">
        <ele>-26.899999999999999</ele>
        <time>2003-04-20T08:09:49Z</time>
      </trkpt>
      <trkpt lat="35.268372958526015" lon="-2.926432024687529">
        <ele>-27.100000000000001</ele>
        <time>2003-04-20T08:10:04Z</time>
      </trkpt>
      <trkpt lat="35.268407994881272" lon="-2.92639497667551">
        <ele>-176.90000000000001</ele>
        <time>2003-04-20T08:10:08Z</time>
      </trkpt>
      <trkpt lat="35.268398020416498" lon="-2.926287017762661">
        <ele>-177</ele>
        <time>2003-04-20T08:10:16Z</time>
      </trkpt>
      <trkpt lat="35.268425010144711" lon="-2.926362035796046">
        <ele>-176.80000000000001</ele>
        <time>2003-04-20T08:10:28Z</time>
      </trkpt>
      <trkpt lat="35.268517965450883" lon="-2.926599998027086">
        <ele>-176.80000000000001</ele>
        <time>2003-04-20T08:10:32Z</time>
      </trkpt>
      <trkpt lat="35.268972013145685" lon="-2.927895002067089">
        <ele>-176.69999999999999</ele>
        <time>2003-04-20T08:11:02Z</time>
      </trkpt>
      <trkpt lat="35.269032027572393" lon="-2.927977982908487">
        <ele>-176.59999999999999</ele>
        <time>2003-04-20T08:11:05Z</time>
      </trkpt>
      <trkpt lat="35.268991962075233" lon="-2.927862983196974">
        <ele>-176.69999999999999</ele>
        <time>2003-04-20T08:11:14Z</time>
      </trkpt>
      <trkpt lat="35.269143003970385" lon="-2.9268669616431">
        <ele>-176.69999999999999</ele>
        <time>2003-04-20T08:11:21Z</time>
      </trkpt>
      <trkpt lat="35.269200000911951" lon="-2.92692999355495">
        <ele>-47.399999999999999</ele>
        <time>2003-04-20T08:11:25Z</time>
      </trkpt>
      <trkpt lat="35.269292034208775" lon="-2.926981961354613">
        <ele>-25.899999999999999</ele>
        <time>2003-04-20T08:11:26Z</time>
      </trkpt>
      <trkpt lat="35.269326986745" lon="-2.927010040730238">
        <ele>-8.699999999999999</ele>
        <time>2003-04-20T08:11:33Z</time>
      </trkpt>
      <trkpt lat="35.269311983138323" lon="-2.927112970501185">
        <ele>-17.399999999999999</ele>
        <time>2003-04-20T08:11:40Z</time>
      </trkpt>
      <trkpt lat="35.269312988966703" lon="-2.927148006856442">
        <ele>-17.5</ele>
        <time>2003-04-20T08:11:55Z</time>
      </trkpt>
      <trkpt lat="35.269260015338659" lon="-2.927044993266463">
        <ele>-17.5</ele>
        <time>2003-04-20T08:12:01Z</time>
      </trkpt>
      <trkpt lat="35.269205030053854" lon="-2.927007023245096">
        <ele>-17.5</ele>
        <time>2003-04-20T08:12:31Z</time>
      </trkpt>
      <trkpt lat="35.26909195818007" lon="-2.926507964730263">
        <ele>-236.80000000000001</ele>
        <time>2003-04-20T08:12:45Z</time>
      </trkpt>
      <trkpt lat="35.269224978983402" lon="-2.926718015223742">
        <ele>-17.800000000000001</ele>
        <time>2003-04-20T08:13:02Z</time>
      </trkpt>
      <trkpt lat="35.269092964008451" lon="-2.926567979156971">
        <ele>-18</ele>
        <time>2003-04-20T08:13:06Z</time>
      </trkpt>
      <trkpt lat="35.268958015367389" lon="-2.926417021080852">
        <ele>-30</ele>
        <time>2003-04-20T08:13:13Z</time>
      </trkpt>
      <trkpt lat="35.269009983167052" lon="-2.926552975550294">
        <ele>-38.5</ele>
        <time>2003-04-20T08:13:17Z</time>
      </trkpt>
      <trkpt lat="35.269017023965716" lon="-2.926612989977002">
        <ele>-39.399999999999999</ele>
        <time>2003-04-20T08:13:33Z</time>
      </trkpt>
      <trkpt lat="35.269052982330322" lon="-2.926666969433427">
        <ele>-40.899999999999999</ele>
        <time>2003-04-20T08:14:23Z</time>
      </trkpt>
      <trkpt lat="35.26827497407794" lon="-2.926227003335953">
        <ele>-236.80000000000001</ele>
        <time>2003-04-20T08:15:05Z</time>
      </trkpt>
      <trkpt lat="35.268001975491643" lon="-2.926051989197731">
        <ele>-149.30000000000001</ele>
        <time>2003-04-20T08:15:09Z</time>
      </trkpt>
      <trkpt lat="35.267520016059279" lon="-2.925685029476881">
        <ele>-149.69999999999999</ele>
        <time>2003-04-20T08:15:09Z</time>
      </trkpt>
      <trkpt lat="35.268434984609485" lon="-2.926276959478855">
        <ele>-88.799999999999997</ele>
        <time>2003-04-20T08:15:12Z</time>
      </trkpt>
      <trkpt lat="35.268860030919313" lon="-2.926469994708896">
        <ele>-45.100000000000001</ele>
        <time>2003-04-20T08:15:14Z</time>
      </trkpt>
      <trkpt lat="35.268864976242185" lon="-2.926560016348958">
        <ele>-44.5</ele>
        <time>2003-04-20T08:15:21Z</time>
      </trkpt>
      <trkpt lat="35.268922979012132" lon="-2.92665196582675">
        <ele>-43.100000000000001</ele>
        <time>2003-04-20T08:15:29Z</time>
      </trkpt>
      <trkpt lat="35.268992967903614" lon="-2.926732013002038">
        <ele>-41.799999999999997</ele>
        <time>2003-04-20T08:15:41Z</time>
      </trkpt>
      <trkpt lat="35.269085001200438" lon="-2.92677802965045">
        <ele>-36.899999999999999</ele>
        <time>2003-04-20T08:15:55Z</time>
      </trkpt>
      <trkpt lat="35.269152978435159" lon="-2.926852041855454">
        <ele>-33.299999999999997</ele>
        <time>2003-04-20T08:16:00Z</time>
      </trkpt>
      <trkpt lat="35.269079972058535" lon="-2.926590023562312">
        <ele>-236.80000000000001</ele>
        <time>2003-04-20T08:17:24Z</time>
      </trkpt>
    </trkseg>
  </trk>

  <trk>
    <name>030420_España</name>
    <extensions>
      <gpxx:TrackExtension xmlns:gpxx="http://www.garmin.com/xmlschemas/GpxExtensions/v3">
        <gpxx:DisplayColor>Magenta</gpxx:DisplayColor>
      </gpxx:TrackExtension>
    </extensions>
    <trkseg>
      <trkpt lat="36.836042990908027" lon="-2.471613027155399">
        <ele>11.9</ele>
        <time>2003-04-20T16:27:08Z</time>
      </trkpt>
      <trkpt lat="36.836080038920045" lon="-2.471727021038532">
        <ele>12.1</ele>
        <time>2003-04-20T16:27:09Z</time>
      </trkpt>
      <trkpt lat="36.836137035861611" lon="-2.471904968842864">
        <ele>13.1</ele>
        <time>2003-04-20T16:27:14Z</time>
      </trkpt>
      <trkpt lat="36.83617701753974" lon="-2.472024997696281">
        <ele>12.800000000000001</ele>
        <time>2003-04-20T16:27:18Z</time>
      </trkpt>
      <trkpt lat="36.836514975875616" lon="-2.47262698598206">
        <ele>23.300000000000001</ele>
        <time>2003-04-20T16:28:26Z</time>
      </trkpt>
      <trkpt lat="36.836644979193807" lon="-2.472593039274216">
        <ele>22.5</ele>
        <time>2003-04-20T16:28:29Z</time>
      </trkpt>
      <trkpt lat="36.836750004440546" lon="-2.472526989877224">
        <ele>21.399999999999999</ele>
        <time>2003-04-20T16:28:33Z</time>
      </trkpt>
      <trkpt lat="36.836842959746718" lon="-2.472507962957025">
        <ele>20.899999999999999</ele>
        <time>2003-04-20T16:28:36Z</time>
      </trkpt>
      <trkpt lat="36.83690800331533" lon="-2.472602007910609">
        <ele>20.399999999999999</ele>
        <time>2003-04-20T16:28:39Z</time>
      </trkpt>
      <trkpt lat="36.836946979165077" lon="-2.472737962380052">
        <ele>20.399999999999999</ele>
        <time>2003-04-20T16:28:40Z</time>
      </trkpt>
      <trkpt lat="36.837140014395118" lon="-2.47339703142643">
        <ele>20.399999999999999</ele>
        <time>2003-04-20T16:28:52Z</time>
      </trkpt>
      <trkpt lat="36.83712299913168" lon="-2.473531980067492">
        <ele>20.300000000000001</ele>
        <time>2003-04-20T16:28:53Z</time>
      </trkpt>
      <trkpt lat="36.837083017453551" lon="-2.473670030012727">
        <ele>19.800000000000001</ele>
        <time>2003-04-20T16:28:56Z</time>
      </trkpt>
      <trkpt lat="36.83703800663352" lon="-2.473882008343935">
        <ele>19.399999999999999</ele>
        <time>2003-04-20T16:28:59Z</time>
      </trkpt>
      <trkpt lat="36.837092991918325" lon="-2.47400002554059">
        <ele>19.100000000000001</ele>
        <time>2003-04-20T16:29:00Z</time>
      </trkpt>
      <trkpt lat="36.837187958881259" lon="-2.474062973633409">
        <ele>18.800000000000001</ele>
        <time>2003-04-20T16:29:03Z</time>
      </trkpt>
      <trkpt lat="36.837283009663224" lon="-2.474121982231736">
        <ele>18.600000000000001</ele>
        <time>2003-04-20T16:29:04Z</time>
      </trkpt>
      <trkpt lat="36.837336989119649" lon="-2.474221978336573">
        <ele>18.199999999999999</ele>
        <time>2003-04-20T16:29:07Z</time>
      </trkpt>
      <trkpt lat="36.837343024089932" lon="-2.474349969998002">
        <ele>17.899999999999999</ele>
        <time>2003-04-20T16:29:08Z</time>
      </trkpt>
      <trkpt lat="36.837304970249534" lon="-2.474482990801334">
        <ele>17.399999999999999</ele>
        <time>2003-04-20T16:29:11Z</time>
      </trkpt>
      <trkpt lat="36.837279992178082" lon="-2.474639983847737">
        <ele>17</ele>
        <time>2003-04-20T16:29:12Z</time>
      </trkpt>
      <trkpt lat="36.837302036583424" lon="-2.474818015471101">
        <ele>16.5</ele>
        <time>2003-04-20T16:29:15Z</time>
      </trkpt>
      <trkpt lat="36.837313016876578" lon="-2.474995041266084">
        <ele>16.399999999999999</ele>
        <time>2003-04-20T16:29:16Z</time>
      </trkpt>
      <trkpt lat="36.83723003603518" lon="-2.475967006757855">
        <ele>15.300000000000001</ele>
        <time>2003-04-20T16:29:27Z</time>
      </trkpt>
      <trkpt lat="36.83714697137475" lon="-2.476530019193888">
        <ele>15.199999999999999</ele>
        <time>2003-04-20T16:29:33Z</time>
      </trkpt>
      <trkpt lat="36.837043035775423" lon="-2.477167965844274">
        <ele>13.5</ele>
        <time>2003-04-20T16:29:38Z</time>
      </trkpt>
      <trkpt lat="36.83701504021883" lon="-2.477522017434239">
        <ele>12.699999999999999</ele>
        <time>2003-04-20T16:29:42Z</time>
      </trkpt>
      <trkpt lat="36.836998024955392" lon="-2.477710023522377">
        <ele>12</ele>
        <time>2003-04-20T16:29:45Z</time>
      </trkpt>
      <trkpt lat="36.83699500747025" lon="-2.477827034890652">
        <ele>11.6</ele>
        <time>2003-04-20T16:29:47Z</time>
      </trkpt>
      <trkpt lat="36.836972963064909" lon="-2.477938011288643">
        <ele>11.1</ele>
        <time>2003-04-20T16:29:50Z</time>
      </trkpt>
      <trkpt lat="36.83688503690064" lon="-2.478138003498316">
        <ele>12.699999999999999</ele>
        <time>2003-04-20T16:44:28Z</time>
      </trkpt>
      <trkpt lat="36.836850000545382" lon="-2.478262977674604">
        <ele>12.300000000000001</ele>
        <time>2003-04-20T16:44:29Z</time>
      </trkpt>
      <trkpt lat="36.836777999997139" lon="-2.478472022339702">
        <ele>11.800000000000001</ele>
        <time>2003-04-20T16:44:33Z</time>
      </trkpt>
      <trkpt lat="36.836742963641882" lon="-2.478632032871246">
        <ele>11.699999999999999</ele>
        <time>2003-04-20T16:44:34Z</time>
      </trkpt>
      <trkpt lat="36.836768025532365" lon="-2.478760024532676">
        <ele>11.699999999999999</ele>
        <time>2003-04-20T16:44:37Z</time>
      </trkpt>
      <trkpt lat="36.83682301081717" lon="-2.478864965960383">
        <ele>11.699999999999999</ele>
        <time>2003-04-20T16:44:38Z</time>
      </trkpt>
      <trkpt lat="36.836891993880272" lon="-2.478937972337008">
        <ele>10.6</ele>
        <time>2003-04-20T16:44:42Z</time>
      </trkpt>
      <trkpt lat="36.83705703355372" lon="-2.478937972337008">
        <ele>12.800000000000001</ele>
        <time>2003-04-20T16:45:34Z</time>
      </trkpt>
      <trkpt lat="36.837198017165065" lon="-2.479012990370393">
        <ele>13.1</ele>
        <time>2003-04-20T16:45:38Z</time>
      </trkpt>
      <trkpt lat="36.837443020194769" lon="-2.47911499813199">
        <ele>13.5</ele>
        <time>2003-04-20T16:45:43Z</time>
      </trkpt>
      <trkpt lat="36.837504962459207" lon="-2.479207031428814">
        <ele>13.5</ele>
        <time>2003-04-20T16:45:46Z</time>
      </trkpt>
      <trkpt lat="36.837536981329322" lon="-2.479348015040159">
        <ele>13.1</ele>
        <time>2003-04-20T16:45:47Z</time>
      </trkpt>
      <trkpt lat="36.837504962459207" lon="-2.479514982551336">
        <ele>12.9</ele>
        <time>2003-04-20T16:45:50Z</time>
      </trkpt>
      <trkpt lat="36.837419969961047" lon="-2.479774989187717">
        <ele>13</ele>
        <time>2003-04-20T16:45:53Z</time>
      </trkpt>
      <trkpt lat="36.837187958881259" lon="-2.480413019657135">
        <ele>12.1</ele>
        <time>2003-04-20T16:45:59Z</time>
      </trkpt>
      <trkpt lat="36.836846983060241" lon="-2.481556981801987">
        <ele>10.9</ele>
        <time>2003-04-20T16:46:10Z</time>
      </trkpt>
      <trkpt lat="36.836661994457245" lon="-2.482116976752877">
        <ele>10.1</ele>
        <time>2003-04-20T16:46:13Z</time>
      </trkpt>
      <trkpt lat="36.836427971720695" lon="-2.482725000008941">
        <ele>10</ele>
        <time>2003-04-20T16:46:17Z</time>
      </trkpt>
      <trkpt lat="36.835930002853274" lon="-2.483724961057305">
        <ele>10.5</ele>
        <time>2003-04-20T16:46:24Z</time>
      </trkpt>
      <trkpt lat="36.835261965170503" lon="-2.484751995652914">
        <ele>9.1</ele>
        <time>2003-04-20T16:46:29Z</time>
      </trkpt>
      <trkpt lat="36.834647990763187" lon="-2.485611978918314">
        <ele>8.800000000000001</ele>
        <time>2003-04-20T16:46:35Z</time>
      </trkpt>
      <trkpt lat="36.834024963900447" lon="-2.486447989940643">
        <ele>9.6</ele>
        <time>2003-04-20T16:46:40Z</time>
      </trkpt>
      <trkpt lat="36.833500005304813" lon="-2.487047966569662">
        <ele>10.199999999999999</ele>
        <time>2003-04-20T16:46:44Z</time>
      </trkpt>
      <trkpt lat="36.833072025328875" lon="-2.487397994846106">
        <ele>10.6</ele>
        <time>2003-04-20T16:46:47Z</time>
      </trkpt>
      <trkpt lat="36.832800032570958" lon="-2.487588012591004">
        <ele>10.699999999999999</ele>
        <time>2003-04-20T16:46:48Z</time>
      </trkpt>
      <trkpt lat="36.832283036783338" lon="-2.488044993951917">
        <ele>11.6</ele>
        <time>2003-04-20T16:46:52Z</time>
      </trkpt>
      <trkpt lat="36.832069968804717" lon="-2.488344982266426">
        <ele>11.6</ele>
        <time>2003-04-20T16:46:55Z</time>
      </trkpt>
      <trkpt lat="36.831492036581039" lon="-2.489217035472393">
        <ele>12.300000000000001</ele>
        <time>2003-04-20T16:47:00Z</time>
      </trkpt>
      <trkpt lat="36.831239992752671" lon="-2.48966496437788">
        <ele>17.399999999999999</ele>
        <time>2003-04-20T16:47:04Z</time>
      </trkpt>
      <trkpt lat="36.830697013065219" lon="-2.490767017006874">
        <ele>20.199999999999999</ele>
        <time>2003-04-20T16:47:11Z</time>
      </trkpt>
      <trkpt lat="36.830413034185767" lon="-2.491594981402159">
        <ele>20.699999999999999</ele>
        <time>2003-04-20T16:47:15Z</time>
      </trkpt>
      <trkpt lat="36.830532979220152" lon="-2.492139972746372">
        <ele>20.800000000000001</ele>
        <time>2003-04-20T16:47:19Z</time>
      </trkpt>
      <trkpt lat="36.830617971718311" lon="-2.492297971621156">
        <ele>20.800000000000001</ele>
        <time>2003-04-20T16:47:19Z</time>
      </trkpt>
      <trkpt lat="36.83072199113667" lon="-2.492444990202785">
        <ele>20.800000000000001</ele>
        <time>2003-04-20T16:47:20Z</time>
      </trkpt>
      <trkpt lat="36.830840008333325" lon="-2.492562001571059">
        <ele>20.800000000000001</ele>
        <time>2003-04-20T16:47:22Z</time>
      </trkpt>
      <trkpt lat="36.831102026626468" lon="-2.492759982123971">
        <ele>24.100000000000001</ele>
        <time>2003-04-20T16:47:23Z</time>
      </trkpt>
      <trkpt lat="36.831924961879849" lon="-2.49333799816668">
        <ele>27.699999999999999</ele>
        <time>2003-04-20T16:47:30Z</time>
      </trkpt>
      <trkpt lat="36.832795003429055" lon="-2.493952978402376">
        <ele>33.399999999999999</ele>
        <time>2003-04-20T16:47:35Z</time>
      </trkpt>
      <trkpt lat="36.833277968689799" lon="-2.494365032762289">
        <ele>36.700000000000003</ele>
        <time>2003-04-20T16:47:38Z</time>
      </trkpt>
      <trkpt lat="36.83355800807476" lon="-2.494682958349586">
        <ele>38</ele>
        <time>2003-04-20T16:47:41Z</time>
      </trkpt>
      <trkpt lat="36.83377199806273" lon="-2.495062993839383">
        <ele>44.399999999999999</ele>
        <time>2003-04-20T16:47:42Z</time>
      </trkpt>
      <trkpt lat="36.833914993330836" lon="-2.495491979643703">
        <ele>49.100000000000001</ele>
        <time>2003-04-20T16:47:45Z</time>
      </trkpt>
      <trkpt lat="36.833999985828996" lon="-2.495951978489757">
        <ele>53</ele>
        <time>2003-04-20T16:47:46Z</time>
      </trkpt>
      <trkpt lat="36.834144992753863" lon="-2.497099963948131">
        <ele>56.899999999999999</ele>
        <time>2003-04-20T16:47:51Z</time>
      </trkpt>
      <trkpt lat="36.834292011335492" lon="-2.498228000476956">
        <ele>59.899999999999999</ele>
        <time>2003-04-20T16:47:57Z</time>
      </trkpt>
      <trkpt lat="36.8343520257622" lon="-2.499108016490936">
        <ele>69.200000000000003</ele>
        <time>2003-04-20T16:48:01Z</time>
      </trkpt>
      <trkpt lat="36.834295028820634" lon="-2.49954697676003">
        <ele>73.599999999999994</ele>
        <time>2003-04-20T16:48:02Z</time>
      </trkpt>
      <trkpt lat="36.834169970825315" lon="-2.49997696839273">
        <ele>78.400000000000006</ele>
        <time>2003-04-20T16:48:05Z</time>
      </trkpt>
      <trkpt lat="36.833778033033013" lon="-2.501056976616383">
        <ele>116.7</ele>
        <time>2003-04-20T16:48:10Z</time>
      </trkpt>
      <trkpt lat="36.833394980058074" lon="-2.502161962911487">
        <ele>119.90000000000001</ele>
        <time>2003-04-20T16:48:14Z</time>
      </trkpt>
      <trkpt lat="36.833132961764932" lon="-2.502727992832661">
        <ele>124.3</ele>
        <time>2003-04-20T16:48:17Z</time>
      </trkpt>
      <trkpt lat="36.832902040332556" lon="-2.503008032217622">
        <ele>127.2</ele>
        <time>2003-04-20T16:48:20Z</time>
      </trkpt>
      <trkpt lat="36.832659970968962" lon="-2.503186985850334">
        <ele>129.59999999999999</ele>
        <time>2003-04-20T16:48:21Z</time>
      </trkpt>
      <trkpt lat="36.832486968487501" lon="-2.503301985561848">
        <ele>130.69999999999999</ele>
        <time>2003-04-20T16:48:24Z</time>
      </trkpt>
      <trkpt lat="36.832350008189678" lon="-2.503361999988556">
        <ele>131.80000000000001</ele>
        <time>2003-04-20T16:48:25Z</time>
      </trkpt>
      <trkpt lat="36.832201983779669" lon="-2.503307014703751">
        <ele>132.19999999999999</ele>
        <time>2003-04-20T16:48:28Z</time>
      </trkpt>
      <trkpt lat="36.832114979624748" lon="-2.503184974193573">
        <ele>131.90000000000001</ele>
        <time>2003-04-20T16:48:29Z</time>
      </trkpt>
      <trkpt lat="36.832137024030089" lon="-2.503009960055351">
        <ele>131.5</ele>
        <time>2003-04-20T16:48:32Z</time>
      </trkpt>
      <trkpt lat="36.832225034013391" lon="-2.502872999757528">
        <ele>130.30000000000001</ele>
        <time>2003-04-20T16:48:33Z</time>
      </trkpt>
      <trkpt lat="36.832359982654452" lon="-2.502824971452355">
        <ele>129.40000000000001</ele>
        <time>2003-04-20T16:48:36Z</time>
      </trkpt>
      <trkpt lat="36.832486968487501" lon="-2.502899989485741">
        <ele>129.80000000000001</ele>
        <time>2003-04-20T16:48:37Z</time>
      </trkpt>
      <trkpt lat="36.832538014277816" lon="-2.503060000017285">
        <ele>130.90000000000001</ele>
        <time>2003-04-20T16:48:40Z</time>
      </trkpt>
      <trkpt lat="36.832501972094178" lon="-2.503237025812268">
        <ele>131.69999999999999</ele>
        <time>2003-04-20T16:48:41Z</time>
      </trkpt>
      <trkpt lat="36.832374986261129" lon="-2.503342973068357">
        <ele>132.40000000000001</ele>
        <time>2003-04-20T16:48:44Z</time>
      </trkpt>
      <trkpt lat="36.832210030406713" lon="-2.503317994996905">
        <ele>132.69999999999999</ele>
        <time>2003-04-20T16:48:45Z</time>
      </trkpt>
      <trkpt lat="36.832129983231425" lon="-2.503265021368861">
        <ele>132.80000000000001</ele>
        <time>2003-04-20T16:48:47Z</time>
      </trkpt>
      <trkpt lat="36.831939965486526" lon="-2.503196960315108">
        <ele>132.59999999999999</ele>
        <time>2003-04-20T16:48:48Z</time>
      </trkpt>
      <trkpt lat="36.831481978297234" lon="-2.503111967816949">
        <ele>132.19999999999999</ele>
        <time>2003-04-20T16:48:52Z</time>
      </trkpt>
      <trkpt lat="36.831162041053176" lon="-2.503052037209272">
        <ele>131.69999999999999</ele>
        <time>2003-04-20T16:48:55Z</time>
      </trkpt>
      <trkpt lat="36.83106497861445" lon="-2.503033010289073">
        <ele>131.5</ele>
        <time>2003-04-20T16:48:58Z</time>
      </trkpt>
      <trkpt lat="36.830949978902936" lon="-2.502981964498758">
        <ele>131.09999999999999</ele>
        <time>2003-04-20T16:49:03Z</time>
      </trkpt>
      <trkpt lat="36.830851994454861" lon="-2.502882974222302">
        <ele>130.69999999999999</ele>
        <time>2003-04-20T16:49:06Z</time>
      </trkpt>
      <trkpt lat="36.830759961158037" lon="-2.50274701975286">
        <ele>130.40000000000001</ele>
        <time>2003-04-20T16:49:07Z</time>
      </trkpt>
      <trkpt lat="36.830702964216471" lon="-2.502533029764891">
        <ele>129.80000000000001</ele>
        <time>2003-04-20T16:49:10Z</time>
      </trkpt>
      <trkpt lat="36.8306980188936" lon="-2.502406965941191">
        <ele>129.59999999999999</ele>
        <time>2003-04-20T16:49:11Z</time>
      </trkpt>
      <trkpt lat="36.830710005015135" lon="-2.502285009250045">
        <ele>129.30000000000001</ele>
        <time>2003-04-20T16:49:11Z</time>
      </trkpt>
      <trkpt lat="36.830743029713631" lon="-2.502162968739867">
        <ele>129.30000000000001</ele>
        <time>2003-04-20T16:49:12Z</time>
      </trkpt>
      <trkpt lat="36.830800026655197" lon="-2.502043023705483">
        <ele>129.09999999999999</ele>
        <time>2003-04-20T16:49:14Z</time>
      </trkpt>
      <trkpt lat="36.830877978354692" lon="-2.50193296931684">
        <ele>128.80000000000001</ele>
        <time>2003-04-20T16:49:15Z</time>
      </trkpt>
      <trkpt lat="36.830976968631148" lon="-2.501840014010668">
        <ele>128.59999999999999</ele>
        <time>2003-04-20T16:49:15Z</time>
      </trkpt>
      <trkpt lat="36.831264970824122" lon="-2.50152200460434">
        <ele>126.59999999999999</ele>
        <time>2003-04-20T16:49:19Z</time>
      </trkpt>
      <trkpt lat="36.831400003284216" lon="-2.501241965219379">
        <ele>124.8</ele>
        <time>2003-04-20T16:49:21Z</time>
      </trkpt>
      <trkpt lat="36.831479966640472" lon="-2.500910041853786">
        <ele>123.59999999999999</ele>
        <time>2003-04-20T16:49:22Z</time>
      </trkpt>
      <trkpt lat="36.831492036581039" lon="-2.5007279869169">
        <ele>122.90000000000001</ele>
        <time>2003-04-20T16:49:23Z</time>
      </trkpt>
      <trkpt lat="36.831475021317601" lon="-2.500345017760992">
        <ele>122.5</ele>
        <time>2003-04-20T16:49:26Z</time>
      </trkpt>
      <trkpt lat="36.831375025212765" lon="-2.499057976529002">
        <ele>120.8</ele>
        <time>2003-04-20T16:49:31Z</time>
      </trkpt>
      <trkpt lat="36.831294978037477" lon="-2.497768001630902">
        <ele>118.5</ele>
        <time>2003-04-20T16:49:37Z</time>
      </trkpt>
      <trkpt lat="36.831311993300915" lon="-2.496650023385882">
        <ele>116.3</ele>
        <time>2003-04-20T16:49:41Z</time>
      </trkpt>
      <trkpt lat="36.831454988569021" lon="-2.495489967986941">
        <ele>115.3</ele>
        <time>2003-04-20T16:49:45Z</time>
      </trkpt>
      <trkpt lat="36.831723041832447" lon="-2.494335025548935">
        <ele>116.2</ele>
        <time>2003-04-20T16:49:49Z</time>
      </trkpt>
      <trkpt lat="36.832105005159974" lon="-2.493244959041476">
        <ele>118.90000000000001</ele>
        <time>2003-04-20T16:49:53Z</time>
      </trkpt>
      <trkpt lat="36.832585036754608" lon="-2.49226201325655">
        <ele>123.40000000000001</ele>
        <time>2003-04-20T16:49:57Z</time>
      </trkpt>
      <trkpt lat="36.833292972296476" lon="-2.491182005032897">
        <ele>129.69999999999999</ele>
        <time>2003-04-20T16:50:01Z</time>
      </trkpt>
      <trkpt lat="36.834124960005283" lon="-2.490250021219254">
        <ele>136.09999999999999</ele>
        <time>2003-04-20T16:50:08Z</time>
      </trkpt>
      <trkpt lat="36.834887964650989" lon="-2.489611990749836">
        <ele>141.40000000000001</ele>
        <time>2003-04-20T16:50:12Z</time>
      </trkpt>
      <trkpt lat="36.835715007036924" lon="-2.489070016890764">
        <ele>146.40000000000001</ele>
        <time>2003-04-20T16:50:16Z</time>
      </trkpt>
      <trkpt lat="36.836580019444227" lon="-2.488565007224679">
        <ele>149.59999999999999</ele>
        <time>2003-04-20T16:50:20Z</time>
      </trkpt>
      <trkpt lat="36.83744503185153" lon="-2.488027978688479">
        <ele>155.09999999999999</ele>
        <time>2003-04-20T16:50:24Z</time>
      </trkpt>
      <trkpt lat="36.83832798153162" lon="-2.487502014264464">
        <ele>159.30000000000001</ele>
        <time>2003-04-20T16:50:28Z</time>
      </trkpt>
      <trkpt lat="36.839212020859122" lon="-2.486973032355309">
        <ele>161.90000000000001</ele>
        <time>2003-04-20T16:50:32Z</time>
      </trkpt>
      <trkpt lat="36.840115003287792" lon="-2.48644296079874">
        <ele>162</ele>
        <time>2003-04-20T16:50:36Z</time>
      </trkpt>
      <trkpt lat="36.841053022071719" lon="-2.48588296584785">
        <ele>159.80000000000001</ele>
        <time>2003-04-20T16:50:40Z</time>
      </trkpt>
      <trkpt lat="36.842019958421588" lon="-2.485287012532353">
        <ele>157.30000000000001</ele>
        <time>2003-04-20T16:50:43Z</time>
      </trkpt>
      <trkpt lat="36.843001982197165" lon="-2.484710002318025">
        <ele>155</ele>
        <time>2003-04-20T16:50:47Z</time>
      </trkpt>
      <trkpt lat="36.843972019851208" lon="-2.484114971011877">
        <ele>152.19999999999999</ele>
        <time>2003-04-20T16:50:51Z</time>
      </trkpt>
      <trkpt lat="36.844910038635135" lon="-2.48343201354146">
        <ele>149.09999999999999</ele>
        <time>2003-04-20T16:50:55Z</time>
      </trkpt>
      <trkpt lat="36.84578200802207" lon="-2.482662973925471">
        <ele>145</ele>
        <time>2003-04-20T16:50:59Z</time>
      </trkpt>
      <trkpt lat="36.846615001559258" lon="-2.481811959296465">
        <ele>141.09999999999999</ele>
        <time>2003-04-20T16:51:03Z</time>
      </trkpt>
      <trkpt lat="36.847404995933175" lon="-2.480857009068131">
        <ele>136.80000000000001</ele>
        <time>2003-04-20T16:51:07Z</time>
      </trkpt>
      <trkpt lat="36.8481479678303" lon="-2.479838021099567">
        <ele>133.30000000000001</ele>
        <time>2003-04-20T16:51:11Z</time>
      </trkpt>
      <trkpt lat="36.848852969706059" lon="-2.478766981512308">
        <ele>132.09999999999999</ele>
        <time>2003-04-20T16:51:15Z</time>
      </trkpt>
      <trkpt lat="36.849559983238578" lon="-2.477704994380474">
        <ele>128.19999999999999</ele>
        <time>2003-04-20T16:51:19Z</time>
      </trkpt>
      <trkpt lat="36.850313013419509" lon="-2.476712996140122">
        <ele>123.5</ele>
        <time>2003-04-20T16:51:23Z</time>
      </trkpt>
      <trkpt lat="36.851108036935329" lon="-2.475802972912788">
        <ele>118.59999999999999</ele>
        <time>2003-04-20T16:51:27Z</time>
      </trkpt>
      <trkpt lat="36.851957961916924" lon="-2.474978026002646">
        <ele>114.3</ele>
        <time>2003-04-20T16:51:32Z</time>
      </trkpt>
      <trkpt lat="36.852885000407696" lon="-2.474264977499843">
        <ele>111.7</ele>
        <time>2003-04-20T16:51:36Z</time>
      </trkpt>
      <trkpt lat="36.853825030848384" lon="-2.473610015586019">
        <ele>111.59999999999999</ele>
        <time>2003-04-20T16:51:40Z</time>
      </trkpt>
      <trkpt lat="36.854776963591576" lon="-2.473074998706579">
        <ele>113.59999999999999</ele>
        <time>2003-04-20T16:51:44Z</time>
      </trkpt>
      <trkpt lat="36.855680029839277" lon="-2.47253998182714">
        <ele>117.09999999999999</ele>
        <time>2003-04-20T16:51:48Z</time>
      </trkpt>
      <trkpt lat="36.856536995619535" lon="-2.472002031281591">
        <ele>121</ele>
        <time>2003-04-20T16:51:52Z</time>
      </trkpt>
      <trkpt lat="36.857358003035188" lon="-2.471434995532036">
        <ele>124.90000000000001</ele>
        <time>2003-04-20T16:51:56Z</time>
      </trkpt>
      <trkpt lat="36.858132993802428" lon="-2.470812974497676">
        <ele>129.09999999999999</ele>
        <time>2003-04-20T16:52:00Z</time>
      </trkpt>
      <trkpt lat="36.85888702981174" lon="-2.4701779615134">
        <ele>131.90000000000001</ele>
        <time>2003-04-20T16:52:04Z</time>
      </trkpt>
      <trkpt lat="36.859609968960285" lon="-2.469462985172868">
        <ele>135.09999999999999</ele>
        <time>2003-04-20T16:52:08Z</time>
      </trkpt>
      <trkpt lat="36.860332991927862" lon="-2.468678019940853">
        <ele>138.59999999999999</ele>
        <time>2003-04-20T16:52:12Z</time>
      </trkpt>
      <trkpt lat="36.86105702072382" lon="-2.467843014746904">
        <ele>143</ele>
        <time>2003-04-20T16:52:16Z</time>
      </trkpt>
      <trkpt lat="36.861796975135803" lon="-2.46701798401773">
        <ele>147.69999999999999</ele>
        <time>2003-04-20T16:52:20Z</time>
      </trkpt>
      <trkpt lat="36.862557968124747" lon="-2.466230001300573">
        <ele>151.19999999999999</ele>
        <time>2003-04-20T16:52:24Z</time>
      </trkpt>
      <trkpt lat="36.863362966105342" lon="-2.465509995818138">
        <ele>154.30000000000001</ele>
        <time>2003-04-20T16:52:28Z</time>
      </trkpt>
      <trkpt lat="36.864210041239858" lon="-2.464855033904314">
        <ele>157.30000000000001</ele>
        <time>2003-04-20T16:52:31Z</time>
      </trkpt>
      <trkpt lat="36.865095002576709" lon="-2.464284980669618">
        <ele>160.09999999999999</ele>
        <time>2003-04-20T16:52:35Z</time>
      </trkpt>
      <trkpt lat="36.86602296307683" lon="-2.463792962953448">
        <ele>162.40000000000001</ele>
        <time>2003-04-20T16:52:39Z</time>
      </trkpt>
      <trkpt lat="36.866980008780956" lon="-2.463366994634271">
        <ele>164.30000000000001</ele>
        <time>2003-04-20T16:52:43Z</time>
      </trkpt>
      <trkpt lat="36.867957003414631" lon="-2.462972961366177">
        <ele>166.5</ele>
        <time>2003-04-20T16:52:47Z</time>
      </trkpt>
      <trkpt lat="36.868940033018589" lon="-2.462580017745495">
        <ele>169.09999999999999</ele>
        <time>2003-04-20T16:52:51Z</time>
      </trkpt>
      <trkpt lat="36.869918033480644" lon="-2.462190007790923">
        <ele>172.19999999999999</ele>
        <time>2003-04-20T16:52:55Z</time>
      </trkpt>
      <trkpt lat="36.870886981487274" lon="-2.461805026978254">
        <ele>175.40000000000001</ele>
        <time>2003-04-20T16:52:59Z</time>
      </trkpt>
      <trkpt lat="36.871846960857511" lon="-2.461422979831696">
        <ele>178.30000000000001</ele>
        <time>2003-04-20T16:53:03Z</time>
      </trkpt>
      <trkpt lat="36.872796965762973" lon="-2.461045039817691">
        <ele>181.90000000000001</ele>
        <time>2003-04-20T16:53:07Z</time>
      </trkpt>
      <trkpt lat="36.873749988153577" lon="-2.460668021813035">
        <ele>185.59999999999999</ele>
        <time>2003-04-20T16:53:11Z</time>
      </trkpt>
      <trkpt lat="36.874722959473729" lon="-2.460282035171986">
        <ele>188.59999999999999</ele>
        <time>2003-04-20T16:53:15Z</time>
      </trkpt>
      <trkpt lat="36.875723004341125" lon="-2.459880039095879">
        <ele>191.69999999999999</ele>
        <time>2003-04-20T16:53:20Z</time>
      </trkpt>
      <trkpt lat="36.876739980652928" lon="-2.459473013877869">
        <ele>195.59999999999999</ele>
        <time>2003-04-20T16:53:24Z</time>
      </trkpt>
      <trkpt lat="36.877770032733679" lon="-2.459060037508607">
        <ele>198.59999999999999</ele>
        <time>2003-04-20T16:53:28Z</time>
      </trkpt>
      <trkpt lat="36.878822967410088" lon="-2.458643037825823">
        <ele>201.59999999999999</ele>
        <time>2003-04-20T16:53:32Z</time>
      </trkpt>
      <trkpt lat="36.879906998947263" lon="-2.458216985687614">
        <ele>202.09999999999999</ele>
        <time>2003-04-20T16:53:36Z</time>
      </trkpt>
      <trkpt lat="36.881026988849044" lon="-2.457767967134714">
        <ele>201.5</ele>
        <time>2003-04-20T16:53:40Z</time>
      </trkpt>
      <trkpt lat="36.881907004863024" lon="-2.457424979656935">
        <ele>198.59999999999999</ele>
        <time>2003-04-20T16:53:42Z</time>
      </trkpt>
      <trkpt lat="36.882819961756468" lon="-2.457058019936085">
        <ele>195.09999999999999</ele>
        <time>2003-04-20T16:53:45Z</time>
      </trkpt>
      <trkpt lat="36.883765021339059" lon="-2.45668301358819">
        <ele>190.69999999999999</ele>
        <time>2003-04-20T16:53:49Z</time>
      </trkpt>
      <trkpt lat="36.884688036516309" lon="-2.456314964219928">
        <ele>185.59999999999999</ele>
        <time>2003-04-20T16:53:52Z</time>
      </trkpt>
      <trkpt lat="36.885607028380036" lon="-2.45595496147871">
        <ele>181.09999999999999</ele>
        <time>2003-04-20T16:53:55Z</time>
      </trkpt>
      <trkpt lat="36.886507999151945" lon="-2.455593030899763">
        <ele>176.90000000000001</ele>
        <time>2003-04-20T16:53:57Z</time>
      </trkpt>
      <trkpt lat="36.887392038479447" lon="-2.455245014280081">
        <ele>172.5</ele>
        <time>2003-04-20T16:54:00Z</time>
      </trkpt>
      <trkpt lat="36.88823701813817" lon="-2.454819967970252">
        <ele>167.69999999999999</ele>
        <time>2003-04-20T16:54:04Z</time>
      </trkpt>
      <trkpt lat="36.889037992805243" lon="-2.45425502769649">
        <ele>163.5</ele>
        <time>2003-04-20T16:54:07Z</time>
      </trkpt>
      <trkpt lat="36.889272015541792" lon="-2.453983034938574">
        <ele>162</ele>
        <time>2003-04-20T16:54:08Z</time>
      </trkpt>
      <trkpt lat="36.889939969405532" lon="-2.453169990330935">
        <ele>157.59999999999999</ele>
        <time>2003-04-20T16:54:11Z</time>
      </trkpt>
      <trkpt lat="36.890126969665289" lon="-2.452848041430116">
        <ele>156.40000000000001</ele>
        <time>2003-04-20T16:54:12Z</time>
      </trkpt>
      <trkpt lat="36.890599960461259" lon="-2.451838022097945">
        <ele>151.69999999999999</ele>
        <time>2003-04-20T16:54:15Z</time>
      </trkpt>
      <trkpt lat="36.890944959595799" lon="-2.450721971690655">
        <ele>147</ele>
        <time>2003-04-20T16:54:18Z</time>
      </trkpt>
      <trkpt lat="36.891168002039194" lon="-2.449544984847307">
        <ele>142.80000000000001</ele>
        <time>2003-04-20T16:54:20Z</time>
      </trkpt>
      <trkpt lat="36.891472013667226" lon="-2.448424994945526">
        <ele>138.80000000000001</ele>
        <time>2003-04-20T16:54:23Z</time>
      </trkpt>
      <trkpt lat="36.891905022785068" lon="-2.447365019470453">
        <ele>134.19999999999999</ele>
        <time>2003-04-20T16:54:27Z</time>
      </trkpt>
      <trkpt lat="36.892372984439135" lon="-2.446333039551973">
        <ele>129.59999999999999</ele>
        <time>2003-04-20T16:54:30Z</time>
      </trkpt>
      <trkpt lat="36.89277003519237" lon="-2.445278009399772">
        <ele>124.59999999999999</ele>
        <time>2003-04-20T16:54:32Z</time>
      </trkpt>
      <trkpt lat="36.892947982996702" lon="-2.444526990875602">
        <ele>121.8</ele>
        <time>2003-04-20T16:54:35Z</time>
      </trkpt>
      <trkpt lat="36.893064994364977" lon="-2.443347992375493">
        <ele>116.7</ele>
        <time>2003-04-20T16:54:38Z</time>
      </trkpt>
      <trkpt lat="36.893032975494862" lon="-2.442147033289075">
        <ele>112.2</ele>
        <time>2003-04-20T16:54:41Z</time>
      </trkpt>
      <trkpt lat="36.892827032133937" lon="-2.44097700342536">
        <ele>107.7</ele>
        <time>2003-04-20T16:54:43Z</time>
      </trkpt>
      <trkpt lat="36.892450014129281" lon="-2.439857013523579">
        <ele>103</ele>
        <time>2003-04-20T16:54:46Z</time>
      </trkpt>
      <trkpt lat="36.891993032768369" lon="-2.438795026391745">
        <ele>98.400000000000006</ele>
        <time>2003-04-20T16:54:50Z</time>
      </trkpt>
      <trkpt lat="36.891615008935332" lon="-2.437733039259911">
        <ele>93.400000000000006</ele>
        <time>2003-04-20T16:54:53Z</time>
      </trkpt>
      <trkpt lat="36.891364976763725" lon="-2.436597961932421">
        <ele>88</ele>
        <time>2003-04-20T16:54:55Z</time>
      </trkpt>
      <trkpt lat="36.891221981495619" lon="-2.435379987582564">
        <ele>82.599999999999994</ele>
        <time>2003-04-20T16:54:58Z</time>
      </trkpt>
      <trkpt lat="36.891185017302632" lon="-2.434127982705832">
        <ele>81</ele>
        <time>2003-04-20T16:55:02Z</time>
      </trkpt>
      <trkpt lat="36.891277972608805" lon="-2.432885030284524">
        <ele>81.099999999999994</ele>
        <time>2003-04-20T16:55:05Z</time>
      </trkpt>
      <trkpt lat="36.891513001173735" lon="-2.431667977944017">
        <ele>80.799999999999997</ele>
        <time>2003-04-20T16:55:08Z</time>
      </trkpt>
      <trkpt lat="36.891863029450178" lon="-2.430499959737063">
        <ele>81</ele>
        <time>2003-04-20T16:55:10Z</time>
      </trkpt>
      <trkpt lat="36.892308024689555" lon="-2.4293979909271">
        <ele>82.400000000000006</ele>
        <time>2003-04-20T16:55:13Z</time>
      </trkpt>
      <trkpt lat="36.892731981351972" lon="-2.428307002410293">
        <ele>84.700000000000003</ele>
        <time>2003-04-20T16:55:17Z</time>
      </trkpt>
      <trkpt lat="36.893036998808384" lon="-2.42718500085175">
        <ele>88.799999999999997</ele>
        <time>2003-04-20T16:55:20Z</time>
      </trkpt>
      <trkpt lat="36.893138000741601" lon="-2.426425013691187">
        <ele>92.299999999999997</ele>
        <time>2003-04-20T16:55:21Z</time>
      </trkpt>
      <trkpt lat="36.893168007954955" lon="-2.425305023789406">
        <ele>97.799999999999997</ele>
        <time>2003-04-20T16:55:25Z</time>
      </trkpt>
      <trkpt lat="36.893040016293526" lon="-2.424221998080611">
        <ele>102.3</ele>
        <time>2003-04-20T16:55:28Z</time>
      </trkpt>
      <trkpt lat="36.892776992172003" lon="-2.423192029818893">
        <ele>105.5</ele>
        <time>2003-04-20T16:55:30Z</time>
      </trkpt>
      <trkpt lat="36.892389999702573" lon="-2.422230038791895">
        <ele>107</ele>
        <time>2003-04-20T16:55:33Z</time>
      </trkpt>
      <trkpt lat="36.891881972551346" lon="-2.421359997242689">
        <ele>108.90000000000001</ele>
        <time>2003-04-20T16:55:37Z</time>
      </trkpt>
      <trkpt lat="36.891091978177428" lon="-2.420307984575629">
        <ele>110.7</ele>
        <time>2003-04-20T16:55:40Z</time>
      </trkpt>
      <trkpt lat="36.890305001288652" lon="-2.419290002435446">
        <ele>111.7</ele>
        <time>2003-04-20T16:55:44Z</time>
      </trkpt>
      <trkpt lat="36.889581978321075" lon="-2.418403029441834">
        <ele>113.2</ele>
        <time>2003-04-20T16:55:48Z</time>
      </trkpt>
      <trkpt lat="36.889275033026934" lon="-2.418076973408461">
        <ele>113.40000000000001</ele>
        <time>2003-04-20T16:55:51Z</time>
      </trkpt>
      <trkpt lat="36.889022989198565" lon="-2.417785031720996">
        <ele>112.5</ele>
        <time>2003-04-20T16:55:52Z</time>
      </trkpt>
      <trkpt lat="36.888802964240313" lon="-2.41753701120615">
        <ele>110.3</ele>
        <time>2003-04-20T16:55:55Z</time>
      </trkpt>
      <trkpt lat="36.888617975637317" lon="-2.417329978197813">
        <ele>108.3</ele>
        <time>2003-04-20T16:55:56Z</time>
      </trkpt>
      <trkpt lat="36.888468023389578" lon="-2.417168039828539">
        <ele>107.5</ele>
        <time>2003-04-20T16:55:59Z</time>
      </trkpt>
      <trkpt lat="36.888298038393259" lon="-2.417039964348078">
        <ele>107.40000000000001</ele>
        <time>2003-04-20T16:56:00Z</time>
      </trkpt>
      <trkpt lat="36.888035014271736" lon="-2.41680501960218">
        <ele>108</ele>
        <time>2003-04-20T16:56:04Z</time>
      </trkpt>
      <trkpt lat="36.887971982359886" lon="-2.416693037375808">
        <ele>108.2</ele>
        <time>2003-04-20T16:56:04Z</time>
      </trkpt>
      <trkpt lat="36.887933006510139" lon="-2.41656999103725">
        <ele>108.5</ele>
        <time>2003-04-20T16:56:06Z</time>
      </trkpt>
      <trkpt lat="36.88791498541832" lon="-2.41644199937582">
        <ele>108.8</ele>
        <time>2003-04-20T16:56:07Z</time>
      </trkpt>
      <trkpt lat="36.887916997075081" lon="-2.416303027421236">
        <ele>108.7</ele>
        <time>2003-04-20T16:56:07Z</time>
      </trkpt>
      <trkpt lat="36.887941975146532" lon="-2.41616296581924">
        <ele>108.59999999999999</ele>
        <time>2003-04-20T16:56:08Z</time>
      </trkpt>
      <trkpt lat="36.887997966259718" lon="-2.416032962501049">
        <ele>108.7</ele>
        <time>2003-04-20T16:56:11Z</time>
      </trkpt>
      <trkpt lat="36.888078013435006" lon="-2.415919974446297">
        <ele>108.40000000000001</ele>
        <time>2003-04-20T16:56:11Z</time>
      </trkpt>
      <trkpt lat="36.888132998719811" lon="-2.41579701192677">
        <ele>108.2</ele>
        <time>2003-04-20T16:56:11Z</time>
      </trkpt>
      <trkpt lat="36.888299966230989" lon="-2.415643036365509">
        <ele>108.09999999999999</ele>
        <time>2003-04-20T16:56:14Z</time>
      </trkpt>
      <trkpt lat="36.888422006741166" lon="-2.415659967809916">
        <ele>107.90000000000001</ele>
        <time>2003-04-20T16:56:15Z</time>
      </trkpt>
      <trkpt lat="36.88853700645268" lon="-2.415716964751482">
        <ele>107.90000000000001</ele>
        <time>2003-04-20T16:56:15Z</time>
      </trkpt>
      <trkpt lat="36.888640020042658" lon="-2.415792988613248">
        <ele>108.3</ele>
        <time>2003-04-20T16:56:16Z</time>
      </trkpt>
      <trkpt lat="36.888840012252331" lon="-2.415915029123426">
        <ele>108.5</ele>
        <time>2003-04-20T16:56:19Z</time>
      </trkpt>
      <trkpt lat="36.88894797116518" lon="-2.415913017466664">
        <ele>108.5</ele>
        <time>2003-04-20T16:56:19Z</time>
      </trkpt>
      <trkpt lat="36.889062970876694" lon="-2.415868006646633">
        <ele>109</ele>
        <time>2003-04-20T16:56:20Z</time>
      </trkpt>
      <trkpt lat="36.889173025265336" lon="-2.415798017755151">
        <ele>109.8</ele>
        <time>2003-04-20T16:56:22Z</time>
      </trkpt>
      <trkpt lat="36.889426996931434" lon="-2.415676983073354">
        <ele>110.8</ele>
        <time>2003-04-20T16:56:23Z</time>
      </trkpt>
      <trkpt lat="36.889893030747771" lon="-2.415516972541809">
        <ele>112.59999999999999</ele>
        <time>2003-04-20T16:56:27Z</time>
      </trkpt>
      <trkpt lat="36.890955017879605" lon="-2.415250008925796">
        <ele>115.59999999999999</ele>
        <time>2003-04-20T16:56:33Z</time>
      </trkpt>
      <trkpt lat="36.891965037211776" lon="-2.415129980072379">
        <ele>118</ele>
        <time>2003-04-20T16:56:38Z</time>
      </trkpt>
      <trkpt lat="36.892802976071835" lon="-2.415122017264366">
        <ele>119.90000000000001</ele>
        <time>2003-04-20T16:56:42Z</time>
      </trkpt>
      <trkpt lat="36.89393000677228" lon="-2.415242968127132">
        <ele>122.5</ele>
        <time>2003-04-20T16:56:46Z</time>
      </trkpt>
      <trkpt lat="36.894874982535839" lon="-2.415462993085384">
        <ele>124.8</ele>
        <time>2003-04-20T16:56:50Z</time>
      </trkpt>
      <trkpt lat="36.895845020189881" lon="-2.415817966684699">
        <ele>126.90000000000001</ele>
        <time>2003-04-20T16:56:54Z</time>
      </trkpt>
      <trkpt lat="36.896823020651937" lon="-2.416318031027913">
        <ele>128.40000000000001</ele>
        <time>2003-04-20T16:56:58Z</time>
      </trkpt>
      <trkpt lat="36.897761961445212" lon="-2.416954971849918">
        <ele>129.40000000000001</ele>
        <time>2003-04-20T16:57:02Z</time>
      </trkpt>
      <trkpt lat="36.898697968572378" lon="-2.41766500286758">
        <ele>129.30000000000001</ele>
        <time>2003-04-20T16:57:06Z</time>
      </trkpt>
      <trkpt lat="36.89970999956131" lon="-2.418321976438165">
        <ele>127.59999999999999</ele>
        <time>2003-04-20T16:57:10Z</time>
      </trkpt>
      <trkpt lat="36.900552967563272" lon="-2.418649960309267">
        <ele>126.90000000000001</ele>
        <time>2003-04-20T16:57:13Z</time>
      </trkpt>
      <trkpt lat="36.901446981355548" lon="-2.418841989710927">
        <ele>125.7</ele>
        <time>2003-04-20T16:57:17Z</time>
      </trkpt>
      <trkpt lat="36.90237301401794" lon="-2.418854981660843">
        <ele>124.2</ele>
        <time>2003-04-20T16:57:20Z</time>
      </trkpt>
      <trkpt lat="36.903271973133087" lon="-2.418773006647825">
        <ele>123.5</ele>
        <time>2003-04-20T16:57:23Z</time>
      </trkpt>
      <trkpt lat="36.904132040217519" lon="-2.418747022747994">
        <ele>123.3</ele>
        <time>2003-04-20T16:57:25Z</time>
      </trkpt>
      <trkpt lat="36.905280025675893" lon="-2.41893301717937">
        <ele>123</ele>
        <time>2003-04-20T16:57:29Z</time>
      </trkpt>
      <trkpt lat="36.906116958707571" lon="-2.419254966080189">
        <ele>123.5</ele>
        <time>2003-04-20T16:57:32Z</time>
      </trkpt>
      <trkpt lat="36.907224962487817" lon="-2.419755030423403">
        <ele>123.90000000000001</ele>
        <time>2003-04-20T16:57:36Z</time>
      </trkpt>
      <trkpt lat="36.908082012087107" lon="-2.420032974332571">
        <ele>124.8</ele>
        <time>2003-04-20T16:57:40Z</time>
      </trkpt>
      <trkpt lat="36.9092480186373" lon="-2.42015996016562">
        <ele>127.59999999999999</ele>
        <time>2003-04-20T16:57:44Z</time>
      </trkpt>
      <trkpt lat="36.909539960324764" lon="-2.420146968215704">
        <ele>128.30000000000001</ele>
        <time>2003-04-20T16:57:44Z</time>
      </trkpt>
      <trkpt lat="36.910685012117028" lon="-2.41994496434927">
        <ele>131.40000000000001</ele>
        <time>2003-04-20T16:57:48Z</time>
      </trkpt>
      <trkpt lat="36.911789998412132" lon="-2.419597031548619">
        <ele>134.90000000000001</ele>
        <time>2003-04-20T16:57:52Z</time>
      </trkpt>
      <trkpt lat="36.912906970828772" lon="-2.419397961348295">
        <ele>137.80000000000001</ele>
        <time>2003-04-20T16:57:56Z</time>
      </trkpt>
      <trkpt lat="36.913467971608043" lon="-2.419357979670167">
        <ele>138.90000000000001</ele>
        <time>2003-04-20T16:57:59Z</time>
      </trkpt>
      <trkpt lat="36.914313035085797" lon="-2.419456969946623">
        <ele>140.59999999999999</ele>
        <time>2003-04-20T16:58:02Z</time>
      </trkpt>
      <trkpt lat="36.915139993652701" lon="-2.419712031260133">
        <ele>142</ele>
        <time>2003-04-20T16:58:04Z</time>
      </trkpt>
      <trkpt lat="36.916197035461664" lon="-2.420255010947585">
        <ele>143.90000000000001</ele>
        <time>2003-04-20T16:58:08Z</time>
      </trkpt>
      <trkpt lat="36.916931960731745" lon="-2.420815005898476">
        <ele>145.19999999999999</ele>
        <time>2003-04-20T16:58:11Z</time>
      </trkpt>
      <trkpt lat="36.917602010071278" lon="-2.421502992510796">
        <ele>146.30000000000001</ele>
        <time>2003-04-20T16:58:15Z</time>
      </trkpt>
      <trkpt lat="36.918197041377425" lon="-2.422302961349487">
        <ele>147.09999999999999</ele>
        <time>2003-04-20T16:58:18Z</time>
      </trkpt>
      <trkpt lat="36.918708002194762" lon="-2.42320803925395">
        <ele>148</ele>
        <time>2003-04-20T16:58:21Z</time>
      </trkpt>
      <trkpt lat="36.919115027412772" lon="-2.424206994473934">
        <ele>148.80000000000001</ele>
        <time>2003-04-20T16:58:23Z</time>
      </trkpt>
      <trkpt lat="36.919419961050153" lon="-2.425275016576052">
        <ele>149.30000000000001</ele>
        <time>2003-04-20T16:58:26Z</time>
      </trkpt>
      <trkpt lat="36.919592963531613" lon="-2.426406992599368">
        <ele>149.19999999999999</ele>
        <time>2003-04-20T16:58:30Z</time>
      </trkpt>
      <trkpt lat="36.919758003205061" lon="-2.427557995542884">
        <ele>148.90000000000001</ele>
        <time>2003-04-20T16:58:33Z</time>
      </trkpt>
      <trkpt lat="36.919997977092862" lon="-2.428704975172877">
        <ele>148.69999999999999</ele>
        <time>2003-04-20T16:58:35Z</time>
      </trkpt>
      <trkpt lat="36.920354962348938" lon="-2.429812978953123">
        <ele>148.69999999999999</ele>
        <time>2003-04-20T16:58:38Z</time>
      </trkpt>
      <trkpt lat="36.920819990336895" lon="-2.430864991620183">
        <ele>148.5</ele>
        <time>2003-04-20T16:58:42Z</time>
      </trkpt>
      <trkpt lat="36.921381996944547" lon="-2.431852966547012">
        <ele>148.30000000000001</ele>
        <time>2003-04-20T16:58:45Z</time>
      </trkpt>
      <trkpt lat="36.922045005485415" lon="-2.432747986167669">
        <ele>148</ele>
        <time>2003-04-20T16:58:48Z</time>
      </trkpt>
      <trkpt lat="36.922795018181205" lon="-2.433545021340251">
        <ele>147.69999999999999</ele>
        <time>2003-04-20T16:58:50Z</time>
      </trkpt>
      <trkpt lat="36.923617031425238" lon="-2.434238037094474">
        <ele>147.40000000000001</ele>
        <time>2003-04-20T16:58:53Z</time>
      </trkpt>
      <trkpt lat="36.924454970285296" lon="-2.434898028150201">
        <ele>147.09999999999999</ele>
        <time>2003-04-20T16:58:57Z</time>
      </trkpt>
      <trkpt lat="36.925227027386427" lon="-2.435582997277379">
        <ele>146.90000000000001</ele>
        <time>2003-04-20T16:59:01Z</time>
      </trkpt>
      <trkpt lat="36.925936974585056" lon="-2.436344996094704">
        <ele>146.40000000000001</ele>
        <time>2003-04-20T16:59:02Z</time>
      </trkpt>
      <trkpt lat="36.926578022539616" lon="-2.437213025987148">
        <ele>145.80000000000001</ele>
        <time>2003-04-20T16:59:05Z</time>
      </trkpt>
      <trkpt lat="36.927170036360621" lon="-2.438152972608805">
        <ele>145.30000000000001</ele>
        <time>2003-04-20T16:59:09Z</time>
      </trkpt>
      <trkpt lat="36.927700024098158" lon="-2.439165003597736">
        <ele>144.69999999999999</ele>
        <time>2003-04-20T16:59:12Z</time>
      </trkpt>
      <trkpt lat="36.928232023492455" lon="-2.440200001001358">
        <ele>143.90000000000001</ele>
        <time>2003-04-20T16:59:16Z</time>
      </trkpt>
      <trkpt lat="36.92880199290812" lon="-2.441222006455064">
        <ele>143.19999999999999</ele>
        <time>2003-04-20T16:59:17Z</time>
      </trkpt>
      <trkpt lat="36.929431976750493" lon="-2.442197995260358">
        <ele>142.80000000000001</ele>
        <time>2003-04-20T16:59:20Z</time>
      </trkpt>
      <trkpt lat="36.930133039131761" lon="-2.443108018487692">
        <ele>142</ele>
        <time>2003-04-20T16:59:24Z</time>
      </trkpt>
      <trkpt lat="36.930880034342408" lon="-2.443974958732724">
        <ele>141.30000000000001</ele>
        <time>2003-04-20T16:59:27Z</time>
      </trkpt>
      <trkpt lat="36.931672962382436" lon="-2.444788003340364">
        <ele>140.59999999999999</ele>
        <time>2003-04-20T16:59:29Z</time>
      </trkpt>
      <trkpt lat="36.932521965354681" lon="-2.445517983287573">
        <ele>139.80000000000001</ele>
        <time>2003-04-20T16:59:33Z</time>
      </trkpt>
      <trkpt lat="36.933432994410396" lon="-2.446152996271849">
        <ele>139.09999999999999</ele>
        <time>2003-04-20T16:59:36Z</time>
      </trkpt>
      <trkpt lat="36.934358021244407" lon="-2.446733023971319">
        <ele>138.30000000000001</ele>
        <time>2003-04-20T16:59:40Z</time>
      </trkpt>
      <trkpt lat="36.935316994786263" lon="-2.447211965918541">
        <ele>138.59999999999999</ele>
        <time>2003-04-20T16:59:43Z</time>
      </trkpt>
      <trkpt lat="36.936294995248318" lon="-2.447602981701493">
        <ele>139.5</ele>
        <time>2003-04-20T16:59:44Z</time>
      </trkpt>
      <trkpt lat="36.937284981831908" lon="-2.447906993329525">
        <ele>141</ele>
        <time>2003-04-20T16:59:48Z</time>
      </trkpt>
      <trkpt lat="36.938272034749389" lon="-2.448157025501132">
        <ele>143.59999999999999</ele>
        <time>2003-04-20T16:59:51Z</time>
      </trkpt>
      <trkpt lat="36.939248023554683" lon="-2.448402028530836">
        <ele>146.59999999999999</ele>
        <time>2003-04-20T16:59:54Z</time>
      </trkpt>
      <trkpt lat="36.940202973783016" lon="-2.448687013238668">
        <ele>149.30000000000001</ele>
        <time>2003-04-20T16:59:58Z</time>
      </trkpt>
      <trkpt lat="36.941130012273788" lon="-2.449030000716448">
        <ele>152.30000000000001</ele>
        <time>2003-04-20T17:00:00Z</time>
      </trkpt>
      <trkpt lat="36.942029977217317" lon="-2.449437025934458">
        <ele>154.90000000000001</ele>
        <time>2003-04-20T17:00:03Z</time>
      </trkpt>
      <trkpt lat="36.942897001281381" lon="-2.449906999245286">
        <ele>157.5</ele>
        <time>2003-04-20T17:00:07Z</time>
      </trkpt>
      <trkpt lat="36.943726977333426" lon="-2.450443021953106">
        <ele>159.90000000000001</ele>
        <time>2003-04-20T17:00:10Z</time>
      </trkpt>
      <trkpt lat="36.94452996365726" lon="-2.451024977490306">
        <ele>162.30000000000001</ele>
        <time>2003-04-20T17:00:13Z</time>
      </trkpt>
      <trkpt lat="36.945292968302965" lon="-2.451668037101626">
        <ele>164.5</ele>
        <time>2003-04-20T17:00:15Z</time>
      </trkpt>
      <trkpt lat="36.946024959906936" lon="-2.452352000400424">
        <ele>166.69999999999999</ele>
        <time>2003-04-20T17:00:18Z</time>
      </trkpt>
      <trkpt lat="36.94671998731792" lon="-2.453081980347633">
        <ele>169</ele>
        <time>2003-04-20T17:00:22Z</time>
      </trkpt>
      <trkpt lat="36.947379978373647" lon="-2.453854959458113">
        <ele>171.19999999999999</ele>
        <time>2003-04-20T17:00:25Z</time>
      </trkpt>
      <trkpt lat="36.948195034638047" lon="-2.454951982945204">
        <ele>174.09999999999999</ele>
        <time>2003-04-20T17:00:29Z</time>
      </trkpt>
      <trkpt lat="36.948943035677075" lon="-2.456112038344145">
        <ele>177</ele>
        <time>2003-04-20T17:00:33Z</time>
      </trkpt>
      <trkpt lat="36.949597997590899" lon="-2.457341998815537">
        <ele>178.59999999999999</ele>
        <time>2003-04-20T17:00:37Z</time>
      </trkpt>
      <trkpt lat="36.950203003361821" lon="-2.458604983985424">
        <ele>181.19999999999999</ele>
        <time>2003-04-20T17:00:41Z</time>
      </trkpt>
      <trkpt lat="36.950893001630902" lon="-2.460220009088516">
        <ele>184.5</ele>
        <time>2003-04-20T17:00:45Z</time>
      </trkpt>
      <trkpt lat="36.951507981866598" lon="-2.461472013965249">
        <ele>186.19999999999999</ele>
        <time>2003-04-20T17:00:49Z</time>
      </trkpt>
      <trkpt lat="36.952282972633839" lon="-2.462569959461689">
        <ele>188.59999999999999</ele>
        <time>2003-04-20T17:00:53Z</time>
      </trkpt>
      <trkpt lat="36.953172041103244" lon="-2.463518036529422">
        <ele>189.69999999999999</ele>
        <time>2003-04-20T17:00:57Z</time>
      </trkpt>
      <trkpt lat="36.954167978838086" lon="-2.464297972619534">
        <ele>189.80000000000001</ele>
        <time>2003-04-20T17:01:01Z</time>
      </trkpt>
      <trkpt lat="36.955255027860403" lon="-2.464898033067584">
        <ele>189.5</ele>
        <time>2003-04-20T17:01:05Z</time>
      </trkpt>
      <trkpt lat="36.956124985590577" lon="-2.46521201916039">
        <ele>188.80000000000001</ele>
        <time>2003-04-20T17:01:08Z</time>
      </trkpt>
      <trkpt lat="36.957041965797544" lon="-2.465402036905289">
        <ele>187.19999999999999</ele>
        <time>2003-04-20T17:01:12Z</time>
      </trkpt>
      <trkpt lat="36.957991970703006" lon="-2.465477976948023">
        <ele>185.69999999999999</ele>
        <time>2003-04-20T17:01:15Z</time>
      </trkpt>
      <trkpt lat="36.958315009251237" lon="-2.465468002483249">
        <ele>185.30000000000001</ele>
        <time>2003-04-20T17:01:16Z</time>
      </trkpt>
      <trkpt lat="36.959292003884912" lon="-2.465455010533333">
        <ele>183.59999999999999</ele>
        <time>2003-04-20T17:01:19Z</time>
      </trkpt>
      <trkpt lat="36.960288025438786" lon="-2.465555006638169">
        <ele>180.90000000000001</ele>
        <time>2003-04-20T17:01:21Z</time>
      </trkpt>
      <trkpt lat="36.961289998143911" lon="-2.465819958597422">
        <ele>177.90000000000001</ele>
        <time>2003-04-20T17:01:24Z</time>
      </trkpt>
      <trkpt lat="36.962298005819321" lon="-2.466127993538976">
        <ele>175.19999999999999</ele>
        <time>2003-04-20T17:01:28Z</time>
      </trkpt>
      <trkpt lat="36.963339960202575" lon="-2.466271994635463">
        <ele>173.09999999999999</ele>
        <time>2003-04-20T17:01:31Z</time>
      </trkpt>
      <trkpt lat="36.964040016755462" lon="-2.466256991028786">
        <ele>172.5</ele>
        <time>2003-04-20T17:01:32Z</time>
      </trkpt>
      <trkpt lat="36.965077025815845" lon="-2.46605004183948">
        <ele>171.5</ele>
        <time>2003-04-20T17:01:35Z</time>
      </trkpt>
      <trkpt lat="36.966074975207448" lon="-2.465673023834825">
        <ele>171</ele>
        <time>2003-04-20T17:01:39Z</time>
      </trkpt>
      <trkpt lat="36.967063033953309" lon="-2.465330036357045">
        <ele>170.30000000000001</ele>
        <time>2003-04-20T17:01:42Z</time>
      </trkpt>
      <trkpt lat="36.968070035800338" lon="-2.465129960328341">
        <ele>170.30000000000001</ele>
        <time>2003-04-20T17:01:44Z</time>
      </trkpt>
      <trkpt lat="36.969079971313477" lon="-2.465038010850549">
        <ele>171.30000000000001</ele>
        <time>2003-04-20T17:01:47Z</time>
      </trkpt>
      <trkpt lat="36.970082027837634" lon="-2.465000040829182">
        <ele>172.59999999999999</ele>
        <time>2003-04-20T17:01:51Z</time>
      </trkpt>
      <trkpt lat="36.971075031906366" lon="-2.464952012524009">
        <ele>174.19999999999999</ele>
        <time>2003-04-20T17:01:54Z</time>
      </trkpt>
      <trkpt lat="36.972057977691293" lon="-2.464902978390455">
        <ele>176.09999999999999</ele>
        <time>2003-04-20T17:01:57Z</time>
      </trkpt>
      <trkpt lat="36.973030027002096" lon="-2.464861990883946">
        <ele>178.09999999999999</ele>
        <time>2003-04-20T17:01:59Z</time>
      </trkpt>
      <trkpt lat="36.973987994715571" lon="-2.464823015034199">
        <ele>180.09999999999999</ele>
        <time>2003-04-20T17:02:02Z</time>
      </trkpt>
      <trkpt lat="36.974934982135892" lon="-2.464771969243884">
        <ele>182.30000000000001</ele>
        <time>2003-04-20T17:02:06Z</time>
      </trkpt>
      <trkpt lat="36.975871995091438" lon="-2.464732993394136">
        <ele>184.90000000000001</ele>
        <time>2003-04-20T17:02:09Z</time>
      </trkpt>
      <trkpt lat="36.97679802775383" lon="-2.464687982574105">
        <ele>187</ele>
        <time>2003-04-20T17:02:11Z</time>
      </trkpt>
      <trkpt lat="36.977715007960796" lon="-2.464648000895977">
        <ele>189.59999999999999</ele>
        <time>2003-04-20T17:02:14Z</time>
      </trkpt>
      <trkpt lat="36.978622013702989" lon="-2.464601984247565">
        <ele>192</ele>
        <time>2003-04-20T17:02:18Z</time>
      </trkpt>
      <trkpt lat="36.979815009981394" lon="-2.464529983699322">
        <ele>195.80000000000001</ele>
        <time>2003-04-20T17:02:22Z</time>
      </trkpt>
      <trkpt lat="36.980991996824741" lon="-2.464381959289312">
        <ele>199.69999999999999</ele>
        <time>2003-04-20T17:02:25Z</time>
      </trkpt>
      <trkpt lat="36.9821269903332" lon="-2.464062022045255">
        <ele>203.19999999999999</ele>
        <time>2003-04-20T17:02:29Z</time>
      </trkpt>
      <trkpt lat="36.983216973021626" lon="-2.463627001270652">
        <ele>206.5</ele>
        <time>2003-04-20T17:02:33Z</time>
      </trkpt>
      <trkpt lat="36.984330005943775" lon="-2.463200027123094">
        <ele>209.19999999999999</ele>
        <time>2003-04-20T17:02:37Z</time>
      </trkpt>
      <trkpt lat="36.985214967280626" lon="-2.463036999106407">
        <ele>210.59999999999999</ele>
        <time>2003-04-20T17:02:41Z</time>
      </trkpt>
      <trkpt lat="36.986127002164721" lon="-2.463059965521097">
        <ele>211.59999999999999</ele>
        <time>2003-04-20T17:02:44Z</time>
      </trkpt>
      <trkpt lat="36.987041970714927" lon="-2.463262975215912">
        <ele>211.80000000000001</ele>
        <time>2003-04-20T17:02:47Z</time>
      </trkpt>
      <trkpt lat="36.987972026690841" lon="-2.463470008224249">
        <ele>211.30000000000001</ele>
        <time>2003-04-20T17:02:49Z</time>
      </trkpt>
      <trkpt lat="36.988918008282781" lon="-2.463518036529422">
        <ele>210.40000000000001</ele>
        <time>2003-04-20T17:02:52Z</time>
      </trkpt>
      <trkpt lat="36.989867007359862" lon="-2.463409993797541">
        <ele>210.30000000000001</ele>
        <time>2003-04-20T17:02:56Z</time>
      </trkpt>
      <trkpt lat="36.990811983123422" lon="-2.463388033211231">
        <ele>212</ele>
        <time>2003-04-20T17:02:59Z</time>
      </trkpt>
      <trkpt lat="36.99143199250102" lon="-2.463487023487687">
        <ele>213.30000000000001</ele>
        <time>2003-04-20T17:03:00Z</time>
      </trkpt>
      <trkpt lat="36.99233204126358" lon="-2.463763039559126">
        <ele>215.80000000000001</ele>
        <time>2003-04-20T17:03:04Z</time>
      </trkpt>
      <trkpt lat="36.993222031742334" lon="-2.464017011225224">
        <ele>218.69999999999999</ele>
        <time>2003-04-20T17:03:07Z</time>
      </trkpt>
      <trkpt lat="36.994110010564327" lon="-2.464094962924719">
        <ele>223.30000000000001</ele>
        <time>2003-04-20T17:03:09Z</time>
      </trkpt>
      <trkpt lat="36.994400024414063" lon="-2.464075013995171">
        <ele>225.09999999999999</ele>
        <time>2003-04-20T17:03:11Z</time>
      </trkpt>
      <trkpt lat="36.995241986587644" lon="-2.463905028998852">
        <ele>230.30000000000001</ele>
        <time>2003-04-20T17:03:14Z</time>
      </trkpt>
      <trkpt lat="36.996032986789942" lon="-2.463587019592524">
        <ele>234.30000000000001</ele>
        <time>2003-04-20T17:03:16Z</time>
      </trkpt>
      <trkpt lat="36.997012998908758" lon="-2.463016966357827">
        <ele>239.09999999999999</ele>
        <time>2003-04-20T17:03:20Z</time>
      </trkpt>
      <trkpt lat="36.998029975220561" lon="-2.462541963905096">
        <ele>243.69999999999999</ele>
        <time>2003-04-20T17:03:24Z</time>
      </trkpt>
      <trkpt lat="36.999109983444214" lon="-2.462207023054361">
        <ele>245.59999999999999</ele>
        <time>2003-04-20T17:03:28Z</time>
      </trkpt>
      <trkpt lat="37.000184962525964" lon="-2.461726991459727">
        <ele>247</ele>
        <time>2003-04-20T17:03:32Z</time>
      </trkpt>
      <trkpt lat="37.000962970778346" lon="-2.46121502481401">
        <ele>247.69999999999999</ele>
        <time>2003-04-20T17:03:35Z</time>
      </trkpt>
      <trkpt lat="37.001703009009361" lon="-2.460568025708199">
        <ele>247.30000000000001</ele>
        <time>2003-04-20T17:03:39Z</time>
      </trkpt>
      <trkpt lat="37.002442963421345" lon="-2.459866963326931">
        <ele>246.30000000000001</ele>
        <time>2003-04-20T17:03:42Z</time>
      </trkpt>
      <trkpt lat="37.003213008865714" lon="-2.459155004471541">
        <ele>244.19999999999999</ele>
        <time>2003-04-20T17:03:45Z</time>
      </trkpt>
      <trkpt lat="37.004007026553154" lon="-2.458417983725667">
        <ele>242.09999999999999</ele>
        <time>2003-04-20T17:03:47Z</time>
      </trkpt>
      <trkpt lat="37.004817975685" lon="-2.457663025707007">
        <ele>240.59999999999999</ele>
        <time>2003-04-20T17:03:50Z</time>
      </trkpt>
      <trkpt lat="37.005643006414175" lon="-2.45689700357616">
        <ele>240</ele>
        <time>2003-04-20T17:03:54Z</time>
      </trkpt>
      <trkpt lat="37.006467031314969" lon="-2.456137016415596">
        <ele>239.90000000000001</ele>
        <time>2003-04-20T17:03:57Z</time>
      </trkpt>
      <trkpt lat="37.007276974618435" lon="-2.455369988456368">
        <ele>240.59999999999999</ele>
        <time>2003-04-20T17:03:59Z</time>
      </trkpt>
      <trkpt lat="37.00808197259903" lon="-2.454615030437708">
        <ele>242</ele>
        <time>2003-04-20T17:04:02Z</time>
      </trkpt>
      <trkpt lat="37.008838020265102" lon="-2.453801985830069">
        <ele>243.69999999999999</ele>
        <time>2003-04-20T17:04:06Z</time>
      </trkpt>
      <trkpt lat="37.009492982178926" lon="-2.452890034765005">
        <ele>246.40000000000001</ele>
        <time>2003-04-20T17:04:09Z</time>
      </trkpt>
      <trkpt lat="37.010062029585242" lon="-2.451922008767724">
        <ele>250.19999999999999</ele>
        <time>2003-04-20T17:04:12Z</time>
      </trkpt>
      <trkpt lat="37.010587994009256" lon="-2.450952976942062">
        <ele>254.19999999999999</ele>
        <time>2003-04-20T17:04:14Z</time>
      </trkpt>
      <trkpt lat="37.011117981746793" lon="-2.450012024492025">
        <ele>258.10000000000002</ele>
        <time>2003-04-20T17:04:17Z</time>
      </trkpt>
      <trkpt lat="37.011634977534413" lon="-2.449081968516111">
        <ele>261.80000000000001</ele>
        <time>2003-04-20T17:04:21Z</time>
      </trkpt>
      <trkpt lat="37.012324975803494" lon="-2.44787497445941">
        <ele>267.10000000000002</ele>
        <time>2003-04-20T17:04:25Z</time>
      </trkpt>
      <trkpt lat="37.012927969917655" lon="-2.447063019499183">
        <ele>270.80000000000001</ele>
        <time>2003-04-20T17:04:28Z</time>
      </trkpt>
      <trkpt lat="37.013617968186736" lon="-2.446362962946296">
        <ele>273.89999999999998</ele>
        <time>2003-04-20T17:04:30Z</time>
      </trkpt>
      <trkpt lat="37.014394970610738" lon="-2.445810008794069">
        <ele>276.80000000000001</ele>
        <time>2003-04-20T17:04:33Z</time>
      </trkpt>
      <trkpt lat="37.015238022431731" lon="-2.445416981354356">
        <ele>279.5</ele>
        <time>2003-04-20T17:04:37Z</time>
      </trkpt>
      <trkpt lat="37.016121977940202" lon="-2.445182036608458">
        <ele>281.5</ele>
        <time>2003-04-20T17:04:40Z</time>
      </trkpt>
      <trkpt lat="37.017032001167536" lon="-2.445056978613138">
        <ele>283.10000000000002</ele>
        <time>2003-04-20T17:04:43Z</time>
      </trkpt>
      <trkpt lat="37.017936995252967" lon="-2.44486796669662">
        <ele>283.80000000000001</ele>
        <time>2003-04-20T17:04:45Z</time>
      </trkpt>
      <trkpt lat="37.018814999610186" lon="-2.444567978382111">
        <ele>284.69999999999999</ele>
        <time>2003-04-20T17:04:48Z</time>
      </trkpt>
      <trkpt lat="37.019656961783767" lon="-2.444147961214185">
        <ele>285.60000000000002</ele>
        <time>2003-04-20T17:04:52Z</time>
      </trkpt>
      <trkpt lat="37.020803019404411" lon="-2.443722998723388">
        <ele>286.80000000000001</ele>
        <time>2003-04-20T17:04:56Z</time>
      </trkpt>
      <trkpt lat="37.021699966862798" lon="-2.443602969869971">
        <ele>286.80000000000001</ele>
        <time>2003-04-20T17:04:59Z</time>
      </trkpt>
      <trkpt lat="37.022298015654087" lon="-2.443607999011874">
        <ele>287.80000000000001</ele>
        <time>2003-04-20T17:05:00Z</time>
      </trkpt>
      <trkpt lat="37.023177025839686" lon="-2.443761974573135">
        <ele>290.39999999999998</ele>
        <time>2003-04-20T17:05:04Z</time>
      </trkpt>
      <trkpt lat="37.02400297857821" lon="-2.444073026999831">
        <ele>295.10000000000002</ele>
        <time>2003-04-20T17:05:07Z</time>
      </trkpt>
      <trkpt lat="37.024506982415915" lon="-2.444379972293973">
        <ele>298.5</ele>
        <time>2003-04-20T17:05:08Z</time>
      </trkpt>
      <trkpt lat="37.025190023705363" lon="-2.444933010265231">
        <ele>302.89999999999998</ele>
        <time>2003-04-20T17:05:11Z</time>
      </trkpt>
      <trkpt lat="37.025784971192479" lon="-2.445598030462861">
        <ele>307.5</ele>
        <time>2003-04-20T17:05:15Z</time>
      </trkpt>
      <trkpt lat="37.026443034410477" lon="-2.446606960147619">
        <ele>313.89999999999998</ele>
        <time>2003-04-20T17:05:19Z</time>
      </trkpt>
      <trkpt lat="37.027021972462535" lon="-2.447656961157918">
        <ele>320.39999999999998</ele>
        <time>2003-04-20T17:05:23Z</time>
      </trkpt>
      <trkpt lat="37.02763200737536" lon="-2.448637979105115">
        <ele>327.39999999999998</ele>
        <time>2003-04-20T17:05:27Z</time>
      </trkpt>
      <trkpt lat="37.028283029794693" lon="-2.449523024260998">
        <ele>334.80000000000001</ele>
        <time>2003-04-20T17:05:31Z</time>
      </trkpt>
      <trkpt lat="37.028970010578632" lon="-2.450306983664632">
        <ele>342.39999999999998</ele>
        <time>2003-04-20T17:05:34Z</time>
      </trkpt>
      <trkpt lat="37.029818007722497" lon="-2.451199991628528">
        <ele>351.5</ele>
        <time>2003-04-20T17:05:39Z</time>
      </trkpt>
      <trkpt lat="37.030600039288402" lon="-2.452070033177733">
        <ele>359.5</ele>
        <time>2003-04-20T17:05:45Z</time>
      </trkpt>
      <trkpt lat="37.031330019235611" lon="-2.453007968142629">
        <ele>367.30000000000001</ele>
        <time>2003-04-20T17:05:50Z</time>
      </trkpt>
      <trkpt lat="37.032005013898015" lon="-2.454047994688153">
        <ele>375.60000000000002</ele>
        <time>2003-04-20T17:05:54Z</time>
      </trkpt>
      <trkpt lat="37.032623011618853" lon="-2.455162033438683">
        <ele>383.5</ele>
        <time>2003-04-20T17:06:00Z</time>
      </trkpt>
      <trkpt lat="37.033191975206137" lon="-2.456344971433282">
        <ele>391.5</ele>
        <time>2003-04-20T17:06:05Z</time>
      </trkpt>
      <trkpt lat="37.033597994595766" lon="-2.457354990765452">
        <ele>397.39999999999998</ele>
        <time>2003-04-20T17:06:09Z</time>
      </trkpt>
      <trkpt lat="37.034020023420453" lon="-2.458384959027171">
        <ele>402.80000000000001</ele>
        <time>2003-04-20T17:06:13Z</time>
      </trkpt>
      <trkpt lat="37.034467030316591" lon="-2.459422973915935">
        <ele>408.19999999999999</ele>
        <time>2003-04-20T17:06:17Z</time>
      </trkpt>
      <trkpt lat="37.034934991970658" lon="-2.460474986582995">
        <ele>413.69999999999999</ele>
        <time>2003-04-20T17:06:21Z</time>
      </trkpt>
      <trkpt lat="37.035455005243421" lon="-2.461513001471758">
        <ele>418.89999999999998</ele>
        <time>2003-04-20T17:06:25Z</time>
      </trkpt>
      <trkpt lat="37.036035032942891" lon="-2.462531989440322">
        <ele>423.80000000000001</ele>
        <time>2003-04-20T17:06:28Z</time>
      </trkpt>
      <trkpt lat="37.036665016785264" lon="-2.463533040136099">
        <ele>428.39999999999998</ele>
        <time>2003-04-20T17:06:32Z</time>
      </trkpt>
      <trkpt lat="37.037362977862358" lon="-2.464501988142729">
        <ele>432.89999999999998</ele>
        <time>2003-04-20T17:06:36Z</time>
      </trkpt>
      <trkpt lat="37.038107961416245" lon="-2.465447969734669">
        <ele>437</ele>
        <time>2003-04-20T17:06:40Z</time>
      </trkpt>
      <trkpt lat="37.03891203738749" lon="-2.466352041810751">
        <ele>440.5</ele>
        <time>2003-04-20T17:06:44Z</time>
      </trkpt>
      <trkpt lat="37.039770008996129" lon="-2.467217976227403">
        <ele>443.60000000000002</ele>
        <time>2003-04-20T17:06:48Z</time>
      </trkpt>
      <trkpt lat="37.040684977546334" lon="-2.468033032491803">
        <ele>446.30000000000001</ele>
        <time>2003-04-20T17:06:52Z</time>
      </trkpt>
      <trkpt lat="37.041619978845119" lon="-2.46875798329711">
        <ele>448.39999999999998</ele>
        <time>2003-04-20T17:06:56Z</time>
      </trkpt>
      <trkpt lat="37.042578030377626" lon="-2.469417974352837">
        <ele>450.69999999999999</ele>
        <time>2003-04-20T17:07:00Z</time>
      </trkpt>
      <trkpt lat="37.043552007526159" lon="-2.470028009265661">
        <ele>453.69999999999999</ele>
        <time>2003-04-20T17:07:04Z</time>
      </trkpt>
      <trkpt lat="37.044518021866679" lon="-2.470614993944764">
        <ele>457</ele>
        <time>2003-04-20T17:07:08Z</time>
      </trkpt>
      <trkpt lat="37.045467020943761" lon="-2.471192004159093">
        <ele>460.80000000000001</ele>
        <time>2003-04-20T17:07:12Z</time>
      </trkpt>
      <trkpt lat="37.046419959515333" lon="-2.471774965524674">
        <ele>464</ele>
        <time>2003-04-20T17:07:17Z</time>
      </trkpt>
      <trkpt lat="37.047387985512614" lon="-2.472362034022808">
        <ele>467.80000000000001</ele>
        <time>2003-04-20T17:07:21Z</time>
      </trkpt>
      <trkpt lat="37.048364980146289" lon="-2.472956981509924">
        <ele>471.5</ele>
        <time>2003-04-20T17:07:25Z</time>
      </trkpt>
      <trkpt lat="37.049348009750247" lon="-2.473559975624085">
        <ele>475</ele>
        <time>2003-04-20T17:07:29Z</time>
      </trkpt>
      <trkpt lat="37.050346964970231" lon="-2.474160036072135">
        <ele>478.39999999999998</ele>
        <time>2003-04-20T17:07:33Z</time>
      </trkpt>
      <trkpt lat="37.051348015666008" lon="-2.474777027964592">
        <ele>482</ele>
        <time>2003-04-20T17:07:37Z</time>
      </trkpt>
      <trkpt lat="37.052357029169798" lon="-2.475383039563894">
        <ele>485.39999999999998</ele>
        <time>2003-04-20T17:07:41Z</time>
      </trkpt>
      <trkpt lat="37.053366964682937" lon="-2.476007994264364">
        <ele>489.19999999999999</ele>
        <time>2003-04-20T17:07:45Z</time>
      </trkpt>
      <trkpt lat="37.054367009550333" lon="-2.476673014461994">
        <ele>492.89999999999998</ele>
        <time>2003-04-20T17:07:49Z</time>
      </trkpt>
      <trkpt lat="37.055326988920569" lon="-2.47743702493608">
        <ele>496.39999999999998</ele>
        <time>2003-04-20T17:07:53Z</time>
      </trkpt>
      <trkpt lat="37.056232988834381" lon="-2.478302959352732">
        <ele>500</ele>
        <time>2003-04-20T17:07:57Z</time>
      </trkpt>
      <trkpt lat="37.057077968493104" lon="-2.479265034198761">
        <ele>503.5</ele>
        <time>2003-04-20T17:08:01Z</time>
      </trkpt>
      <trkpt lat="37.057856982573867" lon="-2.480312017723918">
        <ele>507</ele>
        <time>2003-04-20T17:08:05Z</time>
      </trkpt>
      <trkpt lat="37.058568019419909" lon="-2.481435025110841">
        <ele>510.30000000000001</ele>
        <time>2003-04-20T17:08:09Z</time>
      </trkpt>
      <trkpt lat="37.059217030182481" lon="-2.482619974762201">
        <ele>513.70000000000005</ele>
        <time>2003-04-20T17:08:13Z</time>
      </trkpt>
      <trkpt lat="37.059866962954402" lon="-2.483807019889355">
        <ele>517.10000000000002</ele>
        <time>2003-04-20T17:08:16Z</time>
      </trkpt>
      <trkpt lat="37.060580011457205" lon="-2.484942013397813">
        <ele>520.70000000000005</ele>
        <time>2003-04-20T17:08:20Z</time>
      </trkpt>
      <trkpt lat="37.061373023316264" lon="-2.485992014408112">
        <ele>524.29999999999995</ele>
        <time>2003-04-20T17:08:24Z</time>
      </trkpt>
      <trkpt lat="37.062224959954619" lon="-2.486964985728264">
        <ele>527.79999999999995</ele>
        <time>2003-04-20T17:08:28Z</time>
      </trkpt>
      <trkpt lat="37.063146969303489" lon="-2.48783502727747">
        <ele>531.60000000000002</ele>
        <time>2003-04-20T17:08:32Z</time>
      </trkpt>
      <trkpt lat="37.064118012785912" lon="-2.48861001804471">
        <ele>535</ele>
        <time>2003-04-20T17:08:36Z</time>
      </trkpt>
      <trkpt lat="37.065123002976179" lon="-2.489312002435327">
        <ele>538.89999999999998</ele>
        <time>2003-04-20T17:08:40Z</time>
      </trkpt>
      <trkpt lat="37.066127993166447" lon="-2.490002000704408">
        <ele>543.20000000000005</ele>
        <time>2003-04-20T17:08:44Z</time>
      </trkpt>
      <trkpt lat="37.067129965871572" lon="-2.490693004801869">
        <ele>547.20000000000005</ele>
        <time>2003-04-20T17:08:48Z</time>
      </trkpt>
      <trkpt lat="37.068122969940305" lon="-2.491377973929048">
        <ele>552.29999999999995</ele>
        <time>2003-04-20T17:08:52Z</time>
      </trkpt>
      <trkpt lat="37.069084960967302" lon="-2.492086999118328">
        <ele>557.79999999999995</ele>
        <time>2003-04-20T17:08:56Z</time>
      </trkpt>
      <trkpt lat="37.069947039708495" lon="-2.492946982383728">
        <ele>562.89999999999998</ele>
        <time>2003-04-20T17:09:02Z</time>
      </trkpt>
      <trkpt lat="37.070666961371899" lon="-2.49398197978735">
        <ele>567.39999999999998</ele>
        <time>2003-04-20T17:09:05Z</time>
      </trkpt>
      <trkpt lat="37.071237014606595" lon="-2.495143041014671">
        <ele>572.29999999999995</ele>
        <time>2003-04-20T17:09:09Z</time>
      </trkpt>
      <trkpt lat="37.071704976260662" lon="-2.496373001486063">
        <ele>576.79999999999995</ele>
        <time>2003-04-20T17:09:13Z</time>
      </trkpt>
      <trkpt lat="37.072262959554791" lon="-2.497538002207875">
        <ele>581.29999999999995</ele>
        <time>2003-04-20T17:09:18Z</time>
      </trkpt>
      <trkpt lat="37.072969973087311" lon="-2.498562019318342">
        <ele>586.79999999999995</ele>
        <time>2003-04-20T17:09:22Z</time>
      </trkpt>
      <trkpt lat="37.073586964979768" lon="-2.499216981232166">
        <ele>590.70000000000005</ele>
        <time>2003-04-20T17:09:25Z</time>
      </trkpt>
      <trkpt lat="37.074475027620792" lon="-2.499958025291562">
        <ele>595.70000000000005</ele>
        <time>2003-04-20T17:09:27Z</time>
      </trkpt>
      <trkpt lat="37.075367029756308" lon="-2.500692028552294">
        <ele>600.39999999999998</ele>
        <time>2003-04-20T17:09:32Z</time>
      </trkpt>
      <trkpt lat="37.076261965557933" lon="-2.501419996842742">
        <ele>604.89999999999998</ele>
        <time>2003-04-20T17:09:37Z</time>
      </trkpt>
      <trkpt lat="37.077148016542196" lon="-2.502160035073757">
        <ele>609.20000000000005</ele>
        <time>2003-04-20T17:09:40Z</time>
      </trkpt>
      <trkpt lat="37.078044964000583" lon="-2.502890015020967">
        <ele>613.39999999999998</ele>
        <time>2003-04-20T17:09:45Z</time>
      </trkpt>
      <trkpt lat="37.078935038298368" lon="-2.503637010231614">
        <ele>618</ele>
        <time>2003-04-20T17:09:48Z</time>
      </trkpt>
      <trkpt lat="37.079793009907007" lon="-2.504436979070306">
        <ele>622.70000000000005</ele>
        <time>2003-04-20T17:09:53Z</time>
      </trkpt>
      <trkpt lat="37.080585015937686" lon="-2.505322024226189">
        <ele>628.10000000000002</ele>
        <time>2003-04-20T17:09:57Z</time>
      </trkpt>
      <trkpt lat="37.081294963136315" lon="-2.506289966404438">
        <ele>633.89999999999998</ele>
        <time>2003-04-20T17:10:01Z</time>
      </trkpt>
      <trkpt lat="37.081910027191043" lon="-2.507339967414737">
        <ele>639.79999999999995</ele>
        <time>2003-04-20T17:10:04Z</time>
      </trkpt>
      <trkpt lat="37.082436997443438" lon="-2.508442020043731">
        <ele>645.79999999999995</ele>
        <time>2003-04-20T17:10:08Z</time>
      </trkpt>
      <trkpt lat="37.082867994904518" lon="-2.509592017158866">
        <ele>651.5</ele>
        <time>2003-04-20T17:10:12Z</time>
      </trkpt>
      <trkpt lat="37.083218023180962" lon="-2.510772021487355">
        <ele>656.89999999999998</ele>
        <time>2003-04-20T17:10:16Z</time>
      </trkpt>
      <trkpt lat="37.083482975140214" lon="-2.511977003887296">
        <ele>662.20000000000005</ele>
        <time>2003-04-20T17:10:20Z</time>
      </trkpt>
      <trkpt lat="37.083714986220002" lon="-2.513185003772378">
        <ele>667.39999999999998</ele>
        <time>2003-04-20T17:10:24Z</time>
      </trkpt>
      <trkpt lat="37.084038024768233" lon="-2.514353021979332">
        <ele>672.70000000000005</ele>
        <time>2003-04-20T17:10:28Z</time>
      </trkpt>
      <trkpt lat="37.084492994472384" lon="-2.515430012717843">
        <ele>679</ele>
        <time>2003-04-20T17:10:32Z</time>
      </trkpt>
      <trkpt lat="37.085052989423275" lon="-2.516398038715124">
        <ele>685.5</ele>
        <time>2003-04-20T17:10:36Z</time>
      </trkpt>
      <trkpt lat="37.085635028779507" lon="-2.517317030578852">
        <ele>691.39999999999998</ele>
        <time>2003-04-20T17:10:40Z</time>
      </trkpt>
      <trkpt lat="37.08620198071003" lon="-2.518226969987154">
        <ele>696.89999999999998</ele>
        <time>2003-04-20T17:10:44Z</time>
      </trkpt>
      <trkpt lat="37.086762981489301" lon="-2.519121989607811">
        <ele>702.20000000000005</ele>
        <time>2003-04-20T17:10:48Z</time>
      </trkpt>
      <trkpt lat="37.087462032213807" lon="-2.520224964246154">
        <ele>709.29999999999995</ele>
        <time>2003-04-20T17:10:54Z</time>
      </trkpt>
      <trkpt lat="37.087929993867874" lon="-2.52083701081574">
        <ele>713</ele>
        <time>2003-04-20T17:10:57Z</time>
      </trkpt>
      <trkpt lat="37.08880296908319" lon="-2.521709986031056">
        <ele>720.39999999999998</ele>
        <time>2003-04-20T17:11:02Z</time>
      </trkpt>
      <trkpt lat="37.089577037841082" lon="-2.522252965718508">
        <ele>725.70000000000005</ele>
        <time>2003-04-20T17:11:06Z</time>
      </trkpt>
      <trkpt lat="37.090559983626008" lon="-2.522838022559881">
        <ele>733.20000000000005</ele>
        <time>2003-04-20T17:11:10Z</time>
      </trkpt>
      <trkpt lat="37.091479981318116" lon="-2.523543024435639">
        <ele>740.29999999999995</ele>
        <time>2003-04-20T17:11:15Z</time>
      </trkpt>
      <trkpt lat="37.092297971248627" lon="-2.524432009086013">
        <ele>746.89999999999998</ele>
        <time>2003-04-20T17:11:21Z</time>
      </trkpt>
      <trkpt lat="37.093002973124385" lon="-2.525495002046228">
        <ele>751.70000000000005</ele>
        <time>2003-04-20T17:11:25Z</time>
      </trkpt>
      <trkpt lat="37.093543019145727" lon="-2.526418017223477">
        <ele>754.79999999999995</ele>
        <time>2003-04-20T17:11:29Z</time>
      </trkpt>
      <trkpt lat="37.0941730029881" lon="-2.527298033237457">
        <ele>757.39999999999998</ele>
        <time>2003-04-20T17:11:33Z</time>
      </trkpt>
      <trkpt lat="37.094932990148664" lon="-2.528077969327569">
        <ele>759</ele>
        <time>2003-04-20T17:11:37Z</time>
      </trkpt>
      <trkpt lat="37.095830021426082" lon="-2.528723040595651">
        <ele>759.60000000000002</ele>
        <time>2003-04-20T17:11:41Z</time>
      </trkpt>
      <trkpt lat="37.096587996929884" lon="-2.529092011973262">
        <ele>759.70000000000005</ele>
        <time>2003-04-20T17:11:45Z</time>
      </trkpt>
      <trkpt lat="37.097687032073736" lon="-2.529442040249705">
        <ele>758.79999999999995</ele>
        <time>2003-04-20T17:11:49Z</time>
      </trkpt>
      <trkpt lat="37.09825498983264" lon="-2.529485039412975">
        <ele>757.5</ele>
        <time>2003-04-20T17:11:51Z</time>
      </trkpt>
      <trkpt lat="37.098539974540472" lon="-2.529485039412975">
        <ele>756.89999999999998</ele>
        <time>2003-04-20T17:11:52Z</time>
      </trkpt>
      <trkpt lat="37.099700029939413" lon="-2.529342966154218">
        <ele>753.5</ele>
        <time>2003-04-20T17:11:56Z</time>
      </trkpt>
      <trkpt lat="37.100867964327335" lon="-2.529026968404651">
        <ele>751.39999999999998</ele>
        <time>2003-04-20T17:12:00Z</time>
      </trkpt>
      <trkpt lat="37.101762983947992" lon="-2.528799986466765">
        <ele>750.60000000000002</ele>
        <time>2003-04-20T17:12:03Z</time>
      </trkpt>
      <trkpt lat="37.10266001522541" lon="-2.528558000922203">
        <ele>750.29999999999995</ele>
        <time>2003-04-20T17:12:05Z</time>
      </trkpt>
      <trkpt lat="37.103550005704165" lon="-2.528317021206021">
        <ele>750.89999999999998</ele>
        <time>2003-04-20T17:12:08Z</time>
      </trkpt>
      <trkpt lat="37.104715006425977" lon="-2.528019966557622">
        <ele>752.89999999999998</ele>
        <time>2003-04-20T17:12:12Z</time>
      </trkpt>
      <trkpt lat="37.105837007984519" lon="-2.527751997113228">
        <ele>755.10000000000002</ele>
        <time>2003-04-20T17:12:16Z</time>
      </trkpt>
      <trkpt lat="37.106941994279623" lon="-2.527625011280179">
        <ele>756.20000000000005</ele>
        <time>2003-04-20T17:12:20Z</time>
      </trkpt>
      <trkpt lat="37.107501989230514" lon="-2.527636997401714">
        <ele>756.60000000000002</ele>
        <time>2003-04-20T17:12:23Z</time>
      </trkpt>
      <trkpt lat="37.108624996617436" lon="-2.527843024581671">
        <ele>756.39999999999998</ele>
        <time>2003-04-20T17:12:27Z</time>
      </trkpt>
      <trkpt lat="37.109731994569302" lon="-2.528277961537242">
        <ele>755.39999999999998</ele>
        <time>2003-04-20T17:12:31Z</time>
      </trkpt>
      <trkpt lat="37.110530035570264" lon="-2.528754975646734">
        <ele>754.39999999999998</ele>
        <time>2003-04-20T17:12:34Z</time>
      </trkpt>
      <trkpt lat="37.111526979133487" lon="-2.529585035517812">
        <ele>752.10000000000002</ele>
        <time>2003-04-20T17:12:38Z</time>
      </trkpt>
      <trkpt lat="37.112400038167834" lon="-2.530611986294389">
        <ele>749.29999999999995</ele>
        <time>2003-04-20T17:12:42Z</time>
      </trkpt>
      <trkpt lat="37.112964978441596" lon="-2.531492002308369">
        <ele>746.70000000000005</ele>
        <time>2003-04-20T17:12:45Z</time>
      </trkpt>
      <trkpt lat="37.113463031128049" lon="-2.532454999163747">
        <ele>743.20000000000005</ele>
        <time>2003-04-20T17:12:47Z</time>
      </trkpt>
      <trkpt lat="37.113954965025187" lon="-2.533453032374382">
        <ele>739.70000000000005</ele>
        <time>2003-04-20T17:12:50Z</time>
      </trkpt>
      <trkpt lat="37.114459974691272" lon="-2.534464979544282">
        <ele>736.5</ele>
        <time>2003-04-20T17:12:54Z</time>
      </trkpt>
      <trkpt lat="37.114966996014118" lon="-2.535477010533214">
        <ele>733.20000000000005</ele>
        <time>2003-04-20T17:12:57Z</time>
      </trkpt>
      <trkpt lat="37.115457002073526" lon="-2.5365000218153">
        <ele>729.89999999999998</ele>
        <time>2003-04-20T17:12:59Z</time>
      </trkpt>
      <trkpt lat="37.11589302867651" lon="-2.537567038089037">
        <ele>726.89999999999998</ele>
        <time>2003-04-20T17:13:02Z</time>
      </trkpt>
      <trkpt lat="37.116210032254457" lon="-2.538707982748747">
        <ele>725.10000000000002</ele>
        <time>2003-04-20T17:13:06Z</time>
      </trkpt>
      <trkpt lat="37.116401977837086" lon="-2.539887987077236">
        <ele>725.70000000000005</ele>
        <time>2003-04-20T17:13:09Z</time>
      </trkpt>
      <trkpt lat="37.11647498421371" lon="-2.541070003062487">
        <ele>727.70000000000005</ele>
        <time>2003-04-20T17:13:12Z</time>
      </trkpt>
      <trkpt lat="37.11641295813024" lon="-2.542244978249073">
        <ele>729.70000000000005</ele>
        <time>2003-04-20T17:13:14Z</time>
      </trkpt>
      <trkpt lat="37.116220006719232" lon="-2.543382989242673">
        <ele>731.79999999999995</ele>
        <time>2003-04-20T17:13:17Z</time>
      </trkpt>
      <trkpt lat="37.116005010902882" lon="-2.544504990801215">
        <ele>733.70000000000005</ele>
        <time>2003-04-20T17:13:21Z</time>
      </trkpt>
      <trkpt lat="37.115866960957646" lon="-2.545635038986802">
        <ele>735.20000000000005</ele>
        <time>2003-04-20T17:13:24Z</time>
      </trkpt>
      <trkpt lat="37.115823039785028" lon="-2.546767015010119">
        <ele>737.29999999999995</ele>
        <time>2003-04-20T17:13:26Z</time>
      </trkpt>
      <trkpt lat="37.115909960120916" lon="-2.547882981598377">
        <ele>739.29999999999995</ele>
        <time>2003-04-20T17:13:29Z</time>
      </trkpt>
      <trkpt lat="37.116182958707213" lon="-2.549322992563248">
        <ele>741.60000000000002</ele>
        <time>2003-04-20T17:13:33Z</time>
      </trkpt>
      <trkpt lat="37.116570034995675" lon="-2.550699971616268">
        <ele>744.5</ele>
        <time>2003-04-20T17:13:37Z</time>
      </trkpt>
      <trkpt lat="37.116913022473454" lon="-2.552082985639572">
        <ele>746.70000000000005</ele>
        <time>2003-04-20T17:13:41Z</time>
      </trkpt>
      <trkpt lat="37.117167999967933" lon="-2.553491983562708">
        <ele>748.5</ele>
        <time>2003-04-20T17:13:45Z</time>
      </trkpt>
      <trkpt lat="37.117317030206323" lon="-2.554920008406043">
        <ele>750.10000000000002</ele>
        <time>2003-04-20T17:13:49Z</time>
      </trkpt>
      <trkpt lat="37.117392970249057" lon="-2.556360019370914">
        <ele>751.70000000000005</ele>
        <time>2003-04-20T17:13:53Z</time>
      </trkpt>
      <trkpt lat="37.117430018261075" lon="-2.557806987315416">
        <ele>753.10000000000002</ele>
        <time>2003-04-20T17:13:57Z</time>
      </trkpt>
      <trkpt lat="37.117481986060739" lon="-2.559257978573442">
        <ele>754.70000000000005</ele>
        <time>2003-04-20T17:14:02Z</time>
      </trkpt>
      <trkpt lat="37.117512999102473" lon="-2.560711987316608">
        <ele>756.29999999999995</ele>
        <time>2003-04-20T17:14:06Z</time>
      </trkpt>
      <trkpt lat="37.117551974952221" lon="-2.562168007716537">
        <ele>758.10000000000002</ele>
        <time>2003-04-20T17:14:10Z</time>
      </trkpt>
      <trkpt lat="37.117594974115491" lon="-2.563626961782575">
        <ele>759.5</ele>
        <time>2003-04-20T17:14:14Z</time>
      </trkpt>
      <trkpt lat="37.11761299520731" lon="-2.565088011324406">
        <ele>760.89999999999998</ele>
        <time>2003-04-20T17:14:18Z</time>
      </trkpt>
      <trkpt lat="37.117618024349213" lon="-2.566551994532347">
        <ele>762.5</ele>
        <time>2003-04-20T17:14:22Z</time>
      </trkpt>
      <trkpt lat="37.117615006864071" lon="-2.568014971911907">
        <ele>764</ele>
        <time>2003-04-20T17:14:26Z</time>
      </trkpt>
      <trkpt lat="37.11761299520731" lon="-2.56948197260499">
        <ele>765.5</ele>
        <time>2003-04-20T17:14:30Z</time>
      </trkpt>
      <trkpt lat="37.117641996592283" lon="-2.570951990783215">
        <ele>767.10000000000002</ele>
        <time>2003-04-20T17:14:34Z</time>
      </trkpt>
      <trkpt lat="37.117760013788939" lon="-2.572419997304678">
        <ele>768.29999999999995</ele>
        <time>2003-04-20T17:14:38Z</time>
      </trkpt>
      <trkpt lat="37.11797802709043" lon="-2.573873000219464">
        <ele>769.60000000000002</ele>
        <time>2003-04-20T17:14:42Z</time>
      </trkpt>
      <trkpt lat="37.118296958506107" lon="-2.575298007577658">
        <ele>770.89999999999998</ele>
        <time>2003-04-20T17:14:46Z</time>
      </trkpt>
      <trkpt lat="37.118676993995905" lon="-2.576701976358891">
        <ele>771.89999999999998</ele>
        <time>2003-04-20T17:14:50Z</time>
      </trkpt>
      <trkpt lat="37.119055017828941" lon="-2.578108040615916">
        <ele>773</ele>
        <time>2003-04-20T17:14:54Z</time>
      </trkpt>
      <trkpt lat="37.11941996589303" lon="-2.579527013003826">
        <ele>773.79999999999995</ele>
        <time>2003-04-20T17:14:58Z</time>
      </trkpt>
      <trkpt lat="37.119630016386509" lon="-2.580999964848161">
        <ele>773.79999999999995</ele>
        <time>2003-04-20T17:15:01Z</time>
      </trkpt>
      <trkpt lat="37.119672009721398" lon="-2.582132024690509">
        <ele>773.60000000000002</ele>
        <time>2003-04-20T17:15:05Z</time>
      </trkpt>
      <trkpt lat="37.119603026658297" lon="-2.583271963521838">
        <ele>773</ele>
        <time>2003-04-20T17:15:08Z</time>
      </trkpt>
      <trkpt lat="37.119413008913398" lon="-2.584400000050664">
        <ele>772.29999999999995</ele>
        <time>2003-04-20T17:15:10Z</time>
      </trkpt>
      <trkpt lat="37.11911503225565" lon="-2.585504986345768">
        <ele>771.39999999999998</ele>
        <time>2003-04-20T17:15:13Z</time>
      </trkpt>
      <trkpt lat="37.118689985945821" lon="-2.58656001649797">
        <ele>770.20000000000005</ele>
        <time>2003-04-20T17:15:17Z</time>
      </trkpt>
      <trkpt lat="37.118239961564541" lon="-2.58761303499341">
        <ele>768.39999999999998</ele>
        <time>2003-04-20T17:15:20Z</time>
      </trkpt>
      <trkpt lat="37.117854980751872" lon="-2.588678039610386">
        <ele>765.89999999999998</ele>
        <time>2003-04-20T17:15:23Z</time>
      </trkpt>
      <trkpt lat="37.117579970508814" lon="-2.589806998148561">
        <ele>764.29999999999995</ele>
        <time>2003-04-20T17:15:25Z</time>
      </trkpt>
      <trkpt lat="37.117432029917836" lon="-2.590981973335147">
        <ele>763.29999999999995</ele>
        <time>2003-04-20T17:15:28Z</time>
      </trkpt>
      <trkpt lat="37.117387019097805" lon="-2.592176981270313">
        <ele>763</ele>
        <time>2003-04-20T17:15:32Z</time>
      </trkpt>
      <trkpt lat="37.11744200438261" lon="-2.593356985598803">
        <ele>762.89999999999998</ele>
        <time>2003-04-20T17:15:35Z</time>
      </trkpt>
      <trkpt lat="37.117502018809319" lon="-2.594527015462518">
        <ele>763.39999999999998</ele>
        <time>2003-04-20T17:15:37Z</time>
      </trkpt>
      <trkpt lat="37.117554992437363" lon="-2.595690004527569">
        <ele>764.29999999999995</ele>
        <time>2003-04-20T17:15:40Z</time>
      </trkpt>
      <trkpt lat="37.117609977722168" lon="-2.59685299359262">
        <ele>764.79999999999995</ele>
        <time>2003-04-20T17:15:44Z</time>
      </trkpt>
      <trkpt lat="37.117667980492115" lon="-2.598016988486052">
        <ele>764.70000000000005</ele>
        <time>2003-04-20T17:15:47Z</time>
      </trkpt>
      <trkpt lat="37.117726989090443" lon="-2.599182995036244">
        <ele>764.10000000000002</ele>
        <time>2003-04-20T17:15:50Z</time>
      </trkpt>
      <trkpt lat="37.117812987416983" lon="-2.600357970222831">
        <ele>762.79999999999995</ele>
        <time>2003-04-20T17:15:52Z</time>
      </trkpt>
      <trkpt lat="37.117990013211966" lon="-2.60153504088521">
        <ele>760.5</ele>
        <time>2003-04-20T17:15:55Z</time>
      </trkpt>
      <trkpt lat="37.118253037333488" lon="-2.602701969444752">
        <ele>758.20000000000005</ele>
        <time>2003-04-20T17:15:59Z</time>
      </trkpt>
      <trkpt lat="37.118556965142488" lon="-2.603863030672073">
        <ele>756.39999999999998</ele>
        <time>2003-04-20T17:16:02Z</time>
      </trkpt>
      <trkpt lat="37.118844967335463" lon="-2.605029959231615">
        <ele>755.79999999999995</ele>
        <time>2003-04-20T17:16:04Z</time>
      </trkpt>
      <trkpt lat="37.119130035862327" lon="-2.606184985488653">
        <ele>756.39999999999998</ele>
        <time>2003-04-20T17:16:07Z</time>
      </trkpt>
      <trkpt lat="37.119412003085017" lon="-2.607331965118647">
        <ele>757</ele>
        <time>2003-04-20T17:16:11Z</time>
      </trkpt>
      <trkpt lat="37.119677038863301" lon="-2.608475005254149">
        <ele>757.70000000000005</ele>
        <time>2003-04-20T17:16:14Z</time>
      </trkpt>
      <trkpt lat="37.119884993880987" lon="-2.609628019854426">
        <ele>758.39999999999998</ele>
        <time>2003-04-20T17:16:17Z</time>
      </trkpt>
      <trkpt lat="37.120050033554435" lon="-2.610786985605955">
        <ele>758.79999999999995</ele>
        <time>2003-04-20T17:16:19Z</time>
      </trkpt>
      <trkpt lat="37.120120022445917" lon="-2.611960032954812">
        <ele>758.89999999999998</ele>
        <time>2003-04-20T17:16:22Z</time>
      </trkpt>
      <trkpt lat="37.120141983032227" lon="-2.613142970949411">
        <ele>758.5</ele>
        <time>2003-04-20T17:16:26Z</time>
      </trkpt>
      <trkpt lat="37.120147012174129" lon="-2.614333033561707">
        <ele>757.79999999999995</ele>
        <time>2003-04-20T17:16:29Z</time>
      </trkpt>
      <trkpt lat="37.120160004124045" lon="-2.615528041496873">
        <ele>757.20000000000005</ele>
        <time>2003-04-20T17:16:31Z</time>
      </trkpt>
      <trkpt lat="37.120162015780807" lon="-2.616732018068433">
        <ele>756.60000000000002</ele>
        <time>2003-04-20T17:16:34Z</time>
      </trkpt>
      <trkpt lat="37.120166961103678" lon="-2.617940017953515">
        <ele>756</ele>
        <time>2003-04-20T17:16:38Z</time>
      </trkpt>
      <trkpt lat="37.120184982195497" lon="-2.619150029495359">
        <ele>755.89999999999998</ele>
        <time>2003-04-20T17:16:41Z</time>
      </trkpt>
      <trkpt lat="37.120267041027546" lon="-2.620347971096635">
        <ele>756.79999999999995</ele>
        <time>2003-04-20T17:16:44Z</time>
      </trkpt>
      <trkpt lat="37.120426967740059" lon="-2.621511965990067">
        <ele>759</ele>
        <time>2003-04-20T17:16:46Z</time>
      </trkpt>
      <trkpt lat="37.120667025446892" lon="-2.622632961720228">
        <ele>762.29999999999995</ele>
        <time>2003-04-20T17:16:49Z</time>
      </trkpt>
      <trkpt lat="37.120976988226175" lon="-2.623695032671094">
        <ele>766.39999999999998</ele>
        <time>2003-04-20T17:16:53Z</time>
      </trkpt>
      <trkpt lat="37.121449979022145" lon="-2.625015014782548">
        <ele>773.10000000000002</ele>
        <time>2003-04-20T17:16:57Z</time>
      </trkpt>
      <trkpt lat="37.12201802060008" lon="-2.62620197609067">
        <ele>778.89999999999998</ele>
        <time>2003-04-20T17:17:01Z</time>
      </trkpt>
      <trkpt lat="37.122578015550971" lon="-2.627337975427508">
        <ele>783.29999999999995</ele>
        <time>2003-04-20T17:17:05Z</time>
      </trkpt>
      <trkpt lat="37.123116971924901" lon="-2.628472968935967">
        <ele>786.5</ele>
        <time>2003-04-20T17:17:09Z</time>
      </trkpt>
      <trkpt lat="37.123673027381301" lon="-2.629630006849766">
        <ele>788.29999999999995</ele>
        <time>2003-04-20T17:17:13Z</time>
      </trkpt>
      <trkpt lat="37.124237967655063" lon="-2.630813028663397">
        <ele>788.70000000000005</ele>
        <time>2003-04-20T17:17:16Z</time>
      </trkpt>
      <trkpt lat="37.12481003254652" lon="-2.632011976093054">
        <ele>787.39999999999998</ele>
        <time>2003-04-20T17:17:20Z</time>
      </trkpt>
      <trkpt lat="37.125385031104088" lon="-2.633207989856601">
        <ele>784.10000000000002</ele>
        <time>2003-04-20T17:17:24Z</time>
      </trkpt>
      <trkpt lat="37.125964974984527" lon="-2.634335020557046">
        <ele>779.20000000000005</ele>
        <time>2003-04-20T17:17:28Z</time>
      </trkpt>
      <trkpt lat="37.126642987132072" lon="-2.635434977710247">
        <ele>773.29999999999995</ele>
        <time>2003-04-20T17:17:32Z</time>
      </trkpt>
      <trkpt lat="37.12738998234272" lon="-2.636516997590661">
        <ele>767.29999999999995</ele>
        <time>2003-04-20T17:17:36Z</time>
      </trkpt>
      <trkpt lat="37.128233034163713" lon="-2.63754696585238">
        <ele>761</ele>
        <time>2003-04-20T17:17:40Z</time>
      </trkpt>
      <trkpt lat="37.128926971927285" lon="-2.638293039053679">
        <ele>756.20000000000005</ele>
        <time>2003-04-20T17:17:43Z</time>
      </trkpt>
      <trkpt lat="37.129672961309552" lon="-2.63898697681725">
        <ele>752.89999999999998</ele>
        <time>2003-04-20T17:17:47Z</time>
      </trkpt>
      <trkpt lat="37.130451975390315" lon="-2.6396319642663">
        <ele>750.29999999999995</ele>
        <time>2003-04-20T17:17:50Z</time>
      </trkpt>
      <trkpt lat="37.13125797919929" lon="-2.640228001400828">
        <ele>749.29999999999995</ele>
        <time>2003-04-20T17:17:52Z</time>
      </trkpt>
      <trkpt lat="37.132064988836646" lon="-2.640797970816493">
        <ele>750.10000000000002</ele>
        <time>2003-04-20T17:17:55Z</time>
      </trkpt>
      <trkpt lat="37.132858000695705" lon="-2.641353020444512">
        <ele>752.5</ele>
        <time>2003-04-20T17:17:59Z</time>
      </trkpt>
      <trkpt lat="37.133857039734721" lon="-2.642091969028115">
        <ele>756.60000000000002</ele>
        <time>2003-04-20T17:18:03Z</time>
      </trkpt>
      <trkpt lat="37.134736971929669" lon="-2.642942983657122">
        <ele>760.10000000000002</ele>
        <time>2003-04-20T17:18:07Z</time>
      </trkpt>
      <trkpt lat="37.135474998503923" lon="-2.643951997160912">
        <ele>763.60000000000002</ele>
        <time>2003-04-20T17:18:10Z</time>
      </trkpt>
      <trkpt lat="37.136049997061491" lon="-2.645081961527467">
        <ele>766.60000000000002</ele>
        <time>2003-04-20T17:18:14Z</time>
      </trkpt>
      <trkpt lat="37.136461967602372" lon="-2.646294990554452">
        <ele>770</ele>
        <time>2003-04-20T17:18:18Z</time>
      </trkpt>
      <trkpt lat="37.136709988117218" lon="-2.647559987381101">
        <ele>774</ele>
        <time>2003-04-20T17:18:22Z</time>
      </trkpt>
      <trkpt lat="37.136790035292506" lon="-2.648866977542639">
        <ele>778.20000000000005</ele>
        <time>2003-04-20T17:18:26Z</time>
      </trkpt>
      <trkpt lat="37.13669297285378" lon="-2.650192994624376">
        <ele>781.60000000000002</ele>
        <time>2003-04-20T17:18:30Z</time>
      </trkpt>
      <trkpt lat="37.136503038927913" lon="-2.651179963722825">
        <ele>783.89999999999998</ele>
        <time>2003-04-20T17:18:34Z</time>
      </trkpt>
      <trkpt lat="37.136086961254478" lon="-2.652470022439957">
        <ele>786</ele>
        <time>2003-04-20T17:18:37Z</time>
      </trkpt>
      <trkpt lat="37.135637020692229" lon="-2.653790004551411">
        <ele>786.5</ele>
        <time>2003-04-20T17:18:41Z</time>
      </trkpt>
      <trkpt lat="37.135367961600423" lon="-2.655188022181392">
        <ele>786.29999999999995</ele>
        <time>2003-04-20T17:18:45Z</time>
      </trkpt>
      <trkpt lat="37.135308030992746" lon="-2.656272975727916">
        <ele>785.70000000000005</ele>
        <time>2003-04-20T17:18:49Z</time>
      </trkpt>
      <trkpt lat="37.135416995733976" lon="-2.657735031098127">
        <ele>783.70000000000005</ele>
        <time>2003-04-20T17:18:53Z</time>
      </trkpt>
      <trkpt lat="37.135650012642145" lon="-2.65881696715951">
        <ele>780.89999999999998</ele>
        <time>2003-04-20T17:18:56Z</time>
      </trkpt>
      <trkpt lat="37.136010015383363" lon="-2.659866968169808">
        <ele>777.39999999999998</ele>
        <time>2003-04-20T17:18:59Z</time>
      </trkpt>
      <trkpt lat="37.136497003957629" lon="-2.660870030522347">
        <ele>773.20000000000005</ele>
        <time>2003-04-20T17:19:01Z</time>
      </trkpt>
      <trkpt lat="37.137045012786984" lon="-2.661836966872215">
        <ele>769.29999999999995</ele>
        <time>2003-04-20T17:19:04Z</time>
      </trkpt>
      <trkpt lat="37.137559996917844" lon="-2.662847992032766">
        <ele>765</ele>
        <time>2003-04-20T17:19:08Z</time>
      </trkpt>
      <trkpt lat="37.137993006035686" lon="-2.663945015519857">
        <ele>761.10000000000002</ele>
        <time>2003-04-20T17:19:11Z</time>
      </trkpt>
      <trkpt lat="37.138319984078407" lon="-2.665106998756528">
        <ele>758.5</ele>
        <time>2003-04-20T17:19:15Z</time>
      </trkpt>
      <trkpt lat="37.138546966016293" lon="-2.666299995034933">
        <ele>757.20000000000005</ele>
        <time>2003-04-20T17:19:17Z</time>
      </trkpt>
      <trkpt lat="37.13866800069809" lon="-2.66751796938479">
        <ele>756.29999999999995</ele>
        <time>2003-04-20T17:19:20Z</time>
      </trkpt>
      <trkpt lat="37.13868803344667" lon="-2.668744996190071">
        <ele>755.70000000000005</ele>
        <time>2003-04-20T17:19:23Z</time>
      </trkpt>
      <trkpt lat="37.138652997091413" lon="-2.669972022995353">
        <ele>754.70000000000005</ele>
        <time>2003-04-20T17:19:26Z</time>
      </trkpt>
      <trkpt lat="37.138622989878058" lon="-2.671197960153222">
        <ele>753.89999999999998</ele>
        <time>2003-04-20T17:19:28Z</time>
      </trkpt>
      <trkpt lat="37.138592982664704" lon="-2.672426998615265">
        <ele>753</ele>
        <time>2003-04-20T17:19:31Z</time>
      </trkpt>
      <trkpt lat="37.13856297545135" lon="-2.673653019592166">
        <ele>752.20000000000005</ele>
        <time>2003-04-20T17:19:35Z</time>
      </trkpt>
      <trkpt lat="37.138532968237996" lon="-2.674879962578416">
        <ele>751.39999999999998</ele>
        <time>2003-04-20T17:19:38Z</time>
      </trkpt>
      <trkpt lat="37.138502961024642" lon="-2.676107995212078">
        <ele>750.5</ele>
        <time>2003-04-20T17:19:40Z</time>
      </trkpt>
      <trkpt lat="37.138472031801939" lon="-2.677337033674121">
        <ele>749.70000000000005</ele>
        <time>2003-04-20T17:19:43Z</time>
      </trkpt>
      <trkpt lat="37.138438001275063" lon="-2.67856297083199">
        <ele>749.10000000000002</ele>
        <time>2003-04-20T17:19:47Z</time>
      </trkpt>
      <trkpt lat="37.138407994061708" lon="-2.679789997637272">
        <ele>748.29999999999995</ele>
        <time>2003-04-20T17:19:50Z</time>
      </trkpt>
      <trkpt lat="37.138373041525483" lon="-2.681021969765425">
        <ele>747.70000000000005</ele>
        <time>2003-04-20T17:19:53Z</time>
      </trkpt>
      <trkpt lat="37.138340016826987" lon="-2.682256959378719">
        <ele>747.10000000000002</ele>
        <time>2003-04-20T17:19:55Z</time>
      </trkpt>
      <trkpt lat="37.138317972421646" lon="-2.683494966477156">
        <ele>746.39999999999998</ele>
        <time>2003-04-20T17:19:59Z</time>
      </trkpt>
      <trkpt lat="37.138283019885421" lon="-2.684731967747212">
        <ele>745.29999999999995</ele>
        <time>2003-04-20T17:20:02Z</time>
      </trkpt>
      <trkpt lat="37.138244966045022" lon="-2.685969974845648">
        <ele>744.20000000000005</ele>
        <time>2003-04-20T17:20:06Z</time>
      </trkpt>
      <trkpt lat="37.138223005458713" lon="-2.687203036621213">
        <ele>743.5</ele>
        <time>2003-04-20T17:20:09Z</time>
      </trkpt>
      <trkpt lat="37.138197021558881" lon="-2.688432997092605">
        <ele>742.70000000000005</ele>
        <time>2003-04-20T17:20:11Z</time>
      </trkpt>
      <trkpt lat="37.138208001852036" lon="-2.689657006412745">
        <ele>742.10000000000002</ele>
        <time>2003-04-20T17:20:14Z</time>
      </trkpt>
      <trkpt lat="37.138291988521814" lon="-2.690862994641066">
        <ele>741.89999999999998</ele>
        <time>2003-04-20T17:20:18Z</time>
      </trkpt>
      <trkpt lat="37.138451999053359" lon="-2.692052973434329">
        <ele>740.39999999999998</ele>
        <time>2003-04-20T17:20:21Z</time>
      </trkpt>
      <trkpt lat="37.138661965727806" lon="-2.693228032439947">
        <ele>739.20000000000005</ele>
        <time>2003-04-20T17:20:24Z</time>
      </trkpt>
      <trkpt lat="37.138881990686059" lon="-2.694402001798153">
        <ele>738.79999999999995</ele>
        <time>2003-04-20T17:20:26Z</time>
      </trkpt>
      <trkpt lat="37.139106960967183" lon="-2.695574965327978">
        <ele>738.20000000000005</ele>
        <time>2003-04-20T17:20:29Z</time>
      </trkpt>
      <trkpt lat="37.139326985925436" lon="-2.696752035990357">
        <ele>737.29999999999995</ele>
        <time>2003-04-20T17:20:33Z</time>
      </trkpt>
      <trkpt lat="37.139557991176844" lon="-2.697924999520183">
        <ele>736.5</ele>
        <time>2003-04-20T17:20:36Z</time>
      </trkpt>
      <trkpt lat="37.139782039448619" lon="-2.699102992191911">
        <ele>735.39999999999998</ele>
        <time>2003-04-20T17:20:38Z</time>
      </trkpt>
      <trkpt lat="37.140012038871646" lon="-2.70028199069202">
        <ele>734.60000000000002</ele>
        <time>2003-04-20T17:20:41Z</time>
      </trkpt>
      <trkpt lat="37.140232985839248" lon="-2.701467024162412">
        <ele>733.60000000000002</ele>
        <time>2003-04-20T17:20:45Z</time>
      </trkpt>
      <trkpt lat="37.140461979433894" lon="-2.702652979642153">
        <ele>732.89999999999998</ele>
        <time>2003-04-20T17:20:48Z</time>
      </trkpt>
      <trkpt lat="37.140691978856921" lon="-2.703842036426067">
        <ele>731.89999999999998</ele>
        <time>2003-04-20T17:20:51Z</time>
      </trkpt>
      <trkpt lat="37.140922984108329" lon="-2.70503000356257">
        <ele>730.89999999999998</ele>
        <time>2003-04-20T17:20:53Z</time>
      </trkpt>
      <trkpt lat="37.141136974096298" lon="-2.706222999840975">
        <ele>730.10000000000002</ele>
        <time>2003-04-20T17:20:56Z</time>
      </trkpt>
      <trkpt lat="37.141337972134352" lon="-2.707422031089664">
        <ele>729.39999999999998</ele>
        <time>2003-04-20T17:21:00Z</time>
      </trkpt>
      <trkpt lat="37.141493037343025" lon="-2.708632964640856">
        <ele>728.60000000000002</ele>
        <time>2003-04-20T17:21:03Z</time>
      </trkpt>
      <trkpt lat="37.141594961285591" lon="-2.709859991446137">
        <ele>727.79999999999995</ele>
        <time>2003-04-20T17:21:05Z</time>
      </trkpt>
      <trkpt lat="37.141637038439512" lon="-2.711094981059432">
        <ele>727.10000000000002</ele>
        <time>2003-04-20T17:21:08Z</time>
      </trkpt>
      <trkpt lat="37.14163301512599" lon="-2.712329970672727">
        <ele>727</ele>
        <time>2003-04-20T17:21:12Z</time>
      </trkpt>
      <trkpt lat="37.141571994870901" lon="-2.713556997478008">
        <ele>727.60000000000002</ele>
        <time>2003-04-20T17:21:15Z</time>
      </trkpt>
      <trkpt lat="37.141462024301291" lon="-2.714768014848232">
        <ele>728.5</ele>
        <time>2003-04-20T17:21:18Z</time>
      </trkpt>
      <trkpt lat="37.141296984627843" lon="-2.715960005298257">
        <ele>729.39999999999998</ele>
        <time>2003-04-20T17:21:20Z</time>
      </trkpt>
      <trkpt lat="37.141081988811493" lon="-2.717131962999702">
        <ele>730.20000000000005</ele>
        <time>2003-04-20T17:21:23Z</time>
      </trkpt>
      <trkpt lat="37.140822988003492" lon="-2.718282965943217">
        <ele>731.20000000000005</ele>
        <time>2003-04-20T17:21:27Z</time>
      </trkpt>
      <trkpt lat="37.140528028830886" lon="-2.719413014128804">
        <ele>732.10000000000002</ele>
        <time>2003-04-20T17:21:30Z</time>
      </trkpt>
      <trkpt lat="37.140165008604527" lon="-2.720505008473992">
        <ele>733.39999999999998</ele>
        <time>2003-04-20T17:21:32Z</time>
      </trkpt>
      <trkpt lat="37.139768041670322" lon="-2.721576970070601">
        <ele>734.29999999999995</ele>
        <time>2003-04-20T17:21:35Z</time>
      </trkpt>
      <trkpt lat="37.139330003410578" lon="-2.722616996616125">
        <ele>735.20000000000005</ele>
        <time>2003-04-20T17:21:39Z</time>
      </trkpt>
      <trkpt lat="37.138876961544156" lon="-2.723642019554973">
        <ele>736.10000000000002</ele>
        <time>2003-04-20T17:21:42Z</time>
      </trkpt>
      <trkpt lat="37.138431966304779" lon="-2.724677016958594">
        <ele>736.79999999999995</ele>
        <time>2003-04-20T17:21:45Z</time>
      </trkpt>
      <trkpt lat="37.137972973287106" lon="-2.725710002705455">
        <ele>737.70000000000005</ele>
        <time>2003-04-20T17:21:47Z</time>
      </trkpt>
      <trkpt lat="37.137512974441051" lon="-2.726739970967174">
        <ele>738.70000000000005</ele>
        <time>2003-04-20T17:21:50Z</time>
      </trkpt>
      <trkpt lat="37.13705699890852" lon="-2.727772034704685">
        <ele>739.70000000000005</ele>
        <time>2003-04-20T17:21:54Z</time>
      </trkpt>
      <trkpt lat="37.136621978133917" lon="-2.728822035714984">
        <ele>740.70000000000005</ele>
        <time>2003-04-20T17:21:57Z</time>
      </trkpt>
      <trkpt lat="37.136274967342615" lon="-2.729925010353327">
        <ele>741.39999999999998</ele>
        <time>2003-04-20T17:21:59Z</time>
      </trkpt>
      <trkpt lat="37.136077992618084" lon="-2.731081964448094">
        <ele>742.29999999999995</ele>
        <time>2003-04-20T17:22:02Z</time>
      </trkpt>
      <trkpt lat="37.136016972362995" lon="-2.732257023453713">
        <ele>743.20000000000005</ele>
        <time>2003-04-20T17:22:06Z</time>
      </trkpt>
      <trkpt lat="37.136101964861155" lon="-2.733426969498396">
        <ele>743.89999999999998</ele>
        <time>2003-04-20T17:22:09Z</time>
      </trkpt>
      <trkpt lat="37.136340010911226" lon="-2.734561963006854">
        <ele>744.29999999999995</ele>
        <time>2003-04-20T17:22:12Z</time>
      </trkpt>
      <trkpt lat="37.13669003918767" lon="-2.735644988715649">
        <ele>744.70000000000005</ele>
        <time>2003-04-20T17:22:14Z</time>
      </trkpt>
      <trkpt lat="37.13709999807179" lon="-2.736685015261173">
        <ele>745.89999999999998</ele>
        <time>2003-04-20T17:22:17Z</time>
      </trkpt>
      <trkpt lat="37.137429993599653" lon="-2.73775496520102">
        <ele>747.10000000000002</ele>
        <time>2003-04-20T17:22:21Z</time>
      </trkpt>
      <trkpt lat="37.13763702660799" lon="-2.738866992294788">
        <ele>748.39999999999998</ele>
        <time>2003-04-20T17:22:24Z</time>
      </trkpt>
      <trkpt lat="37.137784967198968" lon="-2.739986982196569">
        <ele>750</ele>
        <time>2003-04-20T17:22:26Z</time>
      </trkpt>
      <trkpt lat="37.13813197799027" lon="-2.741417018696666">
        <ele>752.89999999999998</ele>
        <time>2003-04-20T17:22:30Z</time>
      </trkpt>
      <trkpt lat="37.138527017086744" lon="-2.742407005280256">
        <ele>755.10000000000002</ele>
        <time>2003-04-20T17:22:33Z</time>
      </trkpt>
      <trkpt lat="37.139217015355825" lon="-2.743582986295223">
        <ele>756.5</ele>
        <time>2003-04-20T17:22:37Z</time>
      </trkpt>
      <trkpt lat="37.139841970056295" lon="-2.744356971234083">
        <ele>757.10000000000002</ele>
        <time>2003-04-20T17:22:40Z</time>
      </trkpt>
      <trkpt lat="37.140557030215859" lon="-2.745004976168275">
        <ele>757.60000000000002</ele>
        <time>2003-04-20T17:22:44Z</time>
      </trkpt>
      <trkpt lat="37.141557997092605" lon="-2.745792958885431">
        <ele>758.89999999999998</ele>
        <time>2003-04-20T17:22:48Z</time>
      </trkpt>
      <trkpt lat="37.142491992563009" lon="-2.746714968234301">
        <ele>759.70000000000005</ele>
        <time>2003-04-20T17:22:52Z</time>
      </trkpt>
      <trkpt lat="37.143083000555634" lon="-2.747557014226914">
        <ele>760</ele>
        <time>2003-04-20T17:22:55Z</time>
      </trkpt>
      <trkpt lat="37.143733017146587" lon="-2.748816981911659">
        <ele>761</ele>
        <time>2003-04-20T17:22:59Z</time>
      </trkpt>
      <trkpt lat="37.14436300098896" lon="-2.75008499622345">
        <ele>763.10000000000002</ele>
        <time>2003-04-20T17:23:03Z</time>
      </trkpt>
      <trkpt lat="37.145149977877736" lon="-2.751165004447103">
        <ele>767</ele>
        <time>2003-04-20T17:23:07Z</time>
      </trkpt>
      <trkpt lat="37.146062012761831" lon="-2.752022976055741">
        <ele>771.20000000000005</ele>
        <time>2003-04-20T17:23:11Z</time>
      </trkpt>
      <trkpt lat="37.147061973810196" lon="-2.75264197960496">
        <ele>775.29999999999995</ele>
        <time>2003-04-20T17:23:15Z</time>
      </trkpt>
      <trkpt lat="37.148099988698959" lon="-2.753083035349846">
        <ele>779.60000000000002</ele>
        <time>2003-04-20T17:23:19Z</time>
      </trkpt>
      <trkpt lat="37.149087963625789" lon="-2.753612017259002">
        <ele>783.79999999999995</ele>
        <time>2003-04-20T17:23:23Z</time>
      </trkpt>
      <trkpt lat="37.149988012388349" lon="-2.754320036619902">
        <ele>788</ele>
        <time>2003-04-20T17:23:27Z</time>
      </trkpt>
      <trkpt lat="37.150774989277124" lon="-2.755184965208173">
        <ele>791.70000000000005</ele>
        <time>2003-04-20T17:23:31Z</time>
      </trkpt>
      <trkpt lat="37.151276981458068" lon="-2.755932966247201">
        <ele>794.39999999999998</ele>
        <time>2003-04-20T17:23:34Z</time>
      </trkpt>
      <trkpt lat="37.151843011379242" lon="-2.757010040804744">
        <ele>798.20000000000005</ele>
        <time>2003-04-20T17:23:38Z</time>
      </trkpt>
      <trkpt lat="37.152257999405265" lon="-2.758200019598007">
        <ele>801.60000000000002</ele>
        <time>2003-04-20T17:23:42Z</time>
      </trkpt>
      <trkpt lat="37.15252798050642" lon="-2.759483037516475">
        <ele>804.89999999999998</ele>
        <time>2003-04-20T17:23:46Z</time>
      </trkpt>
      <trkpt lat="37.152631999924779" lon="-2.760826991870999">
        <ele>808.20000000000005</ele>
        <time>2003-04-20T17:23:50Z</time>
      </trkpt>
      <trkpt lat="37.152562011033297" lon="-2.7622049767524">
        <ele>810.79999999999995</ele>
        <time>2003-04-20T17:23:54Z</time>
      </trkpt>
      <trkpt lat="37.15237501077354" lon="-2.763241985812783">
        <ele>812.10000000000002</ele>
        <time>2003-04-20T17:23:57Z</time>
      </trkpt>
      <trkpt lat="37.151949964463711" lon="-2.764594992622733">
        <ele>813.29999999999995</ele>
        <time>2003-04-20T17:24:01Z</time>
      </trkpt>
      <trkpt lat="37.151504969224334" lon="-2.765563018620014">
        <ele>814.60000000000002</ele>
        <time>2003-04-20T17:24:04Z</time>
      </trkpt>
      <trkpt lat="37.150952015072107" lon="-2.766447979956865">
        <ele>815.39999999999998</ele>
        <time>2003-04-20T17:24:06Z</time>
      </trkpt>
      <trkpt lat="37.150307027623057" lon="-2.767233029007912">
        <ele>816.39999999999998</ele>
        <time>2003-04-20T17:24:09Z</time>
      </trkpt>
      <trkpt lat="37.149579981341958" lon="-2.767902994528413">
        <ele>817.20000000000005</ele>
        <time>2003-04-20T17:24:13Z</time>
      </trkpt>
      <trkpt lat="37.148629976436496" lon="-2.768730036914349">
        <ele>817.89999999999998</ele>
        <time>2003-04-20T17:24:17Z</time>
      </trkpt>
      <trkpt lat="37.147787008434534" lon="-2.769712982699275">
        <ele>818.79999999999995</ele>
        <time>2003-04-20T17:24:21Z</time>
      </trkpt>
      <trkpt lat="37.147260038182139" lon="-2.770574977621436">
        <ele>819.70000000000005</ele>
        <time>2003-04-20T17:24:24Z</time>
      </trkpt>
      <trkpt lat="37.146710017696023" lon="-2.771842991933227">
        <ele>820.5</ele>
        <time>2003-04-20T17:24:28Z</time>
      </trkpt>
      <trkpt lat="37.146516982465982" lon="-2.772525027394295">
        <ele>821.60000000000002</ele>
        <time>2003-04-20T17:24:29Z</time>
      </trkpt>
      <trkpt lat="37.146265022456646" lon="-2.77393301948905">
        <ele>823.20000000000005</ele>
        <time>2003-04-20T17:24:33Z</time>
      </trkpt>
      <trkpt lat="37.146190004423261" lon="-2.775358026847243">
        <ele>826.39999999999998</ele>
        <time>2003-04-20T17:24:37Z</time>
      </trkpt>
      <trkpt lat="37.14612202718854" lon="-2.776759983971715">
        <ele>829.60000000000002</ele>
        <time>2003-04-20T17:24:41Z</time>
      </trkpt>
      <trkpt lat="37.146052038297057" lon="-2.77814500965178">
        <ele>832.5</ele>
        <time>2003-04-20T17:24:45Z</time>
      </trkpt>
      <trkpt lat="37.145963022485375" lon="-2.779872016981244">
        <ele>834.70000000000005</ele>
        <time>2003-04-20T17:24:51Z</time>
      </trkpt>
      <trkpt lat="37.145878029987216" lon="-2.781615033745766">
        <ele>835.60000000000002</ele>
        <time>2003-04-20T17:24:55Z</time>
      </trkpt>
      <trkpt lat="37.145837964490056" lon="-2.783029982820153">
        <ele>835.89999999999998</ele>
        <time>2003-04-20T17:24:59Z</time>
      </trkpt>
      <trkpt lat="37.145975008606911" lon="-2.784817004576325">
        <ele>836.60000000000002</ele>
        <time>2003-04-20T17:25:04Z</time>
      </trkpt>
      <trkpt lat="37.146253036335111" lon="-2.786590028554201">
        <ele>838</ele>
        <time>2003-04-20T17:25:10Z</time>
      </trkpt>
      <trkpt lat="37.146465014666319" lon="-2.78800698928535">
        <ele>840.29999999999995</ele>
        <time>2003-04-20T17:25:14Z</time>
      </trkpt>
      <trkpt lat="37.146685039624572" lon="-2.789411963894963">
        <ele>843</ele>
        <time>2003-04-20T17:25:18Z</time>
      </trkpt>
      <trkpt lat="37.146902969107032" lon="-2.790807969868183">
        <ele>846</ele>
        <time>2003-04-20T17:25:22Z</time>
      </trkpt>
      <trkpt lat="37.147110002115369" lon="-2.79219500720501">
        <ele>848.70000000000005</ele>
        <time>2003-04-20T17:25:26Z</time>
      </trkpt>
      <trkpt lat="37.147322986274958" lon="-2.793565029278398">
        <ele>851.39999999999998</ele>
        <time>2003-04-20T17:25:30Z</time>
      </trkpt>
      <trkpt lat="37.147528007626534" lon="-2.794919963926077">
        <ele>854.20000000000005</ele>
        <time>2003-04-20T17:25:34Z</time>
      </trkpt>
      <trkpt lat="37.147737974300981" lon="-2.796262996271253">
        <ele>856.79999999999995</ele>
        <time>2003-04-20T17:25:38Z</time>
      </trkpt>
      <trkpt lat="37.147947018966079" lon="-2.797633018344641">
        <ele>859.5</ele>
        <time>2003-04-20T17:25:42Z</time>
      </trkpt>
      <trkpt lat="37.14816503226757" lon="-2.799025001004338">
        <ele>862</ele>
        <time>2003-04-20T17:25:46Z</time>
      </trkpt>
      <trkpt lat="37.148382961750031" lon="-2.800440033897758">
        <ele>864.79999999999995</ele>
        <time>2003-04-20T17:25:49Z</time>
      </trkpt>
      <trkpt lat="37.148656966164708" lon="-2.801856994628906">
        <ele>867.29999999999995</ele>
        <time>2003-04-20T17:25:53Z</time>
      </trkpt>
      <trkpt lat="37.149053011089563" lon="-2.803253000602126">
        <ele>870.29999999999995</ele>
        <time>2003-04-20T17:25:57Z</time>
      </trkpt>
      <trkpt lat="37.149552991613746" lon="-2.80461497604847">
        <ele>873.5</ele>
        <time>2003-04-20T17:26:01Z</time>
      </trkpt>
      <trkpt lat="37.149933027103543" lon="-2.80564502812922">
        <ele>875.79999999999995</ele>
        <time>2003-04-20T17:26:05Z</time>
      </trkpt>
      <trkpt lat="37.150297975167632" lon="-2.806686982512474">
        <ele>877.79999999999995</ele>
        <time>2003-04-20T17:26:08Z</time>
      </trkpt>
      <trkpt lat="37.150656972080469" lon="-2.807737989351153">
        <ele>880</ele>
        <time>2003-04-20T17:26:11Z</time>
      </trkpt>
      <trkpt lat="37.150982022285461" lon="-2.808808023110032">
        <ele>882.79999999999995</ele>
        <time>2003-04-20T17:26:13Z</time>
      </trkpt>
      <trkpt lat="37.15130003169179" lon="-2.809877973049879">
        <ele>885.79999999999995</ele>
        <time>2003-04-20T17:26:16Z</time>
      </trkpt>
      <trkpt lat="37.151592979207635" lon="-2.81095496378839">
        <ele>888.89999999999998</ele>
        <time>2003-04-20T17:26:20Z</time>
      </trkpt>
      <trkpt lat="37.151877041906118" lon="-2.812032960355282">
        <ele>892</ele>
        <time>2003-04-20T17:26:23Z</time>
      </trkpt>
      <trkpt lat="37.152133025228977" lon="-2.813117997720838">
        <ele>895</ele>
        <time>2003-04-20T17:26:25Z</time>
      </trkpt>
      <trkpt lat="37.152452962473035" lon="-2.814566977322102">
        <ele>899</ele>
        <time>2003-04-20T17:26:29Z</time>
      </trkpt>
      <trkpt lat="37.152757979929447" lon="-2.816016962751746">
        <ele>903.10000000000002</ele>
        <time>2003-04-20T17:26:33Z</time>
      </trkpt>
      <trkpt lat="37.153059979900718" lon="-2.817467032000423">
        <ele>907.20000000000005</ele>
        <time>2003-04-20T17:26:38Z</time>
      </trkpt>
      <trkpt lat="37.153398022055626" lon="-2.818905031308532">
        <ele>911.10000000000002</ele>
        <time>2003-04-20T17:26:42Z</time>
      </trkpt>
      <trkpt lat="37.153755007311702" lon="-2.820340013131499">
        <ele>914.70000000000005</ele>
        <time>2003-04-20T17:26:46Z</time>
      </trkpt>
      <trkpt lat="37.154039992019534" lon="-2.821414992213249">
        <ele>917.20000000000005</ele>
        <time>2003-04-20T17:26:48Z</time>
      </trkpt>
      <trkpt lat="37.154337968677282" lon="-2.822487037628889">
        <ele>919.5</ele>
        <time>2003-04-20T17:26:51Z</time>
      </trkpt>
      <trkpt lat="37.154648015275598" lon="-2.823560005053878">
        <ele>921.89999999999998</ele>
        <time>2003-04-20T17:26:55Z</time>
      </trkpt>
      <trkpt lat="37.154972981661558" lon="-2.824625009670854">
        <ele>924.29999999999995</ele>
        <time>2003-04-20T17:26:58Z</time>
      </trkpt>
      <trkpt lat="37.155308006331325" lon="-2.825690014287829">
        <ele>926.70000000000005</ele>
        <time>2003-04-20T17:27:00Z</time>
      </trkpt>
      <trkpt lat="37.155661974102259" lon="-2.826747978106141">
        <ele>929</ele>
        <time>2003-04-20T17:27:03Z</time>
      </trkpt>
      <trkpt lat="37.156030023470521" lon="-2.827807031571865">
        <ele>931.20000000000005</ele>
        <time>2003-04-20T17:27:07Z</time>
      </trkpt>
      <trkpt lat="37.156405029818416" lon="-2.828864995390177">
        <ele>933.70000000000005</ele>
        <time>2003-04-20T17:27:10Z</time>
      </trkpt>
      <trkpt lat="37.156792022287846" lon="-2.829920025542378">
        <ele>936.10000000000002</ele>
        <time>2003-04-20T17:27:13Z</time>
      </trkpt>
      <trkpt lat="37.157201981171966" lon="-2.830964997410774">
        <ele>938.5</ele>
        <time>2003-04-20T17:27:15Z</time>
      </trkpt>
      <trkpt lat="37.157608000561595" lon="-2.832011980935931">
        <ele>940.89999999999998</ele>
        <time>2003-04-20T17:27:18Z</time>
      </trkpt>
      <trkpt lat="37.158007984980941" lon="-2.833064999431372">
        <ele>943.20000000000005</ele>
        <time>2003-04-20T17:27:22Z</time>
      </trkpt>
      <trkpt lat="37.158403024077415" lon="-2.834122041240335">
        <ele>945.39999999999998</ele>
        <time>2003-04-20T17:27:25Z</time>
      </trkpt>
      <trkpt lat="37.158760009333491" lon="-2.835195008665323">
        <ele>947.70000000000005</ele>
        <time>2003-04-20T17:27:27Z</time>
      </trkpt>
      <trkpt lat="37.158995037898421" lon="-2.836308041587472">
        <ele>949.10000000000002</ele>
        <time>2003-04-20T17:27:30Z</time>
      </trkpt>
      <trkpt lat="37.159141972661018" lon="-2.837440017610788">
        <ele>950.20000000000005</ele>
        <time>2003-04-20T17:27:34Z</time>
      </trkpt>
      <trkpt lat="37.159282034263015" lon="-2.838571993634105">
        <ele>951</ele>
        <time>2003-04-20T17:27:37Z</time>
      </trkpt>
      <trkpt lat="37.159493006765842" lon="-2.839687038213015">
        <ele>951.79999999999995</ele>
        <time>2003-04-20T17:27:40Z</time>
      </trkpt>
      <trkpt lat="37.159795006737113" lon="-2.840766962617636">
        <ele>952.70000000000005</ele>
        <time>2003-04-20T17:27:42Z</time>
      </trkpt>
      <trkpt lat="37.160192979499698" lon="-2.841797014698386">
        <ele>953.79999999999995</ele>
        <time>2003-04-20T17:27:45Z</time>
      </trkpt>
      <trkpt lat="37.160682985559106" lon="-2.842756994068623">
        <ele>954.79999999999995</ele>
        <time>2003-04-20T17:27:49Z</time>
      </trkpt>
      <trkpt lat="37.161250021308661" lon="-2.843644972890616">
        <ele>955.70000000000005</ele>
        <time>2003-04-20T17:27:52Z</time>
      </trkpt>
      <trkpt lat="37.161891991272569" lon="-2.844442008063197">
        <ele>956.5</ele>
        <time>2003-04-20T17:27:54Z</time>
      </trkpt>
      <trkpt lat="37.162781981751323" lon="-2.845407016575337">
        <ele>958</ele>
        <time>2003-04-20T17:27:59Z</time>
      </trkpt>
      <trkpt lat="37.163632996380329" lon="-2.846387028694153">
        <ele>959</ele>
        <time>2003-04-20T17:28:03Z</time>
      </trkpt>
      <trkpt lat="37.164397006854415" lon="-2.84747801721096">
        <ele>960.20000000000005</ele>
        <time>2003-04-20T17:28:07Z</time>
      </trkpt>
      <trkpt lat="37.165066972374916" lon="-2.848662966862321">
        <ele>961.39999999999998</ele>
        <time>2003-04-20T17:28:11Z</time>
      </trkpt>
      <trkpt lat="37.165617998689413" lon="-2.849941961467266">
        <ele>962.60000000000002</ele>
        <time>2003-04-20T17:28:15Z</time>
      </trkpt>
      <trkpt lat="37.166034998372197" lon="-2.851303014904261">
        <ele>963.5</ele>
        <time>2003-04-20T17:28:19Z</time>
      </trkpt>
      <trkpt lat="37.166331969201565" lon="-2.852719975635409">
        <ele>964.5</ele>
        <time>2003-04-20T17:28:23Z</time>
      </trkpt>
      <trkpt lat="37.166491979733109" lon="-2.854174990206957">
        <ele>965.5</ele>
        <time>2003-04-20T17:28:27Z</time>
      </trkpt>
      <trkpt lat="37.166622988879681" lon="-2.855639979243279">
        <ele>966.39999999999998</ele>
        <time>2003-04-20T17:28:31Z</time>
      </trkpt>
      <trkpt lat="37.166818035766482" lon="-2.856708001345396">
        <ele>967</ele>
        <time>2003-04-20T17:28:34Z</time>
      </trkpt>
      <trkpt lat="37.167124981060624" lon="-2.857724977657199">
        <ele>968</ele>
        <time>2003-04-20T17:28:36Z</time>
      </trkpt>
      <trkpt lat="37.167535023763776" lon="-2.85867003723979">
        <ele>969.60000000000002</ele>
        <time>2003-04-20T17:28:39Z</time>
      </trkpt>
      <trkpt lat="37.168153021484613" lon="-2.859837971627712">
        <ele>973.5</ele>
        <time>2003-04-20T17:28:43Z</time>
      </trkpt>
      <trkpt lat="37.168646967038512" lon="-2.861043037846685">
        <ele>978.10000000000002</ele>
        <time>2003-04-20T17:28:47Z</time>
      </trkpt>
      <trkpt lat="37.1688980050385" lon="-2.86197803914547">
        <ele>982.10000000000002</ele>
        <time>2003-04-20T17:28:51Z</time>
      </trkpt>
      <trkpt lat="37.169082993641496" lon="-2.863238006830216">
        <ele>987.39999999999998</ele>
        <time>2003-04-20T17:28:55Z</time>
      </trkpt>
      <trkpt lat="37.169109983369708" lon="-2.864503003656864">
        <ele>992.79999999999995</ele>
        <time>2003-04-20T17:28:59Z</time>
      </trkpt>
      <trkpt lat="37.169018033891916" lon="-2.865444961935282">
        <ele>996.70000000000005</ele>
        <time>2003-04-20T17:29:02Z</time>
      </trkpt>
      <trkpt lat="37.168783005326986" lon="-2.866681963205338">
        <ele>1001.7</ele>
        <time>2003-04-20T17:29:06Z</time>
      </trkpt>
      <trkpt lat="37.168582007288933" lon="-2.867932040244341">
        <ele>1007</ele>
        <time>2003-04-20T17:29:10Z</time>
      </trkpt>
      <trkpt lat="37.168502965942025" lon="-2.869208017364144">
        <ele>1012.5</ele>
        <time>2003-04-20T17:29:14Z</time>
      </trkpt>
      <trkpt lat="37.168570021167397" lon="-2.870164979249239">
        <ele>1016.6</ele>
        <time>2003-04-20T17:29:18Z</time>
      </trkpt>
      <trkpt lat="37.168809995055199" lon="-2.871410027146339">
        <ele>1021.7</ele>
        <time>2003-04-20T17:29:22Z</time>
      </trkpt>
      <trkpt lat="37.169167986139655" lon="-2.872603023424745">
        <ele>1027.3</ele>
        <time>2003-04-20T17:29:25Z</time>
      </trkpt>
      <trkpt lat="37.169403014704585" lon="-2.873508017510176">
        <ele>1031.5999999999999</ele>
        <time>2003-04-20T17:29:29Z</time>
      </trkpt>
      <trkpt lat="37.169569982215762" lon="-2.874728003516793">
        <ele>1036.4000000000001</ele>
        <time>2003-04-20T17:29:33Z</time>
      </trkpt>
      <trkpt lat="37.169592026621103" lon="-2.875972967594862">
        <ele>1041.0999999999999</ele>
        <time>2003-04-20T17:29:37Z</time>
      </trkpt>
      <trkpt lat="37.169466968625784" lon="-2.87721298635006">
        <ele>1046.0999999999999</ele>
        <time>2003-04-20T17:29:40Z</time>
      </trkpt>
      <trkpt lat="37.169239986687899" lon="-2.87843800149858">
        <ele>1051.2</ele>
        <time>2003-04-20T17:29:45Z</time>
      </trkpt>
      <trkpt lat="37.169018033891916" lon="-2.879669973626733">
        <ele>1056.3</ele>
        <time>2003-04-20T17:29:49Z</time>
      </trkpt>
      <trkpt lat="37.168889958411455" lon="-2.880928013473749">
        <ele>1061.7</ele>
        <time>2003-04-20T17:29:52Z</time>
      </trkpt>
      <trkpt lat="37.168872021138668" lon="-2.882195021957159">
        <ele>1066.9000000000001</ele>
        <time>2003-04-20T17:29:56Z</time>
      </trkpt>
      <trkpt lat="37.168951984494925" lon="-2.883454989641905">
        <ele>1072.4000000000001</ele>
        <time>2003-04-20T17:30:00Z</time>
      </trkpt>
      <trkpt lat="37.169013004750013" lon="-2.884713029488921">
        <ele>1077.7</ele>
        <time>2003-04-20T17:30:04Z</time>
      </trkpt>
      <trkpt lat="37.168977968394756" lon="-2.88597802631557">
        <ele>1082.7</ele>
        <time>2003-04-20T17:30:08Z</time>
      </trkpt>
      <trkpt lat="37.168867997825146" lon="-2.887236988171935">
        <ele>1087.8</ele>
        <time>2003-04-20T17:30:12Z</time>
      </trkpt>
      <trkpt lat="37.168707987293601" lon="-2.888486981391907">
        <ele>1093.2</ele>
        <time>2003-04-20T17:30:16Z</time>
      </trkpt>
      <trkpt lat="37.168431971222162" lon="-2.889703027904034">
        <ele>1098.5999999999999</ele>
        <time>2003-04-20T17:30:20Z</time>
      </trkpt>
      <trkpt lat="37.16808202676475" lon="-2.890892000868917">
        <ele>1104</ele>
        <time>2003-04-20T17:30:24Z</time>
      </trkpt>
      <trkpt lat="37.167701991274953" lon="-2.892069993540645">
        <ele>1108.9000000000001</ele>
        <time>2003-04-20T17:30:28Z</time>
      </trkpt>
      <trkpt lat="37.167397979646921" lon="-2.89328696206212">
        <ele>1113.7</ele>
        <time>2003-04-20T17:30:32Z</time>
      </trkpt>
      <trkpt lat="37.167248027399182" lon="-2.894545001909137">
        <ele>1119.4000000000001</ele>
        <time>2003-04-20T17:30:36Z</time>
      </trkpt>
      <trkpt lat="37.167279962450266" lon="-2.89581703953445">
        <ele>1124.3</ele>
        <time>2003-04-20T17:30:41Z</time>
      </trkpt>
      <trkpt lat="37.167422035709023" lon="-2.897095028311014">
        <ele>1127.5</ele>
        <time>2003-04-20T17:30:45Z</time>
      </trkpt>
      <trkpt lat="37.16756503097713" lon="-2.898406963795424">
        <ele>1130.2</ele>
        <time>2003-04-20T17:30:49Z</time>
      </trkpt>
      <trkpt lat="37.167722024023533" lon="-2.899747984483838">
        <ele>1132.7</ele>
        <time>2003-04-20T17:30:53Z</time>
      </trkpt>
      <trkpt lat="37.167884968221188" lon="-2.901118006557226">
        <ele>1135.4000000000001</ele>
        <time>2003-04-20T17:30:57Z</time>
      </trkpt>
      <trkpt lat="37.168142041191459" lon="-2.902490040287376">
        <ele>1138</ele>
        <time>2003-04-20T17:31:01Z</time>
      </trkpt>
      <trkpt lat="37.168461978435516" lon="-2.903835000470281">
        <ele>1139.8</ele>
        <time>2003-04-20T17:31:05Z</time>
      </trkpt>
      <trkpt lat="37.168761966750026" lon="-2.905179960653186">
        <ele>1140.5999999999999</ele>
        <time>2003-04-20T17:31:09Z</time>
      </trkpt>
      <trkpt lat="37.168998001143336" lon="-2.906557023525238">
        <ele>1139.9000000000001</ele>
        <time>2003-04-20T17:31:13Z</time>
      </trkpt>
      <trkpt lat="37.169073019176722" lon="-2.907622028142214">
        <ele>1139.4000000000001</ele>
        <time>2003-04-20T17:31:16Z</time>
      </trkpt>
      <trkpt lat="37.169033037498593" lon="-2.909062961116433">
        <ele>1138.4000000000001</ele>
        <time>2003-04-20T17:31:20Z</time>
      </trkpt>
      <trkpt lat="37.168862968683243" lon="-2.910495009273291">
        <ele>1138.7</ele>
        <time>2003-04-20T17:31:24Z</time>
      </trkpt>
      <trkpt lat="37.168631963431835" lon="-2.911895038560033">
        <ele>1140.5999999999999</ele>
        <time>2003-04-20T17:31:28Z</time>
      </trkpt>
      <trkpt lat="37.168401964008808" lon="-2.91326698847115">
        <ele>1143.9000000000001</ele>
        <time>2003-04-20T17:31:32Z</time>
      </trkpt>
      <trkpt lat="37.168174982070923" lon="-2.914604991674423">
        <ele>1147.4000000000001</ele>
        <time>2003-04-20T17:31:36Z</time>
      </trkpt>
      <trkpt lat="37.167965015396476" lon="-2.915922040119767">
        <ele>1150.8</ele>
        <time>2003-04-20T17:31:40Z</time>
      </trkpt>
      <trkpt lat="37.167897960171103" lon="-2.916914960369468">
        <ele>1153</ele>
        <time>2003-04-20T17:31:43Z</time>
      </trkpt>
      <trkpt lat="37.167950011789799" lon="-2.917897989973426">
        <ele>1155.5999999999999</ele>
        <time>2003-04-20T17:31:45Z</time>
      </trkpt>
      <trkpt lat="37.168176993727684" lon="-2.91917497292161">
        <ele>1158.3</ele>
        <time>2003-04-20T17:31:49Z</time>
      </trkpt>
      <trkpt lat="37.168477987870574" lon="-2.920111985877156">
        <ele>1159.5999999999999</ele>
        <time>2003-04-20T17:31:52Z</time>
      </trkpt>
      <trkpt lat="37.168887024745345" lon="-2.921014968305826">
        <ele>1160.0999999999999</ele>
        <time>2003-04-20T17:31:56Z</time>
      </trkpt>
      <trkpt lat="37.169602001085877" lon="-2.922134958207607">
        <ele>1160.0999999999999</ele>
        <time>2003-04-20T17:32:00Z</time>
      </trkpt>
      <trkpt lat="37.170362994074821" lon="-2.923271963372827">
        <ele>1159</ele>
        <time>2003-04-20T17:32:04Z</time>
      </trkpt>
      <trkpt lat="37.170958025380969" lon="-2.924162959679961">
        <ele>1158.0999999999999</ele>
        <time>2003-04-20T17:32:07Z</time>
      </trkpt>
      <trkpt lat="37.17156495898962" lon="-2.925078012049198">
        <ele>1157.2</ele>
        <time>2003-04-20T17:32:10Z</time>
      </trkpt>
      <trkpt lat="37.172184968367219" lon="-2.926015025004745">
        <ele>1156.2</ele>
        <time>2003-04-20T17:32:12Z</time>
      </trkpt>
      <trkpt lat="37.172816963866353" lon="-2.926960000768304">
        <ele>1155.2</ele>
        <time>2003-04-20T17:32:15Z</time>
      </trkpt>
      <trkpt lat="37.173445019870996" lon="-2.927910005673766">
        <ele>1154.2</ele>
        <time>2003-04-20T17:32:19Z</time>
      </trkpt>
      <trkpt lat="37.173996968194842" lon="-2.92886202223599">
        <ele>1153.4000000000001</ele>
        <time>2003-04-20T17:32:22Z</time>
      </trkpt>
      <trkpt lat="37.174412962049246" lon="-2.929885033518076">
        <ele>1152.4000000000001</ele>
        <time>2003-04-20T17:32:24Z</time>
      </trkpt>
      <trkpt lat="37.174597028642893" lon="-2.930615013465285">
        <ele>1151.8</ele>
        <time>2003-04-20T17:32:27Z</time>
      </trkpt>
      <trkpt lat="37.174732983112335" lon="-2.931744977831841">
        <ele>1150.5999999999999</ele>
        <time>2003-04-20T17:32:30Z</time>
      </trkpt>
      <trkpt lat="37.174706999212503" lon="-2.932896986603737">
        <ele>1149.5999999999999</ele>
        <time>2003-04-20T17:32:33Z</time>
      </trkpt>
      <trkpt lat="37.174710016697645" lon="-2.934370022267103">
        <ele>1148.3</ele>
        <time>2003-04-20T17:32:37Z</time>
      </trkpt>
      <trkpt lat="37.17480699531734" lon="-2.935058008879423">
        <ele>1148.5</ele>
        <time>2003-04-20T17:32:38Z</time>
      </trkpt>
      <trkpt lat="37.17508502304554" lon="-2.936056964099407">
        <ele>1149.2</ele>
        <time>2003-04-20T17:32:42Z</time>
      </trkpt>
      <trkpt lat="37.175361961126328" lon="-2.936673033982515">
        <ele>1149.7</ele>
        <time>2003-04-20T17:32:43Z</time>
      </trkpt>
      <trkpt lat="37.175890021026134" lon="-2.937503010034561">
        <ele>1149.9000000000001</ele>
        <time>2003-04-20T17:32:46Z</time>
      </trkpt>
      <trkpt lat="37.176314983516932" lon="-2.937982035800815">
        <ele>1149.4000000000001</ele>
        <time>2003-04-20T17:32:49Z</time>
      </trkpt>
      <trkpt lat="37.17704001814127" lon="-2.938564997166395">
        <ele>1147.8</ele>
        <time>2003-04-20T17:32:51Z</time>
      </trkpt>
      <trkpt lat="37.178105022758245" lon="-2.939127003774047">
        <ele>1146</ele>
        <time>2003-04-20T17:32:56Z</time>
      </trkpt>
      <trkpt lat="37.179267005994916" lon="-2.939449958503246">
        <ele>1144.2</ele>
        <time>2003-04-20T17:33:00Z</time>
      </trkpt>
      <trkpt lat="37.180426977574825" lon="-2.939775008708239">
        <ele>1144.2</ele>
        <time>2003-04-20T17:33:04Z</time>
      </trkpt>
      <trkpt lat="37.181545039638877" lon="-2.940180022269487">
        <ele>1146.3</ele>
        <time>2003-04-20T17:33:08Z</time>
      </trkpt>
      <trkpt lat="37.182312989607453" lon="-2.940653013065457">
        <ele>1148.9000000000001</ele>
        <time>2003-04-20T17:33:10Z</time>
      </trkpt>
      <trkpt lat="37.182978009805083" lon="-2.941292971372604">
        <ele>1152</ele>
        <time>2003-04-20T17:33:13Z</time>
      </trkpt>
      <trkpt lat="37.183717964217067" lon="-2.942297039553523">
        <ele>1155.5</ele>
        <time>2003-04-20T17:33:17Z</time>
      </trkpt>
      <trkpt lat="37.183990040794015" lon="-2.942883018404245">
        <ele>1157.9000000000001</ele>
        <time>2003-04-20T17:33:20Z</time>
      </trkpt>
      <trkpt lat="37.184292040765285" lon="-2.94381701387465">
        <ele>1160.7</ele>
        <time>2003-04-20T17:33:23Z</time>
      </trkpt>
      <trkpt lat="37.184577025473118" lon="-2.945112017914653">
        <ele>1162.7</ele>
        <time>2003-04-20T17:33:27Z</time>
      </trkpt>
      <trkpt lat="37.184857986867428" lon="-2.946422025561333">
        <ele>1164.0999999999999</ele>
        <time>2003-04-20T17:33:31Z</time>
      </trkpt>
      <trkpt lat="37.185148000717163" lon="-2.947739996016026">
        <ele>1165.5</ele>
        <time>2003-04-20T17:33:35Z</time>
      </trkpt>
      <trkpt lat="37.185429967939854" lon="-2.949072970077395">
        <ele>1166.9000000000001</ele>
        <time>2003-04-20T17:33:39Z</time>
      </trkpt>
      <trkpt lat="37.185728028416634" lon="-2.950414996594191">
        <ele>1168.2</ele>
        <time>2003-04-20T17:33:43Z</time>
      </trkpt>
      <trkpt lat="37.186019970104098" lon="-2.951768003404141">
        <ele>1169.5999999999999</ele>
        <time>2003-04-20T17:33:47Z</time>
      </trkpt>
      <trkpt lat="37.186317024752498" lon="-2.95312000438571">
        <ele>1171.7</ele>
        <time>2003-04-20T17:33:51Z</time>
      </trkpt>
      <trkpt lat="37.186607038602233" lon="-2.954463036730886">
        <ele>1174.5999999999999</ele>
        <time>2003-04-20T17:33:55Z</time>
      </trkpt>
      <trkpt lat="37.186922030523419" lon="-2.955801961943507">
        <ele>1175.9000000000001</ele>
        <time>2003-04-20T17:33:59Z</time>
      </trkpt>
      <trkpt lat="37.187322014942765" lon="-2.957126973196864">
        <ele>1175.7</ele>
        <time>2003-04-20T17:34:03Z</time>
      </trkpt>
      <trkpt lat="37.187806991860271" lon="-2.958433041349053">
        <ele>1173.9000000000001</ele>
        <time>2003-04-20T17:34:07Z</time>
      </trkpt>
      <trkpt lat="37.188373021781445" lon="-2.959722010418773">
        <ele>1171.8</ele>
        <time>2003-04-20T17:34:11Z</time>
      </trkpt>
      <trkpt lat="37.188920024782419" lon="-2.961032018065453">
        <ele>1169.8</ele>
        <time>2003-04-20T17:34:15Z</time>
      </trkpt>
      <trkpt lat="37.189393015578389" lon="-2.962346971035004">
        <ele>1167.7</ele>
        <time>2003-04-20T17:34:19Z</time>
      </trkpt>
      <trkpt lat="37.189776990562677" lon="-2.963738031685352">
        <ele>1165.5999999999999</ele>
        <time>2003-04-20T17:34:22Z</time>
      </trkpt>
      <trkpt lat="37.190017970278859" lon="-2.964827008545399">
        <ele>1164</ele>
        <time>2003-04-20T17:34:26Z</time>
      </trkpt>
      <trkpt lat="37.190252998843789" lon="-2.965940041467547">
        <ele>1162.4000000000001</ele>
        <time>2003-04-20T17:34:29Z</time>
      </trkpt>
      <trkpt lat="37.190485009923577" lon="-2.967072017490864">
        <ele>1160.5999999999999</ele>
        <time>2003-04-20T17:34:31Z</time>
      </trkpt>
      <trkpt lat="37.190717021003366" lon="-2.968204999342561">
        <ele>1158.9000000000001</ele>
        <time>2003-04-20T17:34:34Z</time>
      </trkpt>
      <trkpt lat="37.190939979627728" lon="-2.969302022829652">
        <ele>1157.3</ele>
        <time>2003-04-20T17:34:38Z</time>
      </trkpt>
      <trkpt lat="37.191227981820703" lon="-2.970722001045942">
        <ele>1155.2</ele>
        <time>2003-04-20T17:34:42Z</time>
      </trkpt>
      <trkpt lat="37.191523024812341" lon="-2.972171986475587">
        <ele>1152.9000000000001</ele>
        <time>2003-04-20T17:34:46Z</time>
      </trkpt>
      <trkpt lat="37.191750006750226" lon="-2.973279990255833">
        <ele>1151.2</ele>
        <time>2003-04-20T17:34:49Z</time>
      </trkpt>
      <trkpt lat="37.191980006173253" lon="-2.974401991814375">
        <ele>1149.7</ele>
        <time>2003-04-20T17:34:52Z</time>
      </trkpt>
      <trkpt lat="37.19221000559628" lon="-2.975532039999962">
        <ele>1148.8</ele>
        <time>2003-04-20T17:34:54Z</time>
      </trkpt>
      <trkpt lat="37.192443022504449" lon="-2.976663010194898">
        <ele>1148.5</ele>
        <time>2003-04-20T17:34:57Z</time>
      </trkpt>
      <trkpt lat="37.192675033584237" lon="-2.977790040895343">
        <ele>1148.7</ele>
        <time>2003-04-20T17:35:01Z</time>
      </trkpt>
      <trkpt lat="37.192903021350503" lon="-2.978911958634853">
        <ele>1149.0999999999999</ele>
        <time>2003-04-20T17:35:04Z</time>
      </trkpt>
      <trkpt lat="37.193127991631627" lon="-2.980028009042144">
        <ele>1149.4000000000001</ele>
        <time>2003-04-20T17:35:06Z</time>
      </trkpt>
      <trkpt lat="37.193352961912751" lon="-2.98113701865077">
        <ele>1149.8</ele>
        <time>2003-04-20T17:35:09Z</time>
      </trkpt>
      <trkpt lat="37.193582961335778" lon="-2.982239993289113">
        <ele>1150.2</ele>
        <time>2003-04-20T17:35:13Z</time>
      </trkpt>
      <trkpt lat="37.193804997950792" lon="-2.983342967927456">
        <ele>1150.4000000000001</ele>
        <time>2003-04-20T17:35:16Z</time>
      </trkpt>
      <trkpt lat="37.194031979888678" lon="-2.984447032213211">
        <ele>1150.8</ele>
        <time>2003-04-20T17:35:19Z</time>
      </trkpt>
      <trkpt lat="37.194258039817214" lon="-2.985550006851554">
        <ele>1151.2</ele>
        <time>2003-04-20T17:35:21Z</time>
      </trkpt>
      <trkpt lat="37.19448703341186" lon="-2.986657004803419">
        <ele>1151.3</ele>
        <time>2003-04-20T17:35:24Z</time>
      </trkpt>
      <trkpt lat="37.194715021178126" lon="-2.987771965563297">
        <ele>1150.8</ele>
        <time>2003-04-20T17:35:28Z</time>
      </trkpt>
      <trkpt lat="37.194943008944392" lon="-2.988897990435362">
        <ele>1149.8</ele>
        <time>2003-04-20T17:35:31Z</time>
      </trkpt>
      <trkpt lat="37.195177031680942" lon="-2.990037007257342">
        <ele>1149.0999999999999</ele>
        <time>2003-04-20T17:35:33Z</time>
      </trkpt>
      <trkpt lat="37.19541197642684" lon="-2.991179963573813">
        <ele>1148.9000000000001</ele>
        <time>2003-04-20T17:35:36Z</time>
      </trkpt>
      <trkpt lat="37.195641975849867" lon="-2.992328032851219">
        <ele>1149.0999999999999</ele>
        <time>2003-04-20T17:35:40Z</time>
      </trkpt>
      <trkpt lat="37.19588303938508" lon="-2.993471994996071">
        <ele>1149.4000000000001</ele>
        <time>2003-04-20T17:35:43Z</time>
      </trkpt>
      <trkpt lat="37.19611999578774" lon="-2.994617968797684">
        <ele>1149.5</ele>
        <time>2003-04-20T17:35:46Z</time>
      </trkpt>
      <trkpt lat="37.196353012695909" lon="-2.995766960084438">
        <ele>1149.7</ele>
        <time>2003-04-20T17:35:48Z</time>
      </trkpt>
      <trkpt lat="37.196588041260839" lon="-2.996917041018605">
        <ele>1149.9000000000001</ele>
        <time>2003-04-20T17:35:51Z</time>
      </trkpt>
      <trkpt lat="37.196822986006737" lon="-2.998067960143089">
        <ele>1150.0999999999999</ele>
        <time>2003-04-20T17:35:55Z</time>
      </trkpt>
      <trkpt lat="37.197060026228428" lon="-2.999222986400127">
        <ele>1150</ele>
        <time>2003-04-20T17:35:58Z</time>
      </trkpt>
      <trkpt lat="37.197294970974326" lon="-3.00038798712194">
        <ele>1149.7</ele>
        <time>2003-04-20T17:36:00Z</time>
      </trkpt>
      <trkpt lat="37.19753704033792" lon="-3.001557011157274">
        <ele>1149.3</ele>
        <time>2003-04-20T17:36:03Z</time>
      </trkpt>
      <trkpt lat="37.197778020054102" lon="-3.002735003829002">
        <ele>1148.5999999999999</ele>
        <time>2003-04-20T17:36:07Z</time>
      </trkpt>
      <trkpt lat="37.198022017255425" lon="-3.003920037299395">
        <ele>1147.7</ele>
        <time>2003-04-20T17:36:10Z</time>
      </trkpt>
      <trkpt lat="37.198261991143227" lon="-3.00511697307229">
        <ele>1146.5999999999999</ele>
        <time>2003-04-20T17:36:13Z</time>
      </trkpt>
      <trkpt lat="37.19850498251617" lon="-3.006320027634502">
        <ele>1145.5999999999999</ele>
        <time>2003-04-20T17:36:15Z</time>
      </trkpt>
      <trkpt lat="37.198758032172918" lon="-3.007528027519584">
        <ele>1144.5</ele>
        <time>2003-04-20T17:36:18Z</time>
      </trkpt>
      <trkpt lat="37.199004963040352" lon="-3.008741978555918">
        <ele>1143.5999999999999</ele>
        <time>2003-04-20T17:36:22Z</time>
      </trkpt>
      <trkpt lat="37.199251977726817" lon="-3.009958025068045">
        <ele>1142.7</ele>
        <time>2003-04-20T17:36:25Z</time>
      </trkpt>
      <trkpt lat="37.199496980756521" lon="-3.011178011074662">
        <ele>1142.0999999999999</ele>
        <time>2003-04-20T17:36:27Z</time>
      </trkpt>
      <trkpt lat="37.199747012928128" lon="-3.01239799708128">
        <ele>1141.5</ele>
        <time>2003-04-20T17:36:30Z</time>
      </trkpt>
      <trkpt lat="37.199996961280704" lon="-3.013616977259517">
        <ele>1141</ele>
        <time>2003-04-20T17:36:34Z</time>
      </trkpt>
      <trkpt lat="37.200246993452311" lon="-3.014832017943263">
        <ele>1140</ele>
        <time>2003-04-20T17:36:37Z</time>
      </trkpt>
      <trkpt lat="37.200491996482015" lon="-3.016044963151217">
        <ele>1138.7</ele>
        <time>2003-04-20T17:36:40Z</time>
      </trkpt>
      <trkpt lat="37.200743034482002" lon="-3.017260003834963">
        <ele>1137</ele>
        <time>2003-04-20T17:36:42Z</time>
      </trkpt>
      <trkpt lat="37.200992982834578" lon="-3.018483007326722">
        <ele>1135.5999999999999</ele>
        <time>2003-04-20T17:36:45Z</time>
      </trkpt>
      <trkpt lat="37.201243015006185" lon="-3.019716991111636">
        <ele>1134.2</ele>
        <time>2003-04-20T17:36:49Z</time>
      </trkpt>
      <trkpt lat="37.201494975015521" lon="-3.020951980724931">
        <ele>1132.8</ele>
        <time>2003-04-20T17:36:52Z</time>
      </trkpt>
      <trkpt lat="37.201736960560083" lon="-3.022191999480128">
        <ele>1131.5999999999999</ele>
        <time>2003-04-20T17:36:54Z</time>
      </trkpt>
      <trkpt lat="37.201978024095297" lon="-3.023435035720468">
        <ele>1130.5</ele>
        <time>2003-04-20T17:36:57Z</time>
      </trkpt>
      <trkpt lat="37.202227972447872" lon="-3.024670025333762">
        <ele>1129.5</ele>
        <time>2003-04-20T17:37:01Z</time>
      </trkpt>
      <trkpt lat="37.202492002397776" lon="-3.025893028825522">
        <ele>1128.9000000000001</ele>
        <time>2003-04-20T17:37:04Z</time>
      </trkpt>
      <trkpt lat="37.202752009034157" lon="-3.027100022882223">
        <ele>1129.9000000000001</ele>
        <time>2003-04-20T17:37:07Z</time>
      </trkpt>
      <trkpt lat="37.202998017892241" lon="-3.028290001675487">
        <ele>1131.4000000000001</ele>
        <time>2003-04-20T17:37:09Z</time>
      </trkpt>
      <trkpt lat="37.203234974294901" lon="-3.029460031539202">
        <ele>1132.5999999999999</ele>
        <time>2003-04-20T17:37:12Z</time>
      </trkpt>
      <trkpt lat="37.203470002859831" lon="-3.030616985633969">
        <ele>1133.9000000000001</ele>
        <time>2003-04-20T17:37:16Z</time>
      </trkpt>
      <trkpt lat="37.203702013939619" lon="-3.031762959435582">
        <ele>1135</ele>
        <time>2003-04-20T17:37:19Z</time>
      </trkpt>
      <trkpt lat="37.203936958685517" lon="-3.032899964600802">
        <ele>1135.8</ele>
        <time>2003-04-20T17:37:21Z</time>
      </trkpt>
      <trkpt lat="37.204171987250447" lon="-3.03403495810926">
        <ele>1136.0999999999999</ele>
        <time>2003-04-20T17:37:24Z</time>
      </trkpt>
      <trkpt lat="37.204401986673474" lon="-3.03517003543675">
        <ele>1136.5</ele>
        <time>2003-04-20T17:37:28Z</time>
      </trkpt>
      <trkpt lat="37.204627962782979" lon="-3.036302011460066">
        <ele>1137.4000000000001</ele>
        <time>2003-04-20T17:37:31Z</time>
      </trkpt>
      <trkpt lat="37.204857040196657" lon="-3.037416972219944">
        <ele>1139.9000000000001</ele>
        <time>2003-04-20T17:37:34Z</time>
      </trkpt>
      <trkpt lat="37.20523196272552" lon="-3.039241963997483">
        <ele>1143.7</ele>
        <time>2003-04-20T17:37:39Z</time>
      </trkpt>
      <trkpt lat="37.205996979027987" lon="-3.042984986677766">
        <ele>1138.2</ele>
        <time>2003-04-20T17:37:48Z</time>
      </trkpt>
      <trkpt lat="37.207057038322091" lon="-3.048185035586357">
        <ele>1129</ele>
        <time>2003-04-20T17:38:02Z</time>
      </trkpt>
      <trkpt lat="37.207797998562455" lon="-3.051799982786179">
        <ele>1125.5999999999999</ele>
        <time>2003-04-20T17:38:10Z</time>
      </trkpt>
      <trkpt lat="37.208529990166426" lon="-3.055409984663129">
        <ele>1122.4000000000001</ele>
        <time>2003-04-20T17:38:20Z</time>
      </trkpt>
      <trkpt lat="37.209102977067232" lon="-3.058196967467666">
        <ele>1120</ele>
        <time>2003-04-20T17:38:26Z</time>
      </trkpt>
      <trkpt lat="37.209502961486578" lon="-3.060175012797117">
        <ele>1118.7</ele>
        <time>2003-04-20T17:38:32Z</time>
      </trkpt>
      <trkpt lat="37.209745030850172" lon="-3.061358034610748">
        <ele>1118.0999999999999</ele>
        <time>2003-04-20T17:38:34Z</time>
      </trkpt>
      <trkpt lat="37.209990033879876" lon="-3.062535021454096">
        <ele>1117.5999999999999</ele>
        <time>2003-04-20T17:38:37Z</time>
      </trkpt>
      <trkpt lat="37.210230007767677" lon="-3.063706979155541">
        <ele>1117.2</ele>
        <time>2003-04-20T17:38:41Z</time>
      </trkpt>
      <trkpt lat="37.210488002747297" lon="-3.064867034554482">
        <ele>1116.9000000000001</ele>
        <time>2003-04-20T17:38:44Z</time>
      </trkpt>
      <trkpt lat="37.210808023810387" lon="-3.066000016406179">
        <ele>1116.7</ele>
        <time>2003-04-20T17:38:47Z</time>
      </trkpt>
      <trkpt lat="37.211207002401352" lon="-3.067092010751367">
        <ele>1116.3</ele>
        <time>2003-04-20T17:38:51Z</time>
      </trkpt>
      <trkpt lat="37.211649985983968" lon="-3.06815198622644">
        <ele>1116.2</ele>
        <time>2003-04-20T17:38:52Z</time>
      </trkpt>
      <trkpt lat="37.211842015385628" lon="-3.068467983976007">
        <ele>1116.2</ele>
        <time>2003-04-20T17:38:53Z</time>
      </trkpt>
      <trkpt lat="37.212441992014647" lon="-3.069392004981637">
        <ele>1115.9000000000001</ele>
        <time>2003-04-20T17:38:57Z</time>
      </trkpt>
      <trkpt lat="37.213112041354179" lon="-3.070219969376922">
        <ele>1115.0999999999999</ele>
        <time>2003-04-20T17:39:00Z</time>
      </trkpt>
      <trkpt lat="37.213834980502725" lon="-3.070966964587569">
        <ele>1114.2</ele>
        <time>2003-04-20T17:39:04Z</time>
      </trkpt>
      <trkpt lat="37.214599996805191" lon="-3.071650005877018">
        <ele>1112.5999999999999</ele>
        <time>2003-04-20T17:39:07Z</time>
      </trkpt>
      <trkpt lat="37.215378005057573" lon="-3.072304967790842">
        <ele>1111.5999999999999</ele>
        <time>2003-04-20T17:39:09Z</time>
      </trkpt>
      <trkpt lat="37.216170011088252" lon="-3.072935035452247">
        <ele>1110.5</ele>
        <time>2003-04-20T17:39:12Z</time>
      </trkpt>
      <trkpt lat="37.217487981542945" lon="-3.073992999270558">
        <ele>1109.9000000000001</ele>
        <time>2003-04-20T17:39:18Z</time>
      </trkpt>
      <trkpt lat="37.218277975916862" lon="-3.074634969234467">
        <ele>1108.8</ele>
        <time>2003-04-20T17:39:20Z</time>
      </trkpt>
      <trkpt lat="37.21906797029078" lon="-3.075280040502548">
        <ele>1108.3</ele>
        <time>2003-04-20T17:39:23Z</time>
      </trkpt>
      <trkpt lat="37.220389964058995" lon="-3.076355019584298">
        <ele>1107.3</ele>
        <time>2003-04-20T17:39:28Z</time>
      </trkpt>
      <trkpt lat="37.221190016716719" lon="-3.076992966234684">
        <ele>1106.5999999999999</ele>
        <time>2003-04-20T17:39:31Z</time>
      </trkpt>
      <trkpt lat="37.221986968070269" lon="-3.077639965340495">
        <ele>1105.9000000000001</ele>
        <time>2003-04-20T17:39:35Z</time>
      </trkpt>
      <trkpt lat="37.222787020727992" lon="-3.078295011073351">
        <ele>1105.0999999999999</ele>
        <time>2003-04-20T17:39:38Z</time>
      </trkpt>
      <trkpt lat="37.223590007051826" lon="-3.078939998522401">
        <ele>1104.4000000000001</ele>
        <time>2003-04-20T17:39:41Z</time>
      </trkpt>
      <trkpt lat="37.224391987547278" lon="-3.079592026770115">
        <ele>1103.5</ele>
        <time>2003-04-20T17:39:43Z</time>
      </trkpt>
      <trkpt lat="37.225194973871112" lon="-3.080244977027178">
        <ele>1102.9000000000001</ele>
        <time>2003-04-20T17:39:46Z</time>
      </trkpt>
      <trkpt lat="37.226010030135512" lon="-3.080861968919635">
        <ele>1102</ele>
        <time>2003-04-20T17:39:50Z</time>
      </trkpt>
      <trkpt lat="37.226872025057673" lon="-3.081358009949327">
        <ele>1101.0999999999999</ele>
        <time>2003-04-20T17:39:53Z</time>
      </trkpt>
      <trkpt lat="37.22776997834444" lon="-3.081732010468841">
        <ele>1100.4000000000001</ele>
        <time>2003-04-20T17:39:55Z</time>
      </trkpt>
      <trkpt lat="37.228683019056916" lon="-3.082033004611731">
        <ele>1099.9000000000001</ele>
        <time>2003-04-20T17:39:58Z</time>
      </trkpt>
      <trkpt lat="37.229617014527321" lon="-3.082197960466147">
        <ele>1099.3</ele>
        <time>2003-04-20T17:40:02Z</time>
      </trkpt>
      <trkpt lat="37.23056199029088" lon="-3.082248000428081">
        <ele>1098.8</ele>
        <time>2003-04-20T17:40:05Z</time>
      </trkpt>
      <trkpt lat="37.230876982212067" lon="-3.082242971286178">
        <ele>1098.5999999999999</ele>
        <time>2003-04-20T17:40:06Z</time>
      </trkpt>
      <trkpt lat="37.231826987117529" lon="-3.082202989608049">
        <ele>1098.3</ele>
        <time>2003-04-20T17:40:09Z</time>
      </trkpt>
      <trkpt lat="37.233092989772558" lon="-3.082157978788018">
        <ele>1098</ele>
        <time>2003-04-20T17:40:13Z</time>
      </trkpt>
      <trkpt lat="37.234037965536118" lon="-3.082125037908554">
        <ele>1097.5999999999999</ele>
        <time>2003-04-20T17:40:16Z</time>
      </trkpt>
      <trkpt lat="37.234983025118709" lon="-3.082086984068155">
        <ele>1097.2</ele>
        <time>2003-04-20T17:40:18Z</time>
      </trkpt>
      <trkpt lat="37.235930012539029" lon="-3.08205203153193">
        <ele>1096.8</ele>
        <time>2003-04-20T17:40:21Z</time>
      </trkpt>
      <trkpt lat="37.236874988302588" lon="-3.082016995176673">
        <ele>1096.4000000000001</ele>
        <time>2003-04-20T17:40:25Z</time>
      </trkpt>
      <trkpt lat="37.237819964066148" lon="-3.081982964649797">
        <ele>1096</ele>
        <time>2003-04-20T17:40:28Z</time>
      </trkpt>
      <trkpt lat="37.238763011991978" lon="-3.081952035427094">
        <ele>1095.5999999999999</ele>
        <time>2003-04-20T17:40:30Z</time>
      </trkpt>
      <trkpt lat="37.239706981927156" lon="-3.081926973536611">
        <ele>1095.3</ele>
        <time>2003-04-20T17:40:33Z</time>
      </trkpt>
      <trkpt lat="37.240650029852986" lon="-3.081897972151637">
        <ele>1094.9000000000001</ele>
        <time>2003-04-20T17:40:37Z</time>
      </trkpt>
      <trkpt lat="37.241589976474643" lon="-3.081878023222089">
        <ele>1094.7</ele>
        <time>2003-04-20T17:40:40Z</time>
      </trkpt>
      <trkpt lat="37.242532018572092" lon="-3.081847010180354">
        <ele>1094.3</ele>
        <time>2003-04-20T17:40:43Z</time>
      </trkpt>
      <trkpt lat="37.243471965193748" lon="-3.081814991310239">
        <ele>1093.9000000000001</ele>
        <time>2003-04-20T17:40:45Z</time>
      </trkpt>
      <trkpt lat="37.247239965945482" lon="-3.081639977172017">
        <ele>1092.7</ele>
        <time>2003-04-20T17:40:57Z</time>
      </trkpt>
      <trkpt lat="37.248174967244267" lon="-3.081611981615424">
        <ele>1092.3</ele>
        <time>2003-04-20T17:41:00Z</time>
      </trkpt>
      <trkpt lat="37.249108040705323" lon="-3.081578034907579">
        <ele>1091.7</ele>
        <time>2003-04-20T17:41:04Z</time>
      </trkpt>
      <trkpt lat="37.250046981498599" lon="-3.081542998552322">
        <ele>1091.4000000000001</ele>
        <time>2003-04-20T17:41:07Z</time>
      </trkpt>
      <trkpt lat="37.250987011939287" lon="-3.081505028530955">
        <ele>1091</ele>
        <time>2003-04-20T17:41:10Z</time>
      </trkpt>
      <trkpt lat="37.251932993531227" lon="-3.08147300966084">
        <ele>1090.5999999999999</ele>
        <time>2003-04-20T17:41:12Z</time>
      </trkpt>
      <trkpt lat="37.252882998436689" lon="-3.081443002447486">
        <ele>1090.2</ele>
        <time>2003-04-20T17:41:15Z</time>
      </trkpt>
      <trkpt lat="37.253837026655674" lon="-3.081407966092229">
        <ele>1090.2</ele>
        <time>2003-04-20T17:41:19Z</time>
      </trkpt>
      <trkpt lat="37.254792982712388" lon="-3.081377958878875">
        <ele>1089.8</ele>
        <time>2003-04-20T17:41:22Z</time>
      </trkpt>
      <trkpt lat="37.255430007353425" lon="-3.081384999677539">
        <ele>1089.7</ele>
        <time>2003-04-20T17:41:23Z</time>
      </trkpt>
      <trkpt lat="37.256380012258887" lon="-3.081488013267517">
        <ele>1089.3</ele>
        <time>2003-04-20T17:41:27Z</time>
      </trkpt>
      <trkpt lat="37.257317025214434" lon="-3.081696974113584">
        <ele>1088.9000000000001</ele>
        <time>2003-04-20T17:41:30Z</time>
      </trkpt>
      <trkpt lat="37.258225036785007" lon="-3.082001991569996">
        <ele>1088.3</ele>
        <time>2003-04-20T17:41:33Z</time>
      </trkpt>
      <trkpt lat="37.259092982858419" lon="-3.082417985424399">
        <ele>1087.5999999999999</ele>
        <time>2003-04-20T17:41:35Z</time>
      </trkpt>
      <trkpt lat="37.259922036901116" lon="-3.082904973998666">
        <ele>1086.3</ele>
        <time>2003-04-20T17:41:38Z</time>
      </trkpt>
      <trkpt lat="37.260701972991228" lon="-3.083479972556233">
        <ele>1084.5999999999999</ele>
        <time>2003-04-20T17:41:42Z</time>
      </trkpt>
      <trkpt lat="37.261897986754775" lon="-3.084614966064692">
        <ele>1082.5</ele>
        <time>2003-04-20T17:41:46Z</time>
      </trkpt>
      <trkpt lat="37.26255202665925" lon="-3.08540303260088">
        <ele>1081.3</ele>
        <time>2003-04-20T17:41:50Z</time>
      </trkpt>
      <trkpt lat="37.263152003288269" lon="-3.086257986724377">
        <ele>1081</ele>
        <time>2003-04-20T17:41:53Z</time>
      </trkpt>
      <trkpt lat="37.263687020167708" lon="-3.087172033265233">
        <ele>1081.0999999999999</ele>
        <time>2003-04-20T17:41:56Z</time>
      </trkpt>
      <trkpt lat="37.26416302844882" lon="-3.08813301846385">
        <ele>1081.3</ele>
        <time>2003-04-20T17:41:58Z</time>
      </trkpt>
      <trkpt lat="37.264582039788365" lon="-3.089138008654118">
        <ele>1081.3</ele>
        <time>2003-04-20T17:42:01Z</time>
      </trkpt>
      <trkpt lat="37.264985041692853" lon="-3.090160014107823">
        <ele>1080.5999999999999</ele>
        <time>2003-04-20T17:42:05Z</time>
      </trkpt>
      <trkpt lat="37.265417966991663" lon="-3.091171961277723">
        <ele>1079</ele>
        <time>2003-04-20T17:42:08Z</time>
      </trkpt>
      <trkpt lat="37.265943009406328" lon="-3.092137975618243">
        <ele>1076.0999999999999</ele>
        <time>2003-04-20T17:42:10Z</time>
      </trkpt>
      <trkpt lat="37.266569975763559" lon="-3.09301002882421">
        <ele>1072.4000000000001</ele>
        <time>2003-04-20T17:42:13Z</time>
      </trkpt>
      <trkpt lat="37.267306996509433" lon="-3.093755012378097">
        <ele>1069.0999999999999</ele>
        <time>2003-04-20T17:42:17Z</time>
      </trkpt>
      <trkpt lat="37.26813999004662" lon="-3.094348032027483">
        <ele>1066.7</ele>
        <time>2003-04-20T17:42:20Z</time>
      </trkpt>
      <trkpt lat="37.269037021324039" lon="-3.094767965376377">
        <ele>1066.0999999999999</ele>
        <time>2003-04-20T17:42:23Z</time>
      </trkpt>
      <trkpt lat="37.269958024844527" lon="-3.095017997547984">
        <ele>1067.2</ele>
        <time>2003-04-20T17:42:25Z</time>
      </trkpt>
      <trkpt lat="37.27086796425283" lon="-3.095167027786374">
        <ele>1068.9000000000001</ele>
        <time>2003-04-20T17:42:28Z</time>
      </trkpt>
      <trkpt lat="37.271779999136925" lon="-3.095212960615754">
        <ele>1070.5</ele>
        <time>2003-04-20T17:42:32Z</time>
      </trkpt>
      <trkpt lat="37.27269496768713" lon="-3.095250008627772">
        <ele>1071.8</ele>
        <time>2003-04-20T17:42:35Z</time>
      </trkpt>
      <trkpt lat="37.273597028106451" lon="-3.095284961163998">
        <ele>1072.3</ele>
        <time>2003-04-20T17:42:37Z</time>
      </trkpt>
      <trkpt lat="37.274796981364489" lon="-3.095376994460821">
        <ele>1071.3</ele>
        <time>2003-04-20T17:42:41Z</time>
      </trkpt>
      <trkpt lat="37.275704992935061" lon="-3.095493000000715">
        <ele>1069</ele>
        <time>2003-04-20T17:42:44Z</time>
      </trkpt>
      <trkpt lat="37.276600012555718" lon="-3.095655022189021">
        <ele>1065.5</ele>
        <time>2003-04-20T17:42:48Z</time>
      </trkpt>
      <trkpt lat="37.277501989156008" lon="-3.095874963328242">
        <ele>1061.0999999999999</ele>
        <time>2003-04-20T17:42:51Z</time>
      </trkpt>
      <trkpt lat="37.278417963534594" lon="-3.096175035461783">
        <ele>1056.5999999999999</ele>
        <time>2003-04-20T17:42:54Z</time>
      </trkpt>
      <trkpt lat="37.279329998418689" lon="-3.096584994345903">
        <ele>1052.0999999999999</ele>
        <time>2003-04-20T17:42:56Z</time>
      </trkpt>
      <trkpt lat="37.280227029696107" lon="-3.097107019275427">
        <ele>1047.4000000000001</ele>
        <time>2003-04-20T17:42:59Z</time>
      </trkpt>
      <trkpt lat="37.28109497576952" lon="-3.097725016996265">
        <ele>1042.8</ele>
        <time>2003-04-20T17:43:03Z</time>
      </trkpt>
      <trkpt lat="37.28191195987165" lon="-3.098427001386881">
        <ele>1038.2</ele>
        <time>2003-04-20T17:43:06Z</time>
      </trkpt>
      <trkpt lat="37.28266297839582" lon="-3.099208027124405">
        <ele>1033.8</ele>
        <time>2003-04-20T17:43:08Z</time>
      </trkpt>
      <trkpt lat="37.283341996371746" lon="-3.100073039531708">
        <ele>1029.2</ele>
        <time>2003-04-20T17:43:11Z</time>
      </trkpt>
      <trkpt lat="37.283982960507274" lon="-3.100950038060546">
        <ele>1024.9000000000001</ele>
        <time>2003-04-20T17:43:15Z</time>
      </trkpt>
      <trkpt lat="37.284559970721602" lon="-3.101882021874189">
        <ele>1020.6</ele>
        <time>2003-04-20T17:43:18Z</time>
      </trkpt>
      <trkpt lat="37.2850919701159" lon="-3.102820040658116">
        <ele>1016.3</ele>
        <time>2003-04-20T17:43:21Z</time>
      </trkpt>
      <trkpt lat="37.285737041383982" lon="-3.104072967544198">
        <ele>1010.2</ele>
        <time>2003-04-20T17:43:25Z</time>
      </trkpt>
      <trkpt lat="37.286331988871098" lon="-3.105322038754821">
        <ele>1004.7</ele>
        <time>2003-04-20T17:43:29Z</time>
      </trkpt>
      <trkpt lat="37.286916961893439" lon="-3.106583012267947">
        <ele>999.20000000000005</ele>
        <time>2003-04-20T17:43:33Z</time>
      </trkpt>
      <trkpt lat="37.287530014291406" lon="-3.107842979952693">
        <ele>993.60000000000002</ele>
        <time>2003-04-20T17:43:37Z</time>
      </trkpt>
      <trkpt lat="37.288233004510403" lon="-3.109037987887859">
        <ele>988.20000000000005</ele>
        <time>2003-04-20T17:43:41Z</time>
      </trkpt>
      <trkpt lat="37.289046971127391" lon="-3.110084971413016">
        <ele>982.79999999999995</ele>
        <time>2003-04-20T17:43:45Z</time>
      </trkpt>
      <trkpt lat="37.28973001241684" lon="-3.110706992447376">
        <ele>978.5</ele>
        <time>2003-04-20T17:43:48Z</time>
      </trkpt>
      <trkpt lat="37.29046200402081" lon="-3.111173026263714">
        <ele>974.60000000000002</ele>
        <time>2003-04-20T17:43:50Z</time>
      </trkpt>
      <trkpt lat="37.291498007252812" lon="-3.11157301068306">
        <ele>969.39999999999998</ele>
        <time>2003-04-20T17:43:54Z</time>
      </trkpt>
      <trkpt lat="37.292297976091504" lon="-3.111690022051334">
        <ele>966.5</ele>
        <time>2003-04-20T17:43:57Z</time>
      </trkpt>
      <trkpt lat="37.292832992970943" lon="-3.111687004566193">
        <ele>965.29999999999995</ele>
        <time>2003-04-20T17:44:00Z</time>
      </trkpt>
      <trkpt lat="37.293862039223313" lon="-3.111497992649674">
        <ele>965</ele>
        <time>2003-04-20T17:44:04Z</time>
      </trkpt>
      <trkpt lat="37.294857976958156" lon="-3.111183000728488">
        <ele>966.89999999999998</ele>
        <time>2003-04-20T17:44:08Z</time>
      </trkpt>
      <trkpt lat="37.295809993520379" lon="-3.110773041844368">
        <ele>970.5</ele>
        <time>2003-04-20T17:44:12Z</time>
      </trkpt>
      <trkpt lat="37.296716999262571" lon="-3.110340032726526">
        <ele>976.39999999999998</ele>
        <time>2003-04-20T17:44:16Z</time>
      </trkpt>
      <trkpt lat="37.297587962821126" lon="-3.109959997236729">
        <ele>979.70000000000005</ele>
        <time>2003-04-20T17:44:20Z</time>
      </trkpt>
      <trkpt lat="37.298463033512235" lon="-3.109697978943586">
        <ele>986.70000000000005</ele>
        <time>2003-04-20T17:44:24Z</time>
      </trkpt>
      <trkpt lat="37.299135010689497" lon="-3.109614998102188">
        <ele>988.79999999999995</ele>
        <time>2003-04-20T17:44:27Z</time>
      </trkpt>
      <trkpt lat="37.299587968736887" lon="-3.109612986445427">
        <ele>989.70000000000005</ele>
        <time>2003-04-20T17:44:28Z</time>
      </trkpt>
      <trkpt lat="37.300277967005968" lon="-3.109703008085489">
        <ele>990.5</ele>
        <time>2003-04-20T17:44:32Z</time>
      </trkpt>
      <trkpt lat="37.301212968304753" lon="-3.109999978914857">
        <ele>989.5</ele>
        <time>2003-04-20T17:44:36Z</time>
      </trkpt>
      <trkpt lat="37.302187029272318" lon="-3.110401974990964">
        <ele>987.29999999999995</ele>
        <time>2003-04-20T17:44:40Z</time>
      </trkpt>
      <trkpt lat="37.303211968392134" lon="-3.11082299798727">
        <ele>985.20000000000005</ele>
        <time>2003-04-20T17:44:43Z</time>
      </trkpt>
      <trkpt lat="37.304285019636154" lon="-3.111232034862042">
        <ele>982.5</ele>
        <time>2003-04-20T17:44:47Z</time>
      </trkpt>
      <trkpt lat="37.305410038679838" lon="-3.111597988754511">
        <ele>980.10000000000002</ele>
        <time>2003-04-20T17:44:51Z</time>
      </trkpt>
      <trkpt lat="37.306566992774606" lon="-3.111882973462343">
        <ele>979.29999999999995</ele>
        <time>2003-04-20T17:44:55Z</time>
      </trkpt>
      <trkpt lat="37.307727970182896" lon="-3.112080032005906">
        <ele>980.89999999999998</ele>
        <time>2003-04-20T17:44:59Z</time>
      </trkpt>
      <trkpt lat="37.308867992833257" lon="-3.112182961776853">
        <ele>984.70000000000005</ele>
        <time>2003-04-20T17:45:03Z</time>
      </trkpt>
      <trkpt lat="37.30997197329998" lon="-3.112202994525433">
        <ele>990.39999999999998</ele>
        <time>2003-04-20T17:45:07Z</time>
      </trkpt>
      <trkpt lat="37.311039995402098" lon="-3.112184973433614">
        <ele>996</ele>
        <time>2003-04-20T17:45:11Z</time>
      </trkpt>
      <trkpt lat="37.312080021947622" lon="-3.112126970663667">
        <ele>1001.5</ele>
        <time>2003-04-20T17:45:15Z</time>
      </trkpt>
      <trkpt lat="37.313119964674115" lon="-3.112067962065339">
        <ele>1006.9</ele>
        <time>2003-04-20T17:45:19Z</time>
      </trkpt>
      <trkpt lat="37.31390199624002" lon="-3.112062010914087">
        <ele>1010.9</ele>
        <time>2003-04-20T17:45:22Z</time>
      </trkpt>
      <trkpt lat="37.314947973936796" lon="-3.11211297288537">
        <ele>1016.2</ele>
        <time>2003-04-20T17:45:26Z</time>
      </trkpt>
      <trkpt lat="37.316005015745759" lon="-3.112289998680353">
        <ele>1019.7</ele>
        <time>2003-04-20T17:45:30Z</time>
      </trkpt>
      <trkpt lat="37.317068008705974" lon="-3.112623011693358">
        <ele>1021</ele>
        <time>2003-04-20T17:45:34Z</time>
      </trkpt>
      <trkpt lat="37.317594978958368" lon="-3.11290699057281">
        <ele>1020.5</ele>
        <time>2003-04-20T17:45:37Z</time>
      </trkpt>
      <trkpt lat="37.318362006917596" lon="-3.113462962210178">
        <ele>1019.1</ele>
        <time>2003-04-20T17:45:40Z</time>
      </trkpt>
      <trkpt lat="37.31903700158" lon="-3.11415296047926">
        <ele>1016</ele>
        <time>2003-04-20T17:45:42Z</time>
      </trkpt>
      <trkpt lat="37.319612000137568" lon="-3.114938009530306">
        <ele>1012.4</ele>
        <time>2003-04-20T17:45:45Z</time>
      </trkpt>
      <trkpt lat="37.320094965398312" lon="-3.115803021937609">
        <ele>1008</ele>
        <time>2003-04-20T17:45:49Z</time>
      </trkpt>
      <trkpt lat="37.320459997281432" lon="-3.116722013801336">
        <ele>1004.2</ele>
        <time>2003-04-20T17:45:52Z</time>
      </trkpt>
      <trkpt lat="37.320727966725826" lon="-3.117661960422993">
        <ele>1000.3</ele>
        <time>2003-04-20T17:45:54Z</time>
      </trkpt>
      <trkpt lat="37.3208830319345" lon="-3.118633003905416">
        <ele>996.5</ele>
        <time>2003-04-20T17:45:57Z</time>
      </trkpt>
      <trkpt lat="37.320942962542176" lon="-3.119927002117038">
        <ele>991.5</ele>
        <time>2003-04-20T17:46:01Z</time>
      </trkpt>
      <trkpt lat="37.320852018892765" lon="-3.121247990056872">
        <ele>986</ele>
        <time>2003-04-20T17:46:05Z</time>
      </trkpt>
      <trkpt lat="37.320644985884428" lon="-3.122605020180345">
        <ele>979.39999999999998</ele>
        <time>2003-04-20T17:46:09Z</time>
      </trkpt>
      <trkpt lat="37.320360001176596" lon="-3.123966995626688">
        <ele>971.70000000000005</ele>
        <time>2003-04-20T17:46:13Z</time>
      </trkpt>
      <trkpt lat="37.320050038397312" lon="-3.125289995223284">
        <ele>964.29999999999995</ele>
        <time>2003-04-20T17:46:17Z</time>
      </trkpt>
      <trkpt lat="37.319794977083802" lon="-3.12663696706295">
        <ele>956.39999999999998</ele>
        <time>2003-04-20T17:46:21Z</time>
      </trkpt>
      <trkpt lat="37.319602025672793" lon="-3.127968013286591">
        <ele>948.79999999999995</ele>
        <time>2003-04-20T17:46:26Z</time>
      </trkpt>
      <trkpt lat="37.319432040676475" lon="-3.129254970699549">
        <ele>941.79999999999995</ele>
        <time>2003-04-20T17:46:30Z</time>
      </trkpt>
      <trkpt lat="37.319258032366633" lon="-3.130532959476113">
        <ele>935</ele>
        <time>2003-04-20T17:46:34Z</time>
      </trkpt>
      <trkpt lat="37.319092992693186" lon="-3.131807008758187">
        <ele>928</ele>
        <time>2003-04-20T17:46:38Z</time>
      </trkpt>
      <trkpt lat="37.319031972438097" lon="-3.133073011413217">
        <ele>921</ele>
        <time>2003-04-20T17:46:42Z</time>
      </trkpt>
      <trkpt lat="37.31908000074327" lon="-3.134340019896627">
        <ele>914.5</ele>
        <time>2003-04-20T17:46:46Z</time>
      </trkpt>
      <trkpt lat="37.319170022383332" lon="-3.135603005066514">
        <ele>909.10000000000002</ele>
        <time>2003-04-20T17:46:50Z</time>
      </trkpt>
      <trkpt lat="37.31925300322473" lon="-3.136857021600008">
        <ele>904.5</ele>
        <time>2003-04-20T17:46:54Z</time>
      </trkpt>
      <trkpt lat="37.319336989894509" lon="-3.138159988448024">
        <ele>899.89999999999998</ele>
        <time>2003-04-20T17:46:58Z</time>
      </trkpt>
      <trkpt lat="37.319422988221049" lon="-3.13954702578485">
        <ele>897.29999999999995</ele>
        <time>2003-04-20T17:47:02Z</time>
      </trkpt>
      <trkpt lat="37.319504963234067" lon="-3.140974966809154">
        <ele>893.70000000000005</ele>
        <time>2003-04-20T17:47:06Z</time>
      </trkpt>
      <trkpt lat="37.319606970995665" lon="-3.142326967790723">
        <ele>890.79999999999995</ele>
        <time>2003-04-20T17:47:10Z</time>
      </trkpt>
      <trkpt lat="37.31968198902905" lon="-3.143517030403018">
        <ele>889.10000000000002</ele>
        <time>2003-04-20T17:47:14Z</time>
      </trkpt>
      <trkpt lat="37.319711996242404" lon="-3.144792001694441">
        <ele>887.20000000000005</ele>
        <time>2003-04-20T17:47:18Z</time>
      </trkpt>
      <trkpt lat="37.31972498819232" lon="-3.146133022382855">
        <ele>886.10000000000002</ele>
        <time>2003-04-20T17:47:22Z</time>
      </trkpt>
      <trkpt lat="37.319718031212687" lon="-3.147516958415508">
        <ele>885.10000000000002</ele>
        <time>2003-04-20T17:47:25Z</time>
      </trkpt>
      <trkpt lat="37.319749966263771" lon="-3.148884968832135">
        <ele>885</ele>
        <time>2003-04-20T17:47:30Z</time>
      </trkpt>
      <trkpt lat="37.319794977083802" lon="-3.150064973160625">
        <ele>885.39999999999998</ele>
        <time>2003-04-20T17:47:33Z</time>
      </trkpt>
      <trkpt lat="37.319812998175621" lon="-3.150514997541904">
        <ele>885.70000000000005</ele>
        <time>2003-04-20T17:47:36Z</time>
      </trkpt>
      <trkpt lat="37.319828001782298" lon="-3.150863014161587">
        <ele>885.89999999999998</ele>
        <time>2003-04-20T17:47:37Z</time>
      </trkpt>
      <trkpt lat="37.319837976247072" lon="-3.15134497359395">
        <ele>886.10000000000002</ele>
        <time>2003-04-20T17:47:41Z</time>
      </trkpt>
      <trkpt lat="37.319902013987303" lon="-3.151617972180247">
        <ele>886.29999999999995</ele>
        <time>2003-04-20T17:47:42Z</time>
      </trkpt>
      <trkpt lat="37.320007039234042" lon="-3.15183699131012">
        <ele>886.29999999999995</ele>
        <time>2003-04-20T17:47:45Z</time>
      </trkpt>
      <trkpt lat="37.320130001753569" lon="-3.152004964649677">
        <ele>885.79999999999995</ele>
        <time>2003-04-20T17:47:47Z</time>
      </trkpt>
      <trkpt lat="37.320424960926175" lon="-3.152360022068024">
        <ele>885</ele>
        <time>2003-04-20T17:47:52Z</time>
      </trkpt>
      <trkpt lat="37.320572985336185" lon="-3.152636960148811">
        <ele>884.89999999999998</ele>
        <time>2003-04-20T17:47:56Z</time>
      </trkpt>
      <trkpt lat="37.320626964792609" lon="-3.152777021750808">
        <ele>884.89999999999998</ele>
        <time>2003-04-20T17:47:59Z</time>
      </trkpt>
      <trkpt lat="37.320299986749887" lon="-3.153589982539415">
        <ele>-236.80000000000001</ele>
        <time>2003-04-20T17:56:02Z</time>
      </trkpt>
      <trkpt lat="37.320247013121843" lon="-3.15379198640585">
        <ele>886</ele>
        <time>2003-04-20T17:56:03Z</time>
      </trkpt>
      <trkpt lat="37.320256987586617" lon="-3.153976975008845">
        <ele>887.89999999999998</ele>
        <time>2003-04-20T17:56:06Z</time>
      </trkpt>
      <trkpt lat="37.32026201672852" lon="-3.154266988858581">
        <ele>887.89999999999998</ele>
        <time>2003-04-20T17:56:09Z</time>
      </trkpt>
      <trkpt lat="37.320303004235029" lon="-3.154390035197139">
        <ele>888.10000000000002</ele>
        <time>2003-04-20T17:56:10Z</time>
      </trkpt>
      <trkpt lat="37.320333011448383" lon="-3.154605031013489">
        <ele>887.39999999999998</ele>
        <time>2003-04-20T17:56:10Z</time>
      </trkpt>
      <trkpt lat="37.320418003946543" lon="-3.155067041516304">
        <ele>888.70000000000005</ele>
        <time>2003-04-20T17:56:13Z</time>
      </trkpt>
      <trkpt lat="37.320569967851043" lon="-3.155967006459832">
        <ele>888.20000000000005</ele>
        <time>2003-04-20T17:56:18Z</time>
      </trkpt>
      <trkpt lat="37.32077800668776" lon="-3.157139969989657">
        <ele>888.29999999999995</ele>
        <time>2003-04-20T17:56:24Z</time>
      </trkpt>
      <trkpt lat="37.321023009717464" lon="-3.158279992640019">
        <ele>887.20000000000005</ele>
        <time>2003-04-20T17:56:29Z</time>
      </trkpt>
      <trkpt lat="37.321161981672049" lon="-3.158609988167882">
        <ele>886.10000000000002</ele>
        <time>2003-04-20T17:56:32Z</time>
      </trkpt>
      <trkpt lat="37.321482002735138" lon="-3.159323036670685">
        <ele>883.70000000000005</ele>
        <time>2003-04-20T17:56:37Z</time>
      </trkpt>
      <trkpt lat="37.321498012170196" lon="-3.159538032487035">
        <ele>883.5</ele>
        <time>2003-04-20T17:56:38Z</time>
      </trkpt>
      <trkpt lat="37.321494994685054" lon="-3.15991303883493">
        <ele>884.60000000000002</ele>
        <time>2003-04-20T17:56:41Z</time>
      </trkpt>
      <trkpt lat="37.321431962773204" lon="-3.160728011280298">
        <ele>888.60000000000002</ele>
        <time>2003-04-20T17:56:49Z</time>
      </trkpt>
      <trkpt lat="37.32152801938355" lon="-3.161463020369411">
        <ele>892.10000000000002</ele>
        <time>2003-04-20T17:56:53Z</time>
      </trkpt>
      <trkpt lat="37.32170001603663" lon="-3.162668002769351">
        <ele>895.20000000000005</ele>
        <time>2003-04-20T17:57:00Z</time>
      </trkpt>
      <trkpt lat="37.3218949791044" lon="-3.16386703401804">
        <ele>897.60000000000002</ele>
        <time>2003-04-20T17:57:07Z</time>
      </trkpt>
      <trkpt lat="37.322097988799214" lon="-3.164990041404963">
        <ele>899.39999999999998</ele>
        <time>2003-04-20T17:57:12Z</time>
      </trkpt>
      <trkpt lat="37.322381967678666" lon="-3.166204998269677">
        <ele>900.89999999999998</ele>
        <time>2003-04-20T17:57:16Z</time>
      </trkpt>
      <trkpt lat="37.322723027318716" lon="-3.167502013966441">
        <ele>902.20000000000005</ele>
        <time>2003-04-20T17:57:22Z</time>
      </trkpt>
      <trkpt lat="37.323137009516358" lon="-3.168806992471218">
        <ele>903.39999999999998</ele>
        <time>2003-04-20T17:57:27Z</time>
      </trkpt>
      <trkpt lat="37.323489971458912" lon="-3.169866967946291">
        <ele>904.10000000000002</ele>
        <time>2003-04-20T17:57:31Z</time>
      </trkpt>
      <trkpt lat="37.323885010555387" lon="-3.170921998098493">
        <ele>904.60000000000002</ele>
        <time>2003-04-20T17:57:35Z</time>
      </trkpt>
      <trkpt lat="37.324405023828149" lon="-3.17214198410511">
        <ele>904.79999999999995</ele>
        <time>2003-04-20T17:57:39Z</time>
      </trkpt>
      <trkpt lat="37.324844989925623" lon="-3.173185028135777">
        <ele>903.89999999999998</ele>
        <time>2003-04-20T17:57:43Z</time>
      </trkpt>
      <trkpt lat="37.325383024290204" lon="-3.174432003870606">
        <ele>902.20000000000005</ele>
        <time>2003-04-20T17:57:49Z</time>
      </trkpt>
      <trkpt lat="37.325904965400696" lon="-3.175489967688918">
        <ele>900.10000000000002</ele>
        <time>2003-04-20T17:57:53Z</time>
      </trkpt>
      <trkpt lat="37.32655699364841" lon="-3.176592020317912">
        <ele>897.89999999999998</ele>
        <time>2003-04-20T17:57:57Z</time>
      </trkpt>
      <trkpt lat="37.327220002189279" lon="-3.177802031859756">
        <ele>895.70000000000005</ele>
        <time>2003-04-20T17:58:01Z</time>
      </trkpt>
      <trkpt lat="37.327655022963881" lon="-3.178811967372894">
        <ele>893.89999999999998</ele>
        <time>2003-04-20T17:58:03Z</time>
      </trkpt>
      <trkpt lat="37.328015025705099" lon="-3.17989700473845">
        <ele>891.79999999999995</ele>
        <time>2003-04-20T17:58:06Z</time>
      </trkpt>
      <trkpt lat="37.32829699292779" lon="-3.181044990196824">
        <ele>890</ele>
        <time>2003-04-20T17:58:10Z</time>
      </trkpt>
      <trkpt lat="37.32849296182394" lon="-3.182234968990088">
        <ele>887.89999999999998</ele>
        <time>2003-04-20T17:58:13Z</time>
      </trkpt>
      <trkpt lat="37.32859798707068" lon="-3.183459984138608">
        <ele>885.79999999999995</ele>
        <time>2003-04-20T17:58:16Z</time>
      </trkpt>
      <trkpt lat="37.328611984848976" lon="-3.184705032035708">
        <ele>884</ele>
        <time>2003-04-20T17:58:18Z</time>
      </trkpt>
      <trkpt lat="37.328509977087379" lon="-3.18591495975852">
        <ele>881.89999999999998</ele>
        <time>2003-04-20T17:58:21Z</time>
      </trkpt>
      <trkpt lat="37.328345021232963" lon="-3.187097981572151">
        <ele>879.5</ele>
        <time>2003-04-20T17:58:25Z</time>
      </trkpt>
      <trkpt lat="37.328100018203259" lon="-3.188198022544384">
        <ele>877.39999999999998</ele>
        <time>2003-04-20T17:58:28Z</time>
      </trkpt>
      <trkpt lat="37.327683018520474" lon="-3.189510041847825">
        <ele>876.79999999999995</ele>
        <time>2003-04-20T17:58:32Z</time>
      </trkpt>
      <trkpt lat="37.327169962227345" lon="-3.19070203229785">
        <ele>877.29999999999995</ele>
        <time>2003-04-20T17:58:36Z</time>
      </trkpt>
      <trkpt lat="37.326552970334888" lon="-3.191822022199631">
        <ele>878.60000000000002</ele>
        <time>2003-04-20T17:58:40Z</time>
      </trkpt>
      <trkpt lat="37.325900020077825" lon="-3.192855007946491">
        <ele>879.39999999999998</ele>
        <time>2003-04-20T17:58:44Z</time>
      </trkpt>
      <trkpt lat="37.325329966843128" lon="-3.193897968158126">
        <ele>879.39999999999998</ele>
        <time>2003-04-20T17:58:48Z</time>
      </trkpt>
      <trkpt lat="37.324893018230796" lon="-3.195067998021841">
        <ele>878.60000000000002</ele>
        <time>2003-04-20T17:58:52Z</time>
      </trkpt>
      <trkpt lat="37.324582971632481" lon="-3.196352021768689">
        <ele>876.29999999999995</ele>
        <time>2003-04-20T17:58:56Z</time>
      </trkpt>
      <trkpt lat="37.324424972757697" lon="-3.197677033022046">
        <ele>873.60000000000002</ele>
        <time>2003-04-20T17:59:00Z</time>
      </trkpt>
      <trkpt lat="37.324418015778065" lon="-3.199017969891429">
        <ele>872.70000000000005</ele>
        <time>2003-04-20T17:59:04Z</time>
      </trkpt>
      <trkpt lat="37.324582971632481" lon="-3.200380029156804">
        <ele>869.20000000000005</ele>
        <time>2003-04-20T17:59:07Z</time>
      </trkpt>
      <trkpt lat="37.324835015460849" lon="-3.201392982155085">
        <ele>865.29999999999995</ele>
        <time>2003-04-20T17:59:11Z</time>
      </trkpt>
      <trkpt lat="37.325317980721593" lon="-3.202710030600429">
        <ele>860.70000000000005</ele>
        <time>2003-04-20T17:59:15Z</time>
      </trkpt>
      <trkpt lat="37.325804969295859" lon="-3.203645031899214">
        <ele>857.20000000000005</ele>
        <time>2003-04-20T17:59:18Z</time>
      </trkpt>
      <trkpt lat="37.326379967853427" lon="-3.204520018771291">
        <ele>854.10000000000002</ele>
        <time>2003-04-20T17:59:20Z</time>
      </trkpt>
      <trkpt lat="37.327107014134526" lon="-3.205691976472735">
        <ele>851.70000000000005</ele>
        <time>2003-04-20T17:59:24Z</time>
      </trkpt>
      <trkpt lat="37.327385041862726" lon="-3.206332018598914">
        <ele>851</ele>
        <time>2003-04-20T17:59:27Z</time>
      </trkpt>
      <trkpt lat="37.327667009085417" lon="-3.207362992689014">
        <ele>851</ele>
        <time>2003-04-20T17:59:30Z</time>
      </trkpt>
      <trkpt lat="37.327883010730147" lon="-3.208805015310645">
        <ele>850.79999999999995</ele>
        <time>2003-04-20T17:59:34Z</time>
      </trkpt>
      <trkpt lat="37.328106975182891" lon="-3.210270004346967">
        <ele>851.39999999999998</ele>
        <time>2003-04-20T17:59:38Z</time>
      </trkpt>
      <trkpt lat="37.328324988484383" lon="-3.21171797811985">
        <ele>851.89999999999998</ele>
        <time>2003-04-20T17:59:42Z</time>
      </trkpt>
      <trkpt lat="37.328547025099397" lon="-3.213163018226624">
        <ele>852.89999999999998</ele>
        <time>2003-04-20T17:59:46Z</time>
      </trkpt>
      <trkpt lat="37.328773001208901" lon="-3.214582996442914">
        <ele>855.10000000000002</ele>
        <time>2003-04-20T17:59:50Z</time>
      </trkpt>
      <trkpt lat="37.329035019502044" lon="-3.215554961934686">
        <ele>856.79999999999995</ele>
        <time>2003-04-20T17:59:53Z</time>
      </trkpt>
      <trkpt lat="37.329527959227562" lon="-3.216767990961671">
        <ele>858.5</ele>
        <time>2003-04-20T17:59:57Z</time>
      </trkpt>
      <trkpt lat="37.330066999420524" lon="-3.217982025817037">
        <ele>859</ele>
        <time>2003-04-20T18:00:01Z</time>
      </trkpt>
      <trkpt lat="37.330552982166409" lon="-3.219205029308796">
        <ele>859.89999999999998</ele>
        <time>2003-04-20T18:00:05Z</time>
      </trkpt>
      <trkpt lat="37.330792034044862" lon="-3.220123015344143">
        <ele>860.5</ele>
        <time>2003-04-20T18:00:08Z</time>
      </trkpt>
      <trkpt lat="37.330907033756375" lon="-3.221066985279322">
        <ele>860.89999999999998</ele>
        <time>2003-04-20T18:00:10Z</time>
      </trkpt>
      <trkpt lat="37.330888006836176" lon="-3.222042974084616">
        <ele>861.20000000000005</ele>
        <time>2003-04-20T18:00:13Z</time>
      </trkpt>
      <trkpt lat="37.330727996304631" lon="-3.223013011738658">
        <ele>862.79999999999995</ele>
        <time>2003-04-20T18:00:17Z</time>
      </trkpt>
      <trkpt lat="37.330447034910321" lon="-3.22394197806716">
        <ele>865.39999999999998</ele>
        <time>2003-04-20T18:00:20Z</time>
      </trkpt>
      <trkpt lat="37.330047972500324" lon="-3.224777989089489">
        <ele>869.5</ele>
        <time>2003-04-20T18:00:23Z</time>
      </trkpt>
      <trkpt lat="37.329383036121726" lon="-3.225754983723164">
        <ele>874.5</ele>
        <time>2003-04-20T18:00:27Z</time>
      </trkpt>
      <trkpt lat="37.328739976510406" lon="-3.226727033033967">
        <ele>879.70000000000005</ele>
        <time>2003-04-20T18:00:31Z</time>
      </trkpt>
      <trkpt lat="37.328358013182878" lon="-3.227549968287349">
        <ele>883.79999999999995</ele>
        <time>2003-04-20T18:00:33Z</time>
      </trkpt>
      <trkpt lat="37.328089959919453" lon="-3.228448005393148">
        <ele>887.10000000000002</ele>
        <time>2003-04-20T18:00:36Z</time>
      </trkpt>
      <trkpt lat="37.327936990186572" lon="-3.229394992813468">
        <ele>890.60000000000002</ele>
        <time>2003-04-20T18:00:40Z</time>
      </trkpt>
      <trkpt lat="37.327810004353523" lon="-3.230680022388697">
        <ele>895.70000000000005</ele>
        <time>2003-04-20T18:00:44Z</time>
      </trkpt>
      <trkpt lat="37.327662985771894" lon="-3.231957005336881">
        <ele>902.39999999999998</ele>
        <time>2003-04-20T18:00:48Z</time>
      </trkpt>
      <trkpt lat="37.327517978847027" lon="-3.233186965808272">
        <ele>909.29999999999995</ele>
        <time>2003-04-20T18:00:52Z</time>
      </trkpt>
      <trkpt lat="37.327289991080761" lon="-3.234364958480001">
        <ele>916</ele>
        <time>2003-04-20T18:00:55Z</time>
      </trkpt>
      <trkpt lat="37.327017998322845" lon="-3.235534988343716">
        <ele>922.29999999999995</ele>
        <time>2003-04-20T18:00:59Z</time>
      </trkpt>
      <trkpt lat="37.326741982251406" lon="-3.23670300655067">
        <ele>928.39999999999998</ele>
        <time>2003-04-20T18:01:03Z</time>
      </trkpt>
      <trkpt lat="37.326518017798662" lon="-3.237887034192681">
        <ele>934.79999999999995</ele>
        <time>2003-04-20T18:01:07Z</time>
      </trkpt>
      <trkpt lat="37.326375022530556" lon="-3.239082964137197">
        <ele>941.29999999999995</ele>
        <time>2003-04-20T18:01:11Z</time>
      </trkpt>
      <trkpt lat="37.326176958158612" lon="-3.240262968465686">
        <ele>947.70000000000005</ele>
        <time>2003-04-20T18:01:15Z</time>
      </trkpt>
      <trkpt lat="37.325966991484165" lon="-3.241438027471304">
        <ele>954.20000000000005</ele>
        <time>2003-04-20T18:01:19Z</time>
      </trkpt>
      <trkpt lat="37.325779991224408" lon="-3.242607973515987">
        <ele>960.89999999999998</ele>
        <time>2003-04-20T18:01:23Z</time>
      </trkpt>
      <trkpt lat="37.325717965140939" lon="-3.24349301867187">
        <ele>966.10000000000002</ele>
        <time>2003-04-20T18:01:26Z</time>
      </trkpt>
      <trkpt lat="37.325787032023072" lon="-3.244666988030076">
        <ele>972.89999999999998</ele>
        <time>2003-04-20T18:01:30Z</time>
      </trkpt>
      <trkpt lat="37.325804969295859" lon="-3.245840035378933">
        <ele>979.5</ele>
        <time>2003-04-20T18:01:34Z</time>
      </trkpt>
      <trkpt lat="37.325730035081506" lon="-3.246419979259372">
        <ele>982.5</ele>
        <time>2003-04-20T18:01:37Z</time>
      </trkpt>
      <trkpt lat="37.325587039813399" lon="-3.246977962553501">
        <ele>986.10000000000002</ele>
        <time>2003-04-20T18:01:38Z</time>
      </trkpt>
      <trkpt lat="37.325291996821761" lon="-3.247762005776167">
        <ele>991.60000000000002</ele>
        <time>2003-04-20T18:01:42Z</time>
      </trkpt>
      <trkpt lat="37.324901986867189" lon="-3.248791974037886">
        <ele>998.79999999999995</ele>
        <time>2003-04-20T18:01:46Z</time>
      </trkpt>
      <trkpt lat="37.324565034359694" lon="-3.249835018068552">
        <ele>1005.9</ele>
        <time>2003-04-20T18:01:49Z</time>
      </trkpt>
      <trkpt lat="37.324469983577728" lon="-3.250385038554668">
        <ele>1009.1</ele>
        <time>2003-04-20T18:01:52Z</time>
      </trkpt>
      <trkpt lat="37.324414998292923" lon="-3.25122800655663">
        <ele>1013.4</ele>
        <time>2003-04-20T18:01:54Z</time>
      </trkpt>
      <trkpt lat="37.324490016326308" lon="-3.252357970923185">
        <ele>1019.2</ele>
        <time>2003-04-20T18:01:58Z</time>
      </trkpt>
      <trkpt lat="37.324609961360693" lon="-3.253505034372211">
        <ele>1024.5999999999999</ele>
        <time>2003-04-20T18:02:02Z</time>
      </trkpt>
      <trkpt lat="37.324666958302259" lon="-3.254676992073655">
        <ele>1030</ele>
        <time>2003-04-20T18:02:06Z</time>
      </trkpt>
      <trkpt lat="37.324607027694583" lon="-3.255877029150724">
        <ele>1034.5999999999999</ele>
        <time>2003-04-20T18:02:11Z</time>
      </trkpt>
      <trkpt lat="37.324441988021135" lon="-3.25677297078073">
        <ele>1037.7</ele>
        <time>2003-04-20T18:02:13Z</time>
      </trkpt>
      <trkpt lat="37.324157003313303" lon="-3.257632032036781">
        <ele>1041.8</ele>
        <time>2003-04-20T18:02:16Z</time>
      </trkpt>
      <trkpt lat="37.323660040274262" lon="-3.258707011118531">
        <ele>1047.7</ele>
        <time>2003-04-20T18:02:20Z</time>
      </trkpt>
      <trkpt lat="37.32320498675108" lon="-3.25982297770679">
        <ele>1052.5</ele>
        <time>2003-04-20T18:02:24Z</time>
      </trkpt>
      <trkpt lat="37.322987979277968" lon="-3.260735012590885">
        <ele>1056.0999999999999</ele>
        <time>2003-04-20T18:02:28Z</time>
      </trkpt>
      <trkpt lat="37.322768038138747" lon="-3.26197000220418">
        <ele>1061</ele>
        <time>2003-04-20T18:02:32Z</time>
      </trkpt>
      <trkpt lat="37.322524962946773" lon="-3.263328038156033">
        <ele>1064.3</ele>
        <time>2003-04-20T18:02:36Z</time>
      </trkpt>
      <trkpt lat="37.322326982393861" lon="-3.264648020267487">
        <ele>1064.9000000000001</ele>
        <time>2003-04-20T18:02:42Z</time>
      </trkpt>
      <trkpt lat="37.322179963812232" lon="-3.266034973785281">
        <ele>1066.0999999999999</ele>
        <time>2003-04-20T18:02:47Z</time>
      </trkpt>
      <trkpt lat="37.322097988799214" lon="-3.266997970640659">
        <ele>1069.0999999999999</ele>
        <time>2003-04-20T18:02:51Z</time>
      </trkpt>
      <trkpt lat="37.322103017941117" lon="-3.267561988905072">
        <ele>1071</ele>
        <time>2003-04-20T18:02:54Z</time>
      </trkpt>
      <trkpt lat="37.322209971025586" lon="-3.26809499412775">
        <ele>1072.5999999999999</ele>
        <time>2003-04-20T18:02:56Z</time>
      </trkpt>
      <trkpt lat="37.322369981557131" lon="-3.268439993262291">
        <ele>1074.7</ele>
        <time>2003-04-20T18:02:59Z</time>
      </trkpt>
      <trkpt lat="37.32258003205061" lon="-3.268752973526716">
        <ele>1076.7</ele>
        <time>2003-04-20T18:03:00Z</time>
      </trkpt>
      <trkpt lat="37.322837021201849" lon="-3.26899697072804">
        <ele>1078.7</ele>
        <time>2003-04-20T18:03:03Z</time>
      </trkpt>
      <trkpt lat="37.323078000918031" lon="-3.269141977652907">
        <ele>1079.5999999999999</ele>
        <time>2003-04-20T18:03:05Z</time>
      </trkpt>
      <trkpt lat="37.323285033926368" lon="-3.26923199929297">
        <ele>1079.7</ele>
        <time>2003-04-20T18:03:07Z</time>
      </trkpt>
      <trkpt lat="37.323809992522001" lon="-3.269457975402474">
        <ele>1079.5</ele>
        <time>2003-04-20T18:03:10Z</time>
      </trkpt>
      <trkpt lat="37.324537038803101" lon="-3.269840022549033">
        <ele>1079.5</ele>
        <time>2003-04-20T18:03:15Z</time>
      </trkpt>
      <trkpt lat="37.325257966294885" lon="-3.270482998341322">
        <ele>1079.8</ele>
        <time>2003-04-20T18:03:21Z</time>
      </trkpt>
      <trkpt lat="37.326072016730905" lon="-3.271205015480518">
        <ele>1081.4000000000001</ele>
        <time>2003-04-20T18:03:26Z</time>
      </trkpt>
      <trkpt lat="37.326978016644716" lon="-3.272001966834068">
        <ele>1083.0999999999999</ele>
        <time>2003-04-20T18:03:30Z</time>
      </trkpt>
      <trkpt lat="37.327757030725479" lon="-3.272698000073433">
        <ele>1084.4000000000001</ele>
        <time>2003-04-20T18:03:34Z</time>
      </trkpt>
      <trkpt lat="37.328578038141131" lon="-3.273412976413965">
        <ele>1085.3</ele>
        <time>2003-04-20T18:03:38Z</time>
      </trkpt>
      <trkpt lat="37.329397033900023" lon="-3.274142034351826">
        <ele>1086.5</ele>
        <time>2003-04-20T18:03:42Z</time>
      </trkpt>
      <trkpt lat="37.330217035487294" lon="-3.274876959621906">
        <ele>1087.8</ele>
        <time>2003-04-20T18:03:46Z</time>
      </trkpt>
      <trkpt lat="37.33104701153934" lon="-3.275607023388147">
        <ele>1089</ele>
        <time>2003-04-20T18:03:50Z</time>
      </trkpt>
      <trkpt lat="37.33188696205616" lon="-3.276329962536693">
        <ele>1091</ele>
        <time>2003-04-20T18:03:54Z</time>
      </trkpt>
      <trkpt lat="37.332722973078489" lon="-3.277066983282566">
        <ele>1093.4000000000001</ele>
        <time>2003-04-20T18:03:59Z</time>
      </trkpt>
      <trkpt lat="37.333554960787296" lon="-3.277799980714917">
        <ele>1096</ele>
        <time>2003-04-20T18:04:03Z</time>
      </trkpt>
      <trkpt lat="37.334388038143516" lon="-3.278540018945932">
        <ele>1098.0999999999999</ele>
        <time>2003-04-20T18:04:07Z</time>
      </trkpt>
      <trkpt lat="37.335230000317097" lon="-3.27928701415658">
        <ele>1099.8</ele>
        <time>2003-04-20T18:04:11Z</time>
      </trkpt>
      <trkpt lat="37.336086966097355" lon="-3.28003803268075">
        <ele>1101.0999999999999</ele>
        <time>2003-04-20T18:04:15Z</time>
      </trkpt>
      <trkpt lat="37.336919959634542" lon="-3.280764995142818">
        <ele>1101.7</ele>
        <time>2003-04-20T18:04:19Z</time>
      </trkpt>
      <trkpt lat="37.337693022564054" lon="-3.281477959826589">
        <ele>1102.7</ele>
        <time>2003-04-20T18:04:23Z</time>
      </trkpt>
      <trkpt lat="37.338434988632798" lon="-3.282287986949086">
        <ele>1103.5999999999999</ele>
        <time>2003-04-20T18:04:27Z</time>
      </trkpt>
      <trkpt lat="37.339148037135601" lon="-3.283185018226504">
        <ele>1104.2</ele>
        <time>2003-04-20T18:04:31Z</time>
      </trkpt>
      <trkpt lat="37.339911963790655" lon="-3.28405698761344">
        <ele>1104.8</ele>
        <time>2003-04-20T18:04:35Z</time>
      </trkpt>
      <trkpt lat="37.340713022276759" lon="-3.284898027777672">
        <ele>1105.5999999999999</ele>
        <time>2003-04-20T18:04:39Z</time>
      </trkpt>
      <trkpt lat="37.341563031077385" lon="-3.285666983574629">
        <ele>1105.9000000000001</ele>
        <time>2003-04-20T18:04:43Z</time>
      </trkpt>
      <trkpt lat="37.342468025162816" lon="-3.286347007378936">
        <ele>1107.2</ele>
        <time>2003-04-20T18:04:47Z</time>
      </trkpt>
      <trkpt lat="37.343342006206512" lon="-3.286897027865052">
        <ele>1107.4000000000001</ele>
        <time>2003-04-20T18:04:51Z</time>
      </trkpt>
      <trkpt lat="37.344093024730682" lon="-3.287346968427301">
        <ele>1106.9000000000001</ele>
        <time>2003-04-20T18:04:55Z</time>
      </trkpt>
      <trkpt lat="37.344392007216811" lon="-3.287530029192567">
        <ele>1106.9000000000001</ele>
        <time>2003-04-20T18:04:57Z</time>
      </trkpt>
      <trkpt lat="37.344783022999763" lon="-3.28777302056551">
        <ele>1106.7</ele>
        <time>2003-04-20T18:04:59Z</time>
      </trkpt>
      <trkpt lat="37.345660021528602" lon="-3.288303008303046">
        <ele>1108</ele>
        <time>2003-04-20T18:05:06Z</time>
      </trkpt>
      <trkpt lat="37.346426965668797" lon="-3.288684971630573">
        <ele>1110</ele>
        <time>2003-04-20T18:05:13Z</time>
      </trkpt>
      <trkpt lat="37.346719997003675" lon="-3.28874004073441">
        <ele>1110.2</ele>
        <time>2003-04-20T18:05:14Z</time>
      </trkpt>
      <trkpt lat="37.346872966736555" lon="-3.288725037127733">
        <ele>1110.4000000000001</ele>
        <time>2003-04-20T18:05:15Z</time>
      </trkpt>
      <trkpt lat="37.34718301333487" lon="-3.288626968860626">
        <ele>1110.3</ele>
        <time>2003-04-20T18:05:18Z</time>
      </trkpt>
      <trkpt lat="37.348541971296072" lon="-3.287947028875351">
        <ele>1106.8</ele>
        <time>2003-04-20T18:05:25Z</time>
      </trkpt>
      <trkpt lat="37.349551990628242" lon="-3.287434978410602">
        <ele>1103.4000000000001</ele>
        <time>2003-04-20T18:05:30Z</time>
      </trkpt>
      <trkpt lat="37.350403005257249" lon="-3.286991994827986">
        <ele>1100.5</ele>
        <time>2003-04-20T18:05:34Z</time>
      </trkpt>
      <trkpt lat="37.351282015442848" lon="-3.286538030952215">
        <ele>1097.3</ele>
        <time>2003-04-20T18:05:38Z</time>
      </trkpt>
      <trkpt lat="37.352175023406744" lon="-3.286079959943891">
        <ele>1094.5</ele>
        <time>2003-04-20T18:05:42Z</time>
      </trkpt>
      <trkpt lat="37.35307197086513" lon="-3.285619961097837">
        <ele>1092.7</ele>
        <time>2003-04-20T18:05:47Z</time>
      </trkpt>
      <trkpt lat="37.353970007970929" lon="-3.285159962251782">
        <ele>1092</ele>
        <time>2003-04-20T18:05:51Z</time>
      </trkpt>
      <trkpt lat="37.354869972914457" lon="-3.284692000597715">
        <ele>1092.2</ele>
        <time>2003-04-20T18:05:55Z</time>
      </trkpt>
      <trkpt lat="37.35579801723361" lon="-3.284210041165352">
        <ele>1091.9000000000001</ele>
        <time>2003-04-20T18:05:59Z</time>
      </trkpt>
      <trkpt lat="37.356765037402511" lon="-3.283711988478899">
        <ele>1091</ele>
        <time>2003-04-20T18:06:03Z</time>
      </trkpt>
      <trkpt lat="37.357772039249539" lon="-3.283206978812814">
        <ele>1089.3</ele>
        <time>2003-04-20T18:06:07Z</time>
      </trkpt>
      <trkpt lat="37.358779963105917" lon="-3.282677996903658">
        <ele>1088.0999999999999</ele>
        <time>2003-04-20T18:06:11Z</time>
      </trkpt>
      <trkpt lat="37.359753018245101" lon="-3.282192014157772">
        <ele>1086.8</ele>
        <time>2003-04-20T18:06:15Z</time>
      </trkpt>
      <trkpt lat="37.360775023698807" lon="-3.28167200088501">
        <ele>1085.3</ele>
        <time>2003-04-20T18:06:19Z</time>
      </trkpt>
      <trkpt lat="37.361844973638654" lon="-3.281124997884035">
        <ele>1083.8</ele>
        <time>2003-04-20T18:06:23Z</time>
      </trkpt>
      <trkpt lat="37.362949959933758" lon="-3.28055502846837">
        <ele>1082.4000000000001</ele>
        <time>2003-04-20T18:06:27Z</time>
      </trkpt>
      <trkpt lat="37.364034997299314" lon="-3.279987992718816">
        <ele>1081.0999999999999</ele>
        <time>2003-04-20T18:06:31Z</time>
      </trkpt>
      <trkpt lat="37.365137971937656" lon="-3.279435038566589">
        <ele>1079.7</ele>
        <time>2003-04-20T18:06:35Z</time>
      </trkpt>
      <trkpt lat="37.365980017930269" lon="-3.279004963114858">
        <ele>1078.5</ele>
        <time>2003-04-20T18:06:38Z</time>
      </trkpt>
      <trkpt lat="37.366836983710527" lon="-3.278567008674145">
        <ele>1077.2</ele>
        <time>2003-04-20T18:06:41Z</time>
      </trkpt>
      <trkpt lat="37.367699984461069" lon="-3.278116984292865">
        <ele>1076</ele>
        <time>2003-04-20T18:06:45Z</time>
      </trkpt>
      <trkpt lat="37.368572037667036" lon="-3.277667965739965">
        <ele>1074.5999999999999</ele>
        <time>2003-04-20T18:06:46Z</time>
      </trkpt>
      <trkpt lat="37.369447024539113" lon="-3.27722498215735">
        <ele>1073.0999999999999</ele>
        <time>2003-04-20T18:06:50Z</time>
      </trkpt>
      <trkpt lat="37.370319999754429" lon="-3.276775041595101">
        <ele>1072</ele>
        <time>2003-04-20T18:06:53Z</time>
      </trkpt>
      <trkpt lat="37.371176965534687" lon="-3.276329962536693">
        <ele>1070.8</ele>
        <time>2003-04-20T18:06:55Z</time>
      </trkpt>
      <trkpt lat="37.372027980163693" lon="-3.275897959247232">
        <ele>1069.5</ele>
        <time>2003-04-20T18:06:59Z</time>
      </trkpt>
      <trkpt lat="37.372864997014403" lon="-3.27546302229166">
        <ele>1068.2</ele>
        <time>2003-04-20T18:07:02Z</time>
      </trkpt>
      <trkpt lat="37.373963026329875" lon="-3.274896992370486">
        <ele>1066.4000000000001</ele>
        <time>2003-04-20T18:07:06Z</time>
      </trkpt>
      <trkpt lat="37.375000035390258" lon="-3.27438997104764">
        <ele>1064.8</ele>
        <time>2003-04-20T18:07:10Z</time>
      </trkpt>
      <trkpt lat="37.376069985330105" lon="-3.273971965536475">
        <ele>1064.5</ele>
        <time>2003-04-20T18:07:14Z</time>
      </trkpt>
      <trkpt lat="37.377138007432222" lon="-3.273740038275719">
        <ele>1066.2</ele>
        <time>2003-04-20T18:07:18Z</time>
      </trkpt>
      <trkpt lat="37.378158001229167" lon="-3.273674994707108">
        <ele>1069.5</ele>
        <time>2003-04-20T18:07:22Z</time>
      </trkpt>
      <trkpt lat="37.378411972895265" lon="-3.273689998313785">
        <ele>1070.7</ele>
        <time>2003-04-20T18:07:24Z</time>
      </trkpt>
      <trkpt lat="37.3794100061059" lon="-3.273870041593909">
        <ele>1074.5</ele>
        <time>2003-04-20T18:07:28Z</time>
      </trkpt>
      <trkpt lat="37.380393035709858" lon="-3.274186961352825">
        <ele>1077.0999999999999</ele>
        <time>2003-04-20T18:07:32Z</time>
      </trkpt>
      <trkpt lat="37.381370030343533" lon="-3.27462499961257">
        <ele>1078.3</ele>
        <time>2003-04-20T18:07:36Z</time>
      </trkpt>
      <trkpt lat="37.382373008877039" lon="-3.275094972923398">
        <ele>1078.4000000000001</ele>
        <time>2003-04-20T18:07:40Z</time>
      </trkpt>
      <trkpt lat="37.383399959653616" lon="-3.27561498619616">
        <ele>1078.5</ele>
        <time>2003-04-20T18:07:44Z</time>
      </trkpt>
      <trkpt lat="37.384458007290959" lon="-3.2761500030756">
        <ele>1078.0999999999999</ele>
        <time>2003-04-20T18:07:48Z</time>
      </trkpt>
      <trkpt lat="37.385542960837483" lon="-3.276712009683251">
        <ele>1078.4000000000001</ele>
        <time>2003-04-20T18:07:52Z</time>
      </trkpt>
      <trkpt lat="37.386641995981336" lon="-3.277277033776045">
        <ele>1078.4000000000001</ele>
        <time>2003-04-20T18:07:56Z</time>
      </trkpt>
      <trkpt lat="37.387729967013001" lon="-3.277831999585033">
        <ele>1078.7</ele>
        <time>2003-04-20T18:08:00Z</time>
      </trkpt>
      <trkpt lat="37.388781979680061" lon="-3.278356958180666">
        <ele>1078.5</ele>
        <time>2003-04-20T18:08:04Z</time>
      </trkpt>
      <trkpt lat="37.389816977083683" lon="-3.278889963403344">
        <ele>1078.3</ele>
        <time>2003-04-20T18:08:07Z</time>
      </trkpt>
      <trkpt lat="37.390839988365769" lon="-3.279405031353235">
        <ele>1078.5999999999999</ele>
        <time>2003-04-20T18:08:11Z</time>
      </trkpt>
      <trkpt lat="37.391822012141347" lon="-3.279907023534179">
        <ele>1078.8</ele>
        <time>2003-04-20T18:08:15Z</time>
      </trkpt>
      <trkpt lat="37.392790038138628" lon="-3.280414966866374">
        <ele>1079.0999999999999</ele>
        <time>2003-04-20T18:08:19Z</time>
      </trkpt>
      <trkpt lat="37.39365303888917" lon="-3.280934980139136">
        <ele>1079.0999999999999</ele>
        <time>2003-04-20T18:08:23Z</time>
      </trkpt>
      <trkpt lat="37.394634978845716" lon="-3.281558007001877">
        <ele>1078.5</ele>
        <time>2003-04-20T18:08:29Z</time>
      </trkpt>
      <trkpt lat="37.395471995696425" lon="-3.282087994739413">
        <ele>1076.8</ele>
        <time>2003-04-20T18:08:33Z</time>
      </trkpt>
      <trkpt lat="37.396346982568502" lon="-3.28268202021718">
        <ele>1075.0999999999999</ele>
        <time>2003-04-20T18:08:37Z</time>
      </trkpt>
      <trkpt lat="37.397249964997172" lon="-3.28334997408092">
        <ele>1072.5</ele>
        <time>2003-04-20T18:08:41Z</time>
      </trkpt>
      <trkpt lat="37.398141967132688" lon="-3.28407702036202">
        <ele>1069.5</ele>
        <time>2003-04-20T18:08:45Z</time>
      </trkpt>
      <trkpt lat="37.399051990360022" lon="-3.284889981150627">
        <ele>1065.3</ele>
        <time>2003-04-20T18:08:49Z</time>
      </trkpt>
      <trkpt lat="37.39997198805213" lon="-3.285805033519864">
        <ele>1060.0999999999999</ele>
        <time>2003-04-20T18:08:53Z</time>
      </trkpt>
      <trkpt lat="37.400674978271127" lon="-3.286556974053383">
        <ele>1055.8</ele>
        <time>2003-04-20T18:08:56Z</time>
      </trkpt>
      <trkpt lat="37.401372017338872" lon="-3.287349985912442">
        <ele>1051.3</ele>
        <time>2003-04-20T18:08:58Z</time>
      </trkpt>
      <trkpt lat="37.402052963152528" lon="-3.288193037733436">
        <ele>1046.9000000000001</ele>
        <time>2003-04-20T18:09:01Z</time>
      </trkpt>
      <trkpt lat="37.402717983350158" lon="-3.289074981585145">
        <ele>1042.3</ele>
        <time>2003-04-20T18:09:05Z</time>
      </trkpt>
      <trkpt lat="37.403352996334434" lon="-3.290007971227169">
        <ele>1037.5999999999999</ele>
        <time>2003-04-20T18:09:08Z</time>
      </trkpt>
      <trkpt lat="37.403978034853935" lon="-3.290971973910928">
        <ele>1032.8</ele>
        <time>2003-04-20T18:09:10Z</time>
      </trkpt>
      <trkpt lat="37.404584968462586" lon="-3.291975036263466">
        <ele>1028.5</ele>
        <time>2003-04-20T18:09:13Z</time>
      </trkpt>
      <trkpt lat="37.405191985890269" lon="-3.292997963726521">
        <ele>1024.7</ele>
        <time>2003-04-20T18:09:17Z</time>
      </trkpt>
      <trkpt lat="37.405781988054514" lon="-3.294043019413948">
        <ele>1022.3</ele>
        <time>2003-04-20T18:09:20Z</time>
      </trkpt>
      <trkpt lat="37.406366961076856" lon="-3.295084973797202">
        <ele>1020.8</ele>
        <time>2003-04-20T18:09:23Z</time>
      </trkpt>
      <trkpt lat="37.406944977119565" lon="-3.296102033928037">
        <ele>1020.5</ele>
        <time>2003-04-20T18:09:25Z</time>
      </trkpt>
      <trkpt lat="37.407497009262443" lon="-3.297092020511627">
        <ele>1020.6</ele>
        <time>2003-04-20T18:09:28Z</time>
      </trkpt>
      <trkpt lat="37.408039988949895" lon="-3.298062980175018">
        <ele>1020.5</ele>
        <time>2003-04-20T18:09:32Z</time>
      </trkpt>
      <trkpt lat="37.408580034971237" lon="-3.299035029485822">
        <ele>1020.6</ele>
        <time>2003-04-20T18:09:35Z</time>
      </trkpt>
      <trkpt lat="37.409129971638322" lon="-3.299992997199297">
        <ele>1020.5</ele>
        <time>2003-04-20T18:09:37Z</time>
      </trkpt>
      <trkpt lat="37.409813012927771" lon="-3.301205020397902">
        <ele>1020.4</ele>
        <time>2003-04-20T18:09:41Z</time>
      </trkpt>
      <trkpt lat="37.410488007590175" lon="-3.302412014454603">
        <ele>1020.4</ele>
        <time>2003-04-20T18:09:45Z</time>
      </trkpt>
      <trkpt lat="37.411155039444566" lon="-3.30360702238977">
        <ele>1020.5</ele>
        <time>2003-04-20T18:09:50Z</time>
      </trkpt>
      <trkpt lat="37.411728026345372" lon="-3.30479197204113">
        <ele>1021.1</ele>
        <time>2003-04-20T18:09:54Z</time>
      </trkpt>
      <trkpt lat="37.412030026316643" lon="-3.305697971954942">
        <ele>1022.1</ele>
        <time>2003-04-20T18:09:56Z</time>
      </trkpt>
      <trkpt lat="37.412203028798103" lon="-3.306653006002307">
        <ele>1023.4</ele>
        <time>2003-04-20T18:09:59Z</time>
      </trkpt>
      <trkpt lat="37.41226295940578" lon="-3.307620026171207">
        <ele>1024.9000000000001</ele>
        <time>2003-04-20T18:10:03Z</time>
      </trkpt>
      <trkpt lat="37.412172015756369" lon="-3.308907989412546">
        <ele>1026.9000000000001</ele>
        <time>2003-04-20T18:10:07Z</time>
      </trkpt>
      <trkpt lat="37.411968000233173" lon="-3.309837961569428">
        <ele>1029</ele>
        <time>2003-04-20T18:10:10Z</time>
      </trkpt>
      <trkpt lat="37.411642028018832" lon="-3.310701968148351">
        <ele>1031</ele>
        <time>2003-04-20T18:10:12Z</time>
      </trkpt>
      <trkpt lat="37.411131989210844" lon="-3.311824975535274">
        <ele>1033.7</ele>
        <time>2003-04-20T18:10:17Z</time>
      </trkpt>
      <trkpt lat="37.410647012293339" lon="-3.312985030934215">
        <ele>1038.2</ele>
        <time>2003-04-20T18:10:21Z</time>
      </trkpt>
      <trkpt lat="37.410243004560471" lon="-3.314205016940832">
        <ele>1042.8</ele>
        <time>2003-04-20T18:10:25Z</time>
      </trkpt>
      <trkpt lat="37.409903034567833" lon="-3.315461967140436">
        <ele>1047.4000000000001</ele>
        <time>2003-04-20T18:10:29Z</time>
      </trkpt>
      <trkpt lat="37.409634981304407" lon="-3.316738028079271">
        <ele>1052.4000000000001</ele>
        <time>2003-04-20T18:10:33Z</time>
      </trkpt>
      <trkpt lat="37.40946801379323" lon="-3.318039989098907">
        <ele>1057.5</ele>
        <time>2003-04-20T18:10:37Z</time>
      </trkpt>
      <trkpt lat="37.409370029345155" lon="-3.319349996745586">
        <ele>1061.3</ele>
        <time>2003-04-20T18:10:41Z</time>
      </trkpt>
      <trkpt lat="37.409359971061349" lon="-3.320652963593602">
        <ele>1063.7</ele>
        <time>2003-04-20T18:10:45Z</time>
      </trkpt>
      <trkpt lat="37.409423002973199" lon="-3.321960037574172">
        <ele>1065.4000000000001</ele>
        <time>2003-04-20T18:10:49Z</time>
      </trkpt>
      <trkpt lat="37.409572033211589" lon="-3.323268033564091">
        <ele>1067.4000000000001</ele>
        <time>2003-04-20T18:10:53Z</time>
      </trkpt>
      <trkpt lat="37.409802032634616" lon="-3.324596984311938">
        <ele>1069.3</ele>
        <time>2003-04-20T18:10:57Z</time>
      </trkpt>
      <trkpt lat="37.41013303399086" lon="-3.325931970030069">
        <ele>1068.7</ele>
        <time>2003-04-20T18:11:01Z</time>
      </trkpt>
      <trkpt lat="37.410487001761794" lon="-3.32722001709044">
        <ele>1067.5</ele>
        <time>2003-04-20T18:11:05Z</time>
      </trkpt>
      <trkpt lat="37.410622034221888" lon="-3.328159963712096">
        <ele>1067.5</ele>
        <time>2003-04-20T18:11:08Z</time>
      </trkpt>
      <trkpt lat="37.410678025335073" lon="-3.329457985237241">
        <ele>1067.5</ele>
        <time>2003-04-20T18:11:12Z</time>
      </trkpt>
      <trkpt lat="37.410726975649595" lon="-3.330785008147359">
        <ele>1067.4000000000001</ele>
        <time>2003-04-20T18:11:16Z</time>
      </trkpt>
      <trkpt lat="37.410838035866618" lon="-3.332041958346963">
        <ele>1067.5</ele>
        <time>2003-04-20T18:11:20Z</time>
      </trkpt>
      <trkpt lat="37.411022018641233" lon="-3.333290023729205">
        <ele>1068.0999999999999</ele>
        <time>2003-04-20T18:11:24Z</time>
      </trkpt>
      <trkpt lat="37.411147998645902" lon="-3.33444002084434">
        <ele>1068.9000000000001</ele>
        <time>2003-04-20T18:11:28Z</time>
      </trkpt>
      <trkpt lat="37.411089995875955" lon="-3.335327999666333">
        <ele>1068.9000000000001</ele>
        <time>2003-04-20T18:11:31Z</time>
      </trkpt>
      <trkpt lat="37.410887992009521" lon="-3.336561983451247">
        <ele>1069.3</ele>
        <time>2003-04-20T18:11:35Z</time>
      </trkpt>
      <trkpt lat="37.41073502227664" lon="-3.337854975834489">
        <ele>1069.7</ele>
        <time>2003-04-20T18:11:39Z</time>
      </trkpt>
      <trkpt lat="37.410767963156104" lon="-3.338517984375358">
        <ele>1070.2</ele>
        <time>2003-04-20T18:11:40Z</time>
      </trkpt>
      <trkpt lat="37.410942977294326" lon="-3.339490033686161">
        <ele>1071</ele>
        <time>2003-04-20T18:11:43Z</time>
      </trkpt>
      <trkpt lat="37.411283031105995" lon="-3.340698033571243">
        <ele>1071.2</ele>
        <time>2003-04-20T18:11:47Z</time>
      </trkpt>
      <trkpt lat="37.41157203912735" lon="-3.341937968507409">
        <ele>1070.4000000000001</ele>
        <time>2003-04-20T18:11:51Z</time>
      </trkpt>
      <trkpt lat="37.41161503829062" lon="-3.342577004805207">
        <ele>1069.7</ele>
        <time>2003-04-20T18:11:54Z</time>
      </trkpt>
      <trkpt lat="37.411557035520673" lon="-3.343543019145727">
        <ele>1069.4000000000001</ele>
        <time>2003-04-20T18:11:56Z</time>
      </trkpt>
      <trkpt lat="37.411474976688623" lon="-3.344831988215447">
        <ele>1072.0999999999999</ele>
        <time>2003-04-20T18:12:00Z</time>
      </trkpt>
      <trkpt lat="37.411486962810159" lon="-3.346109976992011">
        <ele>1075.5</ele>
        <time>2003-04-20T18:12:05Z</time>
      </trkpt>
      <trkpt lat="37.411527028307319" lon="-3.347406992688775">
        <ele>1076.3</ele>
        <time>2003-04-20T18:12:09Z</time>
      </trkpt>
      <trkpt lat="37.411567009985447" lon="-3.348724963143468">
        <ele>1078.2</ele>
        <time>2003-04-20T18:12:13Z</time>
      </trkpt>
      <trkpt lat="37.411610009148717" lon="-3.350012004375458">
        <ele>1084</ele>
        <time>2003-04-20T18:12:17Z</time>
      </trkpt>
      <trkpt lat="37.411676980555058" lon="-3.351278007030487">
        <ele>1087.4000000000001</ele>
        <time>2003-04-20T18:12:21Z</time>
      </trkpt>
      <trkpt lat="37.411758033558726" lon="-3.352564964443445">
        <ele>1088</ele>
        <time>2003-04-20T18:12:25Z</time>
      </trkpt>
      <trkpt lat="37.411864986643195" lon="-3.353902967646718">
        <ele>1086.9000000000001</ele>
        <time>2003-04-20T18:12:29Z</time>
      </trkpt>
      <trkpt lat="37.411945033818483" lon="-3.355212975293398">
        <ele>1086.4000000000001</ele>
        <time>2003-04-20T18:12:33Z</time>
      </trkpt>
      <trkpt lat="37.412000019103289" lon="-3.356489958241582">
        <ele>1086.8</ele>
        <time>2003-04-20T18:12:37Z</time>
      </trkpt>
      <trkpt lat="37.412040000781417" lon="-3.357793008908629">
        <ele>1088</ele>
        <time>2003-04-20T18:12:41Z</time>
      </trkpt>
      <trkpt lat="37.412072019651532" lon="-3.359111985191703">
        <ele>1088.9000000000001</ele>
        <time>2003-04-20T18:12:45Z</time>
      </trkpt>
      <trkpt lat="37.412079982459545" lon="-3.360419981181622">
        <ele>1089.9000000000001</ele>
        <time>2003-04-20T18:12:49Z</time>
      </trkpt>
      <trkpt lat="37.411992978304625" lon="-3.361356994137168">
        <ele>1090.3</ele>
        <time>2003-04-20T18:12:52Z</time>
      </trkpt>
      <trkpt lat="37.411758033558726" lon="-3.362256959080696">
        <ele>1092.0999999999999</ele>
        <time>2003-04-20T18:12:54Z</time>
      </trkpt>
      <trkpt lat="37.411325024440885" lon="-3.363394970074296">
        <ele>1094.4000000000001</ele>
        <time>2003-04-20T18:12:59Z</time>
      </trkpt>
      <trkpt lat="37.410917999222875" lon="-3.364564999938011">
        <ele>1096.0999999999999</ele>
        <time>2003-04-20T18:13:03Z</time>
      </trkpt>
      <trkpt lat="37.410699985921383" lon="-3.365492960438132">
        <ele>1096.8</ele>
        <time>2003-04-20T18:13:05Z</time>
      </trkpt>
      <trkpt lat="37.410522038117051" lon="-3.366787964478135">
        <ele>1097.3</ele>
        <time>2003-04-20T18:13:09Z</time>
      </trkpt>
      <trkpt lat="37.410315005108714" lon="-3.368050027638674">
        <ele>1097</ele>
        <time>2003-04-20T18:13:13Z</time>
      </trkpt>
      <trkpt lat="37.410030020400882" lon="-3.368959967046976">
        <ele>1096.0999999999999</ele>
        <time>2003-04-20T18:13:16Z</time>
      </trkpt>
      <trkpt lat="37.409613020718098" lon="-3.369790026918054">
        <ele>1094.8</ele>
        <time>2003-04-20T18:13:20Z</time>
      </trkpt>
      <trkpt lat="37.409072974696755" lon="-3.370527969673276">
        <ele>1093.0999999999999</ele>
        <time>2003-04-20T18:13:23Z</time>
      </trkpt>
      <trkpt lat="37.408302007243037" lon="-3.371512005105615">
        <ele>1090</ele>
        <time>2003-04-20T18:13:27Z</time>
      </trkpt>
      <trkpt lat="37.407609997317195" lon="-3.37264196947217">
        <ele>1086.0999999999999</ele>
        <time>2003-04-20T18:13:31Z</time>
      </trkpt>
      <trkpt lat="37.407372035086155" lon="-3.373261978849769">
        <ele>1084.2</ele>
        <time>2003-04-20T18:13:32Z</time>
      </trkpt>
      <trkpt lat="37.407128037884831" lon="-3.37423000484705">
        <ele>1081.4000000000001</ele>
        <time>2003-04-20T18:13:35Z</time>
      </trkpt>
      <trkpt lat="37.406982025131583" lon="-3.375579994171858">
        <ele>1078</ele>
        <time>2003-04-20T18:13:39Z</time>
      </trkpt>
      <trkpt lat="37.406855039298534" lon="-3.376902993768454">
        <ele>1074.7</ele>
        <time>2003-04-20T18:13:43Z</time>
      </trkpt>
      <trkpt lat="37.406627973541617" lon="-3.378251977264881">
        <ele>1071.2</ele>
        <time>2003-04-20T18:13:47Z</time>
      </trkpt>
      <trkpt lat="37.406381964683533" lon="-3.379565002396703">
        <ele>1067.4000000000001</ele>
        <time>2003-04-20T18:13:51Z</time>
      </trkpt>
      <trkpt lat="37.406220026314259" lon="-3.380860006436706">
        <ele>1063.7</ele>
        <time>2003-04-20T18:13:55Z</time>
      </trkpt>
      <trkpt lat="37.406122963875532" lon="-3.382147969678044">
        <ele>1059.9000000000001</ele>
        <time>2003-04-20T18:13:59Z</time>
      </trkpt>
      <trkpt lat="37.406078036874533" lon="-3.38342797011137">
        <ele>1056.4000000000001</ele>
        <time>2003-04-20T18:14:03Z</time>
      </trkpt>
      <trkpt lat="37.406035037711263" lon="-3.384703025221825">
        <ele>1052.7</ele>
        <time>2003-04-20T18:14:07Z</time>
      </trkpt>
      <trkpt lat="37.405978040769696" lon="-3.385957041755319">
        <ele>1049.2</ele>
        <time>2003-04-20T18:14:11Z</time>
      </trkpt>
      <trkpt lat="37.405905034393072" lon="-3.387184990569949">
        <ele>1045.9000000000001</ele>
        <time>2003-04-20T18:14:15Z</time>
      </trkpt>
      <trkpt lat="37.405854994431138" lon="-3.388537997379899">
        <ele>1042.7</ele>
        <time>2003-04-20T18:14:20Z</time>
      </trkpt>
      <trkpt lat="37.405836973339319" lon="-3.389897961169481">
        <ele>1040.3</ele>
        <time>2003-04-20T18:14:24Z</time>
      </trkpt>
      <trkpt lat="37.405676962807775" lon="-3.391157006844878">
        <ele>1038.7</ele>
        <time>2003-04-20T18:14:28Z</time>
      </trkpt>
      <trkpt lat="37.405427014455199" lon="-3.392046997323632">
        <ele>1037.4000000000001</ele>
        <time>2003-04-20T18:14:30Z</time>
      </trkpt>
      <trkpt lat="37.405057037249207" lon="-3.392902035266161">
        <ele>1036.8</ele>
        <time>2003-04-20T18:14:33Z</time>
      </trkpt>
      <trkpt lat="37.404407020658255" lon="-3.393937032669783">
        <ele>1035.2</ele>
        <time>2003-04-20T18:14:37Z</time>
      </trkpt>
      <trkpt lat="37.403702018782496" lon="-3.394887037575245">
        <ele>1032.3</ele>
        <time>2003-04-20T18:14:41Z</time>
      </trkpt>
      <trkpt lat="37.403234979137778" lon="-3.395660016685724">
        <ele>1029.4000000000001</ele>
        <time>2003-04-20T18:14:45Z</time>
      </trkpt>
      <trkpt lat="37.403017971664667" lon="-3.39627499692142">
        <ele>1027.0999999999999</ele>
        <time>2003-04-20T18:14:47Z</time>
      </trkpt>
      <trkpt lat="37.402871958911419" lon="-3.396936999633908">
        <ele>1025.5</ele>
        <time>2003-04-20T18:14:49Z</time>
      </trkpt>
      <trkpt lat="37.402831977233291" lon="-3.397633032873273">
        <ele>1024.4000000000001</ele>
        <time>2003-04-20T18:14:51Z</time>
      </trkpt>
      <trkpt lat="37.402880005538464" lon="-3.398316996172071">
        <ele>1023.8</ele>
        <time>2003-04-20T18:14:52Z</time>
      </trkpt>
      <trkpt lat="37.403030041605234" lon="-3.399564977735281">
        <ele>1023.7</ele>
        <time>2003-04-20T18:14:56Z</time>
      </trkpt>
      <trkpt lat="37.403010008856654" lon="-3.400495033711195">
        <ele>1023.3</ele>
        <time>2003-04-20T18:15:00Z</time>
      </trkpt>
      <trkpt lat="37.402846980839968" lon="-3.401394998654723">
        <ele>1022.8</ele>
        <time>2003-04-20T18:15:03Z</time>
      </trkpt>
      <trkpt lat="37.40265796892345" lon="-3.401979971677065">
        <ele>1022.4</ele>
        <time>2003-04-20T18:15:04Z</time>
      </trkpt>
      <trkpt lat="37.402393016964197" lon="-3.402529992163181">
        <ele>1021.9</ele>
        <time>2003-04-20T18:15:07Z</time>
      </trkpt>
      <trkpt lat="37.401847019791603" lon="-3.403649982064962">
        <ele>1021.2</ele>
        <time>2003-04-20T18:15:11Z</time>
      </trkpt>
      <trkpt lat="37.401296999305487" lon="-3.404796961694956">
        <ele>1020.3</ele>
        <time>2003-04-20T18:15:15Z</time>
      </trkpt>
      <trkpt lat="37.400785032659769" lon="-3.405977971851826">
        <ele>1019.6</ele>
        <time>2003-04-20T18:15:19Z</time>
      </trkpt>
      <trkpt lat="37.400382030755281" lon="-3.407226959243417">
        <ele>1018.7</ele>
        <time>2003-04-20T18:15:23Z</time>
      </trkpt>
      <trkpt lat="37.400123029947281" lon="-3.408548031002283">
        <ele>1015.3</ele>
        <time>2003-04-20T18:15:27Z</time>
      </trkpt>
      <trkpt lat="37.399875009432435" lon="-3.410292975604534">
        <ele>1009.9</ele>
        <time>2003-04-20T18:15:31Z</time>
      </trkpt>
      <trkpt lat="37.399682980030775" lon="-3.411767017096281">
        <ele>1006.9</ele>
        <time>2003-04-20T18:15:35Z</time>
      </trkpt>
      <trkpt lat="37.399537973105907" lon="-3.412899998947978">
        <ele>1006.2</ele>
        <time>2003-04-20T18:15:39Z</time>
      </trkpt>
      <trkpt lat="37.399345021694899" lon="-3.414316959679127">
        <ele>1005.6</ele>
        <time>2003-04-20T18:15:43Z</time>
      </trkpt>
      <trkpt lat="37.399097001180053" lon="-3.41530803591013">
        <ele>1004.4</ele>
        <time>2003-04-20T18:15:46Z</time>
      </trkpt>
      <trkpt lat="37.398717971518636" lon="-3.416283018887043">
        <ele>1002.6</ele>
        <time>2003-04-20T18:15:49Z</time>
      </trkpt>
      <trkpt lat="37.398159988224506" lon="-3.417566958814859">
        <ele>1000.2</ele>
        <time>2003-04-20T18:15:53Z</time>
      </trkpt>
      <trkpt lat="37.397642992436886" lon="-3.418822987005115">
        <ele>997.60000000000002</ele>
        <time>2003-04-20T18:15:57Z</time>
      </trkpt>
      <trkpt lat="37.397358007729053" lon="-3.419853039085865">
        <ele>996.29999999999995</ele>
        <time>2003-04-20T18:15:59Z</time>
      </trkpt>
      <trkpt lat="37.397187016904354" lon="-3.420952996239066">
        <ele>994.60000000000002</ele>
        <time>2003-04-20T18:16:02Z</time>
      </trkpt>
      <trkpt lat="37.397152986377478" lon="-3.42205798253417">
        <ele>992.60000000000002</ele>
        <time>2003-04-20T18:16:06Z</time>
      </trkpt>
      <trkpt lat="37.397230016067624" lon="-3.423162968829274">
        <ele>991.10000000000002</ele>
        <time>2003-04-20T18:16:09Z</time>
      </trkpt>
      <trkpt lat="37.39741500467062" lon="-3.424607003107667">
        <ele>989.10000000000002</ele>
        <time>2003-04-20T18:16:13Z</time>
      </trkpt>
      <trkpt lat="37.397554982453585" lon="-3.425996974110603">
        <ele>986.79999999999995</ele>
        <time>2003-04-20T18:16:17Z</time>
      </trkpt>
      <trkpt lat="37.397527992725372" lon="-3.42663299292326">
        <ele>985.70000000000005</ele>
        <time>2003-04-20T18:16:18Z</time>
      </trkpt>
      <trkpt lat="37.397421961650252" lon="-3.427272029221058">
        <ele>984.5</ele>
        <time>2003-04-20T18:16:21Z</time>
      </trkpt>
      <trkpt lat="37.397230016067624" lon="-3.427909975871444">
        <ele>983</ele>
        <time>2003-04-20T18:16:22Z</time>
      </trkpt>
      <trkpt lat="37.396777980029583" lon="-3.429225012660027">
        <ele>979.29999999999995</ele>
        <time>2003-04-20T18:16:26Z</time>
      </trkpt>
      <trkpt lat="37.396444967016578" lon="-3.430547006428242">
        <ele>977.20000000000005</ele>
        <time>2003-04-20T18:16:30Z</time>
      </trkpt>
      <trkpt lat="37.396350000053644" lon="-3.431609999388456">
        <ele>975.89999999999998</ele>
        <time>2003-04-20T18:16:33Z</time>
      </trkpt>
      <trkpt lat="37.396434992551804" lon="-3.432989995926619">
        <ele>974.89999999999998</ele>
        <time>2003-04-20T18:16:37Z</time>
      </trkpt>
      <trkpt lat="37.396582011133432" lon="-3.434392036870122">
        <ele>973.79999999999995</ele>
        <time>2003-04-20T18:16:41Z</time>
      </trkpt>
      <trkpt lat="37.396732969209552" lon="-3.435802962630987">
        <ele>973</ele>
        <time>2003-04-20T18:16:45Z</time>
      </trkpt>
      <trkpt lat="37.396849980577826" lon="-3.437112970277667">
        <ele>972.10000000000002</ele>
        <time>2003-04-20T18:16:49Z</time>
      </trkpt>
      <trkpt lat="37.396847968921065" lon="-3.438417026773095">
        <ele>970.89999999999998</ele>
        <time>2003-04-20T18:16:53Z</time>
      </trkpt>
      <trkpt lat="37.396676978096366" lon="-3.439759975299239">
        <ele>969.70000000000005</ele>
        <time>2003-04-20T18:16:57Z</time>
      </trkpt>
      <trkpt lat="37.396350000053644" lon="-3.441108036786318">
        <ele>968.10000000000002</ele>
        <time>2003-04-20T18:17:02Z</time>
      </trkpt>
      <trkpt lat="37.395871980115771" lon="-3.442451991140842">
        <ele>966.60000000000002</ele>
        <time>2003-04-20T18:17:06Z</time>
      </trkpt>
      <trkpt lat="37.395505020394921" lon="-3.443487994372845">
        <ele>965.20000000000005</ele>
        <time>2003-04-20T18:17:08Z</time>
      </trkpt>
      <trkpt lat="37.395015014335513" lon="-3.444847036153078">
        <ele>963.5</ele>
        <time>2003-04-20T18:17:12Z</time>
      </trkpt>
      <trkpt lat="37.394553003832698" lon="-3.446177998557687">
        <ele>960.79999999999995</ele>
        <time>2003-04-20T18:17:16Z</time>
      </trkpt>
      <trkpt lat="37.394082024693489" lon="-3.447477025911212">
        <ele>957.20000000000005</ele>
        <time>2003-04-20T18:17:22Z</time>
      </trkpt>
      <trkpt lat="37.393601993098855" lon="-3.44882701523602">
        <ele>952.10000000000002</ele>
        <time>2003-04-20T18:17:26Z</time>
      </trkpt>
      <trkpt lat="37.39335497841239" lon="-3.449852960184217">
        <ele>948.70000000000005</ele>
        <time>2003-04-20T18:17:29Z</time>
      </trkpt>
      <trkpt lat="37.393296975642443" lon="-3.450580006465316">
        <ele>947.10000000000002</ele>
        <time>2003-04-20T18:17:31Z</time>
      </trkpt>
      <trkpt lat="37.393194967880845" lon="-3.451967965811491">
        <ele>944.89999999999998</ele>
        <time>2003-04-20T18:17:34Z</time>
      </trkpt>
      <trkpt lat="37.392960023134947" lon="-3.452997012063861">
        <ele>944</ele>
        <time>2003-04-20T18:17:38Z</time>
      </trkpt>
      <trkpt lat="37.392622986808419" lon="-3.454397041350603">
        <ele>943.10000000000002</ele>
        <time>2003-04-20T18:17:42Z</time>
      </trkpt>
      <trkpt lat="37.392310006543994" lon="-3.455758010968566">
        <ele>941.60000000000002</ele>
        <time>2003-04-20T18:17:46Z</time>
      </trkpt>
      <trkpt lat="37.392189977690578" lon="-3.45705796033144">
        <ele>938.70000000000005</ele>
        <time>2003-04-20T18:17:50Z</time>
      </trkpt>
      <trkpt lat="37.392272958531976" lon="-3.458386994898319">
        <ele>937.5</ele>
        <time>2003-04-20T18:17:54Z</time>
      </trkpt>
      <trkpt lat="37.392527014017105" lon="-3.459702031686902">
        <ele>939.29999999999995</ele>
        <time>2003-04-20T18:17:58Z</time>
      </trkpt>
      <trkpt lat="37.392781991511583" lon="-3.461023019626737">
        <ele>940.79999999999995</ele>
        <time>2003-04-20T18:18:01Z</time>
      </trkpt>
      <trkpt lat="37.393051972612739" lon="-3.462388012558222">
        <ele>940.70000000000005</ele>
        <time>2003-04-20T18:18:05Z</time>
      </trkpt>
      <trkpt lat="37.393326982855797" lon="-3.463785024359822">
        <ele>940.20000000000005</ele>
        <time>2003-04-20T18:18:09Z</time>
      </trkpt>
      <trkpt lat="37.393584977835417" lon="-3.465217994526029">
        <ele>939.70000000000005</ele>
        <time>2003-04-20T18:18:13Z</time>
      </trkpt>
      <trkpt lat="37.393853031098843" lon="-3.466694969683886">
        <ele>939.10000000000002</ele>
        <time>2003-04-20T18:18:17Z</time>
      </trkpt>
      <trkpt lat="37.394065009430051" lon="-3.467823006212711">
        <ele>938.5</ele>
        <time>2003-04-20T18:18:21Z</time>
      </trkpt>
      <trkpt lat="37.394372038543224" lon="-3.46893796697259">
        <ele>938</ele>
        <time>2003-04-20T18:18:24Z</time>
      </trkpt>
      <trkpt lat="37.394767999649048" lon="-3.469991991296411">
        <ele>937.5</ele>
        <time>2003-04-20T18:18:27Z</time>
      </trkpt>
      <trkpt lat="37.395248031243682" lon="-3.47097703255713">
        <ele>937.20000000000005</ele>
        <time>2003-04-20T18:18:29Z</time>
      </trkpt>
      <trkpt lat="37.395799979567528" lon="-3.471904993057251">
        <ele>936.70000000000005</ele>
        <time>2003-04-20T18:18:32Z</time>
      </trkpt>
      <trkpt lat="37.396429963409901" lon="-3.472743015736342">
        <ele>936.29999999999995</ele>
        <time>2003-04-20T18:18:36Z</time>
      </trkpt>
      <trkpt lat="37.397326994687319" lon="-3.4737070184201">
        <ele>935.39999999999998</ele>
        <time>2003-04-20T18:18:40Z</time>
      </trkpt>
      <trkpt lat="37.398282028734684" lon="-3.474482009187341">
        <ele>934.70000000000005</ele>
        <time>2003-04-20T18:18:44Z</time>
      </trkpt>
      <trkpt lat="37.399260029196739" lon="-3.475237973034382">
        <ele>934</ele>
        <time>2003-04-20T18:18:48Z</time>
      </trkpt>
      <trkpt lat="37.400267031043768" lon="-3.4759830404073">
        <ele>933.60000000000002</ele>
        <time>2003-04-20T18:18:52Z</time>
      </trkpt>
      <trkpt lat="37.401272021234035" lon="-3.47673699259758">
        <ele>932.5</ele>
        <time>2003-04-20T18:18:55Z</time>
      </trkpt>
      <trkpt lat="37.402282040566206" lon="-3.477499997243285">
        <ele>929.29999999999995</ele>
        <time>2003-04-20T18:18:59Z</time>
      </trkpt>
      <trkpt lat="37.403057031333447" lon="-3.478084970265627">
        <ele>925.70000000000005</ele>
        <time>2003-04-20T18:19:03Z</time>
      </trkpt>
      <trkpt lat="37.404067972674966" lon="-3.478851998224855">
        <ele>919.39999999999998</ele>
        <time>2003-04-20T18:19:07Z</time>
      </trkpt>
      <trkpt lat="37.40508696064353" lon="-3.479609973728657">
        <ele>911.79999999999995</ele>
        <time>2003-04-20T18:19:11Z</time>
      </trkpt>
      <trkpt lat="37.406036965548992" lon="-3.480397034436464">
        <ele>904.20000000000005</ele>
        <time>2003-04-20T18:19:15Z</time>
      </trkpt>
      <trkpt lat="37.406424963846803" lon="-3.480834988877177">
        <ele>900.70000000000005</ele>
        <time>2003-04-20T18:19:17Z</time>
      </trkpt>
      <trkpt lat="37.406701985746622" lon="-3.481336981058121">
        <ele>897.5</ele>
        <time>2003-04-20T18:19:19Z</time>
      </trkpt>
      <trkpt lat="37.407028041779995" lon="-3.482175003737211">
        <ele>892.79999999999995</ele>
        <time>2003-04-20T18:19:22Z</time>
      </trkpt>
      <trkpt lat="37.407176988199353" lon="-3.482771962881088">
        <ele>889.5</ele>
        <time>2003-04-20T18:19:23Z</time>
      </trkpt>
      <trkpt lat="37.407262986525893" lon="-3.48337696865201">
        <ele>886.10000000000002</ele>
        <time>2003-04-20T18:19:26Z</time>
      </trkpt>
      <trkpt lat="37.407257035374641" lon="-3.483963031321764">
        <ele>883.20000000000005</ele>
        <time>2003-04-20T18:19:27Z</time>
      </trkpt>
      <trkpt lat="37.407167013734579" lon="-3.485207995399833">
        <ele>876.39999999999998</ele>
        <time>2003-04-20T18:19:31Z</time>
      </trkpt>
      <trkpt lat="37.407189980149269" lon="-3.486162023618817">
        <ele>871.20000000000005</ele>
        <time>2003-04-20T18:19:34Z</time>
      </trkpt>
      <trkpt lat="37.407358037307858" lon="-3.487082021310926">
        <ele>866.10000000000002</ele>
        <time>2003-04-20T18:19:38Z</time>
      </trkpt>
      <trkpt lat="37.407547971233726" lon="-3.487660037353635">
        <ele>862.70000000000005</ele>
        <time>2003-04-20T18:19:39Z</time>
      </trkpt>
      <trkpt lat="37.407927000895143" lon="-3.488482972607017">
        <ele>857.79999999999995</ele>
        <time>2003-04-20T18:19:42Z</time>
      </trkpt>
      <trkpt lat="37.40826303139329" lon="-3.488989993929863">
        <ele>854.39999999999998</ele>
        <time>2003-04-20T18:19:45Z</time>
      </trkpt>
      <trkpt lat="37.409040033817291" lon="-3.489877972751856">
        <ele>847.89999999999998</ele>
        <time>2003-04-20T18:19:49Z</time>
      </trkpt>
      <trkpt lat="37.409764984622598" lon="-3.490811968222261">
        <ele>841.20000000000005</ele>
        <time>2003-04-20T18:19:53Z</time>
      </trkpt>
      <trkpt lat="37.410202017053962" lon="-3.491642028093338">
        <ele>835.89999999999998</ele>
        <time>2003-04-20T18:19:56Z</time>
      </trkpt>
      <trkpt lat="37.410517008975148" lon="-3.492563031613827">
        <ele>830.60000000000002</ele>
        <time>2003-04-20T18:19:58Z</time>
      </trkpt>
      <trkpt lat="37.410699985921383" lon="-3.493555029854178">
        <ele>825.29999999999995</ele>
        <time>2003-04-20T18:20:01Z</time>
      </trkpt>
      <trkpt lat="37.410732004791498" lon="-3.494594972580671">
        <ele>820</ele>
        <time>2003-04-20T18:20:05Z</time>
      </trkpt>
      <trkpt lat="37.410623040050268" lon="-3.495652014389634">
        <ele>814.5</ele>
        <time>2003-04-20T18:20:08Z</time>
      </trkpt>
      <trkpt lat="37.410354986786842" lon="-3.496651975437999">
        <ele>810.39999999999998</ele>
        <time>2003-04-20T18:20:11Z</time>
      </trkpt>
      <trkpt lat="37.409936981275678" lon="-3.497572978958488">
        <ele>808</ele>
        <time>2003-04-20T18:20:13Z</time>
      </trkpt>
      <trkpt lat="37.40957697853446" lon="-3.49811696447432">
        <ele>807.39999999999998</ele>
        <time>2003-04-20T18:20:16Z</time>
      </trkpt>
      <trkpt lat="37.408772986382246" lon="-3.499079961329699">
        <ele>806.10000000000002</ele>
        <time>2003-04-20T18:20:20Z</time>
      </trkpt>
      <trkpt lat="37.407897999510169" lon="-3.500002976506949">
        <ele>804.79999999999995</ele>
        <time>2003-04-20T18:20:24Z</time>
      </trkpt>
      <trkpt lat="37.407037010416389" lon="-3.500924985855818">
        <ele>803.20000000000005</ele>
        <time>2003-04-20T18:20:28Z</time>
      </trkpt>
      <trkpt lat="37.406462011858821" lon="-3.501650020480156">
        <ele>801.89999999999998</ele>
        <time>2003-04-20T18:20:31Z</time>
      </trkpt>
      <trkpt lat="37.406148025766015" lon="-3.502216972410679">
        <ele>801</ele>
        <time>2003-04-20T18:20:32Z</time>
      </trkpt>
      <trkpt lat="37.405911991372705" lon="-3.502849973738194">
        <ele>799.89999999999998</ele>
        <time>2003-04-20T18:20:35Z</time>
      </trkpt>
      <trkpt lat="37.40575298666954" lon="-3.503532009199262">
        <ele>798.60000000000002</ele>
        <time>2003-04-20T18:20:36Z</time>
      </trkpt>
      <trkpt lat="37.405682997778058" lon="-3.504246985539794">
        <ele>797.29999999999995</ele>
        <time>2003-04-20T18:20:39Z</time>
      </trkpt>
      <trkpt lat="37.405704958364367" lon="-3.504970008507371">
        <ele>796.20000000000005</ele>
        <time>2003-04-20T18:20:40Z</time>
      </trkpt>
      <trkpt lat="37.405888019129634" lon="-3.506399961188436">
        <ele>794.10000000000002</ele>
        <time>2003-04-20T18:20:44Z</time>
      </trkpt>
      <trkpt lat="37.406077031046152" lon="-3.507778029888868">
        <ele>793.20000000000005</ele>
        <time>2003-04-20T18:20:48Z</time>
      </trkpt>
      <trkpt lat="37.406148025766015" lon="-3.508337019011378">
        <ele>793.70000000000005</ele>
        <time>2003-04-20T18:20:51Z</time>
      </trkpt>
      <trkpt lat="37.406158000230789" lon="-3.508859965950251">
        <ele>794.29999999999995</ele>
        <time>2003-04-20T18:20:52Z</time>
      </trkpt>
      <trkpt lat="37.406112989410758" lon="-3.509400011971593">
        <ele>795</ele>
        <time>2003-04-20T18:20:55Z</time>
      </trkpt>
      <trkpt lat="37.405981980264187" lon="-3.509922958910465">
        <ele>796.10000000000002</ele>
        <time>2003-04-20T18:20:56Z</time>
      </trkpt>
      <trkpt lat="37.405777964740992" lon="-3.510416988283396">
        <ele>796.89999999999998</ele>
        <time>2003-04-20T18:20:59Z</time>
      </trkpt>
      <trkpt lat="37.405513012781739" lon="-3.510872963815928">
        <ele>797.20000000000005</ele>
        <time>2003-04-20T18:21:00Z</time>
      </trkpt>
      <trkpt lat="37.404902977868915" lon="-3.511754991486669">
        <ele>797.20000000000005</ele>
        <time>2003-04-20T18:21:05Z</time>
      </trkpt>
      <trkpt lat="37.404490001499653" lon="-3.512510033324361">
        <ele>796.39999999999998</ele>
        <time>2003-04-20T18:21:07Z</time>
      </trkpt>
      <trkpt lat="37.404192024841905" lon="-3.513377979397774">
        <ele>795.29999999999995</ele>
        <time>2003-04-20T18:21:10Z</time>
      </trkpt>
      <trkpt lat="37.404077025130391" lon="-3.514003017917275">
        <ele>794.5</ele>
        <time>2003-04-20T18:21:13Z</time>
      </trkpt>
      <trkpt lat="37.403933024033904" lon="-3.515310008078814">
        <ele>793</ele>
        <time>2003-04-20T18:21:17Z</time>
      </trkpt>
      <trkpt lat="37.403794974088669" lon="-3.516667960211635">
        <ele>791.60000000000002</ele>
        <time>2003-04-20T18:21:21Z</time>
      </trkpt>
      <trkpt lat="37.403651978820562" lon="-3.517970005050302">
        <ele>790.29999999999995</ele>
        <time>2003-04-20T18:21:25Z</time>
      </trkpt>
      <trkpt lat="37.40343295969069" lon="-3.519227961078286">
        <ele>790.10000000000002</ele>
        <time>2003-04-20T18:21:29Z</time>
      </trkpt>
      <trkpt lat="37.403136994689703" lon="-3.52011501789093">
        <ele>791.89999999999998</ele>
        <time>2003-04-20T18:21:32Z</time>
      </trkpt>
      <trkpt lat="37.402655035257339" lon="-3.521265015006065">
        <ele>793.79999999999995</ele>
        <time>2003-04-20T18:21:36Z</time>
      </trkpt>
      <trkpt lat="37.40214298479259" lon="-3.522420041263104">
        <ele>795.89999999999998</ele>
        <time>2003-04-20T18:21:40Z</time>
      </trkpt>
      <trkpt lat="37.401639986783266" lon="-3.523562997579575">
        <ele>798.10000000000002</ele>
        <time>2003-04-20T18:21:44Z</time>
      </trkpt>
      <trkpt lat="37.401472013443708" lon="-3.524110000580549">
        <ele>799</ele>
        <time>2003-04-20T18:21:45Z</time>
      </trkpt>
      <trkpt lat="37.401337986811996" lon="-3.524962021037936">
        <ele>800.39999999999998</ele>
        <time>2003-04-20T18:21:49Z</time>
      </trkpt>
      <trkpt lat="37.401366988196969" lon="-3.525561997666955">
        <ele>801.60000000000002</ele>
        <time>2003-04-20T18:21:50Z</time>
      </trkpt>
      <trkpt lat="37.401569997891784" lon="-3.526782989501953">
        <ele>804.10000000000002</ele>
        <time>2003-04-20T18:21:54Z</time>
      </trkpt>
      <trkpt lat="37.401778036728501" lon="-3.528068019077182">
        <ele>806.79999999999995</ele>
        <time>2003-04-20T18:21:59Z</time>
      </trkpt>
      <trkpt lat="37.401992026716471" lon="-3.529396969825029">
        <ele>809.70000000000005</ele>
        <time>2003-04-20T18:22:03Z</time>
      </trkpt>
      <trkpt lat="37.402196964249015" lon="-3.53064302355051">
        <ele>813.20000000000005</ele>
        <time>2003-04-20T18:22:07Z</time>
      </trkpt>
      <trkpt lat="37.40237700752914" lon="-3.531763013452292">
        <ele>818.29999999999995</ele>
        <time>2003-04-20T18:22:11Z</time>
      </trkpt>
      <trkpt lat="37.402556966990232" lon="-3.53307000361383">
        <ele>825.60000000000002</ele>
        <time>2003-04-20T18:22:16Z</time>
      </trkpt>
      <trkpt lat="37.402622010558844" lon="-3.534280015155673">
        <ele>832</ele>
        <time>2003-04-20T18:22:20Z</time>
      </trkpt>
      <trkpt lat="37.40259300917387" lon="-3.535451972857118">
        <ele>836.39999999999998</ele>
        <time>2003-04-20T18:22:26Z</time>
      </trkpt>
      <trkpt lat="37.402454959228635" lon="-3.536631977185607">
        <ele>838.70000000000005</ele>
        <time>2003-04-20T18:22:31Z</time>
      </trkpt>
      <trkpt lat="37.402220014482737" lon="-3.537814998999238">
        <ele>838.20000000000005</ele>
        <time>2003-04-20T18:22:35Z</time>
      </trkpt>
      <trkpt lat="37.401911979541183" lon="-3.539102962240577">
        <ele>837.10000000000002</ele>
        <time>2003-04-20T18:22:40Z</time>
      </trkpt>
      <trkpt lat="37.401607967913151" lon="-3.540469966828823">
        <ele>835.39999999999998</ele>
        <time>2003-04-20T18:22:46Z</time>
      </trkpt>
      <trkpt lat="37.401337986811996" lon="-3.541617030277848">
        <ele>834.10000000000002</ele>
        <time>2003-04-20T18:22:50Z</time>
      </trkpt>
      <trkpt lat="37.401058031246066" lon="-3.542812038213015">
        <ele>832.60000000000002</ele>
        <time>2003-04-20T18:22:54Z</time>
      </trkpt>
      <trkpt lat="37.400801964104176" lon="-3.543952982872725">
        <ele>831.10000000000002</ele>
        <time>2003-04-20T18:22:58Z</time>
      </trkpt>
      <trkpt lat="37.400493007153273" lon="-3.54529500938952">
        <ele>829.89999999999998</ele>
        <time>2003-04-20T18:23:02Z</time>
      </trkpt>
      <trkpt lat="37.400238029658794" lon="-3.546417010948062">
        <ele>828.79999999999995</ele>
        <time>2003-04-20T18:23:06Z</time>
      </trkpt>
      <trkpt lat="37.399982968345284" lon="-3.547510011121631">
        <ele>828.70000000000005</ele>
        <time>2003-04-20T18:23:10Z</time>
      </trkpt>
      <trkpt lat="37.399712987244129" lon="-3.548869974911213">
        <ele>829.79999999999995</ele>
        <time>2003-04-20T18:23:15Z</time>
      </trkpt>
      <trkpt lat="37.399618020281196" lon="-3.550209989771247">
        <ele>832</ele>
        <time>2003-04-20T18:23:21Z</time>
      </trkpt>
      <trkpt lat="37.399675017222762" lon="-3.551016999408603">
        <ele>833.70000000000005</ele>
        <time>2003-04-20T18:23:24Z</time>
      </trkpt>
      <trkpt lat="37.399881966412067" lon="-3.552007991820574">
        <ele>836</ele>
        <time>2003-04-20T18:23:28Z</time>
      </trkpt>
      <trkpt lat="37.400297038257122" lon="-3.553190007805824">
        <ele>839</ele>
        <time>2003-04-20T18:23:33Z</time>
      </trkpt>
      <trkpt lat="37.40078997798264" lon="-3.554249983280897">
        <ele>841.79999999999995</ele>
        <time>2003-04-20T18:23:37Z</time>
      </trkpt>
      <trkpt lat="37.401277972385287" lon="-3.555254973471165">
        <ele>844.29999999999995</ele>
        <time>2003-04-20T18:23:42Z</time>
      </trkpt>
      <trkpt lat="37.401748029515147" lon="-3.556227022781968">
        <ele>846.5</ele>
        <time>2003-04-20T18:23:48Z</time>
      </trkpt>
      <trkpt lat="37.402320010587573" lon="-3.557375008240342">
        <ele>849</ele>
        <time>2003-04-20T18:23:53Z</time>
      </trkpt>
      <trkpt lat="37.402813034132123" lon="-3.558373041450977">
        <ele>851.10000000000002</ele>
        <time>2003-04-20T18:23:59Z</time>
      </trkpt>
      <trkpt lat="37.403289964422584" lon="-3.559356993064284">
        <ele>853.29999999999995</ele>
        <time>2003-04-20T18:24:04Z</time>
      </trkpt>
      <trkpt lat="37.403773013502359" lon="-3.560338011011481">
        <ele>855.20000000000005</ele>
        <time>2003-04-20T18:24:08Z</time>
      </trkpt>
      <trkpt lat="37.404257990419865" lon="-3.561326991766691">
        <ele>857.89999999999998</ele>
        <time>2003-04-20T18:24:14Z</time>
      </trkpt>
      <trkpt lat="37.404780015349388" lon="-3.562387973070145">
        <ele>863.79999999999995</ele>
        <time>2003-04-20T18:24:19Z</time>
      </trkpt>
      <trkpt lat="37.405304973945022" lon="-3.563443003222346">
        <ele>869.39999999999998</ele>
        <time>2003-04-20T18:24:27Z</time>
      </trkpt>
      <trkpt lat="37.405422991141677" lon="-3.563627991825342">
        <ele>870.29999999999995</ele>
        <time>2003-04-20T18:24:28Z</time>
      </trkpt>
      <trkpt lat="37.40555802360177" lon="-3.563757995143533">
        <ele>870.70000000000005</ele>
        <time>2003-04-20T18:24:31Z</time>
      </trkpt>
      <trkpt lat="37.405926994979382" lon="-3.564022025093436">
        <ele>871.29999999999995</ele>
        <time>2003-04-20T18:24:35Z</time>
      </trkpt>
      <trkpt lat="37.406158000230789" lon="-3.564114980399609">
        <ele>872</ele>
        <time>2003-04-20T18:24:36Z</time>
      </trkpt>
      <trkpt lat="37.406409960240126" lon="-3.564162002876401">
        <ele>873.60000000000002</ele>
        <time>2003-04-20T18:24:39Z</time>
      </trkpt>
      <trkpt lat="37.407338004559278" lon="-3.564231991767883">
        <ele>882.29999999999995</ele>
        <time>2003-04-20T18:24:46Z</time>
      </trkpt>
      <trkpt lat="37.408357998356223" lon="-3.564301980659366">
        <ele>888.70000000000005</ele>
        <time>2003-04-20T18:24:53Z</time>
      </trkpt>
      <trkpt lat="37.409250000491738" lon="-3.564344979822636">
        <ele>890.79999999999995</ele>
        <time>2003-04-20T18:24:58Z</time>
      </trkpt>
      <trkpt lat="37.409847965463996" lon="-3.564356965944171">
        <ele>892</ele>
        <time>2003-04-20T18:25:01Z</time>
      </trkpt>
      <trkpt lat="37.410669978708029" lon="-3.564241966232657">
        <ele>894.5</ele>
        <time>2003-04-20T18:25:05Z</time>
      </trkpt>
      <trkpt lat="37.411297028884292" lon="-3.564044991508126">
        <ele>896.89999999999998</ele>
        <time>2003-04-20T18:25:08Z</time>
      </trkpt>
      <trkpt lat="37.412127004936337" lon="-3.563607037067413">
        <ele>899.10000000000002</ele>
        <time>2003-04-20T18:25:12Z</time>
      </trkpt>
      <trkpt lat="37.412924962118268" lon="-3.562992978841066">
        <ele>902</ele>
        <time>2003-04-20T18:25:16Z</time>
      </trkpt>
      <trkpt lat="37.413467019796371" lon="-3.562385039404035">
        <ele>903.79999999999995</ele>
        <time>2003-04-20T18:25:18Z</time>
      </trkpt>
      <trkpt lat="37.414107983931899" lon="-3.561432017013431">
        <ele>907.10000000000002</ele>
        <time>2003-04-20T18:25:22Z</time>
      </trkpt>
      <trkpt lat="37.414507968351245" lon="-3.560612015426159">
        <ele>909.20000000000005</ele>
        <time>2003-04-20T18:25:25Z</time>
      </trkpt>
      <trkpt lat="37.415003003552556" lon="-3.559457994997501">
        <ele>912.10000000000002</ele>
        <time>2003-04-20T18:25:29Z</time>
      </trkpt>
      <trkpt lat="37.415561992675066" lon="-3.558312021195889">
        <ele>915.79999999999995</ele>
        <time>2003-04-20T18:25:33Z</time>
      </trkpt>
      <trkpt lat="37.416245033964515" lon="-3.557237964123488">
        <ele>919.29999999999995</ele>
        <time>2003-04-20T18:25:37Z</time>
      </trkpt>
      <trkpt lat="37.416872000321746" lon="-3.556545032188296">
        <ele>921.60000000000002</ele>
        <time>2003-04-20T18:25:40Z</time>
      </trkpt>
      <trkpt lat="37.417827034369111" lon="-3.555768029764295">
        <ele>925</ele>
        <time>2003-04-20T18:25:44Z</time>
      </trkpt>
      <trkpt lat="37.418627003207803" lon="-3.555326974019408">
        <ele>927.60000000000002</ele>
        <time>2003-04-20T18:25:48Z</time>
      </trkpt>
      <trkpt lat="37.419477012008429" lon="-3.555033020675182">
        <ele>930.39999999999998</ele>
        <time>2003-04-20T18:25:51Z</time>
      </trkpt>
      <trkpt lat="37.420643018558621" lon="-3.554862029850483">
        <ele>934.29999999999995</ele>
        <time>2003-04-20T18:25:55Z</time>
      </trkpt>
      <trkpt lat="37.420934960246086" lon="-3.554867981001735">
        <ele>935.29999999999995</ele>
        <time>2003-04-20T18:25:56Z</time>
      </trkpt>
      <trkpt lat="37.422067020088434" lon="-3.555035032331944">
        <ele>939.10000000000002</ele>
        <time>2003-04-20T18:26:00Z</time>
      </trkpt>
      <trkpt lat="37.422888027504086" lon="-3.555327979847789">
        <ele>942</ele>
        <time>2003-04-20T18:26:03Z</time>
      </trkpt>
      <trkpt lat="37.423912966623902" lon="-3.555925022810698">
        <ele>945.89999999999998</ele>
        <time>2003-04-20T18:26:07Z</time>
      </trkpt>
      <trkpt lat="37.424858026206493" lon="-3.556690039113164">
        <ele>949.70000000000005</ele>
        <time>2003-04-20T18:26:11Z</time>
      </trkpt>
      <trkpt lat="37.42573301307857" lon="-3.55756301432848">
        <ele>953.5</ele>
        <time>2003-04-20T18:26:15Z</time>
      </trkpt>
      <trkpt lat="37.426523007452488" lon="-3.558543026447296">
        <ele>956.89999999999998</ele>
        <time>2003-04-20T18:26:19Z</time>
      </trkpt>
      <trkpt lat="37.427276959642768" lon="-3.559544999152422">
        <ele>960.5</ele>
        <time>2003-04-20T18:26:23Z</time>
      </trkpt>
      <trkpt lat="37.428041975945234" lon="-3.560530040413141">
        <ele>963.89999999999998</ele>
        <time>2003-04-20T18:26:27Z</time>
      </trkpt>
      <trkpt lat="37.428815038874745" lon="-3.561494965106249">
        <ele>967.29999999999995</ele>
        <time>2003-04-20T18:26:31Z</time>
      </trkpt>
      <trkpt lat="37.429649960249662" lon="-3.562365006655455">
        <ele>970.79999999999995</ele>
        <time>2003-04-20T18:26:34Z</time>
      </trkpt>
      <trkpt lat="37.430657967925072" lon="-3.563096998259425">
        <ele>973.79999999999995</ele>
        <time>2003-04-20T18:26:38Z</time>
      </trkpt>
      <trkpt lat="37.43119197897613" lon="-3.563397992402315">
        <ele>970.79999999999995</ele>
        <time>2003-04-20T18:26:41Z</time>
      </trkpt>
      <trkpt lat="37.43192195892334" lon="-3.563760006800294">
        <ele>969.20000000000005</ele>
        <time>2003-04-20T18:26:43Z</time>
      </trkpt>
      <trkpt lat="37.432947987690568" lon="-3.564029987901449">
        <ele>975</ele>
        <time>2003-04-20T18:26:47Z</time>
      </trkpt>
      <trkpt lat="37.433727001771331" lon="-3.564059995114803">
        <ele>978.20000000000005</ele>
        <time>2003-04-20T18:26:50Z</time>
      </trkpt>
      <trkpt lat="37.434496963396668" lon="-3.563929991796613">
        <ele>981</ele>
        <time>2003-04-20T18:26:54Z</time>
      </trkpt>
      <trkpt lat="37.435247981920838" lon="-3.563679959625006">
        <ele>983.89999999999998</ele>
        <time>2003-04-20T18:26:57Z</time>
      </trkpt>
      <trkpt lat="37.435962958261371" lon="-3.563281986862421">
        <ele>985.89999999999998</ele>
        <time>2003-04-20T18:27:00Z</time>
      </trkpt>
      <trkpt lat="37.436633007600904" lon="-3.562751999124885">
        <ele>987</ele>
        <time>2003-04-20T18:27:02Z</time>
      </trkpt>
      <trkpt lat="37.437468012794852" lon="-3.561896961182356">
        <ele>988.10000000000002</ele>
        <time>2003-04-20T18:27:08Z</time>
      </trkpt>
      <trkpt lat="37.438317015767097" lon="-3.561004959046841">
        <ele>988.10000000000002</ele>
        <time>2003-04-20T18:27:12Z</time>
      </trkpt>
      <trkpt lat="37.439244976267219" lon="-3.560147993266583">
        <ele>987</ele>
        <time>2003-04-20T18:27:16Z</time>
      </trkpt>
      <trkpt lat="37.440036982297897" lon="-3.559592021629214">
        <ele>985.39999999999998</ele>
        <time>2003-04-20T18:27:18Z</time>
      </trkpt>
      <trkpt lat="37.440907023847103" lon="-3.559145014733076">
        <ele>983.10000000000002</ele>
        <time>2003-04-20T18:27:21Z</time>
      </trkpt>
      <trkpt lat="37.441844958811998" lon="-3.558819964528084">
        <ele>979.70000000000005</ele>
        <time>2003-04-20T18:27:25Z</time>
      </trkpt>
      <trkpt lat="37.442839974537492" lon="-3.558632964268327">
        <ele>975.70000000000005</ele>
        <time>2003-04-20T18:27:28Z</time>
      </trkpt>
      <trkpt lat="37.443876983597875" lon="-3.558603040874004">
        <ele>971.20000000000005</ele>
        <time>2003-04-20T18:27:31Z</time>
      </trkpt>
      <trkpt lat="37.444908041507006" lon="-3.558732038363814">
        <ele>966.79999999999995</ele>
        <time>2003-04-20T18:27:33Z</time>
      </trkpt>
      <trkpt lat="37.445880006998777" lon="-3.559018028900027">
        <ele>962.60000000000002</ele>
        <time>2003-04-20T18:27:36Z</time>
      </trkpt>
      <trkpt lat="37.446815008297563" lon="-3.559442991390824">
        <ele>958.89999999999998</ele>
        <time>2003-04-20T18:27:40Z</time>
      </trkpt>
      <trkpt lat="37.44771002791822" lon="-3.560001980513334">
        <ele>955.29999999999995</ele>
        <time>2003-04-20T18:27:43Z</time>
      </trkpt>
      <trkpt lat="37.448594989255071" lon="-3.560579996556044">
        <ele>952.20000000000005</ele>
        <time>2003-04-20T18:27:45Z</time>
      </trkpt>
      <trkpt lat="37.449472993612289" lon="-3.561147032305598">
        <ele>950.29999999999995</ele>
        <time>2003-04-20T18:27:48Z</time>
      </trkpt>
      <trkpt lat="37.450340017676353" lon="-3.561672996729612">
        <ele>949.10000000000002</ele>
        <time>2003-04-20T18:27:52Z</time>
      </trkpt>
      <trkpt lat="37.451207041740417" lon="-3.562135007232428">
        <ele>948.89999999999998</ele>
        <time>2003-04-20T18:27:55Z</time>
      </trkpt>
      <trkpt lat="37.452071970328689" lon="-3.562517976388335">
        <ele>949.39999999999998</ele>
        <time>2003-04-20T18:27:58Z</time>
      </trkpt>
      <trkpt lat="37.453230014070868" lon="-3.562889965251088">
        <ele>950.79999999999995</ele>
        <time>2003-04-20T18:28:02Z</time>
      </trkpt>
      <trkpt lat="37.454402977600694" lon="-3.563102027401328">
        <ele>953.29999999999995</ele>
        <time>2003-04-20T18:28:06Z</time>
      </trkpt>
      <trkpt lat="37.455579964444041" lon="-3.563194982707501">
        <ele>957.10000000000002</ele>
        <time>2003-04-20T18:28:10Z</time>
      </trkpt>
      <trkpt lat="37.456167032942176" lon="-3.563190037384629">
        <ele>958.89999999999998</ele>
        <time>2003-04-20T18:28:11Z</time>
      </trkpt>
      <trkpt lat="37.457333039492369" lon="-3.563077971339226">
        <ele>963</ele>
        <time>2003-04-20T18:28:15Z</time>
      </trkpt>
      <trkpt lat="37.458484964445233" lon="-3.562868004664779">
        <ele>967.39999999999998</ele>
        <time>2003-04-20T18:28:19Z</time>
      </trkpt>
      <trkpt lat="37.459617024287581" lon="-3.562617972493172">
        <ele>972.20000000000005</ele>
        <time>2003-04-20T18:28:23Z</time>
      </trkpt>
      <trkpt lat="37.460740031674504" lon="-3.562427032738924">
        <ele>976.89999999999998</ele>
        <time>2003-04-20T18:28:27Z</time>
      </trkpt>
      <trkpt lat="37.461302038282156" lon="-3.562417980283499">
        <ele>979.70000000000005</ele>
        <time>2003-04-20T18:28:30Z</time>
      </trkpt>
      <trkpt lat="37.462399983778596" lon="-3.562595006078482">
        <ele>984.5</ele>
        <time>2003-04-20T18:28:34Z</time>
      </trkpt>
      <trkpt lat="37.463180003687739" lon="-3.562900023534894">
        <ele>988.29999999999995</ele>
        <time>2003-04-20T18:28:37Z</time>
      </trkpt>
      <trkpt lat="37.463905038312078" lon="-3.56334300711751">
        <ele>991.70000000000005</ele>
        <time>2003-04-20T18:28:39Z</time>
      </trkpt>
      <trkpt lat="37.464560000225902" lon="-3.563918005675077">
        <ele>995.39999999999998</ele>
        <time>2003-04-20T18:28:42Z</time>
      </trkpt>
      <trkpt lat="37.465316969901323" lon="-3.564836997538805">
        <ele>999.89999999999998</ele>
        <time>2003-04-20T18:28:46Z</time>
      </trkpt>
      <trkpt lat="37.465779986232519" lon="-3.565630009397864">
        <ele>1003.3</ele>
        <time>2003-04-20T18:28:49Z</time>
      </trkpt>
      <trkpt lat="37.46629698202014" lon="-3.566753016784787">
        <ele>1007.3</ele>
        <time>2003-04-20T18:28:53Z</time>
      </trkpt>
      <trkpt lat="37.46683300472796" lon="-3.567864960059524">
        <ele>1010.2</ele>
        <time>2003-04-20T18:28:57Z</time>
      </trkpt>
      <trkpt lat="37.467472041025758" lon="-3.568910015746951">
        <ele>1011.5</ele>
        <time>2003-04-20T18:29:01Z</time>
      </trkpt>
      <trkpt lat="37.468060031533241" lon="-3.569594984874129">
        <ele>1013</ele>
        <time>2003-04-20T18:29:05Z</time>
      </trkpt>
      <trkpt lat="37.468737959861755" lon="-3.570163026452065">
        <ele>1013.2</ele>
        <time>2003-04-20T18:29:08Z</time>
      </trkpt>
      <trkpt lat="37.469493001699448" lon="-3.570597963407636">
        <ele>1012.4</ele>
        <time>2003-04-20T18:29:11Z</time>
      </trkpt>
      <trkpt lat="37.470292970538139" lon="-3.570944974198937">
        <ele>1011.4</ele>
        <time>2003-04-20T18:29:13Z</time>
      </trkpt>
      <trkpt lat="37.471178015694022" lon="-3.571089981123805">
        <ele>1009.4</ele>
        <time>2003-04-20T18:29:16Z</time>
      </trkpt>
      <trkpt lat="37.471795007586479" lon="-3.571076989173889">
        <ele>1007.8</ele>
        <time>2003-04-20T18:29:19Z</time>
      </trkpt>
      <trkpt lat="37.472730008885264" lon="-3.570882026106119">
        <ele>1005.7</ele>
        <time>2003-04-20T18:29:21Z</time>
      </trkpt>
      <trkpt lat="37.473661992698908" lon="-3.570587988942862">
        <ele>1005.3</ele>
        <time>2003-04-20T18:29:24Z</time>
      </trkpt>
      <trkpt lat="37.474572015926242" lon="-3.570301998406649">
        <ele>1005.5</ele>
        <time>2003-04-20T18:29:28Z</time>
      </trkpt>
      <trkpt lat="37.475732993334532" lon="-3.569954987615347">
        <ele>1007.9</ele>
        <time>2003-04-20T18:29:32Z</time>
      </trkpt>
      <trkpt lat="37.476907968521118" lon="-3.569734962657094">
        <ele>1011.5</ele>
        <time>2003-04-20T18:29:36Z</time>
      </trkpt>
      <trkpt lat="37.478095013648272" lon="-3.569692969322205">
        <ele>1014.8</ele>
        <time>2003-04-20T18:29:40Z</time>
      </trkpt>
      <trkpt lat="37.479267977178097" lon="-3.569860020652413">
        <ele>1018.2</ele>
        <time>2003-04-20T18:29:43Z</time>
      </trkpt>
      <trkpt lat="37.480415040627122" lon="-3.57019797898829">
        <ele>1021.6</ele>
        <time>2003-04-20T18:29:47Z</time>
      </trkpt>
      <trkpt lat="37.48150996863842" lon="-3.570720003917813">
        <ele>1025</ele>
        <time>2003-04-20T18:29:51Z</time>
      </trkpt>
      <trkpt lat="37.482532979920506" lon="-3.571398016065359">
        <ele>1028.4000000000001</ele>
        <time>2003-04-20T18:29:55Z</time>
      </trkpt>
      <trkpt lat="37.483407966792583" lon="-3.572182981297374">
        <ele>1031.5</ele>
        <time>2003-04-20T18:29:59Z</time>
      </trkpt>
      <trkpt lat="37.484214976429939" lon="-3.573089987039566">
        <ele>1034.5999999999999</ele>
        <time>2003-04-20T18:30:03Z</time>
      </trkpt>
      <trkpt lat="37.484934981912374" lon="-3.574106963351369">
        <ele>1037.7</ele>
        <time>2003-04-20T18:30:07Z</time>
      </trkpt>
      <trkpt lat="37.485578041523695" lon="-3.575216978788376">
        <ele>1039.5999999999999</ele>
        <time>2003-04-20T18:30:11Z</time>
      </trkpt>
      <trkpt lat="37.486242977902293" lon="-3.57634199783206">
        <ele>1040.3</ele>
        <time>2003-04-20T18:30:15Z</time>
      </trkpt>
      <trkpt lat="37.486998019739985" lon="-3.577440027147532">
        <ele>1039.5</ele>
        <time>2003-04-20T18:30:19Z</time>
      </trkpt>
      <trkpt lat="37.487842999398708" lon="-3.578520035371184">
        <ele>1037.4000000000001</ele>
        <time>2003-04-20T18:30:23Z</time>
      </trkpt>
      <trkpt lat="37.488497039303184" lon="-3.57932997867465">
        <ele>1034.5999999999999</ele>
        <time>2003-04-20T18:30:26Z</time>
      </trkpt>
      <trkpt lat="37.489310000091791" lon="-3.580436976626515">
        <ele>1030</ele>
        <time>2003-04-20T18:30:30Z</time>
      </trkpt>
      <trkpt lat="37.489843005314469" lon="-3.581397039815784">
        <ele>1026.0999999999999</ele>
        <time>2003-04-20T18:30:34Z</time>
      </trkpt>
      <trkpt lat="37.490286994725466" lon="-3.582447962835431">
        <ele>1022.3</ele>
        <time>2003-04-20T18:30:37Z</time>
      </trkpt>
      <trkpt lat="37.490610033273697" lon="-3.583583040162921">
        <ele>1018.5</ele>
        <time>2003-04-20T18:30:40Z</time>
      </trkpt>
      <trkpt lat="37.490825029090047" lon="-3.584775030612946">
        <ele>1015</ele>
        <time>2003-04-20T18:30:42Z</time>
      </trkpt>
      <trkpt lat="37.490913039073348" lon="-3.585987975820899">
        <ele>1011</ele>
        <time>2003-04-20T18:30:45Z</time>
      </trkpt>
      <trkpt lat="37.490871967747808" lon="-3.587163034826517">
        <ele>1007.1</ele>
        <time>2003-04-20T18:30:49Z</time>
      </trkpt>
      <trkpt lat="37.490695025771856" lon="-3.588314959779382">
        <ele>1003.1</ele>
        <time>2003-04-20T18:30:52Z</time>
      </trkpt>
      <trkpt lat="37.490416998043656" lon="-3.589420029893518">
        <ele>998.70000000000005</ele>
        <time>2003-04-20T18:30:54Z</time>
      </trkpt>
      <trkpt lat="37.490041991695762" lon="-3.590468019247055">
        <ele>995</ele>
        <time>2003-04-20T18:30:57Z</time>
      </trkpt>
      <trkpt lat="37.489598002284765" lon="-3.591488013044">
        <ele>990.39999999999998</ele>
        <time>2003-04-20T18:31:01Z</time>
      </trkpt>
      <trkpt lat="37.489143032580614" lon="-3.592472970485687">
        <ele>985.60000000000002</ele>
        <time>2003-04-20T18:31:04Z</time>
      </trkpt>
      <trkpt lat="37.488550012931228" lon="-3.593771997839212">
        <ele>982.5</ele>
        <time>2003-04-20T18:31:08Z</time>
      </trkpt>
      <trkpt lat="37.488103006035089" lon="-3.594759972766042">
        <ele>978.79999999999995</ele>
        <time>2003-04-20T18:31:11Z</time>
      </trkpt>
      <trkpt lat="37.487519960850477" lon="-3.596051959320903">
        <ele>974.10000000000002</ele>
        <time>2003-04-20T18:31:15Z</time>
      </trkpt>
      <trkpt lat="37.486934987828135" lon="-3.59733497723937">
        <ele>969.70000000000005</ele>
        <time>2003-04-20T18:31:19Z</time>
      </trkpt>
      <trkpt lat="37.486467026174068" lon="-3.598678009584546">
        <ele>965.39999999999998</ele>
        <time>2003-04-20T18:31:23Z</time>
      </trkpt>
      <trkpt lat="37.486242977902293" lon="-3.600043002516031">
        <ele>962.29999999999995</ele>
        <time>2003-04-20T18:31:27Z</time>
      </trkpt>
      <trkpt lat="37.486227974295616" lon="-3.601052016019821">
        <ele>960.70000000000005</ele>
        <time>2003-04-20T18:31:30Z</time>
      </trkpt>
      <trkpt lat="37.486323025077581" lon="-3.602034961804748">
        <ele>959</ele>
        <time>2003-04-20T18:31:32Z</time>
      </trkpt>
      <trkpt lat="37.486542966216803" lon="-3.603017991408706">
        <ele>957.89999999999998</ele>
        <time>2003-04-20T18:31:35Z</time>
      </trkpt>
      <trkpt lat="37.486885031685233" lon="-3.603964978829026">
        <ele>957.29999999999995</ele>
        <time>2003-04-20T18:31:39Z</time>
      </trkpt>
      <trkpt lat="37.487342013046145" lon="-3.604853041470051">
        <ele>956.60000000000002</ele>
        <time>2003-04-20T18:31:42Z</time>
      </trkpt>
      <trkpt lat="37.48803997412324" lon="-3.60597001388669">
        <ele>956.70000000000005</ele>
        <time>2003-04-20T18:31:46Z</time>
      </trkpt>
      <trkpt lat="37.488641962409019" lon="-3.607147000730038">
        <ele>956.5</ele>
        <time>2003-04-20T18:31:50Z</time>
      </trkpt>
      <trkpt lat="37.488998025655746" lon="-3.608088036999106">
        <ele>956.20000000000005</ele>
        <time>2003-04-20T18:31:53Z</time>
      </trkpt>
      <trkpt lat="37.489334978163242" lon="-3.609420005232096">
        <ele>955.70000000000005</ele>
        <time>2003-04-20T18:31:57Z</time>
      </trkpt>
      <trkpt lat="37.48950001783669" lon="-3.61071802675724">
        <ele>955.20000000000005</ele>
        <time>2003-04-20T18:32:01Z</time>
      </trkpt>
      <trkpt lat="37.489383006468415" lon="-3.613416999578476">
        <ele>-236.80000000000001</ele>
        <time>2003-04-20T18:32:10Z</time>
      </trkpt>
      <trkpt lat="37.489351993426681" lon="-3.613710030913353">
        <ele>953.10000000000002</ele>
        <time>2003-04-20T18:32:10Z</time>
      </trkpt>
      <trkpt lat="37.48922199010849" lon="-3.614847036078572">
        <ele>952</ele>
        <time>2003-04-20T18:32:14Z</time>
      </trkpt>
      <trkpt lat="37.489131968468428" lon="-3.616253016516566">
        <ele>950.70000000000005</ele>
        <time>2003-04-20T18:32:20Z</time>
      </trkpt>
      <trkpt lat="37.489162981510162" lon="-3.617393039166927">
        <ele>949.70000000000005</ele>
        <time>2003-04-20T18:32:24Z</time>
      </trkpt>
      <trkpt lat="37.489343024790287" lon="-3.618540018796921">
        <ele>949</ele>
        <time>2003-04-20T18:32:28Z</time>
      </trkpt>
      <trkpt lat="37.489587021991611" lon="-3.619378041476011">
        <ele>948.70000000000005</ele>
        <time>2003-04-20T18:32:30Z</time>
      </trkpt>
      <trkpt lat="37.490045009180903" lon="-3.620444973930717">
        <ele>948</ele>
        <time>2003-04-20T18:32:42Z</time>
      </trkpt>
      <trkpt lat="37.491621980443597" lon="-3.622408015653491">
        <ele>946.70000000000005</ele>
        <time>2003-04-20T18:32:44Z</time>
      </trkpt>
      <trkpt lat="37.491836976259947" lon="-3.622576994821429">
        <ele>946.5</ele>
        <time>2003-04-20T18:32:45Z</time>
      </trkpt>
      <trkpt lat="37.492717998102307" lon="-3.623198010027409">
        <ele>947</ele>
        <time>2003-04-20T18:32:49Z</time>
      </trkpt>
      <trkpt lat="37.493628021329641" lon="-3.623743001371622">
        <ele>948.10000000000002</ele>
        <time>2003-04-20T18:32:52Z</time>
      </trkpt>
      <trkpt lat="37.494520023465157" lon="-3.624248011037707">
        <ele>948.60000000000002</ele>
        <time>2003-04-20T18:32:56Z</time>
      </trkpt>
      <trkpt lat="37.495377995073795" lon="-3.624765006825328">
        <ele>949.70000000000005</ele>
        <time>2003-04-20T18:33:00Z</time>
      </trkpt>
      <trkpt lat="37.496211994439363" lon="-3.625240009278059">
        <ele>950.70000000000005</ele>
        <time>2003-04-20T18:33:04Z</time>
      </trkpt>
      <trkpt lat="37.497189994901419" lon="-3.625807967036963">
        <ele>951.5</ele>
        <time>2003-04-20T18:33:09Z</time>
      </trkpt>
      <trkpt lat="37.498089959844947" lon="-3.62629696726799">
        <ele>952.20000000000005</ele>
        <time>2003-04-20T18:33:15Z</time>
      </trkpt>
      <trkpt lat="37.49871701002121" lon="-3.626632997766137">
        <ele>952.60000000000002</ele>
        <time>2003-04-20T18:33:19Z</time>
      </trkpt>
      <trkpt lat="37.49893200583756" lon="-3.626759983599186">
        <ele>952.79999999999995</ele>
        <time>2003-04-20T18:33:20Z</time>
      </trkpt>
      <trkpt lat="37.499056980013847" lon="-3.626827038824558">
        <ele>952.89999999999998</ele>
        <time>2003-04-20T18:33:23Z</time>
      </trkpt>
      <trkpt lat="37.499205004423857" lon="-3.626929968595505">
        <ele>956.5</ele>
        <time>2003-04-20T18:36:48Z</time>
      </trkpt>
      <trkpt lat="37.499329978600144" lon="-3.627008004114032">
        <ele>956.5</ele>
        <time>2003-04-20T18:36:51Z</time>
      </trkpt>
      <trkpt lat="37.499474985525012" lon="-3.627102971076965">
        <ele>956.39999999999998</ele>
        <time>2003-04-20T18:36:52Z</time>
      </trkpt>
      <trkpt lat="37.499665003269911" lon="-3.627230040729046">
        <ele>956.39999999999998</ele>
        <time>2003-04-20T18:36:55Z</time>
      </trkpt>
      <trkpt lat="37.499895002692938" lon="-3.627379992976785">
        <ele>956.5</ele>
        <time>2003-04-20T18:36:56Z</time>
      </trkpt>
      <trkpt lat="37.500419961288571" lon="-3.627718035131693">
        <ele>956.70000000000005</ele>
        <time>2003-04-20T18:37:00Z</time>
      </trkpt>
      <trkpt lat="37.501207021996379" lon="-3.628182979300618">
        <ele>957.10000000000002</ele>
        <time>2003-04-20T18:37:06Z</time>
      </trkpt>
      <trkpt lat="37.502100029960275" lon="-3.628707015886903">
        <ele>957.5</ele>
        <time>2003-04-20T18:37:11Z</time>
      </trkpt>
      <trkpt lat="37.503065038472414" lon="-3.629280002787709">
        <ele>959.5</ele>
        <time>2003-04-20T18:37:15Z</time>
      </trkpt>
      <trkpt lat="37.503885040059686" lon="-3.629757016897202">
        <ele>962.10000000000002</ele>
        <time>2003-04-20T18:37:19Z</time>
      </trkpt>
      <trkpt lat="37.504722978919744" lon="-3.630256997421384">
        <ele>965.79999999999995</ele>
        <time>2003-04-20T18:37:23Z</time>
      </trkpt>
      <trkpt lat="37.50557198189199" lon="-3.630793020129204">
        <ele>969.70000000000005</ele>
        <time>2003-04-20T18:37:27Z</time>
      </trkpt>
      <trkpt lat="37.50643003731966" lon="-3.631359972059727">
        <ele>973</ele>
        <time>2003-04-20T18:37:31Z</time>
      </trkpt>
      <trkpt lat="37.507297983393073" lon="-3.63196799531579">
        <ele>975.79999999999995</ele>
        <time>2003-04-20T18:37:35Z</time>
      </trkpt>
      <trkpt lat="37.508182022720575" lon="-3.632618011906743">
        <ele>977.70000000000005</ele>
        <time>2003-04-20T18:37:39Z</time>
      </trkpt>
      <trkpt lat="37.509036976844072" lon="-3.633286971598864">
        <ele>980</ele>
        <time>2003-04-20T18:37:44Z</time>
      </trkpt>
      <trkpt lat="37.509893020614982" lon="-3.633981999009848">
        <ele>982</ele>
        <time>2003-04-20T18:37:48Z</time>
      </trkpt>
      <trkpt lat="37.510757027193904" lon="-3.634688006713986">
        <ele>983.79999999999995</ele>
        <time>2003-04-20T18:37:52Z</time>
      </trkpt>
      <trkpt lat="37.511645006015897" lon="-3.635365013033152">
        <ele>985.5</ele>
        <time>2003-04-20T18:37:56Z</time>
      </trkpt>
      <trkpt lat="37.512574978172779" lon="-3.635988039895892">
        <ele>987.20000000000005</ele>
        <time>2003-04-20T18:38:00Z</time>
      </trkpt>
      <trkpt lat="37.513530012220144" lon="-3.636584999039769">
        <ele>988.79999999999995</ele>
        <time>2003-04-20T18:38:04Z</time>
      </trkpt>
      <trkpt lat="37.514514969661832" lon="-3.637137031182647">
        <ele>990.60000000000002</ele>
        <time>2003-04-20T18:38:08Z</time>
      </trkpt>
      <trkpt lat="37.515533035621047" lon="-3.637613039463759">
        <ele>993</ele>
        <time>2003-04-20T18:38:13Z</time>
      </trkpt>
      <trkpt lat="37.516333004459739" lon="-3.637813031673431">
        <ele>994.39999999999998</ele>
        <time>2003-04-20T18:38:15Z</time>
      </trkpt>
      <trkpt lat="37.517146971076727" lon="-3.637855025008321">
        <ele>996.29999999999995</ele>
        <time>2003-04-20T18:38:17Z</time>
      </trkpt>
      <trkpt lat="37.518224967643619" lon="-3.637757962569594">
        <ele>998.60000000000002</ele>
        <time>2003-04-20T18:38:21Z</time>
      </trkpt>
      <trkpt lat="37.519304975867271" lon="-3.637632988393307">
        <ele>1000.6</ele>
        <time>2003-04-20T18:38:25Z</time>
      </trkpt>
      <trkpt lat="37.520386995747685" lon="-3.637512037530541">
        <ele>1002.6</ele>
        <time>2003-04-20T18:38:29Z</time>
      </trkpt>
      <trkpt lat="37.521464992314577" lon="-3.637387985363603">
        <ele>1005.2</ele>
        <time>2003-04-20T18:38:33Z</time>
      </trkpt>
      <trkpt lat="37.522537037730217" lon="-3.637269968166947">
        <ele>1008.1</ele>
        <time>2003-04-20T18:38:38Z</time>
      </trkpt>
      <trkpt lat="37.523602964356542" lon="-3.637154968455434">
        <ele>1010.9</ele>
        <time>2003-04-20T18:38:42Z</time>
      </trkpt>
      <trkpt lat="37.524662017822266" lon="-3.637033011764288">
        <ele>1014</ele>
        <time>2003-04-20T18:38:46Z</time>
      </trkpt>
      <trkpt lat="37.525697015225887" lon="-3.636914994567633">
        <ele>1019.5</ele>
        <time>2003-04-20T18:38:50Z</time>
      </trkpt>
      <trkpt lat="37.526732012629509" lon="-3.636797983199358">
        <ele>1025.2</ele>
        <time>2003-04-20T18:38:55Z</time>
      </trkpt>
      <trkpt lat="37.527767010033131" lon="-3.636679966002703">
        <ele>1031</ele>
        <time>2003-04-20T18:38:58Z</time>
      </trkpt>
      <trkpt lat="37.528803013265133" lon="-3.636557003483176">
        <ele>1037.0999999999999</ele>
        <time>2003-04-20T18:39:02Z</time>
      </trkpt>
      <trkpt lat="37.529831975698471" lon="-3.636362040415406">
        <ele>1043</ele>
        <time>2003-04-20T18:39:06Z</time>
      </trkpt>
      <trkpt lat="37.530856998637319" lon="-3.636166993528605">
        <ele>1048.8</ele>
        <time>2003-04-20T18:39:10Z</time>
      </trkpt>
      <trkpt lat="37.53191496245563" lon="-3.63600698299706">
        <ele>1051.5999999999999</ele>
        <time>2003-04-20T18:39:14Z</time>
      </trkpt>
      <trkpt lat="37.533022966235876" lon="-3.635892989113927">
        <ele>1052.5999999999999</ele>
        <time>2003-04-20T18:39:18Z</time>
      </trkpt>
      <trkpt lat="37.534206993877888" lon="-3.635816965252161">
        <ele>1050.5999999999999</ele>
        <time>2003-04-20T18:39:22Z</time>
      </trkpt>
      <trkpt lat="37.535150041803718" lon="-3.635780001059175">
        <ele>1046.8</ele>
        <time>2003-04-20T18:39:26Z</time>
      </trkpt>
      <trkpt lat="37.536144973710179" lon="-3.6357700265944">
        <ele>1041.2</ele>
        <time>2003-04-20T18:39:29Z</time>
      </trkpt>
      <trkpt lat="37.536482010036707" lon="-3.63577296026051">
        <ele>1039.2</ele>
        <time>2003-04-20T18:39:30Z</time>
      </trkpt>
      <trkpt lat="37.537475014105439" lon="-3.635802967473865">
        <ele>1033.5</ele>
        <time>2003-04-20T18:39:33Z</time>
      </trkpt>
      <trkpt lat="37.53844496794045" lon="-3.635816965252161">
        <ele>1027.5</ele>
        <time>2003-04-20T18:39:36Z</time>
      </trkpt>
      <trkpt lat="37.539412993937731" lon="-3.635700037702918">
        <ele>1021.7</ele>
        <time>2003-04-20T18:39:38Z</time>
      </trkpt>
      <trkpt lat="37.540362998843193" lon="-3.635410023853183">
        <ele>1016</ele>
        <time>2003-04-20T18:39:41Z</time>
      </trkpt>
      <trkpt lat="37.541270004585385" lon="-3.635056978091598">
        <ele>1011.2</ele>
        <time>2003-04-20T18:39:45Z</time>
      </trkpt>
      <trkpt lat="37.542167035862803" lon="-3.634808035567403">
        <ele>1006.2</ele>
        <time>2003-04-20T18:39:48Z</time>
      </trkpt>
      <trkpt lat="37.543073035776615" lon="-3.634703010320664">
        <ele>1000.8</ele>
        <time>2003-04-20T18:39:50Z</time>
      </trkpt>
      <trkpt lat="37.54368701018393" lon="-3.634714996442199">
        <ele>997.39999999999998</ele>
        <time>2003-04-20T18:39:53Z</time>
      </trkpt>
      <trkpt lat="37.544617988169193" lon="-3.634778028354049">
        <ele>991.20000000000005</ele>
        <time>2003-04-20T18:39:56Z</time>
      </trkpt>
      <trkpt lat="37.545247972011566" lon="-3.63478297367692">
        <ele>987.39999999999998</ele>
        <time>2003-04-20T18:39:57Z</time>
      </trkpt>
      <trkpt lat="37.546205017715693" lon="-3.634626986458898">
        <ele>982.10000000000002</ele>
        <time>2003-04-20T18:40:01Z</time>
      </trkpt>
      <trkpt lat="37.54716700874269" lon="-3.634285004809499">
        <ele>976.10000000000002</ele>
        <time>2003-04-20T18:40:04Z</time>
      </trkpt>
      <trkpt lat="37.548093041405082" lon="-3.633742025122047">
        <ele>970</ele>
        <time>2003-04-20T18:40:07Z</time>
      </trkpt>
      <trkpt lat="37.548953024670482" lon="-3.633017996326089">
        <ele>964.29999999999995</ele>
        <time>2003-04-20T18:40:09Z</time>
      </trkpt>
      <trkpt lat="37.549732038751245" lon="-3.632154995575547">
        <ele>957.89999999999998</ele>
        <time>2003-04-20T18:40:12Z</time>
      </trkpt>
      <trkpt lat="37.550422037020326" lon="-3.631291994825006">
        <ele>952.60000000000002</ele>
        <time>2003-04-20T18:40:16Z</time>
      </trkpt>
      <trkpt lat="37.551135001704097" lon="-3.630533013492823">
        <ele>947</ele>
        <time>2003-04-20T18:40:19Z</time>
      </trkpt>
      <trkpt lat="37.551902029663324" lon="-3.629879979416728">
        <ele>941.20000000000005</ele>
        <time>2003-04-20T18:40:21Z</time>
      </trkpt>
      <trkpt lat="37.552729994058609" lon="-3.629321996122599">
        <ele>936.5</ele>
        <time>2003-04-20T18:40:24Z</time>
      </trkpt>
      <trkpt lat="37.553600035607815" lon="-3.628814974799752">
        <ele>930.60000000000002</ele>
        <time>2003-04-20T18:40:28Z</time>
      </trkpt>
      <trkpt lat="37.554422970861197" lon="-3.628220027312636">
        <ele>924.5</ele>
        <time>2003-04-20T18:40:31Z</time>
      </trkpt>
      <trkpt lat="37.555174995213747" lon="-3.627487029880285">
        <ele>919.20000000000005</ele>
        <time>2003-04-20T18:40:34Z</time>
      </trkpt>
      <trkpt lat="37.555931964889169" lon="-3.62676702439785">
        <ele>913.60000000000002</ele>
        <time>2003-04-20T18:40:36Z</time>
      </trkpt>
      <trkpt lat="37.556747021153569" lon="-3.626220021396875">
        <ele>908</ele>
        <time>2003-04-20T18:40:39Z</time>
      </trkpt>
      <trkpt lat="37.557340040802956" lon="-3.625966971740127">
        <ele>904.70000000000005</ele>
        <time>2003-04-20T18:40:42Z</time>
      </trkpt>
      <trkpt lat="37.558281999081373" lon="-3.625726997852325">
        <ele>899.39999999999998</ele>
        <time>2003-04-20T18:40:44Z</time>
      </trkpt>
      <trkpt lat="37.559267962351441" lon="-3.625688022002578">
        <ele>893.79999999999995</ele>
        <time>2003-04-20T18:40:47Z</time>
      </trkpt>
      <trkpt lat="37.559916973114014" lon="-3.625681987032294">
        <ele>890</ele>
        <time>2003-04-20T18:40:50Z</time>
      </trkpt>
      <trkpt lat="37.560860021039844" lon="-3.625547038391233">
        <ele>883.70000000000005</ele>
        <time>2003-04-20T18:40:53Z</time>
      </trkpt>
      <trkpt lat="37.561793010681868" lon="-3.625231962651014">
        <ele>878.10000000000002</ele>
        <time>2003-04-20T18:40:55Z</time>
      </trkpt>
      <trkpt lat="37.562664980068803" lon="-3.624695017933846">
        <ele>872.29999999999995</ele>
        <time>2003-04-20T18:40:58Z</time>
      </trkpt>
      <trkpt lat="37.563456986099482" lon="-3.623978029936552">
        <ele>866.79999999999995</ele>
        <time>2003-04-20T18:41:02Z</time>
      </trkpt>
      <trkpt lat="37.564229965209961" lon="-3.623198010027409">
        <ele>861.5</ele>
        <time>2003-04-20T18:41:05Z</time>
      </trkpt>
      <trkpt lat="37.565024988725781" lon="-3.622414972633123">
        <ele>855.60000000000002</ele>
        <time>2003-04-20T18:41:07Z</time>
      </trkpt>
      <trkpt lat="37.565835015848279" lon="-3.621626989915967">
        <ele>849.5</ele>
        <time>2003-04-20T18:41:10Z</time>
      </trkpt>
      <trkpt lat="37.566628027707338" lon="-3.620828026905656">
        <ele>842.29999999999995</ele>
        <time>2003-04-20T18:41:14Z</time>
      </trkpt>
      <trkpt lat="37.56738499738276" lon="-3.620014982298017">
        <ele>839.10000000000002</ele>
        <time>2003-04-20T18:41:17Z</time>
      </trkpt>
      <trkpt lat="37.56807298399508" lon="-3.619079980999231">
        <ele>836.39999999999998</ele>
        <time>2003-04-20T18:41:20Z</time>
      </trkpt>
      <trkpt lat="37.568686958402395" lon="-3.618050012737513">
        <ele>835.29999999999995</ele>
        <time>2003-04-20T18:41:22Z</time>
      </trkpt>
      <trkpt lat="37.569292970001698" lon="-3.617022978141904">
        <ele>834.79999999999995</ele>
        <time>2003-04-20T18:41:25Z</time>
      </trkpt>
      <trkpt lat="37.5697470176965" lon="-3.616440016776323">
        <ele>834.20000000000005</ele>
        <time>2003-04-20T18:41:28Z</time>
      </trkpt>
      <trkpt lat="37.57052200846374" lon="-3.615690004080534">
        <ele>832.79999999999995</ele>
        <time>2003-04-20T18:41:30Z</time>
      </trkpt>
      <trkpt lat="37.571258023381233" lon="-3.614933034405112">
        <ele>830.89999999999998</ele>
        <time>2003-04-20T18:41:33Z</time>
      </trkpt>
      <trkpt lat="37.571672005578876" lon="-3.614321993663907">
        <ele>829.39999999999998</ele>
        <time>2003-04-20T18:41:36Z</time>
      </trkpt>
      <trkpt lat="37.572014993056655" lon="-3.613627972081304">
        <ele>827.29999999999995</ele>
        <time>2003-04-20T18:41:37Z</time>
      </trkpt>
      <trkpt lat="37.572426963597536" lon="-3.612494990229607">
        <ele>825.20000000000005</ele>
        <time>2003-04-20T18:41:41Z</time>
      </trkpt>
      <trkpt lat="37.572846980765462" lon="-3.611369971185923">
        <ele>822.79999999999995</ele>
        <time>2003-04-20T18:41:44Z</time>
      </trkpt>
      <trkpt lat="37.573352996259928" lon="-3.610285017639399">
        <ele>820.5</ele>
        <time>2003-04-20T18:41:47Z</time>
      </trkpt>
      <trkpt lat="37.573947021737695" lon="-3.609252031892538">
        <ele>818.89999999999998</ele>
        <time>2003-04-20T18:41:49Z</time>
      </trkpt>
      <trkpt lat="37.574616987258196" lon="-3.608285011723638">
        <ele>816.89999999999998</ele>
        <time>2003-04-20T18:41:52Z</time>
      </trkpt>
      <trkpt lat="37.57535501383245" lon="-3.607417987659574">
        <ele>815</ele>
        <time>2003-04-20T18:41:56Z</time>
      </trkpt>
      <trkpt lat="37.575885001569986" lon="-3.606939967721701">
        <ele>813.60000000000002</ele>
        <time>2003-04-20T18:41:57Z</time>
      </trkpt>
      <trkpt lat="37.576759988442063" lon="-3.606411991640925">
        <ele>811.79999999999995</ele>
        <time>2003-04-20T18:42:00Z</time>
      </trkpt>
      <trkpt lat="37.577709993347526" lon="-3.606124995276332">
        <ele>808.10000000000002</ele>
        <time>2003-04-20T18:42:04Z</time>
      </trkpt>
      <trkpt lat="37.578696962445974" lon="-3.606058023869991">
        <ele>804.5</ele>
        <time>2003-04-20T18:42:07Z</time>
      </trkpt>
      <trkpt lat="37.579676974564791" lon="-3.606004966422916">
        <ele>800.29999999999995</ele>
        <time>2003-04-20T18:42:09Z</time>
      </trkpt>
      <trkpt lat="37.580296983942389" lon="-3.605846967548132">
        <ele>797.89999999999998</ele>
        <time>2003-04-20T18:42:12Z</time>
      </trkpt>
      <trkpt lat="37.581193009391427" lon="-3.605465004220605">
        <ele>795.5</ele>
        <time>2003-04-20T18:42:15Z</time>
      </trkpt>
      <trkpt lat="37.581734983250499" lon="-3.605022020637989">
        <ele>793.39999999999998</ele>
        <time>2003-04-20T18:42:16Z</time>
      </trkpt>
      <trkpt lat="37.582232030108571" lon="-3.604482980445027">
        <ele>791.70000000000005</ele>
        <time>2003-04-20T18:42:19Z</time>
      </trkpt>
      <trkpt lat="37.582899983972311" lon="-3.603557031601667">
        <ele>789.60000000000002</ele>
        <time>2003-04-20T18:42:22Z</time>
      </trkpt>
      <trkpt lat="37.583602974191308" lon="-3.60276997089386">
        <ele>787.5</ele>
        <time>2003-04-20T18:42:24Z</time>
      </trkpt>
      <trkpt lat="37.584132961928844" lon="-3.602369986474514">
        <ele>785.60000000000002</ele>
        <time>2003-04-20T18:42:27Z</time>
      </trkpt>
      <trkpt lat="37.584715001285076" lon="-3.602066980674863">
        <ele>784.29999999999995</ele>
        <time>2003-04-20T18:42:28Z</time>
      </trkpt>
      <trkpt lat="37.585329981520772" lon="-3.601879980415106">
        <ele>782.79999999999995</ele>
        <time>2003-04-20T18:42:31Z</time>
      </trkpt>
      <trkpt lat="37.585972035303712" lon="-3.601806974038482">
        <ele>781.10000000000002</ele>
        <time>2003-04-20T18:42:32Z</time>
      </trkpt>
      <trkpt lat="37.586297001689672" lon="-3.601822983473539">
        <ele>780.39999999999998</ele>
        <time>2003-04-20T18:42:34Z</time>
      </trkpt>
      <trkpt lat="37.587275002151728" lon="-3.601977964863181">
        <ele>778.20000000000005</ele>
        <time>2003-04-20T18:42:36Z</time>
      </trkpt>
      <trkpt lat="37.588249985128641" lon="-3.602157002314925">
        <ele>777</ele>
        <time>2003-04-20T18:42:39Z</time>
      </trkpt>
      <trkpt lat="37.589237038046122" lon="-3.602250041440129">
        <ele>776.10000000000002</ele>
        <time>2003-04-20T18:42:43Z</time>
      </trkpt>
      <trkpt lat="37.589567033573985" lon="-3.602247023954988">
        <ele>775.60000000000002</ele>
        <time>2003-04-20T18:42:43Z</time>
      </trkpt>
      <trkpt lat="37.590558025985956" lon="-3.602236965671182">
        <ele>774.89999999999998</ele>
        <time>2003-04-20T18:42:46Z</time>
      </trkpt>
      <trkpt lat="37.591550024226308" lon="-3.602215005084872">
        <ele>772.29999999999995</ele>
        <time>2003-04-20T18:42:50Z</time>
      </trkpt>
      <trkpt lat="37.592555014416575" lon="-3.602258004248142">
        <ele>768.5</ele>
        <time>2003-04-20T18:42:53Z</time>
      </trkpt>
      <trkpt lat="37.593578025698662" lon="-3.602345008403063">
        <ele>764.79999999999995</ele>
        <time>2003-04-20T18:42:55Z</time>
      </trkpt>
      <trkpt lat="37.594606988132" lon="-3.602447016164661">
        <ele>761</ele>
        <time>2003-04-20T18:42:58Z</time>
      </trkpt>
      <trkpt lat="37.595603009685874" lon="-3.602537037804723">
        <ele>759.79999999999995</ele>
        <time>2003-04-20T18:43:02Z</time>
      </trkpt>
      <trkpt lat="37.596555026248097" lon="-3.602550029754639">
        <ele>758.60000000000002</ele>
        <time>2003-04-20T18:43:05Z</time>
      </trkpt>
      <trkpt lat="37.59748499840498" lon="-3.602332016453147">
        <ele>757.79999999999995</ele>
        <time>2003-04-20T18:43:08Z</time>
      </trkpt>
      <trkpt lat="37.598399966955185" lon="-3.601957010105252">
        <ele>756.79999999999995</ele>
        <time>2003-04-20T18:43:10Z</time>
      </trkpt>
      <trkpt lat="37.599294986575842" lon="-3.601498017087579">
        <ele>756.20000000000005</ele>
        <time>2003-04-20T18:43:13Z</time>
      </trkpt>
      <trkpt lat="37.600207021459937" lon="-3.601053021848202">
        <ele>754.89999999999998</ele>
        <time>2003-04-20T18:43:17Z</time>
      </trkpt>
      <trkpt lat="37.601097011938691" lon="-3.600614983588457">
        <ele>753.10000000000002</ele>
        <time>2003-04-20T18:43:20Z</time>
      </trkpt>
      <trkpt lat="37.60195498354733" lon="-3.600266966968775">
        <ele>750.20000000000005</ele>
        <time>2003-04-20T18:43:22Z</time>
      </trkpt>
      <trkpt lat="37.602819995954633" lon="-3.600069992244244">
        <ele>747.5</ele>
        <time>2003-04-20T18:43:25Z</time>
      </trkpt>
      <trkpt lat="37.603421984240413" lon="-3.600057000294328">
        <ele>745.70000000000005</ele>
        <time>2003-04-20T18:43:28Z</time>
      </trkpt>
      <trkpt lat="37.604033024981618" lon="-3.600151967257261">
        <ele>744.29999999999995</ele>
        <time>2003-04-20T18:43:29Z</time>
      </trkpt>
      <trkpt lat="37.604944976046681" lon="-3.600417003035545">
        <ele>742.79999999999995</ele>
        <time>2003-04-20T18:43:33Z</time>
      </trkpt>
      <trkpt lat="37.60586204007268" lon="-3.600665023550391">
        <ele>742</ele>
        <time>2003-04-20T18:43:36Z</time>
      </trkpt>
      <trkpt lat="37.606753036379814" lon="-3.601019997149706">
        <ele>739.70000000000005</ele>
        <time>2003-04-20T18:43:39Z</time>
      </trkpt>
      <trkpt lat="37.607617964968085" lon="-3.601546967402101">
        <ele>738</ele>
        <time>2003-04-20T18:43:41Z</time>
      </trkpt>
      <trkpt lat="37.608492029830813" lon="-3.602033033967018">
        <ele>736.89999999999998</ele>
        <time>2003-04-20T18:43:44Z</time>
      </trkpt>
      <trkpt lat="37.609370034188032" lon="-3.602292034775019">
        <ele>736</ele>
        <time>2003-04-20T18:43:48Z</time>
      </trkpt>
      <trkpt lat="37.609975039958954" lon="-3.602342996746302">
        <ele>734.70000000000005</ele>
        <time>2003-04-20T18:43:49Z</time>
      </trkpt>
      <trkpt lat="37.610594965517521" lon="-3.602322963997722">
        <ele>733.20000000000005</ele>
        <time>2003-04-20T18:43:52Z</time>
      </trkpt>
      <trkpt lat="37.61121497489512" lon="-3.602157002314925">
        <ele>731.29999999999995</ele>
        <time>2003-04-20T18:43:53Z</time>
      </trkpt>
      <trkpt lat="37.612128015607595" lon="-3.601721981540322">
        <ele>728.5</ele>
        <time>2003-04-20T18:43:56Z</time>
      </trkpt>
      <trkpt lat="37.613050024956465" lon="-3.601249996572733">
        <ele>726</ele>
        <time>2003-04-20T18:44:00Z</time>
      </trkpt>
      <trkpt lat="37.613972034305334" lon="-3.600784968584776">
        <ele>724</ele>
        <time>2003-04-20T18:44:03Z</time>
      </trkpt>
      <trkpt lat="37.614875016734004" lon="-3.600371992215514">
        <ele>722.29999999999995</ele>
        <time>2003-04-20T18:44:06Z</time>
      </trkpt>
      <trkpt lat="37.6154899969697" lon="-3.600203013047576">
        <ele>721.20000000000005</ele>
        <time>2003-04-20T18:44:07Z</time>
      </trkpt>
      <trkpt lat="37.616125009953976" lon="-3.600151967257261">
        <ele>719.70000000000005</ele>
        <time>2003-04-20T18:44:10Z</time>
      </trkpt>
      <trkpt lat="37.616446958854795" lon="-3.600172000005841">
        <ele>718.60000000000002</ele>
        <time>2003-04-20T18:44:11Z</time>
      </trkpt>
      <trkpt lat="37.617082977667451" lon="-3.60029798001051">
        <ele>717.29999999999995</ele>
        <time>2003-04-20T18:44:12Z</time>
      </trkpt>
      <trkpt lat="37.617701981216669" lon="-3.600550023838878">
        <ele>716.20000000000005</ele>
        <time>2003-04-20T18:44:15Z</time>
      </trkpt>
      <trkpt lat="37.618285026401281" lon="-3.600927963852882">
        <ele>714.60000000000002</ele>
        <time>2003-04-20T18:44:16Z</time>
      </trkpt>
      <trkpt lat="37.618819959461689" lon="-3.601413024589419">
        <ele>713.29999999999995</ele>
        <time>2003-04-20T18:44:19Z</time>
      </trkpt>
      <trkpt lat="37.619625041261315" lon="-3.602118026465178">
        <ele>710.89999999999998</ele>
        <time>2003-04-20T18:44:22Z</time>
      </trkpt>
      <trkpt lat="37.620176989585161" lon="-3.602494960650802">
        <ele>708.60000000000002</ele>
        <time>2003-04-20T18:44:23Z</time>
      </trkpt>
      <trkpt lat="37.62107796035707" lon="-3.602901985868812">
        <ele>706</ele>
        <time>2003-04-20T18:44:27Z</time>
      </trkpt>
      <trkpt lat="37.62172001414001" lon="-3.603035006672144">
        <ele>704</ele>
        <time>2003-04-20T18:44:29Z</time>
      </trkpt>
      <trkpt lat="37.622713018208742" lon="-3.603087980300188">
        <ele>701.20000000000005</ele>
        <time>2003-04-20T18:44:31Z</time>
      </trkpt>
      <trkpt lat="37.623724965378642" lon="-3.603122010827065">
        <ele>698.10000000000002</ele>
        <time>2003-04-20T18:44:34Z</time>
      </trkpt>
      <trkpt lat="37.624751999974251" lon="-3.603162998333573">
        <ele>696.20000000000005</ele>
        <time>2003-04-20T18:44:38Z</time>
      </trkpt>
      <trkpt lat="37.62578297406435" lon="-3.603207003325224">
        <ele>695.10000000000002</ele>
        <time>2003-04-20T18:44:41Z</time>
      </trkpt>
      <trkpt lat="37.62681202031672" lon="-3.603242039680481">
        <ele>693.79999999999995</ele>
        <time>2003-04-20T18:44:43Z</time>
      </trkpt>
      <trkpt lat="37.627842994406819" lon="-3.603277998045087">
        <ele>691.29999999999995</ele>
        <time>2003-04-20T18:44:46Z</time>
      </trkpt>
      <trkpt lat="37.628867011517286" lon="-3.60332703217864">
        <ele>689</ele>
        <time>2003-04-20T18:44:50Z</time>
      </trkpt>
      <trkpt lat="37.629852974787354" lon="-3.603376988321543">
        <ele>686.79999999999995</ele>
        <time>2003-04-20T18:44:53Z</time>
      </trkpt>
      <trkpt lat="37.630842039361596" lon="-3.603516966104507">
        <ele>683.89999999999998</ele>
        <time>2003-04-20T18:44:56Z</time>
      </trkpt>
      <trkpt lat="37.631821967661381" lon="-3.60386498272419">
        <ele>679.29999999999995</ele>
        <time>2003-04-20T18:44:58Z</time>
      </trkpt>
      <trkpt lat="37.632765015587211" lon="-3.604439981281757">
        <ele>675.10000000000002</ele>
        <time>2003-04-20T18:45:01Z</time>
      </trkpt>
      <trkpt lat="37.633717032149434" lon="-3.605037024244666">
        <ele>673</ele>
        <time>2003-04-20T18:45:05Z</time>
      </trkpt>
      <trkpt lat="37.634393032640219" lon="-3.605323014780879">
        <ele>671.60000000000002</ele>
        <time>2003-04-20T18:45:06Z</time>
      </trkpt>
      <trkpt lat="37.635101974010468" lon="-3.605472967028618">
        <ele>670.60000000000002</ele>
        <time>2003-04-20T18:45:09Z</time>
      </trkpt>
      <trkpt lat="37.63618198223412" lon="-3.605502974241972">
        <ele>668.70000000000005</ele>
        <time>2003-04-20T18:45:12Z</time>
      </trkpt>
      <trkpt lat="37.637238018214703" lon="-3.60562501475215">
        <ele>667.89999999999998</ele>
        <time>2003-04-20T18:45:14Z</time>
      </trkpt>
      <trkpt lat="37.638269998133183" lon="-3.605930032208562">
        <ele>667.20000000000005</ele>
        <time>2003-04-20T18:45:17Z</time>
      </trkpt>
      <trkpt lat="37.639289991930127" lon="-3.606260027736425">
        <ele>666.60000000000002</ele>
        <time>2003-04-20T18:45:21Z</time>
      </trkpt>
      <trkpt lat="37.640255000442266" lon="-3.606537971645594">
        <ele>665.89999999999998</ele>
        <time>2003-04-20T18:45:24Z</time>
      </trkpt>
      <trkpt lat="37.641233000904322" lon="-3.606722038239241">
        <ele>664.10000000000002</ele>
        <time>2003-04-20T18:45:27Z</time>
      </trkpt>
      <trkpt lat="37.642222987487912" lon="-3.606842989102006">
        <ele>661.10000000000002</ele>
        <time>2003-04-20T18:45:29Z</time>
      </trkpt>
      <trkpt lat="37.643226971849799" lon="-3.606944996863604">
        <ele>656.5</ele>
        <time>2003-04-20T18:45:32Z</time>
      </trkpt>
      <trkpt lat="37.644261969253421" lon="-3.60698196105659">
        <ele>651.60000000000002</ele>
        <time>2003-04-20T18:45:36Z</time>
      </trkpt>
      <trkpt lat="37.644607974216342" lon="-3.6069780215621">
        <ele>650.10000000000002</ele>
        <time>2003-04-20T18:45:36Z</time>
      </trkpt>
      <trkpt lat="37.64565696939826" lon="-3.606937034055591">
        <ele>645.20000000000005</ele>
        <time>2003-04-20T18:45:40Z</time>
      </trkpt>
      <trkpt lat="37.646711999550462" lon="-3.60685002990067">
        <ele>640.89999999999998</ele>
        <time>2003-04-20T18:45:43Z</time>
      </trkpt>
      <trkpt lat="37.64776200056076" lon="-3.606692031025887">
        <ele>638.39999999999998</ele>
        <time>2003-04-20T18:45:45Z</time>
      </trkpt>
      <trkpt lat="37.648802027106285" lon="-3.60646303743124">
        <ele>637.5</ele>
        <time>2003-04-20T18:45:48Z</time>
      </trkpt>
      <trkpt lat="37.649826966226101" lon="-3.606172017753124">
        <ele>636.29999999999995</ele>
        <time>2003-04-20T18:45:52Z</time>
      </trkpt>
      <trkpt lat="37.650845032185316" lon="-3.605842022225261">
        <ele>635</ele>
        <time>2003-04-20T18:45:55Z</time>
      </trkpt>
      <trkpt lat="37.651859996840358" lon="-3.605512026697397">
        <ele>633.5</ele>
        <time>2003-04-20T18:45:58Z</time>
      </trkpt>
      <trkpt lat="37.652834979817271" lon="-3.605189993977547">
        <ele>632.29999999999995</ele>
        <time>2003-04-20T18:46:00Z</time>
      </trkpt>
      <trkpt lat="37.653752965852618" lon="-3.604953037574887">
        <ele>631.10000000000002</ele>
        <time>2003-04-20T18:46:03Z</time>
      </trkpt>
      <trkpt lat="37.65463700518012" lon="-3.604899980127811">
        <ele>629.10000000000002</ele>
        <time>2003-04-20T18:46:07Z</time>
      </trkpt>
      <trkpt lat="37.655206974595785" lon="-3.605001987889409">
        <ele>628.29999999999995</ele>
        <time>2003-04-20T18:46:08Z</time>
      </trkpt>
      <trkpt lat="37.655769987031817" lon="-3.605208015069366">
        <ele>627.79999999999995</ele>
        <time>2003-04-20T18:46:11Z</time>
      </trkpt>
      <trkpt lat="37.656311960890889" lon="-3.605531975626946">
        <ele>626.39999999999998</ele>
        <time>2003-04-20T18:46:12Z</time>
      </trkpt>
      <trkpt lat="37.657058034092188" lon="-3.606175035238266">
        <ele>626</ele>
        <time>2003-04-20T18:46:15Z</time>
      </trkpt>
      <trkpt lat="37.657492971047759" lon="-3.60672002658248">
        <ele>625.39999999999998</ele>
        <time>2003-04-20T18:46:18Z</time>
      </trkpt>
      <trkpt lat="37.657873006537557" lon="-3.607340035960078">
        <ele>624.60000000000002</ele>
        <time>2003-04-20T18:46:19Z</time>
      </trkpt>
      <trkpt lat="37.658162014558911" lon="-3.608034979552031">
        <ele>624.10000000000002</ele>
        <time>2003-04-20T18:46:22Z</time>
      </trkpt>
      <trkpt lat="37.658510031178594" lon="-3.609109958633781">
        <ele>622.60000000000002</ele>
        <time>2003-04-20T18:46:25Z</time>
      </trkpt>
      <trkpt lat="37.658957960084081" lon="-3.61048299819231">
        <ele>621</ele>
        <time>2003-04-20T18:46:29Z</time>
      </trkpt>
      <trkpt lat="37.659404966980219" lon="-3.611414982005954">
        <ele>619.79999999999995</ele>
        <time>2003-04-20T18:46:31Z</time>
      </trkpt>
      <trkpt lat="37.659982983022928" lon="-3.612257027998567">
        <ele>619.10000000000002</ele>
        <time>2003-04-20T18:46:34Z</time>
      </trkpt>
      <trkpt lat="37.660667030140758" lon="-3.61299698241055">
        <ele>618.89999999999998</ele>
        <time>2003-04-20T18:46:38Z</time>
      </trkpt>
      <trkpt lat="37.661410002037883" lon="-3.613644987344742">
        <ele>619.39999999999998</ele>
        <time>2003-04-20T18:46:41Z</time>
      </trkpt>
      <trkpt lat="37.662096982821822" lon="-3.614364992827177">
        <ele>620.20000000000005</ele>
        <time>2003-04-20T18:46:44Z</time>
      </trkpt>
      <trkpt lat="37.66271498054266" lon="-3.615217013284564">
        <ele>619</ele>
        <time>2003-04-20T18:46:46Z</time>
      </trkpt>
      <trkpt lat="37.66331504099071" lon="-3.616102980449796">
        <ele>617.60000000000002</ele>
        <time>2003-04-20T18:46:50Z</time>
      </trkpt>
      <trkpt lat="37.663947958499193" lon="-3.616962963715196">
        <ele>616.79999999999995</ele>
        <time>2003-04-20T18:46:53Z</time>
      </trkpt>
      <trkpt lat="37.664471995085478" lon="-3.617439977824688">
        <ele>614.89999999999998</ele>
        <time>2003-04-20T18:46:54Z</time>
      </trkpt>
      <trkpt lat="37.665053028613329" lon="-3.617837028577924">
        <ele>613.10000000000002</ele>
        <time>2003-04-20T18:46:57Z</time>
      </trkpt>
      <trkpt lat="37.665983000770211" lon="-3.618312031030655">
        <ele>611.20000000000005</ele>
        <time>2003-04-20T18:47:00Z</time>
      </trkpt>
      <trkpt lat="37.666942980140448" lon="-3.618746967986226">
        <ele>609.5</ele>
        <time>2003-04-20T18:47:02Z</time>
      </trkpt>
      <trkpt lat="37.667927015572786" lon="-3.61916296184063">
        <ele>607.79999999999995</ele>
        <time>2003-04-20T18:47:05Z</time>
      </trkpt>
      <trkpt lat="37.668920019641519" lon="-3.619594965130091">
        <ele>605.89999999999998</ele>
        <time>2003-04-20T18:47:09Z</time>
      </trkpt>
      <trkpt lat="37.669916963204741" lon="-3.620050018653274">
        <ele>604.10000000000002</ele>
        <time>2003-04-20T18:47:12Z</time>
      </trkpt>
      <trkpt lat="37.670860011130571" lon="-3.620552010834217">
        <ele>602.39999999999998</ele>
        <time>2003-04-20T18:47:15Z</time>
      </trkpt>
      <trkpt lat="37.671417994424701" lon="-3.620972028002143">
        <ele>600.60000000000002</ele>
        <time>2003-04-20T18:47:17Z</time>
      </trkpt>
      <trkpt lat="37.672182004898787" lon="-3.621751964092255">
        <ele>599.39999999999998</ele>
        <time>2003-04-20T18:47:20Z</time>
      </trkpt>
      <trkpt lat="37.672872003167868" lon="-3.622629968449473">
        <ele>597.70000000000005</ele>
        <time>2003-04-20T18:47:23Z</time>
      </trkpt>
      <trkpt lat="37.673632996156812" lon="-3.623403031378985">
        <ele>596.20000000000005</ele>
        <time>2003-04-20T18:47:25Z</time>
      </trkpt>
      <trkpt lat="37.674491973593831" lon="-3.623984986916184">
        <ele>594.70000000000005</ele>
        <time>2003-04-20T18:47:28Z</time>
      </trkpt>
      <trkpt lat="37.675424963235855" lon="-3.624397963285446">
        <ele>593.5</ele>
        <time>2003-04-20T18:47:32Z</time>
      </trkpt>
      <trkpt lat="37.67637999728322" lon="-3.624750003218651">
        <ele>592.39999999999998</ele>
        <time>2003-04-20T18:47:35Z</time>
      </trkpt>
      <trkpt lat="37.67734500579536" lon="-3.625098019838333">
        <ele>591.10000000000002</ele>
        <time>2003-04-20T18:47:38Z</time>
      </trkpt>
      <trkpt lat="37.678302973508835" lon="-3.625488029792905">
        <ele>589.60000000000002</ele>
        <time>2003-04-20T18:47:40Z</time>
      </trkpt>
      <trkpt lat="37.679260019212961" lon="-3.62588700838387">
        <ele>588.29999999999995</ele>
        <time>2003-04-20T18:47:43Z</time>
      </trkpt>
      <trkpt lat="37.680212035775185" lon="-3.626324962824583">
        <ele>586.89999999999998</ele>
        <time>2003-04-20T18:47:47Z</time>
      </trkpt>
      <trkpt lat="37.681164974346757" lon="-3.626782028004527">
        <ele>585.60000000000002</ele>
        <time>2003-04-20T18:47:50Z</time>
      </trkpt>
      <trkpt lat="37.682108022272587" lon="-3.627252001315355">
        <ele>585.10000000000002</ele>
        <time>2003-04-20T18:47:52Z</time>
      </trkpt>
      <trkpt lat="37.682994995266199" lon="-3.627742007374764">
        <ele>586.20000000000005</ele>
        <time>2003-04-20T18:47:55Z</time>
      </trkpt>
      <trkpt lat="37.683803010731936" lon="-3.62833796069026">
        <ele>586.60000000000002</ele>
        <time>2003-04-20T18:47:59Z</time>
      </trkpt>
      <trkpt lat="37.684570038691163" lon="-3.628941960632801">
        <ele>587.10000000000002</ele>
        <time>2003-04-20T18:48:02Z</time>
      </trkpt>
      <trkpt lat="37.685406971722841" lon="-3.629372036084533">
        <ele>587.20000000000005</ele>
        <time>2003-04-20T18:48:05Z</time>
      </trkpt>
      <trkpt lat="37.685999991372228" lon="-3.629521988332272">
        <ele>586.70000000000005</ele>
        <time>2003-04-20T18:48:07Z</time>
      </trkpt>
      <trkpt lat="37.686908002942801" lon="-3.629579991102219">
        <ele>585.39999999999998</ele>
        <time>2003-04-20T18:48:10Z</time>
      </trkpt>
      <trkpt lat="37.687822971493006" lon="-3.629573034122586">
        <ele>584.5</ele>
        <time>2003-04-20T18:48:13Z</time>
      </trkpt>
      <trkpt lat="37.688416996970773" lon="-3.629675041884184">
        <ele>585.10000000000002</ele>
        <time>2003-04-20T18:48:14Z</time>
      </trkpt>
      <trkpt lat="37.689264994114637" lon="-3.6299919616431">
        <ele>586.70000000000005</ele>
        <time>2003-04-20T18:48:18Z</time>
      </trkpt>
      <trkpt lat="37.690362017601728" lon="-3.630503006279469">
        <ele>588.89999999999998</ele>
        <time>2003-04-20T18:48:22Z</time>
      </trkpt>
      <trkpt lat="37.69146197475493" lon="-3.631010027602315">
        <ele>589.79999999999995</ele>
        <time>2003-04-20T18:48:26Z</time>
      </trkpt>
      <trkpt lat="37.692562015727162" lon="-3.6315150372684">
        <ele>590.10000000000002</ele>
        <time>2003-04-20T18:48:30Z</time>
      </trkpt>
      <trkpt lat="37.693131985142827" lon="-3.631674963980913">
        <ele>590.20000000000005</ele>
        <time>2003-04-20T18:48:32Z</time>
      </trkpt>
      <trkpt lat="37.694092970341444" lon="-3.631485030055046">
        <ele>591</ele>
        <time>2003-04-20T18:48:34Z</time>
      </trkpt>
      <trkpt lat="37.694369992241263" lon="-3.631602041423321">
        <ele>591.79999999999995</ele>
        <time>2003-04-20T18:48:36Z</time>
      </trkpt>
      <trkpt lat="37.695174990221858" lon="-3.632062962278724">
        <ele>591.60000000000002</ele>
        <time>2003-04-20T18:48:38Z</time>
      </trkpt>
      <trkpt lat="37.695958027616143" lon="-3.632635027170181">
        <ele>591.20000000000005</ele>
        <time>2003-04-20T18:48:41Z</time>
      </trkpt>
      <trkpt lat="37.69676998257637" lon="-3.633178006857634">
        <ele>590.79999999999995</ele>
        <time>2003-04-20T18:48:45Z</time>
      </trkpt>
      <trkpt lat="37.697642035782337" lon="-3.633625013753772">
        <ele>589.89999999999998</ele>
        <time>2003-04-20T18:48:49Z</time>
      </trkpt>
      <trkpt lat="37.698563039302826" lon="-3.633981999009848">
        <ele>588.60000000000002</ele>
        <time>2003-04-20T18:48:50Z</time>
      </trkpt>
      <trkpt lat="37.699523018673062" lon="-3.634276958182454">
        <ele>586.20000000000005</ele>
        <time>2003-04-20T18:48:53Z</time>
      </trkpt>
      <trkpt lat="37.700502024963498" lon="-3.634633021429181">
        <ele>582.79999999999995</ele>
        <time>2003-04-20T18:48:57Z</time>
      </trkpt>
      <trkpt lat="37.701484970748425" lon="-3.635072987526655">
        <ele>579.39999999999998</ele>
        <time>2003-04-20T18:49:01Z</time>
      </trkpt>
      <trkpt lat="37.702451990917325" lon="-3.635602975264192">
        <ele>578</ele>
        <time>2003-04-20T18:49:04Z</time>
      </trkpt>
      <trkpt lat="37.703418005257845" lon="-3.636151989921928">
        <ele>576.39999999999998</ele>
        <time>2003-04-20T18:49:07Z</time>
      </trkpt>
      <trkpt lat="37.704391982406378" lon="-3.636684995144606">
        <ele>575.79999999999995</ele>
        <time>2003-04-20T18:49:09Z</time>
      </trkpt>
      <trkpt lat="37.705367971211672" lon="-3.637205008417368">
        <ele>572.70000000000005</ele>
        <time>2003-04-20T18:49:12Z</time>
      </trkpt>
      <trkpt lat="37.706346977502108" lon="-3.637740025296807">
        <ele>566.89999999999998</ele>
        <time>2003-04-20T18:49:16Z</time>
      </trkpt>
      <trkpt lat="37.707324977964163" lon="-3.638273030519486">
        <ele>561</ele>
        <time>2003-04-20T18:49:19Z</time>
      </trkpt>
      <trkpt lat="37.708265008404851" lon="-3.638807963579893">
        <ele>555.39999999999998</ele>
        <time>2003-04-20T18:49:21Z</time>
      </trkpt>
      <trkpt lat="37.709181988611817" lon="-3.639417998492718">
        <ele>549.5</ele>
        <time>2003-04-20T18:49:24Z</time>
      </trkpt>
      <trkpt lat="37.710056975483894" lon="-3.640162982046604">
        <ele>545.5</ele>
        <time>2003-04-20T18:49:28Z</time>
      </trkpt>
      <trkpt lat="37.710873037576675" lon="-3.64101299084723">
        <ele>544.5</ele>
        <time>2003-04-20T18:49:31Z</time>
      </trkpt>
      <trkpt lat="37.711621960625052" lon="-3.641940029338002">
        <ele>546.10000000000002</ele>
        <time>2003-04-20T18:49:34Z</time>
      </trkpt>
      <trkpt lat="37.712326962500811" lon="-3.642879975959659">
        <ele>550.20000000000005</ele>
        <time>2003-04-20T18:49:36Z</time>
      </trkpt>
      <trkpt lat="37.712987037375569" lon="-3.643816988915205">
        <ele>555.89999999999998</ele>
        <time>2003-04-20T18:49:39Z</time>
      </trkpt>
      <trkpt lat="37.713658008724451" lon="-3.644676972180605">
        <ele>561.89999999999998</ele>
        <time>2003-04-20T18:49:43Z</time>
      </trkpt>
      <trkpt lat="37.714337026700377" lon="-3.645484987646341">
        <ele>566.20000000000005</ele>
        <time>2003-04-20T18:49:46Z</time>
      </trkpt>
      <trkpt lat="37.715016966685653" lon="-3.646244974806905">
        <ele>570.89999999999998</ele>
        <time>2003-04-20T18:49:48Z</time>
      </trkpt>
      <trkpt lat="37.715921960771084" lon="-3.647187016904354">
        <ele>578.39999999999998</ele>
        <time>2003-04-20T18:49:53Z</time>
      </trkpt>
      <trkpt lat="37.716827038675547" lon="-3.648053035140038">
        <ele>584.39999999999998</ele>
        <time>2003-04-20T18:49:57Z</time>
      </trkpt>
      <trkpt lat="37.717647962272167" lon="-3.648982001468539">
        <ele>589.5</ele>
        <time>2003-04-20T18:50:01Z</time>
      </trkpt>
      <trkpt lat="37.718329997733235" lon="-3.650090005248785">
        <ele>591</ele>
        <time>2003-04-20T18:50:05Z</time>
      </trkpt>
      <trkpt lat="37.718732999637723" lon="-3.651034981012344">
        <ele>591</ele>
        <time>2003-04-20T18:50:07Z</time>
      </trkpt>
      <trkpt lat="37.719016978517175" lon="-3.652075007557869">
        <ele>589</ele>
        <time>2003-04-20T18:50:10Z</time>
      </trkpt>
      <trkpt lat="37.719144970178604" lon="-3.652816973626614">
        <ele>588.29999999999995</ele>
        <time>2003-04-20T18:50:13Z</time>
      </trkpt>
      <trkpt lat="37.719185035675764" lon="-3.65360202267766">
        <ele>585</ele>
        <time>2003-04-20T18:50:14Z</time>
      </trkpt>
      <trkpt lat="37.719117980450392" lon="-3.654812034219503">
        <ele>579.29999999999995</ele>
        <time>2003-04-20T18:50:18Z</time>
      </trkpt>
      <trkpt lat="37.718868032097816" lon="-3.656026991084218">
        <ele>573.5</ele>
        <time>2003-04-20T18:50:21Z</time>
      </trkpt>
      <trkpt lat="37.718441979959607" lon="-3.657197020947933">
        <ele>566.79999999999995</ele>
        <time>2003-04-20T18:50:24Z</time>
      </trkpt>
      <trkpt lat="37.717939987778664" lon="-3.658367972820997">
        <ele>561.89999999999998</ele>
        <time>2003-04-20T18:50:26Z</time>
      </trkpt>
      <trkpt lat="37.717474959790707" lon="-3.659579996019602">
        <ele>559.89999999999998</ele>
        <time>2003-04-20T18:50:29Z</time>
      </trkpt>
      <trkpt lat="37.717121997848153" lon="-3.660844992846251">
        <ele>560.60000000000002</ele>
        <time>2003-04-20T18:50:33Z</time>
      </trkpt>
      <trkpt lat="37.716871965676546" lon="-3.662142008543015">
        <ele>560</ele>
        <time>2003-04-20T18:50:36Z</time>
      </trkpt>
      <trkpt lat="37.716716984286904" lon="-3.663468025624752">
        <ele>558.29999999999995</ele>
        <time>2003-04-20T18:50:38Z</time>
      </trkpt>
      <trkpt lat="37.716672979295254" lon="-3.664824971929193">
        <ele>554.79999999999995</ele>
        <time>2003-04-20T18:50:41Z</time>
      </trkpt>
      <trkpt lat="37.71672997623682" lon="-3.666203040629625">
        <ele>550.39999999999998</ele>
        <time>2003-04-20T18:50:45Z</time>
      </trkpt>
      <trkpt lat="37.716822009533644" lon="-3.667601980268955">
        <ele>546.10000000000002</ele>
        <time>2003-04-20T18:50:48Z</time>
      </trkpt>
      <trkpt lat="37.716902978718281" lon="-3.668937971815467">
        <ele>541.89999999999998</ele>
        <time>2003-04-20T18:50:51Z</time>
      </trkpt>
      <trkpt lat="37.716989982873201" lon="-3.670217972248793">
        <ele>535.89999999999998</ele>
        <time>2003-04-20T18:50:53Z</time>
      </trkpt>
      <trkpt lat="37.717142030596733" lon="-3.671507025137544">
        <ele>529.89999999999998</ele>
        <time>2003-04-20T18:50:56Z</time>
      </trkpt>
      <trkpt lat="37.717358032241464" lon="-3.67235703393817">
        <ele>525.89999999999998</ele>
        <time>2003-04-20T18:50:59Z</time>
      </trkpt>
      <trkpt lat="37.717681992799044" lon="-3.6731549911201">
        <ele>521.89999999999998</ele>
        <time>2003-04-20T18:51:00Z</time>
      </trkpt>
      <trkpt lat="37.71829797886312" lon="-3.674232987686992">
        <ele>515.89999999999998</ele>
        <time>2003-04-20T18:51:04Z</time>
      </trkpt>
      <trkpt lat="37.719032987952232" lon="-3.675103029236198">
        <ele>513.10000000000002</ele>
        <time>2003-04-20T18:51:07Z</time>
      </trkpt>
      <trkpt lat="37.719866987317801" lon="-3.675808031111956">
        <ele>511.30000000000001</ele>
        <time>2003-04-20T18:51:09Z</time>
      </trkpt>
      <trkpt lat="37.720763012766838" lon="-3.67639702744782">
        <ele>510.69999999999999</ele>
        <time>2003-04-20T18:51:12Z</time>
      </trkpt>
      <trkpt lat="37.722275024279952" lon="-3.6774099804461">
        <ele>508.89999999999998</ele>
        <time>2003-04-20T18:51:18Z</time>
      </trkpt>
      <trkpt lat="37.723201978951693" lon="-3.678016997873783">
        <ele>506.69999999999999</ele>
        <time>2003-04-20T18:51:20Z</time>
      </trkpt>
      <trkpt lat="37.724142009392381" lon="-3.678642036393285">
        <ele>503.5</ele>
        <time>2003-04-20T18:51:23Z</time>
      </trkpt>
      <trkpt lat="37.725097965449095" lon="-3.679262967780232">
        <ele>500.19999999999999</ele>
        <time>2003-04-20T18:51:27Z</time>
      </trkpt>
      <trkpt lat="37.726051993668079" lon="-3.679892029613257">
        <ele>497.5</ele>
        <time>2003-04-20T18:51:30Z</time>
      </trkpt>
      <trkpt lat="37.72699998691678" lon="-3.680522013455629">
        <ele>495.60000000000002</ele>
        <time>2003-04-20T18:51:32Z</time>
      </trkpt>
      <trkpt lat="37.727940017357469" lon="-3.681153003126383">
        <ele>494.60000000000002</ele>
        <time>2003-04-20T18:51:35Z</time>
      </trkpt>
      <trkpt lat="37.728869989514351" lon="-3.681781981140375">
        <ele>493.69999999999999</ele>
        <time>2003-04-20T18:51:39Z</time>
      </trkpt>
      <trkpt lat="37.729793004691601" lon="-3.682399978861213">
        <ele>492.89999999999998</ele>
        <time>2003-04-20T18:51:42Z</time>
      </trkpt>
      <trkpt lat="37.730707973241806" lon="-3.683013031259179">
        <ele>492</ele>
        <time>2003-04-20T18:51:45Z</time>
      </trkpt>
      <trkpt lat="37.731571979820728" lon="-3.68359699845314">
        <ele>490.89999999999998</ele>
        <time>2003-04-20T18:51:47Z</time>
      </trkpt>
      <trkpt lat="37.732427017763257" lon="-3.684165040031076">
        <ele>489.80000000000001</ele>
        <time>2003-04-20T18:51:50Z</time>
      </trkpt>
      <trkpt lat="37.733260011300445" lon="-3.684650016948581">
        <ele>488.89999999999998</ele>
        <time>2003-04-20T18:51:54Z</time>
      </trkpt>
      <trkpt lat="37.734122006222606" lon="-3.685001973062754">
        <ele>488.39999999999998</ele>
        <time>2003-04-20T18:51:57Z</time>
      </trkpt>
      <trkpt lat="37.735028006136417" lon="-3.685204982757568">
        <ele>488.69999999999999</ele>
        <time>2003-04-20T18:51:59Z</time>
      </trkpt>
      <trkpt lat="37.735954960808158" lon="-3.685255022719502">
        <ele>489.60000000000002</ele>
        <time>2003-04-20T18:52:02Z</time>
      </trkpt>
      <trkpt lat="37.736876970157027" lon="-3.685149997472763">
        <ele>491.89999999999998</ele>
        <time>2003-04-20T18:52:06Z</time>
      </trkpt>
      <trkpt lat="37.737772995606065" lon="-3.684914968907833">
        <ele>495.30000000000001</ele>
        <time>2003-04-20T18:52:09Z</time>
      </trkpt>
      <trkpt lat="37.738919975236058" lon="-3.684512972831726">
        <ele>501.80000000000001</ele>
        <time>2003-04-20T18:52:13Z</time>
      </trkpt>
      <trkpt lat="37.740056980401278" lon="-3.684222958981991">
        <ele>507.60000000000002</ele>
        <time>2003-04-20T18:52:17Z</time>
      </trkpt>
      <trkpt lat="37.741191973909736" lon="-3.684124974533916">
        <ele>513.29999999999995</ele>
        <time>2003-04-20T18:52:21Z</time>
      </trkpt>
      <trkpt lat="37.741473019123077" lon="-3.684130003675818">
        <ele>514.39999999999998</ele>
        <time>2003-04-20T18:52:21Z</time>
      </trkpt>
      <trkpt lat="37.742597032338381" lon="-3.684211978688836">
        <ele>519</ele>
        <time>2003-04-20T18:52:25Z</time>
      </trkpt>
      <trkpt lat="37.743711993098259" lon="-3.684448013082147">
        <ele>521.79999999999995</ele>
        <time>2003-04-20T18:52:29Z</time>
      </trkpt>
      <trkpt lat="37.744817985221744" lon="-3.684852020815015">
        <ele>523.39999999999998</ele>
        <time>2003-04-20T18:52:33Z</time>
      </trkpt>
      <trkpt lat="37.745918026193976" lon="-3.685398017987609">
        <ele>524.5</ele>
        <time>2003-04-20T18:52:37Z</time>
      </trkpt>
      <trkpt lat="37.746710032224655" lon="-3.685948038473725">
        <ele>525.10000000000002</ele>
        <time>2003-04-20T18:52:40Z</time>
      </trkpt>
      <trkpt lat="37.747462978586555" lon="-3.686607023701072">
        <ele>526.39999999999998</ele>
        <time>2003-04-20T18:52:44Z</time>
      </trkpt>
      <trkpt lat="37.74818298406899" lon="-3.687346978113055">
        <ele>526.79999999999995</ele>
        <time>2003-04-20T18:52:47Z</time>
      </trkpt>
      <trkpt lat="37.748846998438239" lon="-3.688185000792146">
        <ele>527.70000000000005</ele>
        <time>2003-04-20T18:52:49Z</time>
      </trkpt>
      <trkpt lat="37.749452004209161" lon="-3.689101980999112">
        <ele>528.79999999999995</ele>
        <time>2003-04-20T18:52:52Z</time>
      </trkpt>
      <trkpt lat="37.749990038573742" lon="-3.690096996724606">
        <ele>529.89999999999998</ele>
        <time>2003-04-20T18:52:56Z</time>
      </trkpt>
      <trkpt lat="37.750452971085906" lon="-3.691162001341581">
        <ele>531</ele>
        <time>2003-04-20T18:52:59Z</time>
      </trkpt>
      <trkpt lat="37.750841975212097" lon="-3.692285008728504">
        <ele>532.20000000000005</ele>
        <time>2003-04-20T18:53:02Z</time>
      </trkpt>
      <trkpt lat="37.751217987388372" lon="-3.693437017500401">
        <ele>532.79999999999995</ele>
        <time>2003-04-20T18:53:04Z</time>
      </trkpt>
      <trkpt lat="37.751623000949621" lon="-3.694591959938407">
        <ele>533.60000000000002</ele>
        <time>2003-04-20T18:53:07Z</time>
      </trkpt>
      <trkpt lat="37.752098003402352" lon="-3.695727959275246">
        <ele>534.70000000000005</ele>
        <time>2003-04-20T18:53:11Z</time>
      </trkpt>
      <trkpt lat="37.752651963382959" lon="-3.696822971105576">
        <ele>535.79999999999995</ele>
        <time>2003-04-20T18:53:14Z</time>
      </trkpt>
      <trkpt lat="37.753277001902461" lon="-3.697868026793003">
        <ele>536.89999999999998</ele>
        <time>2003-04-20T18:53:16Z</time>
      </trkpt>
      <trkpt lat="37.753973035141826" lon="-3.698857007548213">
        <ele>537.39999999999998</ele>
        <time>2003-04-20T18:53:19Z</time>
      </trkpt>
      <trkpt lat="37.754727993160486" lon="-3.699787985533476">
        <ele>538</ele>
        <time>2003-04-20T18:53:23Z</time>
      </trkpt>
      <trkpt lat="37.755527039989829" lon="-3.700673030689359">
        <ele>539.20000000000005</ele>
        <time>2003-04-20T18:53:26Z</time>
      </trkpt>
      <trkpt lat="37.756319968029857" lon="-3.701572995632887">
        <ele>540</ele>
        <time>2003-04-20T18:53:29Z</time>
      </trkpt>
      <trkpt lat="37.757072998210788" lon="-3.702515037730336">
        <ele>540.89999999999998</ele>
        <time>2003-04-20T18:53:31Z</time>
      </trkpt>
      <trkpt lat="37.757759978994727" lon="-3.70353695936501">
        <ele>540.79999999999995</ele>
        <time>2003-04-20T18:53:34Z</time>
      </trkpt>
      <trkpt lat="37.758374959230423" lon="-3.70463197119534">
        <ele>540.70000000000005</ele>
        <time>2003-04-20T18:53:38Z</time>
      </trkpt>
      <trkpt lat="37.758927997201681" lon="-3.705781968310475">
        <ele>539.10000000000002</ele>
        <time>2003-04-20T18:53:41Z</time>
      </trkpt>
      <trkpt lat="37.759397970512509" lon="-3.706955015659332">
        <ele>536.60000000000002</ele>
        <time>2003-04-20T18:53:43Z</time>
      </trkpt>
      <trkpt lat="37.759784962981939" lon="-3.70813300833106">
        <ele>533.29999999999995</ele>
        <time>2003-04-20T18:53:46Z</time>
      </trkpt>
      <trkpt lat="37.760101966559887" lon="-3.709332961589098">
        <ele>529.29999999999995</ele>
        <time>2003-04-20T18:53:50Z</time>
      </trkpt>
      <trkpt lat="37.7603430300951" lon="-3.710567029193044">
        <ele>524.20000000000005</ele>
        <time>2003-04-20T18:53:53Z</time>
      </trkpt>
      <trkpt lat="37.760531958192587" lon="-3.711792966350913">
        <ele>518.70000000000005</ele>
        <time>2003-04-20T18:53:56Z</time>
      </trkpt>
      <trkpt lat="37.760721975937486" lon="-3.712976993992925">
        <ele>512.79999999999995</ele>
        <time>2003-04-20T18:53:58Z</time>
      </trkpt>
      <trkpt lat="37.76096697896719" lon="-3.714120034128428">
        <ele>507.39999999999998</ele>
        <time>2003-04-20T18:54:01Z</time>
      </trkpt>
      <trkpt lat="37.761309966444969" lon="-3.715229965746403">
        <ele>501.80000000000001</ele>
        <time>2003-04-20T18:54:05Z</time>
      </trkpt>
      <trkpt lat="37.761765019968152" lon="-3.716320032253861">
        <ele>496.19999999999999</ele>
        <time>2003-04-20T18:54:08Z</time>
      </trkpt>
      <trkpt lat="37.762315040454268" lon="-3.717367015779018">
        <ele>490.69999999999999</ele>
        <time>2003-04-20T18:54:10Z</time>
      </trkpt>
      <trkpt lat="37.762973019853234" lon="-3.718328000977635">
        <ele>485</ele>
        <time>2003-04-20T18:54:13Z</time>
      </trkpt>
      <trkpt lat="37.763720015063882" lon="-3.719204999506474">
        <ele>479</ele>
        <time>2003-04-20T18:54:17Z</time>
      </trkpt>
      <trkpt lat="37.764523001387715" lon="-3.719991976395249">
        <ele>473.5</ele>
        <time>2003-04-20T18:54:20Z</time>
      </trkpt>
      <trkpt lat="37.765326993539929" lon="-3.720747018232942">
        <ele>468.39999999999998</ele>
        <time>2003-04-20T18:54:23Z</time>
      </trkpt>
      <trkpt lat="37.76610299013555" lon="-3.721557967364788">
        <ele>462.69999999999999</ele>
        <time>2003-04-20T18:54:25Z</time>
      </trkpt>
      <trkpt lat="37.766837999224663" lon="-3.722458016127348">
        <ele>457.5</ele>
        <time>2003-04-20T18:54:28Z</time>
      </trkpt>
      <trkpt lat="37.767535038292408" lon="-3.723440039902926">
        <ele>451.69999999999999</ele>
        <time>2003-04-20T18:54:32Z</time>
      </trkpt>
      <trkpt lat="37.768172984942794" lon="-3.72450202703476">
        <ele>446</ele>
        <time>2003-04-20T18:54:35Z</time>
      </trkpt>
      <trkpt lat="37.76874303817749" lon="-3.725622016936541">
        <ele>441.89999999999998</ele>
        <time>2003-04-20T18:54:37Z</time>
      </trkpt>
      <trkpt lat="37.769245030358434" lon="-3.72678198851645">
        <ele>439.39999999999998</ele>
        <time>2003-04-20T18:54:40Z</time>
      </trkpt>
      <trkpt lat="37.769657000899315" lon="-3.727970039471984">
        <ele>437.69999999999999</ele>
        <time>2003-04-20T18:54:44Z</time>
      </trkpt>
      <trkpt lat="37.769997976720333" lon="-3.729163035750389">
        <ele>435.80000000000001</ele>
        <time>2003-04-20T18:54:47Z</time>
      </trkpt>
      <trkpt lat="37.770244991406798" lon="-3.730385033413768">
        <ele>434</ele>
        <time>2003-04-20T18:54:50Z</time>
      </trkpt>
      <trkpt lat="37.77044196613133" lon="-3.731603007763624">
        <ele>432.10000000000002</ele>
        <time>2003-04-20T18:54:52Z</time>
      </trkpt>
      <trkpt lat="37.770637013018131" lon="-3.732815030962229">
        <ele>430.19999999999999</ele>
        <time>2003-04-20T18:54:55Z</time>
      </trkpt>
      <trkpt lat="37.7708700299263" lon="-3.734008027240634">
        <ele>428.39999999999998</ele>
        <time>2003-04-20T18:54:59Z</time>
      </trkpt>
      <trkpt lat="37.77112802490592" lon="-3.735185014083982">
        <ele>426.30000000000001</ele>
        <time>2003-04-20T18:55:02Z</time>
      </trkpt>
      <trkpt lat="37.771443016827106" lon="-3.736332999542356">
        <ele>424.89999999999998</ele>
        <time>2003-04-20T18:55:04Z</time>
      </trkpt>
      <trkpt lat="37.771821962669492" lon="-3.737451983615756">
        <ele>422.69999999999999</ele>
        <time>2003-04-20T18:55:07Z</time>
      </trkpt>
      <trkpt lat="37.772222030907869" lon="-3.738561999052763">
        <ele>419.89999999999998</ele>
        <time>2003-04-20T18:55:11Z</time>
      </trkpt>
      <trkpt lat="37.772667026147246" lon="-3.739670002833009">
        <ele>415.89999999999998</ele>
        <time>2003-04-20T18:55:14Z</time>
      </trkpt>
      <trkpt lat="37.773152003064752" lon="-3.740783035755158">
        <ele>411.69999999999999</ele>
        <time>2003-04-20T18:55:17Z</time>
      </trkpt>
      <trkpt lat="37.773677967488766" lon="-3.741894979029894">
        <ele>407.19999999999999</ele>
        <time>2003-04-20T18:55:19Z</time>
      </trkpt>
      <trkpt lat="37.774233017116785" lon="-3.743007006123662">
        <ele>402.39999999999998</ele>
        <time>2003-04-20T18:55:22Z</time>
      </trkpt>
      <trkpt lat="37.774825030937791" lon="-3.744106963276863">
        <ele>397.69999999999999</ele>
        <time>2003-04-20T18:55:26Z</time>
      </trkpt>
      <trkpt lat="37.775462977588177" lon="-3.745186971500516">
        <ele>394</ele>
        <time>2003-04-20T18:55:29Z</time>
      </trkpt>
      <trkpt lat="37.776124980300665" lon="-3.746243007481098">
        <ele>391.69999999999999</ele>
        <time>2003-04-20T18:55:31Z</time>
      </trkpt>
      <trkpt lat="37.776817996054888" lon="-3.74725503847003">
        <ele>391.39999999999998</ele>
        <time>2003-04-20T18:55:34Z</time>
      </trkpt>
      <trkpt lat="37.777525009587407" lon="-3.748222980648279">
        <ele>392.30000000000001</ele>
        <time>2003-04-20T18:55:38Z</time>
      </trkpt>
      <trkpt lat="37.778233028948307" lon="-3.749156976118684">
        <ele>394.30000000000001</ele>
        <time>2003-04-20T18:55:41Z</time>
      </trkpt>
      <trkpt lat="37.778968038037419" lon="-3.750032968819141">
        <ele>395.89999999999998</ele>
        <time>2003-04-20T18:55:44Z</time>
      </trkpt>
      <trkpt lat="37.779716961085796" lon="-3.75086797401309">
        <ele>397.60000000000002</ele>
        <time>2003-04-20T18:55:46Z</time>
      </trkpt>
      <trkpt lat="37.78047502040863" lon="-3.751672971993685">
        <ele>399.30000000000001</ele>
        <time>2003-04-20T18:55:49Z</time>
      </trkpt>
      <trkpt lat="37.781252022832632" lon="-3.752432959154248">
        <ele>400.89999999999998</ele>
        <time>2003-04-20T18:55:53Z</time>
      </trkpt>
      <trkpt lat="37.782036988064647" lon="-3.753165034577251">
        <ele>402.39999999999998</ele>
        <time>2003-04-20T18:55:56Z</time>
      </trkpt>
      <trkpt lat="37.78283704072237" lon="-3.753859978169203">
        <ele>403.89999999999998</ele>
        <time>2003-04-20T18:55:58Z</time>
      </trkpt>
      <trkpt lat="37.783650001510978" lon="-3.7545180413872">
        <ele>405.39999999999998</ele>
        <time>2003-04-20T18:56:01Z</time>
      </trkpt>
      <trkpt lat="37.784481989219785" lon="-3.755137966945767">
        <ele>406.60000000000002</ele>
        <time>2003-04-20T18:56:05Z</time>
      </trkpt>
      <trkpt lat="37.785329986363649" lon="-3.755699973553419">
        <ele>408.5</ele>
        <time>2003-04-20T18:56:08Z</time>
      </trkpt>
      <trkpt lat="37.786202961578965" lon="-3.756206994876266">
        <ele>409.5</ele>
        <time>2003-04-20T18:56:11Z</time>
      </trkpt>
      <trkpt lat="37.787097981199622" lon="-3.756660036742687">
        <ele>409.89999999999998</ele>
        <time>2003-04-20T18:56:13Z</time>
      </trkpt>
      <trkpt lat="37.788014961406589" lon="-3.757060021162033">
        <ele>409.80000000000001</ele>
        <time>2003-04-20T18:56:16Z</time>
      </trkpt>
      <trkpt lat="37.788962032645941" lon="-3.757390016689897">
        <ele>409</ele>
        <time>2003-04-20T18:56:20Z</time>
      </trkpt>
      <trkpt lat="37.789932992309332" lon="-3.757652034983039">
        <ele>407.19999999999999</ele>
        <time>2003-04-20T18:56:24Z</time>
      </trkpt>
      <trkpt lat="37.790922978892922" lon="-3.757856972515583">
        <ele>406.5</ele>
        <time>2003-04-20T18:56:25Z</time>
      </trkpt>
      <trkpt lat="37.791931992396712" lon="-3.757992004975677">
        <ele>405.10000000000002</ele>
        <time>2003-04-20T18:56:28Z</time>
      </trkpt>
      <trkpt lat="37.792951986193657" lon="-3.758055036887527">
        <ele>403.89999999999998</ele>
        <time>2003-04-20T18:56:32Z</time>
      </trkpt>
      <trkpt lat="37.793637961149216" lon="-3.758055036887527">
        <ele>403.10000000000002</ele>
        <time>2003-04-20T18:56:33Z</time>
      </trkpt>
      <trkpt lat="37.794672036543489" lon="-3.757995022460818">
        <ele>401.89999999999998</ele>
        <time>2003-04-20T18:56:36Z</time>
      </trkpt>
      <trkpt lat="37.795711979269981" lon="-3.757899971678853">
        <ele>400.39999999999998</ele>
        <time>2003-04-20T18:56:40Z</time>
      </trkpt>
      <trkpt lat="37.796752005815506" lon="-3.757811961695552">
        <ele>399.60000000000002</ele>
        <time>2003-04-20T18:56:43Z</time>
      </trkpt>
      <trkpt lat="37.797793038189411" lon="-3.757771980017424">
        <ele>398</ele>
        <time>2003-04-20T18:56:47Z</time>
      </trkpt>
      <trkpt lat="37.798487981781363" lon="-3.757769968360663">
        <ele>397.5</ele>
        <time>2003-04-20T18:56:47Z</time>
      </trkpt>
      <trkpt lat="37.799533037468791" lon="-3.757886979728937">
        <ele>396.39999999999998</ele>
        <time>2003-04-20T18:56:51Z</time>
      </trkpt>
      <trkpt lat="37.800572980195284" lon="-3.758104993030429">
        <ele>395.10000000000002</ele>
        <time>2003-04-20T18:56:54Z</time>
      </trkpt>
      <trkpt lat="37.801604960113764" lon="-3.758402969688177">
        <ele>393.69999999999999</ele>
        <time>2003-04-20T18:56:56Z</time>
      </trkpt>
      <trkpt lat="37.802617996931076" lon="-3.758812006562948">
        <ele>392.39999999999998</ele>
        <time>2003-04-20T18:56:59Z</time>
      </trkpt>
      <trkpt lat="37.803615024313331" lon="-3.759311987087131">
        <ele>391</ele>
        <time>2003-04-20T18:57:03Z</time>
      </trkpt>
      <trkpt lat="37.804581960663199" lon="-3.759908024221659">
        <ele>389.69999999999999</ele>
        <time>2003-04-20T18:57:06Z</time>
      </trkpt>
      <trkpt lat="37.805516961961985" lon="-3.760595005005598">
        <ele>388.19999999999999</ele>
        <time>2003-04-20T18:57:09Z</time>
      </trkpt>
      <trkpt lat="37.806433020159602" lon="-3.761326996609569">
        <ele>387</ele>
        <time>2003-04-20T18:57:11Z</time>
      </trkpt>
      <trkpt lat="37.80735301785171" lon="-3.762057982385159">
        <ele>385.89999999999998</ele>
        <time>2003-04-20T18:57:14Z</time>
      </trkpt>
      <trkpt lat="37.80827502720058" lon="-3.762774970382452">
        <ele>385.69999999999999</ele>
        <time>2003-04-20T18:57:18Z</time>
      </trkpt>
      <trkpt lat="37.809235006570816" lon="-3.763391962274909">
        <ele>386.19999999999999</ele>
        <time>2003-04-20T18:57:21Z</time>
      </trkpt>
      <trkpt lat="37.810213007032871" lon="-3.763937037438154">
        <ele>387</ele>
        <time>2003-04-20T18:57:23Z</time>
      </trkpt>
      <trkpt lat="37.811207016929984" lon="-3.76440298743546">
        <ele>387.80000000000001</ele>
        <time>2003-04-20T18:57:26Z</time>
      </trkpt>
      <trkpt lat="37.812206977978349" lon="-3.764819987118244">
        <ele>388.69999999999999</ele>
        <time>2003-04-20T18:57:30Z</time>
      </trkpt>
      <trkpt lat="37.813222026452422" lon="-3.765142019838095">
        <ele>389.39999999999998</ele>
        <time>2003-04-20T18:57:33Z</time>
      </trkpt>
      <trkpt lat="37.814245037734509" lon="-3.765375036746264">
        <ele>390.19999999999999</ele>
        <time>2003-04-20T18:57:36Z</time>
      </trkpt>
      <trkpt lat="37.815278023481369" lon="-3.765536975115538">
        <ele>389.69999999999999</ele>
        <time>2003-04-20T18:57:38Z</time>
      </trkpt>
      <trkpt lat="37.816322995349765" lon="-3.765624985098839">
        <ele>388.10000000000002</ele>
        <time>2003-04-20T18:57:41Z</time>
      </trkpt>
      <trkpt lat="37.817380037158728" lon="-3.76564702950418">
        <ele>386.30000000000001</ele>
        <time>2003-04-20T18:57:45Z</time>
      </trkpt>
      <trkpt lat="37.817735010758042" lon="-3.765637977048755">
        <ele>385.69999999999999</ele>
        <time>2003-04-20T18:57:46Z</time>
      </trkpt>
      <trkpt lat="37.818798003718257" lon="-3.765632025897503">
        <ele>384</ele>
        <time>2003-04-20T18:57:49Z</time>
      </trkpt>
      <trkpt lat="37.819862002506852" lon="-3.7656269967556">
        <ele>384</ele>
        <time>2003-04-20T18:57:52Z</time>
      </trkpt>
      <trkpt lat="37.820913009345531" lon="-3.765654992312193">
        <ele>386</ele>
        <time>2003-04-20T18:57:54Z</time>
      </trkpt>
      <trkpt lat="37.821262031793594" lon="-3.765654992312193">
        <ele>386.5</ele>
        <time>2003-04-20T18:57:56Z</time>
      </trkpt>
      <trkpt lat="37.821608036756516" lon="-3.765664966776967">
        <ele>387.19999999999999</ele>
        <time>2003-04-20T18:57:57Z</time>
      </trkpt>
      <trkpt lat="37.822638005018234" lon="-3.765727998688817">
        <ele>388.39999999999998</ele>
        <time>2003-04-20T18:58:00Z</time>
      </trkpt>
      <trkpt lat="37.823656992986798" lon="-3.765781978145242">
        <ele>388.89999999999998</ele>
        <time>2003-04-20T18:58:03Z</time>
      </trkpt>
      <trkpt lat="37.824670029804111" lon="-3.76586202532053">
        <ele>388.39999999999998</ele>
        <time>2003-04-20T18:58:05Z</time>
      </trkpt>
      <trkpt lat="37.825693041086197" lon="-3.76594802364707">
        <ele>387.10000000000002</ele>
        <time>2003-04-20T18:58:08Z</time>
      </trkpt>
      <trkpt lat="37.826731977984309" lon="-3.766014995053411">
        <ele>385.30000000000001</ele>
        <time>2003-04-20T18:58:12Z</time>
      </trkpt>
      <trkpt lat="37.827782984822989" lon="-3.766039973124862">
        <ele>383.60000000000002</ele>
        <time>2003-04-20T18:58:15Z</time>
      </trkpt>
      <trkpt lat="37.828492010012269" lon="-3.766027987003326">
        <ele>382.5</ele>
        <time>2003-04-20T18:58:17Z</time>
      </trkpt>
      <trkpt lat="37.829562965780497" lon="-3.765952968969941">
        <ele>380.89999999999998</ele>
        <time>2003-04-20T18:58:20Z</time>
      </trkpt>
      <trkpt lat="37.830642974004149" lon="-3.765790024772286">
        <ele>379.69999999999999</ele>
        <time>2003-04-20T18:58:24Z</time>
      </trkpt>
      <trkpt lat="37.831721976399422" lon="-3.765558013692498">
        <ele>377.80000000000001</ele>
        <time>2003-04-20T18:58:26Z</time>
      </trkpt>
      <trkpt lat="37.832797039300203" lon="-3.765276968479157">
        <ele>376.5</ele>
        <time>2003-04-20T18:58:30Z</time>
      </trkpt>
      <trkpt lat="37.833864977583289" lon="-3.764958037063479">
        <ele>375.69999999999999</ele>
        <time>2003-04-20T18:58:32Z</time>
      </trkpt>
      <trkpt lat="37.834927970543504" lon="-3.764653019607067">
        <ele>375.60000000000002</ele>
        <time>2003-04-20T18:58:35Z</time>
      </trkpt>
      <trkpt lat="37.835981994867325" lon="-3.764350013807416">
        <ele>376.39999999999998</ele>
        <time>2003-04-20T18:58:39Z</time>
      </trkpt>
      <trkpt lat="37.837029984220862" lon="-3.764077015221119">
        <ele>376.89999999999998</ele>
        <time>2003-04-20T18:58:42Z</time>
      </trkpt>
      <trkpt lat="37.83807503990829" lon="-3.763824971392751">
        <ele>377.30000000000001</ele>
        <time>2003-04-20T18:58:44Z</time>
      </trkpt>
      <trkpt lat="37.839126968756318" lon="-3.763643000274897">
        <ele>377</ele>
        <time>2003-04-20T18:58:47Z</time>
      </trkpt>
      <trkpt lat="37.8401830047369" lon="-3.763497993350029">
        <ele>376</ele>
        <time>2003-04-20T18:58:51Z</time>
      </trkpt>
      <trkpt lat="37.841248009353876" lon="-3.763379976153374">
        <ele>374.80000000000001</ele>
        <time>2003-04-20T18:58:54Z</time>
      </trkpt>
      <trkpt lat="37.842315025627613" lon="-3.763336976990104">
        <ele>373.69999999999999</ele>
        <time>2003-04-20T18:58:57Z</time>
      </trkpt>
      <trkpt lat="37.842672010883689" lon="-3.763337982818484">
        <ele>373.30000000000001</ele>
        <time>2003-04-20T18:58:58Z</time>
      </trkpt>
      <trkpt lat="37.843741960823536" lon="-3.763382993638516">
        <ele>372.30000000000001</ele>
        <time>2003-04-20T18:59:01Z</time>
      </trkpt>
      <trkpt lat="37.844811994582415" lon="-3.763467986136675">
        <ele>371.19999999999999</ele>
        <time>2003-04-20T18:59:03Z</time>
      </trkpt>
      <trkpt lat="37.845878005027771" lon="-3.763611987233162">
        <ele>370.19999999999999</ele>
        <time>2003-04-20T18:59:06Z</time>
      </trkpt>
      <trkpt lat="37.846943009644747" lon="-3.763803010806441">
        <ele>368.69999999999999</ele>
        <time>2003-04-20T18:59:10Z</time>
      </trkpt>
      <trkpt lat="37.848012037575245" lon="-3.764039967209101">
        <ele>366.60000000000002</ele>
        <time>2003-04-20T18:59:13Z</time>
      </trkpt>
      <trkpt lat="37.849090034142137" lon="-3.764280024915934">
        <ele>364.10000000000002</ele>
        <time>2003-04-20T18:59:15Z</time>
      </trkpt>
      <trkpt lat="37.850172976031899" lon="-3.764555035158992">
        <ele>361.19999999999999</ele>
        <time>2003-04-20T18:59:18Z</time>
      </trkpt>
      <trkpt lat="37.85129003226757" lon="-3.76483197323978">
        <ele>358.39999999999998</ele>
        <time>2003-04-20T18:59:22Z</time>
      </trkpt>
      <trkpt lat="37.852423014119267" lon="-3.765064990147948">
        <ele>354.5</ele>
        <time>2003-04-20T18:59:25Z</time>
      </trkpt>
      <trkpt lat="37.853577034547925" lon="-3.765206979587674">
        <ele>352.5</ele>
        <time>2003-04-20T18:59:28Z</time>
      </trkpt>
      <trkpt lat="37.854742035269737" lon="-3.765245033428073">
        <ele>349.60000000000002</ele>
        <time>2003-04-20T18:59:30Z</time>
      </trkpt>
      <trkpt lat="37.855131961405277" lon="-3.765242015942931">
        <ele>348.69999999999999</ele>
        <time>2003-04-20T18:59:32Z</time>
      </trkpt>
      <trkpt lat="37.856302997097373" lon="-3.765153000131249">
        <ele>346</ele>
        <time>2003-04-20T18:59:34Z</time>
      </trkpt>
      <trkpt lat="37.857464980334044" lon="-3.764977985993028">
        <ele>344.69999999999999</ele>
        <time>2003-04-20T18:59:37Z</time>
      </trkpt>
      <trkpt lat="37.858601985499263" lon="-3.76472300849855">
        <ele>345.80000000000001</ele>
        <time>2003-04-20T18:59:41Z</time>
      </trkpt>
      <trkpt lat="37.85971300676465" lon="-3.76442201435566">
        <ele>347.80000000000001</ele>
        <time>2003-04-20T18:59:44Z</time>
      </trkpt>
      <trkpt lat="37.860816987231374" lon="-3.764127977192402">
        <ele>349.39999999999998</ele>
        <time>2003-04-20T18:59:47Z</time>
      </trkpt>
      <trkpt lat="37.861919961869717" lon="-3.76386696472764">
        <ele>349.30000000000001</ele>
        <time>2003-04-20T18:59:49Z</time>
      </trkpt>
      <trkpt lat="37.863038023933768" lon="-3.763687005266547">
        <ele>348.39999999999998</ele>
        <time>2003-04-20T18:59:52Z</time>
      </trkpt>
      <trkpt lat="37.864166982471943" lon="-3.763643000274897">
        <ele>346.19999999999999</ele>
        <time>2003-04-20T18:59:56Z</time>
      </trkpt>
      <trkpt lat="37.864537965506315" lon="-3.763662027195096">
        <ele>345.39999999999998</ele>
        <time>2003-04-20T18:59:56Z</time>
      </trkpt>
      <trkpt lat="37.865628032013774" lon="-3.763793036341667">
        <ele>341.19999999999999</ele>
        <time>2003-04-20T19:00:00Z</time>
      </trkpt>
      <trkpt lat="37.866702005267143" lon="-3.764022029936314">
        <ele>336.39999999999998</ele>
        <time>2003-04-20T19:00:03Z</time>
      </trkpt>
      <trkpt lat="37.867762986570597" lon="-3.764397958293557">
        <ele>331.5</ele>
        <time>2003-04-20T19:00:05Z</time>
      </trkpt>
      <trkpt lat="37.868812987580895" lon="-3.764887964352965">
        <ele>328.5</ele>
        <time>2003-04-20T19:00:08Z</time>
      </trkpt>
      <trkpt lat="37.869843039661646" lon="-3.765437984839082">
        <ele>327.69999999999999</ele>
        <time>2003-04-20T19:00:12Z</time>
      </trkpt>
      <trkpt lat="37.87086496129632" lon="-3.765979958698154">
        <ele>328.69999999999999</ele>
        <time>2003-04-20T19:00:15Z</time>
      </trkpt>
      <trkpt lat="37.871889984235168" lon="-3.76650701276958">
        <ele>329.5</ele>
        <time>2003-04-20T19:00:18Z</time>
      </trkpt>
      <trkpt lat="37.87292699329555" lon="-3.767013028264046">
        <ele>328.69999999999999</ele>
        <time>2003-04-20T19:00:20Z</time>
      </trkpt>
      <trkpt lat="37.873974982649088" lon="-3.767530024051666">
        <ele>326.89999999999998</ele>
        <time>2003-04-20T19:00:23Z</time>
      </trkpt>
      <trkpt lat="37.87503001280129" lon="-3.768062023445964">
        <ele>323.69999999999999</ele>
        <time>2003-04-20T19:00:27Z</time>
      </trkpt>
      <trkpt lat="37.876093005761504" lon="-3.768599973991513">
        <ele>320.19999999999999</ele>
        <time>2003-04-20T19:00:30Z</time>
      </trkpt>
      <trkpt lat="37.877157004550099" lon="-3.769138008356094">
        <ele>318.60000000000002</ele>
        <time>2003-04-20T19:00:32Z</time>
      </trkpt>
      <trkpt lat="37.878213040530682" lon="-3.769675036892295">
        <ele>317.89999999999998</ele>
        <time>2003-04-20T19:00:35Z</time>
      </trkpt>
      <trkpt lat="37.879277961328626" lon="-3.770196978002787">
        <ele>317</ele>
        <time>2003-04-20T19:00:39Z</time>
      </trkpt>
      <trkpt lat="37.880340032279491" lon="-3.770701987668872">
        <ele>315.89999999999998</ele>
        <time>2003-04-20T19:00:42Z</time>
      </trkpt>
      <trkpt lat="37.881382992491126" lon="-3.771240022033453">
        <ele>315.89999999999998</ele>
        <time>2003-04-20T19:00:45Z</time>
      </trkpt>
      <trkpt lat="37.882367027923465" lon="-3.771860031411052">
        <ele>315.19999999999999</ele>
        <time>2003-04-20T19:00:47Z</time>
      </trkpt>
      <trkpt lat="37.883240003138781" lon="-3.772582970559597">
        <ele>314.60000000000002</ele>
        <time>2003-04-20T19:00:50Z</time>
      </trkpt>
      <trkpt lat="37.884042989462614" lon="-3.773397020995617">
        <ele>314.5</ele>
        <time>2003-04-20T19:00:54Z</time>
      </trkpt>
      <trkpt lat="37.88476500660181" lon="-3.774273013696075">
        <ele>316.10000000000002</ele>
        <time>2003-04-20T19:00:57Z</time>
      </trkpt>
      <trkpt lat="37.885437989607453" lon="-3.775137020274997">
        <ele>318.69999999999999</ele>
        <time>2003-04-20T19:00:59Z</time>
      </trkpt>
      <trkpt lat="37.886112984269857" lon="-3.775958027690649">
        <ele>320.10000000000002</ele>
        <time>2003-04-20T19:01:02Z</time>
      </trkpt>
      <trkpt lat="37.88682502694428" lon="-3.776724971830845">
        <ele>320.5</ele>
        <time>2003-04-20T19:01:06Z</time>
      </trkpt>
      <trkpt lat="37.887594988569617" lon="-3.77742201089859">
        <ele>320.30000000000001</ele>
        <time>2003-04-20T19:01:09Z</time>
      </trkpt>
      <trkpt lat="37.888442985713482" lon="-3.777992986142635">
        <ele>319.10000000000002</ele>
        <time>2003-04-20T19:01:12Z</time>
      </trkpt>
      <trkpt lat="37.889349991455674" lon="-3.778464971110225">
        <ele>317.10000000000002</ele>
        <time>2003-04-20T19:01:14Z</time>
      </trkpt>
      <trkpt lat="37.890309970825911" lon="-3.778832014650106">
        <ele>314.10000000000002</ele>
        <time>2003-04-20T19:01:17Z</time>
      </trkpt>
      <trkpt lat="37.891308004036546" lon="-3.779112976044416">
        <ele>311</ele>
        <time>2003-04-20T19:01:21Z</time>
      </trkpt>
      <trkpt lat="37.892318023368716" lon="-3.779382035136223">
        <ele>309.19999999999999</ele>
        <time>2003-04-20T19:01:24Z</time>
      </trkpt>
      <trkpt lat="37.893327958881855" lon="-3.779662996530533">
        <ele>308.69999999999999</ele>
        <time>2003-04-20T19:01:26Z</time>
      </trkpt>
      <trkpt lat="37.894342001527548" lon="-3.779932977631688">
        <ele>308</ele>
        <time>2003-04-20T19:01:29Z</time>
      </trkpt>
      <trkpt lat="37.89535696618259" lon="-3.780207987874746">
        <ele>307.30000000000001</ele>
        <time>2003-04-20T19:01:33Z</time>
      </trkpt>
      <trkpt lat="37.896375032141805" lon="-3.780481992289424">
        <ele>306.69999999999999</ele>
        <time>2003-04-20T19:01:36Z</time>
      </trkpt>
      <trkpt lat="37.897395025938749" lon="-3.780782986432314">
        <ele>306.30000000000001</ele>
        <time>2003-04-20T19:01:39Z</time>
      </trkpt>
      <trkpt lat="37.898415019735694" lon="-3.78107501193881">
        <ele>305.69999999999999</ele>
        <time>2003-04-20T19:01:41Z</time>
      </trkpt>
      <trkpt lat="37.899441970512271" lon="-3.781350022181869">
        <ele>305</ele>
        <time>2003-04-20T19:01:44Z</time>
      </trkpt>
      <trkpt lat="37.90047001093626" lon="-3.781626960262656">
        <ele>304.30000000000001</ele>
        <time>2003-04-20T19:01:48Z</time>
      </trkpt>
      <trkpt lat="37.901499979197979" lon="-3.781901970505714">
        <ele>303.5</ele>
        <time>2003-04-20T19:01:51Z</time>
      </trkpt>
      <trkpt lat="37.902531959116459" lon="-3.782173041254282">
        <ele>302.89999999999998</ele>
        <time>2003-04-20T19:01:53Z</time>
      </trkpt>
      <trkpt lat="37.903565028682351" lon="-3.782458025962114">
        <ele>302.30000000000001</ele>
        <time>2003-04-20T19:01:56Z</time>
      </trkpt>
      <trkpt lat="37.904602959752083" lon="-3.78272800706327">
        <ele>301.60000000000002</ele>
        <time>2003-04-20T19:02:00Z</time>
      </trkpt>
      <trkpt lat="37.905633011832833" lon="-3.783036964014173">
        <ele>301.10000000000002</ele>
        <time>2003-04-20T19:02:03Z</time>
      </trkpt>
      <trkpt lat="37.906644959002733" lon="-3.783395038917661">
        <ele>301.39999999999998</ele>
        <time>2003-04-20T19:02:06Z</time>
      </trkpt>
      <trkpt lat="37.907627988606691" lon="-3.783829975873232">
        <ele>302.60000000000002</ele>
        <time>2003-04-20T19:02:08Z</time>
      </trkpt>
      <trkpt lat="37.908557960763574" lon="-3.784376978874207">
        <ele>304.60000000000002</ele>
        <time>2003-04-20T19:02:11Z</time>
      </trkpt>
      <trkpt lat="37.909462032839656" lon="-3.784954994916916">
        <ele>307.19999999999999</ele>
        <time>2003-04-20T19:02:15Z</time>
      </trkpt>
      <trkpt lat="37.91033199056983" lon="-3.785575004294515">
        <ele>310</ele>
        <time>2003-04-20T19:02:18Z</time>
      </trkpt>
      <trkpt lat="37.911176970228553" lon="-3.786222003400326">
        <ele>312.19999999999999</ele>
        <time>2003-04-20T19:02:20Z</time>
      </trkpt>
      <trkpt lat="37.912024967372417" lon="-3.786842012777925">
        <ele>314.60000000000002</ele>
        <time>2003-04-20T19:02:23Z</time>
      </trkpt>
      <trkpt lat="37.912902971729636" lon="-3.787388009950519">
        <ele>316</ele>
        <time>2003-04-20T19:02:27Z</time>
      </trkpt>
      <trkpt lat="37.913821963593364" lon="-3.787833005189896">
        <ele>316.30000000000001</ele>
        <time>2003-04-20T19:02:30Z</time>
      </trkpt>
      <trkpt lat="37.914783032611012" lon="-3.788155037909746">
        <ele>315.69999999999999</ele>
        <time>2003-04-20T19:02:33Z</time>
      </trkpt>
      <trkpt lat="37.915787016972899" lon="-3.788332985714078">
        <ele>314</ele>
        <time>2003-04-20T19:02:35Z</time>
      </trkpt>
      <trkpt lat="37.916817991062999" lon="-3.78840196877718">
        <ele>311.80000000000001</ele>
        <time>2003-04-20T19:02:38Z</time>
      </trkpt>
      <trkpt lat="37.917170030996203" lon="-3.78838000819087">
        <ele>311.30000000000001</ele>
        <time>2003-04-20T19:02:39Z</time>
      </trkpt>
      <trkpt lat="37.918227994814515" lon="-3.788195019587874">
        <ele>307.5</ele>
        <time>2003-04-20T19:02:42Z</time>
      </trkpt>
      <trkpt lat="37.919274978339672" lon="-3.787868041545153">
        <ele>306</ele>
        <time>2003-04-20T19:02:46Z</time>
      </trkpt>
      <trkpt lat="37.92027996852994" lon="-3.787364959716797">
        <ele>305.89999999999998</ele>
        <time>2003-04-20T19:02:49Z</time>
      </trkpt>
      <trkpt lat="37.921238020062447" lon="-3.786764983087778">
        <ele>307.60000000000002</ele>
        <time>2003-04-20T19:02:51Z</time>
      </trkpt>
      <trkpt lat="37.922166986390948" lon="-3.786137010902166">
        <ele>311.10000000000002</ele>
        <time>2003-04-20T19:02:54Z</time>
      </trkpt>
      <trkpt lat="37.923065023496747" lon="-3.785480037331581">
        <ele>314.39999999999998</ele>
        <time>2003-04-20T19:02:58Z</time>
      </trkpt>
      <trkpt lat="37.923957025632262" lon="-3.784845024347305">
        <ele>317.39999999999998</ele>
        <time>2003-04-20T19:03:01Z</time>
      </trkpt>
      <trkpt lat="37.92485699057579" lon="-3.784258039668202">
        <ele>319.39999999999998</ele>
        <time>2003-04-20T19:03:04Z</time>
      </trkpt>
      <trkpt lat="37.92578000575304" lon="-3.78373802639544">
        <ele>320.5</ele>
        <time>2003-04-20T19:03:06Z</time>
      </trkpt>
      <trkpt lat="37.926726993173361" lon="-3.783312980085611">
        <ele>320.69999999999999</ele>
        <time>2003-04-20T19:03:09Z</time>
      </trkpt>
      <trkpt lat="37.927704993635416" lon="-3.782992959022522">
        <ele>319.80000000000001</ele>
        <time>2003-04-20T19:03:13Z</time>
      </trkpt>
      <trkpt lat="37.928713001310825" lon="-3.782800007611513">
        <ele>317.69999999999999</ele>
        <time>2003-04-20T19:03:16Z</time>
      </trkpt>
      <trkpt lat="37.929744981229305" lon="-3.782739993184805">
        <ele>314.30000000000001</ele>
        <time>2003-04-20T19:03:18Z</time>
      </trkpt>
      <trkpt lat="37.930091992020607" lon="-3.782758014276624">
        <ele>313.19999999999999</ele>
        <time>2003-04-20T19:03:20Z</time>
      </trkpt>
      <trkpt lat="37.931136963889003" lon="-3.782890029251576">
        <ele>309.5</ele>
        <time>2003-04-20T19:03:23Z</time>
      </trkpt>
      <trkpt lat="37.932167015969753" lon="-3.783145006746054">
        <ele>306.30000000000001</ele>
        <time>2003-04-20T19:03:25Z</time>
      </trkpt>
      <trkpt lat="37.93312699533999" lon="-3.78352303057909">
        <ele>304.89999999999998</ele>
        <time>2003-04-20T19:03:28Z</time>
      </trkpt>
      <trkpt lat="37.934012962505221" lon="-3.783993003889918">
        <ele>304.19999999999999</ele>
        <time>2003-04-20T19:03:32Z</time>
      </trkpt>
      <trkpt lat="37.934872023761272" lon="-3.7845120113343">
        <ele>303.80000000000001</ele>
        <time>2003-04-20T19:03:35Z</time>
      </trkpt>
      <trkpt lat="37.935726977884769" lon="-3.785081980749965">
        <ele>303.30000000000001</ele>
        <time>2003-04-20T19:03:37Z</time>
      </trkpt>
      <trkpt lat="37.936576986685395" lon="-3.785697966814041">
        <ele>302.89999999999998</ele>
        <time>2003-04-20T19:03:40Z</time>
      </trkpt>
      <trkpt lat="37.937434958294034" lon="-3.786328034475446">
        <ele>302.39999999999998</ele>
        <time>2003-04-20T19:03:44Z</time>
      </trkpt>
      <trkpt lat="37.938302988186479" lon="-3.786972016096115">
        <ele>301.89999999999998</ele>
        <time>2003-04-20T19:03:47Z</time>
      </trkpt>
      <trkpt lat="37.939179986715317" lon="-3.787614991888404">
        <ele>300.89999999999998</ele>
        <time>2003-04-20T19:03:50Z</time>
      </trkpt>
      <trkpt lat="37.94006796553731" lon="-3.788255034014583">
        <ele>299</ele>
        <time>2003-04-20T19:03:52Z</time>
      </trkpt>
      <trkpt lat="37.940961979329586" lon="-3.788904966786504">
        <ele>296.30000000000001</ele>
        <time>2003-04-20T19:03:55Z</time>
      </trkpt>
      <trkpt lat="37.941879965364933" lon="-3.789547020569444">
        <ele>292.80000000000001</ele>
        <time>2003-04-20T19:03:59Z</time>
      </trkpt>
      <trkpt lat="37.942837011069059" lon="-3.790159989148378">
        <ele>288.30000000000001</ele>
        <time>2003-04-20T19:04:02Z</time>
      </trkpt>
      <trkpt lat="37.943809982389212" lon="-3.790719984099269">
        <ele>282.5</ele>
        <time>2003-04-20T19:04:04Z</time>
      </trkpt>
      <trkpt lat="37.944782031700015" lon="-3.791196998208761">
        <ele>278.19999999999999</ele>
        <time>2003-04-20T19:04:07Z</time>
      </trkpt>
      <trkpt lat="37.945794984698296" lon="-3.791615003719926">
        <ele>275.39999999999998</ele>
        <time>2003-04-20T19:04:11Z</time>
      </trkpt>
      <trkpt lat="37.946827970445156" lon="-3.791935024783015">
        <ele>274.60000000000002</ele>
        <time>2003-04-20T19:04:14Z</time>
      </trkpt>
      <trkpt lat="37.9478669911623" lon="-3.792171981185675">
        <ele>275.5</ele>
        <time>2003-04-20T19:04:17Z</time>
      </trkpt>
      <trkpt lat="37.948897965252399" lon="-3.79231296479702">
        <ele>278</ele>
        <time>2003-04-20T19:04:19Z</time>
      </trkpt>
      <trkpt lat="37.94990798458457" lon="-3.792361998930574">
        <ele>282.10000000000002</ele>
        <time>2003-04-20T19:04:22Z</time>
      </trkpt>
      <trkpt lat="37.950237980112433" lon="-3.792354958131909">
        <ele>283.89999999999998</ele>
        <time>2003-04-20T19:04:23Z</time>
      </trkpt>
      <trkpt lat="37.951208017766476" lon="-3.792297039180994">
        <ele>289.39999999999998</ele>
        <time>2003-04-20T19:04:26Z</time>
      </trkpt>
      <trkpt lat="37.952151987701654" lon="-3.792201988399029">
        <ele>294.60000000000002</ele>
        <time>2003-04-20T19:04:30Z</time>
      </trkpt>
      <trkpt lat="37.95306796208024" lon="-3.792077014222741">
        <ele>299.60000000000002</ele>
        <time>2003-04-20T19:04:33Z</time>
      </trkpt>
      <trkpt lat="37.953958036378026" lon="-3.791866963729262">
        <ele>304.39999999999998</ele>
        <time>2003-04-20T19:04:35Z</time>
      </trkpt>
      <trkpt lat="37.955117002129555" lon="-3.791545014828444">
        <ele>309.19999999999999</ele>
        <time>2003-04-20T19:04:39Z</time>
      </trkpt>
      <trkpt lat="37.956261970102787" lon="-3.791198004037142">
        <ele>313.19999999999999</ele>
        <time>2003-04-20T19:04:44Z</time>
      </trkpt>
      <trkpt lat="37.95740501023829" lon="-3.790817968547344">
        <ele>315.69999999999999</ele>
        <time>2003-04-20T19:04:48Z</time>
      </trkpt>
      <trkpt lat="37.958561964333057" lon="-3.790457965806127">
        <ele>317.30000000000001</ele>
        <time>2003-04-20T19:04:52Z</time>
      </trkpt>
      <trkpt lat="37.959444997832179" lon="-3.790192008018494">
        <ele>317.69999999999999</ele>
        <time>2003-04-20T19:04:54Z</time>
      </trkpt>
      <trkpt lat="37.960347980260849" lon="-3.789954967796803">
        <ele>317.69999999999999</ele>
        <time>2003-04-20T19:04:57Z</time>
      </trkpt>
      <trkpt lat="37.961272001266479" lon="-3.78973200917244">
        <ele>316.80000000000001</ele>
        <time>2003-04-20T19:05:01Z</time>
      </trkpt>
      <trkpt lat="37.962227035313845" lon="-3.78958297893405">
        <ele>315.30000000000001</ele>
        <time>2003-04-20T19:05:04Z</time>
      </trkpt>
      <trkpt lat="37.963206963613629" lon="-3.789477031677961">
        <ele>313</ele>
        <time>2003-04-20T19:05:06Z</time>
      </trkpt>
      <trkpt lat="37.964214971289039" lon="-3.789443001151085">
        <ele>310.5</ele>
        <time>2003-04-20T19:05:09Z</time>
      </trkpt>
      <trkpt lat="37.964555025100708" lon="-3.789449958130717">
        <ele>309.69999999999999</ele>
        <time>2003-04-20T19:05:11Z</time>
      </trkpt>
      <trkpt lat="37.965587005019188" lon="-3.78951701335609">
        <ele>307.30000000000001</ele>
        <time>2003-04-20T19:05:13Z</time>
      </trkpt>
      <trkpt lat="37.966631976887584" lon="-3.789651961997151">
        <ele>305.10000000000002</ele>
        <time>2003-04-20T19:05:16Z</time>
      </trkpt>
      <trkpt lat="37.967679966241121" lon="-3.78986201249063">
        <ele>303.19999999999999</ele>
        <time>2003-04-20T19:05:20Z</time>
      </trkpt>
      <trkpt lat="37.968731978908181" lon="-3.79012000747025">
        <ele>301.10000000000002</ele>
        <time>2003-04-20T19:05:23Z</time>
      </trkpt>
      <trkpt lat="37.969779968261719" lon="-3.790417984127998">
        <ele>299.60000000000002</ele>
        <time>2003-04-20T19:05:25Z</time>
      </trkpt>
      <trkpt lat="37.970837010070682" lon="-3.790728030726314">
        <ele>297.60000000000002</ele>
        <time>2003-04-20T19:05:28Z</time>
      </trkpt>
      <trkpt lat="37.971912994980812" lon="-3.79102198407054">
        <ele>294.30000000000001</ele>
        <time>2003-04-20T19:05:32Z</time>
      </trkpt>
      <trkpt lat="37.973017981275916" lon="-3.791321972385049">
        <ele>290</ele>
        <time>2003-04-20T19:05:35Z</time>
      </trkpt>
      <trkpt lat="37.974152974784374" lon="-3.791562030091882">
        <ele>284.89999999999998</ele>
        <time>2003-04-20T19:05:38Z</time>
      </trkpt>
      <trkpt lat="37.975308001041412" lon="-3.791733020916581">
        <ele>277.89999999999998</ele>
        <time>2003-04-20T19:05:40Z</time>
      </trkpt>
      <trkpt lat="37.976481970399618" lon="-3.791822036728263">
        <ele>271.60000000000002</ele>
        <time>2003-04-20T19:05:43Z</time>
      </trkpt>
      <trkpt lat="37.977664992213249" lon="-3.791869981214404">
        <ele>265</ele>
        <time>2003-04-20T19:05:47Z</time>
      </trkpt>
      <trkpt lat="37.978822030127048" lon="-3.791894959285855">
        <ele>260</ele>
        <time>2003-04-20T19:05:50Z</time>
      </trkpt>
      <trkpt lat="37.979913018643856" lon="-3.791922032833099">
        <ele>256.30000000000001</ele>
        <time>2003-04-20T19:05:52Z</time>
      </trkpt>
      <trkpt lat="37.980947010219097" lon="-3.791954973712564">
        <ele>254</ele>
        <time>2003-04-20T19:05:55Z</time>
      </trkpt>
      <trkpt lat="37.981949988752604" lon="-3.792050024494529">
        <ele>252.5</ele>
        <time>2003-04-20T19:05:59Z</time>
      </trkpt>
      <trkpt lat="37.982942992821336" lon="-3.792297961190343">
        <ele>251.69999999999999</ele>
        <time>2003-04-20T19:06:02Z</time>
      </trkpt>
      <trkpt lat="37.983913030475378" lon="-3.792667016386986">
        <ele>251.69999999999999</ele>
        <time>2003-04-20T19:06:05Z</time>
      </trkpt>
      <trkpt lat="37.984867980703712" lon="-3.79308502189815">
        <ele>252.80000000000001</ele>
        <time>2003-04-20T19:06:07Z</time>
      </trkpt>
      <trkpt lat="37.985817985609174" lon="-3.79349498078227">
        <ele>254.69999999999999</ele>
        <time>2003-04-20T19:06:10Z</time>
      </trkpt>
      <trkpt lat="37.986760027706623" lon="-3.793897982686758">
        <ele>256.60000000000002</ele>
        <time>2003-04-20T19:06:14Z</time>
      </trkpt>
      <trkpt lat="37.987695029005408" lon="-3.794296961277723">
        <ele>258.30000000000001</ele>
        <time>2003-04-20T19:06:17Z</time>
      </trkpt>
      <trkpt lat="37.988630030304193" lon="-3.794698035344482">
        <ele>259.30000000000001</ele>
        <time>2003-04-20T19:06:19Z</time>
      </trkpt>
      <trkpt lat="37.989580035209656" lon="-3.795079998672009">
        <ele>259.39999999999998</ele>
        <time>2003-04-20T19:06:22Z</time>
      </trkpt>
      <trkpt lat="37.990543032065034" lon="-3.795447964221239">
        <ele>258.69999999999999</ele>
        <time>2003-04-20T19:06:26Z</time>
      </trkpt>
      <trkpt lat="37.99152203835547" lon="-3.795796986669302">
        <ele>257.10000000000002</ele>
        <time>2003-04-20T19:06:29Z</time>
      </trkpt>
      <trkpt lat="37.992542032152414" lon="-3.796042995527387">
        <ele>255.09999999999999</ele>
        <time>2003-04-20T19:06:32Z</time>
      </trkpt>
      <trkpt lat="37.993588009849191" lon="-3.79617802798748">
        <ele>253.80000000000001</ele>
        <time>2003-04-20T19:06:34Z</time>
      </trkpt>
      <trkpt lat="37.994289994239807" lon="-3.796181967481971">
        <ele>254.30000000000001</ele>
        <time>2003-04-20T19:06:37Z</time>
      </trkpt>
      <trkpt lat="37.995330020785332" lon="-3.79607199691236">
        <ele>256.39999999999998</ele>
        <time>2003-04-20T19:06:40Z</time>
      </trkpt>
      <trkpt lat="37.99633702263236" lon="-3.795837974175811">
        <ele>260.10000000000002</ele>
        <time>2003-04-20T19:06:42Z</time>
      </trkpt>
      <trkpt lat="37.997297002002597" lon="-3.79547000862658">
        <ele>264.30000000000001</ele>
        <time>2003-04-20T19:06:45Z</time>
      </trkpt>
      <trkpt lat="37.998211970552802" lon="-3.794995006173849">
        <ele>267.60000000000002</ele>
        <time>2003-04-20T19:06:49Z</time>
      </trkpt>
      <trkpt lat="37.999080000445247" lon="-3.794412966817617">
        <ele>269.39999999999998</ele>
        <time>2003-04-20T19:06:52Z</time>
      </trkpt>
      <trkpt lat="37.999892961233854" lon="-3.793711988255382">
        <ele>270.60000000000002</ele>
        <time>2003-04-20T19:06:54Z</time>
      </trkpt>
      <trkpt lat="38.000667029991746" lon="-3.792936997488141">
        <ele>271.69999999999999</ele>
        <time>2003-04-20T19:06:57Z</time>
      </trkpt>
      <trkpt lat="38.001402961090207" lon="-3.79209796898067">
        <ele>272.60000000000002</ele>
        <time>2003-04-20T19:07:01Z</time>
      </trkpt>
      <trkpt lat="38.002109974622726" lon="-3.791217030957341">
        <ele>273.5</ele>
        <time>2003-04-20T19:07:04Z</time>
      </trkpt>
      <trkpt lat="38.002811959013343" lon="-3.790323017165065">
        <ele>274.5</ele>
        <time>2003-04-20T19:07:07Z</time>
      </trkpt>
      <trkpt lat="38.003521990031004" lon="-3.789437972009182">
        <ele>275.69999999999999</ele>
        <time>2003-04-20T19:07:09Z</time>
      </trkpt>
      <trkpt lat="38.00428700633347" lon="-3.788621993735433">
        <ele>276.80000000000001</ele>
        <time>2003-04-20T19:07:12Z</time>
      </trkpt>
      <trkpt lat="38.005110025405884" lon="-3.787902994081378">
        <ele>277.60000000000002</ele>
        <time>2003-04-20T19:07:16Z</time>
      </trkpt>
      <trkpt lat="38.005979983136058" lon="-3.787292037159205">
        <ele>279.5</ele>
        <time>2003-04-20T19:07:20Z</time>
      </trkpt>
      <trkpt lat="38.006887994706631" lon="-3.786822985857725">
        <ele>282.80000000000001</ele>
        <time>2003-04-20T19:07:21Z</time>
      </trkpt>
      <trkpt lat="38.007807992398739" lon="-3.786482010036707">
        <ele>287.19999999999999</ele>
        <time>2003-04-20T19:07:26Z</time>
      </trkpt>
      <trkpt lat="38.008727990090847" lon="-3.786259973421693">
        <ele>291.60000000000002</ele>
        <time>2003-04-20T19:07:28Z</time>
      </trkpt>
      <trkpt lat="38.009638013318181" lon="-3.786122007295489">
        <ele>295.80000000000001</ele>
        <time>2003-04-20T19:07:31Z</time>
      </trkpt>
      <trkpt lat="38.010536972433329" lon="-3.785972977057099">
        <ele>299.30000000000001</ele>
        <time>2003-04-20T19:07:34Z</time>
      </trkpt>
      <trkpt lat="38.01142000593245" lon="-3.785750018432736">
        <ele>302</ele>
        <time>2003-04-20T19:07:36Z</time>
      </trkpt>
      <trkpt lat="38.012288035824895" lon="-3.785420022904873">
        <ele>303.60000000000002</ele>
        <time>2003-04-20T19:07:39Z</time>
      </trkpt>
      <trkpt lat="38.013135027140379" lon="-3.784991959109902">
        <ele>305</ele>
        <time>2003-04-20T19:07:43Z</time>
      </trkpt>
      <trkpt lat="38.013965003192425" lon="-3.784462977200747">
        <ele>305.39999999999998</ele>
        <time>2003-04-20T19:07:47Z</time>
      </trkpt>
      <trkpt lat="38.014797996729612" lon="-3.783895019441843">
        <ele>304.69999999999999</ele>
        <time>2003-04-20T19:07:50Z</time>
      </trkpt>
      <trkpt lat="38.015657979995012" lon="-3.783326977863908">
        <ele>303.10000000000002</ele>
        <time>2003-04-20T19:07:51Z</time>
      </trkpt>
      <trkpt lat="38.016477981582284" lon="-3.782762959599495">
        <ele>300.5</ele>
        <time>2003-04-20T19:07:55Z</time>
      </trkpt>
      <trkpt lat="38.017296977341175" lon="-3.782221991568804">
        <ele>297.30000000000001</ele>
        <time>2003-04-20T19:07:58Z</time>
      </trkpt>
      <trkpt lat="38.018150003626943" lon="-3.78165696747601">
        <ele>294</ele>
        <time>2003-04-20T19:08:02Z</time>
      </trkpt>
      <trkpt lat="38.019043011590838" lon="-3.78109697252512">
        <ele>290.30000000000001</ele>
        <time>2003-04-20T19:08:05Z</time>
      </trkpt>
      <trkpt lat="38.019957980141044" lon="-3.780522979795933">
        <ele>286.69999999999999</ele>
        <time>2003-04-20T19:08:07Z</time>
      </trkpt>
      <trkpt lat="38.020885018631816" lon="-3.779943035915494">
        <ele>283.10000000000002</ele>
        <time>2003-04-20T19:08:10Z</time>
      </trkpt>
      <trkpt lat="38.021823037415743" lon="-3.779374994337559">
        <ele>279.5</ele>
        <time>2003-04-20T19:08:14Z</time>
      </trkpt>
      <trkpt lat="38.022787040099502" lon="-3.778809970244765">
        <ele>275.89999999999998</ele>
        <time>2003-04-20T19:08:17Z</time>
      </trkpt>
      <trkpt lat="38.023754982277751" lon="-3.778266990557313">
        <ele>272.19999999999999</ele>
        <time>2003-04-20T19:08:20Z</time>
      </trkpt>
      <trkpt lat="38.024693001061678" lon="-3.77774203196168">
        <ele>268.89999999999998</ele>
        <time>2003-04-20T19:08:22Z</time>
      </trkpt>
      <trkpt lat="38.025628002360463" lon="-3.777241967618465">
        <ele>265.80000000000001</ele>
        <time>2003-04-20T19:08:25Z</time>
      </trkpt>
      <trkpt lat="38.026586975902319" lon="-3.776742992922664">
        <ele>262.5</ele>
        <time>2003-04-20T19:08:29Z</time>
      </trkpt>
      <trkpt lat="38.027567993849516" lon="-3.776248041540384">
        <ele>259.5</ele>
        <time>2003-04-20T19:08:32Z</time>
      </trkpt>
      <trkpt lat="38.028559992089868" lon="-3.775732973590493">
        <ele>257.39999999999998</ele>
        <time>2003-04-20T19:08:34Z</time>
      </trkpt>
      <trkpt lat="38.029555007815361" lon="-3.775220001116395">
        <ele>256.19999999999999</ele>
        <time>2003-04-20T19:08:37Z</time>
      </trkpt>
      <trkpt lat="38.030552035197616" lon="-3.774711973965168">
        <ele>255.5</ele>
        <time>2003-04-20T19:08:41Z</time>
      </trkpt>
      <trkpt lat="38.0315319634974" lon="-3.774166982620955">
        <ele>255.90000000000001</ele>
        <time>2003-04-20T19:08:44Z</time>
      </trkpt>
      <trkpt lat="38.032508036121726" lon="-3.773651998490095">
        <ele>257</ele>
        <time>2003-04-20T19:08:47Z</time>
      </trkpt>
      <trkpt lat="38.033472038805485" lon="-3.773170039057732">
        <ele>258.69999999999999</ele>
        <time>2003-04-20T19:08:49Z</time>
      </trkpt>
      <trkpt lat="38.034403016790748" lon="-3.772656982764602">
        <ele>260.30000000000001</ele>
        <time>2003-04-20T19:08:52Z</time>
      </trkpt>
      <trkpt lat="38.035327959805727" lon="-3.772154990583658">
        <ele>261.89999999999998</ele>
        <time>2003-04-20T19:08:56Z</time>
      </trkpt>
      <trkpt lat="38.036242006346583" lon="-3.771643023937941">
        <ele>263.69999999999999</ele>
        <time>2003-04-20T19:08:59Z</time>
      </trkpt>
      <trkpt lat="38.037141971290112" lon="-3.771112030372024">
        <ele>265.39999999999998</ele>
        <time>2003-04-20T19:09:01Z</time>
      </trkpt>
      <trkpt lat="38.038032967597246" lon="-3.770571984350681">
        <ele>266.80000000000001</ele>
        <time>2003-04-20T19:09:04Z</time>
      </trkpt>
      <trkpt lat="38.038907032459974" lon="-3.769990028813481">
        <ele>268.5</ele>
        <time>2003-04-20T19:09:08Z</time>
      </trkpt>
      <trkpt lat="38.039770033210516" lon="-3.769397009164095">
        <ele>270.19999999999999</ele>
        <time>2003-04-20T19:09:11Z</time>
      </trkpt>
      <trkpt lat="38.040617024526" lon="-3.768774988129735">
        <ele>272</ele>
        <time>2003-04-20T19:09:14Z</time>
      </trkpt>
      <trkpt lat="38.041450018063188" lon="-3.768130000680685">
        <ele>273.30000000000001</ele>
        <time>2003-04-20T19:09:16Z</time>
      </trkpt>
      <trkpt lat="38.042276976630092" lon="-3.767464980483055">
        <ele>274.30000000000001</ele>
        <time>2003-04-20T19:09:19Z</time>
      </trkpt>
      <trkpt lat="38.043090021237731" lon="-3.766761990264058">
        <ele>274.60000000000002</ele>
        <time>2003-04-20T19:09:23Z</time>
      </trkpt>
      <trkpt lat="38.043902982026339" lon="-3.766041984781623">
        <ele>274.80000000000001</ele>
        <time>2003-04-20T19:09:26Z</time>
      </trkpt>
      <trkpt lat="38.044703034684062" lon="-3.765275040641427">
        <ele>274.30000000000001</ele>
        <time>2003-04-20T19:09:28Z</time>
      </trkpt>
      <trkpt lat="38.045499986037612" lon="-3.764492003247142">
        <ele>273.69999999999999</ele>
        <time>2003-04-20T19:09:31Z</time>
      </trkpt>
      <trkpt lat="38.046285035088658" lon="-3.76367200165987">
        <ele>273.19999999999999</ele>
        <time>2003-04-20T19:09:35Z</time>
      </trkpt>
      <trkpt lat="38.047062959522009" lon="-3.762830039486289">
        <ele>272.69999999999999</ele>
        <time>2003-04-20T19:09:38Z</time>
      </trkpt>
      <trkpt lat="38.047827975824475" lon="-3.76195496879518">
        <ele>272.10000000000002</ele>
        <time>2003-04-20T19:09:41Z</time>
      </trkpt>
      <trkpt lat="38.0485899746418" lon="-3.761066989973187">
        <ele>271.69999999999999</ele>
        <time>2003-04-20T19:09:43Z</time>
      </trkpt>
      <trkpt lat="38.049349961802363" lon="-3.760161995887756">
        <ele>271.30000000000001</ele>
        <time>2003-04-20T19:09:46Z</time>
      </trkpt>
      <trkpt lat="38.050101986154914" lon="-3.759237974882126">
        <ele>271</ele>
        <time>2003-04-20T19:09:50Z</time>
      </trkpt>
      <trkpt lat="38.050859961658716" lon="-3.758314959704876">
        <ele>270.60000000000002</ele>
        <time>2003-04-20T19:09:53Z</time>
      </trkpt>
      <trkpt lat="38.051612991839647" lon="-3.757382975891233">
        <ele>270.19999999999999</ele>
        <time>2003-04-20T19:09:55Z</time>
      </trkpt>
      <trkpt lat="38.05237197317183" lon="-3.75645199790597">
        <ele>269.60000000000002</ele>
        <time>2003-04-20T19:09:58Z</time>
      </trkpt>
      <trkpt lat="38.053130032494664" lon="-3.755520014092326">
        <ele>269.10000000000002</ele>
        <time>2003-04-20T19:10:02Z</time>
      </trkpt>
      <trkpt lat="38.053892031311989" lon="-3.754585012793541">
        <ele>268.39999999999998</ele>
        <time>2003-04-20T19:10:05Z</time>
      </trkpt>
      <trkpt lat="38.054650006815791" lon="-3.753644982352853">
        <ele>268</ele>
        <time>2003-04-20T19:10:08Z</time>
      </trkpt>
      <trkpt lat="38.055407982319593" lon="-3.752707969397306">
        <ele>267.89999999999998</ele>
        <time>2003-04-20T19:10:10Z</time>
      </trkpt>
      <trkpt lat="38.056162018328905" lon="-3.751777997240424">
        <ele>269.19999999999999</ele>
        <time>2003-04-20T19:10:13Z</time>
      </trkpt>
      <trkpt lat="38.056902978569269" lon="-3.75086504034698">
        <ele>271.69999999999999</ele>
        <time>2003-04-20T19:10:17Z</time>
      </trkpt>
      <trkpt lat="38.057636981830001" lon="-3.749977983534336">
        <ele>275.39999999999998</ele>
        <time>2003-04-20T19:10:20Z</time>
      </trkpt>
      <trkpt lat="38.058354975655675" lon="-3.749120011925697">
        <ele>279.60000000000002</ele>
        <time>2003-04-20T19:10:22Z</time>
      </trkpt>
      <trkpt lat="38.059086967259645" lon="-3.748318031430244">
        <ele>283.69999999999999</ele>
        <time>2003-04-20T19:10:25Z</time>
      </trkpt>
      <trkpt lat="38.059832034632564" lon="-3.747576987370849">
        <ele>287.5</ele>
        <time>2003-04-20T19:10:29Z</time>
      </trkpt>
      <trkpt lat="38.060582969337702" lon="-3.746881959959865">
        <ele>291.19999999999999</ele>
        <time>2003-04-20T19:10:32Z</time>
      </trkpt>
      <trkpt lat="38.061338011175394" lon="-3.746232027187944">
        <ele>295</ele>
        <time>2003-04-20T19:10:35Z</time>
      </trkpt>
      <trkpt lat="38.06210202164948" lon="-3.745615035295487">
        <ele>298.60000000000002</ele>
        <time>2003-04-20T19:10:37Z</time>
      </trkpt>
      <trkpt lat="38.06313500739634" lon="-3.744878014549613">
        <ele>302.69999999999999</ele>
        <time>2003-04-20T19:10:41Z</time>
      </trkpt>
      <trkpt lat="38.064164975658059" lon="-3.744177035987377">
        <ele>307.10000000000002</ele>
        <time>2003-04-20T19:10:45Z</time>
      </trkpt>
      <trkpt lat="38.065182035788894" lon="-3.74347303994">
        <ele>310.60000000000002</ele>
        <time>2003-04-20T19:10:49Z</time>
      </trkpt>
      <trkpt lat="38.066192977130413" lon="-3.742756973952055">
        <ele>313.10000000000002</ele>
        <time>2003-04-20T19:10:53Z</time>
      </trkpt>
      <trkpt lat="38.067208025604486" lon="-3.742002015933394">
        <ele>314.30000000000001</ele>
        <time>2003-04-20T19:10:57Z</time>
      </trkpt>
      <trkpt lat="38.067985028028488" lon="-3.741422994062305">
        <ele>314.39999999999998</ele>
        <time>2003-04-20T19:11:00Z</time>
      </trkpt>
      <trkpt lat="38.068769993260503" lon="-3.740812037140131">
        <ele>313.60000000000002</ele>
        <time>2003-04-20T19:11:04Z</time>
      </trkpt>
      <trkpt lat="38.069572979584336" lon="-3.740177024155855">
        <ele>311.80000000000001</ele>
        <time>2003-04-20T19:11:07Z</time>
      </trkpt>
      <trkpt lat="38.07039700448513" lon="-3.739530025050044">
        <ele>310</ele>
        <time>2003-04-20T19:11:10Z</time>
      </trkpt>
      <trkpt lat="38.071241984143853" lon="-3.738871961832047">
        <ele>308</ele>
        <time>2003-04-20T19:11:12Z</time>
      </trkpt>
      <trkpt lat="38.072119988501072" lon="-3.738238038495183">
        <ele>306</ele>
        <time>2003-04-20T19:11:15Z</time>
      </trkpt>
      <trkpt lat="38.073032023385167" lon="-3.737649964168668">
        <ele>305.39999999999998</ele>
        <time>2003-04-20T19:11:19Z</time>
      </trkpt>
      <trkpt lat="38.073968030512333" lon="-3.73713799752295">
        <ele>306.30000000000001</ele>
        <time>2003-04-20T19:11:22Z</time>
      </trkpt>
      <trkpt lat="38.074918035417795" lon="-3.73670800589025">
        <ele>308.69999999999999</ele>
        <time>2003-04-20T19:11:24Z</time>
      </trkpt>
      <trkpt lat="38.075871979817748" lon="-3.736357977613807">
        <ele>311.5</ele>
        <time>2003-04-20T19:11:27Z</time>
      </trkpt>
      <trkpt lat="38.076830031350255" lon="-3.736086990684271">
        <ele>314.89999999999998</ele>
        <time>2003-04-20T19:11:31Z</time>
      </trkpt>
      <trkpt lat="38.077792022377253" lon="-3.735908037051559">
        <ele>316.69999999999999</ele>
        <time>2003-04-20T19:11:34Z</time>
      </trkpt>
      <trkpt lat="38.078747978433967" lon="-3.735790019854903">
        <ele>319.39999999999998</ele>
        <time>2003-04-20T19:11:37Z</time>
      </trkpt>
      <trkpt lat="38.07969999499619" lon="-3.735760012641549">
        <ele>322</ele>
        <time>2003-04-20T19:11:39Z</time>
      </trkpt>
      <trkpt lat="38.080014986917377" lon="-3.735766969621182">
        <ele>322.89999999999998</ele>
        <time>2003-04-20T19:11:41Z</time>
      </trkpt>
      <trkpt lat="38.080957029014826" lon="-3.735830001533032">
        <ele>325.39999999999998</ele>
        <time>2003-04-20T19:11:43Z</time>
      </trkpt>
      <trkpt lat="38.081884989514947" lon="-3.735965033993125">
        <ele>328</ele>
        <time>2003-04-20T19:11:46Z</time>
      </trkpt>
      <trkpt lat="38.082801969721913" lon="-3.736162008717656">
        <ele>330.39999999999998</ele>
        <time>2003-04-20T19:11:50Z</time>
      </trkpt>
      <trkpt lat="38.083707969635725" lon="-3.736382033675909">
        <ele>332.60000000000002</ele>
        <time>2003-04-20T19:11:53Z</time>
      </trkpt>
      <trkpt lat="38.084608018398285" lon="-3.736652014777064">
        <ele>334.19999999999999</ele>
        <time>2003-04-20T19:11:56Z</time>
      </trkpt>
      <trkpt lat="38.085509994998574" lon="-3.736925013363361">
        <ele>335.5</ele>
        <time>2003-04-20T19:11:58Z</time>
      </trkpt>
      <trkpt lat="38.086420018225908" lon="-3.737203041091561">
        <ele>336.19999999999999</ele>
        <time>2003-04-20T19:12:01Z</time>
      </trkpt>
      <trkpt lat="38.087342027574778" lon="-3.737462041899562">
        <ele>336.80000000000001</ele>
        <time>2003-04-20T19:12:05Z</time>
      </trkpt>
      <trkpt lat="38.088277028873563" lon="-3.737703021615744">
        <ele>337</ele>
        <time>2003-04-20T19:12:08Z</time>
      </trkpt>
      <trkpt lat="38.089227033779025" lon="-3.737926986068487">
        <ele>336.60000000000002</ele>
        <time>2003-04-20T19:12:10Z</time>
      </trkpt>
      <trkpt lat="38.090191958472133" lon="-3.738135024905205">
        <ele>335.89999999999998</ele>
        <time>2003-04-20T19:12:13Z</time>
      </trkpt>
      <trkpt lat="38.091161996126175" lon="-3.738353038206697">
        <ele>335.60000000000002</ele>
        <time>2003-04-20T19:12:17Z</time>
      </trkpt>
      <trkpt lat="38.092147959396243" lon="-3.738563004881144">
        <ele>334.80000000000001</ele>
        <time>2003-04-20T19:12:20Z</time>
      </trkpt>
      <trkpt lat="38.093141969293356" lon="-3.738786969333887">
        <ele>334.30000000000001</ele>
        <time>2003-04-20T19:12:23Z</time>
      </trkpt>
      <trkpt lat="38.094142014160752" lon="-3.739016968756914">
        <ele>333.89999999999998</ele>
        <time>2003-04-20T19:12:25Z</time>
      </trkpt>
      <trkpt lat="38.095144992694259" lon="-3.739255014806986">
        <ele>333.39999999999998</ele>
        <time>2003-04-20T19:12:28Z</time>
      </trkpt>
      <trkpt lat="38.096140008419752" lon="-3.739562965929508">
        <ele>333</ele>
        <time>2003-04-20T19:12:32Z</time>
      </trkpt>
      <trkpt lat="38.097129995003343" lon="-3.739915005862713">
        <ele>332.69999999999999</ele>
        <time>2003-04-20T19:12:35Z</time>
      </trkpt>
      <trkpt lat="38.098104977980256" lon="-3.74033996835351">
        <ele>332.30000000000001</ele>
        <time>2003-04-20T19:12:37Z</time>
      </trkpt>
      <trkpt lat="38.099075015634298" lon="-3.740801978856325">
        <ele>332.10000000000002</ele>
        <time>2003-04-20T19:12:40Z</time>
      </trkpt>
      <trkpt lat="38.100029965862632" lon="-3.74132702127099">
        <ele>330.80000000000001</ele>
        <time>2003-04-20T19:12:44Z</time>
      </trkpt>
      <trkpt lat="38.100967984646559" lon="-3.74190797097981">
        <ele>329.69999999999999</ele>
        <time>2003-04-20T19:12:47Z</time>
      </trkpt>
      <trkpt lat="38.101897034794092" lon="-3.742526974529028">
        <ele>329</ele>
        <time>2003-04-20T19:12:50Z</time>
      </trkpt>
      <trkpt lat="38.102813009172678" lon="-3.743159975856543">
        <ele>329.30000000000001</ele>
        <time>2003-04-20T19:12:52Z</time>
      </trkpt>
      <trkpt lat="38.103733006864786" lon="-3.743760036304593">
        <ele>330.5</ele>
        <time>2003-04-20T19:12:55Z</time>
      </trkpt>
      <trkpt lat="38.10464303009212" lon="-3.744345009326935">
        <ele>332.60000000000002</ele>
        <time>2003-04-20T19:12:59Z</time>
      </trkpt>
      <trkpt lat="38.105536960065365" lon="-3.744929982349277">
        <ele>336.30000000000001</ele>
        <time>2003-04-20T19:13:02Z</time>
      </trkpt>
      <trkpt lat="38.106408007442951" lon="-3.745516967028379">
        <ele>338.39999999999998</ele>
        <time>2003-04-20T19:13:04Z</time>
      </trkpt>
      <trkpt lat="38.107251981273293" lon="-3.74611996114254">
        <ele>341.80000000000001</ele>
        <time>2003-04-20T19:13:08Z</time>
      </trkpt>
      <trkpt lat="38.108078017830849" lon="-3.746735025197268">
        <ele>344.60000000000002</ele>
        <time>2003-04-20T19:13:11Z</time>
      </trkpt>
      <trkpt lat="38.108883015811443" lon="-3.747383030131459">
        <ele>346.19999999999999</ele>
        <time>2003-04-20T19:13:14Z</time>
      </trkpt>
      <trkpt lat="38.109678039327264" lon="-3.748046960681677">
        <ele>347.39999999999998</ele>
        <time>2003-04-20T19:13:17Z</time>
      </trkpt>
      <trkpt lat="38.110453030094504" lon="-3.748754980042577">
        <ele>347.60000000000002</ele>
        <time>2003-04-20T19:13:19Z</time>
      </trkpt>
      <trkpt lat="38.111230032518506" lon="-3.749480014666915">
        <ele>347.10000000000002</ele>
        <time>2003-04-20T19:13:22Z</time>
      </trkpt>
      <trkpt lat="38.111996976658702" lon="-3.750247964635491">
        <ele>346</ele>
        <time>2003-04-20T19:13:26Z</time>
      </trkpt>
      <trkpt lat="38.112747995182872" lon="-3.751050028949976">
        <ele>346</ele>
        <time>2003-04-20T19:13:29Z</time>
      </trkpt>
      <trkpt lat="38.113483004271984" lon="-3.751872964203358">
        <ele>347.10000000000002</ele>
        <time>2003-04-20T19:13:31Z</time>
      </trkpt>
      <trkpt lat="38.114196974784136" lon="-3.752707969397306">
        <ele>349.30000000000001</ele>
        <time>2003-04-20T19:13:34Z</time>
      </trkpt>
      <trkpt lat="38.114887978881598" lon="-3.753542974591255">
        <ele>352.69999999999999</ele>
        <time>2003-04-20T19:13:38Z</time>
      </trkpt>
      <trkpt lat="38.115562973544002" lon="-3.754361970350146">
        <ele>357.19999999999999</ele>
        <time>2003-04-20T19:13:41Z</time>
      </trkpt>
      <trkpt lat="38.116227993741632" lon="-3.755160011351109">
        <ele>361.19999999999999</ele>
        <time>2003-04-20T19:13:44Z</time>
      </trkpt>
      <trkpt lat="38.117099963128567" lon="-3.75619500875473">
        <ele>366.60000000000002</ele>
        <time>2003-04-20T19:13:48Z</time>
      </trkpt>
      <trkpt lat="38.11796497553587" lon="-3.757188012823463">
        <ele>371.69999999999999</ele>
        <time>2003-04-20T19:13:52Z</time>
      </trkpt>
      <trkpt lat="38.118826970458031" lon="-3.758138017728925">
        <ele>376.89999999999998</ele>
        <time>2003-04-20T19:13:56Z</time>
      </trkpt>
      <trkpt lat="38.119485033676028" lon="-3.758740006014705">
        <ele>378.89999999999998</ele>
        <time>2003-04-20T19:13:58Z</time>
      </trkpt>
      <trkpt lat="38.119919970631599" lon="-3.758962964639068">
        <ele>378.30000000000001</ele>
        <time>2003-04-20T19:14:01Z</time>
      </trkpt>
      <trkpt lat="38.120378041639924" lon="-3.759070001542568">
        <ele>376.69999999999999</ele>
        <time>2003-04-20T19:14:02Z</time>
      </trkpt>
      <trkpt lat="38.120854971930385" lon="-3.759085005149245">
        <ele>375</ele>
        <time>2003-04-20T19:14:05Z</time>
      </trkpt>
      <trkpt lat="38.121327040717006" lon="-3.759006969630718">
        <ele>374</ele>
        <time>2003-04-20T19:14:06Z</time>
      </trkpt>
      <trkpt lat="38.121762983500957" lon="-3.758817035704851">
        <ele>374</ele>
        <time>2003-04-20T19:14:09Z</time>
      </trkpt>
      <trkpt lat="38.122377041727304" lon="-3.758410010486841">
        <ele>373.60000000000002</ele>
        <time>2003-04-20T19:14:12Z</time>
      </trkpt>
      <trkpt lat="38.123150020837784" lon="-3.757682964205742">
        <ele>373.19999999999999</ele>
        <time>2003-04-20T19:14:16Z</time>
      </trkpt>
      <trkpt lat="38.123976979404688" lon="-3.75694502145052">
        <ele>372.30000000000001</ele>
        <time>2003-04-20T19:14:20Z</time>
      </trkpt>
      <trkpt lat="38.124848026782274" lon="-3.756213029846549">
        <ele>371.10000000000002</ele>
        <time>2003-04-20T19:14:24Z</time>
      </trkpt>
      <trkpt lat="38.125740028917789" lon="-3.755467040464282">
        <ele>369.60000000000002</ele>
        <time>2003-04-20T19:14:28Z</time>
      </trkpt>
      <trkpt lat="38.126697996631265" lon="-3.75469297170639">
        <ele>368.19999999999999</ele>
        <time>2003-04-20T19:14:32Z</time>
      </trkpt>
      <trkpt lat="38.12763299793005" lon="-3.753952011466026">
        <ele>366.60000000000002</ele>
        <time>2003-04-20T19:14:36Z</time>
      </trkpt>
      <trkpt lat="38.128525000065565" lon="-3.753222031518817">
        <ele>365</ele>
        <time>2003-04-20T19:14:40Z</time>
      </trkpt>
      <trkpt lat="38.129452038556337" lon="-3.752457015216351">
        <ele>363.39999999999998</ele>
        <time>2003-04-20T19:14:43Z</time>
      </trkpt>
      <trkpt lat="38.130379999056458" lon="-3.751672971993685">
        <ele>361.69999999999999</ele>
        <time>2003-04-20T19:14:47Z</time>
      </trkpt>
      <trkpt lat="38.131248028948903" lon="-3.750897981226444">
        <ele>360</ele>
        <time>2003-04-20T19:14:51Z</time>
      </trkpt>
      <trkpt lat="38.132076999172568" lon="-3.750045038759708">
        <ele>358.39999999999998</ele>
        <time>2003-04-20T19:14:55Z</time>
      </trkpt>
      <trkpt lat="38.132834974676371" lon="-3.749144989997149">
        <ele>357.19999999999999</ele>
        <time>2003-04-20T19:14:59Z</time>
      </trkpt>
      <trkpt lat="38.133479962125421" lon="-3.748237984254956">
        <ele>357.10000000000002</ele>
        <time>2003-04-20T19:15:03Z</time>
      </trkpt>
      <trkpt lat="38.134074993431568" lon="-3.747359979897738">
        <ele>357</ele>
        <time>2003-04-20T19:15:07Z</time>
      </trkpt>
      <trkpt lat="38.134689973667264" lon="-3.746435036882758">
        <ele>356.80000000000001</ele>
        <time>2003-04-20T19:15:11Z</time>
      </trkpt>
      <trkpt lat="38.135406961664557" lon="-3.745574969798327">
        <ele>353.5</ele>
        <time>2003-04-20T19:15:15Z</time>
      </trkpt>
      <trkpt lat="38.136214977130294" lon="-3.744733007624745">
        <ele>351.10000000000002</ele>
        <time>2003-04-20T19:15:19Z</time>
      </trkpt>
      <trkpt lat="38.1367879640311" lon="-3.74399296939373">
        <ele>350.39999999999998</ele>
        <time>2003-04-20T19:15:22Z</time>
      </trkpt>
      <trkpt lat="38.137477962300181" lon="-3.742886977270246">
        <ele>350.39999999999998</ele>
        <time>2003-04-20T19:15:26Z</time>
      </trkpt>
      <trkpt lat="38.138099983334541" lon="-3.741727005690336">
        <ele>354.69999999999999</ele>
        <time>2003-04-20T19:15:30Z</time>
      </trkpt>
      <trkpt lat="38.138635000213981" lon="-3.740514982491732">
        <ele>357.60000000000002</ele>
        <time>2003-04-20T19:15:34Z</time>
      </trkpt>
      <trkpt lat="38.139100028201938" lon="-3.739245040342212">
        <ele>359.10000000000002</ele>
        <time>2003-04-20T19:15:38Z</time>
      </trkpt>
      <trkpt lat="38.139585005119443" lon="-3.738003009930253">
        <ele>363.39999999999998</ele>
        <time>2003-04-20T19:15:42Z</time>
      </trkpt>
      <trkpt lat="38.140094960108399" lon="-3.736802972853184">
        <ele>367</ele>
        <time>2003-04-20T19:15:46Z</time>
      </trkpt>
      <trkpt lat="38.140655038878322" lon="-3.735627997666597">
        <ele>368.60000000000002</ele>
        <time>2003-04-20T19:15:50Z</time>
      </trkpt>
      <trkpt lat="38.141228025779128" lon="-3.734425026923418">
        <ele>368.80000000000001</ele>
        <time>2003-04-20T19:15:54Z</time>
      </trkpt>
      <trkpt lat="38.141566989943385" lon="-3.733432022854686">
        <ele>368</ele>
        <time>2003-04-20T19:15:57Z</time>
      </trkpt>
      <trkpt lat="38.141862032935023" lon="-3.731962004676461">
        <ele>364.30000000000001</ele>
        <time>2003-04-20T19:16:01Z</time>
      </trkpt>
      <trkpt lat="38.142090020701289" lon="-3.730813013389707">
        <ele>362.19999999999999</ele>
        <time>2003-04-20T19:16:04Z</time>
      </trkpt>
      <trkpt lat="38.142342986539006" lon="-3.729667039588094">
        <ele>363.10000000000002</ele>
        <time>2003-04-20T19:16:08Z</time>
      </trkpt>
      <trkpt lat="38.142622020095587" lon="-3.728527016937733">
        <ele>364</ele>
        <time>2003-04-20T19:16:11Z</time>
      </trkpt>
      <trkpt lat="38.142925025895238" lon="-3.727390011772513">
        <ele>364.30000000000001</ele>
        <time>2003-04-20T19:16:13Z</time>
      </trkpt>
      <trkpt lat="38.143336996436119" lon="-3.726342022418976">
        <ele>364.89999999999998</ele>
        <time>2003-04-20T19:16:16Z</time>
      </trkpt>
      <trkpt lat="38.143675038591027" lon="-3.725725030526519">
        <ele>365.30000000000001</ele>
        <time>2003-04-20T19:16:19Z</time>
      </trkpt>
      <trkpt lat="38.144480036571622" lon="-3.724649967625737">
        <ele>366.19999999999999</ele>
        <time>2003-04-20T19:16:23Z</time>
      </trkpt>
      <trkpt lat="38.144937017932534" lon="-3.72420203872025">
        <ele>366.60000000000002</ele>
        <time>2003-04-20T19:16:24Z</time>
      </trkpt>
      <trkpt lat="38.145692981779575" lon="-3.723682025447488">
        <ele>366.89999999999998</ele>
        <time>2003-04-20T19:16:28Z</time>
      </trkpt>
      <trkpt lat="38.146748011931777" lon="-3.723054975271225">
        <ele>366.80000000000001</ele>
        <time>2003-04-20T19:16:31Z</time>
      </trkpt>
      <trkpt lat="38.147821985185146" lon="-3.722437983378768">
        <ele>367.69999999999999</ele>
        <time>2003-04-20T19:16:35Z</time>
      </trkpt>
      <trkpt lat="38.148657996207476" lon="-3.721977984532714">
        <ele>365.19999999999999</ele>
        <time>2003-04-20T19:16:39Z</time>
      </trkpt>
      <trkpt lat="38.149519991129637" lon="-3.721492001786828">
        <ele>361.5</ele>
        <time>2003-04-20T19:16:42Z</time>
      </trkpt>
      <trkpt lat="38.150400007143617" lon="-3.720986992120743">
        <ele>359.89999999999998</ele>
        <time>2003-04-20T19:16:44Z</time>
      </trkpt>
      <trkpt lat="38.151252027601004" lon="-3.720366982743144">
        <ele>358.30000000000001</ele>
        <time>2003-04-20T19:16:47Z</time>
      </trkpt>
      <trkpt lat="38.152076974511147" lon="-3.719653012230992">
        <ele>356.5</ele>
        <time>2003-04-20T19:16:51Z</time>
      </trkpt>
      <trkpt lat="38.152908040210605" lon="-3.718950022011995">
        <ele>357.5</ele>
        <time>2003-04-20T19:16:54Z</time>
      </trkpt>
      <trkpt lat="38.15373701043427" lon="-3.718266980722547">
        <ele>359.39999999999998</ele>
        <time>2003-04-20T19:16:57Z</time>
      </trkpt>
      <trkpt lat="38.154594982042909" lon="-3.717662980780006">
        <ele>360.39999999999998</ele>
        <time>2003-04-20T19:16:59Z</time>
      </trkpt>
      <trkpt lat="38.155454965308309" lon="-3.717052023857832">
        <ele>359.10000000000002</ele>
        <time>2003-04-20T19:17:02Z</time>
      </trkpt>
      <trkpt lat="38.15631503239274" lon="-3.716467972844839">
        <ele>356</ele>
        <time>2003-04-20T19:17:06Z</time>
      </trkpt>
      <trkpt lat="38.157173004001379" lon="-3.715882999822497">
        <ele>352.19999999999999</ele>
        <time>2003-04-20T19:17:09Z</time>
      </trkpt>
      <trkpt lat="38.158002980053425" lon="-3.715302972123027">
        <ele>348.69999999999999</ele>
        <time>2003-04-20T19:17:11Z</time>
      </trkpt>
      <trkpt lat="38.158836979418993" lon="-3.714723028242588">
        <ele>345.89999999999998</ele>
        <time>2003-04-20T19:17:14Z</time>
      </trkpt>
      <trkpt lat="38.159657986834645" lon="-3.714154986664653">
        <ele>343.80000000000001</ele>
        <time>2003-04-20T19:17:18Z</time>
      </trkpt>
      <trkpt lat="38.160457033663988" lon="-3.713603038340807">
        <ele>341.60000000000002</ele>
        <time>2003-04-20T19:17:21Z</time>
      </trkpt>
      <trkpt lat="38.161252979189157" lon="-3.71305201202631">
        <ele>339.39999999999998</ele>
        <time>2003-04-20T19:17:24Z</time>
      </trkpt>
      <trkpt lat="38.162062000483274" lon="-3.712495034560561">
        <ele>337.19999999999999</ele>
        <time>2003-04-20T19:17:26Z</time>
      </trkpt>
      <trkpt lat="38.162877978757024" lon="-3.711920036002994">
        <ele>334.89999999999998</ele>
        <time>2003-04-20T19:17:29Z</time>
      </trkpt>
      <trkpt lat="38.163673002272844" lon="-3.711319975554943">
        <ele>334.10000000000002</ele>
        <time>2003-04-20T19:17:33Z</time>
      </trkpt>
      <trkpt lat="38.164450004696846" lon="-3.710683034732938">
        <ele>335.19999999999999</ele>
        <time>2003-04-20T19:17:36Z</time>
      </trkpt>
      <trkpt lat="38.165419958531857" lon="-3.709812993183732">
        <ele>339.10000000000002</ele>
        <time>2003-04-20T19:17:41Z</time>
      </trkpt>
      <trkpt lat="38.166354959830642" lon="-3.708961978554726">
        <ele>343</ele>
        <time>2003-04-20T19:17:44Z</time>
      </trkpt>
      <trkpt lat="38.167336983606219" lon="-3.708181958645582">
        <ele>344.80000000000001</ele>
        <time>2003-04-20T19:17:48Z</time>
      </trkpt>
      <trkpt lat="38.168160002678633" lon="-3.707771999761462">
        <ele>345.30000000000001</ele>
        <time>2003-04-20T19:17:51Z</time>
      </trkpt>
      <trkpt lat="38.169325003400445" lon="-3.707402022555471">
        <ele>345.80000000000001</ele>
        <time>2003-04-20T19:17:56Z</time>
      </trkpt>
      <trkpt lat="38.170209964737296" lon="-3.707107985392213">
        <ele>346.30000000000001</ele>
        <time>2003-04-20T19:17:59Z</time>
      </trkpt>
      <trkpt lat="38.171092998236418" lon="-3.706772038713098">
        <ele>346.89999999999998</ele>
        <time>2003-04-20T19:18:01Z</time>
      </trkpt>
      <trkpt lat="38.171962033957243" lon="-3.706355039030314">
        <ele>348.39999999999998</ele>
        <time>2003-04-20T19:18:04Z</time>
      </trkpt>
      <trkpt lat="38.172792010009289" lon="-3.705832008272409">
        <ele>350.19999999999999</ele>
        <time>2003-04-20T19:18:08Z</time>
      </trkpt>
      <trkpt lat="38.173558032140136" lon="-3.705175034701824">
        <ele>352.19999999999999</ele>
        <time>2003-04-20T19:18:11Z</time>
      </trkpt>
      <trkpt lat="38.174237972125411" lon="-3.704377999529243">
        <ele>354.39999999999998</ele>
        <time>2003-04-20T19:18:14Z</time>
      </trkpt>
      <trkpt lat="38.174802996218204" lon="-3.703452972695231">
        <ele>356.60000000000002</ele>
        <time>2003-04-20T19:18:16Z</time>
      </trkpt>
      <trkpt lat="38.175272969529033" lon="-3.702444965019822">
        <ele>358.60000000000002</ele>
        <time>2003-04-20T19:18:19Z</time>
      </trkpt>
      <trkpt lat="38.175731962546706" lon="-3.701427988708019">
        <ele>360</ele>
        <time>2003-04-20T19:18:23Z</time>
      </trkpt>
      <trkpt lat="38.176226997748017" lon="-3.700431967154145">
        <ele>360.19999999999999</ele>
        <time>2003-04-20T19:18:26Z</time>
      </trkpt>
      <trkpt lat="38.176782969385386" lon="-3.699467964470387">
        <ele>359.60000000000002</ele>
        <time>2003-04-20T19:18:28Z</time>
      </trkpt>
      <trkpt lat="38.177395015954971" lon="-3.698534974828363">
        <ele>359.10000000000002</ele>
        <time>2003-04-20T19:18:31Z</time>
      </trkpt>
      <trkpt lat="38.178024999797344" lon="-3.697610031813383">
        <ele>358.30000000000001</ele>
        <time>2003-04-20T19:18:35Z</time>
      </trkpt>
      <trkpt lat="38.178650038316846" lon="-3.696707971394062">
        <ele>357.89999999999998</ele>
        <time>2003-04-20T19:18:38Z</time>
      </trkpt>
      <trkpt lat="38.17928496748209" lon="-3.695842958986759">
        <ele>357.5</ele>
        <time>2003-04-20T19:18:41Z</time>
      </trkpt>
      <trkpt lat="38.18020798265934" lon="-3.694907035678625">
        <ele>357.10000000000002</ele>
        <time>2003-04-20T19:18:45Z</time>
      </trkpt>
      <trkpt lat="38.18096000701189" lon="-3.694391967728734">
        <ele>356.39999999999998</ele>
        <time>2003-04-20T19:18:47Z</time>
      </trkpt>
      <trkpt lat="38.181747989729047" lon="-3.694027019664645">
        <ele>355.80000000000001</ele>
        <time>2003-04-20T19:18:50Z</time>
      </trkpt>
      <trkpt lat="38.18285197019577" lon="-3.693710016086698">
        <ele>354.69999999999999</ele>
        <time>2003-04-20T19:18:54Z</time>
      </trkpt>
      <trkpt lat="38.183997021988034" lon="-3.693442968651652">
        <ele>353.60000000000002</ele>
        <time>2003-04-20T19:18:58Z</time>
      </trkpt>
      <trkpt lat="38.185122041031718" lon="-3.693086989223957">
        <ele>352.80000000000001</ele>
        <time>2003-04-20T19:19:02Z</time>
      </trkpt>
      <trkpt lat="38.185898037627339" lon="-3.692663032561541">
        <ele>352.30000000000001</ele>
        <time>2003-04-20T19:19:06Z</time>
      </trkpt>
      <trkpt lat="38.18637203425169" lon="-3.692281991243362">
        <ele>352</ele>
        <time>2003-04-20T19:19:08Z</time>
      </trkpt>
      <trkpt lat="38.18701802752912" lon="-3.691587969660759">
        <ele>351.19999999999999</ele>
        <time>2003-04-20T19:19:10Z</time>
      </trkpt>
      <trkpt lat="38.187739960849285" lon="-3.690487006679177">
        <ele>350.69999999999999</ele>
        <time>2003-04-20T19:19:14Z</time>
      </trkpt>
      <trkpt lat="38.188159978017211" lon="-3.689544964581728">
        <ele>351.30000000000001</ele>
        <time>2003-04-20T19:19:17Z</time>
      </trkpt>
      <trkpt lat="38.18845703266561" lon="-3.688524970784783">
        <ele>352.80000000000001</ele>
        <time>2003-04-20T19:19:21Z</time>
      </trkpt>
      <trkpt lat="38.188610002398491" lon="-3.687453009188175">
        <ele>354</ele>
        <time>2003-04-20T19:19:24Z</time>
      </trkpt>
      <trkpt lat="38.188645038753748" lon="-3.686015009880066">
        <ele>356.10000000000002</ele>
        <time>2003-04-20T19:19:28Z</time>
      </trkpt>
      <trkpt lat="38.188561974093318" lon="-3.684559995308518">
        <ele>357</ele>
        <time>2003-04-20T19:19:32Z</time>
      </trkpt>
      <trkpt lat="38.188458038493991" lon="-3.683085031807423">
        <ele>355.30000000000001</ele>
        <time>2003-04-20T19:19:36Z</time>
      </trkpt>
      <trkpt lat="38.18845703266561" lon="-3.681576959788799">
        <ele>353.39999999999998</ele>
        <time>2003-04-20T19:19:40Z</time>
      </trkpt>
      <trkpt lat="38.188591981306672" lon="-3.68048002012074">
        <ele>352.10000000000002</ele>
        <time>2003-04-20T19:19:43Z</time>
      </trkpt>
      <trkpt lat="38.188885012641549" lon="-3.6794270016253">
        <ele>351.19999999999999</ele>
        <time>2003-04-20T19:19:45Z</time>
      </trkpt>
      <trkpt lat="38.189312992617488" lon="-3.678437015041709">
        <ele>350.69999999999999</ele>
        <time>2003-04-20T19:19:48Z</time>
      </trkpt>
      <trkpt lat="38.189848009496927" lon="-3.677520034834743">
        <ele>351.10000000000002</ele>
        <time>2003-04-20T19:19:52Z</time>
      </trkpt>
      <trkpt lat="38.1904970202595" lon="-3.676707996055484">
        <ele>352.10000000000002</ele>
        <time>2003-04-20T19:19:55Z</time>
      </trkpt>
      <trkpt lat="38.191209984943271" lon="-3.675971981137991">
        <ele>353.5</ele>
        <time>2003-04-20T19:19:57Z</time>
      </trkpt>
      <trkpt lat="38.191965026780963" lon="-3.67528298869729">
        <ele>354</ele>
        <time>2003-04-20T19:20:00Z</time>
      </trkpt>
      <trkpt lat="38.192737000063062" lon="-3.674589972943068">
        <ele>353.60000000000002</ele>
        <time>2003-04-20T19:20:04Z</time>
      </trkpt>
      <trkpt lat="38.193530011922121" lon="-3.673892011865974">
        <ele>352.39999999999998</ele>
        <time>2003-04-20T19:20:07Z</time>
      </trkpt>
      <trkpt lat="38.194337021559477" lon="-3.673184998333454">
        <ele>351.19999999999999</ele>
        <time>2003-04-20T19:20:10Z</time>
      </trkpt>
      <trkpt lat="38.195131961256266" lon="-3.67246700450778">
        <ele>350</ele>
        <time>2003-04-20T19:20:12Z</time>
      </trkpt>
      <trkpt lat="38.195878034457564" lon="-3.671763008460403">
        <ele>348.89999999999998</ele>
        <time>2003-04-20T19:20:15Z</time>
      </trkpt>
      <trkpt lat="38.196544982492924" lon="-3.670992963016033">
        <ele>347.80000000000001</ele>
        <time>2003-04-20T19:20:19Z</time>
      </trkpt>
      <trkpt lat="38.196925017982721" lon="-3.670385023579001">
        <ele>347.19999999999999</ele>
        <time>2003-04-20T19:20:20Z</time>
      </trkpt>
      <trkpt lat="38.19746196269989" lon="-3.669426972046495">
        <ele>346.80000000000001</ele>
        <time>2003-04-20T19:20:23Z</time>
      </trkpt>
      <trkpt lat="38.198041990399361" lon="-3.668512003496289">
        <ele>347.19999999999999</ele>
        <time>2003-04-20T19:20:27Z</time>
      </trkpt>
      <trkpt lat="38.198723020032048" lon="-3.667725026607513">
        <ele>347.89999999999998</ele>
        <time>2003-04-20T19:20:30Z</time>
      </trkpt>
      <trkpt lat="38.199506979435682" lon="-3.667099988088012">
        <ele>349.10000000000002</ele>
        <time>2003-04-20T19:20:33Z</time>
      </trkpt>
      <trkpt lat="38.200350031256676" lon="-3.666620040312409">
        <ele>350.80000000000001</ele>
        <time>2003-04-20T19:20:35Z</time>
      </trkpt>
      <trkpt lat="38.201212026178837" lon="-3.666194994002581">
        <ele>352.5</ele>
        <time>2003-04-20T19:20:38Z</time>
      </trkpt>
      <trkpt lat="38.202066980302334" lon="-3.665761984884739">
        <ele>354.69999999999999</ele>
        <time>2003-04-20T19:20:42Z</time>
      </trkpt>
      <trkpt lat="38.202920006588101" lon="-3.665341967716813">
        <ele>357.30000000000001</ele>
        <time>2003-04-20T19:20:45Z</time>
      </trkpt>
      <trkpt lat="38.203722992911935" lon="-3.664803011342883">
        <ele>360.19999999999999</ele>
        <time>2003-04-20T19:20:47Z</time>
      </trkpt>
      <trkpt lat="38.204467976465821" lon="-3.664140002802014">
        <ele>361.5</ele>
        <time>2003-04-20T19:20:50Z</time>
      </trkpt>
      <trkpt lat="38.205135008320212" lon="-3.663363000378013">
        <ele>362.69999999999999</ele>
        <time>2003-04-20T19:20:54Z</time>
      </trkpt>
      <trkpt lat="38.205695003271103" lon="-3.662469992414117">
        <ele>363.5</ele>
        <time>2003-04-20T19:20:57Z</time>
      </trkpt>
      <trkpt lat="38.206137986853719" lon="-3.661468019708991">
        <ele>364.10000000000002</ele>
        <time>2003-04-20T19:21:00Z</time>
      </trkpt>
      <trkpt lat="38.206509975716472" lon="-3.660418018698692">
        <ele>364.89999999999998</ele>
        <time>2003-04-20T19:21:02Z</time>
      </trkpt>
      <trkpt lat="38.206842988729477" lon="-3.659340022131801">
        <ele>365.39999999999998</ele>
        <time>2003-04-20T19:21:05Z</time>
      </trkpt>
      <trkpt lat="38.20719301700592" lon="-3.658258002251387">
        <ele>365.60000000000002</ele>
        <time>2003-04-20T19:21:09Z</time>
      </trkpt>
      <trkpt lat="38.207528041675687" lon="-3.657152010127902">
        <ele>364.80000000000001</ele>
        <time>2003-04-20T19:21:12Z</time>
      </trkpt>
      <trkpt lat="38.20785996504128" lon="-3.656027996912599">
        <ele>364.10000000000002</ele>
        <time>2003-04-20T19:21:14Z</time>
      </trkpt>
      <trkpt lat="38.208203036338091" lon="-3.654899960383773">
        <ele>363.5</ele>
        <time>2003-04-20T19:21:17Z</time>
      </trkpt>
      <trkpt lat="38.208572007715702" lon="-3.65381701849401">
        <ele>363.10000000000002</ele>
        <time>2003-04-20T19:21:21Z</time>
      </trkpt>
      <trkpt lat="38.20904198102653" lon="-3.652791995555162">
        <ele>364.60000000000002</ele>
        <time>2003-04-20T19:21:24Z</time>
      </trkpt>
      <trkpt lat="38.209629971534014" lon="-3.651877027004957">
        <ele>366.19999999999999</ele>
        <time>2003-04-20T19:21:27Z</time>
      </trkpt>
      <trkpt lat="38.210312006995082" lon="-3.651073034852743">
        <ele>367.80000000000001</ele>
        <time>2003-04-20T19:21:29Z</time>
      </trkpt>
      <trkpt lat="38.211075011640787" lon="-3.650397034361959">
        <ele>369.39999999999998</ele>
        <time>2003-04-20T19:21:32Z</time>
      </trkpt>
      <trkpt lat="38.211834998801351" lon="-3.649707036092877">
        <ele>370.19999999999999</ele>
        <time>2003-04-20T19:21:36Z</time>
      </trkpt>
      <trkpt lat="38.212532037869096" lon="-3.64889801479876">
        <ele>370.30000000000001</ele>
        <time>2003-04-20T19:21:39Z</time>
      </trkpt>
      <trkpt lat="38.213173002004623" lon="-3.648014981299639">
        <ele>370.80000000000001</ele>
        <time>2003-04-20T19:21:41Z</time>
      </trkpt>
      <trkpt lat="38.213872974738479" lon="-3.647232027724385">
        <ele>371.69999999999999</ele>
        <time>2003-04-20T19:21:44Z</time>
      </trkpt>
      <trkpt lat="38.214658023789525" lon="-3.646617969498038">
        <ele>372.69999999999999</ele>
        <time>2003-04-20T19:21:48Z</time>
      </trkpt>
      <trkpt lat="38.215452041476965" lon="-3.64601799286902">
        <ele>374.19999999999999</ele>
        <time>2003-04-20T19:21:51Z</time>
      </trkpt>
      <trkpt lat="38.216234995052218" lon="-3.64539697766304">
        <ele>376.5</ele>
        <time>2003-04-20T19:21:54Z</time>
      </trkpt>
      <trkpt lat="38.216958018019795" lon="-3.644666997715831">
        <ele>378.19999999999999</ele>
        <time>2003-04-20T19:21:56Z</time>
      </trkpt>
      <trkpt lat="38.21767701767385" lon="-3.643922014161944">
        <ele>379.10000000000002</ele>
        <time>2003-04-20T19:21:59Z</time>
      </trkpt>
      <trkpt lat="38.218395011499524" lon="-3.643169989809394">
        <ele>380.19999999999999</ele>
        <time>2003-04-20T19:22:03Z</time>
      </trkpt>
      <trkpt lat="38.219122979789972" lon="-3.642419977113605">
        <ele>380.80000000000001</ele>
        <time>2003-04-20T19:22:06Z</time>
      </trkpt>
      <trkpt lat="38.219850026071072" lon="-3.641662001609802">
        <ele>381.39999999999998</ele>
        <time>2003-04-20T19:22:08Z</time>
      </trkpt>
      <trkpt lat="38.220614958554506" lon="-3.640972003340721">
        <ele>382.80000000000001</ele>
        <time>2003-04-20T19:22:11Z</time>
      </trkpt>
      <trkpt lat="38.221396990120411" lon="-3.640310000628233">
        <ele>384.10000000000002</ele>
        <time>2003-04-20T19:22:15Z</time>
      </trkpt>
      <trkpt lat="38.222157983109355" lon="-3.639622014015913">
        <ele>386.5</ele>
        <time>2003-04-20T19:22:18Z</time>
      </trkpt>
      <trkpt lat="38.222844963893294" lon="-3.638809975236654">
        <ele>386.5</ele>
        <time>2003-04-20T19:22:21Z</time>
      </trkpt>
      <trkpt lat="38.223427003249526" lon="-3.637862987816334">
        <ele>386.69999999999999</ele>
        <time>2003-04-20T19:22:23Z</time>
      </trkpt>
      <trkpt lat="38.223905023187399" lon="-3.636836959049106">
        <ele>388.69999999999999</ele>
        <time>2003-04-20T19:22:26Z</time>
      </trkpt>
      <trkpt lat="38.224263014271855" lon="-3.63572702743113">
        <ele>389.5</ele>
        <time>2003-04-20T19:22:30Z</time>
      </trkpt>
      <trkpt lat="38.224577000364661" lon="-3.634599996730685">
        <ele>391.69999999999999</ele>
        <time>2003-04-20T19:22:33Z</time>
      </trkpt>
      <trkpt lat="38.224891992285848" lon="-3.633486963808537">
        <ele>393.80000000000001</ele>
        <time>2003-04-20T19:22:35Z</time>
      </trkpt>
      <trkpt lat="38.225213019177318" lon="-3.632379965856671">
        <ele>394.60000000000002</ele>
        <time>2003-04-20T19:22:39Z</time>
      </trkpt>
      <trkpt lat="38.22560696862638" lon="-3.631317978724837">
        <ele>394.30000000000001</ele>
        <time>2003-04-20T19:22:42Z</time>
      </trkpt>
      <trkpt lat="38.225978035479784" lon="-3.630693024024367">
        <ele>394.19999999999999</ele>
        <time>2003-04-20T19:22:44Z</time>
      </trkpt>
      <trkpt lat="38.226429987698793" lon="-3.630163036286831">
        <ele>394.5</ele>
        <time>2003-04-20T19:22:46Z</time>
      </trkpt>
      <trkpt lat="38.227185029536486" lon="-3.629504973068833">
        <ele>396</ele>
        <time>2003-04-20T19:22:49Z</time>
      </trkpt>
      <trkpt lat="38.227736977860332" lon="-3.62919501028955">
        <ele>397.39999999999998</ele>
        <time>2003-04-20T19:22:50Z</time>
      </trkpt>
      <trkpt lat="38.228608025237918" lon="-3.628922011703253">
        <ele>399.19999999999999</ele>
        <time>2003-04-20T19:22:53Z</time>
      </trkpt>
      <trkpt lat="38.229201966896653" lon="-3.628878006711602">
        <ele>400.5</ele>
        <time>2003-04-20T19:22:56Z</time>
      </trkpt>
      <trkpt lat="38.229497009888291" lon="-3.62889502197504">
        <ele>401.10000000000002</ele>
        <time>2003-04-20T19:22:57Z</time>
      </trkpt>
      <trkpt lat="38.230669973418117" lon="-3.629017984494567">
        <ele>403.69999999999999</ele>
        <time>2003-04-20T19:23:01Z</time>
      </trkpt>
      <trkpt lat="38.231845032423735" lon="-3.629134995862842">
        <ele>406.39999999999998</ele>
        <time>2003-04-20T19:23:05Z</time>
      </trkpt>
      <trkpt lat="38.233020007610321" lon="-3.629257036373019">
        <ele>408.60000000000002</ele>
        <time>2003-04-20T19:23:09Z</time>
      </trkpt>
      <trkpt lat="38.234192971140146" lon="-3.629372958093882">
        <ele>411.5</ele>
        <time>2003-04-20T19:23:13Z</time>
      </trkpt>
      <trkpt lat="38.235368030145764" lon="-3.629491981118918">
        <ele>414.10000000000002</ele>
        <time>2003-04-20T19:23:16Z</time>
      </trkpt>
      <trkpt lat="38.236543005332351" lon="-3.629615027457476">
        <ele>416.5</ele>
        <time>2003-04-20T19:23:20Z</time>
      </trkpt>
      <trkpt lat="38.237704988569021" lon="-3.629717035219073">
        <ele>419.89999999999998</ele>
        <time>2003-04-20T19:23:24Z</time>
      </trkpt>
      <trkpt lat="38.238851968199015" lon="-3.629794986918569">
        <ele>423.89999999999998</ele>
        <time>2003-04-20T19:23:28Z</time>
      </trkpt>
      <trkpt lat="38.239986961707473" lon="-3.629845026880503">
        <ele>428.10000000000002</ele>
        <time>2003-04-20T19:23:32Z</time>
      </trkpt>
      <trkpt lat="38.240547962486744" lon="-3.629847038537264">
        <ele>430.5</ele>
        <time>2003-04-20T19:23:35Z</time>
      </trkpt>
      <trkpt lat="38.241635011509061" lon="-3.629681998863816">
        <ele>437.60000000000002</ele>
        <time>2003-04-20T19:23:39Z</time>
      </trkpt>
      <trkpt lat="38.242657016962767" lon="-3.629362983629108">
        <ele>444.60000000000002</ele>
        <time>2003-04-20T19:23:43Z</time>
      </trkpt>
      <trkpt lat="38.243639962747693" lon="-3.629056960344315">
        <ele>451.5</ele>
        <time>2003-04-20T19:23:47Z</time>
      </trkpt>
      <trkpt lat="38.2445980142802" lon="-3.628842970356345">
        <ele>458.10000000000002</ele>
        <time>2003-04-20T19:23:51Z</time>
      </trkpt>
      <trkpt lat="38.245537038892508" lon="-3.62874498590827">
        <ele>463.89999999999998</ele>
        <time>2003-04-20T19:23:55Z</time>
      </trkpt>
      <trkpt lat="38.246472040191293" lon="-3.628629986196756">
        <ele>470.19999999999999</ele>
        <time>2003-04-20T19:23:59Z</time>
      </trkpt>
      <trkpt lat="38.247148040682077" lon="-3.628411972895265">
        <ele>473.5</ele>
        <time>2003-04-20T19:24:02Z</time>
      </trkpt>
      <trkpt lat="38.247552970424294" lon="-3.628158001229167">
        <ele>475.10000000000002</ele>
        <time>2003-04-20T19:24:03Z</time>
      </trkpt>
      <trkpt lat="38.247932000085711" lon="-3.627832029014826">
        <ele>476.69999999999999</ele>
        <time>2003-04-20T19:24:06Z</time>
      </trkpt>
      <trkpt lat="38.248625015839934" lon="-3.627040022984147">
        <ele>480.30000000000001</ele>
        <time>2003-04-20T19:24:10Z</time>
      </trkpt>
      <trkpt lat="38.249222980812192" lon="-3.626583041623235">
        <ele>482.5</ele>
        <time>2003-04-20T19:24:13Z</time>
      </trkpt>
      <trkpt lat="38.24966998770833" lon="-3.626399980857968">
        <ele>484.19999999999999</ele>
        <time>2003-04-20T19:24:14Z</time>
      </trkpt>
      <trkpt lat="38.250135015696287" lon="-3.626309959217906">
        <ele>485.89999999999998</ele>
        <time>2003-04-20T19:24:17Z</time>
      </trkpt>
      <trkpt lat="38.250608006492257" lon="-3.626307025551796">
        <ele>487.60000000000002</ele>
        <time>2003-04-20T19:24:18Z</time>
      </trkpt>
      <trkpt lat="38.250846974551678" lon="-3.626295039430261">
        <ele>488.10000000000002</ele>
        <time>2003-04-20T19:24:19Z</time>
      </trkpt>
      <trkpt lat="38.251794967800379" lon="-3.62625296227634">
        <ele>492.39999999999998</ele>
        <time>2003-04-20T19:24:23Z</time>
      </trkpt>
      <trkpt lat="38.252723012119532" lon="-3.626197976991534">
        <ele>498.80000000000001</ele>
        <time>2003-04-20T19:24:27Z</time>
      </trkpt>
      <trkpt lat="38.253398006781936" lon="-3.626020029187203">
        <ele>503.39999999999998</ele>
        <time>2003-04-20T19:24:30Z</time>
      </trkpt>
      <trkpt lat="38.254022961482406" lon="-3.625685004517436">
        <ele>508.19999999999999</ele>
        <time>2003-04-20T19:24:34Z</time>
      </trkpt>
      <trkpt lat="38.25501998886466" lon="-3.625142024829984">
        <ele>515.10000000000002</ele>
        <time>2003-04-20T19:24:38Z</time>
      </trkpt>
      <trkpt lat="38.255417039617896" lon="-3.624977990984917">
        <ele>518.29999999999995</ele>
        <time>2003-04-20T19:24:41Z</time>
      </trkpt>
      <trkpt lat="38.256442984566092" lon="-3.624723013490439">
        <ele>525.5</ele>
        <time>2003-04-20T19:24:45Z</time>
      </trkpt>
      <trkpt lat="38.257487034425139" lon="-3.624484967440367">
        <ele>532.5</ele>
        <time>2003-04-20T19:24:50Z</time>
      </trkpt>
      <trkpt lat="38.258538041263819" lon="-3.624227978289127">
        <ele>539.79999999999995</ele>
        <time>2003-04-20T19:24:56Z</time>
      </trkpt>
      <trkpt lat="38.259602040052414" lon="-3.623986998572946">
        <ele>546.70000000000005</ele>
        <time>2003-04-20T19:25:01Z</time>
      </trkpt>
      <trkpt lat="38.260680036619306" lon="-3.623733026906848">
        <ele>553.89999999999998</ele>
        <time>2003-04-20T19:25:05Z</time>
      </trkpt>
      <trkpt lat="38.261561980471015" lon="-3.623473020270467">
        <ele>557.79999999999995</ele>
        <time>2003-04-20T19:25:09Z</time>
      </trkpt>
      <trkpt lat="38.262213002890348" lon="-3.623127015307546">
        <ele>560.29999999999995</ele>
        <time>2003-04-20T19:25:12Z</time>
      </trkpt>
      <trkpt lat="38.262820020318031" lon="-3.622607002034783">
        <ele>562.5</ele>
        <time>2003-04-20T19:25:16Z</time>
      </trkpt>
      <trkpt lat="38.263340033590794" lon="-3.621911974623799">
        <ele>564.29999999999995</ele>
        <time>2003-04-20T19:25:20Z</time>
      </trkpt>
      <trkpt lat="38.263638010248542" lon="-3.621421968564391">
        <ele>565.70000000000005</ele>
        <time>2003-04-20T19:25:20Z</time>
      </trkpt>
      <trkpt lat="38.263983009383082" lon="-3.620531978085637">
        <ele>567.5</ele>
        <time>2003-04-20T19:25:24Z</time>
      </trkpt>
      <trkpt lat="38.264397997409105" lon="-3.61931199207902">
        <ele>570.60000000000002</ele>
        <time>2003-04-20T19:25:28Z</time>
      </trkpt>
      <trkpt lat="38.264817008748651" lon="-3.618082031607628">
        <ele>573.89999999999998</ele>
        <time>2003-04-20T19:25:31Z</time>
      </trkpt>
      <trkpt lat="38.265239959582686" lon="-3.616855004802346">
        <ele>578</ele>
        <time>2003-04-20T19:25:35Z</time>
      </trkpt>
      <trkpt lat="38.265655031427741" lon="-3.615624960511923">
        <ele>581.79999999999995</ele>
        <time>2003-04-20T19:25:39Z</time>
      </trkpt>
      <trkpt lat="38.26608301140368" lon="-3.614395000040531">
        <ele>585.5</ele>
        <time>2003-04-20T19:25:43Z</time>
      </trkpt>
      <trkpt lat="38.266507973894477" lon="-3.613139977678657">
        <ele>587.39999999999998</ele>
        <time>2003-04-20T19:25:47Z</time>
      </trkpt>
      <trkpt lat="38.266962021589279" lon="-3.611868023872376">
        <ele>588.79999999999995</ele>
        <time>2003-04-20T19:25:51Z</time>
      </trkpt>
      <trkpt lat="38.26748002320528" lon="-3.610602021217346">
        <ele>589.70000000000005</ele>
        <time>2003-04-20T19:25:55Z</time>
      </trkpt>
      <trkpt lat="38.267997018992901" lon="-3.609727034345269">
        <ele>589</ele>
        <time>2003-04-20T19:25:58Z</time>
      </trkpt>
      <trkpt lat="38.268636977300048" lon="-3.608939973637462">
        <ele>586.70000000000005</ele>
        <time>2003-04-20T19:26:02Z</time>
      </trkpt>
      <trkpt lat="38.269397970288992" lon="-3.608277970924974">
        <ele>584.20000000000005</ele>
        <time>2003-04-20T19:26:05Z</time>
      </trkpt>
      <trkpt lat="38.27023196965456" lon="-3.607725016772747">
        <ele>581.79999999999995</ele>
        <time>2003-04-20T19:26:07Z</time>
      </trkpt>
      <trkpt lat="38.270834963768721" lon="-3.60745201818645">
        <ele>580.39999999999998</ele>
        <time>2003-04-20T19:26:10Z</time>
      </trkpt>
      <trkpt lat="38.271774994209409" lon="-3.607084974646568">
        <ele>579.39999999999998</ele>
        <time>2003-04-20T19:26:13Z</time>
      </trkpt>
      <trkpt lat="38.272717036306858" lon="-3.606717009097338">
        <ele>580.70000000000005</ele>
        <time>2003-04-20T19:26:15Z</time>
      </trkpt>
      <trkpt lat="38.273648014292121" lon="-3.606358012184501">
        <ele>584.10000000000002</ele>
        <time>2003-04-20T19:26:18Z</time>
      </trkpt>
      <trkpt lat="38.274544961750507" lon="-3.605957021936774">
        <ele>587.79999999999995</ele>
        <time>2003-04-20T19:26:22Z</time>
      </trkpt>
      <trkpt lat="38.275348031893373" lon="-3.6054100189358">
        <ele>591.29999999999995</ele>
        <time>2003-04-20T19:26:25Z</time>
      </trkpt>
      <trkpt lat="38.275818005204201" lon="-3.604963012039661">
        <ele>593.70000000000005</ele>
        <time>2003-04-20T19:26:26Z</time>
      </trkpt>
      <trkpt lat="38.276428040117025" lon="-3.604179974645376">
        <ele>597</ele>
        <time>2003-04-20T19:26:29Z</time>
      </trkpt>
      <trkpt lat="38.277139998972416" lon="-3.603041963651776">
        <ele>602.29999999999995</ele>
        <time>2003-04-20T19:26:33Z</time>
      </trkpt>
      <trkpt lat="38.277824968099594" lon="-3.60188702121377">
        <ele>606.60000000000002</ele>
        <time>2003-04-20T19:26:37Z</time>
      </trkpt>
      <trkpt lat="38.278527036309242" lon="-3.600742975249887">
        <ele>609.89999999999998</ele>
        <time>2003-04-20T19:26:41Z</time>
      </trkpt>
      <trkpt lat="38.279247963801026" lon="-3.5995680000633">
        <ele>610.20000000000005</ele>
        <time>2003-04-20T19:26:45Z</time>
      </trkpt>
      <trkpt lat="38.279799995943904" lon="-3.598640039563179">
        <ele>608.5</ele>
        <time>2003-04-20T19:26:49Z</time>
      </trkpt>
      <trkpt lat="38.280337024480104" lon="-3.597649969160557">
        <ele>606.39999999999998</ele>
        <time>2003-04-20T19:26:52Z</time>
      </trkpt>
      <trkpt lat="38.280798029154539" lon="-3.596574990078807">
        <ele>606.10000000000002</ele>
        <time>2003-04-20T19:26:55Z</time>
      </trkpt>
      <trkpt lat="38.281170018017292" lon="-3.595434967428446">
        <ele>606.70000000000005</ele>
        <time>2003-04-20T19:26:57Z</time>
      </trkpt>
      <trkpt lat="38.281482998281717" lon="-3.594269966706634">
        <ele>607.29999999999995</ele>
        <time>2003-04-20T19:27:00Z</time>
      </trkpt>
      <trkpt lat="38.281809976324439" lon="-3.593137990683317">
        <ele>606.89999999999998</ele>
        <time>2003-04-20T19:27:04Z</time>
      </trkpt>
      <trkpt lat="38.282188000157475" lon="-3.592042978852987">
        <ele>605</ele>
        <time>2003-04-20T19:27:07Z</time>
      </trkpt>
      <trkpt lat="38.282512966543436" lon="-3.591357003897429">
        <ele>603.5</ele>
        <time>2003-04-20T19:27:08Z</time>
      </trkpt>
      <trkpt lat="38.282901970669627" lon="-3.59073699451983">
        <ele>602.20000000000005</ele>
        <time>2003-04-20T19:27:11Z</time>
      </trkpt>
      <trkpt lat="38.283590041100979" lon="-3.58996300958097">
        <ele>600.5</ele>
        <time>2003-04-20T19:27:14Z</time>
      </trkpt>
      <trkpt lat="38.284109970554709" lon="-3.589565036818385">
        <ele>599.5</ele>
        <time>2003-04-20T19:27:16Z</time>
      </trkpt>
      <trkpt lat="38.284674994647503" lon="-3.589287009090185">
        <ele>598.39999999999998</ele>
        <time>2003-04-20T19:27:19Z</time>
      </trkpt>
      <trkpt lat="38.285261979326606" lon="-3.589111994951963">
        <ele>597.10000000000002</ele>
        <time>2003-04-20T19:27:20Z</time>
      </trkpt>
      <trkpt lat="38.286160016432405" lon="-3.58901996165514">
        <ele>595.29999999999995</ele>
        <time>2003-04-20T19:27:23Z</time>
      </trkpt>
      <trkpt lat="38.286463022232056" lon="-3.589028008282185">
        <ele>594.70000000000005</ele>
        <time>2003-04-20T19:27:23Z</time>
      </trkpt>
      <trkpt lat="38.287367010489106" lon="-3.589117024093866">
        <ele>594.39999999999998</ele>
        <time>2003-04-20T19:27:27Z</time>
      </trkpt>
      <trkpt lat="38.288545003160834" lon="-3.589239986613393">
        <ele>597.20000000000005</ele>
        <time>2003-04-20T19:27:31Z</time>
      </trkpt>
      <trkpt lat="38.289683014154434" lon="-3.589379964396358">
        <ele>603.39999999999998</ele>
        <time>2003-04-20T19:27:35Z</time>
      </trkpt>
      <trkpt lat="38.290781965479255" lon="-3.589514996856451">
        <ele>610.60000000000002</ele>
        <time>2003-04-20T19:27:39Z</time>
      </trkpt>
      <trkpt lat="38.291851999238133" lon="-3.589580040425062">
        <ele>617.20000000000005</ele>
        <time>2003-04-20T19:27:43Z</time>
      </trkpt>
      <trkpt lat="38.292896971106529" lon="-3.589502004906535">
        <ele>623</ele>
        <time>2003-04-20T19:27:47Z</time>
      </trkpt>
      <trkpt lat="38.293631980195642" lon="-3.589220037683845">
        <ele>628</ele>
        <time>2003-04-20T19:27:50Z</time>
      </trkpt>
      <trkpt lat="38.29407999292016" lon="-3.588928012177348">
        <ele>631.20000000000005</ele>
        <time>2003-04-20T19:27:53Z</time>
      </trkpt>
      <trkpt lat="38.294688016176224" lon="-3.588380003347993">
        <ele>634.89999999999998</ele>
        <time>2003-04-20T19:27:55Z</time>
      </trkpt>
      <trkpt lat="38.295414978638291" lon="-3.587511973455548">
        <ele>638</ele>
        <time>2003-04-20T19:27:59Z</time>
      </trkpt>
      <trkpt lat="38.296072036027908" lon="-3.586521986871958">
        <ele>639.39999999999998</ele>
        <time>2003-04-20T19:28:03Z</time>
      </trkpt>
      <trkpt lat="38.296751976013184" lon="-3.58551699668169">
        <ele>640.39999999999998</ele>
        <time>2003-04-20T19:28:08Z</time>
      </trkpt>
      <trkpt lat="38.297448009252548" lon="-3.584492979571223">
        <ele>641.70000000000005</ele>
        <time>2003-04-20T19:28:12Z</time>
      </trkpt>
      <trkpt lat="38.298146976158023" lon="-3.583450019359589">
        <ele>643.70000000000005</ele>
        <time>2003-04-20T19:28:16Z</time>
      </trkpt>
      <trkpt lat="38.298834962770343" lon="-3.582428013905883">
        <ele>649.5</ele>
        <time>2003-04-20T19:28:20Z</time>
      </trkpt>
      <trkpt lat="38.299507023766637" lon="-3.581437021493912">
        <ele>655.29999999999995</ele>
        <time>2003-04-20T19:28:24Z</time>
      </trkpt>
      <trkpt lat="38.300155028700829" lon="-3.580462038516998">
        <ele>660.79999999999995</ele>
        <time>2003-04-20T19:28:28Z</time>
      </trkpt>
      <trkpt lat="38.300839997828007" lon="-3.579571964219213">
        <ele>666.39999999999998</ele>
        <time>2003-04-20T19:28:32Z</time>
      </trkpt>
      <trkpt lat="38.301237970590591" lon="-3.579227970913053">
        <ele>669</ele>
        <time>2003-04-20T19:28:33Z</time>
      </trkpt>
      <trkpt lat="38.301680032163858" lon="-3.578992020338774">
        <ele>671.60000000000002</ele>
        <time>2003-04-20T19:28:36Z</time>
      </trkpt>
      <trkpt lat="38.302132990211248" lon="-3.578829998150468">
        <ele>674.20000000000005</ele>
        <time>2003-04-20T19:28:37Z</time>
      </trkpt>
      <trkpt lat="38.303047036752105" lon="-3.578615002334118">
        <ele>679.60000000000002</ele>
        <time>2003-04-20T19:28:41Z</time>
      </trkpt>
      <trkpt lat="38.303957981988788" lon="-3.578405035659671">
        <ele>684.70000000000005</ele>
        <time>2003-04-20T19:28:45Z</time>
      </trkpt>
      <trkpt lat="38.304887032136321" lon="-3.578181993216276">
        <ele>690.20000000000005</ele>
        <time>2003-04-20T19:28:49Z</time>
      </trkpt>
      <trkpt lat="38.305824967101216" lon="-3.577949982136488">
        <ele>695.39999999999998</ele>
        <time>2003-04-20T19:28:53Z</time>
      </trkpt>
      <trkpt lat="38.306774972006679" lon="-3.577707996591926">
        <ele>700.79999999999995</ele>
        <time>2003-04-20T19:28:57Z</time>
      </trkpt>
      <trkpt lat="38.307748027145863" lon="-3.577470034360886">
        <ele>705.10000000000002</ele>
        <time>2003-04-20T19:29:02Z</time>
      </trkpt>
      <trkpt lat="38.308482030406594" lon="-3.577182032167912">
        <ele>707.79999999999995</ele>
        <time>2003-04-20T19:29:04Z</time>
      </trkpt>
      <trkpt lat="38.308910010382533" lon="-3.576880032196641">
        <ele>709.89999999999998</ele>
        <time>2003-04-20T19:29:07Z</time>
      </trkpt>
      <trkpt lat="38.309281999245286" lon="-3.576481975615025">
        <ele>711.89999999999998</ele>
        <time>2003-04-20T19:29:08Z</time>
      </trkpt>
      <trkpt lat="38.309993036091328" lon="-3.575647976249456">
        <ele>715.70000000000005</ele>
        <time>2003-04-20T19:29:12Z</time>
      </trkpt>
      <trkpt lat="38.310712035745382" lon="-3.574820011854172">
        <ele>719.5</ele>
        <time>2003-04-20T19:29:16Z</time>
      </trkpt>
      <trkpt lat="38.311425000429153" lon="-3.573988024145365">
        <ele>723</ele>
        <time>2003-04-20T19:29:20Z</time>
      </trkpt>
      <trkpt lat="38.312142994254827" lon="-3.573156958445907">
        <ele>726.39999999999998</ele>
        <time>2003-04-20T19:29:24Z</time>
      </trkpt>
      <trkpt lat="38.312795022502542" lon="-3.572209971025586">
        <ele>728.39999999999998</ele>
        <time>2003-04-20T19:29:29Z</time>
      </trkpt>
      <trkpt lat="38.313053017482162" lon="-3.571670008823276">
        <ele>730.10000000000002</ele>
        <time>2003-04-20T19:29:31Z</time>
      </trkpt>
      <trkpt lat="38.313355017453432" lon="-3.57079996727407">
        <ele>732</ele>
        <time>2003-04-20T19:29:34Z</time>
      </trkpt>
      <trkpt lat="38.3136329613626" lon="-3.569577969610691">
        <ele>734.70000000000005</ele>
        <time>2003-04-20T19:29:38Z</time>
      </trkpt>
      <trkpt lat="38.313982989639044" lon="-3.568365024402738">
        <ele>736</ele>
        <time>2003-04-20T19:29:42Z</time>
      </trkpt>
      <trkpt lat="38.314411975443363" lon="-3.567522978410125">
        <ele>735.39999999999998</ele>
        <time>2003-04-20T19:29:45Z</time>
      </trkpt>
      <trkpt lat="38.31513499841094" lon="-3.566497033461928">
        <ele>733.79999999999995</ele>
        <time>2003-04-20T19:29:49Z</time>
      </trkpt>
      <trkpt lat="38.316033035516739" lon="-3.565572006627917">
        <ele>729.5</ele>
        <time>2003-04-20T19:29:53Z</time>
      </trkpt>
      <trkpt lat="38.316433019936085" lon="-3.565002037212253">
        <ele>727.79999999999995</ele>
        <time>2003-04-20T19:29:54Z</time>
      </trkpt>
      <trkpt lat="38.316931994631886" lon="-3.56403199955821">
        <ele>726.5</ele>
        <time>2003-04-20T19:29:58Z</time>
      </trkpt>
      <trkpt lat="38.317395010963082" lon="-3.563000019639731">
        <ele>725</ele>
        <time>2003-04-20T19:30:01Z</time>
      </trkpt>
      <trkpt lat="38.317847969010472" lon="-3.561931997537613">
        <ele>723.89999999999998</ele>
        <time>2003-04-20T19:30:04Z</time>
      </trkpt>
      <trkpt lat="38.318281983956695" lon="-3.560902029275894">
        <ele>727</ele>
        <time>2003-04-20T19:30:06Z</time>
      </trkpt>
      <trkpt lat="38.318609967827797" lon="-3.560308003798127">
        <ele>730.39999999999998</ele>
        <time>2003-04-20T19:30:09Z</time>
      </trkpt>
      <trkpt lat="38.319353023543954" lon="-3.559205029159784">
        <ele>735.79999999999995</ele>
        <time>2003-04-20T19:30:13Z</time>
      </trkpt>
      <trkpt lat="38.320085015147924" lon="-3.558087972924113">
        <ele>738.79999999999995</ele>
        <time>2003-04-20T19:30:17Z</time>
      </trkpt>
      <trkpt lat="38.320833016186953" lon="-3.557084994390607">
        <ele>740.70000000000005</ele>
        <time>2003-04-20T19:30:21Z</time>
      </trkpt>
      <trkpt lat="38.321269964799285" lon="-3.556675035506487">
        <ele>741.70000000000005</ele>
        <time>2003-04-20T19:30:23Z</time>
      </trkpt>
      <trkpt lat="38.322222987189889" lon="-3.555962992832065">
        <ele>742.89999999999998</ele>
        <time>2003-04-20T19:30:27Z</time>
      </trkpt>
      <trkpt lat="38.322893036529422" lon="-3.555311970412731">
        <ele>743.89999999999998</ele>
        <time>2003-04-20T19:30:29Z</time>
      </trkpt>
      <trkpt lat="38.323454959318042" lon="-3.554507978260517">
        <ele>746.39999999999998</ele>
        <time>2003-04-20T19:30:32Z</time>
      </trkpt>
      <trkpt lat="38.324167001992464" lon="-3.553393017500639">
        <ele>748.20000000000005</ele>
        <time>2003-04-20T19:30:36Z</time>
      </trkpt>
      <trkpt lat="38.324907962232828" lon="-3.552262969315052">
        <ele>746.70000000000005</ele>
        <time>2003-04-20T19:30:40Z</time>
      </trkpt>
      <trkpt lat="38.325484972447157" lon="-3.551355041563511">
        <ele>742.70000000000005</ele>
        <time>2003-04-20T19:30:44Z</time>
      </trkpt>
      <trkpt lat="38.326089978218079" lon="-3.550402019172907">
        <ele>738.29999999999995</ele>
        <time>2003-04-20T19:30:47Z</time>
      </trkpt>
      <trkpt lat="38.326727002859116" lon="-3.549427036195993">
        <ele>734.20000000000005</ele>
        <time>2003-04-20T19:30:50Z</time>
      </trkpt>
      <trkpt lat="38.327369978651404" lon="-3.548433026298881">
        <ele>733.39999999999998</ele>
        <time>2003-04-20T19:30:52Z</time>
      </trkpt>
      <trkpt lat="38.328019995242357" lon="-3.547432981431484">
        <ele>731.79999999999995</ele>
        <time>2003-04-20T19:30:55Z</time>
      </trkpt>
      <trkpt lat="38.32867001183331" lon="-3.546432014554739">
        <ele>731</ele>
        <time>2003-04-20T19:30:59Z</time>
      </trkpt>
      <trkpt lat="38.329284992069006" lon="-3.54546801187098">
        <ele>731.39999999999998</ele>
        <time>2003-04-20T19:31:02Z</time>
      </trkpt>
      <trkpt lat="38.330026958137751" lon="-3.544318014755845">
        <ele>733.5</ele>
        <time>2003-04-20T19:31:06Z</time>
      </trkpt>
      <trkpt lat="38.330736989155412" lon="-3.543377984315157">
        <ele>736.60000000000002</ele>
        <time>2003-04-20T19:31:10Z</time>
      </trkpt>
      <trkpt lat="38.331158012151718" lon="-3.543002977967262">
        <ele>738.5</ele>
        <time>2003-04-20T19:31:11Z</time>
      </trkpt>
      <trkpt lat="38.33161499351263" lon="-3.542701983824372">
        <ele>739.10000000000002</ele>
        <time>2003-04-20T19:31:14Z</time>
      </trkpt>
      <trkpt lat="38.332110028713942" lon="-3.542516995221376">
        <ele>740.5</ele>
        <time>2003-04-20T19:31:15Z</time>
      </trkpt>
      <trkpt lat="38.33288200199604" lon="-3.542392021045089">
        <ele>742.29999999999995</ele>
        <time>2003-04-20T19:31:19Z</time>
      </trkpt>
      <trkpt lat="38.333142008632421" lon="-3.542399983853102">
        <ele>742.79999999999995</ele>
        <time>2003-04-20T19:31:19Z</time>
      </trkpt>
      <trkpt lat="38.333656992763281" lon="-3.542499979957938">
        <ele>743.39999999999998</ele>
        <time>2003-04-20T19:31:22Z</time>
      </trkpt>
      <trkpt lat="38.334655025973916" lon="-3.542927959933877">
        <ele>744.5</ele>
        <time>2003-04-20T19:31:26Z</time>
      </trkpt>
      <trkpt lat="38.335662027820945" lon="-3.543442022055388">
        <ele>745.10000000000002</ele>
        <time>2003-04-20T19:31:30Z</time>
      </trkpt>
      <trkpt lat="38.336672969162464" lon="-3.543990030884743">
        <ele>746.79999999999995</ele>
        <time>2003-04-20T19:31:34Z</time>
      </trkpt>
      <trkpt lat="38.337706960737705" lon="-3.544526975601912">
        <ele>749.10000000000002</ele>
        <time>2003-04-20T19:31:38Z</time>
      </trkpt>
      <trkpt lat="38.338765008375049" lon="-3.544972976669669">
        <ele>752.20000000000005</ele>
        <time>2003-04-20T19:31:42Z</time>
      </trkpt>
      <trkpt lat="38.339591966941953" lon="-3.545180009678006">
        <ele>755</ele>
        <time>2003-04-20T19:31:45Z</time>
      </trkpt>
      <trkpt lat="38.340707011520863" lon="-3.545222003012896">
        <ele>758.20000000000005</ele>
        <time>2003-04-20T19:31:49Z</time>
      </trkpt>
      <trkpt lat="38.341257032006979" lon="-3.545104991644621">
        <ele>759.89999999999998</ele>
        <time>2003-04-20T19:31:50Z</time>
      </trkpt>
      <trkpt lat="38.341787019744515" lon="-3.544889995828271">
        <ele>761.39999999999998</ele>
        <time>2003-04-20T19:31:53Z</time>
      </trkpt>
      <trkpt lat="38.342288006097078" lon="-3.544592019170523">
        <ele>763.10000000000002</ele>
        <time>2003-04-20T19:31:54Z</time>
      </trkpt>
      <trkpt lat="38.342735012993217" lon="-3.544182982295752">
        <ele>764.60000000000002</ele>
        <time>2003-04-20T19:31:57Z</time>
      </trkpt>
      <trkpt lat="38.343099961057305" lon="-3.543730024248362">
        <ele>766</ele>
        <time>2003-04-20T19:31:58Z</time>
      </trkpt>
      <trkpt lat="38.343530036509037" lon="-3.542999960482121">
        <ele>767.29999999999995</ele>
        <time>2003-04-20T19:32:01Z</time>
      </trkpt>
      <trkpt lat="38.344037979841232" lon="-3.541967980563641">
        <ele>767.10000000000002</ele>
        <time>2003-04-20T19:32:05Z</time>
      </trkpt>
      <trkpt lat="38.344552963972092" lon="-3.540862994268537">
        <ele>762.70000000000005</ele>
        <time>2003-04-20T19:32:09Z</time>
      </trkpt>
      <trkpt lat="38.344995025545359" lon="-3.539781980216503">
        <ele>759.39999999999998</ele>
        <time>2003-04-20T19:32:13Z</time>
      </trkpt>
      <trkpt lat="38.345131985843182" lon="-3.5391949955374">
        <ele>757.60000000000002</ele>
        <time>2003-04-20T19:32:16Z</time>
      </trkpt>
      <trkpt lat="38.34519300609827" lon="-3.538556965067983">
        <ele>756</ele>
        <time>2003-04-20T19:32:17Z</time>
      </trkpt>
      <trkpt lat="38.345146989449859" lon="-3.537890017032623">
        <ele>755.60000000000002</ele>
        <time>2003-04-20T19:32:20Z</time>
      </trkpt>
      <trkpt lat="38.344908021390438" lon="-3.536606999114156">
        <ele>758.70000000000005</ele>
        <time>2003-04-20T19:32:24Z</time>
      </trkpt>
      <trkpt lat="38.344877008348703" lon="-3.535986989736557">
        <ele>760.79999999999995</ele>
        <time>2003-04-20T19:32:25Z</time>
      </trkpt>
      <trkpt lat="38.344917995855212" lon="-3.535409979522228">
        <ele>762.89999999999998</ele>
        <time>2003-04-20T19:32:28Z</time>
      </trkpt>
      <trkpt lat="38.345061996951699" lon="-3.534891977906227">
        <ele>764.39999999999998</ele>
        <time>2003-04-20T19:32:29Z</time>
      </trkpt>
      <trkpt lat="38.345168028026819" lon="-3.534655021503568">
        <ele>764.70000000000005</ele>
        <time>2003-04-20T19:32:31Z</time>
      </trkpt>
      <trkpt lat="38.345434991642833" lon="-3.534227041527629">
        <ele>763.29999999999995</ele>
        <time>2003-04-20T19:32:32Z</time>
      </trkpt>
      <trkpt lat="38.34577496163547" lon="-3.533856980502605">
        <ele>760.60000000000002</ele>
        <time>2003-04-20T19:32:35Z</time>
      </trkpt>
      <trkpt lat="38.346177963539958" lon="-3.533599991351366">
        <ele>757.60000000000002</ele>
        <time>2003-04-20T19:32:36Z</time>
      </trkpt>
      <trkpt lat="38.347048005089164" lon="-3.533175028860569">
        <ele>752.20000000000005</ele>
        <time>2003-04-20T19:32:40Z</time>
      </trkpt>
      <trkpt lat="38.347600037232041" lon="-3.532851990312338">
        <ele>748.10000000000002</ele>
        <time>2003-04-20T19:32:43Z</time>
      </trkpt>
      <trkpt lat="38.347825007513165" lon="-3.53264001198113">
        <ele>746.10000000000002</ele>
        <time>2003-04-20T19:32:46Z</time>
      </trkpt>
      <trkpt lat="38.347902959212661" lon="-3.532542027533054">
        <ele>745.20000000000005</ele>
        <time>2003-04-20T19:32:47Z</time>
      </trkpt>
      <trkpt lat="38.347982000559568" lon="-3.532410012558103">
        <ele>744.70000000000005</ele>
        <time>2003-04-20T19:32:47Z</time>
      </trkpt>
      <trkpt lat="38.34811300970614" lon="-3.532095020636916">
        <ele>743.39999999999998</ele>
        <time>2003-04-20T19:32:50Z</time>
      </trkpt>
      <trkpt lat="38.348128013312817" lon="-3.531901985406876">
        <ele>742.70000000000005</ele>
        <time>2003-04-20T19:32:51Z</time>
      </trkpt>
      <trkpt lat="38.348121978342533" lon="-3.531693024560809">
        <ele>741.79999999999995</ele>
        <time>2003-04-20T19:32:51Z</time>
      </trkpt>
      <trkpt lat="38.348091971129179" lon="-3.531477022916079">
        <ele>740.70000000000005</ele>
        <time>2003-04-20T19:32:54Z</time>
      </trkpt>
      <trkpt lat="38.348021982237697" lon="-3.531260015442967">
        <ele>739.70000000000005</ele>
        <time>2003-04-20T19:32:54Z</time>
      </trkpt>
      <trkpt lat="38.347983006387949" lon="-3.53105197660625">
        <ele>738.5</ele>
        <time>2003-04-20T19:32:55Z</time>
      </trkpt>
      <trkpt lat="38.34779298864305" lon="-3.53087997995317">
        <ele>737.5</ele>
        <time>2003-04-20T19:32:55Z</time>
      </trkpt>
      <trkpt lat="38.347516972571611" lon="-3.530549984425306">
        <ele>735.10000000000002</ele>
        <time>2003-04-20T19:32:58Z</time>
      </trkpt>
      <trkpt lat="38.347419993951917" lon="-3.530349992215633">
        <ele>733.89999999999998</ele>
        <time>2003-04-20T19:32:59Z</time>
      </trkpt>
      <trkpt lat="38.347356962040067" lon="-3.530138013884425">
        <ele>733.20000000000005</ele>
        <time>2003-04-20T19:32:59Z</time>
      </trkpt>
      <trkpt lat="38.347338018938899" lon="-3.529908014461398">
        <ele>732.10000000000002</ele>
        <time>2003-04-20T19:33:00Z</time>
      </trkpt>
      <trkpt lat="38.347365008667111" lon="-3.529678015038371">
        <ele>731.39999999999998</ele>
        <time>2003-04-20T19:33:02Z</time>
      </trkpt>
      <trkpt lat="38.347572963684797" lon="-3.528464986011386">
        <ele>728.29999999999995</ele>
        <time>2003-04-20T19:33:07Z</time>
      </trkpt>
      <trkpt lat="38.347736997529864" lon="-3.527567032724619">
        <ele>725.29999999999995</ele>
        <time>2003-04-20T19:33:10Z</time>
      </trkpt>
      <trkpt lat="38.347827019169927" lon="-3.5272900108248">
        <ele>724.20000000000005</ele>
        <time>2003-04-20T19:33:13Z</time>
      </trkpt>
      <trkpt lat="38.347897008061409" lon="-3.527203006669879">
        <ele>723.79999999999995</ele>
        <time>2003-04-20T19:33:14Z</time>
      </trkpt>
      <trkpt lat="38.347992980852723" lon="-3.52714198641479">
        <ele>723.39999999999998</ele>
        <time>2003-04-20T19:33:14Z</time>
      </trkpt>
      <trkpt lat="38.348106974735856" lon="-3.527127988636494">
        <ele>723</ele>
        <time>2003-04-20T19:33:15Z</time>
      </trkpt>
      <trkpt lat="38.348227003589272" lon="-3.527166964486241">
        <ele>722.5</ele>
        <time>2003-04-20T19:33:17Z</time>
      </trkpt>
      <trkpt lat="38.348337979987264" lon="-3.527262015268207">
        <ele>722.10000000000002</ele>
        <time>2003-04-20T19:33:18Z</time>
      </trkpt>
      <trkpt lat="38.348422972485423" lon="-3.527407022193074">
        <ele>721.79999999999995</ele>
        <time>2003-04-20T19:33:18Z</time>
      </trkpt>
      <trkpt lat="38.348469994962215" lon="-3.527582958340645">
        <ele>721.20000000000005</ele>
        <time>2003-04-20T19:33:19Z</time>
      </trkpt>
      <trkpt lat="38.34847996942699" lon="-3.527778005227447">
        <ele>721.10000000000002</ele>
        <time>2003-04-20T19:33:21Z</time>
      </trkpt>
      <trkpt lat="38.348490027710795" lon="-3.528398014605045">
        <ele>718.60000000000002</ele>
        <time>2003-04-20T19:33:23Z</time>
      </trkpt>
      <trkpt lat="38.348637968301773" lon="-3.529465030878782">
        <ele>712.20000000000005</ele>
        <time>2003-04-20T19:33:29Z</time>
      </trkpt>
      <trkpt lat="38.348748022690415" lon="-3.529626969248056">
        <ele>711</ele>
        <time>2003-04-20T19:33:30Z</time>
      </trkpt>
      <trkpt lat="38.348882971331477" lon="-3.529756972566247">
        <ele>709.70000000000005</ele>
        <time>2003-04-20T19:33:30Z</time>
      </trkpt>
      <trkpt lat="38.34903703071177" lon="-3.529861997812986">
        <ele>708.39999999999998</ele>
        <time>2003-04-20T19:33:32Z</time>
      </trkpt>
      <trkpt lat="38.349392004311085" lon="-3.530032988637686">
        <ele>706.10000000000002</ele>
        <time>2003-04-20T19:33:34Z</time>
      </trkpt>
      <trkpt lat="38.350309990346432" lon="-3.53053699247539">
        <ele>699.60000000000002</ele>
        <time>2003-04-20T19:33:38Z</time>
      </trkpt>
      <trkpt lat="38.350837966427207" lon="-3.530755005776882">
        <ele>697.5</ele>
        <time>2003-04-20T19:33:41Z</time>
      </trkpt>
      <trkpt lat="38.35099303163588" lon="-3.530752994120121">
        <ele>696.39999999999998</ele>
        <time>2003-04-20T19:33:42Z</time>
      </trkpt>
      <trkpt lat="38.351152036339045" lon="-3.530715024098754">
        <ele>695.29999999999995</ele>
        <time>2003-04-20T19:33:44Z</time>
      </trkpt>
      <trkpt lat="38.351308023557067" lon="-3.530634976923466">
        <ele>694.29999999999995</ele>
        <time>2003-04-20T19:33:45Z</time>
      </trkpt>
      <trkpt lat="38.352155014872551" lon="-3.530174978077412">
        <ele>688.20000000000005</ele>
        <time>2003-04-20T19:33:49Z</time>
      </trkpt>
      <trkpt lat="38.352460032328963" lon="-3.529914971441031">
        <ele>686.10000000000002</ele>
        <time>2003-04-20T19:33:52Z</time>
      </trkpt>
      <trkpt lat="38.352588023990393" lon="-3.529737023636699">
        <ele>685.20000000000005</ele>
        <time>2003-04-20T19:33:53Z</time>
      </trkpt>
      <trkpt lat="38.352694977074862" lon="-3.529527978971601">
        <ele>684.20000000000005</ele>
        <time>2003-04-20T19:33:53Z</time>
      </trkpt>
      <trkpt lat="38.352778041735291" lon="-3.529296973720193">
        <ele>683.10000000000002</ele>
        <time>2003-04-20T19:33:54Z</time>
      </trkpt>
      <trkpt lat="38.352967975661159" lon="-3.528621979057789">
        <ele>679.39999999999998</ele>
        <time>2003-04-20T19:33:57Z</time>
      </trkpt>
      <trkpt lat="38.353002006188035" lon="-3.528131972998381">
        <ele>677</ele>
        <time>2003-04-20T19:34:00Z</time>
      </trkpt>
      <trkpt lat="38.353054979816079" lon="-3.526762034744024">
        <ele>670.39999999999998</ele>
        <time>2003-04-20T19:34:04Z</time>
      </trkpt>
      <trkpt lat="38.35296998731792" lon="-3.525446997955442">
        <ele>664.10000000000002</ele>
        <time>2003-04-20T19:34:09Z</time>
      </trkpt>
      <trkpt lat="38.352902010083199" lon="-3.52520702406764">
        <ele>663.10000000000002</ele>
        <time>2003-04-20T19:34:11Z</time>
      </trkpt>
      <trkpt lat="38.352745017036796" lon="-3.524557007476687">
        <ele>660.39999999999998</ele>
        <time>2003-04-20T19:34:13Z</time>
      </trkpt>
      <trkpt lat="38.352749962359667" lon="-3.524355003610253">
        <ele>659.5</ele>
        <time>2003-04-20T19:34:15Z</time>
      </trkpt>
      <trkpt lat="38.352787010371685" lon="-3.524158028885722">
        <ele>658.5</ele>
        <time>2003-04-20T19:34:16Z</time>
      </trkpt>
      <trkpt lat="38.352860016748309" lon="-3.523974968120456">
        <ele>657.79999999999995</ele>
        <time>2003-04-20T19:34:16Z</time>
      </trkpt>
      <trkpt lat="38.353066965937614" lon="-3.523447997868061">
        <ele>656.79999999999995</ele>
        <time>2003-04-20T19:34:20Z</time>
      </trkpt>
      <trkpt lat="38.353126980364323" lon="-3.523048013448715">
        <ele>656.5</ele>
        <time>2003-04-20T19:34:21Z</time>
      </trkpt>
      <trkpt lat="38.353137038648129" lon="-3.52265196852386">
        <ele>656.29999999999995</ele>
        <time>2003-04-20T19:34:24Z</time>
      </trkpt>
      <trkpt lat="38.353177020326257" lon="-3.522106977179647">
        <ele>654.79999999999995</ele>
        <time>2003-04-20T19:34:27Z</time>
      </trkpt>
      <trkpt lat="38.35327198728919" lon="-3.521653013303876">
        <ele>654.89999999999998</ele>
        <time>2003-04-20T19:34:30Z</time>
      </trkpt>
      <trkpt lat="38.353350022807717" lon="-3.521565003320575">
        <ele>655.10000000000002</ele>
        <time>2003-04-20T19:34:31Z</time>
      </trkpt>
      <trkpt lat="38.353462005034089" lon="-3.521522004157305">
        <ele>655</ele>
        <time>2003-04-20T19:34:31Z</time>
      </trkpt>
      <trkpt lat="38.353578010573983" lon="-3.521531978622079">
        <ele>654.70000000000005</ele>
        <time>2003-04-20T19:34:32Z</time>
      </trkpt>
      <trkpt lat="38.353692004457116" lon="-3.521583024412394">
        <ele>654.70000000000005</ele>
        <time>2003-04-20T19:34:34Z</time>
      </trkpt>
      <trkpt lat="38.353792000561953" lon="-3.521685032173991">
        <ele>655</ele>
        <time>2003-04-20T19:34:35Z</time>
      </trkpt>
      <trkpt lat="38.353862995281816" lon="-3.521828027442098">
        <ele>654.89999999999998</ele>
        <time>2003-04-20T19:34:35Z</time>
      </trkpt>
      <trkpt lat="38.353904988616705" lon="-3.521997006610036">
        <ele>654.60000000000002</ele>
        <time>2003-04-20T19:34:36Z</time>
      </trkpt>
      <trkpt lat="38.353902976959944" lon="-3.522181995213032">
        <ele>654.5</ele>
        <time>2003-04-20T19:34:38Z</time>
      </trkpt>
      <trkpt lat="38.353862995281816" lon="-3.522367989644408">
        <ele>654.20000000000005</ele>
        <time>2003-04-20T19:34:39Z</time>
      </trkpt>
      <trkpt lat="38.353812033310533" lon="-3.522767974063754">
        <ele>652.70000000000005</ele>
        <time>2003-04-20T19:34:40Z</time>
      </trkpt>
      <trkpt lat="38.353687981143594" lon="-3.524085022509098">
        <ele>646</ele>
        <time>2003-04-20T19:34:47Z</time>
      </trkpt>
      <trkpt lat="38.353710025548935" lon="-3.524297000840306">
        <ele>644.70000000000005</ele>
        <time>2003-04-20T19:34:47Z</time>
      </trkpt>
      <trkpt lat="38.353767022490501" lon="-3.524506967514753">
        <ele>643.5</ele>
        <time>2003-04-20T19:34:48Z</time>
      </trkpt>
      <trkpt lat="38.354129958897829" lon="-3.525602985173464">
        <ele>637.29999999999995</ele>
        <time>2003-04-20T19:34:55Z</time>
      </trkpt>
      <trkpt lat="38.354421984404325" lon="-3.526773015037179">
        <ele>632.79999999999995</ele>
        <time>2003-04-20T19:34:58Z</time>
      </trkpt>
      <trkpt lat="38.3545580226928" lon="-3.527372991666198">
        <ele>630.29999999999995</ele>
        <time>2003-04-20T19:35:02Z</time>
      </trkpt>
      <trkpt lat="38.354757009074092" lon="-3.528091991320252">
        <ele>627.79999999999995</ele>
        <time>2003-04-20T19:35:06Z</time>
      </trkpt>
      <trkpt lat="38.354927999898791" lon="-3.528397008776665">
        <ele>626.29999999999995</ele>
        <time>2003-04-20T19:35:07Z</time>
      </trkpt>
      <trkpt lat="38.355052974075079" lon="-3.528517037630081">
        <ele>625.39999999999998</ele>
        <time>2003-04-20T19:35:09Z</time>
      </trkpt>
      <trkpt lat="38.355194963514805" lon="-3.528613010421395">
        <ele>624.70000000000005</ele>
        <time>2003-04-20T19:35:10Z</time>
      </trkpt>
      <trkpt lat="38.355804998427629" lon="-3.528917022049427">
        <ele>621.89999999999998</ele>
        <time>2003-04-20T19:35:14Z</time>
      </trkpt>
      <trkpt lat="38.355956962332129" lon="-3.528952980414033">
        <ele>621.70000000000005</ele>
        <time>2003-04-20T19:35:14Z</time>
      </trkpt>
      <trkpt lat="38.356112027540803" lon="-3.528951974585652">
        <ele>620.89999999999998</ele>
        <time>2003-04-20T19:35:15Z</time>
      </trkpt>
      <trkpt lat="38.356268014758825" lon="-3.528918027877808">
        <ele>620.20000000000005</ele>
        <time>2003-04-20T19:35:17Z</time>
      </trkpt>
      <trkpt lat="38.3569669816643" lon="-3.528707977384329">
        <ele>617.5</ele>
        <time>2003-04-20T19:35:21Z</time>
      </trkpt>
      <trkpt lat="38.357907012104988" lon="-3.528452999889851">
        <ele>613.5</ele>
        <time>2003-04-20T19:35:25Z</time>
      </trkpt>
      <trkpt lat="38.3588130120188" lon="-3.528191987425089">
        <ele>610.10000000000002</ele>
        <time>2003-04-20T19:35:30Z</time>
      </trkpt>
      <trkpt lat="38.359122974798083" lon="-3.528017979115248">
        <ele>609</ele>
        <time>2003-04-20T19:35:33Z</time>
      </trkpt>
      <trkpt lat="38.359257001429796" lon="-3.527882024645805">
        <ele>608.60000000000002</ele>
        <time>2003-04-20T19:35:33Z</time>
      </trkpt>
      <trkpt lat="38.359362026676536" lon="-3.527712039649487">
        <ele>608.39999999999998</ele>
        <time>2003-04-20T19:35:34Z</time>
      </trkpt>
      <trkpt lat="38.359450036659837" lon="-3.527517998591065">
        <ele>608.10000000000002</ele>
        <time>2003-04-20T19:35:36Z</time>
      </trkpt>
      <trkpt lat="38.359511978924274" lon="-3.527305014431477">
        <ele>607.60000000000002</ele>
        <time>2003-04-20T19:35:37Z</time>
      </trkpt>
      <trkpt lat="38.3598249591887" lon="-3.52617496624589">
        <ele>602.89999999999998</ele>
        <time>2003-04-20T19:35:41Z</time>
      </trkpt>
      <trkpt lat="38.360163001343608" lon="-3.525287993252277">
        <ele>598.70000000000005</ele>
        <time>2003-04-20T19:35:45Z</time>
      </trkpt>
      <trkpt lat="38.360758032649755" lon="-3.52424000389874">
        <ele>593</ele>
        <time>2003-04-20T19:35:51Z</time>
      </trkpt>
      <trkpt lat="38.361179977655411" lon="-3.523527039214969">
        <ele>590.20000000000005</ele>
        <time>2003-04-20T19:35:55Z</time>
      </trkpt>
      <trkpt lat="38.361300006508827" lon="-3.523408016189933">
        <ele>589.79999999999995</ele>
        <time>2003-04-20T19:35:56Z</time>
      </trkpt>
      <trkpt lat="38.361447025090456" lon="-3.52333702147007">
        <ele>589.79999999999995</ele>
        <time>2003-04-20T19:35:56Z</time>
      </trkpt>
      <trkpt lat="38.361602006480098" lon="-3.523289998993278">
        <ele>589.60000000000002</ele>
        <time>2003-04-20T19:35:57Z</time>
      </trkpt>
      <trkpt lat="38.362293010577559" lon="-3.523057987913489">
        <ele>590</ele>
        <time>2003-04-20T19:36:01Z</time>
      </trkpt>
      <trkpt lat="38.363302024081349" lon="-3.522712988778949">
        <ele>591.20000000000005</ele>
        <time>2003-04-20T19:36:07Z</time>
      </trkpt>
      <trkpt lat="38.364354958757758" lon="-3.522345023229718">
        <ele>593.89999999999998</ele>
        <time>2003-04-20T19:36:12Z</time>
      </trkpt>
      <trkpt lat="38.365236986428499" lon="-3.522036988288164">
        <ele>594.89999999999998</ele>
        <time>2003-04-20T19:36:16Z</time>
      </trkpt>
      <trkpt lat="38.366144997999072" lon="-3.521721996366978">
        <ele>594.79999999999995</ele>
        <time>2003-04-20T19:36:19Z</time>
      </trkpt>
      <trkpt lat="38.367016967386007" lon="-3.521412033587694">
        <ele>592.79999999999995</ele>
        <time>2003-04-20T19:36:23Z</time>
      </trkpt>
      <trkpt lat="38.367340005934238" lon="-3.521216986700892">
        <ele>591.89999999999998</ele>
        <time>2003-04-20T19:36:26Z</time>
      </trkpt>
      <trkpt lat="38.367487024515867" lon="-3.521068040281534">
        <ele>591.5</ele>
        <time>2003-04-20T19:36:27Z</time>
      </trkpt>
      <trkpt lat="38.367618033662438" lon="-3.520882967859507">
        <ele>591.10000000000002</ele>
        <time>2003-04-20T19:36:27Z</time>
      </trkpt>
      <trkpt lat="38.36831197142601" lon="-3.519873032346368">
        <ele>587.60000000000002</ele>
        <time>2003-04-20T19:36:32Z</time>
      </trkpt>
      <trkpt lat="38.368938015773892" lon="-3.518974995240569">
        <ele>585.39999999999998</ele>
        <time>2003-04-20T19:36:36Z</time>
      </trkpt>
      <trkpt lat="38.369603035971522" lon="-3.518003029748797">
        <ele>583.70000000000005</ele>
        <time>2003-04-20T19:36:41Z</time>
      </trkpt>
      <trkpt lat="38.370308037847281" lon="-3.516986975446343">
        <ele>582.10000000000002</ele>
        <time>2003-04-20T19:36:45Z</time>
      </trkpt>
      <trkpt lat="38.371025025844574" lon="-3.515964969992638">
        <ele>579.5</ele>
        <time>2003-04-20T19:36:49Z</time>
      </trkpt>
      <trkpt lat="38.37161997333169" lon="-3.514889990910888">
        <ele>576.70000000000005</ele>
        <time>2003-04-20T19:36:54Z</time>
      </trkpt>
      <trkpt lat="38.371930019930005" lon="-3.513960018754005">
        <ele>575.89999999999998</ele>
        <time>2003-04-20T19:36:55Z</time>
      </trkpt>
      <trkpt lat="38.372097993269563" lon="-3.51296198554337">
        <ele>574.60000000000002</ele>
        <time>2003-04-20T19:36:58Z</time>
      </trkpt>
      <trkpt lat="38.372166976332664" lon="-3.511587018147111">
        <ele>573.39999999999998</ele>
        <time>2003-04-20T19:37:02Z</time>
      </trkpt>
      <trkpt lat="38.372287005186081" lon="-3.510613040998578">
        <ele>573</ele>
        <time>2003-04-20T19:37:06Z</time>
      </trkpt>
      <trkpt lat="38.372503006830812" lon="-3.51003997027874">
        <ele>573</ele>
        <time>2003-04-20T19:37:09Z</time>
      </trkpt>
      <trkpt lat="38.372816992923617" lon="-3.509547030553222">
        <ele>573.29999999999995</ele>
        <time>2003-04-20T19:37:10Z</time>
      </trkpt>
      <trkpt lat="38.373204991221428" lon="-3.509151991456747">
        <ele>573.70000000000005</ele>
        <time>2003-04-20T19:37:13Z</time>
      </trkpt>
      <trkpt lat="38.373653003945947" lon="-3.508876981213689">
        <ele>574</ele>
        <time>2003-04-20T19:37:14Z</time>
      </trkpt>
      <trkpt lat="38.374142004176974" lon="-3.508732980117202">
        <ele>574.10000000000002</ele>
        <time>2003-04-20T19:37:17Z</time>
      </trkpt>
      <trkpt lat="38.374641984701157" lon="-3.508728034794331">
        <ele>574.60000000000002</ele>
        <time>2003-04-20T19:37:18Z</time>
      </trkpt>
      <trkpt lat="38.375132996588945" lon="-3.508853008970618">
        <ele>575</ele>
        <time>2003-04-20T19:37:21Z</time>
      </trkpt>
      <trkpt lat="38.375597018748522" lon="-3.509104968979955">
        <ele>575.60000000000002</ele>
        <time>2003-04-20T19:37:22Z</time>
      </trkpt>
      <trkpt lat="38.376022987067699" lon="-3.509449968114495">
        <ele>576.20000000000005</ele>
        <time>2003-04-20T19:37:25Z</time>
      </trkpt>
      <trkpt lat="38.376869978383183" lon="-3.510186988860369">
        <ele>577.20000000000005</ele>
        <time>2003-04-20T19:37:29Z</time>
      </trkpt>
      <trkpt lat="38.37778695859015" lon="-3.510829964652658">
        <ele>577.79999999999995</ele>
        <time>2003-04-20T19:37:32Z</time>
      </trkpt>
      <trkpt lat="38.378290040418506" lon="-3.511057030409575">
        <ele>578.5</ele>
        <time>2003-04-20T19:37:35Z</time>
      </trkpt>
      <trkpt lat="38.3788170106709" lon="-3.511189967393875">
        <ele>579.10000000000002</ele>
        <time>2003-04-20T19:37:37Z</time>
      </trkpt>
      <trkpt lat="38.379357978701591" lon="-3.511217040941119">
        <ele>579.89999999999998</ele>
        <time>2003-04-20T19:37:39Z</time>
      </trkpt>
      <trkpt lat="38.379627959802747" lon="-3.511194996535778">
        <ele>580.39999999999998</ele>
        <time>2003-04-20T19:37:40Z</time>
      </trkpt>
      <trkpt lat="38.380147973075509" lon="-3.511052001267672">
        <ele>581.10000000000002</ele>
        <time>2003-04-20T19:37:41Z</time>
      </trkpt>
      <trkpt lat="38.380618030205369" lon="-3.510823007673025">
        <ele>581.39999999999998</ele>
        <time>2003-04-20T19:37:44Z</time>
      </trkpt>
      <trkpt lat="38.38107299990952" lon="-3.510535005480051">
        <ele>581.60000000000002</ele>
        <time>2003-04-20T19:37:45Z</time>
      </trkpt>
      <trkpt lat="38.381472984328866" lon="-3.510126974433661">
        <ele>581.89999999999998</ele>
        <time>2003-04-20T19:37:48Z</time>
      </trkpt>
      <trkpt lat="38.381829969584942" lon="-3.509651971980929">
        <ele>582</ele>
        <time>2003-04-20T19:37:49Z</time>
      </trkpt>
      <trkpt lat="38.382468000054359" lon="-3.508674977347255">
        <ele>583.5</ele>
        <time>2003-04-20T19:37:53Z</time>
      </trkpt>
      <trkpt lat="38.382982984185219" lon="-3.5080820415169">
        <ele>584.89999999999998</ele>
        <time>2003-04-20T19:37:56Z</time>
      </trkpt>
      <trkpt lat="38.383384980261326" lon="-3.507820023223758">
        <ele>585.89999999999998</ele>
        <time>2003-04-20T19:37:59Z</time>
      </trkpt>
      <trkpt lat="38.383605005219579" lon="-3.507747016847134">
        <ele>586.5</ele>
        <time>2003-04-20T19:38:00Z</time>
      </trkpt>
      <trkpt lat="38.38405704125762" lon="-3.507679961621761">
        <ele>587.79999999999995</ele>
        <time>2003-04-20T19:38:02Z</time>
      </trkpt>
      <trkpt lat="38.384283017367125" lon="-3.507682979106903">
        <ele>588.70000000000005</ele>
        <time>2003-04-20T19:38:03Z</time>
      </trkpt>
      <trkpt lat="38.384732035920024" lon="-3.507769983261824">
        <ele>590.5</ele>
        <time>2003-04-20T19:38:04Z</time>
      </trkpt>
      <trkpt lat="38.385590007528663" lon="-3.507866961881518">
        <ele>594.29999999999995</ele>
        <time>2003-04-20T19:38:08Z</time>
      </trkpt>
      <trkpt lat="38.385793017223477" lon="-3.507807031273842">
        <ele>594.5</ele>
        <time>2003-04-20T19:38:10Z</time>
      </trkpt>
      <trkpt lat="38.386191995814443" lon="-3.507637968286872">
        <ele>596.60000000000002</ele>
        <time>2003-04-20T19:38:11Z</time>
      </trkpt>
      <trkpt lat="38.386732963845134" lon="-3.507234966382384">
        <ele>599.29999999999995</ele>
        <time>2003-04-20T19:38:15Z</time>
      </trkpt>
      <trkpt lat="38.387663019821048" lon="-3.506582016125321">
        <ele>603.70000000000005</ele>
        <time>2003-04-20T19:38:19Z</time>
      </trkpt>
      <trkpt lat="38.388610007241368" lon="-3.505962006747723">
        <ele>606.39999999999998</ele>
        <time>2003-04-20T19:38:24Z</time>
      </trkpt>
      <trkpt lat="38.389556994661689" lon="-3.505343003198504">
        <ele>607.29999999999995</ele>
        <time>2003-04-20T19:38:30Z</time>
      </trkpt>
      <trkpt lat="38.390502976253629" lon="-3.504722993820906">
        <ele>607.5</ele>
        <time>2003-04-20T19:38:34Z</time>
      </trkpt>
      <trkpt lat="38.391449963673949" lon="-3.504104996100068">
        <ele>607.60000000000002</ele>
        <time>2003-04-20T19:38:39Z</time>
      </trkpt>
      <trkpt lat="38.392075002193451" lon="-3.503944985568523">
        <ele>607.60000000000002</ele>
        <time>2003-04-20T19:38:42Z</time>
      </trkpt>
      <trkpt lat="38.393240002915263" lon="-3.506283033639193">
        <ele>607.39999999999998</ele>
        <time>2003-04-20T19:38:45Z</time>
      </trkpt>
      <trkpt lat="38.393398001790047" lon="-3.506350005045533">
        <ele>610.10000000000002</ele>
        <time>2003-04-20T19:38:46Z</time>
      </trkpt>
      <trkpt lat="38.393624983727932" lon="-3.506346987560391">
        <ele>610.10000000000002</ele>
        <time>2003-04-20T19:38:46Z</time>
      </trkpt>
      <trkpt lat="38.393862023949623" lon="-3.506297031417489">
        <ele>611</ele>
        <time>2003-04-20T19:38:47Z</time>
      </trkpt>
      <trkpt lat="38.39478000998497" lon="-3.506101984530687">
        <ele>616.10000000000002</ele>
        <time>2003-04-20T19:38:51Z</time>
      </trkpt>
      <trkpt lat="38.395662037655711" lon="-3.505757991224527">
        <ele>621.29999999999995</ele>
        <time>2003-04-20T19:38:56Z</time>
      </trkpt>
      <trkpt lat="38.396505005657673" lon="-3.505275025963783">
        <ele>626.20000000000005</ele>
        <time>2003-04-20T19:39:00Z</time>
      </trkpt>
      <trkpt lat="38.397330036386847" lon="-3.50471000187099">
        <ele>630.39999999999998</ele>
        <time>2003-04-20T19:39:04Z</time>
      </trkpt>
      <trkpt lat="38.398118019104004" lon="-3.504037018865347">
        <ele>634.70000000000005</ele>
        <time>2003-04-20T19:39:08Z</time>
      </trkpt>
      <trkpt lat="38.398856967687607" lon="-3.503264961764216">
        <ele>639.5</ele>
        <time>2003-04-20T19:39:12Z</time>
      </trkpt>
      <trkpt lat="38.399502038955688" lon="-3.50236801430583">
        <ele>644.79999999999995</ele>
        <time>2003-04-20T19:39:16Z</time>
      </trkpt>
      <trkpt lat="38.400090029463172" lon="-3.501407029107213">
        <ele>649.10000000000002</ele>
        <time>2003-04-20T19:39:20Z</time>
      </trkpt>
      <trkpt lat="38.40070802718401" lon="-3.500468004494906">
        <ele>652.89999999999998</ele>
        <time>2003-04-20T19:39:24Z</time>
      </trkpt>
      <trkpt lat="38.401086973026395" lon="-3.500077994540334">
        <ele>654.60000000000002</ele>
        <time>2003-04-20T19:39:25Z</time>
      </trkpt>
      <trkpt lat="38.401512019336224" lon="-3.49976803176105">
        <ele>656.20000000000005</ele>
        <time>2003-04-20T19:39:28Z</time>
      </trkpt>
      <trkpt lat="38.401972018182278" lon="-3.499542977660894">
        <ele>657.79999999999995</ele>
        <time>2003-04-20T19:39:29Z</time>
      </trkpt>
      <trkpt lat="38.402697974815965" lon="-3.499335022643209">
        <ele>660.29999999999995</ele>
        <time>2003-04-20T19:39:32Z</time>
      </trkpt>
      <trkpt lat="38.403706988319755" lon="-3.499227985739708">
        <ele>662.89999999999998</ele>
        <time>2003-04-20T19:39:36Z</time>
      </trkpt>
      <trkpt lat="38.404218032956123" lon="-3.49921197630465">
        <ele>663.79999999999995</ele>
        <time>2003-04-20T19:39:39Z</time>
      </trkpt>
      <trkpt lat="38.404475022107363" lon="-3.499209964647889">
        <ele>664.10000000000002</ele>
        <time>2003-04-20T19:39:40Z</time>
      </trkpt>
      <trkpt lat="38.405514964833856" lon="-3.499202001839876">
        <ele>664.70000000000005</ele>
        <time>2003-04-20T19:39:44Z</time>
      </trkpt>
      <trkpt lat="38.406034978106618" lon="-3.499278025701642">
        <ele>664.89999999999998</ele>
        <time>2003-04-20T19:39:45Z</time>
      </trkpt>
      <trkpt lat="38.407111968845129" lon="-3.499514982104302">
        <ele>665.29999999999995</ele>
        <time>2003-04-20T19:39:50Z</time>
      </trkpt>
      <trkpt lat="38.407668024301529" lon="-3.499501990154386">
        <ele>665.39999999999998</ele>
        <time>2003-04-20T19:39:52Z</time>
      </trkpt>
      <trkpt lat="38.40848702006042" lon="-3.499312978237867">
        <ele>665.29999999999995</ele>
        <time>2003-04-20T19:39:55Z</time>
      </trkpt>
      <trkpt lat="38.409248013049364" lon="-3.498964961618185">
        <ele>665.20000000000005</ele>
        <time>2003-04-20T19:39:58Z</time>
      </trkpt>
      <trkpt lat="38.410189971327782" lon="-3.49833196029067">
        <ele>665</ele>
        <time>2003-04-20T19:40:02Z</time>
      </trkpt>
      <trkpt lat="38.41083001345396" lon="-3.497695019468665">
        <ele>664.20000000000005</ele>
        <time>2003-04-20T19:40:04Z</time>
      </trkpt>
      <trkpt lat="38.411181969568133" lon="-3.497175006195903">
        <ele>665</ele>
        <time>2003-04-20T19:40:07Z</time>
      </trkpt>
      <trkpt lat="38.411492016166449" lon="-3.496790025383234">
        <ele>666.5</ele>
        <time>2003-04-20T19:40:08Z</time>
      </trkpt>
      <trkpt lat="38.411822011694312" lon="-3.49654502235353">
        <ele>667.79999999999995</ele>
        <time>2003-04-20T19:40:11Z</time>
      </trkpt>
      <trkpt lat="38.412012029439211" lon="-3.496462041512132">
        <ele>668.29999999999995</ele>
        <time>2003-04-20T19:40:11Z</time>
      </trkpt>
      <trkpt lat="38.412216966971755" lon="-3.496418036520481">
        <ele>668.60000000000002</ele>
        <time>2003-04-20T19:40:12Z</time>
      </trkpt>
      <trkpt lat="38.412867989391088" lon="-3.496383000165224">
        <ele>668.60000000000002</ele>
        <time>2003-04-20T19:40:15Z</time>
      </trkpt>
      <trkpt lat="38.413822017610073" lon="-3.496457012370229">
        <ele>668</ele>
        <time>2003-04-20T19:40:19Z</time>
      </trkpt>
      <trkpt lat="38.414760036394" lon="-3.496506968513131">
        <ele>669.60000000000002</ele>
        <time>2003-04-20T19:40:23Z</time>
      </trkpt>
      <trkpt lat="38.415560005232692" lon="-3.496667984873056">
        <ele>670.39999999999998</ele>
        <time>2003-04-20T19:40:27Z</time>
      </trkpt>
      <trkpt lat="38.415954960510135" lon="-3.496879963204265">
        <ele>670.5</ele>
        <time>2003-04-20T19:40:30Z</time>
      </trkpt>
      <trkpt lat="38.416924998164177" lon="-3.497601980343461">
        <ele>670.29999999999995</ele>
        <time>2003-04-20T19:40:34Z</time>
      </trkpt>
      <trkpt lat="38.417782969772816" lon="-3.498294996097684">
        <ele>672</ele>
        <time>2003-04-20T19:40:39Z</time>
      </trkpt>
      <trkpt lat="38.417908027768135" lon="-3.49845802411437">
        <ele>672.39999999999998</ele>
        <time>2003-04-20T19:40:41Z</time>
      </trkpt>
      <trkpt lat="38.418125035241246" lon="-3.4988450165838">
        <ele>672</ele>
        <time>2003-04-20T19:40:42Z</time>
      </trkpt>
      <trkpt lat="38.41828303411603" lon="-3.49929797463119">
        <ele>672.39999999999998</ele>
        <time>2003-04-20T19:40:45Z</time>
      </trkpt>
      <trkpt lat="38.418470034375787" lon="-3.499752022325993">
        <ele>672.70000000000005</ele>
        <time>2003-04-20T19:40:48Z</time>
      </trkpt>
      <trkpt lat="38.418712019920349" lon="-3.500172961503267">
        <ele>672.79999999999995</ele>
        <time>2003-04-20T19:40:49Z</time>
      </trkpt>
      <trkpt lat="38.419052995741367" lon="-3.500479990616441">
        <ele>673.20000000000005</ele>
        <time>2003-04-20T19:40:50Z</time>
      </trkpt>
      <trkpt lat="38.41925198212266" lon="-3.500581998378038">
        <ele>673.70000000000005</ele>
        <time>2003-04-20T19:40:52Z</time>
      </trkpt>
      <trkpt lat="38.419454991817474" lon="-3.500637989491224">
        <ele>674.10000000000002</ele>
        <time>2003-04-20T19:40:53Z</time>
      </trkpt>
      <trkpt lat="38.419863022863865" lon="-3.500675037503243">
        <ele>674.5</ele>
        <time>2003-04-20T19:40:54Z</time>
      </trkpt>
      <trkpt lat="38.420063015073538" lon="-3.500646958127618">
        <ele>674.79999999999995</ele>
        <time>2003-04-20T19:40:56Z</time>
      </trkpt>
      <trkpt lat="38.420465011149645" lon="-3.500517960637808">
        <ele>675</ele>
        <time>2003-04-20T19:40:57Z</time>
      </trkpt>
      <trkpt lat="38.421062976121902" lon="-3.500182013958693">
        <ele>674.60000000000002</ele>
        <time>2003-04-20T19:41:01Z</time>
      </trkpt>
      <trkpt lat="38.421452986076474" lon="-3.499872973188758">
        <ele>675</ele>
        <time>2003-04-20T19:41:02Z</time>
      </trkpt>
      <trkpt lat="38.422233005985618" lon="-3.499193033203483">
        <ele>677.79999999999995</ele>
        <time>2003-04-20T19:41:06Z</time>
      </trkpt>
      <trkpt lat="38.422872964292765" lon="-3.498800005763769">
        <ele>681.29999999999995</ele>
        <time>2003-04-20T19:41:09Z</time>
      </trkpt>
      <trkpt lat="38.423573020845652" lon="-3.498545028269291">
        <ele>684</ele>
        <time>2003-04-20T19:41:13Z</time>
      </trkpt>
      <trkpt lat="38.424312975257635" lon="-3.49843799136579">
        <ele>687.29999999999995</ele>
        <time>2003-04-20T19:41:16Z</time>
      </trkpt>
      <trkpt lat="38.424814967438579" lon="-3.498445032164455">
        <ele>689.79999999999995</ele>
        <time>2003-04-20T19:41:17Z</time>
      </trkpt>
      <trkpt lat="38.425832027569413" lon="-3.498485013842583">
        <ele>694.79999999999995</ele>
        <time>2003-04-20T19:41:21Z</time>
      </trkpt>
      <trkpt lat="38.426088010892272" lon="-3.498483002185822">
        <ele>696.20000000000005</ele>
        <time>2003-04-20T19:41:23Z</time>
      </trkpt>
      <trkpt lat="38.427123008295894" lon="-3.498417036607862">
        <ele>701.20000000000005</ele>
        <time>2003-04-20T19:41:27Z</time>
      </trkpt>
      <trkpt lat="38.428162029013038" lon="-3.498146971687675">
        <ele>704.89999999999998</ele>
        <time>2003-04-20T19:41:31Z</time>
      </trkpt>
      <trkpt lat="38.429214963689446" lon="-3.497842960059643">
        <ele>705.60000000000002</ele>
        <time>2003-04-20T19:41:35Z</time>
      </trkpt>
      <trkpt lat="38.430321961641312" lon="-3.49753500893712">
        <ele>704</ele>
        <time>2003-04-20T19:41:39Z</time>
      </trkpt>
      <trkpt lat="38.431489979848266" lon="-3.497195038944483">
        <ele>702.10000000000002</ele>
        <time>2003-04-20T19:41:43Z</time>
      </trkpt>
      <trkpt lat="38.432394973933697" lon="-3.496912987902761">
        <ele>700.39999999999998</ele>
        <time>2003-04-20T19:41:46Z</time>
      </trkpt>
      <trkpt lat="38.433316983282566" lon="-3.496648035943508">
        <ele>699.29999999999995</ele>
        <time>2003-04-20T19:41:48Z</time>
      </trkpt>
      <trkpt lat="38.434475027024746" lon="-3.496439997106791">
        <ele>700.89999999999998</ele>
        <time>2003-04-20T19:41:52Z</time>
      </trkpt>
      <trkpt lat="38.435042984783649" lon="-3.496437985450029">
        <ele>701.10000000000002</ele>
        <time>2003-04-20T19:41:55Z</time>
      </trkpt>
      <trkpt lat="38.436140008270741" lon="-3.496521972119808">
        <ele>700</ele>
        <time>2003-04-20T19:41:59Z</time>
      </trkpt>
      <trkpt lat="38.437242982909083" lon="-3.496630014851689">
        <ele>696.39999999999998</ele>
        <time>2003-04-20T19:42:03Z</time>
      </trkpt>
      <trkpt lat="38.438389962539077" lon="-3.496735040098429">
        <ele>692.20000000000005</ele>
        <time>2003-04-20T19:42:07Z</time>
      </trkpt>
      <trkpt lat="38.438972001895308" lon="-3.496724981814623">
        <ele>691.29999999999995</ele>
        <time>2003-04-20T19:42:09Z</time>
      </trkpt>
      <trkpt lat="38.440152006223798" lon="-3.496509985998273">
        <ele>691.20000000000005</ele>
        <time>2003-04-20T19:42:13Z</time>
      </trkpt>
      <trkpt lat="38.441309966146946" lon="-3.496198011562228">
        <ele>692.89999999999998</ele>
        <time>2003-04-20T19:42:17Z</time>
      </trkpt>
      <trkpt lat="38.442187970504165" lon="-3.496122993528843">
        <ele>694</ele>
        <time>2003-04-20T19:42:19Z</time>
      </trkpt>
      <trkpt lat="38.442483013495803" lon="-3.496146965771914">
        <ele>694.29999999999995</ele>
        <time>2003-04-20T19:42:21Z</time>
      </trkpt>
      <trkpt lat="38.443063041195273" lon="-3.496283004060388">
        <ele>695</ele>
        <time>2003-04-20T19:42:22Z</time>
      </trkpt>
      <trkpt lat="38.444208009168506" lon="-3.496648035943508">
        <ele>696.39999999999998</ele>
        <time>2003-04-20T19:42:26Z</time>
      </trkpt>
      <trkpt lat="38.445367980748415" lon="-3.496899995952845">
        <ele>697.39999999999998</ele>
        <time>2003-04-20T19:42:30Z</time>
      </trkpt>
      <trkpt lat="38.446523007005453" lon="-3.496937965974212">
        <ele>699.5</ele>
        <time>2003-04-20T19:42:34Z</time>
      </trkpt>
      <trkpt lat="38.447651965543628" lon="-3.496903013437986">
        <ele>701.10000000000002</ele>
        <time>2003-04-20T19:42:38Z</time>
      </trkpt>
      <trkpt lat="38.448725016787648" lon="-3.496872000396252">
        <ele>702.10000000000002</ele>
        <time>2003-04-20T19:42:42Z</time>
      </trkpt>
      <trkpt lat="38.449799995869398" lon="-3.496866971254349">
        <ele>703.20000000000005</ele>
        <time>2003-04-20T19:42:46Z</time>
      </trkpt>
      <trkpt lat="38.450069976970553" lon="-3.496869988739491">
        <ele>703.60000000000002</ele>
        <time>2003-04-20T19:42:48Z</time>
      </trkpt>
      <trkpt lat="38.451161971315742" lon="-3.496907036751509">
        <ele>706.70000000000005</ele>
        <time>2003-04-20T19:42:52Z</time>
      </trkpt>
      <trkpt lat="38.452235022559762" lon="-3.497014995664358">
        <ele>712.39999999999998</ele>
        <time>2003-04-20T19:42:56Z</time>
      </trkpt>
      <trkpt lat="38.453267002478242" lon="-3.497278019785881">
        <ele>718.60000000000002</ele>
        <time>2003-04-20T19:43:00Z</time>
      </trkpt>
      <trkpt lat="38.454256989061832" lon="-3.497653026133776">
        <ele>724.29999999999995</ele>
        <time>2003-04-20T19:43:04Z</time>
      </trkpt>
      <trkpt lat="38.455215040594339" lon="-3.498080000281334">
        <ele>730.10000000000002</ele>
        <time>2003-04-20T19:43:08Z</time>
      </trkpt>
      <trkpt lat="38.456147024407983" lon="-3.498517032712698">
        <ele>735.5</ele>
        <time>2003-04-20T19:43:12Z</time>
      </trkpt>
      <trkpt lat="38.457078002393246" lon="-3.498972002416849">
        <ele>739.89999999999998</ele>
        <time>2003-04-20T19:43:16Z</time>
      </trkpt>
      <trkpt lat="38.458051979541779" lon="-3.499433007091284">
        <ele>743.20000000000005</ele>
        <time>2003-04-20T19:43:20Z</time>
      </trkpt>
      <trkpt lat="38.459050012752414" lon="-3.499907003715634">
        <ele>745.29999999999995</ele>
        <time>2003-04-20T19:43:24Z</time>
      </trkpt>
      <trkpt lat="38.460060032084584" lon="-3.500373037531972">
        <ele>749</ele>
        <time>2003-04-20T19:43:28Z</time>
      </trkpt>
      <trkpt lat="38.461056975647807" lon="-3.500852985307574">
        <ele>754</ele>
        <time>2003-04-20T19:43:31Z</time>
      </trkpt>
      <trkpt lat="38.462040005251765" lon="-3.501329999417067">
        <ele>759.5</ele>
        <time>2003-04-20T19:43:35Z</time>
      </trkpt>
      <trkpt lat="38.463014988228679" lon="-3.501786980777979">
        <ele>764.60000000000002</ele>
        <time>2003-04-20T19:43:39Z</time>
      </trkpt>
      <trkpt lat="38.46402701921761" lon="-3.502146983519197">
        <ele>767.5</ele>
        <time>2003-04-20T19:43:43Z</time>
      </trkpt>
      <trkpt lat="38.464821958914399" lon="-3.502216972410679">
        <ele>769.29999999999995</ele>
        <time>2003-04-20T19:43:47Z</time>
      </trkpt>
      <trkpt lat="38.465090012177825" lon="-3.502206997945905">
        <ele>769.5</ele>
        <time>2003-04-20T19:43:47Z</time>
      </trkpt>
      <trkpt lat="38.466172032058239" lon="-3.502093004062772">
        <ele>770.60000000000002</ele>
        <time>2003-04-20T19:43:51Z</time>
      </trkpt>
      <trkpt lat="38.467275006696582" lon="-3.501995019614697">
        <ele>772</ele>
        <time>2003-04-20T19:43:55Z</time>
      </trkpt>
      <trkpt lat="38.467817986384034" lon="-3.501986972987652">
        <ele>773</ele>
        <time>2003-04-20T19:43:58Z</time>
      </trkpt>
      <trkpt lat="38.468342022970319" lon="-3.502068025991321">
        <ele>773.29999999999995</ele>
        <time>2003-04-20T19:43:59Z</time>
      </trkpt>
      <trkpt lat="38.469407027587295" lon="-3.502372959628701">
        <ele>774.39999999999998</ele>
        <time>2003-04-20T19:44:03Z</time>
      </trkpt>
      <trkpt lat="38.470507990568876" lon="-3.502642018720508">
        <ele>775.89999999999998</ele>
        <time>2003-04-20T19:44:07Z</time>
      </trkpt>
      <trkpt lat="38.47163200378418" lon="-3.502891967073083">
        <ele>778.29999999999995</ele>
        <time>2003-04-20T19:44:11Z</time>
      </trkpt>
      <trkpt lat="38.472760040313005" lon="-3.503182986751199">
        <ele>781.29999999999995</ele>
        <time>2003-04-20T19:44:15Z</time>
      </trkpt>
      <trkpt lat="38.473896961659193" lon="-3.503469983115792">
        <ele>785</ele>
        <time>2003-04-20T19:44:20Z</time>
      </trkpt>
      <trkpt lat="38.475030027329922" lon="-3.503790004178882">
        <ele>785.60000000000002</ele>
        <time>2003-04-20T19:44:24Z</time>
      </trkpt>
      <trkpt lat="38.476184969767928" lon="-3.504080018028617">
        <ele>784.20000000000005</ele>
        <time>2003-04-20T19:44:28Z</time>
      </trkpt>
      <trkpt lat="38.477347958832979" lon="-3.504170039668679">
        <ele>779.60000000000002</ele>
        <time>2003-04-20T19:44:32Z</time>
      </trkpt>
      <trkpt lat="38.477641995996237" lon="-3.504167022183538">
        <ele>778.20000000000005</ele>
        <time>2003-04-20T19:44:33Z</time>
      </trkpt>
      <trkpt lat="38.478514971211553" lon="-3.504053028300405">
        <ele>774.29999999999995</ele>
        <time>2003-04-20T19:44:36Z</time>
      </trkpt>
      <trkpt lat="38.479677960276604" lon="-3.503665030002594">
        <ele>769.29999999999995</ele>
        <time>2003-04-20T19:44:40Z</time>
      </trkpt>
      <trkpt lat="38.480542972683907" lon="-3.503203019499779">
        <ele>766</ele>
        <time>2003-04-20T19:44:42Z</time>
      </trkpt>
      <trkpt lat="38.481394993141294" lon="-3.502651993185282">
        <ele>765.20000000000005</ele>
        <time>2003-04-20T19:44:45Z</time>
      </trkpt>
      <trkpt lat="38.482227986678481" lon="-3.502072971314192">
        <ele>768.29999999999995</ele>
        <time>2003-04-20T19:44:49Z</time>
      </trkpt>
      <trkpt lat="38.483231971040368" lon="-3.501418009400368">
        <ele>772.20000000000005</ele>
        <time>2003-04-20T19:44:52Z</time>
      </trkpt>
      <trkpt lat="38.484184993430972" lon="-3.500958010554314">
        <ele>775.10000000000002</ele>
        <time>2003-04-20T19:44:56Z</time>
      </trkpt>
      <trkpt lat="38.484686985611916" lon="-3.50082297809422">
        <ele>775.79999999999995</ele>
        <time>2003-04-20T19:44:59Z</time>
      </trkpt>
      <trkpt lat="38.485736986622214" lon="-3.50069004110992">
        <ele>775.79999999999995</ele>
        <time>2003-04-20T19:45:03Z</time>
      </trkpt>
      <trkpt lat="38.48600797355175" lon="-3.50069297477603">
        <ele>775.89999999999998</ele>
        <time>2003-04-20T19:45:04Z</time>
      </trkpt>
      <trkpt lat="38.486837027594447" lon="-3.500805040821433">
        <ele>775.29999999999995</ele>
        <time>2003-04-20T19:45:07Z</time>
      </trkpt>
      <trkpt lat="38.487961962819099" lon="-3.501135036349297">
        <ele>774.70000000000005</ele>
        <time>2003-04-20T19:45:11Z</time>
      </trkpt>
      <trkpt lat="38.489123024046421" lon="-3.50150995887816">
        <ele>774.29999999999995</ele>
        <time>2003-04-20T19:45:15Z</time>
      </trkpt>
      <trkpt lat="38.490015026181936" lon="-3.501810031011701">
        <ele>774.29999999999995</ele>
        <time>2003-04-20T19:45:18Z</time>
      </trkpt>
      <trkpt lat="38.490926977247" lon="-3.502114964649081">
        <ele>773.60000000000002</ele>
        <time>2003-04-20T19:45:20Z</time>
      </trkpt>
      <trkpt lat="38.491844963282347" lon="-3.502421993762255">
        <ele>773.39999999999998</ele>
        <time>2003-04-20T19:45:23Z</time>
      </trkpt>
      <trkpt lat="38.492763033136725" lon="-3.502724999561906">
        <ele>774.39999999999998</ele>
        <time>2003-04-20T19:45:27Z</time>
      </trkpt>
      <trkpt lat="38.493680013343692" lon="-3.503019958734512">
        <ele>776.79999999999995</ele>
        <time>2003-04-20T19:45:30Z</time>
      </trkpt>
      <trkpt lat="38.494588024914265" lon="-3.503320030868053">
        <ele>779.79999999999995</ele>
        <time>2003-04-20T19:45:32Z</time>
      </trkpt>
      <trkpt lat="38.495499975979328" lon="-3.503581965342164">
        <ele>782.20000000000005</ele>
        <time>2003-04-20T19:45:35Z</time>
      </trkpt>
      <trkpt lat="38.496412010863423" lon="-3.503687996417284">
        <ele>784.20000000000005</ele>
        <time>2003-04-20T19:45:39Z</time>
      </trkpt>
      <trkpt lat="38.496703030541539" lon="-3.503684978932142">
        <ele>784.70000000000005</ele>
        <time>2003-04-20T19:45:39Z</time>
      </trkpt>
      <trkpt lat="38.497578017413616" lon="-3.503527985885739">
        <ele>785.39999999999998</ele>
        <time>2003-04-20T19:45:43Z</time>
      </trkpt>
      <trkpt lat="38.498430037871003" lon="-3.503166977316141">
        <ele>785</ele>
        <time>2003-04-20T19:45:46Z</time>
      </trkpt>
      <trkpt lat="38.499258002266288" lon="-3.502704966813326">
        <ele>784.39999999999998</ele>
        <time>2003-04-20T19:45:49Z</time>
      </trkpt>
      <trkpt lat="38.500076998025179" lon="-3.502197023481131">
        <ele>783.89999999999998</ele>
        <time>2003-04-20T19:45:51Z</time>
      </trkpt>
      <trkpt lat="38.500892976298928" lon="-3.50168002769351">
        <ele>784.20000000000005</ele>
        <time>2003-04-20T19:45:54Z</time>
      </trkpt>
      <trkpt lat="38.501708032563329" lon="-3.501177029684186">
        <ele>785.5</ele>
        <time>2003-04-20T19:45:58Z</time>
      </trkpt>
      <trkpt lat="38.502782005816698" lon="-3.50052198395133">
        <ele>789.5</ele>
        <time>2003-04-20T19:46:02Z</time>
      </trkpt>
      <trkpt lat="38.503827983513474" lon="-3.499883031472564">
        <ele>795</ele>
        <time>2003-04-20T19:46:06Z</time>
      </trkpt>
      <trkpt lat="38.504840014502406" lon="-3.499257992953062">
        <ele>799.89999999999998</ele>
        <time>2003-04-20T19:46:10Z</time>
      </trkpt>
      <trkpt lat="38.505827989429235" lon="-3.498619962483645">
        <ele>804.39999999999998</ele>
        <time>2003-04-20T19:46:13Z</time>
      </trkpt>
      <trkpt lat="38.506759973242879" lon="-3.497891994193196">
        <ele>808.79999999999995</ele>
        <time>2003-04-20T19:46:17Z</time>
      </trkpt>
      <trkpt lat="38.507675025612116" lon="-3.497132007032633">
        <ele>812.39999999999998</ele>
        <time>2003-04-20T19:46:22Z</time>
      </trkpt>
      <trkpt lat="38.508586976677179" lon="-3.496347041800618">
        <ele>815.5</ele>
        <time>2003-04-20T19:46:25Z</time>
      </trkpt>
      <trkpt lat="38.509496999904513" lon="-3.495541960000992">
        <ele>818.70000000000005</ele>
        <time>2003-04-20T19:46:29Z</time>
      </trkpt>
      <trkpt lat="38.510427977889776" lon="-3.494751965627074">
        <ele>821.70000000000005</ele>
        <time>2003-04-20T19:46:33Z</time>
      </trkpt>
      <trkpt lat="38.511383011937141" lon="-3.493942022323608">
        <ele>823</ele>
        <time>2003-04-20T19:46:37Z</time>
      </trkpt>
      <trkpt lat="38.512392025440931" lon="-3.493131995201111">
        <ele>822.29999999999995</ele>
        <time>2003-04-20T19:46:41Z</time>
      </trkpt>
      <trkpt lat="38.513191994279623" lon="-3.492541993036866">
        <ele>820.10000000000002</ele>
        <time>2003-04-20T19:46:44Z</time>
      </trkpt>
      <trkpt lat="38.514034962281585" lon="-3.491997001692653">
        <ele>816.5</ele>
        <time>2003-04-20T19:46:48Z</time>
      </trkpt>
      <trkpt lat="38.514941968023777" lon="-3.491537002846599">
        <ele>812.39999999999998</ele>
        <time>2003-04-20T19:46:51Z</time>
      </trkpt>
      <trkpt lat="38.515872023999691" lon="-3.49115202203393">
        <ele>809.10000000000002</ele>
        <time>2003-04-20T19:46:55Z</time>
      </trkpt>
      <trkpt lat="38.516512988135219" lon="-3.490965021774173">
        <ele>807.5</ele>
        <time>2003-04-20T19:46:56Z</time>
      </trkpt>
      <trkpt lat="38.517491994425654" lon="-3.49078799597919">
        <ele>804.10000000000002</ele>
        <time>2003-04-20T19:46:59Z</time>
      </trkpt>
      <trkpt lat="38.518482986837626" lon="-3.490733010694385">
        <ele>801.29999999999995</ele>
        <time>2003-04-20T19:47:02Z</time>
      </trkpt>
      <trkpt lat="38.518812982365489" lon="-3.490741979330778">
        <ele>800.39999999999998</ele>
        <time>2003-04-20T19:47:04Z</time>
      </trkpt>
      <trkpt lat="38.519813027232885" lon="-3.490839963778853">
        <ele>797.79999999999995</ele>
        <time>2003-04-20T19:47:06Z</time>
      </trkpt>
      <trkpt lat="38.520796978846192" lon="-3.49104699678719">
        <ele>796</ele>
        <time>2003-04-20T19:47:10Z</time>
      </trkpt>
      <trkpt lat="38.521753018721938" lon="-3.491299962624908">
        <ele>794.5</ele>
        <time>2003-04-20T19:47:12Z</time>
      </trkpt>
      <trkpt lat="38.522688020020723" lon="-3.491646973416209">
        <ele>793.89999999999998</ele>
        <time>2003-04-20T19:47:15Z</time>
      </trkpt>
      <trkpt lat="38.52362796664238" lon="-3.491998007521033">
        <ele>793.10000000000002</ele>
        <time>2003-04-20T19:47:19Z</time>
      </trkpt>
      <trkpt lat="38.524575037881732" lon="-3.492354992777109">
        <ele>791.89999999999998</ele>
        <time>2003-04-20T19:47:22Z</time>
      </trkpt>
      <trkpt lat="38.525481959804893" lon="-3.492771992459893">
        <ele>791</ele>
        <time>2003-04-20T19:47:24Z</time>
      </trkpt>
      <trkpt lat="38.526330040767789" lon="-3.493335004895926">
        <ele>789.60000000000002</ele>
        <time>2003-04-20T19:47:27Z</time>
      </trkpt>
      <trkpt lat="38.527149958536029" lon="-3.49392500706017">
        <ele>788.70000000000005</ele>
        <time>2003-04-20T19:47:31Z</time>
      </trkpt>
      <trkpt lat="38.528210017830133" lon="-3.49452699534595">
        <ele>787.39999999999998</ele>
        <time>2003-04-20T19:47:34Z</time>
      </trkpt>
      <trkpt lat="38.528770012781024" lon="-3.494662027806044">
        <ele>786.70000000000005</ele>
        <time>2003-04-20T19:47:37Z</time>
      </trkpt>
      <trkpt lat="38.529339982196689" lon="-3.494643000885844">
        <ele>786</ele>
        <time>2003-04-20T19:47:38Z</time>
      </trkpt>
      <trkpt lat="38.530489979311824" lon="-3.494400009512901">
        <ele>784.29999999999995</ele>
        <time>2003-04-20T19:47:42Z</time>
      </trkpt>
      <trkpt lat="38.531675012782216" lon="-3.494142014533281">
        <ele>783.20000000000005</ele>
        <time>2003-04-20T19:47:46Z</time>
      </trkpt>
      <trkpt lat="38.53258696384728" lon="-3.493970017880201">
        <ele>781.70000000000005</ele>
        <time>2003-04-20T19:47:50Z</time>
      </trkpt>
      <trkpt lat="38.533511990681291" lon="-3.49381797015667">
        <ele>780.60000000000002</ele>
        <time>2003-04-20T19:47:53Z</time>
      </trkpt>
      <trkpt lat="38.534432994201779" lon="-3.493670029565692">
        <ele>779.5</ele>
        <time>2003-04-20T19:47:56Z</time>
      </trkpt>
      <trkpt lat="38.53535701520741" lon="-3.49351697601378">
        <ele>778.5</ele>
        <time>2003-04-20T19:47:58Z</time>
      </trkpt>
      <trkpt lat="38.536281958222389" lon="-3.493363000452519">
        <ele>777.5</ele>
        <time>2003-04-20T19:48:01Z</time>
      </trkpt>
      <trkpt lat="38.537191981449723" lon="-3.49321698769927">
        <ele>776.79999999999995</ele>
        <time>2003-04-20T19:48:05Z</time>
      </trkpt>
      <trkpt lat="38.538362011313438" lon="-3.493010038509965">
        <ele>775.89999999999998</ele>
        <time>2003-04-20T19:48:09Z</time>
      </trkpt>
      <trkpt lat="38.53950496762991" lon="-3.492856984958053">
        <ele>774.70000000000005</ele>
        <time>2003-04-20T19:48:13Z</time>
      </trkpt>
      <trkpt lat="38.541898000985384" lon="-3.492452977225184">
        <ele>776.5</ele>
        <time>2003-04-20T19:48:21Z</time>
      </trkpt>
      <trkpt lat="38.542807018384337" lon="-3.492296990007162">
        <ele>779.79999999999995</ele>
        <time>2003-04-20T19:48:24Z</time>
      </trkpt>
      <trkpt lat="38.54371796362102" lon="-3.492149971425533">
        <ele>781.29999999999995</ele>
        <time>2003-04-20T19:48:27Z</time>
      </trkpt>
      <trkpt lat="38.54463997296989" lon="-3.492000019177795">
        <ele>781.89999999999998</ele>
        <time>2003-04-20T19:48:29Z</time>
      </trkpt>
      <trkpt lat="38.545576985925436" lon="-3.491845037788153">
        <ele>782.20000000000005</ele>
        <time>2003-04-20T19:48:32Z</time>
      </trkpt>
      <trkpt lat="38.546533025801182" lon="-3.491682009771466">
        <ele>780.89999999999998</ele>
        <time>2003-04-20T19:48:36Z</time>
      </trkpt>
      <trkpt lat="38.547528041526675" lon="-3.491527028381825">
        <ele>776.89999999999998</ele>
        <time>2003-04-20T19:48:39Z</time>
      </trkpt>
      <trkpt lat="38.548543006181717" lon="-3.491362994536758">
        <ele>776.60000000000002</ele>
        <time>2003-04-20T19:48:41Z</time>
      </trkpt>
      <trkpt lat="38.549562999978662" lon="-3.491202984005213">
        <ele>777.89999999999998</ele>
        <time>2003-04-20T19:48:44Z</time>
      </trkpt>
      <trkpt lat="38.550582993775606" lon="-3.491026964038611">
        <ele>778.39999999999998</ele>
        <time>2003-04-20T19:48:48Z</time>
      </trkpt>
      <trkpt lat="38.551608016714454" lon="-3.490850022062659">
        <ele>778.79999999999995</ele>
        <time>2003-04-20T19:48:51Z</time>
      </trkpt>
      <trkpt lat="38.552637984976172" lon="-3.490695040673018">
        <ele>778.29999999999995</ele>
        <time>2003-04-20T19:48:54Z</time>
      </trkpt>
      <trkpt lat="38.553662002086639" lon="-3.490532012656331">
        <ele>777.79999999999995</ele>
        <time>2003-04-20T19:48:56Z</time>
      </trkpt>
      <trkpt lat="38.554688030853868" lon="-3.490363033488393">
        <ele>777</ele>
        <time>2003-04-20T19:48:59Z</time>
      </trkpt>
      <trkpt lat="38.555716993287206" lon="-3.490197993814945">
        <ele>776.79999999999995</ele>
        <time>2003-04-20T19:49:03Z</time>
      </trkpt>
      <trkpt lat="38.556746961548924" lon="-3.490030020475388">
        <ele>776.79999999999995</ele>
        <time>2003-04-20T19:49:06Z</time>
      </trkpt>
      <trkpt lat="38.557772990316153" lon="-3.489860035479069">
        <ele>776.79999999999995</ele>
        <time>2003-04-20T19:49:08Z</time>
      </trkpt>
      <trkpt lat="38.558802958577871" lon="-3.489702036604285">
        <ele>776.10000000000002</ele>
        <time>2003-04-20T19:49:11Z</time>
      </trkpt>
      <trkpt lat="38.559837033972144" lon="-3.489522999152541">
        <ele>775.79999999999995</ele>
        <time>2003-04-20T19:49:15Z</time>
      </trkpt>
      <trkpt lat="38.560867002233863" lon="-3.489331975579262">
        <ele>775.60000000000002</ele>
        <time>2003-04-20T19:49:18Z</time>
      </trkpt>
      <trkpt lat="38.561899987980723" lon="-3.489131983369589">
        <ele>775.10000000000002</ele>
        <time>2003-04-20T19:49:21Z</time>
      </trkpt>
      <trkpt lat="38.562938002869487" lon="-3.488932996988297">
        <ele>774.5</ele>
        <time>2003-04-20T19:49:23Z</time>
      </trkpt>
      <trkpt lat="38.563875015825033" lon="-3.488707020878792">
        <ele>774.60000000000002</ele>
        <time>2003-04-20T19:49:26Z</time>
      </trkpt>
      <trkpt lat="38.56438497081399" lon="-3.488481966778636">
        <ele>774.5</ele>
        <time>2003-04-20T19:49:29Z</time>
      </trkpt>
      <trkpt lat="38.565368000417948" lon="-3.487833039835095">
        <ele>775.10000000000002</ele>
        <time>2003-04-20T19:49:33Z</time>
      </trkpt>
      <trkpt lat="38.566363016143441" lon="-3.48715502768755">
        <ele>775.29999999999995</ele>
        <time>2003-04-20T19:49:37Z</time>
      </trkpt>
      <trkpt lat="38.567342022433877" lon="-3.486482966691256">
        <ele>780.20000000000005</ele>
        <time>2003-04-20T19:49:41Z</time>
      </trkpt>
      <trkpt lat="38.568350030109286" lon="-3.485821969807148">
        <ele>777.60000000000002</ele>
        <time>2003-04-20T19:49:45Z</time>
      </trkpt>
      <trkpt lat="38.569474965333939" lon="-3.485297011211515">
        <ele>773.70000000000005</ele>
        <time>2003-04-20T19:49:49Z</time>
      </trkpt>
      <trkpt lat="38.57037702575326" lon="-3.484995011240244">
        <ele>772.70000000000005</ele>
        <time>2003-04-20T19:49:52Z</time>
      </trkpt>
      <trkpt lat="38.571289982646704" lon="-3.484693011268973">
        <ele>773.20000000000005</ele>
        <time>2003-04-20T19:49:54Z</time>
      </trkpt>
      <trkpt lat="38.57220696285367" lon="-3.484395034611225">
        <ele>775</ele>
        <time>2003-04-20T19:49:57Z</time>
      </trkpt>
      <trkpt lat="38.573120003566146" lon="-3.484082976356149">
        <ele>777.29999999999995</ele>
        <time>2003-04-20T19:50:01Z</time>
      </trkpt>
      <trkpt lat="38.574037989601493" lon="-3.483812995254993">
        <ele>779</ele>
        <time>2003-04-20T19:50:04Z</time>
      </trkpt>
      <trkpt lat="38.574967039749026" lon="-3.483603028580546">
        <ele>781.5</ele>
        <time>2003-04-20T19:50:06Z</time>
      </trkpt>
      <trkpt lat="38.575876979157329" lon="-3.483398007228971">
        <ele>786</ele>
        <time>2003-04-20T19:50:09Z</time>
      </trkpt>
      <trkpt lat="38.577047009021044" lon="-3.483100030571222">
        <ele>791.79999999999995</ele>
        <time>2003-04-20T19:50:13Z</time>
      </trkpt>
      <trkpt lat="38.578176973387599" lon="-3.482682025060058">
        <ele>798.39999999999998</ele>
        <time>2003-04-20T19:50:17Z</time>
      </trkpt>
      <trkpt lat="38.579212976619601" lon="-3.482325039803982">
        <ele>804.60000000000002</ele>
        <time>2003-04-20T19:50:21Z</time>
      </trkpt>
      <trkpt lat="38.580164993181825" lon="-3.482147008180618">
        <ele>809.89999999999998</ele>
        <time>2003-04-20T19:50:25Z</time>
      </trkpt>
      <trkpt lat="38.580397004261613" lon="-3.48215295933187">
        <ele>810.70000000000005</ele>
        <time>2003-04-20T19:50:27Z</time>
      </trkpt>
      <trkpt lat="38.581307027488947" lon="-3.482175003737211">
        <ele>813.29999999999995</ele>
        <time>2003-04-20T19:50:31Z</time>
      </trkpt>
      <trkpt lat="38.582231970503926" lon="-3.482014993205667">
        <ele>813.89999999999998</ele>
        <time>2003-04-20T19:50:35Z</time>
      </trkpt>
      <trkpt lat="38.582685012370348" lon="-3.48180502653122">
        <ele>813.79999999999995</ele>
        <time>2003-04-20T19:50:36Z</time>
      </trkpt>
      <trkpt lat="38.583337040618062" lon="-3.481321977451444">
        <ele>812.29999999999995</ele>
        <time>2003-04-20T19:50:40Z</time>
      </trkpt>
      <trkpt lat="38.583731995895505" lon="-3.48088201135397">
        <ele>810.5</ele>
        <time>2003-04-20T19:50:42Z</time>
      </trkpt>
      <trkpt lat="38.584083030000329" lon="-3.480352023616433">
        <ele>808.20000000000005</ele>
        <time>2003-04-20T19:50:43Z</time>
      </trkpt>
      <trkpt lat="38.584717037156224" lon="-3.479145029559732">
        <ele>803.39999999999998</ele>
        <time>2003-04-20T19:50:47Z</time>
      </trkpt>
      <trkpt lat="38.585348026826978" lon="-3.477914985269308">
        <ele>801.5</ele>
        <time>2003-04-20T19:50:51Z</time>
      </trkpt>
      <trkpt lat="38.585972981527448" lon="-3.476721988990903">
        <ele>797.79999999999995</ele>
        <time>2003-04-20T19:50:55Z</time>
      </trkpt>
      <trkpt lat="38.586567007005215" lon="-3.475582972168922">
        <ele>793.60000000000002</ele>
        <time>2003-04-20T19:50:59Z</time>
      </trkpt>
      <trkpt lat="38.587134964764118" lon="-3.474495001137257">
        <ele>790.39999999999998</ele>
        <time>2003-04-20T19:51:03Z</time>
      </trkpt>
      <trkpt lat="38.58773997053504" lon="-3.473497973755002">
        <ele>786.70000000000005</ele>
        <time>2003-04-20T19:51:07Z</time>
      </trkpt>
      <trkpt lat="38.588316980749369" lon="-3.472851980477572">
        <ele>784.20000000000005</ele>
        <time>2003-04-20T19:51:10Z</time>
      </trkpt>
      <trkpt lat="38.58900697901845" lon="-3.47233297303319">
        <ele>782.79999999999995</ele>
        <time>2003-04-20T19:51:14Z</time>
      </trkpt>
      <trkpt lat="38.58952003531158" lon="-3.472083024680615">
        <ele>782.70000000000005</ele>
        <time>2003-04-20T19:51:15Z</time>
      </trkpt>
      <trkpt lat="38.59005999751389" lon="-3.471935000270605">
        <ele>782.70000000000005</ele>
        <time>2003-04-20T19:51:18Z</time>
      </trkpt>
      <trkpt lat="38.590874969959259" lon="-3.47185998223722">
        <ele>782.10000000000002</ele>
        <time>2003-04-20T19:51:21Z</time>
      </trkpt>
      <trkpt lat="38.591147968545556" lon="-3.471874985843897">
        <ele>781.60000000000002</ele>
        <time>2003-04-20T19:51:22Z</time>
      </trkpt>
      <trkpt lat="38.592263013124466" lon="-3.471893006935716">
        <ele>778.79999999999995</ele>
        <time>2003-04-20T19:51:26Z</time>
      </trkpt>
      <trkpt lat="38.593076979741454" lon="-3.471699971705675">
        <ele>777</ele>
        <time>2003-04-20T19:51:29Z</time>
      </trkpt>
      <trkpt lat="38.59416201710701" lon="-3.471297975629568">
        <ele>774.5</ele>
        <time>2003-04-20T19:51:33Z</time>
      </trkpt>
      <trkpt lat="38.595287036150694" lon="-3.470903020352125">
        <ele>771.29999999999995</ele>
        <time>2003-04-20T19:51:37Z</time>
      </trkpt>
      <trkpt lat="38.596409959718585" lon="-3.470509992912412">
        <ele>768.29999999999995</ele>
        <time>2003-04-20T19:51:41Z</time>
      </trkpt>
      <trkpt lat="38.59753699041903" lon="-3.470116965472698">
        <ele>766.60000000000002</ele>
        <time>2003-04-20T19:51:45Z</time>
      </trkpt>
      <trkpt lat="38.598642982542515" lon="-3.469723016023636">
        <ele>765.89999999999998</ele>
        <time>2003-04-20T19:51:49Z</time>
      </trkpt>
      <trkpt lat="38.599745035171509" lon="-3.469335017725825">
        <ele>766</ele>
        <time>2003-04-20T19:51:53Z</time>
      </trkpt>
      <trkpt lat="38.600848009809852" lon="-3.468952970579267">
        <ele>766.70000000000005</ele>
        <time>2003-04-20T19:51:57Z</time>
      </trkpt>
      <trkpt lat="38.601943021640182" lon="-3.468573018908501">
        <ele>770.5</ele>
        <time>2003-04-20T19:52:01Z</time>
      </trkpt>
      <trkpt lat="38.603027975186706" lon="-3.468206981197">
        <ele>773</ele>
        <time>2003-04-20T19:52:04Z</time>
      </trkpt>
      <trkpt lat="38.60410999506712" lon="-3.467847984284163">
        <ele>774.79999999999995</ele>
        <time>2003-04-20T19:52:08Z</time>
      </trkpt>
      <trkpt lat="38.605096964165568" lon="-3.46736996434629">
        <ele>777.29999999999995</ele>
        <time>2003-04-20T19:52:12Z</time>
      </trkpt>
      <trkpt lat="38.60602299682796" lon="-3.46668298356235">
        <ele>778.10000000000002</ele>
        <time>2003-04-20T19:52:16Z</time>
      </trkpt>
      <trkpt lat="38.606933020055294" lon="-3.46597496420145">
        <ele>780.60000000000002</ele>
        <time>2003-04-20T19:52:20Z</time>
      </trkpt>
      <trkpt lat="38.607641961425543" lon="-3.46558797173202">
        <ele>782.5</ele>
        <time>2003-04-20T19:52:24Z</time>
      </trkpt>
      <trkpt lat="38.608394991606474" lon="-3.465378005057573">
        <ele>783.20000000000005</ele>
        <time>2003-04-20T19:52:27Z</time>
      </trkpt>
      <trkpt lat="38.608915004879236" lon="-3.465342968702316">
        <ele>783.60000000000002</ele>
        <time>2003-04-20T19:52:28Z</time>
      </trkpt>
      <trkpt lat="38.609175011515617" lon="-3.465347997844219">
        <ele>783.79999999999995</ele>
        <time>2003-04-20T19:52:30Z</time>
      </trkpt>
      <trkpt lat="38.609701981768012" lon="-3.465423015877605">
        <ele>784.39999999999998</ele>
        <time>2003-04-20T19:52:31Z</time>
      </trkpt>
      <trkpt lat="38.61079003661871" lon="-3.465634994208813">
        <ele>782.60000000000002</ele>
        <time>2003-04-20T19:52:35Z</time>
      </trkpt>
      <trkpt lat="38.611865015700459" lon="-3.465827023610473">
        <ele>777.20000000000005</ele>
        <time>2003-04-20T19:52:39Z</time>
      </trkpt>
      <trkpt lat="38.612692980095744" lon="-3.465840015560389">
        <ele>772.79999999999995</ele>
        <time>2003-04-20T19:52:43Z</time>
      </trkpt>
      <trkpt lat="38.613841971382499" lon="-3.465652009472251">
        <ele>767.79999999999995</ele>
        <time>2003-04-20T19:52:47Z</time>
      </trkpt>
      <trkpt lat="38.614932037889957" lon="-3.465346992015839">
        <ele>761.79999999999995</ele>
        <time>2003-04-20T19:52:51Z</time>
      </trkpt>
      <trkpt lat="38.615418020635843" lon="-3.465016996487975">
        <ele>759.70000000000005</ele>
        <time>2003-04-20T19:52:53Z</time>
      </trkpt>
      <trkpt lat="38.616402978077531" lon="-3.464245023205876">
        <ele>755</ele>
        <time>2003-04-20T19:52:57Z</time>
      </trkpt>
      <trkpt lat="38.61738801933825" lon="-3.463649991899729">
        <ele>752.79999999999995</ele>
        <time>2003-04-20T19:53:01Z</time>
      </trkpt>
      <trkpt lat="38.618152029812336" lon="-3.463372969999909">
        <ele>751.70000000000005</ele>
        <time>2003-04-20T19:53:03Z</time>
      </trkpt>
      <trkpt lat="38.618940012529492" lon="-3.463250007480383">
        <ele>749.89999999999998</ele>
        <time>2003-04-20T19:53:06Z</time>
      </trkpt>
      <trkpt lat="38.619473017752171" lon="-3.463240033015609">
        <ele>749</ele>
        <time>2003-04-20T19:53:09Z</time>
      </trkpt>
      <trkpt lat="38.620571969076991" lon="-3.463337011635304">
        <ele>745.70000000000005</ele>
        <time>2003-04-20T19:53:13Z</time>
      </trkpt>
      <trkpt lat="38.621724983677268" lon="-3.463432984426618">
        <ele>742.89999999999998</ele>
        <time>2003-04-20T19:53:17Z</time>
      </trkpt>
      <trkpt lat="38.622919991612434" lon="-3.463538009673357">
        <ele>740.29999999999995</ele>
        <time>2003-04-20T19:53:21Z</time>
      </trkpt>
      <trkpt lat="38.62383202649653" lon="-3.463617973029614">
        <ele>739.60000000000002</ele>
        <time>2003-04-20T19:53:24Z</time>
      </trkpt>
      <trkpt lat="38.624742971733212" lon="-3.463689973577857">
        <ele>740.79999999999995</ele>
        <time>2003-04-20T19:53:26Z</time>
      </trkpt>
      <trkpt lat="38.625643020495772" lon="-3.463764991611242">
        <ele>743</ele>
        <time>2003-04-20T19:53:29Z</time>
      </trkpt>
      <trkpt lat="38.626822018995881" lon="-3.463864987716079">
        <ele>746.29999999999995</ele>
        <time>2003-04-20T19:53:33Z</time>
      </trkpt>
      <trkpt lat="38.627885011956096" lon="-3.464060034602881">
        <ele>746</ele>
        <time>2003-04-20T19:53:37Z</time>
      </trkpt>
      <trkpt lat="38.62864701077342" lon="-3.464367985725403">
        <ele>744.89999999999998</ele>
        <time>2003-04-20T19:53:41Z</time>
      </trkpt>
      <trkpt lat="38.62963498570025" lon="-3.464969974011183">
        <ele>743.29999999999995</ele>
        <time>2003-04-20T19:53:45Z</time>
      </trkpt>
      <trkpt lat="38.630324983969331" lon="-3.465582020580769">
        <ele>742.5</ele>
        <time>2003-04-20T19:53:48Z</time>
      </trkpt>
      <trkpt lat="38.63122302107513" lon="-3.466497994959354">
        <ele>741.29999999999995</ele>
        <time>2003-04-20T19:53:52Z</time>
      </trkpt>
      <trkpt lat="38.631919976323843" lon="-3.467239961028099">
        <ele>739.89999999999998</ele>
        <time>2003-04-20T19:53:55Z</time>
      </trkpt>
      <trkpt lat="38.632632018998265" lon="-3.468004977330566">
        <ele>738.39999999999998</ele>
        <time>2003-04-20T19:53:57Z</time>
      </trkpt>
      <trkpt lat="38.6333520244807" lon="-3.468775022774935">
        <ele>736.70000000000005</ele>
        <time>2003-04-20T19:54:00Z</time>
      </trkpt>
      <trkpt lat="38.634073035791516" lon="-3.469546996057034">
        <ele>735</ele>
        <time>2003-04-20T19:54:04Z</time>
      </trkpt>
      <trkpt lat="38.63479002378881" lon="-3.470315029844642">
        <ele>733.39999999999998</ele>
        <time>2003-04-20T19:54:07Z</time>
      </trkpt>
      <trkpt lat="38.635512962937355" lon="-3.471093038097024">
        <ele>731.70000000000005</ele>
        <time>2003-04-20T19:54:09Z</time>
      </trkpt>
      <trkpt lat="38.636258030310273" lon="-3.4718800149858">
        <ele>730.20000000000005</ele>
        <time>2003-04-20T19:54:12Z</time>
      </trkpt>
      <trkpt lat="38.637005025520921" lon="-3.472683001309633">
        <ele>730.10000000000002</ele>
        <time>2003-04-20T19:54:16Z</time>
      </trkpt>
      <trkpt lat="38.637747997418046" lon="-3.473503002896905">
        <ele>730.70000000000005</ele>
        <time>2003-04-20T19:54:19Z</time>
      </trkpt>
      <trkpt lat="38.638503039255738" lon="-3.474315041676164">
        <ele>731.29999999999995</ele>
        <time>2003-04-20T19:54:22Z</time>
      </trkpt>
      <trkpt lat="38.639262020587921" lon="-3.475130014121532">
        <ele>731.89999999999998</ele>
        <time>2003-04-20T19:54:24Z</time>
      </trkpt>
      <trkpt lat="38.640025025233626" lon="-3.475933000445366">
        <ele>732.29999999999995</ele>
        <time>2003-04-20T19:54:27Z</time>
      </trkpt>
      <trkpt lat="38.640746958553791" lon="-3.476700028404594">
        <ele>732.70000000000005</ele>
        <time>2003-04-20T19:54:31Z</time>
      </trkpt>
      <trkpt lat="38.64149303175509" lon="-3.477409975603223">
        <ele>731.60000000000002</ele>
        <time>2003-04-20T19:54:34Z</time>
      </trkpt>
      <trkpt lat="38.642319990321994" lon="-3.477937029674649">
        <ele>730.5</ele>
        <time>2003-04-20T19:54:36Z</time>
      </trkpt>
      <trkpt lat="38.643209980800748" lon="-3.478231988847256">
        <ele>729.39999999999998</ele>
        <time>2003-04-20T19:54:39Z</time>
      </trkpt>
      <trkpt lat="38.644105000421405" lon="-3.478331984952092">
        <ele>728.20000000000005</ele>
        <time>2003-04-20T19:54:43Z</time>
      </trkpt>
      <trkpt lat="38.644398031756282" lon="-3.478312036022544">
        <ele>727.70000000000005</ele>
        <time>2003-04-20T19:54:43Z</time>
      </trkpt>
      <trkpt lat="38.645258015021682" lon="-3.478135010227561">
        <ele>726.5</ele>
        <time>2003-04-20T19:54:46Z</time>
      </trkpt>
      <trkpt lat="38.646082039922476" lon="-3.477796968072653">
        <ele>725.29999999999995</ele>
        <time>2003-04-20T19:54:50Z</time>
      </trkpt>
      <trkpt lat="38.646580008789897" lon="-3.477452974766493">
        <ele>724.70000000000005</ele>
        <time>2003-04-20T19:54:51Z</time>
      </trkpt>
      <trkpt lat="38.647260032594204" lon="-3.476791977882385">
        <ele>723.5</ele>
        <time>2003-04-20T19:54:54Z</time>
      </trkpt>
      <trkpt lat="38.647848023101687" lon="-3.476001983508468">
        <ele>722.10000000000002</ele>
        <time>2003-04-20T19:54:58Z</time>
      </trkpt>
      <trkpt lat="38.648338029161096" lon="-3.475126996636391">
        <ele>722</ele>
        <time>2003-04-20T19:55:01Z</time>
      </trkpt>
      <trkpt lat="38.648699959740043" lon="-3.474170034751296">
        <ele>722.70000000000005</ele>
        <time>2003-04-20T19:55:03Z</time>
      </trkpt>
      <trkpt lat="38.649157024919987" lon="-3.472858015447855">
        <ele>723.20000000000005</ele>
        <time>2003-04-20T19:55:08Z</time>
      </trkpt>
      <trkpt lat="38.649632027372718" lon="-3.471535015851259">
        <ele>723.89999999999998</ele>
        <time>2003-04-20T19:55:12Z</time>
      </trkpt>
      <trkpt lat="38.65011197514832" lon="-3.470198018476367">
        <ele>724.39999999999998</ele>
        <time>2003-04-20T19:55:16Z</time>
      </trkpt>
      <trkpt lat="38.650587983429432" lon="-3.468864960595965">
        <ele>725.20000000000005</ele>
        <time>2003-04-20T19:55:20Z</time>
      </trkpt>
      <trkpt lat="38.651043036952615" lon="-3.467593006789684">
        <ele>725.89999999999998</ele>
        <time>2003-04-20T19:55:24Z</time>
      </trkpt>
      <trkpt lat="38.651458024978638" lon="-3.46642498858273">
        <ele>726.5</ele>
        <time>2003-04-20T19:55:28Z</time>
      </trkpt>
      <trkpt lat="38.651909977197647" lon="-3.465256970375776">
        <ele>728.39999999999998</ele>
        <time>2003-04-20T19:55:32Z</time>
      </trkpt>
      <trkpt lat="38.652350027114153" lon="-3.464058022946119">
        <ele>730.89999999999998</ele>
        <time>2003-04-20T19:55:36Z</time>
      </trkpt>
      <trkpt lat="38.652842966839671" lon="-3.462896961718798">
        <ele>734.79999999999995</ele>
        <time>2003-04-20T19:55:40Z</time>
      </trkpt>
      <trkpt lat="38.653427017852664" lon="-3.461807984858751">
        <ele>738.10000000000002</ele>
        <time>2003-04-20T19:55:44Z</time>
      </trkpt>
      <trkpt lat="38.654167978093028" lon="-3.460884969681501">
        <ele>741.10000000000002</ele>
        <time>2003-04-20T19:55:48Z</time>
      </trkpt>
      <trkpt lat="38.655013041570783" lon="-3.460067985579372">
        <ele>743.10000000000002</ele>
        <time>2003-04-20T19:55:52Z</time>
      </trkpt>
      <trkpt lat="38.655952988192439" lon="-3.459364995360375">
        <ele>743.5</ele>
        <time>2003-04-20T19:55:56Z</time>
      </trkpt>
      <trkpt lat="38.656929982826114" lon="-3.458638032898307">
        <ele>742.39999999999998</ele>
        <time>2003-04-20T19:56:00Z</time>
      </trkpt>
      <trkpt lat="38.657958023250103" lon="-3.457869999110699">
        <ele>739.20000000000005</ele>
        <time>2003-04-20T19:56:04Z</time>
      </trkpt>
      <trkpt lat="38.658752962946892" lon="-3.45729298889637">
        <ele>738.20000000000005</ele>
        <time>2003-04-20T19:56:07Z</time>
      </trkpt>
      <trkpt lat="38.659534994512796" lon="-3.456707010045648">
        <ele>738.5</ele>
        <time>2003-04-20T19:56:10Z</time>
      </trkpt>
      <trkpt lat="38.660311996936798" lon="-3.456122037023306">
        <ele>738.89999999999998</ele>
        <time>2003-04-20T19:56:12Z</time>
      </trkpt>
      <trkpt lat="38.661092016845942" lon="-3.455533040687442">
        <ele>738.70000000000005</ele>
        <time>2003-04-20T19:56:15Z</time>
      </trkpt>
      <trkpt lat="38.661864995956421" lon="-3.454932980239391">
        <ele>738.39999999999998</ele>
        <time>2003-04-20T19:56:19Z</time>
      </trkpt>
      <trkpt lat="38.662632023915648" lon="-3.454326968640089">
        <ele>738.79999999999995</ele>
        <time>2003-04-20T19:56:22Z</time>
      </trkpt>
      <trkpt lat="38.66340802051127" lon="-3.453739983960986">
        <ele>738.60000000000002</ele>
        <time>2003-04-20T19:56:24Z</time>
      </trkpt>
      <trkpt lat="38.664194997400045" lon="-3.4531469643116">
        <ele>737.79999999999995</ele>
        <time>2003-04-20T19:56:27Z</time>
      </trkpt>
      <trkpt lat="38.664993038401008" lon="-3.452542964369059">
        <ele>736.89999999999998</ele>
        <time>2003-04-20T19:56:31Z</time>
      </trkpt>
      <trkpt lat="38.665802981704473" lon="-3.451937958598137">
        <ele>736.29999999999995</ele>
        <time>2003-04-20T19:56:34Z</time>
      </trkpt>
      <trkpt lat="38.666621977463365" lon="-3.451319960877299">
        <ele>734.60000000000002</ele>
        <time>2003-04-20T19:56:37Z</time>
      </trkpt>
      <trkpt lat="38.667450025677681" lon="-3.450698023661971">
        <ele>733.89999999999998</ele>
        <time>2003-04-20T19:56:39Z</time>
      </trkpt>
      <trkpt lat="38.668272960931063" lon="-3.450077008455992">
        <ele>734.79999999999995</ele>
        <time>2003-04-20T19:56:42Z</time>
      </trkpt>
      <trkpt lat="38.669088017195463" lon="-3.449462028220296">
        <ele>736.29999999999995</ele>
        <time>2003-04-20T19:56:46Z</time>
      </trkpt>
      <trkpt lat="38.669905001297593" lon="-3.448855010792613">
        <ele>736.20000000000005</ele>
        <time>2003-04-20T19:56:49Z</time>
      </trkpt>
      <trkpt lat="38.67071301676333" lon="-3.448232989758253">
        <ele>735.79999999999995</ele>
        <time>2003-04-20T19:56:53Z</time>
      </trkpt>
      <trkpt lat="38.671524971723557" lon="-3.447611974552274">
        <ele>734</ele>
        <time>2003-04-20T19:56:56Z</time>
      </trkpt>
      <trkpt lat="38.672337010502815" lon="-3.446992971003056">
        <ele>734.10000000000002</ele>
        <time>2003-04-20T19:56:58Z</time>
      </trkpt>
      <trkpt lat="38.673139996826649" lon="-3.446395006030798">
        <ele>734.29999999999995</ele>
        <time>2003-04-20T19:57:01Z</time>
      </trkpt>
      <trkpt lat="38.67393996566534" lon="-3.44579997472465">
        <ele>733.29999999999995</ele>
        <time>2003-04-20T19:57:05Z</time>
      </trkpt>
      <trkpt lat="38.674734989181161" lon="-3.445199998095632">
        <ele>732.79999999999995</ele>
        <time>2003-04-20T19:57:08Z</time>
      </trkpt>
      <trkpt lat="38.675530012696981" lon="-3.444600021466613">
        <ele>731.70000000000005</ele>
        <time>2003-04-20T19:57:10Z</time>
      </trkpt>
      <trkpt lat="38.67632201872766" lon="-3.444002978503704">
        <ele>730.39999999999998</ele>
        <time>2003-04-20T19:57:13Z</time>
      </trkpt>
      <trkpt lat="38.677119975909591" lon="-3.443397972732782">
        <ele>727.79999999999995</ele>
        <time>2003-04-20T19:57:17Z</time>
      </trkpt>
      <trkpt lat="38.677930003032088" lon="-3.442787015810609">
        <ele>725.39999999999998</ele>
        <time>2003-04-20T19:57:20Z</time>
      </trkpt>
      <trkpt lat="38.678740030154586" lon="-3.442170023918152">
        <ele>725</ele>
        <time>2003-04-20T19:57:23Z</time>
      </trkpt>
      <trkpt lat="38.679564977064729" lon="-3.441542973741889">
        <ele>722.20000000000005</ele>
        <time>2003-04-20T19:57:25Z</time>
      </trkpt>
      <trkpt lat="38.680407023057342" lon="-3.440905027091503">
        <ele>720.5</ele>
        <time>2003-04-20T19:57:28Z</time>
      </trkpt>
      <trkpt lat="38.681268012151122" lon="-3.440260039642453">
        <ele>718.89999999999998</ele>
        <time>2003-04-20T19:57:32Z</time>
      </trkpt>
      <trkpt lat="38.682130007073283" lon="-3.439608011394739">
        <ele>719.29999999999995</ele>
        <time>2003-04-20T19:57:35Z</time>
      </trkpt>
      <trkpt lat="38.682995019480586" lon="-3.438954977318645">
        <ele>720.20000000000005</ele>
        <time>2003-04-20T19:57:37Z</time>
      </trkpt>
      <trkpt lat="38.683847039937973" lon="-3.438317030668259">
        <ele>721.39999999999998</ele>
        <time>2003-04-20T19:57:40Z</time>
      </trkpt>
      <trkpt lat="38.684667963534594" lon="-3.437725016847253">
        <ele>719.70000000000005</ele>
        <time>2003-04-20T19:57:44Z</time>
      </trkpt>
      <trkpt lat="38.685487965121865" lon="-3.437125040218234">
        <ele>719</ele>
        <time>2003-04-20T19:57:47Z</time>
      </trkpt>
      <trkpt lat="38.686303021386266" lon="-3.43649497255683">
        <ele>716.5</ele>
        <time>2003-04-20T19:57:50Z</time>
      </trkpt>
      <trkpt lat="38.687125034630299" lon="-3.435867000371218">
        <ele>715.39999999999998</ele>
        <time>2003-04-20T19:57:52Z</time>
      </trkpt>
      <trkpt lat="38.687951993197203" lon="-3.435240034013987">
        <ele>715.39999999999998</ele>
        <time>2003-04-20T19:57:55Z</time>
      </trkpt>
      <trkpt lat="38.688765037804842" lon="-3.434594962745905">
        <ele>715.5</ele>
        <time>2003-04-20T19:57:59Z</time>
      </trkpt>
      <trkpt lat="38.689753012731671" lon="-3.433846961706877">
        <ele>715.29999999999995</ele>
        <time>2003-04-20T19:58:03Z</time>
      </trkpt>
      <trkpt lat="38.690675022080541" lon="-3.433195017278194">
        <ele>714.29999999999995</ele>
        <time>2003-04-20T19:58:07Z</time>
      </trkpt>
      <trkpt lat="38.691629972308874" lon="-3.432451961562038">
        <ele>713</ele>
        <time>2003-04-20T19:58:11Z</time>
      </trkpt>
      <trkpt lat="38.692622976377606" lon="-3.431683005765081">
        <ele>712.39999999999998</ele>
        <time>2003-04-20T19:58:15Z</time>
      </trkpt>
      <trkpt lat="38.693663002923131" lon="-3.430901980027556">
        <ele>711.20000000000005</ele>
        <time>2003-04-20T19:58:19Z</time>
      </trkpt>
      <trkpt lat="38.694470012560487" lon="-3.430296974256635">
        <ele>710</ele>
        <time>2003-04-20T19:58:22Z</time>
      </trkpt>
      <trkpt lat="38.69529495947063" lon="-3.429673025384545">
        <ele>708.89999999999998</ele>
        <time>2003-04-20T19:58:25Z</time>
      </trkpt>
      <trkpt lat="38.696143040433526" lon="-3.429034994915128">
        <ele>706.10000000000002</ele>
        <time>2003-04-20T19:58:27Z</time>
      </trkpt>
      <trkpt lat="38.696997994557023" lon="-3.428392019122839">
        <ele>706.10000000000002</ele>
        <time>2003-04-20T19:58:30Z</time>
      </trkpt>
      <trkpt lat="38.697857977822423" lon="-3.427742002531886">
        <ele>706.20000000000005</ele>
        <time>2003-04-20T19:58:34Z</time>
      </trkpt>
      <trkpt lat="38.698722990229726" lon="-3.427082011476159">
        <ele>705.79999999999995</ele>
        <time>2003-04-20T19:58:37Z</time>
      </trkpt>
      <trkpt lat="38.699588002637029" lon="-3.426423026248813">
        <ele>705.29999999999995</ele>
        <time>2003-04-20T19:58:39Z</time>
      </trkpt>
      <trkpt lat="38.700457960367203" lon="-3.425777032971382">
        <ele>705.60000000000002</ele>
        <time>2003-04-20T19:58:42Z</time>
      </trkpt>
      <trkpt lat="38.701324984431267" lon="-3.425122993066907">
        <ele>705.5</ele>
        <time>2003-04-20T19:58:46Z</time>
      </trkpt>
      <trkpt lat="38.702172981575131" lon="-3.424414973706007">
        <ele>705.10000000000002</ele>
        <time>2003-04-20T19:58:49Z</time>
      </trkpt>
      <trkpt lat="38.703017961233854" lon="-3.423690022900701">
        <ele>704.79999999999995</ele>
        <time>2003-04-20T19:58:52Z</time>
      </trkpt>
      <trkpt lat="38.703886996954679" lon="-3.423007987439632">
        <ele>705</ele>
        <time>2003-04-20T19:58:54Z</time>
      </trkpt>
      <trkpt lat="38.704765001311898" lon="-3.422338021919131">
        <ele>706.39999999999998</ele>
        <time>2003-04-20T19:58:57Z</time>
      </trkpt>
      <trkpt lat="38.705641999840736" lon="-3.421677025035024">
        <ele>707</ele>
        <time>2003-04-20T19:59:01Z</time>
      </trkpt>
      <trkpt lat="38.706510029733181" lon="-3.421015022322536">
        <ele>708.20000000000005</ele>
        <time>2003-04-20T19:59:04Z</time>
      </trkpt>
      <trkpt lat="38.707370012998581" lon="-3.420361988246441">
        <ele>708.89999999999998</ele>
        <time>2003-04-20T19:59:06Z</time>
      </trkpt>
      <trkpt lat="38.708217004314065" lon="-3.419705014675856">
        <ele>707.60000000000002</ele>
        <time>2003-04-20T19:59:09Z</time>
      </trkpt>
      <trkpt lat="38.70906500145793" lon="-3.419115012511611">
        <ele>706.10000000000002</ele>
        <time>2003-04-20T19:59:13Z</time>
      </trkpt>
      <trkpt lat="38.709943005815148" lon="-3.418666999787092">
        <ele>705</ele>
        <time>2003-04-20T19:59:16Z</time>
      </trkpt>
      <trkpt lat="38.710853029042482" lon="-3.418322000652552">
        <ele>703.79999999999995</ele>
        <time>2003-04-20T19:59:19Z</time>
      </trkpt>
      <trkpt lat="38.7117949873209" lon="-3.418116979300976">
        <ele>702.5</ele>
        <time>2003-04-20T19:59:21Z</time>
      </trkpt>
      <trkpt lat="38.712748009711504" lon="-3.418022012338042">
        <ele>701.89999999999998</ele>
        <time>2003-04-20T19:59:24Z</time>
      </trkpt>
      <trkpt lat="38.713704971596599" lon="-3.417968032881618">
        <ele>701.5</ele>
        <time>2003-04-20T19:59:28Z</time>
      </trkpt>
      <trkpt lat="38.714662017300725" lon="-3.417901983484626">
        <ele>701.29999999999995</ele>
        <time>2003-04-20T19:59:31Z</time>
      </trkpt>
      <trkpt lat="38.715613028034568" lon="-3.417831994593144">
        <ele>701.20000000000005</ele>
        <time>2003-04-20T19:59:33Z</time>
      </trkpt>
      <trkpt lat="38.716560015454888" lon="-3.417765023186803">
        <ele>701.20000000000005</ele>
        <time>2003-04-20T19:59:36Z</time>
      </trkpt>
      <trkpt lat="38.717491999268532" lon="-3.417697967961431">
        <ele>701.10000000000002</ele>
        <time>2003-04-20T19:59:40Z</time>
      </trkpt>
      <trkpt lat="38.718409985303879" lon="-3.417638037353754">
        <ele>701.10000000000002</ele>
        <time>2003-04-20T19:59:43Z</time>
      </trkpt>
      <trkpt lat="38.719602981582284" lon="-3.417554972693324">
        <ele>701.5</ele>
        <time>2003-04-20T19:59:47Z</time>
      </trkpt>
      <trkpt lat="38.720767982304096" lon="-3.417469980195165">
        <ele>701.70000000000005</ele>
        <time>2003-04-20T19:59:51Z</time>
      </trkpt>
      <trkpt lat="38.721929965540767" lon="-3.417384987697005">
        <ele>702.20000000000005</ele>
        <time>2003-04-20T19:59:55Z</time>
      </trkpt>
      <trkpt lat="38.723075017333031" lon="-3.417320027947426">
        <ele>703.10000000000002</ele>
        <time>2003-04-20T19:59:59Z</time>
      </trkpt>
      <trkpt lat="38.72425502166152" lon="-3.417258001863957">
        <ele>704.20000000000005</ele>
        <time>2003-04-20T20:00:03Z</time>
      </trkpt>
      <trkpt lat="38.72515800409019" lon="-3.417192036285996">
        <ele>705</ele>
        <time>2003-04-20T20:00:06Z</time>
      </trkpt>
      <trkpt lat="38.726078001782298" lon="-3.417126992717385">
        <ele>704.89999999999998</ele>
        <time>2003-04-20T20:00:09Z</time>
      </trkpt>
      <trkpt lat="38.727013003081083" lon="-3.417069995775819">
        <ele>704.39999999999998</ele>
        <time>2003-04-20T20:00:11Z</time>
      </trkpt>
      <trkpt lat="38.72795001603663" lon="-3.417003024369478">
        <ele>704</ele>
        <time>2003-04-20T20:00:14Z</time>
      </trkpt>
      <trkpt lat="38.728891974315047" lon="-3.416958013549447">
        <ele>704.20000000000005</ele>
        <time>2003-04-20T20:00:18Z</time>
      </trkpt>
      <trkpt lat="38.729207972064614" lon="-3.416975028812885">
        <ele>704.10000000000002</ele>
        <time>2003-04-20T20:00:18Z</time>
      </trkpt>
      <trkpt lat="38.730156971141696" lon="-3.417148031294346">
        <ele>703.89999999999998</ele>
        <time>2003-04-20T20:00:22Z</time>
      </trkpt>
      <trkpt lat="38.731124997138977" lon="-3.41730996966362">
        <ele>701.39999999999998</ele>
        <time>2003-04-20T20:00:25Z</time>
      </trkpt>
      <trkpt lat="38.732112972065806" lon="-3.417477020993829">
        <ele>699.60000000000002</ele>
        <time>2003-04-20T20:00:27Z</time>
      </trkpt>
      <trkpt lat="38.733119973912835" lon="-3.417653040960431">
        <ele>697.79999999999995</ele>
        <time>2003-04-20T20:00:30Z</time>
      </trkpt>
      <trkpt lat="38.73413803987205" lon="-3.417827971279621">
        <ele>696.89999999999998</ele>
        <time>2003-04-20T20:00:34Z</time>
      </trkpt>
      <trkpt lat="38.735168008133769" lon="-3.417998040094972">
        <ele>695.89999999999998</ele>
        <time>2003-04-20T20:00:37Z</time>
      </trkpt>
      <trkpt lat="38.736208034679294" lon="-3.418180011212826">
        <ele>696.29999999999995</ele>
        <time>2003-04-20T20:00:40Z</time>
      </trkpt>
      <trkpt lat="38.737258035689592" lon="-3.418355025351048">
        <ele>696.5</ele>
        <time>2003-04-20T20:00:42Z</time>
      </trkpt>
      <trkpt lat="38.738307030871511" lon="-3.418527022004128">
        <ele>696.79999999999995</ele>
        <time>2003-04-20T20:00:45Z</time>
      </trkpt>
      <trkpt lat="38.739323001354933" lon="-3.418691977858543">
        <ele>697</ele>
        <time>2003-04-20T20:00:49Z</time>
      </trkpt>
      <trkpt lat="38.740278035402298" lon="-3.418849976733327">
        <ele>696.89999999999998</ele>
        <time>2003-04-20T20:00:52Z</time>
      </trkpt>
      <trkpt lat="38.741174982860684" lon="-3.419003030285239">
        <ele>697.20000000000005</ele>
        <time>2003-04-20T20:00:54Z</time>
      </trkpt>
      <trkpt lat="38.742090035229921" lon="-3.419154994189739">
        <ele>697.39999999999998</ele>
        <time>2003-04-20T20:00:57Z</time>
      </trkpt>
      <trkpt lat="38.743022019043565" lon="-3.419312993064523">
        <ele>697.5</ele>
        <time>2003-04-20T20:01:01Z</time>
      </trkpt>
      <trkpt lat="38.743972023949027" lon="-3.419469986110926">
        <ele>697.39999999999998</ele>
        <time>2003-04-20T20:01:04Z</time>
      </trkpt>
      <trkpt lat="38.744941977784038" lon="-3.41962999664247">
        <ele>697.29999999999995</ele>
        <time>2003-04-20T20:01:07Z</time>
      </trkpt>
      <trkpt lat="38.74591302126646" lon="-3.419795036315918">
        <ele>697.10000000000002</ele>
        <time>2003-04-20T20:01:09Z</time>
      </trkpt>
      <trkpt lat="38.746871994808316" lon="-3.419953035190702">
        <ele>697.10000000000002</ele>
        <time>2003-04-20T20:01:12Z</time>
      </trkpt>
      <trkpt lat="38.747801966965199" lon="-3.420112039893866">
        <ele>696.79999999999995</ele>
        <time>2003-04-20T20:01:16Z</time>
      </trkpt>
      <trkpt lat="38.748732022941113" lon="-3.420240031555295">
        <ele>697</ele>
        <time>2003-04-20T20:01:19Z</time>
      </trkpt>
      <trkpt lat="38.749671969562769" lon="-3.420267021283507">
        <ele>697.10000000000002</ele>
        <time>2003-04-20T20:01:21Z</time>
      </trkpt>
      <trkpt lat="38.750292984768748" lon="-3.420142969116569">
        <ele>697.10000000000002</ele>
        <time>2003-04-20T20:01:24Z</time>
      </trkpt>
      <trkpt lat="38.751202002167702" lon="-3.419816996902227">
        <ele>696.60000000000002</ele>
        <time>2003-04-20T20:01:27Z</time>
      </trkpt>
      <trkpt lat="38.752061985433102" lon="-3.419322967529297">
        <ele>696.39999999999998</ele>
        <time>2003-04-20T20:01:30Z</time>
      </trkpt>
      <trkpt lat="38.752866983413696" lon="-3.418694995343685">
        <ele>695.89999999999998</ele>
        <time>2003-04-20T20:01:32Z</time>
      </trkpt>
      <trkpt lat="38.75366996973753" lon="-3.418029975146055">
        <ele>695</ele>
        <time>2003-04-20T20:01:35Z</time>
      </trkpt>
      <trkpt lat="38.75448795966804" lon="-3.417363027110696">
        <ele>695.20000000000005</ele>
        <time>2003-04-20T20:01:39Z</time>
      </trkpt>
      <trkpt lat="38.755307039245963" lon="-3.416683003306389">
        <ele>696.60000000000002</ele>
        <time>2003-04-20T20:01:42Z</time>
      </trkpt>
      <trkpt lat="38.756129974499345" lon="-3.416007002815604">
        <ele>697.20000000000005</ele>
        <time>2003-04-20T20:01:44Z</time>
      </trkpt>
      <trkpt lat="38.756949976086617" lon="-3.415337959304452">
        <ele>698.39999999999998</ele>
        <time>2003-04-20T20:01:47Z</time>
      </trkpt>
      <trkpt lat="38.757754974067211" lon="-3.414661958813667">
        <ele>699.5</ele>
        <time>2003-04-20T20:01:51Z</time>
      </trkpt>
      <trkpt lat="38.758543040603399" lon="-3.414017977192998">
        <ele>700.5</ele>
        <time>2003-04-20T20:01:54Z</time>
      </trkpt>
      <trkpt lat="38.759324988350272" lon="-3.413390005007386">
        <ele>701.20000000000005</ele>
        <time>2003-04-20T20:01:57Z</time>
      </trkpt>
      <trkpt lat="38.760099979117513" lon="-3.412743005901575">
        <ele>702.10000000000002</ele>
        <time>2003-04-20T20:01:59Z</time>
      </trkpt>
      <trkpt lat="38.760891985148191" lon="-3.412106987088919">
        <ele>702.70000000000005</ele>
        <time>2003-04-20T20:02:02Z</time>
      </trkpt>
      <trkpt lat="38.761688014492393" lon="-3.411441966891289">
        <ele>702</ele>
        <time>2003-04-20T20:02:06Z</time>
      </trkpt>
      <trkpt lat="38.762502986937761" lon="-3.410779964178801">
        <ele>701.10000000000002</ele>
        <time>2003-04-20T20:02:09Z</time>
      </trkpt>
      <trkpt lat="38.763321982696652" lon="-3.410106981173158">
        <ele>700.20000000000005</ele>
        <time>2003-04-20T20:02:11Z</time>
      </trkpt>
      <trkpt lat="38.764137038961053" lon="-3.409427963197231">
        <ele>699.70000000000005</ele>
        <time>2003-04-20T20:02:14Z</time>
      </trkpt>
      <trkpt lat="38.764957962557673" lon="-3.408750034868717">
        <ele>700.70000000000005</ele>
        <time>2003-04-20T20:02:18Z</time>
      </trkpt>
      <trkpt lat="38.765772012993693" lon="-3.408079985529184">
        <ele>703.89999999999998</ele>
        <time>2003-04-20T20:02:21Z</time>
      </trkpt>
      <trkpt lat="38.766577010974288" lon="-3.407432986423373">
        <ele>708</ele>
        <time>2003-04-20T20:02:24Z</time>
      </trkpt>
      <trkpt lat="38.767349990084767" lon="-3.406795039772987">
        <ele>711.89999999999998</ele>
        <time>2003-04-20T20:02:26Z</time>
      </trkpt>
      <trkpt lat="38.768122969195247" lon="-3.40615801513195">
        <ele>711.10000000000002</ele>
        <time>2003-04-20T20:02:29Z</time>
      </trkpt>
      <trkpt lat="38.76892201602459" lon="-3.405497018247843">
        <ele>708.10000000000002</ele>
        <time>2003-04-20T20:02:33Z</time>
      </trkpt>
      <trkpt lat="38.769747968763113" lon="-3.404822023585439">
        <ele>705.79999999999995</ele>
        <time>2003-04-20T20:02:36Z</time>
      </trkpt>
      <trkpt lat="38.770588003098965" lon="-3.404143005609512">
        <ele>705.89999999999998</ele>
        <time>2003-04-20T20:02:38Z</time>
      </trkpt>
      <trkpt lat="38.771432982757688" lon="-3.40344998985529">
        <ele>705.89999999999998</ele>
        <time>2003-04-20T20:02:41Z</time>
      </trkpt>
      <trkpt lat="38.772281985729933" lon="-3.40274297632277">
        <ele>706.20000000000005</ele>
        <time>2003-04-20T20:02:45Z</time>
      </trkpt>
      <trkpt lat="38.773123025894165" lon="-3.402037974447012">
        <ele>709.10000000000002</ele>
        <time>2003-04-20T20:02:48Z</time>
      </trkpt>
      <trkpt lat="38.77395199611783" lon="-3.401338001713157">
        <ele>711.89999999999998</ele>
        <time>2003-04-20T20:02:51Z</time>
      </trkpt>
      <trkpt lat="38.774777026847005" lon="-3.400659989565611">
        <ele>714.29999999999995</ele>
        <time>2003-04-20T20:02:53Z</time>
      </trkpt>
      <trkpt lat="38.775595016777515" lon="-3.399994969367981">
        <ele>717</ele>
        <time>2003-04-20T20:02:56Z</time>
      </trkpt>
      <trkpt lat="38.776415018364787" lon="-3.399343024939299">
        <ele>714.39999999999998</ele>
        <time>2003-04-20T20:03:00Z</time>
      </trkpt>
      <trkpt lat="38.777248011901975" lon="-3.398655038326979">
        <ele>711.60000000000002</ele>
        <time>2003-04-20T20:03:03Z</time>
      </trkpt>
      <trkpt lat="38.778101960197091" lon="-3.397939978167415">
        <ele>708.60000000000002</ele>
        <time>2003-04-20T20:03:05Z</time>
      </trkpt>
      <trkpt lat="38.778952974826097" lon="-3.397227013483644">
        <ele>709.5</ele>
        <time>2003-04-20T20:03:08Z</time>
      </trkpt>
      <trkpt lat="38.779787980020046" lon="-3.396535003557801">
        <ele>710.29999999999995</ele>
        <time>2003-04-20T20:03:12Z</time>
      </trkpt>
      <trkpt lat="38.780594989657402" lon="-3.395871995016933">
        <ele>711.10000000000002</ele>
        <time>2003-04-20T20:03:15Z</time>
      </trkpt>
      <trkpt lat="38.781390013173223" lon="-3.39522298425436">
        <ele>711.5</ele>
        <time>2003-04-20T20:03:18Z</time>
      </trkpt>
      <trkpt lat="38.782183025032282" lon="-3.394572967663407">
        <ele>711.70000000000005</ele>
        <time>2003-04-20T20:03:20Z</time>
      </trkpt>
      <trkpt lat="38.783177034929395" lon="-3.393757995218039">
        <ele>712.79999999999995</ele>
        <time>2003-04-20T20:03:24Z</time>
      </trkpt>
      <trkpt lat="38.783932998776436" lon="-3.393127005547285">
        <ele>713.39999999999998</ele>
        <time>2003-04-20T20:03:27Z</time>
      </trkpt>
      <trkpt lat="38.784731961786747" lon="-3.39255703613162">
        <ele>715.39999999999998</ele>
        <time>2003-04-20T20:03:31Z</time>
      </trkpt>
      <trkpt lat="38.785581970587373" lon="-3.392137018963695">
        <ele>718</ele>
        <time>2003-04-20T20:03:34Z</time>
      </trkpt>
      <trkpt lat="38.786461986601353" lon="-3.391929985955358">
        <ele>721.29999999999995</ele>
        <time>2003-04-20T20:03:36Z</time>
      </trkpt>
      <trkpt lat="38.78701301291585" lon="-3.391916994005442">
        <ele>722.29999999999995</ele>
        <time>2003-04-20T20:03:39Z</time>
      </trkpt>
      <trkpt lat="38.787780040875077" lon="-3.392023025080562">
        <ele>724.29999999999995</ele>
        <time>2003-04-20T20:03:42Z</time>
      </trkpt>
      <trkpt lat="38.788792993873358" lon="-3.392223017290235">
        <ele>727.20000000000005</ele>
        <time>2003-04-20T20:03:46Z</time>
      </trkpt>
      <trkpt lat="38.789852969348431" lon="-3.39244999922812">
        <ele>730</ele>
        <time>2003-04-20T20:03:50Z</time>
      </trkpt>
      <trkpt lat="38.790955021977425" lon="-3.392674969509244">
        <ele>732.79999999999995</ele>
        <time>2003-04-20T20:03:54Z</time>
      </trkpt>
      <trkpt lat="38.792093032971025" lon="-3.392909998074174">
        <ele>735.70000000000005</ele>
        <time>2003-04-20T20:03:58Z</time>
      </trkpt>
      <trkpt lat="38.793262979015708" lon="-3.393162041902542">
        <ele>738.39999999999998</ele>
        <time>2003-04-20T20:04:02Z</time>
      </trkpt>
      <trkpt lat="38.794165039435029" lon="-3.39335298165679">
        <ele>738.70000000000005</ele>
        <time>2003-04-20T20:04:05Z</time>
      </trkpt>
      <trkpt lat="38.795077996328473" lon="-3.393566971644759">
        <ele>737.10000000000002</ele>
        <time>2003-04-20T20:04:08Z</time>
      </trkpt>
      <trkpt lat="38.796007968485355" lon="-3.393763024359942">
        <ele>733.5</ele>
        <time>2003-04-20T20:04:10Z</time>
      </trkpt>
      <trkpt lat="38.796932995319366" lon="-3.393956981599331">
        <ele>731.29999999999995</ele>
        <time>2003-04-20T20:04:13Z</time>
      </trkpt>
      <trkpt lat="38.797819968312979" lon="-3.394156973809004">
        <ele>730.39999999999998</ele>
        <time>2003-04-20T20:04:17Z</time>
      </trkpt>
      <trkpt lat="38.798708030954003" lon="-3.39436199516058">
        <ele>727.79999999999995</ele>
        <time>2003-04-20T20:04:20Z</time>
      </trkpt>
      <trkpt lat="38.799612019211054" lon="-3.394567016512156">
        <ele>723.79999999999995</ele>
        <time>2003-04-20T20:04:22Z</time>
      </trkpt>
      <trkpt lat="38.800526987761259" lon="-3.394772037863731">
        <ele>719.70000000000005</ele>
        <time>2003-04-20T20:04:25Z</time>
      </trkpt>
      <trkpt lat="38.801459977403283" lon="-3.394987033680081">
        <ele>714.60000000000002</ele>
        <time>2003-04-20T20:04:29Z</time>
      </trkpt>
      <trkpt lat="38.802406964823604" lon="-3.395203035324812">
        <ele>712.79999999999995</ele>
        <time>2003-04-20T20:04:32Z</time>
      </trkpt>
      <trkpt lat="38.803350012749434" lon="-3.395418031141162">
        <ele>711.29999999999995</ele>
        <time>2003-04-20T20:04:35Z</time>
      </trkpt>
      <trkpt lat="38.804281996563077" lon="-3.395632021129131">
        <ele>709.89999999999998</ele>
        <time>2003-04-20T20:04:37Z</time>
      </trkpt>
      <trkpt lat="38.805223032832146" lon="-3.395842993631959">
        <ele>708.60000000000002</ele>
        <time>2003-04-20T20:04:40Z</time>
      </trkpt>
      <trkpt lat="38.806161973625422" lon="-3.396047009155154">
        <ele>708.20000000000005</ele>
        <time>2003-04-20T20:04:44Z</time>
      </trkpt>
      <trkpt lat="38.807109966874123" lon="-3.396186986938119">
        <ele>708.10000000000002</ele>
        <time>2003-04-20T20:04:47Z</time>
      </trkpt>
      <trkpt lat="38.808067012578249" lon="-3.396210037171841">
        <ele>708.10000000000002</ele>
        <time>2003-04-20T20:04:49Z</time>
      </trkpt>
      <trkpt lat="38.809009976685047" lon="-3.396157985553145">
        <ele>708.10000000000002</ele>
        <time>2003-04-20T20:04:52Z</time>
      </trkpt>
      <trkpt lat="38.809959981590509" lon="-3.39610300026834">
        <ele>707.89999999999998</ele>
        <time>2003-04-20T20:04:56Z</time>
      </trkpt>
      <trkpt lat="38.810915015637875" lon="-3.396056983619928">
        <ele>708.20000000000005</ele>
        <time>2003-04-20T20:04:59Z</time>
      </trkpt>
      <trkpt lat="38.811848005279899" lon="-3.396008033305407">
        <ele>708.20000000000005</ele>
        <time>2003-04-20T20:05:02Z</time>
      </trkpt>
      <trkpt lat="38.812758028507233" lon="-3.395962016656995">
        <ele>708.29999999999995</ele>
        <time>2003-04-20T20:05:04Z</time>
      </trkpt>
      <trkpt lat="38.813947001472116" lon="-3.395894961431623">
        <ele>708.29999999999995</ele>
        <time>2003-04-20T20:05:08Z</time>
      </trkpt>
      <trkpt lat="38.815134968608618" lon="-3.395830001682043">
        <ele>707.70000000000005</ele>
        <time>2003-04-20T20:05:12Z</time>
      </trkpt>
      <trkpt lat="38.816035017371178" lon="-3.395794965326786">
        <ele>707.5</ele>
        <time>2003-04-20T20:05:15Z</time>
      </trkpt>
      <trkpt lat="38.816959960386157" lon="-3.395764958113432">
        <ele>707.10000000000002</ele>
        <time>2003-04-20T20:05:19Z</time>
      </trkpt>
      <trkpt lat="38.817907031625509" lon="-3.395712990313768">
        <ele>706.20000000000005</ele>
        <time>2003-04-20T20:05:22Z</time>
      </trkpt>
      <trkpt lat="38.81887698546052" lon="-3.395669991150498">
        <ele>705.10000000000002</ele>
        <time>2003-04-20T20:05:24Z</time>
      </trkpt>
      <trkpt lat="38.81986303254962" lon="-3.395622968673706">
        <ele>704.39999999999998</ele>
        <time>2003-04-20T20:05:27Z</time>
      </trkpt>
      <trkpt lat="38.820865005254745" lon="-3.395567983388901">
        <ele>703.79999999999995</ele>
        <time>2003-04-20T20:05:31Z</time>
      </trkpt>
      <trkpt lat="38.821877036243677" lon="-3.395492965355516">
        <ele>702.60000000000002</ele>
        <time>2003-04-20T20:05:34Z</time>
      </trkpt>
      <trkpt lat="38.822902981191874" lon="-3.395426999777556">
        <ele>701.89999999999998</ele>
        <time>2003-04-20T20:05:37Z</time>
      </trkpt>
      <trkpt lat="38.823934961110353" lon="-3.395375031977892">
        <ele>702.39999999999998</ele>
        <time>2003-04-20T20:05:39Z</time>
      </trkpt>
      <trkpt lat="38.824972975999117" lon="-3.395318035036326">
        <ele>702.20000000000005</ele>
        <time>2003-04-20T20:05:42Z</time>
      </trkpt>
      <trkpt lat="38.826021971181035" lon="-3.39526497758925">
        <ele>701.29999999999995</ele>
        <time>2003-04-20T20:05:46Z</time>
      </trkpt>
      <trkpt lat="38.827078007161617" lon="-3.395202029496431">
        <ele>700.60000000000002</ele>
        <time>2003-04-20T20:05:49Z</time>
      </trkpt>
      <trkpt lat="38.828142005950212" lon="-3.395152995362878">
        <ele>700</ele>
        <time>2003-04-20T20:05:51Z</time>
      </trkpt>
      <trkpt lat="38.829183038324118" lon="-3.395100021734834">
        <ele>698.29999999999995</ele>
        <time>2003-04-20T20:05:54Z</time>
      </trkpt>
      <trkpt lat="38.830213006585836" lon="-3.395042018964887">
        <ele>695.79999999999995</ele>
        <time>2003-04-20T20:05:58Z</time>
      </trkpt>
      <trkpt lat="38.831253033131361" lon="-3.394988039508462">
        <ele>695.20000000000005</ele>
        <time>2003-04-20T20:06:01Z</time>
      </trkpt>
      <trkpt lat="38.832289958372712" lon="-3.394922995939851">
        <ele>694.89999999999998</ele>
        <time>2003-04-20T20:06:04Z</time>
      </trkpt>
      <trkpt lat="38.833329984918237" lon="-3.394864993169904">
        <ele>695.29999999999995</ele>
        <time>2003-04-20T20:06:06Z</time>
      </trkpt>
      <trkpt lat="38.834361964836717" lon="-3.394830040633678">
        <ele>696.5</ele>
        <time>2003-04-20T20:06:09Z</time>
      </trkpt>
      <trkpt lat="38.835380030795932" lon="-3.39479299262166">
        <ele>696.10000000000002</ele>
        <time>2003-04-20T20:06:13Z</time>
      </trkpt>
      <trkpt lat="38.836398012936115" lon="-3.394740018993616">
        <ele>694.5</ele>
        <time>2003-04-20T20:06:16Z</time>
      </trkpt>
      <trkpt lat="38.837422030046582" lon="-3.394676987081766">
        <ele>692.89999999999998</ele>
        <time>2003-04-20T20:06:18Z</time>
      </trkpt>
      <trkpt lat="38.838445041328669" lon="-3.394600041210651">
        <ele>692</ele>
        <time>2003-04-20T20:06:21Z</time>
      </trkpt>
      <trkpt lat="38.839463023468852" lon="-3.394544972106814">
        <ele>691.5</ele>
        <time>2003-04-20T20:06:25Z</time>
      </trkpt>
      <trkpt lat="38.840472036972642" lon="-3.394487975165248">
        <ele>691.79999999999995</ele>
        <time>2003-04-20T20:06:28Z</time>
      </trkpt>
      <trkpt lat="38.841452971100807" lon="-3.394440030679107">
        <ele>692.39999999999998</ele>
        <time>2003-04-20T20:06:32Z</time>
      </trkpt>
      <trkpt lat="38.842412028461695" lon="-3.394386973232031">
        <ele>692.5</ele>
        <time>2003-04-20T20:06:35Z</time>
      </trkpt>
      <trkpt lat="38.843372007831931" lon="-3.394335005432367">
        <ele>692.60000000000002</ele>
        <time>2003-04-20T20:06:37Z</time>
      </trkpt>
      <trkpt lat="38.844341961666942" lon="-3.394282031804323">
        <ele>692.79999999999995</ele>
        <time>2003-04-20T20:06:40Z</time>
      </trkpt>
      <trkpt lat="38.845318034291267" lon="-3.394229980185628">
        <ele>693</ele>
        <time>2003-04-20T20:06:44Z</time>
      </trkpt>
      <trkpt lat="38.846302991732955" lon="-3.394177006557584">
        <ele>693</ele>
        <time>2003-04-20T20:06:45Z</time>
      </trkpt>
      <trkpt lat="38.847294989973307" lon="-3.394131995737553">
        <ele>692.89999999999998</ele>
        <time>2003-04-20T20:06:50Z</time>
      </trkpt>
      <trkpt lat="38.8482900056988" lon="-3.394078016281128">
        <ele>693</ele>
        <time>2003-04-20T20:06:52Z</time>
      </trkpt>
      <trkpt lat="38.849292984232306" lon="-3.394026970490813">
        <ele>692.79999999999995</ele>
        <time>2003-04-20T20:06:55Z</time>
      </trkpt>
      <trkpt lat="38.850303003564477" lon="-3.39397500269115">
        <ele>692.79999999999995</ele>
        <time>2003-04-20T20:06:59Z</time>
      </trkpt>
      <trkpt lat="38.851316962391138" lon="-3.393926974385977">
        <ele>692.5</ele>
        <time>2003-04-20T20:07:02Z</time>
      </trkpt>
      <trkpt lat="38.852314995601773" lon="-3.393872994929552">
        <ele>692.29999999999995</ele>
        <time>2003-04-20T20:07:04Z</time>
      </trkpt>
      <trkpt lat="38.853272963315248" lon="-3.39382697828114">
        <ele>692</ele>
        <time>2003-04-20T20:07:07Z</time>
      </trkpt>
      <trkpt lat="38.85419799014926" lon="-3.393775010481477">
        <ele>691.79999999999995</ele>
        <time>2003-04-20T20:07:11Z</time>
      </trkpt>
      <trkpt lat="38.855389980599284" lon="-3.39373997412622">
        <ele>691.5</ele>
        <time>2003-04-20T20:07:15Z</time>
      </trkpt>
      <trkpt lat="38.855692986398935" lon="-3.39373704046011">
        <ele>691.29999999999995</ele>
        <time>2003-04-20T20:07:15Z</time>
      </trkpt>
      <trkpt lat="38.856617007404566" lon="-3.393684988841415">
        <ele>691.29999999999995</ele>
        <time>2003-04-20T20:07:19Z</time>
      </trkpt>
      <trkpt lat="38.857561983168125" lon="-3.393633021041751">
        <ele>691.10000000000002</ele>
        <time>2003-04-20T20:07:22Z</time>
      </trkpt>
      <trkpt lat="38.858522968366742" lon="-3.393554985523224">
        <ele>690.70000000000005</ele>
        <time>2003-04-20T20:07:25Z</time>
      </trkpt>
      <trkpt lat="38.859499963000417" lon="-3.393496982753277">
        <ele>690.39999999999998</ele>
        <time>2003-04-20T20:07:27Z</time>
      </trkpt>
      <trkpt lat="38.860491961240768" lon="-3.393452977761626">
        <ele>690.20000000000005</ele>
        <time>2003-04-20T20:07:30Z</time>
      </trkpt>
      <trkpt lat="38.861495023593307" lon="-3.393406961113215">
        <ele>689.89999999999998</ele>
        <time>2003-04-20T20:07:34Z</time>
      </trkpt>
      <trkpt lat="38.862504959106445" lon="-3.39335298165679">
        <ele>689.5</ele>
        <time>2003-04-20T20:07:37Z</time>
      </trkpt>
      <trkpt lat="38.863525036722422" lon="-3.393303025513887">
        <ele>689.29999999999995</ele>
        <time>2003-04-20T20:07:39Z</time>
      </trkpt>
      <trkpt lat="38.864549975842237" lon="-3.393260026350617">
        <ele>688.89999999999998</ele>
        <time>2003-04-20T20:07:42Z</time>
      </trkpt>
      <trkpt lat="38.865541974082589" lon="-3.393234964460135">
        <ele>688.70000000000005</ele>
        <time>2003-04-20T20:07:46Z</time>
      </trkpt>
      <trkpt lat="38.866506982594728" lon="-3.393175033852458">
        <ele>688.5</ele>
        <time>2003-04-20T20:07:49Z</time>
      </trkpt>
      <trkpt lat="38.867486994713545" lon="-3.393127005547285">
        <ele>688.10000000000002</ele>
        <time>2003-04-20T20:07:52Z</time>
      </trkpt>
      <trkpt lat="38.868482010439038" lon="-3.39307302609086">
        <ele>687.60000000000002</ele>
        <time>2003-04-20T20:07:54Z</time>
      </trkpt>
      <trkpt lat="38.869488006457686" lon="-3.393027009442449">
        <ele>687.20000000000005</ele>
        <time>2003-04-20T20:07:57Z</time>
      </trkpt>
      <trkpt lat="38.87050699442625" lon="-3.392975041642785">
        <ele>686.70000000000005</ele>
        <time>2003-04-20T20:08:01Z</time>
      </trkpt>
      <trkpt lat="38.871533023193479" lon="-3.392919972538948">
        <ele>686.29999999999995</ele>
        <time>2003-04-20T20:08:04Z</time>
      </trkpt>
      <trkpt lat="38.872519992291927" lon="-3.392862975597382">
        <ele>686.29999999999995</ele>
        <time>2003-04-20T20:08:06Z</time>
      </trkpt>
      <trkpt lat="38.873457005247474" lon="-3.39281695894897">
        <ele>686.60000000000002</ele>
        <time>2003-04-20T20:08:09Z</time>
      </trkpt>
      <trkpt lat="38.874613037332892" lon="-3.392746970057488">
        <ele>686.60000000000002</ele>
        <time>2003-04-20T20:08:13Z</time>
      </trkpt>
      <trkpt lat="38.875727998092771" lon="-3.392695002257824">
        <ele>686.5</ele>
        <time>2003-04-20T20:08:17Z</time>
      </trkpt>
      <trkpt lat="38.876857962459326" lon="-3.39264202862978">
        <ele>686.29999999999995</ele>
        <time>2003-04-20T20:08:21Z</time>
      </trkpt>
      <trkpt lat="38.878045007586479" lon="-3.39258000254631">
        <ele>684.5</ele>
        <time>2003-04-20T20:08:25Z</time>
      </trkpt>
      <trkpt lat="38.8789729680866" lon="-3.392528034746647">
        <ele>683.20000000000005</ele>
        <time>2003-04-20T20:08:28Z</time>
      </trkpt>
      <trkpt lat="38.879928002133965" lon="-3.392483023926616">
        <ele>682.20000000000005</ele>
        <time>2003-04-20T20:08:32Z</time>
      </trkpt>
      <trkpt lat="38.880899967625737" lon="-3.392432983964682">
        <ele>682.10000000000002</ele>
        <time>2003-04-20T20:08:35Z</time>
      </trkpt>
      <trkpt lat="38.881885008886456" lon="-3.392377998679876">
        <ele>682.39999999999998</ele>
        <time>2003-04-20T20:08:38Z</time>
      </trkpt>
      <trkpt lat="38.88288002461195" lon="-3.392331982031465">
        <ele>682.5</ele>
        <time>2003-04-20T20:08:40Z</time>
      </trkpt>
      <trkpt lat="38.883872022852302" lon="-3.392276996746659">
        <ele>682.39999999999998</ele>
        <time>2003-04-20T20:08:43Z</time>
      </trkpt>
      <trkpt lat="38.884826973080635" lon="-3.392229974269867">
        <ele>682.20000000000005</ele>
        <time>2003-04-20T20:08:47Z</time>
      </trkpt>
      <trkpt lat="38.885791981592774" lon="-3.392178006470203">
        <ele>682.29999999999995</ele>
        <time>2003-04-20T20:08:50Z</time>
      </trkpt>
      <trkpt lat="38.886762019246817" lon="-3.392125032842159">
        <ele>682.60000000000002</ele>
        <time>2003-04-20T20:08:52Z</time>
      </trkpt>
      <trkpt lat="38.887742031365633" lon="-3.392072981223464">
        <ele>683.29999999999995</ele>
        <time>2003-04-20T20:08:55Z</time>
      </trkpt>
      <trkpt lat="38.888732017949224" lon="-3.392008021473885">
        <ele>683.79999999999995</ele>
        <time>2003-04-20T20:08:59Z</time>
      </trkpt>
      <trkpt lat="38.889732984825969" lon="-3.391892015933991">
        <ele>683.29999999999995</ele>
        <time>2003-04-20T20:09:02Z</time>
      </trkpt>
      <trkpt lat="38.890748033300042" lon="-3.391765030100942">
        <ele>683.20000000000005</ele>
        <time>2003-04-20T20:09:05Z</time>
      </trkpt>
      <trkpt lat="38.891772972419858" lon="-3.391650030389428">
        <ele>683.29999999999995</ele>
        <time>2003-04-20T20:09:07Z</time>
      </trkpt>
      <trkpt lat="38.892791960388422" lon="-3.391530001536012">
        <ele>683.10000000000002</ele>
        <time>2003-04-20T20:09:10Z</time>
      </trkpt>
      <trkpt lat="38.893799968063831" lon="-3.391409972682595">
        <ele>683</ele>
        <time>2003-04-20T20:09:14Z</time>
      </trkpt>
      <trkpt lat="38.894802024587989" lon="-3.391294972971082">
        <ele>682.89999999999998</ele>
        <time>2003-04-20T20:09:17Z</time>
      </trkpt>
      <trkpt lat="38.895814977586269" lon="-3.391175027936697">
        <ele>683.10000000000002</ele>
        <time>2003-04-20T20:09:19Z</time>
      </trkpt>
      <trkpt lat="38.896842012181878" lon="-3.391058016568422">
        <ele>683.39999999999998</ele>
        <time>2003-04-20T20:09:22Z</time>
      </trkpt>
      <trkpt lat="38.897872986271977" lon="-3.390930024906993">
        <ele>683.70000000000005</ele>
        <time>2003-04-20T20:09:26Z</time>
      </trkpt>
      <trkpt lat="38.898913012817502" lon="-3.390817036852241">
        <ele>683.79999999999995</ele>
        <time>2003-04-20T20:09:29Z</time>
      </trkpt>
      <trkpt lat="38.899937029927969" lon="-3.390702037140727">
        <ele>684.20000000000005</ele>
        <time>2003-04-20T20:09:32Z</time>
      </trkpt>
      <trkpt lat="38.90090798959136" lon="-3.390583014115691">
        <ele>684.60000000000002</ele>
        <time>2003-04-20T20:09:34Z</time>
      </trkpt>
      <trkpt lat="38.901852965354919" lon="-3.390470026060939">
        <ele>684.79999999999995</ele>
        <time>2003-04-20T20:09:37Z</time>
      </trkpt>
      <trkpt lat="38.902657963335514" lon="-3.390383021906018">
        <ele>684.79999999999995</ele>
        <time>2003-04-20T20:09:41Z</time>
      </trkpt>
      <trkpt lat="38.903079992160201" lon="-3.390337005257607">
        <ele>684.79999999999995</ele>
        <time>2003-04-20T20:09:42Z</time>
      </trkpt>
      <trkpt lat="38.904099985957146" lon="-3.390214964747429">
        <ele>684.89999999999998</ele>
        <time>2003-04-20T20:09:48Z</time>
      </trkpt>
      <trkpt lat="38.905092990025878" lon="-3.390101976692677">
        <ele>684.79999999999995</ele>
        <time>2003-04-20T20:09:53Z</time>
      </trkpt>
      <trkpt lat="38.905992032960057" lon="-3.389999968931079">
        <ele>684.39999999999998</ele>
        <time>2003-04-20T20:09:57Z</time>
      </trkpt>
      <trkpt lat="38.906982019543648" lon="-3.389880023896694">
        <ele>684</ele>
        <time>2003-04-20T20:10:01Z</time>
      </trkpt>
      <trkpt lat="38.908060016110539" lon="-3.389759995043278">
        <ele>683.79999999999995</ele>
        <time>2003-04-20T20:10:04Z</time>
      </trkpt>
      <trkpt lat="38.909208001568913" lon="-3.389624962583184">
        <ele>684.10000000000002</ele>
        <time>2003-04-20T20:10:08Z</time>
      </trkpt>
      <trkpt lat="38.910405021160841" lon="-3.389488002285361">
        <ele>684.29999999999995</ele>
        <time>2003-04-20T20:10:12Z</time>
      </trkpt>
      <trkpt lat="38.911344967782497" lon="-3.389375014230609">
        <ele>684.20000000000005</ele>
        <time>2003-04-20T20:10:16Z</time>
      </trkpt>
      <trkpt lat="38.912297990173101" lon="-3.389262026175857">
        <ele>684</ele>
        <time>2003-04-20T20:10:19Z</time>
      </trkpt>
      <trkpt lat="38.91326199285686" lon="-3.389149960130453">
        <ele>683.79999999999995</ele>
        <time>2003-04-20T20:10:21Z</time>
      </trkpt>
      <trkpt lat="38.914219960570335" lon="-3.389039989560843">
        <ele>683.89999999999998</ele>
        <time>2003-04-20T20:10:24Z</time>
      </trkpt>
      <trkpt lat="38.915163008496165" lon="-3.388933036476374">
        <ele>684</ele>
        <time>2003-04-20T20:10:28Z</time>
      </trkpt>
      <trkpt lat="38.916104966774583" lon="-3.388824993744493">
        <ele>684.10000000000002</ele>
        <time>2003-04-20T20:10:31Z</time>
      </trkpt>
      <trkpt lat="38.917050026357174" lon="-3.388713011518121">
        <ele>684.20000000000005</ele>
        <time>2003-04-20T20:10:34Z</time>
      </trkpt>
      <trkpt lat="38.917995002120733" lon="-3.38860496878624">
        <ele>684.29999999999995</ele>
        <time>2003-04-20T20:10:36Z</time>
      </trkpt>
      <trkpt lat="38.918936960399151" lon="-3.388492986559868">
        <ele>684.29999999999995</ele>
        <time>2003-04-20T20:10:39Z</time>
      </trkpt>
      <trkpt lat="38.919870033860207" lon="-3.38838703930378">
        <ele>684.10000000000002</ele>
        <time>2003-04-20T20:10:43Z</time>
      </trkpt>
      <trkpt lat="38.920806962996721" lon="-3.388285031542182">
        <ele>683.89999999999998</ele>
        <time>2003-04-20T20:10:46Z</time>
      </trkpt>
      <trkpt lat="38.921756967902184" lon="-3.388177994638681">
        <ele>683.60000000000002</ele>
        <time>2003-04-20T20:10:48Z</time>
      </trkpt>
      <trkpt lat="38.922718036919832" lon="-3.38806701824069">
        <ele>683.39999999999998</ele>
        <time>2003-04-20T20:10:51Z</time>
      </trkpt>
      <trkpt lat="38.923682039603591" lon="-3.387956963852048">
        <ele>683.29999999999995</ele>
        <time>2003-04-20T20:10:55Z</time>
      </trkpt>
      <trkpt lat="38.924634978175163" lon="-3.387856967747212">
        <ele>683.10000000000002</ele>
        <time>2003-04-20T20:10:58Z</time>
      </trkpt>
      <trkpt lat="38.925577020272613" lon="-3.387763006612659">
        <ele>682.79999999999995</ele>
        <time>2003-04-20T20:11:01Z</time>
      </trkpt>
      <trkpt lat="38.926531970500946" lon="-3.387667033821344">
        <ele>682.5</ele>
        <time>2003-04-20T20:11:03Z</time>
      </trkpt>
      <trkpt lat="38.927503013983369" lon="-3.387580029666424">
        <ele>682.20000000000005</ele>
        <time>2003-04-20T20:11:06Z</time>
      </trkpt>
      <trkpt lat="38.928491994738579" lon="-3.387480033561587">
        <ele>682</ele>
        <time>2003-04-20T20:11:10Z</time>
      </trkpt>
      <trkpt lat="38.929492039605975" lon="-3.38735799305141">
        <ele>681.70000000000005</ele>
        <time>2003-04-20T20:11:13Z</time>
      </trkpt>
      <trkpt lat="38.93049200065434" lon="-3.387245004996657">
        <ele>681.39999999999998</ele>
        <time>2003-04-20T20:11:15Z</time>
      </trkpt>
      <trkpt lat="38.931488022208214" lon="-3.387133022770286">
        <ele>681.20000000000005</ele>
        <time>2003-04-20T20:11:18Z</time>
      </trkpt>
      <trkpt lat="38.932497035712004" lon="-3.387018023058772">
        <ele>681</ele>
        <time>2003-04-20T20:11:22Z</time>
      </trkpt>
      <trkpt lat="38.933519963175058" lon="-3.386894976720214">
        <ele>680.70000000000005</ele>
        <time>2003-04-20T20:11:25Z</time>
      </trkpt>
      <trkpt lat="38.934553032740951" lon="-3.386775031685829">
        <ele>680.29999999999995</ele>
        <time>2003-04-20T20:11:28Z</time>
      </trkpt>
      <trkpt lat="38.935592975467443" lon="-3.386652991175652">
        <ele>680.5</ele>
        <time>2003-04-20T20:11:30Z</time>
      </trkpt>
      <trkpt lat="38.936633002012968" lon="-3.386530028656125">
        <ele>680.39999999999998</ele>
        <time>2003-04-20T20:11:33Z</time>
      </trkpt>
      <trkpt lat="38.937628017738461" lon="-3.386419974267483">
        <ele>680.20000000000005</ele>
        <time>2003-04-20T20:11:37Z</time>
      </trkpt>
      <trkpt lat="38.938587997108698" lon="-3.386300029233098">
        <ele>679.89999999999998</ele>
        <time>2003-04-20T20:11:40Z</time>
      </trkpt>
      <trkpt lat="38.939564991742373" lon="-3.386187041178346">
        <ele>679.79999999999995</ele>
        <time>2003-04-20T20:11:42Z</time>
      </trkpt>
      <trkpt lat="38.940557995811105" lon="-3.386077992618084">
        <ele>679.60000000000002</ele>
        <time>2003-04-20T20:11:45Z</time>
      </trkpt>
      <trkpt lat="38.941558040678501" lon="-3.385953018441796">
        <ele>679.5</ele>
        <time>2003-04-20T20:11:49Z</time>
      </trkpt>
      <trkpt lat="38.942548027262092" lon="-3.385838018730283">
        <ele>679.20000000000005</ele>
        <time>2003-04-20T20:11:52Z</time>
      </trkpt>
      <trkpt lat="38.943523010239005" lon="-3.385731987655163">
        <ele>679.10000000000002</ele>
        <time>2003-04-20T20:11:55Z</time>
      </trkpt>
      <trkpt lat="38.944505034014583" lon="-3.385611958801746">
        <ele>678.89999999999998</ele>
        <time>2003-04-20T20:11:57Z</time>
      </trkpt>
      <trkpt lat="38.945504995062947" lon="-3.385499976575375">
        <ele>678.79999999999995</ele>
        <time>2003-04-20T20:12:00Z</time>
      </trkpt>
      <trkpt lat="38.946515014395118" lon="-3.385377014055848">
        <ele>678.70000000000005</ele>
        <time>2003-04-20T20:12:04Z</time>
      </trkpt>
      <trkpt lat="38.947537019848824" lon="-3.385252039879561">
        <ele>678.60000000000002</ele>
        <time>2003-04-20T20:12:07Z</time>
      </trkpt>
      <trkpt lat="38.948561958968639" lon="-3.385137962177396">
        <ele>678.79999999999995</ele>
        <time>2003-04-20T20:12:09Z</time>
      </trkpt>
      <trkpt lat="38.949582958593965" lon="-3.385017011314631">
        <ele>679.20000000000005</ele>
        <time>2003-04-20T20:12:12Z</time>
      </trkpt>
      <trkpt lat="38.950547967106104" lon="-3.384892037138343">
        <ele>678.70000000000005</ele>
        <time>2003-04-20T20:12:16Z</time>
      </trkpt>
      <trkpt lat="38.951477017253637" lon="-3.384792041033506">
        <ele>677.60000000000002</ele>
        <time>2003-04-20T20:12:19Z</time>
      </trkpt>
      <trkpt lat="38.952416963875294" lon="-3.384681986644864">
        <ele>677.70000000000005</ele>
        <time>2003-04-20T20:12:22Z</time>
      </trkpt>
      <trkpt lat="38.953369986265898" lon="-3.384573021903634">
        <ele>678.10000000000002</ele>
        <time>2003-04-20T20:12:24Z</time>
      </trkpt>
      <trkpt lat="38.954329965636134" lon="-3.384458022192121">
        <ele>679</ele>
        <time>2003-04-20T20:12:27Z</time>
      </trkpt>
      <trkpt lat="38.955292962491512" lon="-3.384345034137368">
        <ele>681.10000000000002</ele>
        <time>2003-04-20T20:12:31Z</time>
      </trkpt>
      <trkpt lat="38.956256965175271" lon="-3.384232968091965">
        <ele>683.39999999999998</ele>
        <time>2003-04-20T20:12:34Z</time>
      </trkpt>
      <trkpt lat="38.95722197368741" lon="-3.384117968380451">
        <ele>685.20000000000005</ele>
        <time>2003-04-20T20:12:36Z</time>
      </trkpt>
      <trkpt lat="38.958205003291368" lon="-3.384010009467602">
        <ele>684.89999999999998</ele>
        <time>2003-04-20T20:12:39Z</time>
      </trkpt>
      <trkpt lat="38.959204964339733" lon="-3.383892998099327">
        <ele>684.20000000000005</ele>
        <time>2003-04-20T20:12:43Z</time>
      </trkpt>
      <trkpt lat="38.960223030298948" lon="-3.383774980902672">
        <ele>683.5</ele>
        <time>2003-04-20T20:12:46Z</time>
      </trkpt>
      <trkpt lat="38.961252998560667" lon="-3.383647995069623">
        <ele>682.89999999999998</ele>
        <time>2003-04-20T20:12:49Z</time>
      </trkpt>
      <trkpt lat="38.962296964600682" lon="-3.383526960387826">
        <ele>682.29999999999995</ele>
        <time>2003-04-20T20:12:51Z</time>
      </trkpt>
      <trkpt lat="38.963351994752884" lon="-3.383402992039919">
        <ele>681.5</ele>
        <time>2003-04-20T20:12:54Z</time>
      </trkpt>
      <trkpt lat="38.964429991319776" lon="-3.383280029520392">
        <ele>680.89999999999998</ele>
        <time>2003-04-20T20:12:58Z</time>
      </trkpt>
      <trkpt lat="38.965497007593513" lon="-3.383154971525073">
        <ele>680.20000000000005</ele>
        <time>2003-04-20T20:13:01Z</time>
      </trkpt>
      <trkpt lat="38.966563018038869" lon="-3.383033014833927">
        <ele>679.5</ele>
        <time>2003-04-20T20:13:03Z</time>
      </trkpt>
      <trkpt lat="38.967622993513942" lon="-3.382907034829259">
        <ele>679</ele>
        <time>2003-04-20T20:13:06Z</time>
      </trkpt>
      <trkpt lat="38.968681963160634" lon="-3.38278197683394">
        <ele>677.20000000000005</ele>
        <time>2003-04-20T20:13:10Z</time>
      </trkpt>
      <trkpt lat="38.969722995534539" lon="-3.382662031799555">
        <ele>674.89999999999998</ele>
        <time>2003-04-20T20:13:13Z</time>
      </trkpt>
      <trkpt lat="38.970748018473387" lon="-3.382542002946138">
        <ele>673</ele>
        <time>2003-04-20T20:13:16Z</time>
      </trkpt>
      <trkpt lat="38.971755020320415" lon="-3.382427003234625">
        <ele>671.60000000000002</ele>
        <time>2003-04-20T20:13:18Z</time>
      </trkpt>
      <trkpt lat="38.972742995247245" lon="-3.38230999186635">
        <ele>670.5</ele>
        <time>2003-04-20T20:13:21Z</time>
      </trkpt>
      <trkpt lat="38.973716972395778" lon="-3.382202032953501">
        <ele>670.20000000000005</ele>
        <time>2003-04-20T20:13:25Z</time>
      </trkpt>
      <trkpt lat="38.974702013656497" lon="-3.382091978564858">
        <ele>669.89999999999998</ele>
        <time>2003-04-20T20:13:28Z</time>
      </trkpt>
      <trkpt lat="38.975683031603694" lon="-3.381976978853345">
        <ele>669.79999999999995</ele>
        <time>2003-04-20T20:13:30Z</time>
      </trkpt>
      <trkpt lat="38.976648040115833" lon="-3.381870025768876">
        <ele>669.60000000000002</ele>
        <time>2003-04-20T20:13:35Z</time>
      </trkpt>
      <trkpt lat="38.977599972859025" lon="-3.381757037714124">
        <ele>669.5</ele>
        <time>2003-04-20T20:13:37Z</time>
      </trkpt>
      <trkpt lat="38.978546960279346" lon="-3.381650000810623">
        <ele>669.5</ele>
        <time>2003-04-20T20:13:40Z</time>
      </trkpt>
      <trkpt lat="38.979467963799834" lon="-3.381537012755871">
        <ele>669.29999999999995</ele>
        <time>2003-04-20T20:13:43Z</time>
      </trkpt>
      <trkpt lat="38.980406988412142" lon="-3.381432993337512">
        <ele>668.60000000000002</ele>
        <time>2003-04-20T20:13:45Z</time>
      </trkpt>
      <trkpt lat="38.981367973610759" lon="-3.381325034424663">
        <ele>667.5</ele>
        <time>2003-04-20T20:13:48Z</time>
      </trkpt>
      <trkpt lat="38.982347985729575" lon="-3.381272982805967">
        <ele>666.39999999999998</ele>
        <time>2003-04-20T20:13:52Z</time>
      </trkpt>
      <trkpt lat="38.982677981257439" lon="-3.381293015554547">
        <ele>666.29999999999995</ele>
        <time>2003-04-20T20:13:52Z</time>
      </trkpt>
      <trkpt lat="38.983665034174919" lon="-3.381432993337512">
        <ele>666.29999999999995</ele>
        <time>2003-04-20T20:13:56Z</time>
      </trkpt>
      <trkpt lat="38.98463498800993" lon="-3.381738010793924">
        <ele>667.10000000000002</ele>
        <time>2003-04-20T20:13:59Z</time>
      </trkpt>
      <trkpt lat="38.985566971823573" lon="-3.382203038781881">
        <ele>667.70000000000005</ele>
        <time>2003-04-20T20:14:02Z</time>
      </trkpt>
      <trkpt lat="38.986457968130708" lon="-3.38280200958252">
        <ele>668.10000000000002</ele>
        <time>2003-04-20T20:14:04Z</time>
      </trkpt>
      <trkpt lat="38.987288028001785" lon="-3.383537018671632">
        <ele>668.89999999999998</ele>
        <time>2003-04-20T20:14:07Z</time>
      </trkpt>
      <trkpt lat="38.988078022375703" lon="-3.384317960590124">
        <ele>670.79999999999995</ele>
        <time>2003-04-20T20:14:11Z</time>
      </trkpt>
      <trkpt lat="38.988840021193027" lon="-3.385118013247848">
        <ele>673.5</ele>
        <time>2003-04-20T20:14:14Z</time>
      </trkpt>
      <trkpt lat="38.989607971161604" lon="-3.385923011228442">
        <ele>673.70000000000005</ele>
        <time>2003-04-20T20:14:16Z</time>
      </trkpt>
      <trkpt lat="38.990380028262734" lon="-3.386747036129236">
        <ele>672.5</ele>
        <time>2003-04-20T20:14:19Z</time>
      </trkpt>
      <trkpt lat="38.991170022636652" lon="-3.387553039938211">
        <ele>668.89999999999998</ele>
        <time>2003-04-20T20:14:23Z</time>
      </trkpt>
      <trkpt lat="38.992035035043955" lon="-3.388268016278744">
        <ele>664.70000000000005</ele>
        <time>2003-04-20T20:14:26Z</time>
      </trkpt>
      <trkpt lat="38.992952015250921" lon="-3.388836979866028">
        <ele>662.5</ele>
        <time>2003-04-20T20:14:29Z</time>
      </trkpt>
      <trkpt lat="38.993906965479255" lon="-3.389267977327108">
        <ele>662.89999999999998</ele>
        <time>2003-04-20T20:14:31Z</time>
      </trkpt>
      <trkpt lat="38.994889995083213" lon="-3.389554973691702">
        <ele>663.29999999999995</ele>
        <time>2003-04-20T20:14:34Z</time>
      </trkpt>
      <trkpt lat="38.995890039950609" lon="-3.389731999486685">
        <ele>663.60000000000002</ele>
        <time>2003-04-20T20:14:38Z</time>
      </trkpt>
      <trkpt lat="38.99656000547111" lon="-3.389756977558136">
        <ele>663.70000000000005</ele>
        <time>2003-04-20T20:14:39Z</time>
      </trkpt>
      <trkpt lat="38.99756801314652" lon="-3.389650024473667">
        <ele>663.39999999999998</ele>
        <time>2003-04-20T20:14:42Z</time>
      </trkpt>
      <trkpt lat="38.998563028872013" lon="-3.389397980645299">
        <ele>663.70000000000005</ele>
        <time>2003-04-20T20:14:46Z</time>
      </trkpt>
      <trkpt lat="38.999517979100347" lon="-3.389005037024617">
        <ele>666.29999999999995</ele>
        <time>2003-04-20T20:14:49Z</time>
      </trkpt>
      <trkpt lat="39.000420039519668" lon="-3.388482006266713">
        <ele>668.89999999999998</ele>
        <time>2003-04-20T20:14:51Z</time>
      </trkpt>
      <trkpt lat="39.001262001693249" lon="-3.387838024646044">
        <ele>671.5</ele>
        <time>2003-04-20T20:14:54Z</time>
      </trkpt>
      <trkpt lat="39.002045039087534" lon="-3.387096980586648">
        <ele>673.29999999999995</ele>
        <time>2003-04-20T20:14:58Z</time>
      </trkpt>
      <trkpt lat="39.002787005156279" lon="-3.386295000091195">
        <ele>674.10000000000002</ele>
        <time>2003-04-20T20:15:01Z</time>
      </trkpt>
      <trkpt lat="39.003552021458745" lon="-3.385453037917614">
        <ele>672.29999999999995</ele>
        <time>2003-04-20T20:15:04Z</time>
      </trkpt>
      <trkpt lat="39.004343021661043" lon="-3.384607974439859">
        <ele>668.60000000000002</ele>
        <time>2003-04-20T20:15:08Z</time>
      </trkpt>
      <trkpt lat="39.005148019641638" lon="-3.383750002831221">
        <ele>665</ele>
        <time>2003-04-20T20:15:10Z</time>
      </trkpt>
      <trkpt lat="39.005965003743768" lon="-3.382860012352467">
        <ele>664.20000000000005</ele>
        <time>2003-04-20T20:15:13Z</time>
      </trkpt>
      <trkpt lat="39.006777964532375" lon="-3.381959963589907">
        <ele>663.70000000000005</ele>
        <time>2003-04-20T20:15:16Z</time>
      </trkpt>
      <trkpt lat="39.007593020796776" lon="-3.381056981161237">
        <ele>663.10000000000002</ele>
        <time>2003-04-20T20:15:18Z</time>
      </trkpt>
      <trkpt lat="39.008417967706919" lon="-3.380152992904186">
        <ele>662.39999999999998</ele>
        <time>2003-04-20T20:15:21Z</time>
      </trkpt>
      <trkpt lat="39.009241992607713" lon="-3.379241963848472">
        <ele>662.29999999999995</ele>
        <time>2003-04-20T20:15:25Z</time>
      </trkpt>
      <trkpt lat="39.010055037215352" lon="-3.378354990854859">
        <ele>663.20000000000005</ele>
        <time>2003-04-20T20:15:28Z</time>
      </trkpt>
      <trkpt lat="39.010849976912141" lon="-3.377474974840879">
        <ele>664.39999999999998</ele>
        <time>2003-04-20T20:15:31Z</time>
      </trkpt>
      <trkpt lat="39.0116429887712" lon="-3.376605017110705">
        <ele>665.5</ele>
        <time>2003-04-20T20:15:33Z</time>
      </trkpt>
      <trkpt lat="39.012410016730428" lon="-3.375773029401898">
        <ele>665.20000000000005</ele>
        <time>2003-04-20T20:15:36Z</time>
      </trkpt>
      <trkpt lat="39.013175033032894" lon="-3.375012958422303">
        <ele>665</ele>
        <time>2003-04-20T20:15:40Z</time>
      </trkpt>
      <trkpt lat="39.013993022963405" lon="-3.374409964308143">
        <ele>664.79999999999995</ele>
        <time>2003-04-20T20:15:43Z</time>
      </trkpt>
      <trkpt lat="39.014849988743663" lon="-3.373905038461089">
        <ele>664.39999999999998</ele>
        <time>2003-04-20T20:15:45Z</time>
      </trkpt>
      <trkpt lat="39.015442002564669" lon="-3.373667998239398">
        <ele>664.29999999999995</ele>
        <time>2003-04-20T20:15:48Z</time>
      </trkpt>
      <trkpt lat="39.01636996306479" lon="-3.373477980494499">
        <ele>664.10000000000002</ele>
        <time>2003-04-20T20:15:51Z</time>
      </trkpt>
      <trkpt lat="39.017322985455394" lon="-3.37343699298799">
        <ele>663.70000000000005</ele>
        <time>2003-04-20T20:15:54Z</time>
      </trkpt>
      <trkpt lat="39.018286988139153" lon="-3.373485021293163">
        <ele>663.29999999999995</ele>
        <time>2003-04-20T20:15:58Z</time>
      </trkpt>
      <trkpt lat="39.018931975588202" lon="-3.373492984101176">
        <ele>663</ele>
        <time>2003-04-20T20:15:59Z</time>
      </trkpt>
      <trkpt lat="39.019579980522394" lon="-3.37350295856595">
        <ele>662.70000000000005</ele>
        <time>2003-04-20T20:16:02Z</time>
      </trkpt>
      <trkpt lat="39.020554963499308" lon="-3.373549981042743">
        <ele>662.60000000000002</ele>
        <time>2003-04-20T20:16:03Z</time>
      </trkpt>
      <trkpt lat="39.021532963961363" lon="-3.373592980206013">
        <ele>662.29999999999995</ele>
        <time>2003-04-20T20:16:07Z</time>
      </trkpt>
      <trkpt lat="39.022520016878843" lon="-3.373640002682805">
        <ele>662.10000000000002</ele>
        <time>2003-04-20T20:16:11Z</time>
      </trkpt>
      <trkpt lat="39.023507991805673" lon="-3.373679984360933">
        <ele>662.29999999999995</ele>
        <time>2003-04-20T20:16:12Z</time>
      </trkpt>
      <trkpt lat="39.024492027238011" lon="-3.373727006837726">
        <ele>662.39999999999998</ele>
        <time>2003-04-20T20:16:15Z</time>
      </trkpt>
      <trkpt lat="39.025459969416261" lon="-3.373743016272783">
        <ele>662.60000000000002</ele>
        <time>2003-04-20T20:16:19Z</time>
      </trkpt>
      <trkpt lat="39.026427995413542" lon="-3.37377998046577">
        <ele>661.70000000000005</ele>
        <time>2003-04-20T20:16:22Z</time>
      </trkpt>
      <trkpt lat="39.027412030845881" lon="-3.373821973800659">
        <ele>660.70000000000005</ele>
        <time>2003-04-20T20:16:26Z</time>
      </trkpt>
      <trkpt lat="39.028403023257852" lon="-3.373854998499155">
        <ele>660.5</ele>
        <time>2003-04-20T20:16:29Z</time>
      </trkpt>
      <trkpt lat="39.029401978477836" lon="-3.373902020975947">
        <ele>660.20000000000005</ele>
        <time>2003-04-20T20:16:30Z</time>
      </trkpt>
      <trkpt lat="39.030407974496484" lon="-3.373947031795979">
        <ele>660</ele>
        <time>2003-04-20T20:16:34Z</time>
      </trkpt>
      <trkpt lat="39.031417993828654" lon="-3.373985001817346">
        <ele>659.70000000000005</ele>
        <time>2003-04-20T20:16:38Z</time>
      </trkpt>
      <trkpt lat="39.032432036474347" lon="-3.374030012637377">
        <ele>659.29999999999995</ele>
        <time>2003-04-20T20:16:41Z</time>
      </trkpt>
      <trkpt lat="39.033447001129389" lon="-3.374047027900815">
        <ele>658.89999999999998</ele>
        <time>2003-04-20T20:16:44Z</time>
      </trkpt>
      <trkpt lat="39.034457020461559" lon="-3.374075023457408">
        <ele>658.39999999999998</ele>
        <time>2003-04-20T20:16:46Z</time>
      </trkpt>
      <trkpt lat="39.035456981509924" lon="-3.374111987650394">
        <ele>658.60000000000002</ele>
        <time>2003-04-20T20:16:49Z</time>
      </trkpt>
      <trkpt lat="39.036451997235417" lon="-3.374152975156903">
        <ele>658.70000000000005</ele>
        <time>2003-04-20T20:16:53Z</time>
      </trkpt>
      <trkpt lat="39.037439972162247" lon="-3.374194968491793">
        <ele>658.79999999999995</ele>
        <time>2003-04-20T20:16:56Z</time>
      </trkpt>
      <trkpt lat="39.038428030908108" lon="-3.374245008453727">
        <ele>658.5</ele>
        <time>2003-04-20T20:16:58Z</time>
      </trkpt>
      <trkpt lat="39.039420029148459" lon="-3.374279960989952">
        <ele>658.10000000000002</ele>
        <time>2003-04-20T20:17:01Z</time>
      </trkpt>
      <trkpt lat="39.040414961054921" lon="-3.374332012608647">
        <ele>657.79999999999995</ele>
        <time>2003-04-20T20:17:05Z</time>
      </trkpt>
      <trkpt lat="39.041412994265556" lon="-3.374392027035356">
        <ele>657.60000000000002</ele>
        <time>2003-04-20T20:17:08Z</time>
      </trkpt>
      <trkpt lat="39.042416978627443" lon="-3.374439971521497">
        <ele>657.89999999999998</ele>
        <time>2003-04-20T20:17:11Z</time>
      </trkpt>
      <trkpt lat="39.04341802932322" lon="-3.374481964856386">
        <ele>658.20000000000005</ele>
        <time>2003-04-20T20:17:13Z</time>
      </trkpt>
      <trkpt lat="39.044423019513488" lon="-3.374524964019656">
        <ele>658.10000000000002</ele>
        <time>2003-04-20T20:17:16Z</time>
      </trkpt>
      <trkpt lat="39.045432033017278" lon="-3.374557988718152">
        <ele>657.29999999999995</ele>
        <time>2003-04-20T20:17:20Z</time>
      </trkpt>
      <trkpt lat="39.046446997672319" lon="-3.3745969645679">
        <ele>656.79999999999995</ele>
        <time>2003-04-20T20:17:23Z</time>
      </trkpt>
      <trkpt lat="39.047464979812503" lon="-3.374644992873073">
        <ele>656.39999999999998</ele>
        <time>2003-04-20T20:17:25Z</time>
      </trkpt>
      <trkpt lat="39.048486985266209" lon="-3.374695032835007">
        <ele>655.89999999999998</ele>
        <time>2003-04-20T20:17:28Z</time>
      </trkpt>
      <trkpt lat="39.049515025690198" lon="-3.374735014513135">
        <ele>655.39999999999998</ele>
        <time>2003-04-20T20:17:32Z</time>
      </trkpt>
      <trkpt lat="39.050547005608678" lon="-3.374771978706121">
        <ele>654.70000000000005</ele>
        <time>2003-04-20T20:17:35Z</time>
      </trkpt>
      <trkpt lat="39.0515820030123" lon="-3.374816989526153">
        <ele>654</ele>
        <time>2003-04-20T20:17:38Z</time>
      </trkpt>
      <trkpt lat="39.052617000415921" lon="-3.374857977032661">
        <ele>654.10000000000002</ele>
        <time>2003-04-20T20:17:40Z</time>
      </trkpt>
      <trkpt lat="39.053649986162782" lon="-3.374901982024312">
        <ele>654.70000000000005</ele>
        <time>2003-04-20T20:17:43Z</time>
      </trkpt>
      <trkpt lat="39.054675009101629" lon="-3.374942969530821">
        <ele>654.60000000000002</ele>
        <time>2003-04-20T20:17:47Z</time>
      </trkpt>
      <trkpt lat="39.055700032040477" lon="-3.37498496286571">
        <ele>653.5</ele>
        <time>2003-04-20T20:17:50Z</time>
      </trkpt>
      <trkpt lat="39.056727988645434" lon="-3.375029973685741">
        <ele>652.29999999999995</ele>
        <time>2003-04-20T20:17:52Z</time>
      </trkpt>
      <trkpt lat="39.057755023241043" lon="-3.37506702169776">
        <ele>652.20000000000005</ele>
        <time>2003-04-20T20:17:55Z</time>
      </trkpt>
      <trkpt lat="39.058775017037988" lon="-3.375093005597591">
        <ele>653.39999999999998</ele>
        <time>2003-04-20T20:17:59Z</time>
      </trkpt>
      <trkpt lat="39.059795010834932" lon="-3.375119995325804">
        <ele>654</ele>
        <time>2003-04-20T20:18:02Z</time>
      </trkpt>
      <trkpt lat="39.060812992975116" lon="-3.375150002539158">
        <ele>653.5</ele>
        <time>2003-04-20T20:18:05Z</time>
      </trkpt>
      <trkpt lat="39.061829969286919" lon="-3.375193001702428">
        <ele>653</ele>
        <time>2003-04-20T20:18:07Z</time>
      </trkpt>
      <trkpt lat="39.062847029417753" lon="-3.37526299059391">
        <ele>652.79999999999995</ele>
        <time>2003-04-20T20:18:10Z</time>
      </trkpt>
      <trkpt lat="39.063867023214698" lon="-3.375314958393574">
        <ele>652.70000000000005</ele>
        <time>2003-04-20T20:18:14Z</time>
      </trkpt>
      <trkpt lat="39.064862038940191" lon="-3.375355023890734">
        <ele>652.39999999999998</ele>
        <time>2003-04-20T20:18:17Z</time>
      </trkpt>
      <trkpt lat="39.065835010260344" lon="-3.375392993912101">
        <ele>652.29999999999995</ele>
        <time>2003-04-20T20:18:19Z</time>
      </trkpt>
      <trkpt lat="39.066809993237257" lon="-3.37543498724699">
        <ele>652.39999999999998</ele>
        <time>2003-04-20T20:18:22Z</time>
      </trkpt>
      <trkpt lat="39.06778497621417" lon="-3.375473041087389">
        <ele>651.89999999999998</ele>
        <time>2003-04-20T20:18:26Z</time>
      </trkpt>
      <trkpt lat="39.068761970847845" lon="-3.375517968088388">
        <ele>651.79999999999995</ele>
        <time>2003-04-20T20:18:29Z</time>
      </trkpt>
      <trkpt lat="39.069741982966661" lon="-3.375551998615265">
        <ele>651.60000000000002</ele>
        <time>2003-04-20T20:18:32Z</time>
      </trkpt>
      <trkpt lat="39.07072501257062" lon="-3.375592986121774">
        <ele>651.39999999999998</ele>
        <time>2003-04-20T20:18:34Z</time>
      </trkpt>
      <trkpt lat="39.071697983890772" lon="-3.375634979456663">
        <ele>651.10000000000002</ele>
        <time>2003-04-20T20:18:37Z</time>
      </trkpt>
      <trkpt lat="39.072646982967854" lon="-3.37567001581192">
        <ele>650.89999999999998</ele>
        <time>2003-04-20T20:18:41Z</time>
      </trkpt>
      <trkpt lat="39.073596987873316" lon="-3.375709997490048">
        <ele>650.60000000000002</ele>
        <time>2003-04-20T20:18:44Z</time>
      </trkpt>
      <trkpt lat="39.07455001026392" lon="-3.375746961683035">
        <ele>650.5</ele>
        <time>2003-04-20T20:18:46Z</time>
      </trkpt>
      <trkpt lat="39.075503032654524" lon="-3.375788033008575">
        <ele>650.60000000000002</ele>
        <time>2003-04-20T20:18:49Z</time>
      </trkpt>
      <trkpt lat="39.076452031731606" lon="-3.375827008858323">
        <ele>650.79999999999995</ele>
        <time>2003-04-20T20:18:53Z</time>
      </trkpt>
      <trkpt lat="39.077402036637068" lon="-3.375861961394548">
        <ele>651.10000000000002</ele>
        <time>2003-04-20T20:18:56Z</time>
      </trkpt>
      <trkpt lat="39.078352963551879" lon="-3.375904960557818">
        <ele>651.39999999999998</ele>
        <time>2003-04-20T20:18:59Z</time>
      </trkpt>
      <trkpt lat="39.079306991770864" lon="-3.375937985256314">
        <ele>651.29999999999995</ele>
        <time>2003-04-20T20:19:01Z</time>
      </trkpt>
      <trkpt lat="39.080264959484339" lon="-3.375979978591204">
        <ele>650.79999999999995</ele>
        <time>2003-04-20T20:19:04Z</time>
      </trkpt>
      <trkpt lat="39.081231979653239" lon="-3.376015014946461">
        <ele>650.5</ele>
        <time>2003-04-20T20:19:08Z</time>
      </trkpt>
      <trkpt lat="39.082203023135662" lon="-3.376054996624589">
        <ele>650.20000000000005</ele>
        <time>2003-04-20T20:19:11Z</time>
      </trkpt>
      <trkpt lat="39.083182029426098" lon="-3.376081986352801">
        <ele>649.89999999999998</ele>
        <time>2003-04-20T20:19:13Z</time>
      </trkpt>
      <trkpt lat="39.084162963554263" lon="-3.37610000744462">
        <ele>650</ele>
        <time>2003-04-20T20:19:16Z</time>
      </trkpt>
      <trkpt lat="39.085148004814982" lon="-3.376130014657974">
        <ele>650.10000000000002</ele>
        <time>2003-04-20T20:19:20Z</time>
      </trkpt>
      <trkpt lat="39.086137991398573" lon="-3.376175025478005">
        <ele>650.20000000000005</ele>
        <time>2003-04-20T20:19:23Z</time>
      </trkpt>
      <trkpt lat="39.087132001295686" lon="-3.376230010762811">
        <ele>650.39999999999998</ele>
        <time>2003-04-20T20:19:26Z</time>
      </trkpt>
      <trkpt lat="39.08813196234405" lon="-3.376287007704377">
        <ele>649.70000000000005</ele>
        <time>2003-04-20T20:19:28Z</time>
      </trkpt>
      <trkpt lat="39.089137958362699" lon="-3.37633796967566">
        <ele>649.10000000000002</ele>
        <time>2003-04-20T20:19:31Z</time>
      </trkpt>
      <trkpt lat="39.090146971866488" lon="-3.37637803517282">
        <ele>649.60000000000002</ele>
        <time>2003-04-20T20:19:35Z</time>
      </trkpt>
      <trkpt lat="39.091151962056756" lon="-3.376417011022568">
        <ele>650.60000000000002</ele>
        <time>2003-04-20T20:19:38Z</time>
      </trkpt>
      <trkpt lat="39.092129962518811" lon="-3.376457998529077">
        <ele>650.60000000000002</ele>
        <time>2003-04-20T20:19:40Z</time>
      </trkpt>
      <trkpt lat="39.093045014888048" lon="-3.376497980207205">
        <ele>650.10000000000002</ele>
        <time>2003-04-20T20:19:43Z</time>
      </trkpt>
      <trkpt lat="39.094243040308356" lon="-3.376548020169139">
        <ele>649.60000000000002</ele>
        <time>2003-04-20T20:19:47Z</time>
      </trkpt>
      <trkpt lat="39.095158008858562" lon="-3.376578027382493">
        <ele>649.5</ele>
        <time>2003-04-20T20:19:51Z</time>
      </trkpt>
      <trkpt lat="39.096087981015444" lon="-3.376622032374144">
        <ele>649.70000000000005</ele>
        <time>2003-04-20T20:19:54Z</time>
      </trkpt>
      <trkpt lat="39.097027005627751" lon="-3.37665799073875">
        <ele>649.79999999999995</ele>
        <time>2003-04-20T20:19:57Z</time>
      </trkpt>
      <trkpt lat="39.097959995269775" lon="-3.376696966588497">
        <ele>650.20000000000005</ele>
        <time>2003-04-20T20:19:59Z</time>
      </trkpt>
      <trkpt lat="39.098892984911799" lon="-3.376739965751767">
        <ele>650.79999999999995</ele>
        <time>2003-04-20T20:20:02Z</time>
      </trkpt>
      <trkpt lat="39.099835027009249" lon="-3.376775002107024">
        <ele>651.39999999999998</ele>
        <time>2003-04-20T20:20:06Z</time>
      </trkpt>
      <trkpt lat="39.100759970024228" lon="-3.376816995441914">
        <ele>651.39999999999998</ele>
        <time>2003-04-20T20:20:09Z</time>
      </trkpt>
      <trkpt lat="39.101681979373097" lon="-3.376856977120042">
        <ele>651</ele>
        <time>2003-04-20T20:20:11Z</time>
      </trkpt>
      <trkpt lat="39.102613041177392" lon="-3.376880027353764">
        <ele>651.29999999999995</ele>
        <time>2003-04-20T20:20:14Z</time>
      </trkpt>
      <trkpt lat="39.103557011112571" lon="-3.376922020688653">
        <ele>651.20000000000005</ele>
        <time>2003-04-20T20:20:18Z</time>
      </trkpt>
      <trkpt lat="39.104507016018033" lon="-3.376962002366781">
        <ele>651.20000000000005</ele>
        <time>2003-04-20T20:20:21Z</time>
      </trkpt>
      <trkpt lat="39.105461966246367" lon="-3.377005001530051">
        <ele>651.70000000000005</ele>
        <time>2003-04-20T20:20:24Z</time>
      </trkpt>
      <trkpt lat="39.106420017778873" lon="-3.377038026228547">
        <ele>652</ele>
        <time>2003-04-20T20:20:26Z</time>
      </trkpt>
      <trkpt lat="39.107383014634252" lon="-3.37706501595676">
        <ele>652</ele>
        <time>2003-04-20T20:20:29Z</time>
      </trkpt>
      <trkpt lat="39.108354980126023" lon="-3.377082031220198">
        <ele>652.10000000000002</ele>
        <time>2003-04-20T20:20:33Z</time>
      </trkpt>
      <trkpt lat="39.109331974759698" lon="-3.377114972099662">
        <ele>652</ele>
        <time>2003-04-20T20:20:36Z</time>
      </trkpt>
      <trkpt lat="39.110309975221753" lon="-3.377155037596822">
        <ele>652</ele>
        <time>2003-04-20T20:20:38Z</time>
      </trkpt>
      <trkpt lat="39.111297028139234" lon="-3.377201976254582">
        <ele>652.20000000000005</ele>
        <time>2003-04-20T20:20:41Z</time>
      </trkpt>
      <trkpt lat="39.112288020551205" lon="-3.377252016216517">
        <ele>652.20000000000005</ele>
        <time>2003-04-20T20:20:45Z</time>
      </trkpt>
      <trkpt lat="39.113284964114428" lon="-3.377310018986464">
        <ele>651.89999999999998</ele>
        <time>2003-04-20T20:20:48Z</time>
      </trkpt>
      <trkpt lat="39.114288026466966" lon="-3.377352012321353">
        <ele>651.39999999999998</ele>
        <time>2003-04-20T20:20:51Z</time>
      </trkpt>
      <trkpt lat="39.115293016657233" lon="-3.37738998234272">
        <ele>650.89999999999998</ele>
        <time>2003-04-20T20:20:53Z</time>
      </trkpt>
      <trkpt lat="39.116298006847501" lon="-3.377437004819512">
        <ele>650.60000000000002</ele>
        <time>2003-04-20T20:20:56Z</time>
      </trkpt>
      <trkpt lat="39.117301991209388" lon="-3.377476986497641">
        <ele>651.10000000000002</ele>
        <time>2003-04-20T20:21:00Z</time>
      </trkpt>
      <trkpt lat="39.118300024420023" lon="-3.377512022852898">
        <ele>651.60000000000002</ele>
        <time>2003-04-20T20:21:03Z</time>
      </trkpt>
      <trkpt lat="39.119297973811626" lon="-3.377528032287955">
        <ele>651.39999999999998</ele>
        <time>2003-04-20T20:21:05Z</time>
      </trkpt>
      <trkpt lat="39.120297012850642" lon="-3.377559967339039">
        <ele>651.10000000000002</ele>
        <time>2003-04-20T20:21:08Z</time>
      </trkpt>
      <trkpt lat="39.121294962242246" lon="-3.377602966502309">
        <ele>650.70000000000005</ele>
        <time>2003-04-20T20:21:12Z</time>
      </trkpt>
      <trkpt lat="39.122298024594784" lon="-3.377640014514327">
        <ele>650.29999999999995</ele>
        <time>2003-04-20T20:21:15Z</time>
      </trkpt>
      <trkpt lat="39.123302008956671" lon="-3.377676978707314">
        <ele>649.89999999999998</ele>
        <time>2003-04-20T20:21:18Z</time>
      </trkpt>
      <trkpt lat="39.124301970005035" lon="-3.377719977870584">
        <ele>650</ele>
        <time>2003-04-20T20:21:20Z</time>
      </trkpt>
      <trkpt lat="39.125282987952232" lon="-3.377800025045872">
        <ele>650.20000000000005</ele>
        <time>2003-04-20T20:21:23Z</time>
      </trkpt>
      <trkpt lat="39.126247996464372" lon="-3.377932962030172">
        <ele>649.89999999999998</ele>
        <time>2003-04-20T20:21:27Z</time>
      </trkpt>
      <trkpt lat="39.127204958349466" lon="-3.3781180344522">
        <ele>649.10000000000002</ele>
        <time>2003-04-20T20:21:30Z</time>
      </trkpt>
      <trkpt lat="39.128150017932057" lon="-3.378360019996762">
        <ele>648.39999999999998</ele>
        <time>2003-04-20T20:21:32Z</time>
      </trkpt>
      <trkpt lat="39.129073033109307" lon="-3.378673000261188">
        <ele>648.5</ele>
        <time>2003-04-20T20:21:35Z</time>
      </trkpt>
      <trkpt lat="39.129984984174371" lon="-3.379008024930954">
        <ele>649.5</ele>
        <time>2003-04-20T20:21:39Z</time>
      </trkpt>
      <trkpt lat="39.130895007401705" lon="-3.379352018237114">
        <ele>650.20000000000005</ele>
        <time>2003-04-20T20:21:42Z</time>
      </trkpt>
      <trkpt lat="39.131805030629039" lon="-3.379697017371655">
        <ele>650.5</ele>
        <time>2003-04-20T20:21:45Z</time>
      </trkpt>
      <trkpt lat="39.132725028321147" lon="-3.380036987364292">
        <ele>650.70000000000005</ele>
        <time>2003-04-20T20:21:47Z</time>
      </trkpt>
      <trkpt lat="39.133652988821268" lon="-3.380373017862439">
        <ele>650.89999999999998</ele>
        <time>2003-04-20T20:21:50Z</time>
      </trkpt>
      <trkpt lat="39.13458002731204" lon="-3.380735032260418">
        <ele>651.29999999999995</ele>
        <time>2003-04-20T20:21:54Z</time>
      </trkpt>
      <trkpt lat="39.135512011125684" lon="-3.381093023344874">
        <ele>651.39999999999998</ele>
        <time>2003-04-20T20:21:57Z</time>
      </trkpt>
      <trkpt lat="39.136452041566372" lon="-3.381459983065724">
        <ele>650.10000000000002</ele>
        <time>2003-04-20T20:21:59Z</time>
      </trkpt>
      <trkpt lat="39.137398023158312" lon="-3.381829960271716">
        <ele>649</ele>
        <time>2003-04-20T20:22:02Z</time>
      </trkpt>
      <trkpt lat="39.138350039720535" lon="-3.382189963012934">
        <ele>647.89999999999998</ele>
        <time>2003-04-20T20:22:06Z</time>
      </trkpt>
      <trkpt lat="39.139304989948869" lon="-3.382543008774519">
        <ele>648</ele>
        <time>2003-04-20T20:22:09Z</time>
      </trkpt>
      <trkpt lat="39.14025298319757" lon="-3.382907034829259">
        <ele>649.29999999999995</ele>
        <time>2003-04-20T20:22:12Z</time>
      </trkpt>
      <trkpt lat="39.141202988103032" lon="-3.38325496762991">
        <ele>650.39999999999998</ele>
        <time>2003-04-20T20:22:14Z</time>
      </trkpt>
      <trkpt lat="39.142152993008494" lon="-3.383614970371127">
        <ele>650.60000000000002</ele>
        <time>2003-04-20T20:22:17Z</time>
      </trkpt>
      <trkpt lat="39.14310802705586" lon="-3.383970027789474">
        <ele>650.70000000000005</ele>
        <time>2003-04-20T20:22:21Z</time>
      </trkpt>
      <trkpt lat="39.144062977284193" lon="-3.384340004995465">
        <ele>650.79999999999995</ele>
        <time>2003-04-20T20:22:24Z</time>
      </trkpt>
      <trkpt lat="39.145029997453094" lon="-3.384700007736683">
        <ele>650.60000000000002</ele>
        <time>2003-04-20T20:22:26Z</time>
      </trkpt>
      <trkpt lat="39.145998023450375" lon="-3.385057998821139">
        <ele>650.39999999999998</ele>
        <time>2003-04-20T20:22:29Z</time>
      </trkpt>
      <trkpt lat="39.146972000598907" lon="-3.385426970198751">
        <ele>650.10000000000002</ele>
        <time>2003-04-20T20:22:33Z</time>
      </trkpt>
      <trkpt lat="39.147950001060963" lon="-3.385797031223774">
        <ele>650</ele>
        <time>2003-04-20T20:22:36Z</time>
      </trkpt>
      <trkpt lat="39.148930013179779" lon="-3.386162985116243">
        <ele>650.20000000000005</ele>
        <time>2003-04-20T20:22:39Z</time>
      </trkpt>
      <trkpt lat="39.149908013641834" lon="-3.386528016999364">
        <ele>650.89999999999998</ele>
        <time>2003-04-20T20:22:41Z</time>
      </trkpt>
      <trkpt lat="39.150890037417412" lon="-3.386900005862117">
        <ele>650.5</ele>
        <time>2003-04-20T20:22:44Z</time>
      </trkpt>
      <trkpt lat="39.151874994859099" lon="-3.387269983068109">
        <ele>650.29999999999995</ele>
        <time>2003-04-20T20:22:48Z</time>
      </trkpt>
      <trkpt lat="39.152855006977916" lon="-3.3876399602741">
        <ele>651.39999999999998</ele>
        <time>2003-04-20T20:22:51Z</time>
      </trkpt>
      <trkpt lat="39.153838036581874" lon="-3.388008009642363">
        <ele>651.5</ele>
        <time>2003-04-20T20:22:53Z</time>
      </trkpt>
      <trkpt lat="39.154828023165464" lon="-3.388379998505116">
        <ele>650.20000000000005</ele>
        <time>2003-04-20T20:22:56Z</time>
      </trkpt>
      <trkpt lat="39.155824966728687" lon="-3.388749975711107">
        <ele>649.79999999999995</ele>
        <time>2003-04-20T20:23:00Z</time>
      </trkpt>
      <trkpt lat="39.156825011596084" lon="-3.389130011200905">
        <ele>649.70000000000005</ele>
        <time>2003-04-20T20:23:03Z</time>
      </trkpt>
      <trkpt lat="39.157824972644448" lon="-3.389509962871671">
        <ele>649.89999999999998</ele>
        <time>2003-04-20T20:23:06Z</time>
      </trkpt>
      <trkpt lat="39.158787969499826" lon="-3.38987197726965">
        <ele>651</ele>
        <time>2003-04-20T20:23:08Z</time>
      </trkpt>
      <trkpt lat="39.159743003547192" lon="-3.390228040516377">
        <ele>651.5</ele>
        <time>2003-04-20T20:23:11Z</time>
      </trkpt>
      <trkpt lat="39.160704994574189" lon="-3.390587037429214">
        <ele>651.29999999999995</ele>
        <time>2003-04-20T20:23:15Z</time>
      </trkpt>
      <trkpt lat="39.161675032228231" lon="-3.39094796217978">
        <ele>651</ele>
        <time>2003-04-20T20:23:18Z</time>
      </trkpt>
      <trkpt lat="39.162644986063242" lon="-3.391322968527675">
        <ele>651.20000000000005</ele>
        <time>2003-04-20T20:23:20Z</time>
      </trkpt>
      <trkpt lat="39.163618041202426" lon="-3.391682971268892">
        <ele>652</ele>
        <time>2003-04-20T20:23:23Z</time>
      </trkpt>
      <trkpt lat="39.164595035836101" lon="-3.392052026465535">
        <ele>651.89999999999998</ele>
        <time>2003-04-20T20:23:27Z</time>
      </trkpt>
      <trkpt lat="39.165579993277788" lon="-3.392425021156669">
        <ele>650.89999999999998</ele>
        <time>2003-04-20T20:23:30Z</time>
      </trkpt>
      <trkpt lat="39.166567968204618" lon="-3.392789969220758">
        <ele>651.29999999999995</ele>
        <time>2003-04-20T20:23:33Z</time>
      </trkpt>
      <trkpt lat="39.167559966444969" lon="-3.393166987225413">
        <ele>651.29999999999995</ele>
        <time>2003-04-20T20:23:35Z</time>
      </trkpt>
      <trkpt lat="39.168552970513701" lon="-3.39354501105845">
        <ele>651.29999999999995</ele>
        <time>2003-04-20T20:23:38Z</time>
      </trkpt>
      <trkpt lat="39.16955703869462" lon="-3.393922029063106">
        <ele>651.10000000000002</ele>
        <time>2003-04-20T20:23:42Z</time>
      </trkpt>
      <trkpt lat="39.170564962550998" lon="-3.394292006269097">
        <ele>650.79999999999995</ele>
        <time>2003-04-20T20:23:45Z</time>
      </trkpt>
      <trkpt lat="39.171576993539929" lon="-3.394676987081766">
        <ele>649.89999999999998</ele>
        <time>2003-04-20T20:23:47Z</time>
      </trkpt>
      <trkpt lat="39.172592964023352" lon="-3.395060040056706">
        <ele>649</ele>
        <time>2003-04-20T20:23:50Z</time>
      </trkpt>
      <trkpt lat="39.173613041639328" lon="-3.395442003384233">
        <ele>648.20000000000005</ele>
        <time>2003-04-20T20:23:54Z</time>
      </trkpt>
      <trkpt lat="39.17462800629437" lon="-3.395830001682043">
        <ele>648.79999999999995</ele>
        <time>2003-04-20T20:23:57Z</time>
      </trkpt>
      <trkpt lat="39.175635008141398" lon="-3.396205008029938">
        <ele>650.60000000000002</ele>
        <time>2003-04-20T20:24:00Z</time>
      </trkpt>
      <trkpt lat="39.176637986674905" lon="-3.39657498523593">
        <ele>651</ele>
        <time>2003-04-20T20:24:02Z</time>
      </trkpt>
      <trkpt lat="39.177639959380031" lon="-3.396958038210869">
        <ele>650.39999999999998</ele>
        <time>2003-04-20T20:24:05Z</time>
      </trkpt>
      <trkpt lat="39.178643021732569" lon="-3.397340001538396">
        <ele>650.20000000000005</ele>
        <time>2003-04-20T20:24:09Z</time>
      </trkpt>
      <trkpt lat="39.179637031629682" lon="-3.397705033421516">
        <ele>651.5</ele>
        <time>2003-04-20T20:24:13Z</time>
      </trkpt>
      <trkpt lat="39.180625006556511" lon="-3.398071993142366">
        <ele>651.60000000000002</ele>
        <time>2003-04-20T20:24:14Z</time>
      </trkpt>
      <trkpt lat="39.181614993140101" lon="-3.398450016975403">
        <ele>651.20000000000005</ele>
        <time>2003-04-20T20:24:17Z</time>
      </trkpt>
      <trkpt lat="39.182607997208834" lon="-3.398829968646169">
        <ele>650.89999999999998</ele>
        <time>2003-04-20T20:24:21Z</time>
      </trkpt>
      <trkpt lat="39.183605024591088" lon="-3.39919701218605">
        <ele>650.5</ele>
        <time>2003-04-20T20:24:24Z</time>
      </trkpt>
      <trkpt lat="39.184598028659821" lon="-3.399575036019087">
        <ele>649.60000000000002</ele>
        <time>2003-04-20T20:24:27Z</time>
      </trkpt>
      <trkpt lat="39.185594972223043" lon="-3.399960016831756">
        <ele>649.10000000000002</ele>
        <time>2003-04-20T20:24:29Z</time>
      </trkpt>
      <trkpt lat="39.18659501709044" lon="-3.400327982380986">
        <ele>649.70000000000005</ele>
        <time>2003-04-20T20:24:32Z</time>
      </trkpt>
      <trkpt lat="39.187590032815933" lon="-3.400707012042403">
        <ele>650.29999999999995</ele>
        <time>2003-04-20T20:24:36Z</time>
      </trkpt>
      <trkpt lat="39.188580019399524" lon="-3.401070032268763">
        <ele>650.79999999999995</ele>
        <time>2003-04-20T20:24:39Z</time>
      </trkpt>
      <trkpt lat="39.189566988497972" lon="-3.401421988382936">
        <ele>650.5</ele>
        <time>2003-04-20T20:24:41Z</time>
      </trkpt>
      <trkpt lat="39.190507018938661" lon="-3.401760030537844">
        <ele>650.5</ele>
        <time>2003-04-20T20:24:44Z</time>
      </trkpt>
      <trkpt lat="39.191604964435101" lon="-3.402169989421964">
        <ele>650.89999999999998</ele>
        <time>2003-04-20T20:24:48Z</time>
      </trkpt>
      <trkpt lat="39.192623030394316" lon="-3.402554970234633">
        <ele>650.70000000000005</ele>
        <time>2003-04-20T20:24:52Z</time>
      </trkpt>
      <trkpt lat="39.193676970899105" lon="-3.402947997674346">
        <ele>650.10000000000002</ele>
        <time>2003-04-20T20:24:56Z</time>
      </trkpt>
      <trkpt lat="39.194767037406564" lon="-3.403367009013891">
        <ele>649.5</ele>
        <time>2003-04-20T20:25:00Z</time>
      </trkpt>
      <trkpt lat="39.195889960974455" lon="-3.403787026181817">
        <ele>650.29999999999995</ele>
        <time>2003-04-20T20:25:04Z</time>
      </trkpt>
      <trkpt lat="39.197029983624816" lon="-3.404239984229207">
        <ele>651.20000000000005</ele>
        <time>2003-04-20T20:25:08Z</time>
      </trkpt>
      <trkpt lat="39.197902036830783" lon="-3.404609961435199">
        <ele>650.70000000000005</ele>
        <time>2003-04-20T20:25:11Z</time>
      </trkpt>
      <trkpt lat="39.198794960975647" lon="-3.404987985268235">
        <ele>649.20000000000005</ele>
        <time>2003-04-20T20:25:15Z</time>
      </trkpt>
      <trkpt lat="39.199701966717839" lon="-3.40538302436471">
        <ele>647.70000000000005</ele>
        <time>2003-04-20T20:25:18Z</time>
      </trkpt>
      <trkpt lat="39.20062699355185" lon="-3.405782002955675">
        <ele>646.20000000000005</ele>
        <time>2003-04-20T20:25:21Z</time>
      </trkpt>
      <trkpt lat="39.201556965708733" lon="-3.406188022345305">
        <ele>645.89999999999998</ele>
        <time>2003-04-20T20:25:23Z</time>
      </trkpt>
      <trkpt lat="39.202488027513027" lon="-3.406584989279509">
        <ele>646.70000000000005</ele>
        <time>2003-04-20T20:25:26Z</time>
      </trkpt>
      <trkpt lat="39.203411964699626" lon="-3.406978016719222">
        <ele>648.20000000000005</ele>
        <time>2003-04-20T20:25:30Z</time>
      </trkpt>
      <trkpt lat="39.204322993755341" lon="-3.407371966168284">
        <ele>648.70000000000005</ele>
        <time>2003-04-20T20:25:33Z</time>
      </trkpt>
      <trkpt lat="39.205452036112547" lon="-3.407859960570931">
        <ele>648.20000000000005</ele>
        <time>2003-04-20T20:25:37Z</time>
      </trkpt>
      <trkpt lat="39.206543024629354" lon="-3.408351978287101">
        <ele>648</ele>
        <time>2003-04-20T20:25:41Z</time>
      </trkpt>
      <trkpt lat="39.207644993439317" lon="-3.408841984346509">
        <ele>647.70000000000005</ele>
        <time>2003-04-20T20:25:45Z</time>
      </trkpt>
      <trkpt lat="39.208776969462633" lon="-3.409338025376201">
        <ele>647.20000000000005</ele>
        <time>2003-04-20T20:25:49Z</time>
      </trkpt>
      <trkpt lat="39.209650028496981" lon="-3.409714959561825">
        <ele>647.39999999999998</ele>
        <time>2003-04-20T20:25:52Z</time>
      </trkpt>
      <trkpt lat="39.210540018975735" lon="-3.410100024193525">
        <ele>647.20000000000005</ele>
        <time>2003-04-20T20:25:54Z</time>
      </trkpt>
      <trkpt lat="39.211452975869179" lon="-3.410485005006194">
        <ele>646.79999999999995</ele>
        <time>2003-04-20T20:25:57Z</time>
      </trkpt>
      <trkpt lat="39.21237800270319" lon="-3.410882977768779">
        <ele>646.29999999999995</ele>
        <time>2003-04-20T20:26:01Z</time>
      </trkpt>
      <trkpt lat="39.213317027315497" lon="-3.411293020471931">
        <ele>645.60000000000002</ele>
        <time>2003-04-20T20:26:04Z</time>
      </trkpt>
      <trkpt lat="39.21426703222096" lon="-3.411707002669573">
        <ele>645.60000000000002</ele>
        <time>2003-04-20T20:26:06Z</time>
      </trkpt>
      <trkpt lat="39.215228017419577" lon="-3.412113022059202">
        <ele>646.10000000000002</ele>
        <time>2003-04-20T20:26:09Z</time>
      </trkpt>
      <trkpt lat="39.216148015111685" lon="-3.412504959851503">
        <ele>645.29999999999995</ele>
        <time>2003-04-20T20:26:13Z</time>
      </trkpt>
      <trkpt lat="39.217285020276904" lon="-3.412992032244802">
        <ele>643.60000000000002</ele>
        <time>2003-04-20T20:26:16Z</time>
      </trkpt>
      <trkpt lat="39.218163024634123" lon="-3.413320016115904">
        <ele>643.60000000000002</ele>
        <time>2003-04-20T20:26:20Z</time>
      </trkpt>
      <trkpt lat="39.219080004841089" lon="-3.413565019145608">
        <ele>643.5</ele>
        <time>2003-04-20T20:26:24Z</time>
      </trkpt>
      <trkpt lat="39.220043001696467" lon="-3.413667026907206">
        <ele>643.5</ele>
        <time>2003-04-20T20:26:27Z</time>
      </trkpt>
      <trkpt lat="39.220702992752194" lon="-3.413671972230077">
        <ele>643.39999999999998</ele>
        <time>2003-04-20T20:26:28Z</time>
      </trkpt>
      <trkpt lat="39.221703037619591" lon="-3.413597038015723">
        <ele>642.89999999999998</ele>
        <time>2003-04-20T20:26:32Z</time>
      </trkpt>
      <trkpt lat="39.222718002274632" lon="-3.41331297531724">
        <ele>642.20000000000005</ele>
        <time>2003-04-20T20:26:35Z</time>
      </trkpt>
      <trkpt lat="39.223727015778422" lon="-3.41288298368454">
        <ele>641.60000000000002</ele>
        <time>2003-04-20T20:26:38Z</time>
      </trkpt>
      <trkpt lat="39.224727982655168" lon="-3.412357019260526">
        <ele>641.29999999999995</ele>
        <time>2003-04-20T20:26:40Z</time>
      </trkpt>
      <trkpt lat="39.225704977288842" lon="-3.411844968795776">
        <ele>641</ele>
        <time>2003-04-20T20:26:43Z</time>
      </trkpt>
      <trkpt lat="39.226637966930866" lon="-3.411401985213161">
        <ele>640.70000000000005</ele>
        <time>2003-04-20T20:26:47Z</time>
      </trkpt>
      <trkpt lat="39.227606998756528" lon="-3.411069978028536">
        <ele>640.20000000000005</ele>
        <time>2003-04-20T20:26:50Z</time>
      </trkpt>
      <trkpt lat="39.228592962026596" lon="-3.410878032445908">
        <ele>639.70000000000005</ele>
        <time>2003-04-20T20:26:52Z</time>
      </trkpt>
      <trkpt lat="39.229582026600838" lon="-3.410839978605509">
        <ele>639.60000000000002</ele>
        <time>2003-04-20T20:26:55Z</time>
      </trkpt>
      <trkpt lat="39.230564972385764" lon="-3.410917008295655">
        <ele>639</ele>
        <time>2003-04-20T20:26:59Z</time>
      </trkpt>
      <trkpt lat="39.231516988947988" lon="-3.411037037149072">
        <ele>637.79999999999995</ele>
        <time>2003-04-20T20:27:02Z</time>
      </trkpt>
      <trkpt lat="39.232455007731915" lon="-3.411172991618514">
        <ele>636.70000000000005</ele>
        <time>2003-04-20T20:27:05Z</time>
      </trkpt>
      <trkpt lat="39.233414987102151" lon="-3.411320010200143">
        <ele>636.39999999999998</ele>
        <time>2003-04-20T20:27:07Z</time>
      </trkpt>
      <trkpt lat="39.234394999220967" lon="-3.411442972719669">
        <ele>636</ele>
        <time>2003-04-20T20:27:10Z</time>
      </trkpt>
      <trkpt lat="39.235392026603222" lon="-3.411568030714989">
        <ele>635.39999999999998</ele>
        <time>2003-04-20T20:27:14Z</time>
      </trkpt>
      <trkpt lat="39.236397016793489" lon="-3.411695016548038">
        <ele>635.20000000000005</ele>
        <time>2003-04-20T20:27:17Z</time>
      </trkpt>
      <trkpt lat="39.237418016418815" lon="-3.411829965189099">
        <ele>634.89999999999998</ele>
        <time>2003-04-20T20:27:19Z</time>
      </trkpt>
      <trkpt lat="39.238453013822436" lon="-3.411986958235502">
        <ele>633.79999999999995</ele>
        <time>2003-04-20T20:27:22Z</time>
      </trkpt>
      <trkpt lat="39.23949203453958" lon="-3.412260040640831">
        <ele>631.60000000000002</ele>
        <time>2003-04-20T20:27:26Z</time>
      </trkpt>
      <trkpt lat="39.240513034164906" lon="-3.41269196011126">
        <ele>629.29999999999995</ele>
        <time>2003-04-20T20:27:29Z</time>
      </trkpt>
      <trkpt lat="39.241482987999916" lon="-3.41331297531724">
        <ele>628.29999999999995</ele>
        <time>2003-04-20T20:27:32Z</time>
      </trkpt>
      <trkpt lat="39.242382030934095" lon="-3.4140869602561">
        <ele>628.60000000000002</ele>
        <time>2003-04-20T20:27:34Z</time>
      </trkpt>
      <trkpt lat="39.243191974237561" lon="-3.415007963776588">
        <ele>628.79999999999995</ele>
        <time>2003-04-20T20:27:37Z</time>
      </trkpt>
      <trkpt lat="39.243909968063235" lon="-3.416027035564184">
        <ele>628.39999999999998</ele>
        <time>2003-04-20T20:27:41Z</time>
      </trkpt>
      <trkpt lat="39.244495024904609" lon="-3.417154988273978">
        <ele>627.5</ele>
        <time>2003-04-20T20:27:44Z</time>
      </trkpt>
      <trkpt lat="39.244955023750663" lon="-3.418357037007809">
        <ele>627.39999999999998</ele>
        <time>2003-04-20T20:27:46Z</time>
      </trkpt>
      <trkpt lat="39.245283007621765" lon="-3.419594960287213">
        <ele>628.29999999999995</ele>
        <time>2003-04-20T20:27:49Z</time>
      </trkpt>
      <trkpt lat="39.245502026751637" lon="-3.42083003371954">
        <ele>629.20000000000005</ele>
        <time>2003-04-20T20:27:53Z</time>
      </trkpt>
      <trkpt lat="39.245677040889859" lon="-3.422065023332834">
        <ele>630.20000000000005</ele>
        <time>2003-04-20T20:27:56Z</time>
      </trkpt>
      <trkpt lat="39.245843002572656" lon="-3.423313004896045">
        <ele>629.60000000000002</ele>
        <time>2003-04-20T20:27:59Z</time>
      </trkpt>
      <trkpt lat="39.246048023924232" lon="-3.424555035308003">
        <ele>629.70000000000005</ele>
        <time>2003-04-20T20:28:01Z</time>
      </trkpt>
      <trkpt lat="39.246350023895502" lon="-3.425778038799763">
        <ele>629.70000000000005</ele>
        <time>2003-04-20T20:28:04Z</time>
      </trkpt>
      <trkpt lat="39.246767023578286" lon="-3.42695795930922">
        <ele>629.79999999999995</ele>
        <time>2003-04-20T20:28:08Z</time>
      </trkpt>
      <trkpt lat="39.247298017144203" lon="-3.428069986402988">
        <ele>629.5</ele>
        <time>2003-04-20T20:28:11Z</time>
      </trkpt>
      <trkpt lat="39.247943004593253" lon="-3.429083023220301">
        <ele>629.39999999999998</ele>
        <time>2003-04-20T20:28:13Z</time>
      </trkpt>
      <trkpt lat="39.248674996197224" lon="-3.429990028962493">
        <ele>629.29999999999995</ele>
        <time>2003-04-20T20:28:16Z</time>
      </trkpt>
      <trkpt lat="39.249494997784495" lon="-3.430767031386495">
        <ele>629.10000000000002</ele>
        <time>2003-04-20T20:28:20Z</time>
      </trkpt>
      <trkpt lat="39.250377025455236" lon="-3.431425010785461">
        <ele>629.10000000000002</ele>
        <time>2003-04-20T20:28:23Z</time>
      </trkpt>
      <trkpt lat="39.251292999833822" lon="-3.432028004899621">
        <ele>629</ele>
        <time>2003-04-20T20:28:26Z</time>
      </trkpt>
      <trkpt lat="39.252224983647466" lon="-3.432614989578724">
        <ele>628.70000000000005</ele>
        <time>2003-04-20T20:28:28Z</time>
      </trkpt>
      <trkpt lat="39.253152022138238" lon="-3.433195017278194">
        <ele>628.89999999999998</ele>
        <time>2003-04-20T20:28:31Z</time>
      </trkpt>
      <trkpt lat="39.254062967374921" lon="-3.433776972815394">
        <ele>629.5</ele>
        <time>2003-04-20T20:28:35Z</time>
      </trkpt>
      <trkpt lat="39.254969973117113" lon="-3.434352977201343">
        <ele>629.79999999999995</ele>
        <time>2003-04-20T20:28:38Z</time>
      </trkpt>
      <trkpt lat="39.255827022716403" lon="-3.43492797575891">
        <ele>629.89999999999998</ele>
        <time>2003-04-20T20:28:40Z</time>
      </trkpt>
      <trkpt lat="39.256677031517029" lon="-3.435474978759885">
        <ele>630.70000000000005</ele>
        <time>2003-04-20T20:28:43Z</time>
      </trkpt>
      <trkpt lat="39.257527040317655" lon="-3.436015024781227">
        <ele>632</ele>
        <time>2003-04-20T20:28:47Z</time>
      </trkpt>
      <trkpt lat="39.258377971127629" lon="-3.436554986983538">
        <ele>633.10000000000002</ele>
        <time>2003-04-20T20:28:50Z</time>
      </trkpt>
      <trkpt lat="39.259226974099874" lon="-3.437092015519738">
        <ele>634.79999999999995</ele>
        <time>2003-04-20T20:28:53Z</time>
      </trkpt>
      <trkpt lat="39.260070025920868" lon="-3.437631977722049">
        <ele>636.89999999999998</ele>
        <time>2003-04-20T20:28:55Z</time>
      </trkpt>
      <trkpt lat="39.260911988094449" lon="-3.43817001208663">
        <ele>639</ele>
        <time>2003-04-20T20:28:58Z</time>
      </trkpt>
      <trkpt lat="39.261753028258681" lon="-3.43870704062283">
        <ele>640.5</ele>
        <time>2003-04-20T20:29:02Z</time>
      </trkpt>
      <trkpt lat="39.262598007917404" lon="-3.439239962026477">
        <ele>641.70000000000005</ele>
        <time>2003-04-20T20:29:05Z</time>
      </trkpt>
      <trkpt lat="39.263647003099322" lon="-3.43991001136601">
        <ele>643.10000000000002</ele>
        <time>2003-04-20T20:29:09Z</time>
      </trkpt>
      <trkpt lat="39.264657022431493" lon="-3.440562039613724">
        <ele>643.60000000000002</ele>
        <time>2003-04-20T20:29:13Z</time>
      </trkpt>
      <trkpt lat="39.265701994299889" lon="-3.441237034276128">
        <ele>644.10000000000002</ele>
        <time>2003-04-20T20:29:17Z</time>
      </trkpt>
      <trkpt lat="39.266507998108864" lon="-3.441753024235368">
        <ele>644.29999999999995</ele>
        <time>2003-04-20T20:29:20Z</time>
      </trkpt>
      <trkpt lat="39.267326993867755" lon="-3.442277982831001">
        <ele>644.70000000000005</ele>
        <time>2003-04-20T20:29:22Z</time>
      </trkpt>
      <trkpt lat="39.268165016546845" lon="-3.442802019417286">
        <ele>645</ele>
        <time>2003-04-20T20:29:25Z</time>
      </trkpt>
      <trkpt lat="39.269017037004232" lon="-3.443318009376526">
        <ele>645.29999999999995</ele>
        <time>2003-04-20T20:29:29Z</time>
      </trkpt>
      <trkpt lat="39.269867967814207" lon="-3.443865012377501">
        <ele>645.60000000000002</ele>
        <time>2003-04-20T20:29:32Z</time>
      </trkpt>
      <trkpt lat="39.270721999928355" lon="-3.444415032863617">
        <ele>646.10000000000002</ele>
        <time>2003-04-20T20:29:34Z</time>
      </trkpt>
      <trkpt lat="39.271579971536994" lon="-3.444972010329366">
        <ele>646.79999999999995</ele>
        <time>2003-04-20T20:29:37Z</time>
      </trkpt>
      <trkpt lat="39.272446995601058" lon="-3.445533011108637">
        <ele>647.5</ele>
        <time>2003-04-20T20:29:41Z</time>
      </trkpt>
      <trkpt lat="39.273319970816374" lon="-3.44609996303916">
        <ele>648.20000000000005</ele>
        <time>2003-04-20T20:29:44Z</time>
      </trkpt>
      <trkpt lat="39.27419001236558" lon="-3.446697006002069">
        <ele>649</ele>
        <time>2003-04-20T20:29:47Z</time>
      </trkpt>
      <trkpt lat="39.275076985359192" lon="-3.447266975417733">
        <ele>649.5</ele>
        <time>2003-04-20T20:29:49Z</time>
      </trkpt>
      <trkpt lat="39.275972004979849" lon="-3.447842979803681">
        <ele>648.89999999999998</ele>
        <time>2003-04-20T20:29:52Z</time>
      </trkpt>
      <trkpt lat="39.276878004893661" lon="-3.448423007503152">
        <ele>647.79999999999995</ele>
        <time>2003-04-20T20:29:56Z</time>
      </trkpt>
      <trkpt lat="39.277792973443866" lon="-3.449006974697113">
        <ele>646.89999999999998</ele>
        <time>2003-04-20T20:29:59Z</time>
      </trkpt>
      <trkpt lat="39.278718000277877" lon="-3.449597982689738">
        <ele>646.10000000000002</ele>
        <time>2003-04-20T20:30:01Z</time>
      </trkpt>
      <trkpt lat="39.279646966606379" lon="-3.450165018439293">
        <ele>646.10000000000002</ele>
        <time>2003-04-20T20:30:04Z</time>
      </trkpt>
      <trkpt lat="39.28055003285408" lon="-3.450732976198196">
        <ele>647</ele>
        <time>2003-04-20T20:30:08Z</time>
      </trkpt>
      <trkpt lat="39.281428037211299" lon="-3.451311998069286">
        <ele>647.89999999999998</ele>
        <time>2003-04-20T20:30:11Z</time>
      </trkpt>
      <trkpt lat="39.282302018254995" lon="-3.451865036040545">
        <ele>648.70000000000005</ele>
        <time>2003-04-20T20:30:14Z</time>
      </trkpt>
      <trkpt lat="39.283163007348776" lon="-3.452423019334674">
        <ele>649.5</ele>
        <time>2003-04-20T20:30:16Z</time>
      </trkpt>
      <trkpt lat="39.284022990614176" lon="-3.45297496765852">
        <ele>650.29999999999995</ele>
        <time>2003-04-20T20:30:19Z</time>
      </trkpt>
      <trkpt lat="39.284880040213466" lon="-3.453530017286539">
        <ele>651.20000000000005</ele>
        <time>2003-04-20T20:30:23Z</time>
      </trkpt>
      <trkpt lat="39.285734994336963" lon="-3.454088000580668">
        <ele>653.20000000000005</ele>
        <time>2003-04-20T20:30:26Z</time>
      </trkpt>
      <trkpt lat="39.286756999790668" lon="-3.454768024384975">
        <ele>656.70000000000005</ele>
        <time>2003-04-20T20:30:30Z</time>
      </trkpt>
      <trkpt lat="39.28770499303937" lon="-3.455375041812658">
        <ele>659.20000000000005</ele>
        <time>2003-04-20T20:30:34Z</time>
      </trkpt>
      <trkpt lat="39.288528012111783" lon="-3.455909974873066">
        <ele>659.79999999999995</ele>
        <time>2003-04-20T20:30:38Z</time>
      </trkpt>
      <trkpt lat="39.28938296623528" lon="-3.456457983702421">
        <ele>659.5</ele>
        <time>2003-04-20T20:30:42Z</time>
      </trkpt>
      <trkpt lat="39.290300030261278" lon="-3.45705796033144">
        <ele>658.39999999999998</ele>
        <time>2003-04-20T20:30:46Z</time>
      </trkpt>
      <trkpt lat="39.291194966062903" lon="-3.45765701495111">
        <ele>658.89999999999998</ele>
        <time>2003-04-20T20:30:50Z</time>
      </trkpt>
      <trkpt lat="39.292050004005432" lon="-3.458222039043903">
        <ele>659.5</ele>
        <time>2003-04-20T20:30:54Z</time>
      </trkpt>
      <trkpt lat="39.292928008362651" lon="-3.458801982924342">
        <ele>660</ele>
        <time>2003-04-20T20:30:58Z</time>
      </trkpt>
      <trkpt lat="39.293862003833055" lon="-3.459421992301941">
        <ele>660.5</ele>
        <time>2003-04-20T20:31:02Z</time>
      </trkpt>
      <trkpt lat="39.294836986809969" lon="-3.460066979750991">
        <ele>661.10000000000002</ele>
        <time>2003-04-20T20:31:06Z</time>
      </trkpt>
      <trkpt lat="39.295839965343475" lon="-3.460735017433763">
        <ele>661.60000000000002</ele>
        <time>2003-04-20T20:31:10Z</time>
      </trkpt>
      <trkpt lat="39.296873034909368" lon="-3.461416969075799">
        <ele>662.20000000000005</ele>
        <time>2003-04-20T20:31:13Z</time>
      </trkpt>
      <trkpt lat="39.297927981242537" lon="-3.462109984830022">
        <ele>663.39999999999998</ele>
        <time>2003-04-20T20:31:17Z</time>
      </trkpt>
      <trkpt lat="39.299004971981049" lon="-3.462801994755864">
        <ele>664.5</ele>
        <time>2003-04-20T20:31:21Z</time>
      </trkpt>
      <trkpt lat="39.299812987446785" lon="-3.463322008028626">
        <ele>664.70000000000005</ele>
        <time>2003-04-20T20:31:25Z</time>
      </trkpt>
      <trkpt lat="39.301396999508142" lon="-3.464367985725403">
        <ele>665.60000000000002</ele>
        <time>2003-04-20T20:31:30Z</time>
      </trkpt>
      <trkpt lat="39.302435014396906" lon="-3.465062007308006">
        <ele>666.60000000000002</ele>
        <time>2003-04-20T20:31:35Z</time>
      </trkpt>
      <trkpt lat="39.303462971001863" lon="-3.465738007798791">
        <ele>667.5</ele>
        <time>2003-04-20T20:31:39Z</time>
      </trkpt>
      <trkpt lat="39.304484976455569" lon="-3.466417025774717">
        <ele>668.60000000000002</ele>
        <time>2003-04-20T20:31:43Z</time>
      </trkpt>
      <trkpt lat="39.305425006896257" lon="-3.467042986303568">
        <ele>669.39999999999998</ele>
        <time>2003-04-20T20:31:47Z</time>
      </trkpt>
      <trkpt lat="39.306980017572641" lon="-3.468068009242415">
        <ele>670.29999999999995</ele>
        <time>2003-04-20T20:31:53Z</time>
      </trkpt>
      <trkpt lat="39.307890040799975" lon="-3.468645019456744">
        <ele>670.89999999999998</ele>
        <time>2003-04-20T20:31:57Z</time>
      </trkpt>
      <trkpt lat="39.30884700268507" lon="-3.469069981947541">
        <ele>671.5</ele>
        <time>2003-04-20T20:32:02Z</time>
      </trkpt>
      <trkpt lat="39.309828020632267" lon="-3.469314984977245">
        <ele>671.89999999999998</ele>
        <time>2003-04-20T20:32:06Z</time>
      </trkpt>
      <trkpt lat="39.310748018324375" lon="-3.469356978312135">
        <ele>671.79999999999995</ele>
        <time>2003-04-20T20:32:10Z</time>
      </trkpt>
      <trkpt lat="39.311668016016483" lon="-3.469265028834343">
        <ele>671.29999999999995</ele>
        <time>2003-04-20T20:32:14Z</time>
      </trkpt>
      <trkpt lat="39.312709970399737" lon="-3.468966968357563">
        <ele>670.5</ele>
        <time>2003-04-20T20:32:19Z</time>
      </trkpt>
      <trkpt lat="39.31374697946012" lon="-3.468672009184957">
        <ele>669.5</ele>
        <time>2003-04-20T20:32:23Z</time>
      </trkpt>
      <trkpt lat="39.314591959118843" lon="-3.468582993373275">
        <ele>669.10000000000002</ele>
        <time>2003-04-20T20:32:27Z</time>
      </trkpt>
      <trkpt lat="39.315242981538177" lon="-3.468669997528195">
        <ele>669.29999999999995</ele>
        <time>2003-04-20T20:32:31Z</time>
      </trkpt>
      <trkpt lat="39.315842036157846" lon="-3.468862026929855">
        <ele>669.60000000000002</ele>
        <time>2003-04-20T20:32:34Z</time>
      </trkpt>
      <trkpt lat="39.316611997783184" lon="-3.469269974157214">
        <ele>670.29999999999995</ele>
        <time>2003-04-20T20:32:38Z</time>
      </trkpt>
      <trkpt lat="39.317167969420552" lon="-3.469722010195255">
        <ele>670.89999999999998</ele>
        <time>2003-04-20T20:32:41Z</time>
      </trkpt>
      <trkpt lat="39.317683037370443" lon="-3.470298014581204">
        <ele>671.5</ele>
        <time>2003-04-20T20:32:45Z</time>
      </trkpt>
      <trkpt lat="39.318147981539369" lon="-3.470921963453293">
        <ele>671.70000000000005</ele>
        <time>2003-04-20T20:32:46Z</time>
      </trkpt>
      <trkpt lat="39.318739995360374" lon="-3.472012029960752">
        <ele>672.60000000000002</ele>
        <time>2003-04-20T20:32:51Z</time>
      </trkpt>
      <trkpt lat="39.319352963939309" lon="-3.473000004887581">
        <ele>673.70000000000005</ele>
        <time>2003-04-20T20:32:57Z</time>
      </trkpt>
      <trkpt lat="39.31965203024447" lon="-3.473366964608431">
        <ele>674.29999999999995</ele>
        <time>2003-04-20T20:32:58Z</time>
      </trkpt>
      <trkpt lat="39.320376981049776" lon="-3.474017987027764">
        <ele>675.29999999999995</ele>
        <time>2003-04-20T20:33:02Z</time>
      </trkpt>
      <trkpt lat="39.321226989850402" lon="-3.474598014727235">
        <ele>676.5</ele>
        <time>2003-04-20T20:33:06Z</time>
      </trkpt>
      <trkpt lat="39.322087978944182" lon="-3.475266974419355">
        <ele>677.60000000000002</ele>
        <time>2003-04-20T20:33:10Z</time>
      </trkpt>
      <trkpt lat="39.322919966652989" lon="-3.476053029298782">
        <ele>678.70000000000005</ele>
        <time>2003-04-20T20:33:14Z</time>
      </trkpt>
      <trkpt lat="39.323737034574151" lon="-3.476917035877705">
        <ele>679.60000000000002</ele>
        <time>2003-04-20T20:33:18Z</time>
      </trkpt>
      <trkpt lat="39.324410017579794" lon="-3.477482981979847">
        <ele>680.29999999999995</ele>
        <time>2003-04-20T20:33:21Z</time>
      </trkpt>
      <trkpt lat="39.325403021648526" lon="-3.478008024394512">
        <ele>681.29999999999995</ele>
        <time>2003-04-20T20:33:25Z</time>
      </trkpt>
      <trkpt lat="39.326192010194063" lon="-3.478227965533733">
        <ele>682</ele>
        <time>2003-04-20T20:33:28Z</time>
      </trkpt>
      <trkpt lat="39.326997008174658" lon="-3.478302983567119">
        <ele>682.70000000000005</ele>
        <time>2003-04-20T20:33:32Z</time>
      </trkpt>
      <trkpt lat="39.327267995104194" lon="-3.478287979960442">
        <ele>682.79999999999995</ele>
        <time>2003-04-20T20:33:32Z</time>
      </trkpt>
      <trkpt lat="39.328340040519834" lon="-3.478092011064291">
        <ele>683.89999999999998</ele>
        <time>2003-04-20T20:33:36Z</time>
      </trkpt>
      <trkpt lat="39.329383000731468" lon="-3.477944992482662">
        <ele>687.10000000000002</ele>
        <time>2003-04-20T20:33:40Z</time>
      </trkpt>
      <trkpt lat="39.329896979033947" lon="-3.477957984432578">
        <ele>688.5</ele>
        <time>2003-04-20T20:33:43Z</time>
      </trkpt>
      <trkpt lat="39.330401988700032" lon="-3.478053035214543">
        <ele>689.89999999999998</ele>
        <time>2003-04-20T20:33:44Z</time>
      </trkpt>
      <trkpt lat="39.331138003617525" lon="-3.478338019922376">
        <ele>690.5</ele>
        <time>2003-04-20T20:33:48Z</time>
      </trkpt>
      <trkpt lat="39.331607976928353" lon="-3.478628033772111">
        <ele>689.79999999999995</ele>
        <time>2003-04-20T20:33:50Z</time>
      </trkpt>
      <trkpt lat="39.332262016832829" lon="-3.479182999581099">
        <ele>687.39999999999998</ele>
        <time>2003-04-20T20:33:52Z</time>
      </trkpt>
      <trkpt lat="39.332838021218777" lon="-3.479856988415122">
        <ele>687.79999999999995</ele>
        <time>2003-04-20T20:33:55Z</time>
      </trkpt>
      <trkpt lat="39.333302965387702" lon="-3.480642959475517">
        <ele>688.70000000000005</ele>
        <time>2003-04-20T20:33:59Z</time>
      </trkpt>
      <trkpt lat="39.333917023614049" lon="-3.481709975749254">
        <ele>689.20000000000005</ele>
        <time>2003-04-20T20:34:03Z</time>
      </trkpt>
      <trkpt lat="39.334631999954581" lon="-3.482699962332845">
        <ele>689.89999999999998</ele>
        <time>2003-04-20T20:34:07Z</time>
      </trkpt>
      <trkpt lat="39.335473040118814" lon="-3.483547959476709">
        <ele>690.89999999999998</ele>
        <time>2003-04-20T20:34:11Z</time>
      </trkpt>
      <trkpt lat="39.336408041417599" lon="-3.484232006594539">
        <ele>692.60000000000002</ele>
        <time>2003-04-20T20:34:15Z</time>
      </trkpt>
      <trkpt lat="39.337392998859286" lon="-3.484714971855283">
        <ele>692.60000000000002</ele>
        <time>2003-04-20T20:34:19Z</time>
      </trkpt>
      <trkpt lat="39.338373010978103" lon="-3.48500800319016">
        <ele>692.70000000000005</ele>
        <time>2003-04-20T20:34:22Z</time>
      </trkpt>
      <trkpt lat="39.339367020875216" lon="-3.485183017328382">
        <ele>693.10000000000002</ele>
        <time>2003-04-20T20:34:26Z</time>
      </trkpt>
      <trkpt lat="39.34040998108685" lon="-3.48533196374774">
        <ele>693</ele>
        <time>2003-04-20T20:34:30Z</time>
      </trkpt>
      <trkpt lat="39.34148202650249" lon="-3.485536985099316">
        <ele>692.79999999999995</ele>
        <time>2003-04-20T20:34:34Z</time>
      </trkpt>
      <trkpt lat="39.34257997199893" lon="-3.485728008672595">
        <ele>693.70000000000005</ele>
        <time>2003-04-20T20:34:38Z</time>
      </trkpt>
      <trkpt lat="39.343665009364486" lon="-3.485967982560396">
        <ele>693.5</ele>
        <time>2003-04-20T20:34:42Z</time>
      </trkpt>
      <trkpt lat="39.344718027859926" lon="-3.486235029995441">
        <ele>694.10000000000002</ele>
        <time>2003-04-20T20:34:46Z</time>
      </trkpt>
      <trkpt lat="39.345795018598437" lon="-3.486505011096597">
        <ele>695</ele>
        <time>2003-04-20T20:34:50Z</time>
      </trkpt>
      <trkpt lat="39.3468969874084" lon="-3.486780021339655">
        <ele>694.60000000000002</ele>
        <time>2003-04-20T20:34:54Z</time>
      </trkpt>
      <trkpt lat="39.348004991188645" lon="-3.487055031582713">
        <ele>694.89999999999998</ele>
        <time>2003-04-20T20:34:58Z</time>
      </trkpt>
      <trkpt lat="39.349097991362214" lon="-3.487355019897223">
        <ele>696.60000000000002</ele>
        <time>2003-04-20T20:35:02Z</time>
      </trkpt>
      <trkpt lat="39.350197026506066" lon="-3.487642016261816">
        <ele>696.60000000000002</ele>
        <time>2003-04-20T20:35:06Z</time>
      </trkpt>
      <trkpt lat="39.351311987265944" lon="-3.487922977656126">
        <ele>698.20000000000005</ele>
        <time>2003-04-20T20:35:11Z</time>
      </trkpt>
      <trkpt lat="39.352437006309628" lon="-3.488157000392675">
        <ele>697.5</ele>
        <time>2003-04-20T20:35:15Z</time>
      </trkpt>
      <trkpt lat="39.353560013696551" lon="-3.488357998430729">
        <ele>696.39999999999998</ele>
        <time>2003-04-20T20:35:19Z</time>
      </trkpt>
      <trkpt lat="39.354698024690151" lon="-3.48859696649015">
        <ele>696.89999999999998</ele>
        <time>2003-04-20T20:35:23Z</time>
      </trkpt>
      <trkpt lat="39.355852967128158" lon="-3.488868037238717">
        <ele>697.60000000000002</ele>
        <time>2003-04-20T20:35:27Z</time>
      </trkpt>
      <trkpt lat="39.357032971456647" lon="-3.48915696144104">
        <ele>698.10000000000002</ele>
        <time>2003-04-20T20:35:31Z</time>
      </trkpt>
      <trkpt lat="39.357926985248923" lon="-3.489382015541196">
        <ele>698.5</ele>
        <time>2003-04-20T20:35:33Z</time>
      </trkpt>
      <trkpt lat="39.358828039839864" lon="-3.489602040499449">
        <ele>699</ele>
        <time>2003-04-20T20:35:36Z</time>
      </trkpt>
      <trkpt lat="39.359962027519941" lon="-3.489883001893759">
        <ele>699.5</ele>
        <time>2003-04-20T20:35:40Z</time>
      </trkpt>
      <trkpt lat="39.361104983836412" lon="-3.490177961066365">
        <ele>701.29999999999995</ele>
        <time>2003-04-20T20:35:44Z</time>
      </trkpt>
      <trkpt lat="39.362256992608309" lon="-3.490458000451326">
        <ele>704.60000000000002</ele>
        <time>2003-04-20T20:35:48Z</time>
      </trkpt>
      <trkpt lat="39.363410007208586" lon="-3.490750025957823">
        <ele>708</ele>
        <time>2003-04-20T20:35:52Z</time>
      </trkpt>
      <trkpt lat="39.364569978788495" lon="-3.491035010665655">
        <ele>710.60000000000002</ele>
        <time>2003-04-20T20:35:58Z</time>
      </trkpt>
      <trkpt lat="39.365734979510307" lon="-3.491393001750112">
        <ele>711.79999999999995</ele>
        <time>2003-04-20T20:36:00Z</time>
      </trkpt>
      <trkpt lat="39.366614995524287" lon="-3.49173498339951">
        <ele>711.89999999999998</ele>
        <time>2003-04-20T20:36:05Z</time>
      </trkpt>
      <trkpt lat="39.367508003488183" lon="-3.492096997797489">
        <ele>711.20000000000005</ele>
        <time>2003-04-20T20:36:07Z</time>
      </trkpt>
      <trkpt lat="39.368418026715517" lon="-3.492466975003481">
        <ele>710.39999999999998</ele>
        <time>2003-04-20T20:36:10Z</time>
      </trkpt>
      <trkpt lat="39.369346993044019" lon="-3.492842987179756">
        <ele>709.5</ele>
        <time>2003-04-20T20:36:14Z</time>
      </trkpt>
      <trkpt lat="39.370281994342804" lon="-3.493223022669554">
        <ele>708.79999999999995</ele>
        <time>2003-04-20T20:36:17Z</time>
      </trkpt>
      <trkpt lat="39.371205009520054" lon="-3.493592999875546">
        <ele>707.89999999999998</ele>
        <time>2003-04-20T20:36:19Z</time>
      </trkpt>
      <trkpt lat="39.372097011655569" lon="-3.493953002616763">
        <ele>707</ele>
        <time>2003-04-20T20:36:22Z</time>
      </trkpt>
      <trkpt lat="39.372963029891253" lon="-3.494307976216078">
        <ele>706.10000000000002</ele>
        <time>2003-04-20T20:36:26Z</time>
      </trkpt>
      <trkpt lat="39.374102968722582" lon="-3.494767975062132">
        <ele>705</ele>
        <time>2003-04-20T20:36:30Z</time>
      </trkpt>
      <trkpt lat="39.375167973339558" lon="-3.495193021371961">
        <ele>704</ele>
        <time>2003-04-20T20:36:34Z</time>
      </trkpt>
      <trkpt lat="39.37607497908175" lon="-3.495567021891475">
        <ele>703.39999999999998</ele>
        <time>2003-04-20T20:36:37Z</time>
      </trkpt>
      <trkpt lat="39.377015009522438" lon="-3.495944961905479">
        <ele>702.5</ele>
        <time>2003-04-20T20:36:41Z</time>
      </trkpt>
      <trkpt lat="39.377978006377816" lon="-3.496336983516812">
        <ele>701.70000000000005</ele>
        <time>2003-04-20T20:36:45Z</time>
      </trkpt>
      <trkpt lat="39.378955001011491" lon="-3.496733028441668">
        <ele>700.89999999999998</ele>
        <time>2003-04-20T20:36:49Z</time>
      </trkpt>
      <trkpt lat="39.379953034222126" lon="-3.497137036174536">
        <ele>700.70000000000005</ele>
        <time>2003-04-20T20:36:53Z</time>
      </trkpt>
      <trkpt lat="39.380958024412394" lon="-3.497537020593882">
        <ele>701.20000000000005</ele>
        <time>2003-04-20T20:36:57Z</time>
      </trkpt>
      <trkpt lat="39.381941976025701" lon="-3.497940022498369">
        <ele>701.79999999999995</ele>
        <time>2003-04-20T20:37:01Z</time>
      </trkpt>
      <trkpt lat="39.382958030328155" lon="-3.498349981382489">
        <ele>702</ele>
        <time>2003-04-20T20:37:05Z</time>
      </trkpt>
      <trkpt lat="39.383947011083364" lon="-3.498751977458596">
        <ele>701.39999999999998</ele>
        <time>2003-04-20T20:37:09Z</time>
      </trkpt>
      <trkpt lat="39.384957030415535" lon="-3.499154979363084">
        <ele>700.60000000000002</ele>
        <time>2003-04-20T20:37:13Z</time>
      </trkpt>
      <trkpt lat="39.385994961485267" lon="-3.499571979045868">
        <ele>699.89999999999998</ele>
        <time>2003-04-20T20:37:17Z</time>
      </trkpt>
      <trkpt lat="39.387058038264513" lon="-3.500001970678568">
        <ele>699.60000000000002</ele>
        <time>2003-04-20T20:37:21Z</time>
      </trkpt>
      <trkpt lat="39.388150032609701" lon="-3.500451995059848">
        <ele>699.60000000000002</ele>
        <time>2003-04-20T20:37:26Z</time>
      </trkpt>
      <trkpt lat="39.389289971441031" lon="-3.500897996127605">
        <ele>699.39999999999998</ele>
        <time>2003-04-20T20:37:30Z</time>
      </trkpt>
      <trkpt lat="39.390164958313107" lon="-3.501256993040443">
        <ele>699.39999999999998</ele>
        <time>2003-04-20T20:37:32Z</time>
      </trkpt>
      <trkpt lat="39.391052015125751" lon="-3.501614984124899">
        <ele>699.89999999999998</ele>
        <time>2003-04-20T20:37:35Z</time>
      </trkpt>
      <trkpt lat="39.391943011432886" lon="-3.501983033493161">
        <ele>700.39999999999998</ele>
        <time>2003-04-20T20:37:39Z</time>
      </trkpt>
      <trkpt lat="39.392838031053543" lon="-3.502346975728869">
        <ele>700.70000000000005</ele>
        <time>2003-04-20T20:37:42Z</time>
      </trkpt>
      <trkpt lat="39.393725004047155" lon="-3.502698009833694">
        <ele>701</ele>
        <time>2003-04-20T20:37:44Z</time>
      </trkpt>
      <trkpt lat="39.394856980070472" lon="-3.503158008679748">
        <ele>701.70000000000005</ele>
        <time>2003-04-20T20:37:48Z</time>
      </trkpt>
      <trkpt lat="39.395998008549213" lon="-3.50363502278924">
        <ele>702.10000000000002</ele>
        <time>2003-04-20T20:37:53Z</time>
      </trkpt>
      <trkpt lat="39.396877018734813" lon="-3.503984967246652">
        <ele>701.89999999999998</ele>
        <time>2003-04-20T20:37:55Z</time>
      </trkpt>
      <trkpt lat="39.39777203835547" lon="-3.504344969987869">
        <ele>701.29999999999995</ele>
        <time>2003-04-20T20:37:58Z</time>
      </trkpt>
      <trkpt lat="39.398669991642237" lon="-3.504713019356132">
        <ele>700.79999999999995</ele>
        <time>2003-04-20T20:38:02Z</time>
      </trkpt>
      <trkpt lat="39.399570040404797" lon="-3.505085008218885">
        <ele>700.29999999999995</ele>
        <time>2003-04-20T20:38:05Z</time>
      </trkpt>
      <trkpt lat="39.400458019226789" lon="-3.505448028445244">
        <ele>700.10000000000002</ele>
        <time>2003-04-20T20:38:07Z</time>
      </trkpt>
      <trkpt lat="39.401338035240769" lon="-3.505801996216178">
        <ele>699.70000000000005</ele>
        <time>2003-04-20T20:38:10Z</time>
      </trkpt>
      <trkpt lat="39.402470011264086" lon="-3.506265012547374">
        <ele>699.20000000000005</ele>
        <time>2003-04-20T20:38:14Z</time>
      </trkpt>
      <trkpt lat="39.403608022257686" lon="-3.506717970594764">
        <ele>699</ele>
        <time>2003-04-20T20:38:18Z</time>
      </trkpt>
      <trkpt lat="39.404474962502718" lon="-3.507067998871207">
        <ele>699.20000000000005</ele>
        <time>2003-04-20T20:38:22Z</time>
      </trkpt>
      <trkpt lat="39.405356990173459" lon="-3.507422972470522">
        <ele>699.60000000000002</ele>
        <time>2003-04-20T20:38:25Z</time>
      </trkpt>
      <trkpt lat="39.406249998137355" lon="-3.507757997140288">
        <ele>699.89999999999998</ele>
        <time>2003-04-20T20:38:28Z</time>
      </trkpt>
      <trkpt lat="39.407136971130967" lon="-3.508107019588351">
        <ele>700</ele>
        <time>2003-04-20T20:38:30Z</time>
      </trkpt>
      <trkpt lat="39.408016987144947" lon="-3.508468028157949">
        <ele>700.20000000000005</ele>
        <time>2003-04-20T20:38:33Z</time>
      </trkpt>
      <trkpt lat="39.408889962360263" lon="-3.508827025070787">
        <ele>700.5</ele>
        <time>2003-04-20T20:38:37Z</time>
      </trkpt>
      <trkpt lat="39.409766960889101" lon="-3.509175041690469">
        <ele>700.70000000000005</ele>
        <time>2003-04-20T20:38:40Z</time>
      </trkpt>
      <trkpt lat="39.410647982731462" lon="-3.509534960612655">
        <ele>700.29999999999995</ele>
        <time>2003-04-20T20:38:42Z</time>
      </trkpt>
      <trkpt lat="39.411532022058964" lon="-3.509897980839014">
        <ele>699.79999999999995</ele>
        <time>2003-04-20T20:38:45Z</time>
      </trkpt>
      <trkpt lat="39.412414971739054" lon="-3.51025496609509">
        <ele>699.60000000000002</ele>
        <time>2003-04-20T20:38:49Z</time>
      </trkpt>
      <trkpt lat="39.413300016894937" lon="-3.510604994371533">
        <ele>699.20000000000005</ele>
        <time>2003-04-20T20:38:52Z</time>
      </trkpt>
      <trkpt lat="39.414190007373691" lon="-3.510970026254654">
        <ele>698.89999999999998</ele>
        <time>2003-04-20T20:38:55Z</time>
      </trkpt>
      <trkpt lat="39.415098018944263" lon="-3.511340003460646">
        <ele>698.70000000000005</ele>
        <time>2003-04-20T20:38:57Z</time>
      </trkpt>
      <trkpt lat="39.416017010807991" lon="-3.511718027293682">
        <ele>698.70000000000005</ele>
        <time>2003-04-20T20:39:00Z</time>
      </trkpt>
      <trkpt lat="39.416946982964873" lon="-3.512094961479306">
        <ele>699.10000000000002</ele>
        <time>2003-04-20T20:39:04Z</time>
      </trkpt>
      <trkpt lat="39.417888019233942" lon="-3.512472985312343">
        <ele>699.5</ele>
        <time>2003-04-20T20:39:07Z</time>
      </trkpt>
      <trkpt lat="39.418832994997501" lon="-3.51285201497376">
        <ele>699.89999999999998</ele>
        <time>2003-04-20T20:39:09Z</time>
      </trkpt>
      <trkpt lat="39.419781994074583" lon="-3.513246970251203">
        <ele>699.5</ele>
        <time>2003-04-20T20:39:12Z</time>
      </trkpt>
      <trkpt lat="39.420737028121948" lon="-3.513627005741">
        <ele>698.79999999999995</ele>
        <time>2003-04-20T20:39:16Z</time>
      </trkpt>
      <trkpt lat="39.421692984178662" lon="-3.514017015695572">
        <ele>698.89999999999998</ele>
        <time>2003-04-20T20:39:19Z</time>
      </trkpt>
      <trkpt lat="39.422645000740886" lon="-3.514408031478524">
        <ele>699.5</ele>
        <time>2003-04-20T20:39:22Z</time>
      </trkpt>
      <trkpt lat="39.423587964847684" lon="-3.514789994806051">
        <ele>700</ele>
        <time>2003-04-20T20:39:24Z</time>
      </trkpt>
      <trkpt lat="39.424521960318089" lon="-3.515165001153946">
        <ele>699.79999999999995</ele>
        <time>2003-04-20T20:39:27Z</time>
      </trkpt>
      <trkpt lat="39.4254469871521" lon="-3.515543024986982">
        <ele>699</ele>
        <time>2003-04-20T20:39:31Z</time>
      </trkpt>
      <trkpt lat="39.42634703591466" lon="-3.515911996364594">
        <ele>697.79999999999995</ele>
        <time>2003-04-20T20:39:34Z</time>
      </trkpt>
      <trkpt lat="39.42720802500844" lon="-3.516258001327515">
        <ele>696.29999999999995</ele>
        <time>2003-04-20T20:39:36Z</time>
      </trkpt>
      <trkpt lat="39.428070019930601" lon="-3.516608029603958">
        <ele>695.5</ele>
        <time>2003-04-20T20:39:39Z</time>
      </trkpt>
      <trkpt lat="39.428936960175633" lon="-3.516953028738499">
        <ele>696</ele>
        <time>2003-04-20T20:39:43Z</time>
      </trkpt>
      <trkpt lat="39.429812030866742" lon="-3.517306996509433">
        <ele>696.10000000000002</ele>
        <time>2003-04-20T20:39:46Z</time>
      </trkpt>
      <trkpt lat="39.4306880235672" lon="-3.517670016735792">
        <ele>696.10000000000002</ele>
        <time>2003-04-20T20:39:49Z</time>
      </trkpt>
      <trkpt lat="39.431572984904051" lon="-3.518022978678346">
        <ele>696.10000000000002</ele>
        <time>2003-04-20T20:39:51Z</time>
      </trkpt>
      <trkpt lat="39.432464987039566" lon="-3.518379963934422">
        <ele>696.29999999999995</ele>
        <time>2003-04-20T20:39:54Z</time>
      </trkpt>
      <trkpt lat="39.433362018316984" lon="-3.518742984160781">
        <ele>696.70000000000005</ele>
        <time>2003-04-20T20:39:58Z</time>
      </trkpt>
      <trkpt lat="39.43425795994699" lon="-3.519123019650579">
        <ele>697</ele>
        <time>2003-04-20T20:40:01Z</time>
      </trkpt>
      <trkpt lat="39.435147028416395" lon="-3.519525015726686">
        <ele>698.70000000000005</ele>
        <time>2003-04-20T20:40:03Z</time>
      </trkpt>
      <trkpt lat="39.436014974489808" lon="-3.519955007359386">
        <ele>701.70000000000005</ele>
        <time>2003-04-20T20:40:06Z</time>
      </trkpt>
      <trkpt lat="39.436864983290434" lon="-3.520403020083904">
        <ele>704.5</ele>
        <time>2003-04-20T20:40:10Z</time>
      </trkpt>
      <trkpt lat="39.437697976827621" lon="-3.52086503058672">
        <ele>706.39999999999998</ele>
        <time>2003-04-20T20:40:13Z</time>
      </trkpt>
      <trkpt lat="39.438795000314713" lon="-3.521486967802048">
        <ele>707.60000000000002</ele>
        <time>2003-04-20T20:40:17Z</time>
      </trkpt>
      <trkpt lat="39.439854975789785" lon="-3.522097002714872">
        <ele>707.5</ele>
        <time>2003-04-20T20:40:21Z</time>
      </trkpt>
      <trkpt lat="39.440859965980053" lon="-3.522667977958918">
        <ele>706.20000000000005</ele>
        <time>2003-04-20T20:40:25Z</time>
      </trkpt>
      <trkpt lat="39.441837966442108" lon="-3.523216992616653">
        <ele>703.89999999999998</ele>
        <time>2003-04-20T20:40:29Z</time>
      </trkpt>
      <trkpt lat="39.442814961075783" lon="-3.523780005052686">
        <ele>700.70000000000005</ele>
        <time>2003-04-20T20:40:33Z</time>
      </trkpt>
      <trkpt lat="39.44381701759994" lon="-3.524351986125112">
        <ele>697.79999999999995</ele>
        <time>2003-04-20T20:40:37Z</time>
      </trkpt>
      <trkpt lat="39.444712959229946" lon="-3.524893037974834">
        <ele>695.20000000000005</ele>
        <time>2003-04-20T20:40:40Z</time>
      </trkpt>
      <trkpt lat="39.44562298245728" lon="-3.525407016277313">
        <ele>693.70000000000005</ele>
        <time>2003-04-20T20:40:44Z</time>
      </trkpt>
      <trkpt lat="39.446572987362742" lon="-3.525953013449907">
        <ele>693.29999999999995</ele>
        <time>2003-04-20T20:40:48Z</time>
      </trkpt>
      <trkpt lat="39.447587030008435" lon="-3.526407983154059">
        <ele>693.60000000000002</ele>
        <time>2003-04-20T20:40:52Z</time>
      </trkpt>
      <trkpt lat="39.448657985776663" lon="-3.526654997840524">
        <ele>695.70000000000005</ele>
        <time>2003-04-20T20:40:56Z</time>
      </trkpt>
      <trkpt lat="39.449477987363935" lon="-3.526700008660555">
        <ele>696.70000000000005</ele>
        <time>2003-04-20T20:41:00Z</time>
      </trkpt>
      <trkpt lat="39.450581967830658" lon="-3.526524994522333">
        <ele>696.79999999999995</ele>
        <time>2003-04-20T20:41:04Z</time>
      </trkpt>
      <trkpt lat="39.451652001589537" lon="-3.526197010651231">
        <ele>695.70000000000005</ele>
        <time>2003-04-20T20:41:07Z</time>
      </trkpt>
      <trkpt lat="39.452639976516366" lon="-3.525655036792159">
        <ele>693.39999999999998</ele>
        <time>2003-04-20T20:41:11Z</time>
      </trkpt>
      <trkpt lat="39.453600039705634" lon="-3.524967972189188">
        <ele>690.60000000000002</ele>
        <time>2003-04-20T20:41:16Z</time>
      </trkpt>
      <trkpt lat="39.454563036561012" lon="-3.524257019162178">
        <ele>688.20000000000005</ele>
        <time>2003-04-20T20:41:19Z</time>
      </trkpt>
      <trkpt lat="39.45548303425312" lon="-3.523555034771562">
        <ele>687.29999999999995</ele>
        <time>2003-04-20T20:41:23Z</time>
      </trkpt>
      <trkpt lat="39.456403031945229" lon="-3.522896971553564">
        <ele>687.10000000000002</ele>
        <time>2003-04-20T20:41:27Z</time>
      </trkpt>
      <trkpt lat="39.457325041294098" lon="-3.522227006033063">
        <ele>686.5</ele>
        <time>2003-04-20T20:41:31Z</time>
      </trkpt>
      <trkpt lat="39.458261970430613" lon="-3.521527033299208">
        <ele>685.89999999999998</ele>
        <time>2003-04-20T20:41:35Z</time>
      </trkpt>
      <trkpt lat="39.459211975336075" lon="-3.520814990624785">
        <ele>685.20000000000005</ele>
        <time>2003-04-20T20:41:39Z</time>
      </trkpt>
      <trkpt lat="39.460152005776763" lon="-3.520109988749027">
        <ele>685.10000000000002</ele>
        <time>2003-04-20T20:41:43Z</time>
      </trkpt>
      <trkpt lat="39.461102010682225" lon="-3.51940699853003">
        <ele>685.20000000000005</ele>
        <time>2003-04-20T20:41:47Z</time>
      </trkpt>
      <trkpt lat="39.46203701198101" lon="-3.518701996654272">
        <ele>684.60000000000002</ele>
        <time>2003-04-20T20:41:51Z</time>
      </trkpt>
      <trkpt lat="39.462937982752919" lon="-3.51807301864028">
        <ele>684.20000000000005</ele>
        <time>2003-04-20T20:41:56Z</time>
      </trkpt>
      <trkpt lat="39.463889999315143" lon="-3.517500031739473">
        <ele>683.5</ele>
        <time>2003-04-20T20:42:00Z</time>
      </trkpt>
      <trkpt lat="39.464645041152835" lon="-3.517202977091074">
        <ele>684.10000000000002</ele>
        <time>2003-04-20T20:42:02Z</time>
      </trkpt>
      <trkpt lat="39.465662017464638" lon="-3.517001979053021">
        <ele>685.10000000000002</ele>
        <time>2003-04-20T20:42:06Z</time>
      </trkpt>
      <trkpt lat="39.466642029583454" lon="-3.516963003203273">
        <ele>685.89999999999998</ele>
        <time>2003-04-20T20:42:10Z</time>
      </trkpt>
      <trkpt lat="39.467626987025142" lon="-3.51708697155118">
        <ele>687</ele>
        <time>2003-04-20T20:42:14Z</time>
      </trkpt>
      <trkpt lat="39.468582021072507" lon="-3.517389977350831">
        <ele>688.10000000000002</ele>
        <time>2003-04-20T20:42:18Z</time>
      </trkpt>
      <trkpt lat="39.469507969915867" lon="-3.517840001732111">
        <ele>689.29999999999995</ele>
        <time>2003-04-20T20:42:23Z</time>
      </trkpt>
      <trkpt lat="39.470442971214652" lon="-3.518358003348112">
        <ele>690.29999999999995</ele>
        <time>2003-04-20T20:42:27Z</time>
      </trkpt>
      <trkpt lat="39.471398005262017" lon="-3.518907018005848">
        <ele>691.5</ele>
        <time>2003-04-20T20:42:31Z</time>
      </trkpt>
      <trkpt lat="39.47237198241055" lon="-3.519461983814836">
        <ele>692.5</ele>
        <time>2003-04-20T20:42:35Z</time>
      </trkpt>
      <trkpt lat="39.473364986479282" lon="-3.520027007907629">
        <ele>693.39999999999998</ele>
        <time>2003-04-20T20:42:39Z</time>
      </trkpt>
      <trkpt lat="39.474375005811453" lon="-3.520599994808435">
        <ele>694.60000000000002</ele>
        <time>2003-04-20T20:42:43Z</time>
      </trkpt>
      <trkpt lat="39.475387036800385" lon="-3.521178010851145">
        <ele>696.89999999999998</ele>
        <time>2003-04-20T20:42:47Z</time>
      </trkpt>
      <trkpt lat="39.476402001455426" lon="-3.521753009408712">
        <ele>699.20000000000005</ele>
        <time>2003-04-20T20:42:51Z</time>
      </trkpt>
      <trkpt lat="39.477413026615977" lon="-3.522324990481138">
        <ele>700.29999999999995</ele>
        <time>2003-04-20T20:42:55Z</time>
      </trkpt>
      <trkpt lat="39.478432014584541" lon="-3.522896971553564">
        <ele>700.79999999999995</ele>
        <time>2003-04-20T20:42:59Z</time>
      </trkpt>
      <trkpt lat="39.47946198284626" lon="-3.523484962061048">
        <ele>701.10000000000002</ele>
        <time>2003-04-20T20:43:03Z</time>
      </trkpt>
      <trkpt lat="39.480518018826842" lon="-3.524074964225292">
        <ele>701.60000000000002</ele>
        <time>2003-04-20T20:43:07Z</time>
      </trkpt>
      <trkpt lat="39.481586962938309" lon="-3.52464702911675">
        <ele>702.10000000000002</ele>
        <time>2003-04-20T20:43:11Z</time>
      </trkpt>
      <trkpt lat="39.482430014759302" lon="-3.524926984682679">
        <ele>702.5</ele>
        <time>2003-04-20T20:43:14Z</time>
      </trkpt>
      <trkpt lat="39.483576994389296" lon="-3.525138041004539">
        <ele>703.10000000000002</ele>
        <time>2003-04-20T20:43:18Z</time>
      </trkpt>
      <trkpt lat="39.484717017039657" lon="-3.525278018787503">
        <ele>703.5</ele>
        <time>2003-04-20T20:43:22Z</time>
      </trkpt>
      <trkpt lat="39.485834995284677" lon="-3.525425037369132">
        <ele>703.70000000000005</ele>
        <time>2003-04-20T20:43:26Z</time>
      </trkpt>
      <trkpt lat="39.486937969923019" lon="-3.525578007102013">
        <ele>704.10000000000002</ele>
        <time>2003-04-20T20:43:30Z</time>
      </trkpt>
      <trkpt lat="39.488038010895252" lon="-3.52572301402688">
        <ele>704.5</ele>
        <time>2003-04-20T20:43:34Z</time>
      </trkpt>
      <trkpt lat="39.48913000524044" lon="-3.525865003466606">
        <ele>704.5</ele>
        <time>2003-04-20T20:43:38Z</time>
      </trkpt>
      <trkpt lat="39.490229962393641" lon="-3.526006992906332">
        <ele>704.10000000000002</ele>
        <time>2003-04-20T20:43:42Z</time>
      </trkpt>
      <trkpt lat="39.491330003365874" lon="-3.526158034801483">
        <ele>704.39999999999998</ele>
        <time>2003-04-20T20:43:46Z</time>
      </trkpt>
      <trkpt lat="39.49241797439754" lon="-3.526342017576098">
        <ele>705</ele>
        <time>2003-04-20T20:43:49Z</time>
      </trkpt>
      <trkpt lat="39.493502005934715" lon="-3.526591965928674">
        <ele>705.60000000000002</ele>
        <time>2003-04-20T20:43:53Z</time>
      </trkpt>
      <trkpt lat="39.494572039693594" lon="-3.526864964514971">
        <ele>705.5</ele>
        <time>2003-04-20T20:43:57Z</time>
      </trkpt>
      <trkpt lat="39.495636960491538" lon="-3.527142992243171">
        <ele>705.20000000000005</ele>
        <time>2003-04-20T20:44:01Z</time>
      </trkpt>
      <trkpt lat="39.496706994250417" lon="-3.527405010536313">
        <ele>704.79999999999995</ele>
        <time>2003-04-20T20:44:05Z</time>
      </trkpt>
      <trkpt lat="39.497805023565888" lon="-3.527541970834136">
        <ele>704.29999999999995</ele>
        <time>2003-04-20T20:44:09Z</time>
      </trkpt>
      <trkpt lat="39.498081961646676" lon="-3.527541970834136">
        <ele>704.29999999999995</ele>
        <time>2003-04-20T20:44:11Z</time>
      </trkpt>
      <trkpt lat="39.499185020104051" lon="-3.527407022193074">
        <ele>704.5</ele>
        <time>2003-04-20T20:44:15Z</time>
      </trkpt>
      <trkpt lat="39.500284977257252" lon="-3.527194960042834">
        <ele>704.20000000000005</ele>
        <time>2003-04-20T20:44:19Z</time>
      </trkpt>
      <trkpt lat="39.501389963552356" lon="-3.526978036388755">
        <ele>703.79999999999995</ele>
        <time>2003-04-20T20:44:23Z</time>
      </trkpt>
      <trkpt lat="39.502477012574673" lon="-3.526763040572405">
        <ele>704</ele>
        <time>2003-04-20T20:44:27Z</time>
      </trkpt>
      <trkpt lat="39.503560038283467" lon="-3.526547038927674">
        <ele>703.60000000000002</ele>
        <time>2003-04-20T20:44:31Z</time>
      </trkpt>
      <trkpt lat="39.504654966294765" lon="-3.526334976777434">
        <ele>703.39999999999998</ele>
        <time>2003-04-20T20:44:35Z</time>
      </trkpt>
      <trkpt lat="39.505761964246631" lon="-3.526117969304323">
        <ele>703.5</ele>
        <time>2003-04-20T20:44:39Z</time>
      </trkpt>
      <trkpt lat="39.506878014653921" lon="-3.525898028165102">
        <ele>703.29999999999995</ele>
        <time>2003-04-20T20:44:43Z</time>
      </trkpt>
      <trkpt lat="39.508003033697605" lon="-3.525674985721707">
        <ele>703.29999999999995</ele>
        <time>2003-04-20T20:44:47Z</time>
      </trkpt>
      <trkpt lat="39.509148001670837" lon="-3.525459989905357">
        <ele>702.89999999999998</ele>
        <time>2003-04-20T20:44:51Z</time>
      </trkpt>
      <trkpt lat="39.510315014049411" lon="-3.525227978825569">
        <ele>702.79999999999995</ele>
        <time>2003-04-20T20:44:55Z</time>
      </trkpt>
      <trkpt lat="39.511504992842674" lon="-3.525007031857967">
        <ele>702.60000000000002</ele>
        <time>2003-04-20T20:44:59Z</time>
      </trkpt>
      <trkpt lat="39.512406969442964" lon="-3.524830006062985">
        <ele>702.60000000000002</ele>
        <time>2003-04-20T20:45:02Z</time>
      </trkpt>
      <trkpt lat="39.513312969356775" lon="-3.52464803494513">
        <ele>702.5</ele>
        <time>2003-04-20T20:45:06Z</time>
      </trkpt>
      <trkpt lat="39.514219975098968" lon="-3.524466985836625">
        <ele>702.39999999999998</ele>
        <time>2003-04-20T20:45:07Z</time>
      </trkpt>
      <trkpt lat="39.515132009983063" lon="-3.524289960041642">
        <ele>701.79999999999995</ele>
        <time>2003-04-20T20:45:10Z</time>
      </trkpt>
      <trkpt lat="39.516044966876507" lon="-3.52411201223731">
        <ele>701.60000000000002</ele>
        <time>2003-04-20T20:45:14Z</time>
      </trkpt>
      <trkpt lat="39.516958007588983" lon="-3.523930041119456">
        <ele>702</ele>
        <time>2003-04-20T20:45:17Z</time>
      </trkpt>
      <trkpt lat="39.517869958654046" lon="-3.523744968697429">
        <ele>702.20000000000005</ele>
        <time>2003-04-20T20:45:19Z</time>
      </trkpt>
      <trkpt lat="39.518782999366522" lon="-3.523570038378239">
        <ele>702.60000000000002</ele>
        <time>2003-04-20T20:45:22Z</time>
      </trkpt>
      <trkpt lat="39.519681958481669" lon="-3.523407010361552">
        <ele>702.5</ele>
        <time>2003-04-20T20:45:26Z</time>
      </trkpt>
      <trkpt lat="39.520813012495637" lon="-3.523177010938525">
        <ele>702.70000000000005</ele>
        <time>2003-04-20T20:45:30Z</time>
      </trkpt>
      <trkpt lat="39.521902995184064" lon="-3.522956985980272">
        <ele>703.10000000000002</ele>
        <time>2003-04-20T20:45:34Z</time>
      </trkpt>
      <trkpt lat="39.522849982604384" lon="-3.522702008485794">
        <ele>703.70000000000005</ele>
        <time>2003-04-20T20:45:38Z</time>
      </trkpt>
      <trkpt lat="39.523922028020024" lon="-3.522388022392988">
        <ele>704.79999999999995</ele>
        <time>2003-04-20T20:45:44Z</time>
      </trkpt>
      <trkpt lat="39.52481796965003" lon="-3.522212002426386">
        <ele>705.70000000000005</ele>
        <time>2003-04-20T20:45:48Z</time>
      </trkpt>
      <trkpt lat="39.525892026722431" lon="-3.522004969418049">
        <ele>707.5</ele>
        <time>2003-04-20T20:45:53Z</time>
      </trkpt>
      <trkpt lat="39.527013022452593" lon="-3.521819980815053">
        <ele>709.39999999999998</ele>
        <time>2003-04-20T20:45:57Z</time>
      </trkpt>
      <trkpt lat="39.527982976287603" lon="-3.521631974726915">
        <ele>711.20000000000005</ele>
        <time>2003-04-20T20:46:01Z</time>
      </trkpt>
      <trkpt lat="39.52900699339807" lon="-3.521438017487526">
        <ele>713.10000000000002</ele>
        <time>2003-04-20T20:46:05Z</time>
      </trkpt>
      <trkpt lat="39.530045008286834" lon="-3.521197037771344">
        <ele>714.89999999999998</ele>
        <time>2003-04-20T20:46:09Z</time>
      </trkpt>
      <trkpt lat="39.531102972105145" lon="-3.520993022248149">
        <ele>715.60000000000002</ele>
        <time>2003-04-20T20:46:13Z</time>
      </trkpt>
      <trkpt lat="39.532181974500418" lon="-3.52080300450325">
        <ele>714.60000000000002</ele>
        <time>2003-04-20T20:46:17Z</time>
      </trkpt>
      <trkpt lat="39.533287966623902" lon="-3.520599994808435">
        <ele>713.5</ele>
        <time>2003-04-20T20:46:21Z</time>
      </trkpt>
      <trkpt lat="39.53442296013236" lon="-3.520396985113621">
        <ele>711.89999999999998</ele>
        <time>2003-04-20T20:46:26Z</time>
      </trkpt>
      <trkpt lat="39.535587038844824" lon="-3.520190035924316">
        <ele>708.39999999999998</ele>
        <time>2003-04-20T20:46:30Z</time>
      </trkpt>
      <trkpt lat="39.536481974646449" lon="-3.520034970715642">
        <ele>705.79999999999995</ele>
        <time>2003-04-20T20:46:32Z</time>
      </trkpt>
      <trkpt lat="39.537398032844067" lon="-3.519860040396452">
        <ele>703</ele>
        <time>2003-04-20T20:46:35Z</time>
      </trkpt>
      <trkpt lat="39.538334961980581" lon="-3.519689971581101">
        <ele>700.20000000000005</ele>
        <time>2003-04-20T20:46:39Z</time>
      </trkpt>
      <trkpt lat="39.539287984371185" lon="-3.519517974928021">
        <ele>697.5</ele>
        <time>2003-04-20T20:46:42Z</time>
      </trkpt>
      <trkpt lat="39.540251987054944" lon="-3.519347989931703">
        <ele>694.79999999999995</ele>
        <time>2003-04-20T20:46:44Z</time>
      </trkpt>
      <trkpt lat="39.541202997788787" lon="-3.519172975793481">
        <ele>694.5</ele>
        <time>2003-04-20T20:46:47Z</time>
      </trkpt>
      <trkpt lat="39.542131964117289" lon="-3.51899997331202">
        <ele>696.70000000000005</ele>
        <time>2003-04-20T20:46:51Z</time>
      </trkpt>
      <trkpt lat="39.543027989566326" lon="-3.518837029114366">
        <ele>699.5</ele>
        <time>2003-04-20T20:46:54Z</time>
      </trkpt>
      <trkpt lat="39.544187961146235" lon="-3.518626978620887">
        <ele>702.89999999999998</ele>
        <time>2003-04-20T20:46:58Z</time>
      </trkpt>
      <trkpt lat="39.545332007110119" lon="-3.518422041088343">
        <ele>703.70000000000005</ele>
        <time>2003-04-20T20:47:02Z</time>
      </trkpt>
      <trkpt lat="39.546470018103719" lon="-3.518211990594864">
        <ele>703.70000000000005</ele>
        <time>2003-04-20T20:47:06Z</time>
      </trkpt>
      <trkpt lat="39.547611968591809" lon="-3.517998000606895">
        <ele>703.5</ele>
        <time>2003-04-20T20:47:10Z</time>
      </trkpt>
      <trkpt lat="39.548766994848847" lon="-3.517789961770177">
        <ele>703</ele>
        <time>2003-04-20T20:47:14Z</time>
      </trkpt>
      <trkpt lat="39.549941970035434" lon="-3.51757999509573">
        <ele>701.79999999999995</ele>
        <time>2003-04-20T20:47:18Z</time>
      </trkpt>
      <trkpt lat="39.550837995484471" lon="-3.517413027584553">
        <ele>701</ele>
        <time>2003-04-20T20:47:21Z</time>
      </trkpt>
      <trkpt lat="39.551732009276748" lon="-3.517249999567866">
        <ele>702.20000000000005</ele>
        <time>2003-04-20T20:47:24Z</time>
      </trkpt>
      <trkpt lat="39.552912013605237" lon="-3.517035003751516">
        <ele>704</ele>
        <time>2003-04-20T20:47:28Z</time>
      </trkpt>
      <trkpt lat="39.554097969084978" lon="-3.516816990450025">
        <ele>704.5</ele>
        <time>2003-04-20T20:47:32Z</time>
      </trkpt>
      <trkpt lat="39.555000029504299" lon="-3.516654968261719">
        <ele>704.39999999999998</ele>
        <time>2003-04-20T20:47:34Z</time>
      </trkpt>
      <trkpt lat="39.555908041074872" lon="-3.516492024064064">
        <ele>704.5</ele>
        <time>2003-04-20T20:47:37Z</time>
      </trkpt>
      <trkpt lat="39.5568270329386" lon="-3.516327990218997">
        <ele>704.5</ele>
        <time>2003-04-20T20:47:41Z</time>
      </trkpt>
      <trkpt lat="39.557747030630708" lon="-3.516164962202311">
        <ele>704.60000000000002</ele>
        <time>2003-04-20T20:47:44Z</time>
      </trkpt>
      <trkpt lat="39.558674991130829" lon="-3.515994977205992">
        <ele>704.60000000000002</ele>
        <time>2003-04-20T20:47:47Z</time>
      </trkpt>
      <trkpt lat="39.559612004086375" lon="-3.515832033008337">
        <ele>704.60000000000002</ele>
        <time>2003-04-20T20:47:49Z</time>
      </trkpt>
      <trkpt lat="39.560552034527063" lon="-3.515658024698496">
        <ele>704.60000000000002</ele>
        <time>2003-04-20T20:47:52Z</time>
      </trkpt>
      <trkpt lat="39.561497010290623" lon="-3.515487033873797">
        <ele>704.60000000000002</ele>
        <time>2003-04-20T20:47:56Z</time>
      </trkpt>
      <trkpt lat="39.562445003539324" lon="-3.515313025563955">
        <ele>704.60000000000002</ele>
        <time>2003-04-20T20:47:59Z</time>
      </trkpt>
      <trkpt lat="39.563370030373335" lon="-3.515143040567637">
        <ele>704.60000000000002</ele>
        <time>2003-04-20T20:48:01Z</time>
      </trkpt>
      <trkpt lat="39.564269995316863" lon="-3.514972971752286">
        <ele>704.60000000000002</ele>
        <time>2003-04-20T20:48:04Z</time>
      </trkpt>
      <trkpt lat="39.565161997452378" lon="-3.51480801589787">
        <ele>704.79999999999995</ele>
        <time>2003-04-20T20:48:08Z</time>
      </trkpt>
      <trkpt lat="39.566055005416274" lon="-3.514642976224423">
        <ele>705</ele>
        <time>2003-04-20T20:48:11Z</time>
      </trkpt>
      <trkpt lat="39.56722998060286" lon="-3.514429992064834">
        <ele>705.29999999999995</ele>
        <time>2003-04-20T20:48:15Z</time>
      </trkpt>
      <trkpt lat="39.568390036001801" lon="-3.514214996248484">
        <ele>705.60000000000002</ele>
        <time>2003-04-20T20:48:19Z</time>
      </trkpt>
      <trkpt lat="39.569544978439808" lon="-3.514017015695572">
        <ele>706</ele>
        <time>2003-04-20T20:48:23Z</time>
      </trkpt>
      <trkpt lat="39.570702016353607" lon="-3.5139499604702">
        <ele>705.89999999999998</ele>
        <time>2003-04-20T20:48:27Z</time>
      </trkpt>
      <trkpt lat="39.571828041225672" lon="-3.514087004587054">
        <ele>705.60000000000002</ele>
        <time>2003-04-20T20:48:31Z</time>
      </trkpt>
      <trkpt lat="39.572927998378873" lon="-3.514386992901564">
        <ele>705.39999999999998</ele>
        <time>2003-04-20T20:48:35Z</time>
      </trkpt>
      <trkpt lat="39.57403801381588" lon="-3.514759987592697">
        <ele>703.89999999999998</ele>
        <time>2003-04-20T20:48:39Z</time>
      </trkpt>
      <trkpt lat="39.575145011767745" lon="-3.515132982283831">
        <ele>702.10000000000002</ele>
        <time>2003-04-20T20:48:43Z</time>
      </trkpt>
      <trkpt lat="39.576257960870862" lon="-3.515531960874796">
        <ele>700.29999999999995</ele>
        <time>2003-04-20T20:48:46Z</time>
      </trkpt>
      <trkpt lat="39.577393038198352" lon="-3.515930017456412">
        <ele>699.70000000000005</ele>
        <time>2003-04-20T20:48:50Z</time>
      </trkpt>
      <trkpt lat="39.57852803170681" lon="-3.516311980783939">
        <ele>701.89999999999998</ele>
        <time>2003-04-20T20:48:54Z</time>
      </trkpt>
      <trkpt lat="39.579630000516772" lon="-3.516684975475073">
        <ele>704.60000000000002</ele>
        <time>2003-04-20T20:48:58Z</time>
      </trkpt>
      <trkpt lat="39.580689975991845" lon="-3.517044978216291">
        <ele>707.20000000000005</ele>
        <time>2003-04-20T20:49:02Z</time>
      </trkpt>
      <trkpt lat="39.581732014194131" lon="-3.517398023977876">
        <ele>709.79999999999995</ele>
        <time>2003-04-20T20:49:06Z</time>
      </trkpt>
      <trkpt lat="39.582764999940991" lon="-3.517755009233952">
        <ele>712.20000000000005</ele>
        <time>2003-04-20T20:49:10Z</time>
      </trkpt>
      <trkpt lat="39.58381500095129" lon="-3.518100008368492">
        <ele>713.29999999999995</ele>
        <time>2003-04-20T20:49:14Z</time>
      </trkpt>
      <trkpt lat="39.584886962547898" lon="-3.518466968089342">
        <ele>713.70000000000005</ele>
        <time>2003-04-20T20:49:18Z</time>
      </trkpt>
      <trkpt lat="39.585988009348512" lon="-3.518839962780476">
        <ele>714.29999999999995</ele>
        <time>2003-04-20T20:49:22Z</time>
      </trkpt>
      <trkpt lat="39.587119985371828" lon="-3.519216980785132">
        <ele>714.89999999999998</ele>
        <time>2003-04-20T20:49:26Z</time>
      </trkpt>
      <trkpt lat="39.588275011628866" lon="-3.519615037366748">
        <ele>715.39999999999998</ele>
        <time>2003-04-20T20:49:30Z</time>
      </trkpt>
      <trkpt lat="39.589157039299607" lon="-3.519904967397451">
        <ele>715.89999999999998</ele>
        <time>2003-04-20T20:49:33Z</time>
      </trkpt>
      <trkpt lat="39.590049963444471" lon="-3.520202022045851">
        <ele>716.39999999999998</ele>
        <time>2003-04-20T20:49:37Z</time>
      </trkpt>
      <trkpt lat="39.590940037742257" lon="-3.520518019795418">
        <ele>717.89999999999998</ele>
        <time>2003-04-20T20:49:40Z</time>
      </trkpt>
      <trkpt lat="39.591837991029024" lon="-3.520812978968024">
        <ele>719.39999999999998</ele>
        <time>2003-04-20T20:49:43Z</time>
      </trkpt>
      <trkpt lat="39.592732004821301" lon="-3.521114978939295">
        <ele>721.10000000000002</ele>
        <time>2003-04-20T20:49:45Z</time>
      </trkpt>
      <trkpt lat="39.593876972794533" lon="-3.521502977237105">
        <ele>722.89999999999998</ele>
        <time>2003-04-20T20:49:49Z</time>
      </trkpt>
      <trkpt lat="39.594848016276956" lon="-3.521840013563633">
        <ele>722.29999999999995</ele>
        <time>2003-04-20T20:49:53Z</time>
      </trkpt>
      <trkpt lat="39.595768013969064" lon="-3.522200016304851">
        <ele>720</ele>
        <time>2003-04-20T20:49:57Z</time>
      </trkpt>
      <trkpt lat="39.596737967804074" lon="-3.522577034309506">
        <ele>717.29999999999995</ele>
        <time>2003-04-20T20:50:02Z</time>
      </trkpt>
      <trkpt lat="39.597717979922891" lon="-3.522969977930188">
        <ele>716.70000000000005</ele>
        <time>2003-04-20T20:50:06Z</time>
      </trkpt>
      <trkpt lat="39.598709978163242" lon="-3.523368034511805">
        <ele>717.60000000000002</ele>
        <time>2003-04-20T20:50:10Z</time>
      </trkpt>
      <trkpt lat="39.599722009152174" lon="-3.52372501976788">
        <ele>718.60000000000002</ele>
        <time>2003-04-20T20:50:14Z</time>
      </trkpt>
      <trkpt lat="39.600726999342442" lon="-3.524131961166859">
        <ele>719.70000000000005</ele>
        <time>2003-04-20T20:50:18Z</time>
      </trkpt>
      <trkpt lat="39.601750010624528" lon="-3.524543009698391">
        <ele>720.29999999999995</ele>
        <time>2003-04-20T20:50:22Z</time>
      </trkpt>
      <trkpt lat="39.602757012471557" lon="-3.524935031309724">
        <ele>718.39999999999998</ele>
        <time>2003-04-20T20:50:26Z</time>
      </trkpt>
      <trkpt lat="39.603805001825094" lon="-3.525247005745769">
        <ele>714.29999999999995</ele>
        <time>2003-04-20T20:50:30Z</time>
      </trkpt>
      <trkpt lat="39.604631960391998" lon="-3.525295034050942">
        <ele>711.70000000000005</ele>
        <time>2003-04-20T20:50:33Z</time>
      </trkpt>
      <trkpt lat="39.604909988120198" lon="-3.525286987423897">
        <ele>711.5</ele>
        <time>2003-04-20T20:50:34Z</time>
      </trkpt>
      <trkpt lat="39.605732001364231" lon="-3.525152960792184">
        <ele>711.29999999999995</ele>
        <time>2003-04-20T20:50:37Z</time>
      </trkpt>
      <trkpt lat="39.606812009587884" lon="-3.524882979691029">
        <ele>710.70000000000005</ele>
        <time>2003-04-20T20:50:41Z</time>
      </trkpt>
      <trkpt lat="39.607887994498014" lon="-3.524630013853312">
        <ele>710.20000000000005</ele>
        <time>2003-04-20T20:50:45Z</time>
      </trkpt>
      <trkpt lat="39.608962973579764" lon="-3.52439196780324">
        <ele>709.70000000000005</ele>
        <time>2003-04-20T20:50:49Z</time>
      </trkpt>
      <trkpt lat="39.610039964318275" lon="-3.524151993915439">
        <ele>708.89999999999998</ele>
        <time>2003-04-20T20:50:53Z</time>
      </trkpt>
      <trkpt lat="39.611121984198689" lon="-3.523913025856018">
        <ele>708.20000000000005</ele>
        <time>2003-04-20T20:50:57Z</time>
      </trkpt>
      <trkpt lat="39.612216996029019" lon="-3.523667016997933">
        <ele>707.60000000000002</ele>
        <time>2003-04-20T20:51:01Z</time>
      </trkpt>
      <trkpt lat="39.613317037001252" lon="-3.523417990654707">
        <ele>707.20000000000005</ele>
        <time>2003-04-20T20:51:05Z</time>
      </trkpt>
      <trkpt lat="39.614422023296356" lon="-3.5231679584831">
        <ele>707.29999999999995</ele>
        <time>2003-04-20T20:51:09Z</time>
      </trkpt>
      <trkpt lat="39.615532960742712" lon="-3.522911975160241">
        <ele>706.70000000000005</ele>
        <time>2003-04-20T20:51:13Z</time>
      </trkpt>
      <trkpt lat="39.616669965907931" lon="-3.522654986009002">
        <ele>706.89999999999998</ele>
        <time>2003-04-20T20:51:17Z</time>
      </trkpt>
      <trkpt lat="39.617839995771646" lon="-3.522388022392988">
        <ele>706.60000000000002</ele>
        <time>2003-04-20T20:51:21Z</time>
      </trkpt>
      <trkpt lat="39.618971971794963" lon="-3.522132039070129">
        <ele>706.39999999999998</ele>
        <time>2003-04-20T20:51:25Z</time>
      </trkpt>
      <trkpt lat="39.620034964755177" lon="-3.52189801633358">
        <ele>706.39999999999998</ele>
        <time>2003-04-20T20:51:28Z</time>
      </trkpt>
      <trkpt lat="39.621078008785844" lon="-3.52166198194027">
        <ele>706.39999999999998</ele>
        <time>2003-04-20T20:51:32Z</time>
      </trkpt>
      <trkpt lat="39.62212298065424" lon="-3.521427037194371">
        <ele>705.79999999999995</ele>
        <time>2003-04-20T20:51:36Z</time>
      </trkpt>
      <trkpt lat="39.623177004978061" lon="-3.521184967830777">
        <ele>706.39999999999998</ele>
        <time>2003-04-20T20:51:40Z</time>
      </trkpt>
      <trkpt lat="39.624239997938275" lon="-3.520953040570021">
        <ele>706.39999999999998</ele>
        <time>2003-04-20T20:51:44Z</time>
      </trkpt>
      <trkpt lat="39.625307014212012" lon="-3.520754976198077">
        <ele>706.60000000000002</ele>
        <time>2003-04-20T20:51:48Z</time>
      </trkpt>
      <trkpt lat="39.626322984695435" lon="-3.520515002310276">
        <ele>706.79999999999995</ele>
        <time>2003-04-20T20:51:52Z</time>
      </trkpt>
      <trkpt lat="39.627359993755817" lon="-3.520281985402107">
        <ele>707.20000000000005</ele>
        <time>2003-04-20T20:51:56Z</time>
      </trkpt>
      <trkpt lat="39.628291977569461" lon="-3.520076964050531">
        <ele>707.20000000000005</ele>
        <time>2003-04-20T20:52:00Z</time>
      </trkpt>
      <trkpt lat="39.629194959998131" lon="-3.519873032346368">
        <ele>707.29999999999995</ele>
        <time>2003-04-20T20:52:04Z</time>
      </trkpt>
      <trkpt lat="39.630146976560354" lon="-3.519657030701637">
        <ele>707.10000000000002</ele>
        <time>2003-04-20T20:52:08Z</time>
      </trkpt>
      <trkpt lat="39.631142998114228" lon="-3.519431976601481">
        <ele>706.79999999999995</ele>
        <time>2003-04-20T20:52:12Z</time>
      </trkpt>
      <trkpt lat="39.632180007174611" lon="-3.519197031855583">
        <ele>706.60000000000002</ele>
        <time>2003-04-20T20:52:17Z</time>
      </trkpt>
      <trkpt lat="39.63325004093349" lon="-3.518954962491989">
        <ele>706.79999999999995</ele>
        <time>2003-04-20T20:52:21Z</time>
      </trkpt>
      <trkpt lat="39.634344968944788" lon="-3.518707025796175">
        <ele>707.60000000000002</ele>
        <time>2003-04-20T20:52:25Z</time>
      </trkpt>
      <trkpt lat="39.63546697050333" lon="-3.518452970311046">
        <ele>707.60000000000002</ele>
        <time>2003-04-20T20:52:29Z</time>
      </trkpt>
      <trkpt lat="39.63662501424551" lon="-3.518194975331426">
        <ele>707.60000000000002</ele>
        <time>2003-04-20T20:52:33Z</time>
      </trkpt>
      <trkpt lat="39.637512993067503" lon="-3.517992971464992">
        <ele>707.79999999999995</ele>
        <time>2003-04-20T20:52:35Z</time>
      </trkpt>
      <trkpt lat="39.638414969667792" lon="-3.517791973426938">
        <ele>708.29999999999995</ele>
        <time>2003-04-20T20:52:38Z</time>
      </trkpt>
      <trkpt lat="39.639313006773591" lon="-3.517589969560504">
        <ele>708.5</ele>
        <time>2003-04-20T20:52:42Z</time>
      </trkpt>
      <trkpt lat="39.640205008909106" lon="-3.517389977350831">
        <ele>708.39999999999998</ele>
        <time>2003-04-20T20:52:45Z</time>
      </trkpt>
      <trkpt lat="39.641097011044621" lon="-3.517186967656016">
        <ele>708.20000000000005</ele>
        <time>2003-04-20T20:52:48Z</time>
      </trkpt>
      <trkpt lat="39.641988007351756" lon="-3.516992004588246">
        <ele>708.20000000000005</ele>
        <time>2003-04-20T20:52:50Z</time>
      </trkpt>
      <trkpt lat="39.642874980345368" lon="-3.516790000721812">
        <ele>708.5</ele>
        <time>2003-04-20T20:52:53Z</time>
      </trkpt>
      <trkpt lat="39.643773017451167" lon="-3.516584979370236">
        <ele>708.60000000000002</ele>
        <time>2003-04-20T20:52:57Z</time>
      </trkpt>
      <trkpt lat="39.644687986001372" lon="-3.516378030180931">
        <ele>708.79999999999995</ele>
        <time>2003-04-20T20:53:00Z</time>
      </trkpt>
      <trkpt lat="39.645613012835383" lon="-3.516173008829355">
        <ele>708.89999999999998</ele>
        <time>2003-04-20T20:53:02Z</time>
      </trkpt>
      <trkpt lat="39.646548014134169" lon="-3.515967987477779">
        <ele>709.20000000000005</ele>
        <time>2003-04-20T20:53:05Z</time>
      </trkpt>
      <trkpt lat="39.647491984069347" lon="-3.515751985833049">
        <ele>709.79999999999995</ele>
        <time>2003-04-20T20:53:09Z</time>
      </trkpt>
      <trkpt lat="39.648451963439584" lon="-3.515532966703177">
        <ele>709.39999999999998</ele>
        <time>2003-04-20T20:53:12Z</time>
      </trkpt>
      <trkpt lat="39.649422001093626" lon="-3.515307996422052">
        <ele>709.70000000000005</ele>
        <time>2003-04-20T20:53:15Z</time>
      </trkpt>
      <trkpt lat="39.650406958535314" lon="-3.515097023919225">
        <ele>709.29999999999995</ele>
        <time>2003-04-20T20:53:17Z</time>
      </trkpt>
      <trkpt lat="39.651391999796033" lon="-3.51487297564745">
        <ele>709.5</ele>
        <time>2003-04-20T20:53:20Z</time>
      </trkpt>
      <trkpt lat="39.652336975559592" lon="-3.514662003144622">
        <ele>709.70000000000005</ele>
        <time>2003-04-20T20:53:24Z</time>
      </trkpt>
      <trkpt lat="39.653263008221984" lon="-3.514450024813414">
        <ele>709.70000000000005</ele>
        <time>2003-04-20T20:53:27Z</time>
      </trkpt>
      <trkpt lat="39.654152998700738" lon="-3.51425196044147">
        <ele>709.89999999999998</ele>
        <time>2003-04-20T20:53:29Z</time>
      </trkpt>
      <trkpt lat="39.655042989179492" lon="-3.5140569973737">
        <ele>709.60000000000002</ele>
        <time>2003-04-20T20:53:32Z</time>
      </trkpt>
      <trkpt lat="39.656210001558065" lon="-3.513792967423797">
        <ele>709.39999999999998</ele>
        <time>2003-04-20T20:53:36Z</time>
      </trkpt>
      <trkpt lat="39.65729302726686" lon="-3.513546958565712">
        <ele>709</ele>
        <time>2003-04-20T20:53:40Z</time>
      </trkpt>
      <trkpt lat="39.658377980813384" lon="-3.513306984677911">
        <ele>709.20000000000005</ele>
        <time>2003-04-20T20:53:44Z</time>
      </trkpt>
      <trkpt lat="39.659467041492462" lon="-3.51304798386991">
        <ele>708.20000000000005</ele>
        <time>2003-04-20T20:53:48Z</time>
      </trkpt>
      <trkpt lat="39.660576973110437" lon="-3.512812033295631">
        <ele>707.89999999999998</ele>
        <time>2003-04-20T20:53:52Z</time>
      </trkpt>
      <trkpt lat="39.661711966618896" lon="-3.512548003345728">
        <ele>707.70000000000005</ele>
        <time>2003-04-20T20:53:56Z</time>
      </trkpt>
      <trkpt lat="39.66287998482585" lon="-3.512284979224205">
        <ele>707.79999999999995</ele>
        <time>2003-04-20T20:54:00Z</time>
      </trkpt>
      <trkpt lat="39.663778021931648" lon="-3.512082975357771">
        <ele>707.79999999999995</ele>
        <time>2003-04-20T20:54:03Z</time>
      </trkpt>
      <trkpt lat="39.664691984653473" lon="-3.511873008683324">
        <ele>707.70000000000005</ele>
        <time>2003-04-20T20:54:07Z</time>
      </trkpt>
      <trkpt lat="39.665624974295497" lon="-3.51167201064527">
        <ele>706.5</ele>
        <time>2003-04-20T20:54:10Z</time>
      </trkpt>
      <trkpt lat="39.666571961715817" lon="-3.511460032314062">
        <ele>706.10000000000002</ele>
        <time>2003-04-20T20:54:13Z</time>
      </trkpt>
      <trkpt lat="39.66752297244966" lon="-3.511230032891035">
        <ele>706.10000000000002</ele>
        <time>2003-04-20T20:54:15Z</time>
      </trkpt>
      <trkpt lat="39.668459985405207" lon="-3.510910011827946">
        <ele>707</ele>
        <time>2003-04-20T20:54:18Z</time>
      </trkpt>
      <trkpt lat="39.66939196921885" lon="-3.510546991601586">
        <ele>705.39999999999998</ele>
        <time>2003-04-20T20:54:22Z</time>
      </trkpt>
      <trkpt lat="39.670337028801441" lon="-3.510197969153523">
        <ele>700.89999999999998</ele>
        <time>2003-04-20T20:54:25Z</time>
      </trkpt>
      <trkpt lat="39.671307988464832" lon="-3.509833021089435">
        <ele>693.89999999999998</ele>
        <time>2003-04-20T20:54:27Z</time>
      </trkpt>
      <trkpt lat="39.672296969220042" lon="-3.509454997256398">
        <ele>686.89999999999998</ele>
        <time>2003-04-20T20:54:30Z</time>
      </trkpt>
      <trkpt lat="39.673289973288774" lon="-3.509073033928871">
        <ele>680.89999999999998</ele>
        <time>2003-04-20T20:54:34Z</time>
      </trkpt>
      <trkpt lat="39.674250036478043" lon="-3.508683023974299">
        <ele>676.20000000000005</ele>
        <time>2003-04-20T20:54:37Z</time>
      </trkpt>
      <trkpt lat="39.675172967836261" lon="-3.508331989869475">
        <ele>672.70000000000005</ele>
        <time>2003-04-20T20:54:40Z</time>
      </trkpt>
      <trkpt lat="39.676075028255582" lon="-3.507990008220077">
        <ele>669.20000000000005</ele>
        <time>2003-04-20T20:54:42Z</time>
      </trkpt>
      <trkpt lat="39.676992008462548" lon="-3.507639979943633">
        <ele>666.29999999999995</ele>
        <time>2003-04-20T20:54:45Z</time>
      </trkpt>
      <trkpt lat="39.677924998104572" lon="-3.507294980809093">
        <ele>663.70000000000005</ele>
        <time>2003-04-20T20:54:49Z</time>
      </trkpt>
      <trkpt lat="39.678867040202022" lon="-3.506930032745004">
        <ele>661.60000000000002</ele>
        <time>2003-04-20T20:54:52Z</time>
      </trkpt>
      <trkpt lat="39.679816961288452" lon="-3.506562989205122">
        <ele>660.10000000000002</ele>
        <time>2003-04-20T20:54:54Z</time>
      </trkpt>
      <trkpt lat="39.68075699172914" lon="-3.506204998120666">
        <ele>658.5</ele>
        <time>2003-04-20T20:54:57Z</time>
      </trkpt>
      <trkpt lat="39.681686963886023" lon="-3.505838038399816">
        <ele>657.20000000000005</ele>
        <time>2003-04-20T20:55:01Z</time>
      </trkpt>
      <trkpt lat="39.68258198350668" lon="-3.505382984876633">
        <ele>656</ele>
        <time>2003-04-20T20:55:04Z</time>
      </trkpt>
      <trkpt lat="39.683402990922332" lon="-3.50473003461957">
        <ele>654.20000000000005</ele>
        <time>2003-04-20T20:55:07Z</time>
      </trkpt>
      <trkpt lat="39.684168007224798" lon="-3.503957977518439">
        <ele>651.79999999999995</ele>
        <time>2003-04-20T20:55:11Z</time>
      </trkpt>
      <trkpt lat="39.684937968850136" lon="-3.503187010064721">
        <ele>649.29999999999995</ele>
        <time>2003-04-20T20:55:13Z</time>
      </trkpt>
      <trkpt lat="39.685716982930899" lon="-3.502410007640719">
        <ele>647.79999999999995</ele>
        <time>2003-04-20T20:55:16Z</time>
      </trkpt>
      <trkpt lat="39.686506977304816" lon="-3.501622024923563">
        <ele>646.70000000000005</ele>
        <time>2003-04-20T20:55:20Z</time>
      </trkpt>
      <trkpt lat="39.687314992770553" lon="-3.500833036378026">
        <ele>645.70000000000005</ele>
        <time>2003-04-20T20:55:23Z</time>
      </trkpt>
      <trkpt lat="39.688127031549811" lon="-3.500027032569051">
        <ele>644.60000000000002</ele>
        <time>2003-04-20T20:55:24Z</time>
      </trkpt>
      <trkpt lat="39.688939992338419" lon="-3.499217005446553">
        <ele>643.70000000000005</ele>
        <time>2003-04-20T20:55:28Z</time>
      </trkpt>
      <trkpt lat="39.689777009189129" lon="-3.498432040214539">
        <ele>642.5</ele>
        <time>2003-04-20T20:55:31Z</time>
      </trkpt>
      <trkpt lat="39.690679991617799" lon="-3.497798033058643">
        <ele>641.20000000000005</ele>
        <time>2003-04-20T20:55:35Z</time>
      </trkpt>
      <trkpt lat="39.691642988473177" lon="-3.497344991192222">
        <ele>640.60000000000002</ele>
        <time>2003-04-20T20:55:38Z</time>
      </trkpt>
      <trkpt lat="39.692640015855432" lon="-3.497057994827628">
        <ele>640.10000000000002</ele>
        <time>2003-04-20T20:55:40Z</time>
      </trkpt>
      <trkpt lat="39.693309981375933" lon="-3.496979959309101">
        <ele>640.29999999999995</ele>
        <time>2003-04-20T20:55:43Z</time>
      </trkpt>
      <trkpt lat="39.693977013230324" lon="-3.496977025642991">
        <ele>640.10000000000002</ele>
        <time>2003-04-20T20:55:44Z</time>
      </trkpt>
      <trkpt lat="39.694958031177521" lon="-3.497129995375872">
        <ele>639.79999999999995</ele>
        <time>2003-04-20T20:55:47Z</time>
      </trkpt>
      <trkpt lat="39.695914993062615" lon="-3.497402993962169">
        <ele>639.5</ele>
        <time>2003-04-20T20:55:51Z</time>
      </trkpt>
      <trkpt lat="39.696828033775091" lon="-3.497808007523418">
        <ele>639.79999999999995</ele>
        <time>2003-04-20T20:55:54Z</time>
      </trkpt>
      <trkpt lat="39.697749959304929" lon="-3.498172033578157">
        <ele>639.70000000000005</ele>
        <time>2003-04-20T20:55:57Z</time>
      </trkpt>
      <trkpt lat="39.698701975867152" lon="-3.498379988595843">
        <ele>639.60000000000002</ele>
        <time>2003-04-20T20:55:59Z</time>
      </trkpt>
      <trkpt lat="39.69966203905642" lon="-3.498506974428892">
        <ele>640</ele>
        <time>2003-04-20T20:56:02Z</time>
      </trkpt>
      <trkpt lat="39.700301997363567" lon="-3.498498005792499">
        <ele>640.20000000000005</ele>
        <time>2003-04-20T20:56:05Z</time>
      </trkpt>
      <trkpt lat="39.70125200226903" lon="-3.498392980545759">
        <ele>640.70000000000005</ele>
        <time>2003-04-20T20:56:07Z</time>
      </trkpt>
      <trkpt lat="39.702179962769151" lon="-3.498173039406538">
        <ele>641</ele>
        <time>2003-04-20T20:56:10Z</time>
      </trkpt>
      <trkpt lat="39.703093003481627" lon="-3.497938010841608">
        <ele>641.39999999999998</ele>
        <time>2003-04-20T20:56:14Z</time>
      </trkpt>
      <trkpt lat="39.703982993960381" lon="-3.497714968398213">
        <ele>641.60000000000002</ele>
        <time>2003-04-20T20:56:17Z</time>
      </trkpt>
      <trkpt lat="39.705152017995715" lon="-3.497452028095722">
        <ele>641.89999999999998</ele>
        <time>2003-04-20T20:56:21Z</time>
      </trkpt>
      <trkpt lat="39.706300003454089" lon="-3.497180035337806">
        <ele>642.39999999999998</ele>
        <time>2003-04-20T20:56:25Z</time>
      </trkpt>
      <trkpt lat="39.707434996962547" lon="-3.496887004002929">
        <ele>643.70000000000005</ele>
        <time>2003-04-20T20:56:29Z</time>
      </trkpt>
      <trkpt lat="39.708564961329103" lon="-3.496600007638335">
        <ele>645.89999999999998</ele>
        <time>2003-04-20T20:56:33Z</time>
      </trkpt>
      <trkpt lat="39.709685035049915" lon="-3.496319968253374">
        <ele>648.89999999999998</ele>
        <time>2003-04-20T20:56:37Z</time>
      </trkpt>
      <trkpt lat="39.710797984153032" lon="-3.496034983545542">
        <ele>652.89999999999998</ele>
        <time>2003-04-20T20:56:41Z</time>
      </trkpt>
      <trkpt lat="39.711925014853477" lon="-3.495752010494471">
        <ele>654.39999999999998</ele>
        <time>2003-04-20T20:56:45Z</time>
      </trkpt>
      <trkpt lat="39.713081968948245" lon="-3.495457973331213">
        <ele>654.89999999999998</ele>
        <time>2003-04-20T20:56:49Z</time>
      </trkpt>
      <trkpt lat="39.713967014104128" lon="-3.495233003050089">
        <ele>655.39999999999998</ele>
        <time>2003-04-20T20:56:52Z</time>
      </trkpt>
      <trkpt lat="39.714862033724785" lon="-3.494997974485159">
        <ele>655.60000000000002</ele>
        <time>2003-04-20T20:56:55Z</time>
      </trkpt>
      <trkpt lat="39.715763004496694" lon="-3.494736962020397">
        <ele>656.10000000000002</ele>
        <time>2003-04-20T20:56:57Z</time>
      </trkpt>
      <trkpt lat="39.716673027724028" lon="-3.49450696259737">
        <ele>657.39999999999998</ele>
        <time>2003-04-20T20:57:00Z</time>
      </trkpt>
      <trkpt lat="39.717586990445852" lon="-3.494273023679853">
        <ele>658.89999999999998</ele>
        <time>2003-04-20T20:57:04Z</time>
      </trkpt>
      <trkpt lat="39.718500031158328" lon="-3.494045035913587">
        <ele>660</ele>
        <time>2003-04-20T20:57:07Z</time>
      </trkpt>
      <trkpt lat="39.719412988051772" lon="-3.49381797015667">
        <ele>661.20000000000005</ele>
        <time>2003-04-20T20:57:09Z</time>
      </trkpt>
      <trkpt lat="39.720325022935867" lon="-3.493582019582391">
        <ele>659.70000000000005</ele>
        <time>2003-04-20T20:57:12Z</time>
      </trkpt>
      <trkpt lat="39.721249965950847" lon="-3.493350008502603">
        <ele>656.89999999999998</ele>
        <time>2003-04-20T20:57:16Z</time>
      </trkpt>
      <trkpt lat="39.722171975299716" lon="-3.493114979937673">
        <ele>654.5</ele>
        <time>2003-04-20T20:57:19Z</time>
      </trkpt>
      <trkpt lat="39.723088033497334" lon="-3.492881963029504">
        <ele>653.39999999999998</ele>
        <time>2003-04-20T20:57:22Z</time>
      </trkpt>
      <trkpt lat="39.724001996219158" lon="-3.492648024111986">
        <ele>653.60000000000002</ele>
        <time>2003-04-20T20:57:24Z</time>
      </trkpt>
      <trkpt lat="39.724915036931634" lon="-3.49242196418345">
        <ele>653.39999999999998</ele>
        <time>2003-04-20T20:57:27Z</time>
      </trkpt>
      <trkpt lat="39.725830005481839" lon="-3.492179978638887">
        <ele>653.29999999999995</ele>
        <time>2003-04-20T20:57:31Z</time>
      </trkpt>
      <trkpt lat="39.726742962375283" lon="-3.491942016407847">
        <ele>653.70000000000005</ele>
        <time>2003-04-20T20:57:34Z</time>
      </trkpt>
      <trkpt lat="39.727654997259378" lon="-3.49171201698482">
        <ele>654.20000000000005</ele>
        <time>2003-04-20T20:57:36Z</time>
      </trkpt>
      <trkpt lat="39.728568037971854" lon="-3.491485035046935">
        <ele>654.89999999999998</ele>
        <time>2003-04-20T20:57:39Z</time>
      </trkpt>
      <trkpt lat="39.729488035663962" lon="-3.491259980946779">
        <ele>655.29999999999995</ele>
        <time>2003-04-20T20:57:43Z</time>
      </trkpt>
      <trkpt lat="39.730411972850561" lon="-3.491014977917075">
        <ele>655.79999999999995</ele>
        <time>2003-04-20T20:57:46Z</time>
      </trkpt>
      <trkpt lat="39.731342028826475" lon="-3.490771986544132">
        <ele>656.39999999999998</ele>
        <time>2003-04-20T20:57:49Z</time>
      </trkpt>
      <trkpt lat="39.732275018468499" lon="-3.490537041798234">
        <ele>657.10000000000002</ele>
        <time>2003-04-20T20:57:51Z</time>
      </trkpt>
      <trkpt lat="39.733210019767284" lon="-3.490309976041317">
        <ele>658</ele>
        <time>2003-04-20T20:57:54Z</time>
      </trkpt>
      <trkpt lat="39.734137980267406" lon="-3.490064973011613">
        <ele>659</ele>
        <time>2003-04-20T20:57:58Z</time>
      </trkpt>
      <trkpt lat="39.735065018758178" lon="-3.489828016608954">
        <ele>660</ele>
        <time>2003-04-20T20:58:01Z</time>
      </trkpt>
      <trkpt lat="39.735985016450286" lon="-3.489591982215643">
        <ele>661.70000000000005</ele>
        <time>2003-04-20T20:58:03Z</time>
      </trkpt>
      <trkpt lat="39.736899985000491" lon="-3.489355025812984">
        <ele>663.70000000000005</ele>
        <time>2003-04-20T20:58:06Z</time>
      </trkpt>
      <trkpt lat="39.737807996571064" lon="-3.489127038046718">
        <ele>665.79999999999995</ele>
        <time>2003-04-20T20:58:10Z</time>
      </trkpt>
      <trkpt lat="39.738712990656495" lon="-3.488893015310168">
        <ele>668.20000000000005</ele>
        <time>2003-04-20T20:58:13Z</time>
      </trkpt>
      <trkpt lat="39.739613039419055" lon="-3.488642983138561">
        <ele>670.5</ele>
        <time>2003-04-20T20:58:16Z</time>
      </trkpt>
      <trkpt lat="39.74050797522068" lon="-3.488351963460445">
        <ele>671.70000000000005</ele>
        <time>2003-04-20T20:58:18Z</time>
      </trkpt>
      <trkpt lat="39.74140802398324" lon="-3.488039989024401">
        <ele>671.29999999999995</ele>
        <time>2003-04-20T20:58:21Z</time>
      </trkpt>
      <trkpt lat="39.742334978654981" lon="-3.487719967961311">
        <ele>669.79999999999995</ele>
        <time>2003-04-20T20:58:25Z</time>
      </trkpt>
      <trkpt lat="39.743272997438908" lon="-3.487401958554983">
        <ele>669.70000000000005</ele>
        <time>2003-04-20T20:58:28Z</time>
      </trkpt>
      <trkpt lat="39.744204981252551" lon="-3.487074980512261">
        <ele>670.5</ele>
        <time>2003-04-20T20:58:30Z</time>
      </trkpt>
      <trkpt lat="39.745141994208097" lon="-3.48674800246954">
        <ele>670.10000000000002</ele>
        <time>2003-04-20T20:58:33Z</time>
      </trkpt>
      <trkpt lat="39.74609300494194" lon="-3.486424963921309">
        <ele>668.79999999999995</ele>
        <time>2003-04-20T20:58:37Z</time>
      </trkpt>
      <trkpt lat="39.747048038989305" lon="-3.486093040555716">
        <ele>667.60000000000002</ele>
        <time>2003-04-20T20:58:40Z</time>
      </trkpt>
      <trkpt lat="39.748012963682413" lon="-3.48576002754271">
        <ele>665.29999999999995</ele>
        <time>2003-04-20T20:58:43Z</time>
      </trkpt>
      <trkpt lat="39.748976966366172" lon="-3.485422991216183">
        <ele>665</ele>
        <time>2003-04-20T20:58:45Z</time>
      </trkpt>
      <trkpt lat="39.749927977100015" lon="-3.485087966546416">
        <ele>666.5</ele>
        <time>2003-04-20T20:58:48Z</time>
      </trkpt>
      <trkpt lat="39.750873036682606" lon="-3.484761994332075">
        <ele>668.10000000000002</ele>
        <time>2003-04-20T20:58:52Z</time>
      </trkpt>
      <trkpt lat="39.75180703215301" lon="-3.484444990754128">
        <ele>670</ele>
        <time>2003-04-20T20:58:55Z</time>
      </trkpt>
      <trkpt lat="39.752729963511229" lon="-3.484129998832941">
        <ele>672</ele>
        <time>2003-04-20T20:58:57Z</time>
      </trkpt>
      <trkpt lat="39.753635041415691" lon="-3.483820036053658">
        <ele>675.70000000000005</ele>
        <time>2003-04-20T20:59:00Z</time>
      </trkpt>
      <trkpt lat="39.754517991095781" lon="-3.483513006940484">
        <ele>678.89999999999998</ele>
        <time>2003-04-20T20:59:04Z</time>
      </trkpt>
      <trkpt lat="39.755391972139478" lon="-3.483200026676059">
        <ele>680</ele>
        <time>2003-04-20T20:59:07Z</time>
      </trkpt>
      <trkpt lat="39.756272993981838" lon="-3.482891991734505">
        <ele>679.60000000000002</ele>
        <time>2003-04-20T20:59:10Z</time>
      </trkpt>
      <trkpt lat="39.757147980853915" lon="-3.482584962621331">
        <ele>681.39999999999998</ele>
        <time>2003-04-20T20:59:12Z</time>
      </trkpt>
      <trkpt lat="39.758308036252856" lon="-3.482186989858747">
        <ele>683.39999999999998</ele>
        <time>2003-04-20T20:59:16Z</time>
      </trkpt>
      <trkpt lat="39.759462978690863" lon="-3.481792034581304">
        <ele>683.89999999999998</ele>
        <time>2003-04-20T20:59:20Z</time>
      </trkpt>
      <trkpt lat="39.760578023269773" lon="-3.48144200630486">
        <ele>686</ele>
        <time>2003-04-20T20:59:24Z</time>
      </trkpt>
      <trkpt lat="39.761685021221638" lon="-3.481245031580329">
        <ele>689.5</ele>
        <time>2003-04-20T20:59:29Z</time>
      </trkpt>
      <trkpt lat="39.762781960889697" lon="-3.481051996350288">
        <ele>694</ele>
        <time>2003-04-20T20:59:33Z</time>
      </trkpt>
      <trkpt lat="39.763847971335053" lon="-3.480877988040447">
        <ele>697.79999999999995</ele>
        <time>2003-04-20T20:59:37Z</time>
      </trkpt>
      <trkpt lat="39.764937032014132" lon="-3.480697022750974">
        <ele>698.10000000000002</ele>
        <time>2003-04-20T20:59:41Z</time>
      </trkpt>
      <trkpt lat="39.766062973067164" lon="-3.480507005006075">
        <ele>697.89999999999998</ele>
        <time>2003-04-20T20:59:45Z</time>
      </trkpt>
      <trkpt lat="39.767226967960596" lon="-3.480310030281544">
        <ele>697.39999999999998</ele>
        <time>2003-04-20T20:59:49Z</time>
      </trkpt>
      <trkpt lat="39.768404960632324" lon="-3.480118000879884">
        <ele>697.79999999999995</ele>
        <time>2003-04-20T20:59:53Z</time>
      </trkpt>
      <trkpt lat="39.769523022696376" lon="-3.479935023933649">
        <ele>697.89999999999998</ele>
        <time>2003-04-20T20:59:57Z</time>
      </trkpt>
      <trkpt lat="39.770637983456254" lon="-3.479732014238834">
        <ele>698.29999999999995</ele>
        <time>2003-04-20T21:00:01Z</time>
      </trkpt>
      <trkpt lat="39.771752022206783" lon="-3.479547025635839">
        <ele>698.39999999999998</ele>
        <time>2003-04-20T21:00:05Z</time>
      </trkpt>
      <trkpt lat="39.772875029593706" lon="-3.479366982355714">
        <ele>697.79999999999995</ele>
        <time>2003-04-20T21:00:09Z</time>
      </trkpt>
      <trkpt lat="39.773987978696823" lon="-3.479176964610815">
        <ele>698.29999999999995</ele>
        <time>2003-04-20T21:00:13Z</time>
      </trkpt>
      <trkpt lat="39.775082990527153" lon="-3.479034975171089">
        <ele>699.5</ele>
        <time>2003-04-20T21:00:17Z</time>
      </trkpt>
      <trkpt lat="39.776162998750806" lon="-3.478940008208156">
        <ele>699.60000000000002</ele>
        <time>2003-04-20T21:00:21Z</time>
      </trkpt>
      <trkpt lat="39.776697009801865" lon="-3.478943025693297">
        <ele>699.60000000000002</ele>
        <time>2003-04-20T21:00:23Z</time>
      </trkpt>
      <trkpt lat="39.777742987498641" lon="-3.479067999869585">
        <ele>699.79999999999995</ele>
        <time>2003-04-20T21:00:27Z</time>
      </trkpt>
      <trkpt lat="39.778783014044166" lon="-3.479362959042192">
        <ele>700.20000000000005</ele>
        <time>2003-04-20T21:00:31Z</time>
      </trkpt>
      <trkpt lat="39.779809964820743" lon="-3.479866962879896">
        <ele>700.39999999999998</ele>
        <time>2003-04-20T21:00:35Z</time>
      </trkpt>
      <trkpt lat="39.780801963061094" lon="-3.480557966977358">
        <ele>700.79999999999995</ele>
        <time>2003-04-20T21:00:39Z</time>
      </trkpt>
      <trkpt lat="39.781779963523149" lon="-3.481367994099855">
        <ele>700.39999999999998</ele>
        <time>2003-04-20T21:00:43Z</time>
      </trkpt>
      <trkpt lat="39.782765004783869" lon="-3.482152037322521">
        <ele>698.29999999999995</ele>
        <time>2003-04-20T21:00:47Z</time>
      </trkpt>
      <trkpt lat="39.783588023856282" lon="-3.482656963169575">
        <ele>696.39999999999998</ele>
        <time>2003-04-20T21:00:50Z</time>
      </trkpt>
      <trkpt lat="39.784480025991797" lon="-3.483057031407952">
        <ele>692.29999999999995</ele>
        <time>2003-04-20T21:00:52Z</time>
      </trkpt>
      <trkpt lat="39.785407986491919" lon="-3.483337992802262">
        <ele>687.79999999999995</ele>
        <time>2003-04-20T21:00:55Z</time>
      </trkpt>
      <trkpt lat="39.786335024982691" lon="-3.483470007777214">
        <ele>682.70000000000005</ele>
        <time>2003-04-20T21:00:59Z</time>
      </trkpt>
      <trkpt lat="39.786644987761974" lon="-3.483470007777214">
        <ele>680.89999999999998</ele>
        <time>2003-04-20T21:00:59Z</time>
      </trkpt>
      <trkpt lat="39.78755802847445" lon="-3.483442012220621">
        <ele>675.60000000000002</ele>
        <time>2003-04-20T21:01:03Z</time>
      </trkpt>
      <trkpt lat="39.788457993417978" lon="-3.483298011124134">
        <ele>670.79999999999995</ele>
        <time>2003-04-20T21:01:06Z</time>
      </trkpt>
      <trkpt lat="39.789347983896732" lon="-3.48303004167974">
        <ele>665.70000000000005</ele>
        <time>2003-04-20T21:01:08Z</time>
      </trkpt>
      <trkpt lat="39.790230011567473" lon="-3.482670038938522">
        <ele>662.29999999999995</ele>
        <time>2003-04-20T21:01:11Z</time>
      </trkpt>
      <trkpt lat="39.791116984561086" lon="-3.482327973470092">
        <ele>658.5</ele>
        <time>2003-04-20T21:01:15Z</time>
      </trkpt>
      <trkpt lat="39.791994988918304" lon="-3.481988003477454">
        <ele>655.29999999999995</ele>
        <time>2003-04-20T21:01:18Z</time>
      </trkpt>
      <trkpt lat="39.792863018810749" lon="-3.481645015999675">
        <ele>651.70000000000005</ele>
        <time>2003-04-20T21:01:21Z</time>
      </trkpt>
      <trkpt lat="39.793732976540923" lon="-3.48131300881505">
        <ele>648.10000000000002</ele>
        <time>2003-04-20T21:01:23Z</time>
      </trkpt>
      <trkpt lat="39.794602012261748" lon="-3.480987958610058">
        <ele>645.70000000000005</ele>
        <time>2003-04-20T21:01:26Z</time>
      </trkpt>
      <trkpt lat="39.795738011598587" lon="-3.480542041361332">
        <ele>644.10000000000002</ele>
        <time>2003-04-20T21:01:30Z</time>
      </trkpt>
      <trkpt lat="39.796875016763806" lon="-3.4801119659096">
        <ele>640.79999999999995</ele>
        <time>2003-04-20T21:01:34Z</time>
      </trkpt>
      <trkpt lat="39.798019984737039" lon="-3.479688009247184">
        <ele>636.79999999999995</ele>
        <time>2003-04-20T21:01:38Z</time>
      </trkpt>
      <trkpt lat="39.798892959952354" lon="-3.479405036196113">
        <ele>633.70000000000005</ele>
        <time>2003-04-20T21:01:42Z</time>
      </trkpt>
      <trkpt lat="39.79978202842176" lon="-3.479209989309311">
        <ele>631.29999999999995</ele>
        <time>2003-04-20T21:01:45Z</time>
      </trkpt>
      <trkpt lat="39.800682999193668" lon="-3.479109993204474">
        <ele>627.79999999999995</ele>
        <time>2003-04-20T21:01:48Z</time>
      </trkpt>
      <trkpt lat="39.801593022421002" lon="-3.479019971564412">
        <ele>625</ele>
        <time>2003-04-20T21:01:50Z</time>
      </trkpt>
      <trkpt lat="39.802506985142827" lon="-3.478942019864917">
        <ele>623.29999999999995</ele>
        <time>2003-04-20T21:01:53Z</time>
      </trkpt>
      <trkpt lat="39.803422037512064" lon="-3.478851998224855">
        <ele>622</ele>
        <time>2003-04-20T21:01:57Z</time>
      </trkpt>
      <trkpt lat="39.804340023547411" lon="-3.478772034868598">
        <ele>620.70000000000005</ele>
        <time>2003-04-20T21:02:00Z</time>
      </trkpt>
      <trkpt lat="39.80526496656239" lon="-3.478697016835213">
        <ele>619.20000000000005</ele>
        <time>2003-04-20T21:02:02Z</time>
      </trkpt>
      <trkpt lat="39.806192005053163" lon="-3.478608001023531">
        <ele>615.79999999999995</ele>
        <time>2003-04-20T21:02:05Z</time>
      </trkpt>
      <trkpt lat="39.807134969159961" lon="-3.478543041273952">
        <ele>611.60000000000002</ele>
        <time>2003-04-20T21:02:09Z</time>
      </trkpt>
      <trkpt lat="39.807771993800998" lon="-3.478534994646907">
        <ele>609</ele>
        <time>2003-04-20T21:02:11Z</time>
      </trkpt>
      <trkpt lat="39.808728033676744" lon="-3.478640019893646">
        <ele>606.10000000000002</ele>
        <time>2003-04-20T21:02:13Z</time>
      </trkpt>
      <trkpt lat="39.809681978076696" lon="-3.478819979354739">
        <ele>606.29999999999995</ele>
        <time>2003-04-20T21:02:16Z</time>
      </trkpt>
      <trkpt lat="39.8106350004673" lon="-3.479006979614496">
        <ele>606.79999999999995</ele>
        <time>2003-04-20T21:02:20Z</time>
      </trkpt>
      <trkpt lat="39.811567990109324" lon="-3.479192974045873">
        <ele>607.39999999999998</ele>
        <time>2003-04-20T21:02:23Z</time>
      </trkpt>
      <trkpt lat="39.812486981973052" lon="-3.479367988184094">
        <ele>608.79999999999995</ele>
        <time>2003-04-20T21:02:25Z</time>
      </trkpt>
      <trkpt lat="39.813398011028767" lon="-3.47955197095871">
        <ele>610.10000000000002</ele>
        <time>2003-04-20T21:02:28Z</time>
      </trkpt>
      <trkpt lat="39.81430702842772" lon="-3.479732014238834">
        <ele>611</ele>
        <time>2003-04-20T21:02:32Z</time>
      </trkpt>
      <trkpt lat="39.815206993371248" lon="-3.479909962043166">
        <ele>612.5</ele>
        <time>2003-04-20T21:02:35Z</time>
      </trkpt>
      <trkpt lat="39.816106958314776" lon="-3.480086987838149">
        <ele>614</ele>
        <time>2003-04-20T21:02:38Z</time>
      </trkpt>
      <trkpt lat="39.816998038440943" lon="-3.480254961177707">
        <ele>616.79999999999995</ele>
        <time>2003-04-20T21:02:40Z</time>
      </trkpt>
      <trkpt lat="39.818137977272272" lon="-3.480493007227778">
        <ele>621.79999999999995</ele>
        <time>2003-04-20T21:02:44Z</time>
      </trkpt>
      <trkpt lat="39.818931994959712" lon="-3.480770029127598">
        <ele>625.29999999999995</ele>
        <time>2003-04-20T21:02:47Z</time>
      </trkpt>
      <trkpt lat="39.819907983765006" lon="-3.481289958581328">
        <ele>629.89999999999998</ele>
        <time>2003-04-20T21:02:51Z</time>
      </trkpt>
      <trkpt lat="39.820567974820733" lon="-3.481845008209348">
        <ele>633.60000000000002</ele>
        <time>2003-04-20T21:02:55Z</time>
      </trkpt>
      <trkpt lat="39.82144296169281" lon="-3.482582028955221">
        <ele>637.5</ele>
        <time>2003-04-20T21:02:59Z</time>
      </trkpt>
      <trkpt lat="39.82232297770679" lon="-3.483322989195585">
        <ele>639.89999999999998</ele>
        <time>2003-04-20T21:03:03Z</time>
      </trkpt>
      <trkpt lat="39.823231995105743" lon="-3.484022039920092">
        <ele>642.5</ele>
        <time>2003-04-20T21:03:07Z</time>
      </trkpt>
      <trkpt lat="39.823974967002869" lon="-3.484365027397871">
        <ele>644.29999999999995</ele>
        <time>2003-04-20T21:03:10Z</time>
      </trkpt>
      <trkpt lat="39.82475196942687" lon="-3.484574994072318">
        <ele>646.29999999999995</ele>
        <time>2003-04-20T21:03:13Z</time>
      </trkpt>
      <trkpt lat="39.825282040983438" lon="-3.484607012942433">
        <ele>647.5</ele>
        <time>2003-04-20T21:03:14Z</time>
      </trkpt>
      <trkpt lat="39.825547998771071" lon="-3.484577005729079">
        <ele>648.10000000000002</ele>
        <time>2003-04-20T21:03:15Z</time>
      </trkpt>
      <trkpt lat="39.826606968417764" lon="-3.484390005469322">
        <ele>650.70000000000005</ele>
        <time>2003-04-20T21:03:19Z</time>
      </trkpt>
      <trkpt lat="39.827674990519881" lon="-3.484218008816242">
        <ele>653.10000000000002</ele>
        <time>2003-04-20T21:03:23Z</time>
      </trkpt>
      <trkpt lat="39.828751981258392" lon="-3.484033020213246">
        <ele>655.29999999999995</ele>
        <time>2003-04-20T21:03:27Z</time>
      </trkpt>
      <trkpt lat="39.829837018623948" lon="-3.483857000246644">
        <ele>657.39999999999998</ele>
        <time>2003-04-20T21:03:32Z</time>
      </trkpt>
      <trkpt lat="39.830927001312375" lon="-3.483682991936803">
        <ele>660</ele>
        <time>2003-04-20T21:03:36Z</time>
      </trkpt>
      <trkpt lat="39.83201002702117" lon="-3.48350303247571">
        <ele>664.89999999999998</ele>
        <time>2003-04-20T21:03:40Z</time>
      </trkpt>
      <trkpt lat="39.832797003909945" lon="-3.483277978375554">
        <ele>668.5</ele>
        <time>2003-04-20T21:03:42Z</time>
      </trkpt>
      <trkpt lat="39.83353796415031" lon="-3.482883023098111">
        <ele>671.79999999999995</ele>
        <time>2003-04-20T21:03:45Z</time>
      </trkpt>
      <trkpt lat="39.834198039025068" lon="-3.482320010662079">
        <ele>675.39999999999998</ele>
        <time>2003-04-20T21:03:49Z</time>
      </trkpt>
      <trkpt lat="39.834787035360932" lon="-3.481607967987657">
        <ele>678.89999999999998</ele>
        <time>2003-04-20T21:03:52Z</time>
      </trkpt>
      <trkpt lat="39.835270000621676" lon="-3.480759970843792">
        <ele>682.39999999999998</ele>
        <time>2003-04-20T21:03:54Z</time>
      </trkpt>
      <trkpt lat="39.835823038592935" lon="-3.4795300103724">
        <ele>687</ele>
        <time>2003-04-20T21:03:59Z</time>
      </trkpt>
      <trkpt lat="39.836393008008599" lon="-3.478289991617203">
        <ele>692.10000000000002</ele>
        <time>2003-04-20T21:04:03Z</time>
      </trkpt>
      <trkpt lat="39.836964989081025" lon="-3.477079980075359">
        <ele>696.5</ele>
        <time>2003-04-20T21:04:07Z</time>
      </trkpt>
      <trkpt lat="39.837605031207204" lon="-3.475999971851707">
        <ele>698.39999999999998</ele>
        <time>2003-04-20T21:04:11Z</time>
      </trkpt>
      <trkpt lat="39.838205007836223" lon="-3.475309973582625">
        <ele>700.10000000000002</ele>
        <time>2003-04-20T21:04:15Z</time>
      </trkpt>
      <trkpt lat="39.83888503164053" lon="-3.474732963368297">
        <ele>701.89999999999998</ele>
        <time>2003-04-20T21:04:16Z</time>
      </trkpt>
      <trkpt lat="39.839892033487558" lon="-3.474167017266154">
        <ele>704</ele>
        <time>2003-04-20T21:04:20Z</time>
      </trkpt>
      <trkpt lat="39.840702982619405" lon="-3.473920002579689">
        <ele>705.60000000000002</ele>
        <time>2003-04-20T21:04:24Z</time>
      </trkpt>
      <trkpt lat="39.841820038855076" lon="-3.473671982064843">
        <ele>707.10000000000002</ele>
        <time>2003-04-20T21:04:28Z</time>
      </trkpt>
      <trkpt lat="39.842959977686405" lon="-3.473422033712268">
        <ele>708.60000000000002</ele>
        <time>2003-04-20T21:04:31Z</time>
      </trkpt>
      <trkpt lat="39.844127995893359" lon="-3.473164960741997">
        <ele>709.20000000000005</ele>
        <time>2003-04-20T21:04:35Z</time>
      </trkpt>
      <trkpt lat="39.84503198415041" lon="-3.472958011552692">
        <ele>707.89999999999998</ele>
        <time>2003-04-20T21:04:39Z</time>
      </trkpt>
      <trkpt lat="39.845962040126324" lon="-3.472747961059213">
        <ele>706.29999999999995</ele>
        <time>2003-04-20T21:04:42Z</time>
      </trkpt>
      <trkpt lat="39.846908021718264" lon="-3.472532965242863">
        <ele>706.10000000000002</ele>
        <time>2003-04-20T21:04:44Z</time>
      </trkpt>
      <trkpt lat="39.847836988046765" lon="-3.472319981083274">
        <ele>705.89999999999998</ele>
        <time>2003-04-20T21:04:47Z</time>
      </trkpt>
      <trkpt lat="39.848762014880776" lon="-3.472116971388459">
        <ele>706.29999999999995</ele>
        <time>2003-04-20T21:04:51Z</time>
      </trkpt>
      <trkpt lat="39.849692992866039" lon="-3.471971964463592">
        <ele>706.79999999999995</ele>
        <time>2003-04-20T21:04:54Z</time>
      </trkpt>
      <trkpt lat="39.85061801970005" lon="-3.471942041069269">
        <ele>708.5</ele>
        <time>2003-04-20T21:04:57Z</time>
      </trkpt>
      <trkpt lat="39.851531982421875" lon="-3.471912033855915">
        <ele>709.79999999999995</ele>
        <time>2003-04-20T21:05:01Z</time>
      </trkpt>
      <trkpt lat="39.851832976564765" lon="-3.471922008320689">
        <ele>709.89999999999998</ele>
        <time>2003-04-20T21:05:02Z</time>
      </trkpt>
      <trkpt lat="39.852735036984086" lon="-3.472062991932035">
        <ele>711</ele>
        <time>2003-04-20T21:05:05Z</time>
      </trkpt>
      <trkpt lat="39.853607006371021" lon="-3.472406985238195">
        <ele>712.60000000000002</ele>
        <time>2003-04-20T21:05:07Z</time>
      </trkpt>
      <trkpt lat="39.854675028473139" lon="-3.472958011552692">
        <ele>716.39999999999998</ele>
        <time>2003-04-20T21:05:11Z</time>
      </trkpt>
      <trkpt lat="39.855697033926845" lon="-3.47366301342845">
        <ele>716.29999999999995</ele>
        <time>2003-04-20T21:05:15Z</time>
      </trkpt>
      <trkpt lat="39.856772013008595" lon="-3.474321998655796">
        <ele>716.89999999999998</ele>
        <time>2003-04-20T21:05:20Z</time>
      </trkpt>
      <trkpt lat="39.857635013759136" lon="-3.47467496059835">
        <ele>717.10000000000002</ele>
        <time>2003-04-20T21:05:22Z</time>
      </trkpt>
      <trkpt lat="39.858532967045903" lon="-3.474987018853426">
        <ele>714.79999999999995</ele>
        <time>2003-04-20T21:05:25Z</time>
      </trkpt>
      <trkpt lat="39.859456988051534" lon="-3.47531701438129">
        <ele>713.79999999999995</ele>
        <time>2003-04-20T21:05:29Z</time>
      </trkpt>
      <trkpt lat="39.860387966036797" lon="-3.475652039051056">
        <ele>713.70000000000005</ele>
        <time>2003-04-20T21:05:32Z</time>
      </trkpt>
      <trkpt lat="39.861322967335582" lon="-3.475978011265397">
        <ele>715.29999999999995</ele>
        <time>2003-04-20T21:05:34Z</time>
      </trkpt>
      <trkpt lat="39.862253023311496" lon="-3.476313035935164">
        <ele>717</ele>
        <time>2003-04-20T21:05:37Z</time>
      </trkpt>
      <trkpt lat="39.863179977983236" lon="-3.476657029241324">
        <ele>718.79999999999995</ele>
        <time>2003-04-20T21:05:41Z</time>
      </trkpt>
      <trkpt lat="39.864092012867332" lon="-3.476966992020607">
        <ele>721.70000000000005</ele>
        <time>2003-04-20T21:05:44Z</time>
      </trkpt>
      <trkpt lat="39.864994995296001" lon="-3.477194979786873">
        <ele>724.5</ele>
        <time>2003-04-20T21:05:47Z</time>
      </trkpt>
      <trkpt lat="39.865922033786774" lon="-3.477312996983528">
        <ele>725.29999999999995</ele>
        <time>2003-04-20T21:05:49Z</time>
      </trkpt>
      <trkpt lat="39.866853011772037" lon="-3.47738198004663">
        <ele>724.70000000000005</ele>
        <time>2003-04-20T21:05:52Z</time>
      </trkpt>
      <trkpt lat="39.867802010849118" lon="-3.477426990866661">
        <ele>724</ele>
        <time>2003-04-20T21:05:56Z</time>
      </trkpt>
      <trkpt lat="39.868118008598685" lon="-3.477426990866661">
        <ele>724.79999999999995</ele>
        <time>2003-04-20T21:05:56Z</time>
      </trkpt>
      <trkpt lat="39.869062984362245" lon="-3.477349961176515">
        <ele>727.39999999999998</ele>
        <time>2003-04-20T21:06:00Z</time>
      </trkpt>
      <trkpt lat="39.869999997317791" lon="-3.477173019200563">
        <ele>728.70000000000005</ele>
        <time>2003-04-20T21:06:03Z</time>
      </trkpt>
      <trkpt lat="39.870942961424589" lon="-3.476979983970523">
        <ele>730</ele>
        <time>2003-04-20T21:06:05Z</time>
      </trkpt>
      <trkpt lat="39.871896989643574" lon="-3.476788038387895">
        <ele>729.20000000000005</ele>
        <time>2003-04-20T21:06:08Z</time>
      </trkpt>
      <trkpt lat="39.872852023690939" lon="-3.476600032299757">
        <ele>728.5</ele>
        <time>2003-04-20T21:06:12Z</time>
      </trkpt>
      <trkpt lat="39.873791970312595" lon="-3.476408002898097">
        <ele>728.5</ele>
        <time>2003-04-20T21:06:15Z</time>
      </trkpt>
      <trkpt lat="39.874677015468478" lon="-3.476165011525154">
        <ele>727.5</ele>
        <time>2003-04-20T21:06:18Z</time>
      </trkpt>
      <trkpt lat="39.875510009005666" lon="-3.475775001570582">
        <ele>723.60000000000002</ele>
        <time>2003-04-20T21:06:20Z</time>
      </trkpt>
      <trkpt lat="39.876343002542853" lon="-3.475307961925864">
        <ele>720.5</ele>
        <time>2003-04-20T21:06:23Z</time>
      </trkpt>
      <trkpt lat="39.877186976373196" lon="-3.474840000271797">
        <ele>718.5</ele>
        <time>2003-04-20T21:06:27Z</time>
      </trkpt>
      <trkpt lat="39.878030028194189" lon="-3.47437203861773">
        <ele>717.79999999999995</ele>
        <time>2003-04-20T21:06:30Z</time>
      </trkpt>
      <trkpt lat="39.878890011459589" lon="-3.473887983709574">
        <ele>717.20000000000005</ele>
        <time>2003-04-20T21:06:32Z</time>
      </trkpt>
      <trkpt lat="39.879725016653538" lon="-3.47342798486352">
        <ele>716</ele>
        <time>2003-04-20T21:06:35Z</time>
      </trkpt>
      <trkpt lat="39.880796978250146" lon="-3.472843011841178">
        <ele>714.79999999999995</ele>
        <time>2003-04-20T21:06:39Z</time>
      </trkpt>
      <trkpt lat="39.881886960938573" lon="-3.472238006070256">
        <ele>714.10000000000002</ele>
        <time>2003-04-20T21:06:43Z</time>
      </trkpt>
      <trkpt lat="39.882720038294792" lon="-3.471777001395822">
        <ele>714</ele>
        <time>2003-04-20T21:06:46Z</time>
      </trkpt>
      <trkpt lat="39.883568035438657" lon="-3.471317002549768">
        <ele>714.20000000000005</ele>
        <time>2003-04-20T21:06:50Z</time>
      </trkpt>
      <trkpt lat="39.884440004825592" lon="-3.470917018130422">
        <ele>715.39999999999998</ele>
        <time>2003-04-20T21:06:53Z</time>
      </trkpt>
      <trkpt lat="39.885350028052926" lon="-3.470681989565492">
        <ele>716.20000000000005</ele>
        <time>2003-04-20T21:06:55Z</time>
      </trkpt>
      <trkpt lat="39.88628201186657" lon="-3.470609989017248">
        <ele>717</ele>
        <time>2003-04-20T21:06:58Z</time>
      </trkpt>
      <trkpt lat="39.886592980474234" lon="-3.470622980967164">
        <ele>717.39999999999998</ele>
        <time>2003-04-20T21:06:59Z</time>
      </trkpt>
      <trkpt lat="39.887524964287877" lon="-3.470777962356806">
        <ele>718.20000000000005</ele>
        <time>2003-04-20T21:07:02Z</time>
      </trkpt>
      <trkpt lat="39.888431970030069" lon="-3.471096977591515">
        <ele>719.29999999999995</ele>
        <time>2003-04-20T21:07:06Z</time>
      </trkpt>
      <trkpt lat="39.889296982437372" lon="-3.471557982265949">
        <ele>720.29999999999995</ele>
        <time>2003-04-20T21:07:09Z</time>
      </trkpt>
      <trkpt lat="39.890155037865043" lon="-3.472034996375442">
        <ele>722.5</ele>
        <time>2003-04-20T21:07:12Z</time>
      </trkpt>
      <trkpt lat="39.891264969483018" lon="-3.472555009648204">
        <ele>726.20000000000005</ele>
        <time>2003-04-20T21:07:16Z</time>
      </trkpt>
      <trkpt lat="39.89212503656745" lon="-3.472694987431169">
        <ele>728.39999999999998</ele>
        <time>2003-04-20T21:07:18Z</time>
      </trkpt>
      <trkpt lat="39.892698023468256" lon="-3.472688030451536">
        <ele>729.10000000000002</ele>
        <time>2003-04-20T21:07:21Z</time>
      </trkpt>
      <trkpt lat="39.893275033682585" lon="-3.47267797216773">
        <ele>729.10000000000002</ele>
        <time>2003-04-20T21:07:22Z</time>
      </trkpt>
      <trkpt lat="39.89444799721241" lon="-3.472691969946027">
        <ele>729.39999999999998</ele>
        <time>2003-04-20T21:07:26Z</time>
      </trkpt>
      <trkpt lat="39.894746979698539" lon="-3.47269699908793">
        <ele>729.5</ele>
        <time>2003-04-20T21:07:28Z</time>
      </trkpt>
      <trkpt lat="39.895933018997312" lon="-3.472730023786426">
        <ele>729.60000000000002</ele>
        <time>2003-04-20T21:07:32Z</time>
      </trkpt>
      <trkpt lat="39.897101959213614" lon="-3.472761958837509">
        <ele>729.79999999999995</ele>
        <time>2003-04-20T21:07:36Z</time>
      </trkpt>
      <trkpt lat="39.89827198907733" lon="-3.47278299741447">
        <ele>728.70000000000005</ele>
        <time>2003-04-20T21:07:40Z</time>
      </trkpt>
      <trkpt lat="39.899466997012496" lon="-3.472842006012797">
        <ele>726</ele>
        <time>2003-04-20T21:07:44Z</time>
      </trkpt>
      <trkpt lat="39.90035698749125" lon="-3.473024982959032">
        <ele>723.79999999999995</ele>
        <time>2003-04-20T21:07:47Z</time>
      </trkpt>
      <trkpt lat="39.90125703625381" lon="-3.47327996045351">
        <ele>723.29999999999995</ele>
        <time>2003-04-20T21:07:49Z</time>
      </trkpt>
      <trkpt lat="39.902166975662112" lon="-3.473505014553666">
        <ele>724.60000000000002</ele>
        <time>2003-04-20T21:07:52Z</time>
      </trkpt>
      <trkpt lat="39.903078004717827" lon="-3.473735013976693">
        <ele>725.70000000000005</ele>
        <time>2003-04-20T21:07:56Z</time>
      </trkpt>
      <trkpt lat="39.904000014066696" lon="-3.473963001742959">
        <ele>726.5</ele>
        <time>2003-04-20T21:07:59Z</time>
      </trkpt>
      <trkpt lat="39.904935015365481" lon="-3.474186966195703">
        <ele>727.10000000000002</ele>
        <time>2003-04-20T21:08:02Z</time>
      </trkpt>
      <trkpt lat="39.905883008614182" lon="-3.474401962012053">
        <ele>727.60000000000002</ele>
        <time>2003-04-20T21:08:04Z</time>
      </trkpt>
      <trkpt lat="39.906829996034503" lon="-3.474634978920221">
        <ele>728.5</ele>
        <time>2003-04-20T21:08:07Z</time>
      </trkpt>
      <trkpt lat="39.907737001776695" lon="-3.474870007485151">
        <ele>730</ele>
        <time>2003-04-20T21:08:11Z</time>
      </trkpt>
      <trkpt lat="39.908502018079162" lon="-3.475066982209683">
        <ele>730.39999999999998</ele>
        <time>2003-04-20T21:08:14Z</time>
      </trkpt>
      <trkpt lat="39.908882975578308" lon="-3.475163038820028">
        <ele>730.70000000000005</ele>
        <time>2003-04-20T21:08:15Z</time>
      </trkpt>
      <trkpt lat="39.909159997478127" lon="-3.475233027711511">
        <ele>730.79999999999995</ele>
        <time>2003-04-20T21:08:18Z</time>
      </trkpt>
      <trkpt lat="39.909387985244393" lon="-3.475305028259754">
        <ele>730.79999999999995</ele>
        <time>2003-04-20T21:08:19Z</time>
      </trkpt>
      <trkpt lat="39.910170016810298" lon="-3.475507032126188">
        <ele>731.39999999999998</ele>
        <time>2003-04-20T21:08:27Z</time>
      </trkpt>
      <trkpt lat="39.910277975723147" lon="-3.475537039339542">
        <ele>731.60000000000002</ele>
        <time>2003-04-20T21:08:29Z</time>
      </trkpt>
      <trkpt lat="39.910430023446679" lon="-3.475577021017671">
        <ele>731.79999999999995</ele>
        <time>2003-04-20T21:08:31Z</time>
      </trkpt>
      <trkpt lat="39.910594979301095" lon="-3.475623037666082">
        <ele>731.70000000000005</ele>
        <time>2003-04-20T21:08:37Z</time>
      </trkpt>
      <trkpt lat="39.910848028957844" lon="-3.475687997415662">
        <ele>732</ele>
        <time>2003-04-20T21:08:43Z</time>
      </trkpt>
      <trkpt lat="39.911193028092384" lon="-3.475772989913821">
        <ele>732.39999999999998</ele>
        <time>2003-04-20T21:08:51Z</time>
      </trkpt>
      <trkpt lat="39.911425039172173" lon="-3.475827975198627">
        <ele>732.70000000000005</ele>
        <time>2003-04-20T21:08:58Z</time>
      </trkpt>
      <trkpt lat="39.911625031381845" lon="-3.475878015160561">
        <ele>732.79999999999995</ele>
        <time>2003-04-20T21:09:04Z</time>
      </trkpt>
      <trkpt lat="39.911812031641603" lon="-3.475927971303463">
        <ele>733.5</ele>
        <time>2003-04-20T21:09:24Z</time>
      </trkpt>
      <trkpt lat="39.911912027746439" lon="-3.475952027365565">
        <ele>733.70000000000005</ele>
        <time>2003-04-20T21:09:28Z</time>
      </trkpt>
      <trkpt lat="39.912067009136081" lon="-3.475995026528835">
        <ele>733.70000000000005</ele>
        <time>2003-04-20T21:09:39Z</time>
      </trkpt>
      <trkpt lat="39.91219500079751" lon="-3.476023022085428">
        <ele>734.10000000000002</ele>
        <time>2003-04-20T21:09:48Z</time>
      </trkpt>
      <trkpt lat="39.912294996902347" lon="-3.476042971014977">
        <ele>734.20000000000005</ele>
        <time>2003-04-20T21:09:51Z</time>
      </trkpt>
      <trkpt lat="39.912939984351397" lon="-3.476213039830327">
        <ele>734.70000000000005</ele>
        <time>2003-04-20T21:10:07Z</time>
      </trkpt>
      <trkpt lat="39.913850007578731" lon="-3.476516967639327">
        <ele>735.89999999999998</ele>
        <time>2003-04-20T21:10:26Z</time>
      </trkpt>
      <trkpt lat="39.914718037471175" lon="-3.476873030886054">
        <ele>736.89999999999998</ele>
        <time>2003-04-20T21:10:46Z</time>
      </trkpt>
      <trkpt lat="39.915595036000013" lon="-3.477236973121762">
        <ele>737.29999999999995</ele>
        <time>2003-04-20T21:11:06Z</time>
      </trkpt>
      <trkpt lat="39.916217979043722" lon="-3.477502008900046">
        <ele>737.5</ele>
        <time>2003-04-20T21:11:20Z</time>
      </trkpt>
      <trkpt lat="39.916428029537201" lon="-3.477577026933432">
        <ele>737.5</ele>
        <time>2003-04-20T21:11:24Z</time>
      </trkpt>
      <trkpt lat="39.917254988104105" lon="-3.477907022461295">
        <ele>737.20000000000005</ele>
        <time>2003-04-20T21:11:36Z</time>
      </trkpt>
      <trkpt lat="39.917499991133809" lon="-3.477996960282326">
        <ele>737.10000000000002</ele>
        <time>2003-04-20T21:11:40Z</time>
      </trkpt>
      <trkpt lat="39.917666958644986" lon="-3.478063009679318">
        <ele>737</ele>
        <time>2003-04-20T21:11:42Z</time>
      </trkpt>
      <trkpt lat="39.917862005531788" lon="-3.47815697081387">
        <ele>737</ele>
        <time>2003-04-20T21:11:43Z</time>
      </trkpt>
      <trkpt lat="39.918325021862984" lon="-3.478355035185814">
        <ele>737.10000000000002</ele>
        <time>2003-04-20T21:11:47Z</time>
      </trkpt>
      <trkpt lat="39.918879987671971" lon="-3.47858302295208">
        <ele>737.20000000000005</ele>
        <time>2003-04-20T21:11:51Z</time>
      </trkpt>
      <trkpt lat="39.919852036982775" lon="-3.478985019028187">
        <ele>737.39999999999998</ele>
        <time>2003-04-20T21:11:58Z</time>
      </trkpt>
      <trkpt lat="39.920770023018122" lon="-3.479432025924325">
        <ele>736.79999999999995</ele>
        <time>2003-04-20T21:12:03Z</time>
      </trkpt>
      <trkpt lat="39.921748023480177" lon="-3.480078019201756">
        <ele>735.89999999999998</ele>
        <time>2003-04-20T21:12:07Z</time>
      </trkpt>
      <trkpt lat="39.922580011188984" lon="-3.480634996667504">
        <ele>735.60000000000002</ele>
        <time>2003-04-20T21:12:11Z</time>
      </trkpt>
      <trkpt lat="39.923458015546203" lon="-3.481230027973652">
        <ele>735.39999999999998</ele>
        <time>2003-04-20T21:12:15Z</time>
      </trkpt>
      <trkpt lat="39.924365021288395" lon="-3.481797985732555">
        <ele>735.20000000000005</ele>
        <time>2003-04-20T21:12:19Z</time>
      </trkpt>
      <trkpt lat="39.925330029800534" lon="-3.482323028147221">
        <ele>735.79999999999995</ele>
        <time>2003-04-20T21:12:23Z</time>
      </trkpt>
      <trkpt lat="39.926333008334041" lon="-3.482825020328164">
        <ele>736.70000000000005</ele>
        <time>2003-04-20T21:12:27Z</time>
      </trkpt>
      <trkpt lat="39.927351996302605" lon="-3.483332963660359">
        <ele>737.39999999999998</ele>
        <time>2003-04-20T21:12:32Z</time>
      </trkpt>
      <trkpt lat="39.928357992321253" lon="-3.483845014125109">
        <ele>738.10000000000002</ele>
        <time>2003-04-20T21:12:36Z</time>
      </trkpt>
      <trkpt lat="39.929316965863109" lon="-3.484359998255968">
        <ele>738.79999999999995</ele>
        <time>2003-04-20T21:12:40Z</time>
      </trkpt>
      <trkpt lat="39.930215002968907" lon="-3.484898032620549">
        <ele>739.29999999999995</ele>
        <time>2003-04-20T21:12:44Z</time>
      </trkpt>
      <trkpt lat="39.931095018982887" lon="-3.485442018136382">
        <ele>739.39999999999998</ele>
        <time>2003-04-20T21:12:48Z</time>
      </trkpt>
      <trkpt lat="39.931934969499707" lon="-3.485966976732016">
        <ele>739.5</ele>
        <time>2003-04-20T21:12:52Z</time>
      </trkpt>
      <trkpt lat="39.932902995496988" lon="-3.486586986109614">
        <ele>739.39999999999998</ele>
        <time>2003-04-20T21:12:57Z</time>
      </trkpt>
      <trkpt lat="39.933562986552715" lon="-3.487001974135637">
        <ele>739.10000000000002</ele>
        <time>2003-04-20T21:13:01Z</time>
      </trkpt>
      <trkpt lat="39.934502011165023" lon="-3.487587030977011">
        <ele>738.5</ele>
        <time>2003-04-20T21:13:07Z</time>
      </trkpt>
      <trkpt lat="39.935452016070485" lon="-3.488192958757281">
        <ele>739</ele>
        <time>2003-04-20T21:13:12Z</time>
      </trkpt>
      <trkpt lat="39.936381988227367" lon="-3.488782960921526">
        <ele>740</ele>
        <time>2003-04-20T21:13:19Z</time>
      </trkpt>
      <trkpt lat="39.937208024784923" lon="-3.489295011386275">
        <ele>740.5</ele>
        <time>2003-04-20T21:13:24Z</time>
      </trkpt>
      <trkpt lat="39.938064990565181" lon="-3.489836985245347">
        <ele>740.5</ele>
        <time>2003-04-20T21:13:28Z</time>
      </trkpt>
      <trkpt lat="39.938649963587523" lon="-3.490209979936481">
        <ele>740.39999999999998</ele>
        <time>2003-04-20T21:13:32Z</time>
      </trkpt>
      <trkpt lat="39.93926502764225" lon="-3.490618010982871">
        <ele>740.39999999999998</ele>
        <time>2003-04-20T21:13:38Z</time>
      </trkpt>
      <trkpt lat="39.939347002655268" lon="-3.490677019581199">
        <ele>740</ele>
        <time>2003-04-20T21:13:39Z</time>
      </trkpt>
      <trkpt lat="39.939472982659936" lon="-3.490772992372513">
        <ele>739.70000000000005</ele>
        <time>2003-04-20T21:13:40Z</time>
      </trkpt>
      <trkpt lat="39.939586976543069" lon="-3.490862008184195">
        <ele>739.5</ele>
        <time>2003-04-20T21:13:43Z</time>
      </trkpt>
      <trkpt lat="39.939680015668273" lon="-3.490927973762155">
        <ele>739.39999999999998</ele>
        <time>2003-04-20T21:13:44Z</time>
      </trkpt>
      <trkpt lat="39.939783029258251" lon="-3.491007015109062">
        <ele>739.20000000000005</ele>
        <time>2003-04-20T21:13:47Z</time>
      </trkpt>
      <trkpt lat="39.94010497815907" lon="-3.491240032017231">
        <ele>738.5</ele>
        <time>2003-04-20T21:13:55Z</time>
      </trkpt>
      <trkpt lat="39.940337995067239" lon="-3.491412028670311">
        <ele>737.89999999999998</ele>
        <time>2003-04-20T21:14:02Z</time>
      </trkpt>
      <trkpt lat="39.941150033846498" lon="-3.491989960893989">
        <ele>737.20000000000005</ele>
        <time>2003-04-20T21:14:25Z</time>
      </trkpt>
      <trkpt lat="39.941278025507927" lon="-3.492072019726038">
        <ele>737.10000000000002</ele>
        <time>2003-04-20T21:14:29Z</time>
      </trkpt>
      <trkpt lat="39.942065002396703" lon="-3.492593038827181">
        <ele>737.5</ele>
        <time>2003-04-20T21:15:01Z</time>
      </trkpt>
      <trkpt lat="39.942172961309552" lon="-3.492665039375424">
        <ele>737.5</ele>
        <time>2003-04-20T21:15:05Z</time>
      </trkpt>
      <trkpt lat="39.94227496907115" lon="-3.492729999125004">
        <ele>737.5</ele>
        <time>2003-04-20T21:15:08Z</time>
      </trkpt>
      <trkpt lat="39.942512009292841" lon="-3.492882968857884">
        <ele>737.70000000000005</ele>
        <time>2003-04-20T21:15:12Z</time>
      </trkpt>
      <trkpt lat="39.942981982603669" lon="-3.493183040991426">
        <ele>738</ele>
        <time>2003-04-20T21:15:19Z</time>
      </trkpt>
      <trkpt lat="39.943831991404295" lon="-3.493723003193736">
        <ele>738.20000000000005</ele>
        <time>2003-04-20T21:15:35Z</time>
      </trkpt>
      <trkpt lat="39.944666996598244" lon="-3.494347035884857">
        <ele>738.70000000000005</ele>
        <time>2003-04-20T21:15:50Z</time>
      </trkpt>
      <trkpt lat="39.945207964628935" lon="-3.494945000857115">
        <ele>739</ele>
        <time>2003-04-20T21:15:58Z</time>
      </trkpt>
      <trkpt lat="39.94547501206398" lon="-3.495331993326545">
        <ele>738.79999999999995</ele>
        <time>2003-04-20T21:16:02Z</time>
      </trkpt>
      <trkpt lat="39.945654971525073" lon="-3.495576996356249">
        <ele>738.79999999999995</ele>
        <time>2003-04-20T21:16:05Z</time>
      </trkpt>
      <trkpt lat="39.946238016709685" lon="-3.496381994336844">
        <ele>738.60000000000002</ele>
        <time>2003-04-20T21:16:10Z</time>
      </trkpt>
      <trkpt lat="39.946821983903646" lon="-3.497186992317438">
        <ele>738.70000000000005</ele>
        <time>2003-04-20T21:16:16Z</time>
      </trkpt>
      <trkpt lat="39.947481974959373" lon="-3.49811302497983">
        <ele>738.79999999999995</ele>
        <time>2003-04-20T21:16:21Z</time>
      </trkpt>
      <trkpt lat="39.948107013478875" lon="-3.498975019901991">
        <ele>739</ele>
        <time>2003-04-20T21:16:25Z</time>
      </trkpt>
      <trkpt lat="39.94848302565515" lon="-3.49957499653101">
        <ele>738.89999999999998</ele>
        <time>2003-04-20T21:16:29Z</time>
      </trkpt>
      <trkpt lat="39.948537005111575" lon="-3.49968203343451">
        <ele>739</ele>
        <time>2003-04-20T21:16:30Z</time>
      </trkpt>
      <trkpt lat="39.948616968467832" lon="-3.499847995117307">
        <ele>738.89999999999998</ele>
        <time>2003-04-20T21:16:33Z</time>
      </trkpt>
      <trkpt lat="39.949019970372319" lon="-3.500858014449477">
        <ele>738.60000000000002</ele>
        <time>2003-04-20T21:16:43Z</time>
      </trkpt>
      <trkpt lat="39.949102029204369" lon="-3.501092959195375">
        <ele>738.60000000000002</ele>
        <time>2003-04-20T21:16:45Z</time>
      </trkpt>
      <trkpt lat="39.949142010882497" lon="-3.501211982220411">
        <ele>738.5</ele>
        <time>2003-04-20T21:16:48Z</time>
      </trkpt>
      <trkpt lat="39.949421966448426" lon="-3.502004994079471">
        <ele>736.70000000000005</ele>
        <time>2003-04-20T21:17:42Z</time>
      </trkpt>
      <trkpt lat="39.94951500557363" lon="-3.502272963523865">
        <ele>736.79999999999995</ele>
        <time>2003-04-20T21:17:46Z</time>
      </trkpt>
      <trkpt lat="39.94957996532321" lon="-3.502461975440383">
        <ele>736.89999999999998</ele>
        <time>2003-04-20T21:17:49Z</time>
      </trkpt>
      <trkpt lat="39.949693037196994" lon="-3.502783002331853">
        <ele>737</ele>
        <time>2003-04-20T21:17:51Z</time>
      </trkpt>
      <trkpt lat="39.950097966939211" lon="-3.503956971690059">
        <ele>737.10000000000002</ele>
        <time>2003-04-20T21:18:01Z</time>
      </trkpt>
      <trkpt lat="39.950344981625676" lon="-3.504664991050959">
        <ele>737</ele>
        <time>2003-04-20T21:18:06Z</time>
      </trkpt>
      <trkpt lat="39.950640024617314" lon="-3.505512988194823">
        <ele>737</ele>
        <time>2003-04-20T21:18:13Z</time>
      </trkpt>
      <trkpt lat="39.950708001852036" lon="-3.505714992061257">
        <ele>737</ele>
        <time>2003-04-20T21:18:14Z</time>
      </trkpt>
      <trkpt lat="39.950797017663717" lon="-3.505980027839541">
        <ele>737</ele>
        <time>2003-04-20T21:18:17Z</time>
      </trkpt>
      <trkpt lat="39.951032968237996" lon="-3.506668014451861">
        <ele>736.79999999999995</ele>
        <time>2003-04-20T21:18:25Z</time>
      </trkpt>
      <trkpt lat="39.951327005401254" lon="-3.507617013528943">
        <ele>736.5</ele>
        <time>2003-04-20T21:18:32Z</time>
      </trkpt>
      <trkpt lat="39.951497996225953" lon="-3.508440032601357">
        <ele>736</ele>
        <time>2003-04-20T21:18:39Z</time>
      </trkpt>
      <trkpt lat="39.951572008430958" lon="-3.509419960901141">
        <ele>735.60000000000002</ele>
        <time>2003-04-20T21:18:44Z</time>
      </trkpt>
      <trkpt lat="39.951566979289055" lon="-3.510695016011596">
        <ele>735</ele>
        <time>2003-04-20T21:18:52Z</time>
      </trkpt>
      <trkpt lat="39.951572008430958" lon="-3.511872002854943">
        <ele>734.5</ele>
        <time>2003-04-20T21:18:59Z</time>
      </trkpt>
      <trkpt lat="39.951569996774197" lon="-3.512407019734383">
        <ele>734.29999999999995</ele>
        <time>2003-04-20T21:19:02Z</time>
      </trkpt>
      <trkpt lat="39.951566979289055" lon="-3.512667026370764">
        <ele>734.39999999999998</ele>
        <time>2003-04-20T21:19:03Z</time>
      </trkpt>
      <trkpt lat="39.951566979289055" lon="-3.512883028015494">
        <ele>734.29999999999995</ele>
        <time>2003-04-20T21:19:06Z</time>
      </trkpt>
      <trkpt lat="39.951557004824281" lon="-3.514075018465519">
        <ele>733.70000000000005</ele>
        <time>2003-04-20T21:19:17Z</time>
      </trkpt>
      <trkpt lat="39.95155499316752" lon="-3.514462010934949">
        <ele>733.20000000000005</ele>
        <time>2003-04-20T21:19:21Z</time>
      </trkpt>
      <trkpt lat="39.951552981510758" lon="-3.514631995931268">
        <ele>732.89999999999998</ele>
        <time>2003-04-20T21:19:23Z</time>
      </trkpt>
      <trkpt lat="39.95155499316752" lon="-3.515123007819057">
        <ele>732.29999999999995</ele>
        <time>2003-04-20T21:19:30Z</time>
      </trkpt>
      <trkpt lat="39.951560022309422" lon="-3.515457026660442">
        <ele>731.39999999999998</ele>
        <time>2003-04-20T21:19:35Z</time>
      </trkpt>
      <trkpt lat="39.951636968180537" lon="-3.516412982717156">
        <ele>728.60000000000002</ele>
        <time>2003-04-20T21:19:50Z</time>
      </trkpt>
      <trkpt lat="39.951837966218591" lon="-3.517359970137477">
        <ele>724.29999999999995</ele>
        <time>2003-04-20T21:20:04Z</time>
      </trkpt>
      <trkpt lat="39.952180031687021" lon="-3.518284996971488">
        <ele>719.70000000000005</ele>
        <time>2003-04-20T21:20:19Z</time>
      </trkpt>
      <trkpt lat="39.952584961429238" lon="-3.519027968868613">
        <ele>715.5</ele>
        <time>2003-04-20T21:20:31Z</time>
      </trkpt>
      <trkpt lat="39.952755030244589" lon="-3.51927800104022">
        <ele>714</ele>
        <time>2003-04-20T21:20:35Z</time>
      </trkpt>
      <trkpt lat="39.952919986099005" lon="-3.519525015726686">
        <ele>712.79999999999995</ele>
        <time>2003-04-20T21:20:38Z</time>
      </trkpt>
      <trkpt lat="39.953112015500665" lon="-3.519817963242531">
        <ele>711</ele>
        <time>2003-04-20T21:20:40Z</time>
      </trkpt>
      <trkpt lat="39.953757002949715" lon="-3.52078196592629">
        <ele>705.10000000000002</ele>
        <time>2003-04-20T21:20:51Z</time>
      </trkpt>
      <trkpt lat="39.95434801094234" lon="-3.521677991375327">
        <ele>699.5</ele>
        <time>2003-04-20T21:20:59Z</time>
      </trkpt>
      <trkpt lat="39.954674988985062" lon="-3.522166991606355">
        <ele>696.39999999999998</ele>
        <time>2003-04-20T21:21:03Z</time>
      </trkpt>
      <trkpt lat="39.95527496561408" lon="-3.523056982085109">
        <ele>691.10000000000002</ele>
        <time>2003-04-20T21:21:13Z</time>
      </trkpt>
      <trkpt lat="39.955903021618724" lon="-3.524006986990571">
        <ele>685.29999999999995</ele>
        <time>2003-04-20T21:21:21Z</time>
      </trkpt>
      <trkpt lat="39.956580027937889" lon="-3.525026980787516">
        <ele>678.79999999999995</ele>
        <time>2003-04-20T21:21:29Z</time>
      </trkpt>
      <trkpt lat="39.95718696154654" lon="-3.525942033156753">
        <ele>673.20000000000005</ele>
        <time>2003-04-20T21:21:34Z</time>
      </trkpt>
      <trkpt lat="39.957852987572551" lon="-3.526952974498272">
        <ele>667.60000000000002</ele>
        <time>2003-04-20T21:21:41Z</time>
      </trkpt>
      <trkpt lat="39.958460005000234" lon="-3.527868026867509">
        <ele>662.20000000000005</ele>
        <time>2003-04-20T21:21:45Z</time>
      </trkpt>
      <trkpt lat="39.959155032411218" lon="-3.528907969594002">
        <ele>656.29999999999995</ele>
        <time>2003-04-20T21:21:50Z</time>
      </trkpt>
      <trkpt lat="39.959904961287975" lon="-3.529993006959558">
        <ele>651.79999999999995</ele>
        <time>2003-04-20T21:21:56Z</time>
      </trkpt>
      <trkpt lat="39.960556989535689" lon="-3.530887020751834">
        <ele>649.60000000000002</ele>
        <time>2003-04-20T21:22:00Z</time>
      </trkpt>
      <trkpt lat="39.961199965327978" lon="-3.531747004017234">
        <ele>648.79999999999995</ele>
        <time>2003-04-20T21:22:04Z</time>
      </trkpt>
      <trkpt lat="39.961907984688878" lon="-3.532691979780793">
        <ele>648.39999999999998</ele>
        <time>2003-04-20T21:22:08Z</time>
      </trkpt>
      <trkpt lat="39.962593037635088" lon="-3.533627986907959">
        <ele>647.89999999999998</ele>
        <time>2003-04-20T21:22:13Z</time>
      </trkpt>
      <trkpt lat="39.963312037289143" lon="-3.534591989591718">
        <ele>645.60000000000002</ele>
        <time>2003-04-20T21:22:19Z</time>
      </trkpt>
      <trkpt lat="39.964087028056383" lon="-3.535642996430397">
        <ele>642.20000000000005</ele>
        <time>2003-04-20T21:22:24Z</time>
      </trkpt>
      <trkpt lat="39.964829999953508" lon="-3.536695009097457">
        <ele>640.10000000000002</ele>
        <time>2003-04-20T21:22:28Z</time>
      </trkpt>
      <trkpt lat="39.96506997384131" lon="-3.537149978801608">
        <ele>639.20000000000005</ele>
        <time>2003-04-20T21:22:31Z</time>
      </trkpt>
      <trkpt lat="39.965597027912736" lon="-3.538382034748793">
        <ele>638.5</ele>
        <time>2003-04-20T21:22:35Z</time>
      </trkpt>
      <trkpt lat="39.966137995943427" lon="-3.539613001048565">
        <ele>637.29999999999995</ele>
        <time>2003-04-20T21:22:40Z</time>
      </trkpt>
      <trkpt lat="39.966626996174455" lon="-3.540791999548674">
        <ele>634.29999999999995</ele>
        <time>2003-04-20T21:22:46Z</time>
      </trkpt>
      <trkpt lat="39.967117002233863" lon="-3.541958006098867">
        <ele>632.60000000000002</ele>
        <time>2003-04-20T21:22:51Z</time>
      </trkpt>
      <trkpt lat="39.967612959444523" lon="-3.543142033740878">
        <ele>630.5</ele>
        <time>2003-04-20T21:22:55Z</time>
      </trkpt>
      <trkpt lat="39.968095002695918" lon="-3.544303011149168">
        <ele>629.5</ele>
        <time>2003-04-20T21:23:01Z</time>
      </trkpt>
      <trkpt lat="39.968588026240468" lon="-3.545476980507374">
        <ele>628.79999999999995</ele>
        <time>2003-04-20T21:23:06Z</time>
      </trkpt>
      <trkpt lat="39.969077026471496" lon="-3.546633012592793">
        <ele>628.29999999999995</ele>
        <time>2003-04-20T21:23:10Z</time>
      </trkpt>
      <trkpt lat="39.969548005610704" lon="-3.54776700027287">
        <ele>628.20000000000005</ele>
        <time>2003-04-20T21:23:15Z</time>
      </trkpt>
      <trkpt lat="39.970014961436391" lon="-3.548878021538258">
        <ele>628</ele>
        <time>2003-04-20T21:23:21Z</time>
      </trkpt>
      <trkpt lat="39.970485018566251" lon="-3.549982002004981">
        <ele>627.29999999999995</ele>
        <time>2003-04-20T21:23:25Z</time>
      </trkpt>
      <trkpt lat="39.970969995483756" lon="-3.551072990521789">
        <ele>626.39999999999998</ele>
        <time>2003-04-20T21:23:30Z</time>
      </trkpt>
      <trkpt lat="39.971475005149841" lon="-3.552082004025579">
        <ele>625.10000000000002</ele>
        <time>2003-04-20T21:23:36Z</time>
      </trkpt>
      <trkpt lat="39.971950007602572" lon="-3.553163018077612">
        <ele>626</ele>
        <time>2003-04-20T21:23:41Z</time>
      </trkpt>
      <trkpt lat="39.972397014498711" lon="-3.554230034351349">
        <ele>627.20000000000005</ele>
        <time>2003-04-20T21:23:45Z</time>
      </trkpt>
      <trkpt lat="39.972839998081326" lon="-3.555256985127926">
        <ele>628</ele>
        <time>2003-04-20T21:23:51Z</time>
      </trkpt>
      <trkpt lat="39.973075026646256" lon="-3.555774986743927">
        <ele>626.89999999999998</ele>
        <time>2003-04-20T21:23:55Z</time>
      </trkpt>
      <trkpt lat="39.973499989137053" lon="-3.556711999699473">
        <ele>623.60000000000002</ele>
        <time>2003-04-20T21:24:00Z</time>
      </trkpt>
      <trkpt lat="39.973753038793802" lon="-3.557417001575232">
        <ele>628.10000000000002</ele>
        <time>2003-04-20T21:24:04Z</time>
      </trkpt>
      <trkpt lat="39.973837025463581" lon="-3.557622022926807">
        <ele>628.89999999999998</ele>
        <time>2003-04-20T21:24:08Z</time>
      </trkpt>
      <trkpt lat="39.974189987406135" lon="-3.558470020070672">
        <ele>629.60000000000002</ele>
        <time>2003-04-20T21:24:15Z</time>
      </trkpt>
      <trkpt lat="39.97445703484118" lon="-3.559092041105032">
        <ele>629.79999999999995</ele>
        <time>2003-04-20T21:24:19Z</time>
      </trkpt>
      <trkpt lat="39.974917033687234" lon="-3.560197027400136">
        <ele>629.79999999999995</ele>
        <time>2003-04-20T21:24:24Z</time>
      </trkpt>
      <trkpt lat="39.975439980626106" lon="-3.561421958729625">
        <ele>628.89999999999998</ele>
        <time>2003-04-20T21:24:31Z</time>
      </trkpt>
      <trkpt lat="39.975896961987019" lon="-3.562508001923561">
        <ele>628.20000000000005</ele>
        <time>2003-04-20T21:24:35Z</time>
      </trkpt>
      <trkpt lat="39.976368024945259" lon="-3.563607037067413">
        <ele>628</ele>
        <time>2003-04-20T21:24:41Z</time>
      </trkpt>
      <trkpt lat="39.976825006306171" lon="-3.564691990613937">
        <ele>629.10000000000002</ele>
        <time>2003-04-20T21:24:46Z</time>
      </trkpt>
      <trkpt lat="39.977330015972257" lon="-3.565869983285666">
        <ele>629.39999999999998</ele>
        <time>2003-04-20T21:24:51Z</time>
      </trkpt>
      <trkpt lat="39.977611983194947" lon="-3.566537015140057">
        <ele>628.79999999999995</ele>
        <time>2003-04-20T21:24:55Z</time>
      </trkpt>
      <trkpt lat="39.9777249712497" lon="-3.566789980977774">
        <ele>628.20000000000005</ele>
        <time>2003-04-20T21:24:58Z</time>
      </trkpt>
      <trkpt lat="39.977822033688426" lon="-3.566927025094628">
        <ele>627.60000000000002</ele>
        <time>2003-04-20T21:24:59Z</time>
      </trkpt>
      <trkpt lat="39.97793996706605" lon="-3.567006988450885">
        <ele>627.20000000000005</ele>
        <time>2003-04-20T21:25:02Z</time>
      </trkpt>
      <trkpt lat="39.978067958727479" lon="-3.567012017592788">
        <ele>627.39999999999998</ele>
        <time>2003-04-20T21:25:03Z</time>
      </trkpt>
      <trkpt lat="39.978163009509444" lon="-3.567076977342367">
        <ele>627.5</ele>
        <time>2003-04-20T21:25:06Z</time>
      </trkpt>
      <trkpt lat="39.978227969259024" lon="-3.567215027287602">
        <ele>627.5</ele>
        <time>2003-04-20T21:25:09Z</time>
      </trkpt>
      <trkpt lat="39.978271974250674" lon="-3.567373026162386">
        <ele>627.10000000000002</ele>
        <time>2003-04-20T21:25:12Z</time>
      </trkpt>
      <trkpt lat="39.978335006162524" lon="-3.567460030317307">
        <ele>626.79999999999995</ele>
        <time>2003-04-20T21:25:13Z</time>
      </trkpt>
      <trkpt lat="39.978397032245994" lon="-3.56757503002882">
        <ele>626.70000000000005</ele>
        <time>2003-04-20T21:25:17Z</time>
      </trkpt>
      <trkpt lat="39.978338023647666" lon="-3.56774996034801">
        <ele>622.70000000000005</ele>
        <time>2003-04-20T21:26:08Z</time>
      </trkpt>
      <trkpt lat="39.978271974250674" lon="-3.56785498559475">
        <ele>622.29999999999995</ele>
        <time>2003-04-20T21:26:12Z</time>
      </trkpt>
      <trkpt lat="39.978253031149507" lon="-3.568020025268197">
        <ele>621.89999999999998</ele>
        <time>2003-04-20T21:26:16Z</time>
      </trkpt>
      <trkpt lat="39.978302987292409" lon="-3.5681770183146">
        <ele>621.89999999999998</ele>
        <time>2003-04-20T21:26:19Z</time>
      </trkpt>
      <trkpt lat="39.978422010317445" lon="-3.56843501329422">
        <ele>621.70000000000005</ele>
        <time>2003-04-20T21:26:22Z</time>
      </trkpt>
      <trkpt lat="39.978529969230294" lon="-3.568680016323924">
        <ele>621.70000000000005</ele>
        <time>2003-04-20T21:26:23Z</time>
      </trkpt>
      <trkpt lat="39.978652009740472" lon="-3.568968018516898">
        <ele>621.89999999999998</ele>
        <time>2003-04-20T21:26:26Z</time>
      </trkpt>
      <trkpt lat="39.978919979184866" lon="-3.569592973217368">
        <ele>622.70000000000005</ele>
        <time>2003-04-20T21:26:30Z</time>
      </trkpt>
      <trkpt lat="39.979392969980836" lon="-3.570701982825995">
        <ele>623.29999999999995</ele>
        <time>2003-04-20T21:26:35Z</time>
      </trkpt>
      <trkpt lat="39.979947013780475" lon="-3.571890033781529">
        <ele>622.10000000000002</ele>
        <time>2003-04-20T21:26:42Z</time>
      </trkpt>
      <trkpt lat="39.98049502260983" lon="-3.57301002368331">
        <ele>619.5</ele>
        <time>2003-04-20T21:26:46Z</time>
      </trkpt>
      <trkpt lat="39.981002965942025" lon="-3.574002021923661">
        <ele>617.29999999999995</ele>
        <time>2003-04-20T21:26:50Z</time>
      </trkpt>
      <trkpt lat="39.981536976993084" lon="-3.57507498934865">
        <ele>615.39999999999998</ele>
        <time>2003-04-20T21:26:54Z</time>
      </trkpt>
      <trkpt lat="39.98206302523613" lon="-3.576122978702188">
        <ele>613.70000000000005</ele>
        <time>2003-04-20T21:26:58Z</time>
      </trkpt>
      <trkpt lat="39.982574991881847" lon="-3.577110031619668">
        <ele>612.10000000000002</ele>
        <time>2003-04-20T21:27:02Z</time>
      </trkpt>
      <trkpt lat="39.98316197656095" lon="-3.578258017078042">
        <ele>611</ele>
        <time>2003-04-20T21:27:08Z</time>
      </trkpt>
      <trkpt lat="39.983736975118518" lon="-3.579432992264628">
        <ele>610.39999999999998</ele>
        <time>2003-04-20T21:27:13Z</time>
      </trkpt>
      <trkpt lat="39.984350027516484" lon="-3.580626994371414">
        <ele>610.10000000000002</ele>
        <time>2003-04-20T21:27:17Z</time>
      </trkpt>
      <trkpt lat="39.984952015802264" lon="-3.581814961507917">
        <ele>610.5</ele>
        <time>2003-04-20T21:27:23Z</time>
      </trkpt>
      <trkpt lat="39.985545035451651" lon="-3.583020027726889">
        <ele>611.79999999999995</ele>
        <time>2003-04-20T21:27:28Z</time>
      </trkpt>
      <trkpt lat="39.986121961846948" lon="-3.584167007356882">
        <ele>613.70000000000005</ele>
        <time>2003-04-20T21:27:32Z</time>
      </trkpt>
      <trkpt lat="39.986735014244914" lon="-3.585393028333783">
        <ele>613.39999999999998</ele>
        <time>2003-04-20T21:27:37Z</time>
      </trkpt>
      <trkpt lat="39.98726500198245" lon="-3.586449986323714">
        <ele>611.79999999999995</ele>
        <time>2003-04-20T21:27:41Z</time>
      </trkpt>
      <trkpt lat="39.987830026075244" lon="-3.587544998154044">
        <ele>608.70000000000005</ele>
        <time>2003-04-20T21:27:45Z</time>
      </trkpt>
      <trkpt lat="39.988394966349006" lon="-3.58867303468287">
        <ele>606.70000000000005</ele>
        <time>2003-04-20T21:27:50Z</time>
      </trkpt>
      <trkpt lat="39.988957978785038" lon="-3.589786989614368">
        <ele>607.20000000000005</ele>
        <time>2003-04-20T21:27:54Z</time>
      </trkpt>
      <trkpt lat="39.989515040069818" lon="-3.5908870305866">
        <ele>606.39999999999998</ele>
        <time>2003-04-20T21:27:58Z</time>
      </trkpt>
      <trkpt lat="39.990047039464116" lon="-3.59196200966835">
        <ele>606.89999999999998</ele>
        <time>2003-04-20T21:28:02Z</time>
      </trkpt>
      <trkpt lat="39.990578033030033" lon="-3.593028020113707">
        <ele>607</ele>
        <time>2003-04-20T21:28:06Z</time>
      </trkpt>
      <trkpt lat="39.991117995232344" lon="-3.594087995588779">
        <ele>606.79999999999995</ele>
        <time>2003-04-20T21:28:10Z</time>
      </trkpt>
      <trkpt lat="39.991655023768544" lon="-3.595168003812432">
        <ele>606.29999999999995</ele>
        <time>2003-04-20T21:28:14Z</time>
      </trkpt>
      <trkpt lat="39.992192974314094" lon="-3.596242982894182">
        <ele>606.20000000000005</ele>
        <time>2003-04-20T21:28:18Z</time>
      </trkpt>
      <trkpt lat="39.992712987586856" lon="-3.597282003611326">
        <ele>606</ele>
        <time>2003-04-20T21:28:22Z</time>
      </trkpt>
      <trkpt lat="39.993202993646264" lon="-3.5982780251652">
        <ele>605.5</ele>
        <time>2003-04-20T21:28:26Z</time>
      </trkpt>
      <trkpt lat="39.993806993588805" lon="-3.599446965381503">
        <ele>605.10000000000002</ele>
        <time>2003-04-20T21:28:30Z</time>
      </trkpt>
      <trkpt lat="39.993992988020182" lon="-3.599806968122721">
        <ele>604.60000000000002</ele>
        <time>2003-04-20T21:28:33Z</time>
      </trkpt>
      <trkpt lat="39.994451981037855" lon="-3.60087800770998">
        <ele>604.10000000000002</ele>
        <time>2003-04-20T21:28:38Z</time>
      </trkpt>
      <trkpt lat="39.995032008737326" lon="-3.602006966248155">
        <ele>603.39999999999998</ele>
        <time>2003-04-20T21:28:45Z</time>
      </trkpt>
      <trkpt lat="39.995323028415442" lon="-3.602448021993041">
        <ele>603</ele>
        <time>2003-04-20T21:28:48Z</time>
      </trkpt>
      <trkpt lat="39.996038004755974" lon="-3.603267017751932">
        <ele>602.20000000000005</ele>
        <time>2003-04-20T21:28:53Z</time>
      </trkpt>
      <trkpt lat="39.996839985251427" lon="-3.603966990485787">
        <ele>601.70000000000005</ele>
        <time>2003-04-20T21:28:58Z</time>
      </trkpt>
      <trkpt lat="39.997755037620664" lon="-3.604760002344847">
        <ele>601</ele>
        <time>2003-04-20T21:29:04Z</time>
      </trkpt>
      <trkpt lat="39.998536985367537" lon="-3.605447988957167">
        <ele>600.70000000000005</ele>
        <time>2003-04-20T21:29:08Z</time>
      </trkpt>
      <trkpt lat="39.999303007498384" lon="-3.606167994439602">
        <ele>600.29999999999995</ele>
        <time>2003-04-20T21:29:12Z</time>
      </trkpt>
      <trkpt lat="40.000097025185823" lon="-3.6069780215621">
        <ele>599.39999999999998</ele>
        <time>2003-04-20T21:29:16Z</time>
      </trkpt>
      <trkpt lat="40.0008649751544" lon="-3.607857031747699">
        <ele>597.79999999999995</ele>
        <time>2003-04-20T21:29:20Z</time>
      </trkpt>
      <trkpt lat="40.001612976193428" lon="-3.608748028054833">
        <ele>596</ele>
        <time>2003-04-20T21:29:24Z</time>
      </trkpt>
      <trkpt lat="40.002458039671183" lon="-3.609613040462136">
        <ele>595.39999999999998</ele>
        <time>2003-04-20T21:29:28Z</time>
      </trkpt>
      <trkpt lat="40.003339983522892" lon="-3.610400017350912">
        <ele>595.70000000000005</ele>
        <time>2003-04-20T21:29:32Z</time>
      </trkpt>
      <trkpt lat="40.004189992323518" lon="-3.611192023381591">
        <ele>596</ele>
        <time>2003-04-20T21:29:36Z</time>
      </trkpt>
      <trkpt lat="40.005022985860705" lon="-3.61194203607738">
        <ele>596.10000000000002</ele>
        <time>2003-04-20T21:29:40Z</time>
      </trkpt>
      <trkpt lat="40.005799988284707" lon="-3.61265198327601">
        <ele>596.10000000000002</ele>
        <time>2003-04-20T21:29:43Z</time>
      </trkpt>
      <trkpt lat="40.006555030122399" lon="-3.613337958231568">
        <ele>594.29999999999995</ele>
        <time>2003-04-20T21:29:47Z</time>
      </trkpt>
      <trkpt lat="40.00737302005291" lon="-3.614082019776106">
        <ele>590.10000000000002</ele>
        <time>2003-04-20T21:29:51Z</time>
      </trkpt>
      <trkpt lat="40.008184975013137" lon="-3.614824991673231">
        <ele>583.70000000000005</ele>
        <time>2003-04-20T21:29:55Z</time>
      </trkpt>
      <trkpt lat="40.008974969387054" lon="-3.615614986047149">
        <ele>577</ele>
        <time>2003-04-20T21:29:59Z</time>
      </trkpt>
      <trkpt lat="40.009685000404716" lon="-3.616589969024062">
        <ele>570.20000000000005</ele>
        <time>2003-04-20T21:30:03Z</time>
      </trkpt>
      <trkpt lat="40.010127983987331" lon="-3.617436960339546">
        <ele>564.79999999999995</ele>
        <time>2003-04-20T21:30:07Z</time>
      </trkpt>
      <trkpt lat="40.010484969243407" lon="-3.618370033800602">
        <ele>559.5</ele>
        <time>2003-04-20T21:30:10Z</time>
      </trkpt>
      <trkpt lat="40.010822005569935" lon="-3.619737960398197">
        <ele>553.39999999999998</ele>
        <time>2003-04-20T21:30:14Z</time>
      </trkpt>
      <trkpt lat="40.010942034423351" lon="-3.620776981115341">
        <ele>551</ele>
        <time>2003-04-20T21:30:17Z</time>
      </trkpt>
      <trkpt lat="40.011062985286117" lon="-3.622186984866858">
        <ele>547.29999999999995</ele>
        <time>2003-04-20T21:30:21Z</time>
      </trkpt>
      <trkpt lat="40.011185025796294" lon="-3.623572010546923">
        <ele>543.60000000000002</ele>
        <time>2003-04-20T21:30:25Z</time>
      </trkpt>
      <trkpt lat="40.011309999972582" lon="-3.624944966286421">
        <ele>536.79999999999995</ele>
        <time>2003-04-20T21:30:29Z</time>
      </trkpt>
      <trkpt lat="40.011443020775914" lon="-3.626362010836601">
        <ele>530.70000000000005</ele>
        <time>2003-04-20T21:30:33Z</time>
      </trkpt>
      <trkpt lat="40.011603031307459" lon="-3.627806967124343">
        <ele>526.20000000000005</ele>
        <time>2003-04-20T21:30:37Z</time>
      </trkpt>
      <trkpt lat="40.011875024065375" lon="-3.628823021426797">
        <ele>525.60000000000002</ele>
        <time>2003-04-20T21:30:40Z</time>
      </trkpt>
      <trkpt lat="40.012141987681389" lon="-3.629455016925931">
        <ele>525.20000000000005</ele>
        <time>2003-04-20T21:30:41Z</time>
      </trkpt>
      <trkpt lat="40.012640040367842" lon="-3.630288010463119">
        <ele>525</ele>
        <time>2003-04-20T21:30:45Z</time>
      </trkpt>
      <trkpt lat="40.013037007302046" lon="-3.630752032622695">
        <ele>524.29999999999995</ele>
        <time>2003-04-20T21:30:46Z</time>
      </trkpt>
      <trkpt lat="40.013717031106353" lon="-3.631331976503134">
        <ele>522.89999999999998</ele>
        <time>2003-04-20T21:30:49Z</time>
      </trkpt>
      <trkpt lat="40.014642979949713" lon="-3.631996996700764">
        <ele>519.79999999999995</ele>
        <time>2003-04-20T21:30:53Z</time>
      </trkpt>
      <trkpt lat="40.015458036214113" lon="-3.632769975811243">
        <ele>518.39999999999998</ele>
        <time>2003-04-20T21:30:57Z</time>
      </trkpt>
      <trkpt lat="40.016207965090871" lon="-3.633715035393834">
        <ele>515.39999999999998</ele>
        <time>2003-04-20T21:31:01Z</time>
      </trkpt>
      <trkpt lat="40.016952026635408" lon="-3.634694963693619">
        <ele>512.60000000000002</ele>
        <time>2003-04-20T21:31:05Z</time>
      </trkpt>
      <trkpt lat="40.017702039331198" lon="-3.635712023824453">
        <ele>509.69999999999999</ele>
        <time>2003-04-20T21:31:09Z</time>
      </trkpt>
      <trkpt lat="40.01841701567173" lon="-3.636836959049106">
        <ele>506.80000000000001</ele>
        <time>2003-04-20T21:31:13Z</time>
      </trkpt>
      <trkpt lat="40.019031995907426" lon="-3.638125006109476">
        <ele>504.69999999999999</ele>
        <time>2003-04-20T21:31:17Z</time>
      </trkpt>
      <trkpt lat="40.019486965611577" lon="-3.639387991279364">
        <ele>505.60000000000002</ele>
        <time>2003-04-20T21:31:21Z</time>
      </trkpt>
      <trkpt lat="40.019859960302711" lon="-3.640591967850924">
        <ele>506.19999999999999</ele>
        <time>2003-04-20T21:31:26Z</time>
      </trkpt>
      <trkpt lat="40.020233038812876" lon="-3.641812959685922">
        <ele>505.89999999999998</ele>
        <time>2003-04-20T21:31:30Z</time>
      </trkpt>
      <trkpt lat="40.020596981048584" lon="-3.642985001206398">
        <ele>502.39999999999998</ele>
        <time>2003-04-20T21:31:34Z</time>
      </trkpt>
      <trkpt lat="40.020960001274943" lon="-3.64415000192821">
        <ele>496.80000000000001</ele>
        <time>2003-04-20T21:31:38Z</time>
      </trkpt>
      <trkpt lat="40.021329978480935" lon="-3.6453300062567">
        <ele>491.69999999999999</ele>
        <time>2003-04-20T21:31:42Z</time>
      </trkpt>
      <trkpt lat="40.021676989272237" lon="-3.646222008392215">
        <ele>489.10000000000002</ele>
        <time>2003-04-20T21:31:46Z</time>
      </trkpt>
      <trkpt lat="40.022294986993074" lon="-3.647321965545416">
        <ele>487.80000000000001</ele>
        <time>2003-04-20T21:31:48Z</time>
      </trkpt>
      <trkpt lat="40.022954978048801" lon="-3.648387975990772">
        <ele>488.5</ele>
        <time>2003-04-20T21:31:53Z</time>
      </trkpt>
      <trkpt lat="40.023572975769639" lon="-3.649487011134625">
        <ele>488.89999999999998</ele>
        <time>2003-04-20T21:31:57Z</time>
      </trkpt>
      <trkpt lat="40.024116961285472" lon="-3.650632984936237">
        <ele>488.60000000000002</ele>
        <time>2003-04-20T21:32:01Z</time>
      </trkpt>
      <trkpt lat="40.02464996650815" lon="-3.651784993708134">
        <ele>488.39999999999998</ele>
        <time>2003-04-20T21:32:05Z</time>
      </trkpt>
      <trkpt lat="40.025180038064718" lon="-3.652895009145141">
        <ele>488.30000000000001</ele>
        <time>2003-04-20T21:32:09Z</time>
      </trkpt>
      <trkpt lat="40.025823013857007" lon="-3.653926989063621">
        <ele>488</ele>
        <time>2003-04-20T21:32:13Z</time>
      </trkpt>
      <trkpt lat="40.026607979089022" lon="-3.654840029776096">
        <ele>488</ele>
        <time>2003-04-20T21:32:18Z</time>
      </trkpt>
      <trkpt lat="40.027196975424886" lon="-3.655470013618469">
        <ele>488</ele>
        <time>2003-04-20T21:32:20Z</time>
      </trkpt>
      <trkpt lat="40.027497969567776" lon="-3.655617032200098">
        <ele>488.69999999999999</ele>
        <time>2003-04-20T21:32:21Z</time>
      </trkpt>
      <trkpt lat="40.027738027274609" lon="-3.655785005539656">
        <ele>488.5</ele>
        <time>2003-04-20T21:32:22Z</time>
      </trkpt>
      <trkpt lat="40.02864696085453" lon="-3.656420018523932">
        <ele>488.5</ele>
        <time>2003-04-20T21:32:25Z</time>
      </trkpt>
      <trkpt lat="40.02943703904748" lon="-3.656983030959964">
        <ele>488.89999999999998</ele>
        <time>2003-04-20T21:32:29Z</time>
      </trkpt>
      <trkpt lat="40.030389977619052" lon="-3.657658025622368">
        <ele>488.5</ele>
        <time>2003-04-20T21:32:34Z</time>
      </trkpt>
      <trkpt lat="40.031336965039372" lon="-3.658332014456391">
        <ele>487.5</ele>
        <time>2003-04-20T21:32:40Z</time>
      </trkpt>
      <trkpt lat="40.032278001308441" lon="-3.659035004675388">
        <ele>487.30000000000001</ele>
        <time>2003-04-20T21:32:45Z</time>
      </trkpt>
      <trkpt lat="40.033042011782527" lon="-3.659662976861">
        <ele>487.80000000000001</ele>
        <time>2003-04-20T21:32:49Z</time>
      </trkpt>
      <trkpt lat="40.03380199894309" lon="-3.660341994836927">
        <ele>488.69999999999999</ele>
        <time>2003-04-20T21:32:52Z</time>
      </trkpt>
      <trkpt lat="40.034597022458911" lon="-3.66097298450768">
        <ele>489.39999999999998</ele>
        <time>2003-04-20T21:32:56Z</time>
      </trkpt>
      <trkpt lat="40.035261958837509" lon="-3.661323012784123">
        <ele>489.39999999999998</ele>
        <time>2003-04-20T21:33:00Z</time>
      </trkpt>
      <trkpt lat="40.036182040348649" lon="-3.661667006090283">
        <ele>490.19999999999999</ele>
        <time>2003-04-20T21:33:04Z</time>
      </trkpt>
      <trkpt lat="40.037098014727235" lon="-3.661992978304625">
        <ele>491</ele>
        <time>2003-04-20T21:33:08Z</time>
      </trkpt>
      <trkpt lat="40.038148015737534" lon="-3.662372007966042">
        <ele>491.80000000000001</ele>
        <time>2003-04-20T21:33:14Z</time>
      </trkpt>
      <trkpt lat="40.039153005927801" lon="-3.662709966301918">
        <ele>492.5</ele>
        <time>2003-04-20T21:33:18Z</time>
      </trkpt>
      <trkpt lat="40.039969990029931" lon="-3.662881962954998">
        <ele>493.60000000000002</ele>
        <time>2003-04-20T21:33:22Z</time>
      </trkpt>
      <trkpt lat="40.040384978055954" lon="-3.662892021238804">
        <ele>494.80000000000001</ele>
        <time>2003-04-20T21:33:23Z</time>
      </trkpt>
      <trkpt lat="40.041014961898327" lon="-3.662790013477206">
        <ele>497</ele>
        <time>2003-04-20T21:33:27Z</time>
      </trkpt>
      <trkpt lat="40.041647041216493" lon="-3.662594966590405">
        <ele>499.19999999999999</ele>
        <time>2003-04-20T21:33:31Z</time>
      </trkpt>
      <trkpt lat="40.042692013084888" lon="-3.662066990509629">
        <ele>502.60000000000002</ele>
        <time>2003-04-20T21:33:35Z</time>
      </trkpt>
      <trkpt lat="40.04366297274828" lon="-3.661521999165416">
        <ele>504.19999999999999</ele>
        <time>2003-04-20T21:33:41Z</time>
      </trkpt>
      <trkpt lat="40.044584982097149" lon="-3.661007015034556">
        <ele>505.30000000000001</ele>
        <time>2003-04-20T21:33:46Z</time>
      </trkpt>
      <trkpt lat="40.045480001717806" lon="-3.660503011196852">
        <ele>506.80000000000001</ele>
        <time>2003-04-20T21:33:50Z</time>
      </trkpt>
      <trkpt lat="40.046281982213259" lon="-3.660052986815572">
        <ele>507.89999999999998</ele>
        <time>2003-04-20T21:33:55Z</time>
      </trkpt>
      <trkpt lat="40.046502007171512" lon="-3.65991803817451">
        <ele>507.89999999999998</ele>
        <time>2003-04-20T21:33:58Z</time>
      </trkpt>
      <trkpt lat="40.047048004344106" lon="-3.659564992412925">
        <ele>508</ele>
        <time>2003-04-20T21:34:02Z</time>
      </trkpt>
      <trkpt lat="40.047514960169792" lon="-3.659155033528805">
        <ele>508.19999999999999</ele>
        <time>2003-04-20T21:34:05Z</time>
      </trkpt>
      <trkpt lat="40.048326998949051" lon="-3.658341988921166">
        <ele>507.10000000000002</ele>
        <time>2003-04-20T21:34:10Z</time>
      </trkpt>
      <trkpt lat="40.049084974452853" lon="-3.657557023689151">
        <ele>506.30000000000001</ele>
        <time>2003-04-20T21:34:14Z</time>
      </trkpt>
      <trkpt lat="40.04989298991859" lon="-3.656737022101879">
        <ele>505.19999999999999</ele>
        <time>2003-04-20T21:34:20Z</time>
      </trkpt>
      <trkpt lat="40.050607966259122" lon="-3.656011987477541">
        <ele>504.39999999999998</ele>
        <time>2003-04-20T21:34:24Z</time>
      </trkpt>
      <trkpt lat="40.051395026966929" lon="-3.655317965894938">
        <ele>503.89999999999998</ele>
        <time>2003-04-20T21:34:28Z</time>
      </trkpt>
      <trkpt lat="40.052288034930825" lon="-3.654668033123016">
        <ele>504.5</ele>
        <time>2003-04-20T21:34:32Z</time>
      </trkpt>
      <trkpt lat="40.053241979330778" lon="-3.654012987390161">
        <ele>505.69999999999999</ele>
        <time>2003-04-20T21:34:36Z</time>
      </trkpt>
      <trkpt lat="40.054201958701015" lon="-3.653343021869659">
        <ele>506.60000000000002</ele>
        <time>2003-04-20T21:34:40Z</time>
      </trkpt>
      <trkpt lat="40.055184988304973" lon="-3.652652017772198">
        <ele>508</ele>
        <time>2003-04-20T21:34:44Z</time>
      </trkpt>
      <trkpt lat="40.056176986545324" lon="-3.651962019503117">
        <ele>508.19999999999999</ele>
        <time>2003-04-20T21:34:48Z</time>
      </trkpt>
      <trkpt lat="40.057179965078831" lon="-3.651352990418673">
        <ele>507.30000000000001</ele>
        <time>2003-04-20T21:34:52Z</time>
      </trkpt>
      <trkpt lat="40.058247987180948" lon="-3.65091796964407">
        <ele>506.5</ele>
        <time>2003-04-20T21:34:56Z</time>
      </trkpt>
      <trkpt lat="40.059254989027977" lon="-3.650474986061454">
        <ele>505.19999999999999</ele>
        <time>2003-04-20T21:35:00Z</time>
      </trkpt>
      <trkpt lat="40.059926966205239" lon="-3.649999983608723">
        <ele>504.60000000000002</ele>
        <time>2003-04-20T21:35:03Z</time>
      </trkpt>
      <trkpt lat="40.060773035511374" lon="-3.649319959804416">
        <ele>504.80000000000001</ele>
        <time>2003-04-20T21:35:07Z</time>
      </trkpt>
      <trkpt lat="40.061451969668269" lon="-3.649021983146668">
        <ele>504.60000000000002</ele>
        <time>2003-04-20T21:35:10Z</time>
      </trkpt>
      <trkpt lat="40.061924960464239" lon="-3.648883011192083">
        <ele>504.69999999999999</ele>
        <time>2003-04-20T21:35:11Z</time>
      </trkpt>
      <trkpt lat="40.063143018633127" lon="-3.648719983175397">
        <ele>503.39999999999998</ele>
        <time>2003-04-20T21:35:16Z</time>
      </trkpt>
      <trkpt lat="40.063377041369677" lon="-3.648634990677238">
        <ele>503.5</ele>
        <time>2003-04-20T21:35:18Z</time>
      </trkpt>
      <trkpt lat="40.063835028558969" lon="-3.648384958505631">
        <ele>503.19999999999999</ele>
        <time>2003-04-20T21:35:19Z</time>
      </trkpt>
      <trkpt lat="40.064753014594316" lon="-3.647727984935045">
        <ele>504.10000000000002</ele>
        <time>2003-04-20T21:35:23Z</time>
      </trkpt>
      <trkpt lat="40.065718023106456" lon="-3.647045027464628">
        <ele>504.69999999999999</ele>
        <time>2003-04-20T21:35:27Z</time>
      </trkpt>
      <trkpt lat="40.066714966669679" lon="-3.646331978961825">
        <ele>504.5</ele>
        <time>2003-04-20T21:35:31Z</time>
      </trkpt>
      <trkpt lat="40.067722974345088" lon="-3.645575009286404">
        <ele>504.39999999999998</ele>
        <time>2003-04-20T21:35:35Z</time>
      </trkpt>
      <trkpt lat="40.068674990907311" lon="-3.644655011594296">
        <ele>504</ele>
        <time>2003-04-20T21:35:39Z</time>
      </trkpt>
      <trkpt lat="40.069603035226464" lon="-3.643799973651767">
        <ele>505.10000000000002</ele>
        <time>2003-04-20T21:35:43Z</time>
      </trkpt>
      <trkpt lat="40.07036997936666" lon="-3.64331197924912">
        <ele>505.30000000000001</ele>
        <time>2003-04-20T21:35:46Z</time>
      </trkpt>
      <trkpt lat="40.071447975933552" lon="-3.642791965976358">
        <ele>505.30000000000001</ele>
        <time>2003-04-20T21:35:50Z</time>
      </trkpt>
      <trkpt lat="40.072505017742515" lon="-3.64230003207922">
        <ele>505.69999999999999</ele>
        <time>2003-04-20T21:35:54Z</time>
      </trkpt>
      <trkpt lat="40.073452005162835" lon="-3.641735007986426">
        <ele>506.10000000000002</ele>
        <time>2003-04-20T21:35:58Z</time>
      </trkpt>
      <trkpt lat="40.074305031448603" lon="-3.641175013035536">
        <ele>506.19999999999999</ele>
        <time>2003-04-20T21:36:02Z</time>
      </trkpt>
      <trkpt lat="40.075141964480281" lon="-3.640628010034561">
        <ele>506.39999999999998</ele>
        <time>2003-04-20T21:36:06Z</time>
      </trkpt>
      <trkpt lat="40.075972024351358" lon="-3.640097016468644">
        <ele>506.30000000000001</ele>
        <time>2003-04-20T21:36:10Z</time>
      </trkpt>
      <trkpt lat="40.076829995959997" lon="-3.639537021517754">
        <ele>505.69999999999999</ele>
        <time>2003-04-20T21:36:14Z</time>
      </trkpt>
      <trkpt lat="40.077749993652105" lon="-3.638939978554845">
        <ele>505.19999999999999</ele>
        <time>2003-04-20T21:36:18Z</time>
      </trkpt>
      <trkpt lat="40.078681977465749" lon="-3.638361962512136">
        <ele>504.60000000000002</ele>
        <time>2003-04-20T21:36:23Z</time>
      </trkpt>
      <trkpt lat="40.079595018178225" lon="-3.637934988364577">
        <ele>504.80000000000001</ele>
        <time>2003-04-20T21:36:27Z</time>
      </trkpt>
      <trkpt lat="40.080533036962152" lon="-3.637683028355241">
        <ele>504.5</ele>
        <time>2003-04-20T21:36:31Z</time>
      </trkpt>
      <trkpt lat="40.081501984968781" lon="-3.63757498562336">
        <ele>504.19999999999999</ele>
        <time>2003-04-20T21:36:35Z</time>
      </trkpt>
      <trkpt lat="40.082483002915978" lon="-3.637514971196652">
        <ele>504.69999999999999</ele>
        <time>2003-04-20T21:36:39Z</time>
      </trkpt>
      <trkpt lat="40.083467960357666" lon="-3.637457974255085">
        <ele>506.69999999999999</ele>
        <time>2003-04-20T21:36:43Z</time>
      </trkpt>
      <trkpt lat="40.084443027153611" lon="-3.637374993413687">
        <ele>507.89999999999998</ele>
        <time>2003-04-20T21:36:47Z</time>
      </trkpt>
      <trkpt lat="40.085162026807666" lon="-3.637207020074129">
        <ele>508.89999999999998</ele>
        <time>2003-04-20T21:36:50Z</time>
      </trkpt>
      <trkpt lat="40.086087975651026" lon="-3.636763030663133">
        <ele>510.39999999999998</ele>
        <time>2003-04-20T21:36:54Z</time>
      </trkpt>
      <trkpt lat="40.086957011371851" lon="-3.636127011850476">
        <ele>509.80000000000001</ele>
        <time>2003-04-20T21:36:58Z</time>
      </trkpt>
      <trkpt lat="40.0877729896456" lon="-3.635568022727966">
        <ele>510</ele>
        <time>2003-04-20T21:37:02Z</time>
      </trkpt>
      <trkpt lat="40.088753001764417" lon="-3.634887998923659">
        <ele>510.39999999999998</ele>
        <time>2003-04-20T21:37:07Z</time>
      </trkpt>
      <trkpt lat="40.089737959206104" lon="-3.634242005646229">
        <ele>510.89999999999998</ele>
        <time>2003-04-20T21:37:11Z</time>
      </trkpt>
      <trkpt lat="40.090382024645805" lon="-3.633964983746409">
        <ele>511.30000000000001</ele>
        <time>2003-04-20T21:37:15Z</time>
      </trkpt>
      <trkpt lat="40.09084302932024" lon="-3.633853001520038">
        <ele>511.69999999999999</ele>
        <time>2003-04-20T21:37:17Z</time>
      </trkpt>
      <trkpt lat="40.091584995388985" lon="-3.633804973214865">
        <ele>512.79999999999995</ele>
        <time>2003-04-20T21:37:19Z</time>
      </trkpt>
      <trkpt lat="40.092580011114478" lon="-3.633797010406852">
        <ele>514.89999999999998</ele>
        <time>2003-04-20T21:37:23Z</time>
      </trkpt>
      <trkpt lat="40.093558011576533" lon="-3.633802039548755">
        <ele>517.60000000000002</ele>
        <time>2003-04-20T21:37:27Z</time>
      </trkpt>
      <trkpt lat="40.094484966248274" lon="-3.633689973503351">
        <ele>520</ele>
        <time>2003-04-20T21:37:31Z</time>
      </trkpt>
      <trkpt lat="40.095428014174104" lon="-3.633367018774152">
        <ele>523.60000000000002</ele>
        <time>2003-04-20T21:37:35Z</time>
      </trkpt>
      <trkpt lat="40.096338037401438" lon="-3.633046997711062">
        <ele>529.10000000000002</ele>
        <time>2003-04-20T21:37:39Z</time>
      </trkpt>
      <trkpt lat="40.097025018185377" lon="-3.63291297107935">
        <ele>534</ele>
        <time>2003-04-20T21:37:42Z</time>
      </trkpt>
      <trkpt lat="40.097676962614059" lon="-3.632895033806562">
        <ele>538.39999999999998</ele>
        <time>2003-04-20T21:37:46Z</time>
      </trkpt>
      <trkpt lat="40.098499981686473" lon="-3.633035011589527">
        <ele>544.29999999999995</ele>
        <time>2003-04-20T21:37:49Z</time>
      </trkpt>
      <trkpt lat="40.09896500967443" lon="-3.633241960778832">
        <ele>547.89999999999998</ele>
        <time>2003-04-20T21:37:53Z</time>
      </trkpt>
      <trkpt lat="40.099336998537183" lon="-3.633453017100692">
        <ele>550.79999999999995</ele>
        <time>2003-04-20T21:37:56Z</time>
      </trkpt>
      <trkpt lat="40.099655007943511" lon="-3.63370799459517">
        <ele>553.29999999999995</ele>
        <time>2003-04-20T21:37:58Z</time>
      </trkpt>
      <trkpt lat="40.100036971271038" lon="-3.634088030084968">
        <ele>556.70000000000005</ele>
        <time>2003-04-20T21:38:02Z</time>
      </trkpt>
      <trkpt lat="40.100488001480699" lon="-3.634617011994124">
        <ele>561</ele>
        <time>2003-04-20T21:38:08Z</time>
      </trkpt>
      <trkpt lat="40.100872982293367" lon="-3.635220006108284">
        <ele>565.10000000000002</ele>
        <time>2003-04-20T21:38:12Z</time>
      </trkpt>
      <trkpt lat="40.101186968386173" lon="-3.635930037125945">
        <ele>569.29999999999995</ele>
        <time>2003-04-20T21:38:16Z</time>
      </trkpt>
      <trkpt lat="40.101419985294342" lon="-3.636684995144606">
        <ele>573.39999999999998</ele>
        <time>2003-04-20T21:38:20Z</time>
      </trkpt>
      <trkpt lat="40.10167496278882" lon="-3.63794001750648">
        <ele>579.70000000000005</ele>
        <time>2003-04-20T21:38:25Z</time>
      </trkpt>
      <trkpt lat="40.101896999403834" lon="-3.639122033491731">
        <ele>585.29999999999995</ele>
        <time>2003-04-20T21:38:32Z</time>
      </trkpt>
      <trkpt lat="40.102134961634874" lon="-3.639995008707047">
        <ele>589.70000000000005</ele>
        <time>2003-04-20T21:38:36Z</time>
      </trkpt>
      <trkpt lat="40.10248800739646" lon="-3.640903020277619">
        <ele>595.10000000000002</ele>
        <time>2003-04-20T21:38:40Z</time>
      </trkpt>
      <trkpt lat="40.102997040376067" lon="-3.642017981037498">
        <ele>600.10000000000002</ele>
        <time>2003-04-20T21:38:44Z</time>
      </trkpt>
      <trkpt lat="40.103562986478209" lon="-3.643265040591359">
        <ele>603.60000000000002</ele>
        <time>2003-04-20T21:38:50Z</time>
      </trkpt>
      <trkpt lat="40.103970011696219" lon="-3.644014969468117">
        <ele>605.29999999999995</ele>
        <time>2003-04-20T21:38:52Z</time>
      </trkpt>
      <trkpt lat="40.104641988873482" lon="-3.644982995465398">
        <ele>607.79999999999995</ele>
        <time>2003-04-20T21:38:56Z</time>
      </trkpt>
      <trkpt lat="40.105427037924528" lon="-3.645829986780882">
        <ele>608.70000000000005</ele>
        <time>2003-04-20T21:39:00Z</time>
      </trkpt>
      <trkpt lat="40.106285009533167" lon="-3.646523002535105">
        <ele>609.39999999999998</ele>
        <time>2003-04-20T21:39:05Z</time>
      </trkpt>
      <trkpt lat="40.107263009995222" lon="-3.647100012749434">
        <ele>609.39999999999998</ele>
        <time>2003-04-20T21:39:09Z</time>
      </trkpt>
      <trkpt lat="40.108300019055605" lon="-3.647686997428536">
        <ele>606.89999999999998</ele>
        <time>2003-04-20T21:39:13Z</time>
      </trkpt>
      <trkpt lat="40.109350020065904" lon="-3.648287979885936">
        <ele>607.10000000000002</ele>
        <time>2003-04-20T21:39:17Z</time>
      </trkpt>
      <trkpt lat="40.110394991934299" lon="-3.648888040333986">
        <ele>608.10000000000002</ele>
        <time>2003-04-20T21:39:21Z</time>
      </trkpt>
      <trkpt lat="40.11144801042974" lon="-3.649492040276527">
        <ele>608.29999999999995</ele>
        <time>2003-04-20T21:39:25Z</time>
      </trkpt>
      <trkpt lat="40.112532963976264" lon="-3.6501220241189">
        <ele>606.79999999999995</ele>
        <time>2003-04-20T21:39:29Z</time>
      </trkpt>
      <trkpt lat="40.113371992483735" lon="-3.650604989379644">
        <ele>604.5</ele>
        <time>2003-04-20T21:39:32Z</time>
      </trkpt>
      <trkpt lat="40.114195011556149" lon="-3.65108703263104">
        <ele>605.10000000000002</ele>
        <time>2003-04-20T21:39:34Z</time>
      </trkpt>
      <trkpt lat="40.115267978981137" lon="-3.651705030351877">
        <ele>608</ele>
        <time>2003-04-20T21:39:38Z</time>
      </trkpt>
      <trkpt lat="40.11636701412499" lon="-3.652342977002263">
        <ele>609.79999999999995</ele>
        <time>2003-04-20T21:39:42Z</time>
      </trkpt>
      <trkpt lat="40.117206964641809" lon="-3.652831977233291">
        <ele>609.79999999999995</ele>
        <time>2003-04-20T21:39:45Z</time>
      </trkpt>
      <trkpt lat="40.118046998977661" lon="-3.653309997171164">
        <ele>608.79999999999995</ele>
        <time>2003-04-20T21:39:49Z</time>
      </trkpt>
      <trkpt lat="40.118885021656752" lon="-3.653792040422559">
        <ele>610.89999999999998</ele>
        <time>2003-04-20T21:39:52Z</time>
      </trkpt>
      <trkpt lat="40.119933011010289" lon="-3.654405009001494">
        <ele>615.10000000000002</ele>
        <time>2003-04-20T21:39:56Z</time>
      </trkpt>
      <trkpt lat="40.120951998978853" lon="-3.654985036700964">
        <ele>617</ele>
        <time>2003-04-20T21:40:00Z</time>
      </trkpt>
      <trkpt lat="40.121969981119037" lon="-3.655458027496934">
        <ele>618.39999999999998</ele>
        <time>2003-04-20T21:40:04Z</time>
      </trkpt>
      <trkpt lat="40.123079996556044" lon="-3.655747035518289">
        <ele>617.20000000000005</ele>
        <time>2003-04-20T21:40:08Z</time>
      </trkpt>
      <trkpt lat="40.124238040298223" lon="-3.655897993594408">
        <ele>615.89999999999998</ele>
        <time>2003-04-20T21:40:12Z</time>
      </trkpt>
      <trkpt lat="40.12532802298665" lon="-3.656047023832798">
        <ele>620</ele>
        <time>2003-04-20T21:40:16Z</time>
      </trkpt>
      <trkpt lat="40.126414988189936" lon="-3.65620301105082">
        <ele>621.89999999999998</ele>
        <time>2003-04-20T21:40:20Z</time>
      </trkpt>
      <trkpt lat="40.127532966434956" lon="-3.656348017975688">
        <ele>621.70000000000005</ele>
        <time>2003-04-20T21:40:24Z</time>
      </trkpt>
      <trkpt lat="40.128665026277304" lon="-3.65650299936533">
        <ele>622.60000000000002</ele>
        <time>2003-04-20T21:40:28Z</time>
      </trkpt>
      <trkpt lat="40.129812005907297" lon="-3.656662004068494">
        <ele>621.89999999999998</ele>
        <time>2003-04-20T21:40:31Z</time>
      </trkpt>
      <trkpt lat="40.130911963060498" lon="-3.656808016821742">
        <ele>624.39999999999998</ele>
        <time>2003-04-20T21:40:35Z</time>
      </trkpt>
      <trkpt lat="40.132019966840744" lon="-3.656984958797693">
        <ele>625.70000000000005</ele>
        <time>2003-04-20T21:40:39Z</time>
      </trkpt>
      <trkpt lat="40.133174993097782" lon="-3.657155027613044">
        <ele>625</ele>
        <time>2003-04-20T21:40:43Z</time>
      </trkpt>
      <trkpt lat="40.134332031011581" lon="-3.657310009002686">
        <ele>628.89999999999998</ele>
        <time>2003-04-20T21:40:47Z</time>
      </trkpt>
      <trkpt lat="40.135513041168451" lon="-3.657457027584314">
        <ele>629</ele>
        <time>2003-04-20T21:40:51Z</time>
      </trkpt>
      <trkpt lat="40.136422980576754" lon="-3.657553000375629">
        <ele>629</ele>
        <time>2003-04-20T21:40:55Z</time>
      </trkpt>
      <trkpt lat="40.137367034330964" lon="-3.657649978995323">
        <ele>625.39999999999998</ele>
        <time>2003-04-20T21:40:58Z</time>
      </trkpt>
      <trkpt lat="40.138321984559298" lon="-3.657751986756921">
        <ele>626.10000000000002</ele>
        <time>2003-04-20T21:41:01Z</time>
      </trkpt>
      <trkpt lat="40.13925296254456" lon="-3.657866986468434">
        <ele>629.79999999999995</ele>
        <time>2003-04-20T21:41:03Z</time>
      </trkpt>
      <trkpt lat="40.140187041833997" lon="-3.657962959259749">
        <ele>631.20000000000005</ele>
        <time>2003-04-20T21:41:06Z</time>
      </trkpt>
      <trkpt lat="40.141139980405569" lon="-3.658077036961913">
        <ele>630.39999999999998</ele>
        <time>2003-04-20T21:41:10Z</time>
      </trkpt>
      <trkpt lat="40.14212996698916" lon="-3.658188013359904">
        <ele>627.60000000000002</ele>
        <time>2003-04-20T21:41:13Z</time>
      </trkpt>
      <trkpt lat="40.143135040998459" lon="-3.658290021121502">
        <ele>626.60000000000002</ele>
        <time>2003-04-20T21:41:15Z</time>
      </trkpt>
      <trkpt lat="40.144129972904921" lon="-3.658403009176254">
        <ele>628</ele>
        <time>2003-04-20T21:41:18Z</time>
      </trkpt>
      <trkpt lat="40.145118031650782" lon="-3.658512979745865">
        <ele>629.39999999999998</ele>
        <time>2003-04-20T21:41:22Z</time>
      </trkpt>
      <trkpt lat="40.146120004355907" lon="-3.658620016649365">
        <ele>627.29999999999995</ele>
        <time>2003-04-20T21:41:25Z</time>
      </trkpt>
      <trkpt lat="40.147127006202936" lon="-3.658733004704118">
        <ele>627.5</ele>
        <time>2003-04-20T21:41:28Z</time>
      </trkpt>
      <trkpt lat="40.14812302775681" lon="-3.658846998587251">
        <ele>627.89999999999998</ele>
        <time>2003-04-20T21:41:30Z</time>
      </trkpt>
      <trkpt lat="40.149119971320033" lon="-3.65895202383399">
        <ele>627</ele>
        <time>2003-04-20T21:41:33Z</time>
      </trkpt>
      <trkpt lat="40.150099983438849" lon="-3.659068029373884">
        <ele>629.29999999999995</ele>
        <time>2003-04-20T21:41:37Z</time>
      </trkpt>
      <trkpt lat="40.151079995557666" lon="-3.659170037135482">
        <ele>630.20000000000005</ele>
        <time>2003-04-20T21:41:40Z</time>
      </trkpt>
      <trkpt lat="40.152063025161624" lon="-3.659276990219951">
        <ele>630.79999999999995</ele>
        <time>2003-04-20T21:41:42Z</time>
      </trkpt>
      <trkpt lat="40.153034990653396" lon="-3.659387966617942">
        <ele>632.60000000000002</ele>
        <time>2003-04-20T21:41:45Z</time>
      </trkpt>
      <trkpt lat="40.154005028307438" lon="-3.659491986036301">
        <ele>634.10000000000002</ele>
        <time>2003-04-20T21:41:49Z</time>
      </trkpt>
      <trkpt lat="40.154968025162816" lon="-3.659602040424943">
        <ele>634.60000000000002</ele>
        <time>2003-04-20T21:41:52Z</time>
      </trkpt>
      <trkpt lat="40.155888022854924" lon="-3.659713016822934">
        <ele>634.39999999999998</ele>
        <time>2003-04-20T21:41:55Z</time>
      </trkpt>
      <trkpt lat="40.156805003061891" lon="-3.65989800542593">
        <ele>633.29999999999995</ele>
        <time>2003-04-20T21:41:57Z</time>
      </trkpt>
      <trkpt lat="40.157715026289225" lon="-3.660218026489019">
        <ele>631.79999999999995</ele>
        <time>2003-04-20T21:42:00Z</time>
      </trkpt>
      <trkpt lat="40.158626977354288" lon="-3.660590015351772">
        <ele>631.70000000000005</ele>
        <time>2003-04-20T21:42:04Z</time>
      </trkpt>
      <trkpt lat="40.159540018066764" lon="-3.660959992557764">
        <ele>633.39999999999998</ele>
        <time>2003-04-20T21:42:07Z</time>
      </trkpt>
      <trkpt lat="40.160469990223646" lon="-3.661355031654239">
        <ele>631.60000000000002</ele>
        <time>2003-04-20T21:42:09Z</time>
      </trkpt>
      <trkpt lat="40.161440027877688" lon="-3.661749986931682">
        <ele>626.60000000000002</ele>
        <time>2003-04-20T21:42:12Z</time>
      </trkpt>
      <trkpt lat="40.162430014461279" lon="-3.662147959694266">
        <ele>623.60000000000002</ele>
        <time>2003-04-20T21:42:16Z</time>
      </trkpt>
      <trkpt lat="40.163429975509644" lon="-3.662537969648838">
        <ele>623.39999999999998</ele>
        <time>2003-04-20T21:42:19Z</time>
      </trkpt>
      <trkpt lat="40.164418034255505" lon="-3.662947006523609">
        <ele>624</ele>
        <time>2003-04-20T21:42:22Z</time>
      </trkpt>
      <trkpt lat="40.165384970605373" lon="-3.663346990942955">
        <ele>624.20000000000005</ele>
        <time>2003-04-20T21:42:24Z</time>
      </trkpt>
      <trkpt lat="40.1663420163095" lon="-3.66374203003943">
        <ele>623.5</ele>
        <time>2003-04-20T21:42:27Z</time>
      </trkpt>
      <trkpt lat="40.167296966537833" lon="-3.66413002833724">
        <ele>623.60000000000002</ele>
        <time>2003-04-20T21:42:31Z</time>
      </trkpt>
      <trkpt lat="40.168243031948805" lon="-3.664518026635051">
        <ele>623.39999999999998</ele>
        <time>2003-04-20T21:42:34Z</time>
      </trkpt>
      <trkpt lat="40.169193036854267" lon="-3.664911976084113">
        <ele>624.10000000000002</ele>
        <time>2003-04-20T21:42:36Z</time>
      </trkpt>
      <trkpt lat="40.170140024274588" lon="-3.665295029059053">
        <ele>623.39999999999998</ele>
        <time>2003-04-20T21:42:39Z</time>
      </trkpt>
      <trkpt lat="40.17104996368289" lon="-3.665662994608283">
        <ele>622.60000000000002</ele>
        <time>2003-04-20T21:42:43Z</time>
      </trkpt>
      <trkpt lat="40.172168025746942" lon="-3.666117964312434">
        <ele>622.39999999999998</ele>
        <time>2003-04-20T21:42:46Z</time>
      </trkpt>
      <trkpt lat="40.17319799400866" lon="-3.666539993137121">
        <ele>626.29999999999995</ele>
        <time>2003-04-20T21:42:51Z</time>
      </trkpt>
      <trkpt lat="40.174187980592251" lon="-3.666947018355131">
        <ele>629.20000000000005</ele>
        <time>2003-04-20T21:42:54Z</time>
      </trkpt>
      <trkpt lat="40.175115019083023" lon="-3.667316995561123">
        <ele>629.79999999999995</ele>
        <time>2003-04-20T21:42:58Z</time>
      </trkpt>
      <trkpt lat="40.176122020930052" lon="-3.667729971930385">
        <ele>628.70000000000005</ele>
        <time>2003-04-20T21:43:02Z</time>
      </trkpt>
      <trkpt lat="40.177209991961718" lon="-3.668172033503652">
        <ele>625.39999999999998</ele>
        <time>2003-04-20T21:43:06Z</time>
      </trkpt>
      <trkpt lat="40.178069975227118" lon="-3.668519966304302">
        <ele>621.5</ele>
        <time>2003-04-20T21:43:10Z</time>
      </trkpt>
      <trkpt lat="40.178964994847775" lon="-3.668881980702281">
        <ele>616.79999999999995</ele>
        <time>2003-04-20T21:43:13Z</time>
      </trkpt>
      <trkpt lat="40.179852973669767" lon="-3.669239971786737">
        <ele>614.89999999999998</ele>
        <time>2003-04-20T21:43:17Z</time>
      </trkpt>
      <trkpt lat="40.180735001340508" lon="-3.669601986184716">
        <ele>613.79999999999995</ele>
        <time>2003-04-20T21:43:20Z</time>
      </trkpt>
      <trkpt lat="40.18161996267736" lon="-3.669956959784031">
        <ele>613.39999999999998</ele>
        <time>2003-04-20T21:43:22Z</time>
      </trkpt>
      <trkpt lat="40.182499978691339" lon="-3.670313023030758">
        <ele>614.79999999999995</ele>
        <time>2003-04-20T21:43:25Z</time>
      </trkpt>
      <trkpt lat="40.183379994705319" lon="-3.670670008286834">
        <ele>616.5</ele>
        <time>2003-04-20T21:43:28Z</time>
      </trkpt>
      <trkpt lat="40.184267973527312" lon="-3.671024981886149">
        <ele>616.79999999999995</ele>
        <time>2003-04-20T21:43:32Z</time>
      </trkpt>
      <trkpt lat="40.185134997591376" lon="-3.671375010162592">
        <ele>614.79999999999995</ele>
        <time>2003-04-20T21:43:33Z</time>
      </trkpt>
      <trkpt lat="40.186251970008016" lon="-3.671817993745208">
        <ele>607.39999999999998</ele>
        <time>2003-04-20T21:43:39Z</time>
      </trkpt>
      <trkpt lat="40.18739802762866" lon="-3.672146983444691">
        <ele>601.70000000000005</ele>
        <time>2003-04-20T21:43:43Z</time>
      </trkpt>
      <trkpt lat="40.18830000422895" lon="-3.672243040055037">
        <ele>599.60000000000002</ele>
        <time>2003-04-20T21:43:45Z</time>
      </trkpt>
      <trkpt lat="40.188608039170504" lon="-3.672240022569895">
        <ele>599.29999999999995</ele>
        <time>2003-04-20T21:43:47Z</time>
      </trkpt>
      <trkpt lat="40.189523007720709" lon="-3.67214203812182">
        <ele>599.60000000000002</ele>
        <time>2003-04-20T21:43:49Z</time>
      </trkpt>
      <trkpt lat="40.190626988187432" lon="-3.67201304063201">
        <ele>602.29999999999995</ele>
        <time>2003-04-20T21:43:53Z</time>
      </trkpt>
      <trkpt lat="40.190896969288588" lon="-3.672032989561558">
        <ele>603</ele>
        <time>2003-04-20T21:43:55Z</time>
      </trkpt>
      <trkpt lat="40.191706996411085" lon="-3.672176990658045">
        <ele>604.79999999999995</ele>
        <time>2003-04-20T21:43:57Z</time>
      </trkpt>
      <trkpt lat="40.192488022148609" lon="-3.672540010884404">
        <ele>607.10000000000002</ele>
        <time>2003-04-20T21:44:00Z</time>
      </trkpt>
      <trkpt lat="40.193218002095819" lon="-3.673088019713759">
        <ele>609.20000000000005</ele>
        <time>2003-04-20T21:44:04Z</time>
      </trkpt>
      <trkpt lat="40.193882016465068" lon="-3.673814982175827">
        <ele>611.39999999999998</ele>
        <time>2003-04-20T21:44:07Z</time>
      </trkpt>
      <trkpt lat="40.194769995287061" lon="-3.674770016223192">
        <ele>614.10000000000002</ele>
        <time>2003-04-20T21:44:11Z</time>
      </trkpt>
      <trkpt lat="40.195655040442944" lon="-3.675532015040517">
        <ele>616.10000000000002</ele>
        <time>2003-04-20T21:44:15Z</time>
      </trkpt>
      <trkpt lat="40.196127025410533" lon="-3.675816999748349">
        <ele>616.39999999999998</ele>
        <time>2003-04-20T21:44:16Z</time>
      </trkpt>
      <trkpt lat="40.197139978408813" lon="-3.67626802995801">
        <ele>617</ele>
        <time>2003-04-20T21:44:20Z</time>
      </trkpt>
      <trkpt lat="40.198234990239143" lon="-3.67667798884213">
        <ele>616</ele>
        <time>2003-04-20T21:44:24Z</time>
      </trkpt>
      <trkpt lat="40.199379958212376" lon="-3.677121978253126">
        <ele>615.10000000000002</ele>
        <time>2003-04-20T21:44:29Z</time>
      </trkpt>
      <trkpt lat="40.200500031933188" lon="-3.677552975714207">
        <ele>616.39999999999998</ele>
        <time>2003-04-20T21:44:33Z</time>
      </trkpt>
      <trkpt lat="40.20159998908639" lon="-3.677997970953584">
        <ele>620.20000000000005</ele>
        <time>2003-04-20T21:44:37Z</time>
      </trkpt>
      <trkpt lat="40.202700030058622" lon="-3.678459981456399">
        <ele>623</ele>
        <time>2003-04-20T21:44:41Z</time>
      </trkpt>
      <trkpt lat="40.20383502356708" lon="-3.678944958373904">
        <ele>623.70000000000005</ele>
        <time>2003-04-20T21:44:45Z</time>
      </trkpt>
      <trkpt lat="40.204732976853848" lon="-3.679315019398928">
        <ele>622.10000000000002</ele>
        <time>2003-04-20T21:44:47Z</time>
      </trkpt>
      <trkpt lat="40.205656997859478" lon="-3.679700000211597">
        <ele>619.20000000000005</ele>
        <time>2003-04-20T21:44:50Z</time>
      </trkpt>
      <trkpt lat="40.206553023308516" lon="-3.680075006559491">
        <ele>617.60000000000002</ele>
        <time>2003-04-20T21:44:54Z</time>
      </trkpt>
      <trkpt lat="40.207424992695451" lon="-3.680425034835935">
        <ele>619.70000000000005</ele>
        <time>2003-04-20T21:44:57Z</time>
      </trkpt>
      <trkpt lat="40.208559986203909" lon="-3.68088997900486">
        <ele>625.89999999999998</ele>
        <time>2003-04-20T21:45:01Z</time>
      </trkpt>
      <trkpt lat="40.209707971662283" lon="-3.681357018649578">
        <ele>629.5</ele>
        <time>2003-04-20T21:45:05Z</time>
      </trkpt>
      <trkpt lat="40.210595028474927" lon="-3.681720038875938">
        <ele>630.5</ele>
        <time>2003-04-20T21:45:08Z</time>
      </trkpt>
      <trkpt lat="40.211513014510274" lon="-3.682081969454885">
        <ele>629.89999999999998</ele>
        <time>2003-04-20T21:45:10Z</time>
      </trkpt>
      <trkpt lat="40.212435023859143" lon="-3.68245798163116">
        <ele>629.60000000000002</ele>
        <time>2003-04-20T21:45:13Z</time>
      </trkpt>
      <trkpt lat="40.213358039036393" lon="-3.682827958837152">
        <ele>629.70000000000005</ele>
        <time>2003-04-20T21:45:17Z</time>
      </trkpt>
      <trkpt lat="40.214250041171908" lon="-3.68318997323513">
        <ele>629.89999999999998</ele>
        <time>2003-04-20T21:45:20Z</time>
      </trkpt>
      <trkpt lat="40.215362990275025" lon="-3.683645026758313">
        <ele>630</ele>
        <time>2003-04-20T21:45:24Z</time>
      </trkpt>
      <trkpt lat="40.216462025418878" lon="-3.684081975370646">
        <ele>630.39999999999998</ele>
        <time>2003-04-20T21:45:28Z</time>
      </trkpt>
      <trkpt lat="40.217580003663898" lon="-3.684544991701841">
        <ele>630.70000000000005</ele>
        <time>2003-04-20T21:45:32Z</time>
      </trkpt>
      <trkpt lat="40.21872203797102" lon="-3.684999961405993">
        <ele>630.89999999999998</ele>
        <time>2003-04-20T21:45:36Z</time>
      </trkpt>
      <trkpt lat="40.219593001529574" lon="-3.685353007167578">
        <ele>631.20000000000005</ele>
        <time>2003-04-20T21:45:39Z</time>
      </trkpt>
      <trkpt lat="40.220479974523187" lon="-3.685713009908795">
        <ele>631.60000000000002</ele>
        <time>2003-04-20T21:45:41Z</time>
      </trkpt>
      <trkpt lat="40.221372982487082" lon="-3.686092039570212">
        <ele>631.79999999999995</ele>
        <time>2003-04-20T21:45:44Z</time>
      </trkpt>
      <trkpt lat="40.222277976572514" lon="-3.686467967927456">
        <ele>632.29999999999995</ele>
        <time>2003-04-20T21:45:48Z</time>
      </trkpt>
      <trkpt lat="40.223199985921383" lon="-3.686852026730776">
        <ele>633.5</ele>
        <time>2003-04-20T21:45:51Z</time>
      </trkpt>
      <trkpt lat="40.224127024412155" lon="-3.687229966744781">
        <ele>636.60000000000002</ele>
        <time>2003-04-20T21:45:54Z</time>
      </trkpt>
      <trkpt lat="40.225056996569037" lon="-3.687617965042591">
        <ele>638.60000000000002</ele>
        <time>2003-04-20T21:45:56Z</time>
      </trkpt>
      <trkpt lat="40.225999960675836" lon="-3.68800001218915">
        <ele>638.79999999999995</ele>
        <time>2003-04-20T21:45:59Z</time>
      </trkpt>
      <trkpt lat="40.226917024701834" lon="-3.688354985788465">
        <ele>638</ele>
        <time>2003-04-20T21:46:03Z</time>
      </trkpt>
      <trkpt lat="40.227799974381924" lon="-3.688696967437863">
        <ele>639.29999999999995</ele>
        <time>2003-04-20T21:46:06Z</time>
      </trkpt>
      <trkpt lat="40.228685019537807" lon="-3.68901003152132">
        <ele>640.79999999999995</ele>
        <time>2003-04-20T21:46:08Z</time>
      </trkpt>
      <trkpt lat="40.229593031108379" lon="-3.689241958782077">
        <ele>640.39999999999998</ele>
        <time>2003-04-20T21:46:11Z</time>
      </trkpt>
      <trkpt lat="40.230527026578784" lon="-3.689340027049184">
        <ele>640.10000000000002</ele>
        <time>2003-04-20T21:46:15Z</time>
      </trkpt>
      <trkpt lat="40.231464961543679" lon="-3.68935695849359">
        <ele>639</ele>
        <time>2003-04-20T21:46:18Z</time>
      </trkpt>
      <trkpt lat="40.232384959235787" lon="-3.689401969313622">
        <ele>637.70000000000005</ele>
        <time>2003-04-20T21:46:21Z</time>
      </trkpt>
      <trkpt lat="40.233327001333237" lon="-3.689457960426807">
        <ele>636.20000000000005</ele>
        <time>2003-04-20T21:46:23Z</time>
      </trkpt>
      <trkpt lat="40.234271977096796" lon="-3.689489979296923">
        <ele>633.5</ele>
        <time>2003-04-20T21:46:26Z</time>
      </trkpt>
      <trkpt lat="40.235222987830639" lon="-3.689512023702264">
        <ele>631.29999999999995</ele>
        <time>2003-04-20T21:46:30Z</time>
      </trkpt>
      <trkpt lat="40.236184978857636" lon="-3.689532978460193">
        <ele>630</ele>
        <time>2003-04-20T21:46:33Z</time>
      </trkpt>
      <trkpt lat="40.237104976549745" lon="-3.689557034522295">
        <ele>629.20000000000005</ele>
        <time>2003-04-20T21:46:35Z</time>
      </trkpt>
      <trkpt lat="40.238037966191769" lon="-3.689592992886901">
        <ele>628.10000000000002</ele>
        <time>2003-04-20T21:46:38Z</time>
      </trkpt>
      <trkpt lat="40.238997023552656" lon="-3.689619982615113">
        <ele>625.29999999999995</ele>
        <time>2003-04-20T21:46:42Z</time>
      </trkpt>
      <trkpt lat="40.239979969337583" lon="-3.689653007313609">
        <ele>622.79999999999995</ele>
        <time>2003-04-20T21:46:45Z</time>
      </trkpt>
      <trkpt lat="40.240974985063076" lon="-3.689685026183724">
        <ele>623.5</ele>
        <time>2003-04-20T21:46:48Z</time>
      </trkpt>
      <trkpt lat="40.241943011060357" lon="-3.689713021740317">
        <ele>624.60000000000002</ele>
        <time>2003-04-20T21:46:50Z</time>
      </trkpt>
      <trkpt lat="40.242895027622581" lon="-3.689732970669866">
        <ele>623.89999999999998</ele>
        <time>2003-04-20T21:46:53Z</time>
      </trkpt>
      <trkpt lat="40.243877973407507" lon="-3.68976297788322">
        <ele>621.20000000000005</ele>
        <time>2003-04-20T21:46:57Z</time>
      </trkpt>
      <trkpt lat="40.244877012446523" lon="-3.689792985096574">
        <ele>619.29999999999995</ele>
        <time>2003-04-20T21:47:00Z</time>
      </trkpt>
      <trkpt lat="40.245874961838126" lon="-3.689821986481547">
        <ele>618.39999999999998</ele>
        <time>2003-04-20T21:47:02Z</time>
      </trkpt>
      <trkpt lat="40.246875006705523" lon="-3.689855011180043">
        <ele>617.79999999999995</ele>
        <time>2003-04-20T21:47:05Z</time>
      </trkpt>
      <trkpt lat="40.247889971360564" lon="-3.689883006736636">
        <ele>616.5</ele>
        <time>2003-04-20T21:47:09Z</time>
      </trkpt>
      <trkpt lat="40.248582987114787" lon="-3.689889963716269">
        <ele>612.5</ele>
        <time>2003-04-20T21:47:11Z</time>
      </trkpt>
      <trkpt lat="40.248935027047992" lon="-3.68989197537303">
        <ele>610.60000000000002</ele>
        <time>2003-04-20T21:47:12Z</time>
      </trkpt>
      <trkpt lat="40.249998020008206" lon="-3.689917959272862">
        <ele>607.5</ele>
        <time>2003-04-20T21:47:15Z</time>
      </trkpt>
      <trkpt lat="40.251063024625182" lon="-3.689946960657835">
        <ele>606.89999999999998</ele>
        <time>2003-04-20T21:47:17Z</time>
      </trkpt>
      <trkpt lat="40.252110008150339" lon="-3.68997797369957">
        <ele>606.79999999999995</ele>
        <time>2003-04-20T21:47:20Z</time>
      </trkpt>
      <trkpt lat="40.253137964755297" lon="-3.690013010054827">
        <ele>605.20000000000005</ele>
        <time>2003-04-20T21:47:24Z</time>
      </trkpt>
      <trkpt lat="40.25415301322937" lon="-3.690045028924942">
        <ele>604.29999999999995</ele>
        <time>2003-04-20T21:47:27Z</time>
      </trkpt>
      <trkpt lat="40.255166972056031" lon="-3.690070006996393">
        <ele>603.39999999999998</ele>
        <time>2003-04-20T21:47:29Z</time>
      </trkpt>
      <trkpt lat="40.256182020530105" lon="-3.690098002552986">
        <ele>602.79999999999995</ele>
        <time>2003-04-20T21:47:32Z</time>
      </trkpt>
      <trkpt lat="40.257197991013527" lon="-3.690137984231114">
        <ele>602.89999999999998</ele>
        <time>2003-04-20T21:47:36Z</time>
      </trkpt>
      <trkpt lat="40.258197030052543" lon="-3.69017000310123">
        <ele>601.5</ele>
        <time>2003-04-20T21:47:39Z</time>
      </trkpt>
      <trkpt lat="40.259190034121275" lon="-3.690200010314584">
        <ele>602.20000000000005</ele>
        <time>2003-04-20T21:47:42Z</time>
      </trkpt>
      <trkpt lat="40.260186977684498" lon="-3.690227000042796">
        <ele>600.89999999999998</ele>
        <time>2003-04-20T21:47:44Z</time>
      </trkpt>
      <trkpt lat="40.261177970096469" lon="-3.690258013084531">
        <ele>599.39999999999998</ele>
        <time>2003-04-20T21:47:47Z</time>
      </trkpt>
      <trkpt lat="40.262165023013949" lon="-3.690288020297885">
        <ele>600.89999999999998</ele>
        <time>2003-04-20T21:47:51Z</time>
      </trkpt>
      <trkpt lat="40.263149980455637" lon="-3.69034300558269">
        <ele>602.60000000000002</ele>
        <time>2003-04-20T21:47:54Z</time>
      </trkpt>
      <trkpt lat="40.264105014503002" lon="-3.690397990867496">
        <ele>603.70000000000005</ele>
        <time>2003-04-20T21:47:56Z</time>
      </trkpt>
      <trkpt lat="40.265053007751703" lon="-3.690458005294204">
        <ele>605.39999999999998</ele>
        <time>2003-04-20T21:47:59Z</time>
      </trkpt>
      <trkpt lat="40.266014998778701" lon="-3.690482983365655">
        <ele>605.60000000000002</ele>
        <time>2003-04-20T21:48:03Z</time>
      </trkpt>
      <trkpt lat="40.266982018947601" lon="-3.690511984750629">
        <ele>606.89999999999998</ele>
        <time>2003-04-20T21:48:06Z</time>
      </trkpt>
      <trkpt lat="40.267958007752895" lon="-3.690541991963983">
        <ele>606.29999999999995</ele>
        <time>2003-04-20T21:48:09Z</time>
      </trkpt>
      <trkpt lat="40.268942965194583" lon="-3.690575016662478">
        <ele>603.70000000000005</ele>
        <time>2003-04-20T21:48:11Z</time>
      </trkpt>
      <trkpt lat="40.269933035597205" lon="-3.690592031925917">
        <ele>599.39999999999998</ele>
        <time>2003-04-20T21:48:14Z</time>
      </trkpt>
      <trkpt lat="40.270264958962798" lon="-3.690590020269156">
        <ele>598.20000000000005</ele>
        <time>2003-04-20T21:48:15Z</time>
      </trkpt>
      <trkpt lat="40.270601995289326" lon="-3.690592031925917">
        <ele>597.60000000000002</ele>
        <time>2003-04-20T21:48:17Z</time>
      </trkpt>
      <trkpt lat="40.271613020449877" lon="-3.690612986683846">
        <ele>597.29999999999995</ele>
        <time>2003-04-20T21:48:19Z</time>
      </trkpt>
      <trkpt lat="40.272639971226454" lon="-3.690645005553961">
        <ele>597.89999999999998</ele>
        <time>2003-04-20T21:48:22Z</time>
      </trkpt>
      <trkpt lat="40.273670023307204" lon="-3.690678030252457">
        <ele>600.70000000000005</ele>
        <time>2003-04-20T21:48:26Z</time>
      </trkpt>
      <trkpt lat="40.274678030982614" lon="-3.690717006102204">
        <ele>606.5</ele>
        <time>2003-04-20T21:48:29Z</time>
      </trkpt>
      <trkpt lat="40.275668017566204" lon="-3.690741984173656">
        <ele>610.10000000000002</ele>
        <time>2003-04-20T21:48:32Z</time>
      </trkpt>
      <trkpt lat="40.276658004149795" lon="-3.690769979730249">
        <ele>610.39999999999998</ele>
        <time>2003-04-20T21:48:34Z</time>
      </trkpt>
      <trkpt lat="40.277672968804836" lon="-3.690801998600364">
        <ele>607.5</ele>
        <time>2003-04-20T21:48:37Z</time>
      </trkpt>
      <trkpt lat="40.278726993128657" lon="-3.690833011642098">
        <ele>602.20000000000005</ele>
        <time>2003-04-20T21:48:41Z</time>
      </trkpt>
      <trkpt lat="40.279795015230775" lon="-3.690867964178324">
        <ele>601.29999999999995</ele>
        <time>2003-04-20T21:48:44Z</time>
      </trkpt>
      <trkpt lat="40.280857002362609" lon="-3.690899983048439">
        <ele>603.20000000000005</ele>
        <time>2003-04-20T21:48:46Z</time>
      </trkpt>
      <trkpt lat="40.281907003372908" lon="-3.690932001918554">
        <ele>606.20000000000005</ele>
        <time>2003-04-20T21:48:49Z</time>
      </trkpt>
      <trkpt lat="40.282954992726445" lon="-3.690953040495515">
        <ele>606.60000000000002</ele>
        <time>2003-04-20T21:48:53Z</time>
      </trkpt>
      <trkpt lat="40.284004993736744" lon="-3.690956979990006">
        <ele>604.89999999999998</ele>
        <time>2003-04-20T21:48:56Z</time>
      </trkpt>
      <trkpt lat="40.285030016675591" lon="-3.690984975546598">
        <ele>604.29999999999995</ele>
        <time>2003-04-20T21:48:59Z</time>
      </trkpt>
      <trkpt lat="40.286041963845491" lon="-3.691016994416714">
        <ele>604.29999999999995</ele>
        <time>2003-04-20T21:49:01Z</time>
      </trkpt>
      <trkpt lat="40.287009989842772" lon="-3.691031998023391">
        <ele>604.20000000000005</ele>
        <time>2003-04-20T21:49:04Z</time>
      </trkpt>
      <trkpt lat="40.287984972819686" lon="-3.691062005236745">
        <ele>604.10000000000002</ele>
        <time>2003-04-20T21:49:08Z</time>
      </trkpt>
      <trkpt lat="40.288964984938502" lon="-3.691112967208028">
        <ele>604</ele>
        <time>2003-04-20T21:49:11Z</time>
      </trkpt>
      <trkpt lat="40.289963018149137" lon="-3.691141968593001">
        <ele>603.70000000000005</ele>
        <time>2003-04-20T21:49:13Z</time>
      </trkpt>
      <trkpt lat="40.290991980582476" lon="-3.691171975806356">
        <ele>603.39999999999998</ele>
        <time>2003-04-20T21:49:16Z</time>
      </trkpt>
      <trkpt lat="40.292029995471239" lon="-3.69120198301971">
        <ele>603.39999999999998</ele>
        <time>2003-04-20T21:49:20Z</time>
      </trkpt>
      <trkpt lat="40.293059963732958" lon="-3.691242970526218">
        <ele>603.79999999999995</ele>
        <time>2003-04-20T21:49:23Z</time>
      </trkpt>
      <trkpt lat="40.294080041348934" lon="-3.691269960254431">
        <ele>604.70000000000005</ele>
        <time>2003-04-20T21:49:26Z</time>
      </trkpt>
      <trkpt lat="40.295040020719171" lon="-3.691301979124546">
        <ele>605.5</ele>
        <time>2003-04-20T21:49:28Z</time>
      </trkpt>
      <trkpt lat="40.295977033674717" lon="-3.691335003823042">
        <ele>605.70000000000005</ele>
        <time>2003-04-20T21:49:31Z</time>
      </trkpt>
      <trkpt lat="40.296937013044953" lon="-3.691367022693157">
        <ele>608</ele>
        <time>2003-04-20T21:49:35Z</time>
      </trkpt>
      <trkpt lat="40.297909984365106" lon="-3.691393006592989">
        <ele>609.70000000000005</ele>
        <time>2003-04-20T21:49:38Z</time>
      </trkpt>
      <trkpt lat="40.29890701174736" lon="-3.691422007977963">
        <ele>610.10000000000002</ele>
        <time>2003-04-20T21:49:40Z</time>
      </trkpt>
      <trkpt lat="40.299927005544305" lon="-3.69145997799933">
        <ele>609.89999999999998</ele>
        <time>2003-04-20T21:49:43Z</time>
      </trkpt>
      <trkpt lat="40.300963008776307" lon="-3.691513035446405">
        <ele>610.20000000000005</ele>
        <time>2003-04-20T21:49:47Z</time>
      </trkpt>
      <trkpt lat="40.302009992301464" lon="-3.691553017124534">
        <ele>611.70000000000005</ele>
        <time>2003-04-20T21:49:50Z</time>
      </trkpt>
      <trkpt lat="40.30305203050375" lon="-3.691582018509507">
        <ele>613.89999999999998</ele>
        <time>2003-04-20T21:49:53Z</time>
      </trkpt>
      <trkpt lat="40.304079987108707" lon="-3.691617976874113">
        <ele>616.79999999999995</ele>
        <time>2003-04-20T21:49:57Z</time>
      </trkpt>
      <trkpt lat="40.305101992562413" lon="-3.691649995744228">
        <ele>620</ele>
        <time>2003-04-20T21:49:58Z</time>
      </trkpt>
      <trkpt lat="40.30610497109592" lon="-3.691683020442724">
        <ele>621.39999999999998</ele>
        <time>2003-04-20T21:50:02Z</time>
      </trkpt>
      <trkpt lat="40.307103004306555" lon="-3.691712021827698">
        <ele>622.5</ele>
        <time>2003-04-20T21:50:05Z</time>
      </trkpt>
      <trkpt lat="40.308106988668442" lon="-3.691740017384291">
        <ele>621.89999999999998</ele>
        <time>2003-04-20T21:50:07Z</time>
      </trkpt>
      <trkpt lat="40.309124970808625" lon="-3.691776981577277">
        <ele>619.70000000000005</ele>
        <time>2003-04-20T21:50:10Z</time>
      </trkpt>
      <trkpt lat="40.31014203093946" lon="-3.69180497713387">
        <ele>619.10000000000002</ele>
        <time>2003-04-20T21:50:14Z</time>
      </trkpt>
      <trkpt lat="40.311145009472966" lon="-3.691840013489127">
        <ele>618.89999999999998</ele>
        <time>2003-04-20T21:50:17Z</time>
      </trkpt>
      <trkpt lat="40.312142036855221" lon="-3.691872032359242">
        <ele>619.39999999999998</ele>
        <time>2003-04-20T21:50:20Z</time>
      </trkpt>
      <trkpt lat="40.313124982640147" lon="-3.691902039572597">
        <ele>619.70000000000005</ele>
        <time>2003-04-20T21:50:22Z</time>
      </trkpt>
      <trkpt lat="40.313454978168011" lon="-3.691902039572597">
        <ele>619.20000000000005</ele>
        <time>2003-04-20T21:50:24Z</time>
      </trkpt>
      <trkpt lat="40.314116980880499" lon="-3.691906984895468">
        <ele>618</ele>
        <time>2003-04-20T21:50:25Z</time>
      </trkpt>
      <trkpt lat="40.31510797329247" lon="-3.69193003512919">
        <ele>617.60000000000002</ele>
        <time>2003-04-20T21:50:29Z</time>
      </trkpt>
      <trkpt lat="40.316107012331486" lon="-3.691947972401977">
        <ele>617</ele>
        <time>2003-04-20T21:50:32Z</time>
      </trkpt>
      <trkpt lat="40.317115020006895" lon="-3.691988037899137">
        <ele>615.89999999999998</ele>
        <time>2003-04-20T21:50:34Z</time>
      </trkpt>
      <trkpt lat="40.318133002147079" lon="-3.692022990435362">
        <ele>615.20000000000005</ele>
        <time>2003-04-20T21:50:37Z</time>
      </trkpt>
      <trkpt lat="40.319160036742687" lon="-3.692046962678433">
        <ele>614.29999999999995</ele>
        <time>2003-04-20T21:50:41Z</time>
      </trkpt>
      <trkpt lat="40.32017701305449" lon="-3.692070012912154">
        <ele>613.39999999999998</ele>
        <time>2003-04-20T21:50:44Z</time>
      </trkpt>
      <trkpt lat="40.320499967783689" lon="-3.692057020962238">
        <ele>613.5</ele>
        <time>2003-04-20T21:50:45Z</time>
      </trkpt>
      <trkpt lat="40.321457013487816" lon="-3.691931962966919">
        <ele>613.39999999999998</ele>
        <time>2003-04-20T21:50:48Z</time>
      </trkpt>
      <trkpt lat="40.322386985644698" lon="-3.691721996292472">
        <ele>612.60000000000002</ele>
        <time>2003-04-20T21:50:51Z</time>
      </trkpt>
      <trkpt lat="40.32355198636651" lon="-3.69137498550117">
        <ele>610.39999999999998</ele>
        <time>2003-04-20T21:50:55Z</time>
      </trkpt>
      <trkpt lat="40.324665019288659" lon="-3.691012971103191">
        <ele>608.5</ele>
        <time>2003-04-20T21:50:59Z</time>
      </trkpt>
      <trkpt lat="40.325776962563396" lon="-3.690545009449124">
        <ele>606.79999999999995</ele>
        <time>2003-04-20T21:51:04Z</time>
      </trkpt>
      <trkpt lat="40.326877003535628" lon="-3.689930029213429">
        <ele>604.79999999999995</ele>
        <time>2003-04-20T21:51:07Z</time>
      </trkpt>
      <trkpt lat="40.327660040929914" lon="-3.689241958782077">
        <ele>602.39999999999998</ele>
        <time>2003-04-20T21:51:09Z</time>
      </trkpt>
      <trkpt lat="40.328422039747238" lon="-3.688465040177107">
        <ele>600</ele>
        <time>2003-04-20T21:51:12Z</time>
      </trkpt>
      <trkpt lat="40.329144978895783" lon="-3.687598016113043">
        <ele>597.5</ele>
        <time>2003-04-20T21:51:16Z</time>
      </trkpt>
      <trkpt lat="40.329812010750175" lon="-3.686648011207581">
        <ele>595</ele>
        <time>2003-04-20T21:51:19Z</time>
      </trkpt>
      <trkpt lat="40.330411987379193" lon="-3.685646960511804">
        <ele>592.70000000000005</ele>
        <time>2003-04-20T21:51:22Z</time>
      </trkpt>
      <trkpt lat="40.330918002873659" lon="-3.684638030827045">
        <ele>590.89999999999998</ele>
        <time>2003-04-20T21:51:24Z</time>
      </trkpt>
      <trkpt lat="40.331489983946085" lon="-3.683270020410419">
        <ele>588.79999999999995</ele>
        <time>2003-04-20T21:51:28Z</time>
      </trkpt>
      <trkpt lat="40.33188502304256" lon="-3.682205015793443">
        <ele>587.5</ele>
        <time>2003-04-20T21:51:31Z</time>
      </trkpt>
      <trkpt lat="40.332473013550043" lon="-3.680853014811873">
        <ele>585.70000000000005</ele>
        <time>2003-04-20T21:51:35Z</time>
      </trkpt>
      <trkpt lat="40.332992020994425" lon="-3.679866967722774">
        <ele>584.39999999999998</ele>
        <time>2003-04-20T21:51:39Z</time>
      </trkpt>
      <trkpt lat="40.333574982360005" lon="-3.678904976695776">
        <ele>582.89999999999998</ele>
        <time>2003-04-20T21:51:42Z</time>
      </trkpt>
      <trkpt lat="40.334219969809055" lon="-3.677986990660429">
        <ele>581.5</ele>
        <time>2003-04-20T21:51:45Z</time>
      </trkpt>
      <trkpt lat="40.334909968078136" lon="-3.677113009616733">
        <ele>580.10000000000002</ele>
        <time>2003-04-20T21:51:47Z</time>
      </trkpt>
      <trkpt lat="40.335656963288784" lon="-3.676319997757673">
        <ele>578.79999999999995</ele>
        <time>2003-04-20T21:51:50Z</time>
      </trkpt>
      <trkpt lat="40.336422985419631" lon="-3.675581971183419">
        <ele>578</ele>
        <time>2003-04-20T21:51:54Z</time>
      </trkpt>
      <trkpt lat="40.337233012542129" lon="-3.674928015097976">
        <ele>577.5</ele>
        <time>2003-04-20T21:51:57Z</time>
      </trkpt>
      <trkpt lat="40.338077992200851" lon="-3.674353016540408">
        <ele>577.29999999999995</ele>
        <time>2003-04-20T21:51:59Z</time>
      </trkpt>
      <trkpt lat="40.338973011821508" lon="-3.673853036016226">
        <ele>577</ele>
        <time>2003-04-20T21:52:02Z</time>
      </trkpt>
      <trkpt lat="40.339893009513617" lon="-3.673407034948468">
        <ele>576.39999999999998</ele>
        <time>2003-04-20T21:52:06Z</time>
      </trkpt>
      <trkpt lat="40.34084795974195" lon="-3.673082990571857">
        <ele>578.5</ele>
        <time>2003-04-20T21:52:09Z</time>
      </trkpt>
      <trkpt lat="40.341810034587979" lon="-3.67283295840025">
        <ele>581.29999999999995</ele>
        <time>2003-04-20T21:52:12Z</time>
      </trkpt>
      <trkpt lat="40.342768002301455" lon="-3.67270203307271">
        <ele>584.70000000000005</ele>
        <time>2003-04-20T21:52:14Z</time>
      </trkpt>
      <trkpt lat="40.34372303634882" lon="-3.672636989504099">
        <ele>587.39999999999998</ele>
        <time>2003-04-20T21:52:17Z</time>
      </trkpt>
      <trkpt lat="40.344041967764497" lon="-3.67263799533248">
        <ele>587.79999999999995</ele>
        <time>2003-04-20T21:52:18Z</time>
      </trkpt>
      <trkpt lat="40.345004964619875" lon="-3.672692980617285">
        <ele>588.70000000000005</ele>
        <time>2003-04-20T21:52:21Z</time>
      </trkpt>
      <trkpt lat="40.34598003141582" lon="-3.67285299114883">
        <ele>588</ele>
        <time>2003-04-20T21:52:25Z</time>
      </trkpt>
      <trkpt lat="40.346946967765689" lon="-3.673094976693392">
        <ele>585.89999999999998</ele>
        <time>2003-04-20T21:52:28Z</time>
      </trkpt>
      <trkpt lat="40.347884986549616" lon="-3.673432013019919">
        <ele>582.29999999999995</ele>
        <time>2003-04-20T21:52:30Z</time>
      </trkpt>
      <trkpt lat="40.348759973421693" lon="-3.673823028802872">
        <ele>578.60000000000002</ele>
        <time>2003-04-20T21:52:33Z</time>
      </trkpt>
      <trkpt lat="40.349781978875399" lon="-3.674386963248253">
        <ele>574.60000000000002</ele>
        <time>2003-04-20T21:52:37Z</time>
      </trkpt>
      <trkpt lat="40.35081697627902" lon="-3.675021976232529">
        <ele>570.20000000000005</ele>
        <time>2003-04-20T21:52:41Z</time>
      </trkpt>
      <trkpt lat="40.351852979511023" lon="-3.675724966451526">
        <ele>567.29999999999995</ele>
        <time>2003-04-20T21:52:45Z</time>
      </trkpt>
      <trkpt lat="40.352722015231848" lon="-3.676457041874528">
        <ele>567.70000000000005</ele>
        <time>2003-04-20T21:52:49Z</time>
      </trkpt>
      <trkpt lat="40.35307195968926" lon="-3.676900025457144">
        <ele>568</ele>
        <time>2003-04-20T21:52:52Z</time>
      </trkpt>
      <trkpt lat="40.353707978501916" lon="-3.677786998450756">
        <ele>568.5</ele>
        <time>2003-04-20T21:52:56Z</time>
      </trkpt>
      <trkpt lat="40.354235032573342" lon="-3.678398039191961">
        <ele>568.60000000000002</ele>
        <time>2003-04-20T21:52:59Z</time>
      </trkpt>
      <trkpt lat="40.354838026687503" lon="-3.678862983360887">
        <ele>568.89999999999998</ele>
        <time>2003-04-20T21:53:02Z</time>
      </trkpt>
      <trkpt lat="40.355507992208004" lon="-3.679194990545511">
        <ele>569.29999999999995</ele>
        <time>2003-04-20T21:53:04Z</time>
      </trkpt>
      <trkpt lat="40.356197990477085" lon="-3.679352989420295">
        <ele>569.60000000000002</ele>
        <time>2003-04-20T21:53:07Z</time>
      </trkpt>
      <trkpt lat="40.356667041778564" lon="-3.679372016340494">
        <ele>569.70000000000005</ele>
        <time>2003-04-20T21:53:11Z</time>
      </trkpt>
      <trkpt lat="40.357359973713756" lon="-3.679281994700432">
        <ele>570.29999999999995</ele>
        <time>2003-04-20T21:53:12Z</time>
      </trkpt>
      <trkpt lat="40.358057012781501" lon="-3.67899801582098">
        <ele>570.89999999999998</ele>
        <time>2003-04-20T21:53:16Z</time>
      </trkpt>
      <trkpt lat="40.358992014080286" lon="-3.678437015041709">
        <ele>571.29999999999995</ele>
        <time>2003-04-20T21:53:20Z</time>
      </trkpt>
      <trkpt lat="40.359879992902279" lon="-3.677809964865446">
        <ele>573.89999999999998</ele>
        <time>2003-04-20T21:53:24Z</time>
      </trkpt>
      <trkpt lat="40.360558005049825" lon="-3.677526991814375">
        <ele>574.89999999999998</ele>
        <time>2003-04-20T21:53:27Z</time>
      </trkpt>
      <trkpt lat="40.361032001674175" lon="-3.677487010136247">
        <ele>574.70000000000005</ele>
        <time>2003-04-20T21:53:30Z</time>
      </trkpt>
      <trkpt lat="40.361272981390357" lon="-3.677506959065795">
        <ele>574.70000000000005</ele>
        <time>2003-04-20T21:53:31Z</time>
      </trkpt>
      <trkpt lat="40.361761981621385" lon="-3.677621958777309">
        <ele>574.60000000000002</ele>
        <time>2003-04-20T21:53:33Z</time>
      </trkpt>
      <trkpt lat="40.362745011225343" lon="-3.677927982062101">
        <ele>578.20000000000005</ele>
        <time>2003-04-20T21:53:37Z</time>
      </trkpt>
      <trkpt lat="40.363486977294087" lon="-3.678010040894151">
        <ele>581</ele>
        <time>2003-04-20T21:53:39Z</time>
      </trkpt>
      <trkpt lat="40.364509988576174" lon="-3.678047005087137">
        <ele>585.10000000000002</ele>
        <time>2003-04-20T21:53:43Z</time>
      </trkpt>
      <trkpt lat="40.365557977929711" lon="-3.67809796705842">
        <ele>586</ele>
        <time>2003-04-20T21:53:47Z</time>
      </trkpt>
      <trkpt lat="40.366588030010462" lon="-3.678177008405328">
        <ele>587</ele>
        <time>2003-04-20T21:53:51Z</time>
      </trkpt>
      <trkpt lat="40.367646999657154" lon="-3.678282033652067">
        <ele>587</ele>
        <time>2003-04-20T21:53:56Z</time>
      </trkpt>
      <trkpt lat="40.368718039244413" lon="-3.678495017811656">
        <ele>583.10000000000002</ele>
        <time>2003-04-20T21:54:00Z</time>
      </trkpt>
      <trkpt lat="40.369842974469066" lon="-3.678840016946197">
        <ele>579.60000000000002</ele>
        <time>2003-04-20T21:54:04Z</time>
      </trkpt>
      <trkpt lat="40.370955001562834" lon="-3.679312001913786">
        <ele>579.70000000000005</ele>
        <time>2003-04-20T21:54:08Z</time>
      </trkpt>
      <trkpt lat="40.372054958716035" lon="-3.679935028776527">
        <ele>579.89999999999998</ele>
        <time>2003-04-20T21:54:12Z</time>
      </trkpt>
      <trkpt lat="40.372870014980435" lon="-3.680525030940771">
        <ele>580.10000000000002</ele>
        <time>2003-04-20T21:54:14Z</time>
      </trkpt>
      <trkpt lat="40.37367501296103" lon="-3.68118803948164">
        <ele>580.39999999999998</ele>
        <time>2003-04-20T21:54:17Z</time>
      </trkpt>
      <trkpt lat="40.374470036476851" lon="-3.681884994730353">
        <ele>579.5</ele>
        <time>2003-04-20T21:54:21Z</time>
      </trkpt>
      <trkpt lat="40.375255001708865" lon="-3.682569963857532">
        <ele>578.60000000000002</ele>
        <time>2003-04-20T21:54:24Z</time>
      </trkpt>
      <trkpt lat="40.376022029668093" lon="-3.683238001540303">
        <ele>575.89999999999998</ele>
        <time>2003-04-20T21:54:27Z</time>
      </trkpt>
      <trkpt lat="40.376995000988245" lon="-3.684088010340929">
        <ele>573.5</ele>
        <time>2003-04-20T21:54:31Z</time>
      </trkpt>
      <trkpt lat="40.377933019772172" lon="-3.684837017208338">
        <ele>574.60000000000002</ele>
        <time>2003-04-20T21:54:35Z</time>
      </trkpt>
      <trkpt lat="40.378932980820537" lon="-3.685506982728839">
        <ele>575.89999999999998</ele>
        <time>2003-04-20T21:54:39Z</time>
      </trkpt>
      <trkpt lat="40.379926990717649" lon="-3.686182983219624">
        <ele>577.60000000000002</ele>
        <time>2003-04-20T21:54:43Z</time>
      </trkpt>
      <trkpt lat="40.380814969539642" lon="-3.686786983162165">
        <ele>581.39999999999998</ele>
        <time>2003-04-20T21:54:47Z</time>
      </trkpt>
      <trkpt lat="40.381606975570321" lon="-3.687359970062971">
        <ele>585</ele>
        <time>2003-04-20T21:54:51Z</time>
      </trkpt>
      <trkpt lat="40.381957003846765" lon="-3.687717039138079">
        <ele>585.20000000000005</ele>
        <time>2003-04-20T21:54:52Z</time>
      </trkpt>
      <trkpt lat="40.382251963019371" lon="-3.688163040205836">
        <ele>584.20000000000005</ele>
        <time>2003-04-20T21:54:55Z</time>
      </trkpt>
      <trkpt lat="40.38250501267612" lon="-3.688677018508315">
        <ele>584</ele>
        <time>2003-04-20T21:54:56Z</time>
      </trkpt>
      <trkpt lat="40.38295797072351" lon="-3.689770018681884">
        <ele>581.60000000000002</ele>
        <time>2003-04-20T21:55:00Z</time>
      </trkpt>
      <trkpt lat="40.383532969281077" lon="-3.690871987491846">
        <ele>575.70000000000005</ele>
        <time>2003-04-20T21:55:04Z</time>
      </trkpt>
      <trkpt lat="40.384279964491725" lon="-3.691902961581945">
        <ele>573.89999999999998</ele>
        <time>2003-04-20T21:55:08Z</time>
      </trkpt>
      <trkpt lat="40.385093009099364" lon="-3.692888002842665">
        <ele>574.20000000000005</ele>
        <time>2003-04-20T21:55:12Z</time>
      </trkpt>
      <trkpt lat="40.385924996808171" lon="-3.693887041881681">
        <ele>575.60000000000002</ele>
        <time>2003-04-20T21:55:17Z</time>
      </trkpt>
      <trkpt lat="40.386771988123655" lon="-3.694922961294651">
        <ele>575.29999999999995</ele>
        <time>2003-04-20T21:55:21Z</time>
      </trkpt>
      <trkpt lat="40.387655021622777" lon="-3.695986960083246">
        <ele>575.5</ele>
        <time>2003-04-20T21:55:25Z</time>
      </trkpt>
      <trkpt lat="40.388330016285181" lon="-3.696797993034124">
        <ele>575.29999999999995</ele>
        <time>2003-04-20T21:55:27Z</time>
      </trkpt>
      <trkpt lat="40.389012973755598" lon="-3.697574995458126">
        <ele>574.89999999999998</ele>
        <time>2003-04-20T21:55:30Z</time>
      </trkpt>
      <trkpt lat="40.389697020873427" lon="-3.698351997882128">
        <ele>574.39999999999998</ele>
        <time>2003-04-20T21:55:34Z</time>
      </trkpt>
      <trkpt lat="40.39064702577889" lon="-3.699275013059378">
        <ele>575.39999999999998</ele>
        <time>2003-04-20T21:55:38Z</time>
      </trkpt>
      <trkpt lat="40.391586972400546" lon="-3.700127033516765">
        <ele>576.29999999999995</ele>
        <time>2003-04-20T21:55:42Z</time>
      </trkpt>
      <trkpt lat="40.392537983134389" lon="-3.700952986255288">
        <ele>576.70000000000005</ele>
        <time>2003-04-20T21:55:46Z</time>
      </trkpt>
      <trkpt lat="40.393456974998116" lon="-3.701767958700657">
        <ele>577.5</ele>
        <time>2003-04-20T21:55:49Z</time>
      </trkpt>
      <trkpt lat="40.394334979355335" lon="-3.702658032998443">
        <ele>577.20000000000005</ele>
        <time>2003-04-20T21:55:53Z</time>
      </trkpt>
      <trkpt lat="40.394892962649465" lon="-3.703484991565347">
        <ele>576.79999999999995</ele>
        <time>2003-04-20T21:55:57Z</time>
      </trkpt>
      <trkpt lat="40.395356984809041" lon="-3.704434996470809">
        <ele>576.70000000000005</ele>
        <time>2003-04-20T21:56:00Z</time>
      </trkpt>
      <trkpt lat="40.395765015855432" lon="-3.705421965569258">
        <ele>576.60000000000002</ele>
        <time>2003-04-20T21:56:02Z</time>
      </trkpt>
      <trkpt lat="40.396123006939888" lon="-3.706810008734465">
        <ele>577.60000000000002</ele>
        <time>2003-04-20T21:56:06Z</time>
      </trkpt>
      <trkpt lat="40.396491978317499" lon="-3.708144994452596">
        <ele>578.60000000000002</ele>
        <time>2003-04-20T21:56:11Z</time>
      </trkpt>
      <trkpt lat="40.396867990493774" lon="-3.709417032077909">
        <ele>577</ele>
        <time>2003-04-20T21:56:15Z</time>
      </trkpt>
      <trkpt lat="40.397357996553183" lon="-3.710622014477849">
        <ele>577.5</ele>
        <time>2003-04-20T21:56:19Z</time>
      </trkpt>
      <trkpt lat="40.397677011787891" lon="-3.711187038570643">
        <ele>578</ele>
        <time>2003-04-20T21:56:20Z</time>
      </trkpt>
      <trkpt lat="40.398402968421578" lon="-3.712250031530857">
        <ele>578.5</ele>
        <time>2003-04-20T21:56:24Z</time>
      </trkpt>
      <trkpt lat="40.399175025522709" lon="-3.713195007294416">
        <ele>578.89999999999998</ele>
        <time>2003-04-20T21:56:28Z</time>
      </trkpt>
      <trkpt lat="40.399656984955072" lon="-3.713921969756484">
        <ele>578.89999999999998</ele>
        <time>2003-04-20T21:56:32Z</time>
      </trkpt>
      <trkpt lat="40.399892013520002" lon="-3.714509960263968">
        <ele>578.79999999999995</ele>
        <time>2003-04-20T21:56:33Z</time>
      </trkpt>
      <trkpt lat="40.400227960199118" lon="-3.71578199788928">
        <ele>579</ele>
        <time>2003-04-20T21:56:38Z</time>
      </trkpt>
      <trkpt lat="40.400355029851198" lon="-3.716750023886561">
        <ele>579.10000000000002</ele>
        <time>2003-04-20T21:56:40Z</time>
      </trkpt>
      <trkpt lat="40.400329967960715" lon="-3.71741496026516">
        <ele>579.70000000000005</ele>
        <time>2003-04-20T21:56:43Z</time>
      </trkpt>
      <trkpt lat="40.400235000997782" lon="-3.718712981790304">
        <ele>579</ele>
        <time>2003-04-20T21:56:47Z</time>
      </trkpt>
      <trkpt lat="40.40025201626122" lon="-3.719571959227324">
        <ele>578.39999999999998</ele>
        <time>2003-04-20T21:56:50Z</time>
      </trkpt>
      <trkpt lat="40.400383025407791" lon="-3.720130026340485">
        <ele>577.79999999999995</ele>
        <time>2003-04-20T21:56:51Z</time>
      </trkpt>
      <trkpt lat="40.400628028437495" lon="-3.720648027956486">
        <ele>577.60000000000002</ele>
        <time>2003-04-20T21:56:54Z</time>
      </trkpt>
      <trkpt lat="40.400946959853172" lon="-3.721077013760805">
        <ele>577.39999999999998</ele>
        <time>2003-04-20T21:56:55Z</time>
      </trkpt>
      <trkpt lat="40.401548026129603" lon="-3.72196801006794">
        <ele>576.20000000000005</ele>
        <time>2003-04-20T21:56:59Z</time>
      </trkpt>
      <trkpt lat="40.402256967499852" lon="-3.722682986408472">
        <ele>575.89999999999998</ele>
        <time>2003-04-20T21:57:03Z</time>
      </trkpt>
      <trkpt lat="40.403147963806987" lon="-3.722013020887971">
        <ele>576.79999999999995</ele>
        <time>2003-04-20T21:57:06Z</time>
      </trkpt>
      <trkpt lat="40.403418028727174" lon="-3.722046967595816">
        <ele>577.20000000000005</ele>
        <time>2003-04-20T21:57:07Z</time>
      </trkpt>
      <trkpt lat="40.404492001980543" lon="-3.722177976742387">
        <ele>577.89999999999998</ele>
        <time>2003-04-20T21:57:10Z</time>
      </trkpt>
      <trkpt lat="40.405509984120727" lon="-3.722262969240546">
        <ele>578.20000000000005</ele>
        <time>2003-04-20T21:57:14Z</time>
      </trkpt>
      <trkpt lat="40.405769990757108" lon="-3.722240002825856">
        <ele>578.20000000000005</ele>
        <time>2003-04-20T21:57:15Z</time>
      </trkpt>
      <trkpt lat="40.406567025929689" lon="-3.722047973424196">
        <ele>578.89999999999998</ele>
        <time>2003-04-20T21:57:18Z</time>
      </trkpt>
      <trkpt lat="40.407582996413112" lon="-3.721659975126386">
        <ele>580</ele>
        <time>2003-04-20T21:57:22Z</time>
      </trkpt>
      <trkpt lat="40.408533001318574" lon="-3.721352024003863">
        <ele>581</ele>
        <time>2003-04-20T21:57:26Z</time>
      </trkpt>
      <trkpt lat="40.409430032595992" lon="-3.721177009865642">
        <ele>581.5</ele>
        <time>2003-04-20T21:57:30Z</time>
      </trkpt>
      <trkpt lat="40.409637987613678" lon="-3.721190001815558">
        <ele>581</ele>
        <time>2003-04-20T21:57:32Z</time>
      </trkpt>
      <trkpt lat="40.410682037472725" lon="-3.721277005970478">
        <ele>581.10000000000002</ele>
        <time>2003-04-20T21:57:37Z</time>
      </trkpt>
      <trkpt lat="40.411332976073027" lon="-3.721297960728407">
        <ele>581.5</ele>
        <time>2003-04-20T21:57:40Z</time>
      </trkpt>
      <trkpt lat="40.412254985421896" lon="-3.72119796462357">
        <ele>581.70000000000005</ele>
        <time>2003-04-20T21:57:44Z</time>
      </trkpt>
      <trkpt lat="40.413197027519345" lon="-3.72106796130538">
        <ele>582</ele>
        <time>2003-04-20T21:57:48Z</time>
      </trkpt>
      <trkpt lat="40.413585025817156" lon="-3.721014987677336">
        <ele>582.79999999999995</ele>
        <time>2003-04-20T21:57:49Z</time>
      </trkpt>
      <trkpt lat="40.41374696418643" lon="-3.720995038747788">
        <ele>582.29999999999995</ele>
        <time>2003-04-20T21:57:50Z</time>
      </trkpt>
      <trkpt lat="40.413885014131665" lon="-3.72098196297884">
        <ele>582.89999999999998</ele>
        <time>2003-04-20T21:57:52Z</time>
      </trkpt>
      <trkpt lat="40.413992973044515" lon="-3.720975005999208">
        <ele>582.89999999999998</ele>
        <time>2003-04-20T21:57:53Z</time>
      </trkpt>
      <trkpt lat="40.414160024374723" lon="-3.721007024869323">
        <ele>583.10000000000002</ele>
        <time>2003-04-20T21:57:54Z</time>
      </trkpt>
      <trkpt lat="40.414209980517626" lon="-3.721180027350783">
        <ele>584.60000000000002</ele>
        <time>2003-04-20T21:57:57Z</time>
      </trkpt>
      <trkpt lat="40.414197994396091" lon="-3.721429975703359">
        <ele>584.70000000000005</ele>
        <time>2003-04-20T21:57:59Z</time>
      </trkpt>
      <trkpt lat="40.414191959425807" lon="-3.721746979281306">
        <ele>584.39999999999998</ele>
        <time>2003-04-20T21:58:01Z</time>
      </trkpt>
      <trkpt lat="40.414192965254188" lon="-3.722130032256246">
        <ele>584</ele>
        <time>2003-04-20T21:58:03Z</time>
      </trkpt>
      <trkpt lat="40.414185002446175" lon="-3.723395029082894">
        <ele>583.60000000000002</ele>
        <time>2003-04-20T21:58:09Z</time>
      </trkpt>
      <trkpt lat="40.414179973304272" lon="-3.723563002422452">
        <ele>583.5</ele>
        <time>2003-04-20T21:58:12Z</time>
      </trkpt>
      <trkpt lat="40.414179973304272" lon="-3.723697029054165">
        <ele>583.29999999999995</ele>
        <time>2003-04-20T21:58:13Z</time>
      </trkpt>
      <trkpt lat="40.41404795832932" lon="-3.72375201433897">
        <ele>622.39999999999998</ele>
        <time>2003-04-20T21:58:38Z</time>
      </trkpt>
      <trkpt lat="40.414037983864546" lon="-3.723906995728612">
        <ele>586.70000000000005</ele>
        <time>2003-04-20T21:58:43Z</time>
      </trkpt>
      <trkpt lat="40.414042007178068" lon="-3.724076980724931">
        <ele>575.20000000000005</ele>
        <time>2003-04-20T21:58:46Z</time>
      </trkpt>
      <trkpt lat="40.414057010784745" lon="-3.724400019273162">
        <ele>598.70000000000005</ele>
        <time>2003-04-20T21:58:48Z</time>
      </trkpt>
      <trkpt lat="40.414066985249519" lon="-3.725066967308521">
        <ele>592.89999999999998</ele>
        <time>2003-04-20T21:58:54Z</time>
      </trkpt>
      <trkpt lat="40.414034966379404" lon="-3.725377013906837">
        <ele>593.5</ele>
        <time>2003-04-20T21:58:57Z</time>
      </trkpt>
      <trkpt lat="40.413947962224483" lon="-3.726407987996936">
        <ele>597.5</ele>
        <time>2003-04-20T21:59:02Z</time>
      </trkpt>
      <trkpt lat="40.413827011361718" lon="-3.727732999250293">
        <ele>599.10000000000002</ele>
        <time>2003-04-20T21:59:09Z</time>
      </trkpt>
      <trkpt lat="40.413879984989762" lon="-3.727847998961806">
        <ele>599.29999999999995</ele>
        <time>2003-04-20T21:59:10Z</time>
      </trkpt>
      <trkpt lat="40.413870010524988" lon="-3.728012032806873">
        <ele>599.10000000000002</ele>
        <time>2003-04-20T21:59:10Z</time>
      </trkpt>
      <trkpt lat="40.413822988048196" lon="-3.728310009464622">
        <ele>599.29999999999995</ele>
        <time>2003-04-20T21:59:13Z</time>
      </trkpt>
      <trkpt lat="40.41378702968359" lon="-3.728430038318038">
        <ele>599.5</ele>
        <time>2003-04-20T21:59:14Z</time>
      </trkpt>
      <trkpt lat="40.413706982508302" lon="-3.728602034971118">
        <ele>600.29999999999995</ele>
        <time>2003-04-20T21:59:15Z</time>
      </trkpt>
      <trkpt lat="40.413634981960058" lon="-3.728732038289309">
        <ele>600.89999999999998</ele>
        <time>2003-04-20T21:59:18Z</time>
      </trkpt>
      <trkpt lat="40.413530040532351" lon="-3.728796998038888">
        <ele>601.60000000000002</ele>
        <time>2003-04-20T21:59:20Z</time>
      </trkpt>
      <trkpt lat="40.41342300362885" lon="-3.728772019967437">
        <ele>601.29999999999995</ele>
        <time>2003-04-20T21:59:22Z</time>
      </trkpt>
      <trkpt lat="40.413068030029535" lon="-3.728691972792149">
        <ele>602.39999999999998</ele>
        <time>2003-04-20T21:59:28Z</time>
      </trkpt>
      <trkpt lat="40.412541981786489" lon="-3.728625001385808">
        <ele>603.89999999999998</ele>
        <time>2003-04-20T21:59:37Z</time>
      </trkpt>
      <trkpt lat="40.412445003166795" lon="-3.72860798612237">
        <ele>603.10000000000002</ele>
        <time>2003-04-20T21:59:40Z</time>
      </trkpt>
      <trkpt lat="40.412309970706701" lon="-3.728622989729047">
        <ele>603.20000000000005</ele>
        <time>2003-04-20T21:59:41Z</time>
      </trkpt>
      <trkpt lat="40.412196982651949" lon="-3.728606980293989">
        <ele>603.29999999999995</ele>
        <time>2003-04-20T21:59:45Z</time>
      </trkpt>
      <trkpt lat="40.412166975438595" lon="-3.728772019967437">
        <ele>603.29999999999995</ele>
        <time>2003-04-20T21:59:48Z</time>
      </trkpt>
      <trkpt lat="40.41209296323359" lon="-3.729350036010146">
        <ele>603.29999999999995</ele>
        <time>2003-04-20T21:59:56Z</time>
      </trkpt>
      <trkpt lat="40.41204996407032" lon="-3.729535024613142">
        <ele>604.29999999999995</ele>
        <time>2003-04-20T21:59:59Z</time>
      </trkpt>
      <trkpt lat="40.412012999877334" lon="-3.729653041809797">
        <ele>608.89999999999998</ele>
        <time>2003-04-20T22:00:09Z</time>
      </trkpt>
      <trkpt lat="40.412002019584179" lon="-3.729756977409124">
        <ele>611.10000000000002</ele>
        <time>2003-04-20T22:00:31Z</time>
      </trkpt>
    </trkseg>
  </trk>

</gpx>
